<?xml version="1.0" encoding="UTF-8"?>
<gpx version="1.1" creator="https://www.www-youtrack-es.amenigma.com" xsi:schemaLocation="http://www.topografix.com/GPX/1/1 http://www.topografix.com/GPX/1/1/gpx.xsd http://www.garmin.com/xmlschemas/GpxExtensions/v3 http://www.garmin.com/xmlschemas/GpxExtensionsv3.xsd http://www.garmin.com/xmlschemas/TrackPointExtension/v1 http://www.garmin.com/xmlschemas/TrackPointExtensionv1.xsd" xmlns:gpxtpx="http://www.garmin.com/xmlschemas/TrackPointExtension/v1" xmlns:gpxx="http://www.garmin.com/xmlschemas/GpxExtensions/v3" xmlns:xsi="http://www.w3.org/2001/XMLSchema-instance">
  <metadata>
    <link href="https://www.www-youtrack-es.amenigma.com">
      <text>YouTrack.es</text>
    </link>
    <time>2026-09-01T20:11:22Z</time>
  </metadata>
  <trk>
    <src>https://www.www-youtrack-es.amenigma.com</src>
    <link href="https://www.www-youtrack-es.amenigma.com/ruta/13961-transandalus">
      <text>YouTrack.es</text>
    </link>
    <trkseg>
      <trkpt lat="37.390966" lon="-6.000921">
        <ele>5.617</ele>
        <time>2015-06-18T05:19:28Z</time>
      </trkpt>
      <trkpt lat="37.390966" lon="-6.000921">
        <ele>5.687</ele>
        <time>2015-06-18T05:19:29Z</time>
      </trkpt>
      <trkpt lat="37.390966" lon="-6.000921">
        <ele>5.615</ele>
        <time>2015-06-18T05:19:31Z</time>
      </trkpt>
      <trkpt lat="37.390966" lon="-6.000921">
        <ele>5.408</ele>
        <time>2015-06-18T05:19:32Z</time>
      </trkpt>
      <trkpt lat="37.390996" lon="-6.000907">
        <ele>5.492</ele>
        <time>2015-06-18T05:19:37Z</time>
      </trkpt>
      <trkpt lat="37.390974" lon="-6.000890">
        <ele>5.478</ele>
        <time>2015-06-18T05:19:47Z</time>
      </trkpt>
      <trkpt lat="37.390965" lon="-6.000884">
        <ele>5.414</ele>
        <time>2015-06-18T05:19:49Z</time>
      </trkpt>
      <trkpt lat="37.390990" lon="-6.000875">
        <ele>5.453</ele>
        <time>2015-06-18T05:19:54Z</time>
      </trkpt>
      <trkpt lat="37.390999" lon="-6.000878">
        <ele>5.486</ele>
        <time>2015-06-18T05:20:01Z</time>
      </trkpt>
      <trkpt lat="37.390996" lon="-6.000883">
        <ele>5.488</ele>
        <time>2015-06-18T05:20:03Z</time>
      </trkpt>
      <trkpt lat="37.391018" lon="-6.000897">
        <ele>5.431</ele>
        <time>2015-06-18T05:20:06Z</time>
      </trkpt>
      <trkpt lat="37.391031" lon="-6.000902">
        <ele>5.455</ele>
        <time>2015-06-18T05:20:07Z</time>
      </trkpt>
      <trkpt lat="37.390997" lon="-6.000886">
        <ele>5.411</ele>
        <time>2015-06-18T05:20:13Z</time>
      </trkpt>
      <trkpt lat="37.390921" lon="-6.000828">
        <ele>5.421</ele>
        <time>2015-06-18T05:20:16Z</time>
      </trkpt>
      <trkpt lat="37.390874" lon="-6.000779">
        <ele>5.403</ele>
        <time>2015-06-18T05:20:18Z</time>
      </trkpt>
      <trkpt lat="37.390698" lon="-6.000642">
        <ele>5.408</ele>
        <time>2015-06-18T05:20:25Z</time>
      </trkpt>
      <trkpt lat="37.390663" lon="-6.000630">
        <ele>5.482</ele>
        <time>2015-06-18T05:20:26Z</time>
      </trkpt>
      <trkpt lat="37.390546" lon="-6.000574">
        <ele>5.478</ele>
        <time>2015-06-18T05:20:30Z</time>
      </trkpt>
      <trkpt lat="37.390530" lon="-6.000577">
        <ele>5.414</ele>
        <time>2015-06-18T05:20:31Z</time>
      </trkpt>
      <trkpt lat="37.390405" lon="-6.000627">
        <ele>5.493</ele>
        <time>2015-06-18T05:20:36Z</time>
      </trkpt>
      <trkpt lat="37.390374" lon="-6.000637">
        <ele>5.426</ele>
        <time>2015-06-18T05:20:37Z</time>
      </trkpt>
      <trkpt lat="37.390205" lon="-6.000719">
        <ele>5.488</ele>
        <time>2015-06-18T05:20:42Z</time>
      </trkpt>
      <trkpt lat="37.390077" lon="-6.000821">
        <ele>5.441</ele>
        <time>2015-06-18T05:20:47Z</time>
      </trkpt>
      <trkpt lat="37.389930" lon="-6.000904">
        <ele>5.485</ele>
        <time>2015-06-18T05:20:52Z</time>
      </trkpt>
      <trkpt lat="37.389909" lon="-6.000911">
        <ele>5.874</ele>
        <time>2015-06-18T05:20:53Z</time>
      </trkpt>
      <trkpt lat="37.389891" lon="-6.000920">
        <ele>6.456</ele>
        <time>2015-06-18T05:20:54Z</time>
      </trkpt>
      <trkpt lat="37.389872" lon="-6.000928">
        <ele>6.821</ele>
        <time>2015-06-18T05:20:55Z</time>
      </trkpt>
      <trkpt lat="37.389853" lon="-6.000939">
        <ele>7.208</ele>
        <time>2015-06-18T05:20:56Z</time>
      </trkpt>
      <trkpt lat="37.389841" lon="-6.000957">
        <ele>7.678</ele>
        <time>2015-06-18T05:20:57Z</time>
      </trkpt>
      <trkpt lat="37.389829" lon="-6.000978">
        <ele>7.644</ele>
        <time>2015-06-18T05:20:58Z</time>
      </trkpt>
      <trkpt lat="37.389766" lon="-6.001080">
        <ele>7.670</ele>
        <time>2015-06-18T05:21:02Z</time>
      </trkpt>
      <trkpt lat="37.389649" lon="-6.001235">
        <ele>7.639</ele>
        <time>2015-06-18T05:21:07Z</time>
      </trkpt>
      <trkpt lat="37.389618" lon="-6.001270">
        <ele>7.622</ele>
        <time>2015-06-18T05:21:08Z</time>
      </trkpt>
      <trkpt lat="37.389443" lon="-6.001469">
        <ele>7.664</ele>
        <time>2015-06-18T05:21:14Z</time>
      </trkpt>
      <trkpt lat="37.389362" lon="-6.001550">
        <ele>7.697</ele>
        <time>2015-06-18T05:21:17Z</time>
      </trkpt>
      <trkpt lat="37.389294" lon="-6.001601">
        <ele>7.641</ele>
        <time>2015-06-18T05:21:19Z</time>
      </trkpt>
      <trkpt lat="37.389208" lon="-6.001640">
        <ele>7.617</ele>
        <time>2015-06-18T05:21:21Z</time>
      </trkpt>
      <trkpt lat="37.389077" lon="-6.001756">
        <ele>7.687</ele>
        <time>2015-06-18T05:21:24Z</time>
      </trkpt>
      <trkpt lat="37.389020" lon="-6.001826">
        <ele>7.615</ele>
        <time>2015-06-18T05:21:26Z</time>
      </trkpt>
      <trkpt lat="37.389027" lon="-6.002052">
        <ele>8.408</ele>
        <time>2015-06-18T05:21:31Z</time>
      </trkpt>
      <trkpt lat="37.389090" lon="-6.002125">
        <ele>8.872</ele>
        <time>2015-06-18T05:21:32Z</time>
      </trkpt>
      <trkpt lat="37.389122" lon="-6.002160">
        <ele>9.238</ele>
        <time>2015-06-18T05:21:33Z</time>
      </trkpt>
      <trkpt lat="37.389156" lon="-6.002172">
        <ele>9.634</ele>
        <time>2015-06-18T05:21:34Z</time>
      </trkpt>
      <trkpt lat="37.389228" lon="-6.002219">
        <ele>9.623</ele>
        <time>2015-06-18T05:21:39Z</time>
      </trkpt>
      <trkpt lat="37.389178" lon="-6.002249">
        <ele>9.686</ele>
        <time>2015-06-18T05:21:44Z</time>
      </trkpt>
      <trkpt lat="37.389094" lon="-6.002254">
        <ele>9.668</ele>
        <time>2015-06-18T05:21:49Z</time>
      </trkpt>
      <trkpt lat="37.389077" lon="-6.002250">
        <ele>9.621</ele>
        <time>2015-06-18T05:21:50Z</time>
      </trkpt>
      <trkpt lat="37.389020" lon="-6.002243">
        <ele>9.615</ele>
        <time>2015-06-18T05:21:53Z</time>
      </trkpt>
      <trkpt lat="37.388962" lon="-6.002252">
        <ele>9.668</ele>
        <time>2015-06-18T05:21:57Z</time>
      </trkpt>
      <trkpt lat="37.388916" lon="-6.002277">
        <ele>9.642</ele>
        <time>2015-06-18T05:22:01Z</time>
      </trkpt>
      <trkpt lat="37.388904" lon="-6.002272">
        <ele>9.626</ele>
        <time>2015-06-18T05:22:02Z</time>
      </trkpt>
      <trkpt lat="37.388832" lon="-6.002248">
        <ele>9.608</ele>
        <time>2015-06-18T05:22:05Z</time>
      </trkpt>
      <trkpt lat="37.388689" lon="-6.002215">
        <ele>9.667</ele>
        <time>2015-06-18T05:22:11Z</time>
      </trkpt>
      <trkpt lat="37.388583" lon="-6.002207">
        <ele>9.693</ele>
        <time>2015-06-18T05:22:14Z</time>
      </trkpt>
      <trkpt lat="37.388543" lon="-6.002198">
        <ele>9.699</ele>
        <time>2015-06-18T05:22:15Z</time>
      </trkpt>
      <trkpt lat="37.388409" lon="-6.002205">
        <ele>9.628</ele>
        <time>2015-06-18T05:22:18Z</time>
      </trkpt>
      <trkpt lat="37.388265" lon="-6.002200">
        <ele>9.681</ele>
        <time>2015-06-18T05:22:21Z</time>
      </trkpt>
      <trkpt lat="37.388118" lon="-6.002170">
        <ele>9.683</ele>
        <time>2015-06-18T05:22:24Z</time>
      </trkpt>
      <trkpt lat="37.388076" lon="-6.002157">
        <ele>9.696</ele>
        <time>2015-06-18T05:22:27Z</time>
      </trkpt>
      <trkpt lat="37.388000" lon="-6.002138">
        <ele>9.620</ele>
        <time>2015-06-18T05:22:29Z</time>
      </trkpt>
      <trkpt lat="37.387961" lon="-6.002118">
        <ele>9.672</ele>
        <time>2015-06-18T05:22:30Z</time>
      </trkpt>
      <trkpt lat="37.387833" lon="-6.002029">
        <ele>9.613</ele>
        <time>2015-06-18T05:22:34Z</time>
      </trkpt>
      <trkpt lat="37.387714" lon="-6.001959">
        <ele>9.614</ele>
        <time>2015-06-18T05:22:37Z</time>
      </trkpt>
      <trkpt lat="37.387634" lon="-6.001904">
        <ele>9.608</ele>
        <time>2015-06-18T05:22:39Z</time>
      </trkpt>
      <trkpt lat="37.387496" lon="-6.001766">
        <ele>9.628</ele>
        <time>2015-06-18T05:22:43Z</time>
      </trkpt>
      <trkpt lat="37.387301" lon="-6.001506">
        <ele>9.644</ele>
        <time>2015-06-18T05:22:50Z</time>
      </trkpt>
      <trkpt lat="37.387209" lon="-6.001370">
        <ele>9.630</ele>
        <time>2015-06-18T05:22:54Z</time>
      </trkpt>
      <trkpt lat="37.387135" lon="-6.001263">
        <ele>9.689</ele>
        <time>2015-06-18T05:22:57Z</time>
      </trkpt>
      <trkpt lat="37.387084" lon="-6.001187">
        <ele>9.612</ele>
        <time>2015-06-18T05:22:59Z</time>
      </trkpt>
      <trkpt lat="37.386992" lon="-6.001080">
        <ele>9.614</ele>
        <time>2015-06-18T05:23:02Z</time>
      </trkpt>
      <trkpt lat="37.386964" lon="-6.001057">
        <ele>9.667</ele>
        <time>2015-06-18T05:23:03Z</time>
      </trkpt>
      <trkpt lat="37.386943" lon="-6.001052">
        <ele>9.631</ele>
        <time>2015-06-18T05:23:04Z</time>
      </trkpt>
      <trkpt lat="37.386913" lon="-6.001072">
        <ele>9.694</ele>
        <time>2015-06-18T05:23:06Z</time>
      </trkpt>
      <trkpt lat="37.386877" lon="-6.001139">
        <ele>9.657</ele>
        <time>2015-06-18T05:23:10Z</time>
      </trkpt>
      <trkpt lat="37.386866" lon="-6.001150">
        <ele>9.622</ele>
        <time>2015-06-18T05:23:11Z</time>
      </trkpt>
      <trkpt lat="37.386855" lon="-6.001160">
        <ele>9.608</ele>
        <time>2015-06-18T05:23:12Z</time>
      </trkpt>
      <trkpt lat="37.386805" lon="-6.001246">
        <ele>9.680</ele>
        <time>2015-06-18T05:23:17Z</time>
      </trkpt>
      <trkpt lat="37.386744" lon="-6.001231">
        <ele>9.626</ele>
        <time>2015-06-18T05:23:21Z</time>
      </trkpt>
      <trkpt lat="37.386706" lon="-6.001194">
        <ele>9.632</ele>
        <time>2015-06-18T05:23:23Z</time>
      </trkpt>
      <trkpt lat="37.386649" lon="-6.001122">
        <ele>9.631</ele>
        <time>2015-06-18T05:23:26Z</time>
      </trkpt>
      <trkpt lat="37.386606" lon="-6.001046">
        <ele>9.624</ele>
        <time>2015-06-18T05:23:29Z</time>
      </trkpt>
      <trkpt lat="37.386576" lon="-6.001010">
        <ele>9.656</ele>
        <time>2015-06-18T05:23:31Z</time>
      </trkpt>
      <trkpt lat="37.386468" lon="-6.000881">
        <ele>9.629</ele>
        <time>2015-06-18T05:23:38Z</time>
      </trkpt>
      <trkpt lat="37.386431" lon="-6.000848">
        <ele>9.673</ele>
        <time>2015-06-18T05:23:41Z</time>
      </trkpt>
      <trkpt lat="37.386428" lon="-6.000847">
        <ele>9.633</ele>
        <time>2015-06-18T05:23:43Z</time>
      </trkpt>
      <trkpt lat="37.386420" lon="-6.000844">
        <ele>9.623</ele>
        <time>2015-06-18T05:23:46Z</time>
      </trkpt>
      <trkpt lat="37.386420" lon="-6.000846">
        <ele>9.615</ele>
        <time>2015-06-18T05:23:47Z</time>
      </trkpt>
      <trkpt lat="37.386418" lon="-6.000854">
        <ele>9.608</ele>
        <time>2015-06-18T05:23:49Z</time>
      </trkpt>
      <trkpt lat="37.386414" lon="-6.000851">
        <ele>9.644</ele>
        <time>2015-06-18T05:23:52Z</time>
      </trkpt>
      <trkpt lat="37.386411" lon="-6.000852">
        <ele>9.640</ele>
        <time>2015-06-18T05:23:55Z</time>
      </trkpt>
      <trkpt lat="37.386415" lon="-6.000852">
        <ele>9.656</ele>
        <time>2015-06-18T05:23:57Z</time>
      </trkpt>
      <trkpt lat="37.386429" lon="-6.000859">
        <ele>9.675</ele>
        <time>2015-06-18T05:24:06Z</time>
      </trkpt>
      <trkpt lat="37.386429" lon="-6.000856">
        <ele>9.628</ele>
        <time>2015-06-18T05:24:09Z</time>
      </trkpt>
      <trkpt lat="37.386429" lon="-6.000856">
        <ele>9.670</ele>
        <time>2015-06-18T05:24:14Z</time>
      </trkpt>
      <trkpt lat="37.386429" lon="-6.000856">
        <ele>9.613</ele>
        <time>2015-06-18T05:24:17Z</time>
      </trkpt>
      <trkpt lat="37.386429" lon="-6.000856">
        <ele>9.627</ele>
        <time>2015-06-18T05:24:20Z</time>
      </trkpt>
      <trkpt lat="37.386429" lon="-6.000856">
        <ele>9.623</ele>
        <time>2015-06-18T05:24:33Z</time>
      </trkpt>
      <trkpt lat="37.386429" lon="-6.000856">
        <ele>9.683</ele>
        <time>2015-06-18T05:24:35Z</time>
      </trkpt>
      <trkpt lat="37.386430" lon="-6.000855">
        <ele>9.611</ele>
        <time>2015-06-18T05:24:47Z</time>
      </trkpt>
      <trkpt lat="37.386430" lon="-6.000855">
        <ele>9.608</ele>
        <time>2015-06-18T05:24:51Z</time>
      </trkpt>
      <trkpt lat="37.386430" lon="-6.000855">
        <ele>9.663</ele>
        <time>2015-06-18T05:25:06Z</time>
      </trkpt>
      <trkpt lat="37.386430" lon="-6.000855">
        <ele>9.689</ele>
        <time>2015-06-18T05:25:20Z</time>
      </trkpt>
      <trkpt lat="37.386431" lon="-6.000854">
        <ele>9.655</ele>
        <time>2015-06-18T05:25:34Z</time>
      </trkpt>
      <trkpt lat="37.386431" lon="-6.000854">
        <ele>9.614</ele>
        <time>2015-06-18T05:25:35Z</time>
      </trkpt>
      <trkpt lat="37.386431" lon="-6.000854">
        <ele>9.617</ele>
        <time>2015-06-18T05:25:36Z</time>
      </trkpt>
      <trkpt lat="37.386431" lon="-6.000854">
        <ele>9.649</ele>
        <time>2015-06-18T05:25:37Z</time>
      </trkpt>
      <trkpt lat="37.386431" lon="-6.000854">
        <ele>9.642</ele>
        <time>2015-06-18T05:25:44Z</time>
      </trkpt>
      <trkpt lat="37.386431" lon="-6.000854">
        <ele>9.666</ele>
        <time>2015-06-18T05:25:47Z</time>
      </trkpt>
      <trkpt lat="37.386431" lon="-6.000854">
        <ele>9.628</ele>
        <time>2015-06-18T05:25:49Z</time>
      </trkpt>
      <trkpt lat="37.386431" lon="-6.000854">
        <ele>9.689</ele>
        <time>2015-06-18T05:25:52Z</time>
      </trkpt>
      <trkpt lat="37.386431" lon="-6.000854">
        <ele>9.617</ele>
        <time>2015-06-18T05:25:55Z</time>
      </trkpt>
      <trkpt lat="37.386431" lon="-6.000854">
        <ele>9.608</ele>
        <time>2015-06-18T05:25:57Z</time>
      </trkpt>
      <trkpt lat="37.386431" lon="-6.000854">
        <ele>9.663</ele>
        <time>2015-06-18T05:25:59Z</time>
      </trkpt>
      <trkpt lat="37.386431" lon="-6.000854">
        <ele>9.689</ele>
        <time>2015-06-18T05:26:00Z</time>
      </trkpt>
      <trkpt lat="37.386429" lon="-6.000852">
        <ele>9.675</ele>
        <time>2015-06-18T05:26:02Z</time>
      </trkpt>
      <trkpt lat="37.386412" lon="-6.000829">
        <ele>9.624</ele>
        <time>2015-06-18T05:26:04Z</time>
      </trkpt>
      <trkpt lat="37.386405" lon="-6.000825">
        <ele>9.677</ele>
        <time>2015-06-18T05:26:05Z</time>
      </trkpt>
      <trkpt lat="37.386400" lon="-6.000828">
        <ele>9.259</ele>
        <time>2015-06-18T05:26:06Z</time>
      </trkpt>
      <trkpt lat="37.386399" lon="-6.000835">
        <ele>8.852</ele>
        <time>2015-06-18T05:26:07Z</time>
      </trkpt>
      <trkpt lat="37.386404" lon="-6.000842">
        <ele>8.476</ele>
        <time>2015-06-18T05:26:08Z</time>
      </trkpt>
      <trkpt lat="37.386409" lon="-6.000853">
        <ele>8.044</ele>
        <time>2015-06-18T05:26:09Z</time>
      </trkpt>
      <trkpt lat="37.386412" lon="-6.000862">
        <ele>7.605</ele>
        <time>2015-06-18T05:26:10Z</time>
      </trkpt>
      <trkpt lat="37.386411" lon="-6.000865">
        <ele>7.615</ele>
        <time>2015-06-18T05:26:15Z</time>
      </trkpt>
      <trkpt lat="37.386411" lon="-6.000865">
        <ele>7.608</ele>
        <time>2015-06-18T05:26:21Z</time>
      </trkpt>
      <trkpt lat="37.386411" lon="-6.000865">
        <ele>7.665</ele>
        <time>2015-06-18T05:26:26Z</time>
      </trkpt>
      <trkpt lat="37.386411" lon="-6.000865">
        <ele>7.661</ele>
        <time>2015-06-18T05:26:28Z</time>
      </trkpt>
      <trkpt lat="37.386411" lon="-6.000865">
        <ele>7.657</ele>
        <time>2015-06-18T05:26:30Z</time>
      </trkpt>
      <trkpt lat="37.386411" lon="-6.000865">
        <ele>7.636</ele>
        <time>2015-06-18T05:26:38Z</time>
      </trkpt>
      <trkpt lat="37.386411" lon="-6.000865">
        <ele>7.679</ele>
        <time>2015-06-18T05:26:40Z</time>
      </trkpt>
      <trkpt lat="37.386411" lon="-6.000865">
        <ele>7.671</ele>
        <time>2015-06-18T05:26:43Z</time>
      </trkpt>
      <trkpt lat="37.386412" lon="-6.000864">
        <ele>7.614</ele>
        <time>2015-06-18T05:26:46Z</time>
      </trkpt>
      <trkpt lat="37.386410" lon="-6.000854">
        <ele>7.668</ele>
        <time>2015-06-18T05:26:47Z</time>
      </trkpt>
      <trkpt lat="37.386406" lon="-6.000846">
        <ele>7.671</ele>
        <time>2015-06-18T05:26:48Z</time>
      </trkpt>
      <trkpt lat="37.386404" lon="-6.000801">
        <ele>7.641</ele>
        <time>2015-06-18T05:26:54Z</time>
      </trkpt>
      <trkpt lat="37.386404" lon="-6.000801">
        <ele>7.615</ele>
        <time>2015-06-18T05:26:55Z</time>
      </trkpt>
      <trkpt lat="37.386404" lon="-6.000801">
        <ele>7.608</ele>
        <time>2015-06-18T05:27:08Z</time>
      </trkpt>
      <trkpt lat="37.386404" lon="-6.000801">
        <ele>7.648</ele>
        <time>2015-06-18T05:27:19Z</time>
      </trkpt>
      <trkpt lat="37.386404" lon="-6.000801">
        <ele>7.624</ele>
        <time>2015-06-18T05:27:30Z</time>
      </trkpt>
      <trkpt lat="37.386404" lon="-6.000803">
        <ele>7.670</ele>
        <time>2015-06-18T05:27:41Z</time>
      </trkpt>
      <trkpt lat="37.386406" lon="-6.000805">
        <ele>7.689</ele>
        <time>2015-06-18T05:27:42Z</time>
      </trkpt>
      <trkpt lat="37.386410" lon="-6.000812">
        <ele>7.622</ele>
        <time>2015-06-18T05:27:43Z</time>
      </trkpt>
      <trkpt lat="37.386417" lon="-6.000823">
        <ele>7.644</ele>
        <time>2015-06-18T05:27:45Z</time>
      </trkpt>
      <trkpt lat="37.386419" lon="-6.000828">
        <ele>7.687</ele>
        <time>2015-06-18T05:27:51Z</time>
      </trkpt>
      <trkpt lat="37.386419" lon="-6.000828">
        <ele>7.681</ele>
        <time>2015-06-18T05:27:59Z</time>
      </trkpt>
      <trkpt lat="37.386419" lon="-6.000828">
        <ele>7.649</ele>
        <time>2015-06-18T05:28:05Z</time>
      </trkpt>
      <trkpt lat="37.386419" lon="-6.000828">
        <ele>7.602</ele>
        <time>2015-06-18T05:28:08Z</time>
      </trkpt>
      <trkpt lat="37.386419" lon="-6.000828">
        <ele>7.622</ele>
        <time>2015-06-18T05:28:13Z</time>
      </trkpt>
      <trkpt lat="37.386419" lon="-6.000828">
        <ele>7.608</ele>
        <time>2015-06-18T05:28:27Z</time>
      </trkpt>
      <trkpt lat="37.386419" lon="-6.000828">
        <ele>7.695</ele>
        <time>2015-06-18T05:28:30Z</time>
      </trkpt>
      <trkpt lat="37.386419" lon="-6.000828">
        <ele>7.651</ele>
        <time>2015-06-18T05:28:43Z</time>
      </trkpt>
      <trkpt lat="37.386419" lon="-6.000828">
        <ele>7.667</ele>
        <time>2015-06-18T05:28:54Z</time>
      </trkpt>
      <trkpt lat="37.386419" lon="-6.000828">
        <ele>7.686</ele>
        <time>2015-06-18T05:29:03Z</time>
      </trkpt>
      <trkpt lat="37.386420" lon="-6.000831">
        <ele>7.649</ele>
        <time>2015-06-18T05:29:17Z</time>
      </trkpt>
      <trkpt lat="37.386420" lon="-6.000831">
        <ele>7.611</ele>
        <time>2015-06-18T05:29:33Z</time>
      </trkpt>
      <trkpt lat="37.386420" lon="-6.000831">
        <ele>7.694</ele>
        <time>2015-06-18T05:29:40Z</time>
      </trkpt>
      <trkpt lat="37.386419" lon="-6.000835">
        <ele>7.698</ele>
        <time>2015-06-18T05:29:52Z</time>
      </trkpt>
      <trkpt lat="37.386419" lon="-6.000835">
        <ele>7.612</ele>
        <time>2015-06-18T05:30:09Z</time>
      </trkpt>
      <trkpt lat="37.386419" lon="-6.000835">
        <ele>7.632</ele>
        <time>2015-06-18T05:30:16Z</time>
      </trkpt>
      <trkpt lat="37.386419" lon="-6.000835">
        <ele>7.605</ele>
        <time>2015-06-18T05:30:19Z</time>
      </trkpt>
      <trkpt lat="37.386419" lon="-6.000835">
        <ele>7.608</ele>
        <time>2015-06-18T05:30:21Z</time>
      </trkpt>
      <trkpt lat="37.386420" lon="-6.000837">
        <ele>7.622</ele>
        <time>2015-06-18T05:30:29Z</time>
      </trkpt>
      <trkpt lat="37.386420" lon="-6.000837">
        <ele>7.698</ele>
        <time>2015-06-18T05:30:33Z</time>
      </trkpt>
      <trkpt lat="37.386420" lon="-6.000837">
        <ele>7.624</ele>
        <time>2015-06-18T05:30:35Z</time>
      </trkpt>
      <trkpt lat="37.386420" lon="-6.000837">
        <ele>7.633</ele>
        <time>2015-06-18T05:30:43Z</time>
      </trkpt>
      <trkpt lat="37.386420" lon="-6.000837">
        <ele>7.616</ele>
        <time>2015-06-18T05:30:50Z</time>
      </trkpt>
      <trkpt lat="37.386420" lon="-6.000837">
        <ele>7.688</ele>
        <time>2015-06-18T05:31:04Z</time>
      </trkpt>
      <trkpt lat="37.386423" lon="-6.000839">
        <ele>7.631</ele>
        <time>2015-06-18T05:31:18Z</time>
      </trkpt>
      <trkpt lat="37.386423" lon="-6.000839">
        <ele>7.615</ele>
        <time>2015-06-18T05:31:31Z</time>
      </trkpt>
      <trkpt lat="37.386423" lon="-6.000839">
        <ele>7.634</ele>
        <time>2015-06-18T05:31:39Z</time>
      </trkpt>
      <trkpt lat="37.386423" lon="-6.000839">
        <ele>7.655</ele>
        <time>2015-06-18T05:31:43Z</time>
      </trkpt>
      <trkpt lat="37.386423" lon="-6.000839">
        <ele>7.610</ele>
        <time>2015-06-18T05:31:45Z</time>
      </trkpt>
      <trkpt lat="37.386420" lon="-6.000832">
        <ele>7.608</ele>
        <time>2015-06-18T05:31:59Z</time>
      </trkpt>
      <trkpt lat="37.386420" lon="-6.000832">
        <ele>7.624</ele>
        <time>2015-06-18T05:32:16Z</time>
      </trkpt>
      <trkpt lat="37.386420" lon="-6.000832">
        <ele>7.660</ele>
        <time>2015-06-18T05:32:20Z</time>
      </trkpt>
      <trkpt lat="37.386421" lon="-6.000828">
        <ele>7.616</ele>
        <time>2015-06-18T05:32:30Z</time>
      </trkpt>
      <trkpt lat="37.386421" lon="-6.000828">
        <ele>7.665</ele>
        <time>2015-06-18T05:32:43Z</time>
      </trkpt>
      <trkpt lat="37.386421" lon="-6.000828">
        <ele>7.648</ele>
        <time>2015-06-18T05:32:55Z</time>
      </trkpt>
      <trkpt lat="37.386421" lon="-6.000828">
        <ele>7.670</ele>
        <time>2015-06-18T05:32:56Z</time>
      </trkpt>
      <trkpt lat="37.386422" lon="-6.000829">
        <ele>7.653</ele>
        <time>2015-06-18T05:33:08Z</time>
      </trkpt>
      <trkpt lat="37.386422" lon="-6.000829">
        <ele>7.667</ele>
        <time>2015-06-18T05:33:15Z</time>
      </trkpt>
      <trkpt lat="37.386422" lon="-6.000829">
        <ele>7.632</ele>
        <time>2015-06-18T05:33:19Z</time>
      </trkpt>
      <trkpt lat="37.386422" lon="-6.000829">
        <ele>7.692</ele>
        <time>2015-06-18T05:33:22Z</time>
      </trkpt>
      <trkpt lat="37.386422" lon="-6.000829">
        <ele>7.611</ele>
        <time>2015-06-18T05:33:25Z</time>
      </trkpt>
      <trkpt lat="37.386422" lon="-6.000829">
        <ele>7.608</ele>
        <time>2015-06-18T05:33:28Z</time>
      </trkpt>
      <trkpt lat="37.386422" lon="-6.000829">
        <ele>7.654</ele>
        <time>2015-06-18T05:33:31Z</time>
      </trkpt>
      <trkpt lat="37.386422" lon="-6.000829">
        <ele>7.630</ele>
        <time>2015-06-18T05:33:33Z</time>
      </trkpt>
      <trkpt lat="37.386419" lon="-6.000826">
        <ele>7.646</ele>
        <time>2015-06-18T05:33:41Z</time>
      </trkpt>
      <trkpt lat="37.386414" lon="-6.000812">
        <ele>7.645</ele>
        <time>2015-06-18T05:33:43Z</time>
      </trkpt>
      <trkpt lat="37.386400" lon="-6.000834">
        <ele>7.638</ele>
        <time>2015-06-18T05:33:48Z</time>
      </trkpt>
      <trkpt lat="37.386419" lon="-6.000869">
        <ele>7.060</ele>
        <time>2015-06-18T05:33:51Z</time>
      </trkpt>
      <trkpt lat="37.386422" lon="-6.000877">
        <ele>6.643</ele>
        <time>2015-06-18T05:33:52Z</time>
      </trkpt>
      <trkpt lat="37.386432" lon="-6.000885">
        <ele>6.287</ele>
        <time>2015-06-18T05:33:53Z</time>
      </trkpt>
      <trkpt lat="37.386439" lon="-6.000895">
        <ele>5.868</ele>
        <time>2015-06-18T05:33:54Z</time>
      </trkpt>
      <trkpt lat="37.386447" lon="-6.000906">
        <ele>5.442</ele>
        <time>2015-06-18T05:33:55Z</time>
      </trkpt>
      <trkpt lat="37.386464" lon="-6.000935">
        <ele>5.426</ele>
        <time>2015-06-18T05:33:58Z</time>
      </trkpt>
      <trkpt lat="37.386460" lon="-6.000956">
        <ele>5.408</ele>
        <time>2015-06-18T05:34:00Z</time>
      </trkpt>
      <trkpt lat="37.386450" lon="-6.000955">
        <ele>5.047</ele>
        <time>2015-06-18T05:34:01Z</time>
      </trkpt>
      <trkpt lat="37.386444" lon="-6.000949">
        <ele>4.613</ele>
        <time>2015-06-18T05:34:02Z</time>
      </trkpt>
      <trkpt lat="37.386436" lon="-6.000946">
        <ele>4.229</ele>
        <time>2015-06-18T05:34:03Z</time>
      </trkpt>
      <trkpt lat="37.386429" lon="-6.000942">
        <ele>3.638</ele>
        <time>2015-06-18T05:34:04Z</time>
      </trkpt>
      <trkpt lat="37.386423" lon="-6.000942">
        <ele>3.241</ele>
        <time>2015-06-18T05:34:05Z</time>
      </trkpt>
      <trkpt lat="37.386414" lon="-6.000935">
        <ele>3.283</ele>
        <time>2015-06-18T05:34:06Z</time>
      </trkpt>
      <trkpt lat="37.386365" lon="-6.000905">
        <ele>3.266</ele>
        <time>2015-06-18T05:34:09Z</time>
      </trkpt>
      <trkpt lat="37.386312" lon="-6.000828">
        <ele>3.210</ele>
        <time>2015-06-18T05:34:13Z</time>
      </trkpt>
      <trkpt lat="37.386297" lon="-6.000809">
        <ele>3.228</ele>
        <time>2015-06-18T05:34:14Z</time>
      </trkpt>
      <trkpt lat="37.386173" lon="-6.000668">
        <ele>3.289</ele>
        <time>2015-06-18T05:34:19Z</time>
      </trkpt>
      <trkpt lat="37.386080" lon="-6.000562">
        <ele>3.217</ele>
        <time>2015-06-18T05:34:22Z</time>
      </trkpt>
      <trkpt lat="37.386016" lon="-6.000492">
        <ele>3.208</ele>
        <time>2015-06-18T05:34:24Z</time>
      </trkpt>
      <trkpt lat="37.385987" lon="-6.000457">
        <ele>3.223</ele>
        <time>2015-06-18T05:34:25Z</time>
      </trkpt>
      <trkpt lat="37.385840" lon="-6.000299">
        <ele>3.299</ele>
        <time>2015-06-18T05:34:30Z</time>
      </trkpt>
      <trkpt lat="37.385804" lon="-6.000284">
        <ele>3.255</ele>
        <time>2015-06-18T05:34:31Z</time>
      </trkpt>
      <trkpt lat="37.385698" lon="-6.000227">
        <ele>3.274</ele>
        <time>2015-06-18T05:34:34Z</time>
      </trkpt>
      <trkpt lat="37.385569" lon="-6.000078">
        <ele>3.247</ele>
        <time>2015-06-18T05:34:38Z</time>
      </trkpt>
      <trkpt lat="37.385532" lon="-6.000039">
        <ele>3.249</ele>
        <time>2015-06-18T05:34:39Z</time>
      </trkpt>
      <trkpt lat="37.385335" lon="-5.999822">
        <ele>3.242</ele>
        <time>2015-06-18T05:34:44Z</time>
      </trkpt>
      <trkpt lat="37.385294" lon="-5.999785">
        <ele>3.276</ele>
        <time>2015-06-18T05:34:45Z</time>
      </trkpt>
      <trkpt lat="37.385219" lon="-5.999711">
        <ele>2.836</ele>
        <time>2015-06-18T05:34:47Z</time>
      </trkpt>
      <trkpt lat="37.385181" lon="-5.999663">
        <ele>2.417</ele>
        <time>2015-06-18T05:34:48Z</time>
      </trkpt>
      <trkpt lat="37.385139" lon="-5.999614">
        <ele>2.018</ele>
        <time>2015-06-18T05:34:49Z</time>
      </trkpt>
      <trkpt lat="37.385102" lon="-5.999570">
        <ele>1.608</ele>
        <time>2015-06-18T05:34:50Z</time>
      </trkpt>
      <trkpt lat="37.385062" lon="-5.999520">
        <ele>1.294</ele>
        <time>2015-06-18T05:34:51Z</time>
      </trkpt>
      <trkpt lat="37.384836" lon="-5.999267">
        <ele>1.290</ele>
        <time>2015-06-18T05:34:56Z</time>
      </trkpt>
      <trkpt lat="37.384577" lon="-5.998981">
        <ele>1.236</ele>
        <time>2015-06-18T05:35:02Z</time>
      </trkpt>
      <trkpt lat="37.384499" lon="-5.998898">
        <ele>1.245</ele>
        <time>2015-06-18T05:35:04Z</time>
      </trkpt>
      <trkpt lat="37.384383" lon="-5.998765">
        <ele>1.268</ele>
        <time>2015-06-18T05:35:07Z</time>
      </trkpt>
      <trkpt lat="37.384167" lon="-5.998519">
        <ele>0.850</ele>
        <time>2015-06-18T05:35:13Z</time>
      </trkpt>
      <trkpt lat="37.384133" lon="-5.998483">
        <ele>0.423</ele>
        <time>2015-06-18T05:35:14Z</time>
      </trkpt>
      <trkpt lat="37.384099" lon="-5.998447">
        <ele>0.087</ele>
        <time>2015-06-18T05:35:15Z</time>
      </trkpt>
      <trkpt lat="37.384060" lon="-5.998402">
        <ele>-0.441</ele>
        <time>2015-06-18T05:35:17Z</time>
      </trkpt>
      <trkpt lat="37.384030" lon="-5.998365">
        <ele>-0.881</ele>
        <time>2015-06-18T05:35:18Z</time>
      </trkpt>
      <trkpt lat="37.383998" lon="-5.998330">
        <ele>-0.409</ele>
        <time>2015-06-18T05:35:19Z</time>
      </trkpt>
      <trkpt lat="37.383968" lon="-5.998300">
        <ele>0.008</ele>
        <time>2015-06-18T05:35:20Z</time>
      </trkpt>
      <trkpt lat="37.383936" lon="-5.998268">
        <ele>0.465</ele>
        <time>2015-06-18T05:35:21Z</time>
      </trkpt>
      <trkpt lat="37.383911" lon="-5.998235">
        <ele>0.821</ele>
        <time>2015-06-18T05:35:22Z</time>
      </trkpt>
      <trkpt lat="37.383882" lon="-5.998203">
        <ele>1.257</ele>
        <time>2015-06-18T05:35:23Z</time>
      </trkpt>
      <trkpt lat="37.383797" lon="-5.998099">
        <ele>1.226</ele>
        <time>2015-06-18T05:35:26Z</time>
      </trkpt>
      <trkpt lat="37.383704" lon="-5.997996">
        <ele>1.259</ele>
        <time>2015-06-18T05:35:29Z</time>
      </trkpt>
      <trkpt lat="37.383616" lon="-5.997900">
        <ele>1.231</ele>
        <time>2015-06-18T05:35:32Z</time>
      </trkpt>
      <trkpt lat="37.383557" lon="-5.997838">
        <ele>1.224</ele>
        <time>2015-06-18T05:35:34Z</time>
      </trkpt>
      <trkpt lat="37.383450" lon="-5.997714">
        <ele>1.248</ele>
        <time>2015-06-18T05:35:38Z</time>
      </trkpt>
      <trkpt lat="37.383225" lon="-5.997463">
        <ele>1.226</ele>
        <time>2015-06-18T05:35:46Z</time>
      </trkpt>
      <trkpt lat="37.383150" lon="-5.997384">
        <ele>-0.447</ele>
        <time>2015-06-18T05:35:49Z</time>
      </trkpt>
      <trkpt lat="37.383127" lon="-5.997357">
        <ele>-2.411</ele>
        <time>2015-06-18T05:35:50Z</time>
      </trkpt>
      <trkpt lat="37.383107" lon="-5.997334">
        <ele>-1.008</ele>
        <time>2015-06-18T05:35:51Z</time>
      </trkpt>
      <trkpt lat="37.383083" lon="-5.997312">
        <ele>0.293</ele>
        <time>2015-06-18T05:35:52Z</time>
      </trkpt>
      <trkpt lat="37.383060" lon="-5.997292">
        <ele>1.659</ele>
        <time>2015-06-18T05:35:53Z</time>
      </trkpt>
      <trkpt lat="37.383037" lon="-5.997272">
        <ele>2.875</ele>
        <time>2015-06-18T05:35:54Z</time>
      </trkpt>
      <trkpt lat="37.383014" lon="-5.997253">
        <ele>2.484</ele>
        <time>2015-06-18T05:35:55Z</time>
      </trkpt>
      <trkpt lat="37.382994" lon="-5.997231">
        <ele>2.227</ele>
        <time>2015-06-18T05:35:56Z</time>
      </trkpt>
      <trkpt lat="37.382968" lon="-5.997207">
        <ele>1.849</ele>
        <time>2015-06-18T05:35:57Z</time>
      </trkpt>
      <trkpt lat="37.382945" lon="-5.997189">
        <ele>6.022</ele>
        <time>2015-06-18T05:35:58Z</time>
      </trkpt>
      <trkpt lat="37.382877" lon="-5.997117">
        <ele>6.086</ele>
        <time>2015-06-18T05:36:01Z</time>
      </trkpt>
      <trkpt lat="37.382851" lon="-5.997091">
        <ele>2.814</ele>
        <time>2015-06-18T05:36:02Z</time>
      </trkpt>
      <trkpt lat="37.382826" lon="-5.997067">
        <ele>3.654</ele>
        <time>2015-06-18T05:36:03Z</time>
      </trkpt>
      <trkpt lat="37.382798" lon="-5.997040">
        <ele>4.209</ele>
        <time>2015-06-18T05:36:04Z</time>
      </trkpt>
      <trkpt lat="37.382770" lon="-5.997014">
        <ele>5.008</ele>
        <time>2015-06-18T05:36:05Z</time>
      </trkpt>
      <trkpt lat="37.382737" lon="-5.996987">
        <ele>5.882</ele>
        <time>2015-06-18T05:36:06Z</time>
      </trkpt>
      <trkpt lat="37.382707" lon="-5.996958">
        <ele>6.678</ele>
        <time>2015-06-18T05:36:07Z</time>
      </trkpt>
      <trkpt lat="37.382679" lon="-5.996920">
        <ele>6.664</ele>
        <time>2015-06-18T05:36:08Z</time>
      </trkpt>
      <trkpt lat="37.382653" lon="-5.996878">
        <ele>6.693</ele>
        <time>2015-06-18T05:36:09Z</time>
      </trkpt>
      <trkpt lat="37.382522" lon="-5.996735">
        <ele>6.686</ele>
        <time>2015-06-18T05:36:13Z</time>
      </trkpt>
      <trkpt lat="37.382406" lon="-5.996632">
        <ele>6.638</ele>
        <time>2015-06-18T05:36:16Z</time>
      </trkpt>
      <trkpt lat="37.382285" lon="-5.996516">
        <ele>6.621</ele>
        <time>2015-06-18T05:36:19Z</time>
      </trkpt>
      <trkpt lat="37.382243" lon="-5.996483">
        <ele>6.635</ele>
        <time>2015-06-18T05:36:20Z</time>
      </trkpt>
      <trkpt lat="37.382169" lon="-5.996410">
        <ele>6.693</ele>
        <time>2015-06-18T05:36:22Z</time>
      </trkpt>
      <trkpt lat="37.382048" lon="-5.996254">
        <ele>6.665</ele>
        <time>2015-06-18T05:36:26Z</time>
      </trkpt>
      <trkpt lat="37.381936" lon="-5.996119">
        <ele>6.621</ele>
        <time>2015-06-18T05:36:31Z</time>
      </trkpt>
      <trkpt lat="37.381820" lon="-5.995958">
        <ele>6.608</ele>
        <time>2015-06-18T05:36:37Z</time>
      </trkpt>
      <trkpt lat="37.381728" lon="-5.995872">
        <ele>6.680</ele>
        <time>2015-06-18T05:36:41Z</time>
      </trkpt>
      <trkpt lat="37.381687" lon="-5.995824">
        <ele>6.626</ele>
        <time>2015-06-18T05:36:43Z</time>
      </trkpt>
      <trkpt lat="37.381667" lon="-5.995801">
        <ele>7.082</ele>
        <time>2015-06-18T05:36:44Z</time>
      </trkpt>
      <trkpt lat="37.381643" lon="-5.995787">
        <ele>7.461</ele>
        <time>2015-06-18T05:36:45Z</time>
      </trkpt>
      <trkpt lat="37.381620" lon="-5.995768">
        <ele>7.854</ele>
        <time>2015-06-18T05:36:46Z</time>
      </trkpt>
      <trkpt lat="37.381600" lon="-5.995746">
        <ele>8.296</ele>
        <time>2015-06-18T05:36:47Z</time>
      </trkpt>
      <trkpt lat="37.381580" lon="-5.995728">
        <ele>8.699</ele>
        <time>2015-06-18T05:36:48Z</time>
      </trkpt>
      <trkpt lat="37.381560" lon="-5.995713">
        <ele>8.673</ele>
        <time>2015-06-18T05:36:49Z</time>
      </trkpt>
      <trkpt lat="37.381463" lon="-5.995628">
        <ele>8.647</ele>
        <time>2015-06-18T05:36:54Z</time>
      </trkpt>
      <trkpt lat="37.381422" lon="-5.995610">
        <ele>8.629</ele>
        <time>2015-06-18T05:36:56Z</time>
      </trkpt>
      <trkpt lat="37.381410" lon="-5.995593">
        <ele>8.621</ele>
        <time>2015-06-18T05:36:57Z</time>
      </trkpt>
      <trkpt lat="37.381378" lon="-5.995564">
        <ele>8.608</ele>
        <time>2015-06-18T05:37:00Z</time>
      </trkpt>
      <trkpt lat="37.381340" lon="-5.995543">
        <ele>9.085</ele>
        <time>2015-06-18T05:37:02Z</time>
      </trkpt>
      <trkpt lat="37.381316" lon="-5.995539">
        <ele>9.431</ele>
        <time>2015-06-18T05:37:03Z</time>
      </trkpt>
      <trkpt lat="37.381294" lon="-5.995529">
        <ele>9.877</ele>
        <time>2015-06-18T05:37:04Z</time>
      </trkpt>
      <trkpt lat="37.381276" lon="-5.995516">
        <ele>10.636</ele>
        <time>2015-06-18T05:37:05Z</time>
      </trkpt>
      <trkpt lat="37.381207" lon="-5.995430">
        <ele>10.679</ele>
        <time>2015-06-18T05:37:09Z</time>
      </trkpt>
      <trkpt lat="37.381165" lon="-5.995408">
        <ele>10.661</ele>
        <time>2015-06-18T05:37:11Z</time>
      </trkpt>
      <trkpt lat="37.381101" lon="-5.995395">
        <ele>10.644</ele>
        <time>2015-06-18T05:37:14Z</time>
      </trkpt>
      <trkpt lat="37.380955" lon="-5.995299">
        <ele>10.678</ele>
        <time>2015-06-18T05:37:19Z</time>
      </trkpt>
      <trkpt lat="37.380713" lon="-5.995138">
        <ele>10.685</ele>
        <time>2015-06-18T05:37:24Z</time>
      </trkpt>
      <trkpt lat="37.380481" lon="-5.994977">
        <ele>10.689</ele>
        <time>2015-06-18T05:37:28Z</time>
      </trkpt>
      <trkpt lat="37.380338" lon="-5.994915">
        <ele>10.617</ele>
        <time>2015-06-18T05:37:30Z</time>
      </trkpt>
      <trkpt lat="37.380264" lon="-5.994902">
        <ele>10.208</ele>
        <time>2015-06-18T05:37:31Z</time>
      </trkpt>
      <trkpt lat="37.380193" lon="-5.994878">
        <ele>9.619</ele>
        <time>2015-06-18T05:37:32Z</time>
      </trkpt>
      <trkpt lat="37.380136" lon="-5.994834">
        <ele>9.225</ele>
        <time>2015-06-18T05:37:33Z</time>
      </trkpt>
      <trkpt lat="37.380078" lon="-5.994801">
        <ele>8.811</ele>
        <time>2015-06-18T05:37:34Z</time>
      </trkpt>
      <trkpt lat="37.380022" lon="-5.994763">
        <ele>8.410</ele>
        <time>2015-06-18T05:37:35Z</time>
      </trkpt>
      <trkpt lat="37.379822" lon="-5.994623">
        <ele>8.483</ele>
        <time>2015-06-18T05:37:39Z</time>
      </trkpt>
      <trkpt lat="37.379556" lon="-5.994473">
        <ele>8.445</ele>
        <time>2015-06-18T05:37:45Z</time>
      </trkpt>
      <trkpt lat="37.379372" lon="-5.994344">
        <ele>8.418</ele>
        <time>2015-06-18T05:37:50Z</time>
      </trkpt>
      <trkpt lat="37.379300" lon="-5.994297">
        <ele>8.482</ele>
        <time>2015-06-18T05:37:52Z</time>
      </trkpt>
      <trkpt lat="37.379223" lon="-5.994251">
        <ele>8.459</ele>
        <time>2015-06-18T05:37:54Z</time>
      </trkpt>
      <trkpt lat="37.379135" lon="-5.994200">
        <ele>8.403</ele>
        <time>2015-06-18T05:37:56Z</time>
      </trkpt>
      <trkpt lat="37.378814" lon="-5.994000">
        <ele>8.423</ele>
        <time>2015-06-18T05:38:03Z</time>
      </trkpt>
      <trkpt lat="37.378766" lon="-5.993974">
        <ele>8.408</ele>
        <time>2015-06-18T05:38:04Z</time>
      </trkpt>
      <trkpt lat="37.378526" lon="-5.993828">
        <ele>8.446</ele>
        <time>2015-06-18T05:38:09Z</time>
      </trkpt>
      <trkpt lat="37.378334" lon="-5.993718">
        <ele>8.462</ele>
        <time>2015-06-18T05:38:13Z</time>
      </trkpt>
      <trkpt lat="37.378294" lon="-5.993684">
        <ele>8.478</ele>
        <time>2015-06-18T05:38:14Z</time>
      </trkpt>
      <trkpt lat="37.378208" lon="-5.993629">
        <ele>8.437</ele>
        <time>2015-06-18T05:38:16Z</time>
      </trkpt>
      <trkpt lat="37.377891" lon="-5.993438">
        <ele>8.470</ele>
        <time>2015-06-18T05:38:23Z</time>
      </trkpt>
      <trkpt lat="37.377745" lon="-5.993350">
        <ele>8.422</ele>
        <time>2015-06-18T05:38:27Z</time>
      </trkpt>
      <trkpt lat="37.377707" lon="-5.993330">
        <ele>8.425</ele>
        <time>2015-06-18T05:38:28Z</time>
      </trkpt>
      <trkpt lat="37.377430" lon="-5.993163">
        <ele>8.459</ele>
        <time>2015-06-18T05:38:35Z</time>
      </trkpt>
      <trkpt lat="37.377125" lon="-5.992980">
        <ele>8.488</ele>
        <time>2015-06-18T05:38:43Z</time>
      </trkpt>
      <trkpt lat="37.376975" lon="-5.992880">
        <ele>8.424</ele>
        <time>2015-06-18T05:38:48Z</time>
      </trkpt>
      <trkpt lat="37.376787" lon="-5.992762">
        <ele>8.426</ele>
        <time>2015-06-18T05:38:54Z</time>
      </trkpt>
      <trkpt lat="37.376595" lon="-5.992636">
        <ele>8.408</ele>
        <time>2015-06-18T05:39:00Z</time>
      </trkpt>
      <trkpt lat="37.376527" lon="-5.992495">
        <ele>8.489</ele>
        <time>2015-06-18T05:39:04Z</time>
      </trkpt>
      <trkpt lat="37.376378" lon="-5.992372">
        <ele>8.435</ele>
        <time>2015-06-18T05:39:09Z</time>
      </trkpt>
      <trkpt lat="37.376224" lon="-5.992286">
        <ele>8.441</ele>
        <time>2015-06-18T05:39:15Z</time>
      </trkpt>
      <trkpt lat="37.376140" lon="-5.992219">
        <ele>8.420</ele>
        <time>2015-06-18T05:39:19Z</time>
      </trkpt>
      <trkpt lat="37.376103" lon="-5.992181">
        <ele>8.433</ele>
        <time>2015-06-18T05:39:21Z</time>
      </trkpt>
      <trkpt lat="37.376012" lon="-5.992056">
        <ele>8.425</ele>
        <time>2015-06-18T05:39:26Z</time>
      </trkpt>
      <trkpt lat="37.375885" lon="-5.991946">
        <ele>8.438</ele>
        <time>2015-06-18T05:39:31Z</time>
      </trkpt>
      <trkpt lat="37.375683" lon="-5.991864">
        <ele>8.442</ele>
        <time>2015-06-18T05:39:37Z</time>
      </trkpt>
      <trkpt lat="37.375575" lon="-5.991908">
        <ele>8.494</ele>
        <time>2015-06-18T05:39:41Z</time>
      </trkpt>
      <trkpt lat="37.375481" lon="-5.991947">
        <ele>8.457</ele>
        <time>2015-06-18T05:39:45Z</time>
      </trkpt>
      <trkpt lat="37.375400" lon="-5.991917">
        <ele>8.422</ele>
        <time>2015-06-18T05:39:48Z</time>
      </trkpt>
      <trkpt lat="37.375366" lon="-5.991909">
        <ele>8.408</ele>
        <time>2015-06-18T05:39:49Z</time>
      </trkpt>
      <trkpt lat="37.375336" lon="-5.991900">
        <ele>8.470</ele>
        <time>2015-06-18T05:39:50Z</time>
      </trkpt>
      <trkpt lat="37.375304" lon="-5.991882">
        <ele>8.866</ele>
        <time>2015-06-18T05:39:51Z</time>
      </trkpt>
      <trkpt lat="37.375275" lon="-5.991858">
        <ele>9.292</ele>
        <time>2015-06-18T05:39:52Z</time>
      </trkpt>
      <trkpt lat="37.375259" lon="-5.991816">
        <ele>9.621</ele>
        <time>2015-06-18T05:39:53Z</time>
      </trkpt>
      <trkpt lat="37.375257" lon="-5.991770">
        <ele>10.024</ele>
        <time>2015-06-18T05:39:54Z</time>
      </trkpt>
      <trkpt lat="37.375245" lon="-5.991726">
        <ele>10.416</ele>
        <time>2015-06-18T05:39:55Z</time>
      </trkpt>
      <trkpt lat="37.375167" lon="-5.991600">
        <ele>10.499</ele>
        <time>2015-06-18T05:39:58Z</time>
      </trkpt>
      <trkpt lat="37.375004" lon="-5.991495">
        <ele>10.433</ele>
        <time>2015-06-18T05:40:02Z</time>
      </trkpt>
      <trkpt lat="37.374963" lon="-5.991474">
        <ele>10.431</ele>
        <time>2015-06-18T05:40:03Z</time>
      </trkpt>
      <trkpt lat="37.374745" lon="-5.991339">
        <ele>10.461</ele>
        <time>2015-06-18T05:40:09Z</time>
      </trkpt>
      <trkpt lat="37.374708" lon="-5.991314">
        <ele>10.407</ele>
        <time>2015-06-18T05:40:10Z</time>
      </trkpt>
      <trkpt lat="37.374421" lon="-5.991127">
        <ele>10.408</ele>
        <time>2015-06-18T05:40:17Z</time>
      </trkpt>
      <trkpt lat="37.374332" lon="-5.991074">
        <ele>10.444</ele>
        <time>2015-06-18T05:40:19Z</time>
      </trkpt>
      <trkpt lat="37.374178" lon="-5.990964">
        <ele>10.470</ele>
        <time>2015-06-18T05:40:23Z</time>
      </trkpt>
      <trkpt lat="37.374024" lon="-5.990825">
        <ele>10.436</ele>
        <time>2015-06-18T05:40:27Z</time>
      </trkpt>
      <trkpt lat="37.373745" lon="-5.990669">
        <ele>10.475</ele>
        <time>2015-06-18T05:40:33Z</time>
      </trkpt>
      <trkpt lat="37.373453" lon="-5.990485">
        <ele>10.488</ele>
        <time>2015-06-18T05:40:40Z</time>
      </trkpt>
      <trkpt lat="37.373222" lon="-5.990358">
        <ele>10.490</ele>
        <time>2015-06-18T05:40:45Z</time>
      </trkpt>
      <trkpt lat="37.372997" lon="-5.990207">
        <ele>10.413</ele>
        <time>2015-06-18T05:40:51Z</time>
      </trkpt>
      <trkpt lat="37.372729" lon="-5.990054">
        <ele>10.467</ele>
        <time>2015-06-18T05:40:59Z</time>
      </trkpt>
      <trkpt lat="37.372513" lon="-5.989928">
        <ele>10.436</ele>
        <time>2015-06-18T05:41:05Z</time>
      </trkpt>
      <trkpt lat="37.372408" lon="-5.989870">
        <ele>10.417</ele>
        <time>2015-06-18T05:41:08Z</time>
      </trkpt>
      <trkpt lat="37.372337" lon="-5.989821">
        <ele>10.018</ele>
        <time>2015-06-18T05:41:10Z</time>
      </trkpt>
      <trkpt lat="37.372303" lon="-5.989800">
        <ele>9.608</ele>
        <time>2015-06-18T05:41:11Z</time>
      </trkpt>
      <trkpt lat="37.372269" lon="-5.989780">
        <ele>8.814</ele>
        <time>2015-06-18T05:41:12Z</time>
      </trkpt>
      <trkpt lat="37.372233" lon="-5.989763">
        <ele>8.220</ele>
        <time>2015-06-18T05:41:13Z</time>
      </trkpt>
      <trkpt lat="37.372168" lon="-5.989724">
        <ele>8.266</ele>
        <time>2015-06-18T05:41:15Z</time>
      </trkpt>
      <trkpt lat="37.372021" lon="-5.989634">
        <ele>8.235</ele>
        <time>2015-06-18T05:41:19Z</time>
      </trkpt>
      <trkpt lat="37.371899" lon="-5.989568">
        <ele>8.268</ele>
        <time>2015-06-18T05:41:22Z</time>
      </trkpt>
      <trkpt lat="37.371860" lon="-5.989539">
        <ele>8.240</ele>
        <time>2015-06-18T05:41:23Z</time>
      </trkpt>
      <trkpt lat="37.371664" lon="-5.989418">
        <ele>8.213</ele>
        <time>2015-06-18T05:41:28Z</time>
      </trkpt>
      <trkpt lat="37.371422" lon="-5.989276">
        <ele>8.217</ele>
        <time>2015-06-18T05:41:34Z</time>
      </trkpt>
      <trkpt lat="37.371330" lon="-5.989217">
        <ele>8.217</ele>
        <time>2015-06-18T05:41:36Z</time>
      </trkpt>
      <trkpt lat="37.371024" lon="-5.989027">
        <ele>8.287</ele>
        <time>2015-06-18T05:41:42Z</time>
      </trkpt>
      <trkpt lat="37.370668" lon="-5.988815">
        <ele>8.215</ele>
        <time>2015-06-18T05:41:50Z</time>
      </trkpt>
      <trkpt lat="37.370436" lon="-5.988670">
        <ele>8.208</ele>
        <time>2015-06-18T05:41:55Z</time>
      </trkpt>
      <trkpt lat="37.370344" lon="-5.988611">
        <ele>8.252</ele>
        <time>2015-06-18T05:41:57Z</time>
      </trkpt>
      <trkpt lat="37.370037" lon="-5.988458">
        <ele>8.268</ele>
        <time>2015-06-18T05:42:04Z</time>
      </trkpt>
      <trkpt lat="37.370001" lon="-5.988452">
        <ele>8.214</ele>
        <time>2015-06-18T05:42:05Z</time>
      </trkpt>
      <trkpt lat="37.369812" lon="-5.988348">
        <ele>8.243</ele>
        <time>2015-06-18T05:42:10Z</time>
      </trkpt>
      <trkpt lat="37.369669" lon="-5.988242">
        <ele>8.286</ele>
        <time>2015-06-18T05:42:15Z</time>
      </trkpt>
      <trkpt lat="37.369645" lon="-5.988230">
        <ele>8.278</ele>
        <time>2015-06-18T05:42:19Z</time>
      </trkpt>
      <trkpt lat="37.369646" lon="-5.988227">
        <ele>8.281</ele>
        <time>2015-06-18T05:42:27Z</time>
      </trkpt>
      <trkpt lat="37.369616" lon="-5.988215">
        <ele>8.215</ele>
        <time>2015-06-18T05:42:32Z</time>
      </trkpt>
      <trkpt lat="37.369592" lon="-5.988192">
        <ele>8.222</ele>
        <time>2015-06-18T05:42:33Z</time>
      </trkpt>
      <trkpt lat="37.369437" lon="-5.988110">
        <ele>8.262</ele>
        <time>2015-06-18T05:42:37Z</time>
      </trkpt>
      <trkpt lat="37.369326" lon="-5.988072">
        <ele>8.208</ele>
        <time>2015-06-18T05:42:39Z</time>
      </trkpt>
      <trkpt lat="37.369276" lon="-5.988044">
        <ele>8.208</ele>
        <time>2015-06-18T05:42:40Z</time>
      </trkpt>
      <trkpt lat="37.369178" lon="-5.987954">
        <ele>8.273</ele>
        <time>2015-06-18T05:42:42Z</time>
      </trkpt>
      <trkpt lat="37.369070" lon="-5.987883">
        <ele>8.299</ele>
        <time>2015-06-18T05:42:44Z</time>
      </trkpt>
      <trkpt lat="37.369012" lon="-5.987851">
        <ele>8.225</ele>
        <time>2015-06-18T05:42:45Z</time>
      </trkpt>
      <trkpt lat="37.368948" lon="-5.987813">
        <ele>8.284</ele>
        <time>2015-06-18T05:42:46Z</time>
      </trkpt>
      <trkpt lat="37.368887" lon="-5.987787">
        <ele>8.297</ele>
        <time>2015-06-18T05:42:47Z</time>
      </trkpt>
      <trkpt lat="37.368709" lon="-5.987697">
        <ele>8.299</ele>
        <time>2015-06-18T05:42:50Z</time>
      </trkpt>
      <trkpt lat="37.368612" lon="-5.987626">
        <ele>8.232</ele>
        <time>2015-06-18T05:42:52Z</time>
      </trkpt>
      <trkpt lat="37.368331" lon="-5.987459">
        <ele>8.266</ele>
        <time>2015-06-18T05:42:57Z</time>
      </trkpt>
      <trkpt lat="37.368216" lon="-5.987383">
        <ele>8.283</ele>
        <time>2015-06-18T05:42:59Z</time>
      </trkpt>
      <trkpt lat="37.368102" lon="-5.987322">
        <ele>8.225</ele>
        <time>2015-06-18T05:43:01Z</time>
      </trkpt>
      <trkpt lat="37.368057" lon="-5.987282">
        <ele>8.217</ele>
        <time>2015-06-18T05:43:02Z</time>
      </trkpt>
      <trkpt lat="37.367937" lon="-5.987218">
        <ele>8.208</ele>
        <time>2015-06-18T05:43:04Z</time>
      </trkpt>
      <trkpt lat="37.367630" lon="-5.987004">
        <ele>8.289</ele>
        <time>2015-06-18T05:43:09Z</time>
      </trkpt>
      <trkpt lat="37.367507" lon="-5.986960">
        <ele>8.275</ele>
        <time>2015-06-18T05:43:12Z</time>
      </trkpt>
      <trkpt lat="37.367424" lon="-5.986902">
        <ele>8.241</ele>
        <time>2015-06-18T05:43:14Z</time>
      </trkpt>
      <trkpt lat="37.367320" lon="-5.986848">
        <ele>8.260</ele>
        <time>2015-06-18T05:43:16Z</time>
      </trkpt>
      <trkpt lat="37.366998" lon="-5.986671">
        <ele>8.293</ele>
        <time>2015-06-18T05:43:22Z</time>
      </trkpt>
      <trkpt lat="37.366729" lon="-5.986500">
        <ele>8.215</ele>
        <time>2015-06-18T05:43:27Z</time>
      </trkpt>
      <trkpt lat="37.366678" lon="-5.986467">
        <ele>8.248</ele>
        <time>2015-06-18T05:43:28Z</time>
      </trkpt>
      <trkpt lat="37.366416" lon="-5.986311">
        <ele>8.222</ele>
        <time>2015-06-18T05:43:34Z</time>
      </trkpt>
      <trkpt lat="37.366378" lon="-5.986307">
        <ele>8.286</ele>
        <time>2015-06-18T05:43:37Z</time>
      </trkpt>
      <trkpt lat="37.366344" lon="-5.986281">
        <ele>8.260</ele>
        <time>2015-06-18T05:43:41Z</time>
      </trkpt>
      <trkpt lat="37.366230" lon="-5.986174">
        <ele>8.226</ele>
        <time>2015-06-18T05:43:45Z</time>
      </trkpt>
      <trkpt lat="37.366011" lon="-5.986041">
        <ele>8.208</ele>
        <time>2015-06-18T05:43:50Z</time>
      </trkpt>
      <trkpt lat="37.365836" lon="-5.985932">
        <ele>8.259</ele>
        <time>2015-06-18T05:43:54Z</time>
      </trkpt>
      <trkpt lat="37.365741" lon="-5.985878">
        <ele>8.285</ele>
        <time>2015-06-18T05:43:56Z</time>
      </trkpt>
      <trkpt lat="37.365450" lon="-5.985705">
        <ele>8.221</ele>
        <time>2015-06-18T05:44:02Z</time>
      </trkpt>
      <trkpt lat="37.365172" lon="-5.985543">
        <ele>8.240</ele>
        <time>2015-06-18T05:44:08Z</time>
      </trkpt>
      <trkpt lat="37.365070" lon="-5.985523">
        <ele>8.233</ele>
        <time>2015-06-18T05:44:10Z</time>
      </trkpt>
      <trkpt lat="37.364984" lon="-5.985453">
        <ele>8.235</ele>
        <time>2015-06-18T05:44:12Z</time>
      </trkpt>
      <trkpt lat="37.364850" lon="-5.985356">
        <ele>8.218</ele>
        <time>2015-06-18T05:44:15Z</time>
      </trkpt>
      <trkpt lat="37.364638" lon="-5.985220">
        <ele>8.272</ele>
        <time>2015-06-18T05:44:19Z</time>
      </trkpt>
      <trkpt lat="37.364581" lon="-5.985188">
        <ele>8.291</ele>
        <time>2015-06-18T05:44:20Z</time>
      </trkpt>
      <trkpt lat="37.364311" lon="-5.985030">
        <ele>8.281</ele>
        <time>2015-06-18T05:44:25Z</time>
      </trkpt>
      <trkpt lat="37.363947" lon="-5.984806">
        <ele>8.219</ele>
        <time>2015-06-18T05:44:32Z</time>
      </trkpt>
      <trkpt lat="37.363847" lon="-5.984751">
        <ele>8.208</ele>
        <time>2015-06-18T05:44:34Z</time>
      </trkpt>
      <trkpt lat="37.363752" lon="-5.984740">
        <ele>8.260</ele>
        <time>2015-06-18T05:44:36Z</time>
      </trkpt>
      <trkpt lat="37.363710" lon="-5.984737">
        <ele>8.266</ele>
        <time>2015-06-18T05:44:37Z</time>
      </trkpt>
      <trkpt lat="37.363685" lon="-5.984712">
        <ele>8.242</ele>
        <time>2015-06-18T05:44:38Z</time>
      </trkpt>
      <trkpt lat="37.363627" lon="-5.984631">
        <ele>8.291</ele>
        <time>2015-06-18T05:44:40Z</time>
      </trkpt>
      <trkpt lat="37.363443" lon="-5.984503">
        <ele>8.234</ele>
        <time>2015-06-18T05:44:44Z</time>
      </trkpt>
      <trkpt lat="37.363394" lon="-5.984460">
        <ele>8.276</ele>
        <time>2015-06-18T05:44:45Z</time>
      </trkpt>
      <trkpt lat="37.363353" lon="-5.984409">
        <ele>8.259</ele>
        <time>2015-06-18T05:44:46Z</time>
      </trkpt>
      <trkpt lat="37.363226" lon="-5.984311">
        <ele>8.233</ele>
        <time>2015-06-18T05:44:49Z</time>
      </trkpt>
      <trkpt lat="37.363107" lon="-5.984295">
        <ele>8.239</ele>
        <time>2015-06-18T05:44:52Z</time>
      </trkpt>
      <trkpt lat="37.363013" lon="-5.984247">
        <ele>8.201</ele>
        <time>2015-06-18T05:44:54Z</time>
      </trkpt>
      <trkpt lat="37.362966" lon="-5.984222">
        <ele>8.221</ele>
        <time>2015-06-18T05:44:55Z</time>
      </trkpt>
      <trkpt lat="37.362869" lon="-5.984168">
        <ele>8.208</ele>
        <time>2015-06-18T05:44:57Z</time>
      </trkpt>
      <trkpt lat="37.362495" lon="-5.983945">
        <ele>8.234</ele>
        <time>2015-06-18T05:45:04Z</time>
      </trkpt>
      <trkpt lat="37.362208" lon="-5.983786">
        <ele>8.220</ele>
        <time>2015-06-18T05:45:09Z</time>
      </trkpt>
      <trkpt lat="37.361802" lon="-5.983538">
        <ele>8.226</ele>
        <time>2015-06-18T05:45:17Z</time>
      </trkpt>
      <trkpt lat="37.361524" lon="-5.983394">
        <ele>8.255</ele>
        <time>2015-06-18T05:45:23Z</time>
      </trkpt>
      <trkpt lat="37.361443" lon="-5.983316">
        <ele>8.218</ele>
        <time>2015-06-18T05:45:25Z</time>
      </trkpt>
      <trkpt lat="37.361349" lon="-5.983259">
        <ele>8.280</ele>
        <time>2015-06-18T05:45:27Z</time>
      </trkpt>
      <trkpt lat="37.361135" lon="-5.983135">
        <ele>8.213</ele>
        <time>2015-06-18T05:45:31Z</time>
      </trkpt>
      <trkpt lat="37.360897" lon="-5.982999">
        <ele>8.287</ele>
        <time>2015-06-18T05:45:35Z</time>
      </trkpt>
      <trkpt lat="37.360779" lon="-5.982931">
        <ele>8.262</ele>
        <time>2015-06-18T05:45:37Z</time>
      </trkpt>
      <trkpt lat="37.360480" lon="-5.982755">
        <ele>8.283</ele>
        <time>2015-06-18T05:45:42Z</time>
      </trkpt>
      <trkpt lat="37.360424" lon="-5.982720">
        <ele>8.211</ele>
        <time>2015-06-18T05:45:43Z</time>
      </trkpt>
      <trkpt lat="37.360223" lon="-5.982611">
        <ele>8.208</ele>
        <time>2015-06-18T05:45:47Z</time>
      </trkpt>
      <trkpt lat="37.360180" lon="-5.982602">
        <ele>8.267</ele>
        <time>2015-06-18T05:45:48Z</time>
      </trkpt>
      <trkpt lat="37.360090" lon="-5.982580">
        <ele>8.253</ele>
        <time>2015-06-18T05:45:50Z</time>
      </trkpt>
      <trkpt lat="37.360006" lon="-5.982541">
        <ele>8.279</ele>
        <time>2015-06-18T05:45:52Z</time>
      </trkpt>
      <trkpt lat="37.359961" lon="-5.982510">
        <ele>8.238</ele>
        <time>2015-06-18T05:45:53Z</time>
      </trkpt>
      <trkpt lat="37.359839" lon="-5.982369">
        <ele>8.211</ele>
        <time>2015-06-18T05:45:56Z</time>
      </trkpt>
      <trkpt lat="37.359692" lon="-5.982259">
        <ele>8.243</ele>
        <time>2015-06-18T05:45:59Z</time>
      </trkpt>
      <trkpt lat="37.359640" lon="-5.982225">
        <ele>8.266</ele>
        <time>2015-06-18T05:46:00Z</time>
      </trkpt>
      <trkpt lat="37.359350" lon="-5.982065">
        <ele>8.230</ele>
        <time>2015-06-18T05:46:05Z</time>
      </trkpt>
      <trkpt lat="37.359010" lon="-5.981868">
        <ele>8.279</ele>
        <time>2015-06-18T05:46:11Z</time>
      </trkpt>
      <trkpt lat="37.358829" lon="-5.981767">
        <ele>8.205</ele>
        <time>2015-06-18T05:46:15Z</time>
      </trkpt>
      <trkpt lat="37.358703" lon="-5.981685">
        <ele>8.225</ele>
        <time>2015-06-18T05:46:19Z</time>
      </trkpt>
      <trkpt lat="37.358557" lon="-5.981614">
        <ele>8.208</ele>
        <time>2015-06-18T05:46:22Z</time>
      </trkpt>
      <trkpt lat="37.358454" lon="-5.981550">
        <ele>8.258</ele>
        <time>2015-06-18T05:46:24Z</time>
      </trkpt>
      <trkpt lat="37.358295" lon="-5.981463">
        <ele>8.294</ele>
        <time>2015-06-18T05:46:28Z</time>
      </trkpt>
      <trkpt lat="37.358259" lon="-5.981438">
        <ele>8.220</ele>
        <time>2015-06-18T05:46:29Z</time>
      </trkpt>
      <trkpt lat="37.358129" lon="-5.981356">
        <ele>8.229</ele>
        <time>2015-06-18T05:46:32Z</time>
      </trkpt>
      <trkpt lat="37.358043" lon="-5.981300">
        <ele>8.262</ele>
        <time>2015-06-18T05:46:34Z</time>
      </trkpt>
      <trkpt lat="37.357935" lon="-5.981229">
        <ele>8.214</ele>
        <time>2015-06-18T05:46:37Z</time>
      </trkpt>
      <trkpt lat="37.357910" lon="-5.981218">
        <ele>8.267</ele>
        <time>2015-06-18T05:46:38Z</time>
      </trkpt>
      <trkpt lat="37.357863" lon="-5.981211">
        <ele>8.241</ele>
        <time>2015-06-18T05:46:41Z</time>
      </trkpt>
      <trkpt lat="37.357859" lon="-5.981209">
        <ele>8.262</ele>
        <time>2015-06-18T05:46:47Z</time>
      </trkpt>
      <trkpt lat="37.357863" lon="-5.981242">
        <ele>8.283</ele>
        <time>2015-06-18T05:46:56Z</time>
      </trkpt>
      <trkpt lat="37.357854" lon="-5.981257">
        <ele>8.211</ele>
        <time>2015-06-18T05:47:01Z</time>
      </trkpt>
      <trkpt lat="37.357854" lon="-5.981257">
        <ele>8.208</ele>
        <time>2015-06-18T05:47:12Z</time>
      </trkpt>
      <trkpt lat="37.357854" lon="-5.981257">
        <ele>8.287</ele>
        <time>2015-06-18T05:47:13Z</time>
      </trkpt>
      <trkpt lat="37.357854" lon="-5.981257">
        <ele>8.213</ele>
        <time>2015-06-18T05:47:16Z</time>
      </trkpt>
      <trkpt lat="37.357854" lon="-5.981257">
        <ele>8.299</ele>
        <time>2015-06-18T05:47:19Z</time>
      </trkpt>
      <trkpt lat="37.357854" lon="-5.981257">
        <ele>8.238</ele>
        <time>2015-06-18T05:47:25Z</time>
      </trkpt>
      <trkpt lat="37.357849" lon="-5.981251">
        <ele>8.261</ele>
        <time>2015-06-18T05:47:31Z</time>
      </trkpt>
      <trkpt lat="37.357849" lon="-5.981245">
        <ele>8.213</ele>
        <time>2015-06-18T05:47:32Z</time>
      </trkpt>
      <trkpt lat="37.357845" lon="-5.981236">
        <ele>8.276</ele>
        <time>2015-06-18T05:47:37Z</time>
      </trkpt>
      <trkpt lat="37.357845" lon="-5.981236">
        <ele>8.230</ele>
        <time>2015-06-18T05:47:41Z</time>
      </trkpt>
      <trkpt lat="37.357841" lon="-5.981218">
        <ele>8.257</ele>
        <time>2015-06-18T05:47:47Z</time>
      </trkpt>
      <trkpt lat="37.357833" lon="-5.981206">
        <ele>8.200</ele>
        <time>2015-06-18T05:47:48Z</time>
      </trkpt>
      <trkpt lat="37.357779" lon="-5.981181">
        <ele>8.220</ele>
        <time>2015-06-18T05:47:51Z</time>
      </trkpt>
      <trkpt lat="37.357737" lon="-5.981147">
        <ele>8.208</ele>
        <time>2015-06-18T05:47:53Z</time>
      </trkpt>
      <trkpt lat="37.357725" lon="-5.981116">
        <ele>8.246</ele>
        <time>2015-06-18T05:47:54Z</time>
      </trkpt>
      <trkpt lat="37.357634" lon="-5.981064">
        <ele>8.222</ele>
        <time>2015-06-18T05:47:58Z</time>
      </trkpt>
      <trkpt lat="37.357521" lon="-5.981036">
        <ele>8.298</ele>
        <time>2015-06-18T05:48:02Z</time>
      </trkpt>
      <trkpt lat="37.357474" lon="-5.981012">
        <ele>8.297</ele>
        <time>2015-06-18T05:48:04Z</time>
      </trkpt>
      <trkpt lat="37.357343" lon="-5.980940">
        <ele>8.230</ele>
        <time>2015-06-18T05:48:10Z</time>
      </trkpt>
      <trkpt lat="37.357235" lon="-5.980917">
        <ele>8.292</ele>
        <time>2015-06-18T05:48:15Z</time>
      </trkpt>
      <trkpt lat="37.357110" lon="-5.980885">
        <ele>8.295</ele>
        <time>2015-06-18T05:48:19Z</time>
      </trkpt>
      <trkpt lat="37.356967" lon="-5.980821">
        <ele>8.239</ele>
        <time>2015-06-18T05:48:23Z</time>
      </trkpt>
      <trkpt lat="37.356820" lon="-5.980737">
        <ele>8.289</ele>
        <time>2015-06-18T05:48:27Z</time>
      </trkpt>
      <trkpt lat="37.356780" lon="-5.980720">
        <ele>8.206</ele>
        <time>2015-06-18T05:48:28Z</time>
      </trkpt>
      <trkpt lat="37.356695" lon="-5.980681">
        <ele>8.226</ele>
        <time>2015-06-18T05:48:30Z</time>
      </trkpt>
      <trkpt lat="37.356615" lon="-5.980611">
        <ele>8.208</ele>
        <time>2015-06-18T05:48:32Z</time>
      </trkpt>
      <trkpt lat="37.356511" lon="-5.980478">
        <ele>8.269</ele>
        <time>2015-06-18T05:48:35Z</time>
      </trkpt>
      <trkpt lat="37.356430" lon="-5.980419">
        <ele>8.285</ele>
        <time>2015-06-18T05:48:37Z</time>
      </trkpt>
      <trkpt lat="37.356390" lon="-5.980392">
        <ele>8.671</ele>
        <time>2015-06-18T05:48:38Z</time>
      </trkpt>
      <trkpt lat="37.356348" lon="-5.980367">
        <ele>9.060</ele>
        <time>2015-06-18T05:48:39Z</time>
      </trkpt>
      <trkpt lat="37.356307" lon="-5.980348">
        <ele>9.483</ele>
        <time>2015-06-18T05:48:40Z</time>
      </trkpt>
      <trkpt lat="37.356270" lon="-5.980335">
        <ele>9.865</ele>
        <time>2015-06-18T05:48:41Z</time>
      </trkpt>
      <trkpt lat="37.356238" lon="-5.980330">
        <ele>10.218</ele>
        <time>2015-06-18T05:48:42Z</time>
      </trkpt>
      <trkpt lat="37.356077" lon="-5.980335">
        <ele>10.232</ele>
        <time>2015-06-18T05:48:48Z</time>
      </trkpt>
      <trkpt lat="37.356055" lon="-5.980343">
        <ele>10.266</ele>
        <time>2015-06-18T05:48:49Z</time>
      </trkpt>
      <trkpt lat="37.356020" lon="-5.980371">
        <ele>10.229</ele>
        <time>2015-06-18T05:48:52Z</time>
      </trkpt>
      <trkpt lat="37.356007" lon="-5.980378">
        <ele>10.221</ele>
        <time>2015-06-18T05:48:56Z</time>
      </trkpt>
      <trkpt lat="37.356007" lon="-5.980378">
        <ele>10.208</ele>
        <time>2015-06-18T05:48:58Z</time>
      </trkpt>
      <trkpt lat="37.356006" lon="-5.980384">
        <ele>10.227</ele>
        <time>2015-06-18T05:49:07Z</time>
      </trkpt>
      <trkpt lat="37.355957" lon="-5.980378">
        <ele>10.283</ele>
        <time>2015-06-18T05:49:12Z</time>
      </trkpt>
      <trkpt lat="37.355845" lon="-5.980285">
        <ele>10.249</ele>
        <time>2015-06-18T05:49:16Z</time>
      </trkpt>
      <trkpt lat="37.355780" lon="-5.980153">
        <ele>10.248</ele>
        <time>2015-06-18T05:49:20Z</time>
      </trkpt>
      <trkpt lat="37.355683" lon="-5.979929">
        <ele>10.241</ele>
        <time>2015-06-18T05:49:26Z</time>
      </trkpt>
      <trkpt lat="37.355550" lon="-5.979838">
        <ele>10.213</ele>
        <time>2015-06-18T05:49:30Z</time>
      </trkpt>
      <trkpt lat="37.355480" lon="-5.979797">
        <ele>10.286</ele>
        <time>2015-06-18T05:49:32Z</time>
      </trkpt>
      <trkpt lat="37.355366" lon="-5.979745">
        <ele>10.250</ele>
        <time>2015-06-18T05:49:35Z</time>
      </trkpt>
      <trkpt lat="37.355193" lon="-5.979659">
        <ele>10.248</ele>
        <time>2015-06-18T05:49:39Z</time>
      </trkpt>
      <trkpt lat="37.355076" lon="-5.979606">
        <ele>10.261</ele>
        <time>2015-06-18T05:49:42Z</time>
      </trkpt>
      <trkpt lat="37.355036" lon="-5.979585">
        <ele>10.817</ele>
        <time>2015-06-18T05:49:43Z</time>
      </trkpt>
      <trkpt lat="37.354990" lon="-5.979560">
        <ele>11.208</ele>
        <time>2015-06-18T05:49:44Z</time>
      </trkpt>
      <trkpt lat="37.354945" lon="-5.979539">
        <ele>11.635</ele>
        <time>2015-06-18T05:49:45Z</time>
      </trkpt>
      <trkpt lat="37.354897" lon="-5.979517">
        <ele>12.091</ele>
        <time>2015-06-18T05:49:46Z</time>
      </trkpt>
      <trkpt lat="37.354850" lon="-5.979498">
        <ele>12.497</ele>
        <time>2015-06-18T05:49:47Z</time>
      </trkpt>
      <trkpt lat="37.354709" lon="-5.979409">
        <ele>12.486</ele>
        <time>2015-06-18T05:49:50Z</time>
      </trkpt>
      <trkpt lat="37.354617" lon="-5.979351">
        <ele>12.439</ele>
        <time>2015-06-18T05:49:52Z</time>
      </trkpt>
      <trkpt lat="37.354528" lon="-5.979294">
        <ele>12.481</ele>
        <time>2015-06-18T05:49:54Z</time>
      </trkpt>
      <trkpt lat="37.354439" lon="-5.979242">
        <ele>12.464</ele>
        <time>2015-06-18T05:49:56Z</time>
      </trkpt>
      <trkpt lat="37.354316" lon="-5.979169">
        <ele>12.498</ele>
        <time>2015-06-18T05:49:59Z</time>
      </trkpt>
      <trkpt lat="37.354148" lon="-5.979064">
        <ele>12.439</ele>
        <time>2015-06-18T05:50:03Z</time>
      </trkpt>
      <trkpt lat="37.354062" lon="-5.979012">
        <ele>12.401</ele>
        <time>2015-06-18T05:50:05Z</time>
      </trkpt>
      <trkpt lat="37.353828" lon="-5.978872">
        <ele>12.421</ele>
        <time>2015-06-18T05:50:10Z</time>
      </trkpt>
      <trkpt lat="37.353783" lon="-5.978842">
        <ele>12.408</ele>
        <time>2015-06-18T05:50:11Z</time>
      </trkpt>
      <trkpt lat="37.353741" lon="-5.978810">
        <ele>12.484</ele>
        <time>2015-06-18T05:50:12Z</time>
      </trkpt>
      <trkpt lat="37.353611" lon="-5.978702">
        <ele>12.440</ele>
        <time>2015-06-18T05:50:15Z</time>
      </trkpt>
      <trkpt lat="37.353576" lon="-5.978653">
        <ele>12.476</ele>
        <time>2015-06-18T05:50:16Z</time>
      </trkpt>
      <trkpt lat="37.353401" lon="-5.978493">
        <ele>12.435</ele>
        <time>2015-06-18T05:50:20Z</time>
      </trkpt>
      <trkpt lat="37.352957" lon="-5.978211">
        <ele>12.498</ele>
        <time>2015-06-18T05:50:29Z</time>
      </trkpt>
      <trkpt lat="37.352691" lon="-5.978068">
        <ele>12.420</ele>
        <time>2015-06-18T05:50:34Z</time>
      </trkpt>
      <trkpt lat="37.352585" lon="-5.978012">
        <ele>12.423</ele>
        <time>2015-06-18T05:50:36Z</time>
      </trkpt>
      <trkpt lat="37.352274" lon="-5.977822">
        <ele>12.497</ele>
        <time>2015-06-18T05:50:42Z</time>
      </trkpt>
      <trkpt lat="37.352176" lon="-5.977762">
        <ele>12.456</ele>
        <time>2015-06-18T05:50:44Z</time>
      </trkpt>
      <trkpt lat="37.352032" lon="-5.977684">
        <ele>12.459</ele>
        <time>2015-06-18T05:50:47Z</time>
      </trkpt>
      <trkpt lat="37.351988" lon="-5.977654">
        <ele>12.414</ele>
        <time>2015-06-18T05:50:48Z</time>
      </trkpt>
      <trkpt lat="37.351872" lon="-5.977586">
        <ele>12.408</ele>
        <time>2015-06-18T05:50:51Z</time>
      </trkpt>
      <trkpt lat="37.351835" lon="-5.977565">
        <ele>12.466</ele>
        <time>2015-06-18T05:50:52Z</time>
      </trkpt>
      <trkpt lat="37.351741" lon="-5.977544">
        <ele>12.492</ele>
        <time>2015-06-18T05:50:55Z</time>
      </trkpt>
      <trkpt lat="37.351715" lon="-5.977559">
        <ele>12.488</ele>
        <time>2015-06-18T05:50:56Z</time>
      </trkpt>
      <trkpt lat="37.351667" lon="-5.977597">
        <ele>12.457</ele>
        <time>2015-06-18T05:50:58Z</time>
      </trkpt>
      <trkpt lat="37.351588" lon="-5.977653">
        <ele>12.420</ele>
        <time>2015-06-18T05:51:01Z</time>
      </trkpt>
      <trkpt lat="37.351457" lon="-5.977749">
        <ele>12.482</ele>
        <time>2015-06-18T05:51:05Z</time>
      </trkpt>
      <trkpt lat="37.351372" lon="-5.977763">
        <ele>12.475</ele>
        <time>2015-06-18T05:51:07Z</time>
      </trkpt>
      <trkpt lat="37.351326" lon="-5.977758">
        <ele>12.499</ele>
        <time>2015-06-18T05:51:08Z</time>
      </trkpt>
      <trkpt lat="37.351279" lon="-5.977748">
        <ele>12.491</ele>
        <time>2015-06-18T05:51:09Z</time>
      </trkpt>
      <trkpt lat="37.351027" lon="-5.977722">
        <ele>12.481</ele>
        <time>2015-06-18T05:51:15Z</time>
      </trkpt>
      <trkpt lat="37.350953" lon="-5.977702">
        <ele>12.419</ele>
        <time>2015-06-18T05:51:17Z</time>
      </trkpt>
      <trkpt lat="37.350814" lon="-5.977659">
        <ele>12.408</ele>
        <time>2015-06-18T05:51:21Z</time>
      </trkpt>
      <trkpt lat="37.350733" lon="-5.977629">
        <ele>12.480</ele>
        <time>2015-06-18T05:51:23Z</time>
      </trkpt>
      <trkpt lat="37.350567" lon="-5.977589">
        <ele>12.456</ele>
        <time>2015-06-18T05:51:27Z</time>
      </trkpt>
      <trkpt lat="37.350323" lon="-5.977509">
        <ele>12.472</ele>
        <time>2015-06-18T05:51:33Z</time>
      </trkpt>
      <trkpt lat="37.350200" lon="-5.977481">
        <ele>12.491</ele>
        <time>2015-06-18T05:51:36Z</time>
      </trkpt>
      <trkpt lat="37.350035" lon="-5.977439">
        <ele>12.464</ele>
        <time>2015-06-18T05:51:40Z</time>
      </trkpt>
      <trkpt lat="37.349995" lon="-5.977428">
        <ele>12.456</ele>
        <time>2015-06-18T05:51:41Z</time>
      </trkpt>
      <trkpt lat="37.349681" lon="-5.977344">
        <ele>12.499</ele>
        <time>2015-06-18T05:51:48Z</time>
      </trkpt>
      <trkpt lat="37.349301" lon="-5.977236">
        <ele>12.483</ele>
        <time>2015-06-18T05:51:57Z</time>
      </trkpt>
      <trkpt lat="37.349010" lon="-5.977173">
        <ele>12.431</ele>
        <time>2015-06-18T05:52:04Z</time>
      </trkpt>
      <trkpt lat="37.348731" lon="-5.977111">
        <ele>12.461</ele>
        <time>2015-06-18T05:52:10Z</time>
      </trkpt>
      <trkpt lat="37.348361" lon="-5.977016">
        <ele>12.407</ele>
        <time>2015-06-18T05:52:17Z</time>
      </trkpt>
      <trkpt lat="37.347954" lon="-5.976910">
        <ele>12.408</ele>
        <time>2015-06-18T05:52:24Z</time>
      </trkpt>
      <trkpt lat="37.347586" lon="-5.976792">
        <ele>12.444</ele>
        <time>2015-06-18T05:52:30Z</time>
      </trkpt>
      <trkpt lat="37.347282" lon="-5.976732">
        <ele>12.420</ele>
        <time>2015-06-18T05:52:35Z</time>
      </trkpt>
      <trkpt lat="37.346926" lon="-5.976624">
        <ele>12.446</ele>
        <time>2015-06-18T05:52:41Z</time>
      </trkpt>
      <trkpt lat="37.346781" lon="-5.976595">
        <ele>12.445</ele>
        <time>2015-06-18T05:52:44Z</time>
      </trkpt>
      <trkpt lat="37.346680" lon="-5.976575">
        <ele>12.438</ele>
        <time>2015-06-18T05:52:46Z</time>
      </trkpt>
      <trkpt lat="37.346487" lon="-5.976513">
        <ele>12.480</ele>
        <time>2015-06-18T05:52:51Z</time>
      </trkpt>
      <trkpt lat="37.346366" lon="-5.976437">
        <ele>12.433</ele>
        <time>2015-06-18T05:52:55Z</time>
      </trkpt>
      <trkpt lat="37.346361" lon="-5.976413">
        <ele>12.487</ele>
        <time>2015-06-18T05:52:56Z</time>
      </trkpt>
      <trkpt lat="37.346366" lon="-5.976384">
        <ele>12.414</ele>
        <time>2015-06-18T05:52:58Z</time>
      </trkpt>
      <trkpt lat="37.346380" lon="-5.976370">
        <ele>12.454</ele>
        <time>2015-06-18T05:53:01Z</time>
      </trkpt>
      <trkpt lat="37.346379" lon="-5.976368">
        <ele>12.409</ele>
        <time>2015-06-18T05:53:04Z</time>
      </trkpt>
      <trkpt lat="37.346371" lon="-5.976357">
        <ele>12.408</ele>
        <time>2015-06-18T05:53:06Z</time>
      </trkpt>
      <trkpt lat="37.346334" lon="-5.976333">
        <ele>12.412</ele>
        <time>2015-06-18T05:53:08Z</time>
      </trkpt>
      <trkpt lat="37.346257" lon="-5.976305">
        <ele>12.468</ele>
        <time>2015-06-18T05:53:11Z</time>
      </trkpt>
      <trkpt lat="37.346230" lon="-5.976277">
        <ele>12.414</ele>
        <time>2015-06-18T05:53:12Z</time>
      </trkpt>
      <trkpt lat="37.346212" lon="-5.976236">
        <ele>12.453</ele>
        <time>2015-06-18T05:53:13Z</time>
      </trkpt>
      <trkpt lat="37.346172" lon="-5.976037">
        <ele>12.466</ele>
        <time>2015-06-18T05:53:17Z</time>
      </trkpt>
      <trkpt lat="37.346126" lon="-5.975949">
        <ele>12.418</ele>
        <time>2015-06-18T05:53:19Z</time>
      </trkpt>
      <trkpt lat="37.346075" lon="-5.975860">
        <ele>12.441</ele>
        <time>2015-06-18T05:53:21Z</time>
      </trkpt>
      <trkpt lat="37.345998" lon="-5.975642">
        <ele>12.415</ele>
        <time>2015-06-18T05:53:25Z</time>
      </trkpt>
      <trkpt lat="37.345974" lon="-5.975598">
        <ele>12.426</ele>
        <time>2015-06-18T05:53:26Z</time>
      </trkpt>
      <trkpt lat="37.345844" lon="-5.975527">
        <ele>12.447</ele>
        <time>2015-06-18T05:53:29Z</time>
      </trkpt>
      <trkpt lat="37.345734" lon="-5.975477">
        <ele>12.411</ele>
        <time>2015-06-18T05:53:31Z</time>
      </trkpt>
      <trkpt lat="37.345616" lon="-5.975423">
        <ele>12.408</ele>
        <time>2015-06-18T05:53:33Z</time>
      </trkpt>
      <trkpt lat="37.345488" lon="-5.975359">
        <ele>12.423</ele>
        <time>2015-06-18T05:53:36Z</time>
      </trkpt>
      <trkpt lat="37.345441" lon="-5.975343">
        <ele>12.439</ele>
        <time>2015-06-18T05:53:37Z</time>
      </trkpt>
      <trkpt lat="37.345277" lon="-5.975271">
        <ele>12.485</ele>
        <time>2015-06-18T05:53:40Z</time>
      </trkpt>
      <trkpt lat="37.345170" lon="-5.975212">
        <ele>12.454</ele>
        <time>2015-06-18T05:53:42Z</time>
      </trkpt>
      <trkpt lat="37.345107" lon="-5.975190">
        <ele>12.437</ele>
        <time>2015-06-18T05:53:43Z</time>
      </trkpt>
      <trkpt lat="37.344979" lon="-5.975145">
        <ele>12.499</ele>
        <time>2015-06-18T05:53:45Z</time>
      </trkpt>
      <trkpt lat="37.344805" lon="-5.975041">
        <ele>12.452</ele>
        <time>2015-06-18T05:53:48Z</time>
      </trkpt>
      <trkpt lat="37.344671" lon="-5.974994">
        <ele>12.496</ele>
        <time>2015-06-18T05:53:50Z</time>
      </trkpt>
      <trkpt lat="37.344504" lon="-5.975021">
        <ele>12.444</ele>
        <time>2015-06-18T05:53:53Z</time>
      </trkpt>
      <trkpt lat="37.344399" lon="-5.975022">
        <ele>12.405</ele>
        <time>2015-06-18T05:53:56Z</time>
      </trkpt>
      <trkpt lat="37.344237" lon="-5.974914">
        <ele>12.415</ele>
        <time>2015-06-18T05:53:59Z</time>
      </trkpt>
      <trkpt lat="37.344177" lon="-5.974879">
        <ele>12.408</ele>
        <time>2015-06-18T05:54:00Z</time>
      </trkpt>
      <trkpt lat="37.344113" lon="-5.974838">
        <ele>12.485</ele>
        <time>2015-06-18T05:54:01Z</time>
      </trkpt>
      <trkpt lat="37.343998" lon="-5.974781">
        <ele>12.471</ele>
        <time>2015-06-18T05:54:03Z</time>
      </trkpt>
      <trkpt lat="37.343936" lon="-5.974761">
        <ele>12.427</ele>
        <time>2015-06-18T05:54:04Z</time>
      </trkpt>
      <trkpt lat="37.343763" lon="-5.974688">
        <ele>12.496</ele>
        <time>2015-06-18T05:54:07Z</time>
      </trkpt>
      <trkpt lat="37.343666" lon="-5.974632">
        <ele>12.469</ele>
        <time>2015-06-18T05:54:09Z</time>
      </trkpt>
      <trkpt lat="37.343449" lon="-5.974431">
        <ele>12.441</ele>
        <time>2015-06-18T05:54:14Z</time>
      </trkpt>
      <trkpt lat="37.343413" lon="-5.974386">
        <ele>12.454</ele>
        <time>2015-06-18T05:54:15Z</time>
      </trkpt>
      <trkpt lat="37.343606" lon="-5.974471">
        <ele>10.278</ele>
        <time>2015-06-18T05:55:21Z</time>
      </trkpt>
      <trkpt lat="37.343647" lon="-5.974484">
        <ele>10.228</ele>
        <time>2015-06-18T05:55:22Z</time>
      </trkpt>
      <trkpt lat="37.343774" lon="-5.974431">
        <ele>10.289</ele>
        <time>2015-06-18T05:55:26Z</time>
      </trkpt>
      <trkpt lat="37.343806" lon="-5.974258">
        <ele>10.217</ele>
        <time>2015-06-18T05:55:30Z</time>
      </trkpt>
      <trkpt lat="37.343739" lon="-5.974162">
        <ele>10.208</ele>
        <time>2015-06-18T05:55:33Z</time>
      </trkpt>
      <trkpt lat="37.343669" lon="-5.974124">
        <ele>10.213</ele>
        <time>2015-06-18T05:55:35Z</time>
      </trkpt>
      <trkpt lat="37.343524" lon="-5.974033">
        <ele>10.289</ele>
        <time>2015-06-18T05:55:40Z</time>
      </trkpt>
      <trkpt lat="37.343507" lon="-5.974016">
        <ele>10.235</ele>
        <time>2015-06-18T05:55:44Z</time>
      </trkpt>
      <trkpt lat="37.343486" lon="-5.974009">
        <ele>10.244</ele>
        <time>2015-06-18T05:55:49Z</time>
      </trkpt>
      <trkpt lat="37.343464" lon="-5.974000">
        <ele>10.227</ele>
        <time>2015-06-18T05:55:51Z</time>
      </trkpt>
      <trkpt lat="37.343438" lon="-5.973992">
        <ele>10.239</ele>
        <time>2015-06-18T05:55:56Z</time>
      </trkpt>
      <trkpt lat="37.343415" lon="-5.973994">
        <ele>10.222</ele>
        <time>2015-06-18T05:56:01Z</time>
      </trkpt>
      <trkpt lat="37.343415" lon="-5.973994">
        <ele>10.256</ele>
        <time>2015-06-18T05:56:10Z</time>
      </trkpt>
      <trkpt lat="37.343415" lon="-5.973994">
        <ele>10.265</ele>
        <time>2015-06-18T05:56:20Z</time>
      </trkpt>
      <trkpt lat="37.343415" lon="-5.973994">
        <ele>10.268</ele>
        <time>2015-06-18T05:56:22Z</time>
      </trkpt>
      <trkpt lat="37.343415" lon="-5.973994">
        <ele>10.214</ele>
        <time>2015-06-18T05:56:28Z</time>
      </trkpt>
      <trkpt lat="37.343415" lon="-5.973994">
        <ele>10.208</ele>
        <time>2015-06-18T05:56:34Z</time>
      </trkpt>
      <trkpt lat="37.343415" lon="-5.973994">
        <ele>10.257</ele>
        <time>2015-06-18T05:56:37Z</time>
      </trkpt>
      <trkpt lat="37.343415" lon="-5.973994">
        <ele>10.213</ele>
        <time>2015-06-18T05:56:40Z</time>
      </trkpt>
      <trkpt lat="37.343414" lon="-5.973993">
        <ele>10.259</ele>
        <time>2015-06-18T05:56:46Z</time>
      </trkpt>
      <trkpt lat="37.343376" lon="-5.973940">
        <ele>10.218</ele>
        <time>2015-06-18T05:56:52Z</time>
      </trkpt>
      <trkpt lat="37.343375" lon="-5.973939">
        <ele>10.241</ele>
        <time>2015-06-18T05:56:57Z</time>
      </trkpt>
      <trkpt lat="37.343369" lon="-5.973937">
        <ele>10.283</ele>
        <time>2015-06-18T05:57:01Z</time>
      </trkpt>
      <trkpt lat="37.343369" lon="-5.973937">
        <ele>10.256</ele>
        <time>2015-06-18T05:57:11Z</time>
      </trkpt>
      <trkpt lat="37.343369" lon="-5.973937">
        <ele>10.220</ele>
        <time>2015-06-18T05:57:13Z</time>
      </trkpt>
      <trkpt lat="37.343369" lon="-5.973937">
        <ele>10.255</ele>
        <time>2015-06-18T05:57:23Z</time>
      </trkpt>
      <trkpt lat="37.343369" lon="-5.973937">
        <ele>10.207</ele>
        <time>2015-06-18T05:57:27Z</time>
      </trkpt>
      <trkpt lat="37.343369" lon="-5.973937">
        <ele>10.217</ele>
        <time>2015-06-18T05:57:32Z</time>
      </trkpt>
      <trkpt lat="37.343369" lon="-5.973936">
        <ele>10.208</ele>
        <time>2015-06-18T05:57:40Z</time>
      </trkpt>
      <trkpt lat="37.343369" lon="-5.973936">
        <ele>10.276</ele>
        <time>2015-06-18T05:57:42Z</time>
      </trkpt>
      <trkpt lat="37.343369" lon="-5.973936">
        <ele>10.282</ele>
        <time>2015-06-18T05:57:52Z</time>
      </trkpt>
      <trkpt lat="37.343369" lon="-5.973936">
        <ele>10.268</ele>
        <time>2015-06-18T05:58:05Z</time>
      </trkpt>
      <trkpt lat="37.343368" lon="-5.973935">
        <ele>10.267</ele>
        <time>2015-06-18T05:58:19Z</time>
      </trkpt>
      <trkpt lat="37.343368" lon="-5.973935">
        <ele>10.240</ele>
        <time>2015-06-18T05:58:20Z</time>
      </trkpt>
      <trkpt lat="37.343368" lon="-5.973935">
        <ele>10.292</ele>
        <time>2015-06-18T05:58:21Z</time>
      </trkpt>
      <trkpt lat="37.343368" lon="-5.973935">
        <ele>10.265</ele>
        <time>2015-06-18T05:58:32Z</time>
      </trkpt>
      <trkpt lat="37.343368" lon="-5.973935">
        <ele>10.299</ele>
        <time>2015-06-18T05:58:36Z</time>
      </trkpt>
      <trkpt lat="37.343368" lon="-5.973935">
        <ele>10.241</ele>
        <time>2015-06-18T05:58:47Z</time>
      </trkpt>
      <trkpt lat="37.343368" lon="-5.973935">
        <ele>10.281</ele>
        <time>2015-06-18T05:58:50Z</time>
      </trkpt>
      <trkpt lat="37.343368" lon="-5.973934">
        <ele>10.209</ele>
        <time>2015-06-18T05:59:01Z</time>
      </trkpt>
      <trkpt lat="37.343368" lon="-5.973934">
        <ele>10.208</ele>
        <time>2015-06-18T05:59:02Z</time>
      </trkpt>
      <trkpt lat="37.343368" lon="-5.973934">
        <ele>10.255</ele>
        <time>2015-06-18T05:59:04Z</time>
      </trkpt>
      <trkpt lat="37.343368" lon="-5.973934">
        <ele>10.241</ele>
        <time>2015-06-18T05:59:16Z</time>
      </trkpt>
      <trkpt lat="37.343368" lon="-5.973934">
        <ele>10.217</ele>
        <time>2015-06-18T05:59:31Z</time>
      </trkpt>
      <trkpt lat="37.343368" lon="-5.973933">
        <ele>10.286</ele>
        <time>2015-06-18T05:59:45Z</time>
      </trkpt>
      <trkpt lat="37.343368" lon="-5.973933">
        <ele>10.289</ele>
        <time>2015-06-18T05:59:59Z</time>
      </trkpt>
      <trkpt lat="37.343368" lon="-5.973933">
        <ele>10.211</ele>
        <time>2015-06-18T06:00:13Z</time>
      </trkpt>
      <trkpt lat="37.343367" lon="-5.973934">
        <ele>10.274</ele>
        <time>2015-06-18T06:00:32Z</time>
      </trkpt>
      <trkpt lat="37.343367" lon="-5.973934">
        <ele>10.278</ele>
        <time>2015-06-18T06:00:44Z</time>
      </trkpt>
      <trkpt lat="37.343367" lon="-5.973934">
        <ele>10.218</ele>
        <time>2015-06-18T06:00:45Z</time>
      </trkpt>
      <trkpt lat="37.343367" lon="-5.973934">
        <ele>10.298</ele>
        <time>2015-06-18T06:00:46Z</time>
      </trkpt>
      <trkpt lat="37.343367" lon="-5.973932">
        <ele>10.217</ele>
        <time>2015-06-18T06:01:00Z</time>
      </trkpt>
      <trkpt lat="37.343367" lon="-5.973932">
        <ele>10.208</ele>
        <time>2015-06-18T06:01:02Z</time>
      </trkpt>
      <trkpt lat="37.343367" lon="-5.973932">
        <ele>10.212</ele>
        <time>2015-06-18T06:01:03Z</time>
      </trkpt>
      <trkpt lat="37.343367" lon="-5.973932">
        <ele>10.258</ele>
        <time>2015-06-18T06:01:11Z</time>
      </trkpt>
      <trkpt lat="37.343367" lon="-5.973932">
        <ele>10.274</ele>
        <time>2015-06-18T06:01:15Z</time>
      </trkpt>
      <trkpt lat="37.343367" lon="-5.973932">
        <ele>10.263</ele>
        <time>2015-06-18T06:01:18Z</time>
      </trkpt>
      <trkpt lat="37.343367" lon="-5.973932">
        <ele>10.256</ele>
        <time>2015-06-18T06:01:29Z</time>
      </trkpt>
      <trkpt lat="37.343367" lon="-5.973932">
        <ele>10.298</ele>
        <time>2015-06-18T06:01:35Z</time>
      </trkpt>
      <trkpt lat="37.343365" lon="-5.973933">
        <ele>10.251</ele>
        <time>2015-06-18T06:01:42Z</time>
      </trkpt>
      <trkpt lat="37.343365" lon="-5.973933">
        <ele>10.255</ele>
        <time>2015-06-18T06:01:44Z</time>
      </trkpt>
      <trkpt lat="37.343365" lon="-5.973933">
        <ele>10.251</ele>
        <time>2015-06-18T06:01:45Z</time>
      </trkpt>
      <trkpt lat="37.343365" lon="-5.973933">
        <ele>10.201</ele>
        <time>2015-06-18T06:01:54Z</time>
      </trkpt>
      <trkpt lat="37.343365" lon="-5.973933">
        <ele>10.211</ele>
        <time>2015-06-18T06:01:59Z</time>
      </trkpt>
      <trkpt lat="37.343365" lon="-5.973933">
        <ele>10.208</ele>
        <time>2015-06-18T06:02:00Z</time>
      </trkpt>
      <trkpt lat="37.343365" lon="-5.973933">
        <ele>10.246</ele>
        <time>2015-06-18T06:02:10Z</time>
      </trkpt>
      <trkpt lat="37.343364" lon="-5.973931">
        <ele>10.272</ele>
        <time>2015-06-18T06:02:21Z</time>
      </trkpt>
      <trkpt lat="37.343364" lon="-5.973931">
        <ele>10.288</ele>
        <time>2015-06-18T06:02:23Z</time>
      </trkpt>
      <trkpt lat="37.343364" lon="-5.973931">
        <ele>10.297</ele>
        <time>2015-06-18T06:02:34Z</time>
      </trkpt>
      <trkpt lat="37.343364" lon="-5.973931">
        <ele>10.230</ele>
        <time>2015-06-18T06:02:38Z</time>
      </trkpt>
      <trkpt lat="37.343364" lon="-5.973931">
        <ele>10.272</ele>
        <time>2015-06-18T06:02:43Z</time>
      </trkpt>
      <trkpt lat="37.343364" lon="-5.973931">
        <ele>10.275</ele>
        <time>2015-06-18T06:02:47Z</time>
      </trkpt>
      <trkpt lat="37.343364" lon="-5.973931">
        <ele>10.249</ele>
        <time>2015-06-18T06:02:55Z</time>
      </trkpt>
      <trkpt lat="37.343369" lon="-5.973937">
        <ele>10.249</ele>
        <time>2015-06-18T06:03:00Z</time>
      </trkpt>
      <trkpt lat="37.343365" lon="-5.973944">
        <ele>10.202</ele>
        <time>2015-06-18T06:03:01Z</time>
      </trkpt>
      <trkpt lat="37.343347" lon="-5.973952">
        <ele>10.222</ele>
        <time>2015-06-18T06:03:04Z</time>
      </trkpt>
      <trkpt lat="37.343344" lon="-5.973949">
        <ele>10.208</ele>
        <time>2015-06-18T06:03:06Z</time>
      </trkpt>
      <trkpt lat="37.343344" lon="-5.973949">
        <ele>10.225</ele>
        <time>2015-06-18T06:03:07Z</time>
      </trkpt>
      <trkpt lat="37.343344" lon="-5.973949">
        <ele>10.261</ele>
        <time>2015-06-18T06:03:16Z</time>
      </trkpt>
      <trkpt lat="37.343339" lon="-5.973947">
        <ele>10.277</ele>
        <time>2015-06-18T06:03:18Z</time>
      </trkpt>
      <trkpt lat="37.343304" lon="-5.973920">
        <ele>10.226</ele>
        <time>2015-06-18T06:03:21Z</time>
      </trkpt>
      <trkpt lat="37.343204" lon="-5.973857">
        <ele>10.279</ele>
        <time>2015-06-18T06:03:25Z</time>
      </trkpt>
      <trkpt lat="37.343170" lon="-5.973842">
        <ele>10.221</ele>
        <time>2015-06-18T06:03:26Z</time>
      </trkpt>
      <trkpt lat="37.342994" lon="-5.973759">
        <ele>10.254</ele>
        <time>2015-06-18T06:03:31Z</time>
      </trkpt>
      <trkpt lat="37.342859" lon="-5.973691">
        <ele>10.228</ele>
        <time>2015-06-18T06:03:35Z</time>
      </trkpt>
      <trkpt lat="37.342704" lon="-5.973640">
        <ele>10.212</ele>
        <time>2015-06-18T06:03:39Z</time>
      </trkpt>
      <trkpt lat="37.342489" lon="-5.973548">
        <ele>10.232</ele>
        <time>2015-06-18T06:03:45Z</time>
      </trkpt>
      <trkpt lat="37.342309" lon="-5.973464">
        <ele>10.205</ele>
        <time>2015-06-18T06:03:51Z</time>
      </trkpt>
      <trkpt lat="37.342112" lon="-5.973370">
        <ele>10.208</ele>
        <time>2015-06-18T06:03:57Z</time>
      </trkpt>
      <trkpt lat="37.341935" lon="-5.973348">
        <ele>10.262</ele>
        <time>2015-06-18T06:04:02Z</time>
      </trkpt>
      <trkpt lat="37.341771" lon="-5.973421">
        <ele>10.248</ele>
        <time>2015-06-18T06:04:07Z</time>
      </trkpt>
      <trkpt lat="37.341651" lon="-5.973563">
        <ele>10.224</ele>
        <time>2015-06-18T06:04:12Z</time>
      </trkpt>
      <trkpt lat="37.341579" lon="-5.973680">
        <ele>10.253</ele>
        <time>2015-06-18T06:04:16Z</time>
      </trkpt>
      <trkpt lat="37.341558" lon="-5.973713">
        <ele>10.296</ele>
        <time>2015-06-18T06:04:18Z</time>
      </trkpt>
      <trkpt lat="37.341510" lon="-5.973807">
        <ele>10.288</ele>
        <time>2015-06-18T06:04:24Z</time>
      </trkpt>
      <trkpt lat="37.341502" lon="-5.973838">
        <ele>10.281</ele>
        <time>2015-06-18T06:04:26Z</time>
      </trkpt>
      <trkpt lat="37.341458" lon="-5.973958">
        <ele>10.285</ele>
        <time>2015-06-18T06:04:34Z</time>
      </trkpt>
      <trkpt lat="37.341430" lon="-5.974052">
        <ele>10.299</ele>
        <time>2015-06-18T06:04:38Z</time>
      </trkpt>
      <trkpt lat="37.341401" lon="-5.974112">
        <ele>10.207</ele>
        <time>2015-06-18T06:04:40Z</time>
      </trkpt>
      <trkpt lat="37.341283" lon="-5.974277">
        <ele>10.227</ele>
        <time>2015-06-18T06:04:46Z</time>
      </trkpt>
      <trkpt lat="37.341275" lon="-5.974287">
        <ele>10.208</ele>
        <time>2015-06-18T06:04:50Z</time>
      </trkpt>
      <trkpt lat="37.341275" lon="-5.974287">
        <ele>10.280</ele>
        <time>2015-06-18T06:04:53Z</time>
      </trkpt>
      <trkpt lat="37.341275" lon="-5.974287">
        <ele>10.256</ele>
        <time>2015-06-18T06:04:57Z</time>
      </trkpt>
      <trkpt lat="37.341275" lon="-5.974287">
        <ele>10.222</ele>
        <time>2015-06-18T06:05:00Z</time>
      </trkpt>
      <trkpt lat="37.341275" lon="-5.974287">
        <ele>10.281</ele>
        <time>2015-06-18T06:05:04Z</time>
      </trkpt>
      <trkpt lat="37.341275" lon="-5.974287">
        <ele>10.214</ele>
        <time>2015-06-18T06:05:06Z</time>
      </trkpt>
      <trkpt lat="37.341263" lon="-5.974311">
        <ele>10.226</ele>
        <time>2015-06-18T06:05:09Z</time>
      </trkpt>
      <trkpt lat="37.341253" lon="-5.974323">
        <ele>10.229</ele>
        <time>2015-06-18T06:05:10Z</time>
      </trkpt>
      <trkpt lat="37.341239" lon="-5.974331">
        <ele>10.233</ele>
        <time>2015-06-18T06:05:11Z</time>
      </trkpt>
      <trkpt lat="37.341176" lon="-5.974370">
        <ele>10.267</ele>
        <time>2015-06-18T06:05:14Z</time>
      </trkpt>
      <trkpt lat="37.341152" lon="-5.974396">
        <ele>10.281</ele>
        <time>2015-06-18T06:05:15Z</time>
      </trkpt>
      <trkpt lat="37.340997" lon="-5.974478">
        <ele>10.219</ele>
        <time>2015-06-18T06:05:20Z</time>
      </trkpt>
      <trkpt lat="37.340814" lon="-5.974600">
        <ele>10.208</ele>
        <time>2015-06-18T06:05:26Z</time>
      </trkpt>
      <trkpt lat="37.340677" lon="-5.974715">
        <ele>10.267</ele>
        <time>2015-06-18T06:05:30Z</time>
      </trkpt>
      <trkpt lat="37.340633" lon="-5.974806">
        <ele>10.253</ele>
        <time>2015-06-18T06:05:32Z</time>
      </trkpt>
      <trkpt lat="37.340586" lon="-5.975045">
        <ele>10.299</ele>
        <time>2015-06-18T06:05:37Z</time>
      </trkpt>
      <trkpt lat="37.340590" lon="-5.975276">
        <ele>10.228</ele>
        <time>2015-06-18T06:05:42Z</time>
      </trkpt>
      <trkpt lat="37.340604" lon="-5.975426">
        <ele>10.261</ele>
        <time>2015-06-18T06:05:45Z</time>
      </trkpt>
      <trkpt lat="37.340616" lon="-5.975478">
        <ele>10.223</ele>
        <time>2015-06-18T06:05:46Z</time>
      </trkpt>
      <trkpt lat="37.340623" lon="-5.975585">
        <ele>10.236</ele>
        <time>2015-06-18T06:05:48Z</time>
      </trkpt>
      <trkpt lat="37.340634" lon="-5.975635">
        <ele>10.260</ele>
        <time>2015-06-18T06:05:49Z</time>
      </trkpt>
      <trkpt lat="37.340660" lon="-5.975824">
        <ele>10.216</ele>
        <time>2015-06-18T06:05:53Z</time>
      </trkpt>
      <trkpt lat="37.340717" lon="-5.976089">
        <ele>10.276</ele>
        <time>2015-06-18T06:06:00Z</time>
      </trkpt>
      <trkpt lat="37.340720" lon="-5.976093">
        <ele>10.213</ele>
        <time>2015-06-18T06:06:03Z</time>
      </trkpt>
      <trkpt lat="37.340720" lon="-5.976093">
        <ele>10.208</ele>
        <time>2015-06-18T06:06:08Z</time>
      </trkpt>
      <trkpt lat="37.340720" lon="-5.976093">
        <ele>10.222</ele>
        <time>2015-06-18T06:06:10Z</time>
      </trkpt>
      <trkpt lat="37.340720" lon="-5.976093">
        <ele>10.228</ele>
        <time>2015-06-18T06:06:13Z</time>
      </trkpt>
      <trkpt lat="37.340720" lon="-5.976093">
        <ele>10.274</ele>
        <time>2015-06-18T06:06:17Z</time>
      </trkpt>
      <trkpt lat="37.340729" lon="-5.976145">
        <ele>10.283</ele>
        <time>2015-06-18T06:06:25Z</time>
      </trkpt>
      <trkpt lat="37.340731" lon="-5.976213">
        <ele>10.256</ele>
        <time>2015-06-18T06:06:27Z</time>
      </trkpt>
      <trkpt lat="37.340711" lon="-5.976275">
        <ele>10.238</ele>
        <time>2015-06-18T06:06:29Z</time>
      </trkpt>
      <trkpt lat="37.340731" lon="-5.976393">
        <ele>10.261</ele>
        <time>2015-06-18T06:06:32Z</time>
      </trkpt>
      <trkpt lat="37.340777" lon="-5.976603">
        <ele>10.275</ele>
        <time>2015-06-18T06:06:38Z</time>
      </trkpt>
      <trkpt lat="37.340784" lon="-5.976690">
        <ele>10.262</ele>
        <time>2015-06-18T06:06:41Z</time>
      </trkpt>
      <trkpt lat="37.340775" lon="-5.976717">
        <ele>10.283</ele>
        <time>2015-06-18T06:06:42Z</time>
      </trkpt>
      <trkpt lat="37.340753" lon="-5.976732">
        <ele>10.211</ele>
        <time>2015-06-18T06:06:43Z</time>
      </trkpt>
      <trkpt lat="37.340662" lon="-5.976761">
        <ele>10.208</ele>
        <time>2015-06-18T06:06:48Z</time>
      </trkpt>
      <trkpt lat="37.340611" lon="-5.976779">
        <ele>10.657</ele>
        <time>2015-06-18T06:06:52Z</time>
      </trkpt>
      <trkpt lat="37.340595" lon="-5.976784">
        <ele>11.013</ele>
        <time>2015-06-18T06:06:53Z</time>
      </trkpt>
      <trkpt lat="37.340584" lon="-5.976791">
        <ele>11.419</ele>
        <time>2015-06-18T06:06:54Z</time>
      </trkpt>
      <trkpt lat="37.340571" lon="-5.976797">
        <ele>11.898</ele>
        <time>2015-06-18T06:06:55Z</time>
      </trkpt>
      <trkpt lat="37.340556" lon="-5.976801">
        <ele>12.241</ele>
        <time>2015-06-18T06:06:56Z</time>
      </trkpt>
      <trkpt lat="37.340505" lon="-5.976807">
        <ele>12.283</ele>
        <time>2015-06-18T06:07:00Z</time>
      </trkpt>
      <trkpt lat="37.340416" lon="-5.976826">
        <ele>12.256</ele>
        <time>2015-06-18T06:07:07Z</time>
      </trkpt>
      <trkpt lat="37.340279" lon="-5.976851">
        <ele>12.290</ele>
        <time>2015-06-18T06:07:13Z</time>
      </trkpt>
      <trkpt lat="37.340083" lon="-5.976986">
        <ele>12.219</ele>
        <time>2015-06-18T06:07:18Z</time>
      </trkpt>
      <trkpt lat="37.340090" lon="-5.977157">
        <ele>12.209</ele>
        <time>2015-06-18T06:07:21Z</time>
      </trkpt>
      <trkpt lat="37.340095" lon="-5.977212">
        <ele>12.219</ele>
        <time>2015-06-18T06:07:22Z</time>
      </trkpt>
      <trkpt lat="37.340096" lon="-5.977268">
        <ele>11.608</ele>
        <time>2015-06-18T06:07:23Z</time>
      </trkpt>
      <trkpt lat="37.340098" lon="-5.977319">
        <ele>10.862</ele>
        <time>2015-06-18T06:07:24Z</time>
      </trkpt>
      <trkpt lat="37.340086" lon="-5.977366">
        <ele>10.238</ele>
        <time>2015-06-18T06:07:25Z</time>
      </trkpt>
      <trkpt lat="37.340054" lon="-5.977396">
        <ele>10.494</ele>
        <time>2015-06-18T06:07:26Z</time>
      </trkpt>
      <trkpt lat="37.340023" lon="-5.977422">
        <ele>10.883</ele>
        <time>2015-06-18T06:07:27Z</time>
      </trkpt>
      <trkpt lat="37.339992" lon="-5.977450">
        <ele>11.066</ele>
        <time>2015-06-18T06:07:28Z</time>
      </trkpt>
      <trkpt lat="37.339963" lon="-5.977477">
        <ele>11.418</ele>
        <time>2015-06-18T06:07:29Z</time>
      </trkpt>
      <trkpt lat="37.339923" lon="-5.977508">
        <ele>11.841</ele>
        <time>2015-06-18T06:07:30Z</time>
      </trkpt>
      <trkpt lat="37.339822" lon="-5.977601">
        <ele>11.855</ele>
        <time>2015-06-18T06:07:33Z</time>
      </trkpt>
      <trkpt lat="37.339724" lon="-5.977694">
        <ele>11.835</ele>
        <time>2015-06-18T06:07:36Z</time>
      </trkpt>
      <trkpt lat="37.339515" lon="-5.977920">
        <ele>11.886</ele>
        <time>2015-06-18T06:07:42Z</time>
      </trkpt>
      <trkpt lat="37.339256" lon="-5.978181">
        <ele>11.814</ele>
        <time>2015-06-18T06:07:48Z</time>
      </trkpt>
      <trkpt lat="37.339036" lon="-5.978419">
        <ele>11.808</ele>
        <time>2015-06-18T06:07:53Z</time>
      </trkpt>
      <trkpt lat="37.338956" lon="-5.978505">
        <ele>11.894</ele>
        <time>2015-06-18T06:07:55Z</time>
      </trkpt>
      <trkpt lat="37.338863" lon="-5.978567">
        <ele>11.840</ele>
        <time>2015-06-18T06:07:58Z</time>
      </trkpt>
      <trkpt lat="37.338841" lon="-5.978579">
        <ele>11.466</ele>
        <time>2015-06-18T06:07:59Z</time>
      </trkpt>
      <trkpt lat="37.338825" lon="-5.978592">
        <ele>11.015</ele>
        <time>2015-06-18T06:08:00Z</time>
      </trkpt>
      <trkpt lat="37.338810" lon="-5.978609">
        <ele>10.418</ele>
        <time>2015-06-18T06:08:01Z</time>
      </trkpt>
      <trkpt lat="37.338798" lon="-5.978625">
        <ele>10.090</ele>
        <time>2015-06-18T06:08:02Z</time>
      </trkpt>
      <trkpt lat="37.338783" lon="-5.978650">
        <ele>9.683</ele>
        <time>2015-06-18T06:08:03Z</time>
      </trkpt>
      <trkpt lat="37.338767" lon="-5.978678">
        <ele>9.667</ele>
        <time>2015-06-18T06:08:04Z</time>
      </trkpt>
      <trkpt lat="37.338664" lon="-5.978776">
        <ele>9.638</ele>
        <time>2015-06-18T06:08:08Z</time>
      </trkpt>
      <trkpt lat="37.338603" lon="-5.978844">
        <ele>9.670</ele>
        <time>2015-06-18T06:08:10Z</time>
      </trkpt>
      <trkpt lat="37.338468" lon="-5.978990">
        <ele>9.617</ele>
        <time>2015-06-18T06:08:14Z</time>
      </trkpt>
      <trkpt lat="37.338332" lon="-5.979130">
        <ele>9.608</ele>
        <time>2015-06-18T06:08:18Z</time>
      </trkpt>
      <trkpt lat="37.338210" lon="-5.979242">
        <ele>9.624</ele>
        <time>2015-06-18T06:08:22Z</time>
      </trkpt>
      <trkpt lat="37.338168" lon="-5.979238">
        <ele>9.610</ele>
        <time>2015-06-18T06:08:25Z</time>
      </trkpt>
      <trkpt lat="37.338141" lon="-5.979218">
        <ele>9.696</ele>
        <time>2015-06-18T06:08:29Z</time>
      </trkpt>
      <trkpt lat="37.338128" lon="-5.979176">
        <ele>9.685</ele>
        <time>2015-06-18T06:08:32Z</time>
      </trkpt>
      <trkpt lat="37.338130" lon="-5.979175">
        <ele>9.628</ele>
        <time>2015-06-18T06:08:34Z</time>
      </trkpt>
      <trkpt lat="37.338108" lon="-5.979131">
        <ele>9.640</ele>
        <time>2015-06-18T06:08:38Z</time>
      </trkpt>
      <trkpt lat="37.338085" lon="-5.979126">
        <ele>9.623</ele>
        <time>2015-06-18T06:08:39Z</time>
      </trkpt>
      <trkpt lat="37.338015" lon="-5.979043">
        <ele>9.627</ele>
        <time>2015-06-18T06:08:42Z</time>
      </trkpt>
      <trkpt lat="37.338000" lon="-5.978988">
        <ele>9.626</ele>
        <time>2015-06-18T06:08:43Z</time>
      </trkpt>
      <trkpt lat="37.337982" lon="-5.978927">
        <ele>9.647</ele>
        <time>2015-06-18T06:08:44Z</time>
      </trkpt>
      <trkpt lat="37.337958" lon="-5.978875">
        <ele>9.611</ele>
        <time>2015-06-18T06:08:45Z</time>
      </trkpt>
      <trkpt lat="37.337937" lon="-5.978764">
        <ele>9.608</ele>
        <time>2015-06-18T06:08:47Z</time>
      </trkpt>
      <trkpt lat="37.337861" lon="-5.978415">
        <ele>9.663</ele>
        <time>2015-06-18T06:08:54Z</time>
      </trkpt>
      <trkpt lat="37.337816" lon="-5.978222">
        <ele>9.689</ele>
        <time>2015-06-18T06:08:58Z</time>
      </trkpt>
      <trkpt lat="37.337746" lon="-5.978076">
        <ele>9.615</ele>
        <time>2015-06-18T06:09:01Z</time>
      </trkpt>
      <trkpt lat="37.337660" lon="-5.977904">
        <ele>9.694</ele>
        <time>2015-06-18T06:09:06Z</time>
      </trkpt>
      <trkpt lat="37.337574" lon="-5.977752">
        <ele>9.617</ele>
        <time>2015-06-18T06:09:11Z</time>
      </trkpt>
      <trkpt lat="37.337552" lon="-5.977701">
        <ele>9.259</ele>
        <time>2015-06-18T06:09:14Z</time>
      </trkpt>
      <trkpt lat="37.337549" lon="-5.977679">
        <ele>8.852</ele>
        <time>2015-06-18T06:09:15Z</time>
      </trkpt>
      <trkpt lat="37.337554" lon="-5.977655">
        <ele>8.486</ele>
        <time>2015-06-18T06:09:16Z</time>
      </trkpt>
      <trkpt lat="37.337567" lon="-5.977627">
        <ele>8.027</ele>
        <time>2015-06-18T06:09:17Z</time>
      </trkpt>
      <trkpt lat="37.337580" lon="-5.977600">
        <ele>7.668</ele>
        <time>2015-06-18T06:09:18Z</time>
      </trkpt>
      <trkpt lat="37.337593" lon="-5.977574">
        <ele>7.614</ele>
        <time>2015-06-18T06:09:19Z</time>
      </trkpt>
      <trkpt lat="37.337644" lon="-5.977452">
        <ele>7.608</ele>
        <time>2015-06-18T06:09:24Z</time>
      </trkpt>
      <trkpt lat="37.337657" lon="-5.977411">
        <ele>7.613</ele>
        <time>2015-06-18T06:09:26Z</time>
      </trkpt>
      <trkpt lat="37.337644" lon="-5.977283">
        <ele>7.699</ele>
        <time>2015-06-18T06:09:31Z</time>
      </trkpt>
      <trkpt lat="37.337597" lon="-5.977213">
        <ele>7.695</ele>
        <time>2015-06-18T06:09:35Z</time>
      </trkpt>
      <trkpt lat="37.337580" lon="-5.977226">
        <ele>7.674</ele>
        <time>2015-06-18T06:09:36Z</time>
      </trkpt>
      <trkpt lat="37.337570" lon="-5.977334">
        <ele>7.657</ele>
        <time>2015-06-18T06:09:40Z</time>
      </trkpt>
      <trkpt lat="37.337577" lon="-5.977369">
        <ele>7.669</ele>
        <time>2015-06-18T06:09:41Z</time>
      </trkpt>
      <trkpt lat="37.337540" lon="-5.977532">
        <ele>7.632</ele>
        <time>2015-06-18T06:09:45Z</time>
      </trkpt>
      <trkpt lat="37.337435" lon="-5.977709">
        <ele>7.636</ele>
        <time>2015-06-18T06:09:50Z</time>
      </trkpt>
      <trkpt lat="37.337408" lon="-5.977729">
        <ele>7.689</ele>
        <time>2015-06-18T06:09:51Z</time>
      </trkpt>
      <trkpt lat="37.337321" lon="-5.977763">
        <ele>7.606</ele>
        <time>2015-06-18T06:09:54Z</time>
      </trkpt>
      <trkpt lat="37.337204" lon="-5.977688">
        <ele>7.626</ele>
        <time>2015-06-18T06:09:58Z</time>
      </trkpt>
      <trkpt lat="37.337076" lon="-5.977547">
        <ele>7.608</ele>
        <time>2015-06-18T06:10:04Z</time>
      </trkpt>
      <trkpt lat="37.336959" lon="-5.977350">
        <ele>7.659</ele>
        <time>2015-06-18T06:10:11Z</time>
      </trkpt>
      <trkpt lat="37.336930" lon="-5.977290">
        <ele>7.665</ele>
        <time>2015-06-18T06:10:15Z</time>
      </trkpt>
      <trkpt lat="37.336927" lon="-5.977272">
        <ele>7.681</ele>
        <time>2015-06-18T06:10:16Z</time>
      </trkpt>
      <trkpt lat="37.336965" lon="-5.977198">
        <ele>7.680</ele>
        <time>2015-06-18T06:10:21Z</time>
      </trkpt>
      <trkpt lat="37.336987" lon="-5.977036">
        <ele>8.063</ele>
        <time>2015-06-18T06:10:26Z</time>
      </trkpt>
      <trkpt lat="37.336990" lon="-5.976997">
        <ele>8.475</ele>
        <time>2015-06-18T06:10:27Z</time>
      </trkpt>
      <trkpt lat="37.336991" lon="-5.976957">
        <ele>8.848</ele>
        <time>2015-06-18T06:10:28Z</time>
      </trkpt>
      <trkpt lat="37.336991" lon="-5.976915">
        <ele>9.212</ele>
        <time>2015-06-18T06:10:29Z</time>
      </trkpt>
      <trkpt lat="37.336993" lon="-5.976875">
        <ele>9.642</ele>
        <time>2015-06-18T06:10:30Z</time>
      </trkpt>
      <trkpt lat="37.336977" lon="-5.976753">
        <ele>9.622</ele>
        <time>2015-06-18T06:10:33Z</time>
      </trkpt>
      <trkpt lat="37.336891" lon="-5.976600">
        <ele>9.614</ele>
        <time>2015-06-18T06:10:37Z</time>
      </trkpt>
      <trkpt lat="37.336816" lon="-5.976414">
        <ele>9.608</ele>
        <time>2015-06-18T06:10:42Z</time>
      </trkpt>
      <trkpt lat="37.336743" lon="-5.976324">
        <ele>9.615</ele>
        <time>2015-06-18T06:10:46Z</time>
      </trkpt>
      <trkpt lat="37.336686" lon="-5.976268">
        <ele>9.611</ele>
        <time>2015-06-18T06:10:49Z</time>
      </trkpt>
      <trkpt lat="37.336667" lon="-5.976253">
        <ele>10.477</ele>
        <time>2015-06-18T06:10:50Z</time>
      </trkpt>
      <trkpt lat="37.336646" lon="-5.976246">
        <ele>10.856</ele>
        <time>2015-06-18T06:10:51Z</time>
      </trkpt>
      <trkpt lat="37.336624" lon="-5.976236">
        <ele>11.249</ele>
        <time>2015-06-18T06:10:52Z</time>
      </trkpt>
      <trkpt lat="37.336601" lon="-5.976223">
        <ele>11.661</ele>
        <time>2015-06-18T06:10:53Z</time>
      </trkpt>
      <trkpt lat="37.336547" lon="-5.976217">
        <ele>11.654</ele>
        <time>2015-06-18T06:10:55Z</time>
      </trkpt>
      <trkpt lat="37.336434" lon="-5.976251">
        <ele>11.678</ele>
        <time>2015-06-18T06:10:59Z</time>
      </trkpt>
      <trkpt lat="37.336379" lon="-5.976285">
        <ele>11.651</ele>
        <time>2015-06-18T06:11:01Z</time>
      </trkpt>
      <trkpt lat="37.336196" lon="-5.976443">
        <ele>11.601</ele>
        <time>2015-06-18T06:11:07Z</time>
      </trkpt>
      <trkpt lat="37.335983" lon="-5.976624">
        <ele>11.611</ele>
        <time>2015-06-18T06:11:14Z</time>
      </trkpt>
      <trkpt lat="37.335837" lon="-5.976772">
        <ele>11.608</ele>
        <time>2015-06-18T06:11:19Z</time>
      </trkpt>
      <trkpt lat="37.335778" lon="-5.976825">
        <ele>11.636</ele>
        <time>2015-06-18T06:11:21Z</time>
      </trkpt>
      <trkpt lat="37.335553" lon="-5.977024">
        <ele>11.632</ele>
        <time>2015-06-18T06:11:28Z</time>
      </trkpt>
      <trkpt lat="37.335457" lon="-5.977106">
        <ele>11.648</ele>
        <time>2015-06-18T06:11:32Z</time>
      </trkpt>
      <trkpt lat="37.335468" lon="-5.977105">
        <ele>11.667</ele>
        <time>2015-06-18T06:11:37Z</time>
      </trkpt>
      <trkpt lat="37.335468" lon="-5.977105">
        <ele>11.670</ele>
        <time>2015-06-18T06:11:41Z</time>
      </trkpt>
      <trkpt lat="37.335468" lon="-5.977105">
        <ele>11.612</ele>
        <time>2015-06-18T06:11:45Z</time>
      </trkpt>
      <trkpt lat="37.335468" lon="-5.977105">
        <ele>11.665</ele>
        <time>2015-06-18T06:11:56Z</time>
      </trkpt>
      <trkpt lat="37.335468" lon="-5.977105">
        <ele>11.679</ele>
        <time>2015-06-18T06:11:57Z</time>
      </trkpt>
      <trkpt lat="37.335468" lon="-5.977105">
        <ele>11.611</ele>
        <time>2015-06-18T06:12:05Z</time>
      </trkpt>
      <trkpt lat="37.335468" lon="-5.977105">
        <ele>11.621</ele>
        <time>2015-06-18T06:12:13Z</time>
      </trkpt>
      <trkpt lat="37.335469" lon="-5.977105">
        <ele>11.603</ele>
        <time>2015-06-18T06:12:23Z</time>
      </trkpt>
      <trkpt lat="37.335469" lon="-5.977105">
        <ele>11.608</ele>
        <time>2015-06-18T06:12:24Z</time>
      </trkpt>
      <trkpt lat="37.335469" lon="-5.977105">
        <ele>11.662</ele>
        <time>2015-06-18T06:12:25Z</time>
      </trkpt>
      <trkpt lat="37.335469" lon="-5.977105">
        <ele>11.618</ele>
        <time>2015-06-18T06:12:31Z</time>
      </trkpt>
      <trkpt lat="37.335469" lon="-5.977105">
        <ele>11.624</ele>
        <time>2015-06-18T06:12:35Z</time>
      </trkpt>
      <trkpt lat="37.335469" lon="-5.977105">
        <ele>11.673</ele>
        <time>2015-06-18T06:12:41Z</time>
      </trkpt>
      <trkpt lat="37.335469" lon="-5.977105">
        <ele>11.676</ele>
        <time>2015-06-18T06:12:43Z</time>
      </trkpt>
      <trkpt lat="37.335469" lon="-5.977105">
        <ele>11.618</ele>
        <time>2015-06-18T06:12:48Z</time>
      </trkpt>
      <trkpt lat="37.335469" lon="-5.977105">
        <ele>11.611</ele>
        <time>2015-06-18T06:12:49Z</time>
      </trkpt>
      <trkpt lat="37.335466" lon="-5.977114">
        <ele>11.685</ele>
        <time>2015-06-18T06:12:57Z</time>
      </trkpt>
      <trkpt lat="37.335462" lon="-5.977119">
        <ele>11.617</ele>
        <time>2015-06-18T06:12:59Z</time>
      </trkpt>
      <trkpt lat="37.335444" lon="-5.977125">
        <ele>11.687</ele>
        <time>2015-06-18T06:13:01Z</time>
      </trkpt>
      <trkpt lat="37.335415" lon="-5.977149">
        <ele>11.615</ele>
        <time>2015-06-18T06:13:03Z</time>
      </trkpt>
      <trkpt lat="37.335277" lon="-5.977265">
        <ele>11.608</ele>
        <time>2015-06-18T06:13:09Z</time>
      </trkpt>
      <trkpt lat="37.335127" lon="-5.977399">
        <ele>11.612</ele>
        <time>2015-06-18T06:13:14Z</time>
      </trkpt>
      <trkpt lat="37.335018" lon="-5.977475">
        <ele>11.658</ele>
        <time>2015-06-18T06:13:17Z</time>
      </trkpt>
      <trkpt lat="37.334864" lon="-5.977587">
        <ele>11.614</ele>
        <time>2015-06-18T06:13:21Z</time>
      </trkpt>
      <trkpt lat="37.334634" lon="-5.977770">
        <ele>11.633</ele>
        <time>2015-06-18T06:13:27Z</time>
      </trkpt>
      <trkpt lat="37.334548" lon="-5.977839">
        <ele>11.676</ele>
        <time>2015-06-18T06:13:29Z</time>
      </trkpt>
      <trkpt lat="37.334383" lon="-5.977977">
        <ele>11.648</ele>
        <time>2015-06-18T06:13:33Z</time>
      </trkpt>
      <trkpt lat="37.334169" lon="-5.978140">
        <ele>11.681</ele>
        <time>2015-06-18T06:13:38Z</time>
      </trkpt>
      <trkpt lat="37.333984" lon="-5.978252">
        <ele>11.655</ele>
        <time>2015-06-18T06:13:43Z</time>
      </trkpt>
      <trkpt lat="37.333951" lon="-5.978278">
        <ele>11.685</ele>
        <time>2015-06-18T06:13:44Z</time>
      </trkpt>
      <trkpt lat="37.333737" lon="-5.978447">
        <ele>11.689</ele>
        <time>2015-06-18T06:13:50Z</time>
      </trkpt>
      <trkpt lat="37.333695" lon="-5.978475">
        <ele>11.617</ele>
        <time>2015-06-18T06:13:51Z</time>
      </trkpt>
      <trkpt lat="37.333405" lon="-5.978678">
        <ele>11.608</ele>
        <time>2015-06-18T06:13:58Z</time>
      </trkpt>
      <trkpt lat="37.333183" lon="-5.978799">
        <ele>11.689</ele>
        <time>2015-06-18T06:14:03Z</time>
      </trkpt>
      <trkpt lat="37.333094" lon="-5.978857">
        <ele>11.645</ele>
        <time>2015-06-18T06:14:05Z</time>
      </trkpt>
      <trkpt lat="37.332737" lon="-5.979121">
        <ele>11.631</ele>
        <time>2015-06-18T06:14:13Z</time>
      </trkpt>
      <trkpt lat="37.332617" lon="-5.979231">
        <ele>11.690</ele>
        <time>2015-06-18T06:14:16Z</time>
      </trkpt>
      <trkpt lat="37.332544" lon="-5.979299">
        <ele>11.693</ele>
        <time>2015-06-18T06:14:18Z</time>
      </trkpt>
      <trkpt lat="37.332499" lon="-5.979320">
        <ele>11.655</ele>
        <time>2015-06-18T06:14:19Z</time>
      </trkpt>
      <trkpt lat="37.332149" lon="-5.979486">
        <ele>11.688</ele>
        <time>2015-06-18T06:14:26Z</time>
      </trkpt>
      <trkpt lat="37.331931" lon="-5.979587">
        <ele>12.052</ele>
        <time>2015-06-18T06:14:30Z</time>
      </trkpt>
      <trkpt lat="37.331875" lon="-5.979611">
        <ele>12.432</ele>
        <time>2015-06-18T06:14:31Z</time>
      </trkpt>
      <trkpt lat="37.331821" lon="-5.979636">
        <ele>13.292</ele>
        <time>2015-06-18T06:14:32Z</time>
      </trkpt>
      <trkpt lat="37.331767" lon="-5.979662">
        <ele>13.611</ele>
        <time>2015-06-18T06:14:33Z</time>
      </trkpt>
      <trkpt lat="37.331656" lon="-5.979710">
        <ele>13.608</ele>
        <time>2015-06-18T06:14:35Z</time>
      </trkpt>
      <trkpt lat="37.331328" lon="-5.979882">
        <ele>13.664</ele>
        <time>2015-06-18T06:14:41Z</time>
      </trkpt>
      <trkpt lat="37.331212" lon="-5.979937">
        <ele>13.650</ele>
        <time>2015-06-18T06:14:43Z</time>
      </trkpt>
      <trkpt lat="37.330714" lon="-5.980175">
        <ele>13.646</ele>
        <time>2015-06-18T06:14:52Z</time>
      </trkpt>
      <trkpt lat="37.330274" lon="-5.980331">
        <ele>13.635</ele>
        <time>2015-06-18T06:15:00Z</time>
      </trkpt>
      <trkpt lat="37.329966" lon="-5.980487">
        <ele>13.668</ele>
        <time>2015-06-18T06:15:06Z</time>
      </trkpt>
      <trkpt lat="37.329622" lon="-5.980643">
        <ele>13.640</ele>
        <time>2015-06-18T06:15:13Z</time>
      </trkpt>
      <trkpt lat="37.329232" lon="-5.980832">
        <ele>13.643</ele>
        <time>2015-06-18T06:15:21Z</time>
      </trkpt>
      <trkpt lat="37.329030" lon="-5.980924">
        <ele>13.677</ele>
        <time>2015-06-18T06:15:25Z</time>
      </trkpt>
      <trkpt lat="37.328815" lon="-5.981017">
        <ele>13.633</ele>
        <time>2015-06-18T06:15:29Z</time>
      </trkpt>
      <trkpt lat="37.328764" lon="-5.981045">
        <ele>13.623</ele>
        <time>2015-06-18T06:15:30Z</time>
      </trkpt>
      <trkpt lat="37.328346" lon="-5.981246">
        <ele>13.615</ele>
        <time>2015-06-18T06:15:38Z</time>
      </trkpt>
      <trkpt lat="37.328301" lon="-5.981272">
        <ele>13.608</ele>
        <time>2015-06-18T06:15:39Z</time>
      </trkpt>
      <trkpt lat="37.328117" lon="-5.981356">
        <ele>13.624</ele>
        <time>2015-06-18T06:15:43Z</time>
      </trkpt>
      <trkpt lat="37.327673" lon="-5.981566">
        <ele>13.640</ele>
        <time>2015-06-18T06:15:52Z</time>
      </trkpt>
      <trkpt lat="37.327280" lon="-5.981743">
        <ele>13.676</ele>
        <time>2015-06-18T06:16:00Z</time>
      </trkpt>
      <trkpt lat="37.326874" lon="-5.981935">
        <ele>13.695</ele>
        <time>2015-06-18T06:16:08Z</time>
      </trkpt>
      <trkpt lat="37.326565" lon="-5.982082">
        <ele>13.678</ele>
        <time>2015-06-18T06:16:14Z</time>
      </trkpt>
      <trkpt lat="37.326230" lon="-5.982239">
        <ele>13.620</ele>
        <time>2015-06-18T06:16:21Z</time>
      </trkpt>
      <trkpt lat="37.325840" lon="-5.982415">
        <ele>13.643</ele>
        <time>2015-06-18T06:16:29Z</time>
      </trkpt>
      <trkpt lat="37.325747" lon="-5.982455">
        <ele>13.687</ele>
        <time>2015-06-18T06:16:31Z</time>
      </trkpt>
      <trkpt lat="37.325664" lon="-5.982493">
        <ele>13.683</ele>
        <time>2015-06-18T06:16:33Z</time>
      </trkpt>
      <trkpt lat="37.325585" lon="-5.982533">
        <ele>13.625</ele>
        <time>2015-06-18T06:16:35Z</time>
      </trkpt>
      <trkpt lat="37.325468" lon="-5.982590">
        <ele>13.617</ele>
        <time>2015-06-18T06:16:38Z</time>
      </trkpt>
      <trkpt lat="37.325290" lon="-5.982668">
        <ele>13.608</ele>
        <time>2015-06-18T06:16:42Z</time>
      </trkpt>
      <trkpt lat="37.324963" lon="-5.982825">
        <ele>13.629</ele>
        <time>2015-06-18T06:16:49Z</time>
      </trkpt>
      <trkpt lat="37.324692" lon="-5.982940">
        <ele>13.635</ele>
        <time>2015-06-18T06:16:55Z</time>
      </trkpt>
      <trkpt lat="37.324482" lon="-5.983049">
        <ele>13.651</ele>
        <time>2015-06-18T06:17:01Z</time>
      </trkpt>
      <trkpt lat="37.324201" lon="-5.983183">
        <ele>13.680</ele>
        <time>2015-06-18T06:17:08Z</time>
      </trkpt>
      <trkpt lat="37.323933" lon="-5.983313">
        <ele>13.663</ele>
        <time>2015-06-18T06:17:14Z</time>
      </trkpt>
      <trkpt lat="37.323845" lon="-5.983353">
        <ele>13.655</ele>
        <time>2015-06-18T06:17:16Z</time>
      </trkpt>
      <trkpt lat="37.323729" lon="-5.983424">
        <ele>13.648</ele>
        <time>2015-06-18T06:17:19Z</time>
      </trkpt>
      <trkpt lat="37.323663" lon="-5.983502">
        <ele>13.612</ele>
        <time>2015-06-18T06:17:21Z</time>
      </trkpt>
      <trkpt lat="37.323503" lon="-5.983702">
        <ele>13.649</ele>
        <time>2015-06-18T06:17:26Z</time>
      </trkpt>
      <trkpt lat="37.323451" lon="-5.983791">
        <ele>13.602</ele>
        <time>2015-06-18T06:17:28Z</time>
      </trkpt>
      <trkpt lat="37.323289" lon="-5.984029">
        <ele>13.622</ele>
        <time>2015-06-18T06:17:33Z</time>
      </trkpt>
      <trkpt lat="37.323253" lon="-5.984077">
        <ele>13.208</ele>
        <time>2015-06-18T06:17:34Z</time>
      </trkpt>
      <trkpt lat="37.323209" lon="-5.984127">
        <ele>12.845</ele>
        <time>2015-06-18T06:17:35Z</time>
      </trkpt>
      <trkpt lat="37.323178" lon="-5.984161">
        <ele>12.431</ele>
        <time>2015-06-18T06:17:36Z</time>
      </trkpt>
      <trkpt lat="37.323153" lon="-5.984190">
        <ele>12.077</ele>
        <time>2015-06-18T06:17:37Z</time>
      </trkpt>
      <trkpt lat="37.323133" lon="-5.984225">
        <ele>11.436</ele>
        <time>2015-06-18T06:17:38Z</time>
      </trkpt>
      <trkpt lat="37.323101" lon="-5.984294">
        <ele>11.069</ele>
        <time>2015-06-18T06:17:40Z</time>
      </trkpt>
      <trkpt lat="37.323088" lon="-5.984333">
        <ele>10.641</ele>
        <time>2015-06-18T06:17:41Z</time>
      </trkpt>
      <trkpt lat="37.323074" lon="-5.984371">
        <ele>10.274</ele>
        <time>2015-06-18T06:17:42Z</time>
      </trkpt>
      <trkpt lat="37.323059" lon="-5.984410">
        <ele>9.628</ele>
        <time>2015-06-18T06:17:43Z</time>
      </trkpt>
      <trkpt lat="37.323045" lon="-5.984448">
        <ele>9.214</ele>
        <time>2015-06-18T06:17:44Z</time>
      </trkpt>
      <trkpt lat="37.322987" lon="-5.984754">
        <ele>9.254</ele>
        <time>2015-06-18T06:17:49Z</time>
      </trkpt>
      <trkpt lat="37.322915" lon="-5.984814">
        <ele>9.209</ele>
        <time>2015-06-18T06:17:51Z</time>
      </trkpt>
      <trkpt lat="37.322746" lon="-5.984847">
        <ele>9.208</ele>
        <time>2015-06-18T06:17:55Z</time>
      </trkpt>
      <trkpt lat="37.322605" lon="-5.984819">
        <ele>9.212</ele>
        <time>2015-06-18T06:17:59Z</time>
      </trkpt>
      <trkpt lat="37.322352" lon="-5.984806">
        <ele>9.228</ele>
        <time>2015-06-18T06:18:05Z</time>
      </trkpt>
      <trkpt lat="37.322187" lon="-5.984759">
        <ele>9.214</ele>
        <time>2015-06-18T06:18:09Z</time>
      </trkpt>
      <trkpt lat="37.322081" lon="-5.984704">
        <ele>9.293</ele>
        <time>2015-06-18T06:18:12Z</time>
      </trkpt>
      <trkpt lat="37.321949" lon="-5.984701">
        <ele>9.236</ele>
        <time>2015-06-18T06:18:16Z</time>
      </trkpt>
      <trkpt lat="37.321826" lon="-5.984715">
        <ele>9.238</ele>
        <time>2015-06-18T06:18:21Z</time>
      </trkpt>
      <trkpt lat="37.321743" lon="-5.984722">
        <ele>9.211</ele>
        <time>2015-06-18T06:18:24Z</time>
      </trkpt>
      <trkpt lat="37.321647" lon="-5.984713">
        <ele>9.255</ele>
        <time>2015-06-18T06:18:27Z</time>
      </trkpt>
      <trkpt lat="37.321613" lon="-5.984708">
        <ele>9.634</ele>
        <time>2015-06-18T06:18:28Z</time>
      </trkpt>
      <trkpt lat="37.321582" lon="-5.984703">
        <ele>10.055</ele>
        <time>2015-06-18T06:18:29Z</time>
      </trkpt>
      <trkpt lat="37.321552" lon="-5.984699">
        <ele>10.410</ele>
        <time>2015-06-18T06:18:30Z</time>
      </trkpt>
      <trkpt lat="37.321522" lon="-5.984698">
        <ele>10.808</ele>
        <time>2015-06-18T06:18:31Z</time>
      </trkpt>
      <trkpt lat="37.321492" lon="-5.984695">
        <ele>11.254</ele>
        <time>2015-06-18T06:18:32Z</time>
      </trkpt>
      <trkpt lat="37.321349" lon="-5.984685">
        <ele>11.220</ele>
        <time>2015-06-18T06:18:36Z</time>
      </trkpt>
      <trkpt lat="37.321130" lon="-5.984741">
        <ele>11.246</ele>
        <time>2015-06-18T06:18:42Z</time>
      </trkpt>
      <trkpt lat="37.320918" lon="-5.984876">
        <ele>11.225</ele>
        <time>2015-06-18T06:18:48Z</time>
      </trkpt>
      <trkpt lat="37.320879" lon="-5.984906">
        <ele>11.278</ele>
        <time>2015-06-18T06:18:49Z</time>
      </trkpt>
      <trkpt lat="37.320668" lon="-5.985026">
        <ele>11.280</ele>
        <time>2015-06-18T06:18:54Z</time>
      </trkpt>
      <trkpt lat="37.320349" lon="-5.985173">
        <ele>11.213</ele>
        <time>2015-06-18T06:19:01Z</time>
      </trkpt>
      <trkpt lat="37.320028" lon="-5.985318">
        <ele>11.267</ele>
        <time>2015-06-18T06:19:08Z</time>
      </trkpt>
      <trkpt lat="37.319938" lon="-5.985367">
        <ele>11.239</ele>
        <time>2015-06-18T06:19:10Z</time>
      </trkpt>
      <trkpt lat="37.319672" lon="-5.985489">
        <ele>11.201</ele>
        <time>2015-06-18T06:19:16Z</time>
      </trkpt>
      <trkpt lat="37.319582" lon="-5.985531">
        <ele>11.221</ele>
        <time>2015-06-18T06:19:18Z</time>
      </trkpt>
      <trkpt lat="37.319291" lon="-5.985682">
        <ele>11.208</ele>
        <time>2015-06-18T06:19:25Z</time>
      </trkpt>
      <trkpt lat="37.319246" lon="-5.985702">
        <ele>11.264</ele>
        <time>2015-06-18T06:19:26Z</time>
      </trkpt>
      <trkpt lat="37.318907" lon="-5.985896">
        <ele>11.230</ele>
        <time>2015-06-18T06:19:34Z</time>
      </trkpt>
      <trkpt lat="37.318632" lon="-5.986061">
        <ele>11.226</ele>
        <time>2015-06-18T06:19:41Z</time>
      </trkpt>
      <trkpt lat="37.318338" lon="-5.986222">
        <ele>11.285</ele>
        <time>2015-06-18T06:19:48Z</time>
      </trkpt>
      <trkpt lat="37.318004" lon="-5.986433">
        <ele>11.278</ele>
        <time>2015-06-18T06:19:56Z</time>
      </trkpt>
      <trkpt lat="37.317664" lon="-5.986635">
        <ele>11.210</ele>
        <time>2015-06-18T06:20:04Z</time>
      </trkpt>
      <trkpt lat="37.317262" lon="-5.986876">
        <ele>11.273</ele>
        <time>2015-06-18T06:20:13Z</time>
      </trkpt>
      <trkpt lat="37.316857" lon="-5.987122">
        <ele>11.267</ele>
        <time>2015-06-18T06:20:22Z</time>
      </trkpt>
      <trkpt lat="37.316469" lon="-5.987363">
        <ele>11.276</ele>
        <time>2015-06-18T06:20:31Z</time>
      </trkpt>
      <trkpt lat="37.316070" lon="-5.987598">
        <ele>11.290</ele>
        <time>2015-06-18T06:20:40Z</time>
      </trkpt>
      <trkpt lat="37.315717" lon="-5.987804">
        <ele>11.219</ele>
        <time>2015-06-18T06:20:48Z</time>
      </trkpt>
      <trkpt lat="37.315676" lon="-5.987831">
        <ele>11.208</ele>
        <time>2015-06-18T06:20:49Z</time>
      </trkpt>
      <trkpt lat="37.315523" lon="-5.987930">
        <ele>11.268</ele>
        <time>2015-06-18T06:20:53Z</time>
      </trkpt>
      <trkpt lat="37.315378" lon="-5.988024">
        <ele>11.284</ele>
        <time>2015-06-18T06:20:57Z</time>
      </trkpt>
      <trkpt lat="37.315167" lon="-5.988148">
        <ele>11.210</ele>
        <time>2015-06-18T06:21:03Z</time>
      </trkpt>
      <trkpt lat="37.314926" lon="-5.988296">
        <ele>11.219</ele>
        <time>2015-06-18T06:21:10Z</time>
      </trkpt>
      <trkpt lat="37.314516" lon="-5.988542">
        <ele>11.272</ele>
        <time>2015-06-18T06:21:20Z</time>
      </trkpt>
      <trkpt lat="37.314094" lon="-5.988797">
        <ele>11.284</ele>
        <time>2015-06-18T06:21:30Z</time>
      </trkpt>
      <trkpt lat="37.314066" lon="-5.988782">
        <ele>11.257</ele>
        <time>2015-06-18T06:21:31Z</time>
      </trkpt>
      <trkpt lat="37.313952" lon="-5.988776">
        <ele>11.261</ele>
        <time>2015-06-18T06:21:36Z</time>
      </trkpt>
      <trkpt lat="37.313952" lon="-5.988776">
        <ele>11.231</ele>
        <time>2015-06-18T06:21:42Z</time>
      </trkpt>
      <trkpt lat="37.313952" lon="-5.988776">
        <ele>11.261</ele>
        <time>2015-06-18T06:21:45Z</time>
      </trkpt>
      <trkpt lat="37.313952" lon="-5.988776">
        <ele>11.207</ele>
        <time>2015-06-18T06:21:51Z</time>
      </trkpt>
      <trkpt lat="37.313952" lon="-5.988776">
        <ele>11.208</ele>
        <time>2015-06-18T06:21:55Z</time>
      </trkpt>
      <trkpt lat="37.313952" lon="-5.988776">
        <ele>11.254</ele>
        <time>2015-06-18T06:22:09Z</time>
      </trkpt>
      <trkpt lat="37.313952" lon="-5.988776">
        <ele>11.210</ele>
        <time>2015-06-18T06:22:11Z</time>
      </trkpt>
      <trkpt lat="37.313952" lon="-5.988773">
        <ele>11.256</ele>
        <time>2015-06-18T06:22:22Z</time>
      </trkpt>
      <trkpt lat="37.313952" lon="-5.988773">
        <ele>11.215</ele>
        <time>2015-06-18T06:22:30Z</time>
      </trkpt>
      <trkpt lat="37.313952" lon="-5.988773">
        <ele>11.238</ele>
        <time>2015-06-18T06:22:37Z</time>
      </trkpt>
      <trkpt lat="37.313952" lon="-5.988773">
        <ele>11.240</ele>
        <time>2015-06-18T06:22:38Z</time>
      </trkpt>
      <trkpt lat="37.313952" lon="-5.988773">
        <ele>11.213</ele>
        <time>2015-06-18T06:22:40Z</time>
      </trkpt>
      <trkpt lat="37.313952" lon="-5.988773">
        <ele>11.217</ele>
        <time>2015-06-18T06:22:44Z</time>
      </trkpt>
      <trkpt lat="37.313952" lon="-5.988773">
        <ele>11.257</ele>
        <time>2015-06-18T06:22:49Z</time>
      </trkpt>
      <trkpt lat="37.313955" lon="-5.988772">
        <ele>11.200</ele>
        <time>2015-06-18T06:22:57Z</time>
      </trkpt>
      <trkpt lat="37.313955" lon="-5.988772">
        <ele>11.220</ele>
        <time>2015-06-18T06:22:59Z</time>
      </trkpt>
      <trkpt lat="37.313955" lon="-5.988772">
        <ele>11.208</ele>
        <time>2015-06-18T06:23:00Z</time>
      </trkpt>
      <trkpt lat="37.313955" lon="-5.988772">
        <ele>11.216</ele>
        <time>2015-06-18T06:23:02Z</time>
      </trkpt>
      <trkpt lat="37.313955" lon="-5.988772">
        <ele>11.282</ele>
        <time>2015-06-18T06:23:04Z</time>
      </trkpt>
      <trkpt lat="37.313955" lon="-5.988772">
        <ele>11.228</ele>
        <time>2015-06-18T06:23:08Z</time>
      </trkpt>
      <trkpt lat="37.313955" lon="-5.988772">
        <ele>11.267</ele>
        <time>2015-06-18T06:23:19Z</time>
      </trkpt>
      <trkpt lat="37.313955" lon="-5.988772">
        <ele>11.270</ele>
        <time>2015-06-18T06:23:32Z</time>
      </trkpt>
      <trkpt lat="37.313955" lon="-5.988772">
        <ele>11.282</ele>
        <time>2015-06-18T06:23:34Z</time>
      </trkpt>
      <trkpt lat="37.313959" lon="-5.988771">
        <ele>11.245</ele>
        <time>2015-06-18T06:23:40Z</time>
      </trkpt>
      <trkpt lat="37.313959" lon="-5.988771">
        <ele>11.249</ele>
        <time>2015-06-18T06:23:51Z</time>
      </trkpt>
      <trkpt lat="37.313959" lon="-5.988771">
        <ele>11.238</ele>
        <time>2015-06-18T06:23:54Z</time>
      </trkpt>
      <trkpt lat="37.313959" lon="-5.988771">
        <ele>11.270</ele>
        <time>2015-06-18T06:23:57Z</time>
      </trkpt>
      <trkpt lat="37.313959" lon="-5.988771">
        <ele>11.217</ele>
        <time>2015-06-18T06:23:59Z</time>
      </trkpt>
      <trkpt lat="37.313959" lon="-5.988771">
        <ele>11.208</ele>
        <time>2015-06-18T06:24:01Z</time>
      </trkpt>
      <trkpt lat="37.313959" lon="-5.988771">
        <ele>11.214</ele>
        <time>2015-06-18T06:24:02Z</time>
      </trkpt>
      <trkpt lat="37.313959" lon="-5.988771">
        <ele>11.260</ele>
        <time>2015-06-18T06:24:04Z</time>
      </trkpt>
      <trkpt lat="37.313958" lon="-5.988770">
        <ele>11.256</ele>
        <time>2015-06-18T06:24:20Z</time>
      </trkpt>
      <trkpt lat="37.313958" lon="-5.988770">
        <ele>11.285</ele>
        <time>2015-06-18T06:24:22Z</time>
      </trkpt>
      <trkpt lat="37.313958" lon="-5.988770">
        <ele>11.218</ele>
        <time>2015-06-18T06:24:32Z</time>
      </trkpt>
      <trkpt lat="37.313958" lon="-5.988770">
        <ele>11.230</ele>
        <time>2015-06-18T06:24:34Z</time>
      </trkpt>
      <trkpt lat="37.313958" lon="-5.988770">
        <ele>11.283</ele>
        <time>2015-06-18T06:24:46Z</time>
      </trkpt>
      <trkpt lat="37.313958" lon="-5.988770">
        <ele>11.267</ele>
        <time>2015-06-18T06:24:53Z</time>
      </trkpt>
      <trkpt lat="37.313958" lon="-5.988770">
        <ele>11.213</ele>
        <time>2015-06-18T06:24:55Z</time>
      </trkpt>
      <trkpt lat="37.313959" lon="-5.988774">
        <ele>11.243</ele>
        <time>2015-06-18T06:24:59Z</time>
      </trkpt>
      <trkpt lat="37.313959" lon="-5.988774">
        <ele>11.207</ele>
        <time>2015-06-18T06:25:11Z</time>
      </trkpt>
      <trkpt lat="37.313959" lon="-5.988774">
        <ele>11.208</ele>
        <time>2015-06-18T06:25:18Z</time>
      </trkpt>
      <trkpt lat="37.313959" lon="-5.988774">
        <ele>11.282</ele>
        <time>2015-06-18T06:25:19Z</time>
      </trkpt>
      <trkpt lat="37.313959" lon="-5.988774">
        <ele>11.218</ele>
        <time>2015-06-18T06:25:24Z</time>
      </trkpt>
      <trkpt lat="37.313958" lon="-5.988774">
        <ele>11.214</ele>
        <time>2015-06-18T06:25:25Z</time>
      </trkpt>
      <trkpt lat="37.313957" lon="-5.988776">
        <ele>11.213</ele>
        <time>2015-06-18T06:25:26Z</time>
      </trkpt>
      <trkpt lat="37.313929" lon="-5.988802">
        <ele>11.276</ele>
        <time>2015-06-18T06:25:30Z</time>
      </trkpt>
      <trkpt lat="37.313919" lon="-5.988816">
        <ele>11.298</ele>
        <time>2015-06-18T06:25:31Z</time>
      </trkpt>
      <trkpt lat="37.313864" lon="-5.988887">
        <ele>11.231</ele>
        <time>2015-06-18T06:25:36Z</time>
      </trkpt>
      <trkpt lat="37.313845" lon="-5.988895">
        <ele>11.265</ele>
        <time>2015-06-18T06:25:37Z</time>
      </trkpt>
      <trkpt lat="37.313681" lon="-5.988983">
        <ele>11.225</ele>
        <time>2015-06-18T06:25:43Z</time>
      </trkpt>
      <trkpt lat="37.313554" lon="-5.989060">
        <ele>11.226</ele>
        <time>2015-06-18T06:25:47Z</time>
      </trkpt>
      <trkpt lat="37.313423" lon="-5.989145">
        <ele>11.208</ele>
        <time>2015-06-18T06:25:51Z</time>
      </trkpt>
      <trkpt lat="37.313163" lon="-5.989296">
        <ele>11.208</ele>
        <time>2015-06-18T06:25:59Z</time>
      </trkpt>
      <trkpt lat="37.312967" lon="-5.989424">
        <ele>11.243</ele>
        <time>2015-06-18T06:26:05Z</time>
      </trkpt>
      <trkpt lat="37.312770" lon="-5.989570">
        <ele>11.299</ele>
        <time>2015-06-18T06:26:11Z</time>
      </trkpt>
      <trkpt lat="37.312479" lon="-5.989766">
        <ele>11.245</ele>
        <time>2015-06-18T06:26:19Z</time>
      </trkpt>
      <trkpt lat="37.312232" lon="-5.989925">
        <ele>11.214</ele>
        <time>2015-06-18T06:26:26Z</time>
      </trkpt>
      <trkpt lat="37.312174" lon="-5.989947">
        <ele>11.287</ele>
        <time>2015-06-18T06:26:30Z</time>
      </trkpt>
      <trkpt lat="37.312174" lon="-5.989947">
        <ele>11.269</ele>
        <time>2015-06-18T06:26:37Z</time>
      </trkpt>
      <trkpt lat="37.312174" lon="-5.989947">
        <ele>11.282</ele>
        <time>2015-06-18T06:26:42Z</time>
      </trkpt>
      <trkpt lat="37.312174" lon="-5.989947">
        <ele>11.226</ele>
        <time>2015-06-18T06:26:49Z</time>
      </trkpt>
      <trkpt lat="37.312174" lon="-5.989947">
        <ele>11.284</ele>
        <time>2015-06-18T06:26:53Z</time>
      </trkpt>
      <trkpt lat="37.312174" lon="-5.989947">
        <ele>11.207</ele>
        <time>2015-06-18T06:26:56Z</time>
      </trkpt>
      <trkpt lat="37.312174" lon="-5.989947">
        <ele>11.217</ele>
        <time>2015-06-18T06:27:01Z</time>
      </trkpt>
      <trkpt lat="37.312174" lon="-5.989947">
        <ele>11.208</ele>
        <time>2015-06-18T06:27:06Z</time>
      </trkpt>
      <trkpt lat="37.312175" lon="-5.989946">
        <ele>11.289</ele>
        <time>2015-06-18T06:27:16Z</time>
      </trkpt>
      <trkpt lat="37.312175" lon="-5.989946">
        <ele>11.245</ele>
        <time>2015-06-18T06:27:21Z</time>
      </trkpt>
      <trkpt lat="37.312175" lon="-5.989946">
        <ele>11.261</ele>
        <time>2015-06-18T06:27:27Z</time>
      </trkpt>
      <trkpt lat="37.312175" lon="-5.989946">
        <ele>11.250</ele>
        <time>2015-06-18T06:27:29Z</time>
      </trkpt>
      <trkpt lat="37.312175" lon="-5.989946">
        <ele>11.213</ele>
        <time>2015-06-18T06:27:37Z</time>
      </trkpt>
      <trkpt lat="37.312175" lon="-5.989946">
        <ele>11.255</ele>
        <time>2015-06-18T06:27:41Z</time>
      </trkpt>
      <trkpt lat="37.312175" lon="-5.989946">
        <ele>11.248</ele>
        <time>2015-06-18T06:27:42Z</time>
      </trkpt>
      <trkpt lat="37.312175" lon="-5.989946">
        <ele>11.242</ele>
        <time>2015-06-18T06:27:46Z</time>
      </trkpt>
      <trkpt lat="37.312177" lon="-5.989946">
        <ele>11.234</ele>
        <time>2015-06-18T06:27:51Z</time>
      </trkpt>
      <trkpt lat="37.312177" lon="-5.989946">
        <ele>11.255</ele>
        <time>2015-06-18T06:27:52Z</time>
      </trkpt>
      <trkpt lat="37.312177" lon="-5.989946">
        <ele>11.210</ele>
        <time>2015-06-18T06:27:58Z</time>
      </trkpt>
      <trkpt lat="37.312177" lon="-5.989946">
        <ele>11.208</ele>
        <time>2015-06-18T06:28:03Z</time>
      </trkpt>
      <trkpt lat="37.312177" lon="-5.989946">
        <ele>11.294</ele>
        <time>2015-06-18T06:28:08Z</time>
      </trkpt>
      <trkpt lat="37.312177" lon="-5.989946">
        <ele>11.280</ele>
        <time>2015-06-18T06:28:12Z</time>
      </trkpt>
      <trkpt lat="37.312177" lon="-5.989946">
        <ele>11.296</ele>
        <time>2015-06-18T06:28:16Z</time>
      </trkpt>
      <trkpt lat="37.312177" lon="-5.989946">
        <ele>11.275</ele>
        <time>2015-06-18T06:28:21Z</time>
      </trkpt>
      <trkpt lat="37.312177" lon="-5.989946">
        <ele>11.288</ele>
        <time>2015-06-18T06:28:25Z</time>
      </trkpt>
      <trkpt lat="37.312178" lon="-5.989945">
        <ele>11.230</ele>
        <time>2015-06-18T06:28:35Z</time>
      </trkpt>
      <trkpt lat="37.312178" lon="-5.989945">
        <ele>11.213</ele>
        <time>2015-06-18T06:28:44Z</time>
      </trkpt>
      <trkpt lat="37.312176" lon="-5.989946">
        <ele>11.267</ele>
        <time>2015-06-18T06:28:49Z</time>
      </trkpt>
      <trkpt lat="37.312169" lon="-5.989951">
        <ele>11.281</ele>
        <time>2015-06-18T06:28:50Z</time>
      </trkpt>
      <trkpt lat="37.312100" lon="-5.989986">
        <ele>11.261</ele>
        <time>2015-06-18T06:28:55Z</time>
      </trkpt>
      <trkpt lat="37.312024" lon="-5.990039">
        <ele>11.217</ele>
        <time>2015-06-18T06:29:00Z</time>
      </trkpt>
      <trkpt lat="37.311951" lon="-5.990098">
        <ele>11.208</ele>
        <time>2015-06-18T06:29:05Z</time>
      </trkpt>
      <trkpt lat="37.311934" lon="-5.990109">
        <ele>11.229</ele>
        <time>2015-06-18T06:29:06Z</time>
      </trkpt>
      <trkpt lat="37.311761" lon="-5.990212">
        <ele>11.295</ele>
        <time>2015-06-18T06:29:13Z</time>
      </trkpt>
      <trkpt lat="37.311572" lon="-5.990328">
        <ele>11.231</ele>
        <time>2015-06-18T06:29:19Z</time>
      </trkpt>
      <trkpt lat="37.311508" lon="-5.990364">
        <ele>11.260</ele>
        <time>2015-06-18T06:29:21Z</time>
      </trkpt>
      <trkpt lat="37.311449" lon="-5.990402">
        <ele>11.283</ele>
        <time>2015-06-18T06:29:25Z</time>
      </trkpt>
      <trkpt lat="37.311449" lon="-5.990402">
        <ele>11.285</ele>
        <time>2015-06-18T06:29:28Z</time>
      </trkpt>
      <trkpt lat="37.311449" lon="-5.990402">
        <ele>11.248</ele>
        <time>2015-06-18T06:29:31Z</time>
      </trkpt>
      <trkpt lat="37.311449" lon="-5.990402">
        <ele>11.282</ele>
        <time>2015-06-18T06:29:34Z</time>
      </trkpt>
      <trkpt lat="37.311447" lon="-5.990403">
        <ele>11.252</ele>
        <time>2015-06-18T06:29:42Z</time>
      </trkpt>
      <trkpt lat="37.311434" lon="-5.990404">
        <ele>11.253</ele>
        <time>2015-06-18T06:29:43Z</time>
      </trkpt>
      <trkpt lat="37.311363" lon="-5.990406">
        <ele>11.208</ele>
        <time>2015-06-18T06:29:46Z</time>
      </trkpt>
      <trkpt lat="37.311334" lon="-5.990422">
        <ele>11.208</ele>
        <time>2015-06-18T06:29:47Z</time>
      </trkpt>
      <trkpt lat="37.311127" lon="-5.990562">
        <ele>11.246</ele>
        <time>2015-06-18T06:29:53Z</time>
      </trkpt>
      <trkpt lat="37.310794" lon="-5.990764">
        <ele>11.212</ele>
        <time>2015-06-18T06:30:01Z</time>
      </trkpt>
      <trkpt lat="37.310403" lon="-5.991002">
        <ele>11.238</ele>
        <time>2015-06-18T06:30:10Z</time>
      </trkpt>
      <trkpt lat="37.310058" lon="-5.991217">
        <ele>11.217</ele>
        <time>2015-06-18T06:30:18Z</time>
      </trkpt>
      <trkpt lat="37.309812" lon="-5.991366">
        <ele>11.220</ele>
        <time>2015-06-18T06:30:24Z</time>
      </trkpt>
      <trkpt lat="37.309493" lon="-5.991553">
        <ele>11.242</ele>
        <time>2015-06-18T06:30:32Z</time>
      </trkpt>
      <trkpt lat="37.309228" lon="-5.991726">
        <ele>11.245</ele>
        <time>2015-06-18T06:30:39Z</time>
      </trkpt>
      <trkpt lat="37.308948" lon="-5.991900">
        <ele>11.289</ele>
        <time>2015-06-18T06:30:46Z</time>
      </trkpt>
      <trkpt lat="37.308657" lon="-5.992095">
        <ele>11.274</ele>
        <time>2015-06-18T06:30:53Z</time>
      </trkpt>
      <trkpt lat="37.308360" lon="-5.992280">
        <ele>11.256</ele>
        <time>2015-06-18T06:31:00Z</time>
      </trkpt>
      <trkpt lat="37.308059" lon="-5.992467">
        <ele>11.221</ele>
        <time>2015-06-18T06:31:07Z</time>
      </trkpt>
      <trkpt lat="37.307727" lon="-5.992667">
        <ele>11.208</ele>
        <time>2015-06-18T06:31:15Z</time>
      </trkpt>
      <trkpt lat="37.307395" lon="-5.992864">
        <ele>11.228</ele>
        <time>2015-06-18T06:31:23Z</time>
      </trkpt>
      <trkpt lat="37.307047" lon="-5.993085">
        <ele>11.234</ele>
        <time>2015-06-18T06:31:31Z</time>
      </trkpt>
      <trkpt lat="37.306759" lon="-5.993271">
        <ele>11.280</ele>
        <time>2015-06-18T06:31:38Z</time>
      </trkpt>
      <trkpt lat="37.306513" lon="-5.993426">
        <ele>11.269</ele>
        <time>2015-06-18T06:31:44Z</time>
      </trkpt>
      <trkpt lat="37.306389" lon="-5.993504">
        <ele>11.242</ele>
        <time>2015-06-18T06:31:47Z</time>
      </trkpt>
      <trkpt lat="37.306224" lon="-5.993604">
        <ele>11.254</ele>
        <time>2015-06-18T06:31:51Z</time>
      </trkpt>
      <trkpt lat="37.306065" lon="-5.993706">
        <ele>11.227</ele>
        <time>2015-06-18T06:31:55Z</time>
      </trkpt>
      <trkpt lat="37.306010" lon="-5.993772">
        <ele>11.271</ele>
        <time>2015-06-18T06:31:57Z</time>
      </trkpt>
      <trkpt lat="37.305943" lon="-5.993819">
        <ele>11.271</ele>
        <time>2015-06-18T06:31:59Z</time>
      </trkpt>
      <trkpt lat="37.305834" lon="-5.993894">
        <ele>11.241</ele>
        <time>2015-06-18T06:32:02Z</time>
      </trkpt>
      <trkpt lat="37.305503" lon="-5.994101">
        <ele>11.215</ele>
        <time>2015-06-18T06:32:10Z</time>
      </trkpt>
      <trkpt lat="37.305306" lon="-5.994211">
        <ele>11.208</ele>
        <time>2015-06-18T06:32:16Z</time>
      </trkpt>
      <trkpt lat="37.305303" lon="-5.994211">
        <ele>11.238</ele>
        <time>2015-06-18T06:32:20Z</time>
      </trkpt>
      <trkpt lat="37.305303" lon="-5.994211">
        <ele>11.214</ele>
        <time>2015-06-18T06:32:24Z</time>
      </trkpt>
      <trkpt lat="37.305303" lon="-5.994211">
        <ele>11.290</ele>
        <time>2015-06-18T06:32:28Z</time>
      </trkpt>
      <trkpt lat="37.305272" lon="-5.994235">
        <ele>11.249</ele>
        <time>2015-06-18T06:32:34Z</time>
      </trkpt>
      <trkpt lat="37.305232" lon="-5.994263">
        <ele>10.812</ele>
        <time>2015-06-18T06:32:37Z</time>
      </trkpt>
      <trkpt lat="37.305218" lon="-5.994268">
        <ele>10.444</ele>
        <time>2015-06-18T06:32:38Z</time>
      </trkpt>
      <trkpt lat="37.305204" lon="-5.994272">
        <ele>9.617</ele>
        <time>2015-06-18T06:32:39Z</time>
      </trkpt>
      <trkpt lat="37.305189" lon="-5.994279">
        <ele>9.241</ele>
        <time>2015-06-18T06:32:40Z</time>
      </trkpt>
      <trkpt lat="37.305123" lon="-5.994325">
        <ele>9.249</ele>
        <time>2015-06-18T06:32:44Z</time>
      </trkpt>
      <trkpt lat="37.305065" lon="-5.994367">
        <ele>9.202</ele>
        <time>2015-06-18T06:32:47Z</time>
      </trkpt>
      <trkpt lat="37.304953" lon="-5.994433">
        <ele>9.222</ele>
        <time>2015-06-18T06:32:52Z</time>
      </trkpt>
      <trkpt lat="37.304860" lon="-5.994493">
        <ele>9.208</ele>
        <time>2015-06-18T06:32:55Z</time>
      </trkpt>
      <trkpt lat="37.304742" lon="-5.994574">
        <ele>9.255</ele>
        <time>2015-06-18T06:32:59Z</time>
      </trkpt>
      <trkpt lat="37.304654" lon="-5.994634">
        <ele>9.231</ele>
        <time>2015-06-18T06:33:02Z</time>
      </trkpt>
      <trkpt lat="37.304572" lon="-5.994687">
        <ele>9.267</ele>
        <time>2015-06-18T06:33:05Z</time>
      </trkpt>
      <trkpt lat="37.304547" lon="-5.994701">
        <ele>9.276</ele>
        <time>2015-06-18T06:33:06Z</time>
      </trkpt>
      <trkpt lat="37.304337" lon="-5.994827">
        <ele>9.259</ele>
        <time>2015-06-18T06:33:13Z</time>
      </trkpt>
      <trkpt lat="37.304182" lon="-5.994924">
        <ele>9.281</ele>
        <time>2015-06-18T06:33:18Z</time>
      </trkpt>
      <trkpt lat="37.304090" lon="-5.994976">
        <ele>9.244</ele>
        <time>2015-06-18T06:33:21Z</time>
      </trkpt>
      <trkpt lat="37.303831" lon="-5.995139">
        <ele>9.268</ele>
        <time>2015-06-18T06:33:29Z</time>
      </trkpt>
      <trkpt lat="37.303607" lon="-5.995264">
        <ele>9.277</ele>
        <time>2015-06-18T06:33:37Z</time>
      </trkpt>
      <trkpt lat="37.303486" lon="-5.995406">
        <ele>9.261</ele>
        <time>2015-06-18T06:33:43Z</time>
      </trkpt>
      <trkpt lat="37.303349" lon="-5.995516">
        <ele>9.227</ele>
        <time>2015-06-18T06:33:47Z</time>
      </trkpt>
      <trkpt lat="37.303023" lon="-5.995746">
        <ele>9.208</ele>
        <time>2015-06-18T06:33:55Z</time>
      </trkpt>
      <trkpt lat="37.302843" lon="-5.995848">
        <ele>9.218</ele>
        <time>2015-06-18T06:34:00Z</time>
      </trkpt>
      <trkpt lat="37.302805" lon="-5.995868">
        <ele>9.294</ele>
        <time>2015-06-18T06:34:01Z</time>
      </trkpt>
      <trkpt lat="37.302727" lon="-5.995912">
        <ele>9.210</ele>
        <time>2015-06-18T06:34:03Z</time>
      </trkpt>
      <trkpt lat="37.302652" lon="-5.995953">
        <ele>9.229</ele>
        <time>2015-06-18T06:34:05Z</time>
      </trkpt>
      <trkpt lat="37.302508" lon="-5.996009">
        <ele>9.252</ele>
        <time>2015-06-18T06:34:09Z</time>
      </trkpt>
      <trkpt lat="37.302389" lon="-5.996043">
        <ele>9.294</ele>
        <time>2015-06-18T06:34:13Z</time>
      </trkpt>
      <trkpt lat="37.302343" lon="-5.996059">
        <ele>9.227</ele>
        <time>2015-06-18T06:34:15Z</time>
      </trkpt>
      <trkpt lat="37.302238" lon="-5.996102">
        <ele>9.231</ele>
        <time>2015-06-18T06:34:19Z</time>
      </trkpt>
      <trkpt lat="37.302174" lon="-5.996126">
        <ele>9.241</ele>
        <time>2015-06-18T06:34:21Z</time>
      </trkpt>
      <trkpt lat="37.301950" lon="-5.996245">
        <ele>9.281</ele>
        <time>2015-06-18T06:34:28Z</time>
      </trkpt>
      <trkpt lat="37.301710" lon="-5.996400">
        <ele>9.209</ele>
        <time>2015-06-18T06:34:35Z</time>
      </trkpt>
      <trkpt lat="37.301474" lon="-5.996550">
        <ele>9.208</ele>
        <time>2015-06-18T06:34:41Z</time>
      </trkpt>
      <trkpt lat="37.301436" lon="-5.996575">
        <ele>9.235</ele>
        <time>2015-06-18T06:34:42Z</time>
      </trkpt>
      <trkpt lat="37.301398" lon="-5.996595">
        <ele>9.271</ele>
        <time>2015-06-18T06:34:43Z</time>
      </trkpt>
      <trkpt lat="37.301247" lon="-5.996692">
        <ele>9.297</ele>
        <time>2015-06-18T06:34:47Z</time>
      </trkpt>
      <trkpt lat="37.301211" lon="-5.996714">
        <ele>9.216</ele>
        <time>2015-06-18T06:34:48Z</time>
      </trkpt>
      <trkpt lat="37.301043" lon="-5.996808">
        <ele>9.249</ele>
        <time>2015-06-18T06:34:53Z</time>
      </trkpt>
      <trkpt lat="37.301006" lon="-5.996832">
        <ele>9.251</ele>
        <time>2015-06-18T06:34:54Z</time>
      </trkpt>
      <trkpt lat="37.300910" lon="-5.996930">
        <ele>9.214</ele>
        <time>2015-06-18T06:34:57Z</time>
      </trkpt>
      <trkpt lat="37.300877" lon="-5.996959">
        <ele>9.258</ele>
        <time>2015-06-18T06:34:58Z</time>
      </trkpt>
      <trkpt lat="37.300714" lon="-5.997066">
        <ele>9.224</ele>
        <time>2015-06-18T06:35:02Z</time>
      </trkpt>
      <trkpt lat="37.300675" lon="-5.997088">
        <ele>9.204</ele>
        <time>2015-06-18T06:35:03Z</time>
      </trkpt>
      <trkpt lat="37.300490" lon="-5.997198">
        <ele>9.214</ele>
        <time>2015-06-18T06:35:08Z</time>
      </trkpt>
      <trkpt lat="37.300211" lon="-5.997383">
        <ele>9.208</ele>
        <time>2015-06-18T06:35:15Z</time>
      </trkpt>
      <trkpt lat="37.300061" lon="-5.997473">
        <ele>9.253</ele>
        <time>2015-06-18T06:35:19Z</time>
      </trkpt>
      <trkpt lat="37.299991" lon="-5.997517">
        <ele>9.239</ele>
        <time>2015-06-18T06:35:21Z</time>
      </trkpt>
      <trkpt lat="37.299652" lon="-5.997720">
        <ele>9.285</ele>
        <time>2015-06-18T06:35:29Z</time>
      </trkpt>
      <trkpt lat="37.299474" lon="-5.997827">
        <ele>9.294</ele>
        <time>2015-06-18T06:35:33Z</time>
      </trkpt>
      <trkpt lat="37.299208" lon="-5.997979">
        <ele>9.237</ele>
        <time>2015-06-18T06:35:39Z</time>
      </trkpt>
      <trkpt lat="37.298979" lon="-5.998095">
        <ele>9.279</ele>
        <time>2015-06-18T06:35:44Z</time>
      </trkpt>
      <trkpt lat="37.298931" lon="-5.998129">
        <ele>9.282</ele>
        <time>2015-06-18T06:35:45Z</time>
      </trkpt>
      <trkpt lat="37.298583" lon="-5.998344">
        <ele>9.286</ele>
        <time>2015-06-18T06:35:52Z</time>
      </trkpt>
      <trkpt lat="37.298236" lon="-5.998548">
        <ele>9.266</ele>
        <time>2015-06-18T06:35:59Z</time>
      </trkpt>
      <trkpt lat="37.297838" lon="-5.998783">
        <ele>9.229</ele>
        <time>2015-06-18T06:36:07Z</time>
      </trkpt>
      <trkpt lat="37.297440" lon="-5.999027">
        <ele>9.221</ele>
        <time>2015-06-18T06:36:15Z</time>
      </trkpt>
      <trkpt lat="37.297012" lon="-5.999288">
        <ele>9.208</ele>
        <time>2015-06-18T06:36:24Z</time>
      </trkpt>
      <trkpt lat="37.296678" lon="-5.999485">
        <ele>9.217</ele>
        <time>2015-06-18T06:36:31Z</time>
      </trkpt>
      <trkpt lat="37.296242" lon="-5.999711">
        <ele>9.293</ele>
        <time>2015-06-18T06:36:40Z</time>
      </trkpt>
      <trkpt lat="37.295756" lon="-5.999955">
        <ele>9.259</ele>
        <time>2015-06-18T06:36:50Z</time>
      </trkpt>
      <trkpt lat="37.295354" lon="-6.000157">
        <ele>9.248</ele>
        <time>2015-06-18T06:36:58Z</time>
      </trkpt>
      <trkpt lat="37.295052" lon="-6.000297">
        <ele>9.271</ele>
        <time>2015-06-18T06:37:04Z</time>
      </trkpt>
      <trkpt lat="37.294951" lon="-6.000342">
        <ele>9.263</ele>
        <time>2015-06-18T06:37:06Z</time>
      </trkpt>
      <trkpt lat="37.294592" lon="-6.000488">
        <ele>9.216</ele>
        <time>2015-06-18T06:37:13Z</time>
      </trkpt>
      <trkpt lat="37.294271" lon="-6.000600">
        <ele>9.210</ele>
        <time>2015-06-18T06:37:19Z</time>
      </trkpt>
      <trkpt lat="37.294162" lon="-6.000621">
        <ele>9.255</ele>
        <time>2015-06-18T06:37:21Z</time>
      </trkpt>
      <trkpt lat="37.294111" lon="-6.000638">
        <ele>9.207</ele>
        <time>2015-06-18T06:37:22Z</time>
      </trkpt>
      <trkpt lat="37.293898" lon="-6.000718">
        <ele>9.217</ele>
        <time>2015-06-18T06:37:26Z</time>
      </trkpt>
      <trkpt lat="37.293449" lon="-6.000870">
        <ele>9.208</ele>
        <time>2015-06-18T06:37:34Z</time>
      </trkpt>
      <trkpt lat="37.293110" lon="-6.000991">
        <ele>9.246</ele>
        <time>2015-06-18T06:37:40Z</time>
      </trkpt>
      <trkpt lat="37.292930" lon="-6.001051">
        <ele>9.272</ele>
        <time>2015-06-18T06:37:43Z</time>
      </trkpt>
      <trkpt lat="37.292641" lon="-6.001156">
        <ele>9.228</ele>
        <time>2015-06-18T06:37:48Z</time>
      </trkpt>
      <trkpt lat="37.292136" lon="-6.001308">
        <ele>9.267</ele>
        <time>2015-06-18T06:37:57Z</time>
      </trkpt>
      <trkpt lat="37.291975" lon="-6.001356">
        <ele>9.250</ele>
        <time>2015-06-18T06:38:00Z</time>
      </trkpt>
      <trkpt lat="37.291860" lon="-6.001391">
        <ele>9.232</ele>
        <time>2015-06-18T06:38:02Z</time>
      </trkpt>
      <trkpt lat="37.291800" lon="-6.001408">
        <ele>9.235</ele>
        <time>2015-06-18T06:38:03Z</time>
      </trkpt>
      <trkpt lat="37.291561" lon="-6.001477">
        <ele>9.289</ele>
        <time>2015-06-18T06:38:07Z</time>
      </trkpt>
      <trkpt lat="37.291386" lon="-6.001529">
        <ele>9.268</ele>
        <time>2015-06-18T06:38:10Z</time>
      </trkpt>
      <trkpt lat="37.291277" lon="-6.001564">
        <ele>9.242</ele>
        <time>2015-06-18T06:38:12Z</time>
      </trkpt>
      <trkpt lat="37.290836" lon="-6.001699">
        <ele>9.226</ele>
        <time>2015-06-18T06:38:20Z</time>
      </trkpt>
      <trkpt lat="37.290359" lon="-6.001845">
        <ele>9.208</ele>
        <time>2015-06-18T06:38:29Z</time>
      </trkpt>
      <trkpt lat="37.289865" lon="-6.001994">
        <ele>9.257</ele>
        <time>2015-06-18T06:38:38Z</time>
      </trkpt>
      <trkpt lat="37.289490" lon="-6.002103">
        <ele>9.223</ele>
        <time>2015-06-18T06:38:45Z</time>
      </trkpt>
      <trkpt lat="37.289060" lon="-6.002230">
        <ele>9.239</ele>
        <time>2015-06-18T06:38:54Z</time>
      </trkpt>
      <trkpt lat="37.288626" lon="-6.002363">
        <ele>9.258</ele>
        <time>2015-06-18T06:39:02Z</time>
      </trkpt>
      <trkpt lat="37.288124" lon="-6.002502">
        <ele>9.261</ele>
        <time>2015-06-18T06:39:11Z</time>
      </trkpt>
      <trkpt lat="37.287738" lon="-6.002623">
        <ele>9.223</ele>
        <time>2015-06-18T06:39:18Z</time>
      </trkpt>
      <trkpt lat="37.287685" lon="-6.002640">
        <ele>9.246</ele>
        <time>2015-06-18T06:39:19Z</time>
      </trkpt>
      <trkpt lat="37.287140" lon="-6.002799">
        <ele>9.240</ele>
        <time>2015-06-18T06:39:29Z</time>
      </trkpt>
      <trkpt lat="37.287035" lon="-6.002831">
        <ele>9.232</ele>
        <time>2015-06-18T06:39:31Z</time>
      </trkpt>
      <trkpt lat="37.286556" lon="-6.002981">
        <ele>9.292</ele>
        <time>2015-06-18T06:39:40Z</time>
      </trkpt>
      <trkpt lat="37.286132" lon="-6.003124">
        <ele>9.211</ele>
        <time>2015-06-18T06:39:48Z</time>
      </trkpt>
      <trkpt lat="37.286028" lon="-6.003156">
        <ele>9.208</ele>
        <time>2015-06-18T06:39:50Z</time>
      </trkpt>
      <trkpt lat="37.285763" lon="-6.003225">
        <ele>9.234</ele>
        <time>2015-06-18T06:39:55Z</time>
      </trkpt>
      <trkpt lat="37.285430" lon="-6.003326">
        <ele>9.230</ele>
        <time>2015-06-18T06:40:02Z</time>
      </trkpt>
      <trkpt lat="37.285058" lon="-6.003440">
        <ele>9.236</ele>
        <time>2015-06-18T06:40:10Z</time>
      </trkpt>
      <trkpt lat="37.284974" lon="-6.003457">
        <ele>9.225</ele>
        <time>2015-06-18T06:40:14Z</time>
      </trkpt>
      <trkpt lat="37.284974" lon="-6.003459">
        <ele>9.248</ele>
        <time>2015-06-18T06:40:20Z</time>
      </trkpt>
      <trkpt lat="37.284974" lon="-6.003459">
        <ele>9.290</ele>
        <time>2015-06-18T06:40:27Z</time>
      </trkpt>
      <trkpt lat="37.284974" lon="-6.003459">
        <ele>9.223</ele>
        <time>2015-06-18T06:40:33Z</time>
      </trkpt>
      <trkpt lat="37.284974" lon="-6.003459">
        <ele>9.267</ele>
        <time>2015-06-18T06:40:42Z</time>
      </trkpt>
      <trkpt lat="37.284974" lon="-6.003459">
        <ele>8.895</ele>
        <time>2015-06-18T06:40:46Z</time>
      </trkpt>
      <trkpt lat="37.284974" lon="-6.003459">
        <ele>8.449</ele>
        <time>2015-06-18T06:40:47Z</time>
      </trkpt>
      <trkpt lat="37.284974" lon="-6.003459">
        <ele>8.023</ele>
        <time>2015-06-18T06:40:48Z</time>
      </trkpt>
      <trkpt lat="37.284974" lon="-6.003459">
        <ele>7.608</ele>
        <time>2015-06-18T06:40:49Z</time>
      </trkpt>
      <trkpt lat="37.284974" lon="-6.003459">
        <ele>7.270</ele>
        <time>2015-06-18T06:40:50Z</time>
      </trkpt>
      <trkpt lat="37.284974" lon="-6.003459">
        <ele>7.216</ele>
        <time>2015-06-18T06:40:53Z</time>
      </trkpt>
      <trkpt lat="37.284974" lon="-6.003459">
        <ele>7.292</ele>
        <time>2015-06-18T06:40:56Z</time>
      </trkpt>
      <trkpt lat="37.284974" lon="-6.003459">
        <ele>7.211</ele>
        <time>2015-06-18T06:40:59Z</time>
      </trkpt>
      <trkpt lat="37.284974" lon="-6.003459">
        <ele>7.284</ele>
        <time>2015-06-18T06:41:02Z</time>
      </trkpt>
      <trkpt lat="37.284974" lon="-6.003459">
        <ele>7.266</ele>
        <time>2015-06-18T06:41:16Z</time>
      </trkpt>
      <trkpt lat="37.284974" lon="-6.003459">
        <ele>7.229</ele>
        <time>2015-06-18T06:41:20Z</time>
      </trkpt>
      <trkpt lat="37.284956" lon="-6.003465">
        <ele>7.253</ele>
        <time>2015-06-18T06:41:25Z</time>
      </trkpt>
      <trkpt lat="37.284938" lon="-6.003475">
        <ele>7.233</ele>
        <time>2015-06-18T06:41:27Z</time>
      </trkpt>
      <trkpt lat="37.284883" lon="-6.003490">
        <ele>7.223</ele>
        <time>2015-06-18T06:41:30Z</time>
      </trkpt>
      <trkpt lat="37.284809" lon="-6.003514">
        <ele>7.215</ele>
        <time>2015-06-18T06:41:33Z</time>
      </trkpt>
      <trkpt lat="37.284715" lon="-6.003541">
        <ele>7.208</ele>
        <time>2015-06-18T06:41:36Z</time>
      </trkpt>
      <trkpt lat="37.284484" lon="-6.003614">
        <ele>7.244</ele>
        <time>2015-06-18T06:41:42Z</time>
      </trkpt>
      <trkpt lat="37.284221" lon="-6.003692">
        <ele>7.210</ele>
        <time>2015-06-18T06:41:48Z</time>
      </trkpt>
      <trkpt lat="37.284089" lon="-6.003735">
        <ele>7.286</ele>
        <time>2015-06-18T06:41:51Z</time>
      </trkpt>
      <trkpt lat="37.283802" lon="-6.003832">
        <ele>7.215</ele>
        <time>2015-06-18T06:41:57Z</time>
      </trkpt>
      <trkpt lat="37.283656" lon="-6.003877">
        <ele>7.288</ele>
        <time>2015-06-18T06:42:00Z</time>
      </trkpt>
      <trkpt lat="37.283504" lon="-6.003928">
        <ele>7.240</ele>
        <time>2015-06-18T06:42:03Z</time>
      </trkpt>
      <trkpt lat="37.283260" lon="-6.004013">
        <ele>7.233</ele>
        <time>2015-06-18T06:42:08Z</time>
      </trkpt>
      <trkpt lat="37.282826" lon="-6.004164">
        <ele>7.297</ele>
        <time>2015-06-18T06:42:17Z</time>
      </trkpt>
      <trkpt lat="37.282435" lon="-6.004304">
        <ele>7.294</ele>
        <time>2015-06-18T06:42:25Z</time>
      </trkpt>
      <trkpt lat="37.282029" lon="-6.004461">
        <ele>7.257</ele>
        <time>2015-06-18T06:42:33Z</time>
      </trkpt>
      <trkpt lat="37.281613" lon="-6.004622">
        <ele>7.222</ele>
        <time>2015-06-18T06:42:41Z</time>
      </trkpt>
      <trkpt lat="37.281162" lon="-6.004812">
        <ele>7.208</ele>
        <time>2015-06-18T06:42:50Z</time>
      </trkpt>
      <trkpt lat="37.280718" lon="-6.005005">
        <ele>7.290</ele>
        <time>2015-06-18T06:42:59Z</time>
      </trkpt>
      <trkpt lat="37.280347" lon="-6.005176">
        <ele>7.276</ele>
        <time>2015-06-18T06:43:07Z</time>
      </trkpt>
      <trkpt lat="37.279955" lon="-6.005356">
        <ele>7.212</ele>
        <time>2015-06-18T06:43:15Z</time>
      </trkpt>
      <trkpt lat="37.279612" lon="-6.005509">
        <ele>7.291</ele>
        <time>2015-06-18T06:43:22Z</time>
      </trkpt>
      <trkpt lat="37.279164" lon="-6.005725">
        <ele>7.274</ele>
        <time>2015-06-18T06:43:31Z</time>
      </trkpt>
      <trkpt lat="37.278762" lon="-6.005917">
        <ele>7.276</ele>
        <time>2015-06-18T06:43:39Z</time>
      </trkpt>
      <trkpt lat="37.278406" lon="-6.006086">
        <ele>7.219</ele>
        <time>2015-06-18T06:43:46Z</time>
      </trkpt>
      <trkpt lat="37.278069" lon="-6.006291">
        <ele>7.293</ele>
        <time>2015-06-18T06:43:53Z</time>
      </trkpt>
      <trkpt lat="37.277857" lon="-6.006467">
        <ele>7.236</ele>
        <time>2015-06-18T06:43:58Z</time>
      </trkpt>
      <trkpt lat="37.277758" lon="-6.006525">
        <ele>7.217</ele>
        <time>2015-06-18T06:44:00Z</time>
      </trkpt>
      <trkpt lat="37.277369" lon="-6.006733">
        <ele>7.218</ele>
        <time>2015-06-18T06:44:08Z</time>
      </trkpt>
      <trkpt lat="37.277056" lon="-6.006914">
        <ele>7.208</ele>
        <time>2015-06-18T06:44:14Z</time>
      </trkpt>
      <trkpt lat="37.276648" lon="-6.007148">
        <ele>7.254</ele>
        <time>2015-06-18T06:44:22Z</time>
      </trkpt>
      <trkpt lat="37.276414" lon="-6.007279">
        <ele>7.290</ele>
        <time>2015-06-18T06:44:27Z</time>
      </trkpt>
      <trkpt lat="37.276372" lon="-6.007307">
        <ele>7.256</ele>
        <time>2015-06-18T06:44:28Z</time>
      </trkpt>
      <trkpt lat="37.276250" lon="-6.007386">
        <ele>7.285</ele>
        <time>2015-06-18T06:44:31Z</time>
      </trkpt>
      <trkpt lat="37.276139" lon="-6.007446">
        <ele>7.258</ele>
        <time>2015-06-18T06:44:34Z</time>
      </trkpt>
      <trkpt lat="37.276104" lon="-6.007473">
        <ele>7.230</ele>
        <time>2015-06-18T06:44:35Z</time>
      </trkpt>
      <trkpt lat="37.275987" lon="-6.007541">
        <ele>7.283</ele>
        <time>2015-06-18T06:44:38Z</time>
      </trkpt>
      <trkpt lat="37.275819" lon="-6.007636">
        <ele>7.227</ele>
        <time>2015-06-18T06:44:42Z</time>
      </trkpt>
      <trkpt lat="37.275781" lon="-6.007664">
        <ele>7.246</ele>
        <time>2015-06-18T06:44:43Z</time>
      </trkpt>
      <trkpt lat="37.275613" lon="-6.007763">
        <ele>7.288</ele>
        <time>2015-06-18T06:44:47Z</time>
      </trkpt>
      <trkpt lat="37.275241" lon="-6.007995">
        <ele>7.216</ele>
        <time>2015-06-18T06:44:55Z</time>
      </trkpt>
      <trkpt lat="37.274871" lon="-6.008239">
        <ele>7.208</ele>
        <time>2015-06-18T06:45:03Z</time>
      </trkpt>
      <trkpt lat="37.274829" lon="-6.008274">
        <ele>7.265</ele>
        <time>2015-06-18T06:45:04Z</time>
      </trkpt>
      <trkpt lat="37.274747" lon="-6.008325">
        <ele>7.211</ele>
        <time>2015-06-18T06:45:06Z</time>
      </trkpt>
      <trkpt lat="37.274619" lon="-6.008396">
        <ele>7.237</ele>
        <time>2015-06-18T06:45:09Z</time>
      </trkpt>
      <trkpt lat="37.274577" lon="-6.008424">
        <ele>7.266</ele>
        <time>2015-06-18T06:45:10Z</time>
      </trkpt>
      <trkpt lat="37.274355" lon="-6.008567">
        <ele>7.289</ele>
        <time>2015-06-18T06:45:15Z</time>
      </trkpt>
      <trkpt lat="37.273933" lon="-6.008818">
        <ele>7.231</ele>
        <time>2015-06-18T06:45:24Z</time>
      </trkpt>
      <trkpt lat="37.273445" lon="-6.009126">
        <ele>7.234</ele>
        <time>2015-06-18T06:45:34Z</time>
      </trkpt>
      <trkpt lat="37.273197" lon="-6.009282">
        <ele>7.268</ele>
        <time>2015-06-18T06:45:40Z</time>
      </trkpt>
      <trkpt lat="37.273140" lon="-6.009314">
        <ele>7.286</ele>
        <time>2015-06-18T06:45:43Z</time>
      </trkpt>
      <trkpt lat="37.273123" lon="-6.009325">
        <ele>7.260</ele>
        <time>2015-06-18T06:45:44Z</time>
      </trkpt>
      <trkpt lat="37.272975" lon="-6.009403">
        <ele>7.226</ele>
        <time>2015-06-18T06:45:51Z</time>
      </trkpt>
      <trkpt lat="37.272908" lon="-6.009381">
        <ele>7.208</ele>
        <time>2015-06-18T06:45:55Z</time>
      </trkpt>
      <trkpt lat="37.272880" lon="-6.009385">
        <ele>7.299</ele>
        <time>2015-06-18T06:45:56Z</time>
      </trkpt>
      <trkpt lat="37.272787" lon="-6.009454">
        <ele>7.265</ele>
        <time>2015-06-18T06:45:59Z</time>
      </trkpt>
      <trkpt lat="37.272751" lon="-6.009476">
        <ele>7.271</ele>
        <time>2015-06-18T06:46:00Z</time>
      </trkpt>
      <trkpt lat="37.272598" lon="-6.009572">
        <ele>7.250</ele>
        <time>2015-06-18T06:46:04Z</time>
      </trkpt>
      <trkpt lat="37.272469" lon="-6.009634">
        <ele>7.233</ele>
        <time>2015-06-18T06:46:07Z</time>
      </trkpt>
      <trkpt lat="37.272190" lon="-6.009813">
        <ele>7.215</ele>
        <time>2015-06-18T06:46:13Z</time>
      </trkpt>
      <trkpt lat="37.271946" lon="-6.009960">
        <ele>7.278</ele>
        <time>2015-06-18T06:46:18Z</time>
      </trkpt>
      <trkpt lat="37.271897" lon="-6.009991">
        <ele>7.292</ele>
        <time>2015-06-18T06:46:19Z</time>
      </trkpt>
      <trkpt lat="37.271581" lon="-6.010188">
        <ele>7.246</ele>
        <time>2015-06-18T06:46:26Z</time>
      </trkpt>
      <trkpt lat="37.271264" lon="-6.010381">
        <ele>7.288</ele>
        <time>2015-06-18T06:46:33Z</time>
      </trkpt>
      <trkpt lat="37.270889" lon="-6.010618">
        <ele>7.216</ele>
        <time>2015-06-18T06:46:41Z</time>
      </trkpt>
      <trkpt lat="37.270515" lon="-6.010853">
        <ele>7.208</ele>
        <time>2015-06-18T06:46:49Z</time>
      </trkpt>
      <trkpt lat="37.270186" lon="-6.011059">
        <ele>7.295</ele>
        <time>2015-06-18T06:46:56Z</time>
      </trkpt>
      <trkpt lat="37.270090" lon="-6.011106">
        <ele>7.221</ele>
        <time>2015-06-18T06:46:58Z</time>
      </trkpt>
      <trkpt lat="37.269951" lon="-6.011189">
        <ele>7.227</ele>
        <time>2015-06-18T06:47:01Z</time>
      </trkpt>
      <trkpt lat="37.269691" lon="-6.011350">
        <ele>7.216</ele>
        <time>2015-06-18T06:47:08Z</time>
      </trkpt>
      <trkpt lat="37.269684" lon="-6.011345">
        <ele>7.279</ele>
        <time>2015-06-18T06:47:09Z</time>
      </trkpt>
      <trkpt lat="37.269685" lon="-6.011343">
        <ele>7.221</ele>
        <time>2015-06-18T06:47:12Z</time>
      </trkpt>
      <trkpt lat="37.269685" lon="-6.011343">
        <ele>7.294</ele>
        <time>2015-06-18T06:47:16Z</time>
      </trkpt>
      <trkpt lat="37.269685" lon="-6.011343">
        <ele>7.298</ele>
        <time>2015-06-18T06:47:20Z</time>
      </trkpt>
      <trkpt lat="37.269685" lon="-6.011343">
        <ele>7.271</ele>
        <time>2015-06-18T06:47:28Z</time>
      </trkpt>
      <trkpt lat="37.269685" lon="-6.011343">
        <ele>7.241</ele>
        <time>2015-06-18T06:47:33Z</time>
      </trkpt>
      <trkpt lat="37.269685" lon="-6.011343">
        <ele>7.215</ele>
        <time>2015-06-18T06:47:35Z</time>
      </trkpt>
      <trkpt lat="37.269687" lon="-6.011344">
        <ele>7.208</ele>
        <time>2015-06-18T06:47:39Z</time>
      </trkpt>
      <trkpt lat="37.269678" lon="-6.011350">
        <ele>7.238</ele>
        <time>2015-06-18T06:47:41Z</time>
      </trkpt>
      <trkpt lat="37.269643" lon="-6.011402">
        <ele>7.234</ele>
        <time>2015-06-18T06:47:44Z</time>
      </trkpt>
      <trkpt lat="37.269543" lon="-6.011474">
        <ele>7.230</ele>
        <time>2015-06-18T06:47:48Z</time>
      </trkpt>
      <trkpt lat="37.269511" lon="-6.011495">
        <ele>7.299</ele>
        <time>2015-06-18T06:47:49Z</time>
      </trkpt>
      <trkpt lat="37.269447" lon="-6.011537">
        <ele>7.222</ele>
        <time>2015-06-18T06:47:51Z</time>
      </trkpt>
      <trkpt lat="37.269270" lon="-6.011651">
        <ele>7.264</ele>
        <time>2015-06-18T06:47:56Z</time>
      </trkpt>
      <trkpt lat="37.269144" lon="-6.011727">
        <ele>7.227</ele>
        <time>2015-06-18T06:48:00Z</time>
      </trkpt>
      <trkpt lat="37.269061" lon="-6.011795">
        <ele>7.281</ele>
        <time>2015-06-18T06:48:04Z</time>
      </trkpt>
      <trkpt lat="37.269040" lon="-6.011937">
        <ele>7.231</ele>
        <time>2015-06-18T06:48:08Z</time>
      </trkpt>
      <trkpt lat="37.269032" lon="-6.011978">
        <ele>7.261</ele>
        <time>2015-06-18T06:48:09Z</time>
      </trkpt>
      <trkpt lat="37.268981" lon="-6.012046">
        <ele>7.207</ele>
        <time>2015-06-18T06:48:11Z</time>
      </trkpt>
      <trkpt lat="37.268941" lon="-6.012054">
        <ele>7.208</ele>
        <time>2015-06-18T06:48:12Z</time>
      </trkpt>
      <trkpt lat="37.268750" lon="-6.012172">
        <ele>7.234</ele>
        <time>2015-06-18T06:48:17Z</time>
      </trkpt>
      <trkpt lat="37.268485" lon="-6.012330">
        <ele>7.260</ele>
        <time>2015-06-18T06:48:23Z</time>
      </trkpt>
      <trkpt lat="37.268233" lon="-6.012481">
        <ele>7.256</ele>
        <time>2015-06-18T06:48:29Z</time>
      </trkpt>
      <trkpt lat="37.268171" lon="-6.012521">
        <ele>7.265</ele>
        <time>2015-06-18T06:48:31Z</time>
      </trkpt>
      <trkpt lat="37.268032" lon="-6.012598">
        <ele>7.298</ele>
        <time>2015-06-18T06:48:36Z</time>
      </trkpt>
      <trkpt lat="37.267815" lon="-6.012732">
        <ele>7.250</ele>
        <time>2015-06-18T06:48:43Z</time>
      </trkpt>
      <trkpt lat="37.267599" lon="-6.012851">
        <ele>7.223</ele>
        <time>2015-06-18T06:48:49Z</time>
      </trkpt>
      <trkpt lat="37.267519" lon="-6.012904">
        <ele>7.237</ele>
        <time>2015-06-18T06:48:51Z</time>
      </trkpt>
      <trkpt lat="37.267359" lon="-6.013004">
        <ele>7.242</ele>
        <time>2015-06-18T06:48:55Z</time>
      </trkpt>
      <trkpt lat="37.267269" lon="-6.013055">
        <ele>7.222</ele>
        <time>2015-06-18T06:48:57Z</time>
      </trkpt>
      <trkpt lat="37.267059" lon="-6.013187">
        <ele>7.214</ele>
        <time>2015-06-18T06:49:02Z</time>
      </trkpt>
      <trkpt lat="37.266731" lon="-6.013409">
        <ele>7.208</ele>
        <time>2015-06-18T06:49:09Z</time>
      </trkpt>
      <trkpt lat="37.266417" lon="-6.013614">
        <ele>7.225</ele>
        <time>2015-06-18T06:49:16Z</time>
      </trkpt>
      <trkpt lat="37.266148" lon="-6.013790">
        <ele>7.211</ele>
        <time>2015-06-18T06:49:22Z</time>
      </trkpt>
      <trkpt lat="37.265806" lon="-6.014010">
        <ele>7.217</ele>
        <time>2015-06-18T06:49:30Z</time>
      </trkpt>
      <trkpt lat="37.265539" lon="-6.014177">
        <ele>7.256</ele>
        <time>2015-06-18T06:49:37Z</time>
      </trkpt>
      <trkpt lat="37.265347" lon="-6.014297">
        <ele>7.239</ele>
        <time>2015-06-18T06:49:43Z</time>
      </trkpt>
      <trkpt lat="37.265075" lon="-6.014483">
        <ele>7.241</ele>
        <time>2015-06-18T06:49:50Z</time>
      </trkpt>
      <trkpt lat="37.264824" lon="-6.014659">
        <ele>7.244</ele>
        <time>2015-06-18T06:49:57Z</time>
      </trkpt>
      <trkpt lat="37.264790" lon="-6.014687">
        <ele>7.258</ele>
        <time>2015-06-18T06:49:58Z</time>
      </trkpt>
      <trkpt lat="37.264624" lon="-6.014794">
        <ele>7.292</ele>
        <time>2015-06-18T06:50:02Z</time>
      </trkpt>
      <trkpt lat="37.264369" lon="-6.014970">
        <ele>7.273</ele>
        <time>2015-06-18T06:50:08Z</time>
      </trkpt>
      <trkpt lat="37.264122" lon="-6.015128">
        <ele>7.220</ele>
        <time>2015-06-18T06:50:15Z</time>
      </trkpt>
      <trkpt lat="37.263820" lon="-6.015304">
        <ele>7.208</ele>
        <time>2015-06-18T06:50:23Z</time>
      </trkpt>
      <trkpt lat="37.263483" lon="-6.015504">
        <ele>7.250</ele>
        <time>2015-06-18T06:50:31Z</time>
      </trkpt>
      <trkpt lat="37.263172" lon="-6.015686">
        <ele>7.286</ele>
        <time>2015-06-18T06:50:38Z</time>
      </trkpt>
      <trkpt lat="37.263124" lon="-6.015714">
        <ele>7.212</ele>
        <time>2015-06-18T06:50:39Z</time>
      </trkpt>
      <trkpt lat="37.262797" lon="-6.015903">
        <ele>7.241</ele>
        <time>2015-06-18T06:50:45Z</time>
      </trkpt>
      <trkpt lat="37.262454" lon="-6.016105">
        <ele>7.264</ele>
        <time>2015-06-18T06:50:51Z</time>
      </trkpt>
      <trkpt lat="37.262393" lon="-6.016145">
        <ele>7.286</ele>
        <time>2015-06-18T06:50:52Z</time>
      </trkpt>
      <trkpt lat="37.262189" lon="-6.016263">
        <ele>7.219</ele>
        <time>2015-06-18T06:50:56Z</time>
      </trkpt>
      <trkpt lat="37.262049" lon="-6.016360">
        <ele>7.213</ele>
        <time>2015-06-18T06:51:00Z</time>
      </trkpt>
      <trkpt lat="37.261980" lon="-6.016393">
        <ele>7.286</ele>
        <time>2015-06-18T06:51:02Z</time>
      </trkpt>
      <trkpt lat="37.261871" lon="-6.016475">
        <ele>7.260</ele>
        <time>2015-06-18T06:51:05Z</time>
      </trkpt>
      <trkpt lat="37.261752" lon="-6.016554">
        <ele>7.226</ele>
        <time>2015-06-18T06:51:08Z</time>
      </trkpt>
      <trkpt lat="37.261453" lon="-6.016751">
        <ele>7.208</ele>
        <time>2015-06-18T06:51:15Z</time>
      </trkpt>
      <trkpt lat="37.261364" lon="-6.016804">
        <ele>7.659</ele>
        <time>2015-06-18T06:51:17Z</time>
      </trkpt>
      <trkpt lat="37.261319" lon="-6.016836">
        <ele>8.085</ele>
        <time>2015-06-18T06:51:18Z</time>
      </trkpt>
      <trkpt lat="37.261272" lon="-6.016863">
        <ele>8.481</ele>
        <time>2015-06-18T06:51:19Z</time>
      </trkpt>
      <trkpt lat="37.261225" lon="-6.016894">
        <ele>8.870</ele>
        <time>2015-06-18T06:51:20Z</time>
      </trkpt>
      <trkpt lat="37.261177" lon="-6.016923">
        <ele>9.473</ele>
        <time>2015-06-18T06:51:21Z</time>
      </trkpt>
      <trkpt lat="37.260740" lon="-6.017186">
        <ele>9.495</ele>
        <time>2015-06-18T06:51:30Z</time>
      </trkpt>
      <trkpt lat="37.260415" lon="-6.017380">
        <ele>9.418</ele>
        <time>2015-06-18T06:51:37Z</time>
      </trkpt>
      <trkpt lat="37.260323" lon="-6.017435">
        <ele>9.452</ele>
        <time>2015-06-18T06:51:39Z</time>
      </trkpt>
      <trkpt lat="37.260093" lon="-6.017576">
        <ele>9.499</ele>
        <time>2015-06-18T06:51:44Z</time>
      </trkpt>
      <trkpt lat="37.260001" lon="-6.017633">
        <ele>9.407</ele>
        <time>2015-06-18T06:51:46Z</time>
      </trkpt>
      <trkpt lat="37.259906" lon="-6.017687">
        <ele>9.427</ele>
        <time>2015-06-18T06:51:48Z</time>
      </trkpt>
      <trkpt lat="37.259711" lon="-6.017808">
        <ele>9.408</ele>
        <time>2015-06-18T06:51:52Z</time>
      </trkpt>
      <trkpt lat="37.259381" lon="-6.018017">
        <ele>9.420</ele>
        <time>2015-06-18T06:51:59Z</time>
      </trkpt>
      <trkpt lat="37.258982" lon="-6.018270">
        <ele>9.496</ele>
        <time>2015-06-18T06:52:07Z</time>
      </trkpt>
      <trkpt lat="37.258633" lon="-6.018468">
        <ele>9.412</ele>
        <time>2015-06-18T06:52:14Z</time>
      </trkpt>
      <trkpt lat="37.258299" lon="-6.018684">
        <ele>9.431</ele>
        <time>2015-06-18T06:52:21Z</time>
      </trkpt>
      <trkpt lat="37.257945" lon="-6.018906">
        <ele>9.454</ele>
        <time>2015-06-18T06:52:29Z</time>
      </trkpt>
      <trkpt lat="37.257602" lon="-6.019111">
        <ele>9.456</ele>
        <time>2015-06-18T06:52:36Z</time>
      </trkpt>
      <trkpt lat="37.257226" lon="-6.019345">
        <ele>9.479</ele>
        <time>2015-06-18T06:52:43Z</time>
      </trkpt>
      <trkpt lat="37.257014" lon="-6.019473">
        <ele>9.423</ele>
        <time>2015-06-18T06:52:47Z</time>
      </trkpt>
      <trkpt lat="37.256807" lon="-6.019592">
        <ele>9.462</ele>
        <time>2015-06-18T06:52:51Z</time>
      </trkpt>
      <trkpt lat="37.256505" lon="-6.019790">
        <ele>9.483</ele>
        <time>2015-06-18T06:52:57Z</time>
      </trkpt>
      <trkpt lat="37.256176" lon="-6.020006">
        <ele>9.411</ele>
        <time>2015-06-18T06:53:04Z</time>
      </trkpt>
      <trkpt lat="37.255815" lon="-6.020242">
        <ele>9.408</ele>
        <time>2015-06-18T06:53:12Z</time>
      </trkpt>
      <trkpt lat="37.255422" lon="-6.020482">
        <ele>9.487</ele>
        <time>2015-06-18T06:53:20Z</time>
      </trkpt>
      <trkpt lat="37.254989" lon="-6.020730">
        <ele>9.453</ele>
        <time>2015-06-18T06:53:29Z</time>
      </trkpt>
      <trkpt lat="37.254611" lon="-6.020957">
        <ele>9.429</ele>
        <time>2015-06-18T06:53:37Z</time>
      </trkpt>
      <trkpt lat="37.254197" lon="-6.021216">
        <ele>9.418</ele>
        <time>2015-06-18T06:53:46Z</time>
      </trkpt>
      <trkpt lat="37.253873" lon="-6.021417">
        <ele>9.471</ele>
        <time>2015-06-18T06:53:53Z</time>
      </trkpt>
      <trkpt lat="37.253359" lon="-6.021743">
        <ele>9.433</ele>
        <time>2015-06-18T06:54:04Z</time>
      </trkpt>
      <trkpt lat="37.252886" lon="-6.022041">
        <ele>9.476</ele>
        <time>2015-06-18T06:54:14Z</time>
      </trkpt>
      <trkpt lat="37.252460" lon="-6.022316">
        <ele>9.480</ele>
        <time>2015-06-18T06:54:24Z</time>
      </trkpt>
      <trkpt lat="37.252052" lon="-6.022593">
        <ele>9.488</ele>
        <time>2015-06-18T06:54:34Z</time>
      </trkpt>
      <trkpt lat="37.251688" lon="-6.022830">
        <ele>9.424</ele>
        <time>2015-06-18T06:54:42Z</time>
      </trkpt>
      <trkpt lat="37.251308" lon="-6.023074">
        <ele>9.426</ele>
        <time>2015-06-18T06:54:50Z</time>
      </trkpt>
      <trkpt lat="37.251104" lon="-6.023208">
        <ele>9.408</ele>
        <time>2015-06-18T06:54:55Z</time>
      </trkpt>
      <trkpt lat="37.251060" lon="-6.023227">
        <ele>9.479</ele>
        <time>2015-06-18T06:54:56Z</time>
      </trkpt>
      <trkpt lat="37.250733" lon="-6.023418">
        <ele>9.435</ele>
        <time>2015-06-18T06:55:03Z</time>
      </trkpt>
      <trkpt lat="37.250387" lon="-6.023622">
        <ele>9.421</ele>
        <time>2015-06-18T06:55:10Z</time>
      </trkpt>
      <trkpt lat="37.250063" lon="-6.023807">
        <ele>9.420</ele>
        <time>2015-06-18T06:55:17Z</time>
      </trkpt>
      <trkpt lat="37.249963" lon="-6.023850">
        <ele>9.473</ele>
        <time>2015-06-18T06:55:19Z</time>
      </trkpt>
      <trkpt lat="37.249797" lon="-6.023913">
        <ele>8.865</ele>
        <time>2015-06-18T06:55:22Z</time>
      </trkpt>
      <trkpt lat="37.249730" lon="-6.023929">
        <ele>8.458</ele>
        <time>2015-06-18T06:55:23Z</time>
      </trkpt>
      <trkpt lat="37.249664" lon="-6.023946">
        <ele>8.072</ele>
        <time>2015-06-18T06:55:24Z</time>
      </trkpt>
      <trkpt lat="37.249593" lon="-6.023963">
        <ele>7.661</ele>
        <time>2015-06-18T06:55:25Z</time>
      </trkpt>
      <trkpt lat="37.249517" lon="-6.023979">
        <ele>7.221</ele>
        <time>2015-06-18T06:55:26Z</time>
      </trkpt>
      <trkpt lat="37.249381" lon="-6.024022">
        <ele>7.213</ele>
        <time>2015-06-18T06:55:28Z</time>
      </trkpt>
      <trkpt lat="37.249325" lon="-6.024068">
        <ele>7.208</ele>
        <time>2015-06-18T06:55:29Z</time>
      </trkpt>
      <trkpt lat="37.248999" lon="-6.024301">
        <ele>7.277</ele>
        <time>2015-06-18T06:55:35Z</time>
      </trkpt>
      <trkpt lat="37.248766" lon="-6.024447">
        <ele>7.243</ele>
        <time>2015-06-18T06:55:41Z</time>
      </trkpt>
      <trkpt lat="37.248638" lon="-6.024529">
        <ele>7.239</ele>
        <time>2015-06-18T06:55:47Z</time>
      </trkpt>
      <trkpt lat="37.248613" lon="-6.024543">
        <ele>6.898</ele>
        <time>2015-06-18T06:55:48Z</time>
      </trkpt>
      <trkpt lat="37.248591" lon="-6.024559">
        <ele>6.431</ele>
        <time>2015-06-18T06:55:49Z</time>
      </trkpt>
      <trkpt lat="37.248578" lon="-6.024564">
        <ele>6.063</ele>
        <time>2015-06-18T06:55:50Z</time>
      </trkpt>
      <trkpt lat="37.248564" lon="-6.024575">
        <ele>5.686</ele>
        <time>2015-06-18T06:55:51Z</time>
      </trkpt>
      <trkpt lat="37.248550" lon="-6.024586">
        <ele>5.250</ele>
        <time>2015-06-18T06:55:52Z</time>
      </trkpt>
      <trkpt lat="37.248535" lon="-6.024596">
        <ele>5.234</ele>
        <time>2015-06-18T06:55:53Z</time>
      </trkpt>
      <trkpt lat="37.248403" lon="-6.024671">
        <ele>5.255</ele>
        <time>2015-06-18T06:55:59Z</time>
      </trkpt>
      <trkpt lat="37.248181" lon="-6.024814">
        <ele>5.210</ele>
        <time>2015-06-18T06:56:06Z</time>
      </trkpt>
      <trkpt lat="37.247923" lon="-6.024976">
        <ele>5.208</ele>
        <time>2015-06-18T06:56:13Z</time>
      </trkpt>
      <trkpt lat="37.247692" lon="-6.025126">
        <ele>5.274</ele>
        <time>2015-06-18T06:56:19Z</time>
      </trkpt>
      <trkpt lat="37.247390" lon="-6.025316">
        <ele>5.280</ele>
        <time>2015-06-18T06:56:27Z</time>
      </trkpt>
      <trkpt lat="37.247155" lon="-6.025450">
        <ele>5.256</ele>
        <time>2015-06-18T06:56:34Z</time>
      </trkpt>
      <trkpt lat="37.246945" lon="-6.025580">
        <ele>5.235</ele>
        <time>2015-06-18T06:56:41Z</time>
      </trkpt>
      <trkpt lat="37.246876" lon="-6.025603">
        <ele>5.278</ele>
        <time>2015-06-18T06:56:47Z</time>
      </trkpt>
      <trkpt lat="37.246803" lon="-6.025529">
        <ele>5.280</ele>
        <time>2015-06-18T06:56:52Z</time>
      </trkpt>
      <trkpt lat="37.246720" lon="-6.025336">
        <ele>5.243</ele>
        <time>2015-06-18T06:56:57Z</time>
      </trkpt>
      <trkpt lat="37.246704" lon="-6.025294">
        <ele>5.657</ele>
        <time>2015-06-18T06:56:58Z</time>
      </trkpt>
      <trkpt lat="37.246683" lon="-6.025252">
        <ele>6.053</ele>
        <time>2015-06-18T06:56:59Z</time>
      </trkpt>
      <trkpt lat="37.246665" lon="-6.025206">
        <ele>6.404</ele>
        <time>2015-06-18T06:57:00Z</time>
      </trkpt>
      <trkpt lat="37.246650" lon="-6.025155">
        <ele>6.814</ele>
        <time>2015-06-18T06:57:01Z</time>
      </trkpt>
      <trkpt lat="37.246632" lon="-6.025106">
        <ele>7.208</ele>
        <time>2015-06-18T06:57:02Z</time>
      </trkpt>
      <trkpt lat="37.246595" lon="-6.025020">
        <ele>7.296</ele>
        <time>2015-06-18T06:57:04Z</time>
      </trkpt>
      <trkpt lat="37.246503" lon="-6.024795">
        <ele>7.262</ele>
        <time>2015-06-18T06:57:10Z</time>
      </trkpt>
      <trkpt lat="37.246413" lon="-6.024583">
        <ele>7.278</ele>
        <time>2015-06-18T06:57:15Z</time>
      </trkpt>
      <trkpt lat="37.246243" lon="-6.024155">
        <ele>7.287</ele>
        <time>2015-06-18T06:57:24Z</time>
      </trkpt>
      <trkpt lat="37.246160" lon="-6.023949">
        <ele>7.220</ele>
        <time>2015-06-18T06:57:28Z</time>
      </trkpt>
      <trkpt lat="37.246098" lon="-6.023796">
        <ele>7.222</ele>
        <time>2015-06-18T06:57:31Z</time>
      </trkpt>
      <trkpt lat="37.245992" lon="-6.023519">
        <ele>7.275</ele>
        <time>2015-06-18T06:57:36Z</time>
      </trkpt>
      <trkpt lat="37.245931" lon="-6.023382">
        <ele>7.279</ele>
        <time>2015-06-18T06:57:39Z</time>
      </trkpt>
      <trkpt lat="37.245914" lon="-6.023360">
        <ele>7.233</ele>
        <time>2015-06-18T06:57:40Z</time>
      </trkpt>
      <trkpt lat="37.245859" lon="-6.023364">
        <ele>7.223</ele>
        <time>2015-06-18T06:57:42Z</time>
      </trkpt>
      <trkpt lat="37.245722" lon="-6.023484">
        <ele>7.215</ele>
        <time>2015-06-18T06:57:46Z</time>
      </trkpt>
      <trkpt lat="37.245568" lon="-6.023591">
        <ele>6.808</ele>
        <time>2015-06-18T06:57:50Z</time>
      </trkpt>
      <trkpt lat="37.245528" lon="-6.023617">
        <ele>6.234</ele>
        <time>2015-06-18T06:57:51Z</time>
      </trkpt>
      <trkpt lat="37.245488" lon="-6.023645">
        <ele>5.890</ele>
        <time>2015-06-18T06:57:52Z</time>
      </trkpt>
      <trkpt lat="37.245449" lon="-6.023674">
        <ele>5.486</ele>
        <time>2015-06-18T06:57:53Z</time>
      </trkpt>
      <trkpt lat="37.245410" lon="-6.023701">
        <ele>5.095</ele>
        <time>2015-06-18T06:57:54Z</time>
      </trkpt>
      <trkpt lat="37.245108" lon="-6.023883">
        <ele>5.048</ele>
        <time>2015-06-18T06:58:01Z</time>
      </trkpt>
      <trkpt lat="37.244802" lon="-6.024078">
        <ele>5.010</ele>
        <time>2015-06-18T06:58:08Z</time>
      </trkpt>
      <trkpt lat="37.244540" lon="-6.024244">
        <ele>5.063</ele>
        <time>2015-06-18T06:58:14Z</time>
      </trkpt>
      <trkpt lat="37.244458" lon="-6.024298">
        <ele>5.067</ele>
        <time>2015-06-18T06:58:16Z</time>
      </trkpt>
      <trkpt lat="37.244385" lon="-6.024354">
        <ele>5.045</ele>
        <time>2015-06-18T06:58:18Z</time>
      </trkpt>
      <trkpt lat="37.244182" lon="-6.024479">
        <ele>5.047</ele>
        <time>2015-06-18T06:58:23Z</time>
      </trkpt>
      <trkpt lat="37.243808" lon="-6.024722">
        <ele>5.011</ele>
        <time>2015-06-18T06:58:32Z</time>
      </trkpt>
      <trkpt lat="37.243513" lon="-6.024925">
        <ele>5.008</ele>
        <time>2015-06-18T06:58:39Z</time>
      </trkpt>
      <trkpt lat="37.243238" lon="-6.025115">
        <ele>5.065</ele>
        <time>2015-06-18T06:58:46Z</time>
      </trkpt>
      <trkpt lat="37.243201" lon="-6.025144">
        <ele>5.051</ele>
        <time>2015-06-18T06:58:47Z</time>
      </trkpt>
      <trkpt lat="37.242997" lon="-6.025290">
        <ele>5.067</ele>
        <time>2015-06-18T06:58:52Z</time>
      </trkpt>
      <trkpt lat="37.242950" lon="-6.025325">
        <ele>5.026</ele>
        <time>2015-06-18T06:58:53Z</time>
      </trkpt>
      <trkpt lat="37.242817" lon="-6.025429">
        <ele>5.069</ele>
        <time>2015-06-18T06:58:56Z</time>
      </trkpt>
      <trkpt lat="37.242655" lon="-6.025561">
        <ele>5.091</ele>
        <time>2015-06-18T06:59:00Z</time>
      </trkpt>
      <trkpt lat="37.242611" lon="-6.025592">
        <ele>5.074</ele>
        <time>2015-06-18T06:59:01Z</time>
      </trkpt>
      <trkpt lat="37.242445" lon="-6.025728">
        <ele>5.018</ele>
        <time>2015-06-18T06:59:05Z</time>
      </trkpt>
      <trkpt lat="37.242147" lon="-6.025949">
        <ele>5.056</ele>
        <time>2015-06-18T06:59:12Z</time>
      </trkpt>
      <trkpt lat="37.241842" lon="-6.026188">
        <ele>5.059</ele>
        <time>2015-06-18T06:59:19Z</time>
      </trkpt>
      <trkpt lat="37.241584" lon="-6.026387">
        <ele>5.014</ele>
        <time>2015-06-18T06:59:25Z</time>
      </trkpt>
      <trkpt lat="37.241493" lon="-6.026446">
        <ele>5.008</ele>
        <time>2015-06-18T06:59:27Z</time>
      </trkpt>
      <trkpt lat="37.241214" lon="-6.026646">
        <ele>5.036</ele>
        <time>2015-06-18T06:59:33Z</time>
      </trkpt>
      <trkpt lat="37.240736" lon="-6.026958">
        <ele>5.052</ele>
        <time>2015-06-18T06:59:43Z</time>
      </trkpt>
      <trkpt lat="37.240484" lon="-6.027118">
        <ele>5.058</ele>
        <time>2015-06-18T06:59:49Z</time>
      </trkpt>
      <trkpt lat="37.240441" lon="-6.027145">
        <ele>5.037</ele>
        <time>2015-06-18T06:59:50Z</time>
      </trkpt>
      <trkpt lat="37.240212" lon="-6.027284">
        <ele>5.020</ele>
        <time>2015-06-18T06:59:55Z</time>
      </trkpt>
      <trkpt lat="37.239891" lon="-6.027479">
        <ele>5.062</ele>
        <time>2015-06-18T07:00:02Z</time>
      </trkpt>
      <trkpt lat="37.239528" lon="-6.027711">
        <ele>5.085</ele>
        <time>2015-06-18T07:00:10Z</time>
      </trkpt>
      <trkpt lat="37.239374" lon="-6.027808">
        <ele>4.649</ele>
        <time>2015-06-18T07:00:14Z</time>
      </trkpt>
      <trkpt lat="37.239337" lon="-6.027831">
        <ele>4.269</ele>
        <time>2015-06-18T07:00:15Z</time>
      </trkpt>
      <trkpt lat="37.239302" lon="-6.027855">
        <ele>3.804</ele>
        <time>2015-06-18T07:00:16Z</time>
      </trkpt>
      <trkpt lat="37.239270" lon="-6.027879">
        <ele>3.424</ele>
        <time>2015-06-18T07:00:17Z</time>
      </trkpt>
      <trkpt lat="37.239238" lon="-6.027899">
        <ele>3.808</ele>
        <time>2015-06-18T07:00:18Z</time>
      </trkpt>
      <trkpt lat="37.239204" lon="-6.027919">
        <ele>4.487</ele>
        <time>2015-06-18T07:00:19Z</time>
      </trkpt>
      <trkpt lat="37.239173" lon="-6.027939">
        <ele>5.083</ele>
        <time>2015-06-18T07:00:20Z</time>
      </trkpt>
      <trkpt lat="37.239144" lon="-6.027962">
        <ele>5.469</ele>
        <time>2015-06-18T07:00:21Z</time>
      </trkpt>
      <trkpt lat="37.239115" lon="-6.027981">
        <ele>6.028</ele>
        <time>2015-06-18T07:00:22Z</time>
      </trkpt>
      <trkpt lat="37.239083" lon="-6.027996">
        <ele>6.021</ele>
        <time>2015-06-18T07:00:23Z</time>
      </trkpt>
      <trkpt lat="37.238901" lon="-6.028120">
        <ele>6.063</ele>
        <time>2015-06-18T07:00:28Z</time>
      </trkpt>
      <trkpt lat="37.238860" lon="-6.028147">
        <ele>5.676</ele>
        <time>2015-06-18T07:00:29Z</time>
      </trkpt>
      <trkpt lat="37.238822" lon="-6.028170">
        <ele>5.250</ele>
        <time>2015-06-18T07:00:30Z</time>
      </trkpt>
      <trkpt lat="37.238782" lon="-6.028195">
        <ele>4.828</ele>
        <time>2015-06-18T07:00:31Z</time>
      </trkpt>
      <trkpt lat="37.238738" lon="-6.028221">
        <ele>4.489</ele>
        <time>2015-06-18T07:00:32Z</time>
      </trkpt>
      <trkpt lat="37.238695" lon="-6.028244">
        <ele>4.017</ele>
        <time>2015-06-18T07:00:33Z</time>
      </trkpt>
      <trkpt lat="37.238556" lon="-6.028315">
        <ele>4.008</ele>
        <time>2015-06-18T07:00:36Z</time>
      </trkpt>
      <trkpt lat="37.238310" lon="-6.028459">
        <ele>4.073</ele>
        <time>2015-06-18T07:00:42Z</time>
      </trkpt>
      <trkpt lat="37.238234" lon="-6.028496">
        <ele>4.019</ele>
        <time>2015-06-18T07:00:44Z</time>
      </trkpt>
      <trkpt lat="37.237969" lon="-6.028660">
        <ele>4.015</ele>
        <time>2015-06-18T07:00:51Z</time>
      </trkpt>
      <trkpt lat="37.237675" lon="-6.028831">
        <ele>4.024</ele>
        <time>2015-06-18T07:00:58Z</time>
      </trkpt>
      <trkpt lat="37.237321" lon="-6.029055">
        <ele>4.097</ele>
        <time>2015-06-18T07:01:06Z</time>
      </trkpt>
      <trkpt lat="37.237016" lon="-6.029256">
        <ele>4.019</ele>
        <time>2015-06-18T07:01:13Z</time>
      </trkpt>
      <trkpt lat="37.236708" lon="-6.029460">
        <ele>4.092</ele>
        <time>2015-06-18T07:01:20Z</time>
      </trkpt>
      <trkpt lat="37.236622" lon="-6.029508">
        <ele>4.066</ele>
        <time>2015-06-18T07:01:22Z</time>
      </trkpt>
      <trkpt lat="37.236477" lon="-6.029589">
        <ele>4.096</ele>
        <time>2015-06-18T07:01:25Z</time>
      </trkpt>
      <trkpt lat="37.236247" lon="-6.029727">
        <ele>4.031</ele>
        <time>2015-06-18T07:01:30Z</time>
      </trkpt>
      <trkpt lat="37.236068" lon="-6.029842">
        <ele>4.024</ele>
        <time>2015-06-18T07:01:34Z</time>
      </trkpt>
      <trkpt lat="37.235788" lon="-6.030027">
        <ele>4.008</ele>
        <time>2015-06-18T07:01:40Z</time>
      </trkpt>
      <trkpt lat="37.235446" lon="-6.030224">
        <ele>4.080</ele>
        <time>2015-06-18T07:01:47Z</time>
      </trkpt>
      <trkpt lat="37.235397" lon="-6.030254">
        <ele>4.066</ele>
        <time>2015-06-18T07:01:48Z</time>
      </trkpt>
      <trkpt lat="37.234965" lon="-6.030509">
        <ele>4.032</ele>
        <time>2015-06-18T07:01:57Z</time>
      </trkpt>
      <trkpt lat="37.234553" lon="-6.030799">
        <ele>4.051</ele>
        <time>2015-06-18T07:02:06Z</time>
      </trkpt>
      <trkpt lat="37.234210" lon="-6.030988">
        <ele>4.024</ele>
        <time>2015-06-18T07:02:13Z</time>
      </trkpt>
      <trkpt lat="37.233874" lon="-6.031180">
        <ele>4.096</ele>
        <time>2015-06-18T07:02:20Z</time>
      </trkpt>
      <trkpt lat="37.233683" lon="-6.031293">
        <ele>4.029</ele>
        <time>2015-06-18T07:02:24Z</time>
      </trkpt>
      <trkpt lat="37.233595" lon="-6.031351">
        <ele>4.023</ele>
        <time>2015-06-18T07:02:26Z</time>
      </trkpt>
      <trkpt lat="37.233253" lon="-6.031571">
        <ele>4.077</ele>
        <time>2015-06-18T07:02:34Z</time>
      </trkpt>
      <trkpt lat="37.232893" lon="-6.031812">
        <ele>4.061</ele>
        <time>2015-06-18T07:02:42Z</time>
      </trkpt>
      <trkpt lat="37.232564" lon="-6.032030">
        <ele>4.027</ele>
        <time>2015-06-18T07:02:49Z</time>
      </trkpt>
      <trkpt lat="37.232317" lon="-6.032162">
        <ele>4.008</ele>
        <time>2015-06-18T07:02:54Z</time>
      </trkpt>
      <trkpt lat="37.232117" lon="-6.032271">
        <ele>4.068</ele>
        <time>2015-06-18T07:02:58Z</time>
      </trkpt>
      <trkpt lat="37.231785" lon="-6.032482">
        <ele>4.084</ele>
        <time>2015-06-18T07:03:05Z</time>
      </trkpt>
      <trkpt lat="37.231450" lon="-6.032684">
        <ele>4.080</ele>
        <time>2015-06-18T07:03:12Z</time>
      </trkpt>
      <trkpt lat="37.231400" lon="-6.032712">
        <ele>4.049</ele>
        <time>2015-06-18T07:03:13Z</time>
      </trkpt>
      <trkpt lat="37.231047" lon="-6.032930">
        <ele>4.072</ele>
        <time>2015-06-18T07:03:20Z</time>
      </trkpt>
      <trkpt lat="37.230702" lon="-6.033174">
        <ele>4.094</ele>
        <time>2015-06-18T07:03:27Z</time>
      </trkpt>
      <trkpt lat="37.230497" lon="-6.033314">
        <ele>4.077</ele>
        <time>2015-06-18T07:03:31Z</time>
      </trkpt>
      <trkpt lat="37.230328" lon="-6.033395">
        <ele>4.061</ele>
        <time>2015-06-18T07:03:34Z</time>
      </trkpt>
      <trkpt lat="37.229893" lon="-6.033652">
        <ele>4.039</ele>
        <time>2015-06-18T07:03:42Z</time>
      </trkpt>
      <trkpt lat="37.229468" lon="-6.033919">
        <ele>4.001</ele>
        <time>2015-06-18T07:03:50Z</time>
      </trkpt>
      <trkpt lat="37.229099" lon="-6.034174">
        <ele>4.021</ele>
        <time>2015-06-18T07:03:57Z</time>
      </trkpt>
      <trkpt lat="37.229049" lon="-6.034214">
        <ele>4.008</ele>
        <time>2015-06-18T07:03:58Z</time>
      </trkpt>
      <trkpt lat="37.228998" lon="-6.034249">
        <ele>4.084</ele>
        <time>2015-06-18T07:03:59Z</time>
      </trkpt>
      <trkpt lat="37.228728" lon="-6.034412">
        <ele>4.070</ele>
        <time>2015-06-18T07:04:04Z</time>
      </trkpt>
      <trkpt lat="37.228617" lon="-6.034477">
        <ele>4.036</ele>
        <time>2015-06-18T07:04:06Z</time>
      </trkpt>
      <trkpt lat="37.228404" lon="-6.034609">
        <ele>4.045</ele>
        <time>2015-06-18T07:04:10Z</time>
      </trkpt>
      <trkpt lat="37.227942" lon="-6.034876">
        <ele>4.038</ele>
        <time>2015-06-18T07:04:18Z</time>
      </trkpt>
      <trkpt lat="37.227552" lon="-6.035118">
        <ele>4.070</ele>
        <time>2015-06-18T07:04:25Z</time>
      </trkpt>
      <trkpt lat="37.227119" lon="-6.035393">
        <ele>4.013</ele>
        <time>2015-06-18T07:04:33Z</time>
      </trkpt>
      <trkpt lat="37.226689" lon="-6.035666">
        <ele>4.017</ele>
        <time>2015-06-18T07:04:41Z</time>
      </trkpt>
      <trkpt lat="37.226317" lon="-6.035901">
        <ele>4.092</ele>
        <time>2015-06-18T07:04:48Z</time>
      </trkpt>
      <trkpt lat="37.225935" lon="-6.036125">
        <ele>4.073</ele>
        <time>2015-06-18T07:04:55Z</time>
      </trkpt>
      <trkpt lat="37.225557" lon="-6.036366">
        <ele>4.020</ele>
        <time>2015-06-18T07:05:02Z</time>
      </trkpt>
      <trkpt lat="37.225118" lon="-6.036634">
        <ele>4.008</ele>
        <time>2015-06-18T07:05:10Z</time>
      </trkpt>
      <trkpt lat="37.224853" lon="-6.036809">
        <ele>4.030</ele>
        <time>2015-06-18T07:05:15Z</time>
      </trkpt>
      <trkpt lat="37.224638" lon="-6.036945">
        <ele>4.066</ele>
        <time>2015-06-18T07:05:19Z</time>
      </trkpt>
      <trkpt lat="37.224163" lon="-6.037244">
        <ele>4.092</ele>
        <time>2015-06-18T07:05:28Z</time>
      </trkpt>
      <trkpt lat="37.223845" lon="-6.037428">
        <ele>4.061</ele>
        <time>2015-06-18T07:05:34Z</time>
      </trkpt>
      <trkpt lat="37.223515" lon="-6.037613">
        <ele>4.044</ele>
        <time>2015-06-18T07:05:40Z</time>
      </trkpt>
      <trkpt lat="37.223098" lon="-6.037872">
        <ele>4.086</ele>
        <time>2015-06-18T07:05:48Z</time>
      </trkpt>
      <trkpt lat="37.222693" lon="-6.038145">
        <ele>4.029</ele>
        <time>2015-06-18T07:05:56Z</time>
      </trkpt>
      <trkpt lat="37.222341" lon="-6.038379">
        <ele>4.053</ele>
        <time>2015-06-18T07:06:03Z</time>
      </trkpt>
      <trkpt lat="37.222215" lon="-6.038471">
        <ele>4.056</ele>
        <time>2015-06-18T07:06:06Z</time>
      </trkpt>
      <trkpt lat="37.222091" lon="-6.038545">
        <ele>4.059</ele>
        <time>2015-06-18T07:06:09Z</time>
      </trkpt>
      <trkpt lat="37.221973" lon="-6.038621">
        <ele>4.014</ele>
        <time>2015-06-18T07:06:12Z</time>
      </trkpt>
      <trkpt lat="37.221866" lon="-6.038687">
        <ele>4.008</ele>
        <time>2015-06-18T07:06:15Z</time>
      </trkpt>
      <trkpt lat="37.221624" lon="-6.038853">
        <ele>4.056</ele>
        <time>2015-06-18T07:06:21Z</time>
      </trkpt>
      <trkpt lat="37.221491" lon="-6.038934">
        <ele>4.052</ele>
        <time>2015-06-18T07:06:24Z</time>
      </trkpt>
      <trkpt lat="37.221322" lon="-6.039059">
        <ele>4.088</ele>
        <time>2015-06-18T07:06:28Z</time>
      </trkpt>
      <trkpt lat="37.220941" lon="-6.039341">
        <ele>4.097</ele>
        <time>2015-06-18T07:06:37Z</time>
      </trkpt>
      <trkpt lat="37.220860" lon="-6.039412">
        <ele>3.490</ele>
        <time>2015-06-18T07:06:39Z</time>
      </trkpt>
      <trkpt lat="37.220819" lon="-6.039447">
        <ele>2.842</ele>
        <time>2015-06-18T07:06:40Z</time>
      </trkpt>
      <trkpt lat="37.220777" lon="-6.039480">
        <ele>2.245</ele>
        <time>2015-06-18T07:06:41Z</time>
      </trkpt>
      <trkpt lat="37.220738" lon="-6.039511">
        <ele>2.429</ele>
        <time>2015-06-18T07:06:42Z</time>
      </trkpt>
      <trkpt lat="37.220697" lon="-6.039542">
        <ele>2.646</ele>
        <time>2015-06-18T07:06:43Z</time>
      </trkpt>
      <trkpt lat="37.220657" lon="-6.039576">
        <ele>2.888</ele>
        <time>2015-06-18T07:06:44Z</time>
      </trkpt>
      <trkpt lat="37.220615" lon="-6.039613">
        <ele>3.216</ele>
        <time>2015-06-18T07:06:45Z</time>
      </trkpt>
      <trkpt lat="37.220572" lon="-6.039648">
        <ele>3.408</ele>
        <time>2015-06-18T07:06:46Z</time>
      </trkpt>
      <trkpt lat="37.220307" lon="-6.039841">
        <ele>3.475</ele>
        <time>2015-06-18T07:06:52Z</time>
      </trkpt>
      <trkpt lat="37.220117" lon="-6.039977">
        <ele>3.491</ele>
        <time>2015-06-18T07:06:56Z</time>
      </trkpt>
      <trkpt lat="37.220026" lon="-6.040049">
        <ele>3.497</ele>
        <time>2015-06-18T07:06:58Z</time>
      </trkpt>
      <trkpt lat="37.219854" lon="-6.040201">
        <ele>3.476</ele>
        <time>2015-06-18T07:07:02Z</time>
      </trkpt>
      <trkpt lat="37.219726" lon="-6.040311">
        <ele>3.479</ele>
        <time>2015-06-18T07:07:05Z</time>
      </trkpt>
      <trkpt lat="37.219472" lon="-6.040538">
        <ele>3.471</ele>
        <time>2015-06-18T07:07:11Z</time>
      </trkpt>
      <trkpt lat="37.219431" lon="-6.040570">
        <ele>3.434</ele>
        <time>2015-06-18T07:07:12Z</time>
      </trkpt>
      <trkpt lat="37.219097" lon="-6.040872">
        <ele>3.418</ele>
        <time>2015-06-18T07:07:20Z</time>
      </trkpt>
      <trkpt lat="37.218754" lon="-6.041184">
        <ele>3.474</ele>
        <time>2015-06-18T07:07:28Z</time>
      </trkpt>
      <trkpt lat="37.218449" lon="-6.041435">
        <ele>3.456</ele>
        <time>2015-06-18T07:07:35Z</time>
      </trkpt>
      <trkpt lat="37.218064" lon="-6.041796">
        <ele>3.421</ele>
        <time>2015-06-18T07:07:44Z</time>
      </trkpt>
      <trkpt lat="37.217714" lon="-6.042163">
        <ele>3.408</ele>
        <time>2015-06-18T07:07:52Z</time>
      </trkpt>
      <trkpt lat="37.217453" lon="-6.042457">
        <ele>3.428</ele>
        <time>2015-06-18T07:07:58Z</time>
      </trkpt>
      <trkpt lat="37.217100" lon="-6.042825">
        <ele>3.484</ele>
        <time>2015-06-18T07:08:06Z</time>
      </trkpt>
      <trkpt lat="37.216776" lon="-6.043166">
        <ele>3.440</ele>
        <time>2015-06-18T07:08:13Z</time>
      </trkpt>
      <trkpt lat="37.216732" lon="-6.043217">
        <ele>3.489</ele>
        <time>2015-06-18T07:08:14Z</time>
      </trkpt>
      <trkpt lat="37.216328" lon="-6.043685">
        <ele>3.442</ele>
        <time>2015-06-18T07:08:23Z</time>
      </trkpt>
      <trkpt lat="37.216071" lon="-6.044004">
        <ele>3.454</ele>
        <time>2015-06-18T07:08:29Z</time>
      </trkpt>
      <trkpt lat="37.216034" lon="-6.044054">
        <ele>3.427</ele>
        <time>2015-06-18T07:08:30Z</time>
      </trkpt>
      <trkpt lat="37.215894" lon="-6.044221">
        <ele>3.481</ele>
        <time>2015-06-18T07:08:34Z</time>
      </trkpt>
      <trkpt lat="37.215793" lon="-6.044341">
        <ele>3.449</ele>
        <time>2015-06-18T07:08:37Z</time>
      </trkpt>
      <trkpt lat="37.215640" lon="-6.044527">
        <ele>3.402</ele>
        <time>2015-06-18T07:08:42Z</time>
      </trkpt>
      <trkpt lat="37.215578" lon="-6.044596">
        <ele>3.422</ele>
        <time>2015-06-18T07:08:44Z</time>
      </trkpt>
      <trkpt lat="37.215544" lon="-6.044630">
        <ele>3.408</ele>
        <time>2015-06-18T07:08:45Z</time>
      </trkpt>
      <trkpt lat="37.215476" lon="-6.044707">
        <ele>3.495</ele>
        <time>2015-06-18T07:08:47Z</time>
      </trkpt>
      <trkpt lat="37.215389" lon="-6.044823">
        <ele>3.411</ele>
        <time>2015-06-18T07:08:50Z</time>
      </trkpt>
      <trkpt lat="37.215150" lon="-6.045093">
        <ele>3.427</ele>
        <time>2015-06-18T07:08:57Z</time>
      </trkpt>
      <trkpt lat="37.214906" lon="-6.045382">
        <ele>3.466</ele>
        <time>2015-06-18T07:09:04Z</time>
      </trkpt>
      <trkpt lat="37.214678" lon="-6.045650">
        <ele>3.499</ele>
        <time>2015-06-18T07:09:10Z</time>
      </trkpt>
      <trkpt lat="37.214438" lon="-6.045939">
        <ele>3.491</ele>
        <time>2015-06-18T07:09:16Z</time>
      </trkpt>
      <trkpt lat="37.214332" lon="-6.046068">
        <ele>3.424</ele>
        <time>2015-06-18T07:09:19Z</time>
      </trkpt>
      <trkpt lat="37.214227" lon="-6.046198">
        <ele>3.478</ele>
        <time>2015-06-18T07:09:22Z</time>
      </trkpt>
      <trkpt lat="37.213964" lon="-6.046506">
        <ele>3.454</ele>
        <time>2015-06-18T07:09:29Z</time>
      </trkpt>
      <trkpt lat="37.213699" lon="-6.046830">
        <ele>3.456</ele>
        <time>2015-06-18T07:09:36Z</time>
      </trkpt>
      <trkpt lat="37.213403" lon="-6.047197">
        <ele>3.411</ele>
        <time>2015-06-18T07:09:44Z</time>
      </trkpt>
      <trkpt lat="37.213158" lon="-6.047522">
        <ele>3.408</ele>
        <time>2015-06-18T07:09:51Z</time>
      </trkpt>
      <trkpt lat="37.213021" lon="-6.047707">
        <ele>3.466</ele>
        <time>2015-06-18T07:09:55Z</time>
      </trkpt>
      <trkpt lat="37.212899" lon="-6.047815">
        <ele>3.482</ele>
        <time>2015-06-18T07:09:58Z</time>
      </trkpt>
      <trkpt lat="37.212554" lon="-6.048020">
        <ele>3.478</ele>
        <time>2015-06-18T07:10:05Z</time>
      </trkpt>
      <trkpt lat="37.212457" lon="-6.048094">
        <ele>3.497</ele>
        <time>2015-06-18T07:10:07Z</time>
      </trkpt>
      <trkpt lat="37.212375" lon="-6.048187">
        <ele>3.440</ele>
        <time>2015-06-18T07:10:09Z</time>
      </trkpt>
      <trkpt lat="37.212340" lon="-6.048236">
        <ele>3.472</ele>
        <time>2015-06-18T07:10:10Z</time>
      </trkpt>
      <trkpt lat="37.212268" lon="-6.048330">
        <ele>3.465</ele>
        <time>2015-06-18T07:10:12Z</time>
      </trkpt>
      <trkpt lat="37.212155" lon="-6.048469">
        <ele>3.469</ele>
        <time>2015-06-18T07:10:15Z</time>
      </trkpt>
      <trkpt lat="37.211845" lon="-6.048831">
        <ele>3.445</ele>
        <time>2015-06-18T07:10:23Z</time>
      </trkpt>
      <trkpt lat="37.211624" lon="-6.049098">
        <ele>3.447</ele>
        <time>2015-06-18T07:10:29Z</time>
      </trkpt>
      <trkpt lat="37.211368" lon="-6.049409">
        <ele>3.411</ele>
        <time>2015-06-18T07:10:36Z</time>
      </trkpt>
      <trkpt lat="37.211074" lon="-6.049760">
        <ele>3.408</ele>
        <time>2015-06-18T07:10:44Z</time>
      </trkpt>
      <trkpt lat="37.210820" lon="-6.050071">
        <ele>3.495</ele>
        <time>2015-06-18T07:10:51Z</time>
      </trkpt>
      <trkpt lat="37.210550" lon="-6.050398">
        <ele>3.471</ele>
        <time>2015-06-18T07:10:58Z</time>
      </trkpt>
      <trkpt lat="37.210275" lon="-6.050727">
        <ele>3.417</ele>
        <time>2015-06-18T07:11:05Z</time>
      </trkpt>
      <trkpt lat="37.210158" lon="-6.050867">
        <ele>3.456</ele>
        <time>2015-06-18T07:11:08Z</time>
      </trkpt>
      <trkpt lat="37.209799" lon="-6.051309">
        <ele>3.429</ele>
        <time>2015-06-18T07:11:17Z</time>
      </trkpt>
      <trkpt lat="37.209482" lon="-6.051694">
        <ele>3.461</ele>
        <time>2015-06-18T07:11:25Z</time>
      </trkpt>
      <trkpt lat="37.209145" lon="-6.052097">
        <ele>3.424</ele>
        <time>2015-06-18T07:11:33Z</time>
      </trkpt>
      <trkpt lat="37.208857" lon="-6.052445">
        <ele>3.498</ele>
        <time>2015-06-18T07:11:40Z</time>
      </trkpt>
      <trkpt lat="37.208442" lon="-6.052953">
        <ele>3.471</ele>
        <time>2015-06-18T07:11:50Z</time>
      </trkpt>
      <trkpt lat="37.208040" lon="-6.053450">
        <ele>3.441</ele>
        <time>2015-06-18T07:12:00Z</time>
      </trkpt>
      <trkpt lat="37.207851" lon="-6.053681">
        <ele>3.415</ele>
        <time>2015-06-18T07:12:05Z</time>
      </trkpt>
      <trkpt lat="37.207777" lon="-6.053767">
        <ele>3.408</ele>
        <time>2015-06-18T07:12:07Z</time>
      </trkpt>
      <trkpt lat="37.207698" lon="-6.053854">
        <ele>3.468</ele>
        <time>2015-06-18T07:12:09Z</time>
      </trkpt>
      <trkpt lat="37.207506" lon="-6.054082">
        <ele>3.484</ele>
        <time>2015-06-18T07:12:14Z</time>
      </trkpt>
      <trkpt lat="37.207227" lon="-6.054416">
        <ele>3.450</ele>
        <time>2015-06-18T07:12:21Z</time>
      </trkpt>
      <trkpt lat="37.206902" lon="-6.054812">
        <ele>3.429</ele>
        <time>2015-06-18T07:12:29Z</time>
      </trkpt>
      <trkpt lat="37.206749" lon="-6.054992">
        <ele>3.412</ele>
        <time>2015-06-18T07:12:33Z</time>
      </trkpt>
      <trkpt lat="37.206651" lon="-6.055124">
        <ele>3.484</ele>
        <time>2015-06-18T07:12:36Z</time>
      </trkpt>
      <trkpt lat="37.206408" lon="-6.055406">
        <ele>3.427</ele>
        <time>2015-06-18T07:12:43Z</time>
      </trkpt>
      <trkpt lat="37.206076" lon="-6.055810">
        <ele>3.461</ele>
        <time>2015-06-18T07:12:52Z</time>
      </trkpt>
      <trkpt lat="37.206040" lon="-6.055857">
        <ele>3.462</ele>
        <time>2015-06-18T07:12:53Z</time>
      </trkpt>
      <trkpt lat="37.205839" lon="-6.056096">
        <ele>3.483</ele>
        <time>2015-06-18T07:12:58Z</time>
      </trkpt>
      <trkpt lat="37.205632" lon="-6.056345">
        <ele>3.411</ele>
        <time>2015-06-18T07:13:03Z</time>
      </trkpt>
      <trkpt lat="37.205553" lon="-6.056442">
        <ele>3.408</ele>
        <time>2015-06-18T07:13:05Z</time>
      </trkpt>
      <trkpt lat="37.205151" lon="-6.056928">
        <ele>3.497</ele>
        <time>2015-06-18T07:13:15Z</time>
      </trkpt>
      <trkpt lat="37.204875" lon="-6.057257">
        <ele>3.493</ele>
        <time>2015-06-18T07:13:22Z</time>
      </trkpt>
      <trkpt lat="37.204610" lon="-6.057598">
        <ele>3.499</ele>
        <time>2015-06-18T07:13:29Z</time>
      </trkpt>
      <trkpt lat="37.204451" lon="-6.057790">
        <ele>3.428</ele>
        <time>2015-06-18T07:13:33Z</time>
      </trkpt>
      <trkpt lat="37.204205" lon="-6.058077">
        <ele>3.441</ele>
        <time>2015-06-18T07:13:39Z</time>
      </trkpt>
      <trkpt lat="37.204038" lon="-6.058273">
        <ele>3.443</ele>
        <time>2015-06-18T07:13:43Z</time>
      </trkpt>
      <trkpt lat="37.203996" lon="-6.058323">
        <ele>3.486</ele>
        <time>2015-06-18T07:13:44Z</time>
      </trkpt>
      <trkpt lat="37.203645" lon="-6.058755">
        <ele>3.490</ele>
        <time>2015-06-18T07:13:52Z</time>
      </trkpt>
      <trkpt lat="37.203370" lon="-6.059081">
        <ele>3.412</ele>
        <time>2015-06-18T07:13:58Z</time>
      </trkpt>
      <trkpt lat="37.203188" lon="-6.059298">
        <ele>3.432</ele>
        <time>2015-06-18T07:14:02Z</time>
      </trkpt>
      <trkpt lat="37.202791" lon="-6.059783">
        <ele>3.405</ele>
        <time>2015-06-18T07:14:11Z</time>
      </trkpt>
      <trkpt lat="37.202664" lon="-6.059940">
        <ele>3.408</ele>
        <time>2015-06-18T07:14:14Z</time>
      </trkpt>
      <trkpt lat="37.202311" lon="-6.060366">
        <ele>3.492</ele>
        <time>2015-06-18T07:14:22Z</time>
      </trkpt>
      <trkpt lat="37.201963" lon="-6.060785">
        <ele>3.478</ele>
        <time>2015-06-18T07:14:31Z</time>
      </trkpt>
      <trkpt lat="37.201570" lon="-6.061260">
        <ele>3.444</ele>
        <time>2015-06-18T07:14:40Z</time>
      </trkpt>
      <trkpt lat="37.201527" lon="-6.061312">
        <ele>3.483</ele>
        <time>2015-06-18T07:14:41Z</time>
      </trkpt>
      <trkpt lat="37.201136" lon="-6.061781">
        <ele>3.436</ele>
        <time>2015-06-18T07:14:50Z</time>
      </trkpt>
      <trkpt lat="37.200776" lon="-6.062209">
        <ele>3.428</ele>
        <time>2015-06-18T07:14:58Z</time>
      </trkpt>
      <trkpt lat="37.200600" lon="-6.062428">
        <ele>3.451</ele>
        <time>2015-06-18T07:15:02Z</time>
      </trkpt>
      <trkpt lat="37.200460" lon="-6.062598">
        <ele>3.475</ele>
        <time>2015-06-18T07:15:05Z</time>
      </trkpt>
      <trkpt lat="37.200366" lon="-6.062708">
        <ele>3.411</ele>
        <time>2015-06-18T07:15:07Z</time>
      </trkpt>
      <trkpt lat="37.200003" lon="-6.063153">
        <ele>3.421</ele>
        <time>2015-06-18T07:15:15Z</time>
      </trkpt>
      <trkpt lat="37.199643" lon="-6.063587">
        <ele>3.403</ele>
        <time>2015-06-18T07:15:23Z</time>
      </trkpt>
      <trkpt lat="37.199374" lon="-6.063919">
        <ele>3.408</ele>
        <time>2015-06-18T07:15:29Z</time>
      </trkpt>
      <trkpt lat="37.199001" lon="-6.064367">
        <ele>3.472</ele>
        <time>2015-06-18T07:15:37Z</time>
      </trkpt>
      <trkpt lat="37.198582" lon="-6.064880">
        <ele>3.478</ele>
        <time>2015-06-18T07:15:46Z</time>
      </trkpt>
      <trkpt lat="37.198211" lon="-6.065328">
        <ele>3.474</ele>
        <time>2015-06-18T07:15:54Z</time>
      </trkpt>
      <trkpt lat="37.197890" lon="-6.065720">
        <ele>3.453</ele>
        <time>2015-06-18T07:16:01Z</time>
      </trkpt>
      <trkpt lat="37.197531" lon="-6.066148">
        <ele>3.496</ele>
        <time>2015-06-18T07:16:09Z</time>
      </trkpt>
      <trkpt lat="37.197212" lon="-6.066533">
        <ele>3.498</ele>
        <time>2015-06-18T07:16:16Z</time>
      </trkpt>
      <trkpt lat="37.196805" lon="-6.067027">
        <ele>3.491</ele>
        <time>2015-06-18T07:16:25Z</time>
      </trkpt>
      <trkpt lat="37.196398" lon="-6.067519">
        <ele>3.435</ele>
        <time>2015-06-18T07:16:34Z</time>
      </trkpt>
      <trkpt lat="37.195985" lon="-6.068017">
        <ele>3.484</ele>
        <time>2015-06-18T07:16:43Z</time>
      </trkpt>
      <trkpt lat="37.195938" lon="-6.068073">
        <ele>3.407</ele>
        <time>2015-06-18T07:16:44Z</time>
      </trkpt>
      <trkpt lat="37.195523" lon="-6.068580">
        <ele>3.417</ele>
        <time>2015-06-18T07:16:53Z</time>
      </trkpt>
      <trkpt lat="37.195152" lon="-6.069031">
        <ele>3.408</ele>
        <time>2015-06-18T07:17:01Z</time>
      </trkpt>
      <trkpt lat="37.194738" lon="-6.069525">
        <ele>3.429</ele>
        <time>2015-06-18T07:17:10Z</time>
      </trkpt>
      <trkpt lat="37.194330" lon="-6.070018">
        <ele>3.425</ele>
        <time>2015-06-18T07:17:19Z</time>
      </trkpt>
      <trkpt lat="37.193963" lon="-6.070460">
        <ele>3.491</ele>
        <time>2015-06-18T07:17:27Z</time>
      </trkpt>
      <trkpt lat="37.193633" lon="-6.070862">
        <ele>3.470</ele>
        <time>2015-06-18T07:17:34Z</time>
      </trkpt>
      <trkpt lat="37.193586" lon="-6.070920">
        <ele>3.483</ele>
        <time>2015-06-18T07:17:35Z</time>
      </trkpt>
      <trkpt lat="37.193218" lon="-6.071367">
        <ele>3.415</ele>
        <time>2015-06-18T07:17:43Z</time>
      </trkpt>
      <trkpt lat="37.192850" lon="-6.071818">
        <ele>3.428</ele>
        <time>2015-06-18T07:17:51Z</time>
      </trkpt>
      <trkpt lat="37.192471" lon="-6.072273">
        <ele>3.442</ele>
        <time>2015-06-18T07:17:59Z</time>
      </trkpt>
      <trkpt lat="37.192233" lon="-6.072560">
        <ele>2.896</ele>
        <time>2015-06-18T07:18:04Z</time>
      </trkpt>
      <trkpt lat="37.192186" lon="-6.072617">
        <ele>2.231</ele>
        <time>2015-06-18T07:18:05Z</time>
      </trkpt>
      <trkpt lat="37.192138" lon="-6.072674">
        <ele>1.624</ele>
        <time>2015-06-18T07:18:06Z</time>
      </trkpt>
      <trkpt lat="37.192093" lon="-6.072730">
        <ele>1.208</ele>
        <time>2015-06-18T07:18:07Z</time>
      </trkpt>
      <trkpt lat="37.192046" lon="-6.072784">
        <ele>0.610</ele>
        <time>2015-06-18T07:18:08Z</time>
      </trkpt>
      <trkpt lat="37.191834" lon="-6.073033">
        <ele>1.816</ele>
        <time>2015-06-18T07:18:11Z</time>
      </trkpt>
      <trkpt lat="37.191796" lon="-6.073082">
        <ele>2.492</ele>
        <time>2015-06-18T07:18:15Z</time>
      </trkpt>
      <trkpt lat="37.191757" lon="-6.073128">
        <ele>2.881</ele>
        <time>2015-06-18T07:18:16Z</time>
      </trkpt>
      <trkpt lat="37.191721" lon="-6.073177">
        <ele>2.234</ele>
        <time>2015-06-18T07:18:17Z</time>
      </trkpt>
      <trkpt lat="37.191681" lon="-6.073225">
        <ele>1.896</ele>
        <time>2015-06-18T07:18:18Z</time>
      </trkpt>
      <trkpt lat="37.191637" lon="-6.073270">
        <ele>1.419</ele>
        <time>2015-06-18T07:18:19Z</time>
      </trkpt>
      <trkpt lat="37.191592" lon="-6.073321">
        <ele>0.863</ele>
        <time>2015-06-18T07:18:20Z</time>
      </trkpt>
      <trkpt lat="37.191549" lon="-6.073369">
        <ele>0.476</ele>
        <time>2015-06-18T07:18:21Z</time>
      </trkpt>
      <trkpt lat="37.191506" lon="-6.073422">
        <ele>0.490</ele>
        <time>2015-06-18T07:18:22Z</time>
      </trkpt>
      <trkpt lat="37.191467" lon="-6.073475">
        <ele>1.019</ele>
        <time>2015-06-18T07:18:23Z</time>
      </trkpt>
      <trkpt lat="37.191430" lon="-6.073527">
        <ele>1.408</ele>
        <time>2015-06-18T07:18:24Z</time>
      </trkpt>
      <trkpt lat="37.191391" lon="-6.073575">
        <ele>1.868</ele>
        <time>2015-06-18T07:18:25Z</time>
      </trkpt>
      <trkpt lat="37.191350" lon="-6.073623">
        <ele>2.484</ele>
        <time>2015-06-18T07:18:26Z</time>
      </trkpt>
      <trkpt lat="37.191308" lon="-6.073668">
        <ele>2.880</ele>
        <time>2015-06-18T07:18:27Z</time>
      </trkpt>
      <trkpt lat="37.191267" lon="-6.073716">
        <ele>2.879</ele>
        <time>2015-06-18T07:18:28Z</time>
      </trkpt>
      <trkpt lat="37.191019" lon="-6.074012">
        <ele>2.892</ele>
        <time>2015-06-18T07:18:34Z</time>
      </trkpt>
      <trkpt lat="37.190688" lon="-6.074420">
        <ele>2.884</ele>
        <time>2015-06-18T07:18:42Z</time>
      </trkpt>
      <trkpt lat="37.190350" lon="-6.074833">
        <ele>2.817</ele>
        <time>2015-06-18T07:18:50Z</time>
      </trkpt>
      <trkpt lat="37.190068" lon="-6.075126">
        <ele>2.891</ele>
        <time>2015-06-18T07:18:56Z</time>
      </trkpt>
      <trkpt lat="37.189807" lon="-6.075436">
        <ele>2.871</ele>
        <time>2015-06-18T07:19:02Z</time>
      </trkpt>
      <trkpt lat="37.189404" lon="-6.075929">
        <ele>2.841</ele>
        <time>2015-06-18T07:19:11Z</time>
      </trkpt>
      <trkpt lat="37.189097" lon="-6.076307">
        <ele>2.815</ele>
        <time>2015-06-18T07:19:18Z</time>
      </trkpt>
      <trkpt lat="37.188896" lon="-6.076557">
        <ele>2.808</ele>
        <time>2015-06-18T07:19:23Z</time>
      </trkpt>
      <trkpt lat="37.188811" lon="-6.076642">
        <ele>2.868</ele>
        <time>2015-06-18T07:19:25Z</time>
      </trkpt>
      <trkpt lat="37.188446" lon="-6.076937">
        <ele>2.874</ele>
        <time>2015-06-18T07:19:32Z</time>
      </trkpt>
      <trkpt lat="37.188313" lon="-6.077003">
        <ele>2.810</ele>
        <time>2015-06-18T07:19:34Z</time>
      </trkpt>
      <trkpt lat="37.188169" lon="-6.077056">
        <ele>2.849</ele>
        <time>2015-06-18T07:19:36Z</time>
      </trkpt>
      <trkpt lat="37.188099" lon="-6.077079">
        <ele>2.842</ele>
        <time>2015-06-18T07:19:37Z</time>
      </trkpt>
      <trkpt lat="37.187820" lon="-6.077174">
        <ele>2.864</ele>
        <time>2015-06-18T07:19:41Z</time>
      </trkpt>
      <trkpt lat="37.187469" lon="-6.077298">
        <ele>2.867</ele>
        <time>2015-06-18T07:19:46Z</time>
      </trkpt>
      <trkpt lat="37.186921" lon="-6.077501">
        <ele>2.851</ele>
        <time>2015-06-18T07:19:54Z</time>
      </trkpt>
      <trkpt lat="37.186856" lon="-6.077524">
        <ele>2.819</ele>
        <time>2015-06-18T07:19:55Z</time>
      </trkpt>
      <trkpt lat="37.186292" lon="-6.077736">
        <ele>2.809</ele>
        <time>2015-06-18T07:20:04Z</time>
      </trkpt>
      <trkpt lat="37.185815" lon="-6.077907">
        <ele>2.819</ele>
        <time>2015-06-18T07:20:12Z</time>
      </trkpt>
      <trkpt lat="37.185464" lon="-6.077925">
        <ele>2.808</ele>
        <time>2015-06-18T07:20:18Z</time>
      </trkpt>
      <trkpt lat="37.185132" lon="-6.077873">
        <ele>2.822</ele>
        <time>2015-06-18T07:20:24Z</time>
      </trkpt>
      <trkpt lat="37.184749" lon="-6.077818">
        <ele>2.898</ele>
        <time>2015-06-18T07:20:31Z</time>
      </trkpt>
      <trkpt lat="37.184411" lon="-6.077811">
        <ele>2.454</ele>
        <time>2015-06-18T07:20:37Z</time>
      </trkpt>
      <trkpt lat="37.184355" lon="-6.077826">
        <ele>2.013</ele>
        <time>2015-06-18T07:20:38Z</time>
      </trkpt>
      <trkpt lat="37.184299" lon="-6.077841">
        <ele>1.666</ele>
        <time>2015-06-18T07:20:39Z</time>
      </trkpt>
      <trkpt lat="37.184242" lon="-6.077855">
        <ele>1.248</ele>
        <time>2015-06-18T07:20:40Z</time>
      </trkpt>
      <trkpt lat="37.184188" lon="-6.077867">
        <ele>0.841</ele>
        <time>2015-06-18T07:20:41Z</time>
      </trkpt>
      <trkpt lat="37.184082" lon="-6.077918">
        <ele>0.845</ele>
        <time>2015-06-18T07:20:43Z</time>
      </trkpt>
      <trkpt lat="37.184034" lon="-6.077956">
        <ele>0.897</ele>
        <time>2015-06-18T07:20:44Z</time>
      </trkpt>
      <trkpt lat="37.183803" lon="-6.078178">
        <ele>0.823</ele>
        <time>2015-06-18T07:20:49Z</time>
      </trkpt>
      <trkpt lat="37.183767" lon="-6.078235">
        <ele>0.825</ele>
        <time>2015-06-18T07:20:50Z</time>
      </trkpt>
      <trkpt lat="37.183632" lon="-6.078374">
        <ele>0.808</ele>
        <time>2015-06-18T07:20:53Z</time>
      </trkpt>
      <trkpt lat="37.183538" lon="-6.078461">
        <ele>0.870</ele>
        <time>2015-06-18T07:20:55Z</time>
      </trkpt>
      <trkpt lat="37.183362" lon="-6.078613">
        <ele>0.836</ele>
        <time>2015-06-18T07:20:59Z</time>
      </trkpt>
      <trkpt lat="37.183284" lon="-6.078682">
        <ele>0.832</ele>
        <time>2015-06-18T07:21:01Z</time>
      </trkpt>
      <trkpt lat="37.182998" lon="-6.078930">
        <ele>0.811</ele>
        <time>2015-06-18T07:21:08Z</time>
      </trkpt>
      <trkpt lat="37.182705" lon="-6.079198">
        <ele>0.884</ele>
        <time>2015-06-18T07:21:15Z</time>
      </trkpt>
      <trkpt lat="37.182294" lon="-6.079559">
        <ele>0.856</ele>
        <time>2015-06-18T07:21:24Z</time>
      </trkpt>
      <trkpt lat="37.182211" lon="-6.079630">
        <ele>0.429</ele>
        <time>2015-06-18T07:21:26Z</time>
      </trkpt>
      <trkpt lat="37.182171" lon="-6.079667">
        <ele>3.093</ele>
        <time>2015-06-18T07:21:27Z</time>
      </trkpt>
      <trkpt lat="37.182059" lon="-6.079770">
        <ele>3.088</ele>
        <time>2015-06-18T07:21:30Z</time>
      </trkpt>
      <trkpt lat="37.182020" lon="-6.079805">
        <ele>3.024</ele>
        <time>2015-06-18T07:21:31Z</time>
      </trkpt>
      <trkpt lat="37.181977" lon="-6.079839">
        <ele>4.426</ele>
        <time>2015-06-18T07:21:32Z</time>
      </trkpt>
      <trkpt lat="37.181938" lon="-6.079875">
        <ele>3.808</ele>
        <time>2015-06-18T07:21:33Z</time>
      </trkpt>
      <trkpt lat="37.181895" lon="-6.079913">
        <ele>3.449</ele>
        <time>2015-06-18T07:21:34Z</time>
      </trkpt>
      <trkpt lat="37.181760" lon="-6.080030">
        <ele>3.485</ele>
        <time>2015-06-18T07:21:37Z</time>
      </trkpt>
      <trkpt lat="37.181716" lon="-6.080071">
        <ele>3.421</ele>
        <time>2015-06-18T07:21:38Z</time>
      </trkpt>
      <trkpt lat="37.181349" lon="-6.080385">
        <ele>3.410</ele>
        <time>2015-06-18T07:21:46Z</time>
      </trkpt>
      <trkpt lat="37.180984" lon="-6.080708">
        <ele>3.453</ele>
        <time>2015-06-18T07:21:54Z</time>
      </trkpt>
      <trkpt lat="37.180617" lon="-6.081024">
        <ele>3.465</ele>
        <time>2015-06-18T07:22:02Z</time>
      </trkpt>
      <trkpt lat="37.180212" lon="-6.081383">
        <ele>3.468</ele>
        <time>2015-06-18T07:22:11Z</time>
      </trkpt>
      <trkpt lat="37.179834" lon="-6.081715">
        <ele>3.462</ele>
        <time>2015-06-18T07:22:19Z</time>
      </trkpt>
      <trkpt lat="37.179549" lon="-6.081969">
        <ele>3.458</ele>
        <time>2015-06-18T07:22:25Z</time>
      </trkpt>
      <trkpt lat="37.179155" lon="-6.082314">
        <ele>3.452</ele>
        <time>2015-06-18T07:22:33Z</time>
      </trkpt>
      <trkpt lat="37.178757" lon="-6.082660">
        <ele>3.417</ele>
        <time>2015-06-18T07:22:41Z</time>
      </trkpt>
      <trkpt lat="37.178449" lon="-6.082929">
        <ele>3.408</ele>
        <time>2015-06-18T07:22:47Z</time>
      </trkpt>
      <trkpt lat="37.178141" lon="-6.083199">
        <ele>3.476</ele>
        <time>2015-06-18T07:22:53Z</time>
      </trkpt>
      <trkpt lat="37.178091" lon="-6.083246">
        <ele>3.472</ele>
        <time>2015-06-18T07:22:54Z</time>
      </trkpt>
      <trkpt lat="37.177680" lon="-6.083605">
        <ele>3.438</ele>
        <time>2015-06-18T07:23:02Z</time>
      </trkpt>
      <trkpt lat="37.177224" lon="-6.084004">
        <ele>3.477</ele>
        <time>2015-06-18T07:23:11Z</time>
      </trkpt>
      <trkpt lat="37.177174" lon="-6.084051">
        <ele>3.430</ele>
        <time>2015-06-18T07:23:12Z</time>
      </trkpt>
      <trkpt lat="37.176758" lon="-6.084416">
        <ele>3.432</ele>
        <time>2015-06-18T07:23:20Z</time>
      </trkpt>
      <trkpt lat="37.176297" lon="-6.084812">
        <ele>3.455</ele>
        <time>2015-06-18T07:23:29Z</time>
      </trkpt>
      <trkpt lat="37.175961" lon="-6.085088">
        <ele>3.439</ele>
        <time>2015-06-18T07:23:36Z</time>
      </trkpt>
      <trkpt lat="37.175658" lon="-6.085346">
        <ele>3.441</ele>
        <time>2015-06-18T07:23:42Z</time>
      </trkpt>
      <trkpt lat="37.175554" lon="-6.085436">
        <ele>3.481</ele>
        <time>2015-06-18T07:23:44Z</time>
      </trkpt>
      <trkpt lat="37.175203" lon="-6.085728">
        <ele>3.409</ele>
        <time>2015-06-18T07:23:51Z</time>
      </trkpt>
      <trkpt lat="37.174863" lon="-6.086025">
        <ele>3.408</ele>
        <time>2015-06-18T07:23:58Z</time>
      </trkpt>
      <trkpt lat="37.174521" lon="-6.086328">
        <ele>3.445</ele>
        <time>2015-06-18T07:24:05Z</time>
      </trkpt>
      <trkpt lat="37.174081" lon="-6.086715">
        <ele>3.461</ele>
        <time>2015-06-18T07:24:14Z</time>
      </trkpt>
      <trkpt lat="37.173778" lon="-6.086972">
        <ele>3.497</ele>
        <time>2015-06-18T07:24:20Z</time>
      </trkpt>
      <trkpt lat="37.173429" lon="-6.087288">
        <ele>3.446</ele>
        <time>2015-06-18T07:24:27Z</time>
      </trkpt>
      <trkpt lat="37.172980" lon="-6.087693">
        <ele>3.499</ele>
        <time>2015-06-18T07:24:36Z</time>
      </trkpt>
      <trkpt lat="37.172719" lon="-6.087919">
        <ele>3.471</ele>
        <time>2015-06-18T07:24:41Z</time>
      </trkpt>
      <trkpt lat="37.172669" lon="-6.087963">
        <ele>3.234</ele>
        <time>2015-06-18T07:24:42Z</time>
      </trkpt>
      <trkpt lat="37.172617" lon="-6.088002">
        <ele>3.088</ele>
        <time>2015-06-18T07:24:43Z</time>
      </trkpt>
      <trkpt lat="37.172562" lon="-6.088046">
        <ele>2.827</ele>
        <time>2015-06-18T07:24:44Z</time>
      </trkpt>
      <trkpt lat="37.172512" lon="-6.088091">
        <ele>2.868</ele>
        <time>2015-06-18T07:24:45Z</time>
      </trkpt>
      <trkpt lat="37.172359" lon="-6.088221">
        <ele>2.814</ele>
        <time>2015-06-18T07:24:48Z</time>
      </trkpt>
      <trkpt lat="37.171890" lon="-6.088615">
        <ele>2.808</ele>
        <time>2015-06-18T07:24:57Z</time>
      </trkpt>
      <trkpt lat="37.171474" lon="-6.088955">
        <ele>2.863</ele>
        <time>2015-06-18T07:25:05Z</time>
      </trkpt>
      <trkpt lat="37.171202" lon="-6.089150">
        <ele>2.879</ele>
        <time>2015-06-18T07:25:10Z</time>
      </trkpt>
      <trkpt lat="37.171142" lon="-6.089173">
        <ele>2.895</ele>
        <time>2015-06-18T07:25:11Z</time>
      </trkpt>
      <trkpt lat="37.170977" lon="-6.089300">
        <ele>2.894</ele>
        <time>2015-06-18T07:25:14Z</time>
      </trkpt>
      <trkpt lat="37.170925" lon="-6.089341">
        <ele>2.867</ele>
        <time>2015-06-18T07:25:15Z</time>
      </trkpt>
      <trkpt lat="37.170563" lon="-6.089635">
        <ele>2.819</ele>
        <time>2015-06-18T07:25:22Z</time>
      </trkpt>
      <trkpt lat="37.170141" lon="-6.089974">
        <ele>2.872</ele>
        <time>2015-06-18T07:25:30Z</time>
      </trkpt>
      <trkpt lat="37.169670" lon="-6.090351">
        <ele>2.846</ele>
        <time>2015-06-18T07:25:39Z</time>
      </trkpt>
      <trkpt lat="37.169306" lon="-6.090647">
        <ele>2.819</ele>
        <time>2015-06-18T07:25:46Z</time>
      </trkpt>
      <trkpt lat="37.168937" lon="-6.090941">
        <ele>2.809</ele>
        <time>2015-06-18T07:25:53Z</time>
      </trkpt>
      <trkpt lat="37.168883" lon="-6.090981">
        <ele>2.819</ele>
        <time>2015-06-18T07:25:54Z</time>
      </trkpt>
      <trkpt lat="37.168476" lon="-6.091308">
        <ele>2.808</ele>
        <time>2015-06-18T07:26:02Z</time>
      </trkpt>
      <trkpt lat="37.168170" lon="-6.091560">
        <ele>2.822</ele>
        <time>2015-06-18T07:26:08Z</time>
      </trkpt>
      <trkpt lat="37.168071" lon="-6.091642">
        <ele>2.858</ele>
        <time>2015-06-18T07:26:10Z</time>
      </trkpt>
      <trkpt lat="37.167716" lon="-6.091932">
        <ele>2.874</ele>
        <time>2015-06-18T07:26:17Z</time>
      </trkpt>
      <trkpt lat="37.167450" lon="-6.092140">
        <ele>2.863</ele>
        <time>2015-06-18T07:26:23Z</time>
      </trkpt>
      <trkpt lat="37.167245" lon="-6.092305">
        <ele>2.846</ele>
        <time>2015-06-18T07:26:28Z</time>
      </trkpt>
      <trkpt lat="37.167206" lon="-6.092347">
        <ele>2.818</ele>
        <time>2015-06-18T07:26:29Z</time>
      </trkpt>
      <trkpt lat="37.167162" lon="-6.092380">
        <ele>2.891</ele>
        <time>2015-06-18T07:26:30Z</time>
      </trkpt>
      <trkpt lat="37.166939" lon="-6.092555">
        <ele>2.845</ele>
        <time>2015-06-18T07:26:35Z</time>
      </trkpt>
      <trkpt lat="37.166624" lon="-6.092811">
        <ele>2.826</ele>
        <time>2015-06-18T07:26:42Z</time>
      </trkpt>
      <trkpt lat="37.166314" lon="-6.093070">
        <ele>2.847</ele>
        <time>2015-06-18T07:26:49Z</time>
      </trkpt>
      <trkpt lat="37.166241" lon="-6.093130">
        <ele>2.811</ele>
        <time>2015-06-18T07:26:51Z</time>
      </trkpt>
      <trkpt lat="37.166141" lon="-6.093212">
        <ele>2.808</ele>
        <time>2015-06-18T07:26:54Z</time>
      </trkpt>
      <trkpt lat="37.166068" lon="-6.093252">
        <ele>2.853</ele>
        <time>2015-06-18T07:26:56Z</time>
      </trkpt>
      <trkpt lat="37.165952" lon="-6.093340">
        <ele>2.819</ele>
        <time>2015-06-18T07:26:59Z</time>
      </trkpt>
      <trkpt lat="37.165801" lon="-6.093471">
        <ele>2.885</ele>
        <time>2015-06-18T07:27:03Z</time>
      </trkpt>
      <trkpt lat="37.165734" lon="-6.093557">
        <ele>2.844</ele>
        <time>2015-06-18T07:27:05Z</time>
      </trkpt>
      <trkpt lat="37.165662" lon="-6.093642">
        <ele>2.887</ele>
        <time>2015-06-18T07:27:07Z</time>
      </trkpt>
      <trkpt lat="37.165512" lon="-6.093774">
        <ele>2.849</ele>
        <time>2015-06-18T07:27:11Z</time>
      </trkpt>
      <trkpt lat="37.165209" lon="-6.094023">
        <ele>2.862</ele>
        <time>2015-06-18T07:27:19Z</time>
      </trkpt>
      <trkpt lat="37.165127" lon="-6.094085">
        <ele>2.876</ele>
        <time>2015-06-18T07:27:21Z</time>
      </trkpt>
      <trkpt lat="37.165048" lon="-6.094144">
        <ele>2.864</ele>
        <time>2015-06-18T07:27:23Z</time>
      </trkpt>
      <trkpt lat="37.165008" lon="-6.094176">
        <ele>2.806</ele>
        <time>2015-06-18T07:27:24Z</time>
      </trkpt>
      <trkpt lat="37.164666" lon="-6.094456">
        <ele>2.816</ele>
        <time>2015-06-18T07:27:32Z</time>
      </trkpt>
      <trkpt lat="37.164265" lon="-6.094782">
        <ele>2.808</ele>
        <time>2015-06-18T07:27:41Z</time>
      </trkpt>
      <trkpt lat="37.163990" lon="-6.094998">
        <ele>2.857</ele>
        <time>2015-06-18T07:27:47Z</time>
      </trkpt>
      <trkpt lat="37.163945" lon="-6.095035">
        <ele>2.853</ele>
        <time>2015-06-18T07:27:48Z</time>
      </trkpt>
      <trkpt lat="37.163761" lon="-6.095185">
        <ele>2.899</ele>
        <time>2015-06-18T07:27:52Z</time>
      </trkpt>
      <trkpt lat="37.163625" lon="-6.095295">
        <ele>2.858</ele>
        <time>2015-06-18T07:27:55Z</time>
      </trkpt>
      <trkpt lat="37.163255" lon="-6.095592">
        <ele>2.821</ele>
        <time>2015-06-18T07:28:03Z</time>
      </trkpt>
      <trkpt lat="37.162936" lon="-6.095857">
        <ele>2.833</ele>
        <time>2015-06-18T07:28:10Z</time>
      </trkpt>
      <trkpt lat="37.162516" lon="-6.096187">
        <ele>2.836</ele>
        <time>2015-06-18T07:28:19Z</time>
      </trkpt>
      <trkpt lat="37.162150" lon="-6.096483">
        <ele>2.890</ele>
        <time>2015-06-18T07:28:27Z</time>
      </trkpt>
      <trkpt lat="37.161778" lon="-6.096787">
        <ele>2.883</ele>
        <time>2015-06-18T07:28:35Z</time>
      </trkpt>
      <trkpt lat="37.161435" lon="-6.097064">
        <ele>2.825</ele>
        <time>2015-06-18T07:28:42Z</time>
      </trkpt>
      <trkpt lat="37.160994" lon="-6.097422">
        <ele>2.817</ele>
        <time>2015-06-18T07:28:51Z</time>
      </trkpt>
      <trkpt lat="37.160604" lon="-6.097731">
        <ele>2.808</ele>
        <time>2015-06-18T07:28:59Z</time>
      </trkpt>
      <trkpt lat="37.160264" lon="-6.097998">
        <ele>2.849</ele>
        <time>2015-06-18T07:29:06Z</time>
      </trkpt>
      <trkpt lat="37.160055" lon="-6.098083">
        <ele>2.825</ele>
        <time>2015-06-18T07:29:10Z</time>
      </trkpt>
      <trkpt lat="37.159935" lon="-6.098107">
        <ele>2.881</ele>
        <time>2015-06-18T07:29:12Z</time>
      </trkpt>
      <trkpt lat="37.159824" lon="-6.098151">
        <ele>2.820</ele>
        <time>2015-06-18T07:29:14Z</time>
      </trkpt>
      <trkpt lat="37.159600" lon="-6.098236">
        <ele>2.813</ele>
        <time>2015-06-18T07:29:18Z</time>
      </trkpt>
      <trkpt lat="37.159197" lon="-6.098401">
        <ele>2.815</ele>
        <time>2015-06-18T07:29:25Z</time>
      </trkpt>
      <trkpt lat="37.158823" lon="-6.098517">
        <ele>2.868</ele>
        <time>2015-06-18T07:29:31Z</time>
      </trkpt>
      <trkpt lat="37.158308" lon="-6.098708">
        <ele>2.842</ele>
        <time>2015-06-18T07:29:40Z</time>
      </trkpt>
      <trkpt lat="37.158035" lon="-6.098813">
        <ele>2.852</ele>
        <time>2015-06-18T07:29:46Z</time>
      </trkpt>
      <trkpt lat="37.157832" lon="-6.098888">
        <ele>2.853</ele>
        <time>2015-06-18T07:29:51Z</time>
      </trkpt>
      <trkpt lat="37.157792" lon="-6.098906">
        <ele>2.808</ele>
        <time>2015-06-18T07:29:52Z</time>
      </trkpt>
      <trkpt lat="37.157748" lon="-6.098917">
        <ele>2.808</ele>
        <time>2015-06-18T07:29:53Z</time>
      </trkpt>
      <trkpt lat="37.157516" lon="-6.098995">
        <ele>2.856</ele>
        <time>2015-06-18T07:29:58Z</time>
      </trkpt>
      <trkpt lat="37.157185" lon="-6.099118">
        <ele>2.842</ele>
        <time>2015-06-18T07:30:05Z</time>
      </trkpt>
      <trkpt lat="37.157134" lon="-6.099134">
        <ele>2.858</ele>
        <time>2015-06-18T07:30:06Z</time>
      </trkpt>
      <trkpt lat="37.156787" lon="-6.099261">
        <ele>2.867</ele>
        <time>2015-06-18T07:30:13Z</time>
      </trkpt>
      <trkpt lat="37.156318" lon="-6.099441">
        <ele>2.850</ele>
        <time>2015-06-18T07:30:22Z</time>
      </trkpt>
      <trkpt lat="37.155889" lon="-6.099611">
        <ele>2.842</ele>
        <time>2015-06-18T07:30:30Z</time>
      </trkpt>
      <trkpt lat="37.155503" lon="-6.099725">
        <ele>2.845</ele>
        <time>2015-06-18T07:30:37Z</time>
      </trkpt>
      <trkpt lat="37.155446" lon="-6.099713">
        <ele>2.889</ele>
        <time>2015-06-18T07:30:38Z</time>
      </trkpt>
      <trkpt lat="37.155284" lon="-6.099663">
        <ele>2.871</ele>
        <time>2015-06-18T07:30:41Z</time>
      </trkpt>
      <trkpt lat="37.154817" lon="-6.099474">
        <ele>2.841</ele>
        <time>2015-06-18T07:30:50Z</time>
      </trkpt>
      <trkpt lat="37.154712" lon="-6.099433">
        <ele>2.815</ele>
        <time>2015-06-18T07:30:52Z</time>
      </trkpt>
      <trkpt lat="37.154507" lon="-6.099361">
        <ele>2.808</ele>
        <time>2015-06-18T07:30:56Z</time>
      </trkpt>
      <trkpt lat="37.154110" lon="-6.099212">
        <ele>2.858</ele>
        <time>2015-06-18T07:31:04Z</time>
      </trkpt>
      <trkpt lat="37.153711" lon="-6.099057">
        <ele>2.814</ele>
        <time>2015-06-18T07:31:12Z</time>
      </trkpt>
      <trkpt lat="37.153309" lon="-6.098914">
        <ele>2.830</ele>
        <time>2015-06-18T07:31:20Z</time>
      </trkpt>
      <trkpt lat="37.152899" lon="-6.098757">
        <ele>2.819</ele>
        <time>2015-06-18T07:31:28Z</time>
      </trkpt>
      <trkpt lat="37.152492" lon="-6.098608">
        <ele>2.832</ele>
        <time>2015-06-18T07:31:36Z</time>
      </trkpt>
      <trkpt lat="37.152178" lon="-6.098501">
        <ele>2.874</ele>
        <time>2015-06-18T07:31:42Z</time>
      </trkpt>
      <trkpt lat="37.152024" lon="-6.098444">
        <ele>2.867</ele>
        <time>2015-06-18T07:31:45Z</time>
      </trkpt>
      <trkpt lat="37.151679" lon="-6.098323">
        <ele>2.851</ele>
        <time>2015-06-18T07:31:52Z</time>
      </trkpt>
      <trkpt lat="37.151493" lon="-6.098254">
        <ele>2.884</ele>
        <time>2015-06-18T07:31:57Z</time>
      </trkpt>
      <trkpt lat="37.151427" lon="-6.098229">
        <ele>2.807</ele>
        <time>2015-06-18T07:31:59Z</time>
      </trkpt>
      <trkpt lat="37.151186" lon="-6.098136">
        <ele>2.817</ele>
        <time>2015-06-18T07:32:06Z</time>
      </trkpt>
      <trkpt lat="37.151043" lon="-6.098084">
        <ele>2.808</ele>
        <time>2015-06-18T07:32:10Z</time>
      </trkpt>
      <trkpt lat="37.150970" lon="-6.098055">
        <ele>2.879</ele>
        <time>2015-06-18T07:32:12Z</time>
      </trkpt>
      <trkpt lat="37.150669" lon="-6.097953">
        <ele>2.835</ele>
        <time>2015-06-18T07:32:20Z</time>
      </trkpt>
      <trkpt lat="37.150359" lon="-6.097847">
        <ele>2.831</ele>
        <time>2015-06-18T07:32:27Z</time>
      </trkpt>
      <trkpt lat="37.150045" lon="-6.097726">
        <ele>2.830</ele>
        <time>2015-06-18T07:32:34Z</time>
      </trkpt>
      <trkpt lat="37.149954" lon="-6.097694">
        <ele>2.853</ele>
        <time>2015-06-18T07:32:36Z</time>
      </trkpt>
      <trkpt lat="37.149773" lon="-6.097610">
        <ele>2.865</ele>
        <time>2015-06-18T07:32:40Z</time>
      </trkpt>
      <trkpt lat="37.149586" lon="-6.097528">
        <ele>2.888</ele>
        <time>2015-06-18T07:32:44Z</time>
      </trkpt>
      <trkpt lat="37.149490" lon="-6.097501">
        <ele>2.872</ele>
        <time>2015-06-18T07:32:46Z</time>
      </trkpt>
      <trkpt lat="37.149435" lon="-6.097479">
        <ele>2.882</ele>
        <time>2015-06-18T07:32:47Z</time>
      </trkpt>
      <trkpt lat="37.149090" lon="-6.097350">
        <ele>2.843</ele>
        <time>2015-06-18T07:32:54Z</time>
      </trkpt>
      <trkpt lat="37.149040" lon="-6.097334">
        <ele>2.817</ele>
        <time>2015-06-18T07:32:55Z</time>
      </trkpt>
      <trkpt lat="37.148839" lon="-6.097274">
        <ele>2.808</ele>
        <time>2015-06-18T07:32:59Z</time>
      </trkpt>
      <trkpt lat="37.148634" lon="-6.097207">
        <ele>2.869</ele>
        <time>2015-06-18T07:33:03Z</time>
      </trkpt>
      <trkpt lat="37.148180" lon="-6.097024">
        <ele>2.865</ele>
        <time>2015-06-18T07:33:12Z</time>
      </trkpt>
      <trkpt lat="37.147711" lon="-6.096843">
        <ele>2.831</ele>
        <time>2015-06-18T07:33:21Z</time>
      </trkpt>
      <trkpt lat="37.147340" lon="-6.096700">
        <ele>2.880</ele>
        <time>2015-06-18T07:33:28Z</time>
      </trkpt>
      <trkpt lat="37.146864" lon="-6.096529">
        <ele>2.873</ele>
        <time>2015-06-18T07:33:37Z</time>
      </trkpt>
      <trkpt lat="37.146809" lon="-6.096497">
        <ele>2.885</ele>
        <time>2015-06-18T07:33:38Z</time>
      </trkpt>
      <trkpt lat="37.146628" lon="-6.096373">
        <ele>2.858</ele>
        <time>2015-06-18T07:33:42Z</time>
      </trkpt>
      <trkpt lat="37.146344" lon="-6.096179">
        <ele>2.882</ele>
        <time>2015-06-18T07:33:49Z</time>
      </trkpt>
      <trkpt lat="37.146258" lon="-6.096123">
        <ele>2.848</ele>
        <time>2015-06-18T07:33:51Z</time>
      </trkpt>
      <trkpt lat="37.146052" lon="-6.096029">
        <ele>2.861</ele>
        <time>2015-06-18T07:33:56Z</time>
      </trkpt>
      <trkpt lat="37.146013" lon="-6.096007">
        <ele>2.817</ele>
        <time>2015-06-18T07:33:57Z</time>
      </trkpt>
      <trkpt lat="37.145970" lon="-6.095988">
        <ele>2.808</ele>
        <time>2015-06-18T07:33:58Z</time>
      </trkpt>
      <trkpt lat="37.145740" lon="-6.095902">
        <ele>2.815</ele>
        <time>2015-06-18T07:34:03Z</time>
      </trkpt>
      <trkpt lat="37.145351" lon="-6.095763">
        <ele>2.841</ele>
        <time>2015-06-18T07:34:11Z</time>
      </trkpt>
      <trkpt lat="37.144983" lon="-6.095632">
        <ele>2.897</ele>
        <time>2015-06-18T07:34:18Z</time>
      </trkpt>
      <trkpt lat="37.144603" lon="-6.095487">
        <ele>2.816</ele>
        <time>2015-06-18T07:34:25Z</time>
      </trkpt>
      <trkpt lat="37.144549" lon="-6.095469">
        <ele>2.859</ele>
        <time>2015-06-18T07:34:26Z</time>
      </trkpt>
      <trkpt lat="37.144170" lon="-6.095330">
        <ele>2.871</ele>
        <time>2015-06-18T07:34:33Z</time>
      </trkpt>
      <trkpt lat="37.143748" lon="-6.095167">
        <ele>2.834</ele>
        <time>2015-06-18T07:34:41Z</time>
      </trkpt>
      <trkpt lat="37.143307" lon="-6.095002">
        <ele>2.888</ele>
        <time>2015-06-18T07:34:49Z</time>
      </trkpt>
      <trkpt lat="37.142956" lon="-6.094869">
        <ele>2.878</ele>
        <time>2015-06-18T07:34:55Z</time>
      </trkpt>
      <trkpt lat="37.142900" lon="-6.094845">
        <ele>2.833</ele>
        <time>2015-06-18T07:34:56Z</time>
      </trkpt>
      <trkpt lat="37.142486" lon="-6.094696">
        <ele>2.826</ele>
        <time>2015-06-18T07:35:03Z</time>
      </trkpt>
      <trkpt lat="37.141938" lon="-6.094490">
        <ele>2.808</ele>
        <time>2015-06-18T07:35:12Z</time>
      </trkpt>
      <trkpt lat="37.141448" lon="-6.094307">
        <ele>2.878</ele>
        <time>2015-06-18T07:35:20Z</time>
      </trkpt>
      <trkpt lat="37.140909" lon="-6.094121">
        <ele>2.834</ele>
        <time>2015-06-18T07:35:29Z</time>
      </trkpt>
      <trkpt lat="37.140845" lon="-6.094098">
        <ele>2.880</ele>
        <time>2015-06-18T07:35:30Z</time>
      </trkpt>
      <trkpt lat="37.140392" lon="-6.093944">
        <ele>2.839</ele>
        <time>2015-06-18T07:35:37Z</time>
      </trkpt>
      <trkpt lat="37.140119" lon="-6.093832">
        <ele>2.882</ele>
        <time>2015-06-18T07:35:41Z</time>
      </trkpt>
      <trkpt lat="37.139917" lon="-6.093755">
        <ele>2.814</ele>
        <time>2015-06-18T07:35:44Z</time>
      </trkpt>
      <trkpt lat="37.139403" lon="-6.093568">
        <ele>2.817</ele>
        <time>2015-06-18T07:35:52Z</time>
      </trkpt>
      <trkpt lat="37.138910" lon="-6.093401">
        <ele>2.881</ele>
        <time>2015-06-18T07:36:00Z</time>
      </trkpt>
      <trkpt lat="37.138497" lon="-6.093249">
        <ele>2.844</ele>
        <time>2015-06-18T07:36:07Z</time>
      </trkpt>
      <trkpt lat="37.138438" lon="-6.093225">
        <ele>2.805</ele>
        <time>2015-06-18T07:36:08Z</time>
      </trkpt>
      <trkpt lat="37.138019" lon="-6.093083">
        <ele>2.815</ele>
        <time>2015-06-18T07:36:15Z</time>
      </trkpt>
      <trkpt lat="37.137592" lon="-6.092933">
        <ele>2.808</ele>
        <time>2015-06-18T07:36:22Z</time>
      </trkpt>
      <trkpt lat="37.137178" lon="-6.092788">
        <ele>2.895</ele>
        <time>2015-06-18T07:36:29Z</time>
      </trkpt>
      <trkpt lat="37.137061" lon="-6.092752">
        <ele>2.821</ele>
        <time>2015-06-18T07:36:31Z</time>
      </trkpt>
      <trkpt lat="37.136843" lon="-6.092713">
        <ele>2.817</ele>
        <time>2015-06-18T07:36:35Z</time>
      </trkpt>
      <trkpt lat="37.136465" lon="-6.092581">
        <ele>2.876</ele>
        <time>2015-06-18T07:36:42Z</time>
      </trkpt>
      <trkpt lat="37.135978" lon="-6.092395">
        <ele>2.889</ele>
        <time>2015-06-18T07:36:51Z</time>
      </trkpt>
      <trkpt lat="37.135465" lon="-6.092211">
        <ele>2.861</ele>
        <time>2015-06-18T07:37:00Z</time>
      </trkpt>
      <trkpt lat="37.134942" lon="-6.092014">
        <ele>2.824</ele>
        <time>2015-06-18T07:37:09Z</time>
      </trkpt>
      <trkpt lat="37.134547" lon="-6.091855">
        <ele>2.848</ele>
        <time>2015-06-18T07:37:16Z</time>
      </trkpt>
      <trkpt lat="37.134496" lon="-6.091836">
        <ele>2.859</ele>
        <time>2015-06-18T07:37:17Z</time>
      </trkpt>
      <trkpt lat="37.134247" lon="-6.091749">
        <ele>2.803</ele>
        <time>2015-06-18T07:37:22Z</time>
      </trkpt>
      <trkpt lat="37.134068" lon="-6.091684">
        <ele>2.823</ele>
        <time>2015-06-18T07:37:26Z</time>
      </trkpt>
      <trkpt lat="37.133981" lon="-6.091655">
        <ele>2.808</ele>
        <time>2015-06-18T07:37:28Z</time>
      </trkpt>
      <trkpt lat="37.133750" lon="-6.091577">
        <ele>2.856</ele>
        <time>2015-06-18T07:37:33Z</time>
      </trkpt>
      <trkpt lat="37.133702" lon="-6.091558">
        <ele>2.812</ele>
        <time>2015-06-18T07:37:34Z</time>
      </trkpt>
      <trkpt lat="37.133553" lon="-6.091503">
        <ele>2.898</ele>
        <time>2015-06-18T07:37:37Z</time>
      </trkpt>
      <trkpt lat="37.133408" lon="-6.091440">
        <ele>2.827</ele>
        <time>2015-06-18T07:37:40Z</time>
      </trkpt>
      <trkpt lat="37.133275" lon="-6.091378">
        <ele>2.820</ele>
        <time>2015-06-18T07:37:43Z</time>
      </trkpt>
      <trkpt lat="37.133128" lon="-6.091326">
        <ele>2.892</ele>
        <time>2015-06-18T07:37:46Z</time>
      </trkpt>
      <trkpt lat="37.132753" lon="-6.091199">
        <ele>2.895</ele>
        <time>2015-06-18T07:37:53Z</time>
      </trkpt>
      <trkpt lat="37.132281" lon="-6.090998">
        <ele>2.889</ele>
        <time>2015-06-18T07:38:02Z</time>
      </trkpt>
      <trkpt lat="37.132229" lon="-6.090972">
        <ele>2.882</ele>
        <time>2015-06-18T07:38:03Z</time>
      </trkpt>
      <trkpt lat="37.132012" lon="-6.090890">
        <ele>2.843</ele>
        <time>2015-06-18T07:38:07Z</time>
      </trkpt>
      <trkpt lat="37.131689" lon="-6.090777">
        <ele>2.817</ele>
        <time>2015-06-18T07:38:13Z</time>
      </trkpt>
      <trkpt lat="37.131634" lon="-6.090760">
        <ele>2.808</ele>
        <time>2015-06-18T07:38:14Z</time>
      </trkpt>
      <trkpt lat="37.131147" lon="-6.090582">
        <ele>2.869</ele>
        <time>2015-06-18T07:38:23Z</time>
      </trkpt>
      <trkpt lat="37.130763" lon="-6.090450">
        <ele>2.825</ele>
        <time>2015-06-18T07:38:30Z</time>
      </trkpt>
      <trkpt lat="37.130713" lon="-6.090430">
        <ele>2.831</ele>
        <time>2015-06-18T07:38:31Z</time>
      </trkpt>
      <trkpt lat="37.130394" lon="-6.090313">
        <ele>2.820</ele>
        <time>2015-06-18T07:38:38Z</time>
      </trkpt>
      <trkpt lat="37.130211" lon="-6.090247">
        <ele>2.883</ele>
        <time>2015-06-18T07:38:42Z</time>
      </trkpt>
      <trkpt lat="37.130112" lon="-6.090206">
        <ele>2.835</ele>
        <time>2015-06-18T07:38:44Z</time>
      </trkpt>
      <trkpt lat="37.129960" lon="-6.090156">
        <ele>2.888</ele>
        <time>2015-06-18T07:38:47Z</time>
      </trkpt>
      <trkpt lat="37.129807" lon="-6.090117">
        <ele>2.852</ele>
        <time>2015-06-18T07:38:50Z</time>
      </trkpt>
      <trkpt lat="37.129526" lon="-6.090024">
        <ele>2.851</ele>
        <time>2015-06-18T07:38:56Z</time>
      </trkpt>
      <trkpt lat="37.129476" lon="-6.090012">
        <ele>2.801</ele>
        <time>2015-06-18T07:38:57Z</time>
      </trkpt>
      <trkpt lat="37.129316" lon="-6.089972">
        <ele>2.811</ele>
        <time>2015-06-18T07:39:00Z</time>
      </trkpt>
      <trkpt lat="37.129212" lon="-6.089936">
        <ele>2.808</ele>
        <time>2015-06-18T07:39:02Z</time>
      </trkpt>
      <trkpt lat="37.128949" lon="-6.089845">
        <ele>2.856</ele>
        <time>2015-06-18T07:39:07Z</time>
      </trkpt>
      <trkpt lat="37.128740" lon="-6.089767">
        <ele>2.812</ele>
        <time>2015-06-18T07:39:11Z</time>
      </trkpt>
      <trkpt lat="37.128639" lon="-6.089714">
        <ele>2.818</ele>
        <time>2015-06-18T07:39:13Z</time>
      </trkpt>
      <trkpt lat="37.128590" lon="-6.089690">
        <ele>2.877</ele>
        <time>2015-06-18T07:39:14Z</time>
      </trkpt>
      <trkpt lat="37.128383" lon="-6.089611">
        <ele>2.810</ele>
        <time>2015-06-18T07:39:18Z</time>
      </trkpt>
      <trkpt lat="37.128066" lon="-6.089500">
        <ele>2.852</ele>
        <time>2015-06-18T07:39:24Z</time>
      </trkpt>
      <trkpt lat="37.127547" lon="-6.089308">
        <ele>2.855</ele>
        <time>2015-06-18T07:39:34Z</time>
      </trkpt>
      <trkpt lat="37.127226" lon="-6.089194">
        <ele>2.829</ele>
        <time>2015-06-18T07:39:40Z</time>
      </trkpt>
      <trkpt lat="37.126952" lon="-6.089100">
        <ele>2.832</ele>
        <time>2015-06-18T07:39:45Z</time>
      </trkpt>
      <trkpt lat="37.126898" lon="-6.089078">
        <ele>2.892</ele>
        <time>2015-06-18T07:39:46Z</time>
      </trkpt>
      <trkpt lat="37.126567" lon="-6.088956">
        <ele>2.811</ele>
        <time>2015-06-18T07:39:52Z</time>
      </trkpt>
      <trkpt lat="37.126510" lon="-6.088936">
        <ele>2.808</ele>
        <time>2015-06-18T07:39:53Z</time>
      </trkpt>
      <trkpt lat="37.126152" lon="-6.088802">
        <ele>2.864</ele>
        <time>2015-06-18T07:40:00Z</time>
      </trkpt>
      <trkpt lat="37.125999" lon="-6.088757">
        <ele>2.880</ele>
        <time>2015-06-18T07:40:03Z</time>
      </trkpt>
      <trkpt lat="37.125892" lon="-6.088719">
        <ele>2.856</ele>
        <time>2015-06-18T07:40:05Z</time>
      </trkpt>
      <trkpt lat="37.125840" lon="-6.088690">
        <ele>2.835</ele>
        <time>2015-06-18T07:40:06Z</time>
      </trkpt>
      <trkpt lat="37.125700" lon="-6.088632">
        <ele>2.828</ele>
        <time>2015-06-18T07:40:09Z</time>
      </trkpt>
      <trkpt lat="37.125569" lon="-6.088575">
        <ele>2.870</ele>
        <time>2015-06-18T07:40:12Z</time>
      </trkpt>
      <trkpt lat="37.125471" lon="-6.088535">
        <ele>2.853</ele>
        <time>2015-06-18T07:40:14Z</time>
      </trkpt>
      <trkpt lat="37.125317" lon="-6.088481">
        <ele>2.897</ele>
        <time>2015-06-18T07:40:17Z</time>
      </trkpt>
      <trkpt lat="37.125163" lon="-6.088428">
        <ele>2.893</ele>
        <time>2015-06-18T07:40:20Z</time>
      </trkpt>
      <trkpt lat="37.125055" lon="-6.088390">
        <ele>2.865</ele>
        <time>2015-06-18T07:40:22Z</time>
      </trkpt>
      <trkpt lat="37.124848" lon="-6.088307">
        <ele>2.821</ele>
        <time>2015-06-18T07:40:26Z</time>
      </trkpt>
      <trkpt lat="37.124546" lon="-6.088209">
        <ele>2.808</ele>
        <time>2015-06-18T07:40:32Z</time>
      </trkpt>
      <trkpt lat="37.124354" lon="-6.088126">
        <ele>2.870</ele>
        <time>2015-06-18T07:40:36Z</time>
      </trkpt>
      <trkpt lat="37.124256" lon="-6.088097">
        <ele>2.826</ele>
        <time>2015-06-18T07:40:38Z</time>
      </trkpt>
      <trkpt lat="37.123931" lon="-6.087982">
        <ele>2.872</ele>
        <time>2015-06-18T07:40:45Z</time>
      </trkpt>
      <trkpt lat="37.123776" lon="-6.087945">
        <ele>2.891</ele>
        <time>2015-06-18T07:40:48Z</time>
      </trkpt>
      <trkpt lat="37.123679" lon="-6.087894">
        <ele>2.884</ele>
        <time>2015-06-18T07:40:50Z</time>
      </trkpt>
      <trkpt lat="37.123628" lon="-6.087874">
        <ele>2.816</ele>
        <time>2015-06-18T07:40:51Z</time>
      </trkpt>
      <trkpt lat="37.123473" lon="-6.087817">
        <ele>2.899</ele>
        <time>2015-06-18T07:40:54Z</time>
      </trkpt>
      <trkpt lat="37.123165" lon="-6.087701">
        <ele>2.823</ele>
        <time>2015-06-18T07:41:00Z</time>
      </trkpt>
      <trkpt lat="37.122813" lon="-6.087575">
        <ele>2.861</ele>
        <time>2015-06-18T07:41:07Z</time>
      </trkpt>
      <trkpt lat="37.122606" lon="-6.087514">
        <ele>2.821</ele>
        <time>2015-06-18T07:41:11Z</time>
      </trkpt>
      <trkpt lat="37.122459" lon="-6.087457">
        <ele>2.813</ele>
        <time>2015-06-18T07:41:14Z</time>
      </trkpt>
      <trkpt lat="37.122409" lon="-6.087440">
        <ele>2.808</ele>
        <time>2015-06-18T07:41:15Z</time>
      </trkpt>
      <trkpt lat="37.122362" lon="-6.087417">
        <ele>2.877</ele>
        <time>2015-06-18T07:41:16Z</time>
      </trkpt>
      <trkpt lat="37.122261" lon="-6.087371">
        <ele>2.823</ele>
        <time>2015-06-18T07:41:18Z</time>
      </trkpt>
      <trkpt lat="37.122210" lon="-6.087353">
        <ele>2.889</ele>
        <time>2015-06-18T07:41:19Z</time>
      </trkpt>
      <trkpt lat="37.121921" lon="-6.087246">
        <ele>2.818</ele>
        <time>2015-06-18T07:41:25Z</time>
      </trkpt>
      <trkpt lat="37.121836" lon="-6.087213">
        <ele>2.811</ele>
        <time>2015-06-18T07:41:27Z</time>
      </trkpt>
      <trkpt lat="37.121647" lon="-6.087148">
        <ele>2.813</ele>
        <time>2015-06-18T07:41:31Z</time>
      </trkpt>
      <trkpt lat="37.121503" lon="-6.087095">
        <ele>2.846</ele>
        <time>2015-06-18T07:41:34Z</time>
      </trkpt>
      <trkpt lat="37.121304" lon="-6.087023">
        <ele>2.850</ele>
        <time>2015-06-18T07:41:38Z</time>
      </trkpt>
      <trkpt lat="37.120897" lon="-6.086877">
        <ele>2.867</ele>
        <time>2015-06-18T07:41:46Z</time>
      </trkpt>
      <trkpt lat="37.120517" lon="-6.086741">
        <ele>2.881</ele>
        <time>2015-06-18T07:41:53Z</time>
      </trkpt>
      <trkpt lat="37.120463" lon="-6.086722">
        <ele>2.819</ele>
        <time>2015-06-18T07:41:54Z</time>
      </trkpt>
      <trkpt lat="37.120151" lon="-6.086594">
        <ele>2.808</ele>
        <time>2015-06-18T07:42:00Z</time>
      </trkpt>
      <trkpt lat="37.119793" lon="-6.086467">
        <ele>2.837</ele>
        <time>2015-06-18T07:42:07Z</time>
      </trkpt>
      <trkpt lat="37.119384" lon="-6.086328">
        <ele>2.813</ele>
        <time>2015-06-18T07:42:15Z</time>
      </trkpt>
      <trkpt lat="37.119201" lon="-6.086272">
        <ele>2.889</ele>
        <time>2015-06-18T07:42:19Z</time>
      </trkpt>
      <trkpt lat="37.119082" lon="-6.086234">
        <ele>2.878</ele>
        <time>2015-06-18T07:42:22Z</time>
      </trkpt>
      <trkpt lat="37.118998" lon="-6.086203">
        <ele>2.841</ele>
        <time>2015-06-18T07:42:24Z</time>
      </trkpt>
      <trkpt lat="37.118867" lon="-6.086151">
        <ele>2.893</ele>
        <time>2015-06-18T07:42:27Z</time>
      </trkpt>
      <trkpt lat="37.118779" lon="-6.086108">
        <ele>2.836</ele>
        <time>2015-06-18T07:42:29Z</time>
      </trkpt>
      <trkpt lat="37.118662" lon="-6.086008">
        <ele>2.830</ele>
        <time>2015-06-18T07:42:32Z</time>
      </trkpt>
      <trkpt lat="37.118626" lon="-6.085968">
        <ele>2.832</ele>
        <time>2015-06-18T07:42:33Z</time>
      </trkpt>
      <trkpt lat="37.118560" lon="-6.085879">
        <ele>2.892</ele>
        <time>2015-06-18T07:42:35Z</time>
      </trkpt>
      <trkpt lat="37.118489" lon="-6.085736">
        <ele>2.811</ele>
        <time>2015-06-18T07:42:38Z</time>
      </trkpt>
      <trkpt lat="37.118449" lon="-6.085614">
        <ele>2.808</ele>
        <time>2015-06-18T07:42:40Z</time>
      </trkpt>
      <trkpt lat="37.118367" lon="-6.085364">
        <ele>2.814</ele>
        <time>2015-06-18T07:42:44Z</time>
      </trkpt>
      <trkpt lat="37.118224" lon="-6.084960">
        <ele>2.870</ele>
        <time>2015-06-18T07:42:51Z</time>
      </trkpt>
      <trkpt lat="37.118119" lon="-6.084755">
        <ele>2.856</ele>
        <time>2015-06-18T07:42:55Z</time>
      </trkpt>
      <trkpt lat="37.118102" lon="-6.084697">
        <ele>2.855</ele>
        <time>2015-06-18T07:42:56Z</time>
      </trkpt>
      <trkpt lat="37.118011" lon="-6.084490">
        <ele>2.868</ele>
        <time>2015-06-18T07:43:00Z</time>
      </trkpt>
      <trkpt lat="37.117982" lon="-6.084445">
        <ele>2.820</ele>
        <time>2015-06-18T07:43:01Z</time>
      </trkpt>
      <trkpt lat="37.117882" lon="-6.084321">
        <ele>2.883</ele>
        <time>2015-06-18T07:43:04Z</time>
      </trkpt>
      <trkpt lat="37.117804" lon="-6.084261">
        <ele>2.837</ele>
        <time>2015-06-18T07:43:06Z</time>
      </trkpt>
      <trkpt lat="37.117720" lon="-6.084220">
        <ele>2.832</ele>
        <time>2015-06-18T07:43:08Z</time>
      </trkpt>
      <trkpt lat="37.117639" lon="-6.084188">
        <ele>2.892</ele>
        <time>2015-06-18T07:43:10Z</time>
      </trkpt>
      <trkpt lat="37.117556" lon="-6.084157">
        <ele>2.811</ele>
        <time>2015-06-18T07:43:12Z</time>
      </trkpt>
      <trkpt lat="37.117425" lon="-6.084096">
        <ele>2.808</ele>
        <time>2015-06-18T07:43:15Z</time>
      </trkpt>
      <trkpt lat="37.117294" lon="-6.084005">
        <ele>2.844</ele>
        <time>2015-06-18T07:43:18Z</time>
      </trkpt>
      <trkpt lat="37.117247" lon="-6.083979">
        <ele>2.870</ele>
        <time>2015-06-18T07:43:19Z</time>
      </trkpt>
      <trkpt lat="37.117003" lon="-6.083878">
        <ele>2.866</ele>
        <time>2015-06-18T07:43:24Z</time>
      </trkpt>
      <trkpt lat="37.116657" lon="-6.083724">
        <ele>2.855</ele>
        <time>2015-06-18T07:43:31Z</time>
      </trkpt>
      <trkpt lat="37.116259" lon="-6.083547">
        <ele>2.868</ele>
        <time>2015-06-18T07:43:39Z</time>
      </trkpt>
      <trkpt lat="37.115863" lon="-6.083391">
        <ele>2.850</ele>
        <time>2015-06-18T07:43:47Z</time>
      </trkpt>
      <trkpt lat="37.115814" lon="-6.083375">
        <ele>2.813</ele>
        <time>2015-06-18T07:43:48Z</time>
      </trkpt>
      <trkpt lat="37.115518" lon="-6.083245">
        <ele>2.887</ele>
        <time>2015-06-18T07:43:54Z</time>
      </trkpt>
      <trkpt lat="37.115282" lon="-6.083127">
        <ele>2.847</ele>
        <time>2015-06-18T07:43:59Z</time>
      </trkpt>
      <trkpt lat="37.115233" lon="-6.083109">
        <ele>2.829</ele>
        <time>2015-06-18T07:44:00Z</time>
      </trkpt>
      <trkpt lat="37.115131" lon="-6.083072">
        <ele>2.821</ele>
        <time>2015-06-18T07:44:02Z</time>
      </trkpt>
      <trkpt lat="37.115032" lon="-6.083039">
        <ele>2.808</ele>
        <time>2015-06-18T07:44:04Z</time>
      </trkpt>
      <trkpt lat="37.114984" lon="-6.083015">
        <ele>2.825</ele>
        <time>2015-06-18T07:44:05Z</time>
      </trkpt>
      <trkpt lat="37.114689" lon="-6.082872">
        <ele>2.871</ele>
        <time>2015-06-18T07:44:11Z</time>
      </trkpt>
      <trkpt lat="37.114589" lon="-6.082815">
        <ele>2.867</ele>
        <time>2015-06-18T07:44:13Z</time>
      </trkpt>
      <trkpt lat="37.114432" lon="-6.082741">
        <ele>2.896</ele>
        <time>2015-06-18T07:44:16Z</time>
      </trkpt>
      <trkpt lat="37.114336" lon="-6.082708">
        <ele>2.879</ele>
        <time>2015-06-18T07:44:18Z</time>
      </trkpt>
      <trkpt lat="37.114035" lon="-6.082578">
        <ele>2.891</ele>
        <time>2015-06-18T07:44:24Z</time>
      </trkpt>
      <trkpt lat="37.113629" lon="-6.082393">
        <ele>2.894</ele>
        <time>2015-06-18T07:44:32Z</time>
      </trkpt>
      <trkpt lat="37.113529" lon="-6.082349">
        <ele>2.858</ele>
        <time>2015-06-18T07:44:34Z</time>
      </trkpt>
      <trkpt lat="37.113321" lon="-6.082253">
        <ele>2.818</ele>
        <time>2015-06-18T07:44:38Z</time>
      </trkpt>
      <trkpt lat="37.112861" lon="-6.082050">
        <ele>2.898</ele>
        <time>2015-06-18T07:44:47Z</time>
      </trkpt>
      <trkpt lat="37.112603" lon="-6.081935">
        <ele>2.817</ele>
        <time>2015-06-18T07:44:52Z</time>
      </trkpt>
      <trkpt lat="37.112498" lon="-6.081890">
        <ele>2.808</ele>
        <time>2015-06-18T07:44:54Z</time>
      </trkpt>
      <trkpt lat="37.112080" lon="-6.081716">
        <ele>2.832</ele>
        <time>2015-06-18T07:45:02Z</time>
      </trkpt>
      <trkpt lat="37.111988" lon="-6.081673">
        <ele>2.828</ele>
        <time>2015-06-18T07:45:04Z</time>
      </trkpt>
      <trkpt lat="37.111790" lon="-6.081581">
        <ele>2.854</ele>
        <time>2015-06-18T07:45:08Z</time>
      </trkpt>
      <trkpt lat="37.111688" lon="-6.081545">
        <ele>2.833</ele>
        <time>2015-06-18T07:45:10Z</time>
      </trkpt>
      <trkpt lat="37.111527" lon="-6.081490">
        <ele>2.836</ele>
        <time>2015-06-18T07:45:13Z</time>
      </trkpt>
      <trkpt lat="37.111266" lon="-6.081380">
        <ele>2.818</ele>
        <time>2015-06-18T07:45:18Z</time>
      </trkpt>
      <trkpt lat="37.110897" lon="-6.081204">
        <ele>2.821</ele>
        <time>2015-06-18T07:45:25Z</time>
      </trkpt>
      <trkpt lat="37.110535" lon="-6.081060">
        <ele>2.845</ele>
        <time>2015-06-18T07:45:32Z</time>
      </trkpt>
      <trkpt lat="37.110275" lon="-6.080962">
        <ele>2.861</ele>
        <time>2015-06-18T07:45:37Z</time>
      </trkpt>
      <trkpt lat="37.110076" lon="-6.080856">
        <ele>2.821</ele>
        <time>2015-06-18T07:45:42Z</time>
      </trkpt>
      <trkpt lat="37.110024" lon="-6.080779">
        <ele>2.813</ele>
        <time>2015-06-18T07:45:46Z</time>
      </trkpt>
      <trkpt lat="37.110036" lon="-6.080717">
        <ele>2.808</ele>
        <time>2015-06-18T07:45:48Z</time>
      </trkpt>
      <trkpt lat="37.110059" lon="-6.080638">
        <ele>2.877</ele>
        <time>2015-06-18T07:45:50Z</time>
      </trkpt>
      <trkpt lat="37.110102" lon="-6.080558">
        <ele>2.863</ele>
        <time>2015-06-18T07:45:52Z</time>
      </trkpt>
      <trkpt lat="37.110154" lon="-6.080477">
        <ele>2.889</ele>
        <time>2015-06-18T07:45:54Z</time>
      </trkpt>
      <trkpt lat="37.110199" lon="-6.080264">
        <ele>2.868</ele>
        <time>2015-06-18T07:45:58Z</time>
      </trkpt>
      <trkpt lat="37.110225" lon="-6.080156">
        <ele>2.881</ele>
        <time>2015-06-18T07:46:00Z</time>
      </trkpt>
      <trkpt lat="37.110274" lon="-6.079946">
        <ele>2.813</ele>
        <time>2015-06-18T07:46:04Z</time>
      </trkpt>
      <trkpt lat="37.110306" lon="-6.079782">
        <ele>2.826</ele>
        <time>2015-06-18T07:46:07Z</time>
      </trkpt>
      <trkpt lat="37.110284" lon="-6.079691">
        <ele>2.840</ele>
        <time>2015-06-18T07:46:09Z</time>
      </trkpt>
      <trkpt lat="37.110159" lon="-6.079604">
        <ele>2.824</ele>
        <time>2015-06-18T07:46:13Z</time>
      </trkpt>
      <trkpt lat="37.110122" lon="-6.079592">
        <ele>2.804</ele>
        <time>2015-06-18T07:46:14Z</time>
      </trkpt>
      <trkpt lat="37.109921" lon="-6.079530">
        <ele>2.814</ele>
        <time>2015-06-18T07:46:19Z</time>
      </trkpt>
      <trkpt lat="37.109877" lon="-6.079518">
        <ele>2.808</ele>
        <time>2015-06-18T07:46:20Z</time>
      </trkpt>
      <trkpt lat="37.109593" lon="-6.079437">
        <ele>2.863</ele>
        <time>2015-06-18T07:46:26Z</time>
      </trkpt>
      <trkpt lat="37.109292" lon="-6.079347">
        <ele>2.869</ele>
        <time>2015-06-18T07:46:32Z</time>
      </trkpt>
      <trkpt lat="37.109241" lon="-6.079330">
        <ele>2.895</ele>
        <time>2015-06-18T07:46:33Z</time>
      </trkpt>
      <trkpt lat="37.108925" lon="-6.079223">
        <ele>2.864</ele>
        <time>2015-06-18T07:46:39Z</time>
      </trkpt>
      <trkpt lat="37.108620" lon="-6.079100">
        <ele>2.847</ele>
        <time>2015-06-18T07:46:45Z</time>
      </trkpt>
      <trkpt lat="37.108203" lon="-6.078962">
        <ele>2.859</ele>
        <time>2015-06-18T07:46:53Z</time>
      </trkpt>
      <trkpt lat="37.107917" lon="-6.078876">
        <ele>2.822</ele>
        <time>2015-06-18T07:46:59Z</time>
      </trkpt>
      <trkpt lat="37.107872" lon="-6.078863">
        <ele>2.876</ele>
        <time>2015-06-18T07:47:00Z</time>
      </trkpt>
      <trkpt lat="37.107644" lon="-6.078777">
        <ele>2.883</ele>
        <time>2015-06-18T07:47:05Z</time>
      </trkpt>
      <trkpt lat="37.107558" lon="-6.078731">
        <ele>2.825</ele>
        <time>2015-06-18T07:47:07Z</time>
      </trkpt>
      <trkpt lat="37.107391" lon="-6.078583">
        <ele>2.817</ele>
        <time>2015-06-18T07:47:11Z</time>
      </trkpt>
      <trkpt lat="37.107339" lon="-6.078569">
        <ele>2.808</ele>
        <time>2015-06-18T07:47:12Z</time>
      </trkpt>
      <trkpt lat="37.107078" lon="-6.078571">
        <ele>2.869</ele>
        <time>2015-06-18T07:47:17Z</time>
      </trkpt>
      <trkpt lat="37.106725" lon="-6.078690">
        <ele>2.825</ele>
        <time>2015-06-18T07:47:24Z</time>
      </trkpt>
      <trkpt lat="37.106366" lon="-6.078835">
        <ele>2.831</ele>
        <time>2015-06-18T07:47:31Z</time>
      </trkpt>
      <trkpt lat="37.106315" lon="-6.078840">
        <ele>2.860</ele>
        <time>2015-06-18T07:47:32Z</time>
      </trkpt>
      <trkpt lat="37.106172" lon="-6.078828">
        <ele>2.853</ele>
        <time>2015-06-18T07:47:35Z</time>
      </trkpt>
      <trkpt lat="37.106031" lon="-6.078682">
        <ele>2.835</ele>
        <time>2015-06-18T07:47:39Z</time>
      </trkpt>
      <trkpt lat="37.106055" lon="-6.078501">
        <ele>2.818</ele>
        <time>2015-06-18T07:47:42Z</time>
      </trkpt>
      <trkpt lat="37.106116" lon="-6.078315">
        <ele>2.852</ele>
        <time>2015-06-18T07:47:45Z</time>
      </trkpt>
      <trkpt lat="37.106170" lon="-6.078129">
        <ele>2.812</ele>
        <time>2015-06-18T07:47:48Z</time>
      </trkpt>
      <trkpt lat="37.106256" lon="-6.077845">
        <ele>2.832</ele>
        <time>2015-06-18T07:47:53Z</time>
      </trkpt>
      <trkpt lat="37.106274" lon="-6.077796">
        <ele>2.805</ele>
        <time>2015-06-18T07:47:54Z</time>
      </trkpt>
      <trkpt lat="37.106341" lon="-6.077568">
        <ele>2.808</ele>
        <time>2015-06-18T07:47:59Z</time>
      </trkpt>
      <trkpt lat="37.106359" lon="-6.077473">
        <ele>2.832</ele>
        <time>2015-06-18T07:48:01Z</time>
      </trkpt>
      <trkpt lat="37.106379" lon="-6.077373">
        <ele>2.818</ele>
        <time>2015-06-18T07:48:03Z</time>
      </trkpt>
      <trkpt lat="37.106424" lon="-6.077215">
        <ele>2.854</ele>
        <time>2015-06-18T07:48:06Z</time>
      </trkpt>
      <trkpt lat="37.106522" lon="-6.076829">
        <ele>2.853</ele>
        <time>2015-06-18T07:48:13Z</time>
      </trkpt>
      <trkpt lat="37.106550" lon="-6.076716">
        <ele>2.876</ele>
        <time>2015-06-18T07:48:15Z</time>
      </trkpt>
      <trkpt lat="37.106618" lon="-6.076487">
        <ele>2.878</ele>
        <time>2015-06-18T07:48:19Z</time>
      </trkpt>
      <trkpt lat="37.106755" lon="-6.076019">
        <ele>2.861</ele>
        <time>2015-06-18T07:48:27Z</time>
      </trkpt>
      <trkpt lat="37.106873" lon="-6.075577">
        <ele>2.875</ele>
        <time>2015-06-18T07:48:35Z</time>
      </trkpt>
      <trkpt lat="37.106914" lon="-6.075418">
        <ele>2.875</ele>
        <time>2015-06-18T07:48:38Z</time>
      </trkpt>
      <trkpt lat="37.106938" lon="-6.075257">
        <ele>2.828</ele>
        <time>2015-06-18T07:48:41Z</time>
      </trkpt>
      <trkpt lat="37.106889" lon="-6.075097">
        <ele>2.820</ele>
        <time>2015-06-18T07:48:44Z</time>
      </trkpt>
      <trkpt lat="37.106753" lon="-6.075017">
        <ele>2.808</ele>
        <time>2015-06-18T07:48:47Z</time>
      </trkpt>
      <trkpt lat="37.106597" lon="-6.074974">
        <ele>2.898</ele>
        <time>2015-06-18T07:48:50Z</time>
      </trkpt>
      <trkpt lat="37.106544" lon="-6.074962">
        <ele>2.884</ele>
        <time>2015-06-18T07:48:51Z</time>
      </trkpt>
      <trkpt lat="37.106495" lon="-6.074950">
        <ele>2.850</ele>
        <time>2015-06-18T07:48:52Z</time>
      </trkpt>
      <trkpt lat="37.106450" lon="-6.074932">
        <ele>2.849</ele>
        <time>2015-06-18T07:48:53Z</time>
      </trkpt>
      <trkpt lat="37.106280" lon="-6.074864">
        <ele>2.872</ele>
        <time>2015-06-18T07:48:57Z</time>
      </trkpt>
      <trkpt lat="37.106023" lon="-6.074775">
        <ele>2.824</ele>
        <time>2015-06-18T07:49:04Z</time>
      </trkpt>
      <trkpt lat="37.105946" lon="-6.074742">
        <ele>2.827</ele>
        <time>2015-06-18T07:49:06Z</time>
      </trkpt>
      <trkpt lat="37.105773" lon="-6.074678">
        <ele>2.891</ele>
        <time>2015-06-18T07:49:10Z</time>
      </trkpt>
      <trkpt lat="37.105462" lon="-6.074563">
        <ele>2.892</ele>
        <time>2015-06-18T07:49:17Z</time>
      </trkpt>
      <trkpt lat="37.105423" lon="-6.074552">
        <ele>2.873</ele>
        <time>2015-06-18T07:49:18Z</time>
      </trkpt>
      <trkpt lat="37.105228" lon="-6.074471">
        <ele>2.820</ele>
        <time>2015-06-18T07:49:23Z</time>
      </trkpt>
      <trkpt lat="37.105013" lon="-6.074387">
        <ele>2.208</ele>
        <time>2015-06-18T07:49:28Z</time>
      </trkpt>
      <trkpt lat="37.104974" lon="-6.074369">
        <ele>1.810</ele>
        <time>2015-06-18T07:49:29Z</time>
      </trkpt>
      <trkpt lat="37.104934" lon="-6.074350">
        <ele>1.476</ele>
        <time>2015-06-18T07:49:30Z</time>
      </trkpt>
      <trkpt lat="37.104893" lon="-6.074335">
        <ele>1.052</ele>
        <time>2015-06-18T07:49:31Z</time>
      </trkpt>
      <trkpt lat="37.104852" lon="-6.074318">
        <ele>0.661</ele>
        <time>2015-06-18T07:49:32Z</time>
      </trkpt>
      <trkpt lat="37.104810" lon="-6.074297">
        <ele>0.644</ele>
        <time>2015-06-18T07:49:33Z</time>
      </trkpt>
      <trkpt lat="37.104682" lon="-6.074244">
        <ele>0.636</ele>
        <time>2015-06-18T07:49:36Z</time>
      </trkpt>
      <trkpt lat="37.104343" lon="-6.074099">
        <ele>0.689</ele>
        <time>2015-06-18T07:49:44Z</time>
      </trkpt>
      <trkpt lat="37.104028" lon="-6.073974">
        <ele>0.653</ele>
        <time>2015-06-18T07:49:51Z</time>
      </trkpt>
      <trkpt lat="37.103848" lon="-6.073899">
        <ele>0.624</ele>
        <time>2015-06-18T07:49:55Z</time>
      </trkpt>
      <trkpt lat="37.103713" lon="-6.073848">
        <ele>0.604</ele>
        <time>2015-06-18T07:49:58Z</time>
      </trkpt>
      <trkpt lat="37.103363" lon="-6.073722">
        <ele>0.614</ele>
        <time>2015-06-18T07:50:05Z</time>
      </trkpt>
      <trkpt lat="37.102963" lon="-6.073573">
        <ele>0.608</ele>
        <time>2015-06-18T07:50:13Z</time>
      </trkpt>
      <trkpt lat="37.102819" lon="-6.073516">
        <ele>0.613</ele>
        <time>2015-06-18T07:50:16Z</time>
      </trkpt>
      <trkpt lat="37.102621" lon="-6.073439">
        <ele>0.629</ele>
        <time>2015-06-18T07:50:20Z</time>
      </trkpt>
      <trkpt lat="37.102523" lon="-6.073401">
        <ele>0.655</ele>
        <time>2015-06-18T07:50:22Z</time>
      </trkpt>
      <trkpt lat="37.102274" lon="-6.073306">
        <ele>0.634</ele>
        <time>2015-06-18T07:50:27Z</time>
      </trkpt>
      <trkpt lat="37.101906" lon="-6.073151">
        <ele>0.647</ele>
        <time>2015-06-18T07:50:34Z</time>
      </trkpt>
      <trkpt lat="37.101845" lon="-6.073126">
        <ele>0.619</ele>
        <time>2015-06-18T07:50:35Z</time>
      </trkpt>
      <trkpt lat="37.101495" lon="-6.072996">
        <ele>0.662</ele>
        <time>2015-06-18T07:50:41Z</time>
      </trkpt>
      <trkpt lat="37.101200" lon="-6.072879">
        <ele>0.636</ele>
        <time>2015-06-18T07:50:46Z</time>
      </trkpt>
      <trkpt lat="37.100951" lon="-6.072784">
        <ele>0.678</ele>
        <time>2015-06-18T07:50:50Z</time>
      </trkpt>
      <trkpt lat="37.100517" lon="-6.072612">
        <ele>0.633</ele>
        <time>2015-06-18T07:50:57Z</time>
      </trkpt>
      <trkpt lat="37.100088" lon="-6.072437">
        <ele>0.626</ele>
        <time>2015-06-18T07:51:04Z</time>
      </trkpt>
      <trkpt lat="37.099545" lon="-6.072232">
        <ele>0.608</ele>
        <time>2015-06-18T07:51:13Z</time>
      </trkpt>
      <trkpt lat="37.099088" lon="-6.072066">
        <ele>0.648</ele>
        <time>2015-06-18T07:51:21Z</time>
      </trkpt>
      <trkpt lat="37.099039" lon="-6.072043">
        <ele>0.694</ele>
        <time>2015-06-18T07:51:22Z</time>
      </trkpt>
      <trkpt lat="37.098795" lon="-6.071945">
        <ele>0.680</ele>
        <time>2015-06-18T07:51:27Z</time>
      </trkpt>
      <trkpt lat="37.098394" lon="-6.071782">
        <ele>0.669</ele>
        <time>2015-06-18T07:51:35Z</time>
      </trkpt>
      <trkpt lat="37.098253" lon="-6.071729">
        <ele>0.632</ele>
        <time>2015-06-18T07:51:38Z</time>
      </trkpt>
      <trkpt lat="37.098166" lon="-6.071693">
        <ele>0.684</ele>
        <time>2015-06-18T07:51:40Z</time>
      </trkpt>
      <trkpt lat="37.098125" lon="-6.071678">
        <ele>0.637</ele>
        <time>2015-06-18T07:51:41Z</time>
      </trkpt>
      <trkpt lat="37.097784" lon="-6.071535">
        <ele>0.681</ele>
        <time>2015-06-18T07:51:49Z</time>
      </trkpt>
      <trkpt lat="37.097511" lon="-6.071381">
        <ele>0.625</ele>
        <time>2015-06-18T07:51:55Z</time>
      </trkpt>
      <trkpt lat="37.097470" lon="-6.071342">
        <ele>0.626</ele>
        <time>2015-06-18T07:51:56Z</time>
      </trkpt>
      <trkpt lat="37.097258" lon="-6.071072">
        <ele>0.608</ele>
        <time>2015-06-18T07:52:02Z</time>
      </trkpt>
      <trkpt lat="37.097046" lon="-6.070783">
        <ele>0.608</ele>
        <time>2015-06-18T07:52:08Z</time>
      </trkpt>
      <trkpt lat="37.096787" lon="-6.070452">
        <ele>0.633</ele>
        <time>2015-06-18T07:52:15Z</time>
      </trkpt>
      <trkpt lat="37.096472" lon="-6.070024">
        <ele>0.619</ele>
        <time>2015-06-18T07:52:24Z</time>
      </trkpt>
      <trkpt lat="37.096350" lon="-6.069863">
        <ele>0.685</ele>
        <time>2015-06-18T07:52:28Z</time>
      </trkpt>
      <trkpt lat="37.096235" lon="-6.069702">
        <ele>0.624</ele>
        <time>2015-06-18T07:52:32Z</time>
      </trkpt>
      <trkpt lat="37.096044" lon="-6.069452">
        <ele>0.647</ele>
        <time>2015-06-18T07:52:38Z</time>
      </trkpt>
      <trkpt lat="37.095776" lon="-6.069097">
        <ele>0.619</ele>
        <time>2015-06-18T07:52:46Z</time>
      </trkpt>
      <trkpt lat="37.095534" lon="-6.068778">
        <ele>0.662</ele>
        <time>2015-06-18T07:52:53Z</time>
      </trkpt>
      <trkpt lat="37.095199" lon="-6.068339">
        <ele>0.656</ele>
        <time>2015-06-18T07:53:02Z</time>
      </trkpt>
      <trkpt lat="37.095164" lon="-6.068286">
        <ele>0.682</ele>
        <time>2015-06-18T07:53:03Z</time>
      </trkpt>
      <trkpt lat="37.094974" lon="-6.068028">
        <ele>0.643</ele>
        <time>2015-06-18T07:53:08Z</time>
      </trkpt>
      <trkpt lat="37.094679" lon="-6.067626">
        <ele>0.617</ele>
        <time>2015-06-18T07:53:16Z</time>
      </trkpt>
      <trkpt lat="37.094467" lon="-6.067317">
        <ele>0.608</ele>
        <time>2015-06-18T07:53:22Z</time>
      </trkpt>
      <trkpt lat="37.094419" lon="-6.067195">
        <ele>0.649</ele>
        <time>2015-06-18T07:53:24Z</time>
      </trkpt>
      <trkpt lat="37.094390" lon="-6.067064">
        <ele>0.675</ele>
        <time>2015-06-18T07:53:26Z</time>
      </trkpt>
      <trkpt lat="37.094378" lon="-6.066862">
        <ele>0.681</ele>
        <time>2015-06-18T07:53:29Z</time>
      </trkpt>
      <trkpt lat="37.094388" lon="-6.066731">
        <ele>0.670</ele>
        <time>2015-06-18T07:53:31Z</time>
      </trkpt>
      <trkpt lat="37.094414" lon="-6.066475">
        <ele>0.633</ele>
        <time>2015-06-18T07:53:35Z</time>
      </trkpt>
      <trkpt lat="37.094455" lon="-6.065895">
        <ele>0.615</ele>
        <time>2015-06-18T07:53:44Z</time>
      </trkpt>
      <trkpt lat="37.094498" lon="-6.065423">
        <ele>0.688</ele>
        <time>2015-06-18T07:53:51Z</time>
      </trkpt>
      <trkpt lat="37.094541" lon="-6.064942">
        <ele>0.662</ele>
        <time>2015-06-18T07:53:58Z</time>
      </trkpt>
      <trkpt lat="37.094580" lon="-6.064403">
        <ele>0.651</ele>
        <time>2015-06-18T07:54:06Z</time>
      </trkpt>
      <trkpt lat="37.094614" lon="-6.063877">
        <ele>0.601</ele>
        <time>2015-06-18T07:54:14Z</time>
      </trkpt>
      <trkpt lat="37.094655" lon="-6.063339">
        <ele>0.611</ele>
        <time>2015-06-18T07:54:22Z</time>
      </trkpt>
      <trkpt lat="37.094692" lon="-6.062808">
        <ele>0.608</ele>
        <time>2015-06-18T07:54:30Z</time>
      </trkpt>
      <trkpt lat="37.094734" lon="-6.062277">
        <ele>0.626</ele>
        <time>2015-06-18T07:54:38Z</time>
      </trkpt>
      <trkpt lat="37.094774" lon="-6.061807">
        <ele>0.642</ele>
        <time>2015-06-18T07:54:45Z</time>
      </trkpt>
      <trkpt lat="37.094815" lon="-6.061270">
        <ele>0.628</ele>
        <time>2015-06-18T07:54:53Z</time>
      </trkpt>
      <trkpt lat="37.094852" lon="-6.060736">
        <ele>0.627</ele>
        <time>2015-06-18T07:55:01Z</time>
      </trkpt>
      <trkpt lat="37.094882" lon="-6.060414">
        <ele>0.690</ele>
        <time>2015-06-18T07:55:07Z</time>
      </trkpt>
      <trkpt lat="37.094902" lon="-6.060105">
        <ele>0.632</ele>
        <time>2015-06-18T07:55:13Z</time>
      </trkpt>
      <trkpt lat="37.094903" lon="-6.060053">
        <ele>0.035</ele>
        <time>2015-06-18T07:55:14Z</time>
      </trkpt>
      <trkpt lat="37.094907" lon="-6.060008">
        <ele>-0.479</ele>
        <time>2015-06-18T07:55:15Z</time>
      </trkpt>
      <trkpt lat="37.094909" lon="-6.059957">
        <ele>2.089</ele>
        <time>2015-06-18T07:55:16Z</time>
      </trkpt>
      <trkpt lat="37.094922" lon="-6.059798">
        <ele>2.006</ele>
        <time>2015-06-18T07:55:19Z</time>
      </trkpt>
      <trkpt lat="37.094928" lon="-6.059745">
        <ele>3.026</ele>
        <time>2015-06-18T07:55:20Z</time>
      </trkpt>
      <trkpt lat="37.094932" lon="-6.059690">
        <ele>2.608</ele>
        <time>2015-06-18T07:55:21Z</time>
      </trkpt>
      <trkpt lat="37.094935" lon="-6.059635">
        <ele>2.219</ele>
        <time>2015-06-18T07:55:22Z</time>
      </trkpt>
      <trkpt lat="37.094957" lon="-6.059347">
        <ele>2.255</ele>
        <time>2015-06-18T07:55:27Z</time>
      </trkpt>
      <trkpt lat="37.094992" lon="-6.058809">
        <ele>2.241</ele>
        <time>2015-06-18T07:55:36Z</time>
      </trkpt>
      <trkpt lat="37.095020" lon="-6.058457">
        <ele>2.230</ele>
        <time>2015-06-18T07:55:42Z</time>
      </trkpt>
      <trkpt lat="37.095065" lon="-6.057970">
        <ele>2.263</ele>
        <time>2015-06-18T07:55:50Z</time>
      </trkpt>
      <trkpt lat="37.095098" lon="-6.057493">
        <ele>2.265</ele>
        <time>2015-06-18T07:55:58Z</time>
      </trkpt>
      <trkpt lat="37.095124" lon="-6.057088">
        <ele>2.238</ele>
        <time>2015-06-18T07:56:05Z</time>
      </trkpt>
      <trkpt lat="37.095116" lon="-6.056914">
        <ele>2.272</ele>
        <time>2015-06-18T07:56:08Z</time>
      </trkpt>
      <trkpt lat="37.095107" lon="-6.056799">
        <ele>2.232</ele>
        <time>2015-06-18T07:56:10Z</time>
      </trkpt>
      <trkpt lat="37.095128" lon="-6.056634">
        <ele>2.292</ele>
        <time>2015-06-18T07:56:13Z</time>
      </trkpt>
      <trkpt lat="37.095125" lon="-6.056578">
        <ele>2.211</ele>
        <time>2015-06-18T07:56:14Z</time>
      </trkpt>
      <trkpt lat="37.095156" lon="-6.056351">
        <ele>2.208</ele>
        <time>2015-06-18T07:56:18Z</time>
      </trkpt>
      <trkpt lat="37.095168" lon="-6.056296">
        <ele>2.234</ele>
        <time>2015-06-18T07:56:19Z</time>
      </trkpt>
      <trkpt lat="37.095218" lon="-6.056006">
        <ele>2.240</ele>
        <time>2015-06-18T07:56:24Z</time>
      </trkpt>
      <trkpt lat="37.095223" lon="-6.055949">
        <ele>2.296</ele>
        <time>2015-06-18T07:56:25Z</time>
      </trkpt>
      <trkpt lat="37.095236" lon="-6.055774">
        <ele>2.245</ele>
        <time>2015-06-18T07:56:28Z</time>
      </trkpt>
      <trkpt lat="37.095248" lon="-6.055538">
        <ele>2.218</ele>
        <time>2015-06-18T07:56:32Z</time>
      </trkpt>
      <trkpt lat="37.095278" lon="-6.055189">
        <ele>2.270</ele>
        <time>2015-06-18T07:56:38Z</time>
      </trkpt>
      <trkpt lat="37.095282" lon="-6.055131">
        <ele>2.273</ele>
        <time>2015-06-18T07:56:39Z</time>
      </trkpt>
      <trkpt lat="37.095302" lon="-6.054793">
        <ele>2.237</ele>
        <time>2015-06-18T07:56:45Z</time>
      </trkpt>
      <trkpt lat="37.095322" lon="-6.054580">
        <ele>2.223</ele>
        <time>2015-06-18T07:56:49Z</time>
      </trkpt>
      <trkpt lat="37.095335" lon="-6.054411">
        <ele>2.283</ele>
        <time>2015-06-18T07:56:52Z</time>
      </trkpt>
      <trkpt lat="37.095343" lon="-6.054127">
        <ele>2.211</ele>
        <time>2015-06-18T07:56:57Z</time>
      </trkpt>
      <trkpt lat="37.095345" lon="-6.054010">
        <ele>2.208</ele>
        <time>2015-06-18T07:56:59Z</time>
      </trkpt>
      <trkpt lat="37.095354" lon="-6.053673">
        <ele>2.263</ele>
        <time>2015-06-18T07:57:05Z</time>
      </trkpt>
      <trkpt lat="37.095361" lon="-6.053557">
        <ele>2.269</ele>
        <time>2015-06-18T07:57:07Z</time>
      </trkpt>
      <trkpt lat="37.095389" lon="-6.053273">
        <ele>2.285</ele>
        <time>2015-06-18T07:57:12Z</time>
      </trkpt>
      <trkpt lat="37.095420" lon="-6.052863">
        <ele>2.294</ele>
        <time>2015-06-18T07:57:19Z</time>
      </trkpt>
      <trkpt lat="37.095457" lon="-6.052338">
        <ele>2.257</ele>
        <time>2015-06-18T07:57:28Z</time>
      </trkpt>
      <trkpt lat="37.095473" lon="-6.052279">
        <ele>2.259</ele>
        <time>2015-06-18T07:57:29Z</time>
      </trkpt>
      <trkpt lat="37.095507" lon="-6.052096">
        <ele>2.272</ele>
        <time>2015-06-18T07:57:32Z</time>
      </trkpt>
      <trkpt lat="37.095540" lon="-6.051662">
        <ele>2.296</ele>
        <time>2015-06-18T07:57:39Z</time>
      </trkpt>
      <trkpt lat="37.095558" lon="-6.051419">
        <ele>2.288</ele>
        <time>2015-06-18T07:57:43Z</time>
      </trkpt>
      <trkpt lat="37.095577" lon="-6.051173">
        <ele>2.224</ele>
        <time>2015-06-18T07:57:47Z</time>
      </trkpt>
      <trkpt lat="37.095611" lon="-6.050694">
        <ele>2.226</ele>
        <time>2015-06-18T07:57:55Z</time>
      </trkpt>
      <trkpt lat="37.095627" lon="-6.050456">
        <ele>2.208</ele>
        <time>2015-06-18T07:57:59Z</time>
      </trkpt>
      <trkpt lat="37.095653" lon="-6.050107">
        <ele>2.229</ele>
        <time>2015-06-18T07:58:05Z</time>
      </trkpt>
      <trkpt lat="37.095690" lon="-6.049631">
        <ele>2.285</ele>
        <time>2015-06-18T07:58:13Z</time>
      </trkpt>
      <trkpt lat="37.095723" lon="-6.049215">
        <ele>2.211</ele>
        <time>2015-06-18T07:58:20Z</time>
      </trkpt>
      <trkpt lat="37.095725" lon="-6.049155">
        <ele>2.220</ele>
        <time>2015-06-18T07:58:21Z</time>
      </trkpt>
      <trkpt lat="37.095768" lon="-6.048668">
        <ele>2.273</ele>
        <time>2015-06-18T07:58:29Z</time>
      </trkpt>
      <trkpt lat="37.095806" lon="-6.048174">
        <ele>2.255</ele>
        <time>2015-06-18T07:58:37Z</time>
      </trkpt>
      <trkpt lat="37.095840" lon="-6.047606">
        <ele>2.288</ele>
        <time>2015-06-18T07:58:46Z</time>
      </trkpt>
      <trkpt lat="37.095856" lon="-6.047411">
        <ele>2.222</ele>
        <time>2015-06-18T07:58:49Z</time>
      </trkpt>
      <trkpt lat="37.095844" lon="-6.047285">
        <ele>2.298</ele>
        <time>2015-06-18T07:58:51Z</time>
      </trkpt>
      <trkpt lat="37.095847" lon="-6.047221">
        <ele>2.215</ele>
        <time>2015-06-18T07:58:52Z</time>
      </trkpt>
      <trkpt lat="37.095890" lon="-6.047035">
        <ele>2.226</ele>
        <time>2015-06-18T07:58:55Z</time>
      </trkpt>
      <trkpt lat="37.095895" lon="-6.046970">
        <ele>2.208</ele>
        <time>2015-06-18T07:58:56Z</time>
      </trkpt>
      <trkpt lat="37.095914" lon="-6.046712">
        <ele>2.270</ele>
        <time>2015-06-18T07:59:00Z</time>
      </trkpt>
      <trkpt lat="37.095947" lon="-6.046269">
        <ele>2.216</ele>
        <time>2015-06-18T07:59:07Z</time>
      </trkpt>
      <trkpt lat="37.095954" lon="-6.046207">
        <ele>2.252</ele>
        <time>2015-06-18T07:59:08Z</time>
      </trkpt>
      <trkpt lat="37.095986" lon="-6.045785">
        <ele>2.221</ele>
        <time>2015-06-18T07:59:15Z</time>
      </trkpt>
      <trkpt lat="37.095983" lon="-6.045671">
        <ele>2.294</ele>
        <time>2015-06-18T07:59:17Z</time>
      </trkpt>
      <trkpt lat="37.095986" lon="-6.045448">
        <ele>2.246</ele>
        <time>2015-06-18T07:59:21Z</time>
      </trkpt>
      <trkpt lat="37.095999" lon="-6.045339">
        <ele>2.299</ele>
        <time>2015-06-18T07:59:23Z</time>
      </trkpt>
      <trkpt lat="37.096006" lon="-6.045177">
        <ele>2.243</ele>
        <time>2015-06-18T07:59:26Z</time>
      </trkpt>
      <trkpt lat="37.096020" lon="-6.045005">
        <ele>2.277</ele>
        <time>2015-06-18T07:59:29Z</time>
      </trkpt>
      <trkpt lat="37.096031" lon="-6.044833">
        <ele>2.261</ele>
        <time>2015-06-18T07:59:32Z</time>
      </trkpt>
      <trkpt lat="37.096087" lon="-6.044453">
        <ele>2.227</ele>
        <time>2015-06-18T07:59:39Z</time>
      </trkpt>
      <trkpt lat="37.096093" lon="-6.044236">
        <ele>2.208</ele>
        <time>2015-06-18T07:59:44Z</time>
      </trkpt>
      <trkpt lat="37.096089" lon="-6.043958">
        <ele>2.288</ele>
        <time>2015-06-18T07:59:50Z</time>
      </trkpt>
      <trkpt lat="37.096079" lon="-6.043854">
        <ele>2.264</ele>
        <time>2015-06-18T07:59:52Z</time>
      </trkpt>
      <trkpt lat="37.096068" lon="-6.043413">
        <ele>2.240</ele>
        <time>2015-06-18T08:00:00Z</time>
      </trkpt>
      <trkpt lat="37.096076" lon="-6.043359">
        <ele>2.219</ele>
        <time>2015-06-18T08:00:01Z</time>
      </trkpt>
      <trkpt lat="37.096082" lon="-6.043073">
        <ele>2.262</ele>
        <time>2015-06-18T08:00:06Z</time>
      </trkpt>
      <trkpt lat="37.096074" lon="-6.042638">
        <ele>2.264</ele>
        <time>2015-06-18T08:00:13Z</time>
      </trkpt>
      <trkpt lat="37.096043" lon="-6.042467">
        <ele>2.247</ele>
        <time>2015-06-18T08:00:16Z</time>
      </trkpt>
      <trkpt lat="37.096014" lon="-6.042361">
        <ele>2.291</ele>
        <time>2015-06-18T08:00:18Z</time>
      </trkpt>
      <trkpt lat="37.095987" lon="-6.042309">
        <ele>2.224</ele>
        <time>2015-06-18T08:00:19Z</time>
      </trkpt>
      <trkpt lat="37.095797" lon="-6.042015">
        <ele>2.204</ele>
        <time>2015-06-18T08:00:25Z</time>
      </trkpt>
      <trkpt lat="37.095761" lon="-6.041970">
        <ele>2.214</ele>
        <time>2015-06-18T08:00:26Z</time>
      </trkpt>
      <trkpt lat="37.095691" lon="-6.041872">
        <ele>2.208</ele>
        <time>2015-06-18T08:00:28Z</time>
      </trkpt>
      <trkpt lat="37.095630" lon="-6.041766">
        <ele>2.283</ele>
        <time>2015-06-18T08:00:30Z</time>
      </trkpt>
      <trkpt lat="37.095607" lon="-6.041712">
        <ele>2.239</ele>
        <time>2015-06-18T08:00:31Z</time>
      </trkpt>
      <trkpt lat="37.095582" lon="-6.041538">
        <ele>2.255</ele>
        <time>2015-06-18T08:00:34Z</time>
      </trkpt>
      <trkpt lat="37.095520" lon="-6.041101">
        <ele>2.274</ele>
        <time>2015-06-18T08:00:41Z</time>
      </trkpt>
      <trkpt lat="37.095478" lon="-6.040771">
        <ele>2.227</ele>
        <time>2015-06-18T08:00:46Z</time>
      </trkpt>
      <trkpt lat="37.095453" lon="-6.040577">
        <ele>2.299</ele>
        <time>2015-06-18T08:00:49Z</time>
      </trkpt>
      <trkpt lat="37.095417" lon="-6.040317">
        <ele>2.052</ele>
        <time>2015-06-18T08:00:53Z</time>
      </trkpt>
      <trkpt lat="37.095405" lon="-6.040253">
        <ele>1.836</ele>
        <time>2015-06-18T08:00:54Z</time>
      </trkpt>
      <trkpt lat="37.095394" lon="-6.040191">
        <ele>1.655</ele>
        <time>2015-06-18T08:00:55Z</time>
      </trkpt>
      <trkpt lat="37.095384" lon="-6.040127">
        <ele>2.007</ele>
        <time>2015-06-18T08:00:56Z</time>
      </trkpt>
      <trkpt lat="37.095372" lon="-6.040062">
        <ele>2.417</ele>
        <time>2015-06-18T08:00:57Z</time>
      </trkpt>
      <trkpt lat="37.095360" lon="-6.039999">
        <ele>2.608</ele>
        <time>2015-06-18T08:00:58Z</time>
      </trkpt>
      <trkpt lat="37.095350" lon="-6.039938">
        <ele>3.086</ele>
        <time>2015-06-18T08:00:59Z</time>
      </trkpt>
      <trkpt lat="37.095340" lon="-6.039879">
        <ele>3.472</ele>
        <time>2015-06-18T08:01:00Z</time>
      </trkpt>
      <trkpt lat="37.095335" lon="-6.039818">
        <ele>3.498</ele>
        <time>2015-06-18T08:01:01Z</time>
      </trkpt>
      <trkpt lat="37.095318" lon="-6.039631">
        <ele>3.457</ele>
        <time>2015-06-18T08:01:04Z</time>
      </trkpt>
      <trkpt lat="37.095230" lon="-6.039193">
        <ele>3.420</ele>
        <time>2015-06-18T08:01:11Z</time>
      </trkpt>
      <trkpt lat="37.095131" lon="-6.038781">
        <ele>3.462</ele>
        <time>2015-06-18T08:01:17Z</time>
      </trkpt>
      <trkpt lat="37.095104" lon="-6.038720">
        <ele>3.465</ele>
        <time>2015-06-18T08:01:18Z</time>
      </trkpt>
      <trkpt lat="37.095026" lon="-6.038632">
        <ele>3.419</ele>
        <time>2015-06-18T08:01:20Z</time>
      </trkpt>
      <trkpt lat="37.094855" lon="-6.038597">
        <ele>3.485</ele>
        <time>2015-06-18T08:01:24Z</time>
      </trkpt>
      <trkpt lat="37.094810" lon="-6.038601">
        <ele>3.489</ele>
        <time>2015-06-18T08:01:25Z</time>
      </trkpt>
      <trkpt lat="37.094667" lon="-6.038592">
        <ele>3.417</ele>
        <time>2015-06-18T08:01:28Z</time>
      </trkpt>
      <trkpt lat="37.094571" lon="-6.038565">
        <ele>3.408</ele>
        <time>2015-06-18T08:01:30Z</time>
      </trkpt>
      <trkpt lat="37.094474" lon="-6.038551">
        <ele>3.449</ele>
        <time>2015-06-18T08:01:32Z</time>
      </trkpt>
      <trkpt lat="37.094334" lon="-6.038591">
        <ele>3.435</ele>
        <time>2015-06-18T08:01:35Z</time>
      </trkpt>
      <trkpt lat="37.094195" lon="-6.038611">
        <ele>3.431</ele>
        <time>2015-06-18T08:01:38Z</time>
      </trkpt>
      <trkpt lat="37.094106" lon="-6.038617">
        <ele>3.440</ele>
        <time>2015-06-18T08:01:40Z</time>
      </trkpt>
      <trkpt lat="37.093822" lon="-6.038636">
        <ele>3.463</ele>
        <time>2015-06-18T08:01:46Z</time>
      </trkpt>
      <trkpt lat="37.093773" lon="-6.038641">
        <ele>3.485</ele>
        <time>2015-06-18T08:01:47Z</time>
      </trkpt>
      <trkpt lat="37.093407" lon="-6.038648">
        <ele>3.418</ele>
        <time>2015-06-18T08:01:54Z</time>
      </trkpt>
      <trkpt lat="37.092968" lon="-6.038671">
        <ele>3.432</ele>
        <time>2015-06-18T08:02:02Z</time>
      </trkpt>
      <trkpt lat="37.092466" lon="-6.038691">
        <ele>3.484</ele>
        <time>2015-06-18T08:02:11Z</time>
      </trkpt>
      <trkpt lat="37.092244" lon="-6.038696">
        <ele>3.407</ele>
        <time>2015-06-18T08:02:15Z</time>
      </trkpt>
      <trkpt lat="37.092139" lon="-6.038709">
        <ele>3.417</ele>
        <time>2015-06-18T08:02:17Z</time>
      </trkpt>
      <trkpt lat="37.091644" lon="-6.038730">
        <ele>3.408</ele>
        <time>2015-06-18T08:02:26Z</time>
      </trkpt>
      <trkpt lat="37.091588" lon="-6.038730">
        <ele>3.499</ele>
        <time>2015-06-18T08:02:27Z</time>
      </trkpt>
      <trkpt lat="37.091227" lon="-6.038747">
        <ele>3.445</ele>
        <time>2015-06-18T08:02:34Z</time>
      </trkpt>
      <trkpt lat="37.091136" lon="-6.038749">
        <ele>3.411</ele>
        <time>2015-06-18T08:02:36Z</time>
      </trkpt>
      <trkpt lat="37.091052" lon="-6.038749">
        <ele>3.440</ele>
        <time>2015-06-18T08:02:38Z</time>
      </trkpt>
      <trkpt lat="37.090974" lon="-6.038732">
        <ele>3.453</ele>
        <time>2015-06-18T08:02:40Z</time>
      </trkpt>
      <trkpt lat="37.090936" lon="-6.038712">
        <ele>3.485</ele>
        <time>2015-06-18T08:02:41Z</time>
      </trkpt>
      <trkpt lat="37.090769" lon="-6.038682">
        <ele>3.458</ele>
        <time>2015-06-18T08:02:45Z</time>
      </trkpt>
      <trkpt lat="37.090632" lon="-6.038684">
        <ele>3.482</ele>
        <time>2015-06-18T08:02:48Z</time>
      </trkpt>
      <trkpt lat="37.090443" lon="-6.038692">
        <ele>3.493</ele>
        <time>2015-06-18T08:02:52Z</time>
      </trkpt>
      <trkpt lat="37.090396" lon="-6.038694">
        <ele>3.465</ele>
        <time>2015-06-18T08:02:53Z</time>
      </trkpt>
      <trkpt lat="37.090147" lon="-6.038702">
        <ele>3.421</ele>
        <time>2015-06-18T08:02:58Z</time>
      </trkpt>
      <trkpt lat="37.089732" lon="-6.038723">
        <ele>3.408</ele>
        <time>2015-06-18T08:03:06Z</time>
      </trkpt>
      <trkpt lat="37.089529" lon="-6.038737">
        <ele>3.490</ele>
        <time>2015-06-18T08:03:10Z</time>
      </trkpt>
      <trkpt lat="37.089423" lon="-6.038744">
        <ele>3.466</ele>
        <time>2015-06-18T08:03:12Z</time>
      </trkpt>
      <trkpt lat="37.089212" lon="-6.038816">
        <ele>3.482</ele>
        <time>2015-06-18T08:03:16Z</time>
      </trkpt>
      <trkpt lat="37.089159" lon="-6.038823">
        <ele>3.461</ele>
        <time>2015-06-18T08:03:17Z</time>
      </trkpt>
      <trkpt lat="37.088838" lon="-6.038832">
        <ele>3.414</ele>
        <time>2015-06-18T08:03:23Z</time>
      </trkpt>
      <trkpt lat="37.088457" lon="-6.038852">
        <ele>3.426</ele>
        <time>2015-06-18T08:03:30Z</time>
      </trkpt>
      <trkpt lat="37.087979" lon="-6.038872">
        <ele>3.449</ele>
        <time>2015-06-18T08:03:39Z</time>
      </trkpt>
      <trkpt lat="37.087734" lon="-6.038875">
        <ele>3.423</ele>
        <time>2015-06-18T08:03:45Z</time>
      </trkpt>
      <trkpt lat="37.087477" lon="-6.038874">
        <ele>3.443</ele>
        <time>2015-06-18T08:03:52Z</time>
      </trkpt>
      <trkpt lat="37.087366" lon="-6.038897">
        <ele>3.464</ele>
        <time>2015-06-18T08:03:55Z</time>
      </trkpt>
      <trkpt lat="37.087324" lon="-6.038897">
        <ele>3.410</ele>
        <time>2015-06-18T08:03:56Z</time>
      </trkpt>
      <trkpt lat="37.086999" lon="-6.038911">
        <ele>3.408</ele>
        <time>2015-06-18T08:04:03Z</time>
      </trkpt>
      <trkpt lat="37.086899" lon="-6.038916">
        <ele>3.465</ele>
        <time>2015-06-18T08:04:05Z</time>
      </trkpt>
      <trkpt lat="37.086547" lon="-6.038931">
        <ele>3.481</ele>
        <time>2015-06-18T08:04:12Z</time>
      </trkpt>
      <trkpt lat="37.086499" lon="-6.038934">
        <ele>3.497</ele>
        <time>2015-06-18T08:04:13Z</time>
      </trkpt>
      <trkpt lat="37.086184" lon="-6.038946">
        <ele>3.446</ele>
        <time>2015-06-18T08:04:20Z</time>
      </trkpt>
      <trkpt lat="37.086135" lon="-6.038948">
        <ele>3.449</ele>
        <time>2015-06-18T08:04:21Z</time>
      </trkpt>
      <trkpt lat="37.085886" lon="-6.038958">
        <ele>3.431</ele>
        <time>2015-06-18T08:04:26Z</time>
      </trkpt>
      <trkpt lat="37.085836" lon="-6.038966">
        <ele>3.414</ele>
        <time>2015-06-18T08:04:27Z</time>
      </trkpt>
      <trkpt lat="37.085644" lon="-6.038975">
        <ele>3.448</ele>
        <time>2015-06-18T08:04:31Z</time>
      </trkpt>
      <trkpt lat="37.085277" lon="-6.038983">
        <ele>3.455</ele>
        <time>2015-06-18T08:04:38Z</time>
      </trkpt>
      <trkpt lat="37.084994" lon="-6.038980">
        <ele>3.407</ele>
        <time>2015-06-18T08:04:43Z</time>
      </trkpt>
      <trkpt lat="37.084884" lon="-6.038996">
        <ele>3.417</ele>
        <time>2015-06-18T08:04:45Z</time>
      </trkpt>
      <trkpt lat="37.084547" lon="-6.039016">
        <ele>3.408</ele>
        <time>2015-06-18T08:04:51Z</time>
      </trkpt>
      <trkpt lat="37.084379" lon="-6.039018">
        <ele>3.486</ele>
        <time>2015-06-18T08:04:54Z</time>
      </trkpt>
      <trkpt lat="37.083829" lon="-6.039042">
        <ele>3.462</ele>
        <time>2015-06-18T08:05:04Z</time>
      </trkpt>
      <trkpt lat="37.083517" lon="-6.039047">
        <ele>3.418</ele>
        <time>2015-06-18T08:05:10Z</time>
      </trkpt>
      <trkpt lat="37.083471" lon="-6.039042">
        <ele>3.447</ele>
        <time>2015-06-18T08:05:11Z</time>
      </trkpt>
      <trkpt lat="37.083309" lon="-6.039062">
        <ele>3.460</ele>
        <time>2015-06-18T08:05:15Z</time>
      </trkpt>
      <trkpt lat="37.083273" lon="-6.039062">
        <ele>3.492</ele>
        <time>2015-06-18T08:05:16Z</time>
      </trkpt>
      <trkpt lat="37.083063" lon="-6.039080">
        <ele>3.485</ele>
        <time>2015-06-18T08:05:22Z</time>
      </trkpt>
      <trkpt lat="37.082831" lon="-6.039068">
        <ele>3.429</ele>
        <time>2015-06-18T08:05:28Z</time>
      </trkpt>
      <trkpt lat="37.082731" lon="-6.039053">
        <ele>3.431</ele>
        <time>2015-06-18T08:05:31Z</time>
      </trkpt>
      <trkpt lat="37.082627" lon="-6.039066">
        <ele>3.461</ele>
        <time>2015-06-18T08:05:34Z</time>
      </trkpt>
      <trkpt lat="37.082360" lon="-6.039096">
        <ele>3.407</ele>
        <time>2015-06-18T08:05:41Z</time>
      </trkpt>
      <trkpt lat="37.082149" lon="-6.039122">
        <ele>3.408</ele>
        <time>2015-06-18T08:05:46Z</time>
      </trkpt>
      <trkpt lat="37.082059" lon="-6.039120">
        <ele>3.464</ele>
        <time>2015-06-18T08:05:48Z</time>
      </trkpt>
      <trkpt lat="37.081727" lon="-6.039077">
        <ele>3.440</ele>
        <time>2015-06-18T08:05:55Z</time>
      </trkpt>
      <trkpt lat="37.081610" lon="-6.039053">
        <ele>3.026</ele>
        <time>2015-06-18T08:05:58Z</time>
      </trkpt>
      <trkpt lat="37.081577" lon="-6.039044">
        <ele>2.625</ele>
        <time>2015-06-18T08:05:59Z</time>
      </trkpt>
      <trkpt lat="37.081546" lon="-6.039035">
        <ele>2.258</ele>
        <time>2015-06-18T08:06:00Z</time>
      </trkpt>
      <trkpt lat="37.081516" lon="-6.039029">
        <ele>1.870</ele>
        <time>2015-06-18T08:06:01Z</time>
      </trkpt>
      <trkpt lat="37.081482" lon="-6.039027">
        <ele>1.443</ele>
        <time>2015-06-18T08:06:02Z</time>
      </trkpt>
      <trkpt lat="37.081367" lon="-6.039047">
        <ele>1.447</ele>
        <time>2015-06-18T08:06:05Z</time>
      </trkpt>
      <trkpt lat="37.081325" lon="-6.039058">
        <ele>1.422</ele>
        <time>2015-06-18T08:06:06Z</time>
      </trkpt>
      <trkpt lat="37.081281" lon="-6.039057">
        <ele>1.462</ele>
        <time>2015-06-18T08:06:07Z</time>
      </trkpt>
      <trkpt lat="37.081136" lon="-6.039033">
        <ele>1.408</ele>
        <time>2015-06-18T08:06:10Z</time>
      </trkpt>
      <trkpt lat="37.080993" lon="-6.039008">
        <ele>1.408</ele>
        <time>2015-06-18T08:06:13Z</time>
      </trkpt>
      <trkpt lat="37.080811" lon="-6.038922">
        <ele>1.493</ele>
        <time>2015-06-18T08:06:17Z</time>
      </trkpt>
      <trkpt lat="37.080759" lon="-6.038905">
        <ele>1.479</ele>
        <time>2015-06-18T08:06:18Z</time>
      </trkpt>
      <trkpt lat="37.080702" lon="-6.038885">
        <ele>1.885</ele>
        <time>2015-06-18T08:06:19Z</time>
      </trkpt>
      <trkpt lat="37.080649" lon="-6.038863">
        <ele>2.214</ele>
        <time>2015-06-18T08:06:20Z</time>
      </trkpt>
      <trkpt lat="37.080598" lon="-6.038833">
        <ele>2.627</ele>
        <time>2015-06-18T08:06:21Z</time>
      </trkpt>
      <trkpt lat="37.080547" lon="-6.038800">
        <ele>3.079</ele>
        <time>2015-06-18T08:06:22Z</time>
      </trkpt>
      <trkpt lat="37.080498" lon="-6.038769">
        <ele>3.472</ele>
        <time>2015-06-18T08:06:23Z</time>
      </trkpt>
      <trkpt lat="37.080307" lon="-6.038639">
        <ele>3.416</ele>
        <time>2015-06-18T08:06:27Z</time>
      </trkpt>
      <trkpt lat="37.080165" lon="-6.038535">
        <ele>3.412</ele>
        <time>2015-06-18T08:06:30Z</time>
      </trkpt>
      <trkpt lat="37.079890" lon="-6.038291">
        <ele>3.432</ele>
        <time>2015-06-18T08:06:36Z</time>
      </trkpt>
      <trkpt lat="37.079804" lon="-6.038207">
        <ele>3.405</ele>
        <time>2015-06-18T08:06:38Z</time>
      </trkpt>
      <trkpt lat="37.079722" lon="-6.038108">
        <ele>3.408</ele>
        <time>2015-06-18T08:06:40Z</time>
      </trkpt>
      <trkpt lat="37.079603" lon="-6.037949">
        <ele>3.472</ele>
        <time>2015-06-18T08:06:43Z</time>
      </trkpt>
      <trkpt lat="37.079420" lon="-6.037664">
        <ele>3.488</ele>
        <time>2015-06-18T08:06:48Z</time>
      </trkpt>
      <trkpt lat="37.079285" lon="-6.037417">
        <ele>3.434</ele>
        <time>2015-06-18T08:06:52Z</time>
      </trkpt>
      <trkpt lat="37.079110" lon="-6.037110">
        <ele>3.423</ele>
        <time>2015-06-18T08:06:58Z</time>
      </trkpt>
      <trkpt lat="37.079028" lon="-6.036855">
        <ele>3.456</ele>
        <time>2015-06-18T08:07:04Z</time>
      </trkpt>
      <trkpt lat="37.079021" lon="-6.036810">
        <ele>3.468</ele>
        <time>2015-06-18T08:07:05Z</time>
      </trkpt>
      <trkpt lat="37.078994" lon="-6.036695">
        <ele>3.421</ele>
        <time>2015-06-18T08:07:08Z</time>
      </trkpt>
      <trkpt lat="37.078965" lon="-6.036624">
        <ele>3.435</ele>
        <time>2015-06-18T08:07:10Z</time>
      </trkpt>
      <trkpt lat="37.078910" lon="-6.036506">
        <ele>3.421</ele>
        <time>2015-06-18T08:07:14Z</time>
      </trkpt>
      <trkpt lat="37.078904" lon="-6.036468">
        <ele>3.441</ele>
        <time>2015-06-18T08:07:15Z</time>
      </trkpt>
      <trkpt lat="37.078869" lon="-6.036287">
        <ele>3.405</ele>
        <time>2015-06-18T08:07:19Z</time>
      </trkpt>
      <trkpt lat="37.078856" lon="-6.036192">
        <ele>3.408</ele>
        <time>2015-06-18T08:07:21Z</time>
      </trkpt>
      <trkpt lat="37.078844" lon="-6.036095">
        <ele>3.463</ele>
        <time>2015-06-18T08:07:23Z</time>
      </trkpt>
      <trkpt lat="37.078825" lon="-6.035879">
        <ele>3.459</ele>
        <time>2015-06-18T08:07:27Z</time>
      </trkpt>
      <trkpt lat="37.078820" lon="-6.035417">
        <ele>3.425</ele>
        <time>2015-06-18T08:07:35Z</time>
      </trkpt>
      <trkpt lat="37.078836" lon="-6.035207">
        <ele>3.424</ele>
        <time>2015-06-18T08:07:39Z</time>
      </trkpt>
      <trkpt lat="37.078846" lon="-6.035112">
        <ele>3.457</ele>
        <time>2015-06-18T08:07:42Z</time>
      </trkpt>
      <trkpt lat="37.078905" lon="-6.034729">
        <ele>3.469</ele>
        <time>2015-06-18T08:07:51Z</time>
      </trkpt>
      <trkpt lat="37.078959" lon="-6.034505">
        <ele>3.432</ele>
        <time>2015-06-18T08:07:56Z</time>
      </trkpt>
      <trkpt lat="37.078984" lon="-6.034405">
        <ele>3.436</ele>
        <time>2015-06-18T08:07:58Z</time>
      </trkpt>
      <trkpt lat="37.079043" lon="-6.034181">
        <ele>3.465</ele>
        <time>2015-06-18T08:08:03Z</time>
      </trkpt>
      <trkpt lat="37.079068" lon="-6.034086">
        <ele>3.468</ele>
        <time>2015-06-18T08:08:05Z</time>
      </trkpt>
      <trkpt lat="37.079090" lon="-6.033887">
        <ele>3.414</ele>
        <time>2015-06-18T08:08:09Z</time>
      </trkpt>
      <trkpt lat="37.079046" lon="-6.033773">
        <ele>3.408</ele>
        <time>2015-06-18T08:08:11Z</time>
      </trkpt>
      <trkpt lat="37.078941" lon="-6.033713">
        <ele>3.487</ele>
        <time>2015-06-18T08:08:13Z</time>
      </trkpt>
      <trkpt lat="37.078885" lon="-6.033691">
        <ele>3.493</ele>
        <time>2015-06-18T08:08:14Z</time>
      </trkpt>
      <trkpt lat="37.078523" lon="-6.033565">
        <ele>3.489</ele>
        <time>2015-06-18T08:08:20Z</time>
      </trkpt>
      <trkpt lat="37.078290" lon="-6.033481">
        <ele>3.448</ele>
        <time>2015-06-18T08:08:24Z</time>
      </trkpt>
      <trkpt lat="37.078176" lon="-6.033447">
        <ele>3.441</ele>
        <time>2015-06-18T08:08:26Z</time>
      </trkpt>
      <trkpt lat="37.078063" lon="-6.033401">
        <ele>3.433</ele>
        <time>2015-06-18T08:08:28Z</time>
      </trkpt>
      <trkpt lat="37.077798" lon="-6.033314">
        <ele>3.426</ele>
        <time>2015-06-18T08:08:33Z</time>
      </trkpt>
      <trkpt lat="37.077430" lon="-6.033160">
        <ele>3.470</ele>
        <time>2015-06-18T08:08:40Z</time>
      </trkpt>
      <trkpt lat="37.077377" lon="-6.033140">
        <ele>3.457</ele>
        <time>2015-06-18T08:08:41Z</time>
      </trkpt>
      <trkpt lat="37.076861" lon="-6.032935">
        <ele>3.400</ele>
        <time>2015-06-18T08:08:51Z</time>
      </trkpt>
      <trkpt lat="37.076818" lon="-6.032917">
        <ele>3.420</ele>
        <time>2015-06-18T08:08:52Z</time>
      </trkpt>
      <trkpt lat="37.076777" lon="-6.032904">
        <ele>3.408</ele>
        <time>2015-06-18T08:08:53Z</time>
      </trkpt>
      <trkpt lat="37.076661" lon="-6.032909">
        <ele>3.496</ele>
        <time>2015-06-18T08:08:56Z</time>
      </trkpt>
      <trkpt lat="37.076625" lon="-6.032931">
        <ele>3.422</ele>
        <time>2015-06-18T08:08:57Z</time>
      </trkpt>
      <trkpt lat="37.076562" lon="-6.033036">
        <ele>3.498</ele>
        <time>2015-06-18T08:09:00Z</time>
      </trkpt>
      <trkpt lat="37.076540" lon="-6.033112">
        <ele>3.467</ele>
        <time>2015-06-18T08:09:02Z</time>
      </trkpt>
      <trkpt lat="37.076494" lon="-6.033312">
        <ele>3.420</ele>
        <time>2015-06-18T08:09:06Z</time>
      </trkpt>
      <trkpt lat="37.076381" lon="-6.033736">
        <ele>3.442</ele>
        <time>2015-06-18T08:09:15Z</time>
      </trkpt>
      <trkpt lat="37.076229" lon="-6.034176">
        <ele>3.435</ele>
        <time>2015-06-18T08:09:24Z</time>
      </trkpt>
      <trkpt lat="37.076006" lon="-6.034629">
        <ele>3.499</ele>
        <time>2015-06-18T08:09:33Z</time>
      </trkpt>
      <trkpt lat="37.075690" lon="-6.035105">
        <ele>3.492</ele>
        <time>2015-06-18T08:09:43Z</time>
      </trkpt>
      <trkpt lat="37.075514" lon="-6.035316">
        <ele>3.473</ele>
        <time>2015-06-18T08:09:48Z</time>
      </trkpt>
      <trkpt lat="37.075357" lon="-6.035463">
        <ele>3.420</ele>
        <time>2015-06-18T08:09:52Z</time>
      </trkpt>
      <trkpt lat="37.075281" lon="-6.035533">
        <ele>3.408</ele>
        <time>2015-06-18T08:09:54Z</time>
      </trkpt>
      <trkpt lat="37.075160" lon="-6.035631">
        <ele>3.460</ele>
        <time>2015-06-18T08:09:57Z</time>
      </trkpt>
      <trkpt lat="37.075117" lon="-6.035663">
        <ele>3.486</ele>
        <time>2015-06-18T08:09:58Z</time>
      </trkpt>
      <trkpt lat="37.074955" lon="-6.035784">
        <ele>3.412</ele>
        <time>2015-06-18T08:10:02Z</time>
      </trkpt>
      <trkpt lat="37.074888" lon="-6.035831">
        <ele>3.471</ele>
        <time>2015-06-18T08:10:04Z</time>
      </trkpt>
      <trkpt lat="37.074713" lon="-6.035932">
        <ele>3.484</ele>
        <time>2015-06-18T08:10:10Z</time>
      </trkpt>
      <trkpt lat="37.074608" lon="-6.035985">
        <ele>3.416</ele>
        <time>2015-06-18T08:10:16Z</time>
      </trkpt>
      <trkpt lat="37.074608" lon="-6.035985">
        <ele>3.499</ele>
        <time>2015-06-18T08:10:25Z</time>
      </trkpt>
      <trkpt lat="37.074608" lon="-6.035985">
        <ele>3.433</ele>
        <time>2015-06-18T08:10:37Z</time>
      </trkpt>
      <trkpt lat="37.074608" lon="-6.035985">
        <ele>3.493</ele>
        <time>2015-06-18T08:10:38Z</time>
      </trkpt>
      <trkpt lat="37.074608" lon="-6.035985">
        <ele>3.465</ele>
        <time>2015-06-18T08:10:46Z</time>
      </trkpt>
      <trkpt lat="37.074608" lon="-6.035985">
        <ele>3.421</ele>
        <time>2015-06-18T08:10:51Z</time>
      </trkpt>
      <trkpt lat="37.074606" lon="-6.035989">
        <ele>3.408</ele>
        <time>2015-06-18T08:10:58Z</time>
      </trkpt>
      <trkpt lat="37.074595" lon="-6.035990">
        <ele>3.480</ele>
        <time>2015-06-18T08:10:59Z</time>
      </trkpt>
      <trkpt lat="37.074480" lon="-6.036040">
        <ele>3.486</ele>
        <time>2015-06-18T08:11:04Z</time>
      </trkpt>
      <trkpt lat="37.074414" lon="-6.036065">
        <ele>3.472</ele>
        <time>2015-06-18T08:11:06Z</time>
      </trkpt>
      <trkpt lat="37.074258" lon="-6.036121">
        <ele>3.431</ele>
        <time>2015-06-18T08:11:10Z</time>
      </trkpt>
      <trkpt lat="37.074215" lon="-6.036132">
        <ele>3.414</ele>
        <time>2015-06-18T08:11:11Z</time>
      </trkpt>
      <trkpt lat="37.074034" lon="-6.036176">
        <ele>3.486</ele>
        <time>2015-06-18T08:11:15Z</time>
      </trkpt>
      <trkpt lat="37.073989" lon="-6.036186">
        <ele>3.469</ele>
        <time>2015-06-18T08:11:16Z</time>
      </trkpt>
      <trkpt lat="37.073701" lon="-6.036250">
        <ele>3.423</ele>
        <time>2015-06-18T08:11:22Z</time>
      </trkpt>
      <trkpt lat="37.073652" lon="-6.036258">
        <ele>3.495</ele>
        <time>2015-06-18T08:11:23Z</time>
      </trkpt>
      <trkpt lat="37.073318" lon="-6.036338">
        <ele>3.449</ele>
        <time>2015-06-18T08:11:30Z</time>
      </trkpt>
      <trkpt lat="37.073273" lon="-6.036347">
        <ele>3.423</ele>
        <time>2015-06-18T08:11:31Z</time>
      </trkpt>
      <trkpt lat="37.072991" lon="-6.036408">
        <ele>3.408</ele>
        <time>2015-06-18T08:11:37Z</time>
      </trkpt>
      <trkpt lat="37.072853" lon="-6.036442">
        <ele>3.460</ele>
        <time>2015-06-18T08:11:40Z</time>
      </trkpt>
      <trkpt lat="37.072415" lon="-6.036528">
        <ele>3.486</ele>
        <time>2015-06-18T08:11:49Z</time>
      </trkpt>
      <trkpt lat="37.072076" lon="-6.036603">
        <ele>3.482</ele>
        <time>2015-06-18T08:11:56Z</time>
      </trkpt>
      <trkpt lat="37.071875" lon="-6.036626">
        <ele>3.491</ele>
        <time>2015-06-18T08:12:00Z</time>
      </trkpt>
      <trkpt lat="37.071775" lon="-6.036617">
        <ele>3.414</ele>
        <time>2015-06-18T08:12:02Z</time>
      </trkpt>
      <trkpt lat="37.071673" lon="-6.036608">
        <ele>3.486</ele>
        <time>2015-06-18T08:12:04Z</time>
      </trkpt>
      <trkpt lat="37.071520" lon="-6.036632">
        <ele>3.439</ele>
        <time>2015-06-18T08:12:07Z</time>
      </trkpt>
      <trkpt lat="37.071369" lon="-6.036659">
        <ele>3.433</ele>
        <time>2015-06-18T08:12:10Z</time>
      </trkpt>
      <trkpt lat="37.071222" lon="-6.036693">
        <ele>3.483</ele>
        <time>2015-06-18T08:12:13Z</time>
      </trkpt>
      <trkpt lat="37.070869" lon="-6.036762">
        <ele>3.425</ele>
        <time>2015-06-18T08:12:20Z</time>
      </trkpt>
      <trkpt lat="37.070486" lon="-6.036858">
        <ele>3.417</ele>
        <time>2015-06-18T08:12:28Z</time>
      </trkpt>
      <trkpt lat="37.070367" lon="-6.036897">
        <ele>3.408</ele>
        <time>2015-06-18T08:12:31Z</time>
      </trkpt>
      <trkpt lat="37.070291" lon="-6.036914">
        <ele>3.469</ele>
        <time>2015-06-18T08:12:33Z</time>
      </trkpt>
      <trkpt lat="37.070170" lon="-6.036954">
        <ele>3.455</ele>
        <time>2015-06-18T08:12:36Z</time>
      </trkpt>
      <trkpt lat="37.070090" lon="-6.036983">
        <ele>3.461</ele>
        <time>2015-06-18T08:12:38Z</time>
      </trkpt>
      <trkpt lat="37.070049" lon="-6.036994">
        <ele>3.470</ele>
        <time>2015-06-18T08:12:39Z</time>
      </trkpt>
      <trkpt lat="37.069878" lon="-6.037031">
        <ele>3.413</ele>
        <time>2015-06-18T08:12:43Z</time>
      </trkpt>
      <trkpt lat="37.069832" lon="-6.037036">
        <ele>3.465</ele>
        <time>2015-06-18T08:12:44Z</time>
      </trkpt>
      <trkpt lat="37.069458" lon="-6.037126">
        <ele>3.478</ele>
        <time>2015-06-18T08:12:52Z</time>
      </trkpt>
      <trkpt lat="37.069361" lon="-6.037149">
        <ele>3.452</ele>
        <time>2015-06-18T08:12:54Z</time>
      </trkpt>
      <trkpt lat="37.069177" lon="-6.037216">
        <ele>3.467</ele>
        <time>2015-06-18T08:12:58Z</time>
      </trkpt>
      <trkpt lat="37.069040" lon="-6.037270">
        <ele>3.481</ele>
        <time>2015-06-18T08:13:01Z</time>
      </trkpt>
      <trkpt lat="37.068993" lon="-6.037279">
        <ele>3.419</ele>
        <time>2015-06-18T08:13:02Z</time>
      </trkpt>
      <trkpt lat="37.068894" lon="-6.037286">
        <ele>3.408</ele>
        <time>2015-06-18T08:13:04Z</time>
      </trkpt>
      <trkpt lat="37.068694" lon="-6.037341">
        <ele>3.437</ele>
        <time>2015-06-18T08:13:08Z</time>
      </trkpt>
      <trkpt lat="37.068598" lon="-6.037373">
        <ele>3.473</ele>
        <time>2015-06-18T08:13:10Z</time>
      </trkpt>
      <trkpt lat="37.068258" lon="-6.037467">
        <ele>3.449</ele>
        <time>2015-06-18T08:13:17Z</time>
      </trkpt>
      <trkpt lat="37.067920" lon="-6.037576">
        <ele>3.458</ele>
        <time>2015-06-18T08:13:24Z</time>
      </trkpt>
      <trkpt lat="37.067475" lon="-6.037713">
        <ele>3.471</ele>
        <time>2015-06-18T08:13:33Z</time>
      </trkpt>
      <trkpt lat="37.067168" lon="-6.037806">
        <ele>3.443</ele>
        <time>2015-06-18T08:13:39Z</time>
      </trkpt>
      <trkpt lat="37.066905" lon="-6.037890">
        <ele>3.496</ele>
        <time>2015-06-18T08:13:44Z</time>
      </trkpt>
      <trkpt lat="37.066698" lon="-6.037953">
        <ele>3.470</ele>
        <time>2015-06-18T08:13:48Z</time>
      </trkpt>
      <trkpt lat="37.066325" lon="-6.038059">
        <ele>3.477</ele>
        <time>2015-06-18T08:13:55Z</time>
      </trkpt>
      <trkpt lat="37.065870" lon="-6.038201">
        <ele>3.461</ele>
        <time>2015-06-18T08:14:04Z</time>
      </trkpt>
      <trkpt lat="37.065669" lon="-6.038269">
        <ele>3.427</ele>
        <time>2015-06-18T08:14:08Z</time>
      </trkpt>
      <trkpt lat="37.065577" lon="-6.038309">
        <ele>3.408</ele>
        <time>2015-06-18T08:14:10Z</time>
      </trkpt>
      <trkpt lat="37.065426" lon="-6.038351">
        <ele>3.478</ele>
        <time>2015-06-18T08:14:13Z</time>
      </trkpt>
      <trkpt lat="37.065274" lon="-6.038397">
        <ele>3.454</ele>
        <time>2015-06-18T08:14:16Z</time>
      </trkpt>
      <trkpt lat="37.065174" lon="-6.038423">
        <ele>3.490</ele>
        <time>2015-06-18T08:14:18Z</time>
      </trkpt>
      <trkpt lat="37.065072" lon="-6.038440">
        <ele>3.429</ele>
        <time>2015-06-18T08:14:20Z</time>
      </trkpt>
      <trkpt lat="37.064971" lon="-6.038473">
        <ele>3.452</ele>
        <time>2015-06-18T08:14:22Z</time>
      </trkpt>
      <trkpt lat="37.064632" lon="-6.038590">
        <ele>3.444</ele>
        <time>2015-06-18T08:14:29Z</time>
      </trkpt>
      <trkpt lat="37.064437" lon="-6.038631">
        <ele>3.467</ele>
        <time>2015-06-18T08:14:33Z</time>
      </trkpt>
      <trkpt lat="37.064083" lon="-6.038751">
        <ele>3.451</ele>
        <time>2015-06-18T08:14:40Z</time>
      </trkpt>
      <trkpt lat="37.063984" lon="-6.038791">
        <ele>3.463</ele>
        <time>2015-06-18T08:14:42Z</time>
      </trkpt>
      <trkpt lat="37.063823" lon="-6.038821">
        <ele>3.444</ele>
        <time>2015-06-18T08:14:45Z</time>
      </trkpt>
      <trkpt lat="37.063384" lon="-6.038932">
        <ele>3.418</ele>
        <time>2015-06-18T08:14:53Z</time>
      </trkpt>
      <trkpt lat="37.063113" lon="-6.039023">
        <ele>3.408</ele>
        <time>2015-06-18T08:14:58Z</time>
      </trkpt>
      <trkpt lat="37.062968" lon="-6.039085">
        <ele>3.467</ele>
        <time>2015-06-18T08:15:01Z</time>
      </trkpt>
      <trkpt lat="37.062816" lon="-6.039128">
        <ele>3.443</ele>
        <time>2015-06-18T08:15:04Z</time>
      </trkpt>
      <trkpt lat="37.062765" lon="-6.039146">
        <ele>3.469</ele>
        <time>2015-06-18T08:15:05Z</time>
      </trkpt>
      <trkpt lat="37.062517" lon="-6.039229">
        <ele>3.418</ele>
        <time>2015-06-18T08:15:10Z</time>
      </trkpt>
      <trkpt lat="37.062421" lon="-6.039270">
        <ele>3.461</ele>
        <time>2015-06-18T08:15:12Z</time>
      </trkpt>
      <trkpt lat="37.062260" lon="-6.039294">
        <ele>3.483</ele>
        <time>2015-06-18T08:15:15Z</time>
      </trkpt>
      <trkpt lat="37.062207" lon="-6.039310">
        <ele>3.436</ele>
        <time>2015-06-18T08:15:16Z</time>
      </trkpt>
      <trkpt lat="37.061841" lon="-6.039422">
        <ele>3.430</ele>
        <time>2015-06-18T08:15:23Z</time>
      </trkpt>
      <trkpt lat="37.061628" lon="-6.039485">
        <ele>3.458</ele>
        <time>2015-06-18T08:15:27Z</time>
      </trkpt>
      <trkpt lat="37.061524" lon="-6.039519">
        <ele>3.452</ele>
        <time>2015-06-18T08:15:29Z</time>
      </trkpt>
      <trkpt lat="37.061101" lon="-6.039649">
        <ele>3.417</ele>
        <time>2015-06-18T08:15:37Z</time>
      </trkpt>
      <trkpt lat="37.060735" lon="-6.039755">
        <ele>3.408</ele>
        <time>2015-06-18T08:15:44Z</time>
      </trkpt>
      <trkpt lat="37.060679" lon="-6.039770">
        <ele>3.446</ele>
        <time>2015-06-18T08:15:45Z</time>
      </trkpt>
      <trkpt lat="37.060365" lon="-6.039862">
        <ele>3.412</ele>
        <time>2015-06-18T08:15:51Z</time>
      </trkpt>
      <trkpt lat="37.060267" lon="-6.039896">
        <ele>3.498</ele>
        <time>2015-06-18T08:15:53Z</time>
      </trkpt>
      <trkpt lat="37.060070" lon="-6.039965">
        <ele>3.497</ele>
        <time>2015-06-18T08:15:57Z</time>
      </trkpt>
      <trkpt lat="37.059869" lon="-6.040028">
        <ele>3.480</ele>
        <time>2015-06-18T08:16:01Z</time>
      </trkpt>
      <trkpt lat="37.059768" lon="-6.040058">
        <ele>3.422</ele>
        <time>2015-06-18T08:16:03Z</time>
      </trkpt>
      <trkpt lat="37.059663" lon="-6.040079">
        <ele>3.465</ele>
        <time>2015-06-18T08:16:05Z</time>
      </trkpt>
      <trkpt lat="37.059508" lon="-6.040125">
        <ele>3.479</ele>
        <time>2015-06-18T08:16:08Z</time>
      </trkpt>
      <trkpt lat="37.059156" lon="-6.040237">
        <ele>3.448</ele>
        <time>2015-06-18T08:16:15Z</time>
      </trkpt>
      <trkpt lat="37.059112" lon="-6.040260">
        <ele>3.461</ele>
        <time>2015-06-18T08:16:16Z</time>
      </trkpt>
      <trkpt lat="37.059026" lon="-6.040311">
        <ele>3.417</ele>
        <time>2015-06-18T08:16:18Z</time>
      </trkpt>
      <trkpt lat="37.058934" lon="-6.040343">
        <ele>3.408</ele>
        <time>2015-06-18T08:16:20Z</time>
      </trkpt>
      <trkpt lat="37.058647" lon="-6.040386">
        <ele>3.475</ele>
        <time>2015-06-18T08:16:26Z</time>
      </trkpt>
      <trkpt lat="37.058601" lon="-6.040400">
        <ele>3.451</ele>
        <time>2015-06-18T08:16:27Z</time>
      </trkpt>
      <trkpt lat="37.058284" lon="-6.040504">
        <ele>3.447</ele>
        <time>2015-06-18T08:16:34Z</time>
      </trkpt>
      <trkpt lat="37.057925" lon="-6.040612">
        <ele>3.466</ele>
        <time>2015-06-18T08:16:42Z</time>
      </trkpt>
      <trkpt lat="37.057571" lon="-6.040716">
        <ele>3.459</ele>
        <time>2015-06-18T08:16:50Z</time>
      </trkpt>
      <trkpt lat="37.057271" lon="-6.040805">
        <ele>3.491</ele>
        <time>2015-06-18T08:16:57Z</time>
      </trkpt>
      <trkpt lat="37.057100" lon="-6.040869">
        <ele>3.484</ele>
        <time>2015-06-18T08:17:01Z</time>
      </trkpt>
      <trkpt lat="37.057017" lon="-6.040911">
        <ele>3.498</ele>
        <time>2015-06-18T08:17:03Z</time>
      </trkpt>
      <trkpt lat="37.056884" lon="-6.040970">
        <ele>3.454</ele>
        <time>2015-06-18T08:17:06Z</time>
      </trkpt>
      <trkpt lat="37.056744" lon="-6.041028">
        <ele>3.456</ele>
        <time>2015-06-18T08:17:09Z</time>
      </trkpt>
      <trkpt lat="37.056565" lon="-6.041144">
        <ele>3.411</ele>
        <time>2015-06-18T08:17:13Z</time>
      </trkpt>
      <trkpt lat="37.056517" lon="-6.041165">
        <ele>3.408</ele>
        <time>2015-06-18T08:17:14Z</time>
      </trkpt>
      <trkpt lat="37.056328" lon="-6.041265">
        <ele>3.466</ele>
        <time>2015-06-18T08:17:18Z</time>
      </trkpt>
      <trkpt lat="37.056235" lon="-6.041319">
        <ele>3.472</ele>
        <time>2015-06-18T08:17:20Z</time>
      </trkpt>
      <trkpt lat="37.056146" lon="-6.041380">
        <ele>3.488</ele>
        <time>2015-06-18T08:17:22Z</time>
      </trkpt>
      <trkpt lat="37.055933" lon="-6.041546">
        <ele>3.457</ele>
        <time>2015-06-18T08:17:27Z</time>
      </trkpt>
      <trkpt lat="37.055885" lon="-6.041576">
        <ele>3.430</ele>
        <time>2015-06-18T08:17:28Z</time>
      </trkpt>
      <trkpt lat="37.055748" lon="-6.041645">
        <ele>3.422</ele>
        <time>2015-06-18T08:17:31Z</time>
      </trkpt>
      <trkpt lat="37.055449" lon="-6.041826">
        <ele>3.475</ele>
        <time>2015-06-18T08:17:38Z</time>
      </trkpt>
      <trkpt lat="37.055409" lon="-6.041850">
        <ele>3.479</ele>
        <time>2015-06-18T08:17:39Z</time>
      </trkpt>
      <trkpt lat="37.055297" lon="-6.041954">
        <ele>3.419</ele>
        <time>2015-06-18T08:17:42Z</time>
      </trkpt>
      <trkpt lat="37.055215" lon="-6.042016">
        <ele>3.409</ele>
        <time>2015-06-18T08:17:44Z</time>
      </trkpt>
      <trkpt lat="37.055092" lon="-6.042100">
        <ele>3.419</ele>
        <time>2015-06-18T08:17:47Z</time>
      </trkpt>
      <trkpt lat="37.054896" lon="-6.042295">
        <ele>3.408</ele>
        <time>2015-06-18T08:17:52Z</time>
      </trkpt>
      <trkpt lat="37.054864" lon="-6.042344">
        <ele>3.492</ele>
        <time>2015-06-18T08:17:53Z</time>
      </trkpt>
      <trkpt lat="37.054698" lon="-6.042595">
        <ele>3.458</ele>
        <time>2015-06-18T08:17:58Z</time>
      </trkpt>
      <trkpt lat="37.054627" lon="-6.042696">
        <ele>3.494</ele>
        <time>2015-06-18T08:18:00Z</time>
      </trkpt>
      <trkpt lat="37.054526" lon="-6.042844">
        <ele>3.433</ele>
        <time>2015-06-18T08:18:03Z</time>
      </trkpt>
      <trkpt lat="37.054418" lon="-6.042972">
        <ele>3.416</ele>
        <time>2015-06-18T08:18:06Z</time>
      </trkpt>
      <trkpt lat="37.054339" lon="-6.043048">
        <ele>3.498</ele>
        <time>2015-06-18T08:18:08Z</time>
      </trkpt>
      <trkpt lat="37.054207" lon="-6.043143">
        <ele>3.421</ele>
        <time>2015-06-18T08:18:11Z</time>
      </trkpt>
      <trkpt lat="37.054164" lon="-6.043179">
        <ele>3.465</ele>
        <time>2015-06-18T08:18:12Z</time>
      </trkpt>
      <trkpt lat="37.053848" lon="-6.043422">
        <ele>3.429</ele>
        <time>2015-06-18T08:18:19Z</time>
      </trkpt>
      <trkpt lat="37.053620" lon="-6.043613">
        <ele>3.400</ele>
        <time>2015-06-18T08:18:24Z</time>
      </trkpt>
      <trkpt lat="37.053574" lon="-6.043650">
        <ele>3.420</ele>
        <time>2015-06-18T08:18:25Z</time>
      </trkpt>
      <trkpt lat="37.053401" lon="-6.043796">
        <ele>3.408</ele>
        <time>2015-06-18T08:18:29Z</time>
      </trkpt>
      <trkpt lat="37.053319" lon="-6.043869">
        <ele>3.423</ele>
        <time>2015-06-18T08:18:31Z</time>
      </trkpt>
      <trkpt lat="37.053013" lon="-6.044118">
        <ele>3.429</ele>
        <time>2015-06-18T08:18:38Z</time>
      </trkpt>
      <trkpt lat="37.052778" lon="-6.044348">
        <ele>3.495</ele>
        <time>2015-06-18T08:18:44Z</time>
      </trkpt>
      <trkpt lat="37.052748" lon="-6.044390">
        <ele>3.484</ele>
        <time>2015-06-18T08:18:45Z</time>
      </trkpt>
      <trkpt lat="37.052649" lon="-6.044556">
        <ele>3.437</ele>
        <time>2015-06-18T08:18:49Z</time>
      </trkpt>
      <trkpt lat="37.052543" lon="-6.044777">
        <ele>3.449</ele>
        <time>2015-06-18T08:18:55Z</time>
      </trkpt>
      <trkpt lat="37.052505" lon="-6.044948">
        <ele>3.492</ele>
        <time>2015-06-18T08:19:00Z</time>
      </trkpt>
      <trkpt lat="37.052464" lon="-6.045203">
        <ele>3.486</ele>
        <time>2015-06-18T08:19:06Z</time>
      </trkpt>
      <trkpt lat="37.052452" lon="-6.045254">
        <ele>3.466</ele>
        <time>2015-06-18T08:19:07Z</time>
      </trkpt>
      <trkpt lat="37.052425" lon="-6.045476">
        <ele>3.429</ele>
        <time>2015-06-18T08:19:11Z</time>
      </trkpt>
      <trkpt lat="37.052401" lon="-6.045651">
        <ele>3.421</ele>
        <time>2015-06-18T08:19:14Z</time>
      </trkpt>
      <trkpt lat="37.052382" lon="-6.045832">
        <ele>3.408</ele>
        <time>2015-06-18T08:19:17Z</time>
      </trkpt>
      <trkpt lat="37.052331" lon="-6.046254">
        <ele>3.447</ele>
        <time>2015-06-18T08:19:24Z</time>
      </trkpt>
      <trkpt lat="37.052283" lon="-6.046654">
        <ele>3.483</ele>
        <time>2015-06-18T08:19:30Z</time>
      </trkpt>
      <trkpt lat="37.052229" lon="-6.047071">
        <ele>3.469</ele>
        <time>2015-06-18T08:19:36Z</time>
      </trkpt>
      <trkpt lat="37.052212" lon="-6.047285">
        <ele>3.478</ele>
        <time>2015-06-18T08:19:39Z</time>
      </trkpt>
      <trkpt lat="37.052185" lon="-6.047492">
        <ele>3.431</ele>
        <time>2015-06-18T08:19:42Z</time>
      </trkpt>
      <trkpt lat="37.052119" lon="-6.047965">
        <ele>3.413</ele>
        <time>2015-06-18T08:19:49Z</time>
      </trkpt>
      <trkpt lat="37.052078" lon="-6.048380">
        <ele>3.436</ele>
        <time>2015-06-18T08:19:55Z</time>
      </trkpt>
      <trkpt lat="37.052069" lon="-6.048510">
        <ele>3.420</ele>
        <time>2015-06-18T08:19:57Z</time>
      </trkpt>
      <trkpt lat="37.052068" lon="-6.048636">
        <ele>3.472</ele>
        <time>2015-06-18T08:19:59Z</time>
      </trkpt>
      <trkpt lat="37.052077" lon="-6.048754">
        <ele>3.413</ele>
        <time>2015-06-18T08:20:01Z</time>
      </trkpt>
      <trkpt lat="37.052079" lon="-6.049105">
        <ele>3.414</ele>
        <time>2015-06-18T08:20:07Z</time>
      </trkpt>
      <trkpt lat="37.052078" lon="-6.049283">
        <ele>3.408</ele>
        <time>2015-06-18T08:20:10Z</time>
      </trkpt>
      <trkpt lat="37.052070" lon="-6.049529">
        <ele>3.488</ele>
        <time>2015-06-18T08:20:14Z</time>
      </trkpt>
      <trkpt lat="37.052071" lon="-6.049922">
        <ele>3.494</ele>
        <time>2015-06-18T08:20:20Z</time>
      </trkpt>
      <trkpt lat="37.052078" lon="-6.050397">
        <ele>3.480</ele>
        <time>2015-06-18T08:20:27Z</time>
      </trkpt>
      <trkpt lat="37.052082" lon="-6.050861">
        <ele>3.479</ele>
        <time>2015-06-18T08:20:34Z</time>
      </trkpt>
      <trkpt lat="37.052098" lon="-6.051464">
        <ele>3.482</ele>
        <time>2015-06-18T08:20:43Z</time>
      </trkpt>
      <trkpt lat="37.052121" lon="-6.051861">
        <ele>3.414</ele>
        <time>2015-06-18T08:20:49Z</time>
      </trkpt>
      <trkpt lat="37.052144" lon="-6.052328">
        <ele>3.417</ele>
        <time>2015-06-18T08:20:56Z</time>
      </trkpt>
      <trkpt lat="37.052142" lon="-6.052440">
        <ele>3.471</ele>
        <time>2015-06-18T08:20:58Z</time>
      </trkpt>
      <trkpt lat="37.052156" lon="-6.052595">
        <ele>3.447</ele>
        <time>2015-06-18T08:21:01Z</time>
      </trkpt>
      <trkpt lat="37.052159" lon="-6.052643">
        <ele>3.429</ele>
        <time>2015-06-18T08:21:02Z</time>
      </trkpt>
      <trkpt lat="37.052179" lon="-6.053017">
        <ele>3.421</ele>
        <time>2015-06-18T08:21:09Z</time>
      </trkpt>
      <trkpt lat="37.052189" lon="-6.053138">
        <ele>3.408</ele>
        <time>2015-06-18T08:21:11Z</time>
      </trkpt>
      <trkpt lat="37.052200" lon="-6.053259">
        <ele>3.475</ele>
        <time>2015-06-18T08:21:13Z</time>
      </trkpt>
      <trkpt lat="37.052207" lon="-6.053386">
        <ele>3.411</ele>
        <time>2015-06-18T08:21:15Z</time>
      </trkpt>
      <trkpt lat="37.052246" lon="-6.053767">
        <ele>3.457</ele>
        <time>2015-06-18T08:21:21Z</time>
      </trkpt>
      <trkpt lat="37.052243" lon="-6.053834">
        <ele>3.476</ele>
        <time>2015-06-18T08:21:22Z</time>
      </trkpt>
      <trkpt lat="37.052252" lon="-6.054017">
        <ele>3.439</ele>
        <time>2015-06-18T08:21:25Z</time>
      </trkpt>
      <trkpt lat="37.052275" lon="-6.054126">
        <ele>3.411</ele>
        <time>2015-06-18T08:21:27Z</time>
      </trkpt>
      <trkpt lat="37.052353" lon="-6.054516">
        <ele>3.414</ele>
        <time>2015-06-18T08:21:34Z</time>
      </trkpt>
      <trkpt lat="37.052368" lon="-6.054577">
        <ele>3.458</ele>
        <time>2015-06-18T08:21:35Z</time>
      </trkpt>
      <trkpt lat="37.052435" lon="-6.054889">
        <ele>3.442</ele>
        <time>2015-06-18T08:21:40Z</time>
      </trkpt>
      <trkpt lat="37.052451" lon="-6.054952">
        <ele>3.422</ele>
        <time>2015-06-18T08:21:41Z</time>
      </trkpt>
      <trkpt lat="37.052519" lon="-6.055204">
        <ele>3.414</ele>
        <time>2015-06-18T08:21:45Z</time>
      </trkpt>
      <trkpt lat="37.052590" lon="-6.055587">
        <ele>3.408</ele>
        <time>2015-06-18T08:21:51Z</time>
      </trkpt>
      <trkpt lat="37.052614" lon="-6.055720">
        <ele>3.445</ele>
        <time>2015-06-18T08:21:53Z</time>
      </trkpt>
      <trkpt lat="37.052637" lon="-6.055855">
        <ele>3.461</ele>
        <time>2015-06-18T08:21:55Z</time>
      </trkpt>
      <trkpt lat="37.052692" lon="-6.056128">
        <ele>3.427</ele>
        <time>2015-06-18T08:21:59Z</time>
      </trkpt>
      <trkpt lat="37.052776" lon="-6.056596">
        <ele>3.426</ele>
        <time>2015-06-18T08:22:06Z</time>
      </trkpt>
      <trkpt lat="37.052857" lon="-6.057047">
        <ele>3.489</ele>
        <time>2015-06-18T08:22:13Z</time>
      </trkpt>
      <trkpt lat="37.052960" lon="-6.057578">
        <ele>3.471</ele>
        <time>2015-06-18T08:22:21Z</time>
      </trkpt>
      <trkpt lat="37.053021" lon="-6.057906">
        <ele>3.494</ele>
        <time>2015-06-18T08:22:26Z</time>
      </trkpt>
      <trkpt lat="37.053051" lon="-6.058040">
        <ele>3.468</ele>
        <time>2015-06-18T08:22:28Z</time>
      </trkpt>
      <trkpt lat="37.053072" lon="-6.058167">
        <ele>3.463</ele>
        <time>2015-06-18T08:22:30Z</time>
      </trkpt>
      <trkpt lat="37.053105" lon="-6.058343">
        <ele>3.444</ele>
        <time>2015-06-18T08:22:33Z</time>
      </trkpt>
      <trkpt lat="37.053110" lon="-6.058403">
        <ele>3.418</ele>
        <time>2015-06-18T08:22:34Z</time>
      </trkpt>
      <trkpt lat="37.053154" lon="-6.058646">
        <ele>3.408</ele>
        <time>2015-06-18T08:22:38Z</time>
      </trkpt>
      <trkpt lat="37.053162" lon="-6.058709">
        <ele>3.427</ele>
        <time>2015-06-18T08:22:39Z</time>
      </trkpt>
      <trkpt lat="37.053188" lon="-6.058830">
        <ele>3.483</ele>
        <time>2015-06-18T08:22:41Z</time>
      </trkpt>
      <trkpt lat="37.053215" lon="-6.059015">
        <ele>3.429</ele>
        <time>2015-06-18T08:22:44Z</time>
      </trkpt>
      <trkpt lat="37.053228" lon="-6.059074">
        <ele>3.468</ele>
        <time>2015-06-18T08:22:45Z</time>
      </trkpt>
      <trkpt lat="37.053286" lon="-6.059315">
        <ele>3.431</ele>
        <time>2015-06-18T08:22:49Z</time>
      </trkpt>
      <trkpt lat="37.053376" lon="-6.059819">
        <ele>3.453</ele>
        <time>2015-06-18T08:22:57Z</time>
      </trkpt>
      <trkpt lat="37.053406" lon="-6.060015">
        <ele>3.486</ele>
        <time>2015-06-18T08:23:00Z</time>
      </trkpt>
      <trkpt lat="37.053444" lon="-6.060204">
        <ele>3.470</ele>
        <time>2015-06-18T08:23:03Z</time>
      </trkpt>
      <trkpt lat="37.053484" lon="-6.060387">
        <ele>3.463</ele>
        <time>2015-06-18T08:23:06Z</time>
      </trkpt>
      <trkpt lat="37.053513" lon="-6.060575">
        <ele>3.444</ele>
        <time>2015-06-18T08:23:09Z</time>
      </trkpt>
      <trkpt lat="37.053549" lon="-6.060760">
        <ele>3.418</ele>
        <time>2015-06-18T08:23:12Z</time>
      </trkpt>
      <trkpt lat="37.053598" lon="-6.061011">
        <ele>3.408</ele>
        <time>2015-06-18T08:23:16Z</time>
      </trkpt>
      <trkpt lat="37.053667" lon="-6.061402">
        <ele>3.427</ele>
        <time>2015-06-18T08:23:22Z</time>
      </trkpt>
      <trkpt lat="37.053776" lon="-6.061925">
        <ele>3.453</ele>
        <time>2015-06-18T08:23:30Z</time>
      </trkpt>
      <trkpt lat="37.053887" lon="-6.062441">
        <ele>3.439</ele>
        <time>2015-06-18T08:23:38Z</time>
      </trkpt>
      <trkpt lat="37.054002" lon="-6.062835">
        <ele>3.438</ele>
        <time>2015-06-18T08:23:44Z</time>
      </trkpt>
      <trkpt lat="37.053979" lon="-6.063042">
        <ele>3.491</ele>
        <time>2015-06-18T08:23:47Z</time>
      </trkpt>
      <trkpt lat="37.053902" lon="-6.063155">
        <ele>3.423</ele>
        <time>2015-06-18T08:23:49Z</time>
      </trkpt>
      <trkpt lat="37.053834" lon="-6.063270">
        <ele>3.456</ele>
        <time>2015-06-18T08:23:51Z</time>
      </trkpt>
      <trkpt lat="37.053685" lon="-6.063524">
        <ele>3.490</ele>
        <time>2015-06-18T08:23:56Z</time>
      </trkpt>
      <trkpt lat="37.053622" lon="-6.063627">
        <ele>3.412</ele>
        <time>2015-06-18T08:23:58Z</time>
      </trkpt>
      <trkpt lat="37.053490" lon="-6.063824">
        <ele>3.432</ele>
        <time>2015-06-18T08:24:02Z</time>
      </trkpt>
      <trkpt lat="37.053466" lon="-6.063878">
        <ele>3.405</ele>
        <time>2015-06-18T08:24:03Z</time>
      </trkpt>
      <trkpt lat="37.053350" lon="-6.064297">
        <ele>3.408</ele>
        <time>2015-06-18T08:24:10Z</time>
      </trkpt>
      <trkpt lat="37.053309" lon="-6.064708">
        <ele>3.432</ele>
        <time>2015-06-18T08:24:17Z</time>
      </trkpt>
      <trkpt lat="37.053352" lon="-6.064883">
        <ele>3.488</ele>
        <time>2015-06-18T08:24:21Z</time>
      </trkpt>
      <trkpt lat="37.053509" lon="-6.065143">
        <ele>3.414</ele>
        <time>2015-06-18T08:24:27Z</time>
      </trkpt>
      <trkpt lat="37.053610" lon="-6.065340">
        <ele>3.463</ele>
        <time>2015-06-18T08:24:31Z</time>
      </trkpt>
      <trkpt lat="37.053659" lon="-6.065441">
        <ele>3.486</ele>
        <time>2015-06-18T08:24:33Z</time>
      </trkpt>
      <trkpt lat="37.053705" lon="-6.065538">
        <ele>3.448</ele>
        <time>2015-06-18T08:24:35Z</time>
      </trkpt>
      <trkpt lat="37.053771" lon="-6.065726">
        <ele>3.491</ele>
        <time>2015-06-18T08:24:39Z</time>
      </trkpt>
      <trkpt lat="37.053867" lon="-6.065991">
        <ele>3.415</ele>
        <time>2015-06-18T08:24:45Z</time>
      </trkpt>
      <trkpt lat="37.053977" lon="-6.066361">
        <ele>3.495</ele>
        <time>2015-06-18T08:24:52Z</time>
      </trkpt>
      <trkpt lat="37.054024" lon="-6.066566">
        <ele>3.449</ele>
        <time>2015-06-18T08:24:56Z</time>
      </trkpt>
      <trkpt lat="37.054043" lon="-6.066661">
        <ele>3.423</ele>
        <time>2015-06-18T08:24:58Z</time>
      </trkpt>
      <trkpt lat="37.054084" lon="-6.066875">
        <ele>3.408</ele>
        <time>2015-06-18T08:25:03Z</time>
      </trkpt>
      <trkpt lat="37.054135" lon="-6.067167">
        <ele>3.420</ele>
        <time>2015-06-18T08:25:09Z</time>
      </trkpt>
      <trkpt lat="37.054162" lon="-6.067323">
        <ele>3.466</ele>
        <time>2015-06-18T08:25:12Z</time>
      </trkpt>
      <trkpt lat="37.054170" lon="-6.067434">
        <ele>3.412</ele>
        <time>2015-06-18T08:25:14Z</time>
      </trkpt>
      <trkpt lat="37.054236" lon="-6.067830">
        <ele>3.441</ele>
        <time>2015-06-18T08:25:21Z</time>
      </trkpt>
      <trkpt lat="37.054250" lon="-6.067951">
        <ele>3.454</ele>
        <time>2015-06-18T08:25:23Z</time>
      </trkpt>
      <trkpt lat="37.054293" lon="-6.068133">
        <ele>3.476</ele>
        <time>2015-06-18T08:25:26Z</time>
      </trkpt>
      <trkpt lat="37.054337" lon="-6.068316">
        <ele>3.419</ele>
        <time>2015-06-18T08:25:29Z</time>
      </trkpt>
      <trkpt lat="37.054371" lon="-6.068500">
        <ele>3.453</ele>
        <time>2015-06-18T08:25:32Z</time>
      </trkpt>
      <trkpt lat="37.054448" lon="-6.068928">
        <ele>3.463</ele>
        <time>2015-06-18T08:25:39Z</time>
      </trkpt>
      <trkpt lat="37.054502" lon="-6.069246">
        <ele>3.444</ele>
        <time>2015-06-18T08:25:44Z</time>
      </trkpt>
      <trkpt lat="37.054539" lon="-6.069441">
        <ele>3.418</ele>
        <time>2015-06-18T08:25:47Z</time>
      </trkpt>
      <trkpt lat="37.054560" lon="-6.069647">
        <ele>3.408</ele>
        <time>2015-06-18T08:25:50Z</time>
      </trkpt>
      <trkpt lat="37.054590" lon="-6.069842">
        <ele>3.457</ele>
        <time>2015-06-18T08:25:53Z</time>
      </trkpt>
      <trkpt lat="37.054693" lon="-6.070228">
        <ele>3.413</ele>
        <time>2015-06-18T08:25:59Z</time>
      </trkpt>
      <trkpt lat="37.054818" lon="-6.070609">
        <ele>3.419</ele>
        <time>2015-06-18T08:26:05Z</time>
      </trkpt>
      <trkpt lat="37.055021" lon="-6.071135">
        <ele>3.418</ele>
        <time>2015-06-18T08:26:13Z</time>
      </trkpt>
      <trkpt lat="37.055288" lon="-6.071639">
        <ele>3.441</ele>
        <time>2015-06-18T08:26:21Z</time>
      </trkpt>
      <trkpt lat="37.055519" lon="-6.072024">
        <ele>3.443</ele>
        <time>2015-06-18T08:26:27Z</time>
      </trkpt>
      <trkpt lat="37.055656" lon="-6.072204">
        <ele>3.456</ele>
        <time>2015-06-18T08:26:31Z</time>
      </trkpt>
      <trkpt lat="37.055954" lon="-6.072640">
        <ele>3.480</ele>
        <time>2015-06-18T08:26:38Z</time>
      </trkpt>
      <trkpt lat="37.056132" lon="-6.073048">
        <ele>3.431</ele>
        <time>2015-06-18T08:26:44Z</time>
      </trkpt>
      <trkpt lat="37.056285" lon="-6.073470">
        <ele>3.461</ele>
        <time>2015-06-18T08:26:50Z</time>
      </trkpt>
      <trkpt lat="37.056307" lon="-6.073536">
        <ele>3.407</ele>
        <time>2015-06-18T08:26:51Z</time>
      </trkpt>
      <trkpt lat="37.056412" lon="-6.074044">
        <ele>3.408</ele>
        <time>2015-06-18T08:26:58Z</time>
      </trkpt>
      <trkpt lat="37.056443" lon="-6.074496">
        <ele>3.454</ele>
        <time>2015-06-18T08:27:04Z</time>
      </trkpt>
      <trkpt lat="37.056436" lon="-6.074804">
        <ele>3.470</ele>
        <time>2015-06-18T08:27:08Z</time>
      </trkpt>
      <trkpt lat="37.056422" lon="-6.074954">
        <ele>3.466</ele>
        <time>2015-06-18T08:27:10Z</time>
      </trkpt>
      <trkpt lat="37.056385" lon="-6.075333">
        <ele>3.445</ele>
        <time>2015-06-18T08:27:15Z</time>
      </trkpt>
      <trkpt lat="37.056347" lon="-6.075751">
        <ele>3.418</ele>
        <time>2015-06-18T08:27:21Z</time>
      </trkpt>
      <trkpt lat="37.056321" lon="-6.076172">
        <ele>3.470</ele>
        <time>2015-06-18T08:27:27Z</time>
      </trkpt>
      <trkpt lat="37.056281" lon="-6.076601">
        <ele>3.413</ele>
        <time>2015-06-18T08:27:33Z</time>
      </trkpt>
      <trkpt lat="37.056269" lon="-6.076742">
        <ele>3.467</ele>
        <time>2015-06-18T08:27:35Z</time>
      </trkpt>
      <trkpt lat="37.056215" lon="-6.077387">
        <ele>3.491</ele>
        <time>2015-06-18T08:27:44Z</time>
      </trkpt>
      <trkpt lat="37.056167" lon="-6.077848">
        <ele>3.481</ele>
        <time>2015-06-18T08:27:51Z</time>
      </trkpt>
      <trkpt lat="37.056149" lon="-6.078097">
        <ele>3.419</ele>
        <time>2015-06-18T08:27:55Z</time>
      </trkpt>
      <trkpt lat="37.056128" lon="-6.078288">
        <ele>3.408</ele>
        <time>2015-06-18T08:27:58Z</time>
      </trkpt>
      <trkpt lat="37.056085" lon="-6.078765">
        <ele>3.440</ele>
        <time>2015-06-18T08:28:05Z</time>
      </trkpt>
      <trkpt lat="37.056039" lon="-6.079249">
        <ele>3.486</ele>
        <time>2015-06-18T08:28:12Z</time>
      </trkpt>
      <trkpt lat="37.056015" lon="-6.079567">
        <ele>3.412</ele>
        <time>2015-06-18T08:28:17Z</time>
      </trkpt>
      <trkpt lat="37.056002" lon="-6.079694">
        <ele>3.481</ele>
        <time>2015-06-18T08:28:19Z</time>
      </trkpt>
      <trkpt lat="37.055952" lon="-6.080237">
        <ele>3.444</ele>
        <time>2015-06-18T08:28:27Z</time>
      </trkpt>
      <trkpt lat="37.055907" lon="-6.080758">
        <ele>3.426</ele>
        <time>2015-06-18T08:28:35Z</time>
      </trkpt>
      <trkpt lat="37.055865" lon="-6.081264">
        <ele>3.489</ele>
        <time>2015-06-18T08:28:43Z</time>
      </trkpt>
      <trkpt lat="37.055832" lon="-6.081589">
        <ele>3.473</ele>
        <time>2015-06-18T08:28:48Z</time>
      </trkpt>
      <trkpt lat="37.055823" lon="-6.081725">
        <ele>3.414</ele>
        <time>2015-06-18T08:28:50Z</time>
      </trkpt>
      <trkpt lat="37.055783" lon="-6.082071">
        <ele>3.454</ele>
        <time>2015-06-18T08:28:55Z</time>
      </trkpt>
      <trkpt lat="37.055775" lon="-6.082141">
        <ele>3.409</ele>
        <time>2015-06-18T08:28:56Z</time>
      </trkpt>
      <trkpt lat="37.055753" lon="-6.082285">
        <ele>3.408</ele>
        <time>2015-06-18T08:28:58Z</time>
      </trkpt>
      <trkpt lat="37.055742" lon="-6.082438">
        <ele>3.452</ele>
        <time>2015-06-18T08:29:00Z</time>
      </trkpt>
      <trkpt lat="37.055741" lon="-6.082590">
        <ele>3.418</ele>
        <time>2015-06-18T08:29:02Z</time>
      </trkpt>
      <trkpt lat="37.055702" lon="-6.082976">
        <ele>3.444</ele>
        <time>2015-06-18T08:29:07Z</time>
      </trkpt>
      <trkpt lat="37.055665" lon="-6.083538">
        <ele>3.413</ele>
        <time>2015-06-18T08:29:14Z</time>
      </trkpt>
      <trkpt lat="37.055613" lon="-6.084028">
        <ele>3.466</ele>
        <time>2015-06-18T08:29:20Z</time>
      </trkpt>
      <trkpt lat="37.055591" lon="-6.084275">
        <ele>3.478</ele>
        <time>2015-06-18T08:29:23Z</time>
      </trkpt>
      <trkpt lat="37.055597" lon="-6.084358">
        <ele>3.491</ele>
        <time>2015-06-18T08:29:24Z</time>
      </trkpt>
      <trkpt lat="37.055580" lon="-6.084606">
        <ele>3.415</ele>
        <time>2015-06-18T08:29:27Z</time>
      </trkpt>
      <trkpt lat="37.055548" lon="-6.084767">
        <ele>3.445</ele>
        <time>2015-06-18T08:29:29Z</time>
      </trkpt>
      <trkpt lat="37.055530" lon="-6.084939">
        <ele>3.447</ele>
        <time>2015-06-18T08:29:31Z</time>
      </trkpt>
      <trkpt lat="37.055480" lon="-6.085515">
        <ele>3.411</ele>
        <time>2015-06-18T08:29:38Z</time>
      </trkpt>
      <trkpt lat="37.055418" lon="-6.086071">
        <ele>3.408</ele>
        <time>2015-06-18T08:29:45Z</time>
      </trkpt>
      <trkpt lat="37.055385" lon="-6.086308">
        <ele>3.415</ele>
        <time>2015-06-18T08:29:48Z</time>
      </trkpt>
      <trkpt lat="37.055345" lon="-6.086542">
        <ele>3.451</ele>
        <time>2015-06-18T08:29:51Z</time>
      </trkpt>
      <trkpt lat="37.055315" lon="-6.086698">
        <ele>3.487</ele>
        <time>2015-06-18T08:29:53Z</time>
      </trkpt>
      <trkpt lat="37.055249" lon="-6.086978">
        <ele>3.466</ele>
        <time>2015-06-18T08:29:57Z</time>
      </trkpt>
      <trkpt lat="37.055154" lon="-6.087286">
        <ele>3.479</ele>
        <time>2015-06-18T08:30:02Z</time>
      </trkpt>
      <trkpt lat="37.055116" lon="-6.087399">
        <ele>3.431</ele>
        <time>2015-06-18T08:30:04Z</time>
      </trkpt>
      <trkpt lat="37.055045" lon="-6.087607">
        <ele>3.454</ele>
        <time>2015-06-18T08:30:08Z</time>
      </trkpt>
      <trkpt lat="37.054988" lon="-6.087770">
        <ele>3.448</ele>
        <time>2015-06-18T08:30:11Z</time>
      </trkpt>
      <trkpt lat="37.054937" lon="-6.087876">
        <ele>3.443</ele>
        <time>2015-06-18T08:30:13Z</time>
      </trkpt>
      <trkpt lat="37.054860" lon="-6.088043">
        <ele>3.464</ele>
        <time>2015-06-18T08:30:16Z</time>
      </trkpt>
      <trkpt lat="37.054709" lon="-6.088387">
        <ele>3.410</ele>
        <time>2015-06-18T08:30:22Z</time>
      </trkpt>
      <trkpt lat="37.054487" lon="-6.088787">
        <ele>3.408</ele>
        <time>2015-06-18T08:30:29Z</time>
      </trkpt>
      <trkpt lat="37.054453" lon="-6.088842">
        <ele>3.475</ele>
        <time>2015-06-18T08:30:30Z</time>
      </trkpt>
      <trkpt lat="37.054231" lon="-6.089237">
        <ele>3.431</ele>
        <time>2015-06-18T08:30:37Z</time>
      </trkpt>
      <trkpt lat="37.054197" lon="-6.089292">
        <ele>3.427</ele>
        <time>2015-06-18T08:30:38Z</time>
      </trkpt>
      <trkpt lat="37.053995" lon="-6.089562">
        <ele>3.426</ele>
        <time>2015-06-18T08:30:43Z</time>
      </trkpt>
      <trkpt lat="37.053950" lon="-6.089620">
        <ele>3.459</ele>
        <time>2015-06-18T08:30:44Z</time>
      </trkpt>
      <trkpt lat="37.053775" lon="-6.089846">
        <ele>3.471</ele>
        <time>2015-06-18T08:30:48Z</time>
      </trkpt>
      <trkpt lat="37.053721" lon="-6.089890">
        <ele>3.494</ele>
        <time>2015-06-18T08:30:49Z</time>
      </trkpt>
      <trkpt lat="37.053463" lon="-6.090162">
        <ele>3.418</ele>
        <time>2015-06-18T08:30:54Z</time>
      </trkpt>
      <trkpt lat="37.053115" lon="-6.090564">
        <ele>3.449</ele>
        <time>2015-06-18T08:31:01Z</time>
      </trkpt>
      <trkpt lat="37.052816" lon="-6.090893">
        <ele>3.402</ele>
        <time>2015-06-18T08:31:07Z</time>
      </trkpt>
      <trkpt lat="37.052532" lon="-6.091228">
        <ele>3.422</ele>
        <time>2015-06-18T08:31:13Z</time>
      </trkpt>
      <trkpt lat="37.052159" lon="-6.091682">
        <ele>3.408</ele>
        <time>2015-06-18T08:31:21Z</time>
      </trkpt>
      <trkpt lat="37.051829" lon="-6.092044">
        <ele>3.455</ele>
        <time>2015-06-18T08:31:28Z</time>
      </trkpt>
      <trkpt lat="37.051791" lon="-6.092097">
        <ele>3.471</ele>
        <time>2015-06-18T08:31:29Z</time>
      </trkpt>
      <trkpt lat="37.051632" lon="-6.092286">
        <ele>3.497</ele>
        <time>2015-06-18T08:31:33Z</time>
      </trkpt>
      <trkpt lat="37.051341" lon="-6.092618">
        <ele>3.476</ele>
        <time>2015-06-18T08:31:40Z</time>
      </trkpt>
      <trkpt lat="37.051125" lon="-6.092836">
        <ele>3.429</ele>
        <time>2015-06-18T08:31:45Z</time>
      </trkpt>
      <trkpt lat="37.051091" lon="-6.092883">
        <ele>3.481</ele>
        <time>2015-06-18T08:31:46Z</time>
      </trkpt>
      <trkpt lat="37.050968" lon="-6.093047">
        <ele>3.464</ele>
        <time>2015-06-18T08:31:50Z</time>
      </trkpt>
      <trkpt lat="37.050938" lon="-6.093082">
        <ele>3.468</ele>
        <time>2015-06-18T08:31:51Z</time>
      </trkpt>
      <trkpt lat="37.050793" lon="-6.093246">
        <ele>3.434</ele>
        <time>2015-06-18T08:31:56Z</time>
      </trkpt>
      <trkpt lat="37.050650" lon="-6.093413">
        <ele>3.455</ele>
        <time>2015-06-18T08:32:02Z</time>
      </trkpt>
      <trkpt lat="37.050604" lon="-6.093458">
        <ele>3.010</ele>
        <time>2015-06-18T08:32:04Z</time>
      </trkpt>
      <trkpt lat="37.050587" lon="-6.093487">
        <ele>2.608</ele>
        <time>2015-06-18T08:32:05Z</time>
      </trkpt>
      <trkpt lat="37.050569" lon="-6.093518">
        <ele>2.214</ele>
        <time>2015-06-18T08:32:06Z</time>
      </trkpt>
      <trkpt lat="37.050547" lon="-6.093539">
        <ele>1.890</ele>
        <time>2015-06-18T08:32:07Z</time>
      </trkpt>
      <trkpt lat="37.050528" lon="-6.093563">
        <ele>1.466</ele>
        <time>2015-06-18T08:32:08Z</time>
      </trkpt>
      <trkpt lat="37.050388" lon="-6.093695">
        <ele>1.415</ele>
        <time>2015-06-18T08:32:14Z</time>
      </trkpt>
      <trkpt lat="37.050236" lon="-6.093869">
        <ele>1.448</ele>
        <time>2015-06-18T08:32:20Z</time>
      </trkpt>
      <trkpt lat="37.050169" lon="-6.093941">
        <ele>1.480</ele>
        <time>2015-06-18T08:32:22Z</time>
      </trkpt>
      <trkpt lat="37.050140" lon="-6.093985">
        <ele>1.473</ele>
        <time>2015-06-18T08:32:23Z</time>
      </trkpt>
      <trkpt lat="37.050081" lon="-6.094066">
        <ele>1.417</ele>
        <time>2015-06-18T08:32:25Z</time>
      </trkpt>
      <trkpt lat="37.049797" lon="-6.094390">
        <ele>1.443</ele>
        <time>2015-06-18T08:32:33Z</time>
      </trkpt>
      <trkpt lat="37.049667" lon="-6.094541">
        <ele>1.464</ele>
        <time>2015-06-18T08:32:37Z</time>
      </trkpt>
      <trkpt lat="37.049639" lon="-6.094580">
        <ele>1.410</ele>
        <time>2015-06-18T08:32:38Z</time>
      </trkpt>
      <trkpt lat="37.049577" lon="-6.094647">
        <ele>1.408</ele>
        <time>2015-06-18T08:32:40Z</time>
      </trkpt>
      <trkpt lat="37.049437" lon="-6.094805">
        <ele>0.875</ele>
        <time>2015-06-18T08:32:45Z</time>
      </trkpt>
      <trkpt lat="37.049413" lon="-6.094833">
        <ele>0.211</ele>
        <time>2015-06-18T08:32:46Z</time>
      </trkpt>
      <trkpt lat="37.049388" lon="-6.094861">
        <ele>-0.467</ele>
        <time>2015-06-18T08:32:47Z</time>
      </trkpt>
      <trkpt lat="37.049368" lon="-6.094886">
        <ele>0.626</ele>
        <time>2015-06-18T08:32:48Z</time>
      </trkpt>
      <trkpt lat="37.049346" lon="-6.094910">
        <ele>1.439</ele>
        <time>2015-06-18T08:32:49Z</time>
      </trkpt>
      <trkpt lat="37.049323" lon="-6.094932">
        <ele>2.281</ele>
        <time>2015-06-18T08:32:50Z</time>
      </trkpt>
      <trkpt lat="37.049303" lon="-6.094957">
        <ele>3.284</ele>
        <time>2015-06-18T08:32:51Z</time>
      </trkpt>
      <trkpt lat="37.049284" lon="-6.094983">
        <ele>4.088</ele>
        <time>2015-06-18T08:32:52Z</time>
      </trkpt>
      <trkpt lat="37.049200" lon="-6.095083">
        <ele>4.066</ele>
        <time>2015-06-18T08:32:56Z</time>
      </trkpt>
      <trkpt lat="37.049027" lon="-6.095293">
        <ele>4.029</ele>
        <time>2015-06-18T08:33:04Z</time>
      </trkpt>
      <trkpt lat="37.048831" lon="-6.095501">
        <ele>4.021</ele>
        <time>2015-06-18T08:33:10Z</time>
      </trkpt>
      <trkpt lat="37.048758" lon="-6.095582">
        <ele>4.008</ele>
        <time>2015-06-18T08:33:12Z</time>
      </trkpt>
      <trkpt lat="37.048609" lon="-6.095741">
        <ele>4.077</ele>
        <time>2015-06-18T08:33:16Z</time>
      </trkpt>
      <trkpt lat="37.048389" lon="-6.095989">
        <ele>4.063</ele>
        <time>2015-06-18T08:33:22Z</time>
      </trkpt>
      <trkpt lat="37.048276" lon="-6.096115">
        <ele>4.079</ele>
        <time>2015-06-18T08:33:25Z</time>
      </trkpt>
      <trkpt lat="37.048162" lon="-6.096244">
        <ele>4.098</ele>
        <time>2015-06-18T08:33:28Z</time>
      </trkpt>
      <trkpt lat="37.048124" lon="-6.096290">
        <ele>4.011</ele>
        <time>2015-06-18T08:33:29Z</time>
      </trkpt>
      <trkpt lat="37.047777" lon="-6.096689">
        <ele>4.013</ele>
        <time>2015-06-18T08:33:38Z</time>
      </trkpt>
      <trkpt lat="37.047626" lon="-6.096875">
        <ele>4.086</ele>
        <time>2015-06-18T08:33:42Z</time>
      </trkpt>
      <trkpt lat="37.047513" lon="-6.097025">
        <ele>4.060</ele>
        <time>2015-06-18T08:33:45Z</time>
      </trkpt>
      <trkpt lat="37.047223" lon="-6.097347">
        <ele>4.038</ele>
        <time>2015-06-18T08:33:52Z</time>
      </trkpt>
      <trkpt lat="37.046943" lon="-6.097676">
        <ele>4.070</ele>
        <time>2015-06-18T08:33:59Z</time>
      </trkpt>
      <trkpt lat="37.046904" lon="-6.097721">
        <ele>4.017</ele>
        <time>2015-06-18T08:34:00Z</time>
      </trkpt>
      <trkpt lat="37.046592" lon="-6.098073">
        <ele>4.008</ele>
        <time>2015-06-18T08:34:08Z</time>
      </trkpt>
      <trkpt lat="37.046272" lon="-6.098427">
        <ele>4.044</ele>
        <time>2015-06-18T08:34:16Z</time>
      </trkpt>
      <trkpt lat="37.045952" lon="-6.098798">
        <ele>4.010</ele>
        <time>2015-06-18T08:34:24Z</time>
      </trkpt>
      <trkpt lat="37.045913" lon="-6.098843">
        <ele>4.046</ele>
        <time>2015-06-18T08:34:25Z</time>
      </trkpt>
      <trkpt lat="37.045635" lon="-6.099153">
        <ele>4.055</ele>
        <time>2015-06-18T08:34:32Z</time>
      </trkpt>
      <trkpt lat="37.045444" lon="-6.099381">
        <ele>4.058</ele>
        <time>2015-06-18T08:34:37Z</time>
      </trkpt>
      <trkpt lat="37.045367" lon="-6.099473">
        <ele>4.070</ele>
        <time>2015-06-18T08:34:39Z</time>
      </trkpt>
      <trkpt lat="37.045048" lon="-6.099833">
        <ele>4.053</ele>
        <time>2015-06-18T08:34:47Z</time>
      </trkpt>
      <trkpt lat="37.044730" lon="-6.100188">
        <ele>4.017</ele>
        <time>2015-06-18T08:34:55Z</time>
      </trkpt>
      <trkpt lat="37.044377" lon="-6.100596">
        <ele>4.037</ele>
        <time>2015-06-18T08:35:04Z</time>
      </trkpt>
      <trkpt lat="37.044058" lon="-6.100948">
        <ele>4.049</ele>
        <time>2015-06-18T08:35:12Z</time>
      </trkpt>
      <trkpt lat="37.043879" lon="-6.101105">
        <ele>4.013</ele>
        <time>2015-06-18T08:35:16Z</time>
      </trkpt>
      <trkpt lat="37.043791" lon="-6.101185">
        <ele>4.008</ele>
        <time>2015-06-18T08:35:18Z</time>
      </trkpt>
      <trkpt lat="37.043584" lon="-6.101420">
        <ele>4.054</ele>
        <time>2015-06-18T08:35:23Z</time>
      </trkpt>
      <trkpt lat="37.043543" lon="-6.101469">
        <ele>4.060</ele>
        <time>2015-06-18T08:35:24Z</time>
      </trkpt>
      <trkpt lat="37.043428" lon="-6.101599">
        <ele>4.086</ele>
        <time>2015-06-18T08:35:27Z</time>
      </trkpt>
      <trkpt lat="37.043358" lon="-6.101681">
        <ele>4.075</ele>
        <time>2015-06-18T08:35:29Z</time>
      </trkpt>
      <trkpt lat="37.043285" lon="-6.101756">
        <ele>4.078</ele>
        <time>2015-06-18T08:35:31Z</time>
      </trkpt>
      <trkpt lat="37.043162" lon="-6.101916">
        <ele>4.030</ele>
        <time>2015-06-18T08:35:35Z</time>
      </trkpt>
      <trkpt lat="37.043103" lon="-6.101984">
        <ele>4.093</ele>
        <time>2015-06-18T08:35:37Z</time>
      </trkpt>
      <trkpt lat="37.042997" lon="-6.102087">
        <ele>4.057</ele>
        <time>2015-06-18T08:35:40Z</time>
      </trkpt>
      <trkpt lat="37.042745" lon="-6.102382">
        <ele>4.055</ele>
        <time>2015-06-18T08:35:47Z</time>
      </trkpt>
      <trkpt lat="37.042428" lon="-6.102736">
        <ele>4.007</ele>
        <time>2015-06-18T08:35:55Z</time>
      </trkpt>
      <trkpt lat="37.042180" lon="-6.103016">
        <ele>4.017</ele>
        <time>2015-06-18T08:36:01Z</time>
      </trkpt>
      <trkpt lat="37.041774" lon="-6.103489">
        <ele>4.008</ele>
        <time>2015-06-18T08:36:11Z</time>
      </trkpt>
      <trkpt lat="37.041533" lon="-6.103764">
        <ele>4.086</ele>
        <time>2015-06-18T08:36:17Z</time>
      </trkpt>
      <trkpt lat="37.041495" lon="-6.103816">
        <ele>4.042</ele>
        <time>2015-06-18T08:36:18Z</time>
      </trkpt>
      <trkpt lat="37.041291" lon="-6.104045">
        <ele>4.098</ele>
        <time>2015-06-18T08:36:23Z</time>
      </trkpt>
      <trkpt lat="37.041211" lon="-6.104136">
        <ele>4.037</ele>
        <time>2015-06-18T08:36:25Z</time>
      </trkpt>
      <trkpt lat="37.040950" lon="-6.104433">
        <ele>4.020</ele>
        <time>2015-06-18T08:36:32Z</time>
      </trkpt>
      <trkpt lat="37.040873" lon="-6.104519">
        <ele>3.642</ele>
        <time>2015-06-18T08:36:34Z</time>
      </trkpt>
      <trkpt lat="37.040838" lon="-6.104564">
        <ele>3.295</ele>
        <time>2015-06-18T08:36:35Z</time>
      </trkpt>
      <trkpt lat="37.040800" lon="-6.104611">
        <ele>2.849</ele>
        <time>2015-06-18T08:36:36Z</time>
      </trkpt>
      <trkpt lat="37.040760" lon="-6.104650">
        <ele>2.213</ele>
        <time>2015-06-18T08:36:37Z</time>
      </trkpt>
      <trkpt lat="37.040720" lon="-6.104693">
        <ele>1.843</ele>
        <time>2015-06-18T08:36:38Z</time>
      </trkpt>
      <trkpt lat="37.040639" lon="-6.104782">
        <ele>1.807</ele>
        <time>2015-06-18T08:36:40Z</time>
      </trkpt>
      <trkpt lat="37.040519" lon="-6.104922">
        <ele>1.808</ele>
        <time>2015-06-18T08:36:43Z</time>
      </trkpt>
      <trkpt lat="37.040399" lon="-6.105055">
        <ele>1.832</ele>
        <time>2015-06-18T08:36:46Z</time>
      </trkpt>
      <trkpt lat="37.040065" lon="-6.105429">
        <ele>1.818</ele>
        <time>2015-06-18T08:36:54Z</time>
      </trkpt>
      <trkpt lat="37.039871" lon="-6.105689">
        <ele>1.814</ele>
        <time>2015-06-18T08:36:59Z</time>
      </trkpt>
      <trkpt lat="37.039787" lon="-6.105786">
        <ele>1.883</ele>
        <time>2015-06-18T08:37:01Z</time>
      </trkpt>
      <trkpt lat="37.039490" lon="-6.106126">
        <ele>1.826</ele>
        <time>2015-06-18T08:37:08Z</time>
      </trkpt>
      <trkpt lat="37.039147" lon="-6.106533">
        <ele>1.848</ele>
        <time>2015-06-18T08:37:16Z</time>
      </trkpt>
      <trkpt lat="37.038866" lon="-6.106920">
        <ele>1.851</ele>
        <time>2015-06-18T08:37:23Z</time>
      </trkpt>
      <trkpt lat="37.038835" lon="-6.106984">
        <ele>1.815</ele>
        <time>2015-06-18T08:37:24Z</time>
      </trkpt>
      <trkpt lat="37.038687" lon="-6.107218">
        <ele>1.881</ele>
        <time>2015-06-18T08:37:28Z</time>
      </trkpt>
      <trkpt lat="37.038368" lon="-6.107687">
        <ele>1.861</ele>
        <time>2015-06-18T08:37:36Z</time>
      </trkpt>
      <trkpt lat="37.038008" lon="-6.108216">
        <ele>1.817</ele>
        <time>2015-06-18T08:37:45Z</time>
      </trkpt>
      <trkpt lat="37.037767" lon="-6.108573">
        <ele>1.808</ele>
        <time>2015-06-18T08:37:51Z</time>
      </trkpt>
      <trkpt lat="37.037644" lon="-6.108746">
        <ele>1.829</ele>
        <time>2015-06-18T08:37:54Z</time>
      </trkpt>
      <trkpt lat="37.037333" lon="-6.109137">
        <ele>1.845</ele>
        <time>2015-06-18T08:38:01Z</time>
      </trkpt>
      <trkpt lat="37.037207" lon="-6.109299">
        <ele>1.831</ele>
        <time>2015-06-18T08:38:04Z</time>
      </trkpt>
      <trkpt lat="37.037124" lon="-6.109419">
        <ele>1.880</ele>
        <time>2015-06-18T08:38:06Z</time>
      </trkpt>
      <trkpt lat="37.036840" lon="-6.109833">
        <ele>1.893</ele>
        <time>2015-06-18T08:38:13Z</time>
      </trkpt>
      <trkpt lat="37.036608" lon="-6.110172">
        <ele>1.815</ele>
        <time>2015-06-18T08:38:19Z</time>
      </trkpt>
      <trkpt lat="37.036495" lon="-6.110344">
        <ele>1.818</ele>
        <time>2015-06-18T08:38:22Z</time>
      </trkpt>
      <trkpt lat="37.036341" lon="-6.110552">
        <ele>1.812</ele>
        <time>2015-06-18T08:38:26Z</time>
      </trkpt>
      <trkpt lat="37.036181" lon="-6.110816">
        <ele>1.881</ele>
        <time>2015-06-18T08:38:31Z</time>
      </trkpt>
      <trkpt lat="37.036148" lon="-6.110868">
        <ele>1.861</ele>
        <time>2015-06-18T08:38:32Z</time>
      </trkpt>
      <trkpt lat="37.036110" lon="-6.110913">
        <ele>1.817</ele>
        <time>2015-06-18T08:38:33Z</time>
      </trkpt>
      <trkpt lat="37.036039" lon="-6.111011">
        <ele>1.808</ele>
        <time>2015-06-18T08:38:35Z</time>
      </trkpt>
      <trkpt lat="37.035973" lon="-6.111121">
        <ele>1.839</ele>
        <time>2015-06-18T08:38:37Z</time>
      </trkpt>
      <trkpt lat="37.035933" lon="-6.111168">
        <ele>1.835</ele>
        <time>2015-06-18T08:38:38Z</time>
      </trkpt>
      <trkpt lat="37.035830" lon="-6.111329">
        <ele>1.841</ele>
        <time>2015-06-18T08:38:41Z</time>
      </trkpt>
      <trkpt lat="37.035796" lon="-6.111384">
        <ele>1.810</ele>
        <time>2015-06-18T08:38:42Z</time>
      </trkpt>
      <trkpt lat="37.035676" lon="-6.111617">
        <ele>1.893</ele>
        <time>2015-06-18T08:38:46Z</time>
      </trkpt>
      <trkpt lat="37.035573" lon="-6.111767">
        <ele>1.895</ele>
        <time>2015-06-18T08:38:49Z</time>
      </trkpt>
      <trkpt lat="37.035369" lon="-6.112062">
        <ele>1.888</ele>
        <time>2015-06-18T08:38:55Z</time>
      </trkpt>
      <trkpt lat="37.035072" lon="-6.112508">
        <ele>1.852</ele>
        <time>2015-06-18T08:39:04Z</time>
      </trkpt>
      <trkpt lat="37.034834" lon="-6.112869">
        <ele>1.868</ele>
        <time>2015-06-18T08:39:11Z</time>
      </trkpt>
      <trkpt lat="37.034731" lon="-6.113021">
        <ele>1.842</ele>
        <time>2015-06-18T08:39:14Z</time>
      </trkpt>
      <trkpt lat="37.034638" lon="-6.113178">
        <ele>1.826</ele>
        <time>2015-06-18T08:39:17Z</time>
      </trkpt>
      <trkpt lat="37.034545" lon="-6.113325">
        <ele>1.808</ele>
        <time>2015-06-18T08:39:20Z</time>
      </trkpt>
      <trkpt lat="37.034472" lon="-6.113483">
        <ele>1.867</ele>
        <time>2015-06-18T08:39:23Z</time>
      </trkpt>
      <trkpt lat="37.034446" lon="-6.113537">
        <ele>1.893</ele>
        <time>2015-06-18T08:39:24Z</time>
      </trkpt>
      <trkpt lat="37.034229" lon="-6.113971">
        <ele>1.889</ele>
        <time>2015-06-18T08:39:32Z</time>
      </trkpt>
      <trkpt lat="37.034210" lon="-6.114031">
        <ele>1.898</ele>
        <time>2015-06-18T08:39:33Z</time>
      </trkpt>
      <trkpt lat="37.034101" lon="-6.114261">
        <ele>1.881</ele>
        <time>2015-06-18T08:39:37Z</time>
      </trkpt>
      <trkpt lat="37.033969" lon="-6.114548">
        <ele>1.883</ele>
        <time>2015-06-18T08:39:42Z</time>
      </trkpt>
      <trkpt lat="37.033916" lon="-6.114668">
        <ele>1.826</ele>
        <time>2015-06-18T08:39:44Z</time>
      </trkpt>
      <trkpt lat="37.033705" lon="-6.115147">
        <ele>1.820</ele>
        <time>2015-06-18T08:39:52Z</time>
      </trkpt>
      <trkpt lat="37.033470" lon="-6.115679">
        <ele>1.823</ele>
        <time>2015-06-18T08:40:01Z</time>
      </trkpt>
      <trkpt lat="37.033258" lon="-6.116161">
        <ele>1.883</ele>
        <time>2015-06-18T08:40:09Z</time>
      </trkpt>
      <trkpt lat="37.033098" lon="-6.116513">
        <ele>1.811</ele>
        <time>2015-06-18T08:40:15Z</time>
      </trkpt>
      <trkpt lat="37.032919" lon="-6.116921">
        <ele>1.808</ele>
        <time>2015-06-18T08:40:22Z</time>
      </trkpt>
      <trkpt lat="37.032684" lon="-6.117454">
        <ele>1.863</ele>
        <time>2015-06-18T08:40:31Z</time>
      </trkpt>
      <trkpt lat="37.032520" lon="-6.117796">
        <ele>1.839</ele>
        <time>2015-06-18T08:40:37Z</time>
      </trkpt>
      <trkpt lat="37.032344" lon="-6.118201">
        <ele>1.845</ele>
        <time>2015-06-18T08:40:44Z</time>
      </trkpt>
      <trkpt lat="37.032146" lon="-6.118640">
        <ele>1.874</ele>
        <time>2015-06-18T08:40:52Z</time>
      </trkpt>
      <trkpt lat="37.031997" lon="-6.118978">
        <ele>1.867</ele>
        <time>2015-06-18T08:40:59Z</time>
      </trkpt>
      <trkpt lat="37.031850" lon="-6.119298">
        <ele>1.899</ele>
        <time>2015-06-18T08:41:05Z</time>
      </trkpt>
      <trkpt lat="37.031658" lon="-6.119751">
        <ele>1.822</ele>
        <time>2015-06-18T08:41:13Z</time>
      </trkpt>
      <trkpt lat="37.031504" lon="-6.120100">
        <ele>1.866</ele>
        <time>2015-06-18T08:41:19Z</time>
      </trkpt>
      <trkpt lat="37.031402" lon="-6.120329">
        <ele>1.854</ele>
        <time>2015-06-18T08:41:23Z</time>
      </trkpt>
      <trkpt lat="37.031375" lon="-6.120386">
        <ele>1.856</ele>
        <time>2015-06-18T08:41:24Z</time>
      </trkpt>
      <trkpt lat="37.031171" lon="-6.120857">
        <ele>1.811</ele>
        <time>2015-06-18T08:41:32Z</time>
      </trkpt>
      <trkpt lat="37.031011" lon="-6.121202">
        <ele>1.808</ele>
        <time>2015-06-18T08:41:38Z</time>
      </trkpt>
      <trkpt lat="37.030963" lon="-6.121316">
        <ele>1.876</ele>
        <time>2015-06-18T08:41:40Z</time>
      </trkpt>
      <trkpt lat="37.030742" lon="-6.121820">
        <ele>1.882</ele>
        <time>2015-06-18T08:41:49Z</time>
      </trkpt>
      <trkpt lat="37.030695" lon="-6.121934">
        <ele>1.818</ele>
        <time>2015-06-18T08:41:51Z</time>
      </trkpt>
      <trkpt lat="37.030590" lon="-6.122147">
        <ele>1.837</ele>
        <time>2015-06-18T08:41:55Z</time>
      </trkpt>
      <trkpt lat="37.030415" lon="-6.122539">
        <ele>1.890</ele>
        <time>2015-06-18T08:42:02Z</time>
      </trkpt>
      <trkpt lat="37.030210" lon="-6.123005">
        <ele>1.812</ele>
        <time>2015-06-18T08:42:10Z</time>
      </trkpt>
      <trkpt lat="37.030179" lon="-6.123060">
        <ele>1.865</ele>
        <time>2015-06-18T08:42:11Z</time>
      </trkpt>
      <trkpt lat="37.030032" lon="-6.123350">
        <ele>1.899</ele>
        <time>2015-06-18T08:42:16Z</time>
      </trkpt>
      <trkpt lat="37.029850" lon="-6.123690">
        <ele>1.891</ele>
        <time>2015-06-18T08:42:22Z</time>
      </trkpt>
      <trkpt lat="37.029627" lon="-6.124074">
        <ele>1.881</ele>
        <time>2015-06-18T08:42:29Z</time>
      </trkpt>
      <trkpt lat="37.029475" lon="-6.124314">
        <ele>1.819</ele>
        <time>2015-06-18T08:42:34Z</time>
      </trkpt>
      <trkpt lat="37.029430" lon="-6.124391">
        <ele>2.208</ele>
        <time>2015-06-18T08:42:36Z</time>
      </trkpt>
      <trkpt lat="37.029407" lon="-6.124424">
        <ele>2.640</ele>
        <time>2015-06-18T08:42:37Z</time>
      </trkpt>
      <trkpt lat="37.029387" lon="-6.124460">
        <ele>3.086</ele>
        <time>2015-06-18T08:42:38Z</time>
      </trkpt>
      <trkpt lat="37.029367" lon="-6.124502">
        <ele>3.672</ele>
        <time>2015-06-18T08:42:39Z</time>
      </trkpt>
      <trkpt lat="37.029346" lon="-6.124542">
        <ele>4.041</ele>
        <time>2015-06-18T08:42:40Z</time>
      </trkpt>
      <trkpt lat="37.029280" lon="-6.124662">
        <ele>4.014</ele>
        <time>2015-06-18T08:42:43Z</time>
      </trkpt>
      <trkpt lat="37.029139" lon="-6.124927">
        <ele>4.036</ele>
        <time>2015-06-18T08:42:49Z</time>
      </trkpt>
      <trkpt lat="37.029087" lon="-6.125024">
        <ele>4.029</ele>
        <time>2015-06-18T08:42:51Z</time>
      </trkpt>
      <trkpt lat="37.029007" lon="-6.125162">
        <ele>4.013</ele>
        <time>2015-06-18T08:42:54Z</time>
      </trkpt>
      <trkpt lat="37.028950" lon="-6.125301">
        <ele>4.081</ele>
        <time>2015-06-18T08:42:57Z</time>
      </trkpt>
      <trkpt lat="37.028910" lon="-6.125383">
        <ele>4.061</ele>
        <time>2015-06-18T08:42:59Z</time>
      </trkpt>
      <trkpt lat="37.028871" lon="-6.125468">
        <ele>4.017</ele>
        <time>2015-06-18T08:43:01Z</time>
      </trkpt>
      <trkpt lat="37.028830" lon="-6.125557">
        <ele>4.008</ele>
        <time>2015-06-18T08:43:03Z</time>
      </trkpt>
      <trkpt lat="37.028765" lon="-6.125703">
        <ele>4.059</ele>
        <time>2015-06-18T08:43:06Z</time>
      </trkpt>
      <trkpt lat="37.028688" lon="-6.125833">
        <ele>4.045</ele>
        <time>2015-06-18T08:43:09Z</time>
      </trkpt>
      <trkpt lat="37.028543" lon="-6.126189">
        <ele>4.071</ele>
        <time>2015-06-18T08:43:16Z</time>
      </trkpt>
      <trkpt lat="37.028419" lon="-6.126537">
        <ele>4.090</ele>
        <time>2015-06-18T08:43:22Z</time>
      </trkpt>
      <trkpt lat="37.028408" lon="-6.126596">
        <ele>4.063</ele>
        <time>2015-06-18T08:43:23Z</time>
      </trkpt>
      <trkpt lat="37.028327" lon="-6.126895">
        <ele>4.045</ele>
        <time>2015-06-18T08:43:28Z</time>
      </trkpt>
      <trkpt lat="37.028300" lon="-6.127016">
        <ele>4.038</ele>
        <time>2015-06-18T08:43:30Z</time>
      </trkpt>
      <trkpt lat="37.028268" lon="-6.127166">
        <ele>4.052</ele>
        <time>2015-06-18T08:43:33Z</time>
      </trkpt>
      <trkpt lat="37.028246" lon="-6.127263">
        <ele>4.038</ele>
        <time>2015-06-18T08:43:35Z</time>
      </trkpt>
      <trkpt lat="37.028186" lon="-6.127436">
        <ele>4.070</ele>
        <time>2015-06-18T08:43:39Z</time>
      </trkpt>
      <trkpt lat="37.028139" lon="-6.127611">
        <ele>4.017</ele>
        <time>2015-06-18T08:43:44Z</time>
      </trkpt>
      <trkpt lat="37.028108" lon="-6.127812">
        <ele>4.008</ele>
        <time>2015-06-18T08:43:50Z</time>
      </trkpt>
      <trkpt lat="37.028066" lon="-6.128036">
        <ele>4.064</ele>
        <time>2015-06-18T08:43:56Z</time>
      </trkpt>
      <trkpt lat="37.028045" lon="-6.128184">
        <ele>4.090</ele>
        <time>2015-06-18T08:43:59Z</time>
      </trkpt>
      <trkpt lat="37.028026" lon="-6.128294">
        <ele>4.036</ele>
        <time>2015-06-18T08:44:01Z</time>
      </trkpt>
      <trkpt lat="37.027932" lon="-6.128719">
        <ele>4.055</ele>
        <time>2015-06-18T08:44:09Z</time>
      </trkpt>
      <trkpt lat="37.027860" lon="-6.129082">
        <ele>4.088</ele>
        <time>2015-06-18T08:44:15Z</time>
      </trkpt>
      <trkpt lat="37.027844" lon="-6.129138">
        <ele>4.040</ele>
        <time>2015-06-18T08:44:16Z</time>
      </trkpt>
      <trkpt lat="37.027781" lon="-6.129442">
        <ele>4.043</ele>
        <time>2015-06-18T08:44:21Z</time>
      </trkpt>
      <trkpt lat="37.027737" lon="-6.129631">
        <ele>4.027</ele>
        <time>2015-06-18T08:44:24Z</time>
      </trkpt>
      <trkpt lat="37.027700" lon="-6.129808">
        <ele>4.021</ele>
        <time>2015-06-18T08:44:27Z</time>
      </trkpt>
      <trkpt lat="37.027658" lon="-6.129957">
        <ele>4.041</ele>
        <time>2015-06-18T08:44:30Z</time>
      </trkpt>
      <trkpt lat="37.027621" lon="-6.130192">
        <ele>4.005</ele>
        <time>2015-06-18T08:44:35Z</time>
      </trkpt>
      <trkpt lat="37.027572" lon="-6.130408">
        <ele>4.008</ele>
        <time>2015-06-18T08:44:41Z</time>
      </trkpt>
      <trkpt lat="37.027513" lon="-6.130633">
        <ele>4.043</ele>
        <time>2015-06-18T08:44:47Z</time>
      </trkpt>
      <trkpt lat="37.027484" lon="-6.130779">
        <ele>4.099</ele>
        <time>2015-06-18T08:44:50Z</time>
      </trkpt>
      <trkpt lat="37.027453" lon="-6.130932">
        <ele>4.045</ele>
        <time>2015-06-18T08:44:53Z</time>
      </trkpt>
      <trkpt lat="37.027413" lon="-6.131093">
        <ele>4.094</ele>
        <time>2015-06-18T08:44:56Z</time>
      </trkpt>
      <trkpt lat="37.027384" lon="-6.131272">
        <ele>4.057</ele>
        <time>2015-06-18T08:44:59Z</time>
      </trkpt>
      <trkpt lat="37.027342" lon="-6.131445">
        <ele>4.029</ele>
        <time>2015-06-18T08:45:02Z</time>
      </trkpt>
      <trkpt lat="37.027319" lon="-6.131564">
        <ele>4.052</ele>
        <time>2015-06-18T08:45:04Z</time>
      </trkpt>
      <trkpt lat="37.027292" lon="-6.131692">
        <ele>4.036</ele>
        <time>2015-06-18T08:45:06Z</time>
      </trkpt>
      <trkpt lat="37.027176" lon="-6.132163">
        <ele>4.015</ele>
        <time>2015-06-18T08:45:14Z</time>
      </trkpt>
      <trkpt lat="37.027081" lon="-6.132661">
        <ele>4.065</ele>
        <time>2015-06-18T08:45:22Z</time>
      </trkpt>
      <trkpt lat="37.026976" lon="-6.133173">
        <ele>4.011</ele>
        <time>2015-06-18T08:45:30Z</time>
      </trkpt>
      <trkpt lat="37.026961" lon="-6.133231">
        <ele>4.008</ele>
        <time>2015-06-18T08:45:31Z</time>
      </trkpt>
      <trkpt lat="37.026905" lon="-6.133439">
        <ele>4.042</ele>
        <time>2015-06-18T08:45:35Z</time>
      </trkpt>
      <trkpt lat="37.026861" lon="-6.133666">
        <ele>4.078</ele>
        <time>2015-06-18T08:45:39Z</time>
      </trkpt>
      <trkpt lat="37.026845" lon="-6.133785">
        <ele>4.094</ele>
        <time>2015-06-18T08:45:41Z</time>
      </trkpt>
      <trkpt lat="37.026828" lon="-6.133905">
        <ele>4.053</ele>
        <time>2015-06-18T08:45:43Z</time>
      </trkpt>
      <trkpt lat="37.026776" lon="-6.134077">
        <ele>4.056</ele>
        <time>2015-06-18T08:45:46Z</time>
      </trkpt>
      <trkpt lat="37.026721" lon="-6.134391">
        <ele>4.058</ele>
        <time>2015-06-18T08:45:51Z</time>
      </trkpt>
      <trkpt lat="37.026705" lon="-6.134451">
        <ele>4.011</ele>
        <time>2015-06-18T08:45:52Z</time>
      </trkpt>
      <trkpt lat="37.026656" lon="-6.134673">
        <ele>4.065</ele>
        <time>2015-06-18T08:45:56Z</time>
      </trkpt>
      <trkpt lat="37.026636" lon="-6.134768">
        <ele>4.048</ele>
        <time>2015-06-18T08:45:58Z</time>
      </trkpt>
      <trkpt lat="37.026622" lon="-6.134934">
        <ele>4.061</ele>
        <time>2015-06-18T08:46:01Z</time>
      </trkpt>
      <trkpt lat="37.026610" lon="-6.134990">
        <ele>4.017</ele>
        <time>2015-06-18T08:46:02Z</time>
      </trkpt>
      <trkpt lat="37.026511" lon="-6.135396">
        <ele>4.008</ele>
        <time>2015-06-18T08:46:09Z</time>
      </trkpt>
      <trkpt lat="37.026445" lon="-6.135711">
        <ele>4.025</ele>
        <time>2015-06-18T08:46:14Z</time>
      </trkpt>
      <trkpt lat="37.026399" lon="-6.135823">
        <ele>4.041</ele>
        <time>2015-06-18T08:46:16Z</time>
      </trkpt>
      <trkpt lat="37.026378" lon="-6.135883">
        <ele>4.017</ele>
        <time>2015-06-18T08:46:17Z</time>
      </trkpt>
      <trkpt lat="37.026333" lon="-6.136070">
        <ele>4.016</ele>
        <time>2015-06-18T08:46:20Z</time>
      </trkpt>
      <trkpt lat="37.026240" lon="-6.136512">
        <ele>4.019</ele>
        <time>2015-06-18T08:46:27Z</time>
      </trkpt>
      <trkpt lat="37.026134" lon="-6.137015">
        <ele>4.011</ele>
        <time>2015-06-18T08:46:35Z</time>
      </trkpt>
      <trkpt lat="37.026094" lon="-6.137203">
        <ele>4.024</ele>
        <time>2015-06-18T08:46:38Z</time>
      </trkpt>
      <trkpt lat="37.026037" lon="-6.137447">
        <ele>4.068</ele>
        <time>2015-06-18T08:46:42Z</time>
      </trkpt>
      <trkpt lat="37.025970" lon="-6.137798">
        <ele>4.029</ele>
        <time>2015-06-18T08:46:48Z</time>
      </trkpt>
      <trkpt lat="37.025882" lon="-6.138132">
        <ele>4.000</ele>
        <time>2015-06-18T08:46:55Z</time>
      </trkpt>
      <trkpt lat="37.025843" lon="-6.138341">
        <ele>4.020</ele>
        <time>2015-06-18T08:46:59Z</time>
      </trkpt>
      <trkpt lat="37.025835" lon="-6.138396">
        <ele>4.008</ele>
        <time>2015-06-18T08:47:00Z</time>
      </trkpt>
      <trkpt lat="37.025823" lon="-6.138452">
        <ele>4.073</ele>
        <time>2015-06-18T08:47:01Z</time>
      </trkpt>
      <trkpt lat="37.025793" lon="-6.138567">
        <ele>4.069</ele>
        <time>2015-06-18T08:47:03Z</time>
      </trkpt>
      <trkpt lat="37.025776" lon="-6.138689">
        <ele>4.075</ele>
        <time>2015-06-18T08:47:05Z</time>
      </trkpt>
      <trkpt lat="37.025764" lon="-6.138806">
        <ele>4.044</ele>
        <time>2015-06-18T08:47:07Z</time>
      </trkpt>
      <trkpt lat="37.025721" lon="-6.138976">
        <ele>4.097</ele>
        <time>2015-06-18T08:47:10Z</time>
      </trkpt>
      <trkpt lat="37.025643" lon="-6.139317">
        <ele>4.099</ele>
        <time>2015-06-18T08:47:16Z</time>
      </trkpt>
      <trkpt lat="37.025583" lon="-6.139622">
        <ele>4.082</ele>
        <time>2015-06-18T08:47:21Z</time>
      </trkpt>
      <trkpt lat="37.025558" lon="-6.139736">
        <ele>4.096</ele>
        <time>2015-06-18T08:47:23Z</time>
      </trkpt>
      <trkpt lat="37.025537" lon="-6.139860">
        <ele>4.064</ele>
        <time>2015-06-18T08:47:25Z</time>
      </trkpt>
      <trkpt lat="37.025527" lon="-6.139920">
        <ele>4.006</ele>
        <time>2015-06-18T08:47:26Z</time>
      </trkpt>
      <trkpt lat="37.025485" lon="-6.140104">
        <ele>4.016</ele>
        <time>2015-06-18T08:47:29Z</time>
      </trkpt>
      <trkpt lat="37.025414" lon="-6.140472">
        <ele>4.008</ele>
        <time>2015-06-18T08:47:35Z</time>
      </trkpt>
      <trkpt lat="37.025366" lon="-6.140659">
        <ele>4.087</ele>
        <time>2015-06-18T08:47:38Z</time>
      </trkpt>
      <trkpt lat="37.025335" lon="-6.140794">
        <ele>4.013</ele>
        <time>2015-06-18T08:47:40Z</time>
      </trkpt>
      <trkpt lat="37.025242" lon="-6.141182">
        <ele>4.019</ele>
        <time>2015-06-18T08:47:46Z</time>
      </trkpt>
      <trkpt lat="37.025141" lon="-6.141644">
        <ele>4.078</ele>
        <time>2015-06-18T08:47:53Z</time>
      </trkpt>
      <trkpt lat="37.025126" lon="-6.141703">
        <ele>4.041</ele>
        <time>2015-06-18T08:47:54Z</time>
      </trkpt>
      <trkpt lat="37.025109" lon="-6.141766">
        <ele>3.653</ele>
        <time>2015-06-18T08:47:55Z</time>
      </trkpt>
      <trkpt lat="37.025096" lon="-6.141824">
        <ele>3.256</ele>
        <time>2015-06-18T08:47:56Z</time>
      </trkpt>
      <trkpt lat="37.025081" lon="-6.141890">
        <ele>2.870</ele>
        <time>2015-06-18T08:47:57Z</time>
      </trkpt>
      <trkpt lat="37.025067" lon="-6.141955">
        <ele>3.014</ele>
        <time>2015-06-18T08:47:58Z</time>
      </trkpt>
      <trkpt lat="37.025052" lon="-6.142020">
        <ele>3.454</ele>
        <time>2015-06-18T08:47:59Z</time>
      </trkpt>
      <trkpt lat="37.025039" lon="-6.142086">
        <ele>3.609</ele>
        <time>2015-06-18T08:48:00Z</time>
      </trkpt>
      <trkpt lat="37.025025" lon="-6.142153">
        <ele>4.008</ele>
        <time>2015-06-18T08:48:01Z</time>
      </trkpt>
      <trkpt lat="37.025011" lon="-6.142221">
        <ele>4.262</ele>
        <time>2015-06-18T08:48:02Z</time>
      </trkpt>
      <trkpt lat="37.024980" lon="-6.142358">
        <ele>4.268</ele>
        <time>2015-06-18T08:48:04Z</time>
      </trkpt>
      <trkpt lat="37.024864" lon="-6.142823">
        <ele>4.244</ele>
        <time>2015-06-18T08:48:11Z</time>
      </trkpt>
      <trkpt lat="37.024766" lon="-6.143210">
        <ele>4.233</ele>
        <time>2015-06-18T08:48:17Z</time>
      </trkpt>
      <trkpt lat="37.024749" lon="-6.143270">
        <ele>4.226</ele>
        <time>2015-06-18T08:48:18Z</time>
      </trkpt>
      <trkpt lat="37.024669" lon="-6.143521">
        <ele>4.248</ele>
        <time>2015-06-18T08:48:22Z</time>
      </trkpt>
      <trkpt lat="37.024575" lon="-6.143840">
        <ele>4.211</ele>
        <time>2015-06-18T08:48:27Z</time>
      </trkpt>
      <trkpt lat="37.024553" lon="-6.143900">
        <ele>4.285</ele>
        <time>2015-06-18T08:48:28Z</time>
      </trkpt>
      <trkpt lat="37.024407" lon="-6.144343">
        <ele>4.291</ele>
        <time>2015-06-18T08:48:35Z</time>
      </trkpt>
      <trkpt lat="37.024330" lon="-6.144593">
        <ele>4.281</ele>
        <time>2015-06-18T08:48:39Z</time>
      </trkpt>
      <trkpt lat="37.024309" lon="-6.144651">
        <ele>4.219</ele>
        <time>2015-06-18T08:48:40Z</time>
      </trkpt>
      <trkpt lat="37.024164" lon="-6.145080">
        <ele>4.208</ele>
        <time>2015-06-18T08:48:47Z</time>
      </trkpt>
      <trkpt lat="37.023990" lon="-6.145511">
        <ele>4.250</ele>
        <time>2015-06-18T08:48:54Z</time>
      </trkpt>
      <trkpt lat="37.023940" lon="-6.145635">
        <ele>4.276</ele>
        <time>2015-06-18T08:48:56Z</time>
      </trkpt>
      <trkpt lat="37.023843" lon="-6.145879">
        <ele>4.222</ele>
        <time>2015-06-18T08:49:00Z</time>
      </trkpt>
      <trkpt lat="37.023719" lon="-6.146161">
        <ele>4.281</ele>
        <time>2015-06-18T08:49:05Z</time>
      </trkpt>
      <trkpt lat="37.023623" lon="-6.146404">
        <ele>4.284</ele>
        <time>2015-06-18T08:49:09Z</time>
      </trkpt>
      <trkpt lat="37.023597" lon="-6.146457">
        <ele>4.266</ele>
        <time>2015-06-18T08:49:10Z</time>
      </trkpt>
      <trkpt lat="37.023524" lon="-6.146632">
        <ele>4.259</ele>
        <time>2015-06-18T08:49:13Z</time>
      </trkpt>
      <trkpt lat="37.023423" lon="-6.146852">
        <ele>4.283</ele>
        <time>2015-06-18T08:49:17Z</time>
      </trkpt>
      <trkpt lat="37.023379" lon="-6.146961">
        <ele>4.214</ele>
        <time>2015-06-18T08:49:19Z</time>
      </trkpt>
      <trkpt lat="37.023324" lon="-6.147069">
        <ele>4.254</ele>
        <time>2015-06-18T08:49:21Z</time>
      </trkpt>
      <trkpt lat="37.023298" lon="-6.147125">
        <ele>4.209</ele>
        <time>2015-06-18T08:49:22Z</time>
      </trkpt>
      <trkpt lat="37.023242" lon="-6.147239">
        <ele>4.208</ele>
        <time>2015-06-18T08:49:24Z</time>
      </trkpt>
      <trkpt lat="37.023167" lon="-6.147411">
        <ele>4.272</ele>
        <time>2015-06-18T08:49:27Z</time>
      </trkpt>
      <trkpt lat="37.022940" lon="-6.147819">
        <ele>4.288</ele>
        <time>2015-06-18T08:49:35Z</time>
      </trkpt>
      <trkpt lat="37.022860" lon="-6.147992">
        <ele>4.264</ele>
        <time>2015-06-18T08:49:38Z</time>
      </trkpt>
      <trkpt lat="37.022814" lon="-6.148105">
        <ele>4.223</ele>
        <time>2015-06-18T08:49:40Z</time>
      </trkpt>
      <trkpt lat="37.022617" lon="-6.148485">
        <ele>4.246</ele>
        <time>2015-06-18T08:49:47Z</time>
      </trkpt>
      <trkpt lat="37.022443" lon="-6.148794">
        <ele>4.268</ele>
        <time>2015-06-18T08:49:53Z</time>
      </trkpt>
      <trkpt lat="37.022258" lon="-6.149139">
        <ele>4.231</ele>
        <time>2015-06-18T08:49:59Z</time>
      </trkpt>
      <trkpt lat="37.022054" lon="-6.149462">
        <ele>4.215</ele>
        <time>2015-06-18T08:50:05Z</time>
      </trkpt>
      <trkpt lat="37.021942" lon="-6.149628">
        <ele>4.245</ele>
        <time>2015-06-18T08:50:08Z</time>
      </trkpt>
      <trkpt lat="37.021739" lon="-6.149925">
        <ele>4.247</ele>
        <time>2015-06-18T08:50:13Z</time>
      </trkpt>
      <trkpt lat="37.021694" lon="-6.149984">
        <ele>4.211</ele>
        <time>2015-06-18T08:50:14Z</time>
      </trkpt>
      <trkpt lat="37.021568" lon="-6.150152">
        <ele>4.208</ele>
        <time>2015-06-18T08:50:17Z</time>
      </trkpt>
      <trkpt lat="37.021494" lon="-6.150265">
        <ele>4.215</ele>
        <time>2015-06-18T08:50:19Z</time>
      </trkpt>
      <trkpt lat="37.021418" lon="-6.150369">
        <ele>4.261</ele>
        <time>2015-06-18T08:50:21Z</time>
      </trkpt>
      <trkpt lat="37.021299" lon="-6.150530">
        <ele>4.277</ele>
        <time>2015-06-18T08:50:24Z</time>
      </trkpt>
      <trkpt lat="37.021048" lon="-6.150869">
        <ele>4.236</ele>
        <time>2015-06-18T08:50:30Z</time>
      </trkpt>
      <trkpt lat="37.020878" lon="-6.151090">
        <ele>4.269</ele>
        <time>2015-06-18T08:50:34Z</time>
      </trkpt>
      <trkpt lat="37.020606" lon="-6.151402">
        <ele>4.271</ele>
        <time>2015-06-18T08:50:40Z</time>
      </trkpt>
      <trkpt lat="37.020417" lon="-6.151626">
        <ele>4.264</ele>
        <time>2015-06-18T08:50:44Z</time>
      </trkpt>
      <trkpt lat="37.020373" lon="-6.151679">
        <ele>4.228</ele>
        <time>2015-06-18T08:50:45Z</time>
      </trkpt>
      <trkpt lat="37.020119" lon="-6.151982">
        <ele>4.244</ele>
        <time>2015-06-18T08:50:51Z</time>
      </trkpt>
      <trkpt lat="37.019925" lon="-6.152171">
        <ele>4.205</ele>
        <time>2015-06-18T08:50:55Z</time>
      </trkpt>
      <trkpt lat="37.019880" lon="-6.152228">
        <ele>4.215</ele>
        <time>2015-06-18T08:50:56Z</time>
      </trkpt>
      <trkpt lat="37.019740" lon="-6.152377">
        <ele>4.208</ele>
        <time>2015-06-18T08:50:59Z</time>
      </trkpt>
      <trkpt lat="37.019642" lon="-6.152476">
        <ele>4.245</ele>
        <time>2015-06-18T08:51:01Z</time>
      </trkpt>
      <trkpt lat="37.019540" lon="-6.152577">
        <ele>4.211</ele>
        <time>2015-06-18T08:51:03Z</time>
      </trkpt>
      <trkpt lat="37.019386" lon="-6.152718">
        <ele>4.297</ele>
        <time>2015-06-18T08:51:06Z</time>
      </trkpt>
      <trkpt lat="37.019134" lon="-6.152941">
        <ele>4.286</ele>
        <time>2015-06-18T08:51:11Z</time>
      </trkpt>
      <trkpt lat="37.018934" lon="-6.153111">
        <ele>4.269</ele>
        <time>2015-06-18T08:51:15Z</time>
      </trkpt>
      <trkpt lat="37.018837" lon="-6.153197">
        <ele>4.211</ele>
        <time>2015-06-18T08:51:17Z</time>
      </trkpt>
      <trkpt lat="37.018612" lon="-6.153396">
        <ele>4.254</ele>
        <time>2015-06-18T08:51:22Z</time>
      </trkpt>
      <trkpt lat="37.018568" lon="-6.153431">
        <ele>4.228</ele>
        <time>2015-06-18T08:51:23Z</time>
      </trkpt>
      <trkpt lat="37.018302" lon="-6.153670">
        <ele>4.214</ele>
        <time>2015-06-18T08:51:29Z</time>
      </trkpt>
      <trkpt lat="37.018178" lon="-6.153790">
        <ele>4.254</ele>
        <time>2015-06-18T08:51:32Z</time>
      </trkpt>
      <trkpt lat="37.018085" lon="-6.153862">
        <ele>4.209</ele>
        <time>2015-06-18T08:51:34Z</time>
      </trkpt>
      <trkpt lat="37.017914" lon="-6.154002">
        <ele>4.208</ele>
        <time>2015-06-18T08:51:38Z</time>
      </trkpt>
      <trkpt lat="37.017871" lon="-6.154032">
        <ele>4.222</ele>
        <time>2015-06-18T08:51:39Z</time>
      </trkpt>
      <trkpt lat="37.017828" lon="-6.154068">
        <ele>4.268</ele>
        <time>2015-06-18T08:51:40Z</time>
      </trkpt>
      <trkpt lat="37.017695" lon="-6.154155">
        <ele>4.224</ele>
        <time>2015-06-18T08:51:43Z</time>
      </trkpt>
      <trkpt lat="37.017654" lon="-6.154183">
        <ele>4.253</ele>
        <time>2015-06-18T08:51:44Z</time>
      </trkpt>
      <trkpt lat="37.017483" lon="-6.154308">
        <ele>4.226</ele>
        <time>2015-06-18T08:51:48Z</time>
      </trkpt>
      <trkpt lat="37.017261" lon="-6.154474">
        <ele>4.278</ele>
        <time>2015-06-18T08:51:53Z</time>
      </trkpt>
      <trkpt lat="37.017171" lon="-6.154541">
        <ele>4.221</ele>
        <time>2015-06-18T08:51:55Z</time>
      </trkpt>
      <trkpt lat="37.016982" lon="-6.154669">
        <ele>4.295</ele>
        <time>2015-06-18T08:51:59Z</time>
      </trkpt>
      <trkpt lat="37.016938" lon="-6.154705">
        <ele>4.232</ele>
        <time>2015-06-18T08:52:00Z</time>
      </trkpt>
      <trkpt lat="37.016802" lon="-6.154801">
        <ele>4.292</ele>
        <time>2015-06-18T08:52:03Z</time>
      </trkpt>
      <trkpt lat="37.016600" lon="-6.154914">
        <ele>4.211</ele>
        <time>2015-06-18T08:52:07Z</time>
      </trkpt>
      <trkpt lat="37.016503" lon="-6.154978">
        <ele>4.208</ele>
        <time>2015-06-18T08:52:09Z</time>
      </trkpt>
      <trkpt lat="37.016304" lon="-6.155097">
        <ele>4.254</ele>
        <time>2015-06-18T08:52:13Z</time>
      </trkpt>
      <trkpt lat="37.016212" lon="-6.155165">
        <ele>4.270</ele>
        <time>2015-06-18T08:52:15Z</time>
      </trkpt>
      <trkpt lat="37.015969" lon="-6.155309">
        <ele>4.226</ele>
        <time>2015-06-18T08:52:20Z</time>
      </trkpt>
      <trkpt lat="37.015822" lon="-6.155410">
        <ele>4.215</ele>
        <time>2015-06-18T08:52:23Z</time>
      </trkpt>
      <trkpt lat="37.015722" lon="-6.155467">
        <ele>4.268</ele>
        <time>2015-06-18T08:52:25Z</time>
      </trkpt>
      <trkpt lat="37.015497" lon="-6.155591">
        <ele>4.250</ele>
        <time>2015-06-18T08:52:30Z</time>
      </trkpt>
      <trkpt lat="37.015413" lon="-6.155628">
        <ele>4.273</ele>
        <time>2015-06-18T08:52:32Z</time>
      </trkpt>
      <trkpt lat="37.015155" lon="-6.155752">
        <ele>4.287</ele>
        <time>2015-06-18T08:52:38Z</time>
      </trkpt>
      <trkpt lat="37.015024" lon="-6.155823">
        <ele>4.284</ele>
        <time>2015-06-18T08:52:41Z</time>
      </trkpt>
      <trkpt lat="37.014883" lon="-6.155889">
        <ele>4.207</ele>
        <time>2015-06-18T08:52:44Z</time>
      </trkpt>
      <trkpt lat="37.014790" lon="-6.155921">
        <ele>4.217</ele>
        <time>2015-06-18T08:52:46Z</time>
      </trkpt>
      <trkpt lat="37.014647" lon="-6.155992">
        <ele>4.208</ele>
        <time>2015-06-18T08:52:49Z</time>
      </trkpt>
      <trkpt lat="37.014462" lon="-6.156088">
        <ele>4.249</ele>
        <time>2015-06-18T08:52:53Z</time>
      </trkpt>
      <trkpt lat="37.014415" lon="-6.156103">
        <ele>4.255</ele>
        <time>2015-06-18T08:52:54Z</time>
      </trkpt>
      <trkpt lat="37.014109" lon="-6.156220">
        <ele>4.261</ele>
        <time>2015-06-18T08:53:00Z</time>
      </trkpt>
      <trkpt lat="37.013736" lon="-6.156360">
        <ele>4.270</ele>
        <time>2015-06-18T08:53:07Z</time>
      </trkpt>
      <trkpt lat="37.013370" lon="-6.156506">
        <ele>4.233</ele>
        <time>2015-06-18T08:53:14Z</time>
      </trkpt>
      <trkpt lat="37.013157" lon="-6.156573">
        <ele>4.285</ele>
        <time>2015-06-18T08:53:18Z</time>
      </trkpt>
      <trkpt lat="37.012819" lon="-6.156665">
        <ele>4.238</ele>
        <time>2015-06-18T08:53:24Z</time>
      </trkpt>
      <trkpt lat="37.012539" lon="-6.156735">
        <ele>4.272</ele>
        <time>2015-06-18T08:53:29Z</time>
      </trkpt>
      <trkpt lat="37.012426" lon="-6.156770">
        <ele>4.218</ele>
        <time>2015-06-18T08:53:31Z</time>
      </trkpt>
      <trkpt lat="37.012189" lon="-6.156824">
        <ele>4.298</ele>
        <time>2015-06-18T08:53:35Z</time>
      </trkpt>
      <trkpt lat="37.011830" lon="-6.156897">
        <ele>4.217</ele>
        <time>2015-06-18T08:53:41Z</time>
      </trkpt>
      <trkpt lat="37.011505" lon="-6.156983">
        <ele>4.208</ele>
        <time>2015-06-18T08:53:47Z</time>
      </trkpt>
      <trkpt lat="37.011089" lon="-6.157105">
        <ele>4.242</ele>
        <time>2015-06-18T08:53:55Z</time>
      </trkpt>
      <trkpt lat="37.010698" lon="-6.157203">
        <ele>4.298</ele>
        <time>2015-06-18T08:54:02Z</time>
      </trkpt>
      <trkpt lat="37.010350" lon="-6.157298">
        <ele>4.284</ele>
        <time>2015-06-18T08:54:08Z</time>
      </trkpt>
      <trkpt lat="37.009952" lon="-6.157406">
        <ele>4.243</ele>
        <time>2015-06-18T08:54:15Z</time>
      </trkpt>
      <trkpt lat="37.009587" lon="-6.157495">
        <ele>4.286</ele>
        <time>2015-06-18T08:54:21Z</time>
      </trkpt>
      <trkpt lat="37.009234" lon="-6.157589">
        <ele>4.248</ele>
        <time>2015-06-18T08:54:27Z</time>
      </trkpt>
      <trkpt lat="37.009172" lon="-6.157600">
        <ele>4.261</ele>
        <time>2015-06-18T08:54:28Z</time>
      </trkpt>
      <trkpt lat="37.008747" lon="-6.157701">
        <ele>4.285</ele>
        <time>2015-06-18T08:54:35Z</time>
      </trkpt>
      <trkpt lat="37.008687" lon="-6.157719">
        <ele>4.219</ele>
        <time>2015-06-18T08:54:36Z</time>
      </trkpt>
      <trkpt lat="37.008272" lon="-6.157822">
        <ele>4.209</ele>
        <time>2015-06-18T08:54:43Z</time>
      </trkpt>
      <trkpt lat="37.007784" lon="-6.157950">
        <ele>4.219</ele>
        <time>2015-06-18T08:54:51Z</time>
      </trkpt>
      <trkpt lat="37.007347" lon="-6.158055">
        <ele>4.208</ele>
        <time>2015-06-18T08:54:58Z</time>
      </trkpt>
      <trkpt lat="37.006964" lon="-6.158151">
        <ele>4.262</ele>
        <time>2015-06-18T08:55:04Z</time>
      </trkpt>
      <trkpt lat="37.006458" lon="-6.158285">
        <ele>4.248</ele>
        <time>2015-06-18T08:55:12Z</time>
      </trkpt>
      <trkpt lat="37.006074" lon="-6.158393">
        <ele>4.224</ele>
        <time>2015-06-18T08:55:18Z</time>
      </trkpt>
      <trkpt lat="37.005559" lon="-6.158517">
        <ele>4.233</ele>
        <time>2015-06-18T08:55:26Z</time>
      </trkpt>
      <trkpt lat="37.005167" lon="-6.158623">
        <ele>4.226</ele>
        <time>2015-06-18T08:55:32Z</time>
      </trkpt>
      <trkpt lat="37.004839" lon="-6.158705">
        <ele>4.288</ele>
        <time>2015-06-18T08:55:37Z</time>
      </trkpt>
      <trkpt lat="37.004451" lon="-6.158807">
        <ele>4.221</ele>
        <time>2015-06-18T08:55:43Z</time>
      </trkpt>
      <trkpt lat="37.004264" lon="-6.158857">
        <ele>4.275</ele>
        <time>2015-06-18T08:55:46Z</time>
      </trkpt>
      <trkpt lat="37.003816" lon="-6.158975">
        <ele>4.221</ele>
        <time>2015-06-18T08:55:53Z</time>
      </trkpt>
      <trkpt lat="37.003426" lon="-6.159070">
        <ele>4.241</ele>
        <time>2015-06-18T08:55:59Z</time>
      </trkpt>
      <trkpt lat="37.002904" lon="-6.159194">
        <ele>4.205</ele>
        <time>2015-06-18T08:56:07Z</time>
      </trkpt>
      <trkpt lat="37.002396" lon="-6.159327">
        <ele>4.208</ele>
        <time>2015-06-18T08:56:15Z</time>
      </trkpt>
      <trkpt lat="37.002000" lon="-6.159425">
        <ele>4.273</ele>
        <time>2015-06-18T08:56:21Z</time>
      </trkpt>
      <trkpt lat="37.001424" lon="-6.159574">
        <ele>4.269</ele>
        <time>2015-06-18T08:56:30Z</time>
      </trkpt>
      <trkpt lat="37.001353" lon="-6.159591">
        <ele>4.255</ele>
        <time>2015-06-18T08:56:31Z</time>
      </trkpt>
      <trkpt lat="37.001025" lon="-6.159676">
        <ele>4.244</ele>
        <time>2015-06-18T08:56:36Z</time>
      </trkpt>
      <trkpt lat="37.000576" lon="-6.159791">
        <ele>4.277</ele>
        <time>2015-06-18T08:56:43Z</time>
      </trkpt>
      <trkpt lat="37.000190" lon="-6.159900">
        <ele>4.279</ele>
        <time>2015-06-18T08:56:49Z</time>
      </trkpt>
      <trkpt lat="36.999732" lon="-6.160009">
        <ele>4.252</ele>
        <time>2015-06-18T08:56:56Z</time>
      </trkpt>
      <trkpt lat="36.999224" lon="-6.160134">
        <ele>4.296</ele>
        <time>2015-06-18T08:57:04Z</time>
      </trkpt>
      <trkpt lat="36.998836" lon="-6.160231">
        <ele>4.282</ele>
        <time>2015-06-18T08:57:10Z</time>
      </trkpt>
      <trkpt lat="36.998378" lon="-6.160354">
        <ele>4.243</ele>
        <time>2015-06-18T08:57:17Z</time>
      </trkpt>
      <trkpt lat="36.998086" lon="-6.160423">
        <ele>4.217</ele>
        <time>2015-06-18T08:57:22Z</time>
      </trkpt>
      <trkpt lat="36.998028" lon="-6.160436">
        <ele>4.208</ele>
        <time>2015-06-18T08:57:23Z</time>
      </trkpt>
      <trkpt lat="36.997614" lon="-6.160550">
        <ele>4.289</ele>
        <time>2015-06-18T08:57:30Z</time>
      </trkpt>
      <trkpt lat="36.997244" lon="-6.160623">
        <ele>4.285</ele>
        <time>2015-06-18T08:57:36Z</time>
      </trkpt>
      <trkpt lat="36.997181" lon="-6.160639">
        <ele>4.251</ele>
        <time>2015-06-18T08:57:37Z</time>
      </trkpt>
      <trkpt lat="36.996878" lon="-6.160730">
        <ele>4.220</ele>
        <time>2015-06-18T08:57:42Z</time>
      </trkpt>
      <trkpt lat="36.996572" lon="-6.160829">
        <ele>4.213</ele>
        <time>2015-06-18T08:57:47Z</time>
      </trkpt>
      <trkpt lat="36.996509" lon="-6.160844">
        <ele>4.265</ele>
        <time>2015-06-18T08:57:48Z</time>
      </trkpt>
      <trkpt lat="36.996021" lon="-6.160969">
        <ele>4.288</ele>
        <time>2015-06-18T08:57:56Z</time>
      </trkpt>
      <trkpt lat="36.995607" lon="-6.161066">
        <ele>4.222</ele>
        <time>2015-06-18T08:58:03Z</time>
      </trkpt>
      <trkpt lat="36.995167" lon="-6.161181">
        <ele>4.282</ele>
        <time>2015-06-18T08:58:10Z</time>
      </trkpt>
      <trkpt lat="36.994822" lon="-6.161264">
        <ele>4.243</ele>
        <time>2015-06-18T08:58:16Z</time>
      </trkpt>
      <trkpt lat="36.994528" lon="-6.161337">
        <ele>4.217</ele>
        <time>2015-06-18T08:58:22Z</time>
      </trkpt>
      <trkpt lat="36.994139" lon="-6.161443">
        <ele>4.208</ele>
        <time>2015-06-18T08:58:30Z</time>
      </trkpt>
      <trkpt lat="36.993982" lon="-6.161487">
        <ele>4.249</ele>
        <time>2015-06-18T08:58:33Z</time>
      </trkpt>
      <trkpt lat="36.993867" lon="-6.161514">
        <ele>4.295</ele>
        <time>2015-06-18T08:58:35Z</time>
      </trkpt>
      <trkpt lat="36.993470" lon="-6.161625">
        <ele>4.241</ele>
        <time>2015-06-18T08:58:42Z</time>
      </trkpt>
      <trkpt lat="36.993124" lon="-6.161722">
        <ele>4.250</ele>
        <time>2015-06-18T08:58:48Z</time>
      </trkpt>
      <trkpt lat="36.992701" lon="-6.161818">
        <ele>4.273</ele>
        <time>2015-06-18T08:58:55Z</time>
      </trkpt>
      <trkpt lat="36.992462" lon="-6.161883">
        <ele>4.295</ele>
        <time>2015-06-18T08:58:59Z</time>
      </trkpt>
      <trkpt lat="36.992342" lon="-6.161914">
        <ele>4.258</ele>
        <time>2015-06-18T08:59:01Z</time>
      </trkpt>
      <trkpt lat="36.992092" lon="-6.161963">
        <ele>4.242</ele>
        <time>2015-06-18T08:59:05Z</time>
      </trkpt>
      <trkpt lat="36.992030" lon="-6.161966">
        <ele>4.243</ele>
        <time>2015-06-18T08:59:06Z</time>
      </trkpt>
      <trkpt lat="36.991905" lon="-6.161995">
        <ele>4.264</ele>
        <time>2015-06-18T08:59:08Z</time>
      </trkpt>
      <trkpt lat="36.991729" lon="-6.162062">
        <ele>4.210</ele>
        <time>2015-06-18T08:59:11Z</time>
      </trkpt>
      <trkpt lat="36.991373" lon="-6.162155">
        <ele>4.208</ele>
        <time>2015-06-18T08:59:17Z</time>
      </trkpt>
      <trkpt lat="36.991143" lon="-6.162206">
        <ele>4.215</ele>
        <time>2015-06-18T08:59:21Z</time>
      </trkpt>
      <trkpt lat="36.991035" lon="-6.162234">
        <ele>4.291</ele>
        <time>2015-06-18T08:59:23Z</time>
      </trkpt>
      <trkpt lat="36.990677" lon="-6.162336">
        <ele>4.297</ele>
        <time>2015-06-18T08:59:30Z</time>
      </trkpt>
      <trkpt lat="36.990349" lon="-6.162406">
        <ele>4.256</ele>
        <time>2015-06-18T08:59:36Z</time>
      </trkpt>
      <trkpt lat="36.990059" lon="-6.162474">
        <ele>4.249</ele>
        <time>2015-06-18T08:59:41Z</time>
      </trkpt>
      <trkpt lat="36.989700" lon="-6.162576">
        <ele>4.251</ele>
        <time>2015-06-18T08:59:47Z</time>
      </trkpt>
      <trkpt lat="36.989466" lon="-6.162654">
        <ele>4.224</ele>
        <time>2015-06-18T08:59:51Z</time>
      </trkpt>
      <trkpt lat="36.989344" lon="-6.162686">
        <ele>4.268</ele>
        <time>2015-06-18T08:59:53Z</time>
      </trkpt>
      <trkpt lat="36.989042" lon="-6.162763">
        <ele>4.245</ele>
        <time>2015-06-18T08:59:58Z</time>
      </trkpt>
      <trkpt lat="36.988978" lon="-6.162784">
        <ele>4.247</ele>
        <time>2015-06-18T08:59:59Z</time>
      </trkpt>
      <trkpt lat="36.988602" lon="-6.162890">
        <ele>4.211</ele>
        <time>2015-06-18T09:00:05Z</time>
      </trkpt>
      <trkpt lat="36.988337" lon="-6.163001">
        <ele>4.208</ele>
        <time>2015-06-18T09:00:10Z</time>
      </trkpt>
      <trkpt lat="36.988112" lon="-6.163087">
        <ele>4.285</ele>
        <time>2015-06-18T09:00:15Z</time>
      </trkpt>
      <trkpt lat="36.988026" lon="-6.163130">
        <ele>4.281</ele>
        <time>2015-06-18T09:00:17Z</time>
      </trkpt>
      <trkpt lat="36.987692" lon="-6.163256">
        <ele>4.267</ele>
        <time>2015-06-18T09:00:24Z</time>
      </trkpt>
      <trkpt lat="36.987556" lon="-6.163322">
        <ele>4.296</ele>
        <time>2015-06-18T09:00:26Z</time>
      </trkpt>
      <trkpt lat="36.987460" lon="-6.163363">
        <ele>4.259</ele>
        <time>2015-06-18T09:00:30Z</time>
      </trkpt>
      <trkpt lat="36.987412" lon="-6.163381">
        <ele>4.271</ele>
        <time>2015-06-18T09:00:31Z</time>
      </trkpt>
      <trkpt lat="36.987169" lon="-6.163474">
        <ele>4.264</ele>
        <time>2015-06-18T09:00:36Z</time>
      </trkpt>
      <trkpt lat="36.987123" lon="-6.163491">
        <ele>4.248</ele>
        <time>2015-06-18T09:00:37Z</time>
      </trkpt>
      <trkpt lat="36.986942" lon="-6.163562">
        <ele>4.274</ele>
        <time>2015-06-18T09:00:41Z</time>
      </trkpt>
      <trkpt lat="36.986868" lon="-6.163583">
        <ele>4.256</ele>
        <time>2015-06-18T09:00:43Z</time>
      </trkpt>
      <trkpt lat="36.986552" lon="-6.163700">
        <ele>4.221</ele>
        <time>2015-06-18T09:00:50Z</time>
      </trkpt>
      <trkpt lat="36.986200" lon="-6.163833">
        <ele>4.208</ele>
        <time>2015-06-18T09:00:57Z</time>
      </trkpt>
      <trkpt lat="36.985887" lon="-6.163930">
        <ele>4.248</ele>
        <time>2015-06-18T09:01:03Z</time>
      </trkpt>
      <trkpt lat="36.985553" lon="-6.164052">
        <ele>4.294</ele>
        <time>2015-06-18T09:01:09Z</time>
      </trkpt>
      <trkpt lat="36.985125" lon="-6.164219">
        <ele>4.230</ele>
        <time>2015-06-18T09:01:16Z</time>
      </trkpt>
      <trkpt lat="36.984993" lon="-6.164267">
        <ele>4.279</ele>
        <time>2015-06-18T09:01:18Z</time>
      </trkpt>
      <trkpt lat="36.984546" lon="-6.164456">
        <ele>4.242</ele>
        <time>2015-06-18T09:01:25Z</time>
      </trkpt>
      <trkpt lat="36.984481" lon="-6.164480">
        <ele>4.234</ele>
        <time>2015-06-18T09:01:26Z</time>
      </trkpt>
      <trkpt lat="36.983904" lon="-6.164698">
        <ele>4.267</ele>
        <time>2015-06-18T09:01:35Z</time>
      </trkpt>
      <trkpt lat="36.983471" lon="-6.164878">
        <ele>4.251</ele>
        <time>2015-06-18T09:01:42Z</time>
      </trkpt>
      <trkpt lat="36.982901" lon="-6.165086">
        <ele>4.259</ele>
        <time>2015-06-18T09:01:51Z</time>
      </trkpt>
      <trkpt lat="36.982713" lon="-6.165166">
        <ele>4.203</ele>
        <time>2015-06-18T09:01:54Z</time>
      </trkpt>
      <trkpt lat="36.982465" lon="-6.165256">
        <ele>4.223</ele>
        <time>2015-06-18T09:01:58Z</time>
      </trkpt>
      <trkpt lat="36.982092" lon="-6.165401">
        <ele>4.208</ele>
        <time>2015-06-18T09:02:04Z</time>
      </trkpt>
      <trkpt lat="36.981531" lon="-6.165615">
        <ele>4.286</ele>
        <time>2015-06-18T09:02:13Z</time>
      </trkpt>
      <trkpt lat="36.981046" lon="-6.165831">
        <ele>4.262</ele>
        <time>2015-06-18T09:02:21Z</time>
      </trkpt>
      <trkpt lat="36.980686" lon="-6.165980">
        <ele>4.298</ele>
        <time>2015-06-18T09:02:27Z</time>
      </trkpt>
      <trkpt lat="36.980264" lon="-6.166129">
        <ele>4.227</ele>
        <time>2015-06-18T09:02:34Z</time>
      </trkpt>
      <trkpt lat="36.979788" lon="-6.166319">
        <ele>4.260</ele>
        <time>2015-06-18T09:02:42Z</time>
      </trkpt>
      <trkpt lat="36.979478" lon="-6.166433">
        <ele>4.242</ele>
        <time>2015-06-18T09:02:47Z</time>
      </trkpt>
      <trkpt lat="36.979420" lon="-6.166455">
        <ele>4.245</ele>
        <time>2015-06-18T09:02:48Z</time>
      </trkpt>
      <trkpt lat="36.978951" lon="-6.166627">
        <ele>4.249</ele>
        <time>2015-06-18T09:02:56Z</time>
      </trkpt>
      <trkpt lat="36.978483" lon="-6.166810">
        <ele>4.225</ele>
        <time>2015-06-18T09:03:04Z</time>
      </trkpt>
      <trkpt lat="36.978001" lon="-6.166995">
        <ele>4.226</ele>
        <time>2015-06-18T09:03:12Z</time>
      </trkpt>
      <trkpt lat="36.977529" lon="-6.167176">
        <ele>4.208</ele>
        <time>2015-06-18T09:03:20Z</time>
      </trkpt>
      <trkpt lat="36.977113" lon="-6.167338">
        <ele>4.208</ele>
        <time>2015-06-18T09:03:27Z</time>
      </trkpt>
      <trkpt lat="36.976684" lon="-6.167505">
        <ele>4.243</ele>
        <time>2015-06-18T09:03:34Z</time>
      </trkpt>
      <trkpt lat="36.976332" lon="-6.167645">
        <ele>4.249</ele>
        <time>2015-06-18T09:03:40Z</time>
      </trkpt>
      <trkpt lat="36.976117" lon="-6.167727">
        <ele>4.255</ele>
        <time>2015-06-18T09:03:44Z</time>
      </trkpt>
      <trkpt lat="36.976060" lon="-6.167745">
        <ele>4.264</ele>
        <time>2015-06-18T09:03:45Z</time>
      </trkpt>
      <trkpt lat="36.975601" lon="-6.167918">
        <ele>4.227</ele>
        <time>2015-06-18T09:03:53Z</time>
      </trkpt>
      <trkpt lat="36.975251" lon="-6.168054">
        <ele>4.269</ele>
        <time>2015-06-18T09:03:59Z</time>
      </trkpt>
      <trkpt lat="36.974785" lon="-6.168237">
        <ele>4.242</ele>
        <time>2015-06-18T09:04:07Z</time>
      </trkpt>
      <trkpt lat="36.974325" lon="-6.168414">
        <ele>4.276</ele>
        <time>2015-06-18T09:04:15Z</time>
      </trkpt>
      <trkpt lat="36.973979" lon="-6.168546">
        <ele>4.229</ele>
        <time>2015-06-18T09:04:21Z</time>
      </trkpt>
      <trkpt lat="36.973637" lon="-6.168682">
        <ele>4.200</ele>
        <time>2015-06-18T09:04:27Z</time>
      </trkpt>
      <trkpt lat="36.973175" lon="-6.168850">
        <ele>4.220</ele>
        <time>2015-06-18T09:04:35Z</time>
      </trkpt>
      <trkpt lat="36.972830" lon="-6.168991">
        <ele>4.208</ele>
        <time>2015-06-18T09:04:41Z</time>
      </trkpt>
      <trkpt lat="36.972773" lon="-6.169010">
        <ele>4.293</ele>
        <time>2015-06-18T09:04:42Z</time>
      </trkpt>
      <trkpt lat="36.972323" lon="-6.169201">
        <ele>4.229</ele>
        <time>2015-06-18T09:04:50Z</time>
      </trkpt>
      <trkpt lat="36.971963" lon="-6.169336">
        <ele>4.295</ele>
        <time>2015-06-18T09:04:56Z</time>
      </trkpt>
      <trkpt lat="36.971593" lon="-6.169479">
        <ele>4.244</ele>
        <time>2015-06-18T09:05:02Z</time>
      </trkpt>
      <trkpt lat="36.971470" lon="-6.169521">
        <ele>4.247</ele>
        <time>2015-06-18T09:05:04Z</time>
      </trkpt>
      <trkpt lat="36.971135" lon="-6.169641">
        <ele>4.219</ele>
        <time>2015-06-18T09:05:10Z</time>
      </trkpt>
      <trkpt lat="36.970944" lon="-6.169713">
        <ele>4.232</ele>
        <time>2015-06-18T09:05:14Z</time>
      </trkpt>
      <trkpt lat="36.970899" lon="-6.169726">
        <ele>4.276</ele>
        <time>2015-06-18T09:05:15Z</time>
      </trkpt>
      <trkpt lat="36.970813" lon="-6.169759">
        <ele>4.212</ele>
        <time>2015-06-18T09:05:17Z</time>
      </trkpt>
      <trkpt lat="36.970590" lon="-6.169843">
        <ele>4.232</ele>
        <time>2015-06-18T09:05:22Z</time>
      </trkpt>
      <trkpt lat="36.970427" lon="-6.169911">
        <ele>4.205</ele>
        <time>2015-06-18T09:05:26Z</time>
      </trkpt>
      <trkpt lat="36.970388" lon="-6.169920">
        <ele>4.208</ele>
        <time>2015-06-18T09:05:27Z</time>
      </trkpt>
      <trkpt lat="36.970183" lon="-6.170008">
        <ele>4.292</ele>
        <time>2015-06-18T09:05:32Z</time>
      </trkpt>
      <trkpt lat="36.970049" lon="-6.170055">
        <ele>4.288</ele>
        <time>2015-06-18T09:05:35Z</time>
      </trkpt>
      <trkpt lat="36.969870" lon="-6.170126">
        <ele>4.214</ele>
        <time>2015-06-18T09:05:39Z</time>
      </trkpt>
      <trkpt lat="36.969640" lon="-6.170215">
        <ele>4.233</ele>
        <time>2015-06-18T09:05:44Z</time>
      </trkpt>
      <trkpt lat="36.969546" lon="-6.170262">
        <ele>4.276</ele>
        <time>2015-06-18T09:05:46Z</time>
      </trkpt>
      <trkpt lat="36.969443" lon="-6.170294">
        <ele>4.288</ele>
        <time>2015-06-18T09:05:48Z</time>
      </trkpt>
      <trkpt lat="36.969235" lon="-6.170372">
        <ele>4.261</ele>
        <time>2015-06-18T09:05:52Z</time>
      </trkpt>
      <trkpt lat="36.968968" lon="-6.170463">
        <ele>4.285</ele>
        <time>2015-06-18T09:05:57Z</time>
      </trkpt>
      <trkpt lat="36.968861" lon="-6.170504">
        <ele>4.269</ele>
        <time>2015-06-18T09:05:59Z</time>
      </trkpt>
      <trkpt lat="36.968487" lon="-6.170645">
        <ele>4.204</ele>
        <time>2015-06-18T09:06:06Z</time>
      </trkpt>
      <trkpt lat="36.968046" lon="-6.170819">
        <ele>4.224</ele>
        <time>2015-06-18T09:06:14Z</time>
      </trkpt>
      <trkpt lat="36.967657" lon="-6.170969">
        <ele>4.208</ele>
        <time>2015-06-18T09:06:21Z</time>
      </trkpt>
      <trkpt lat="36.967267" lon="-6.171131">
        <ele>4.237</ele>
        <time>2015-06-18T09:06:28Z</time>
      </trkpt>
      <trkpt lat="36.966863" lon="-6.171295">
        <ele>4.293</ele>
        <time>2015-06-18T09:06:35Z</time>
      </trkpt>
      <trkpt lat="36.966466" lon="-6.171450">
        <ele>4.249</ele>
        <time>2015-06-18T09:06:42Z</time>
      </trkpt>
      <trkpt lat="36.965968" lon="-6.171642">
        <ele>4.258</ele>
        <time>2015-06-18T09:06:51Z</time>
      </trkpt>
      <trkpt lat="36.965660" lon="-6.171763">
        <ele>4.291</ele>
        <time>2015-06-18T09:06:57Z</time>
      </trkpt>
      <trkpt lat="36.965355" lon="-6.171884">
        <ele>4.223</ele>
        <time>2015-06-18T09:07:03Z</time>
      </trkpt>
      <trkpt lat="36.965218" lon="-6.171940">
        <ele>4.286</ele>
        <time>2015-06-18T09:07:06Z</time>
      </trkpt>
      <trkpt lat="36.965037" lon="-6.172015">
        <ele>4.270</ele>
        <time>2015-06-18T09:07:10Z</time>
      </trkpt>
      <trkpt lat="36.964747" lon="-6.172121">
        <ele>4.264</ele>
        <time>2015-06-18T09:07:16Z</time>
      </trkpt>
      <trkpt lat="36.964390" lon="-6.172252">
        <ele>4.206</ele>
        <time>2015-06-18T09:07:23Z</time>
      </trkpt>
      <trkpt lat="36.963909" lon="-6.172438">
        <ele>4.216</ele>
        <time>2015-06-18T09:07:32Z</time>
      </trkpt>
      <trkpt lat="36.963741" lon="-6.172505">
        <ele>4.208</ele>
        <time>2015-06-18T09:07:35Z</time>
      </trkpt>
      <trkpt lat="36.963565" lon="-6.172547">
        <ele>4.297</ele>
        <time>2015-06-18T09:07:38Z</time>
      </trkpt>
      <trkpt lat="36.963220" lon="-6.172698">
        <ele>4.263</ele>
        <time>2015-06-18T09:07:44Z</time>
      </trkpt>
      <trkpt lat="36.963163" lon="-6.172719">
        <ele>4.259</ele>
        <time>2015-06-18T09:07:45Z</time>
      </trkpt>
      <trkpt lat="36.962987" lon="-6.172793">
        <ele>4.258</ele>
        <time>2015-06-18T09:07:48Z</time>
      </trkpt>
      <trkpt lat="36.962755" lon="-6.172890">
        <ele>4.221</ele>
        <time>2015-06-18T09:07:52Z</time>
      </trkpt>
      <trkpt lat="36.962279" lon="-6.173075">
        <ele>4.273</ele>
        <time>2015-06-18T09:08:00Z</time>
      </trkpt>
      <trkpt lat="36.962219" lon="-6.173093">
        <ele>4.296</ele>
        <time>2015-06-18T09:08:01Z</time>
      </trkpt>
      <trkpt lat="36.961981" lon="-6.173183">
        <ele>4.220</ele>
        <time>2015-06-18T09:08:05Z</time>
      </trkpt>
      <trkpt lat="36.961625" lon="-6.173316">
        <ele>4.213</ele>
        <time>2015-06-18T09:08:11Z</time>
      </trkpt>
      <trkpt lat="36.961161" lon="-6.173489">
        <ele>4.243</ele>
        <time>2015-06-18T09:08:19Z</time>
      </trkpt>
      <trkpt lat="36.960766" lon="-6.173643">
        <ele>4.207</ele>
        <time>2015-06-18T09:08:26Z</time>
      </trkpt>
      <trkpt lat="36.960394" lon="-6.173788">
        <ele>4.208</ele>
        <time>2015-06-18T09:08:33Z</time>
      </trkpt>
      <trkpt lat="36.959850" lon="-6.174004">
        <ele>4.222</ele>
        <time>2015-06-18T09:08:43Z</time>
      </trkpt>
      <trkpt lat="36.959509" lon="-6.174138">
        <ele>4.278</ele>
        <time>2015-06-18T09:08:49Z</time>
      </trkpt>
      <trkpt lat="36.958975" lon="-6.174338">
        <ele>4.214</ele>
        <time>2015-06-18T09:08:58Z</time>
      </trkpt>
      <trkpt lat="36.958915" lon="-6.174356">
        <ele>4.293</ele>
        <time>2015-06-18T09:08:59Z</time>
      </trkpt>
      <trkpt lat="36.958568" lon="-6.174494">
        <ele>4.226</ele>
        <time>2015-06-18T09:09:05Z</time>
      </trkpt>
      <trkpt lat="36.958221" lon="-6.174626">
        <ele>4.248</ele>
        <time>2015-06-18T09:09:11Z</time>
      </trkpt>
      <trkpt lat="36.957956" lon="-6.174721">
        <ele>4.231</ele>
        <time>2015-06-18T09:09:16Z</time>
      </trkpt>
      <trkpt lat="36.957804" lon="-6.174778">
        <ele>4.215</ele>
        <time>2015-06-18T09:09:19Z</time>
      </trkpt>
      <trkpt lat="36.957513" lon="-6.174899">
        <ele>4.259</ele>
        <time>2015-06-18T09:09:25Z</time>
      </trkpt>
      <trkpt lat="36.957141" lon="-6.175035">
        <ele>4.203</ele>
        <time>2015-06-18T09:09:32Z</time>
      </trkpt>
      <trkpt lat="36.956883" lon="-6.175137">
        <ele>4.223</ele>
        <time>2015-06-18T09:09:37Z</time>
      </trkpt>
      <trkpt lat="36.956781" lon="-6.175192">
        <ele>4.208</ele>
        <time>2015-06-18T09:09:39Z</time>
      </trkpt>
      <trkpt lat="36.956413" lon="-6.175332">
        <ele>4.266</ele>
        <time>2015-06-18T09:09:46Z</time>
      </trkpt>
      <trkpt lat="36.955984" lon="-6.175500">
        <ele>4.262</ele>
        <time>2015-06-18T09:09:54Z</time>
      </trkpt>
      <trkpt lat="36.955597" lon="-6.175627">
        <ele>4.228</ele>
        <time>2015-06-18T09:10:01Z</time>
      </trkpt>
      <trkpt lat="36.955155" lon="-6.175798">
        <ele>4.277</ele>
        <time>2015-06-18T09:10:09Z</time>
      </trkpt>
      <trkpt lat="36.954712" lon="-6.175966">
        <ele>4.270</ele>
        <time>2015-06-18T09:10:17Z</time>
      </trkpt>
      <trkpt lat="36.954306" lon="-6.176120">
        <ele>4.262</ele>
        <time>2015-06-18T09:10:24Z</time>
      </trkpt>
      <trkpt lat="36.953950" lon="-6.176262">
        <ele>4.215</ele>
        <time>2015-06-18T09:10:30Z</time>
      </trkpt>
      <trkpt lat="36.953580" lon="-6.176430">
        <ele>4.269</ele>
        <time>2015-06-18T09:10:36Z</time>
      </trkpt>
      <trkpt lat="36.953192" lon="-6.176577">
        <ele>4.233</ele>
        <time>2015-06-18T09:10:42Z</time>
      </trkpt>
      <trkpt lat="36.952834" lon="-6.176713">
        <ele>4.223</ele>
        <time>2015-06-18T09:10:48Z</time>
      </trkpt>
      <trkpt lat="36.952780" lon="-6.176735">
        <ele>4.215</ele>
        <time>2015-06-18T09:10:49Z</time>
      </trkpt>
      <trkpt lat="36.952401" lon="-6.176873">
        <ele>4.208</ele>
        <time>2015-06-18T09:10:56Z</time>
      </trkpt>
      <trkpt lat="36.952044" lon="-6.176999">
        <ele>4.264</ele>
        <time>2015-06-18T09:11:02Z</time>
      </trkpt>
      <trkpt lat="36.951861" lon="-6.177065">
        <ele>4.220</ele>
        <time>2015-06-18T09:11:05Z</time>
      </trkpt>
      <trkpt lat="36.951675" lon="-6.177130">
        <ele>4.276</ele>
        <time>2015-06-18T09:11:08Z</time>
      </trkpt>
      <trkpt lat="36.951171" lon="-6.177318">
        <ele>4.245</ele>
        <time>2015-06-18T09:11:16Z</time>
      </trkpt>
      <trkpt lat="36.950617" lon="-6.177566">
        <ele>4.268</ele>
        <time>2015-06-18T09:11:25Z</time>
      </trkpt>
      <trkpt lat="36.950194" lon="-6.177724">
        <ele>4.240</ele>
        <time>2015-06-18T09:11:32Z</time>
      </trkpt>
      <trkpt lat="36.949895" lon="-6.177837">
        <ele>4.223</ele>
        <time>2015-06-18T09:11:37Z</time>
      </trkpt>
      <trkpt lat="36.949475" lon="-6.178003">
        <ele>4.287</ele>
        <time>2015-06-18T09:11:44Z</time>
      </trkpt>
      <trkpt lat="36.949232" lon="-6.178101">
        <ele>4.245</ele>
        <time>2015-06-18T09:11:48Z</time>
      </trkpt>
      <trkpt lat="36.949051" lon="-6.178168">
        <ele>4.247</ele>
        <time>2015-06-18T09:11:51Z</time>
      </trkpt>
      <trkpt lat="36.948712" lon="-6.178308">
        <ele>4.211</ele>
        <time>2015-06-18T09:11:57Z</time>
      </trkpt>
      <trkpt lat="36.948357" lon="-6.178439">
        <ele>4.208</ele>
        <time>2015-06-18T09:12:03Z</time>
      </trkpt>
      <trkpt lat="36.948240" lon="-6.178487">
        <ele>4.275</ele>
        <time>2015-06-18T09:12:05Z</time>
      </trkpt>
      <trkpt lat="36.947992" lon="-6.178571">
        <ele>4.211</ele>
        <time>2015-06-18T09:12:09Z</time>
      </trkpt>
      <trkpt lat="36.947869" lon="-6.178608">
        <ele>4.287</ele>
        <time>2015-06-18T09:12:11Z</time>
      </trkpt>
      <trkpt lat="36.947808" lon="-6.178632">
        <ele>4.286</ele>
        <time>2015-06-18T09:12:12Z</time>
      </trkpt>
      <trkpt lat="36.947265" lon="-6.178843">
        <ele>4.249</ele>
        <time>2015-06-18T09:12:21Z</time>
      </trkpt>
      <trkpt lat="36.946796" lon="-6.179037">
        <ele>4.291</ele>
        <time>2015-06-18T09:12:29Z</time>
      </trkpt>
      <trkpt lat="36.946478" lon="-6.179174">
        <ele>4.294</ele>
        <time>2015-06-18T09:12:35Z</time>
      </trkpt>
      <trkpt lat="36.946182" lon="-6.179282">
        <ele>4.248</ele>
        <time>2015-06-18T09:12:41Z</time>
      </trkpt>
      <trkpt lat="36.946129" lon="-6.179289">
        <ele>4.251</ele>
        <time>2015-06-18T09:12:42Z</time>
      </trkpt>
      <trkpt lat="36.945968" lon="-6.179323">
        <ele>4.201</ele>
        <time>2015-06-18T09:12:45Z</time>
      </trkpt>
      <trkpt lat="36.945917" lon="-6.179344">
        <ele>4.211</ele>
        <time>2015-06-18T09:12:46Z</time>
      </trkpt>
      <trkpt lat="36.945591" lon="-6.179477">
        <ele>4.208</ele>
        <time>2015-06-18T09:12:52Z</time>
      </trkpt>
      <trkpt lat="36.945535" lon="-6.179492">
        <ele>4.296</ele>
        <time>2015-06-18T09:12:53Z</time>
      </trkpt>
      <trkpt lat="36.945207" lon="-6.179612">
        <ele>4.212</ele>
        <time>2015-06-18T09:12:59Z</time>
      </trkpt>
      <trkpt lat="36.944646" lon="-6.179833">
        <ele>4.288</ele>
        <time>2015-06-18T09:13:09Z</time>
      </trkpt>
      <trkpt lat="36.944147" lon="-6.180021">
        <ele>4.217</ele>
        <time>2015-06-18T09:13:18Z</time>
      </trkpt>
      <trkpt lat="36.943959" lon="-6.180111">
        <ele>4.270</ele>
        <time>2015-06-18T09:13:22Z</time>
      </trkpt>
      <trkpt lat="36.943867" lon="-6.180138">
        <ele>4.272</ele>
        <time>2015-06-18T09:13:24Z</time>
      </trkpt>
      <trkpt lat="36.943517" lon="-6.180270">
        <ele>4.245</ele>
        <time>2015-06-18T09:13:31Z</time>
      </trkpt>
      <trkpt lat="36.943133" lon="-6.180412">
        <ele>4.289</ele>
        <time>2015-06-18T09:13:38Z</time>
      </trkpt>
      <trkpt lat="36.942732" lon="-6.180567">
        <ele>4.247</ele>
        <time>2015-06-18T09:13:45Z</time>
      </trkpt>
      <trkpt lat="36.942244" lon="-6.180757">
        <ele>4.229</ele>
        <time>2015-06-18T09:13:53Z</time>
      </trkpt>
      <trkpt lat="36.941856" lon="-6.180908">
        <ele>4.221</ele>
        <time>2015-06-18T09:13:59Z</time>
      </trkpt>
      <trkpt lat="36.941794" lon="-6.180939">
        <ele>4.208</ele>
        <time>2015-06-18T09:14:00Z</time>
      </trkpt>
      <trkpt lat="36.941673" lon="-6.180995">
        <ele>4.295</ele>
        <time>2015-06-18T09:14:02Z</time>
      </trkpt>
      <trkpt lat="36.941442" lon="-6.181069">
        <ele>4.251</ele>
        <time>2015-06-18T09:14:06Z</time>
      </trkpt>
      <trkpt lat="36.941126" lon="-6.181184">
        <ele>4.297</ele>
        <time>2015-06-18T09:14:12Z</time>
      </trkpt>
      <trkpt lat="36.940671" lon="-6.181362">
        <ele>4.296</ele>
        <time>2015-06-18T09:14:20Z</time>
      </trkpt>
      <trkpt lat="36.940245" lon="-6.181521">
        <ele>4.259</ele>
        <time>2015-06-18T09:14:27Z</time>
      </trkpt>
      <trkpt lat="36.939691" lon="-6.181736">
        <ele>4.211</ele>
        <time>2015-06-18T09:14:36Z</time>
      </trkpt>
      <trkpt lat="36.939571" lon="-6.181790">
        <ele>4.254</ele>
        <time>2015-06-18T09:14:38Z</time>
      </trkpt>
      <trkpt lat="36.939406" lon="-6.181845">
        <ele>4.258</ele>
        <time>2015-06-18T09:14:41Z</time>
      </trkpt>
      <trkpt lat="36.939353" lon="-6.181866">
        <ele>4.279</ele>
        <time>2015-06-18T09:14:42Z</time>
      </trkpt>
      <trkpt lat="36.939247" lon="-6.181906">
        <ele>4.205</ele>
        <time>2015-06-18T09:14:44Z</time>
      </trkpt>
      <trkpt lat="36.939083" lon="-6.181968">
        <ele>4.225</ele>
        <time>2015-06-18T09:14:47Z</time>
      </trkpt>
      <trkpt lat="36.938515" lon="-6.182190">
        <ele>4.208</ele>
        <time>2015-06-18T09:14:57Z</time>
      </trkpt>
      <trkpt lat="36.938040" lon="-6.182374">
        <ele>4.248</ele>
        <time>2015-06-18T09:15:05Z</time>
      </trkpt>
      <trkpt lat="36.937791" lon="-6.182468">
        <ele>4.214</ele>
        <time>2015-06-18T09:15:09Z</time>
      </trkpt>
      <trkpt lat="36.937669" lon="-6.182519">
        <ele>4.280</ele>
        <time>2015-06-18T09:15:11Z</time>
      </trkpt>
      <trkpt lat="36.937177" lon="-6.182703">
        <ele>4.269</ele>
        <time>2015-06-18T09:15:19Z</time>
      </trkpt>
      <trkpt lat="36.936754" lon="-6.182864">
        <ele>4.212</ele>
        <time>2015-06-18T09:15:26Z</time>
      </trkpt>
      <trkpt lat="36.936572" lon="-6.182936">
        <ele>4.274</ele>
        <time>2015-06-18T09:15:29Z</time>
      </trkpt>
      <trkpt lat="36.936191" lon="-6.183083">
        <ele>4.257</ele>
        <time>2015-06-18T09:15:35Z</time>
      </trkpt>
      <trkpt lat="36.936060" lon="-6.183133">
        <ele>4.211</ele>
        <time>2015-06-18T09:15:37Z</time>
      </trkpt>
      <trkpt lat="36.935547" lon="-6.183357">
        <ele>4.223</ele>
        <time>2015-06-18T09:15:45Z</time>
      </trkpt>
      <trkpt lat="36.935087" lon="-6.183596">
        <ele>4.283</ele>
        <time>2015-06-18T09:15:52Z</time>
      </trkpt>
      <trkpt lat="36.934693" lon="-6.183830">
        <ele>4.211</ele>
        <time>2015-06-18T09:15:58Z</time>
      </trkpt>
      <trkpt lat="36.934228" lon="-6.184114">
        <ele>4.208</ele>
        <time>2015-06-18T09:16:05Z</time>
      </trkpt>
      <trkpt lat="36.933875" lon="-6.184325">
        <ele>4.263</ele>
        <time>2015-06-18T09:16:10Z</time>
      </trkpt>
      <trkpt lat="36.933667" lon="-6.184453">
        <ele>4.249</ele>
        <time>2015-06-18T09:16:13Z</time>
      </trkpt>
      <trkpt lat="36.933174" lon="-6.184751">
        <ele>4.295</ele>
        <time>2015-06-18T09:16:20Z</time>
      </trkpt>
      <trkpt lat="36.933032" lon="-6.184835">
        <ele>4.294</ele>
        <time>2015-06-18T09:16:22Z</time>
      </trkpt>
      <trkpt lat="36.932624" lon="-6.185086">
        <ele>4.257</ele>
        <time>2015-06-18T09:16:28Z</time>
      </trkpt>
      <trkpt lat="36.932084" lon="-6.185420">
        <ele>4.239</ele>
        <time>2015-06-18T09:16:36Z</time>
      </trkpt>
      <trkpt lat="36.931562" lon="-6.185742">
        <ele>4.272</ele>
        <time>2015-06-18T09:16:44Z</time>
      </trkpt>
      <trkpt lat="36.931049" lon="-6.186057">
        <ele>4.266</ele>
        <time>2015-06-18T09:16:52Z</time>
      </trkpt>
      <trkpt lat="36.930746" lon="-6.186237">
        <ele>4.221</ele>
        <time>2015-06-18T09:16:57Z</time>
      </trkpt>
      <trkpt lat="36.930266" lon="-6.186526">
        <ele>4.241</ele>
        <time>2015-06-18T09:17:05Z</time>
      </trkpt>
      <trkpt lat="36.929788" lon="-6.186814">
        <ele>4.205</ele>
        <time>2015-06-18T09:17:13Z</time>
      </trkpt>
      <trkpt lat="36.929733" lon="-6.186852">
        <ele>4.208</ele>
        <time>2015-06-18T09:17:14Z</time>
      </trkpt>
      <trkpt lat="36.929557" lon="-6.186956">
        <ele>4.253</ele>
        <time>2015-06-18T09:17:17Z</time>
      </trkpt>
      <trkpt lat="36.929444" lon="-6.187029">
        <ele>4.299</ele>
        <time>2015-06-18T09:17:19Z</time>
      </trkpt>
      <trkpt lat="36.928969" lon="-6.187314">
        <ele>4.235</ele>
        <time>2015-06-18T09:17:27Z</time>
      </trkpt>
      <trkpt lat="36.928458" lon="-6.187626">
        <ele>4.274</ele>
        <time>2015-06-18T09:17:36Z</time>
      </trkpt>
      <trkpt lat="36.928104" lon="-6.187829">
        <ele>4.217</ele>
        <time>2015-06-18T09:17:42Z</time>
      </trkpt>
      <trkpt lat="36.928044" lon="-6.187859">
        <ele>4.229</ele>
        <time>2015-06-18T09:17:43Z</time>
      </trkpt>
      <trkpt lat="36.927641" lon="-6.188102">
        <ele>4.292</ele>
        <time>2015-06-18T09:17:50Z</time>
      </trkpt>
      <trkpt lat="36.927157" lon="-6.188407">
        <ele>4.216</ele>
        <time>2015-06-18T09:17:58Z</time>
      </trkpt>
      <trkpt lat="36.926716" lon="-6.188664">
        <ele>4.232</ele>
        <time>2015-06-18T09:18:05Z</time>
      </trkpt>
      <trkpt lat="36.926282" lon="-6.188932">
        <ele>4.292</ele>
        <time>2015-06-18T09:18:12Z</time>
      </trkpt>
      <trkpt lat="36.925784" lon="-6.189240">
        <ele>4.211</ele>
        <time>2015-06-18T09:18:20Z</time>
      </trkpt>
      <trkpt lat="36.925724" lon="-6.189281">
        <ele>4.208</ele>
        <time>2015-06-18T09:18:21Z</time>
      </trkpt>
      <trkpt lat="36.925342" lon="-6.189499">
        <ele>4.234</ele>
        <time>2015-06-18T09:18:27Z</time>
      </trkpt>
      <trkpt lat="36.924832" lon="-6.189814">
        <ele>4.250</ele>
        <time>2015-06-18T09:18:35Z</time>
      </trkpt>
      <trkpt lat="36.924382" lon="-6.190108">
        <ele>4.226</ele>
        <time>2015-06-18T09:18:42Z</time>
      </trkpt>
      <trkpt lat="36.924115" lon="-6.190254">
        <ele>4.295</ele>
        <time>2015-06-18T09:18:46Z</time>
      </trkpt>
      <trkpt lat="36.923981" lon="-6.190327">
        <ele>4.228</ele>
        <time>2015-06-18T09:18:48Z</time>
      </trkpt>
      <trkpt lat="36.923534" lon="-6.190601">
        <ele>4.250</ele>
        <time>2015-06-18T09:18:55Z</time>
      </trkpt>
      <trkpt lat="36.923010" lon="-6.190926">
        <ele>4.293</ele>
        <time>2015-06-18T09:19:03Z</time>
      </trkpt>
      <trkpt lat="36.922489" lon="-6.191241">
        <ele>4.247</ele>
        <time>2015-06-18T09:19:11Z</time>
      </trkpt>
      <trkpt lat="36.922423" lon="-6.191281">
        <ele>4.227</ele>
        <time>2015-06-18T09:19:12Z</time>
      </trkpt>
      <trkpt lat="36.922225" lon="-6.191405">
        <ele>4.268</ele>
        <time>2015-06-18T09:19:15Z</time>
      </trkpt>
      <trkpt lat="36.922029" lon="-6.191519">
        <ele>4.214</ele>
        <time>2015-06-18T09:19:18Z</time>
      </trkpt>
      <trkpt lat="36.921558" lon="-6.191797">
        <ele>4.208</ele>
        <time>2015-06-18T09:19:25Z</time>
      </trkpt>
      <trkpt lat="36.921047" lon="-6.192122">
        <ele>4.283</ele>
        <time>2015-06-18T09:19:33Z</time>
      </trkpt>
      <trkpt lat="36.920545" lon="-6.192452">
        <ele>4.239</ele>
        <time>2015-06-18T09:19:41Z</time>
      </trkpt>
      <trkpt lat="36.920483" lon="-6.192499">
        <ele>4.275</ele>
        <time>2015-06-18T09:19:42Z</time>
      </trkpt>
      <trkpt lat="36.919983" lon="-6.192835">
        <ele>4.234</ele>
        <time>2015-06-18T09:19:50Z</time>
      </trkpt>
      <trkpt lat="36.919618" lon="-6.193089">
        <ele>4.297</ele>
        <time>2015-06-18T09:19:56Z</time>
      </trkpt>
      <trkpt lat="36.919207" lon="-6.193390">
        <ele>4.279</ele>
        <time>2015-06-18T09:20:03Z</time>
      </trkpt>
      <trkpt lat="36.919055" lon="-6.193522">
        <ele>4.282</ele>
        <time>2015-06-18T09:20:06Z</time>
      </trkpt>
      <trkpt lat="36.918954" lon="-6.193590">
        <ele>4.286</ele>
        <time>2015-06-18T09:20:08Z</time>
      </trkpt>
      <trkpt lat="36.918772" lon="-6.193719">
        <ele>4.267</ele>
        <time>2015-06-18T09:20:12Z</time>
      </trkpt>
      <trkpt lat="36.918681" lon="-6.193784">
        <ele>4.281</ele>
        <time>2015-06-18T09:20:14Z</time>
      </trkpt>
      <trkpt lat="36.918423" lon="-6.193954">
        <ele>4.219</ele>
        <time>2015-06-18T09:20:20Z</time>
      </trkpt>
      <trkpt lat="36.918323" lon="-6.194014">
        <ele>4.208</ele>
        <time>2015-06-18T09:20:22Z</time>
      </trkpt>
      <trkpt lat="36.918175" lon="-6.194081">
        <ele>4.277</ele>
        <time>2015-06-18T09:20:25Z</time>
      </trkpt>
      <trkpt lat="36.918129" lon="-6.194115">
        <ele>4.243</ele>
        <time>2015-06-18T09:20:26Z</time>
      </trkpt>
      <trkpt lat="36.917833" lon="-6.194322">
        <ele>4.259</ele>
        <time>2015-06-18T09:20:32Z</time>
      </trkpt>
      <trkpt lat="36.917730" lon="-6.194390">
        <ele>4.228</ele>
        <time>2015-06-18T09:20:34Z</time>
      </trkpt>
      <trkpt lat="36.917371" lon="-6.194630">
        <ele>4.291</ele>
        <time>2015-06-18T09:20:41Z</time>
      </trkpt>
      <trkpt lat="36.916930" lon="-6.194925">
        <ele>4.213</ele>
        <time>2015-06-18T09:20:49Z</time>
      </trkpt>
      <trkpt lat="36.916555" lon="-6.195191">
        <ele>4.226</ele>
        <time>2015-06-18T09:20:56Z</time>
      </trkpt>
      <trkpt lat="36.916251" lon="-6.195404">
        <ele>4.260</ele>
        <time>2015-06-18T09:21:02Z</time>
      </trkpt>
      <trkpt lat="36.916149" lon="-6.195475">
        <ele>4.286</ele>
        <time>2015-06-18T09:21:04Z</time>
      </trkpt>
      <trkpt lat="36.915895" lon="-6.195637">
        <ele>4.260</ele>
        <time>2015-06-18T09:21:09Z</time>
      </trkpt>
      <trkpt lat="36.915567" lon="-6.195897">
        <ele>4.226</ele>
        <time>2015-06-18T09:21:16Z</time>
      </trkpt>
      <trkpt lat="36.915523" lon="-6.195925">
        <ele>4.208</ele>
        <time>2015-06-18T09:21:17Z</time>
      </trkpt>
      <trkpt lat="36.915435" lon="-6.195980">
        <ele>4.229</ele>
        <time>2015-06-18T09:21:19Z</time>
      </trkpt>
      <trkpt lat="36.915352" lon="-6.196046">
        <ele>4.275</ele>
        <time>2015-06-18T09:21:21Z</time>
      </trkpt>
      <trkpt lat="36.915122" lon="-6.196197">
        <ele>4.231</ele>
        <time>2015-06-18T09:21:26Z</time>
      </trkpt>
      <trkpt lat="36.914974" lon="-6.196291">
        <ele>4.240</ele>
        <time>2015-06-18T09:21:29Z</time>
      </trkpt>
      <trkpt lat="36.914876" lon="-6.196355">
        <ele>4.283</ele>
        <time>2015-06-18T09:21:31Z</time>
      </trkpt>
      <trkpt lat="36.914779" lon="-6.196423">
        <ele>4.245</ele>
        <time>2015-06-18T09:21:33Z</time>
      </trkpt>
      <trkpt lat="36.914726" lon="-6.196450">
        <ele>4.298</ele>
        <time>2015-06-18T09:21:34Z</time>
      </trkpt>
      <trkpt lat="36.914434" lon="-6.196655">
        <ele>4.232</ele>
        <time>2015-06-18T09:21:40Z</time>
      </trkpt>
      <trkpt lat="36.914155" lon="-6.196892">
        <ele>4.276</ele>
        <time>2015-06-18T09:21:46Z</time>
      </trkpt>
      <trkpt lat="36.913902" lon="-6.197214">
        <ele>4.290</ele>
        <time>2015-06-18T09:21:52Z</time>
      </trkpt>
      <trkpt lat="36.913630" lon="-6.197571">
        <ele>4.219</ele>
        <time>2015-06-18T09:21:58Z</time>
      </trkpt>
      <trkpt lat="36.913280" lon="-6.198080">
        <ele>4.208</ele>
        <time>2015-06-18T09:22:06Z</time>
      </trkpt>
      <trkpt lat="36.912983" lon="-6.198521">
        <ele>4.288</ele>
        <time>2015-06-18T09:22:13Z</time>
      </trkpt>
      <trkpt lat="36.912935" lon="-6.198578">
        <ele>4.294</ele>
        <time>2015-06-18T09:22:14Z</time>
      </trkpt>
      <trkpt lat="36.912707" lon="-6.198900">
        <ele>4.250</ele>
        <time>2015-06-18T09:22:19Z</time>
      </trkpt>
      <trkpt lat="36.912579" lon="-6.199092">
        <ele>4.239</ele>
        <time>2015-06-18T09:22:22Z</time>
      </trkpt>
      <trkpt lat="36.912492" lon="-6.199212">
        <ele>4.232</ele>
        <time>2015-06-18T09:22:24Z</time>
      </trkpt>
      <trkpt lat="36.912212" lon="-6.199612">
        <ele>4.294</ele>
        <time>2015-06-18T09:22:31Z</time>
      </trkpt>
      <trkpt lat="36.912094" lon="-6.199777">
        <ele>4.227</ele>
        <time>2015-06-18T09:22:34Z</time>
      </trkpt>
      <trkpt lat="36.911997" lon="-6.199935">
        <ele>4.261</ele>
        <time>2015-06-18T09:22:37Z</time>
      </trkpt>
      <trkpt lat="36.911898" lon="-6.200057">
        <ele>4.253</ele>
        <time>2015-06-18T09:22:40Z</time>
      </trkpt>
      <trkpt lat="36.911837" lon="-6.200132">
        <ele>4.204</ele>
        <time>2015-06-18T09:22:42Z</time>
      </trkpt>
      <trkpt lat="36.911671" lon="-6.200368">
        <ele>4.214</ele>
        <time>2015-06-18T09:22:47Z</time>
      </trkpt>
      <trkpt lat="36.911454" lon="-6.200680">
        <ele>3.608</ele>
        <time>2015-06-18T09:22:53Z</time>
      </trkpt>
      <trkpt lat="36.911421" lon="-6.200732">
        <ele>3.216</ele>
        <time>2015-06-18T09:22:54Z</time>
      </trkpt>
      <trkpt lat="36.911385" lon="-6.200783">
        <ele>2.672</ele>
        <time>2015-06-18T09:22:55Z</time>
      </trkpt>
      <trkpt lat="36.911347" lon="-6.200835">
        <ele>3.098</ele>
        <time>2015-06-18T09:22:56Z</time>
      </trkpt>
      <trkpt lat="36.911310" lon="-6.200890">
        <ele>3.447</ele>
        <time>2015-06-18T09:22:57Z</time>
      </trkpt>
      <trkpt lat="36.911275" lon="-6.200946">
        <ele>4.090</ele>
        <time>2015-06-18T09:22:58Z</time>
      </trkpt>
      <trkpt lat="36.911238" lon="-6.201002">
        <ele>4.892</ele>
        <time>2015-06-18T09:22:59Z</time>
      </trkpt>
      <trkpt lat="36.911056" lon="-6.201252">
        <ele>4.835</ele>
        <time>2015-06-18T09:23:04Z</time>
      </trkpt>
      <trkpt lat="36.910800" lon="-6.201617">
        <ele>4.829</ele>
        <time>2015-06-18T09:23:11Z</time>
      </trkpt>
      <trkpt lat="36.910692" lon="-6.201769">
        <ele>4.853</ele>
        <time>2015-06-18T09:23:14Z</time>
      </trkpt>
      <trkpt lat="36.910553" lon="-6.201972">
        <ele>4.804</ele>
        <time>2015-06-18T09:23:18Z</time>
      </trkpt>
      <trkpt lat="36.910480" lon="-6.202072">
        <ele>4.814</ele>
        <time>2015-06-18T09:23:20Z</time>
      </trkpt>
      <trkpt lat="36.910338" lon="-6.202279">
        <ele>4.808</ele>
        <time>2015-06-18T09:23:24Z</time>
      </trkpt>
      <trkpt lat="36.910084" lon="-6.202643">
        <ele>4.896</ele>
        <time>2015-06-18T09:23:31Z</time>
      </trkpt>
      <trkpt lat="36.910046" lon="-6.202693">
        <ele>4.862</ele>
        <time>2015-06-18T09:23:32Z</time>
      </trkpt>
      <trkpt lat="36.909892" lon="-6.202902">
        <ele>4.838</ele>
        <time>2015-06-18T09:23:36Z</time>
      </trkpt>
      <trkpt lat="36.909674" lon="-6.203230">
        <ele>4.857</ele>
        <time>2015-06-18T09:23:42Z</time>
      </trkpt>
      <trkpt lat="36.909633" lon="-6.203288">
        <ele>4.850</ele>
        <time>2015-06-18T09:23:43Z</time>
      </trkpt>
      <trkpt lat="36.909466" lon="-6.203506">
        <ele>4.852</ele>
        <time>2015-06-18T09:23:47Z</time>
      </trkpt>
      <trkpt lat="36.909100" lon="-6.204036">
        <ele>4.845</ele>
        <time>2015-06-18T09:23:56Z</time>
      </trkpt>
      <trkpt lat="36.908845" lon="-6.204398">
        <ele>4.819</ele>
        <time>2015-06-18T09:24:02Z</time>
      </trkpt>
      <trkpt lat="36.908507" lon="-6.204876">
        <ele>4.876</ele>
        <time>2015-06-18T09:24:10Z</time>
      </trkpt>
      <trkpt lat="36.908215" lon="-6.205300">
        <ele>4.890</ele>
        <time>2015-06-18T09:24:17Z</time>
      </trkpt>
      <trkpt lat="36.907943" lon="-6.205667">
        <ele>4.819</ele>
        <time>2015-06-18T09:24:23Z</time>
      </trkpt>
      <trkpt lat="36.907736" lon="-6.205985">
        <ele>4.808</ele>
        <time>2015-06-18T09:24:28Z</time>
      </trkpt>
      <trkpt lat="36.907703" lon="-6.206052">
        <ele>4.838</ele>
        <time>2015-06-18T09:24:29Z</time>
      </trkpt>
      <trkpt lat="36.907638" lon="-6.206167">
        <ele>4.874</ele>
        <time>2015-06-18T09:24:31Z</time>
      </trkpt>
      <trkpt lat="36.907537" lon="-6.206321">
        <ele>4.820</ele>
        <time>2015-06-18T09:24:34Z</time>
      </trkpt>
      <trkpt lat="36.907478" lon="-6.206425">
        <ele>4.849</ele>
        <time>2015-06-18T09:24:36Z</time>
      </trkpt>
      <trkpt lat="36.907358" lon="-6.206596">
        <ele>4.862</ele>
        <time>2015-06-18T09:24:40Z</time>
      </trkpt>
      <trkpt lat="36.907226" lon="-6.206787">
        <ele>4.874</ele>
        <time>2015-06-18T09:24:45Z</time>
      </trkpt>
      <trkpt lat="36.907127" lon="-6.206924">
        <ele>4.897</ele>
        <time>2015-06-18T09:24:49Z</time>
      </trkpt>
      <trkpt lat="36.906938" lon="-6.207187">
        <ele>4.841</ele>
        <time>2015-06-18T09:24:56Z</time>
      </trkpt>
      <trkpt lat="36.906797" lon="-6.207391">
        <ele>4.879</ele>
        <time>2015-06-18T09:25:01Z</time>
      </trkpt>
      <trkpt lat="36.906712" lon="-6.207505">
        <ele>4.805</ele>
        <time>2015-06-18T09:25:04Z</time>
      </trkpt>
      <trkpt lat="36.906583" lon="-6.207691">
        <ele>4.825</ele>
        <time>2015-06-18T09:25:09Z</time>
      </trkpt>
      <trkpt lat="36.906522" lon="-6.207774">
        <ele>4.808</ele>
        <time>2015-06-18T09:25:11Z</time>
      </trkpt>
      <trkpt lat="36.906390" lon="-6.207934">
        <ele>4.818</ele>
        <time>2015-06-18T09:25:15Z</time>
      </trkpt>
      <trkpt lat="36.906223" lon="-6.208150">
        <ele>4.824</ele>
        <time>2015-06-18T09:25:20Z</time>
      </trkpt>
      <trkpt lat="36.906192" lon="-6.208199">
        <ele>4.820</ele>
        <time>2015-06-18T09:25:21Z</time>
      </trkpt>
      <trkpt lat="36.906092" lon="-6.208337">
        <ele>4.899</ele>
        <time>2015-06-18T09:25:24Z</time>
      </trkpt>
      <trkpt lat="36.905982" lon="-6.208475">
        <ele>4.882</ele>
        <time>2015-06-18T09:25:27Z</time>
      </trkpt>
      <trkpt lat="36.905872" lon="-6.208637">
        <ele>4.884</ele>
        <time>2015-06-18T09:25:30Z</time>
      </trkpt>
      <trkpt lat="36.905800" lon="-6.208739">
        <ele>4.877</ele>
        <time>2015-06-18T09:25:32Z</time>
      </trkpt>
      <trkpt lat="36.905604" lon="-6.209036">
        <ele>4.831</ele>
        <time>2015-06-18T09:25:38Z</time>
      </trkpt>
      <trkpt lat="36.905567" lon="-6.209082">
        <ele>4.848</ele>
        <time>2015-06-18T09:25:39Z</time>
      </trkpt>
      <trkpt lat="36.905422" lon="-6.209279">
        <ele>4.861</ele>
        <time>2015-06-18T09:25:43Z</time>
      </trkpt>
      <trkpt lat="36.905236" lon="-6.209529">
        <ele>4.817</ele>
        <time>2015-06-18T09:25:48Z</time>
      </trkpt>
      <trkpt lat="36.905194" lon="-6.209578">
        <ele>4.808</ele>
        <time>2015-06-18T09:25:49Z</time>
      </trkpt>
      <trkpt lat="36.905049" lon="-6.209793">
        <ele>4.875</ele>
        <time>2015-06-18T09:25:53Z</time>
      </trkpt>
      <trkpt lat="36.905010" lon="-6.209842">
        <ele>4.821</ele>
        <time>2015-06-18T09:25:54Z</time>
      </trkpt>
      <trkpt lat="36.904767" lon="-6.210210">
        <ele>4.867</ele>
        <time>2015-06-18T09:26:01Z</time>
      </trkpt>
      <trkpt lat="36.904529" lon="-6.210571">
        <ele>4.826</ele>
        <time>2015-06-18T09:26:08Z</time>
      </trkpt>
      <trkpt lat="36.904366" lon="-6.210826">
        <ele>4.889</ele>
        <time>2015-06-18T09:26:13Z</time>
      </trkpt>
      <trkpt lat="36.904329" lon="-6.210873">
        <ele>4.891</ele>
        <time>2015-06-18T09:26:14Z</time>
      </trkpt>
      <trkpt lat="36.904100" lon="-6.211171">
        <ele>4.874</ele>
        <time>2015-06-18T09:26:20Z</time>
      </trkpt>
      <trkpt lat="36.903866" lon="-6.211481">
        <ele>4.838</ele>
        <time>2015-06-18T09:26:26Z</time>
      </trkpt>
      <trkpt lat="36.903583" lon="-6.211895">
        <ele>4.855</ele>
        <time>2015-06-18T09:26:34Z</time>
      </trkpt>
      <trkpt lat="36.903338" lon="-6.212266">
        <ele>4.807</ele>
        <time>2015-06-18T09:26:42Z</time>
      </trkpt>
      <trkpt lat="36.903114" lon="-6.212627">
        <ele>4.817</ele>
        <time>2015-06-18T09:26:49Z</time>
      </trkpt>
      <trkpt lat="36.903085" lon="-6.212679">
        <ele>4.408</ele>
        <time>2015-06-18T09:26:50Z</time>
      </trkpt>
      <trkpt lat="36.903054" lon="-6.212734">
        <ele>3.856</ele>
        <time>2015-06-18T09:26:51Z</time>
      </trkpt>
      <trkpt lat="36.903022" lon="-6.212785">
        <ele>3.462</ele>
        <time>2015-06-18T09:26:52Z</time>
      </trkpt>
      <trkpt lat="36.902990" lon="-6.212838">
        <ele>3.888</ele>
        <time>2015-06-18T09:26:53Z</time>
      </trkpt>
      <trkpt lat="36.902956" lon="-6.212892">
        <ele>4.247</ele>
        <time>2015-06-18T09:26:54Z</time>
      </trkpt>
      <trkpt lat="36.902924" lon="-6.212944">
        <ele>4.620</ele>
        <time>2015-06-18T09:26:55Z</time>
      </trkpt>
      <trkpt lat="36.902893" lon="-6.212998">
        <ele>5.222</ele>
        <time>2015-06-18T09:26:56Z</time>
      </trkpt>
      <trkpt lat="36.902859" lon="-6.213050">
        <ele>5.685</ele>
        <time>2015-06-18T09:26:57Z</time>
      </trkpt>
      <trkpt lat="36.902697" lon="-6.213326">
        <ele>5.619</ele>
        <time>2015-06-18T09:27:02Z</time>
      </trkpt>
      <trkpt lat="36.902474" lon="-6.213726">
        <ele>5.638</ele>
        <time>2015-06-18T09:27:09Z</time>
      </trkpt>
      <trkpt lat="36.902450" lon="-6.213786">
        <ele>5.670</ele>
        <time>2015-06-18T09:27:10Z</time>
      </trkpt>
      <trkpt lat="36.902354" lon="-6.213938">
        <ele>5.617</ele>
        <time>2015-06-18T09:27:13Z</time>
      </trkpt>
      <trkpt lat="36.902172" lon="-6.214197">
        <ele>5.608</ele>
        <time>2015-06-18T09:27:18Z</time>
      </trkpt>
      <trkpt lat="36.902143" lon="-6.214251">
        <ele>5.694</ele>
        <time>2015-06-18T09:27:19Z</time>
      </trkpt>
      <trkpt lat="36.901997" lon="-6.214511">
        <ele>5.660</ele>
        <time>2015-06-18T09:27:24Z</time>
      </trkpt>
      <trkpt lat="36.901829" lon="-6.214763">
        <ele>5.676</ele>
        <time>2015-06-18T09:27:29Z</time>
      </trkpt>
      <trkpt lat="36.901803" lon="-6.214815">
        <ele>5.625</ele>
        <time>2015-06-18T09:27:30Z</time>
      </trkpt>
      <trkpt lat="36.901706" lon="-6.215021">
        <ele>5.628</ele>
        <time>2015-06-18T09:27:34Z</time>
      </trkpt>
      <trkpt lat="36.901661" lon="-6.215126">
        <ele>5.690</ele>
        <time>2015-06-18T09:27:36Z</time>
      </trkpt>
      <trkpt lat="36.901544" lon="-6.215329">
        <ele>5.663</ele>
        <time>2015-06-18T09:27:40Z</time>
      </trkpt>
      <trkpt lat="36.901489" lon="-6.215440">
        <ele>5.277</ele>
        <time>2015-06-18T09:27:42Z</time>
      </trkpt>
      <trkpt lat="36.901463" lon="-6.215496">
        <ele>4.884</ele>
        <time>2015-06-18T09:27:43Z</time>
      </trkpt>
      <trkpt lat="36.901430" lon="-6.215548">
        <ele>4.407</ele>
        <time>2015-06-18T09:27:44Z</time>
      </trkpt>
      <trkpt lat="36.901396" lon="-6.215604">
        <ele>4.617</ele>
        <time>2015-06-18T09:27:45Z</time>
      </trkpt>
      <trkpt lat="36.901365" lon="-6.215658">
        <ele>5.008</ele>
        <time>2015-06-18T09:27:46Z</time>
      </trkpt>
      <trkpt lat="36.901334" lon="-6.215711">
        <ele>5.219</ele>
        <time>2015-06-18T09:27:47Z</time>
      </trkpt>
      <trkpt lat="36.901303" lon="-6.215766">
        <ele>5.445</ele>
        <time>2015-06-18T09:27:48Z</time>
      </trkpt>
      <trkpt lat="36.901271" lon="-6.215823">
        <ele>5.861</ele>
        <time>2015-06-18T09:27:49Z</time>
      </trkpt>
      <trkpt lat="36.901051" lon="-6.216218">
        <ele>5.810</ele>
        <time>2015-06-18T09:27:56Z</time>
      </trkpt>
      <trkpt lat="36.900775" lon="-6.216717">
        <ele>5.833</ele>
        <time>2015-06-18T09:28:05Z</time>
      </trkpt>
      <trkpt lat="36.900615" lon="-6.217006">
        <ele>5.825</ele>
        <time>2015-06-18T09:28:10Z</time>
      </trkpt>
      <trkpt lat="36.900558" lon="-6.217129">
        <ele>5.818</ele>
        <time>2015-06-18T09:28:12Z</time>
      </trkpt>
      <trkpt lat="36.900332" lon="-6.217524">
        <ele>5.822</ele>
        <time>2015-06-18T09:28:19Z</time>
      </trkpt>
      <trkpt lat="36.900112" lon="-6.217947">
        <ele>5.841</ele>
        <time>2015-06-18T09:28:26Z</time>
      </trkpt>
      <trkpt lat="36.900081" lon="-6.218003">
        <ele>5.881</ele>
        <time>2015-06-18T09:28:27Z</time>
      </trkpt>
      <trkpt lat="36.899959" lon="-6.218235">
        <ele>5.809</ele>
        <time>2015-06-18T09:28:31Z</time>
      </trkpt>
      <trkpt lat="36.899857" lon="-6.218402">
        <ele>5.808</ele>
        <time>2015-06-18T09:28:34Z</time>
      </trkpt>
      <trkpt lat="36.899764" lon="-6.218580">
        <ele>5.815</ele>
        <time>2015-06-18T09:28:37Z</time>
      </trkpt>
      <trkpt lat="36.899619" lon="-6.218861">
        <ele>5.821</ele>
        <time>2015-06-18T09:28:42Z</time>
      </trkpt>
      <trkpt lat="36.899479" lon="-6.219078">
        <ele>5.837</ele>
        <time>2015-06-18T09:28:46Z</time>
      </trkpt>
      <trkpt lat="36.899415" lon="-6.219201">
        <ele>5.896</ele>
        <time>2015-06-18T09:28:48Z</time>
      </trkpt>
      <trkpt lat="36.899289" lon="-6.219461">
        <ele>5.849</ele>
        <time>2015-06-18T09:28:52Z</time>
      </trkpt>
      <trkpt lat="36.899200" lon="-6.219661">
        <ele>5.821</ele>
        <time>2015-06-18T09:28:55Z</time>
      </trkpt>
      <trkpt lat="36.899112" lon="-6.219858">
        <ele>5.844</ele>
        <time>2015-06-18T09:28:58Z</time>
      </trkpt>
      <trkpt lat="36.898865" lon="-6.220366">
        <ele>5.888</ele>
        <time>2015-06-18T09:29:06Z</time>
      </trkpt>
      <trkpt lat="36.898595" lon="-6.220915">
        <ele>5.818</ele>
        <time>2015-06-18T09:29:15Z</time>
      </trkpt>
      <trkpt lat="36.898353" lon="-6.221405">
        <ele>5.898</ele>
        <time>2015-06-18T09:29:23Z</time>
      </trkpt>
      <trkpt lat="36.898142" lon="-6.221828">
        <ele>5.817</ele>
        <time>2015-06-18T09:29:30Z</time>
      </trkpt>
      <trkpt lat="36.898075" lon="-6.221933">
        <ele>5.808</ele>
        <time>2015-06-18T09:29:32Z</time>
      </trkpt>
      <trkpt lat="36.897916" lon="-6.222304">
        <ele>5.812</ele>
        <time>2015-06-18T09:29:38Z</time>
      </trkpt>
      <trkpt lat="36.897756" lon="-6.222654">
        <ele>5.868</ele>
        <time>2015-06-18T09:29:44Z</time>
      </trkpt>
      <trkpt lat="36.897523" lon="-6.223137">
        <ele>5.824</ele>
        <time>2015-06-18T09:29:52Z</time>
      </trkpt>
      <trkpt lat="36.897495" lon="-6.223193">
        <ele>5.863</ele>
        <time>2015-06-18T09:29:53Z</time>
      </trkpt>
      <trkpt lat="36.897315" lon="-6.223552">
        <ele>5.836</ele>
        <time>2015-06-18T09:30:00Z</time>
      </trkpt>
      <trkpt lat="36.897286" lon="-6.223601">
        <ele>5.888</ele>
        <time>2015-06-18T09:30:01Z</time>
      </trkpt>
      <trkpt lat="36.897157" lon="-6.223872">
        <ele>5.841</ele>
        <time>2015-06-18T09:30:06Z</time>
      </trkpt>
      <trkpt lat="36.897035" lon="-6.224161">
        <ele>5.865</ele>
        <time>2015-06-18T09:30:11Z</time>
      </trkpt>
      <trkpt lat="36.896841" lon="-6.224647">
        <ele>5.876</ele>
        <time>2015-06-18T09:30:19Z</time>
      </trkpt>
      <trkpt lat="36.896669" lon="-6.225092">
        <ele>5.890</ele>
        <time>2015-06-18T09:30:26Z</time>
      </trkpt>
      <trkpt lat="36.896566" lon="-6.225304">
        <ele>5.819</ele>
        <time>2015-06-18T09:30:30Z</time>
      </trkpt>
      <trkpt lat="36.896522" lon="-6.225403">
        <ele>5.808</ele>
        <time>2015-06-18T09:30:32Z</time>
      </trkpt>
      <trkpt lat="36.896502" lon="-6.225451">
        <ele>5.428</ele>
        <time>2015-06-18T09:30:33Z</time>
      </trkpt>
      <trkpt lat="36.896482" lon="-6.225497">
        <ele>4.814</ele>
        <time>2015-06-18T09:30:34Z</time>
      </trkpt>
      <trkpt lat="36.896464" lon="-6.225544">
        <ele>4.480</ele>
        <time>2015-06-18T09:30:35Z</time>
      </trkpt>
      <trkpt lat="36.896449" lon="-6.225597">
        <ele>4.089</ele>
        <time>2015-06-18T09:30:36Z</time>
      </trkpt>
      <trkpt lat="36.896434" lon="-6.225645">
        <ele>3.452</ele>
        <time>2015-06-18T09:30:37Z</time>
      </trkpt>
      <trkpt lat="36.896395" lon="-6.225732">
        <ele>3.474</ele>
        <time>2015-06-18T09:30:39Z</time>
      </trkpt>
      <trkpt lat="36.896319" lon="-6.225947">
        <ele>3.497</ele>
        <time>2015-06-18T09:30:44Z</time>
      </trkpt>
      <trkpt lat="36.896262" lon="-6.226095">
        <ele>4.061</ele>
        <time>2015-06-18T09:30:48Z</time>
      </trkpt>
      <trkpt lat="36.896248" lon="-6.226130">
        <ele>4.693</ele>
        <time>2015-06-18T09:30:49Z</time>
      </trkpt>
      <trkpt lat="36.896236" lon="-6.226160">
        <ele>5.865</ele>
        <time>2015-06-18T09:30:50Z</time>
      </trkpt>
      <trkpt lat="36.896221" lon="-6.226192">
        <ele>6.421</ele>
        <time>2015-06-18T09:30:51Z</time>
      </trkpt>
      <trkpt lat="36.896169" lon="-6.226335">
        <ele>6.408</ele>
        <time>2015-06-18T09:30:55Z</time>
      </trkpt>
      <trkpt lat="36.896146" lon="-6.226406">
        <ele>6.430</ele>
        <time>2015-06-18T09:30:57Z</time>
      </trkpt>
      <trkpt lat="36.896067" lon="-6.226550">
        <ele>6.056</ele>
        <time>2015-06-18T09:31:01Z</time>
      </trkpt>
      <trkpt lat="36.896050" lon="-6.226597">
        <ele>5.662</ele>
        <time>2015-06-18T09:31:02Z</time>
      </trkpt>
      <trkpt lat="36.896031" lon="-6.226643">
        <ele>5.021</ele>
        <time>2015-06-18T09:31:03Z</time>
      </trkpt>
      <trkpt lat="36.896009" lon="-6.226691">
        <ele>4.634</ele>
        <time>2015-06-18T09:31:04Z</time>
      </trkpt>
      <trkpt lat="36.895987" lon="-6.226740">
        <ele>4.236</ele>
        <time>2015-06-18T09:31:05Z</time>
      </trkpt>
      <trkpt lat="36.895965" lon="-6.226793">
        <ele>4.219</ele>
        <time>2015-06-18T09:31:06Z</time>
      </trkpt>
      <trkpt lat="36.895926" lon="-6.226892">
        <ele>4.223</ele>
        <time>2015-06-18T09:31:08Z</time>
      </trkpt>
      <trkpt lat="36.895867" lon="-6.227040">
        <ele>4.291</ele>
        <time>2015-06-18T09:31:11Z</time>
      </trkpt>
      <trkpt lat="36.895816" lon="-6.227188">
        <ele>4.281</ele>
        <time>2015-06-18T09:31:14Z</time>
      </trkpt>
      <trkpt lat="36.895765" lon="-6.227343">
        <ele>4.219</ele>
        <time>2015-06-18T09:31:18Z</time>
      </trkpt>
      <trkpt lat="36.895768" lon="-6.227368">
        <ele>4.208</ele>
        <time>2015-06-18T09:31:19Z</time>
      </trkpt>
      <trkpt lat="36.895767" lon="-6.227418">
        <ele>4.290</ele>
        <time>2015-06-18T09:31:22Z</time>
      </trkpt>
      <trkpt lat="36.895766" lon="-6.227425">
        <ele>4.256</ele>
        <time>2015-06-18T09:31:26Z</time>
      </trkpt>
      <trkpt lat="36.895767" lon="-6.227429">
        <ele>4.282</ele>
        <time>2015-06-18T09:31:27Z</time>
      </trkpt>
      <trkpt lat="36.895768" lon="-6.227431">
        <ele>4.251</ele>
        <time>2015-06-18T09:31:30Z</time>
      </trkpt>
      <trkpt lat="36.895770" lon="-6.227432">
        <ele>4.234</ele>
        <time>2015-06-18T09:31:33Z</time>
      </trkpt>
      <trkpt lat="36.895770" lon="-6.227432">
        <ele>4.266</ele>
        <time>2015-06-18T09:31:51Z</time>
      </trkpt>
      <trkpt lat="36.895770" lon="-6.227432">
        <ele>4.299</ele>
        <time>2015-06-18T09:31:56Z</time>
      </trkpt>
      <trkpt lat="36.895770" lon="-6.227432">
        <ele>4.233</ele>
        <time>2015-06-18T09:32:01Z</time>
      </trkpt>
      <trkpt lat="36.895770" lon="-6.227432">
        <ele>4.257</ele>
        <time>2015-06-18T09:32:03Z</time>
      </trkpt>
      <trkpt lat="36.895770" lon="-6.227432">
        <ele>4.200</ele>
        <time>2015-06-18T09:32:05Z</time>
      </trkpt>
      <trkpt lat="36.895770" lon="-6.227432">
        <ele>4.220</ele>
        <time>2015-06-18T09:32:13Z</time>
      </trkpt>
      <trkpt lat="36.895770" lon="-6.227432">
        <ele>4.208</ele>
        <time>2015-06-18T09:32:20Z</time>
      </trkpt>
      <trkpt lat="36.895770" lon="-6.227432">
        <ele>4.266</ele>
        <time>2015-06-18T09:32:31Z</time>
      </trkpt>
      <trkpt lat="36.895770" lon="-6.227432">
        <ele>4.222</ele>
        <time>2015-06-18T09:32:39Z</time>
      </trkpt>
      <trkpt lat="36.895770" lon="-6.227432">
        <ele>4.278</ele>
        <time>2015-06-18T09:32:51Z</time>
      </trkpt>
      <trkpt lat="36.895769" lon="-6.227429">
        <ele>4.287</ele>
        <time>2015-06-18T09:33:03Z</time>
      </trkpt>
      <trkpt lat="36.895769" lon="-6.227429">
        <ele>4.270</ele>
        <time>2015-06-18T09:33:09Z</time>
      </trkpt>
      <trkpt lat="36.895769" lon="-6.227429">
        <ele>4.262</ele>
        <time>2015-06-18T09:33:28Z</time>
      </trkpt>
      <trkpt lat="36.895769" lon="-6.227429">
        <ele>4.225</ele>
        <time>2015-06-18T09:33:29Z</time>
      </trkpt>
      <trkpt lat="36.895769" lon="-6.227429">
        <ele>4.269</ele>
        <time>2015-06-18T09:33:31Z</time>
      </trkpt>
      <trkpt lat="36.895769" lon="-6.227427">
        <ele>4.213</ele>
        <time>2015-06-18T09:33:40Z</time>
      </trkpt>
      <trkpt lat="36.895769" lon="-6.227427">
        <ele>4.243</ele>
        <time>2015-06-18T09:33:46Z</time>
      </trkpt>
      <trkpt lat="36.895769" lon="-6.227427">
        <ele>4.207</ele>
        <time>2015-06-18T09:33:50Z</time>
      </trkpt>
      <trkpt lat="36.895769" lon="-6.227427">
        <ele>4.208</ele>
        <time>2015-06-18T09:34:04Z</time>
      </trkpt>
      <trkpt lat="36.895769" lon="-6.227427">
        <ele>4.242</ele>
        <time>2015-06-18T09:34:06Z</time>
      </trkpt>
      <trkpt lat="36.895771" lon="-6.227429">
        <ele>4.268</ele>
        <time>2015-06-18T09:34:23Z</time>
      </trkpt>
      <trkpt lat="36.895771" lon="-6.227429">
        <ele>4.244</ele>
        <time>2015-06-18T09:34:30Z</time>
      </trkpt>
      <trkpt lat="36.895771" lon="-6.227429">
        <ele>4.243</ele>
        <time>2015-06-18T09:34:40Z</time>
      </trkpt>
      <trkpt lat="36.895771" lon="-6.227429">
        <ele>4.236</ele>
        <time>2015-06-18T09:34:46Z</time>
      </trkpt>
      <trkpt lat="36.895771" lon="-6.227429">
        <ele>4.288</ele>
        <time>2015-06-18T09:34:51Z</time>
      </trkpt>
      <trkpt lat="36.895773" lon="-6.227427">
        <ele>4.221</ele>
        <time>2015-06-18T09:35:03Z</time>
      </trkpt>
      <trkpt lat="36.895773" lon="-6.227427">
        <ele>4.275</ele>
        <time>2015-06-18T09:35:07Z</time>
      </trkpt>
      <trkpt lat="36.895773" lon="-6.227427">
        <ele>4.294</ele>
        <time>2015-06-18T09:35:30Z</time>
      </trkpt>
      <trkpt lat="36.895774" lon="-6.227429">
        <ele>4.257</ele>
        <time>2015-06-18T09:35:46Z</time>
      </trkpt>
      <trkpt lat="36.895774" lon="-6.227429">
        <ele>4.222</ele>
        <time>2015-06-18T09:35:49Z</time>
      </trkpt>
      <trkpt lat="36.895774" lon="-6.227429">
        <ele>4.208</ele>
        <time>2015-06-18T09:35:56Z</time>
      </trkpt>
      <trkpt lat="36.895774" lon="-6.227429">
        <ele>4.250</ele>
        <time>2015-06-18T09:36:08Z</time>
      </trkpt>
      <trkpt lat="36.895774" lon="-6.227429">
        <ele>4.266</ele>
        <time>2015-06-18T09:36:09Z</time>
      </trkpt>
      <trkpt lat="36.895773" lon="-6.227429">
        <ele>4.232</ele>
        <time>2015-06-18T09:36:16Z</time>
      </trkpt>
      <trkpt lat="36.895773" lon="-6.227429">
        <ele>4.281</ele>
        <time>2015-06-18T09:36:23Z</time>
      </trkpt>
      <trkpt lat="36.895773" lon="-6.227429">
        <ele>4.244</ele>
        <time>2015-06-18T09:36:25Z</time>
      </trkpt>
      <trkpt lat="36.895771" lon="-6.227430">
        <ele>4.236</ele>
        <time>2015-06-18T09:36:26Z</time>
      </trkpt>
      <trkpt lat="36.895766" lon="-6.227441">
        <ele>4.239</ele>
        <time>2015-06-18T09:36:27Z</time>
      </trkpt>
      <trkpt lat="36.895738" lon="-6.227471">
        <ele>4.273</ele>
        <time>2015-06-18T09:36:30Z</time>
      </trkpt>
      <trkpt lat="36.895728" lon="-6.227484">
        <ele>4.228</ele>
        <time>2015-06-18T09:36:31Z</time>
      </trkpt>
      <trkpt lat="36.895660" lon="-6.227564">
        <ele>4.289</ele>
        <time>2015-06-18T09:36:35Z</time>
      </trkpt>
      <trkpt lat="36.895552" lon="-6.227836">
        <ele>4.217</ele>
        <time>2015-06-18T09:36:41Z</time>
      </trkpt>
      <trkpt lat="36.895430" lon="-6.228090">
        <ele>4.208</ele>
        <time>2015-06-18T09:36:46Z</time>
      </trkpt>
      <trkpt lat="36.895378" lon="-6.228200">
        <ele>4.293</ele>
        <time>2015-06-18T09:36:48Z</time>
      </trkpt>
      <trkpt lat="36.895314" lon="-6.228299">
        <ele>4.289</ele>
        <time>2015-06-18T09:36:50Z</time>
      </trkpt>
      <trkpt lat="36.895184" lon="-6.228483">
        <ele>4.265</ele>
        <time>2015-06-18T09:36:54Z</time>
      </trkpt>
      <trkpt lat="36.894925" lon="-6.228808">
        <ele>4.294</ele>
        <time>2015-06-18T09:37:01Z</time>
      </trkpt>
      <trkpt lat="36.894762" lon="-6.229000">
        <ele>4.217</ele>
        <time>2015-06-18T09:37:05Z</time>
      </trkpt>
      <trkpt lat="36.894692" lon="-6.229098">
        <ele>4.249</ele>
        <time>2015-06-18T09:37:07Z</time>
      </trkpt>
      <trkpt lat="36.894653" lon="-6.229142">
        <ele>4.282</ele>
        <time>2015-06-18T09:37:08Z</time>
      </trkpt>
      <trkpt lat="36.894583" lon="-6.229242">
        <ele>4.286</ele>
        <time>2015-06-18T09:37:10Z</time>
      </trkpt>
      <trkpt lat="36.894521" lon="-6.229355">
        <ele>4.283</ele>
        <time>2015-06-18T09:37:12Z</time>
      </trkpt>
      <trkpt lat="36.894215" lon="-6.229934">
        <ele>4.225</ele>
        <time>2015-06-18T09:37:22Z</time>
      </trkpt>
      <trkpt lat="36.894021" lon="-6.230441">
        <ele>4.217</ele>
        <time>2015-06-18T09:37:31Z</time>
      </trkpt>
      <trkpt lat="36.893876" lon="-6.230912">
        <ele>4.208</ele>
        <time>2015-06-18T09:37:38Z</time>
      </trkpt>
      <trkpt lat="36.893724" lon="-6.231383">
        <ele>4.289</ele>
        <time>2015-06-18T09:37:45Z</time>
      </trkpt>
      <trkpt lat="36.893575" lon="-6.231866">
        <ele>4.295</ele>
        <time>2015-06-18T09:37:52Z</time>
      </trkpt>
      <trkpt lat="36.893417" lon="-6.232365">
        <ele>4.211</ele>
        <time>2015-06-18T09:37:59Z</time>
      </trkpt>
      <trkpt lat="36.893250" lon="-6.232878">
        <ele>4.290</ele>
        <time>2015-06-18T09:38:06Z</time>
      </trkpt>
      <trkpt lat="36.893098" lon="-6.233366">
        <ele>4.263</ele>
        <time>2015-06-18T09:38:13Z</time>
      </trkpt>
      <trkpt lat="36.892908" lon="-6.233974">
        <ele>4.295</ele>
        <time>2015-06-18T09:38:22Z</time>
      </trkpt>
      <trkpt lat="36.892740" lon="-6.234525">
        <ele>4.228</ele>
        <time>2015-06-18T09:38:30Z</time>
      </trkpt>
      <trkpt lat="36.892580" lon="-6.235016">
        <ele>4.282</ele>
        <time>2015-06-18T09:38:37Z</time>
      </trkpt>
      <trkpt lat="36.892401" lon="-6.235603">
        <ele>4.248</ele>
        <time>2015-06-18T09:38:45Z</time>
      </trkpt>
      <trkpt lat="36.892238" lon="-6.236113">
        <ele>4.261</ele>
        <time>2015-06-18T09:38:52Z</time>
      </trkpt>
      <trkpt lat="36.892052" lon="-6.236699">
        <ele>4.217</ele>
        <time>2015-06-18T09:39:00Z</time>
      </trkpt>
      <trkpt lat="36.891861" lon="-6.237295">
        <ele>4.208</ele>
        <time>2015-06-18T09:39:08Z</time>
      </trkpt>
      <trkpt lat="36.891674" lon="-6.237887">
        <ele>4.235</ele>
        <time>2015-06-18T09:39:16Z</time>
      </trkpt>
      <trkpt lat="36.891598" lon="-6.238158">
        <ele>4.291</ele>
        <time>2015-06-18T09:39:20Z</time>
      </trkpt>
      <trkpt lat="36.891570" lon="-6.238223">
        <ele>4.267</ele>
        <time>2015-06-18T09:39:21Z</time>
      </trkpt>
      <trkpt lat="36.891539" lon="-6.238290">
        <ele>4.286</ele>
        <time>2015-06-18T09:39:22Z</time>
      </trkpt>
      <trkpt lat="36.891425" lon="-6.238637">
        <ele>4.229</ele>
        <time>2015-06-18T09:39:27Z</time>
      </trkpt>
      <trkpt lat="36.891232" lon="-6.239283">
        <ele>4.211</ele>
        <time>2015-06-18T09:39:36Z</time>
      </trkpt>
      <trkpt lat="36.891023" lon="-6.239930">
        <ele>4.254</ele>
        <time>2015-06-18T09:39:45Z</time>
      </trkpt>
      <trkpt lat="36.890975" lon="-6.240080">
        <ele>4.268</ele>
        <time>2015-06-18T09:39:47Z</time>
      </trkpt>
      <trkpt lat="36.890759" lon="-6.240740">
        <ele>4.276</ele>
        <time>2015-06-18T09:39:56Z</time>
      </trkpt>
      <trkpt lat="36.890595" lon="-6.241261">
        <ele>4.290</ele>
        <time>2015-06-18T09:40:03Z</time>
      </trkpt>
      <trkpt lat="36.890405" lon="-6.241866">
        <ele>4.219</ele>
        <time>2015-06-18T09:40:11Z</time>
      </trkpt>
      <trkpt lat="36.890189" lon="-6.242541">
        <ele>4.208</ele>
        <time>2015-06-18T09:40:20Z</time>
      </trkpt>
      <trkpt lat="36.890007" lon="-6.243106">
        <ele>4.288</ele>
        <time>2015-06-18T09:40:28Z</time>
      </trkpt>
      <trkpt lat="36.889823" lon="-6.243689">
        <ele>4.214</ele>
        <time>2015-06-18T09:40:37Z</time>
      </trkpt>
      <trkpt lat="36.889692" lon="-6.244099">
        <ele>4.230</ele>
        <time>2015-06-18T09:40:43Z</time>
      </trkpt>
      <trkpt lat="36.889588" lon="-6.244449">
        <ele>4.299</ele>
        <time>2015-06-18T09:40:48Z</time>
      </trkpt>
      <trkpt lat="36.889400" lon="-6.245028">
        <ele>4.272</ele>
        <time>2015-06-18T09:40:56Z</time>
      </trkpt>
      <trkpt lat="36.889211" lon="-6.245608">
        <ele>4.224</ele>
        <time>2015-06-18T09:41:04Z</time>
      </trkpt>
      <trkpt lat="36.889006" lon="-6.246265">
        <ele>4.237</ele>
        <time>2015-06-18T09:41:13Z</time>
      </trkpt>
      <trkpt lat="36.888844" lon="-6.246885">
        <ele>4.221</ele>
        <time>2015-06-18T09:41:21Z</time>
      </trkpt>
      <trkpt lat="36.888798" lon="-6.247121">
        <ele>4.247</ele>
        <time>2015-06-18T09:41:24Z</time>
      </trkpt>
      <trkpt lat="36.888743" lon="-6.247519">
        <ele>4.229</ele>
        <time>2015-06-18T09:41:29Z</time>
      </trkpt>
      <trkpt lat="36.888682" lon="-6.248145">
        <ele>4.221</ele>
        <time>2015-06-18T09:41:37Z</time>
      </trkpt>
      <trkpt lat="36.888679" lon="-6.248689">
        <ele>4.208</ele>
        <time>2015-06-18T09:41:44Z</time>
      </trkpt>
      <trkpt lat="36.888744" lon="-6.249322">
        <ele>4.255</ele>
        <time>2015-06-18T09:41:52Z</time>
      </trkpt>
      <trkpt lat="36.888855" lon="-6.249921">
        <ele>4.281</ele>
        <time>2015-06-18T09:42:00Z</time>
      </trkpt>
      <trkpt lat="36.888989" lon="-6.250437">
        <ele>4.217</ele>
        <time>2015-06-18T09:42:07Z</time>
      </trkpt>
      <trkpt lat="36.889138" lon="-6.251022">
        <ele>4.216</ele>
        <time>2015-06-18T09:42:15Z</time>
      </trkpt>
      <trkpt lat="36.889284" lon="-6.251630">
        <ele>4.259</ele>
        <time>2015-06-18T09:42:23Z</time>
      </trkpt>
      <trkpt lat="36.889436" lon="-6.252238">
        <ele>4.231</ele>
        <time>2015-06-18T09:42:31Z</time>
      </trkpt>
      <trkpt lat="36.889563" lon="-6.252775">
        <ele>4.274</ele>
        <time>2015-06-18T09:42:38Z</time>
      </trkpt>
      <trkpt lat="36.889716" lon="-6.253389">
        <ele>4.298</ele>
        <time>2015-06-18T09:42:46Z</time>
      </trkpt>
      <trkpt lat="36.889848" lon="-6.253905">
        <ele>4.255</ele>
        <time>2015-06-18T09:42:53Z</time>
      </trkpt>
      <trkpt lat="36.889957" lon="-6.254339">
        <ele>4.207</ele>
        <time>2015-06-18T09:42:59Z</time>
      </trkpt>
      <trkpt lat="36.890102" lon="-6.254931">
        <ele>4.217</ele>
        <time>2015-06-18T09:43:07Z</time>
      </trkpt>
      <trkpt lat="36.890179" lon="-6.255224">
        <ele>4.208</ele>
        <time>2015-06-18T09:43:11Z</time>
      </trkpt>
      <trkpt lat="36.890254" lon="-6.255527">
        <ele>4.296</ele>
        <time>2015-06-18T09:43:15Z</time>
      </trkpt>
      <trkpt lat="36.890418" lon="-6.256213">
        <ele>4.272</ele>
        <time>2015-06-18T09:43:24Z</time>
      </trkpt>
      <trkpt lat="36.890480" lon="-6.256438">
        <ele>4.288</ele>
        <time>2015-06-18T09:43:27Z</time>
      </trkpt>
      <trkpt lat="36.890535" lon="-6.256658">
        <ele>4.267</ele>
        <time>2015-06-18T09:43:30Z</time>
      </trkpt>
      <trkpt lat="36.890616" lon="-6.256988">
        <ele>4.260</ele>
        <time>2015-06-18T09:43:35Z</time>
      </trkpt>
      <trkpt lat="36.890663" lon="-6.257192">
        <ele>4.232</ele>
        <time>2015-06-18T09:43:38Z</time>
      </trkpt>
      <trkpt lat="36.890816" lon="-6.257789">
        <ele>4.275</ele>
        <time>2015-06-18T09:43:47Z</time>
      </trkpt>
      <trkpt lat="36.890949" lon="-6.258305">
        <ele>4.239</ele>
        <time>2015-06-18T09:43:55Z</time>
      </trkpt>
      <trkpt lat="36.891107" lon="-6.258899">
        <ele>4.237</ele>
        <time>2015-06-18T09:44:04Z</time>
      </trkpt>
      <trkpt lat="36.891217" lon="-6.259378">
        <ele>4.249</ele>
        <time>2015-06-18T09:44:11Z</time>
      </trkpt>
      <trkpt lat="36.891255" lon="-6.259890">
        <ele>4.213</ele>
        <time>2015-06-18T09:44:18Z</time>
      </trkpt>
      <trkpt lat="36.891246" lon="-6.260240">
        <ele>4.208</ele>
        <time>2015-06-18T09:44:23Z</time>
      </trkpt>
      <trkpt lat="36.891249" lon="-6.260368">
        <ele>4.254</ele>
        <time>2015-06-18T09:44:25Z</time>
      </trkpt>
      <trkpt lat="36.891266" lon="-6.260628">
        <ele>4.210</ele>
        <time>2015-06-18T09:44:29Z</time>
      </trkpt>
      <trkpt lat="36.891286" lon="-6.260758">
        <ele>4.286</ele>
        <time>2015-06-18T09:44:31Z</time>
      </trkpt>
      <trkpt lat="36.891396" lon="-6.261286">
        <ele>4.295</ele>
        <time>2015-06-18T09:44:39Z</time>
      </trkpt>
      <trkpt lat="36.891514" lon="-6.261757">
        <ele>4.288</ele>
        <time>2015-06-18T09:44:46Z</time>
      </trkpt>
      <trkpt lat="36.891634" lon="-6.262242">
        <ele>4.230</ele>
        <time>2015-06-18T09:44:53Z</time>
      </trkpt>
      <trkpt lat="36.891775" lon="-6.262831">
        <ele>4.283</ele>
        <time>2015-06-18T09:45:01Z</time>
      </trkpt>
      <trkpt lat="36.891923" lon="-6.263420">
        <ele>4.217</ele>
        <time>2015-06-18T09:45:09Z</time>
      </trkpt>
      <trkpt lat="36.892030" lon="-6.263856">
        <ele>4.259</ele>
        <time>2015-06-18T09:45:15Z</time>
      </trkpt>
      <trkpt lat="36.892083" lon="-6.264068">
        <ele>4.203</ele>
        <time>2015-06-18T09:45:18Z</time>
      </trkpt>
      <trkpt lat="36.892210" lon="-6.264580">
        <ele>4.223</ele>
        <time>2015-06-18T09:45:25Z</time>
      </trkpt>
      <trkpt lat="36.892295" lon="-6.264951">
        <ele>3.808</ele>
        <time>2015-06-18T09:45:30Z</time>
      </trkpt>
      <trkpt lat="36.892308" lon="-6.265028">
        <ele>3.256</ele>
        <time>2015-06-18T09:45:31Z</time>
      </trkpt>
      <trkpt lat="36.892328" lon="-6.265102">
        <ele>2.892</ele>
        <time>2015-06-18T09:45:32Z</time>
      </trkpt>
      <trkpt lat="36.892348" lon="-6.265176">
        <ele>2.238</ele>
        <time>2015-06-18T09:45:33Z</time>
      </trkpt>
      <trkpt lat="36.892368" lon="-6.265252">
        <ele>1.647</ele>
        <time>2015-06-18T09:45:34Z</time>
      </trkpt>
      <trkpt lat="36.892524" lon="-6.265852">
        <ele>1.620</ele>
        <time>2015-06-18T09:45:42Z</time>
      </trkpt>
      <trkpt lat="36.892658" lon="-6.266385">
        <ele>1.662</ele>
        <time>2015-06-18T09:45:49Z</time>
      </trkpt>
      <trkpt lat="36.892767" lon="-6.266862">
        <ele>1.615</ele>
        <time>2015-06-18T09:45:56Z</time>
      </trkpt>
      <trkpt lat="36.892890" lon="-6.267385">
        <ele>1.659</ele>
        <time>2015-06-18T09:46:04Z</time>
      </trkpt>
      <trkpt lat="36.892998" lon="-6.267772">
        <ele>1.627</ele>
        <time>2015-06-18T09:46:10Z</time>
      </trkpt>
      <trkpt lat="36.893027" lon="-6.267903">
        <ele>1.668</ele>
        <time>2015-06-18T09:46:12Z</time>
      </trkpt>
      <trkpt lat="36.893115" lon="-6.268262">
        <ele>1.614</ele>
        <time>2015-06-18T09:46:18Z</time>
      </trkpt>
      <trkpt lat="36.893194" lon="-6.268556">
        <ele>1.608</ele>
        <time>2015-06-18T09:46:24Z</time>
      </trkpt>
      <trkpt lat="36.893282" lon="-6.268909">
        <ele>1.663</ele>
        <time>2015-06-18T09:46:31Z</time>
      </trkpt>
      <trkpt lat="36.893361" lon="-6.269260">
        <ele>1.649</ele>
        <time>2015-06-18T09:46:37Z</time>
      </trkpt>
      <trkpt lat="36.893371" lon="-6.269322">
        <ele>1.685</ele>
        <time>2015-06-18T09:46:38Z</time>
      </trkpt>
      <trkpt lat="36.893469" lon="-6.269756">
        <ele>1.644</ele>
        <time>2015-06-18T09:46:45Z</time>
      </trkpt>
      <trkpt lat="36.893545" lon="-6.270069">
        <ele>1.657</ele>
        <time>2015-06-18T09:46:50Z</time>
      </trkpt>
      <trkpt lat="36.893609" lon="-6.270326">
        <ele>1.619</ele>
        <time>2015-06-18T09:46:54Z</time>
      </trkpt>
      <trkpt lat="36.893657" lon="-6.270513">
        <ele>1.612</ele>
        <time>2015-06-18T09:46:57Z</time>
      </trkpt>
      <trkpt lat="36.893707" lon="-6.270716">
        <ele>1.626</ele>
        <time>2015-06-18T09:47:00Z</time>
      </trkpt>
      <trkpt lat="36.893852" lon="-6.271289">
        <ele>1.618</ele>
        <time>2015-06-18T09:47:09Z</time>
      </trkpt>
      <trkpt lat="36.893888" lon="-6.271407">
        <ele>1.698</ele>
        <time>2015-06-18T09:47:11Z</time>
      </trkpt>
      <trkpt lat="36.893944" lon="-6.271651">
        <ele>1.617</ele>
        <time>2015-06-18T09:47:15Z</time>
      </trkpt>
      <trkpt lat="36.894095" lon="-6.272234">
        <ele>1.608</ele>
        <time>2015-06-18T09:47:24Z</time>
      </trkpt>
      <trkpt lat="36.894235" lon="-6.272831">
        <ele>1.612</ele>
        <time>2015-06-18T09:47:33Z</time>
      </trkpt>
      <trkpt lat="36.894365" lon="-6.273369">
        <ele>1.648</ele>
        <time>2015-06-18T09:47:41Z</time>
      </trkpt>
      <trkpt lat="36.894437" lon="-6.273634">
        <ele>1.654</ele>
        <time>2015-06-18T09:47:45Z</time>
      </trkpt>
      <trkpt lat="36.894479" lon="-6.273830">
        <ele>1.653</ele>
        <time>2015-06-18T09:47:48Z</time>
      </trkpt>
      <trkpt lat="36.894579" lon="-6.274214">
        <ele>1.676</ele>
        <time>2015-06-18T09:47:54Z</time>
      </trkpt>
      <trkpt lat="36.894714" lon="-6.274732">
        <ele>1.628</ele>
        <time>2015-06-18T09:48:02Z</time>
      </trkpt>
      <trkpt lat="36.894866" lon="-6.275352">
        <ele>1.641</ele>
        <time>2015-06-18T09:48:11Z</time>
      </trkpt>
      <trkpt lat="36.895004" lon="-6.275880">
        <ele>1.615</ele>
        <time>2015-06-18T09:48:19Z</time>
      </trkpt>
      <trkpt lat="36.895019" lon="-6.275947">
        <ele>1.669</ele>
        <time>2015-06-18T09:48:20Z</time>
      </trkpt>
      <trkpt lat="36.895126" lon="-6.276423">
        <ele>1.604</ele>
        <time>2015-06-18T09:48:27Z</time>
      </trkpt>
      <trkpt lat="36.895259" lon="-6.276956">
        <ele>1.624</ele>
        <time>2015-06-18T09:48:35Z</time>
      </trkpt>
      <trkpt lat="36.895380" lon="-6.277421">
        <ele>1.608</ele>
        <time>2015-06-18T09:48:43Z</time>
      </trkpt>
      <trkpt lat="36.895446" lon="-6.277700">
        <ele>1.617</ele>
        <time>2015-06-18T09:48:48Z</time>
      </trkpt>
      <trkpt lat="36.895463" lon="-6.277753">
        <ele>1.613</ele>
        <time>2015-06-18T09:48:49Z</time>
      </trkpt>
      <trkpt lat="36.895479" lon="-6.277808">
        <ele>1.699</ele>
        <time>2015-06-18T09:48:50Z</time>
      </trkpt>
      <trkpt lat="36.895560" lon="-6.278141">
        <ele>1.678</ele>
        <time>2015-06-18T09:48:56Z</time>
      </trkpt>
      <trkpt lat="36.895585" lon="-6.278256">
        <ele>1.661</ele>
        <time>2015-06-18T09:48:58Z</time>
      </trkpt>
      <trkpt lat="36.895715" lon="-6.278783">
        <ele>1.633</ele>
        <time>2015-06-18T09:49:07Z</time>
      </trkpt>
      <trkpt lat="36.895770" lon="-6.279029">
        <ele>1.656</ele>
        <time>2015-06-18T09:49:11Z</time>
      </trkpt>
      <trkpt lat="36.895847" lon="-6.279357">
        <ele>1.660</ele>
        <time>2015-06-18T09:49:16Z</time>
      </trkpt>
      <trkpt lat="36.895880" lon="-6.279476">
        <ele>1.641</ele>
        <time>2015-06-18T09:49:18Z</time>
      </trkpt>
      <trkpt lat="36.895934" lon="-6.279643">
        <ele>1.681</ele>
        <time>2015-06-18T09:49:21Z</time>
      </trkpt>
      <trkpt lat="36.896060" lon="-6.280182">
        <ele>1.609</ele>
        <time>2015-06-18T09:49:30Z</time>
      </trkpt>
      <trkpt lat="36.896159" lon="-6.280623">
        <ele>1.608</ele>
        <time>2015-06-18T09:49:37Z</time>
      </trkpt>
      <trkpt lat="36.896267" lon="-6.281049">
        <ele>1.655</ele>
        <time>2015-06-18T09:49:44Z</time>
      </trkpt>
      <trkpt lat="36.896388" lon="-6.281558">
        <ele>1.631</ele>
        <time>2015-06-18T09:49:52Z</time>
      </trkpt>
      <trkpt lat="36.896526" lon="-6.282146">
        <ele>1.697</ele>
        <time>2015-06-18T09:50:01Z</time>
      </trkpt>
      <trkpt lat="36.896611" lon="-6.282476">
        <ele>1.636</ele>
        <time>2015-06-18T09:50:06Z</time>
      </trkpt>
      <trkpt lat="36.896634" lon="-6.282542">
        <ele>1.679</ele>
        <time>2015-06-18T09:50:07Z</time>
      </trkpt>
      <trkpt lat="36.896734" lon="-6.282943">
        <ele>1.641</ele>
        <time>2015-06-18T09:50:13Z</time>
      </trkpt>
      <trkpt lat="36.896750" lon="-6.283016">
        <ele>1.654</ele>
        <time>2015-06-18T09:50:14Z</time>
      </trkpt>
      <trkpt lat="36.896873" lon="-6.283565">
        <ele>1.628</ele>
        <time>2015-06-18T09:50:22Z</time>
      </trkpt>
      <trkpt lat="36.897009" lon="-6.284104">
        <ele>1.677</ele>
        <time>2015-06-18T09:50:30Z</time>
      </trkpt>
      <trkpt lat="36.897133" lon="-6.284578">
        <ele>1.661</ele>
        <time>2015-06-18T09:50:37Z</time>
      </trkpt>
      <trkpt lat="36.897270" lon="-6.285109">
        <ele>1.627</ele>
        <time>2015-06-18T09:50:45Z</time>
      </trkpt>
      <trkpt lat="36.897283" lon="-6.285176">
        <ele>1.608</ele>
        <time>2015-06-18T09:50:46Z</time>
      </trkpt>
      <trkpt lat="36.897371" lon="-6.285578">
        <ele>1.618</ele>
        <time>2015-06-18T09:50:52Z</time>
      </trkpt>
      <trkpt lat="36.897412" lon="-6.285780">
        <ele>1.634</ele>
        <time>2015-06-18T09:50:55Z</time>
      </trkpt>
      <trkpt lat="36.897469" lon="-6.285975">
        <ele>1.670</ele>
        <time>2015-06-18T09:50:58Z</time>
      </trkpt>
      <trkpt lat="36.897641" lon="-6.286640">
        <ele>1.649</ele>
        <time>2015-06-18T09:51:08Z</time>
      </trkpt>
      <trkpt lat="36.897790" lon="-6.287258">
        <ele>1.672</ele>
        <time>2015-06-18T09:51:17Z</time>
      </trkpt>
      <trkpt lat="36.897943" lon="-6.287898">
        <ele>1.634</ele>
        <time>2015-06-18T09:51:26Z</time>
      </trkpt>
      <trkpt lat="36.898096" lon="-6.288523">
        <ele>1.617</ele>
        <time>2015-06-18T09:51:35Z</time>
      </trkpt>
      <trkpt lat="36.898182" lon="-6.288865">
        <ele>1.671</ele>
        <time>2015-06-18T09:51:40Z</time>
      </trkpt>
      <trkpt lat="36.898254" lon="-6.289132">
        <ele>1.663</ele>
        <time>2015-06-18T09:51:44Z</time>
      </trkpt>
      <trkpt lat="36.898328" lon="-6.289487">
        <ele>1.644</ele>
        <time>2015-06-18T09:51:50Z</time>
      </trkpt>
      <trkpt lat="36.898348" lon="-6.289548">
        <ele>1.618</ele>
        <time>2015-06-18T09:51:51Z</time>
      </trkpt>
      <trkpt lat="36.898459" lon="-6.289974">
        <ele>1.608</ele>
        <time>2015-06-18T09:51:58Z</time>
      </trkpt>
      <trkpt lat="36.898470" lon="-6.290043">
        <ele>1.657</ele>
        <time>2015-06-18T09:51:59Z</time>
      </trkpt>
      <trkpt lat="36.898572" lon="-6.290512">
        <ele>1.693</ele>
        <time>2015-06-18T09:52:06Z</time>
      </trkpt>
      <trkpt lat="36.898708" lon="-6.291033">
        <ele>1.619</ele>
        <time>2015-06-18T09:52:14Z</time>
      </trkpt>
      <trkpt lat="36.898810" lon="-6.291427">
        <ele>1.698</ele>
        <time>2015-06-18T09:52:20Z</time>
      </trkpt>
      <trkpt lat="36.898937" lon="-6.291961">
        <ele>1.641</ele>
        <time>2015-06-18T09:52:28Z</time>
      </trkpt>
      <trkpt lat="36.899043" lon="-6.292381">
        <ele>1.643</ele>
        <time>2015-06-18T09:52:35Z</time>
      </trkpt>
      <trkpt lat="36.899051" lon="-6.292439">
        <ele>1.656</ele>
        <time>2015-06-18T09:52:36Z</time>
      </trkpt>
      <trkpt lat="36.899091" lon="-6.292633">
        <ele>1.640</ele>
        <time>2015-06-18T09:52:40Z</time>
      </trkpt>
      <trkpt lat="36.899124" lon="-6.292904">
        <ele>1.645</ele>
        <time>2015-06-18T09:52:45Z</time>
      </trkpt>
      <trkpt lat="36.899141" lon="-6.293017">
        <ele>1.647</ele>
        <time>2015-06-18T09:52:47Z</time>
      </trkpt>
      <trkpt lat="36.899153" lon="-6.293134">
        <ele>1.611</ele>
        <time>2015-06-18T09:52:49Z</time>
      </trkpt>
      <trkpt lat="36.899154" lon="-6.293256">
        <ele>2.008</ele>
        <time>2015-06-18T09:52:51Z</time>
      </trkpt>
      <trkpt lat="36.899150" lon="-6.293315">
        <ele>2.695</ele>
        <time>2015-06-18T09:52:52Z</time>
      </trkpt>
      <trkpt lat="36.899144" lon="-6.293369">
        <ele>3.061</ele>
        <time>2015-06-18T09:52:53Z</time>
      </trkpt>
      <trkpt lat="36.899133" lon="-6.293423">
        <ele>3.417</ele>
        <time>2015-06-18T09:52:54Z</time>
      </trkpt>
      <trkpt lat="36.899130" lon="-6.293479">
        <ele>3.836</ele>
        <time>2015-06-18T09:52:55Z</time>
      </trkpt>
      <trkpt lat="36.899117" lon="-6.293592">
        <ele>3.839</ele>
        <time>2015-06-18T09:52:57Z</time>
      </trkpt>
      <trkpt lat="36.899088" lon="-6.293762">
        <ele>3.881</ele>
        <time>2015-06-18T09:53:00Z</time>
      </trkpt>
      <trkpt lat="36.899060" lon="-6.293872">
        <ele>3.894</ele>
        <time>2015-06-18T09:53:02Z</time>
      </trkpt>
      <trkpt lat="36.898988" lon="-6.294117">
        <ele>3.828</ele>
        <time>2015-06-18T09:53:07Z</time>
      </trkpt>
      <trkpt lat="36.898939" lon="-6.294243">
        <ele>3.833</ele>
        <time>2015-06-18T09:53:11Z</time>
      </trkpt>
      <trkpt lat="36.898928" lon="-6.294316">
        <ele>1.823</ele>
        <time>2015-06-18T09:53:40Z</time>
      </trkpt>
      <trkpt lat="36.898902" lon="-6.294400">
        <ele>1.815</ele>
        <time>2015-06-18T09:53:42Z</time>
      </trkpt>
      <trkpt lat="36.898807" lon="-6.294719">
        <ele>1.808</ele>
        <time>2015-06-18T09:53:49Z</time>
      </trkpt>
      <trkpt lat="36.898795" lon="-6.294770">
        <ele>1.894</ele>
        <time>2015-06-18T09:53:50Z</time>
      </trkpt>
      <trkpt lat="36.898690" lon="-6.294932">
        <ele>1.860</ele>
        <time>2015-06-18T09:53:54Z</time>
      </trkpt>
      <trkpt lat="36.898652" lon="-6.294966">
        <ele>1.846</ele>
        <time>2015-06-18T09:53:55Z</time>
      </trkpt>
      <trkpt lat="36.898511" lon="-6.294991">
        <ele>1.865</ele>
        <time>2015-06-18T09:53:58Z</time>
      </trkpt>
      <trkpt lat="36.898277" lon="-6.294913">
        <ele>1.828</ele>
        <time>2015-06-18T09:54:03Z</time>
      </trkpt>
      <trkpt lat="36.897988" lon="-6.294762">
        <ele>1.820</ele>
        <time>2015-06-18T09:54:09Z</time>
      </trkpt>
      <trkpt lat="36.897940" lon="-6.294736">
        <ele>1.813</ele>
        <time>2015-06-18T09:54:10Z</time>
      </trkpt>
      <trkpt lat="36.897586" lon="-6.294571">
        <ele>1.817</ele>
        <time>2015-06-18T09:54:17Z</time>
      </trkpt>
      <trkpt lat="36.897147" lon="-6.294346">
        <ele>1.845</ele>
        <time>2015-06-18T09:54:26Z</time>
      </trkpt>
      <trkpt lat="36.896938" lon="-6.294242">
        <ele>1.847</ele>
        <time>2015-06-18T09:54:31Z</time>
      </trkpt>
      <trkpt lat="36.896894" lon="-6.294221">
        <ele>1.811</ele>
        <time>2015-06-18T09:54:32Z</time>
      </trkpt>
      <trkpt lat="36.896528" lon="-6.294025">
        <ele>1.808</ele>
        <time>2015-06-18T09:54:40Z</time>
      </trkpt>
      <trkpt lat="36.896187" lon="-6.293855">
        <ele>1.875</ele>
        <time>2015-06-18T09:54:47Z</time>
      </trkpt>
      <trkpt lat="36.895847" lon="-6.293676">
        <ele>1.861</ele>
        <time>2015-06-18T09:54:54Z</time>
      </trkpt>
      <trkpt lat="36.895703" lon="-6.293598">
        <ele>2.247</ele>
        <time>2015-06-18T09:54:57Z</time>
      </trkpt>
      <trkpt lat="36.895649" lon="-6.293579">
        <ele>2.696</ele>
        <time>2015-06-18T09:54:58Z</time>
      </trkpt>
      <trkpt lat="36.895601" lon="-6.293557">
        <ele>3.019</ele>
        <time>2015-06-18T09:54:59Z</time>
      </trkpt>
      <trkpt lat="36.895553" lon="-6.293529">
        <ele>3.491</ele>
        <time>2015-06-18T09:55:00Z</time>
      </trkpt>
      <trkpt lat="36.895504" lon="-6.293502">
        <ele>3.884</ele>
        <time>2015-06-18T09:55:01Z</time>
      </trkpt>
      <trkpt lat="36.895454" lon="-6.293492">
        <ele>3.878</ele>
        <time>2015-06-18T09:55:02Z</time>
      </trkpt>
      <trkpt lat="36.895315" lon="-6.293440">
        <ele>3.816</ele>
        <time>2015-06-18T09:55:05Z</time>
      </trkpt>
      <trkpt lat="36.895139" lon="-6.293320">
        <ele>3.876</ele>
        <time>2015-06-18T09:55:09Z</time>
      </trkpt>
      <trkpt lat="36.894951" lon="-6.293219">
        <ele>3.813</ele>
        <time>2015-06-18T09:55:13Z</time>
      </trkpt>
      <trkpt lat="36.894803" lon="-6.293136">
        <ele>3.808</ele>
        <time>2015-06-18T09:55:16Z</time>
      </trkpt>
      <trkpt lat="36.894506" lon="-6.292995">
        <ele>3.852</ele>
        <time>2015-06-18T09:55:22Z</time>
      </trkpt>
      <trkpt lat="36.894288" lon="-6.292889">
        <ele>3.848</ele>
        <time>2015-06-18T09:55:27Z</time>
      </trkpt>
      <trkpt lat="36.894178" lon="-6.292831">
        <ele>3.834</ele>
        <time>2015-06-18T09:55:30Z</time>
      </trkpt>
      <trkpt lat="36.894026" lon="-6.292776">
        <ele>3.883</ele>
        <time>2015-06-18T09:55:35Z</time>
      </trkpt>
      <trkpt lat="36.894018" lon="-6.292770">
        <ele>3.826</ele>
        <time>2015-06-18T09:55:38Z</time>
      </trkpt>
      <trkpt lat="36.894018" lon="-6.292773">
        <ele>3.838</ele>
        <time>2015-06-18T09:55:44Z</time>
      </trkpt>
      <trkpt lat="36.894018" lon="-6.292773">
        <ele>3.851</ele>
        <time>2015-06-18T09:55:56Z</time>
      </trkpt>
      <trkpt lat="36.894018" lon="-6.292773">
        <ele>3.415</ele>
        <time>2015-06-18T09:55:57Z</time>
      </trkpt>
      <trkpt lat="36.894018" lon="-6.292773">
        <ele>3.043</ele>
        <time>2015-06-18T09:55:58Z</time>
      </trkpt>
      <trkpt lat="36.894018" lon="-6.292773">
        <ele>2.664</ele>
        <time>2015-06-18T09:55:59Z</time>
      </trkpt>
      <trkpt lat="36.894018" lon="-6.292773">
        <ele>1.810</ele>
        <time>2015-06-18T09:56:00Z</time>
      </trkpt>
      <trkpt lat="36.894002" lon="-6.292763">
        <ele>1.808</ele>
        <time>2015-06-18T09:56:08Z</time>
      </trkpt>
      <trkpt lat="36.893941" lon="-6.292732">
        <ele>1.845</ele>
        <time>2015-06-18T09:56:12Z</time>
      </trkpt>
      <trkpt lat="36.893907" lon="-6.292702">
        <ele>1.871</ele>
        <time>2015-06-18T09:56:14Z</time>
      </trkpt>
      <trkpt lat="36.893823" lon="-6.292650">
        <ele>1.857</ele>
        <time>2015-06-18T09:56:18Z</time>
      </trkpt>
      <trkpt lat="36.893739" lon="-6.292611">
        <ele>1.846</ele>
        <time>2015-06-18T09:56:21Z</time>
      </trkpt>
      <trkpt lat="36.893707" lon="-6.292594">
        <ele>1.849</ele>
        <time>2015-06-18T09:56:22Z</time>
      </trkpt>
      <trkpt lat="36.893539" lon="-6.292502">
        <ele>1.891</ele>
        <time>2015-06-18T09:56:27Z</time>
      </trkpt>
      <trkpt lat="36.893443" lon="-6.292460">
        <ele>1.864</ele>
        <time>2015-06-18T09:56:30Z</time>
      </trkpt>
      <trkpt lat="36.893207" lon="-6.292329">
        <ele>1.888</ele>
        <time>2015-06-18T09:56:38Z</time>
      </trkpt>
      <trkpt lat="36.892982" lon="-6.292220">
        <ele>1.867</ele>
        <time>2015-06-18T09:56:44Z</time>
      </trkpt>
      <trkpt lat="36.892899" lon="-6.292182">
        <ele>1.881</ele>
        <time>2015-06-18T09:56:46Z</time>
      </trkpt>
      <trkpt lat="36.892648" lon="-6.292056">
        <ele>1.819</ele>
        <time>2015-06-18T09:56:52Z</time>
      </trkpt>
      <trkpt lat="36.892305" lon="-6.291879">
        <ele>1.808</ele>
        <time>2015-06-18T09:57:00Z</time>
      </trkpt>
      <trkpt lat="36.891988" lon="-6.291710">
        <ele>1.817</ele>
        <time>2015-06-18T09:57:07Z</time>
      </trkpt>
      <trkpt lat="36.891555" lon="-6.291490">
        <ele>1.823</ele>
        <time>2015-06-18T09:57:16Z</time>
      </trkpt>
      <trkpt lat="36.891362" lon="-6.291379">
        <ele>1.879</ele>
        <time>2015-06-18T09:57:20Z</time>
      </trkpt>
      <trkpt lat="36.891271" lon="-6.291315">
        <ele>1.858</ele>
        <time>2015-06-18T09:57:22Z</time>
      </trkpt>
      <trkpt lat="36.891221" lon="-6.291292">
        <ele>1.861</ele>
        <time>2015-06-18T09:57:23Z</time>
      </trkpt>
      <trkpt lat="36.890978" lon="-6.291188">
        <ele>1.823</ele>
        <time>2015-06-18T09:57:28Z</time>
      </trkpt>
      <trkpt lat="36.890834" lon="-6.291114">
        <ele>1.816</ele>
        <time>2015-06-18T09:57:31Z</time>
      </trkpt>
      <trkpt lat="36.890588" lon="-6.290993">
        <ele>1.870</ele>
        <time>2015-06-18T09:57:36Z</time>
      </trkpt>
      <trkpt lat="36.890538" lon="-6.290972">
        <ele>1.897</ele>
        <time>2015-06-18T09:57:37Z</time>
      </trkpt>
      <trkpt lat="36.890389" lon="-6.290911">
        <ele>1.823</ele>
        <time>2015-06-18T09:57:40Z</time>
      </trkpt>
      <trkpt lat="36.890295" lon="-6.290849">
        <ele>1.825</ele>
        <time>2015-06-18T09:57:42Z</time>
      </trkpt>
      <trkpt lat="36.890194" lon="-6.290799">
        <ele>1.808</ele>
        <time>2015-06-18T09:57:44Z</time>
      </trkpt>
      <trkpt lat="36.889983" lon="-6.290697">
        <ele>1.870</ele>
        <time>2015-06-18T09:57:48Z</time>
      </trkpt>
      <trkpt lat="36.889716" lon="-6.290562">
        <ele>1.886</ele>
        <time>2015-06-18T09:57:53Z</time>
      </trkpt>
      <trkpt lat="36.889610" lon="-6.290503">
        <ele>1.892</ele>
        <time>2015-06-18T09:57:55Z</time>
      </trkpt>
      <trkpt lat="36.889175" lon="-6.290282">
        <ele>1.871</ele>
        <time>2015-06-18T09:58:03Z</time>
      </trkpt>
      <trkpt lat="36.888734" lon="-6.290055">
        <ele>1.844</ele>
        <time>2015-06-18T09:58:11Z</time>
      </trkpt>
      <trkpt lat="36.888231" lon="-6.289803">
        <ele>1.896</ele>
        <time>2015-06-18T09:58:20Z</time>
      </trkpt>
      <trkpt lat="36.888121" lon="-6.289749">
        <ele>1.859</ele>
        <time>2015-06-18T09:58:22Z</time>
      </trkpt>
      <trkpt lat="36.887684" lon="-6.289522">
        <ele>1.863</ele>
        <time>2015-06-18T09:58:30Z</time>
      </trkpt>
      <trkpt lat="36.887231" lon="-6.289300">
        <ele>1.824</ele>
        <time>2015-06-18T09:58:38Z</time>
      </trkpt>
      <trkpt lat="36.886722" lon="-6.289051">
        <ele>1.804</ele>
        <time>2015-06-18T09:58:47Z</time>
      </trkpt>
      <trkpt lat="36.886298" lon="-6.288833">
        <ele>1.814</ele>
        <time>2015-06-18T09:58:55Z</time>
      </trkpt>
      <trkpt lat="36.886149" lon="-6.288772">
        <ele>1.808</ele>
        <time>2015-06-18T09:58:58Z</time>
      </trkpt>
      <trkpt lat="36.886047" lon="-6.288726">
        <ele>1.853</ele>
        <time>2015-06-18T09:59:00Z</time>
      </trkpt>
      <trkpt lat="36.885946" lon="-6.288675">
        <ele>1.849</ele>
        <time>2015-06-18T09:59:02Z</time>
      </trkpt>
      <trkpt lat="36.885636" lon="-6.288506">
        <ele>1.815</ele>
        <time>2015-06-18T09:59:08Z</time>
      </trkpt>
      <trkpt lat="36.885434" lon="-6.288385">
        <ele>1.874</ele>
        <time>2015-06-18T09:59:12Z</time>
      </trkpt>
      <trkpt lat="36.885328" lon="-6.288331">
        <ele>1.827</ele>
        <time>2015-06-18T09:59:14Z</time>
      </trkpt>
      <trkpt lat="36.884864" lon="-6.288080">
        <ele>1.869</ele>
        <time>2015-06-18T09:59:23Z</time>
      </trkpt>
      <trkpt lat="36.884494" lon="-6.287900">
        <ele>1.892</ele>
        <time>2015-06-18T09:59:30Z</time>
      </trkpt>
      <trkpt lat="36.884293" lon="-6.287806">
        <ele>1.846</ele>
        <time>2015-06-18T09:59:34Z</time>
      </trkpt>
      <trkpt lat="36.884193" lon="-6.287762">
        <ele>1.877</ele>
        <time>2015-06-18T09:59:36Z</time>
      </trkpt>
      <trkpt lat="36.883746" lon="-6.287535">
        <ele>1.861</ele>
        <time>2015-06-18T09:59:45Z</time>
      </trkpt>
      <trkpt lat="36.883648" lon="-6.287480">
        <ele>1.827</ele>
        <time>2015-06-18T09:59:47Z</time>
      </trkpt>
      <trkpt lat="36.883441" lon="-6.287377">
        <ele>1.808</ele>
        <time>2015-06-18T09:59:51Z</time>
      </trkpt>
      <trkpt lat="36.882970" lon="-6.287136">
        <ele>1.858</ele>
        <time>2015-06-18T10:00:00Z</time>
      </trkpt>
      <trkpt lat="36.882554" lon="-6.286916">
        <ele>1.814</ele>
        <time>2015-06-18T10:00:08Z</time>
      </trkpt>
      <trkpt lat="36.882133" lon="-6.286700">
        <ele>1.850</ele>
        <time>2015-06-18T10:00:16Z</time>
      </trkpt>
      <trkpt lat="36.881674" lon="-6.286462">
        <ele>1.889</ele>
        <time>2015-06-18T10:00:25Z</time>
      </trkpt>
      <trkpt lat="36.881316" lon="-6.286276">
        <ele>1.862</ele>
        <time>2015-06-18T10:00:32Z</time>
      </trkpt>
      <trkpt lat="36.881106" lon="-6.286169">
        <ele>1.814</ele>
        <time>2015-06-18T10:00:36Z</time>
      </trkpt>
      <trkpt lat="36.881056" lon="-6.286136">
        <ele>2.217</ele>
        <time>2015-06-18T10:00:37Z</time>
      </trkpt>
      <trkpt lat="36.881005" lon="-6.286107">
        <ele>2.621</ele>
        <time>2015-06-18T10:00:38Z</time>
      </trkpt>
      <trkpt lat="36.880951" lon="-6.286080">
        <ele>3.087</ele>
        <time>2015-06-18T10:00:39Z</time>
      </trkpt>
      <trkpt lat="36.880897" lon="-6.286055">
        <ele>3.442</ele>
        <time>2015-06-18T10:00:40Z</time>
      </trkpt>
      <trkpt lat="36.880843" lon="-6.286030">
        <ele>3.826</ele>
        <time>2015-06-18T10:00:41Z</time>
      </trkpt>
      <trkpt lat="36.880521" lon="-6.285857">
        <ele>3.808</ele>
        <time>2015-06-18T10:00:47Z</time>
      </trkpt>
      <trkpt lat="36.880259" lon="-6.285754">
        <ele>3.849</ele>
        <time>2015-06-18T10:00:52Z</time>
      </trkpt>
      <trkpt lat="36.880207" lon="-6.285736">
        <ele>3.835</ele>
        <time>2015-06-18T10:00:53Z</time>
      </trkpt>
      <trkpt lat="36.879918" lon="-6.285595">
        <ele>3.851</ele>
        <time>2015-06-18T10:00:59Z</time>
      </trkpt>
      <trkpt lat="36.879874" lon="-6.285574">
        <ele>3.830</ele>
        <time>2015-06-18T10:01:00Z</time>
      </trkpt>
      <trkpt lat="36.879759" lon="-6.285504">
        <ele>3.813</ele>
        <time>2015-06-18T10:01:03Z</time>
      </trkpt>
      <trkpt lat="36.879618" lon="-6.285447">
        <ele>3.855</ele>
        <time>2015-06-18T10:01:07Z</time>
      </trkpt>
      <trkpt lat="36.879586" lon="-6.285441">
        <ele>3.838</ele>
        <time>2015-06-18T10:01:08Z</time>
      </trkpt>
      <trkpt lat="36.879493" lon="-6.285474">
        <ele>3.862</ele>
        <time>2015-06-18T10:01:12Z</time>
      </trkpt>
      <trkpt lat="36.879475" lon="-6.285568">
        <ele>3.849</ele>
        <time>2015-06-18T10:01:16Z</time>
      </trkpt>
      <trkpt lat="36.879470" lon="-6.285592">
        <ele>3.802</ele>
        <time>2015-06-18T10:01:17Z</time>
      </trkpt>
      <trkpt lat="36.879464" lon="-6.285613">
        <ele>3.822</ele>
        <time>2015-06-18T10:01:18Z</time>
      </trkpt>
      <trkpt lat="36.879451" lon="-6.285633">
        <ele>3.808</ele>
        <time>2015-06-18T10:01:19Z</time>
      </trkpt>
      <trkpt lat="36.879393" lon="-6.285675">
        <ele>3.885</ele>
        <time>2015-06-18T10:01:22Z</time>
      </trkpt>
      <trkpt lat="36.879359" lon="-6.285725">
        <ele>3.821</ele>
        <time>2015-06-18T10:01:24Z</time>
      </trkpt>
      <trkpt lat="36.879304" lon="-6.285795">
        <ele>3.837</ele>
        <time>2015-06-18T10:01:27Z</time>
      </trkpt>
      <trkpt lat="36.879170" lon="-6.285980">
        <ele>3.826</ele>
        <time>2015-06-18T10:01:34Z</time>
      </trkpt>
      <trkpt lat="36.879036" lon="-6.286162">
        <ele>3.869</ele>
        <time>2015-06-18T10:01:40Z</time>
      </trkpt>
      <trkpt lat="36.878925" lon="-6.286370">
        <ele>3.841</ele>
        <time>2015-06-18T10:01:46Z</time>
      </trkpt>
      <trkpt lat="36.878899" lon="-6.286411">
        <ele>3.874</ele>
        <time>2015-06-18T10:01:47Z</time>
      </trkpt>
      <trkpt lat="36.878788" lon="-6.286573">
        <ele>3.818</ele>
        <time>2015-06-18T10:01:51Z</time>
      </trkpt>
      <trkpt lat="36.878686" lon="-6.286736">
        <ele>3.854</ele>
        <time>2015-06-18T10:01:55Z</time>
      </trkpt>
      <trkpt lat="36.878635" lon="-6.286816">
        <ele>3.856</ele>
        <time>2015-06-18T10:01:57Z</time>
      </trkpt>
      <trkpt lat="36.878509" lon="-6.287020">
        <ele>3.811</ele>
        <time>2015-06-18T10:02:02Z</time>
      </trkpt>
      <trkpt lat="36.878415" lon="-6.287137">
        <ele>3.808</ele>
        <time>2015-06-18T10:02:05Z</time>
      </trkpt>
      <trkpt lat="36.878347" lon="-6.287209">
        <ele>3.856</ele>
        <time>2015-06-18T10:02:07Z</time>
      </trkpt>
      <trkpt lat="36.878286" lon="-6.287299">
        <ele>3.872</ele>
        <time>2015-06-18T10:02:09Z</time>
      </trkpt>
      <trkpt lat="36.878204" lon="-6.287404">
        <ele>3.868</ele>
        <time>2015-06-18T10:02:12Z</time>
      </trkpt>
      <trkpt lat="36.878028" lon="-6.287654">
        <ele>3.897</ele>
        <time>2015-06-18T10:02:19Z</time>
      </trkpt>
      <trkpt lat="36.877960" lon="-6.287731">
        <ele>3.820</ele>
        <time>2015-06-18T10:02:21Z</time>
      </trkpt>
      <trkpt lat="36.877886" lon="-6.287811">
        <ele>3.892</ele>
        <time>2015-06-18T10:02:24Z</time>
      </trkpt>
      <trkpt lat="36.877830" lon="-6.287890">
        <ele>3.865</ele>
        <time>2015-06-18T10:02:29Z</time>
      </trkpt>
      <trkpt lat="36.877407" lon="-6.288407">
        <ele>3.889</ele>
        <time>2015-06-18T10:27:05Z</time>
      </trkpt>
      <trkpt lat="36.877369" lon="-6.288418">
        <ele>3.841</ele>
        <time>2015-06-18T10:27:06Z</time>
      </trkpt>
      <trkpt lat="36.877189" lon="-6.288572">
        <ele>3.881</ele>
        <time>2015-06-18T10:27:11Z</time>
      </trkpt>
      <trkpt lat="36.877058" lon="-6.288762">
        <ele>3.809</ele>
        <time>2015-06-18T10:27:15Z</time>
      </trkpt>
      <trkpt lat="36.877025" lon="-6.288804">
        <ele>3.808</ele>
        <time>2015-06-18T10:27:16Z</time>
      </trkpt>
      <trkpt lat="36.876951" lon="-6.288881">
        <ele>3.855</ele>
        <time>2015-06-18T10:27:18Z</time>
      </trkpt>
      <trkpt lat="36.876811" lon="-6.289037">
        <ele>3.811</ele>
        <time>2015-06-18T10:27:22Z</time>
      </trkpt>
      <trkpt lat="36.876683" lon="-6.289129">
        <ele>3.847</ele>
        <time>2015-06-18T10:27:25Z</time>
      </trkpt>
      <trkpt lat="36.876611" lon="-6.289207">
        <ele>3.856</ele>
        <time>2015-06-18T10:27:27Z</time>
      </trkpt>
      <trkpt lat="36.876459" lon="-6.289354">
        <ele>3.819</ele>
        <time>2015-06-18T10:27:31Z</time>
      </trkpt>
      <trkpt lat="36.876346" lon="-6.289476">
        <ele>3.861</ele>
        <time>2015-06-18T10:27:34Z</time>
      </trkpt>
      <trkpt lat="36.876198" lon="-6.289635">
        <ele>3.864</ele>
        <time>2015-06-18T10:27:39Z</time>
      </trkpt>
      <trkpt lat="36.876167" lon="-6.289615">
        <ele>3.888</ele>
        <time>2015-06-18T10:27:40Z</time>
      </trkpt>
      <trkpt lat="36.876028" lon="-6.289564">
        <ele>3.854</ele>
        <time>2015-06-18T10:27:45Z</time>
      </trkpt>
      <trkpt lat="36.875954" lon="-6.289543">
        <ele>3.856</ele>
        <time>2015-06-18T10:27:50Z</time>
      </trkpt>
      <trkpt lat="36.875957" lon="-6.289545">
        <ele>3.811</ele>
        <time>2015-06-18T10:27:51Z</time>
      </trkpt>
      <trkpt lat="36.875926" lon="-6.289574">
        <ele>3.808</ele>
        <time>2015-06-18T10:27:54Z</time>
      </trkpt>
      <trkpt lat="36.875888" lon="-6.289613">
        <ele>3.816</ele>
        <time>2015-06-18T10:27:56Z</time>
      </trkpt>
      <trkpt lat="36.875827" lon="-6.289708">
        <ele>3.882</ele>
        <time>2015-06-18T10:27:59Z</time>
      </trkpt>
      <trkpt lat="36.875776" lon="-6.289805">
        <ele>3.888</ele>
        <time>2015-06-18T10:28:01Z</time>
      </trkpt>
      <trkpt lat="36.875744" lon="-6.289843">
        <ele>3.867</ele>
        <time>2015-06-18T10:28:02Z</time>
      </trkpt>
      <trkpt lat="36.875666" lon="-6.289914">
        <ele>3.830</ele>
        <time>2015-06-18T10:28:04Z</time>
      </trkpt>
      <trkpt lat="36.875586" lon="-6.289973">
        <ele>3.842</ele>
        <time>2015-06-18T10:28:06Z</time>
      </trkpt>
      <trkpt lat="36.875313" lon="-6.290211">
        <ele>3.825</ele>
        <time>2015-06-18T10:28:13Z</time>
      </trkpt>
      <trkpt lat="36.875286" lon="-6.290254">
        <ele>3.859</ele>
        <time>2015-06-18T10:28:14Z</time>
      </trkpt>
      <trkpt lat="36.875090" lon="-6.290527">
        <ele>3.865</ele>
        <time>2015-06-18T10:28:20Z</time>
      </trkpt>
      <trkpt lat="36.874860" lon="-6.290801">
        <ele>3.868</ele>
        <time>2015-06-18T10:28:26Z</time>
      </trkpt>
      <trkpt lat="36.874814" lon="-6.290836">
        <ele>3.814</ele>
        <time>2015-06-18T10:28:27Z</time>
      </trkpt>
      <trkpt lat="36.874582" lon="-6.291045">
        <ele>3.808</ele>
        <time>2015-06-18T10:28:33Z</time>
      </trkpt>
      <trkpt lat="36.874370" lon="-6.291262">
        <ele>3.897</ele>
        <time>2015-06-18T10:28:39Z</time>
      </trkpt>
      <trkpt lat="36.874082" lon="-6.291510">
        <ele>3.893</ele>
        <time>2015-06-18T10:28:46Z</time>
      </trkpt>
      <trkpt lat="36.873957" lon="-6.291631">
        <ele>3.899</ele>
        <time>2015-06-18T10:28:49Z</time>
      </trkpt>
      <trkpt lat="36.873879" lon="-6.291721">
        <ele>3.868</ele>
        <time>2015-06-18T10:28:51Z</time>
      </trkpt>
      <trkpt lat="36.873602" lon="-6.291994">
        <ele>3.811</ele>
        <time>2015-06-18T10:28:58Z</time>
      </trkpt>
      <trkpt lat="36.873472" lon="-6.292091">
        <ele>3.823</ele>
        <time>2015-06-18T10:29:01Z</time>
      </trkpt>
      <trkpt lat="36.873383" lon="-6.292137">
        <ele>3.856</ele>
        <time>2015-06-18T10:29:03Z</time>
      </trkpt>
      <trkpt lat="36.873162" lon="-6.292270">
        <ele>3.820</ele>
        <time>2015-06-18T10:29:08Z</time>
      </trkpt>
      <trkpt lat="36.873069" lon="-6.292309">
        <ele>3.843</ele>
        <time>2015-06-18T10:29:10Z</time>
      </trkpt>
      <trkpt lat="36.873020" lon="-6.292318">
        <ele>3.864</ele>
        <time>2015-06-18T10:29:11Z</time>
      </trkpt>
      <trkpt lat="36.872934" lon="-6.292355">
        <ele>3.810</ele>
        <time>2015-06-18T10:29:13Z</time>
      </trkpt>
      <trkpt lat="36.872899" lon="-6.292392">
        <ele>3.808</ele>
        <time>2015-06-18T10:29:14Z</time>
      </trkpt>
      <trkpt lat="36.872719" lon="-6.292579">
        <ele>3.875</ele>
        <time>2015-06-18T10:29:19Z</time>
      </trkpt>
      <trkpt lat="36.872558" lon="-6.292664">
        <ele>3.831</ele>
        <time>2015-06-18T10:29:24Z</time>
      </trkpt>
      <trkpt lat="36.872426" lon="-6.292807">
        <ele>3.887</ele>
        <time>2015-06-18T10:29:29Z</time>
      </trkpt>
      <trkpt lat="36.872263" lon="-6.292967">
        <ele>3.836</ele>
        <time>2015-06-18T10:29:35Z</time>
      </trkpt>
      <trkpt lat="36.872174" lon="-6.293055">
        <ele>3.849</ele>
        <time>2015-06-18T10:29:38Z</time>
      </trkpt>
      <trkpt lat="36.872142" lon="-6.293092">
        <ele>3.851</ele>
        <time>2015-06-18T10:29:39Z</time>
      </trkpt>
      <trkpt lat="36.871972" lon="-6.293329">
        <ele>3.814</ele>
        <time>2015-06-18T10:29:44Z</time>
      </trkpt>
      <trkpt lat="36.871781" lon="-6.293523">
        <ele>3.898</ele>
        <time>2015-06-18T10:29:49Z</time>
      </trkpt>
      <trkpt lat="36.871570" lon="-6.293710">
        <ele>3.854</ele>
        <time>2015-06-18T10:29:54Z</time>
      </trkpt>
      <trkpt lat="36.871473" lon="-6.293781">
        <ele>3.856</ele>
        <time>2015-06-18T10:29:56Z</time>
      </trkpt>
      <trkpt lat="36.871356" lon="-6.293893">
        <ele>3.811</ele>
        <time>2015-06-18T10:29:59Z</time>
      </trkpt>
      <trkpt lat="36.871137" lon="-6.294099">
        <ele>3.808</ele>
        <time>2015-06-18T10:30:05Z</time>
      </trkpt>
      <trkpt lat="36.871106" lon="-6.294136">
        <ele>3.866</ele>
        <time>2015-06-18T10:30:06Z</time>
      </trkpt>
      <trkpt lat="36.870986" lon="-6.294244">
        <ele>3.872</ele>
        <time>2015-06-18T10:30:10Z</time>
      </trkpt>
      <trkpt lat="36.870955" lon="-6.294264">
        <ele>3.888</ele>
        <time>2015-06-18T10:30:11Z</time>
      </trkpt>
      <trkpt lat="36.870829" lon="-6.294357">
        <ele>3.837</ele>
        <time>2015-06-18T10:30:16Z</time>
      </trkpt>
      <trkpt lat="36.870686" lon="-6.294438">
        <ele>3.810</ele>
        <time>2015-06-18T10:30:21Z</time>
      </trkpt>
      <trkpt lat="36.870498" lon="-6.294576">
        <ele>3.892</ele>
        <time>2015-06-18T10:30:27Z</time>
      </trkpt>
      <trkpt lat="36.870390" lon="-6.294665">
        <ele>3.845</ele>
        <time>2015-06-18T10:30:31Z</time>
      </trkpt>
      <trkpt lat="36.870389" lon="-6.294671">
        <ele>3.849</ele>
        <time>2015-06-18T10:30:33Z</time>
      </trkpt>
      <trkpt lat="36.870388" lon="-6.294671">
        <ele>3.834</ele>
        <time>2015-06-18T10:30:39Z</time>
      </trkpt>
      <trkpt lat="36.870388" lon="-6.294671">
        <ele>3.855</ele>
        <time>2015-06-18T10:30:44Z</time>
      </trkpt>
      <trkpt lat="36.870359" lon="-6.294678">
        <ele>3.810</ele>
        <time>2015-06-18T10:30:47Z</time>
      </trkpt>
      <trkpt lat="36.870318" lon="-6.294697">
        <ele>3.808</ele>
        <time>2015-06-18T10:30:49Z</time>
      </trkpt>
      <trkpt lat="36.870266" lon="-6.294728">
        <ele>3.884</ele>
        <time>2015-06-18T10:30:51Z</time>
      </trkpt>
      <trkpt lat="36.870163" lon="-6.294775">
        <ele>3.840</ele>
        <time>2015-06-18T10:30:54Z</time>
      </trkpt>
      <trkpt lat="36.870082" lon="-6.294809">
        <ele>3.846</ele>
        <time>2015-06-18T10:30:57Z</time>
      </trkpt>
      <trkpt lat="36.870045" lon="-6.294810">
        <ele>3.875</ele>
        <time>2015-06-18T10:30:58Z</time>
      </trkpt>
      <trkpt lat="36.869909" lon="-6.294831">
        <ele>3.818</ele>
        <time>2015-06-18T10:31:02Z</time>
      </trkpt>
      <trkpt lat="36.869851" lon="-6.294862">
        <ele>3.830</ele>
        <time>2015-06-18T10:31:04Z</time>
      </trkpt>
      <trkpt lat="36.869707" lon="-6.294932">
        <ele>3.833</ele>
        <time>2015-06-18T10:31:09Z</time>
      </trkpt>
      <trkpt lat="36.869667" lon="-6.294930">
        <ele>3.847</ele>
        <time>2015-06-18T10:31:13Z</time>
      </trkpt>
      <trkpt lat="36.869666" lon="-6.294933">
        <ele>3.845</ele>
        <time>2015-06-18T10:31:16Z</time>
      </trkpt>
      <trkpt lat="36.869666" lon="-6.294933">
        <ele>3.847</ele>
        <time>2015-06-18T10:31:18Z</time>
      </trkpt>
      <trkpt lat="36.869666" lon="-6.294933">
        <ele>3.811</ele>
        <time>2015-06-18T10:31:32Z</time>
      </trkpt>
      <trkpt lat="36.869666" lon="-6.294933">
        <ele>3.808</ele>
        <time>2015-06-18T10:31:35Z</time>
      </trkpt>
      <trkpt lat="36.869666" lon="-6.294938">
        <ele>3.865</ele>
        <time>2015-06-18T10:31:41Z</time>
      </trkpt>
      <trkpt lat="36.869665" lon="-6.294935">
        <ele>3.811</ele>
        <time>2015-06-18T10:31:50Z</time>
      </trkpt>
      <trkpt lat="36.869665" lon="-6.294935">
        <ele>3.837</ele>
        <time>2015-06-18T10:31:53Z</time>
      </trkpt>
      <trkpt lat="36.869665" lon="-6.294935">
        <ele>3.816</ele>
        <time>2015-06-18T10:31:57Z</time>
      </trkpt>
      <trkpt lat="36.869665" lon="-6.294935">
        <ele>3.819</ele>
        <time>2015-06-18T10:32:02Z</time>
      </trkpt>
      <trkpt lat="36.869665" lon="-6.294935">
        <ele>3.841</ele>
        <time>2015-06-18T10:32:08Z</time>
      </trkpt>
      <trkpt lat="36.869645" lon="-6.294942">
        <ele>3.824</ele>
        <time>2015-06-18T10:32:16Z</time>
      </trkpt>
      <trkpt lat="36.869635" lon="-6.294948">
        <ele>3.838</ele>
        <time>2015-06-18T10:32:26Z</time>
      </trkpt>
      <trkpt lat="36.869615" lon="-6.294972">
        <ele>3.848</ele>
        <time>2015-06-18T10:32:29Z</time>
      </trkpt>
      <trkpt lat="36.869582" lon="-6.295000">
        <ele>3.861</ele>
        <time>2015-06-18T10:32:32Z</time>
      </trkpt>
      <trkpt lat="36.869475" lon="-6.295045">
        <ele>3.817</ele>
        <time>2015-06-18T10:32:37Z</time>
      </trkpt>
      <trkpt lat="36.869306" lon="-6.295066">
        <ele>3.808</ele>
        <time>2015-06-18T10:32:42Z</time>
      </trkpt>
      <trkpt lat="36.869065" lon="-6.295199">
        <ele>3.895</ele>
        <time>2015-06-18T10:32:48Z</time>
      </trkpt>
      <trkpt lat="36.868977" lon="-6.295241">
        <ele>3.881</ele>
        <time>2015-06-18T10:32:50Z</time>
      </trkpt>
      <trkpt lat="36.868841" lon="-6.295240">
        <ele>3.867</ele>
        <time>2015-06-18T10:32:53Z</time>
      </trkpt>
      <trkpt lat="36.868796" lon="-6.295232">
        <ele>3.816</ele>
        <time>2015-06-18T10:32:54Z</time>
      </trkpt>
      <trkpt lat="36.868652" lon="-6.295232">
        <ele>3.819</ele>
        <time>2015-06-18T10:32:57Z</time>
      </trkpt>
      <trkpt lat="36.868607" lon="-6.295262">
        <ele>3.851</ele>
        <time>2015-06-18T10:32:58Z</time>
      </trkpt>
      <trkpt lat="36.868436" lon="-6.295387">
        <ele>3.884</ele>
        <time>2015-06-18T10:33:02Z</time>
      </trkpt>
      <trkpt lat="36.868356" lon="-6.295443">
        <ele>3.818</ele>
        <time>2015-06-18T10:33:04Z</time>
      </trkpt>
      <trkpt lat="36.868268" lon="-6.295500">
        <ele>3.879</ele>
        <time>2015-06-18T10:33:06Z</time>
      </trkpt>
      <trkpt lat="36.868121" lon="-6.295559">
        <ele>3.805</ele>
        <time>2015-06-18T10:33:09Z</time>
      </trkpt>
      <trkpt lat="36.867943" lon="-6.295640">
        <ele>3.825</ele>
        <time>2015-06-18T10:33:13Z</time>
      </trkpt>
      <trkpt lat="36.867900" lon="-6.295657">
        <ele>3.808</ele>
        <time>2015-06-18T10:33:14Z</time>
      </trkpt>
      <trkpt lat="36.867856" lon="-6.295671">
        <ele>3.828</ele>
        <time>2015-06-18T10:33:15Z</time>
      </trkpt>
      <trkpt lat="36.867538" lon="-6.295787">
        <ele>3.894</ele>
        <time>2015-06-18T10:33:22Z</time>
      </trkpt>
      <trkpt lat="36.867313" lon="-6.295874">
        <ele>3.820</ele>
        <time>2015-06-18T10:33:27Z</time>
      </trkpt>
      <trkpt lat="36.867270" lon="-6.295888">
        <ele>3.859</ele>
        <time>2015-06-18T10:33:28Z</time>
      </trkpt>
      <trkpt lat="36.867038" lon="-6.295961">
        <ele>3.872</ele>
        <time>2015-06-18T10:33:34Z</time>
      </trkpt>
      <trkpt lat="36.866998" lon="-6.295976">
        <ele>3.884</ele>
        <time>2015-06-18T10:33:35Z</time>
      </trkpt>
      <trkpt lat="36.866881" lon="-6.296039">
        <ele>3.847</ele>
        <time>2015-06-18T10:33:38Z</time>
      </trkpt>
      <trkpt lat="36.866841" lon="-6.296069">
        <ele>3.881</ele>
        <time>2015-06-18T10:33:39Z</time>
      </trkpt>
      <trkpt lat="36.866708" lon="-6.296192">
        <ele>3.868</ele>
        <time>2015-06-18T10:33:43Z</time>
      </trkpt>
      <trkpt lat="36.866619" lon="-6.296284">
        <ele>3.842</ele>
        <time>2015-06-18T10:33:46Z</time>
      </trkpt>
      <trkpt lat="36.866534" lon="-6.296344">
        <ele>3.826</ele>
        <time>2015-06-18T10:33:48Z</time>
      </trkpt>
      <trkpt lat="36.866333" lon="-6.296413">
        <ele>3.808</ele>
        <time>2015-06-18T10:33:52Z</time>
      </trkpt>
      <trkpt lat="36.866232" lon="-6.296443">
        <ele>3.817</ele>
        <time>2015-06-18T10:33:54Z</time>
      </trkpt>
      <trkpt lat="36.866082" lon="-6.296534">
        <ele>3.853</ele>
        <time>2015-06-18T10:33:57Z</time>
      </trkpt>
      <trkpt lat="36.865753" lon="-6.296797">
        <ele>3.829</ele>
        <time>2015-06-18T10:34:04Z</time>
      </trkpt>
      <trkpt lat="36.865706" lon="-6.296829">
        <ele>4.228</ele>
        <time>2015-06-18T10:34:05Z</time>
      </trkpt>
      <trkpt lat="36.865657" lon="-6.296863">
        <ele>4.621</ele>
        <time>2015-06-18T10:34:06Z</time>
      </trkpt>
      <trkpt lat="36.865611" lon="-6.296890">
        <ele>5.053</ele>
        <time>2015-06-18T10:34:07Z</time>
      </trkpt>
      <trkpt lat="36.865568" lon="-6.296916">
        <ele>5.446</ele>
        <time>2015-06-18T10:34:08Z</time>
      </trkpt>
      <trkpt lat="36.865519" lon="-6.296938">
        <ele>6.070</ele>
        <time>2015-06-18T10:34:09Z</time>
      </trkpt>
      <trkpt lat="36.865422" lon="-6.296971">
        <ele>6.059</ele>
        <time>2015-06-18T10:34:11Z</time>
      </trkpt>
      <trkpt lat="36.865267" lon="-6.296981">
        <ele>6.003</ele>
        <time>2015-06-18T10:34:14Z</time>
      </trkpt>
      <trkpt lat="36.864943" lon="-6.297050">
        <ele>6.023</ele>
        <time>2015-06-18T10:34:20Z</time>
      </trkpt>
      <trkpt lat="36.864855" lon="-6.297085">
        <ele>6.008</ele>
        <time>2015-06-18T10:34:22Z</time>
      </trkpt>
      <trkpt lat="36.864759" lon="-6.297143">
        <ele>6.076</ele>
        <time>2015-06-18T10:34:24Z</time>
      </trkpt>
      <trkpt lat="36.864706" lon="-6.297174">
        <ele>6.062</ele>
        <time>2015-06-18T10:34:25Z</time>
      </trkpt>
      <trkpt lat="36.864453" lon="-6.297340">
        <ele>6.018</ele>
        <time>2015-06-18T10:34:30Z</time>
      </trkpt>
      <trkpt lat="36.864404" lon="-6.297365">
        <ele>6.077</ele>
        <time>2015-06-18T10:34:31Z</time>
      </trkpt>
      <trkpt lat="36.864133" lon="-6.297511">
        <ele>6.070</ele>
        <time>2015-06-18T10:34:37Z</time>
      </trkpt>
      <trkpt lat="36.864092" lon="-6.297540">
        <ele>6.092</ele>
        <time>2015-06-18T10:34:38Z</time>
      </trkpt>
      <trkpt lat="36.864008" lon="-6.297600">
        <ele>6.015</ele>
        <time>2015-06-18T10:34:40Z</time>
      </trkpt>
      <trkpt lat="36.863796" lon="-6.297747">
        <ele>6.069</ele>
        <time>2015-06-18T10:34:45Z</time>
      </trkpt>
      <trkpt lat="36.863720" lon="-6.297826">
        <ele>6.015</ele>
        <time>2015-06-18T10:34:47Z</time>
      </trkpt>
      <trkpt lat="36.863594" lon="-6.297952">
        <ele>6.065</ele>
        <time>2015-06-18T10:34:50Z</time>
      </trkpt>
      <trkpt lat="36.863496" lon="-6.298024">
        <ele>6.011</ele>
        <time>2015-06-18T10:34:52Z</time>
      </trkpt>
      <trkpt lat="36.863404" lon="-6.298099">
        <ele>6.008</ele>
        <time>2015-06-18T10:34:54Z</time>
      </trkpt>
      <trkpt lat="36.863284" lon="-6.298237">
        <ele>6.012</ele>
        <time>2015-06-18T10:34:57Z</time>
      </trkpt>
      <trkpt lat="36.863017" lon="-6.298534">
        <ele>6.028</ele>
        <time>2015-06-18T10:35:04Z</time>
      </trkpt>
      <trkpt lat="36.862685" lon="-6.298832">
        <ele>6.094</ele>
        <time>2015-06-18T10:35:12Z</time>
      </trkpt>
      <trkpt lat="36.862532" lon="-6.298948">
        <ele>6.083</ele>
        <time>2015-06-18T10:35:16Z</time>
      </trkpt>
      <trkpt lat="36.862443" lon="-6.298981">
        <ele>6.086</ele>
        <time>2015-06-18T10:35:18Z</time>
      </trkpt>
      <trkpt lat="36.862362" lon="-6.299027">
        <ele>6.048</ele>
        <time>2015-06-18T10:35:20Z</time>
      </trkpt>
      <trkpt lat="36.862297" lon="-6.299100">
        <ele>6.021</ele>
        <time>2015-06-18T10:35:22Z</time>
      </trkpt>
      <trkpt lat="36.862139" lon="-6.299240">
        <ele>6.035</ele>
        <time>2015-06-18T10:35:26Z</time>
      </trkpt>
      <trkpt lat="36.862092" lon="-6.299269">
        <ele>6.084</ele>
        <time>2015-06-18T10:35:27Z</time>
      </trkpt>
      <trkpt lat="36.862005" lon="-6.299332">
        <ele>6.007</ele>
        <time>2015-06-18T10:35:29Z</time>
      </trkpt>
      <trkpt lat="36.861923" lon="-6.299411">
        <ele>6.017</ele>
        <time>2015-06-18T10:35:31Z</time>
      </trkpt>
      <trkpt lat="36.861885" lon="-6.299454">
        <ele>6.008</ele>
        <time>2015-06-18T10:35:32Z</time>
      </trkpt>
      <trkpt lat="36.861602" lon="-6.299722">
        <ele>6.029</ele>
        <time>2015-06-18T10:35:39Z</time>
      </trkpt>
      <trkpt lat="36.861309" lon="-6.299991">
        <ele>6.065</ele>
        <time>2015-06-18T10:35:46Z</time>
      </trkpt>
      <trkpt lat="36.861191" lon="-6.300216">
        <ele>6.041</ele>
        <time>2015-06-18T10:35:50Z</time>
      </trkpt>
      <trkpt lat="36.861156" lon="-6.300269">
        <ele>6.030</ele>
        <time>2015-06-18T10:35:51Z</time>
      </trkpt>
      <trkpt lat="36.861066" lon="-6.300356">
        <ele>6.013</ele>
        <time>2015-06-18T10:35:53Z</time>
      </trkpt>
      <trkpt lat="36.860825" lon="-6.300619">
        <ele>6.015</ele>
        <time>2015-06-18T10:35:59Z</time>
      </trkpt>
      <trkpt lat="36.860523" lon="-6.300926">
        <ele>6.018</ele>
        <time>2015-06-18T10:36:06Z</time>
      </trkpt>
      <trkpt lat="36.860198" lon="-6.301208">
        <ele>6.012</ele>
        <time>2015-06-18T10:36:13Z</time>
      </trkpt>
      <trkpt lat="36.859855" lon="-6.301493">
        <ele>6.057</ele>
        <time>2015-06-18T10:36:20Z</time>
      </trkpt>
      <trkpt lat="36.859807" lon="-6.301533">
        <ele>6.000</ele>
        <time>2015-06-18T10:36:21Z</time>
      </trkpt>
      <trkpt lat="36.859582" lon="-6.301767">
        <ele>6.020</ele>
        <time>2015-06-18T10:36:26Z</time>
      </trkpt>
      <trkpt lat="36.859342" lon="-6.302082">
        <ele>6.008</ele>
        <time>2015-06-18T10:36:32Z</time>
      </trkpt>
      <trkpt lat="36.858985" lon="-6.302519">
        <ele>6.016</ele>
        <time>2015-06-18T10:36:40Z</time>
      </trkpt>
      <trkpt lat="36.858846" lon="-6.302658">
        <ele>6.082</ele>
        <time>2015-06-18T10:36:43Z</time>
      </trkpt>
      <trkpt lat="36.858743" lon="-6.302713">
        <ele>6.028</ele>
        <time>2015-06-18T10:36:45Z</time>
      </trkpt>
      <trkpt lat="36.858525" lon="-6.302832">
        <ele>6.027</ele>
        <time>2015-06-18T10:36:50Z</time>
      </trkpt>
      <trkpt lat="36.858480" lon="-6.302863">
        <ele>6.060</ele>
        <time>2015-06-18T10:36:51Z</time>
      </trkpt>
      <trkpt lat="36.858348" lon="-6.303030">
        <ele>6.022</ele>
        <time>2015-06-18T10:36:54Z</time>
      </trkpt>
      <trkpt lat="36.858145" lon="-6.303330">
        <ele>6.025</ele>
        <time>2015-06-18T10:36:59Z</time>
      </trkpt>
      <trkpt lat="36.858098" lon="-6.303376">
        <ele>6.059</ele>
        <time>2015-06-18T10:37:00Z</time>
      </trkpt>
      <trkpt lat="36.857954" lon="-6.303499">
        <ele>6.051</ele>
        <time>2015-06-18T10:37:03Z</time>
      </trkpt>
      <trkpt lat="36.857767" lon="-6.303640">
        <ele>6.001</ele>
        <time>2015-06-18T10:37:08Z</time>
      </trkpt>
      <trkpt lat="36.857655" lon="-6.303743">
        <ele>6.011</ele>
        <time>2015-06-18T10:37:11Z</time>
      </trkpt>
      <trkpt lat="36.857615" lon="-6.303791">
        <ele>6.008</ele>
        <time>2015-06-18T10:37:12Z</time>
      </trkpt>
      <trkpt lat="36.857466" lon="-6.304014">
        <ele>6.026</ele>
        <time>2015-06-18T10:37:16Z</time>
      </trkpt>
      <trkpt lat="36.857421" lon="-6.304068">
        <ele>6.062</ele>
        <time>2015-06-18T10:37:17Z</time>
      </trkpt>
      <trkpt lat="36.857336" lon="-6.304169">
        <ele>6.078</ele>
        <time>2015-06-18T10:37:19Z</time>
      </trkpt>
      <trkpt lat="36.857182" lon="-6.304268">
        <ele>6.027</ele>
        <time>2015-06-18T10:37:22Z</time>
      </trkpt>
      <trkpt lat="36.856956" lon="-6.304419">
        <ele>6.010</ele>
        <time>2015-06-18T10:37:26Z</time>
      </trkpt>
      <trkpt lat="36.856919" lon="-6.304479">
        <ele>6.042</ele>
        <time>2015-06-18T10:37:27Z</time>
      </trkpt>
      <trkpt lat="36.856755" lon="-6.304889">
        <ele>6.015</ele>
        <time>2015-06-18T10:37:33Z</time>
      </trkpt>
      <trkpt lat="36.856642" lon="-6.305234">
        <ele>6.019</ele>
        <time>2015-06-18T10:37:38Z</time>
      </trkpt>
      <trkpt lat="36.856607" lon="-6.305287">
        <ele>6.036</ele>
        <time>2015-06-18T10:37:39Z</time>
      </trkpt>
      <trkpt lat="36.856464" lon="-6.305518">
        <ele>6.017</ele>
        <time>2015-06-18T10:37:44Z</time>
      </trkpt>
      <trkpt lat="36.856309" lon="-6.305739">
        <ele>6.018</ele>
        <time>2015-06-18T10:37:49Z</time>
      </trkpt>
      <trkpt lat="36.856264" lon="-6.305783">
        <ele>6.008</ele>
        <time>2015-06-18T10:37:50Z</time>
      </trkpt>
      <trkpt lat="36.856020" lon="-6.305980">
        <ele>6.044</ele>
        <time>2015-06-18T10:37:55Z</time>
      </trkpt>
      <trkpt lat="36.855975" lon="-6.306033">
        <ele>6.040</ele>
        <time>2015-06-18T10:37:56Z</time>
      </trkpt>
      <trkpt lat="36.855742" lon="-6.306382">
        <ele>6.076</ele>
        <time>2015-06-18T10:38:02Z</time>
      </trkpt>
      <trkpt lat="36.855698" lon="-6.306442">
        <ele>6.095</ele>
        <time>2015-06-18T10:38:03Z</time>
      </trkpt>
      <trkpt lat="36.855565" lon="-6.306610">
        <ele>6.068</ele>
        <time>2015-06-18T10:38:06Z</time>
      </trkpt>
      <trkpt lat="36.855411" lon="-6.306758">
        <ele>6.080</ele>
        <time>2015-06-18T10:38:09Z</time>
      </trkpt>
      <trkpt lat="36.855351" lon="-6.306786">
        <ele>6.053</ele>
        <time>2015-06-18T10:38:10Z</time>
      </trkpt>
      <trkpt lat="36.855242" lon="-6.306834">
        <ele>6.087</ele>
        <time>2015-06-18T10:38:12Z</time>
      </trkpt>
      <trkpt lat="36.855187" lon="-6.306932">
        <ele>6.098</ele>
        <time>2015-06-18T10:38:14Z</time>
      </trkpt>
      <trkpt lat="36.855086" lon="-6.307072">
        <ele>6.015</ele>
        <time>2015-06-18T10:38:17Z</time>
      </trkpt>
      <trkpt lat="36.854941" lon="-6.307127">
        <ele>6.026</ele>
        <time>2015-06-18T10:38:20Z</time>
      </trkpt>
      <trkpt lat="36.854846" lon="-6.307165">
        <ele>6.008</ele>
        <time>2015-06-18T10:38:22Z</time>
      </trkpt>
      <trkpt lat="36.854804" lon="-6.307193">
        <ele>6.050</ele>
        <time>2015-06-18T10:38:23Z</time>
      </trkpt>
      <trkpt lat="36.854690" lon="-6.307328">
        <ele>6.086</ele>
        <time>2015-06-18T10:38:26Z</time>
      </trkpt>
      <trkpt lat="36.854564" lon="-6.307545">
        <ele>6.032</ele>
        <time>2015-06-18T10:38:30Z</time>
      </trkpt>
      <trkpt lat="36.854513" lon="-6.307594">
        <ele>6.021</ele>
        <time>2015-06-18T10:38:31Z</time>
      </trkpt>
      <trkpt lat="36.854264" lon="-6.307794">
        <ele>6.024</ele>
        <time>2015-06-18T10:38:36Z</time>
      </trkpt>
      <trkpt lat="36.854122" lon="-6.307887">
        <ele>6.096</ele>
        <time>2015-06-18T10:38:39Z</time>
      </trkpt>
      <trkpt lat="36.853993" lon="-6.308029">
        <ele>6.039</ele>
        <time>2015-06-18T10:38:42Z</time>
      </trkpt>
      <trkpt lat="36.853955" lon="-6.308085">
        <ele>6.023</ele>
        <time>2015-06-18T10:38:43Z</time>
      </trkpt>
      <trkpt lat="36.853831" lon="-6.308259">
        <ele>6.097</ele>
        <time>2015-06-18T10:38:46Z</time>
      </trkpt>
      <trkpt lat="36.853735" lon="-6.308372">
        <ele>6.023</ele>
        <time>2015-06-18T10:38:48Z</time>
      </trkpt>
      <trkpt lat="36.853467" lon="-6.308643">
        <ele>6.025</ele>
        <time>2015-06-18T10:38:54Z</time>
      </trkpt>
      <trkpt lat="36.853289" lon="-6.308819">
        <ele>6.008</ele>
        <time>2015-06-18T10:38:58Z</time>
      </trkpt>
      <trkpt lat="36.853185" lon="-6.308876">
        <ele>6.040</ele>
        <time>2015-06-18T10:39:00Z</time>
      </trkpt>
      <trkpt lat="36.853079" lon="-6.308932">
        <ele>6.076</ele>
        <time>2015-06-18T10:39:02Z</time>
      </trkpt>
      <trkpt lat="36.852917" lon="-6.309013">
        <ele>6.092</ele>
        <time>2015-06-18T10:39:05Z</time>
      </trkpt>
      <trkpt lat="36.852685" lon="-6.309118">
        <ele>6.061</ele>
        <time>2015-06-18T10:39:09Z</time>
      </trkpt>
      <trkpt lat="36.852559" lon="-6.309144">
        <ele>6.044</ele>
        <time>2015-06-18T10:39:11Z</time>
      </trkpt>
      <trkpt lat="36.852392" lon="-6.309189">
        <ele>6.046</ele>
        <time>2015-06-18T10:39:14Z</time>
      </trkpt>
      <trkpt lat="36.852294" lon="-6.309262">
        <ele>6.079</ele>
        <time>2015-06-18T10:39:16Z</time>
      </trkpt>
      <trkpt lat="36.852195" lon="-6.309352">
        <ele>6.043</ele>
        <time>2015-06-18T10:39:18Z</time>
      </trkpt>
      <trkpt lat="36.852088" lon="-6.309406">
        <ele>6.042</ele>
        <time>2015-06-18T10:39:20Z</time>
      </trkpt>
      <trkpt lat="36.851709" lon="-6.309595">
        <ele>6.022</ele>
        <time>2015-06-18T10:39:27Z</time>
      </trkpt>
      <trkpt lat="36.851663" lon="-6.309635">
        <ele>6.014</ele>
        <time>2015-06-18T10:39:28Z</time>
      </trkpt>
      <trkpt lat="36.851592" lon="-6.309743">
        <ele>6.008</ele>
        <time>2015-06-18T10:39:30Z</time>
      </trkpt>
      <trkpt lat="36.851428" lon="-6.309957">
        <ele>6.075</ele>
        <time>2015-06-18T10:39:34Z</time>
      </trkpt>
      <trkpt lat="36.851373" lon="-6.309978">
        <ele>6.031</ele>
        <time>2015-06-18T10:39:35Z</time>
      </trkpt>
      <trkpt lat="36.851167" lon="-6.310087">
        <ele>6.027</ele>
        <time>2015-06-18T10:39:39Z</time>
      </trkpt>
      <trkpt lat="36.851100" lon="-6.310184">
        <ele>5.676</ele>
        <time>2015-06-18T10:39:41Z</time>
      </trkpt>
      <trkpt lat="36.851070" lon="-6.310231">
        <ele>5.239</ele>
        <time>2015-06-18T10:39:42Z</time>
      </trkpt>
      <trkpt lat="36.851043" lon="-6.310278">
        <ele>4.851</ele>
        <time>2015-06-18T10:39:43Z</time>
      </trkpt>
      <trkpt lat="36.851014" lon="-6.310321">
        <ele>4.224</ele>
        <time>2015-06-18T10:39:44Z</time>
      </trkpt>
      <trkpt lat="36.850980" lon="-6.310360">
        <ele>3.818</ele>
        <time>2015-06-18T10:39:45Z</time>
      </trkpt>
      <trkpt lat="36.850902" lon="-6.310416">
        <ele>3.848</ele>
        <time>2015-06-18T10:39:47Z</time>
      </trkpt>
      <trkpt lat="36.850647" lon="-6.310586">
        <ele>3.861</ele>
        <time>2015-06-18T10:39:53Z</time>
      </trkpt>
      <trkpt lat="36.850599" lon="-6.310621">
        <ele>3.817</ele>
        <time>2015-06-18T10:39:54Z</time>
      </trkpt>
      <trkpt lat="36.850308" lon="-6.310847">
        <ele>3.808</ele>
        <time>2015-06-18T10:40:00Z</time>
      </trkpt>
      <trkpt lat="36.850183" lon="-6.311053">
        <ele>4.295</ele>
        <time>2015-06-18T10:40:04Z</time>
      </trkpt>
      <trkpt lat="36.850156" lon="-6.311103">
        <ele>4.621</ele>
        <time>2015-06-18T10:40:05Z</time>
      </trkpt>
      <trkpt lat="36.850125" lon="-6.311157">
        <ele>5.037</ele>
        <time>2015-06-18T10:40:06Z</time>
      </trkpt>
      <trkpt lat="36.850100" lon="-6.311200">
        <ele>5.616</ele>
        <time>2015-06-18T10:40:07Z</time>
      </trkpt>
      <trkpt lat="36.850069" lon="-6.311251">
        <ele>6.069</ele>
        <time>2015-06-18T10:40:08Z</time>
      </trkpt>
      <trkpt lat="36.850038" lon="-6.311305">
        <ele>6.051</ele>
        <time>2015-06-18T10:40:09Z</time>
      </trkpt>
      <trkpt lat="36.849818" lon="-6.311637">
        <ele>6.084</ele>
        <time>2015-06-18T10:40:16Z</time>
      </trkpt>
      <trkpt lat="36.849790" lon="-6.311681">
        <ele>6.078</ele>
        <time>2015-06-18T10:40:17Z</time>
      </trkpt>
      <trkpt lat="36.849633" lon="-6.312023">
        <ele>6.023</ele>
        <time>2015-06-18T10:40:25Z</time>
      </trkpt>
      <trkpt lat="36.849524" lon="-6.312297">
        <ele>6.083</ele>
        <time>2015-06-18T10:40:31Z</time>
      </trkpt>
      <trkpt lat="36.849505" lon="-6.312331">
        <ele>6.011</ele>
        <time>2015-06-18T10:40:32Z</time>
      </trkpt>
      <trkpt lat="36.849372" lon="-6.312496">
        <ele>6.008</ele>
        <time>2015-06-18T10:40:39Z</time>
      </trkpt>
      <trkpt lat="36.849330" lon="-6.312523">
        <ele>6.033</ele>
        <time>2015-06-18T10:40:45Z</time>
      </trkpt>
      <trkpt lat="36.849321" lon="-6.312545">
        <ele>6.089</ele>
        <time>2015-06-18T10:40:51Z</time>
      </trkpt>
      <trkpt lat="36.849317" lon="-6.312556">
        <ele>6.085</ele>
        <time>2015-06-18T10:40:52Z</time>
      </trkpt>
      <trkpt lat="36.849230" lon="-6.312650">
        <ele>6.094</ele>
        <time>2015-06-18T10:40:58Z</time>
      </trkpt>
      <trkpt lat="36.849129" lon="-6.312765">
        <ele>6.027</ele>
        <time>2015-06-18T10:41:02Z</time>
      </trkpt>
      <trkpt lat="36.849051" lon="-6.312865">
        <ele>6.059</ele>
        <time>2015-06-18T10:41:05Z</time>
      </trkpt>
      <trkpt lat="36.848880" lon="-6.313196">
        <ele>6.092</ele>
        <time>2015-06-18T10:41:12Z</time>
      </trkpt>
      <trkpt lat="36.848696" lon="-6.313335">
        <ele>6.046</ele>
        <time>2015-06-18T10:41:16Z</time>
      </trkpt>
      <trkpt lat="36.848646" lon="-6.313363">
        <ele>6.027</ele>
        <time>2015-06-18T10:41:17Z</time>
      </trkpt>
      <trkpt lat="36.848503" lon="-6.313394">
        <ele>6.068</ele>
        <time>2015-06-18T10:41:20Z</time>
      </trkpt>
      <trkpt lat="36.848457" lon="-6.313398">
        <ele>6.014</ele>
        <time>2015-06-18T10:41:21Z</time>
      </trkpt>
      <trkpt lat="36.848349" lon="-6.313417">
        <ele>6.008</ele>
        <time>2015-06-18T10:41:23Z</time>
      </trkpt>
      <trkpt lat="36.848208" lon="-6.313475">
        <ele>6.033</ele>
        <time>2015-06-18T10:41:26Z</time>
      </trkpt>
      <trkpt lat="36.848037" lon="-6.313630">
        <ele>6.029</ele>
        <time>2015-06-18T10:41:30Z</time>
      </trkpt>
      <trkpt lat="36.847990" lon="-6.313664">
        <ele>6.045</ele>
        <time>2015-06-18T10:41:31Z</time>
      </trkpt>
      <trkpt lat="36.847940" lon="-6.313686">
        <ele>6.054</ele>
        <time>2015-06-18T10:41:32Z</time>
      </trkpt>
      <trkpt lat="36.847732" lon="-6.313767">
        <ele>6.057</ele>
        <time>2015-06-18T10:41:36Z</time>
      </trkpt>
      <trkpt lat="36.847467" lon="-6.313911">
        <ele>6.049</ele>
        <time>2015-06-18T10:41:41Z</time>
      </trkpt>
      <trkpt lat="36.847412" lon="-6.313946">
        <ele>6.082</ele>
        <time>2015-06-18T10:41:42Z</time>
      </trkpt>
      <trkpt lat="36.847127" lon="-6.314219">
        <ele>6.046</ele>
        <time>2015-06-18T10:41:48Z</time>
      </trkpt>
      <trkpt lat="36.847081" lon="-6.314260">
        <ele>5.458</ele>
        <time>2015-06-18T10:41:49Z</time>
      </trkpt>
      <trkpt lat="36.847038" lon="-6.314297">
        <ele>4.852</ele>
        <time>2015-06-18T10:41:50Z</time>
      </trkpt>
      <trkpt lat="36.846997" lon="-6.314331">
        <ele>4.417</ele>
        <time>2015-06-18T10:41:51Z</time>
      </trkpt>
      <trkpt lat="36.846958" lon="-6.314365">
        <ele>3.808</ele>
        <time>2015-06-18T10:41:52Z</time>
      </trkpt>
      <trkpt lat="36.846921" lon="-6.314399">
        <ele>3.426</ele>
        <time>2015-06-18T10:41:53Z</time>
      </trkpt>
      <trkpt lat="36.846886" lon="-6.314435">
        <ele>3.822</ele>
        <time>2015-06-18T10:41:54Z</time>
      </trkpt>
      <trkpt lat="36.846852" lon="-6.314471">
        <ele>4.288</ele>
        <time>2015-06-18T10:41:55Z</time>
      </trkpt>
      <trkpt lat="36.846818" lon="-6.314508">
        <ele>4.697</ele>
        <time>2015-06-18T10:41:56Z</time>
      </trkpt>
      <trkpt lat="36.846785" lon="-6.314546">
        <ele>5.240</ele>
        <time>2015-06-18T10:41:57Z</time>
      </trkpt>
      <trkpt lat="36.846753" lon="-6.314588">
        <ele>5.622</ele>
        <time>2015-06-18T10:41:58Z</time>
      </trkpt>
      <trkpt lat="36.846649" lon="-6.314750">
        <ele>5.675</ele>
        <time>2015-06-18T10:42:02Z</time>
      </trkpt>
      <trkpt lat="36.846629" lon="-6.314786">
        <ele>5.679</ele>
        <time>2015-06-18T10:42:03Z</time>
      </trkpt>
      <trkpt lat="36.846602" lon="-6.314847">
        <ele>5.646</ele>
        <time>2015-06-18T10:42:05Z</time>
      </trkpt>
      <trkpt lat="36.846598" lon="-6.314918">
        <ele>5.688</ele>
        <time>2015-06-18T10:42:07Z</time>
      </trkpt>
      <trkpt lat="36.846639" lon="-6.314990">
        <ele>5.616</ele>
        <time>2015-06-18T10:42:10Z</time>
      </trkpt>
      <trkpt lat="36.846658" lon="-6.315005">
        <ele>5.608</ele>
        <time>2015-06-18T10:42:11Z</time>
      </trkpt>
      <trkpt lat="36.846748" lon="-6.315053">
        <ele>5.645</ele>
        <time>2015-06-18T10:42:16Z</time>
      </trkpt>
      <trkpt lat="36.846752" lon="-6.315073">
        <ele>5.641</ele>
        <time>2015-06-18T10:42:17Z</time>
      </trkpt>
      <trkpt lat="36.846750" lon="-6.315155">
        <ele>5.687</ele>
        <time>2015-06-18T10:42:20Z</time>
      </trkpt>
      <trkpt lat="36.846711" lon="-6.315204">
        <ele>5.656</ele>
        <time>2015-06-18T10:42:22Z</time>
      </trkpt>
      <trkpt lat="36.846530" lon="-6.315333">
        <ele>5.649</ele>
        <time>2015-06-18T10:42:29Z</time>
      </trkpt>
      <trkpt lat="36.846321" lon="-6.315399">
        <ele>5.611</ele>
        <time>2015-06-18T10:42:35Z</time>
      </trkpt>
      <trkpt lat="36.846026" lon="-6.315446">
        <ele>5.624</ele>
        <time>2015-06-18T10:42:43Z</time>
      </trkpt>
      <trkpt lat="36.845792" lon="-6.315513">
        <ele>5.678</ele>
        <time>2015-06-18T10:42:50Z</time>
      </trkpt>
      <trkpt lat="36.845512" lon="-6.315575">
        <ele>5.657</ele>
        <time>2015-06-18T10:42:57Z</time>
      </trkpt>
      <trkpt lat="36.845381" lon="-6.315584">
        <ele>5.600</ele>
        <time>2015-06-18T10:43:00Z</time>
      </trkpt>
      <trkpt lat="36.845298" lon="-6.315606">
        <ele>5.620</ele>
        <time>2015-06-18T10:43:02Z</time>
      </trkpt>
      <trkpt lat="36.845253" lon="-6.315619">
        <ele>5.608</ele>
        <time>2015-06-18T10:43:03Z</time>
      </trkpt>
      <trkpt lat="36.844864" lon="-6.315711">
        <ele>5.616</ele>
        <time>2015-06-18T10:43:11Z</time>
      </trkpt>
      <trkpt lat="36.844441" lon="-6.315803">
        <ele>5.682</ele>
        <time>2015-06-18T10:43:19Z</time>
      </trkpt>
      <trkpt lat="36.843954" lon="-6.315921">
        <ele>5.678</ele>
        <time>2015-06-18T10:43:28Z</time>
      </trkpt>
      <trkpt lat="36.843589" lon="-6.315995">
        <ele>5.697</ele>
        <time>2015-06-18T10:43:35Z</time>
      </trkpt>
      <trkpt lat="36.843541" lon="-6.315991">
        <ele>5.670</ele>
        <time>2015-06-18T10:43:36Z</time>
      </trkpt>
      <trkpt lat="36.843446" lon="-6.315991">
        <ele>5.692</ele>
        <time>2015-06-18T10:43:38Z</time>
      </trkpt>
      <trkpt lat="36.843342" lon="-6.316014">
        <ele>5.635</ele>
        <time>2015-06-18T10:43:41Z</time>
      </trkpt>
      <trkpt lat="36.843056" lon="-6.316082">
        <ele>5.619</ele>
        <time>2015-06-18T10:43:50Z</time>
      </trkpt>
      <trkpt lat="36.843019" lon="-6.316097">
        <ele>5.646</ele>
        <time>2015-06-18T10:43:51Z</time>
      </trkpt>
      <trkpt lat="36.842782" lon="-6.316200">
        <ele>5.688</ele>
        <time>2015-06-18T10:43:57Z</time>
      </trkpt>
      <trkpt lat="36.842734" lon="-6.316210">
        <ele>5.616</ele>
        <time>2015-06-18T10:43:58Z</time>
      </trkpt>
      <trkpt lat="36.842546" lon="-6.316249">
        <ele>5.608</ele>
        <time>2015-06-18T10:44:02Z</time>
      </trkpt>
      <trkpt lat="36.842394" lon="-6.316286">
        <ele>5.655</ele>
        <time>2015-06-18T10:44:05Z</time>
      </trkpt>
      <trkpt lat="36.842022" lon="-6.316365">
        <ele>5.621</ele>
        <time>2015-06-18T10:44:12Z</time>
      </trkpt>
      <trkpt lat="36.841910" lon="-6.316391">
        <ele>5.667</ele>
        <time>2015-06-18T10:44:14Z</time>
      </trkpt>
      <trkpt lat="36.841470" lon="-6.316485">
        <ele>5.656</ele>
        <time>2015-06-18T10:44:22Z</time>
      </trkpt>
      <trkpt lat="36.840994" lon="-6.316581">
        <ele>5.649</ele>
        <time>2015-06-18T10:44:31Z</time>
      </trkpt>
      <trkpt lat="36.840784" lon="-6.316605">
        <ele>5.621</ele>
        <time>2015-06-18T10:44:35Z</time>
      </trkpt>
      <trkpt lat="36.840621" lon="-6.316663">
        <ele>5.614</ele>
        <time>2015-06-18T10:44:38Z</time>
      </trkpt>
      <trkpt lat="36.840281" lon="-6.316752">
        <ele>5.658</ele>
        <time>2015-06-18T10:44:44Z</time>
      </trkpt>
      <trkpt lat="36.840223" lon="-6.316763">
        <ele>5.623</ele>
        <time>2015-06-18T10:44:45Z</time>
      </trkpt>
      <trkpt lat="36.839757" lon="-6.316867">
        <ele>5.683</ele>
        <time>2015-06-18T10:44:53Z</time>
      </trkpt>
      <trkpt lat="36.839288" lon="-6.316976">
        <ele>5.611</ele>
        <time>2015-06-18T10:45:01Z</time>
      </trkpt>
      <trkpt lat="36.838946" lon="-6.317043">
        <ele>5.608</ele>
        <time>2015-06-18T10:45:07Z</time>
      </trkpt>
      <trkpt lat="36.838889" lon="-6.317050">
        <ele>5.693</ele>
        <time>2015-06-18T10:45:08Z</time>
      </trkpt>
      <trkpt lat="36.838643" lon="-6.317125">
        <ele>5.669</ele>
        <time>2015-06-18T10:45:13Z</time>
      </trkpt>
      <trkpt lat="36.838374" lon="-6.317175">
        <ele>5.675</ele>
        <time>2015-06-18T10:45:18Z</time>
      </trkpt>
      <trkpt lat="36.838317" lon="-6.317185">
        <ele>5.624</ele>
        <time>2015-06-18T10:45:19Z</time>
      </trkpt>
      <trkpt lat="36.837905" lon="-6.317266">
        <ele>5.657</ele>
        <time>2015-06-18T10:45:26Z</time>
      </trkpt>
      <trkpt lat="36.837784" lon="-6.317292">
        <ele>5.659</ele>
        <time>2015-06-18T10:45:28Z</time>
      </trkpt>
      <trkpt lat="36.837387" lon="-6.317382">
        <ele>5.652</ele>
        <time>2015-06-18T10:45:34Z</time>
      </trkpt>
      <trkpt lat="36.837178" lon="-6.317435">
        <ele>5.696</ele>
        <time>2015-06-18T10:45:37Z</time>
      </trkpt>
      <trkpt lat="36.836900" lon="-6.317498">
        <ele>5.616</ele>
        <time>2015-06-18T10:45:41Z</time>
      </trkpt>
      <trkpt lat="36.836479" lon="-6.317609">
        <ele>5.676</ele>
        <time>2015-06-18T10:45:47Z</time>
      </trkpt>
      <trkpt lat="36.836057" lon="-6.317700">
        <ele>5.613</ele>
        <time>2015-06-18T10:45:53Z</time>
      </trkpt>
      <trkpt lat="36.835682" lon="-6.317782">
        <ele>5.608</ele>
        <time>2015-06-18T10:45:59Z</time>
      </trkpt>
      <trkpt lat="36.835182" lon="-6.317892">
        <ele>5.682</ele>
        <time>2015-06-18T10:46:07Z</time>
      </trkpt>
      <trkpt lat="36.834935" lon="-6.317953">
        <ele>5.628</ele>
        <time>2015-06-18T10:46:12Z</time>
      </trkpt>
      <trkpt lat="36.834889" lon="-6.317962">
        <ele>5.654</ele>
        <time>2015-06-18T10:46:13Z</time>
      </trkpt>
      <trkpt lat="36.834772" lon="-6.317988">
        <ele>5.663</ele>
        <time>2015-06-18T10:46:16Z</time>
      </trkpt>
      <trkpt lat="36.834650" lon="-6.318020">
        <ele>5.666</ele>
        <time>2015-06-18T10:46:19Z</time>
      </trkpt>
      <trkpt lat="36.834607" lon="-6.318037">
        <ele>5.658</ele>
        <time>2015-06-18T10:46:20Z</time>
      </trkpt>
      <trkpt lat="36.834408" lon="-6.318079">
        <ele>5.641</ele>
        <time>2015-06-18T10:46:24Z</time>
      </trkpt>
      <trkpt lat="36.834138" lon="-6.318134">
        <ele>5.665</ele>
        <time>2015-06-18T10:46:29Z</time>
      </trkpt>
      <trkpt lat="36.834083" lon="-6.318137">
        <ele>5.638</ele>
        <time>2015-06-18T10:46:30Z</time>
      </trkpt>
      <trkpt lat="36.833969" lon="-6.318145">
        <ele>5.670</ele>
        <time>2015-06-18T10:46:32Z</time>
      </trkpt>
      <trkpt lat="36.833743" lon="-6.318208">
        <ele>5.617</ele>
        <time>2015-06-18T10:46:36Z</time>
      </trkpt>
      <trkpt lat="36.833628" lon="-6.318249">
        <ele>5.608</ele>
        <time>2015-06-18T10:46:38Z</time>
      </trkpt>
      <trkpt lat="36.833228" lon="-6.318338">
        <ele>5.694</ele>
        <time>2015-06-18T10:46:45Z</time>
      </trkpt>
      <trkpt lat="36.833175" lon="-6.318343">
        <ele>5.630</ele>
        <time>2015-06-18T10:46:46Z</time>
      </trkpt>
      <trkpt lat="36.833076" lon="-6.318365">
        <ele>5.626</ele>
        <time>2015-06-18T10:46:48Z</time>
      </trkpt>
      <trkpt lat="36.832974" lon="-6.318392">
        <ele>5.695</ele>
        <time>2015-06-18T10:46:50Z</time>
      </trkpt>
      <trkpt lat="36.832521" lon="-6.318488">
        <ele>5.698</ele>
        <time>2015-06-18T10:46:58Z</time>
      </trkpt>
      <trkpt lat="36.832020" lon="-6.318580">
        <ele>5.620</ele>
        <time>2015-06-18T10:47:06Z</time>
      </trkpt>
      <trkpt lat="36.831559" lon="-6.318696">
        <ele>5.633</ele>
        <time>2015-06-18T10:47:14Z</time>
      </trkpt>
      <trkpt lat="36.831379" lon="-6.318723">
        <ele>5.667</ele>
        <time>2015-06-18T10:47:18Z</time>
      </trkpt>
      <trkpt lat="36.831346" lon="-6.318733">
        <ele>5.689</ele>
        <time>2015-06-18T10:47:19Z</time>
      </trkpt>
      <trkpt lat="36.831256" lon="-6.318766">
        <ele>5.606</ele>
        <time>2015-06-18T10:47:23Z</time>
      </trkpt>
      <trkpt lat="36.831240" lon="-6.318769">
        <ele>5.626</ele>
        <time>2015-06-18T10:47:24Z</time>
      </trkpt>
      <trkpt lat="36.831098" lon="-6.318800">
        <ele>5.608</ele>
        <time>2015-06-18T10:47:30Z</time>
      </trkpt>
      <trkpt lat="36.830841" lon="-6.318866">
        <ele>5.669</ele>
        <time>2015-06-18T10:47:37Z</time>
      </trkpt>
      <trkpt lat="36.830803" lon="-6.318846">
        <ele>5.695</ele>
        <time>2015-06-18T10:47:39Z</time>
      </trkpt>
      <trkpt lat="36.830811" lon="-6.318825">
        <ele>5.671</ele>
        <time>2015-06-18T10:47:40Z</time>
      </trkpt>
      <trkpt lat="36.830855" lon="-6.318778">
        <ele>5.650</ele>
        <time>2015-06-18T10:47:45Z</time>
      </trkpt>
      <trkpt lat="36.830859" lon="-6.318774">
        <ele>5.693</ele>
        <time>2015-06-18T10:47:49Z</time>
      </trkpt>
      <trkpt lat="36.830863" lon="-6.318776">
        <ele>5.635</ele>
        <time>2015-06-18T10:47:53Z</time>
      </trkpt>
      <trkpt lat="36.830863" lon="-6.318776">
        <ele>5.668</ele>
        <time>2015-06-18T10:47:57Z</time>
      </trkpt>
      <trkpt lat="36.830863" lon="-6.318776">
        <ele>6.012</ele>
        <time>2015-06-18T10:48:06Z</time>
      </trkpt>
      <trkpt lat="36.830863" lon="-6.318776">
        <ele>6.414</ele>
        <time>2015-06-18T10:48:07Z</time>
      </trkpt>
      <trkpt lat="36.830863" lon="-6.318776">
        <ele>6.854</ele>
        <time>2015-06-18T10:48:08Z</time>
      </trkpt>
      <trkpt lat="36.830863" lon="-6.318776">
        <ele>7.209</ele>
        <time>2015-06-18T10:48:09Z</time>
      </trkpt>
      <trkpt lat="36.830863" lon="-6.318776">
        <ele>7.608</ele>
        <time>2015-06-18T10:48:10Z</time>
      </trkpt>
      <trkpt lat="36.830863" lon="-6.318776">
        <ele>7.692</ele>
        <time>2015-06-18T10:48:11Z</time>
      </trkpt>
      <trkpt lat="36.830863" lon="-6.318776">
        <ele>7.688</ele>
        <time>2015-06-18T10:48:14Z</time>
      </trkpt>
      <trkpt lat="36.830863" lon="-6.318776">
        <ele>7.674</ele>
        <time>2015-06-18T10:48:25Z</time>
      </trkpt>
      <trkpt lat="36.830865" lon="-6.318772">
        <ele>7.633</ele>
        <time>2015-06-18T10:48:32Z</time>
      </trkpt>
      <trkpt lat="36.830865" lon="-6.318772">
        <ele>7.686</ele>
        <time>2015-06-18T10:48:35Z</time>
      </trkpt>
      <trkpt lat="36.830865" lon="-6.318772">
        <ele>7.658</ele>
        <time>2015-06-18T10:48:47Z</time>
      </trkpt>
      <trkpt lat="36.830865" lon="-6.318772">
        <ele>7.671</ele>
        <time>2015-06-18T10:48:57Z</time>
      </trkpt>
      <trkpt lat="36.830865" lon="-6.318772">
        <ele>7.685</ele>
        <time>2015-06-18T10:48:59Z</time>
      </trkpt>
      <trkpt lat="36.830865" lon="-6.318772">
        <ele>7.615</ele>
        <time>2015-06-18T10:49:08Z</time>
      </trkpt>
      <trkpt lat="36.830867" lon="-6.318768">
        <ele>7.665</ele>
        <time>2015-06-18T10:49:20Z</time>
      </trkpt>
      <trkpt lat="36.830867" lon="-6.318768">
        <ele>7.611</ele>
        <time>2015-06-18T10:49:32Z</time>
      </trkpt>
      <trkpt lat="36.830867" lon="-6.318768">
        <ele>7.608</ele>
        <time>2015-06-18T10:49:42Z</time>
      </trkpt>
      <trkpt lat="36.830868" lon="-6.318766">
        <ele>7.692</ele>
        <time>2015-06-18T10:49:50Z</time>
      </trkpt>
      <trkpt lat="36.830868" lon="-6.318766">
        <ele>7.648</ele>
        <time>2015-06-18T10:49:59Z</time>
      </trkpt>
      <trkpt lat="36.830868" lon="-6.318766">
        <ele>7.654</ele>
        <time>2015-06-18T10:50:02Z</time>
      </trkpt>
      <trkpt lat="36.830868" lon="-6.318766">
        <ele>7.673</ele>
        <time>2015-06-18T10:50:04Z</time>
      </trkpt>
      <trkpt lat="36.830868" lon="-6.318766">
        <ele>7.686</ele>
        <time>2015-06-18T10:50:09Z</time>
      </trkpt>
      <trkpt lat="36.830868" lon="-6.318766">
        <ele>7.688</ele>
        <time>2015-06-18T10:50:18Z</time>
      </trkpt>
      <trkpt lat="36.830868" lon="-6.318766">
        <ele>7.641</ele>
        <time>2015-06-18T10:50:26Z</time>
      </trkpt>
      <trkpt lat="36.830868" lon="-6.318766">
        <ele>7.625</ele>
        <time>2015-06-18T10:50:27Z</time>
      </trkpt>
      <trkpt lat="36.830868" lon="-6.318766">
        <ele>7.677</ele>
        <time>2015-06-18T10:50:29Z</time>
      </trkpt>
      <trkpt lat="36.830874" lon="-6.318758">
        <ele>7.661</ele>
        <time>2015-06-18T10:50:34Z</time>
      </trkpt>
      <trkpt lat="36.830874" lon="-6.318758">
        <ele>7.627</ele>
        <time>2015-06-18T10:50:37Z</time>
      </trkpt>
      <trkpt lat="36.830874" lon="-6.318758">
        <ele>7.608</ele>
        <time>2015-06-18T10:50:40Z</time>
      </trkpt>
      <trkpt lat="36.830874" lon="-6.318758">
        <ele>7.678</ele>
        <time>2015-06-18T10:50:51Z</time>
      </trkpt>
      <trkpt lat="36.830874" lon="-6.318758">
        <ele>7.694</ele>
        <time>2015-06-18T10:50:53Z</time>
      </trkpt>
      <trkpt lat="36.830874" lon="-6.318758">
        <ele>7.630</ele>
        <time>2015-06-18T10:50:56Z</time>
      </trkpt>
      <trkpt lat="36.830874" lon="-6.318758">
        <ele>7.659</ele>
        <time>2015-06-18T10:51:00Z</time>
      </trkpt>
      <trkpt lat="36.830874" lon="-6.318758">
        <ele>7.612</ele>
        <time>2015-06-18T10:51:03Z</time>
      </trkpt>
      <trkpt lat="36.830874" lon="-6.318757">
        <ele>7.674</ele>
        <time>2015-06-18T10:51:15Z</time>
      </trkpt>
      <trkpt lat="36.830874" lon="-6.318757">
        <ele>7.677</ele>
        <time>2015-06-18T10:51:17Z</time>
      </trkpt>
      <trkpt lat="36.830874" lon="-6.318757">
        <ele>7.651</ele>
        <time>2015-06-18T10:51:25Z</time>
      </trkpt>
      <trkpt lat="36.830874" lon="-6.318757">
        <ele>7.611</ele>
        <time>2015-06-18T10:51:31Z</time>
      </trkpt>
      <trkpt lat="36.830874" lon="-6.318757">
        <ele>7.621</ele>
        <time>2015-06-18T10:51:36Z</time>
      </trkpt>
      <trkpt lat="36.830874" lon="-6.318757">
        <ele>7.603</ele>
        <time>2015-06-18T10:51:46Z</time>
      </trkpt>
      <trkpt lat="36.830875" lon="-6.318754">
        <ele>7.608</ele>
        <time>2015-06-18T10:51:55Z</time>
      </trkpt>
      <trkpt lat="36.830875" lon="-6.318754">
        <ele>7.642</ele>
        <time>2015-06-18T10:51:58Z</time>
      </trkpt>
      <trkpt lat="36.830875" lon="-6.318754">
        <ele>7.638</ele>
        <time>2015-06-18T10:52:00Z</time>
      </trkpt>
      <trkpt lat="36.830875" lon="-6.318754">
        <ele>7.694</ele>
        <time>2015-06-18T10:52:02Z</time>
      </trkpt>
      <trkpt lat="36.830875" lon="-6.318754">
        <ele>7.663</ele>
        <time>2015-06-18T10:52:11Z</time>
      </trkpt>
      <trkpt lat="36.830875" lon="-6.318754">
        <ele>7.646</ele>
        <time>2015-06-18T10:52:15Z</time>
      </trkpt>
      <trkpt lat="36.830875" lon="-6.318754">
        <ele>7.658</ele>
        <time>2015-06-18T10:52:17Z</time>
      </trkpt>
      <trkpt lat="36.830875" lon="-6.318754">
        <ele>7.651</ele>
        <time>2015-06-18T10:52:19Z</time>
      </trkpt>
      <trkpt lat="36.830875" lon="-6.318754">
        <ele>7.635</ele>
        <time>2015-06-18T10:52:21Z</time>
      </trkpt>
      <trkpt lat="36.830874" lon="-6.318753">
        <ele>7.645</ele>
        <time>2015-06-18T10:52:32Z</time>
      </trkpt>
      <trkpt lat="36.830874" lon="-6.318753">
        <ele>7.647</ele>
        <time>2015-06-18T10:52:43Z</time>
      </trkpt>
      <trkpt lat="36.830874" lon="-6.318753">
        <ele>7.611</ele>
        <time>2015-06-18T10:52:47Z</time>
      </trkpt>
      <trkpt lat="36.830874" lon="-6.318753">
        <ele>7.608</ele>
        <time>2015-06-18T10:52:49Z</time>
      </trkpt>
      <trkpt lat="36.830874" lon="-6.318753">
        <ele>7.645</ele>
        <time>2015-06-18T10:52:55Z</time>
      </trkpt>
      <trkpt lat="36.830875" lon="-6.318750">
        <ele>7.621</ele>
        <time>2015-06-18T10:53:05Z</time>
      </trkpt>
      <trkpt lat="36.830885" lon="-6.318754">
        <ele>7.647</ele>
        <time>2015-06-18T10:53:10Z</time>
      </trkpt>
      <trkpt lat="36.830884" lon="-6.318758">
        <ele>7.626</ele>
        <time>2015-06-18T10:53:11Z</time>
      </trkpt>
      <trkpt lat="36.830876" lon="-6.318775">
        <ele>7.649</ele>
        <time>2015-06-18T10:53:13Z</time>
      </trkpt>
      <trkpt lat="36.830877" lon="-6.318775">
        <ele>7.631</ele>
        <time>2015-06-18T10:53:16Z</time>
      </trkpt>
      <trkpt lat="36.830877" lon="-6.318775">
        <ele>7.624</ele>
        <time>2015-06-18T10:53:18Z</time>
      </trkpt>
      <trkpt lat="36.830877" lon="-6.318775">
        <ele>7.698</ele>
        <time>2015-06-18T10:53:21Z</time>
      </trkpt>
      <trkpt lat="36.830875" lon="-6.318778">
        <ele>7.653</ele>
        <time>2015-06-18T10:53:23Z</time>
      </trkpt>
      <trkpt lat="36.830858" lon="-6.318796">
        <ele>7.604</ele>
        <time>2015-06-18T10:53:25Z</time>
      </trkpt>
      <trkpt lat="36.830849" lon="-6.318798">
        <ele>7.614</ele>
        <time>2015-06-18T10:53:26Z</time>
      </trkpt>
      <trkpt lat="36.830766" lon="-6.318844">
        <ele>7.608</ele>
        <time>2015-06-18T10:53:30Z</time>
      </trkpt>
      <trkpt lat="36.830739" lon="-6.318855">
        <ele>7.626</ele>
        <time>2015-06-18T10:53:31Z</time>
      </trkpt>
      <trkpt lat="36.830585" lon="-6.318903">
        <ele>7.612</ele>
        <time>2015-06-18T10:53:36Z</time>
      </trkpt>
      <trkpt lat="36.830357" lon="-6.318947">
        <ele>7.638</ele>
        <time>2015-06-18T10:53:43Z</time>
      </trkpt>
      <trkpt lat="36.830241" lon="-6.318945">
        <ele>7.637</ele>
        <time>2015-06-18T10:53:47Z</time>
      </trkpt>
      <trkpt lat="36.830175" lon="-6.318956">
        <ele>7.680</ele>
        <time>2015-06-18T10:53:49Z</time>
      </trkpt>
      <trkpt lat="36.829962" lon="-6.319010">
        <ele>7.632</ele>
        <time>2015-06-18T10:53:55Z</time>
      </trkpt>
      <trkpt lat="36.829720" lon="-6.319062">
        <ele>7.685</ele>
        <time>2015-06-18T10:54:02Z</time>
      </trkpt>
      <trkpt lat="36.829488" lon="-6.319130">
        <ele>7.619</ele>
        <time>2015-06-18T10:54:09Z</time>
      </trkpt>
      <trkpt lat="36.829277" lon="-6.319161">
        <ele>7.615</ele>
        <time>2015-06-18T10:54:14Z</time>
      </trkpt>
      <trkpt lat="36.829234" lon="-6.319170">
        <ele>7.665</ele>
        <time>2015-06-18T10:54:15Z</time>
      </trkpt>
      <trkpt lat="36.829057" lon="-6.319208">
        <ele>7.611</ele>
        <time>2015-06-18T10:54:19Z</time>
      </trkpt>
      <trkpt lat="36.828941" lon="-6.319229">
        <ele>7.608</ele>
        <time>2015-06-18T10:54:22Z</time>
      </trkpt>
      <trkpt lat="36.828741" lon="-6.319244">
        <ele>7.622</ele>
        <time>2015-06-18T10:54:27Z</time>
      </trkpt>
      <trkpt lat="36.828702" lon="-6.319239">
        <ele>7.678</ele>
        <time>2015-06-18T10:54:28Z</time>
      </trkpt>
      <trkpt lat="36.828582" lon="-6.319257">
        <ele>7.624</ele>
        <time>2015-06-18T10:54:31Z</time>
      </trkpt>
      <trkpt lat="36.828502" lon="-6.319274">
        <ele>7.613</ele>
        <time>2015-06-18T10:54:33Z</time>
      </trkpt>
      <trkpt lat="36.828436" lon="-6.319301">
        <ele>7.636</ele>
        <time>2015-06-18T10:54:35Z</time>
      </trkpt>
      <trkpt lat="36.828392" lon="-6.319316">
        <ele>7.648</ele>
        <time>2015-06-18T10:54:37Z</time>
      </trkpt>
      <trkpt lat="36.828376" lon="-6.319327">
        <ele>7.671</ele>
        <time>2015-06-18T10:54:38Z</time>
      </trkpt>
      <trkpt lat="36.828373" lon="-6.319330">
        <ele>7.615</ele>
        <time>2015-06-18T10:54:42Z</time>
      </trkpt>
      <trkpt lat="36.828356" lon="-6.319332">
        <ele>7.662</ele>
        <time>2015-06-18T10:54:46Z</time>
      </trkpt>
      <trkpt lat="36.828326" lon="-6.319347">
        <ele>7.683</ele>
        <time>2015-06-18T10:54:48Z</time>
      </trkpt>
      <trkpt lat="36.828245" lon="-6.319365">
        <ele>7.611</ele>
        <time>2015-06-18T10:54:51Z</time>
      </trkpt>
      <trkpt lat="36.828182" lon="-6.319379">
        <ele>7.608</ele>
        <time>2015-06-18T10:54:53Z</time>
      </trkpt>
      <trkpt lat="36.827956" lon="-6.319468">
        <ele>7.637</ele>
        <time>2015-06-18T10:54:59Z</time>
      </trkpt>
      <trkpt lat="36.827790" lon="-6.319519">
        <ele>7.683</ele>
        <time>2015-06-18T10:55:02Z</time>
      </trkpt>
      <trkpt lat="36.827667" lon="-6.319555">
        <ele>7.629</ele>
        <time>2015-06-18T10:55:04Z</time>
      </trkpt>
      <trkpt lat="36.827539" lon="-6.319582">
        <ele>7.658</ele>
        <time>2015-06-18T10:55:06Z</time>
      </trkpt>
      <trkpt lat="36.827410" lon="-6.319604">
        <ele>7.681</ele>
        <time>2015-06-18T10:55:08Z</time>
      </trkpt>
      <trkpt lat="36.827298" lon="-6.319624">
        <ele>7.663</ele>
        <time>2015-06-18T10:55:10Z</time>
      </trkpt>
      <trkpt lat="36.827178" lon="-6.319660">
        <ele>7.656</ele>
        <time>2015-06-18T10:55:14Z</time>
      </trkpt>
      <trkpt lat="36.826936" lon="-6.319706">
        <ele>7.620</ele>
        <time>2015-06-18T10:55:21Z</time>
      </trkpt>
      <trkpt lat="36.826679" lon="-6.319773">
        <ele>7.697</ele>
        <time>2015-06-18T10:55:26Z</time>
      </trkpt>
      <trkpt lat="36.826492" lon="-6.319814">
        <ele>7.623</ele>
        <time>2015-06-18T10:55:29Z</time>
      </trkpt>
      <trkpt lat="36.826295" lon="-6.319861">
        <ele>7.625</ele>
        <time>2015-06-18T10:55:32Z</time>
      </trkpt>
      <trkpt lat="36.825956" lon="-6.319945">
        <ele>7.608</ele>
        <time>2015-06-18T10:55:37Z</time>
      </trkpt>
      <trkpt lat="36.825551" lon="-6.320044">
        <ele>7.690</ele>
        <time>2015-06-18T10:55:43Z</time>
      </trkpt>
      <trkpt lat="36.825184" lon="-6.320126">
        <ele>7.696</ele>
        <time>2015-06-18T10:55:49Z</time>
      </trkpt>
      <trkpt lat="36.825124" lon="-6.320140">
        <ele>7.612</ele>
        <time>2015-06-18T10:55:50Z</time>
      </trkpt>
      <trkpt lat="36.824778" lon="-6.320212">
        <ele>8.091</ele>
        <time>2015-06-18T10:55:56Z</time>
      </trkpt>
      <trkpt lat="36.824724" lon="-6.320223">
        <ele>8.454</ele>
        <time>2015-06-18T10:55:57Z</time>
      </trkpt>
      <trkpt lat="36.824670" lon="-6.320236">
        <ele>8.836</ele>
        <time>2015-06-18T10:55:58Z</time>
      </trkpt>
      <trkpt lat="36.824616" lon="-6.320248">
        <ele>9.289</ele>
        <time>2015-06-18T10:55:59Z</time>
      </trkpt>
      <trkpt lat="36.824560" lon="-6.320258">
        <ele>9.673</ele>
        <time>2015-06-18T10:56:00Z</time>
      </trkpt>
      <trkpt lat="36.824229" lon="-6.320330">
        <ele>9.619</ele>
        <time>2015-06-18T10:56:06Z</time>
      </trkpt>
      <trkpt lat="36.824174" lon="-6.320339">
        <ele>9.609</ele>
        <time>2015-06-18T10:56:07Z</time>
      </trkpt>
      <trkpt lat="36.823844" lon="-6.320397">
        <ele>9.619</ele>
        <time>2015-06-18T10:56:13Z</time>
      </trkpt>
      <trkpt lat="36.823405" lon="-6.320498">
        <ele>9.608</ele>
        <time>2015-06-18T10:56:21Z</time>
      </trkpt>
      <trkpt lat="36.822989" lon="-6.320588">
        <ele>9.682</ele>
        <time>2015-06-18T10:56:29Z</time>
      </trkpt>
      <trkpt lat="36.822503" lon="-6.320709">
        <ele>9.698</ele>
        <time>2015-06-18T10:56:38Z</time>
      </trkpt>
      <trkpt lat="36.822031" lon="-6.320794">
        <ele>9.694</ele>
        <time>2015-06-18T10:56:47Z</time>
      </trkpt>
      <trkpt lat="36.821730" lon="-6.320860">
        <ele>9.633</ele>
        <time>2015-06-18T10:56:53Z</time>
      </trkpt>
      <trkpt lat="36.821328" lon="-6.320950">
        <ele>9.646</ele>
        <time>2015-06-18T10:57:01Z</time>
      </trkpt>
      <trkpt lat="36.820939" lon="-6.321036">
        <ele>9.628</ele>
        <time>2015-06-18T10:57:09Z</time>
      </trkpt>
      <trkpt lat="36.820538" lon="-6.321120">
        <ele>9.651</ele>
        <time>2015-06-18T10:57:17Z</time>
      </trkpt>
      <trkpt lat="36.819981" lon="-6.321228">
        <ele>9.665</ele>
        <time>2015-06-18T10:57:28Z</time>
      </trkpt>
      <trkpt lat="36.819496" lon="-6.321352">
        <ele>9.647</ele>
        <time>2015-06-18T10:57:38Z</time>
      </trkpt>
      <trkpt lat="36.819090" lon="-6.321431">
        <ele>9.629</ele>
        <time>2015-06-18T10:57:46Z</time>
      </trkpt>
      <trkpt lat="36.818575" lon="-6.321556">
        <ele>9.621</ele>
        <time>2015-06-18T10:57:56Z</time>
      </trkpt>
      <trkpt lat="36.818505" lon="-6.321748">
        <ele>9.608</ele>
        <time>2015-06-18T10:57:59Z</time>
      </trkpt>
      <trkpt lat="36.818538" lon="-6.321962">
        <ele>9.685</ele>
        <time>2015-06-18T10:58:02Z</time>
      </trkpt>
      <trkpt lat="36.818569" lon="-6.322103">
        <ele>9.661</ele>
        <time>2015-06-18T10:58:04Z</time>
      </trkpt>
      <trkpt lat="36.818623" lon="-6.322444">
        <ele>9.687</ele>
        <time>2015-06-18T10:58:09Z</time>
      </trkpt>
      <trkpt lat="36.818723" lon="-6.323116">
        <ele>9.646</ele>
        <time>2015-06-18T10:58:19Z</time>
      </trkpt>
      <trkpt lat="36.818725" lon="-6.323163">
        <ele>9.679</ele>
        <time>2015-06-18T10:58:20Z</time>
      </trkpt>
      <trkpt lat="36.818738" lon="-6.323213">
        <ele>9.681</ele>
        <time>2015-06-18T10:58:21Z</time>
      </trkpt>
      <trkpt lat="36.818772" lon="-6.323450">
        <ele>9.664</ele>
        <time>2015-06-18T10:58:25Z</time>
      </trkpt>
      <trkpt lat="36.818829" lon="-6.323831">
        <ele>9.678</ele>
        <time>2015-06-18T10:58:31Z</time>
      </trkpt>
      <trkpt lat="36.818948" lon="-6.324540">
        <ele>9.693</ele>
        <time>2015-06-18T10:58:41Z</time>
      </trkpt>
      <trkpt lat="36.819042" lon="-6.325167">
        <ele>9.665</ele>
        <time>2015-06-18T10:58:49Z</time>
      </trkpt>
      <trkpt lat="36.819138" lon="-6.325805">
        <ele>9.621</ele>
        <time>2015-06-18T10:58:57Z</time>
      </trkpt>
      <trkpt lat="36.819199" lon="-6.326442">
        <ele>9.608</ele>
        <time>2015-06-18T10:59:05Z</time>
      </trkpt>
      <trkpt lat="36.819226" lon="-6.327069">
        <ele>9.620</ele>
        <time>2015-06-18T10:59:13Z</time>
      </trkpt>
      <trkpt lat="36.819229" lon="-6.327213">
        <ele>9.286</ele>
        <time>2015-06-18T10:59:15Z</time>
      </trkpt>
      <trkpt lat="36.819232" lon="-6.327285">
        <ele>8.832</ele>
        <time>2015-06-18T10:59:16Z</time>
      </trkpt>
      <trkpt lat="36.819241" lon="-6.327354">
        <ele>8.491</ele>
        <time>2015-06-18T10:59:17Z</time>
      </trkpt>
      <trkpt lat="36.819243" lon="-6.327420">
        <ele>8.014</ele>
        <time>2015-06-18T10:59:18Z</time>
      </trkpt>
      <trkpt lat="36.819245" lon="-6.327487">
        <ele>7.416</ele>
        <time>2015-06-18T10:59:19Z</time>
      </trkpt>
      <trkpt lat="36.819249" lon="-6.327555">
        <ele>8.229</ele>
        <time>2015-06-18T10:59:20Z</time>
      </trkpt>
      <trkpt lat="36.819250" lon="-6.327621">
        <ele>8.883</ele>
        <time>2015-06-18T10:59:21Z</time>
      </trkpt>
      <trkpt lat="36.819255" lon="-6.327689">
        <ele>9.295</ele>
        <time>2015-06-18T10:59:22Z</time>
      </trkpt>
      <trkpt lat="36.819261" lon="-6.327756">
        <ele>9.649</ele>
        <time>2015-06-18T10:59:23Z</time>
      </trkpt>
      <trkpt lat="36.819266" lon="-6.328033">
        <ele>10.023</ele>
        <time>2015-06-18T10:59:27Z</time>
      </trkpt>
      <trkpt lat="36.819271" lon="-6.328100">
        <ele>10.408</ele>
        <time>2015-06-18T10:59:28Z</time>
      </trkpt>
      <trkpt lat="36.819275" lon="-6.328176">
        <ele>10.860</ele>
        <time>2015-06-18T10:59:29Z</time>
      </trkpt>
      <trkpt lat="36.819280" lon="-6.328235">
        <ele>11.266</ele>
        <time>2015-06-18T10:59:30Z</time>
      </trkpt>
      <trkpt lat="36.819285" lon="-6.328304">
        <ele>11.622</ele>
        <time>2015-06-18T10:59:31Z</time>
      </trkpt>
      <trkpt lat="36.819294" lon="-6.328517">
        <ele>11.621</ele>
        <time>2015-06-18T10:59:34Z</time>
      </trkpt>
      <trkpt lat="36.819315" lon="-6.329101">
        <ele>11.674</ele>
        <time>2015-06-18T10:59:42Z</time>
      </trkpt>
      <trkpt lat="36.819340" lon="-6.329655">
        <ele>11.686</ele>
        <time>2015-06-18T10:59:49Z</time>
      </trkpt>
      <trkpt lat="36.819355" lon="-6.330153">
        <ele>11.659</ele>
        <time>2015-06-18T10:59:55Z</time>
      </trkpt>
      <trkpt lat="36.819354" lon="-6.330399">
        <ele>11.653</ele>
        <time>2015-06-18T10:59:58Z</time>
      </trkpt>
      <trkpt lat="36.819355" lon="-6.330981">
        <ele>11.689</ele>
        <time>2015-06-18T11:00:05Z</time>
      </trkpt>
      <trkpt lat="36.819288" lon="-6.331462">
        <ele>11.206</ele>
        <time>2015-06-18T11:00:11Z</time>
      </trkpt>
      <trkpt lat="36.819268" lon="-6.331540">
        <ele>10.826</ele>
        <time>2015-06-18T11:00:12Z</time>
      </trkpt>
      <trkpt lat="36.819246" lon="-6.331619">
        <ele>10.408</ele>
        <time>2015-06-18T11:00:13Z</time>
      </trkpt>
      <trkpt lat="36.819226" lon="-6.331692">
        <ele>10.099</ele>
        <time>2015-06-18T11:00:14Z</time>
      </trkpt>
      <trkpt lat="36.819202" lon="-6.331769">
        <ele>9.615</ele>
        <time>2015-06-18T11:00:15Z</time>
      </trkpt>
      <trkpt lat="36.819087" lon="-6.332137">
        <ele>9.691</ele>
        <time>2015-06-18T11:00:20Z</time>
      </trkpt>
      <trkpt lat="36.818874" lon="-6.332768">
        <ele>9.650</ele>
        <time>2015-06-18T11:00:29Z</time>
      </trkpt>
      <trkpt lat="36.818852" lon="-6.332833">
        <ele>9.673</ele>
        <time>2015-06-18T11:00:30Z</time>
      </trkpt>
      <trkpt lat="36.818728" lon="-6.333225">
        <ele>9.645</ele>
        <time>2015-06-18T11:00:36Z</time>
      </trkpt>
      <trkpt lat="36.818683" lon="-6.333346">
        <ele>9.678</ele>
        <time>2015-06-18T11:00:38Z</time>
      </trkpt>
      <trkpt lat="36.818484" lon="-6.333852">
        <ele>9.642</ele>
        <time>2015-06-18T11:00:46Z</time>
      </trkpt>
      <trkpt lat="36.818250" lon="-6.334254">
        <ele>9.616</ele>
        <time>2015-06-18T11:00:53Z</time>
      </trkpt>
      <trkpt lat="36.817895" lon="-6.334674">
        <ele>9.676</ele>
        <time>2015-06-18T11:01:02Z</time>
      </trkpt>
      <trkpt lat="36.817665" lon="-6.334895">
        <ele>9.213</ele>
        <time>2015-06-18T11:01:07Z</time>
      </trkpt>
      <trkpt lat="36.817614" lon="-6.334935">
        <ele>8.808</ele>
        <time>2015-06-18T11:01:08Z</time>
      </trkpt>
      <trkpt lat="36.817561" lon="-6.334969">
        <ele>8.442</ele>
        <time>2015-06-18T11:01:09Z</time>
      </trkpt>
      <trkpt lat="36.817510" lon="-6.335001">
        <ele>8.048</ele>
        <time>2015-06-18T11:01:10Z</time>
      </trkpt>
      <trkpt lat="36.817447" lon="-6.335026">
        <ele>7.674</ele>
        <time>2015-06-18T11:01:11Z</time>
      </trkpt>
      <trkpt lat="36.817330" lon="-6.335073">
        <ele>7.623</ele>
        <time>2015-06-18T11:01:13Z</time>
      </trkpt>
      <trkpt lat="36.817207" lon="-6.335107">
        <ele>7.666</ele>
        <time>2015-06-18T11:01:15Z</time>
      </trkpt>
      <trkpt lat="36.816763" lon="-6.335182">
        <ele>7.618</ele>
        <time>2015-06-18T11:01:22Z</time>
      </trkpt>
      <trkpt lat="36.816326" lon="-6.335234">
        <ele>7.631</ele>
        <time>2015-06-18T11:01:29Z</time>
      </trkpt>
      <trkpt lat="36.816264" lon="-6.335239">
        <ele>7.645</ele>
        <time>2015-06-18T11:01:30Z</time>
      </trkpt>
      <trkpt lat="36.815763" lon="-6.335221">
        <ele>7.615</ele>
        <time>2015-06-18T11:01:38Z</time>
      </trkpt>
      <trkpt lat="36.815261" lon="-6.335117">
        <ele>7.665</ele>
        <time>2015-06-18T11:01:46Z</time>
      </trkpt>
      <trkpt lat="36.814798" lon="-6.334989">
        <ele>7.611</ele>
        <time>2015-06-18T11:01:54Z</time>
      </trkpt>
      <trkpt lat="36.814336" lon="-6.334846">
        <ele>7.608</ele>
        <time>2015-06-18T11:02:02Z</time>
      </trkpt>
      <trkpt lat="36.813814" lon="-6.334701">
        <ele>7.632</ele>
        <time>2015-06-18T11:02:11Z</time>
      </trkpt>
      <trkpt lat="36.813241" lon="-6.334525">
        <ele>7.658</ele>
        <time>2015-06-18T11:02:21Z</time>
      </trkpt>
      <trkpt lat="36.813186" lon="-6.334509">
        <ele>7.664</ele>
        <time>2015-06-18T11:02:22Z</time>
      </trkpt>
      <trkpt lat="36.812691" lon="-6.334370">
        <ele>7.613</ele>
        <time>2015-06-18T11:02:31Z</time>
      </trkpt>
      <trkpt lat="36.812322" lon="-6.334305">
        <ele>7.696</ele>
        <time>2015-06-18T11:02:38Z</time>
      </trkpt>
      <trkpt lat="36.812001" lon="-6.334258">
        <ele>7.658</ele>
        <time>2015-06-18T11:02:44Z</time>
      </trkpt>
      <trkpt lat="36.811841" lon="-6.334244">
        <ele>7.691</ele>
        <time>2015-06-18T11:02:47Z</time>
      </trkpt>
      <trkpt lat="36.811455" lon="-6.334244">
        <ele>7.615</ele>
        <time>2015-06-18T11:02:54Z</time>
      </trkpt>
      <trkpt lat="36.811017" lon="-6.334283">
        <ele>7.658</ele>
        <time>2015-06-18T11:03:02Z</time>
      </trkpt>
      <trkpt lat="36.810635" lon="-6.334310">
        <ele>7.652</ele>
        <time>2015-06-18T11:03:09Z</time>
      </trkpt>
      <trkpt lat="36.810256" lon="-6.334335">
        <ele>7.617</ele>
        <time>2015-06-18T11:03:16Z</time>
      </trkpt>
      <trkpt lat="36.809967" lon="-6.334349">
        <ele>7.608</ele>
        <time>2015-06-18T11:03:22Z</time>
      </trkpt>
      <trkpt lat="36.809911" lon="-6.334354">
        <ele>7.286</ele>
        <time>2015-06-18T11:03:24Z</time>
      </trkpt>
      <trkpt lat="36.809877" lon="-6.334355">
        <ele>6.892</ele>
        <time>2015-06-18T11:03:25Z</time>
      </trkpt>
      <trkpt lat="36.809840" lon="-6.334360">
        <ele>6.468</ele>
        <time>2015-06-18T11:03:26Z</time>
      </trkpt>
      <trkpt lat="36.809807" lon="-6.334366">
        <ele>6.647</ele>
        <time>2015-06-18T11:03:27Z</time>
      </trkpt>
      <trkpt lat="36.809772" lon="-6.334369">
        <ele>7.050</ele>
        <time>2015-06-18T11:03:28Z</time>
      </trkpt>
      <trkpt lat="36.809735" lon="-6.334370">
        <ele>7.242</ele>
        <time>2015-06-18T11:03:29Z</time>
      </trkpt>
      <trkpt lat="36.809697" lon="-6.334370">
        <ele>7.675</ele>
        <time>2015-06-18T11:03:30Z</time>
      </trkpt>
      <trkpt lat="36.809658" lon="-6.334369">
        <ele>8.069</ele>
        <time>2015-06-18T11:03:31Z</time>
      </trkpt>
      <trkpt lat="36.809424" lon="-6.334397">
        <ele>8.062</ele>
        <time>2015-06-18T11:03:36Z</time>
      </trkpt>
      <trkpt lat="36.809373" lon="-6.334399">
        <ele>8.083</ele>
        <time>2015-06-18T11:03:37Z</time>
      </trkpt>
      <trkpt lat="36.809170" lon="-6.334414">
        <ele>7.411</ele>
        <time>2015-06-18T11:03:41Z</time>
      </trkpt>
      <trkpt lat="36.809118" lon="-6.334413">
        <ele>7.008</ele>
        <time>2015-06-18T11:03:42Z</time>
      </trkpt>
      <trkpt lat="36.809064" lon="-6.334416">
        <ele>6.677</ele>
        <time>2015-06-18T11:03:43Z</time>
      </trkpt>
      <trkpt lat="36.809013" lon="-6.334421">
        <ele>6.023</ele>
        <time>2015-06-18T11:03:44Z</time>
      </trkpt>
      <trkpt lat="36.808960" lon="-6.334422">
        <ele>6.479</ele>
        <time>2015-06-18T11:03:45Z</time>
      </trkpt>
      <trkpt lat="36.808908" lon="-6.334427">
        <ele>6.888</ele>
        <time>2015-06-18T11:03:46Z</time>
      </trkpt>
      <trkpt lat="36.808856" lon="-6.334429">
        <ele>7.261</ele>
        <time>2015-06-18T11:03:47Z</time>
      </trkpt>
      <trkpt lat="36.808803" lon="-6.334433">
        <ele>7.413</ele>
        <time>2015-06-18T11:03:48Z</time>
      </trkpt>
      <trkpt lat="36.808752" lon="-6.334439">
        <ele>7.866</ele>
        <time>2015-06-18T11:03:49Z</time>
      </trkpt>
      <trkpt lat="36.808647" lon="-6.334445">
        <ele>7.840</ele>
        <time>2015-06-18T11:03:51Z</time>
      </trkpt>
      <trkpt lat="36.808147" lon="-6.334474">
        <ele>7.836</ele>
        <time>2015-06-18T11:04:00Z</time>
      </trkpt>
      <trkpt lat="36.807576" lon="-6.334514">
        <ele>7.817</ele>
        <time>2015-06-18T11:04:10Z</time>
      </trkpt>
      <trkpt lat="36.807231" lon="-6.334608">
        <ele>7.818</ele>
        <time>2015-06-18T11:04:16Z</time>
      </trkpt>
      <trkpt lat="36.806683" lon="-6.334811">
        <ele>7.808</ele>
        <time>2015-06-18T11:04:25Z</time>
      </trkpt>
      <trkpt lat="36.806321" lon="-6.334947">
        <ele>7.844</ele>
        <time>2015-06-18T11:04:31Z</time>
      </trkpt>
      <trkpt lat="36.806203" lon="-6.334985">
        <ele>7.860</ele>
        <time>2015-06-18T11:04:33Z</time>
      </trkpt>
      <trkpt lat="36.805965" lon="-6.335050">
        <ele>7.836</ele>
        <time>2015-06-18T11:04:37Z</time>
      </trkpt>
      <trkpt lat="36.805515" lon="-6.335173">
        <ele>7.865</ele>
        <time>2015-06-18T11:04:45Z</time>
      </trkpt>
      <trkpt lat="36.805120" lon="-6.335260">
        <ele>7.868</ele>
        <time>2015-06-18T11:04:53Z</time>
      </trkpt>
      <trkpt lat="36.804769" lon="-6.335343">
        <ele>7.850</ele>
        <time>2015-06-18T11:05:00Z</time>
      </trkpt>
      <trkpt lat="36.804434" lon="-6.335413">
        <ele>7.823</ele>
        <time>2015-06-18T11:05:06Z</time>
      </trkpt>
      <trkpt lat="36.803982" lon="-6.335506">
        <ele>7.867</ele>
        <time>2015-06-18T11:05:14Z</time>
      </trkpt>
      <trkpt lat="36.803517" lon="-6.335606">
        <ele>7.867</ele>
        <time>2015-06-18T11:05:22Z</time>
      </trkpt>
      <trkpt lat="36.803458" lon="-6.335614">
        <ele>7.881</ele>
        <time>2015-06-18T11:05:23Z</time>
      </trkpt>
      <trkpt lat="36.803235" lon="-6.335615">
        <ele>7.819</ele>
        <time>2015-06-18T11:05:27Z</time>
      </trkpt>
      <trkpt lat="36.803178" lon="-6.335623">
        <ele>7.808</ele>
        <time>2015-06-18T11:05:28Z</time>
      </trkpt>
      <trkpt lat="36.802958" lon="-6.335683">
        <ele>7.897</ele>
        <time>2015-06-18T11:05:32Z</time>
      </trkpt>
      <trkpt lat="36.802592" lon="-6.335776">
        <ele>7.883</ele>
        <time>2015-06-18T11:05:39Z</time>
      </trkpt>
      <trkpt lat="36.802217" lon="-6.335874">
        <ele>7.849</ele>
        <time>2015-06-18T11:05:46Z</time>
      </trkpt>
      <trkpt lat="36.801786" lon="-6.335984">
        <ele>7.868</ele>
        <time>2015-06-18T11:05:54Z</time>
      </trkpt>
      <trkpt lat="36.801357" lon="-6.336096">
        <ele>7.861</ele>
        <time>2015-06-18T11:06:02Z</time>
      </trkpt>
      <trkpt lat="36.800978" lon="-6.336214">
        <ele>7.893</ele>
        <time>2015-06-18T11:06:09Z</time>
      </trkpt>
      <trkpt lat="36.800873" lon="-6.336247">
        <ele>8.236</ele>
        <time>2015-06-18T11:06:11Z</time>
      </trkpt>
      <trkpt lat="36.800823" lon="-6.336266">
        <ele>8.860</ele>
        <time>2015-06-18T11:06:12Z</time>
      </trkpt>
      <trkpt lat="36.800770" lon="-6.336281">
        <ele>9.283</ele>
        <time>2015-06-18T11:06:13Z</time>
      </trkpt>
      <trkpt lat="36.800717" lon="-6.336301">
        <ele>9.625</ele>
        <time>2015-06-18T11:06:14Z</time>
      </trkpt>
      <trkpt lat="36.800665" lon="-6.336316">
        <ele>10.017</ele>
        <time>2015-06-18T11:06:15Z</time>
      </trkpt>
      <trkpt lat="36.800558" lon="-6.336345">
        <ele>10.008</ele>
        <time>2015-06-18T11:06:17Z</time>
      </trkpt>
      <trkpt lat="36.800160" lon="-6.336439">
        <ele>10.019</ele>
        <time>2015-06-18T11:06:25Z</time>
      </trkpt>
      <trkpt lat="36.799858" lon="-6.336535">
        <ele>10.085</ele>
        <time>2015-06-18T11:06:31Z</time>
      </trkpt>
      <trkpt lat="36.799343" lon="-6.336687">
        <ele>10.031</ele>
        <time>2015-06-18T11:06:41Z</time>
      </trkpt>
      <trkpt lat="36.798985" lon="-6.336806">
        <ele>10.050</ele>
        <time>2015-06-18T11:06:48Z</time>
      </trkpt>
      <trkpt lat="36.798689" lon="-6.336872">
        <ele>10.053</ele>
        <time>2015-06-18T11:06:54Z</time>
      </trkpt>
      <trkpt lat="36.798386" lon="-6.336949">
        <ele>10.085</ele>
        <time>2015-06-18T11:07:00Z</time>
      </trkpt>
      <trkpt lat="36.798333" lon="-6.336973">
        <ele>10.038</ele>
        <time>2015-06-18T11:07:01Z</time>
      </trkpt>
      <trkpt lat="36.798173" lon="-6.337013">
        <ele>10.032</ele>
        <time>2015-06-18T11:07:04Z</time>
      </trkpt>
      <trkpt lat="36.798072" lon="-6.337036">
        <ele>10.017</ele>
        <time>2015-06-18T11:07:06Z</time>
      </trkpt>
      <trkpt lat="36.797916" lon="-6.337078">
        <ele>10.087</ele>
        <time>2015-06-18T11:07:09Z</time>
      </trkpt>
      <trkpt lat="36.797560" lon="-6.337169">
        <ele>10.015</ele>
        <time>2015-06-18T11:07:16Z</time>
      </trkpt>
      <trkpt lat="36.797252" lon="-6.337233">
        <ele>10.008</ele>
        <time>2015-06-18T11:07:22Z</time>
      </trkpt>
      <trkpt lat="36.796995" lon="-6.337304">
        <ele>10.482</ele>
        <time>2015-06-18T11:07:27Z</time>
      </trkpt>
      <trkpt lat="36.796943" lon="-6.337311">
        <ele>10.828</ele>
        <time>2015-06-18T11:07:28Z</time>
      </trkpt>
      <trkpt lat="36.796890" lon="-6.337317">
        <ele>11.224</ele>
        <time>2015-06-18T11:07:29Z</time>
      </trkpt>
      <trkpt lat="36.796835" lon="-6.337317">
        <ele>11.863</ele>
        <time>2015-06-18T11:07:30Z</time>
      </trkpt>
      <trkpt lat="36.796782" lon="-6.337314">
        <ele>12.216</ele>
        <time>2015-06-18T11:07:31Z</time>
      </trkpt>
      <trkpt lat="36.796350" lon="-6.337273">
        <ele>12.238</ele>
        <time>2015-06-18T11:07:39Z</time>
      </trkpt>
      <trkpt lat="36.796019" lon="-6.337237">
        <ele>12.271</ele>
        <time>2015-06-18T11:07:45Z</time>
      </trkpt>
      <trkpt lat="36.795589" lon="-6.337207">
        <ele>12.215</ele>
        <time>2015-06-18T11:07:53Z</time>
      </trkpt>
      <trkpt lat="36.795311" lon="-6.337185">
        <ele>12.287</ele>
        <time>2015-06-18T11:07:58Z</time>
      </trkpt>
      <trkpt lat="36.795199" lon="-6.337176">
        <ele>12.242</ele>
        <time>2015-06-18T11:08:00Z</time>
      </trkpt>
      <trkpt lat="36.794609" lon="-6.337117">
        <ele>12.226</ele>
        <time>2015-06-18T11:08:10Z</time>
      </trkpt>
      <trkpt lat="36.794060" lon="-6.337060">
        <ele>12.208</ele>
        <time>2015-06-18T11:08:19Z</time>
      </trkpt>
      <trkpt lat="36.793578" lon="-6.337010">
        <ele>12.269</ele>
        <time>2015-06-18T11:08:27Z</time>
      </trkpt>
      <trkpt lat="36.793287" lon="-6.336985">
        <ele>12.225</ele>
        <time>2015-06-18T11:08:32Z</time>
      </trkpt>
      <trkpt lat="36.793224" lon="-6.336975">
        <ele>12.221</ele>
        <time>2015-06-18T11:08:33Z</time>
      </trkpt>
      <trkpt lat="36.792953" lon="-6.336964">
        <ele>12.250</ele>
        <time>2015-06-18T11:08:38Z</time>
      </trkpt>
      <trkpt lat="36.792901" lon="-6.336971">
        <ele>12.213</ele>
        <time>2015-06-18T11:08:39Z</time>
      </trkpt>
      <trkpt lat="36.792801" lon="-6.336997">
        <ele>12.215</ele>
        <time>2015-06-18T11:08:41Z</time>
      </trkpt>
      <trkpt lat="36.792665" lon="-6.337048">
        <ele>12.228</ele>
        <time>2015-06-18T11:08:44Z</time>
      </trkpt>
      <trkpt lat="36.792624" lon="-6.337071">
        <ele>12.282</ele>
        <time>2015-06-18T11:08:45Z</time>
      </trkpt>
      <trkpt lat="36.792331" lon="-6.337299">
        <ele>12.275</ele>
        <time>2015-06-18T11:08:52Z</time>
      </trkpt>
      <trkpt lat="36.792092" lon="-6.337468">
        <ele>12.228</ele>
        <time>2015-06-18T11:08:57Z</time>
      </trkpt>
      <trkpt lat="36.791943" lon="-6.337573">
        <ele>12.220</ele>
        <time>2015-06-18T11:09:00Z</time>
      </trkpt>
      <trkpt lat="36.791569" lon="-6.337826">
        <ele>12.208</ele>
        <time>2015-06-18T11:09:07Z</time>
      </trkpt>
      <trkpt lat="36.791062" lon="-6.338188">
        <ele>12.248</ele>
        <time>2015-06-18T11:09:16Z</time>
      </trkpt>
      <trkpt lat="36.791006" lon="-6.338231">
        <ele>12.254</ele>
        <time>2015-06-18T11:09:17Z</time>
      </trkpt>
      <trkpt lat="36.790560" lon="-6.338548">
        <ele>12.290</ele>
        <time>2015-06-18T11:09:25Z</time>
      </trkpt>
      <trkpt lat="36.790381" lon="-6.338666">
        <ele>12.219</ele>
        <time>2015-06-18T11:09:28Z</time>
      </trkpt>
      <trkpt lat="36.790276" lon="-6.338750">
        <ele>12.272</ele>
        <time>2015-06-18T11:09:30Z</time>
      </trkpt>
      <trkpt lat="36.789840" lon="-6.339060">
        <ele>12.284</ele>
        <time>2015-06-18T11:09:38Z</time>
      </trkpt>
      <trkpt lat="36.789517" lon="-6.339280">
        <ele>12.257</ele>
        <time>2015-06-18T11:09:44Z</time>
      </trkpt>
      <trkpt lat="36.789192" lon="-6.339506">
        <ele>12.211</ele>
        <time>2015-06-18T11:09:50Z</time>
      </trkpt>
      <trkpt lat="36.788762" lon="-6.339803">
        <ele>12.297</ele>
        <time>2015-06-18T11:09:58Z</time>
      </trkpt>
      <trkpt lat="36.788657" lon="-6.339878">
        <ele>12.623</ele>
        <time>2015-06-18T11:10:00Z</time>
      </trkpt>
      <trkpt lat="36.788607" lon="-6.339913">
        <ele>13.025</ele>
        <time>2015-06-18T11:10:01Z</time>
      </trkpt>
      <trkpt lat="36.788555" lon="-6.339951">
        <ele>13.408</ele>
        <time>2015-06-18T11:10:02Z</time>
      </trkpt>
      <trkpt lat="36.788505" lon="-6.339993">
        <ele>13.870</ele>
        <time>2015-06-18T11:10:03Z</time>
      </trkpt>
      <trkpt lat="36.788455" lon="-6.340038">
        <ele>14.226</ele>
        <time>2015-06-18T11:10:04Z</time>
      </trkpt>
      <trkpt lat="36.788403" lon="-6.340083">
        <ele>14.252</ele>
        <time>2015-06-18T11:10:05Z</time>
      </trkpt>
      <trkpt lat="36.788079" lon="-6.340403">
        <ele>14.261</ele>
        <time>2015-06-18T11:10:11Z</time>
      </trkpt>
      <trkpt lat="36.787744" lon="-6.340744">
        <ele>14.294</ele>
        <time>2015-06-18T11:10:17Z</time>
      </trkpt>
      <trkpt lat="36.787394" lon="-6.341113">
        <ele>14.266</ele>
        <time>2015-06-18T11:10:23Z</time>
      </trkpt>
      <trkpt lat="36.787090" lon="-6.341486">
        <ele>14.249</ele>
        <time>2015-06-18T11:10:29Z</time>
      </trkpt>
      <trkpt lat="36.787089" lon="-6.341555">
        <ele>14.213</ele>
        <time>2015-06-18T11:10:30Z</time>
      </trkpt>
      <trkpt lat="36.787088" lon="-6.341761">
        <ele>14.237</ele>
        <time>2015-06-18T11:10:33Z</time>
      </trkpt>
      <trkpt lat="36.786986" lon="-6.341807">
        <ele>14.249</ele>
        <time>2015-06-18T11:10:35Z</time>
      </trkpt>
      <trkpt lat="36.786858" lon="-6.341812">
        <ele>14.213</ele>
        <time>2015-06-18T11:10:38Z</time>
      </trkpt>
      <trkpt lat="36.786806" lon="-6.341916">
        <ele>14.208</ele>
        <time>2015-06-18T11:10:40Z</time>
      </trkpt>
      <trkpt lat="36.786774" lon="-6.341961">
        <ele>14.294</ele>
        <time>2015-06-18T11:10:41Z</time>
      </trkpt>
      <trkpt lat="36.786517" lon="-6.342318">
        <ele>14.250</ele>
        <time>2015-06-18T11:10:49Z</time>
      </trkpt>
      <trkpt lat="36.786421" lon="-6.342455">
        <ele>14.286</ele>
        <time>2015-06-18T11:10:52Z</time>
      </trkpt>
      <trkpt lat="36.786317" lon="-6.342591">
        <ele>14.275</ele>
        <time>2015-06-18T11:10:55Z</time>
      </trkpt>
      <trkpt lat="36.786075" lon="-6.342905">
        <ele>14.298</ele>
        <time>2015-06-18T11:11:01Z</time>
      </trkpt>
      <trkpt lat="36.786033" lon="-6.342969">
        <ele>14.210</ele>
        <time>2015-06-18T11:11:02Z</time>
      </trkpt>
      <trkpt lat="36.785829" lon="-6.343232">
        <ele>14.213</ele>
        <time>2015-06-18T11:11:07Z</time>
      </trkpt>
      <trkpt lat="36.785762" lon="-6.343338">
        <ele>14.287</ele>
        <time>2015-06-18T11:11:09Z</time>
      </trkpt>
      <trkpt lat="36.785612" lon="-6.343540">
        <ele>13.856</ele>
        <time>2015-06-18T11:11:13Z</time>
      </trkpt>
      <trkpt lat="36.785581" lon="-6.343587">
        <ele>13.459</ele>
        <time>2015-06-18T11:11:14Z</time>
      </trkpt>
      <trkpt lat="36.785548" lon="-6.343636">
        <ele>13.014</ele>
        <time>2015-06-18T11:11:15Z</time>
      </trkpt>
      <trkpt lat="36.785516" lon="-6.343684">
        <ele>12.408</ele>
        <time>2015-06-18T11:11:16Z</time>
      </trkpt>
      <trkpt lat="36.785484" lon="-6.343729">
        <ele>12.096</ele>
        <time>2015-06-18T11:11:17Z</time>
      </trkpt>
      <trkpt lat="36.785309" lon="-6.343990">
        <ele>12.042</ele>
        <time>2015-06-18T11:11:23Z</time>
      </trkpt>
      <trkpt lat="36.785153" lon="-6.344200">
        <ele>12.038</ele>
        <time>2015-06-18T11:11:28Z</time>
      </trkpt>
      <trkpt lat="36.785136" lon="-6.344260">
        <ele>12.037</ele>
        <time>2015-06-18T11:11:29Z</time>
      </trkpt>
      <trkpt lat="36.785055" lon="-6.344571">
        <ele>12.020</ele>
        <time>2015-06-18T11:11:34Z</time>
      </trkpt>
      <trkpt lat="36.784950" lon="-6.344865">
        <ele>12.042</ele>
        <time>2015-06-18T11:11:39Z</time>
      </trkpt>
      <trkpt lat="36.784923" lon="-6.344914">
        <ele>12.025</ele>
        <time>2015-06-18T11:11:40Z</time>
      </trkpt>
      <trkpt lat="36.784836" lon="-6.345093">
        <ele>12.069</ele>
        <time>2015-06-18T11:11:43Z</time>
      </trkpt>
      <trkpt lat="36.784804" lon="-6.345161">
        <ele>12.042</ele>
        <time>2015-06-18T11:11:44Z</time>
      </trkpt>
      <trkpt lat="36.784724" lon="-6.345348">
        <ele>12.022</ele>
        <time>2015-06-18T11:11:47Z</time>
      </trkpt>
      <trkpt lat="36.784643" lon="-6.345523">
        <ele>12.014</ele>
        <time>2015-06-18T11:11:50Z</time>
      </trkpt>
      <trkpt lat="36.784584" lon="-6.345622">
        <ele>12.008</ele>
        <time>2015-06-18T11:11:52Z</time>
      </trkpt>
      <trkpt lat="36.784460" lon="-6.345775">
        <ele>12.085</ele>
        <time>2015-06-18T11:11:56Z</time>
      </trkpt>
      <trkpt lat="36.784349" lon="-6.346008">
        <ele>12.031</ele>
        <time>2015-06-18T11:12:02Z</time>
      </trkpt>
      <trkpt lat="36.784312" lon="-6.346117">
        <ele>12.077</ele>
        <time>2015-06-18T11:12:05Z</time>
      </trkpt>
      <trkpt lat="36.784260" lon="-6.346220">
        <ele>12.086</ele>
        <time>2015-06-18T11:12:08Z</time>
      </trkpt>
      <trkpt lat="36.784150" lon="-6.346390">
        <ele>12.049</ele>
        <time>2015-06-18T11:12:13Z</time>
      </trkpt>
      <trkpt lat="36.784058" lon="-6.346559">
        <ele>11.221</ele>
        <time>2015-06-18T11:12:18Z</time>
      </trkpt>
      <trkpt lat="36.784037" lon="-6.346595">
        <ele>10.874</ele>
        <time>2015-06-18T11:12:19Z</time>
      </trkpt>
      <trkpt lat="36.784011" lon="-6.346633">
        <ele>10.418</ele>
        <time>2015-06-18T11:12:20Z</time>
      </trkpt>
      <trkpt lat="36.783988" lon="-6.346671">
        <ele>10.053</ele>
        <time>2015-06-18T11:12:21Z</time>
      </trkpt>
      <trkpt lat="36.783931" lon="-6.346820">
        <ele>10.004</ele>
        <time>2015-06-18T11:12:24Z</time>
      </trkpt>
      <trkpt lat="36.783829" lon="-6.347036">
        <ele>10.014</ele>
        <time>2015-06-18T11:12:30Z</time>
      </trkpt>
      <trkpt lat="36.783783" lon="-6.347228">
        <ele>10.008</ele>
        <time>2015-06-18T11:12:35Z</time>
      </trkpt>
      <trkpt lat="36.783880" lon="-6.347376">
        <ele>10.036</ele>
        <time>2015-06-18T11:12:39Z</time>
      </trkpt>
      <trkpt lat="36.784099" lon="-6.347564">
        <ele>10.032</ele>
        <time>2015-06-18T11:12:45Z</time>
      </trkpt>
      <trkpt lat="36.784289" lon="-6.347731">
        <ele>10.028</ele>
        <time>2015-06-18T11:12:50Z</time>
      </trkpt>
      <trkpt lat="36.784349" lon="-6.347776">
        <ele>10.097</ele>
        <time>2015-06-18T11:12:52Z</time>
      </trkpt>
      <trkpt lat="36.784404" lon="-6.347829">
        <ele>10.060</ele>
        <time>2015-06-18T11:12:56Z</time>
      </trkpt>
      <trkpt lat="36.784458" lon="-6.347866">
        <ele>10.082</ele>
        <time>2015-06-18T11:12:59Z</time>
      </trkpt>
      <trkpt lat="36.784550" lon="-6.347913">
        <ele>10.025</ele>
        <time>2015-06-18T11:13:02Z</time>
      </trkpt>
      <trkpt lat="36.784824" lon="-6.348141">
        <ele>10.079</ele>
        <time>2015-06-18T11:13:10Z</time>
      </trkpt>
      <trkpt lat="36.784883" lon="-6.348274">
        <ele>10.068</ele>
        <time>2015-06-18T11:13:13Z</time>
      </trkpt>
      <trkpt lat="36.784862" lon="-6.348368">
        <ele>10.042</ele>
        <time>2015-06-18T11:13:15Z</time>
      </trkpt>
      <trkpt lat="36.784669" lon="-6.348556">
        <ele>10.026</ele>
        <time>2015-06-18T11:13:19Z</time>
      </trkpt>
      <trkpt lat="36.784497" lon="-6.348726">
        <ele>10.008</ele>
        <time>2015-06-18T11:13:23Z</time>
      </trkpt>
      <trkpt lat="36.784402" lon="-6.348864">
        <ele>10.097</ele>
        <time>2015-06-18T11:13:26Z</time>
      </trkpt>
      <trkpt lat="36.784204" lon="-6.349141">
        <ele>10.053</ele>
        <time>2015-06-18T11:13:32Z</time>
      </trkpt>
      <trkpt lat="36.783965" lon="-6.349425">
        <ele>10.069</ele>
        <time>2015-06-18T11:13:39Z</time>
      </trkpt>
      <trkpt lat="36.783843" lon="-6.349552">
        <ele>10.078</ele>
        <time>2015-06-18T11:13:44Z</time>
      </trkpt>
      <trkpt lat="36.783824" lon="-6.349568">
        <ele>10.041</ele>
        <time>2015-06-18T11:13:45Z</time>
      </trkpt>
      <trkpt lat="36.783720" lon="-6.349741">
        <ele>10.073</ele>
        <time>2015-06-18T11:13:52Z</time>
      </trkpt>
      <trkpt lat="36.783670" lon="-6.349863">
        <ele>10.086</ele>
        <time>2015-06-18T11:13:57Z</time>
      </trkpt>
      <trkpt lat="36.783676" lon="-6.349896">
        <ele>10.020</ele>
        <time>2015-06-18T11:13:58Z</time>
      </trkpt>
      <trkpt lat="36.783738" lon="-6.350004">
        <ele>10.088</ele>
        <time>2015-06-18T11:14:02Z</time>
      </trkpt>
      <trkpt lat="36.783768" lon="-6.350034">
        <ele>10.024</ele>
        <time>2015-06-18T11:14:03Z</time>
      </trkpt>
      <trkpt lat="36.783795" lon="-6.350063">
        <ele>10.426</ele>
        <time>2015-06-18T11:14:04Z</time>
      </trkpt>
      <trkpt lat="36.783823" lon="-6.350085">
        <ele>10.808</ele>
        <time>2015-06-18T11:14:05Z</time>
      </trkpt>
      <trkpt lat="36.783847" lon="-6.350116">
        <ele>11.289</ele>
        <time>2015-06-18T11:14:06Z</time>
      </trkpt>
      <trkpt lat="36.783878" lon="-6.350148">
        <ele>11.685</ele>
        <time>2015-06-18T11:14:07Z</time>
      </trkpt>
      <trkpt lat="36.783905" lon="-6.350181">
        <ele>12.021</ele>
        <time>2015-06-18T11:14:08Z</time>
      </trkpt>
      <trkpt lat="36.783934" lon="-6.350209">
        <ele>12.090</ele>
        <time>2015-06-18T11:14:09Z</time>
      </trkpt>
      <trkpt lat="36.784046" lon="-6.350298">
        <ele>12.083</ele>
        <time>2015-06-18T11:14:13Z</time>
      </trkpt>
      <trkpt lat="36.784208" lon="-6.350491">
        <ele>12.095</ele>
        <time>2015-06-18T11:14:19Z</time>
      </trkpt>
      <trkpt lat="36.784269" lon="-6.350609">
        <ele>12.068</ele>
        <time>2015-06-18T11:14:22Z</time>
      </trkpt>
      <trkpt lat="36.784273" lon="-6.350660">
        <ele>12.092</ele>
        <time>2015-06-18T11:14:23Z</time>
      </trkpt>
      <trkpt lat="36.784361" lon="-6.350799">
        <ele>12.052</ele>
        <time>2015-06-18T11:14:27Z</time>
      </trkpt>
      <trkpt lat="36.784426" lon="-6.350867">
        <ele>12.053</ele>
        <time>2015-06-18T11:14:29Z</time>
      </trkpt>
      <trkpt lat="36.784502" lon="-6.350924">
        <ele>12.008</ele>
        <time>2015-06-18T11:14:31Z</time>
      </trkpt>
      <trkpt lat="36.784541" lon="-6.350941">
        <ele>12.008</ele>
        <time>2015-06-18T11:14:32Z</time>
      </trkpt>
      <trkpt lat="36.784708" lon="-6.351063">
        <ele>12.086</ele>
        <time>2015-06-18T11:14:36Z</time>
      </trkpt>
      <trkpt lat="36.784770" lon="-6.351182">
        <ele>12.062</ele>
        <time>2015-06-18T11:14:38Z</time>
      </trkpt>
      <trkpt lat="36.784902" lon="-6.351337">
        <ele>12.088</ele>
        <time>2015-06-18T11:14:41Z</time>
      </trkpt>
      <trkpt lat="36.785277" lon="-6.351632">
        <ele>12.017</ele>
        <time>2015-06-18T11:14:48Z</time>
      </trkpt>
      <trkpt lat="36.785533" lon="-6.351663">
        <ele>12.090</ele>
        <time>2015-06-18T11:14:52Z</time>
      </trkpt>
      <trkpt lat="36.785603" lon="-6.351659">
        <ele>12.012</ele>
        <time>2015-06-18T11:14:53Z</time>
      </trkpt>
      <trkpt lat="36.785980" lon="-6.351660">
        <ele>12.045</ele>
        <time>2015-06-18T11:14:59Z</time>
      </trkpt>
      <trkpt lat="36.786304" lon="-6.351691">
        <ele>12.069</ele>
        <time>2015-06-18T11:15:04Z</time>
      </trkpt>
      <trkpt lat="36.786436" lon="-6.351734">
        <ele>12.013</ele>
        <time>2015-06-18T11:15:06Z</time>
      </trkpt>
      <trkpt lat="36.786558" lon="-6.351811">
        <ele>12.043</ele>
        <time>2015-06-18T11:15:08Z</time>
      </trkpt>
      <trkpt lat="36.786904" lon="-6.352095">
        <ele>12.007</ele>
        <time>2015-06-18T11:15:14Z</time>
      </trkpt>
      <trkpt lat="36.787067" lon="-6.352234">
        <ele>12.008</ele>
        <time>2015-06-18T11:15:17Z</time>
      </trkpt>
      <trkpt lat="36.787161" lon="-6.352341">
        <ele>12.032</ele>
        <time>2015-06-18T11:15:19Z</time>
      </trkpt>
      <trkpt lat="36.787212" lon="-6.352382">
        <ele>12.018</ele>
        <time>2015-06-18T11:15:20Z</time>
      </trkpt>
      <trkpt lat="36.787473" lon="-6.352598">
        <ele>12.054</ele>
        <time>2015-06-18T11:15:25Z</time>
      </trkpt>
      <trkpt lat="36.787732" lon="-6.352867">
        <ele>12.093</ele>
        <time>2015-06-18T11:15:30Z</time>
      </trkpt>
      <trkpt lat="36.787778" lon="-6.352932">
        <ele>11.486</ele>
        <time>2015-06-18T11:15:31Z</time>
      </trkpt>
      <trkpt lat="36.787822" lon="-6.352989">
        <ele>11.098</ele>
        <time>2015-06-18T11:15:32Z</time>
      </trkpt>
      <trkpt lat="36.787869" lon="-6.353044">
        <ele>10.431</ele>
        <time>2015-06-18T11:15:33Z</time>
      </trkpt>
      <trkpt lat="36.787913" lon="-6.353098">
        <ele>10.065</ele>
        <time>2015-06-18T11:15:34Z</time>
      </trkpt>
      <trkpt lat="36.787953" lon="-6.353138">
        <ele>10.492</ele>
        <time>2015-06-18T11:15:35Z</time>
      </trkpt>
      <trkpt lat="36.787990" lon="-6.353174">
        <ele>11.273</ele>
        <time>2015-06-18T11:15:36Z</time>
      </trkpt>
      <trkpt lat="36.788033" lon="-6.353208">
        <ele>11.620</ele>
        <time>2015-06-18T11:15:37Z</time>
      </trkpt>
      <trkpt lat="36.788074" lon="-6.353240">
        <ele>12.008</ele>
        <time>2015-06-18T11:15:38Z</time>
      </trkpt>
      <trkpt lat="36.788189" lon="-6.353354">
        <ele>12.030</ele>
        <time>2015-06-18T11:15:41Z</time>
      </trkpt>
      <trkpt lat="36.788221" lon="-6.353398">
        <ele>12.056</ele>
        <time>2015-06-18T11:15:42Z</time>
      </trkpt>
      <trkpt lat="36.788319" lon="-6.353532">
        <ele>12.042</ele>
        <time>2015-06-18T11:15:45Z</time>
      </trkpt>
      <trkpt lat="36.788318" lon="-6.353662">
        <ele>12.051</ele>
        <time>2015-06-18T11:15:47Z</time>
      </trkpt>
      <trkpt lat="36.788253" lon="-6.353781">
        <ele>11.684</ele>
        <time>2015-06-18T11:15:49Z</time>
      </trkpt>
      <trkpt lat="36.788236" lon="-6.353841">
        <ele>11.296</ele>
        <time>2015-06-18T11:15:50Z</time>
      </trkpt>
      <trkpt lat="36.788220" lon="-6.353906">
        <ele>10.899</ele>
        <time>2015-06-18T11:15:51Z</time>
      </trkpt>
      <trkpt lat="36.788199" lon="-6.353972">
        <ele>10.413</ele>
        <time>2015-06-18T11:15:52Z</time>
      </trkpt>
      <trkpt lat="36.788168" lon="-6.354041">
        <ele>10.051</ele>
        <time>2015-06-18T11:15:53Z</time>
      </trkpt>
      <trkpt lat="36.788124" lon="-6.354176">
        <ele>10.001</ele>
        <time>2015-06-18T11:15:55Z</time>
      </trkpt>
      <trkpt lat="36.788033" lon="-6.354379">
        <ele>10.011</ele>
        <time>2015-06-18T11:15:58Z</time>
      </trkpt>
      <trkpt lat="36.787976" lon="-6.354520">
        <ele>10.008</ele>
        <time>2015-06-18T11:16:00Z</time>
      </trkpt>
      <trkpt lat="36.787830" lon="-6.354791">
        <ele>10.036</ele>
        <time>2015-06-18T11:16:04Z</time>
      </trkpt>
      <trkpt lat="36.787756" lon="-6.354919">
        <ele>10.072</ele>
        <time>2015-06-18T11:16:06Z</time>
      </trkpt>
      <trkpt lat="36.787660" lon="-6.355108">
        <ele>10.058</ele>
        <time>2015-06-18T11:16:09Z</time>
      </trkpt>
      <trkpt lat="36.787621" lon="-6.355242">
        <ele>10.027</ele>
        <time>2015-06-18T11:16:11Z</time>
      </trkpt>
      <trkpt lat="36.787595" lon="-6.355299">
        <ele>10.030</ele>
        <time>2015-06-18T11:16:12Z</time>
      </trkpt>
      <trkpt lat="36.787471" lon="-6.355498">
        <ele>10.062</ele>
        <time>2015-06-18T11:16:16Z</time>
      </trkpt>
      <trkpt lat="36.787282" lon="-6.355815">
        <ele>10.065</ele>
        <time>2015-06-18T11:16:23Z</time>
      </trkpt>
      <trkpt lat="36.787210" lon="-6.355906">
        <ele>10.089</ele>
        <time>2015-06-18T11:16:25Z</time>
      </trkpt>
      <trkpt lat="36.787071" lon="-6.356089">
        <ele>10.087</ele>
        <time>2015-06-18T11:16:29Z</time>
      </trkpt>
      <trkpt lat="36.786781" lon="-6.356506">
        <ele>10.042</ele>
        <time>2015-06-18T11:16:37Z</time>
      </trkpt>
      <trkpt lat="36.786544" lon="-6.356921">
        <ele>10.026</ele>
        <time>2015-06-18T11:16:45Z</time>
      </trkpt>
      <trkpt lat="36.786352" lon="-6.357280">
        <ele>10.008</ele>
        <time>2015-06-18T11:16:52Z</time>
      </trkpt>
      <trkpt lat="36.786098" lon="-6.357726">
        <ele>10.089</ele>
        <time>2015-06-18T11:17:00Z</time>
      </trkpt>
      <trkpt lat="36.785864" lon="-6.358148">
        <ele>10.035</ele>
        <time>2015-06-18T11:17:07Z</time>
      </trkpt>
      <trkpt lat="36.785581" lon="-6.358580">
        <ele>10.091</ele>
        <time>2015-06-18T11:17:14Z</time>
      </trkpt>
      <trkpt lat="36.785291" lon="-6.359004">
        <ele>10.090</ele>
        <time>2015-06-18T11:17:21Z</time>
      </trkpt>
      <trkpt lat="36.784986" lon="-6.359453">
        <ele>10.043</ele>
        <time>2015-06-18T11:17:29Z</time>
      </trkpt>
      <trkpt lat="36.784748" lon="-6.359811">
        <ele>10.015</ele>
        <time>2015-06-18T11:17:36Z</time>
      </trkpt>
      <trkpt lat="36.784447" lon="-6.360245">
        <ele>10.018</ele>
        <time>2015-06-18T11:17:45Z</time>
      </trkpt>
      <trkpt lat="36.784139" lon="-6.360641">
        <ele>10.042</ele>
        <time>2015-06-18T11:17:53Z</time>
      </trkpt>
      <trkpt lat="36.783825" lon="-6.361055">
        <ele>10.023</ele>
        <time>2015-06-18T11:18:01Z</time>
      </trkpt>
      <trkpt lat="36.783676" lon="-6.361191">
        <ele>10.083</ele>
        <time>2015-06-18T11:18:04Z</time>
      </trkpt>
      <trkpt lat="36.783573" lon="-6.361292">
        <ele>10.011</ele>
        <time>2015-06-18T11:18:06Z</time>
      </trkpt>
      <trkpt lat="36.783278" lon="-6.361637">
        <ele>10.008</ele>
        <time>2015-06-18T11:18:12Z</time>
      </trkpt>
      <trkpt lat="36.783141" lon="-6.361794">
        <ele>10.033</ele>
        <time>2015-06-18T11:18:15Z</time>
      </trkpt>
      <trkpt lat="36.782917" lon="-6.362064">
        <ele>10.089</ele>
        <time>2015-06-18T11:18:20Z</time>
      </trkpt>
      <trkpt lat="36.782638" lon="-6.362375">
        <ele>10.025</ele>
        <time>2015-06-18T11:18:26Z</time>
      </trkpt>
      <trkpt lat="36.782255" lon="-6.362838">
        <ele>10.064</ele>
        <time>2015-06-18T11:18:35Z</time>
      </trkpt>
      <trkpt lat="36.781938" lon="-6.363233">
        <ele>10.067</ele>
        <time>2015-06-18T11:18:43Z</time>
      </trkpt>
      <trkpt lat="36.781651" lon="-6.363564">
        <ele>10.089</ele>
        <time>2015-06-18T11:18:50Z</time>
      </trkpt>
      <trkpt lat="36.781305" lon="-6.363930">
        <ele>10.052</ele>
        <time>2015-06-18T11:18:58Z</time>
      </trkpt>
      <trkpt lat="36.780980" lon="-6.364211">
        <ele>10.066</ele>
        <time>2015-06-18T11:19:05Z</time>
      </trkpt>
      <trkpt lat="36.780526" lon="-6.364603">
        <ele>10.043</ele>
        <time>2015-06-18T11:19:14Z</time>
      </trkpt>
      <trkpt lat="36.780102" lon="-6.364980">
        <ele>10.064</ele>
        <time>2015-06-18T11:19:22Z</time>
      </trkpt>
      <trkpt lat="36.779782" lon="-6.365278">
        <ele>10.010</ele>
        <time>2015-06-18T11:19:28Z</time>
      </trkpt>
      <trkpt lat="36.779734" lon="-6.365330">
        <ele>10.008</ele>
        <time>2015-06-18T11:19:29Z</time>
      </trkpt>
      <trkpt lat="36.779285" lon="-6.365790">
        <ele>10.055</ele>
        <time>2015-06-18T11:19:38Z</time>
      </trkpt>
      <trkpt lat="36.778832" lon="-6.366248">
        <ele>10.021</ele>
        <time>2015-06-18T11:19:47Z</time>
      </trkpt>
      <trkpt lat="36.778789" lon="-6.366289">
        <ele>10.097</ele>
        <time>2015-06-18T11:19:48Z</time>
      </trkpt>
      <trkpt lat="36.778524" lon="-6.366514">
        <ele>10.026</ele>
        <time>2015-06-18T11:19:54Z</time>
      </trkpt>
      <trkpt lat="36.778481" lon="-6.366530">
        <ele>10.099</ele>
        <time>2015-06-18T11:19:55Z</time>
      </trkpt>
      <trkpt lat="36.778350" lon="-6.366579">
        <ele>10.041</ele>
        <time>2015-06-18T11:19:58Z</time>
      </trkpt>
      <trkpt lat="36.778286" lon="-6.366650">
        <ele>10.024</ele>
        <time>2015-06-18T11:20:00Z</time>
      </trkpt>
      <trkpt lat="36.778180" lon="-6.366775">
        <ele>10.078</ele>
        <time>2015-06-18T11:20:03Z</time>
      </trkpt>
      <trkpt lat="36.778149" lon="-6.366818">
        <ele>10.069</ele>
        <time>2015-06-18T11:20:04Z</time>
      </trkpt>
      <trkpt lat="36.778090" lon="-6.366902">
        <ele>10.004</ele>
        <time>2015-06-18T11:20:06Z</time>
      </trkpt>
      <trkpt lat="36.777944" lon="-6.367064">
        <ele>10.024</ele>
        <time>2015-06-18T11:20:10Z</time>
      </trkpt>
      <trkpt lat="36.777917" lon="-6.367118">
        <ele>10.008</ele>
        <time>2015-06-18T11:20:11Z</time>
      </trkpt>
      <trkpt lat="36.777862" lon="-6.367278">
        <ele>10.097</ele>
        <time>2015-06-18T11:20:14Z</time>
      </trkpt>
      <trkpt lat="36.777806" lon="-6.367455">
        <ele>10.043</ele>
        <time>2015-06-18T11:20:17Z</time>
      </trkpt>
      <trkpt lat="36.777779" lon="-6.367523">
        <ele>10.059</ele>
        <time>2015-06-18T11:20:18Z</time>
      </trkpt>
      <trkpt lat="36.777731" lon="-6.367655">
        <ele>10.048</ele>
        <time>2015-06-18T11:20:20Z</time>
      </trkpt>
      <trkpt lat="36.777667" lon="-6.367865">
        <ele>10.051</ele>
        <time>2015-06-18T11:20:23Z</time>
      </trkpt>
      <trkpt lat="36.777570" lon="-6.368158">
        <ele>9.683</ele>
        <time>2015-06-18T11:20:27Z</time>
      </trkpt>
      <trkpt lat="36.777545" lon="-6.368228">
        <ele>9.286</ele>
        <time>2015-06-18T11:20:28Z</time>
      </trkpt>
      <trkpt lat="36.777519" lon="-6.368297">
        <ele>8.690</ele>
        <time>2015-06-18T11:20:29Z</time>
      </trkpt>
      <trkpt lat="36.777495" lon="-6.368373">
        <ele>8.263</ele>
        <time>2015-06-18T11:20:30Z</time>
      </trkpt>
      <trkpt lat="36.777473" lon="-6.368449">
        <ele>7.844</ele>
        <time>2015-06-18T11:20:31Z</time>
      </trkpt>
      <trkpt lat="36.777317" lon="-6.368909">
        <ele>7.818</ele>
        <time>2015-06-18T11:20:37Z</time>
      </trkpt>
      <trkpt lat="36.777125" lon="-6.369495">
        <ele>7.808</ele>
        <time>2015-06-18T11:20:45Z</time>
      </trkpt>
      <trkpt lat="36.777079" lon="-6.369621">
        <ele>7.897</ele>
        <time>2015-06-18T11:20:47Z</time>
      </trkpt>
      <trkpt lat="36.776964" lon="-6.369743">
        <ele>7.823</ele>
        <time>2015-06-18T11:20:50Z</time>
      </trkpt>
      <trkpt lat="36.776808" lon="-6.369713">
        <ele>7.819</ele>
        <time>2015-06-18T11:20:53Z</time>
      </trkpt>
      <trkpt lat="36.776652" lon="-6.369688">
        <ele>7.898</ele>
        <time>2015-06-18T11:20:56Z</time>
      </trkpt>
      <trkpt lat="36.776551" lon="-6.369675">
        <ele>7.861</ele>
        <time>2015-06-18T11:20:58Z</time>
      </trkpt>
      <trkpt lat="36.776309" lon="-6.369634">
        <ele>7.833</ele>
        <time>2015-06-18T11:21:03Z</time>
      </trkpt>
      <trkpt lat="36.776231" lon="-6.369662">
        <ele>7.816</ele>
        <time>2015-06-18T11:21:05Z</time>
      </trkpt>
      <trkpt lat="36.776153" lon="-6.369837">
        <ele>7.830</ele>
        <time>2015-06-18T11:21:09Z</time>
      </trkpt>
      <trkpt lat="36.776145" lon="-6.369885">
        <ele>7.812</ele>
        <time>2015-06-18T11:21:10Z</time>
      </trkpt>
      <trkpt lat="36.776103" lon="-6.370135">
        <ele>7.832</ele>
        <time>2015-06-18T11:21:15Z</time>
      </trkpt>
      <trkpt lat="36.776084" lon="-6.370239">
        <ele>7.805</ele>
        <time>2015-06-18T11:21:17Z</time>
      </trkpt>
      <trkpt lat="36.776066" lon="-6.370507">
        <ele>7.808</ele>
        <time>2015-06-18T11:21:22Z</time>
      </trkpt>
      <trkpt lat="36.776058" lon="-6.370562">
        <ele>7.812</ele>
        <time>2015-06-18T11:21:23Z</time>
      </trkpt>
      <trkpt lat="36.776037" lon="-6.370672">
        <ele>8.238</ele>
        <time>2015-06-18T11:21:25Z</time>
      </trkpt>
      <trkpt lat="36.776030" lon="-6.370727">
        <ele>8.694</ele>
        <time>2015-06-18T11:21:26Z</time>
      </trkpt>
      <trkpt lat="36.776025" lon="-6.370781">
        <ele>9.083</ele>
        <time>2015-06-18T11:21:27Z</time>
      </trkpt>
      <trkpt lat="36.776022" lon="-6.370837">
        <ele>9.476</ele>
        <time>2015-06-18T11:21:28Z</time>
      </trkpt>
      <trkpt lat="36.776018" lon="-6.370895">
        <ele>9.878</ele>
        <time>2015-06-18T11:21:29Z</time>
      </trkpt>
      <trkpt lat="36.776010" lon="-6.370953">
        <ele>9.831</ele>
        <time>2015-06-18T11:21:30Z</time>
      </trkpt>
      <trkpt lat="36.775978" lon="-6.371177">
        <ele>9.825</ele>
        <time>2015-06-18T11:21:34Z</time>
      </trkpt>
      <trkpt lat="36.775948" lon="-6.371389">
        <ele>10.255</ele>
        <time>2015-06-18T11:21:38Z</time>
      </trkpt>
      <trkpt lat="36.775946" lon="-6.371442">
        <ele>10.607</ele>
        <time>2015-06-18T11:21:39Z</time>
      </trkpt>
      <trkpt lat="36.775943" lon="-6.371493">
        <ele>11.017</ele>
        <time>2015-06-18T11:21:40Z</time>
      </trkpt>
      <trkpt lat="36.775936" lon="-6.371544">
        <ele>11.608</ele>
        <time>2015-06-18T11:21:41Z</time>
      </trkpt>
      <trkpt lat="36.775928" lon="-6.371592">
        <ele>12.036</ele>
        <time>2015-06-18T11:21:42Z</time>
      </trkpt>
      <trkpt lat="36.775916" lon="-6.371691">
        <ele>12.062</ele>
        <time>2015-06-18T11:21:44Z</time>
      </trkpt>
      <trkpt lat="36.775897" lon="-6.371836">
        <ele>12.058</ele>
        <time>2015-06-18T11:21:47Z</time>
      </trkpt>
      <trkpt lat="36.775871" lon="-6.372037">
        <ele>12.057</ele>
        <time>2015-06-18T11:21:51Z</time>
      </trkpt>
      <trkpt lat="36.775836" lon="-6.372223">
        <ele>12.460</ele>
        <time>2015-06-18T11:21:55Z</time>
      </trkpt>
      <trkpt lat="36.775824" lon="-6.372272">
        <ele>12.892</ele>
        <time>2015-06-18T11:21:56Z</time>
      </trkpt>
      <trkpt lat="36.775815" lon="-6.372321">
        <ele>13.235</ele>
        <time>2015-06-18T11:21:57Z</time>
      </trkpt>
      <trkpt lat="36.775809" lon="-6.372371">
        <ele>13.639</ele>
        <time>2015-06-18T11:21:58Z</time>
      </trkpt>
      <trkpt lat="36.775802" lon="-6.372420">
        <ele>14.071</ele>
        <time>2015-06-18T11:21:59Z</time>
      </trkpt>
      <trkpt lat="36.775736" lon="-6.372684">
        <ele>14.041</ele>
        <time>2015-06-18T11:22:05Z</time>
      </trkpt>
      <trkpt lat="36.775651" lon="-6.373001">
        <ele>14.815</ele>
        <time>2015-06-18T11:22:12Z</time>
      </trkpt>
      <trkpt lat="36.775635" lon="-6.373044">
        <ele>15.208</ele>
        <time>2015-06-18T11:22:13Z</time>
      </trkpt>
      <trkpt lat="36.775616" lon="-6.373089">
        <ele>15.618</ele>
        <time>2015-06-18T11:22:14Z</time>
      </trkpt>
      <trkpt lat="36.775597" lon="-6.373132">
        <ele>16.024</ele>
        <time>2015-06-18T11:22:15Z</time>
      </trkpt>
      <trkpt lat="36.775551" lon="-6.373261">
        <ele>16.040</ele>
        <time>2015-06-18T11:22:18Z</time>
      </trkpt>
      <trkpt lat="36.775420" lon="-6.373604">
        <ele>16.059</ele>
        <time>2015-06-18T11:22:25Z</time>
      </trkpt>
      <trkpt lat="36.775248" lon="-6.373909">
        <ele>16.492</ele>
        <time>2015-06-18T11:22:31Z</time>
      </trkpt>
      <trkpt lat="36.775219" lon="-6.373954">
        <ele>16.894</ele>
        <time>2015-06-18T11:22:32Z</time>
      </trkpt>
      <trkpt lat="36.775190" lon="-6.373996">
        <ele>17.247</ele>
        <time>2015-06-18T11:22:33Z</time>
      </trkpt>
      <trkpt lat="36.775158" lon="-6.374037">
        <ele>17.841</ele>
        <time>2015-06-18T11:22:34Z</time>
      </trkpt>
      <trkpt lat="36.775129" lon="-6.374076">
        <ele>18.255</ele>
        <time>2015-06-18T11:22:35Z</time>
      </trkpt>
      <trkpt lat="36.775036" lon="-6.374194">
        <ele>18.207</ele>
        <time>2015-06-18T11:22:38Z</time>
      </trkpt>
      <trkpt lat="36.774970" lon="-6.374273">
        <ele>18.217</ele>
        <time>2015-06-18T11:22:40Z</time>
      </trkpt>
      <trkpt lat="36.774940" lon="-6.374315">
        <ele>18.208</ele>
        <time>2015-06-18T11:22:41Z</time>
      </trkpt>
      <trkpt lat="36.774832" lon="-6.374448">
        <ele>18.256</ele>
        <time>2015-06-18T11:22:45Z</time>
      </trkpt>
      <trkpt lat="36.774706" lon="-6.374578">
        <ele>18.272</ele>
        <time>2015-06-18T11:22:50Z</time>
      </trkpt>
      <trkpt lat="36.774677" lon="-6.374607">
        <ele>18.228</ele>
        <time>2015-06-18T11:22:51Z</time>
      </trkpt>
      <trkpt lat="36.774532" lon="-6.374752">
        <ele>18.217</ele>
        <time>2015-06-18T11:22:56Z</time>
      </trkpt>
      <trkpt lat="36.774493" lon="-6.374786">
        <ele>18.640</ele>
        <time>2015-06-18T11:22:57Z</time>
      </trkpt>
      <trkpt lat="36.774455" lon="-6.374818">
        <ele>19.072</ele>
        <time>2015-06-18T11:22:58Z</time>
      </trkpt>
      <trkpt lat="36.774416" lon="-6.374850">
        <ele>19.485</ele>
        <time>2015-06-18T11:22:59Z</time>
      </trkpt>
      <trkpt lat="36.774380" lon="-6.374880">
        <ele>19.859</ele>
        <time>2015-06-18T11:23:00Z</time>
      </trkpt>
      <trkpt lat="36.774341" lon="-6.374910">
        <ele>20.214</ele>
        <time>2015-06-18T11:23:01Z</time>
      </trkpt>
      <trkpt lat="36.774303" lon="-6.374941">
        <ele>20.254</ele>
        <time>2015-06-18T11:23:02Z</time>
      </trkpt>
      <trkpt lat="36.774145" lon="-6.375065">
        <ele>20.209</ele>
        <time>2015-06-18T11:23:06Z</time>
      </trkpt>
      <trkpt lat="36.774068" lon="-6.375125">
        <ele>20.208</ele>
        <time>2015-06-18T11:23:08Z</time>
      </trkpt>
      <trkpt lat="36.773718" lon="-6.375363">
        <ele>20.232</ele>
        <time>2015-06-18T11:23:16Z</time>
      </trkpt>
      <trkpt lat="36.773400" lon="-6.375580">
        <ele>20.288</ele>
        <time>2015-06-18T11:23:23Z</time>
      </trkpt>
      <trkpt lat="36.773065" lon="-6.375809">
        <ele>20.214</ele>
        <time>2015-06-18T11:23:30Z</time>
      </trkpt>
      <trkpt lat="36.772736" lon="-6.376091">
        <ele>20.223</ele>
        <time>2015-06-18T11:23:37Z</time>
      </trkpt>
      <trkpt lat="36.772410" lon="-6.376388">
        <ele>20.296</ele>
        <time>2015-06-18T11:23:44Z</time>
      </trkpt>
      <trkpt lat="36.771985" lon="-6.376814">
        <ele>20.278</ele>
        <time>2015-06-18T11:23:53Z</time>
      </trkpt>
      <trkpt lat="36.771944" lon="-6.376870">
        <ele>20.271</ele>
        <time>2015-06-18T11:23:54Z</time>
      </trkpt>
      <trkpt lat="36.771864" lon="-6.377075">
        <ele>20.215</ele>
        <time>2015-06-18T11:23:57Z</time>
      </trkpt>
      <trkpt lat="36.771837" lon="-6.377147">
        <ele>20.226</ele>
        <time>2015-06-18T11:23:58Z</time>
      </trkpt>
      <trkpt lat="36.771744" lon="-6.377243">
        <ele>20.247</ele>
        <time>2015-06-18T11:24:00Z</time>
      </trkpt>
      <trkpt lat="36.771624" lon="-6.377281">
        <ele>20.211</ele>
        <time>2015-06-18T11:24:02Z</time>
      </trkpt>
      <trkpt lat="36.771566" lon="-6.377303">
        <ele>20.208</ele>
        <time>2015-06-18T11:24:03Z</time>
      </trkpt>
      <trkpt lat="36.771512" lon="-6.377337">
        <ele>20.273</ele>
        <time>2015-06-18T11:24:04Z</time>
      </trkpt>
      <trkpt lat="36.771275" lon="-6.377588">
        <ele>20.269</ele>
        <time>2015-06-18T11:24:09Z</time>
      </trkpt>
      <trkpt lat="36.770928" lon="-6.377967">
        <ele>20.275</ele>
        <time>2015-06-18T11:24:17Z</time>
      </trkpt>
      <trkpt lat="36.770743" lon="-6.378175">
        <ele>20.224</ele>
        <time>2015-06-18T11:24:22Z</time>
      </trkpt>
      <trkpt lat="36.770674" lon="-6.378260">
        <ele>20.247</ele>
        <time>2015-06-18T11:24:24Z</time>
      </trkpt>
      <trkpt lat="36.770537" lon="-6.378414">
        <ele>20.239</ele>
        <time>2015-06-18T11:24:28Z</time>
      </trkpt>
      <trkpt lat="36.770485" lon="-6.378509">
        <ele>20.282</ele>
        <time>2015-06-18T11:24:30Z</time>
      </trkpt>
      <trkpt lat="36.770433" lon="-6.378617">
        <ele>20.286</ele>
        <time>2015-06-18T11:24:32Z</time>
      </trkpt>
      <trkpt lat="36.770371" lon="-6.378726">
        <ele>20.213</ele>
        <time>2015-06-18T11:24:34Z</time>
      </trkpt>
      <trkpt lat="36.770314" lon="-6.378835">
        <ele>20.243</ele>
        <time>2015-06-18T11:24:36Z</time>
      </trkpt>
      <trkpt lat="36.770292" lon="-6.378888">
        <ele>19.807</ele>
        <time>2015-06-18T11:24:37Z</time>
      </trkpt>
      <trkpt lat="36.770270" lon="-6.378940">
        <ele>19.408</ele>
        <time>2015-06-18T11:24:38Z</time>
      </trkpt>
      <trkpt lat="36.770248" lon="-6.378990">
        <ele>19.062</ele>
        <time>2015-06-18T11:24:39Z</time>
      </trkpt>
      <trkpt lat="36.770223" lon="-6.379034">
        <ele>18.628</ele>
        <time>2015-06-18T11:24:40Z</time>
      </trkpt>
      <trkpt lat="36.770194" lon="-6.379075">
        <ele>18.244</ele>
        <time>2015-06-18T11:24:41Z</time>
      </trkpt>
      <trkpt lat="36.770173" lon="-6.379113">
        <ele>18.223</ele>
        <time>2015-06-18T11:24:42Z</time>
      </trkpt>
      <trkpt lat="36.770164" lon="-6.379152">
        <ele>18.266</ele>
        <time>2015-06-18T11:24:43Z</time>
      </trkpt>
      <trkpt lat="36.770185" lon="-6.379237">
        <ele>18.288</ele>
        <time>2015-06-18T11:24:45Z</time>
      </trkpt>
      <trkpt lat="36.770238" lon="-6.379352">
        <ele>18.271</ele>
        <time>2015-06-18T11:24:48Z</time>
      </trkpt>
      <trkpt lat="36.770173" lon="-6.379458">
        <ele>18.285</ele>
        <time>2015-06-18T11:24:51Z</time>
      </trkpt>
      <trkpt lat="36.770140" lon="-6.379489">
        <ele>18.249</ele>
        <time>2015-06-18T11:24:52Z</time>
      </trkpt>
      <trkpt lat="36.770055" lon="-6.379563">
        <ele>18.202</ele>
        <time>2015-06-18T11:24:54Z</time>
      </trkpt>
      <trkpt lat="36.770013" lon="-6.379610">
        <ele>18.222</ele>
        <time>2015-06-18T11:24:55Z</time>
      </trkpt>
      <trkpt lat="36.769807" lon="-6.379907">
        <ele>18.208</ele>
        <time>2015-06-18T11:25:00Z</time>
      </trkpt>
      <trkpt lat="36.769558" lon="-6.380293">
        <ele>17.875</ele>
        <time>2015-06-18T11:25:06Z</time>
      </trkpt>
      <trkpt lat="36.769516" lon="-6.380359">
        <ele>17.481</ele>
        <time>2015-06-18T11:25:07Z</time>
      </trkpt>
      <trkpt lat="36.769470" lon="-6.380430">
        <ele>17.017</ele>
        <time>2015-06-18T11:25:08Z</time>
      </trkpt>
      <trkpt lat="36.769426" lon="-6.380494">
        <ele>16.676</ele>
        <time>2015-06-18T11:25:09Z</time>
      </trkpt>
      <trkpt lat="36.769383" lon="-6.380553">
        <ele>16.249</ele>
        <time>2015-06-18T11:25:10Z</time>
      </trkpt>
      <trkpt lat="36.769261" lon="-6.380711">
        <ele>16.271</ele>
        <time>2015-06-18T11:25:13Z</time>
      </trkpt>
      <trkpt lat="36.769059" lon="-6.380963">
        <ele>16.254</ele>
        <time>2015-06-18T11:25:19Z</time>
      </trkpt>
      <trkpt lat="36.768997" lon="-6.381034">
        <ele>16.298</ele>
        <time>2015-06-18T11:25:21Z</time>
      </trkpt>
      <trkpt lat="36.768861" lon="-6.381156">
        <ele>16.252</ele>
        <time>2015-06-18T11:25:25Z</time>
      </trkpt>
      <trkpt lat="36.768790" lon="-6.381222">
        <ele>16.253</ele>
        <time>2015-06-18T11:25:27Z</time>
      </trkpt>
      <trkpt lat="36.768716" lon="-6.381287">
        <ele>16.208</ele>
        <time>2015-06-18T11:25:29Z</time>
      </trkpt>
      <trkpt lat="36.768628" lon="-6.381349">
        <ele>16.208</ele>
        <time>2015-06-18T11:25:31Z</time>
      </trkpt>
      <trkpt lat="36.768352" lon="-6.381588">
        <ele>16.286</ele>
        <time>2015-06-18T11:25:38Z</time>
      </trkpt>
      <trkpt lat="36.768140" lon="-6.381900">
        <ele>16.252</ele>
        <time>2015-06-18T11:25:44Z</time>
      </trkpt>
      <trkpt lat="36.768010" lon="-6.382138">
        <ele>16.288</ele>
        <time>2015-06-18T11:25:48Z</time>
      </trkpt>
      <trkpt lat="36.767918" lon="-6.382300">
        <ele>16.297</ele>
        <time>2015-06-18T11:25:51Z</time>
      </trkpt>
      <trkpt lat="36.767820" lon="-6.382533">
        <ele>16.250</ele>
        <time>2015-06-18T11:25:55Z</time>
      </trkpt>
      <trkpt lat="36.767754" lon="-6.382635">
        <ele>16.212</ele>
        <time>2015-06-18T11:25:57Z</time>
      </trkpt>
      <trkpt lat="36.767660" lon="-6.382783">
        <ele>16.275</ele>
        <time>2015-06-18T11:26:00Z</time>
      </trkpt>
      <trkpt lat="36.767544" lon="-6.382891">
        <ele>16.259</ele>
        <time>2015-06-18T11:26:03Z</time>
      </trkpt>
      <trkpt lat="36.767420" lon="-6.382985">
        <ele>16.276</ele>
        <time>2015-06-18T11:26:06Z</time>
      </trkpt>
      <trkpt lat="36.767376" lon="-6.383017">
        <ele>15.890</ele>
        <time>2015-06-18T11:26:07Z</time>
      </trkpt>
      <trkpt lat="36.767329" lon="-6.383054">
        <ele>15.419</ele>
        <time>2015-06-18T11:26:08Z</time>
      </trkpt>
      <trkpt lat="36.767283" lon="-6.383092">
        <ele>15.008</ele>
        <time>2015-06-18T11:26:09Z</time>
      </trkpt>
      <trkpt lat="36.767238" lon="-6.383132">
        <ele>14.618</ele>
        <time>2015-06-18T11:26:10Z</time>
      </trkpt>
      <trkpt lat="36.767192" lon="-6.383171">
        <ele>14.254</ele>
        <time>2015-06-18T11:26:11Z</time>
      </trkpt>
      <trkpt lat="36.767065" lon="-6.383288">
        <ele>14.270</ele>
        <time>2015-06-18T11:26:14Z</time>
      </trkpt>
      <trkpt lat="36.766982" lon="-6.383371">
        <ele>14.289</ele>
        <time>2015-06-18T11:26:16Z</time>
      </trkpt>
      <trkpt lat="36.766936" lon="-6.383405">
        <ele>14.212</ele>
        <time>2015-06-18T11:26:17Z</time>
      </trkpt>
      <trkpt lat="36.766827" lon="-6.383420">
        <ele>14.244</ele>
        <time>2015-06-18T11:26:19Z</time>
      </trkpt>
      <trkpt lat="36.766713" lon="-6.383287">
        <ele>14.217</ele>
        <time>2015-06-18T11:26:22Z</time>
      </trkpt>
      <trkpt lat="36.766687" lon="-6.383232">
        <ele>14.281</ele>
        <time>2015-06-18T11:26:23Z</time>
      </trkpt>
      <trkpt lat="36.766613" lon="-6.383092">
        <ele>14.271</ele>
        <time>2015-06-18T11:26:26Z</time>
      </trkpt>
      <trkpt lat="36.766583" lon="-6.383052">
        <ele>14.241</ele>
        <time>2015-06-18T11:26:27Z</time>
      </trkpt>
      <trkpt lat="36.766551" lon="-6.383017">
        <ele>14.215</ele>
        <time>2015-06-18T11:26:28Z</time>
      </trkpt>
      <trkpt lat="36.766431" lon="-6.383001">
        <ele>14.208</ele>
        <time>2015-06-18T11:26:31Z</time>
      </trkpt>
      <trkpt lat="36.766283" lon="-6.383159">
        <ele>14.298</ele>
        <time>2015-06-18T11:26:35Z</time>
      </trkpt>
      <trkpt lat="36.766240" lon="-6.383207">
        <ele>14.254</ele>
        <time>2015-06-18T11:26:36Z</time>
      </trkpt>
      <trkpt lat="36.766053" lon="-6.383409">
        <ele>14.280</ele>
        <time>2015-06-18T11:26:40Z</time>
      </trkpt>
      <trkpt lat="36.766002" lon="-6.383464">
        <ele>14.259</ele>
        <time>2015-06-18T11:26:41Z</time>
      </trkpt>
      <trkpt lat="36.765757" lon="-6.383741">
        <ele>14.272</ele>
        <time>2015-06-18T11:26:46Z</time>
      </trkpt>
      <trkpt lat="36.765407" lon="-6.384113">
        <ele>14.214</ele>
        <time>2015-06-18T11:26:53Z</time>
      </trkpt>
      <trkpt lat="36.765236" lon="-6.384293">
        <ele>14.257</ele>
        <time>2015-06-18T11:26:57Z</time>
      </trkpt>
      <trkpt lat="36.765159" lon="-6.384382">
        <ele>14.291</ele>
        <time>2015-06-18T11:26:59Z</time>
      </trkpt>
      <trkpt lat="36.764833" lon="-6.384729">
        <ele>14.239</ele>
        <time>2015-06-18T11:27:07Z</time>
      </trkpt>
      <trkpt lat="36.764473" lon="-6.385117">
        <ele>14.201</ele>
        <time>2015-06-18T11:27:15Z</time>
      </trkpt>
      <trkpt lat="36.764129" lon="-6.385484">
        <ele>14.221</ele>
        <time>2015-06-18T11:27:23Z</time>
      </trkpt>
      <trkpt lat="36.763880" lon="-6.385749">
        <ele>14.208</ele>
        <time>2015-06-18T11:27:29Z</time>
      </trkpt>
      <trkpt lat="36.763836" lon="-6.385798">
        <ele>14.224</ele>
        <time>2015-06-18T11:27:30Z</time>
      </trkpt>
      <trkpt lat="36.763663" lon="-6.385987">
        <ele>13.820</ele>
        <time>2015-06-18T11:27:34Z</time>
      </trkpt>
      <trkpt lat="36.763622" lon="-6.386034">
        <ele>13.466</ele>
        <time>2015-06-18T11:27:35Z</time>
      </trkpt>
      <trkpt lat="36.763582" lon="-6.386082">
        <ele>12.855</ele>
        <time>2015-06-18T11:27:36Z</time>
      </trkpt>
      <trkpt lat="36.763541" lon="-6.386129">
        <ele>12.488</ele>
        <time>2015-06-18T11:27:37Z</time>
      </trkpt>
      <trkpt lat="36.763497" lon="-6.386177">
        <ele>12.070</ele>
        <time>2015-06-18T11:27:38Z</time>
      </trkpt>
      <trkpt lat="36.763256" lon="-6.386444">
        <ele>12.043</ele>
        <time>2015-06-18T11:27:44Z</time>
      </trkpt>
      <trkpt lat="36.762934" lon="-6.386801">
        <ele>12.037</ele>
        <time>2015-06-18T11:27:52Z</time>
      </trkpt>
      <trkpt lat="36.762609" lon="-6.387160">
        <ele>12.034</ele>
        <time>2015-06-18T11:28:00Z</time>
      </trkpt>
      <trkpt lat="36.762367" lon="-6.387437">
        <ele>12.055</ele>
        <time>2015-06-18T11:28:06Z</time>
      </trkpt>
      <trkpt lat="36.762246" lon="-6.387579">
        <ele>12.010</ele>
        <time>2015-06-18T11:28:09Z</time>
      </trkpt>
      <trkpt lat="36.761963" lon="-6.387889">
        <ele>12.008</ele>
        <time>2015-06-18T11:28:16Z</time>
      </trkpt>
      <trkpt lat="36.761673" lon="-6.388204">
        <ele>12.074</ele>
        <time>2015-06-18T11:28:23Z</time>
      </trkpt>
      <trkpt lat="36.761631" lon="-6.388254">
        <ele>12.010</ele>
        <time>2015-06-18T11:28:24Z</time>
      </trkpt>
      <trkpt lat="36.761363" lon="-6.388530">
        <ele>12.086</ele>
        <time>2015-06-18T11:28:30Z</time>
      </trkpt>
      <trkpt lat="36.760999" lon="-6.388913">
        <ele>12.025</ele>
        <time>2015-06-18T11:28:38Z</time>
      </trkpt>
      <trkpt lat="36.760603" lon="-6.389348">
        <ele>12.038</ele>
        <time>2015-06-18T11:28:47Z</time>
      </trkpt>
      <trkpt lat="36.760222" lon="-6.389770">
        <ele>12.030</ele>
        <time>2015-06-18T11:28:56Z</time>
      </trkpt>
      <trkpt lat="36.759948" lon="-6.390063">
        <ele>12.013</ele>
        <time>2015-06-18T11:29:02Z</time>
      </trkpt>
      <trkpt lat="36.759671" lon="-6.390339">
        <ele>12.057</ele>
        <time>2015-06-18T11:29:08Z</time>
      </trkpt>
      <trkpt lat="36.759629" lon="-6.390387">
        <ele>12.057</ele>
        <time>2015-06-18T11:29:09Z</time>
      </trkpt>
      <trkpt lat="36.759268" lon="-6.390782">
        <ele>12.000</ele>
        <time>2015-06-18T11:29:17Z</time>
      </trkpt>
      <trkpt lat="36.758999" lon="-6.391074">
        <ele>12.020</ele>
        <time>2015-06-18T11:29:23Z</time>
      </trkpt>
      <trkpt lat="36.758677" lon="-6.391419">
        <ele>12.008</ele>
        <time>2015-06-18T11:29:30Z</time>
      </trkpt>
      <trkpt lat="36.758483" lon="-6.391614">
        <ele>12.036</ele>
        <time>2015-06-18T11:29:34Z</time>
      </trkpt>
      <trkpt lat="36.758351" lon="-6.391768">
        <ele>12.092</ele>
        <time>2015-06-18T11:29:37Z</time>
      </trkpt>
      <trkpt lat="36.758106" lon="-6.392029">
        <ele>12.078</ele>
        <time>2015-06-18T11:29:43Z</time>
      </trkpt>
      <trkpt lat="36.757793" lon="-6.392373">
        <ele>12.087</ele>
        <time>2015-06-18T11:29:51Z</time>
      </trkpt>
      <trkpt lat="36.757640" lon="-6.392573">
        <ele>12.010</ele>
        <time>2015-06-18T11:29:55Z</time>
      </trkpt>
      <trkpt lat="36.757528" lon="-6.392714">
        <ele>12.092</ele>
        <time>2015-06-18T11:29:58Z</time>
      </trkpt>
      <trkpt lat="36.757485" lon="-6.392796">
        <ele>12.075</ele>
        <time>2015-06-18T11:30:01Z</time>
      </trkpt>
      <trkpt lat="36.757453" lon="-6.392858">
        <ele>11.649</ele>
        <time>2015-06-18T11:30:04Z</time>
      </trkpt>
      <trkpt lat="36.757436" lon="-6.392876">
        <ele>11.245</ele>
        <time>2015-06-18T11:30:05Z</time>
      </trkpt>
      <trkpt lat="36.757414" lon="-6.392895">
        <ele>10.847</ele>
        <time>2015-06-18T11:30:06Z</time>
      </trkpt>
      <trkpt lat="36.757394" lon="-6.392916">
        <ele>10.411</ele>
        <time>2015-06-18T11:30:07Z</time>
      </trkpt>
      <trkpt lat="36.757375" lon="-6.392943">
        <ele>10.008</ele>
        <time>2015-06-18T11:30:08Z</time>
      </trkpt>
      <trkpt lat="36.757300" lon="-6.393063">
        <ele>10.055</ele>
        <time>2015-06-18T11:30:11Z</time>
      </trkpt>
      <trkpt lat="36.757084" lon="-6.393379">
        <ele>10.061</ele>
        <time>2015-06-18T11:30:18Z</time>
      </trkpt>
      <trkpt lat="36.756840" lon="-6.393785">
        <ele>10.037</ele>
        <time>2015-06-18T11:30:26Z</time>
      </trkpt>
      <trkpt lat="36.756684" lon="-6.394065">
        <ele>10.026</ele>
        <time>2015-06-18T11:30:31Z</time>
      </trkpt>
      <trkpt lat="36.756540" lon="-6.394363">
        <ele>10.059</ele>
        <time>2015-06-18T11:30:36Z</time>
      </trkpt>
      <trkpt lat="36.756338" lon="-6.394777">
        <ele>10.071</ele>
        <time>2015-06-18T11:30:43Z</time>
      </trkpt>
      <trkpt lat="36.756105" lon="-6.395315">
        <ele>10.074</ele>
        <time>2015-06-18T11:30:52Z</time>
      </trkpt>
      <trkpt lat="36.755918" lon="-6.395717">
        <ele>10.028</ele>
        <time>2015-06-18T11:30:59Z</time>
      </trkpt>
      <trkpt lat="36.755658" lon="-6.396285">
        <ele>10.034</ele>
        <time>2015-06-18T11:31:09Z</time>
      </trkpt>
      <trkpt lat="36.755418" lon="-6.396811">
        <ele>10.055</ele>
        <time>2015-06-18T11:31:18Z</time>
      </trkpt>
      <trkpt lat="36.755193" lon="-6.397288">
        <ele>10.010</ele>
        <time>2015-06-18T11:31:26Z</time>
      </trkpt>
      <trkpt lat="36.754957" lon="-6.397779">
        <ele>10.008</ele>
        <time>2015-06-18T11:31:34Z</time>
      </trkpt>
      <trkpt lat="36.754778" lon="-6.398170">
        <ele>10.074</ele>
        <time>2015-06-18T11:31:40Z</time>
      </trkpt>
      <trkpt lat="36.754748" lon="-6.398241">
        <ele>10.070</ele>
        <time>2015-06-18T11:31:41Z</time>
      </trkpt>
      <trkpt lat="36.754689" lon="-6.398377">
        <ele>10.016</ele>
        <time>2015-06-18T11:31:43Z</time>
      </trkpt>
      <trkpt lat="36.754520" lon="-6.398752">
        <ele>10.055</ele>
        <time>2015-06-18T11:31:49Z</time>
      </trkpt>
      <trkpt lat="36.754447" lon="-6.398896">
        <ele>10.078</ele>
        <time>2015-06-18T11:31:53Z</time>
      </trkpt>
      <trkpt lat="36.754387" lon="-6.399016">
        <ele>10.050</ele>
        <time>2015-06-18T11:31:57Z</time>
      </trkpt>
      <trkpt lat="36.754352" lon="-6.399104">
        <ele>10.043</ele>
        <time>2015-06-18T11:31:59Z</time>
      </trkpt>
      <trkpt lat="36.754332" lon="-6.399153">
        <ele>10.017</ele>
        <time>2015-06-18T11:32:00Z</time>
      </trkpt>
      <trkpt lat="36.754268" lon="-6.399308">
        <ele>10.024</ele>
        <time>2015-06-18T11:32:03Z</time>
      </trkpt>
      <trkpt lat="36.754246" lon="-6.399358">
        <ele>10.004</ele>
        <time>2015-06-18T11:32:04Z</time>
      </trkpt>
      <trkpt lat="36.754034" lon="-6.399838">
        <ele>10.014</ele>
        <time>2015-06-18T11:32:13Z</time>
      </trkpt>
      <trkpt lat="36.753900" lon="-6.400131">
        <ele>10.008</ele>
        <time>2015-06-18T11:32:18Z</time>
      </trkpt>
      <trkpt lat="36.753817" lon="-6.400310">
        <ele>10.083</ele>
        <time>2015-06-18T11:32:21Z</time>
      </trkpt>
      <trkpt lat="36.753588" lon="-6.400823">
        <ele>10.039</ele>
        <time>2015-06-18T11:32:30Z</time>
      </trkpt>
      <trkpt lat="36.753419" lon="-6.401178">
        <ele>10.055</ele>
        <time>2015-06-18T11:32:37Z</time>
      </trkpt>
      <trkpt lat="36.753248" lon="-6.401553">
        <ele>10.014</ele>
        <time>2015-06-18T11:32:44Z</time>
      </trkpt>
      <trkpt lat="36.753139" lon="-6.401789">
        <ele>10.087</ele>
        <time>2015-06-18T11:32:49Z</time>
      </trkpt>
      <trkpt lat="36.753123" lon="-6.401822">
        <ele>10.059</ele>
        <time>2015-06-18T11:32:50Z</time>
      </trkpt>
      <trkpt lat="36.753053" lon="-6.401972">
        <ele>10.012</ele>
        <time>2015-06-18T11:32:54Z</time>
      </trkpt>
      <trkpt lat="36.752948" lon="-6.402201">
        <ele>10.086</ele>
        <time>2015-06-18T11:32:59Z</time>
      </trkpt>
      <trkpt lat="36.752847" lon="-6.402425">
        <ele>10.092</ele>
        <time>2015-06-18T11:33:03Z</time>
      </trkpt>
      <trkpt lat="36.752739" lon="-6.402668">
        <ele>10.073</ele>
        <time>2015-06-18T11:33:07Z</time>
      </trkpt>
      <trkpt lat="36.752507" lon="-6.403179">
        <ele>10.020</ele>
        <time>2015-06-18T11:33:15Z</time>
      </trkpt>
      <trkpt lat="36.752476" lon="-6.403241">
        <ele>10.008</ele>
        <time>2015-06-18T11:33:16Z</time>
      </trkpt>
      <trkpt lat="36.752279" lon="-6.403674">
        <ele>10.010</ele>
        <time>2015-06-18T11:33:23Z</time>
      </trkpt>
      <trkpt lat="36.752034" lon="-6.404206">
        <ele>10.086</ele>
        <time>2015-06-18T11:33:32Z</time>
      </trkpt>
      <trkpt lat="36.751812" lon="-6.404681">
        <ele>10.032</ele>
        <time>2015-06-18T11:33:40Z</time>
      </trkpt>
      <trkpt lat="36.751674" lon="-6.404979">
        <ele>10.051</ele>
        <time>2015-06-18T11:33:46Z</time>
      </trkpt>
      <trkpt lat="36.751545" lon="-6.405182">
        <ele>10.094</ele>
        <time>2015-06-18T11:33:51Z</time>
      </trkpt>
      <trkpt lat="36.751499" lon="-6.405290">
        <ele>10.016</ele>
        <time>2015-06-18T11:33:53Z</time>
      </trkpt>
      <trkpt lat="36.751427" lon="-6.405474">
        <ele>10.039</ele>
        <time>2015-06-18T11:33:56Z</time>
      </trkpt>
      <trkpt lat="36.751195" lon="-6.406011">
        <ele>10.063</ele>
        <time>2015-06-18T11:34:04Z</time>
      </trkpt>
      <trkpt lat="36.750903" lon="-6.406638">
        <ele>10.028</ele>
        <time>2015-06-18T11:34:13Z</time>
      </trkpt>
      <trkpt lat="36.750626" lon="-6.407247">
        <ele>10.089</ele>
        <time>2015-06-18T11:34:22Z</time>
      </trkpt>
      <trkpt lat="36.750351" lon="-6.407839">
        <ele>10.017</ele>
        <time>2015-06-18T11:34:31Z</time>
      </trkpt>
      <trkpt lat="36.750104" lon="-6.408371">
        <ele>10.008</ele>
        <time>2015-06-18T11:34:39Z</time>
      </trkpt>
      <trkpt lat="36.749858" lon="-6.408908">
        <ele>10.093</ele>
        <time>2015-06-18T11:34:47Z</time>
      </trkpt>
      <trkpt lat="36.749615" lon="-6.409440">
        <ele>10.079</ele>
        <time>2015-06-18T11:34:55Z</time>
      </trkpt>
      <trkpt lat="36.749397" lon="-6.409922">
        <ele>10.085</ele>
        <time>2015-06-18T11:35:02Z</time>
      </trkpt>
      <trkpt lat="36.749359" lon="-6.409984">
        <ele>10.074</ele>
        <time>2015-06-18T11:35:03Z</time>
      </trkpt>
      <trkpt lat="36.749158" lon="-6.410380">
        <ele>10.027</ele>
        <time>2015-06-18T11:35:09Z</time>
      </trkpt>
      <trkpt lat="36.748975" lon="-6.410783">
        <ele>10.019</ele>
        <time>2015-06-18T11:35:15Z</time>
      </trkpt>
      <trkpt lat="36.748919" lon="-6.410925">
        <ele>10.442</ele>
        <time>2015-06-18T11:35:17Z</time>
      </trkpt>
      <trkpt lat="36.748888" lon="-6.410996">
        <ele>10.836</ele>
        <time>2015-06-18T11:35:18Z</time>
      </trkpt>
      <trkpt lat="36.748856" lon="-6.411065">
        <ele>11.294</ele>
        <time>2015-06-18T11:35:19Z</time>
      </trkpt>
      <trkpt lat="36.748819" lon="-6.411138">
        <ele>11.657</ele>
        <time>2015-06-18T11:35:20Z</time>
      </trkpt>
      <trkpt lat="36.748786" lon="-6.411209">
        <ele>12.222</ele>
        <time>2015-06-18T11:35:21Z</time>
      </trkpt>
      <trkpt lat="36.748752" lon="-6.411277">
        <ele>12.208</ele>
        <time>2015-06-18T11:35:22Z</time>
      </trkpt>
      <trkpt lat="36.748519" lon="-6.411765">
        <ele>12.240</ele>
        <time>2015-06-18T11:35:29Z</time>
      </trkpt>
      <trkpt lat="36.748310" lon="-6.412236">
        <ele>12.226</ele>
        <time>2015-06-18T11:35:36Z</time>
      </trkpt>
      <trkpt lat="36.748278" lon="-6.412298">
        <ele>12.282</ele>
        <time>2015-06-18T11:35:37Z</time>
      </trkpt>
      <trkpt lat="36.748115" lon="-6.412619">
        <ele>12.241</ele>
        <time>2015-06-18T11:35:42Z</time>
      </trkpt>
      <trkpt lat="36.748009" lon="-6.412866">
        <ele>12.224</ele>
        <time>2015-06-18T11:35:46Z</time>
      </trkpt>
      <trkpt lat="36.747955" lon="-6.412974">
        <ele>12.236</ele>
        <time>2015-06-18T11:35:48Z</time>
      </trkpt>
      <trkpt lat="36.747809" lon="-6.413273">
        <ele>12.299</ele>
        <time>2015-06-18T11:35:54Z</time>
      </trkpt>
      <trkpt lat="36.747788" lon="-6.413320">
        <ele>12.273</ele>
        <time>2015-06-18T11:35:55Z</time>
      </trkpt>
      <trkpt lat="36.747691" lon="-6.413522">
        <ele>12.293</ele>
        <time>2015-06-18T11:35:59Z</time>
      </trkpt>
      <trkpt lat="36.747670" lon="-6.413584">
        <ele>12.265</ele>
        <time>2015-06-18T11:36:00Z</time>
      </trkpt>
      <trkpt lat="36.747622" lon="-6.413701">
        <ele>12.221</ele>
        <time>2015-06-18T11:36:02Z</time>
      </trkpt>
      <trkpt lat="36.747535" lon="-6.413885">
        <ele>12.208</ele>
        <time>2015-06-18T11:36:05Z</time>
      </trkpt>
      <trkpt lat="36.747326" lon="-6.414341">
        <ele>12.210</ele>
        <time>2015-06-18T11:36:12Z</time>
      </trkpt>
      <trkpt lat="36.747071" lon="-6.414878">
        <ele>12.246</ele>
        <time>2015-06-18T11:36:20Z</time>
      </trkpt>
      <trkpt lat="36.746870" lon="-6.415347">
        <ele>12.222</ele>
        <time>2015-06-18T11:36:27Z</time>
      </trkpt>
      <trkpt lat="36.746671" lon="-6.415788">
        <ele>12.241</ele>
        <time>2015-06-18T11:36:34Z</time>
      </trkpt>
      <trkpt lat="36.746455" lon="-6.416269">
        <ele>12.214</ele>
        <time>2015-06-18T11:36:42Z</time>
      </trkpt>
      <trkpt lat="36.746398" lon="-6.416392">
        <ele>12.286</ele>
        <time>2015-06-18T11:36:44Z</time>
      </trkpt>
      <trkpt lat="36.746299" lon="-6.416626">
        <ele>12.289</ele>
        <time>2015-06-18T11:36:48Z</time>
      </trkpt>
      <trkpt lat="36.746099" lon="-6.417073">
        <ele>12.253</ele>
        <time>2015-06-18T11:36:56Z</time>
      </trkpt>
      <trkpt lat="36.745846" lon="-6.417599">
        <ele>12.241</ele>
        <time>2015-06-18T11:37:05Z</time>
      </trkpt>
      <trkpt lat="36.745790" lon="-6.417721">
        <ele>11.681</ele>
        <time>2015-06-18T11:37:07Z</time>
      </trkpt>
      <trkpt lat="36.745766" lon="-6.417780">
        <ele>11.209</ele>
        <time>2015-06-18T11:37:08Z</time>
      </trkpt>
      <trkpt lat="36.745738" lon="-6.417834">
        <ele>10.808</ele>
        <time>2015-06-18T11:37:09Z</time>
      </trkpt>
      <trkpt lat="36.745712" lon="-6.417888">
        <ele>10.465</ele>
        <time>2015-06-18T11:37:10Z</time>
      </trkpt>
      <trkpt lat="36.745692" lon="-6.417942">
        <ele>10.051</ele>
        <time>2015-06-18T11:37:11Z</time>
      </trkpt>
      <trkpt lat="36.745563" lon="-6.418197">
        <ele>10.037</ele>
        <time>2015-06-18T11:37:16Z</time>
      </trkpt>
      <trkpt lat="36.745434" lon="-6.418483">
        <ele>10.096</ele>
        <time>2015-06-18T11:37:21Z</time>
      </trkpt>
      <trkpt lat="36.745206" lon="-6.418965">
        <ele>10.059</ele>
        <time>2015-06-18T11:37:29Z</time>
      </trkpt>
      <trkpt lat="36.745001" lon="-6.419407">
        <ele>10.081</ele>
        <time>2015-06-18T11:37:36Z</time>
      </trkpt>
      <trkpt lat="36.744764" lon="-6.419950">
        <ele>10.044</ele>
        <time>2015-06-18T11:37:44Z</time>
      </trkpt>
      <trkpt lat="36.744605" lon="-6.420295">
        <ele>10.058</ele>
        <time>2015-06-18T11:37:49Z</time>
      </trkpt>
      <trkpt lat="36.744536" lon="-6.420430">
        <ele>10.063</ele>
        <time>2015-06-18T11:37:51Z</time>
      </trkpt>
      <trkpt lat="36.744334" lon="-6.420901">
        <ele>10.044</ele>
        <time>2015-06-18T11:37:58Z</time>
      </trkpt>
      <trkpt lat="36.744166" lon="-6.421301">
        <ele>10.018</ele>
        <time>2015-06-18T11:38:04Z</time>
      </trkpt>
      <trkpt lat="36.743957" lon="-6.421767">
        <ele>10.008</ele>
        <time>2015-06-18T11:38:11Z</time>
      </trkpt>
      <trkpt lat="36.743745" lon="-6.422218">
        <ele>10.037</ele>
        <time>2015-06-18T11:38:18Z</time>
      </trkpt>
      <trkpt lat="36.743509" lon="-6.422718">
        <ele>10.053</ele>
        <time>2015-06-18T11:38:26Z</time>
      </trkpt>
      <trkpt lat="36.743451" lon="-6.422833">
        <ele>10.059</ele>
        <time>2015-06-18T11:38:28Z</time>
      </trkpt>
      <trkpt lat="36.743328" lon="-6.423042">
        <ele>10.048</ele>
        <time>2015-06-18T11:38:32Z</time>
      </trkpt>
      <trkpt lat="36.743269" lon="-6.423126">
        <ele>10.091</ele>
        <time>2015-06-18T11:38:34Z</time>
      </trkpt>
      <trkpt lat="36.743211" lon="-6.423198">
        <ele>10.023</ele>
        <time>2015-06-18T11:38:36Z</time>
      </trkpt>
      <trkpt lat="36.743180" lon="-6.423229">
        <ele>10.036</ele>
        <time>2015-06-18T11:38:37Z</time>
      </trkpt>
      <trkpt lat="36.743031" lon="-6.423364">
        <ele>10.040</ele>
        <time>2015-06-18T11:38:41Z</time>
      </trkpt>
      <trkpt lat="36.742965" lon="-6.423458">
        <ele>10.046</ele>
        <time>2015-06-18T11:38:43Z</time>
      </trkpt>
      <trkpt lat="36.742838" lon="-6.423647">
        <ele>10.088</ele>
        <time>2015-06-18T11:38:47Z</time>
      </trkpt>
      <trkpt lat="36.742792" lon="-6.423745">
        <ele>10.016</ele>
        <time>2015-06-18T11:38:49Z</time>
      </trkpt>
      <trkpt lat="36.742684" lon="-6.423878">
        <ele>10.008</ele>
        <time>2015-06-18T11:38:53Z</time>
      </trkpt>
      <trkpt lat="36.742495" lon="-6.424029">
        <ele>10.085</ele>
        <time>2015-06-18T11:38:59Z</time>
      </trkpt>
      <trkpt lat="36.742466" lon="-6.424056">
        <ele>10.091</ele>
        <time>2015-06-18T11:39:00Z</time>
      </trkpt>
      <trkpt lat="36.742321" lon="-6.424157">
        <ele>10.017</ele>
        <time>2015-06-18T11:39:06Z</time>
      </trkpt>
      <trkpt lat="36.742303" lon="-6.424172">
        <ele>10.036</ele>
        <time>2015-06-18T11:39:09Z</time>
      </trkpt>
      <trkpt lat="36.742303" lon="-6.424172">
        <ele>10.029</ele>
        <time>2015-06-18T11:39:10Z</time>
      </trkpt>
      <trkpt lat="36.742303" lon="-6.424172">
        <ele>10.011</ele>
        <time>2015-06-18T11:39:14Z</time>
      </trkpt>
      <trkpt lat="36.742304" lon="-6.424172">
        <ele>10.094</ele>
        <time>2015-06-18T11:39:17Z</time>
      </trkpt>
      <trkpt lat="36.742304" lon="-6.424172">
        <ele>10.068</ele>
        <time>2015-06-18T11:39:22Z</time>
      </trkpt>
      <trkpt lat="36.742304" lon="-6.424172">
        <ele>10.037</ele>
        <time>2015-06-18T11:39:24Z</time>
      </trkpt>
      <trkpt lat="36.742304" lon="-6.424172">
        <ele>10.049</ele>
        <time>2015-06-18T11:39:34Z</time>
      </trkpt>
      <trkpt lat="36.742304" lon="-6.424172">
        <ele>10.013</ele>
        <time>2015-06-18T11:39:41Z</time>
      </trkpt>
      <trkpt lat="36.742304" lon="-6.424172">
        <ele>10.008</ele>
        <time>2015-06-18T11:39:42Z</time>
      </trkpt>
      <trkpt lat="36.742304" lon="-6.424172">
        <ele>10.064</ele>
        <time>2015-06-18T11:39:46Z</time>
      </trkpt>
      <trkpt lat="36.742304" lon="-6.424172">
        <ele>10.040</ele>
        <time>2015-06-18T11:39:54Z</time>
      </trkpt>
      <trkpt lat="36.742305" lon="-6.424172">
        <ele>10.016</ele>
        <time>2015-06-18T11:39:58Z</time>
      </trkpt>
      <trkpt lat="36.742305" lon="-6.424172">
        <ele>10.035</ele>
        <time>2015-06-18T11:40:11Z</time>
      </trkpt>
      <trkpt lat="36.742305" lon="-6.424172">
        <ele>10.018</ele>
        <time>2015-06-18T11:40:16Z</time>
      </trkpt>
      <trkpt lat="36.742305" lon="-6.424172">
        <ele>10.050</ele>
        <time>2015-06-18T11:40:18Z</time>
      </trkpt>
      <trkpt lat="36.742306" lon="-6.424173">
        <ele>10.013</ele>
        <time>2015-06-18T11:40:26Z</time>
      </trkpt>
      <trkpt lat="36.742306" lon="-6.424173">
        <ele>10.057</ele>
        <time>2015-06-18T11:40:30Z</time>
      </trkpt>
      <trkpt lat="36.742306" lon="-6.424173">
        <ele>10.073</ele>
        <time>2015-06-18T11:40:37Z</time>
      </trkpt>
      <trkpt lat="36.742306" lon="-6.424173">
        <ele>10.085</ele>
        <time>2015-06-18T11:40:43Z</time>
      </trkpt>
      <trkpt lat="36.742306" lon="-6.424173">
        <ele>10.013</ele>
        <time>2015-06-18T11:40:48Z</time>
      </trkpt>
      <trkpt lat="36.742306" lon="-6.424173">
        <ele>10.008</ele>
        <time>2015-06-18T11:40:57Z</time>
      </trkpt>
      <trkpt lat="36.742304" lon="-6.424173">
        <ele>10.078</ele>
        <time>2015-06-18T11:41:02Z</time>
      </trkpt>
      <trkpt lat="36.742304" lon="-6.424173">
        <ele>10.024</ele>
        <time>2015-06-18T11:41:04Z</time>
      </trkpt>
      <trkpt lat="36.742304" lon="-6.424173">
        <ele>10.080</ele>
        <time>2015-06-18T11:41:09Z</time>
      </trkpt>
      <trkpt lat="36.742304" lon="-6.424173">
        <ele>10.079</ele>
        <time>2015-06-18T11:41:18Z</time>
      </trkpt>
      <trkpt lat="36.742304" lon="-6.424173">
        <ele>10.092</ele>
        <time>2015-06-18T11:41:22Z</time>
      </trkpt>
      <trkpt lat="36.742304" lon="-6.424173">
        <ele>10.094</ele>
        <time>2015-06-18T11:41:35Z</time>
      </trkpt>
      <trkpt lat="36.742304" lon="-6.424173">
        <ele>10.017</ele>
        <time>2015-06-18T11:41:37Z</time>
      </trkpt>
      <trkpt lat="36.742304" lon="-6.424173">
        <ele>10.031</ele>
        <time>2015-06-18T11:41:39Z</time>
      </trkpt>
      <trkpt lat="36.742305" lon="-6.424172">
        <ele>10.036</ele>
        <time>2015-06-18T11:41:51Z</time>
      </trkpt>
      <trkpt lat="36.742305" lon="-6.424172">
        <ele>10.017</ele>
        <time>2015-06-18T11:42:03Z</time>
      </trkpt>
      <trkpt lat="36.742305" lon="-6.424172">
        <ele>10.018</ele>
        <time>2015-06-18T11:42:05Z</time>
      </trkpt>
      <trkpt lat="36.742305" lon="-6.424172">
        <ele>10.008</ele>
        <time>2015-06-18T11:42:10Z</time>
      </trkpt>
      <trkpt lat="36.742231" lon="-6.424217">
        <ele>10.054</ele>
        <time>2015-06-18T11:42:15Z</time>
      </trkpt>
      <trkpt lat="36.742026" lon="-6.424342">
        <ele>10.020</ele>
        <time>2015-06-18T11:42:22Z</time>
      </trkpt>
      <trkpt lat="36.741773" lon="-6.424470">
        <ele>10.096</ele>
        <time>2015-06-18T11:42:29Z</time>
      </trkpt>
      <trkpt lat="36.741656" lon="-6.424528">
        <ele>10.025</ele>
        <time>2015-06-18T11:42:32Z</time>
      </trkpt>
      <trkpt lat="36.741527" lon="-6.424569">
        <ele>10.098</ele>
        <time>2015-06-18T11:42:35Z</time>
      </trkpt>
      <trkpt lat="36.741354" lon="-6.424623">
        <ele>10.030</ele>
        <time>2015-06-18T11:42:39Z</time>
      </trkpt>
      <trkpt lat="36.741220" lon="-6.424652">
        <ele>10.013</ele>
        <time>2015-06-18T11:42:42Z</time>
      </trkpt>
      <trkpt lat="36.741174" lon="-6.424653">
        <ele>10.087</ele>
        <time>2015-06-18T11:42:43Z</time>
      </trkpt>
      <trkpt lat="36.741032" lon="-6.424671">
        <ele>9.663</ele>
        <time>2015-06-18T11:42:46Z</time>
      </trkpt>
      <trkpt lat="36.740983" lon="-6.424679">
        <ele>8.844</ele>
        <time>2015-06-18T11:42:47Z</time>
      </trkpt>
      <trkpt lat="36.740937" lon="-6.424683">
        <ele>8.418</ele>
        <time>2015-06-18T11:42:48Z</time>
      </trkpt>
      <trkpt lat="36.740892" lon="-6.424686">
        <ele>8.008</ele>
        <time>2015-06-18T11:42:49Z</time>
      </trkpt>
      <trkpt lat="36.740565" lon="-6.424726">
        <ele>8.097</ele>
        <time>2015-06-18T11:42:56Z</time>
      </trkpt>
      <trkpt lat="36.740332" lon="-6.424739">
        <ele>8.063</ele>
        <time>2015-06-18T11:43:01Z</time>
      </trkpt>
      <trkpt lat="36.740239" lon="-6.424726">
        <ele>8.079</ele>
        <time>2015-06-18T11:43:03Z</time>
      </trkpt>
      <trkpt lat="36.739906" lon="-6.424675">
        <ele>8.028</ele>
        <time>2015-06-18T11:43:10Z</time>
      </trkpt>
      <trkpt lat="36.739690" lon="-6.424627">
        <ele>8.061</ele>
        <time>2015-06-18T11:43:15Z</time>
      </trkpt>
      <trkpt lat="36.739603" lon="-6.424599">
        <ele>8.083</ele>
        <time>2015-06-18T11:43:17Z</time>
      </trkpt>
      <trkpt lat="36.739385" lon="-6.424526">
        <ele>8.046</ele>
        <time>2015-06-18T11:43:23Z</time>
      </trkpt>
      <trkpt lat="36.739301" lon="-6.424474">
        <ele>8.020</ele>
        <time>2015-06-18T11:43:28Z</time>
      </trkpt>
      <trkpt lat="36.739275" lon="-6.424415">
        <ele>8.025</ele>
        <time>2015-06-18T11:43:34Z</time>
      </trkpt>
      <trkpt lat="36.739266" lon="-6.424400">
        <ele>8.026</ele>
        <time>2015-06-18T11:43:38Z</time>
      </trkpt>
      <trkpt lat="36.739266" lon="-6.424400">
        <ele>8.008</ele>
        <time>2015-06-18T11:43:39Z</time>
      </trkpt>
      <trkpt lat="36.739243" lon="-6.424391">
        <ele>8.008</ele>
        <time>2015-06-18T11:43:46Z</time>
      </trkpt>
      <trkpt lat="36.739226" lon="-6.424386">
        <ele>8.033</ele>
        <time>2015-06-18T11:43:47Z</time>
      </trkpt>
      <trkpt lat="36.739138" lon="-6.424344">
        <ele>8.039</ele>
        <time>2015-06-18T11:43:51Z</time>
      </trkpt>
      <trkpt lat="36.739116" lon="-6.424337">
        <ele>8.035</ele>
        <time>2015-06-18T11:43:52Z</time>
      </trkpt>
      <trkpt lat="36.739015" lon="-6.424298">
        <ele>8.024</ele>
        <time>2015-06-18T11:43:57Z</time>
      </trkpt>
      <trkpt lat="36.738865" lon="-6.424230">
        <ele>8.097</ele>
        <time>2015-06-18T11:44:03Z</time>
      </trkpt>
      <trkpt lat="36.738688" lon="-6.424113">
        <ele>8.039</ele>
        <time>2015-06-18T11:44:09Z</time>
      </trkpt>
      <trkpt lat="36.738586" lon="-6.424040">
        <ele>8.022</ele>
        <time>2015-06-18T11:44:12Z</time>
      </trkpt>
      <trkpt lat="36.738516" lon="-6.423987">
        <ele>8.066</ele>
        <time>2015-06-18T11:44:14Z</time>
      </trkpt>
      <trkpt lat="36.738219" lon="-6.423766">
        <ele>8.039</ele>
        <time>2015-06-18T11:44:22Z</time>
      </trkpt>
      <trkpt lat="36.738115" lon="-6.423674">
        <ele>8.401</ele>
        <time>2015-06-18T11:44:25Z</time>
      </trkpt>
      <trkpt lat="36.738081" lon="-6.423641">
        <ele>9.221</ele>
        <time>2015-06-18T11:44:26Z</time>
      </trkpt>
      <trkpt lat="36.738046" lon="-6.423608">
        <ele>9.608</ele>
        <time>2015-06-18T11:44:27Z</time>
      </trkpt>
      <trkpt lat="36.738011" lon="-6.423579">
        <ele>10.054</ele>
        <time>2015-06-18T11:44:28Z</time>
      </trkpt>
      <trkpt lat="36.737932" lon="-6.423521">
        <ele>10.040</ele>
        <time>2015-06-18T11:44:30Z</time>
      </trkpt>
      <trkpt lat="36.737732" lon="-6.423365">
        <ele>10.036</ele>
        <time>2015-06-18T11:44:35Z</time>
      </trkpt>
      <trkpt lat="36.737616" lon="-6.423269">
        <ele>10.055</ele>
        <time>2015-06-18T11:44:38Z</time>
      </trkpt>
      <trkpt lat="36.737263" lon="-6.423047">
        <ele>10.078</ele>
        <time>2015-06-18T11:44:47Z</time>
      </trkpt>
      <trkpt lat="36.737139" lon="-6.422981">
        <ele>10.090</ele>
        <time>2015-06-18T11:44:50Z</time>
      </trkpt>
      <trkpt lat="36.737062" lon="-6.422936">
        <ele>10.033</ele>
        <time>2015-06-18T11:44:52Z</time>
      </trkpt>
      <trkpt lat="36.737024" lon="-6.422908">
        <ele>10.077</ele>
        <time>2015-06-18T11:44:53Z</time>
      </trkpt>
      <trkpt lat="36.736982" lon="-6.422887">
        <ele>10.092</ele>
        <time>2015-06-18T11:44:54Z</time>
      </trkpt>
      <trkpt lat="36.736836" lon="-6.422813">
        <ele>10.073</ele>
        <time>2015-06-18T11:44:58Z</time>
      </trkpt>
      <trkpt lat="36.736546" lon="-6.422595">
        <ele>10.020</ele>
        <time>2015-06-18T11:45:06Z</time>
      </trkpt>
      <trkpt lat="36.736348" lon="-6.422451">
        <ele>10.008</ele>
        <time>2015-06-18T11:45:11Z</time>
      </trkpt>
      <trkpt lat="36.736311" lon="-6.422420">
        <ele>10.080</ele>
        <time>2015-06-18T11:45:12Z</time>
      </trkpt>
      <trkpt lat="36.736233" lon="-6.422360">
        <ele>10.036</ele>
        <time>2015-06-18T11:45:14Z</time>
      </trkpt>
      <trkpt lat="36.736092" lon="-6.422240">
        <ele>10.022</ele>
        <time>2015-06-18T11:45:19Z</time>
      </trkpt>
      <trkpt lat="36.736083" lon="-6.422226">
        <ele>10.091</ele>
        <time>2015-06-18T11:45:20Z</time>
      </trkpt>
      <trkpt lat="36.736079" lon="-6.422168">
        <ele>10.044</ele>
        <time>2015-06-18T11:45:25Z</time>
      </trkpt>
      <trkpt lat="36.736057" lon="-6.422145">
        <ele>10.016</ele>
        <time>2015-06-18T11:45:29Z</time>
      </trkpt>
      <trkpt lat="36.736042" lon="-6.422130">
        <ele>10.029</ele>
        <time>2015-06-18T11:45:30Z</time>
      </trkpt>
      <trkpt lat="36.735943" lon="-6.422014">
        <ele>10.063</ele>
        <time>2015-06-18T11:45:35Z</time>
      </trkpt>
      <trkpt lat="36.735914" lon="-6.422003">
        <ele>10.089</ele>
        <time>2015-06-18T11:45:36Z</time>
      </trkpt>
      <trkpt lat="36.735827" lon="-6.422011">
        <ele>10.006</ele>
        <time>2015-06-18T11:45:39Z</time>
      </trkpt>
      <trkpt lat="36.735804" lon="-6.422023">
        <ele>10.026</ele>
        <time>2015-06-18T11:45:40Z</time>
      </trkpt>
      <trkpt lat="36.735762" lon="-6.422052">
        <ele>10.008</ele>
        <time>2015-06-18T11:45:42Z</time>
      </trkpt>
      <trkpt lat="36.735632" lon="-6.422133">
        <ele>10.069</ele>
        <time>2015-06-18T11:45:47Z</time>
      </trkpt>
      <trkpt lat="36.735501" lon="-6.422060">
        <ele>10.045</ele>
        <time>2015-06-18T11:45:51Z</time>
      </trkpt>
      <trkpt lat="36.735275" lon="-6.421846">
        <ele>10.051</ele>
        <time>2015-06-18T11:45:58Z</time>
      </trkpt>
      <trkpt lat="36.735265" lon="-6.421800">
        <ele>10.020</ele>
        <time>2015-06-18T11:45:59Z</time>
      </trkpt>
      <trkpt lat="36.735240" lon="-6.421712">
        <ele>10.043</ele>
        <time>2015-06-18T11:46:01Z</time>
      </trkpt>
      <trkpt lat="36.735173" lon="-6.421650">
        <ele>10.015</ele>
        <time>2015-06-18T11:46:04Z</time>
      </trkpt>
      <trkpt lat="36.735147" lon="-6.421623">
        <ele>10.058</ele>
        <time>2015-06-18T11:46:05Z</time>
      </trkpt>
      <trkpt lat="36.735045" lon="-6.421557">
        <ele>10.052</ele>
        <time>2015-06-18T11:46:08Z</time>
      </trkpt>
      <trkpt lat="36.735012" lon="-6.421534">
        <ele>10.024</ele>
        <time>2015-06-18T11:46:09Z</time>
      </trkpt>
      <trkpt lat="36.734884" lon="-6.421442">
        <ele>10.004</ele>
        <time>2015-06-18T11:46:13Z</time>
      </trkpt>
      <trkpt lat="36.734755" lon="-6.421346">
        <ele>10.014</ele>
        <time>2015-06-18T11:46:17Z</time>
      </trkpt>
      <trkpt lat="36.734650" lon="-6.421268">
        <ele>10.008</ele>
        <time>2015-06-18T11:46:20Z</time>
      </trkpt>
      <trkpt lat="36.734472" lon="-6.421129">
        <ele>10.043</ele>
        <time>2015-06-18T11:46:25Z</time>
      </trkpt>
      <trkpt lat="36.734203" lon="-6.420978">
        <ele>10.029</ele>
        <time>2015-06-18T11:46:33Z</time>
      </trkpt>
      <trkpt lat="36.733992" lon="-6.420874">
        <ele>10.095</ele>
        <time>2015-06-18T11:46:39Z</time>
      </trkpt>
      <trkpt lat="36.733879" lon="-6.420807">
        <ele>10.044</ele>
        <time>2015-06-18T11:46:42Z</time>
      </trkpt>
      <trkpt lat="36.733731" lon="-6.420700">
        <ele>10.017</ele>
        <time>2015-06-18T11:46:46Z</time>
      </trkpt>
      <trkpt lat="36.733511" lon="-6.420542">
        <ele>10.089</ele>
        <time>2015-06-18T11:46:52Z</time>
      </trkpt>
      <trkpt lat="36.733397" lon="-6.420460">
        <ele>10.092</ele>
        <time>2015-06-18T11:46:55Z</time>
      </trkpt>
      <trkpt lat="36.733238" lon="-6.420341">
        <ele>10.046</ele>
        <time>2015-06-18T11:46:59Z</time>
      </trkpt>
      <trkpt lat="36.732894" lon="-6.420092">
        <ele>10.024</ele>
        <time>2015-06-18T11:47:07Z</time>
      </trkpt>
      <trkpt lat="36.732546" lon="-6.419839">
        <ele>10.004</ele>
        <time>2015-06-18T11:47:15Z</time>
      </trkpt>
      <trkpt lat="36.732265" lon="-6.419602">
        <ele>10.014</ele>
        <time>2015-06-18T11:47:22Z</time>
      </trkpt>
      <trkpt lat="36.732098" lon="-6.419472">
        <ele>10.008</ele>
        <time>2015-06-18T11:47:26Z</time>
      </trkpt>
      <trkpt lat="36.732012" lon="-6.419412">
        <ele>10.073</ele>
        <time>2015-06-18T11:47:28Z</time>
      </trkpt>
      <trkpt lat="36.731747" lon="-6.419224">
        <ele>10.079</ele>
        <time>2015-06-18T11:47:34Z</time>
      </trkpt>
      <trkpt lat="36.731398" lon="-6.418970">
        <ele>10.025</ele>
        <time>2015-06-18T11:47:42Z</time>
      </trkpt>
      <trkpt lat="36.731042" lon="-6.418709">
        <ele>10.064</ele>
        <time>2015-06-18T11:47:50Z</time>
      </trkpt>
      <trkpt lat="36.730690" lon="-6.418446">
        <ele>10.017</ele>
        <time>2015-06-18T11:47:58Z</time>
      </trkpt>
      <trkpt lat="36.730282" lon="-6.418179">
        <ele>10.029</ele>
        <time>2015-06-18T11:48:07Z</time>
      </trkpt>
      <trkpt lat="36.729922" lon="-6.417943">
        <ele>10.092</ele>
        <time>2015-06-18T11:48:15Z</time>
      </trkpt>
      <trkpt lat="36.729525" lon="-6.417679">
        <ele>10.046</ele>
        <time>2015-06-18T11:48:24Z</time>
      </trkpt>
      <trkpt lat="36.729183" lon="-6.417442">
        <ele>10.084</ele>
        <time>2015-06-18T11:48:32Z</time>
      </trkpt>
      <trkpt lat="36.729041" lon="-6.417337">
        <ele>10.007</ele>
        <time>2015-06-18T11:48:36Z</time>
      </trkpt>
      <trkpt lat="36.728982" lon="-6.417263">
        <ele>10.017</ele>
        <time>2015-06-18T11:48:38Z</time>
      </trkpt>
      <trkpt lat="36.728948" lon="-6.417230">
        <ele>10.008</ele>
        <time>2015-06-18T11:48:39Z</time>
      </trkpt>
      <trkpt lat="36.728751" lon="-6.417079">
        <ele>10.029</ele>
        <time>2015-06-18T11:48:44Z</time>
      </trkpt>
      <trkpt lat="36.728422" lon="-6.416838">
        <ele>10.045</ele>
        <time>2015-06-18T11:48:52Z</time>
      </trkpt>
      <trkpt lat="36.728084" lon="-6.416604">
        <ele>10.031</ele>
        <time>2015-06-18T11:49:00Z</time>
      </trkpt>
      <trkpt lat="36.727747" lon="-6.416369">
        <ele>10.050</ele>
        <time>2015-06-18T11:49:08Z</time>
      </trkpt>
      <trkpt lat="36.727417" lon="-6.416131">
        <ele>10.073</ele>
        <time>2015-06-18T11:49:16Z</time>
      </trkpt>
      <trkpt lat="36.727034" lon="-6.415862">
        <ele>10.025</ele>
        <time>2015-06-18T11:49:25Z</time>
      </trkpt>
      <trkpt lat="36.726676" lon="-6.415611">
        <ele>10.098</ele>
        <time>2015-06-18T11:49:33Z</time>
      </trkpt>
      <trkpt lat="36.726354" lon="-6.415385">
        <ele>10.472</ele>
        <time>2015-06-18T11:49:40Z</time>
      </trkpt>
      <trkpt lat="36.726307" lon="-6.415349">
        <ele>11.072</ele>
        <time>2015-06-18T11:49:41Z</time>
      </trkpt>
      <trkpt lat="36.726259" lon="-6.415315">
        <ele>11.413</ele>
        <time>2015-06-18T11:49:42Z</time>
      </trkpt>
      <trkpt lat="36.726213" lon="-6.415278">
        <ele>11.814</ele>
        <time>2015-06-18T11:49:43Z</time>
      </trkpt>
      <trkpt lat="36.726167" lon="-6.415242">
        <ele>12.208</ele>
        <time>2015-06-18T11:49:44Z</time>
      </trkpt>
      <trkpt lat="36.725966" lon="-6.415104">
        <ele>12.278</ele>
        <time>2015-06-18T11:49:48Z</time>
      </trkpt>
      <trkpt lat="36.725489" lon="-6.414761">
        <ele>12.284</ele>
        <time>2015-06-18T11:49:58Z</time>
      </trkpt>
      <trkpt lat="36.725125" lon="-6.414500">
        <ele>12.240</ele>
        <time>2015-06-18T11:50:06Z</time>
      </trkpt>
      <trkpt lat="36.724821" lon="-6.414286">
        <ele>12.259</ele>
        <time>2015-06-18T11:50:13Z</time>
      </trkpt>
      <trkpt lat="36.724432" lon="-6.414002">
        <ele>12.212</ele>
        <time>2015-06-18T11:50:22Z</time>
      </trkpt>
      <trkpt lat="36.724306" lon="-6.413906">
        <ele>12.264</ele>
        <time>2015-06-18T11:50:25Z</time>
      </trkpt>
      <trkpt lat="36.724178" lon="-6.413825">
        <ele>12.217</ele>
        <time>2015-06-18T11:50:28Z</time>
      </trkpt>
      <trkpt lat="36.723883" lon="-6.413627">
        <ele>12.261</ele>
        <time>2015-06-18T11:50:35Z</time>
      </trkpt>
      <trkpt lat="36.723564" lon="-6.413424">
        <ele>12.225</ele>
        <time>2015-06-18T11:50:43Z</time>
      </trkpt>
      <trkpt lat="36.723460" lon="-6.413321">
        <ele>12.226</ele>
        <time>2015-06-18T11:50:48Z</time>
      </trkpt>
      <trkpt lat="36.723435" lon="-6.413322">
        <ele>12.208</ele>
        <time>2015-06-18T11:50:49Z</time>
      </trkpt>
      <trkpt lat="36.723424" lon="-6.413369">
        <ele>12.208</ele>
        <time>2015-06-18T11:50:51Z</time>
      </trkpt>
      <trkpt lat="36.723363" lon="-6.413360">
        <ele>12.213</ele>
        <time>2015-06-18T11:50:54Z</time>
      </trkpt>
      <trkpt lat="36.723182" lon="-6.413305">
        <ele>12.299</ele>
        <time>2015-06-18T11:50:59Z</time>
      </trkpt>
      <trkpt lat="36.722842" lon="-6.413211">
        <ele>12.295</ele>
        <time>2015-06-18T11:51:07Z</time>
      </trkpt>
      <trkpt lat="36.722803" lon="-6.413198">
        <ele>12.884</ele>
        <time>2015-06-18T11:51:08Z</time>
      </trkpt>
      <trkpt lat="36.722762" lon="-6.413189">
        <ele>13.217</ele>
        <time>2015-06-18T11:51:09Z</time>
      </trkpt>
      <trkpt lat="36.722719" lon="-6.413177">
        <ele>13.619</ele>
        <time>2015-06-18T11:51:10Z</time>
      </trkpt>
      <trkpt lat="36.722679" lon="-6.413165">
        <ele>14.022</ele>
        <time>2015-06-18T11:51:11Z</time>
      </trkpt>
      <trkpt lat="36.722631" lon="-6.413150">
        <ele>14.426</ele>
        <time>2015-06-18T11:51:12Z</time>
      </trkpt>
      <trkpt lat="36.722541" lon="-6.413126">
        <ele>14.429</ele>
        <time>2015-06-18T11:51:14Z</time>
      </trkpt>
      <trkpt lat="36.722235" lon="-6.413050">
        <ele>14.400</ele>
        <time>2015-06-18T11:51:21Z</time>
      </trkpt>
      <trkpt lat="36.721960" lon="-6.412976">
        <ele>14.420</ele>
        <time>2015-06-18T11:51:27Z</time>
      </trkpt>
      <trkpt lat="36.721683" lon="-6.412915">
        <ele>14.408</ele>
        <time>2015-06-18T11:51:33Z</time>
      </trkpt>
      <trkpt lat="36.721383" lon="-6.412845">
        <ele>14.483</ele>
        <time>2015-06-18T11:51:39Z</time>
      </trkpt>
      <trkpt lat="36.721288" lon="-6.412830">
        <ele>14.469</ele>
        <time>2015-06-18T11:51:41Z</time>
      </trkpt>
      <trkpt lat="36.721090" lon="-6.412777">
        <ele>14.485</ele>
        <time>2015-06-18T11:51:45Z</time>
      </trkpt>
      <trkpt lat="36.720775" lon="-6.412702">
        <ele>14.474</ele>
        <time>2015-06-18T11:51:51Z</time>
      </trkpt>
      <trkpt lat="36.720347" lon="-6.412603">
        <ele>14.497</ele>
        <time>2015-06-18T11:51:59Z</time>
      </trkpt>
      <trkpt lat="36.719939" lon="-6.412498">
        <ele>14.449</ele>
        <time>2015-06-18T11:52:07Z</time>
      </trkpt>
      <trkpt lat="36.719593" lon="-6.412413">
        <ele>14.432</ele>
        <time>2015-06-18T11:52:14Z</time>
      </trkpt>
      <trkpt lat="36.719369" lon="-6.412386">
        <ele>14.456</ele>
        <time>2015-06-18T11:52:18Z</time>
      </trkpt>
      <trkpt lat="36.719262" lon="-6.412357">
        <ele>14.458</ele>
        <time>2015-06-18T11:52:20Z</time>
      </trkpt>
      <trkpt lat="36.718900" lon="-6.412265">
        <ele>14.452</ele>
        <time>2015-06-18T11:52:27Z</time>
      </trkpt>
      <trkpt lat="36.718480" lon="-6.412150">
        <ele>14.417</ele>
        <time>2015-06-18T11:52:35Z</time>
      </trkpt>
      <trkpt lat="36.718099" lon="-6.412053">
        <ele>14.408</ele>
        <time>2015-06-18T11:52:42Z</time>
      </trkpt>
      <trkpt lat="36.717664" lon="-6.411943">
        <ele>14.426</ele>
        <time>2015-06-18T11:52:50Z</time>
      </trkpt>
      <trkpt lat="36.717288" lon="-6.411854">
        <ele>14.472</ele>
        <time>2015-06-18T11:52:57Z</time>
      </trkpt>
      <trkpt lat="36.716854" lon="-6.411757">
        <ele>14.458</ele>
        <time>2015-06-18T11:53:05Z</time>
      </trkpt>
      <trkpt lat="36.716482" lon="-6.411670">
        <ele>14.457</ele>
        <time>2015-06-18T11:53:12Z</time>
      </trkpt>
      <trkpt lat="36.716055" lon="-6.411564">
        <ele>14.470</ele>
        <time>2015-06-18T11:53:20Z</time>
      </trkpt>
      <trkpt lat="36.715850" lon="-6.411507">
        <ele>14.472</ele>
        <time>2015-06-18T11:53:24Z</time>
      </trkpt>
      <trkpt lat="36.715653" lon="-6.411457">
        <ele>14.445</ele>
        <time>2015-06-18T11:53:28Z</time>
      </trkpt>
      <trkpt lat="36.715393" lon="-6.411402">
        <ele>14.489</ele>
        <time>2015-06-18T11:53:33Z</time>
      </trkpt>
      <trkpt lat="36.715054" lon="-6.411307">
        <ele>14.441</ele>
        <time>2015-06-18T11:53:40Z</time>
      </trkpt>
      <trkpt lat="36.715010" lon="-6.411293">
        <ele>14.481</ele>
        <time>2015-06-18T11:53:41Z</time>
      </trkpt>
      <trkpt lat="36.714730" lon="-6.411199">
        <ele>14.409</ele>
        <time>2015-06-18T11:53:48Z</time>
      </trkpt>
      <trkpt lat="36.714602" lon="-6.411149">
        <ele>14.408</ele>
        <time>2015-06-18T11:53:53Z</time>
      </trkpt>
      <trkpt lat="36.714421" lon="-6.411119">
        <ele>14.455</ele>
        <time>2015-06-18T11:54:00Z</time>
      </trkpt>
      <trkpt lat="36.714290" lon="-6.411083">
        <ele>14.481</ele>
        <time>2015-06-18T11:54:05Z</time>
      </trkpt>
      <trkpt lat="36.714263" lon="-6.411074">
        <ele>14.477</ele>
        <time>2015-06-18T11:54:06Z</time>
      </trkpt>
      <trkpt lat="36.714117" lon="-6.411029">
        <ele>14.436</ele>
        <time>2015-06-18T11:54:11Z</time>
      </trkpt>
      <trkpt lat="36.714045" lon="-6.411011">
        <ele>14.499</ele>
        <time>2015-06-18T11:54:13Z</time>
      </trkpt>
      <trkpt lat="36.713914" lon="-6.410979">
        <ele>14.491</ele>
        <time>2015-06-18T11:54:16Z</time>
      </trkpt>
      <trkpt lat="36.713867" lon="-6.410977">
        <ele>14.464</ele>
        <time>2015-06-18T11:54:17Z</time>
      </trkpt>
      <trkpt lat="36.713774" lon="-6.410950">
        <ele>14.438</ele>
        <time>2015-06-18T11:54:19Z</time>
      </trkpt>
      <trkpt lat="36.713677" lon="-6.410928">
        <ele>14.483</ele>
        <time>2015-06-18T11:54:21Z</time>
      </trkpt>
      <trkpt lat="36.713535" lon="-6.410903">
        <ele>14.425</ele>
        <time>2015-06-18T11:54:24Z</time>
      </trkpt>
      <trkpt lat="36.713322" lon="-6.410873">
        <ele>14.417</ele>
        <time>2015-06-18T11:54:29Z</time>
      </trkpt>
      <trkpt lat="36.713323" lon="-6.410871">
        <ele>14.408</ele>
        <time>2015-06-18T11:54:31Z</time>
      </trkpt>
      <trkpt lat="36.713261" lon="-6.410866">
        <ele>14.489</ele>
        <time>2015-06-18T11:54:36Z</time>
      </trkpt>
      <trkpt lat="36.713141" lon="-6.410841">
        <ele>14.465</ele>
        <time>2015-06-18T11:54:40Z</time>
      </trkpt>
      <trkpt lat="36.713013" lon="-6.410813">
        <ele>14.441</ele>
        <time>2015-06-18T11:54:43Z</time>
      </trkpt>
      <trkpt lat="36.712897" lon="-6.410801">
        <ele>14.410</ele>
        <time>2015-06-18T11:54:46Z</time>
      </trkpt>
      <trkpt lat="36.712806" lon="-6.410781">
        <ele>14.443</ele>
        <time>2015-06-18T11:54:49Z</time>
      </trkpt>
      <trkpt lat="36.712691" lon="-6.410767">
        <ele>14.485</ele>
        <time>2015-06-18T11:54:52Z</time>
      </trkpt>
      <trkpt lat="36.712498" lon="-6.410732">
        <ele>14.458</ele>
        <time>2015-06-18T11:54:56Z</time>
      </trkpt>
      <trkpt lat="36.712457" lon="-6.410719">
        <ele>14.442</ele>
        <time>2015-06-18T11:54:57Z</time>
      </trkpt>
      <trkpt lat="36.712236" lon="-6.410658">
        <ele>14.492</ele>
        <time>2015-06-18T11:55:02Z</time>
      </trkpt>
      <trkpt lat="36.712187" lon="-6.410655">
        <ele>14.473</ele>
        <time>2015-06-18T11:55:03Z</time>
      </trkpt>
      <trkpt lat="36.712140" lon="-6.410639">
        <ele>14.420</ele>
        <time>2015-06-18T11:55:04Z</time>
      </trkpt>
      <trkpt lat="36.711754" lon="-6.410545">
        <ele>14.408</ele>
        <time>2015-06-18T11:55:12Z</time>
      </trkpt>
      <trkpt lat="36.711411" lon="-6.410465">
        <ele>14.460</ele>
        <time>2015-06-18T11:55:19Z</time>
      </trkpt>
      <trkpt lat="36.711015" lon="-6.410369">
        <ele>14.496</ele>
        <time>2015-06-18T11:55:27Z</time>
      </trkpt>
      <trkpt lat="36.710643" lon="-6.410278">
        <ele>14.432</ele>
        <time>2015-06-18T11:55:34Z</time>
      </trkpt>
      <trkpt lat="36.710325" lon="-6.410205">
        <ele>14.411</ele>
        <time>2015-06-18T11:55:40Z</time>
      </trkpt>
      <trkpt lat="36.710274" lon="-6.410195">
        <ele>14.424</ele>
        <time>2015-06-18T11:55:41Z</time>
      </trkpt>
      <trkpt lat="36.709956" lon="-6.410118">
        <ele>14.446</ele>
        <time>2015-06-18T11:55:47Z</time>
      </trkpt>
      <trkpt lat="36.709577" lon="-6.410040">
        <ele>14.499</ele>
        <time>2015-06-18T11:55:54Z</time>
      </trkpt>
      <trkpt lat="36.709522" lon="-6.410028">
        <ele>14.413</ele>
        <time>2015-06-18T11:55:55Z</time>
      </trkpt>
      <trkpt lat="36.709158" lon="-6.409930">
        <ele>14.473</ele>
        <time>2015-06-18T11:56:02Z</time>
      </trkpt>
      <trkpt lat="36.708811" lon="-6.409828">
        <ele>14.485</ele>
        <time>2015-06-18T11:56:09Z</time>
      </trkpt>
      <trkpt lat="36.708555" lon="-6.409778">
        <ele>14.413</ele>
        <time>2015-06-18T11:56:14Z</time>
      </trkpt>
      <trkpt lat="36.708501" lon="-6.409777">
        <ele>14.408</ele>
        <time>2015-06-18T11:56:15Z</time>
      </trkpt>
      <trkpt lat="36.708346" lon="-6.409737">
        <ele>14.478</ele>
        <time>2015-06-18T11:56:18Z</time>
      </trkpt>
      <trkpt lat="36.708246" lon="-6.409710">
        <ele>14.494</ele>
        <time>2015-06-18T11:56:20Z</time>
      </trkpt>
      <trkpt lat="36.708147" lon="-6.409695">
        <ele>14.480</ele>
        <time>2015-06-18T11:56:22Z</time>
      </trkpt>
      <trkpt lat="36.707945" lon="-6.409645">
        <ele>14.499</ele>
        <time>2015-06-18T11:56:26Z</time>
      </trkpt>
      <trkpt lat="36.707544" lon="-6.409536">
        <ele>14.422</ele>
        <time>2015-06-18T11:56:34Z</time>
      </trkpt>
      <trkpt lat="36.707238" lon="-6.409472">
        <ele>14.424</ele>
        <time>2015-06-18T11:56:40Z</time>
      </trkpt>
      <trkpt lat="36.706882" lon="-6.409390">
        <ele>14.457</ele>
        <time>2015-06-18T11:56:47Z</time>
      </trkpt>
      <trkpt lat="36.706720" lon="-6.409347">
        <ele>14.421</ele>
        <time>2015-06-18T11:56:50Z</time>
      </trkpt>
      <trkpt lat="36.706614" lon="-6.409325">
        <ele>14.462</ele>
        <time>2015-06-18T11:56:52Z</time>
      </trkpt>
      <trkpt lat="36.706247" lon="-6.409232">
        <ele>14.483</ele>
        <time>2015-06-18T11:56:59Z</time>
      </trkpt>
      <trkpt lat="36.705809" lon="-6.409118">
        <ele>14.411</ele>
        <time>2015-06-18T11:57:07Z</time>
      </trkpt>
      <trkpt lat="36.705432" lon="-6.409027">
        <ele>14.408</ele>
        <time>2015-06-18T11:57:14Z</time>
      </trkpt>
      <trkpt lat="36.705062" lon="-6.408934">
        <ele>14.457</ele>
        <time>2015-06-18T11:57:21Z</time>
      </trkpt>
      <trkpt lat="36.704647" lon="-6.408836">
        <ele>14.473</ele>
        <time>2015-06-18T11:57:29Z</time>
      </trkpt>
      <trkpt lat="36.704176" lon="-6.408713">
        <ele>14.459</ele>
        <time>2015-06-18T11:57:38Z</time>
      </trkpt>
      <trkpt lat="36.703762" lon="-6.408620">
        <ele>14.438</ele>
        <time>2015-06-18T11:57:46Z</time>
      </trkpt>
      <trkpt lat="36.703608" lon="-6.408582">
        <ele>14.411</ele>
        <time>2015-06-18T11:57:50Z</time>
      </trkpt>
      <trkpt lat="36.703539" lon="-6.408563">
        <ele>14.463</ele>
        <time>2015-06-18T11:57:52Z</time>
      </trkpt>
      <trkpt lat="36.703305" lon="-6.408507">
        <ele>14.416</ele>
        <time>2015-06-18T11:57:58Z</time>
      </trkpt>
      <trkpt lat="36.703022" lon="-6.408445">
        <ele>14.490</ele>
        <time>2015-06-18T11:58:04Z</time>
      </trkpt>
      <trkpt lat="36.702636" lon="-6.408368">
        <ele>14.438</ele>
        <time>2015-06-18T11:58:11Z</time>
      </trkpt>
      <trkpt lat="36.702241" lon="-6.408281">
        <ele>14.470</ele>
        <time>2015-06-18T11:58:18Z</time>
      </trkpt>
      <trkpt lat="36.701791" lon="-6.408173">
        <ele>14.417</ele>
        <time>2015-06-18T11:58:26Z</time>
      </trkpt>
      <trkpt lat="36.701415" lon="-6.408070">
        <ele>14.408</ele>
        <time>2015-06-18T11:58:33Z</time>
      </trkpt>
      <trkpt lat="36.701142" lon="-6.408007">
        <ele>14.424</ele>
        <time>2015-06-18T11:58:38Z</time>
      </trkpt>
      <trkpt lat="36.701030" lon="-6.407975">
        <ele>14.460</ele>
        <time>2015-06-18T11:58:40Z</time>
      </trkpt>
      <trkpt lat="36.700654" lon="-6.407892">
        <ele>14.486</ele>
        <time>2015-06-18T11:58:47Z</time>
      </trkpt>
      <trkpt lat="36.700201" lon="-6.407785">
        <ele>14.465</ele>
        <time>2015-06-18T11:58:56Z</time>
      </trkpt>
      <trkpt lat="36.699908" lon="-6.407689">
        <ele>14.438</ele>
        <time>2015-06-18T11:59:02Z</time>
      </trkpt>
      <trkpt lat="36.699815" lon="-6.407646">
        <ele>14.440</ele>
        <time>2015-06-18T11:59:04Z</time>
      </trkpt>
      <trkpt lat="36.699417" lon="-6.407540">
        <ele>14.493</ele>
        <time>2015-06-18T11:59:12Z</time>
      </trkpt>
      <trkpt lat="36.698965" lon="-6.407438">
        <ele>14.417</ele>
        <time>2015-06-18T11:59:21Z</time>
      </trkpt>
      <trkpt lat="36.698613" lon="-6.407372">
        <ele>14.487</ele>
        <time>2015-06-18T11:59:28Z</time>
      </trkpt>
      <trkpt lat="36.698520" lon="-6.407362">
        <ele>14.442</ele>
        <time>2015-06-18T11:59:30Z</time>
      </trkpt>
      <trkpt lat="36.698413" lon="-6.407332">
        <ele>14.426</ele>
        <time>2015-06-18T11:59:33Z</time>
      </trkpt>
      <trkpt lat="36.698359" lon="-6.407316">
        <ele>14.408</ele>
        <time>2015-06-18T11:59:36Z</time>
      </trkpt>
      <trkpt lat="36.698334" lon="-6.407308">
        <ele>14.429</ele>
        <time>2015-06-18T11:59:38Z</time>
      </trkpt>
      <trkpt lat="36.698282" lon="-6.407296">
        <ele>14.475</ele>
        <time>2015-06-18T11:59:45Z</time>
      </trkpt>
      <trkpt lat="36.698282" lon="-6.407296">
        <ele>14.431</ele>
        <time>2015-06-18T11:59:54Z</time>
      </trkpt>
      <trkpt lat="36.698282" lon="-6.407296">
        <ele>14.440</ele>
        <time>2015-06-18T12:00:00Z</time>
      </trkpt>
      <trkpt lat="36.698282" lon="-6.407296">
        <ele>14.423</ele>
        <time>2015-06-18T12:00:05Z</time>
      </trkpt>
      <trkpt lat="36.698282" lon="-6.407296">
        <ele>14.415</ele>
        <time>2015-06-18T12:00:11Z</time>
      </trkpt>
      <trkpt lat="36.698282" lon="-6.407296">
        <ele>14.458</ele>
        <time>2015-06-18T12:00:14Z</time>
      </trkpt>
      <trkpt lat="36.698289" lon="-6.407293">
        <ele>14.412</ele>
        <time>2015-06-18T12:00:16Z</time>
      </trkpt>
      <trkpt lat="36.698289" lon="-6.407293">
        <ele>14.474</ele>
        <time>2015-06-18T12:00:23Z</time>
      </trkpt>
      <trkpt lat="36.698289" lon="-6.407293">
        <ele>14.456</ele>
        <time>2015-06-18T12:00:27Z</time>
      </trkpt>
      <trkpt lat="36.698289" lon="-6.407293">
        <ele>14.421</ele>
        <time>2015-06-18T12:00:30Z</time>
      </trkpt>
      <trkpt lat="36.698289" lon="-6.407293">
        <ele>14.408</ele>
        <time>2015-06-18T12:00:35Z</time>
      </trkpt>
      <trkpt lat="36.698289" lon="-6.407293">
        <ele>14.458</ele>
        <time>2015-06-18T12:00:40Z</time>
      </trkpt>
      <trkpt lat="36.698289" lon="-6.407293">
        <ele>14.464</ele>
        <time>2015-06-18T12:00:46Z</time>
      </trkpt>
      <trkpt lat="36.698289" lon="-6.407293">
        <ele>14.440</ele>
        <time>2015-06-18T12:00:52Z</time>
      </trkpt>
      <trkpt lat="36.698290" lon="-6.407295">
        <ele>14.429</ele>
        <time>2015-06-18T12:00:58Z</time>
      </trkpt>
      <trkpt lat="36.698290" lon="-6.407295">
        <ele>14.492</ele>
        <time>2015-06-18T12:01:02Z</time>
      </trkpt>
      <trkpt lat="36.698290" lon="-6.407295">
        <ele>14.444</ele>
        <time>2015-06-18T12:01:12Z</time>
      </trkpt>
      <trkpt lat="36.698290" lon="-6.407295">
        <ele>14.447</ele>
        <time>2015-06-18T12:01:22Z</time>
      </trkpt>
      <trkpt lat="36.698290" lon="-6.407295">
        <ele>14.451</ele>
        <time>2015-06-18T12:01:23Z</time>
      </trkpt>
      <trkpt lat="36.698289" lon="-6.407293">
        <ele>14.432</ele>
        <time>2015-06-18T12:01:36Z</time>
      </trkpt>
      <trkpt lat="36.698289" lon="-6.407293">
        <ele>14.492</ele>
        <time>2015-06-18T12:01:37Z</time>
      </trkpt>
      <trkpt lat="36.698289" lon="-6.407293">
        <ele>14.411</ele>
        <time>2015-06-18T12:01:40Z</time>
      </trkpt>
      <trkpt lat="36.698289" lon="-6.407293">
        <ele>14.408</ele>
        <time>2015-06-18T12:01:42Z</time>
      </trkpt>
      <trkpt lat="36.698289" lon="-6.407293">
        <ele>14.494</ele>
        <time>2015-06-18T12:01:46Z</time>
      </trkpt>
      <trkpt lat="36.698289" lon="-6.407293">
        <ele>14.480</ele>
        <time>2015-06-18T12:01:50Z</time>
      </trkpt>
      <trkpt lat="36.698289" lon="-6.407293">
        <ele>14.466</ele>
        <time>2015-06-18T12:01:52Z</time>
      </trkpt>
      <trkpt lat="36.698289" lon="-6.407293">
        <ele>14.425</ele>
        <time>2015-06-18T12:01:58Z</time>
      </trkpt>
      <trkpt lat="36.698289" lon="-6.407293">
        <ele>14.488</ele>
        <time>2015-06-18T12:02:05Z</time>
      </trkpt>
      <trkpt lat="36.698290" lon="-6.407291">
        <ele>14.460</ele>
        <time>2015-06-18T12:02:19Z</time>
      </trkpt>
      <trkpt lat="36.698290" lon="-6.407291">
        <ele>14.483</ele>
        <time>2015-06-18T12:02:30Z</time>
      </trkpt>
      <trkpt lat="36.698290" lon="-6.407291">
        <ele>14.497</ele>
        <time>2015-06-18T12:02:37Z</time>
      </trkpt>
      <trkpt lat="36.698290" lon="-6.407291">
        <ele>14.428</ele>
        <time>2015-06-18T12:02:40Z</time>
      </trkpt>
      <trkpt lat="36.698290" lon="-6.407291">
        <ele>14.489</ele>
        <time>2015-06-18T12:02:44Z</time>
      </trkpt>
      <trkpt lat="36.698291" lon="-6.407290">
        <ele>14.417</ele>
        <time>2015-06-18T12:02:55Z</time>
      </trkpt>
      <trkpt lat="36.698291" lon="-6.407290">
        <ele>14.408</ele>
        <time>2015-06-18T12:02:58Z</time>
      </trkpt>
      <trkpt lat="36.698291" lon="-6.407290">
        <ele>14.473</ele>
        <time>2015-06-18T12:03:07Z</time>
      </trkpt>
      <trkpt lat="36.698291" lon="-6.407290">
        <ele>14.459</ele>
        <time>2015-06-18T12:03:11Z</time>
      </trkpt>
      <trkpt lat="36.698291" lon="-6.407290">
        <ele>14.455</ele>
        <time>2015-06-18T12:03:15Z</time>
      </trkpt>
      <trkpt lat="36.698291" lon="-6.407290">
        <ele>14.464</ele>
        <time>2015-06-18T12:03:24Z</time>
      </trkpt>
      <trkpt lat="36.698291" lon="-6.407290">
        <ele>14.447</ele>
        <time>2015-06-18T12:03:26Z</time>
      </trkpt>
      <trkpt lat="36.698291" lon="-6.407290">
        <ele>14.439</ele>
        <time>2015-06-18T12:03:27Z</time>
      </trkpt>
      <trkpt lat="36.698292" lon="-6.407290">
        <ele>14.412</ele>
        <time>2015-06-18T12:03:40Z</time>
      </trkpt>
      <trkpt lat="36.698292" lon="-6.407290">
        <ele>14.466</ele>
        <time>2015-06-18T12:03:46Z</time>
      </trkpt>
      <trkpt lat="36.698292" lon="-6.407290">
        <ele>14.455</ele>
        <time>2015-06-18T12:03:51Z</time>
      </trkpt>
      <trkpt lat="36.698292" lon="-6.407290">
        <ele>14.407</ele>
        <time>2015-06-18T12:04:05Z</time>
      </trkpt>
      <trkpt lat="36.698293" lon="-6.407288">
        <ele>14.417</ele>
        <time>2015-06-18T12:04:19Z</time>
      </trkpt>
      <trkpt lat="36.698293" lon="-6.407288">
        <ele>14.408</ele>
        <time>2015-06-18T12:04:22Z</time>
      </trkpt>
      <trkpt lat="36.698293" lon="-6.407288">
        <ele>14.466</ele>
        <time>2015-06-18T12:04:27Z</time>
      </trkpt>
      <trkpt lat="36.698293" lon="-6.407288">
        <ele>14.412</ele>
        <time>2015-06-18T12:04:30Z</time>
      </trkpt>
      <trkpt lat="36.698293" lon="-6.407288">
        <ele>14.418</ele>
        <time>2015-06-18T12:04:34Z</time>
      </trkpt>
      <trkpt lat="36.698293" lon="-6.407288">
        <ele>14.497</ele>
        <time>2015-06-18T12:04:37Z</time>
      </trkpt>
      <trkpt lat="36.698293" lon="-6.407288">
        <ele>14.450</ele>
        <time>2015-06-18T12:04:46Z</time>
      </trkpt>
      <trkpt lat="36.698293" lon="-6.407288">
        <ele>14.442</ele>
        <time>2015-06-18T12:04:48Z</time>
      </trkpt>
      <trkpt lat="36.698293" lon="-6.407288">
        <ele>14.445</ele>
        <time>2015-06-18T12:04:50Z</time>
      </trkpt>
      <trkpt lat="36.698290" lon="-6.407289">
        <ele>14.489</ele>
        <time>2015-06-18T12:04:56Z</time>
      </trkpt>
      <trkpt lat="36.698290" lon="-6.407289">
        <ele>14.426</ele>
        <time>2015-06-18T12:05:03Z</time>
      </trkpt>
      <trkpt lat="36.698290" lon="-6.407289">
        <ele>14.447</ele>
        <time>2015-06-18T12:05:05Z</time>
      </trkpt>
      <trkpt lat="36.698290" lon="-6.407289">
        <ele>14.411</ele>
        <time>2015-06-18T12:05:09Z</time>
      </trkpt>
      <trkpt lat="36.698290" lon="-6.407289">
        <ele>14.408</ele>
        <time>2015-06-18T12:05:18Z</time>
      </trkpt>
      <trkpt lat="36.698290" lon="-6.407289">
        <ele>14.473</ele>
        <time>2015-06-18T12:05:20Z</time>
      </trkpt>
      <trkpt lat="36.698290" lon="-6.407289">
        <ele>14.459</ele>
        <time>2015-06-18T12:05:34Z</time>
      </trkpt>
      <trkpt lat="36.698288" lon="-6.407296">
        <ele>14.445</ele>
        <time>2015-06-18T12:05:47Z</time>
      </trkpt>
      <trkpt lat="36.698288" lon="-6.407296">
        <ele>14.424</ele>
        <time>2015-06-18T12:05:52Z</time>
      </trkpt>
      <trkpt lat="36.698288" lon="-6.407296">
        <ele>14.477</ele>
        <time>2015-06-18T12:05:58Z</time>
      </trkpt>
      <trkpt lat="36.698288" lon="-6.407296">
        <ele>14.439</ele>
        <time>2015-06-18T12:06:00Z</time>
      </trkpt>
      <trkpt lat="36.698288" lon="-6.407296">
        <ele>14.442</ele>
        <time>2015-06-18T12:06:14Z</time>
      </trkpt>
      <trkpt lat="36.698288" lon="-6.407295">
        <ele>14.456</ele>
        <time>2015-06-18T12:06:19Z</time>
      </trkpt>
      <trkpt lat="36.698288" lon="-6.407295">
        <ele>14.411</ele>
        <time>2015-06-18T12:06:32Z</time>
      </trkpt>
      <trkpt lat="36.698288" lon="-6.407295">
        <ele>14.421</ele>
        <time>2015-06-18T12:06:35Z</time>
      </trkpt>
      <trkpt lat="36.698288" lon="-6.407295">
        <ele>14.403</ele>
        <time>2015-06-18T12:06:40Z</time>
      </trkpt>
      <trkpt lat="36.698288" lon="-6.407295">
        <ele>14.408</ele>
        <time>2015-06-18T12:06:46Z</time>
      </trkpt>
      <trkpt lat="36.698290" lon="-6.407298">
        <ele>14.412</ele>
        <time>2015-06-18T12:07:00Z</time>
      </trkpt>
      <trkpt lat="36.698290" lon="-6.407298">
        <ele>14.468</ele>
        <time>2015-06-18T12:07:15Z</time>
      </trkpt>
      <trkpt lat="36.698290" lon="-6.407298">
        <ele>14.444</ele>
        <time>2015-06-18T12:07:25Z</time>
      </trkpt>
      <trkpt lat="36.698290" lon="-6.407298">
        <ele>14.473</ele>
        <time>2015-06-18T12:07:30Z</time>
      </trkpt>
      <trkpt lat="36.698290" lon="-6.407297">
        <ele>14.496</ele>
        <time>2015-06-18T12:07:45Z</time>
      </trkpt>
      <trkpt lat="36.698290" lon="-6.407297">
        <ele>14.488</ele>
        <time>2015-06-18T12:07:58Z</time>
      </trkpt>
      <trkpt lat="36.698290" lon="-6.407297">
        <ele>14.431</ele>
        <time>2015-06-18T12:08:12Z</time>
      </trkpt>
      <trkpt lat="36.698291" lon="-6.407299">
        <ele>14.475</ele>
        <time>2015-06-18T12:08:27Z</time>
      </trkpt>
      <trkpt lat="36.698291" lon="-6.407299">
        <ele>14.486</ele>
        <time>2015-06-18T12:08:34Z</time>
      </trkpt>
      <trkpt lat="36.698291" lon="-6.407299">
        <ele>14.460</ele>
        <time>2015-06-18T12:08:42Z</time>
      </trkpt>
      <trkpt lat="36.698291" lon="-6.407299">
        <ele>14.426</ele>
        <time>2015-06-18T12:08:45Z</time>
      </trkpt>
      <trkpt lat="36.698290" lon="-6.407302">
        <ele>14.408</ele>
        <time>2015-06-18T12:08:54Z</time>
      </trkpt>
      <trkpt lat="36.698274" lon="-6.407300">
        <ele>14.429</ele>
        <time>2015-06-18T12:09:01Z</time>
      </trkpt>
      <trkpt lat="36.698190" lon="-6.407287">
        <ele>14.465</ele>
        <time>2015-06-18T12:09:08Z</time>
      </trkpt>
      <trkpt lat="36.698091" lon="-6.407260">
        <ele>14.471</ele>
        <time>2015-06-18T12:09:14Z</time>
      </trkpt>
      <trkpt lat="36.697899" lon="-6.407206">
        <ele>14.490</ele>
        <time>2015-06-18T12:09:20Z</time>
      </trkpt>
      <trkpt lat="36.697667" lon="-6.407158">
        <ele>14.463</ele>
        <time>2015-06-18T12:09:26Z</time>
      </trkpt>
      <trkpt lat="36.697583" lon="-6.407138">
        <ele>14.435</ele>
        <time>2015-06-18T12:09:28Z</time>
      </trkpt>
      <trkpt lat="36.697457" lon="-6.407115">
        <ele>14.458</ele>
        <time>2015-06-18T12:09:31Z</time>
      </trkpt>
      <trkpt lat="36.697283" lon="-6.407069">
        <ele>14.452</ele>
        <time>2015-06-18T12:09:35Z</time>
      </trkpt>
      <trkpt lat="36.697237" lon="-6.407062">
        <ele>14.472</ele>
        <time>2015-06-18T12:09:36Z</time>
      </trkpt>
      <trkpt lat="36.696971" lon="-6.407005">
        <ele>14.413</ele>
        <time>2015-06-18T12:09:42Z</time>
      </trkpt>
      <trkpt lat="36.696927" lon="-6.406999">
        <ele>14.414</ele>
        <time>2015-06-18T12:09:43Z</time>
      </trkpt>
      <trkpt lat="36.696572" lon="-6.406928">
        <ele>14.408</ele>
        <time>2015-06-18T12:09:51Z</time>
      </trkpt>
      <trkpt lat="36.696233" lon="-6.406847">
        <ele>14.418</ele>
        <time>2015-06-18T12:09:59Z</time>
      </trkpt>
      <trkpt lat="36.696097" lon="-6.406822">
        <ele>14.444</ele>
        <time>2015-06-18T12:10:02Z</time>
      </trkpt>
      <trkpt lat="36.695914" lon="-6.406757">
        <ele>14.410</ele>
        <time>2015-06-18T12:10:06Z</time>
      </trkpt>
      <trkpt lat="36.695620" lon="-6.406660">
        <ele>14.059</ele>
        <time>2015-06-18T12:10:12Z</time>
      </trkpt>
      <trkpt lat="36.695570" lon="-6.406649">
        <ele>13.662</ele>
        <time>2015-06-18T12:10:13Z</time>
      </trkpt>
      <trkpt lat="36.695519" lon="-6.406639">
        <ele>13.244</ele>
        <time>2015-06-18T12:10:14Z</time>
      </trkpt>
      <trkpt lat="36.695467" lon="-6.406628">
        <ele>12.827</ele>
        <time>2015-06-18T12:10:15Z</time>
      </trkpt>
      <trkpt lat="36.695412" lon="-6.406615">
        <ele>12.411</ele>
        <time>2015-06-18T12:10:16Z</time>
      </trkpt>
      <trkpt lat="36.695107" lon="-6.406543">
        <ele>12.456</ele>
        <time>2015-06-18T12:10:22Z</time>
      </trkpt>
      <trkpt lat="36.694756" lon="-6.406465">
        <ele>12.459</ele>
        <time>2015-06-18T12:10:29Z</time>
      </trkpt>
      <trkpt lat="36.694406" lon="-6.406373">
        <ele>12.414</ele>
        <time>2015-06-18T12:10:36Z</time>
      </trkpt>
      <trkpt lat="36.694058" lon="-6.406287">
        <ele>12.408</ele>
        <time>2015-06-18T12:10:43Z</time>
      </trkpt>
      <trkpt lat="36.693651" lon="-6.406196">
        <ele>12.456</ele>
        <time>2015-06-18T12:10:51Z</time>
      </trkpt>
      <trkpt lat="36.693231" lon="-6.406102">
        <ele>12.422</ele>
        <time>2015-06-18T12:10:59Z</time>
      </trkpt>
      <trkpt lat="36.692860" lon="-6.406017">
        <ele>12.458</ele>
        <time>2015-06-18T12:11:06Z</time>
      </trkpt>
      <trkpt lat="36.692403" lon="-6.405910">
        <ele>12.427</ele>
        <time>2015-06-18T12:11:15Z</time>
      </trkpt>
      <trkpt lat="36.692083" lon="-6.405829">
        <ele>12.450</ele>
        <time>2015-06-18T12:11:22Z</time>
      </trkpt>
      <trkpt lat="36.691767" lon="-6.405739">
        <ele>12.432</ele>
        <time>2015-06-18T12:11:29Z</time>
      </trkpt>
      <trkpt lat="36.691418" lon="-6.405627">
        <ele>12.455</ele>
        <time>2015-06-18T12:11:37Z</time>
      </trkpt>
      <trkpt lat="36.691085" lon="-6.405485">
        <ele>12.489</ele>
        <time>2015-06-18T12:11:45Z</time>
      </trkpt>
      <trkpt lat="36.690669" lon="-6.405292">
        <ele>12.475</ele>
        <time>2015-06-18T12:11:55Z</time>
      </trkpt>
      <trkpt lat="36.690385" lon="-6.405118">
        <ele>12.428</ele>
        <time>2015-06-18T12:12:02Z</time>
      </trkpt>
      <trkpt lat="36.690346" lon="-6.405092">
        <ele>12.420</ele>
        <time>2015-06-18T12:12:03Z</time>
      </trkpt>
      <trkpt lat="36.690063" lon="-6.404900">
        <ele>12.408</ele>
        <time>2015-06-18T12:12:10Z</time>
      </trkpt>
      <trkpt lat="36.689743" lon="-6.404687">
        <ele>12.488</ele>
        <time>2015-06-18T12:12:18Z</time>
      </trkpt>
      <trkpt lat="36.689400" lon="-6.404427">
        <ele>12.434</ele>
        <time>2015-06-18T12:12:27Z</time>
      </trkpt>
      <trkpt lat="36.689091" lon="-6.404196">
        <ele>12.460</ele>
        <time>2015-06-18T12:12:35Z</time>
      </trkpt>
      <trkpt lat="36.688786" lon="-6.403955">
        <ele>12.439</ele>
        <time>2015-06-18T12:12:43Z</time>
      </trkpt>
      <trkpt lat="36.688473" lon="-6.403716">
        <ele>12.462</ele>
        <time>2015-06-18T12:12:51Z</time>
      </trkpt>
      <trkpt lat="36.688194" lon="-6.403494">
        <ele>12.414</ele>
        <time>2015-06-18T12:12:58Z</time>
      </trkpt>
      <trkpt lat="36.687818" lon="-6.403209">
        <ele>12.467</ele>
        <time>2015-06-18T12:13:07Z</time>
      </trkpt>
      <trkpt lat="36.687543" lon="-6.403010">
        <ele>12.461</ele>
        <time>2015-06-18T12:13:15Z</time>
      </trkpt>
      <trkpt lat="36.687494" lon="-6.402926">
        <ele>12.424</ele>
        <time>2015-06-18T12:13:20Z</time>
      </trkpt>
      <trkpt lat="36.687455" lon="-6.402863">
        <ele>12.404</ele>
        <time>2015-06-18T12:13:24Z</time>
      </trkpt>
      <trkpt lat="36.687431" lon="-6.402852">
        <ele>12.414</ele>
        <time>2015-06-18T12:13:25Z</time>
      </trkpt>
      <trkpt lat="36.687306" lon="-6.402779">
        <ele>12.408</ele>
        <time>2015-06-18T12:13:29Z</time>
      </trkpt>
      <trkpt lat="36.687273" lon="-6.402753">
        <ele>12.493</ele>
        <time>2015-06-18T12:13:30Z</time>
      </trkpt>
      <trkpt lat="36.686955" lon="-6.402506">
        <ele>12.459</ele>
        <time>2015-06-18T12:13:39Z</time>
      </trkpt>
      <trkpt lat="36.686846" lon="-6.402424">
        <ele>12.445</ele>
        <time>2015-06-18T12:13:42Z</time>
      </trkpt>
      <trkpt lat="36.686720" lon="-6.402328">
        <ele>12.494</ele>
        <time>2015-06-18T12:13:46Z</time>
      </trkpt>
      <trkpt lat="36.686531" lon="-6.402165">
        <ele>12.487</ele>
        <time>2015-06-18T12:13:53Z</time>
      </trkpt>
      <trkpt lat="36.686497" lon="-6.402143">
        <ele>12.839</ele>
        <time>2015-06-18T12:13:54Z</time>
      </trkpt>
      <trkpt lat="36.686464" lon="-6.402122">
        <ele>13.282</ele>
        <time>2015-06-18T12:13:55Z</time>
      </trkpt>
      <trkpt lat="36.686431" lon="-6.402098">
        <ele>13.646</ele>
        <time>2015-06-18T12:13:56Z</time>
      </trkpt>
      <trkpt lat="36.686398" lon="-6.402072">
        <ele>14.062</ele>
        <time>2015-06-18T12:13:57Z</time>
      </trkpt>
      <trkpt lat="36.686365" lon="-6.402050">
        <ele>14.483</ele>
        <time>2015-06-18T12:13:58Z</time>
      </trkpt>
      <trkpt lat="36.686330" lon="-6.402027">
        <ele>14.411</ele>
        <time>2015-06-18T12:13:59Z</time>
      </trkpt>
      <trkpt lat="36.686193" lon="-6.401925">
        <ele>14.408</ele>
        <time>2015-06-18T12:14:04Z</time>
      </trkpt>
      <trkpt lat="36.686159" lon="-6.401901">
        <ele>15.267</ele>
        <time>2015-06-18T12:14:06Z</time>
      </trkpt>
      <trkpt lat="36.686140" lon="-6.401890">
        <ele>15.613</ele>
        <time>2015-06-18T12:14:07Z</time>
      </trkpt>
      <trkpt lat="36.686117" lon="-6.401878">
        <ele>16.059</ele>
        <time>2015-06-18T12:14:08Z</time>
      </trkpt>
      <trkpt lat="36.686094" lon="-6.401860">
        <ele>16.498</ele>
        <time>2015-06-18T12:14:09Z</time>
      </trkpt>
      <trkpt lat="36.686068" lon="-6.401839">
        <ele>16.451</ele>
        <time>2015-06-18T12:14:10Z</time>
      </trkpt>
      <trkpt lat="36.685927" lon="-6.401720">
        <ele>16.433</ele>
        <time>2015-06-18T12:14:16Z</time>
      </trkpt>
      <trkpt lat="36.685753" lon="-6.401585">
        <ele>16.486</ele>
        <time>2015-06-18T12:14:21Z</time>
      </trkpt>
      <trkpt lat="36.685466" lon="-6.401359">
        <ele>16.420</ele>
        <time>2015-06-18T12:14:29Z</time>
      </trkpt>
      <trkpt lat="36.685429" lon="-6.401332">
        <ele>16.427</ele>
        <time>2015-06-18T12:14:30Z</time>
      </trkpt>
      <trkpt lat="36.685140" lon="-6.401098">
        <ele>16.468</ele>
        <time>2015-06-18T12:14:38Z</time>
      </trkpt>
      <trkpt lat="36.684918" lon="-6.400932">
        <ele>16.414</ele>
        <time>2015-06-18T12:14:44Z</time>
      </trkpt>
      <trkpt lat="36.684811" lon="-6.400849">
        <ele>16.408</ele>
        <time>2015-06-18T12:14:47Z</time>
      </trkpt>
      <trkpt lat="36.684580" lon="-6.400660">
        <ele>16.463</ele>
        <time>2015-06-18T12:14:54Z</time>
      </trkpt>
      <trkpt lat="36.684338" lon="-6.400471">
        <ele>16.489</ele>
        <time>2015-06-18T12:15:01Z</time>
      </trkpt>
      <trkpt lat="36.684095" lon="-6.400283">
        <ele>16.025</ele>
        <time>2015-06-18T12:15:08Z</time>
      </trkpt>
      <trkpt lat="36.684059" lon="-6.400260">
        <ele>15.634</ele>
        <time>2015-06-18T12:15:09Z</time>
      </trkpt>
      <trkpt lat="36.684023" lon="-6.400238">
        <ele>15.217</ele>
        <time>2015-06-18T12:15:10Z</time>
      </trkpt>
      <trkpt lat="36.683989" lon="-6.400212">
        <ele>14.849</ele>
        <time>2015-06-18T12:15:11Z</time>
      </trkpt>
      <trkpt lat="36.683957" lon="-6.400186">
        <ele>14.412</ele>
        <time>2015-06-18T12:15:12Z</time>
      </trkpt>
      <trkpt lat="36.683813" lon="-6.400087">
        <ele>14.436</ele>
        <time>2015-06-18T12:15:16Z</time>
      </trkpt>
      <trkpt lat="36.683541" lon="-6.399914">
        <ele>14.431</ele>
        <time>2015-06-18T12:15:23Z</time>
      </trkpt>
      <trkpt lat="36.683238" lon="-6.399751">
        <ele>14.461</ele>
        <time>2015-06-18T12:15:31Z</time>
      </trkpt>
      <trkpt lat="36.683016" lon="-6.399636">
        <ele>14.407</ele>
        <time>2015-06-18T12:15:38Z</time>
      </trkpt>
      <trkpt lat="36.682844" lon="-6.399543">
        <ele>14.408</ele>
        <time>2015-06-18T12:15:45Z</time>
      </trkpt>
      <trkpt lat="36.682763" lon="-6.399500">
        <ele>14.434</ele>
        <time>2015-06-18T12:15:49Z</time>
      </trkpt>
      <trkpt lat="36.682710" lon="-6.399479">
        <ele>14.440</ele>
        <time>2015-06-18T12:15:52Z</time>
      </trkpt>
      <trkpt lat="36.682687" lon="-6.399473">
        <ele>14.416</ele>
        <time>2015-06-18T12:15:53Z</time>
      </trkpt>
      <trkpt lat="36.682532" lon="-6.399403">
        <ele>14.455</ele>
        <time>2015-06-18T12:15:59Z</time>
      </trkpt>
      <trkpt lat="36.682370" lon="-6.399335">
        <ele>14.458</ele>
        <time>2015-06-18T12:16:06Z</time>
      </trkpt>
      <trkpt lat="36.682288" lon="-6.399304">
        <ele>14.830</ele>
        <time>2015-06-18T12:16:10Z</time>
      </trkpt>
      <trkpt lat="36.682265" lon="-6.399290">
        <ele>15.853</ele>
        <time>2015-06-18T12:16:11Z</time>
      </trkpt>
      <trkpt lat="36.682239" lon="-6.399278">
        <ele>16.237</ele>
        <time>2015-06-18T12:16:12Z</time>
      </trkpt>
      <trkpt lat="36.682215" lon="-6.399269">
        <ele>16.655</ele>
        <time>2015-06-18T12:16:13Z</time>
      </trkpt>
      <trkpt lat="36.682169" lon="-6.399254">
        <ele>16.607</ele>
        <time>2015-06-18T12:16:15Z</time>
      </trkpt>
      <trkpt lat="36.682123" lon="-6.399238">
        <ele>17.217</ele>
        <time>2015-06-18T12:16:17Z</time>
      </trkpt>
      <trkpt lat="36.682101" lon="-6.399228">
        <ele>17.608</ele>
        <time>2015-06-18T12:16:18Z</time>
      </trkpt>
      <trkpt lat="36.682078" lon="-6.399215">
        <ele>18.056</ele>
        <time>2015-06-18T12:16:19Z</time>
      </trkpt>
      <trkpt lat="36.682052" lon="-6.399211">
        <ele>18.662</ele>
        <time>2015-06-18T12:16:20Z</time>
      </trkpt>
      <trkpt lat="36.682028" lon="-6.399205">
        <ele>19.098</ele>
        <time>2015-06-18T12:16:21Z</time>
      </trkpt>
      <trkpt lat="36.681980" lon="-6.399186">
        <ele>19.037</ele>
        <time>2015-06-18T12:16:23Z</time>
      </trkpt>
      <trkpt lat="36.681913" lon="-6.399160">
        <ele>19.070</ele>
        <time>2015-06-18T12:16:26Z</time>
      </trkpt>
      <trkpt lat="36.681830" lon="-6.399133">
        <ele>19.052</ele>
        <time>2015-06-18T12:16:29Z</time>
      </trkpt>
      <trkpt lat="36.681739" lon="-6.399095">
        <ele>19.425</ele>
        <time>2015-06-18T12:16:32Z</time>
      </trkpt>
      <trkpt lat="36.681706" lon="-6.399084">
        <ele>19.819</ele>
        <time>2015-06-18T12:16:33Z</time>
      </trkpt>
      <trkpt lat="36.681671" lon="-6.399074">
        <ele>20.243</ele>
        <time>2015-06-18T12:16:34Z</time>
      </trkpt>
      <trkpt lat="36.681632" lon="-6.399064">
        <ele>20.664</ele>
        <time>2015-06-18T12:16:35Z</time>
      </trkpt>
      <trkpt lat="36.681586" lon="-6.399053">
        <ele>21.010</ele>
        <time>2015-06-18T12:16:36Z</time>
      </trkpt>
      <trkpt lat="36.681290" lon="-6.398947">
        <ele>21.008</ele>
        <time>2015-06-18T12:16:42Z</time>
      </trkpt>
      <trkpt lat="36.681172" lon="-6.398896">
        <ele>20.665</ele>
        <time>2015-06-18T12:16:45Z</time>
      </trkpt>
      <trkpt lat="36.681142" lon="-6.398885">
        <ele>20.041</ele>
        <time>2015-06-18T12:16:46Z</time>
      </trkpt>
      <trkpt lat="36.681114" lon="-6.398876">
        <ele>19.687</ele>
        <time>2015-06-18T12:16:47Z</time>
      </trkpt>
      <trkpt lat="36.681086" lon="-6.398866">
        <ele>18.816</ele>
        <time>2015-06-18T12:16:48Z</time>
      </trkpt>
      <trkpt lat="36.681057" lon="-6.398859">
        <ele>18.239</ele>
        <time>2015-06-18T12:16:49Z</time>
      </trkpt>
      <trkpt lat="36.681032" lon="-6.398849">
        <ele>17.491</ele>
        <time>2015-06-18T12:16:50Z</time>
      </trkpt>
      <trkpt lat="36.681006" lon="-6.398837">
        <ele>16.864</ele>
        <time>2015-06-18T12:16:51Z</time>
      </trkpt>
      <trkpt lat="36.680980" lon="-6.398827">
        <ele>16.078</ele>
        <time>2015-06-18T12:16:52Z</time>
      </trkpt>
      <trkpt lat="36.680931" lon="-6.398806">
        <ele>16.083</ele>
        <time>2015-06-18T12:16:54Z</time>
      </trkpt>
      <trkpt lat="36.680908" lon="-6.398797">
        <ele>15.625</ele>
        <time>2015-06-18T12:16:55Z</time>
      </trkpt>
      <trkpt lat="36.680886" lon="-6.398794">
        <ele>15.217</ele>
        <time>2015-06-18T12:16:56Z</time>
      </trkpt>
      <trkpt lat="36.680865" lon="-6.398786">
        <ele>14.808</ele>
        <time>2015-06-18T12:16:57Z</time>
      </trkpt>
      <trkpt lat="36.680841" lon="-6.398773">
        <ele>14.489</ele>
        <time>2015-06-18T12:16:58Z</time>
      </trkpt>
      <trkpt lat="36.680812" lon="-6.398758">
        <ele>14.085</ele>
        <time>2015-06-18T12:16:59Z</time>
      </trkpt>
      <trkpt lat="36.680778" lon="-6.398743">
        <ele>14.051</ele>
        <time>2015-06-18T12:17:00Z</time>
      </trkpt>
      <trkpt lat="36.680681" lon="-6.398706">
        <ele>14.010</ele>
        <time>2015-06-18T12:17:03Z</time>
      </trkpt>
      <trkpt lat="36.680529" lon="-6.398650">
        <ele>14.013</ele>
        <time>2015-06-18T12:17:07Z</time>
      </trkpt>
      <trkpt lat="36.680406" lon="-6.398599">
        <ele>14.085</ele>
        <time>2015-06-18T12:17:10Z</time>
      </trkpt>
      <trkpt lat="36.680255" lon="-6.398536">
        <ele>14.068</ele>
        <time>2015-06-18T12:17:14Z</time>
      </trkpt>
      <trkpt lat="36.680221" lon="-6.398522">
        <ele>14.062</ele>
        <time>2015-06-18T12:17:15Z</time>
      </trkpt>
      <trkpt lat="36.680032" lon="-6.398423">
        <ele>14.046</ele>
        <time>2015-06-18T12:17:21Z</time>
      </trkpt>
      <trkpt lat="36.680004" lon="-6.398410">
        <ele>14.088</ele>
        <time>2015-06-18T12:17:22Z</time>
      </trkpt>
      <trkpt lat="36.679910" lon="-6.398363">
        <ele>14.016</ele>
        <time>2015-06-18T12:17:26Z</time>
      </trkpt>
      <trkpt lat="36.679837" lon="-6.398310">
        <ele>14.008</ele>
        <time>2015-06-18T12:17:29Z</time>
      </trkpt>
      <trkpt lat="36.679727" lon="-6.398260">
        <ele>14.055</ele>
        <time>2015-06-18T12:17:33Z</time>
      </trkpt>
      <trkpt lat="36.679696" lon="-6.398245">
        <ele>14.021</ele>
        <time>2015-06-18T12:17:34Z</time>
      </trkpt>
      <trkpt lat="36.679464" lon="-6.398102">
        <ele>14.017</ele>
        <time>2015-06-18T12:17:41Z</time>
      </trkpt>
      <trkpt lat="36.679299" lon="-6.397973">
        <ele>14.026</ele>
        <time>2015-06-18T12:17:47Z</time>
      </trkpt>
      <trkpt lat="36.679174" lon="-6.397882">
        <ele>14.049</ele>
        <time>2015-06-18T12:17:52Z</time>
      </trkpt>
      <trkpt lat="36.679048" lon="-6.397798">
        <ele>14.011</ele>
        <time>2015-06-18T12:17:57Z</time>
      </trkpt>
      <trkpt lat="36.678998" lon="-6.397752">
        <ele>13.424</ele>
        <time>2015-06-18T12:17:59Z</time>
      </trkpt>
      <trkpt lat="36.678969" lon="-6.397731">
        <ele>13.048</ele>
        <time>2015-06-18T12:18:00Z</time>
      </trkpt>
      <trkpt lat="36.678941" lon="-6.397711">
        <ele>12.474</ele>
        <time>2015-06-18T12:18:01Z</time>
      </trkpt>
      <trkpt lat="36.678914" lon="-6.397688">
        <ele>11.856</ele>
        <time>2015-06-18T12:18:02Z</time>
      </trkpt>
      <trkpt lat="36.678887" lon="-6.397660">
        <ele>11.221</ele>
        <time>2015-06-18T12:18:03Z</time>
      </trkpt>
      <trkpt lat="36.678795" lon="-6.397588">
        <ele>11.808</ele>
        <time>2015-06-18T12:18:06Z</time>
      </trkpt>
      <trkpt lat="36.678766" lon="-6.397562">
        <ele>12.218</ele>
        <time>2015-06-18T12:18:07Z</time>
      </trkpt>
      <trkpt lat="36.678734" lon="-6.397534">
        <ele>12.674</ele>
        <time>2015-06-18T12:18:08Z</time>
      </trkpt>
      <trkpt lat="36.678701" lon="-6.397502">
        <ele>13.010</ele>
        <time>2015-06-18T12:18:09Z</time>
      </trkpt>
      <trkpt lat="36.678666" lon="-6.397467">
        <ele>13.639</ele>
        <time>2015-06-18T12:18:10Z</time>
      </trkpt>
      <trkpt lat="36.678530" lon="-6.397330">
        <ele>13.612</ele>
        <time>2015-06-18T12:18:14Z</time>
      </trkpt>
      <trkpt lat="36.678426" lon="-6.397214">
        <ele>13.654</ele>
        <time>2015-06-18T12:18:17Z</time>
      </trkpt>
      <trkpt lat="36.678292" lon="-6.397068">
        <ele>13.697</ele>
        <time>2015-06-18T12:18:21Z</time>
      </trkpt>
      <trkpt lat="36.678188" lon="-6.396958">
        <ele>13.611</ele>
        <time>2015-06-18T12:18:24Z</time>
      </trkpt>
      <trkpt lat="36.677920" lon="-6.396639">
        <ele>13.649</ele>
        <time>2015-06-18T12:18:32Z</time>
      </trkpt>
      <trkpt lat="36.677752" lon="-6.396439">
        <ele>13.602</ele>
        <time>2015-06-18T12:18:37Z</time>
      </trkpt>
      <trkpt lat="36.677680" lon="-6.396352">
        <ele>13.622</ele>
        <time>2015-06-18T12:18:39Z</time>
      </trkpt>
      <trkpt lat="36.677455" lon="-6.396072">
        <ele>13.608</ele>
        <time>2015-06-18T12:18:46Z</time>
      </trkpt>
      <trkpt lat="36.677201" lon="-6.395757">
        <ele>13.675</ele>
        <time>2015-06-18T12:18:54Z</time>
      </trkpt>
      <trkpt lat="36.677065" lon="-6.395600">
        <ele>13.651</ele>
        <time>2015-06-18T12:18:58Z</time>
      </trkpt>
      <trkpt lat="36.676967" lon="-6.395480">
        <ele>13.647</ele>
        <time>2015-06-18T12:19:01Z</time>
      </trkpt>
      <trkpt lat="36.676639" lon="-6.395074">
        <ele>13.656</ele>
        <time>2015-06-18T12:19:11Z</time>
      </trkpt>
      <trkpt lat="36.676349" lon="-6.394730">
        <ele>13.669</ele>
        <time>2015-06-18T12:19:20Z</time>
      </trkpt>
      <trkpt lat="36.676065" lon="-6.394381">
        <ele>13.651</ele>
        <time>2015-06-18T12:19:29Z</time>
      </trkpt>
      <trkpt lat="36.675861" lon="-6.394143">
        <ele>13.654</ele>
        <time>2015-06-18T12:19:36Z</time>
      </trkpt>
      <trkpt lat="36.675586" lon="-6.393823">
        <ele>13.618</ele>
        <time>2015-06-18T12:19:45Z</time>
      </trkpt>
      <trkpt lat="36.675341" lon="-6.393530">
        <ele>13.673</ele>
        <time>2015-06-18T12:19:53Z</time>
      </trkpt>
      <trkpt lat="36.675185" lon="-6.393342">
        <ele>13.685</ele>
        <time>2015-06-18T12:19:58Z</time>
      </trkpt>
      <trkpt lat="36.675120" lon="-6.393255">
        <ele>13.613</ele>
        <time>2015-06-18T12:20:00Z</time>
      </trkpt>
      <trkpt lat="36.674857" lon="-6.392936">
        <ele>13.608</ele>
        <time>2015-06-18T12:20:08Z</time>
      </trkpt>
      <trkpt lat="36.674726" lon="-6.392774">
        <ele>13.698</ele>
        <time>2015-06-18T12:20:12Z</time>
      </trkpt>
      <trkpt lat="36.674628" lon="-6.392659">
        <ele>13.684</ele>
        <time>2015-06-18T12:20:15Z</time>
      </trkpt>
      <trkpt lat="36.674595" lon="-6.392619">
        <ele>13.690</ele>
        <time>2015-06-18T12:20:16Z</time>
      </trkpt>
      <trkpt lat="36.674374" lon="-6.392348">
        <ele>13.639</ele>
        <time>2015-06-18T12:20:23Z</time>
      </trkpt>
      <trkpt lat="36.674109" lon="-6.392024">
        <ele>13.642</ele>
        <time>2015-06-18T12:20:31Z</time>
      </trkpt>
      <trkpt lat="36.673845" lon="-6.391694">
        <ele>13.684</ele>
        <time>2015-06-18T12:20:39Z</time>
      </trkpt>
      <trkpt lat="36.673708" lon="-6.391524">
        <ele>14.037</ele>
        <time>2015-06-18T12:20:43Z</time>
      </trkpt>
      <trkpt lat="36.673675" lon="-6.391482">
        <ele>14.441</ele>
        <time>2015-06-18T12:20:44Z</time>
      </trkpt>
      <trkpt lat="36.673642" lon="-6.391440">
        <ele>14.831</ele>
        <time>2015-06-18T12:20:45Z</time>
      </trkpt>
      <trkpt lat="36.673606" lon="-6.391404">
        <ele>15.261</ele>
        <time>2015-06-18T12:20:46Z</time>
      </trkpt>
      <trkpt lat="36.673571" lon="-6.391367">
        <ele>15.607</ele>
        <time>2015-06-18T12:20:47Z</time>
      </trkpt>
      <trkpt lat="36.673534" lon="-6.391331">
        <ele>15.608</ele>
        <time>2015-06-18T12:20:48Z</time>
      </trkpt>
      <trkpt lat="36.673229" lon="-6.391003">
        <ele>15.624</ele>
        <time>2015-06-18T12:20:57Z</time>
      </trkpt>
      <trkpt lat="36.672977" lon="-6.390779">
        <ele>15.680</ele>
        <time>2015-06-18T12:21:04Z</time>
      </trkpt>
      <trkpt lat="36.672659" lon="-6.390552">
        <ele>15.686</ele>
        <time>2015-06-18T12:21:12Z</time>
      </trkpt>
      <trkpt lat="36.672449" lon="-6.390374">
        <ele>15.635</ele>
        <time>2015-06-18T12:21:18Z</time>
      </trkpt>
      <trkpt lat="36.672221" lon="-6.390214">
        <ele>15.688</ele>
        <time>2015-06-18T12:21:24Z</time>
      </trkpt>
      <trkpt lat="36.671891" lon="-6.390032">
        <ele>15.680</ele>
        <time>2015-06-18T12:21:32Z</time>
      </trkpt>
      <trkpt lat="36.671654" lon="-6.389903">
        <ele>15.673</ele>
        <time>2015-06-18T12:21:38Z</time>
      </trkpt>
      <trkpt lat="36.671582" lon="-6.389862">
        <ele>15.637</ele>
        <time>2015-06-18T12:21:40Z</time>
      </trkpt>
      <trkpt lat="36.671493" lon="-6.389813">
        <ele>15.625</ele>
        <time>2015-06-18T12:21:43Z</time>
      </trkpt>
      <trkpt lat="36.671422" lon="-6.389777">
        <ele>15.626</ele>
        <time>2015-06-18T12:21:46Z</time>
      </trkpt>
      <trkpt lat="36.671391" lon="-6.389761">
        <ele>15.608</ele>
        <time>2015-06-18T12:21:49Z</time>
      </trkpt>
      <trkpt lat="36.671384" lon="-6.389764">
        <ele>15.608</ele>
        <time>2015-06-18T12:21:50Z</time>
      </trkpt>
      <trkpt lat="36.671372" lon="-6.389759">
        <ele>15.673</ele>
        <time>2015-06-18T12:21:51Z</time>
      </trkpt>
      <trkpt lat="36.671301" lon="-6.389711">
        <ele>15.619</ele>
        <time>2015-06-18T12:21:55Z</time>
      </trkpt>
      <trkpt lat="36.671112" lon="-6.389602">
        <ele>15.685</ele>
        <time>2015-06-18T12:22:01Z</time>
      </trkpt>
      <trkpt lat="36.670809" lon="-6.389439">
        <ele>15.654</ele>
        <time>2015-06-18T12:22:09Z</time>
      </trkpt>
      <trkpt lat="36.670536" lon="-6.389307">
        <ele>15.647</ele>
        <time>2015-06-18T12:22:16Z</time>
      </trkpt>
      <trkpt lat="36.670255" lon="-6.389161">
        <ele>15.669</ele>
        <time>2015-06-18T12:22:23Z</time>
      </trkpt>
      <trkpt lat="36.669973" lon="-6.389036">
        <ele>15.642</ele>
        <time>2015-06-18T12:22:30Z</time>
      </trkpt>
      <trkpt lat="36.669890" lon="-6.388996">
        <ele>15.626</ele>
        <time>2015-06-18T12:22:32Z</time>
      </trkpt>
      <trkpt lat="36.669555" lon="-6.388841">
        <ele>15.672</ele>
        <time>2015-06-18T12:22:40Z</time>
      </trkpt>
      <trkpt lat="36.669252" lon="-6.388681">
        <ele>15.613</ele>
        <time>2015-06-18T12:22:47Z</time>
      </trkpt>
      <trkpt lat="36.668911" lon="-6.388517">
        <ele>15.614</ele>
        <time>2015-06-18T12:22:55Z</time>
      </trkpt>
      <trkpt lat="36.668658" lon="-6.388388">
        <ele>15.608</ele>
        <time>2015-06-18T12:23:02Z</time>
      </trkpt>
      <trkpt lat="36.668426" lon="-6.388265">
        <ele>15.698</ele>
        <time>2015-06-18T12:23:09Z</time>
      </trkpt>
      <trkpt lat="36.668248" lon="-6.388177">
        <ele>15.614</ele>
        <time>2015-06-18T12:23:14Z</time>
      </trkpt>
      <trkpt lat="36.667951" lon="-6.388028">
        <ele>15.680</ele>
        <time>2015-06-18T12:23:22Z</time>
      </trkpt>
      <trkpt lat="36.667913" lon="-6.388006">
        <ele>15.669</ele>
        <time>2015-06-18T12:23:23Z</time>
      </trkpt>
      <trkpt lat="36.667612" lon="-6.387855">
        <ele>15.642</ele>
        <time>2015-06-18T12:23:30Z</time>
      </trkpt>
      <trkpt lat="36.667384" lon="-6.387747">
        <ele>15.654</ele>
        <time>2015-06-18T12:23:36Z</time>
      </trkpt>
      <trkpt lat="36.667243" lon="-6.387676">
        <ele>15.657</ele>
        <time>2015-06-18T12:23:40Z</time>
      </trkpt>
      <trkpt lat="36.667100" lon="-6.387614">
        <ele>15.671</ele>
        <time>2015-06-18T12:23:44Z</time>
      </trkpt>
      <trkpt lat="36.666887" lon="-6.387496">
        <ele>15.621</ele>
        <time>2015-06-18T12:23:50Z</time>
      </trkpt>
      <trkpt lat="36.666660" lon="-6.387388">
        <ele>15.641</ele>
        <time>2015-06-18T12:23:56Z</time>
      </trkpt>
      <trkpt lat="36.666524" lon="-6.387317">
        <ele>15.605</ele>
        <time>2015-06-18T12:24:00Z</time>
      </trkpt>
      <trkpt lat="36.666377" lon="-6.387239">
        <ele>15.608</ele>
        <time>2015-06-18T12:24:04Z</time>
      </trkpt>
      <trkpt lat="36.666241" lon="-6.387178">
        <ele>15.663</ele>
        <time>2015-06-18T12:24:09Z</time>
      </trkpt>
      <trkpt lat="36.666195" lon="-6.387167">
        <ele>15.629</ele>
        <time>2015-06-18T12:24:11Z</time>
      </trkpt>
      <trkpt lat="36.666114" lon="-6.387126">
        <ele>15.615</ele>
        <time>2015-06-18T12:24:14Z</time>
      </trkpt>
      <trkpt lat="36.665942" lon="-6.387038">
        <ele>15.614</ele>
        <time>2015-06-18T12:24:19Z</time>
      </trkpt>
      <trkpt lat="36.665868" lon="-6.386995">
        <ele>15.697</ele>
        <time>2015-06-18T12:24:21Z</time>
      </trkpt>
      <trkpt lat="36.665832" lon="-6.386969">
        <ele>15.659</ele>
        <time>2015-06-18T12:24:22Z</time>
      </trkpt>
      <trkpt lat="36.665667" lon="-6.386883">
        <ele>15.652</ele>
        <time>2015-06-18T12:24:26Z</time>
      </trkpt>
      <trkpt lat="36.665625" lon="-6.386860">
        <ele>15.646</ele>
        <time>2015-06-18T12:24:27Z</time>
      </trkpt>
      <trkpt lat="36.665583" lon="-6.386842">
        <ele>15.051</ele>
        <time>2015-06-18T12:24:28Z</time>
      </trkpt>
      <trkpt lat="36.665544" lon="-6.386823">
        <ele>14.601</ele>
        <time>2015-06-18T12:24:29Z</time>
      </trkpt>
      <trkpt lat="36.665507" lon="-6.386805">
        <ele>14.211</ele>
        <time>2015-06-18T12:24:30Z</time>
      </trkpt>
      <trkpt lat="36.665470" lon="-6.386787">
        <ele>13.808</ele>
        <time>2015-06-18T12:24:31Z</time>
      </trkpt>
      <trkpt lat="36.665436" lon="-6.386770">
        <ele>13.236</ele>
        <time>2015-06-18T12:24:32Z</time>
      </trkpt>
      <trkpt lat="36.665345" lon="-6.386722">
        <ele>13.212</ele>
        <time>2015-06-18T12:24:35Z</time>
      </trkpt>
      <trkpt lat="36.665288" lon="-6.386688">
        <ele>12.818</ele>
        <time>2015-06-18T12:24:37Z</time>
      </trkpt>
      <trkpt lat="36.665259" lon="-6.386668">
        <ele>12.297</ele>
        <time>2015-06-18T12:24:38Z</time>
      </trkpt>
      <trkpt lat="36.665225" lon="-6.386652">
        <ele>11.650</ele>
        <time>2015-06-18T12:24:39Z</time>
      </trkpt>
      <trkpt lat="36.665194" lon="-6.386632">
        <ele>11.822</ele>
        <time>2015-06-18T12:24:40Z</time>
      </trkpt>
      <trkpt lat="36.665163" lon="-6.386613">
        <ele>12.065</ele>
        <time>2015-06-18T12:24:41Z</time>
      </trkpt>
      <trkpt lat="36.665134" lon="-6.386597">
        <ele>12.299</ele>
        <time>2015-06-18T12:24:42Z</time>
      </trkpt>
      <trkpt lat="36.665106" lon="-6.386581">
        <ele>12.422</ele>
        <time>2015-06-18T12:24:43Z</time>
      </trkpt>
      <trkpt lat="36.665078" lon="-6.386565">
        <ele>12.462</ele>
        <time>2015-06-18T12:24:44Z</time>
      </trkpt>
      <trkpt lat="36.665001" lon="-6.386517">
        <ele>12.408</ele>
        <time>2015-06-18T12:24:48Z</time>
      </trkpt>
      <trkpt lat="36.664903" lon="-6.386469">
        <ele>12.408</ele>
        <time>2015-06-18T12:24:53Z</time>
      </trkpt>
      <trkpt lat="36.664834" lon="-6.386439">
        <ele>13.033</ele>
        <time>2015-06-18T12:24:57Z</time>
      </trkpt>
      <trkpt lat="36.664819" lon="-6.386431">
        <ele>13.469</ele>
        <time>2015-06-18T12:24:58Z</time>
      </trkpt>
      <trkpt lat="36.664802" lon="-6.386422">
        <ele>13.855</ele>
        <time>2015-06-18T12:24:59Z</time>
      </trkpt>
      <trkpt lat="36.664788" lon="-6.386405">
        <ele>14.284</ele>
        <time>2015-06-18T12:25:00Z</time>
      </trkpt>
      <trkpt lat="36.664770" lon="-6.386392">
        <ele>14.677</ele>
        <time>2015-06-18T12:25:01Z</time>
      </trkpt>
      <trkpt lat="36.664690" lon="-6.386357">
        <ele>14.699</ele>
        <time>2015-06-18T12:25:05Z</time>
      </trkpt>
      <trkpt lat="36.664656" lon="-6.386332">
        <ele>15.212</ele>
        <time>2015-06-18T12:25:07Z</time>
      </trkpt>
      <trkpt lat="36.664638" lon="-6.386322">
        <ele>15.686</ele>
        <time>2015-06-18T12:25:08Z</time>
      </trkpt>
      <trkpt lat="36.664619" lon="-6.386312">
        <ele>16.042</ele>
        <time>2015-06-18T12:25:09Z</time>
      </trkpt>
      <trkpt lat="36.664601" lon="-6.386300">
        <ele>16.422</ele>
        <time>2015-06-18T12:25:10Z</time>
      </trkpt>
      <trkpt lat="36.664588" lon="-6.386283">
        <ele>17.014</ele>
        <time>2015-06-18T12:25:11Z</time>
      </trkpt>
      <trkpt lat="36.664529" lon="-6.386255">
        <ele>17.008</ele>
        <time>2015-06-18T12:25:14Z</time>
      </trkpt>
      <trkpt lat="36.664498" lon="-6.386227">
        <ele>17.415</ele>
        <time>2015-06-18T12:25:16Z</time>
      </trkpt>
      <trkpt lat="36.664478" lon="-6.386220">
        <ele>17.831</ele>
        <time>2015-06-18T12:25:17Z</time>
      </trkpt>
      <trkpt lat="36.664459" lon="-6.386214">
        <ele>18.217</ele>
        <time>2015-06-18T12:25:18Z</time>
      </trkpt>
      <trkpt lat="36.664441" lon="-6.386210">
        <ele>18.666</ele>
        <time>2015-06-18T12:25:19Z</time>
      </trkpt>
      <trkpt lat="36.664428" lon="-6.386203">
        <ele>19.269</ele>
        <time>2015-06-18T12:25:20Z</time>
      </trkpt>
      <trkpt lat="36.664337" lon="-6.386183">
        <ele>19.231</ele>
        <time>2015-06-18T12:25:24Z</time>
      </trkpt>
      <trkpt lat="36.664309" lon="-6.386179">
        <ele>19.274</ele>
        <time>2015-06-18T12:25:25Z</time>
      </trkpt>
      <trkpt lat="36.664137" lon="-6.386148">
        <ele>19.248</ele>
        <time>2015-06-18T12:25:32Z</time>
      </trkpt>
      <trkpt lat="36.664029" lon="-6.386049">
        <ele>19.215</ele>
        <time>2015-06-18T12:25:36Z</time>
      </trkpt>
      <trkpt lat="36.663924" lon="-6.385972">
        <ele>19.265</ele>
        <time>2015-06-18T12:25:38Z</time>
      </trkpt>
      <trkpt lat="36.663813" lon="-6.385909">
        <ele>19.211</ele>
        <time>2015-06-18T12:25:40Z</time>
      </trkpt>
      <trkpt lat="36.663671" lon="-6.385840">
        <ele>19.208</ele>
        <time>2015-06-18T12:25:43Z</time>
      </trkpt>
      <trkpt lat="36.663617" lon="-6.385812">
        <ele>18.642</ele>
        <time>2015-06-18T12:25:44Z</time>
      </trkpt>
      <trkpt lat="36.663573" lon="-6.385790">
        <ele>18.288</ele>
        <time>2015-06-18T12:25:45Z</time>
      </trkpt>
      <trkpt lat="36.663523" lon="-6.385771">
        <ele>17.814</ele>
        <time>2015-06-18T12:25:46Z</time>
      </trkpt>
      <trkpt lat="36.663474" lon="-6.385749">
        <ele>17.453</ele>
        <time>2015-06-18T12:25:47Z</time>
      </trkpt>
      <trkpt lat="36.663424" lon="-6.385726">
        <ele>16.816</ele>
        <time>2015-06-18T12:25:48Z</time>
      </trkpt>
      <trkpt lat="36.663371" lon="-6.385703">
        <ele>16.248</ele>
        <time>2015-06-18T12:25:49Z</time>
      </trkpt>
      <trkpt lat="36.663321" lon="-6.385678">
        <ele>15.681</ele>
        <time>2015-06-18T12:25:50Z</time>
      </trkpt>
      <trkpt lat="36.663272" lon="-6.385649">
        <ele>15.075</ele>
        <time>2015-06-18T12:25:51Z</time>
      </trkpt>
      <trkpt lat="36.663223" lon="-6.385625">
        <ele>14.491</ele>
        <time>2015-06-18T12:25:52Z</time>
      </trkpt>
      <trkpt lat="36.662885" lon="-6.385439">
        <ele>14.481</ele>
        <time>2015-06-18T12:25:59Z</time>
      </trkpt>
      <trkpt lat="36.662785" lon="-6.385389">
        <ele>14.419</ele>
        <time>2015-06-18T12:26:01Z</time>
      </trkpt>
      <trkpt lat="36.662555" lon="-6.385242">
        <ele>14.408</ele>
        <time>2015-06-18T12:26:06Z</time>
      </trkpt>
      <trkpt lat="36.662365" lon="-6.385141">
        <ele>14.490</ele>
        <time>2015-06-18T12:26:10Z</time>
      </trkpt>
      <trkpt lat="36.662271" lon="-6.385108">
        <ele>14.426</ele>
        <time>2015-06-18T12:26:12Z</time>
      </trkpt>
      <trkpt lat="36.661903" lon="-6.384939">
        <ele>14.432</ele>
        <time>2015-06-18T12:26:20Z</time>
      </trkpt>
      <trkpt lat="36.661608" lon="-6.384784">
        <ele>14.461</ele>
        <time>2015-06-18T12:26:27Z</time>
      </trkpt>
      <trkpt lat="36.661565" lon="-6.384764">
        <ele>14.444</ele>
        <time>2015-06-18T12:26:28Z</time>
      </trkpt>
      <trkpt lat="36.661526" lon="-6.384739">
        <ele>14.496</ele>
        <time>2015-06-18T12:26:29Z</time>
      </trkpt>
      <trkpt lat="36.661322" lon="-6.384643">
        <ele>14.449</ele>
        <time>2015-06-18T12:26:34Z</time>
      </trkpt>
      <trkpt lat="36.661280" lon="-6.384624">
        <ele>14.453</ele>
        <time>2015-06-18T12:26:35Z</time>
      </trkpt>
      <trkpt lat="36.661057" lon="-6.384507">
        <ele>14.414</ele>
        <time>2015-06-18T12:26:40Z</time>
      </trkpt>
      <trkpt lat="36.660922" lon="-6.384440">
        <ele>14.454</ele>
        <time>2015-06-18T12:26:43Z</time>
      </trkpt>
      <trkpt lat="36.660573" lon="-6.384262">
        <ele>14.409</ele>
        <time>2015-06-18T12:26:51Z</time>
      </trkpt>
      <trkpt lat="36.660399" lon="-6.384185">
        <ele>14.008</ele>
        <time>2015-06-18T12:26:55Z</time>
      </trkpt>
      <trkpt lat="36.660356" lon="-6.384161">
        <ele>13.682</ele>
        <time>2015-06-18T12:26:56Z</time>
      </trkpt>
      <trkpt lat="36.660312" lon="-6.384140">
        <ele>13.288</ele>
        <time>2015-06-18T12:26:57Z</time>
      </trkpt>
      <trkpt lat="36.660265" lon="-6.384116">
        <ele>12.814</ele>
        <time>2015-06-18T12:26:58Z</time>
      </trkpt>
      <trkpt lat="36.660221" lon="-6.384095">
        <ele>12.473</ele>
        <time>2015-06-18T12:26:59Z</time>
      </trkpt>
      <trkpt lat="36.660026" lon="-6.383998">
        <ele>12.486</ele>
        <time>2015-06-18T12:27:04Z</time>
      </trkpt>
      <trkpt lat="36.659836" lon="-6.383879">
        <ele>12.418</ele>
        <time>2015-06-18T12:27:10Z</time>
      </trkpt>
      <trkpt lat="36.659611" lon="-6.383762">
        <ele>12.471</ele>
        <time>2015-06-18T12:27:16Z</time>
      </trkpt>
      <trkpt lat="36.659402" lon="-6.383652">
        <ele>12.465</ele>
        <time>2015-06-18T12:27:21Z</time>
      </trkpt>
      <trkpt lat="36.659318" lon="-6.383615">
        <ele>12.437</ele>
        <time>2015-06-18T12:27:23Z</time>
      </trkpt>
      <trkpt lat="36.659069" lon="-6.383486">
        <ele>12.449</ele>
        <time>2015-06-18T12:27:29Z</time>
      </trkpt>
      <trkpt lat="36.659028" lon="-6.383463">
        <ele>12.413</ele>
        <time>2015-06-18T12:27:30Z</time>
      </trkpt>
      <trkpt lat="36.658682" lon="-6.383279">
        <ele>12.408</ele>
        <time>2015-06-18T12:27:38Z</time>
      </trkpt>
      <trkpt lat="36.658356" lon="-6.383096">
        <ele>12.414</ele>
        <time>2015-06-18T12:27:46Z</time>
      </trkpt>
      <trkpt lat="36.658108" lon="-6.382947">
        <ele>12.480</ele>
        <time>2015-06-18T12:27:52Z</time>
      </trkpt>
      <trkpt lat="36.658022" lon="-6.382897">
        <ele>12.476</ele>
        <time>2015-06-18T12:27:54Z</time>
      </trkpt>
      <trkpt lat="36.657894" lon="-6.382857">
        <ele>12.495</ele>
        <time>2015-06-18T12:27:57Z</time>
      </trkpt>
      <trkpt lat="36.657808" lon="-6.382823">
        <ele>12.418</ele>
        <time>2015-06-18T12:27:59Z</time>
      </trkpt>
      <trkpt lat="36.657630" lon="-6.382731">
        <ele>12.490</ele>
        <time>2015-06-18T12:28:03Z</time>
      </trkpt>
      <trkpt lat="36.657276" lon="-6.382552">
        <ele>12.433</ele>
        <time>2015-06-18T12:28:11Z</time>
      </trkpt>
      <trkpt lat="36.656976" lon="-6.382403">
        <ele>12.477</ele>
        <time>2015-06-18T12:28:18Z</time>
      </trkpt>
      <trkpt lat="36.656931" lon="-6.382386">
        <ele>12.435</ele>
        <time>2015-06-18T12:28:19Z</time>
      </trkpt>
      <trkpt lat="36.656886" lon="-6.382360">
        <ele>12.486</ele>
        <time>2015-06-18T12:28:20Z</time>
      </trkpt>
      <trkpt lat="36.656598" lon="-6.382214">
        <ele>12.414</ele>
        <time>2015-06-18T12:28:26Z</time>
      </trkpt>
      <trkpt lat="36.656146" lon="-6.381983">
        <ele>12.408</ele>
        <time>2015-06-18T12:28:35Z</time>
      </trkpt>
      <trkpt lat="36.655767" lon="-6.381786">
        <ele>12.464</ele>
        <time>2015-06-18T12:28:43Z</time>
      </trkpt>
      <trkpt lat="36.655426" lon="-6.381619">
        <ele>12.440</ele>
        <time>2015-06-18T12:28:50Z</time>
      </trkpt>
      <trkpt lat="36.655243" lon="-6.381516">
        <ele>12.496</ele>
        <time>2015-06-18T12:28:54Z</time>
      </trkpt>
      <trkpt lat="36.654908" lon="-6.381341">
        <ele>12.475</ele>
        <time>2015-06-18T12:29:02Z</time>
      </trkpt>
      <trkpt lat="36.654674" lon="-6.381224">
        <ele>12.458</ele>
        <time>2015-06-18T12:29:08Z</time>
      </trkpt>
      <trkpt lat="36.654634" lon="-6.381204">
        <ele>12.490</ele>
        <time>2015-06-18T12:29:09Z</time>
      </trkpt>
      <trkpt lat="36.654515" lon="-6.381148">
        <ele>12.453</ele>
        <time>2015-06-18T12:29:12Z</time>
      </trkpt>
      <trkpt lat="36.654477" lon="-6.381122">
        <ele>12.417</ele>
        <time>2015-06-18T12:29:13Z</time>
      </trkpt>
      <trkpt lat="36.654398" lon="-6.381070">
        <ele>12.413</ele>
        <time>2015-06-18T12:29:15Z</time>
      </trkpt>
      <trkpt lat="36.654316" lon="-6.381032">
        <ele>12.443</ele>
        <time>2015-06-18T12:29:17Z</time>
      </trkpt>
      <trkpt lat="36.654118" lon="-6.380934">
        <ele>12.407</ele>
        <time>2015-06-18T12:29:22Z</time>
      </trkpt>
      <trkpt lat="36.653782" lon="-6.380749">
        <ele>12.408</ele>
        <time>2015-06-18T12:29:30Z</time>
      </trkpt>
      <trkpt lat="36.653575" lon="-6.380631">
        <ele>12.472</ele>
        <time>2015-06-18T12:29:35Z</time>
      </trkpt>
      <trkpt lat="36.653468" lon="-6.380580">
        <ele>12.438</ele>
        <time>2015-06-18T12:29:38Z</time>
      </trkpt>
      <trkpt lat="36.653261" lon="-6.380476">
        <ele>12.484</ele>
        <time>2015-06-18T12:29:44Z</time>
      </trkpt>
      <trkpt lat="36.653225" lon="-6.380446">
        <ele>12.453</ele>
        <time>2015-06-18T12:29:45Z</time>
      </trkpt>
      <trkpt lat="36.653044" lon="-6.380297">
        <ele>12.416</ele>
        <time>2015-06-18T12:29:50Z</time>
      </trkpt>
      <trkpt lat="36.652747" lon="-6.380160">
        <ele>12.438</ele>
        <time>2015-06-18T12:29:57Z</time>
      </trkpt>
      <trkpt lat="36.652466" lon="-6.379945">
        <ele>12.441</ele>
        <time>2015-06-18T12:30:04Z</time>
      </trkpt>
      <trkpt lat="36.652178" lon="-6.379695">
        <ele>12.495</ele>
        <time>2015-06-18T12:30:12Z</time>
      </trkpt>
      <trkpt lat="36.651911" lon="-6.379436">
        <ele>12.491</ele>
        <time>2015-06-18T12:30:20Z</time>
      </trkpt>
      <trkpt lat="36.651740" lon="-6.379224">
        <ele>12.481</ele>
        <time>2015-06-18T12:30:25Z</time>
      </trkpt>
      <trkpt lat="36.651563" lon="-6.378959">
        <ele>12.419</ele>
        <time>2015-06-18T12:30:31Z</time>
      </trkpt>
      <trkpt lat="36.651537" lon="-6.378914">
        <ele>12.408</ele>
        <time>2015-06-18T12:30:32Z</time>
      </trkpt>
      <trkpt lat="36.651418" lon="-6.378742">
        <ele>12.470</ele>
        <time>2015-06-18T12:30:36Z</time>
      </trkpt>
      <trkpt lat="36.651361" lon="-6.378668">
        <ele>12.476</ele>
        <time>2015-06-18T12:30:38Z</time>
      </trkpt>
      <trkpt lat="36.651291" lon="-6.378546">
        <ele>12.462</ele>
        <time>2015-06-18T12:30:41Z</time>
      </trkpt>
      <trkpt lat="36.651227" lon="-6.378467">
        <ele>12.441</ele>
        <time>2015-06-18T12:30:43Z</time>
      </trkpt>
      <trkpt lat="36.651043" lon="-6.378215">
        <ele>12.484</ele>
        <time>2015-06-18T12:30:49Z</time>
      </trkpt>
      <trkpt lat="36.650828" lon="-6.377918">
        <ele>12.426</ele>
        <time>2015-06-18T12:30:56Z</time>
      </trkpt>
      <trkpt lat="36.650596" lon="-6.377615">
        <ele>12.479</ele>
        <time>2015-06-18T12:31:04Z</time>
      </trkpt>
      <trkpt lat="36.650388" lon="-6.377358">
        <ele>12.473</ele>
        <time>2015-06-18T12:31:11Z</time>
      </trkpt>
      <trkpt lat="36.650192" lon="-6.377105">
        <ele>12.451</ele>
        <time>2015-06-18T12:31:17Z</time>
      </trkpt>
      <trkpt lat="36.649928" lon="-6.376788">
        <ele>12.401</ele>
        <time>2015-06-18T12:31:25Z</time>
      </trkpt>
      <trkpt lat="36.649694" lon="-6.376534">
        <ele>12.411</ele>
        <time>2015-06-18T12:31:32Z</time>
      </trkpt>
      <trkpt lat="36.649463" lon="-6.376294">
        <ele>12.408</ele>
        <time>2015-06-18T12:31:39Z</time>
      </trkpt>
      <trkpt lat="36.649254" lon="-6.376094">
        <ele>12.496</ele>
        <time>2015-06-18T12:31:45Z</time>
      </trkpt>
      <trkpt lat="36.649216" lon="-6.376063">
        <ele>12.492</ele>
        <time>2015-06-18T12:31:46Z</time>
      </trkpt>
      <trkpt lat="36.648962" lon="-6.375867">
        <ele>12.488</ele>
        <time>2015-06-18T12:31:53Z</time>
      </trkpt>
      <trkpt lat="36.648853" lon="-6.375786">
        <ele>12.447</ele>
        <time>2015-06-18T12:31:56Z</time>
      </trkpt>
      <trkpt lat="36.648698" lon="-6.375694">
        <ele>12.410</ele>
        <time>2015-06-18T12:32:00Z</time>
      </trkpt>
      <trkpt lat="36.648436" lon="-6.375521">
        <ele>12.442</ele>
        <time>2015-06-18T12:32:07Z</time>
      </trkpt>
      <trkpt lat="36.648081" lon="-6.375311">
        <ele>12.425</ele>
        <time>2015-06-18T12:32:16Z</time>
      </trkpt>
      <trkpt lat="36.647728" lon="-6.375134">
        <ele>12.449</ele>
        <time>2015-06-18T12:32:24Z</time>
      </trkpt>
      <trkpt lat="36.647513" lon="-6.375040">
        <ele>12.414</ele>
        <time>2015-06-18T12:32:30Z</time>
      </trkpt>
      <trkpt lat="36.647419" lon="-6.374986">
        <ele>12.454</ele>
        <time>2015-06-18T12:32:33Z</time>
      </trkpt>
      <trkpt lat="36.647325" lon="-6.374946">
        <ele>12.409</ele>
        <time>2015-06-18T12:32:36Z</time>
      </trkpt>
      <trkpt lat="36.647307" lon="-6.374925">
        <ele>12.408</ele>
        <time>2015-06-18T12:32:39Z</time>
      </trkpt>
      <trkpt lat="36.647323" lon="-6.374924">
        <ele>12.072</ele>
        <time>2015-06-18T12:32:40Z</time>
      </trkpt>
      <trkpt lat="36.647336" lon="-6.374940">
        <ele>11.638</ele>
        <time>2015-06-18T12:32:41Z</time>
      </trkpt>
      <trkpt lat="36.647349" lon="-6.374951">
        <ele>11.234</ele>
        <time>2015-06-18T12:32:42Z</time>
      </trkpt>
      <trkpt lat="36.647373" lon="-6.374961">
        <ele>10.883</ele>
        <time>2015-06-18T12:32:43Z</time>
      </trkpt>
      <trkpt lat="36.647402" lon="-6.374974">
        <ele>10.486</ele>
        <time>2015-06-18T12:32:44Z</time>
      </trkpt>
      <trkpt lat="36.647552" lon="-6.374977">
        <ele>10.458</ele>
        <time>2015-06-18T12:32:48Z</time>
      </trkpt>
      <trkpt lat="36.647796" lon="-6.374947">
        <ele>10.421</ele>
        <time>2015-06-18T12:32:54Z</time>
      </trkpt>
      <trkpt lat="36.647889" lon="-6.374947">
        <ele>10.455</ele>
        <time>2015-06-18T12:32:56Z</time>
      </trkpt>
      <trkpt lat="36.648029" lon="-6.374939">
        <ele>10.443</ele>
        <time>2015-06-18T12:32:59Z</time>
      </trkpt>
      <trkpt lat="36.648123" lon="-6.374948">
        <ele>10.464</ele>
        <time>2015-06-18T12:33:01Z</time>
      </trkpt>
      <trkpt lat="36.648259" lon="-6.374971">
        <ele>10.410</ele>
        <time>2015-06-18T12:33:04Z</time>
      </trkpt>
      <trkpt lat="36.648302" lon="-6.374971">
        <ele>10.408</ele>
        <time>2015-06-18T12:33:05Z</time>
      </trkpt>
      <trkpt lat="36.648509" lon="-6.374961">
        <ele>10.435</ele>
        <time>2015-06-18T12:33:10Z</time>
      </trkpt>
      <trkpt lat="36.648639" lon="-6.374943">
        <ele>10.871</ele>
        <time>2015-06-18T12:33:13Z</time>
      </trkpt>
      <trkpt lat="36.648683" lon="-6.374940">
        <ele>11.297</ele>
        <time>2015-06-18T12:33:14Z</time>
      </trkpt>
      <trkpt lat="36.648729" lon="-6.374939">
        <ele>11.646</ele>
        <time>2015-06-18T12:33:15Z</time>
      </trkpt>
      <trkpt lat="36.648771" lon="-6.374933">
        <ele>12.059</ele>
        <time>2015-06-18T12:33:16Z</time>
      </trkpt>
      <trkpt lat="36.648815" lon="-6.374925">
        <ele>12.451</ele>
        <time>2015-06-18T12:33:17Z</time>
      </trkpt>
      <trkpt lat="36.649079" lon="-6.374877">
        <ele>12.464</ele>
        <time>2015-06-18T12:33:23Z</time>
      </trkpt>
      <trkpt lat="36.649120" lon="-6.374876">
        <ele>12.418</ele>
        <time>2015-06-18T12:33:24Z</time>
      </trkpt>
      <trkpt lat="36.649244" lon="-6.374844">
        <ele>12.429</ele>
        <time>2015-06-18T12:33:27Z</time>
      </trkpt>
      <trkpt lat="36.649281" lon="-6.374826">
        <ele>12.400</ele>
        <time>2015-06-18T12:33:28Z</time>
      </trkpt>
      <trkpt lat="36.649481" lon="-6.374702">
        <ele>12.420</ele>
        <time>2015-06-18T12:33:34Z</time>
      </trkpt>
      <trkpt lat="36.649515" lon="-6.374625">
        <ele>12.408</ele>
        <time>2015-06-18T12:33:37Z</time>
      </trkpt>
      <trkpt lat="36.649523" lon="-6.374573">
        <ele>12.493</ele>
        <time>2015-06-18T12:33:39Z</time>
      </trkpt>
      <trkpt lat="36.649535" lon="-6.374512">
        <ele>12.419</ele>
        <time>2015-06-18T12:33:43Z</time>
      </trkpt>
      <trkpt lat="36.649554" lon="-6.374488">
        <ele>12.445</ele>
        <time>2015-06-18T12:33:45Z</time>
      </trkpt>
      <trkpt lat="36.649624" lon="-6.374444">
        <ele>12.464</ele>
        <time>2015-06-18T12:33:49Z</time>
      </trkpt>
      <trkpt lat="36.649647" lon="-6.374432">
        <ele>12.417</ele>
        <time>2015-06-18T12:33:50Z</time>
      </trkpt>
      <trkpt lat="36.649832" lon="-6.374364">
        <ele>12.489</ele>
        <time>2015-06-18T12:33:57Z</time>
      </trkpt>
      <trkpt lat="36.650025" lon="-6.374291">
        <ele>12.492</ele>
        <time>2015-06-18T12:34:04Z</time>
      </trkpt>
      <trkpt lat="36.650279" lon="-6.374186">
        <ele>12.866</ele>
        <time>2015-06-18T12:34:12Z</time>
      </trkpt>
      <trkpt lat="36.650313" lon="-6.374174">
        <ele>13.243</ele>
        <time>2015-06-18T12:34:13Z</time>
      </trkpt>
      <trkpt lat="36.650345" lon="-6.374159">
        <ele>13.664</ele>
        <time>2015-06-18T12:34:14Z</time>
      </trkpt>
      <trkpt lat="36.650376" lon="-6.374149">
        <ele>14.010</ele>
        <time>2015-06-18T12:34:15Z</time>
      </trkpt>
      <trkpt lat="36.650406" lon="-6.374137">
        <ele>14.408</ele>
        <time>2015-06-18T12:34:16Z</time>
      </trkpt>
      <trkpt lat="36.650501" lon="-6.374104">
        <ele>14.435</ele>
        <time>2015-06-18T12:34:19Z</time>
      </trkpt>
      <trkpt lat="36.650665" lon="-6.373976">
        <ele>14.461</ele>
        <time>2015-06-18T12:34:24Z</time>
      </trkpt>
      <trkpt lat="36.650775" lon="-6.373901">
        <ele>14.467</ele>
        <time>2015-06-18T12:34:27Z</time>
      </trkpt>
      <trkpt lat="36.650814" lon="-6.373888">
        <ele>14.476</ele>
        <time>2015-06-18T12:34:28Z</time>
      </trkpt>
      <trkpt lat="36.650939" lon="-6.373830">
        <ele>14.499</ele>
        <time>2015-06-18T12:34:31Z</time>
      </trkpt>
      <trkpt lat="36.651295" lon="-6.373689">
        <ele>14.461</ele>
        <time>2015-06-18T12:34:39Z</time>
      </trkpt>
      <trkpt lat="36.651506" lon="-6.373603">
        <ele>14.834</ele>
        <time>2015-06-18T12:34:44Z</time>
      </trkpt>
      <trkpt lat="36.651550" lon="-6.373585">
        <ele>15.218</ele>
        <time>2015-06-18T12:34:45Z</time>
      </trkpt>
      <trkpt lat="36.651593" lon="-6.373566">
        <ele>15.697</ele>
        <time>2015-06-18T12:34:46Z</time>
      </trkpt>
      <trkpt lat="36.651638" lon="-6.373550">
        <ele>16.023</ele>
        <time>2015-06-18T12:34:47Z</time>
      </trkpt>
      <trkpt lat="36.651678" lon="-6.373533">
        <ele>16.425</ele>
        <time>2015-06-18T12:34:48Z</time>
      </trkpt>
      <trkpt lat="36.651969" lon="-6.373424">
        <ele>16.408</ele>
        <time>2015-06-18T12:34:55Z</time>
      </trkpt>
      <trkpt lat="36.652054" lon="-6.373396">
        <ele>16.440</ele>
        <time>2015-06-18T12:34:57Z</time>
      </trkpt>
      <trkpt lat="36.652256" lon="-6.373314">
        <ele>16.476</ele>
        <time>2015-06-18T12:35:02Z</time>
      </trkpt>
      <trkpt lat="36.652537" lon="-6.373203">
        <ele>16.822</ele>
        <time>2015-06-18T12:35:09Z</time>
      </trkpt>
      <trkpt lat="36.652573" lon="-6.373185">
        <ele>17.411</ele>
        <time>2015-06-18T12:35:10Z</time>
      </trkpt>
      <trkpt lat="36.652608" lon="-6.373168">
        <ele>17.874</ele>
        <time>2015-06-18T12:35:11Z</time>
      </trkpt>
      <trkpt lat="36.652644" lon="-6.373158">
        <ele>18.256</ele>
        <time>2015-06-18T12:35:12Z</time>
      </trkpt>
      <trkpt lat="36.652681" lon="-6.373147">
        <ele>18.679</ele>
        <time>2015-06-18T12:35:13Z</time>
      </trkpt>
      <trkpt lat="36.652840" lon="-6.373083">
        <ele>18.643</ele>
        <time>2015-06-18T12:35:17Z</time>
      </trkpt>
      <trkpt lat="36.653180" lon="-6.372956">
        <ele>18.675</ele>
        <time>2015-06-18T12:35:26Z</time>
      </trkpt>
      <trkpt lat="36.653336" lon="-6.372892">
        <ele>19.028</ele>
        <time>2015-06-18T12:35:30Z</time>
      </trkpt>
      <trkpt lat="36.653375" lon="-6.372879">
        <ele>19.420</ele>
        <time>2015-06-18T12:35:31Z</time>
      </trkpt>
      <trkpt lat="36.653417" lon="-6.372860">
        <ele>20.408</ele>
        <time>2015-06-18T12:35:32Z</time>
      </trkpt>
      <trkpt lat="36.653456" lon="-6.372847">
        <ele>20.898</ele>
        <time>2015-06-18T12:35:33Z</time>
      </trkpt>
      <trkpt lat="36.653826" lon="-6.372703">
        <ele>20.864</ele>
        <time>2015-06-18T12:35:42Z</time>
      </trkpt>
      <trkpt lat="36.653864" lon="-6.372690">
        <ele>21.210</ele>
        <time>2015-06-18T12:35:43Z</time>
      </trkpt>
      <trkpt lat="36.653906" lon="-6.372676">
        <ele>21.619</ele>
        <time>2015-06-18T12:35:44Z</time>
      </trkpt>
      <trkpt lat="36.653945" lon="-6.372659">
        <ele>22.072</ele>
        <time>2015-06-18T12:35:45Z</time>
      </trkpt>
      <trkpt lat="36.653986" lon="-6.372645">
        <ele>22.484</ele>
        <time>2015-06-18T12:35:46Z</time>
      </trkpt>
      <trkpt lat="36.654025" lon="-6.372629">
        <ele>22.857</ele>
        <time>2015-06-18T12:35:47Z</time>
      </trkpt>
      <trkpt lat="36.654193" lon="-6.372561">
        <ele>22.881</ele>
        <time>2015-06-18T12:35:51Z</time>
      </trkpt>
      <trkpt lat="36.654526" lon="-6.372439">
        <ele>22.884</ele>
        <time>2015-06-18T12:35:59Z</time>
      </trkpt>
      <trkpt lat="36.654651" lon="-6.372383">
        <ele>22.807</ele>
        <time>2015-06-18T12:36:02Z</time>
      </trkpt>
      <trkpt lat="36.654783" lon="-6.372338">
        <ele>22.817</ele>
        <time>2015-06-18T12:36:05Z</time>
      </trkpt>
      <trkpt lat="36.654824" lon="-6.372320">
        <ele>22.808</ele>
        <time>2015-06-18T12:36:06Z</time>
      </trkpt>
      <trkpt lat="36.654914" lon="-6.372287">
        <ele>23.219</ele>
        <time>2015-06-18T12:36:08Z</time>
      </trkpt>
      <trkpt lat="36.654955" lon="-6.372273">
        <ele>23.635</ele>
        <time>2015-06-18T12:36:09Z</time>
      </trkpt>
      <trkpt lat="36.654994" lon="-6.372256">
        <ele>24.011</ele>
        <time>2015-06-18T12:36:10Z</time>
      </trkpt>
      <trkpt lat="36.655031" lon="-6.372239">
        <ele>24.410</ele>
        <time>2015-06-18T12:36:11Z</time>
      </trkpt>
      <trkpt lat="36.655067" lon="-6.372225">
        <ele>24.823</ele>
        <time>2015-06-18T12:36:12Z</time>
      </trkpt>
      <trkpt lat="36.655103" lon="-6.372209">
        <ele>24.815</ele>
        <time>2015-06-18T12:36:13Z</time>
      </trkpt>
      <trkpt lat="36.655287" lon="-6.372126">
        <ele>24.838</ele>
        <time>2015-06-18T12:36:18Z</time>
      </trkpt>
      <trkpt lat="36.655370" lon="-6.372097">
        <ele>24.862</ele>
        <time>2015-06-18T12:36:20Z</time>
      </trkpt>
      <trkpt lat="36.655730" lon="-6.371957">
        <ele>24.898</ele>
        <time>2015-06-18T12:36:28Z</time>
      </trkpt>
      <trkpt lat="36.656003" lon="-6.371857">
        <ele>24.815</ele>
        <time>2015-06-18T12:36:34Z</time>
      </trkpt>
      <trkpt lat="36.656050" lon="-6.371836">
        <ele>24.826</ele>
        <time>2015-06-18T12:36:35Z</time>
      </trkpt>
      <trkpt lat="36.656462" lon="-6.371675">
        <ele>24.808</ele>
        <time>2015-06-18T12:36:44Z</time>
      </trkpt>
      <trkpt lat="36.656790" lon="-6.371547">
        <ele>24.840</ele>
        <time>2015-06-18T12:36:51Z</time>
      </trkpt>
      <trkpt lat="36.657146" lon="-6.371411">
        <ele>24.846</ele>
        <time>2015-06-18T12:36:58Z</time>
      </trkpt>
      <trkpt lat="36.657560" lon="-6.371249">
        <ele>24.822</ele>
        <time>2015-06-18T12:37:06Z</time>
      </trkpt>
      <trkpt lat="36.657925" lon="-6.371106">
        <ele>24.861</ele>
        <time>2015-06-18T12:37:13Z</time>
      </trkpt>
      <trkpt lat="36.658180" lon="-6.371005">
        <ele>25.244</ele>
        <time>2015-06-18T12:37:18Z</time>
      </trkpt>
      <trkpt lat="36.658232" lon="-6.370987">
        <ele>25.636</ele>
        <time>2015-06-18T12:37:19Z</time>
      </trkpt>
      <trkpt lat="36.658284" lon="-6.370966">
        <ele>26.069</ele>
        <time>2015-06-18T12:37:20Z</time>
      </trkpt>
      <trkpt lat="36.658336" lon="-6.370945">
        <ele>26.473</ele>
        <time>2015-06-18T12:37:21Z</time>
      </trkpt>
      <trkpt lat="36.658388" lon="-6.370926">
        <ele>26.882</ele>
        <time>2015-06-18T12:37:22Z</time>
      </trkpt>
      <trkpt lat="36.658689" lon="-6.370812">
        <ele>26.843</ele>
        <time>2015-06-18T12:37:28Z</time>
      </trkpt>
      <trkpt lat="36.659012" lon="-6.370680">
        <ele>26.817</ele>
        <time>2015-06-18T12:37:35Z</time>
      </trkpt>
      <trkpt lat="36.659263" lon="-6.370551">
        <ele>26.808</ele>
        <time>2015-06-18T12:37:42Z</time>
      </trkpt>
      <trkpt lat="36.659471" lon="-6.370464">
        <ele>26.839</ele>
        <time>2015-06-18T12:37:48Z</time>
      </trkpt>
      <trkpt lat="36.659549" lon="-6.370430">
        <ele>26.825</ele>
        <time>2015-06-18T12:37:50Z</time>
      </trkpt>
      <trkpt lat="36.659773" lon="-6.370331">
        <ele>26.891</ele>
        <time>2015-06-18T12:37:55Z</time>
      </trkpt>
      <trkpt lat="36.660126" lon="-6.370110">
        <ele>26.880</ele>
        <time>2015-06-18T12:38:03Z</time>
      </trkpt>
      <trkpt lat="36.660333" lon="-6.369934">
        <ele>26.823</ele>
        <time>2015-06-18T12:38:08Z</time>
      </trkpt>
      <trkpt lat="36.660419" lon="-6.369859">
        <ele>26.845</ele>
        <time>2015-06-18T12:38:10Z</time>
      </trkpt>
      <trkpt lat="36.660502" lon="-6.369783">
        <ele>26.868</ele>
        <time>2015-06-18T12:38:12Z</time>
      </trkpt>
      <trkpt lat="36.660690" lon="-6.369577">
        <ele>26.882</ele>
        <time>2015-06-18T12:38:17Z</time>
      </trkpt>
      <trkpt lat="36.660764" lon="-6.369493">
        <ele>26.897</ele>
        <time>2015-06-18T12:38:19Z</time>
      </trkpt>
      <trkpt lat="36.660901" lon="-6.369311">
        <ele>26.823</ele>
        <time>2015-06-18T12:38:23Z</time>
      </trkpt>
      <trkpt lat="36.661083" lon="-6.368983">
        <ele>26.825</ele>
        <time>2015-06-18T12:38:30Z</time>
      </trkpt>
      <trkpt lat="36.661156" lon="-6.368826">
        <ele>26.808</ele>
        <time>2015-06-18T12:38:34Z</time>
      </trkpt>
      <trkpt lat="36.661181" lon="-6.368759">
        <ele>26.810</ele>
        <time>2015-06-18T12:38:36Z</time>
      </trkpt>
      <trkpt lat="36.661251" lon="-6.368557">
        <ele>26.896</ele>
        <time>2015-06-18T12:38:43Z</time>
      </trkpt>
      <trkpt lat="36.661298" lon="-6.368377">
        <ele>26.822</ele>
        <time>2015-06-18T12:38:48Z</time>
      </trkpt>
      <trkpt lat="36.661322" lon="-6.368279">
        <ele>26.841</ele>
        <time>2015-06-18T12:38:50Z</time>
      </trkpt>
      <trkpt lat="36.661360" lon="-6.368058">
        <ele>26.884</ele>
        <time>2015-06-18T12:38:54Z</time>
      </trkpt>
      <trkpt lat="36.661392" lon="-6.367852">
        <ele>27.296</ele>
        <time>2015-06-18T12:38:58Z</time>
      </trkpt>
      <trkpt lat="36.661398" lon="-6.367801">
        <ele>27.839</ele>
        <time>2015-06-18T12:38:59Z</time>
      </trkpt>
      <trkpt lat="36.661404" lon="-6.367749">
        <ele>28.283</ele>
        <time>2015-06-18T12:39:00Z</time>
      </trkpt>
      <trkpt lat="36.661407" lon="-6.367695">
        <ele>28.617</ele>
        <time>2015-06-18T12:39:01Z</time>
      </trkpt>
      <trkpt lat="36.661410" lon="-6.367642">
        <ele>29.087</ele>
        <time>2015-06-18T12:39:02Z</time>
      </trkpt>
      <trkpt lat="36.661414" lon="-6.367589">
        <ele>29.015</ele>
        <time>2015-06-18T12:39:03Z</time>
      </trkpt>
      <trkpt lat="36.661419" lon="-6.367137">
        <ele>29.008</ele>
        <time>2015-06-18T12:39:11Z</time>
      </trkpt>
      <trkpt lat="36.661399" lon="-6.366683">
        <ele>29.042</ele>
        <time>2015-06-18T12:39:19Z</time>
      </trkpt>
      <trkpt lat="36.661363" lon="-6.366342">
        <ele>29.088</ele>
        <time>2015-06-18T12:39:26Z</time>
      </trkpt>
      <trkpt lat="36.661333" lon="-6.366111">
        <ele>29.074</ele>
        <time>2015-06-18T12:39:32Z</time>
      </trkpt>
      <trkpt lat="36.661300" lon="-6.365953">
        <ele>29.073</ele>
        <time>2015-06-18T12:39:39Z</time>
      </trkpt>
      <trkpt lat="36.661292" lon="-6.365885">
        <ele>29.056</ele>
        <time>2015-06-18T12:39:43Z</time>
      </trkpt>
      <trkpt lat="36.661283" lon="-6.365735">
        <ele>29.068</ele>
        <time>2015-06-18T12:39:50Z</time>
      </trkpt>
      <trkpt lat="36.661292" lon="-6.365806">
        <ele>29.091</ele>
        <time>2015-06-18T12:42:15Z</time>
      </trkpt>
      <trkpt lat="36.661257" lon="-6.365547">
        <ele>29.015</ele>
        <time>2015-06-18T12:42:20Z</time>
      </trkpt>
      <trkpt lat="36.661237" lon="-6.365385">
        <ele>29.036</ele>
        <time>2015-06-18T12:42:23Z</time>
      </trkpt>
      <trkpt lat="36.661199" lon="-6.365117">
        <ele>29.017</ele>
        <time>2015-06-18T12:42:28Z</time>
      </trkpt>
      <trkpt lat="36.661195" lon="-6.365062">
        <ele>29.018</ele>
        <time>2015-06-18T12:42:29Z</time>
      </trkpt>
      <trkpt lat="36.661156" lon="-6.364666">
        <ele>29.008</ele>
        <time>2015-06-18T12:42:36Z</time>
      </trkpt>
      <trkpt lat="36.661137" lon="-6.364496">
        <ele>29.014</ele>
        <time>2015-06-18T12:42:39Z</time>
      </trkpt>
      <trkpt lat="36.661098" lon="-6.363973">
        <ele>29.040</ele>
        <time>2015-06-18T12:42:48Z</time>
      </trkpt>
      <trkpt lat="36.661059" lon="-6.363447">
        <ele>29.036</ele>
        <time>2015-06-18T12:42:57Z</time>
      </trkpt>
      <trkpt lat="36.661051" lon="-6.363270">
        <ele>29.035</ele>
        <time>2015-06-18T12:43:00Z</time>
      </trkpt>
      <trkpt lat="36.661024" lon="-6.363026">
        <ele>29.088</ele>
        <time>2015-06-18T12:43:04Z</time>
      </trkpt>
      <trkpt lat="36.660976" lon="-6.362514">
        <ele>29.070</ele>
        <time>2015-06-18T12:43:13Z</time>
      </trkpt>
      <trkpt lat="36.660982" lon="-6.362330">
        <ele>29.013</ele>
        <time>2015-06-18T12:43:17Z</time>
      </trkpt>
      <trkpt lat="36.661014" lon="-6.362309">
        <ele>29.037</ele>
        <time>2015-06-18T12:43:18Z</time>
      </trkpt>
      <trkpt lat="36.661052" lon="-6.362309">
        <ele>29.093</ele>
        <time>2015-06-18T12:43:19Z</time>
      </trkpt>
      <trkpt lat="36.661101" lon="-6.362379">
        <ele>29.065</ele>
        <time>2015-06-18T12:43:21Z</time>
      </trkpt>
      <trkpt lat="36.661123" lon="-6.362496">
        <ele>29.021</ele>
        <time>2015-06-18T12:43:23Z</time>
      </trkpt>
      <trkpt lat="36.661131" lon="-6.362557">
        <ele>29.008</ele>
        <time>2015-06-18T12:43:24Z</time>
      </trkpt>
      <trkpt lat="36.661148" lon="-6.362691">
        <ele>29.060</ele>
        <time>2015-06-18T12:43:26Z</time>
      </trkpt>
      <trkpt lat="36.661166" lon="-6.362820">
        <ele>29.076</ele>
        <time>2015-06-18T12:43:28Z</time>
      </trkpt>
      <trkpt lat="36.661184" lon="-6.362996">
        <ele>29.012</ele>
        <time>2015-06-18T12:43:31Z</time>
      </trkpt>
      <trkpt lat="36.661198" lon="-6.363048">
        <ele>29.091</ele>
        <time>2015-06-18T12:43:32Z</time>
      </trkpt>
      <trkpt lat="36.661207" lon="-6.363099">
        <ele>29.024</ele>
        <time>2015-06-18T12:43:33Z</time>
      </trkpt>
      <trkpt lat="36.661217" lon="-6.363252">
        <ele>29.056</ele>
        <time>2015-06-18T12:43:36Z</time>
      </trkpt>
      <trkpt lat="36.661245" lon="-6.363391">
        <ele>29.049</ele>
        <time>2015-06-18T12:43:39Z</time>
      </trkpt>
      <trkpt lat="36.661270" lon="-6.363413">
        <ele>29.033</ele>
        <time>2015-06-18T12:43:40Z</time>
      </trkpt>
      <trkpt lat="36.661360" lon="-6.363358">
        <ele>29.033</ele>
        <time>2015-06-18T12:43:43Z</time>
      </trkpt>
      <trkpt lat="36.661382" lon="-6.363258">
        <ele>29.023</ele>
        <time>2015-06-18T12:43:45Z</time>
      </trkpt>
      <trkpt lat="36.661401" lon="-6.363148">
        <ele>29.015</ele>
        <time>2015-06-18T12:43:47Z</time>
      </trkpt>
      <trkpt lat="36.661406" lon="-6.363088">
        <ele>29.008</ele>
        <time>2015-06-18T12:43:48Z</time>
      </trkpt>
      <trkpt lat="36.661400" lon="-6.362776">
        <ele>29.024</ele>
        <time>2015-06-18T12:43:53Z</time>
      </trkpt>
      <trkpt lat="36.661350" lon="-6.362337">
        <ele>29.090</ele>
        <time>2015-06-18T12:44:00Z</time>
      </trkpt>
      <trkpt lat="36.661297" lon="-6.361958">
        <ele>29.096</ele>
        <time>2015-06-18T12:44:07Z</time>
      </trkpt>
      <trkpt lat="36.661257" lon="-6.361691">
        <ele>29.055</ele>
        <time>2015-06-18T12:44:12Z</time>
      </trkpt>
      <trkpt lat="36.661240" lon="-6.361535">
        <ele>29.028</ele>
        <time>2015-06-18T12:44:15Z</time>
      </trkpt>
      <trkpt lat="36.661180" lon="-6.361171">
        <ele>29.080</ele>
        <time>2015-06-18T12:44:22Z</time>
      </trkpt>
      <trkpt lat="36.661165" lon="-6.361063">
        <ele>29.063</ele>
        <time>2015-06-18T12:44:24Z</time>
      </trkpt>
      <trkpt lat="36.661129" lon="-6.360839">
        <ele>29.087</ele>
        <time>2015-06-18T12:44:28Z</time>
      </trkpt>
      <trkpt lat="36.661071" lon="-6.360316">
        <ele>29.088</ele>
        <time>2015-06-18T12:44:37Z</time>
      </trkpt>
      <trkpt lat="36.661032" lon="-6.359811">
        <ele>29.024</ele>
        <time>2015-06-18T12:44:45Z</time>
      </trkpt>
      <trkpt lat="36.660991" lon="-6.359300">
        <ele>29.026</ele>
        <time>2015-06-18T12:44:53Z</time>
      </trkpt>
      <trkpt lat="36.660958" lon="-6.359017">
        <ele>29.008</ele>
        <time>2015-06-18T12:44:58Z</time>
      </trkpt>
      <trkpt lat="36.660943" lon="-6.358919">
        <ele>29.019</ele>
        <time>2015-06-18T12:45:00Z</time>
      </trkpt>
      <trkpt lat="36.660892" lon="-6.358448">
        <ele>29.075</ele>
        <time>2015-06-18T12:45:09Z</time>
      </trkpt>
      <trkpt lat="36.660865" lon="-6.357969">
        <ele>29.071</ele>
        <time>2015-06-18T12:45:18Z</time>
      </trkpt>
      <trkpt lat="36.660855" lon="-6.357733">
        <ele>29.040</ele>
        <time>2015-06-18T12:45:24Z</time>
      </trkpt>
      <trkpt lat="36.660845" lon="-6.357436">
        <ele>29.073</ele>
        <time>2015-06-18T12:45:30Z</time>
      </trkpt>
      <trkpt lat="36.660816" lon="-6.357006">
        <ele>29.045</ele>
        <time>2015-06-18T12:45:38Z</time>
      </trkpt>
      <trkpt lat="36.660791" lon="-6.356567">
        <ele>29.018</ele>
        <time>2015-06-18T12:45:46Z</time>
      </trkpt>
      <trkpt lat="36.660786" lon="-6.356512">
        <ele>29.012</ele>
        <time>2015-06-18T12:45:47Z</time>
      </trkpt>
      <trkpt lat="36.660780" lon="-6.356404">
        <ele>28.678</ele>
        <time>2015-06-18T12:45:49Z</time>
      </trkpt>
      <trkpt lat="36.660776" lon="-6.356350">
        <ele>28.233</ele>
        <time>2015-06-18T12:45:50Z</time>
      </trkpt>
      <trkpt lat="36.660773" lon="-6.356295">
        <ele>27.826</ele>
        <time>2015-06-18T12:45:51Z</time>
      </trkpt>
      <trkpt lat="36.660771" lon="-6.356240">
        <ele>26.808</ele>
        <time>2015-06-18T12:45:52Z</time>
      </trkpt>
      <trkpt lat="36.660766" lon="-6.356185">
        <ele>26.838</ele>
        <time>2015-06-18T12:45:53Z</time>
      </trkpt>
      <trkpt lat="36.660733" lon="-6.355722">
        <ele>26.834</ele>
        <time>2015-06-18T12:46:01Z</time>
      </trkpt>
      <trkpt lat="36.660698" lon="-6.355289">
        <ele>26.850</ele>
        <time>2015-06-18T12:46:08Z</time>
      </trkpt>
      <trkpt lat="36.660693" lon="-6.355230">
        <ele>26.429</ele>
        <time>2015-06-18T12:46:09Z</time>
      </trkpt>
      <trkpt lat="36.660688" lon="-6.355172">
        <ele>26.022</ele>
        <time>2015-06-18T12:46:10Z</time>
      </trkpt>
      <trkpt lat="36.660685" lon="-6.355117">
        <ele>25.694</ele>
        <time>2015-06-18T12:46:11Z</time>
      </trkpt>
      <trkpt lat="36.660684" lon="-6.355062">
        <ele>25.287</ele>
        <time>2015-06-18T12:46:12Z</time>
      </trkpt>
      <trkpt lat="36.660684" lon="-6.355011">
        <ele>24.811</ele>
        <time>2015-06-18T12:46:13Z</time>
      </trkpt>
      <trkpt lat="36.660685" lon="-6.354905">
        <ele>24.892</ele>
        <time>2015-06-18T12:46:15Z</time>
      </trkpt>
      <trkpt lat="36.660685" lon="-6.354748">
        <ele>24.873</ele>
        <time>2015-06-18T12:46:18Z</time>
      </trkpt>
      <trkpt lat="36.660665" lon="-6.354593">
        <ele>25.220</ele>
        <time>2015-06-18T12:46:21Z</time>
      </trkpt>
      <trkpt lat="36.660658" lon="-6.354546">
        <ele>25.608</ele>
        <time>2015-06-18T12:46:22Z</time>
      </trkpt>
      <trkpt lat="36.660648" lon="-6.354498">
        <ele>26.020</ele>
        <time>2015-06-18T12:46:23Z</time>
      </trkpt>
      <trkpt lat="36.660637" lon="-6.354453">
        <ele>26.496</ele>
        <time>2015-06-18T12:46:24Z</time>
      </trkpt>
      <trkpt lat="36.660624" lon="-6.354410">
        <ele>26.832</ele>
        <time>2015-06-18T12:46:25Z</time>
      </trkpt>
      <trkpt lat="36.660584" lon="-6.354287">
        <ele>26.841</ele>
        <time>2015-06-18T12:46:28Z</time>
      </trkpt>
      <trkpt lat="36.660538" lon="-6.354130">
        <ele>27.234</ele>
        <time>2015-06-18T12:46:32Z</time>
      </trkpt>
      <trkpt lat="36.660524" lon="-6.354091">
        <ele>27.666</ele>
        <time>2015-06-18T12:46:33Z</time>
      </trkpt>
      <trkpt lat="36.660513" lon="-6.354052">
        <ele>28.069</ele>
        <time>2015-06-18T12:46:34Z</time>
      </trkpt>
      <trkpt lat="36.660506" lon="-6.354015">
        <ele>28.493</ele>
        <time>2015-06-18T12:46:35Z</time>
      </trkpt>
      <trkpt lat="36.660499" lon="-6.353978">
        <ele>28.886</ele>
        <time>2015-06-18T12:46:36Z</time>
      </trkpt>
      <trkpt lat="36.660481" lon="-6.353856">
        <ele>29.260</ele>
        <time>2015-06-18T12:46:39Z</time>
      </trkpt>
      <trkpt lat="36.660476" lon="-6.353816">
        <ele>29.826</ele>
        <time>2015-06-18T12:46:40Z</time>
      </trkpt>
      <trkpt lat="36.660473" lon="-6.353774">
        <ele>30.208</ele>
        <time>2015-06-18T12:46:41Z</time>
      </trkpt>
      <trkpt lat="36.660471" lon="-6.353729">
        <ele>30.099</ele>
        <time>2015-06-18T12:46:42Z</time>
      </trkpt>
      <trkpt lat="36.660469" lon="-6.353684">
        <ele>29.655</ele>
        <time>2015-06-18T12:46:43Z</time>
      </trkpt>
      <trkpt lat="36.660473" lon="-6.353638">
        <ele>29.241</ele>
        <time>2015-06-18T12:46:44Z</time>
      </trkpt>
      <trkpt lat="36.660478" lon="-6.353594">
        <ele>28.630</ele>
        <time>2015-06-18T12:46:45Z</time>
      </trkpt>
      <trkpt lat="36.660482" lon="-6.353551">
        <ele>28.283</ele>
        <time>2015-06-18T12:46:46Z</time>
      </trkpt>
      <trkpt lat="36.660489" lon="-6.353464">
        <ele>28.285</ele>
        <time>2015-06-18T12:46:48Z</time>
      </trkpt>
      <trkpt lat="36.660535" lon="-6.353200">
        <ele>28.278</ele>
        <time>2015-06-18T12:46:54Z</time>
      </trkpt>
      <trkpt lat="36.660572" lon="-6.352866">
        <ele>28.272</ele>
        <time>2015-06-18T12:47:01Z</time>
      </trkpt>
      <trkpt lat="36.660562" lon="-6.352474">
        <ele>28.231</ele>
        <time>2015-06-18T12:47:09Z</time>
      </trkpt>
      <trkpt lat="36.660554" lon="-6.352330">
        <ele>28.261</ele>
        <time>2015-06-18T12:47:12Z</time>
      </trkpt>
      <trkpt lat="36.660549" lon="-6.352278">
        <ele>28.207</ele>
        <time>2015-06-18T12:47:13Z</time>
      </trkpt>
      <trkpt lat="36.660548" lon="-6.352225">
        <ele>28.208</ele>
        <time>2015-06-18T12:47:14Z</time>
      </trkpt>
      <trkpt lat="36.660547" lon="-6.351970">
        <ele>28.264</ele>
        <time>2015-06-18T12:47:19Z</time>
      </trkpt>
      <trkpt lat="36.660538" lon="-6.351573">
        <ele>28.220</ele>
        <time>2015-06-18T12:47:27Z</time>
      </trkpt>
      <trkpt lat="36.660536" lon="-6.351196">
        <ele>28.266</ele>
        <time>2015-06-18T12:47:35Z</time>
      </trkpt>
      <trkpt lat="36.660542" lon="-6.350814">
        <ele>28.225</ele>
        <time>2015-06-18T12:47:44Z</time>
      </trkpt>
      <trkpt lat="36.660542" lon="-6.350457">
        <ele>28.288</ele>
        <time>2015-06-18T12:47:52Z</time>
      </trkpt>
      <trkpt lat="36.660538" lon="-6.350048">
        <ele>28.240</ele>
        <time>2015-06-18T12:48:01Z</time>
      </trkpt>
      <trkpt lat="36.660547" lon="-6.349765">
        <ele>28.233</ele>
        <time>2015-06-18T12:48:07Z</time>
      </trkpt>
      <trkpt lat="36.660544" lon="-6.349675">
        <ele>28.277</ele>
        <time>2015-06-18T12:48:09Z</time>
      </trkpt>
      <trkpt lat="36.660537" lon="-6.349436">
        <ele>28.677</ele>
        <time>2015-06-18T12:48:14Z</time>
      </trkpt>
      <trkpt lat="36.660541" lon="-6.349389">
        <ele>29.061</ele>
        <time>2015-06-18T12:48:15Z</time>
      </trkpt>
      <trkpt lat="36.660543" lon="-6.349345">
        <ele>29.427</ele>
        <time>2015-06-18T12:48:16Z</time>
      </trkpt>
      <trkpt lat="36.660544" lon="-6.349302">
        <ele>30.008</ele>
        <time>2015-06-18T12:48:17Z</time>
      </trkpt>
      <trkpt lat="36.660544" lon="-6.349259">
        <ele>30.478</ele>
        <time>2015-06-18T12:48:18Z</time>
      </trkpt>
      <trkpt lat="36.660543" lon="-6.348951">
        <ele>30.464</ele>
        <time>2015-06-18T12:48:25Z</time>
      </trkpt>
      <trkpt lat="36.660554" lon="-6.348643">
        <ele>30.490</ele>
        <time>2015-06-18T12:48:32Z</time>
      </trkpt>
      <trkpt lat="36.660547" lon="-6.348324">
        <ele>30.419</ele>
        <time>2015-06-18T12:48:39Z</time>
      </trkpt>
      <trkpt lat="36.660553" lon="-6.348187">
        <ele>30.842</ele>
        <time>2015-06-18T12:48:42Z</time>
      </trkpt>
      <trkpt lat="36.660557" lon="-6.348136">
        <ele>31.224</ele>
        <time>2015-06-18T12:48:43Z</time>
      </trkpt>
      <trkpt lat="36.660559" lon="-6.348088">
        <ele>31.667</ele>
        <time>2015-06-18T12:48:44Z</time>
      </trkpt>
      <trkpt lat="36.660560" lon="-6.348041">
        <ele>32.441</ele>
        <time>2015-06-18T12:48:45Z</time>
      </trkpt>
      <trkpt lat="36.660561" lon="-6.347946">
        <ele>32.493</ele>
        <time>2015-06-18T12:48:47Z</time>
      </trkpt>
      <trkpt lat="36.660570" lon="-6.347578">
        <ele>32.465</ele>
        <time>2015-06-18T12:48:55Z</time>
      </trkpt>
      <trkpt lat="36.660576" lon="-6.347178">
        <ele>33.021</ele>
        <time>2015-06-18T12:49:04Z</time>
      </trkpt>
      <trkpt lat="36.660578" lon="-6.347134">
        <ele>33.408</ele>
        <time>2015-06-18T12:49:05Z</time>
      </trkpt>
      <trkpt lat="36.660578" lon="-6.347094">
        <ele>33.820</ele>
        <time>2015-06-18T12:49:06Z</time>
      </trkpt>
      <trkpt lat="36.660579" lon="-6.347055">
        <ele>34.246</ele>
        <time>2015-06-18T12:49:07Z</time>
      </trkpt>
      <trkpt lat="36.660581" lon="-6.347014">
        <ele>34.622</ele>
        <time>2015-06-18T12:49:08Z</time>
      </trkpt>
      <trkpt lat="36.660592" lon="-6.346786">
        <ele>34.681</ele>
        <time>2015-06-18T12:49:14Z</time>
      </trkpt>
      <trkpt lat="36.660590" lon="-6.346543">
        <ele>34.684</ele>
        <time>2015-06-18T12:49:20Z</time>
      </trkpt>
      <trkpt lat="36.660581" lon="-6.346295">
        <ele>35.066</ele>
        <time>2015-06-18T12:49:26Z</time>
      </trkpt>
      <trkpt lat="36.660584" lon="-6.346254">
        <ele>35.679</ele>
        <time>2015-06-18T12:49:27Z</time>
      </trkpt>
      <trkpt lat="36.660584" lon="-6.346209">
        <ele>36.093</ele>
        <time>2015-06-18T12:49:28Z</time>
      </trkpt>
      <trkpt lat="36.660579" lon="-6.346160">
        <ele>36.476</ele>
        <time>2015-06-18T12:49:29Z</time>
      </trkpt>
      <trkpt lat="36.660576" lon="-6.346103">
        <ele>36.890</ele>
        <time>2015-06-18T12:49:30Z</time>
      </trkpt>
      <trkpt lat="36.660572" lon="-6.346039">
        <ele>36.819</ele>
        <time>2015-06-18T12:49:31Z</time>
      </trkpt>
      <trkpt lat="36.660568" lon="-6.345914">
        <ele>36.808</ele>
        <time>2015-06-18T12:49:33Z</time>
      </trkpt>
      <trkpt lat="36.660580" lon="-6.345680">
        <ele>36.838</ele>
        <time>2015-06-18T12:49:37Z</time>
      </trkpt>
      <trkpt lat="36.660578" lon="-6.345619">
        <ele>36.824</ele>
        <time>2015-06-18T12:49:38Z</time>
      </trkpt>
      <trkpt lat="36.660576" lon="-6.345372">
        <ele>36.880</ele>
        <time>2015-06-18T12:49:42Z</time>
      </trkpt>
      <trkpt lat="36.660579" lon="-6.345179">
        <ele>36.499</ele>
        <time>2015-06-18T12:49:45Z</time>
      </trkpt>
      <trkpt lat="36.660580" lon="-6.345108">
        <ele>35.872</ele>
        <time>2015-06-18T12:49:46Z</time>
      </trkpt>
      <trkpt lat="36.660581" lon="-6.345037">
        <ele>35.494</ele>
        <time>2015-06-18T12:49:47Z</time>
      </trkpt>
      <trkpt lat="36.660581" lon="-6.344965">
        <ele>35.047</ele>
        <time>2015-06-18T12:49:48Z</time>
      </trkpt>
      <trkpt lat="36.660578" lon="-6.344891">
        <ele>34.611</ele>
        <time>2015-06-18T12:49:49Z</time>
      </trkpt>
      <trkpt lat="36.660573" lon="-6.344599">
        <ele>34.648</ele>
        <time>2015-06-18T12:49:53Z</time>
      </trkpt>
      <trkpt lat="36.660569" lon="-6.344528">
        <ele>34.661</ele>
        <time>2015-06-18T12:49:54Z</time>
      </trkpt>
      <trkpt lat="36.660571" lon="-6.344236">
        <ele>34.617</ele>
        <time>2015-06-18T12:49:59Z</time>
      </trkpt>
      <trkpt lat="36.660570" lon="-6.344072">
        <ele>34.608</ele>
        <time>2015-06-18T12:50:02Z</time>
      </trkpt>
      <trkpt lat="36.660564" lon="-6.343855">
        <ele>34.665</ele>
        <time>2015-06-18T12:50:06Z</time>
      </trkpt>
      <trkpt lat="36.660559" lon="-6.343744">
        <ele>34.611</ele>
        <time>2015-06-18T12:50:08Z</time>
      </trkpt>
      <trkpt lat="36.660558" lon="-6.343576">
        <ele>34.677</ele>
        <time>2015-06-18T12:50:11Z</time>
      </trkpt>
      <trkpt lat="36.660559" lon="-6.343526">
        <ele>34.066</ele>
        <time>2015-06-18T12:50:12Z</time>
      </trkpt>
      <trkpt lat="36.660558" lon="-6.343475">
        <ele>33.649</ele>
        <time>2015-06-18T12:50:13Z</time>
      </trkpt>
      <trkpt lat="36.660556" lon="-6.343426">
        <ele>33.091</ele>
        <time>2015-06-18T12:50:14Z</time>
      </trkpt>
      <trkpt lat="36.660551" lon="-6.343378">
        <ele>32.614</ele>
        <time>2015-06-18T12:50:15Z</time>
      </trkpt>
      <trkpt lat="36.660546" lon="-6.343327">
        <ele>32.038</ele>
        <time>2015-06-18T12:50:16Z</time>
      </trkpt>
      <trkpt lat="36.660544" lon="-6.343186">
        <ele>32.061</ele>
        <time>2015-06-18T12:50:19Z</time>
      </trkpt>
      <trkpt lat="36.660542" lon="-6.342869">
        <ele>32.021</ele>
        <time>2015-06-18T12:50:25Z</time>
      </trkpt>
      <trkpt lat="36.660540" lon="-6.342822">
        <ele>32.013</ele>
        <time>2015-06-18T12:50:26Z</time>
      </trkpt>
      <trkpt lat="36.660540" lon="-6.342713">
        <ele>32.608</ele>
        <time>2015-06-18T12:50:29Z</time>
      </trkpt>
      <trkpt lat="36.660543" lon="-6.342678">
        <ele>33.067</ele>
        <time>2015-06-18T12:50:30Z</time>
      </trkpt>
      <trkpt lat="36.660548" lon="-6.342636">
        <ele>33.493</ele>
        <time>2015-06-18T12:50:31Z</time>
      </trkpt>
      <trkpt lat="36.660551" lon="-6.342596">
        <ele>33.869</ele>
        <time>2015-06-18T12:50:32Z</time>
      </trkpt>
      <trkpt lat="36.660553" lon="-6.342555">
        <ele>34.498</ele>
        <time>2015-06-18T12:50:33Z</time>
      </trkpt>
      <trkpt lat="36.660553" lon="-6.342387">
        <ele>34.431</ele>
        <time>2015-06-18T12:50:37Z</time>
      </trkpt>
      <trkpt lat="36.660552" lon="-6.342347">
        <ele>34.453</ele>
        <time>2015-06-18T12:50:38Z</time>
      </trkpt>
      <trkpt lat="36.660552" lon="-6.342261">
        <ele>34.866</ele>
        <time>2015-06-18T12:50:40Z</time>
      </trkpt>
      <trkpt lat="36.660548" lon="-6.342218">
        <ele>35.220</ele>
        <time>2015-06-18T12:50:41Z</time>
      </trkpt>
      <trkpt lat="36.660544" lon="-6.342173">
        <ele>35.634</ele>
        <time>2015-06-18T12:50:42Z</time>
      </trkpt>
      <trkpt lat="36.660544" lon="-6.342126">
        <ele>36.055</ele>
        <time>2015-06-18T12:50:43Z</time>
      </trkpt>
      <trkpt lat="36.660545" lon="-6.342078">
        <ele>36.410</ele>
        <time>2015-06-18T12:50:44Z</time>
      </trkpt>
      <trkpt lat="36.660551" lon="-6.341792">
        <ele>36.408</ele>
        <time>2015-06-18T12:50:50Z</time>
      </trkpt>
      <trkpt lat="36.660549" lon="-6.341745">
        <ele>36.424</ele>
        <time>2015-06-18T12:50:51Z</time>
      </trkpt>
      <trkpt lat="36.660543" lon="-6.341444">
        <ele>36.470</ele>
        <time>2015-06-18T12:50:57Z</time>
      </trkpt>
      <trkpt lat="36.660545" lon="-6.341397">
        <ele>36.486</ele>
        <time>2015-06-18T12:50:58Z</time>
      </trkpt>
      <trkpt lat="36.660542" lon="-6.341073">
        <ele>36.445</ele>
        <time>2015-06-18T12:51:05Z</time>
      </trkpt>
      <trkpt lat="36.660544" lon="-6.341027">
        <ele>36.448</ele>
        <time>2015-06-18T12:51:06Z</time>
      </trkpt>
      <trkpt lat="36.660540" lon="-6.340825">
        <ele>36.860</ele>
        <time>2015-06-18T12:51:10Z</time>
      </trkpt>
      <trkpt lat="36.660536" lon="-6.340775">
        <ele>37.213</ele>
        <time>2015-06-18T12:51:11Z</time>
      </trkpt>
      <trkpt lat="36.660533" lon="-6.340726">
        <ele>37.677</ele>
        <time>2015-06-18T12:51:12Z</time>
      </trkpt>
      <trkpt lat="36.660531" lon="-6.340676">
        <ele>38.269</ele>
        <time>2015-06-18T12:51:13Z</time>
      </trkpt>
      <trkpt lat="36.660533" lon="-6.340628">
        <ele>38.604</ele>
        <time>2015-06-18T12:51:14Z</time>
      </trkpt>
      <trkpt lat="36.660526" lon="-6.340346">
        <ele>38.624</ele>
        <time>2015-06-18T12:51:20Z</time>
      </trkpt>
      <trkpt lat="36.660530" lon="-6.340061">
        <ele>38.608</ele>
        <time>2015-06-18T12:51:27Z</time>
      </trkpt>
      <trkpt lat="36.660530" lon="-6.339748">
        <ele>38.677</ele>
        <time>2015-06-18T12:51:34Z</time>
      </trkpt>
      <trkpt lat="36.660531" lon="-6.339412">
        <ele>38.673</ele>
        <time>2015-06-18T12:51:40Z</time>
      </trkpt>
      <trkpt lat="36.660530" lon="-6.339356">
        <ele>38.629</ele>
        <time>2015-06-18T12:51:41Z</time>
      </trkpt>
      <trkpt lat="36.660528" lon="-6.338999">
        <ele>38.258</ele>
        <time>2015-06-18T12:51:47Z</time>
      </trkpt>
      <trkpt lat="36.660527" lon="-6.338942">
        <ele>37.691</ele>
        <time>2015-06-18T12:51:48Z</time>
      </trkpt>
      <trkpt lat="36.660527" lon="-6.338884">
        <ele>37.213</ele>
        <time>2015-06-18T12:51:49Z</time>
      </trkpt>
      <trkpt lat="36.660527" lon="-6.338827">
        <ele>36.836</ele>
        <time>2015-06-18T12:51:50Z</time>
      </trkpt>
      <trkpt lat="36.660528" lon="-6.338770">
        <ele>36.440</ele>
        <time>2015-06-18T12:51:51Z</time>
      </trkpt>
      <trkpt lat="36.660524" lon="-6.338592">
        <ele>36.488</ele>
        <time>2015-06-18T12:51:54Z</time>
      </trkpt>
      <trkpt lat="36.660524" lon="-6.338430">
        <ele>36.424</ele>
        <time>2015-06-18T12:51:57Z</time>
      </trkpt>
      <trkpt lat="36.660520" lon="-6.337979">
        <ele>36.426</ele>
        <time>2015-06-18T12:52:06Z</time>
      </trkpt>
      <trkpt lat="36.660518" lon="-6.337800">
        <ele>36.408</ele>
        <time>2015-06-18T12:52:10Z</time>
      </trkpt>
      <trkpt lat="36.660516" lon="-6.337756">
        <ele>36.869</ele>
        <time>2015-06-18T12:52:11Z</time>
      </trkpt>
      <trkpt lat="36.660516" lon="-6.337709">
        <ele>37.215</ele>
        <time>2015-06-18T12:52:12Z</time>
      </trkpt>
      <trkpt lat="36.660516" lon="-6.337661">
        <ele>37.671</ele>
        <time>2015-06-18T12:52:13Z</time>
      </trkpt>
      <trkpt lat="36.660515" lon="-6.337608">
        <ele>38.020</ele>
        <time>2015-06-18T12:52:14Z</time>
      </trkpt>
      <trkpt lat="36.660513" lon="-6.337554">
        <ele>38.433</ele>
        <time>2015-06-18T12:52:15Z</time>
      </trkpt>
      <trkpt lat="36.660513" lon="-6.337390">
        <ele>38.455</ele>
        <time>2015-06-18T12:52:18Z</time>
      </trkpt>
      <trkpt lat="36.660513" lon="-6.337174">
        <ele>38.438</ele>
        <time>2015-06-18T12:52:22Z</time>
      </trkpt>
      <trkpt lat="36.660519" lon="-6.336940">
        <ele>38.482</ele>
        <time>2015-06-18T12:52:26Z</time>
      </trkpt>
      <trkpt lat="36.660530" lon="-6.336817">
        <ele>38.488</ele>
        <time>2015-06-18T12:52:28Z</time>
      </trkpt>
      <trkpt lat="36.660523" lon="-6.336682">
        <ele>38.424</ele>
        <time>2015-06-18T12:52:30Z</time>
      </trkpt>
      <trkpt lat="36.660516" lon="-6.336536">
        <ele>38.426</ele>
        <time>2015-06-18T12:52:32Z</time>
      </trkpt>
      <trkpt lat="36.660518" lon="-6.336265">
        <ele>38.008</ele>
        <time>2015-06-18T12:52:36Z</time>
      </trkpt>
      <trkpt lat="36.660515" lon="-6.336203">
        <ele>37.639</ele>
        <time>2015-06-18T12:52:37Z</time>
      </trkpt>
      <trkpt lat="36.660514" lon="-6.336142">
        <ele>37.295</ele>
        <time>2015-06-18T12:52:38Z</time>
      </trkpt>
      <trkpt lat="36.660515" lon="-6.336081">
        <ele>36.861</ele>
        <time>2015-06-18T12:52:39Z</time>
      </trkpt>
      <trkpt lat="36.660518" lon="-6.336025">
        <ele>36.470</ele>
        <time>2015-06-18T12:52:40Z</time>
      </trkpt>
      <trkpt lat="36.660514" lon="-6.335812">
        <ele>36.463</ele>
        <time>2015-06-18T12:52:44Z</time>
      </trkpt>
      <trkpt lat="36.660513" lon="-6.335471">
        <ele>36.425</ele>
        <time>2015-06-18T12:52:51Z</time>
      </trkpt>
      <trkpt lat="36.660514" lon="-6.335141">
        <ele>36.458</ele>
        <time>2015-06-18T12:52:58Z</time>
      </trkpt>
      <trkpt lat="36.660521" lon="-6.334753">
        <ele>36.462</ele>
        <time>2015-06-18T12:53:05Z</time>
      </trkpt>
      <trkpt lat="36.660527" lon="-6.334341">
        <ele>36.476</ele>
        <time>2015-06-18T12:53:11Z</time>
      </trkpt>
      <trkpt lat="36.660532" lon="-6.334109">
        <ele>36.490</ele>
        <time>2015-06-18T12:53:14Z</time>
      </trkpt>
      <trkpt lat="36.660532" lon="-6.333971">
        <ele>36.419</ele>
        <time>2015-06-18T12:53:16Z</time>
      </trkpt>
      <trkpt lat="36.660536" lon="-6.333908">
        <ele>36.408</ele>
        <time>2015-06-18T12:53:17Z</time>
      </trkpt>
      <trkpt lat="36.660548" lon="-6.333661">
        <ele>36.468</ele>
        <time>2015-06-18T12:53:22Z</time>
      </trkpt>
      <trkpt lat="36.660560" lon="-6.333547">
        <ele>36.444</ele>
        <time>2015-06-18T12:53:24Z</time>
      </trkpt>
      <trkpt lat="36.660549" lon="-6.333430">
        <ele>36.460</ele>
        <time>2015-06-18T12:53:26Z</time>
      </trkpt>
      <trkpt lat="36.660553" lon="-6.333369">
        <ele>36.459</ele>
        <time>2015-06-18T12:53:27Z</time>
      </trkpt>
      <trkpt lat="36.660549" lon="-6.333208">
        <ele>36.472</ele>
        <time>2015-06-18T12:53:30Z</time>
      </trkpt>
      <trkpt lat="36.660551" lon="-6.332998">
        <ele>36.424</ele>
        <time>2015-06-18T12:53:34Z</time>
      </trkpt>
      <trkpt lat="36.660550" lon="-6.332891">
        <ele>36.497</ele>
        <time>2015-06-18T12:53:36Z</time>
      </trkpt>
      <trkpt lat="36.660549" lon="-6.332489">
        <ele>36.431</ele>
        <time>2015-06-18T12:53:43Z</time>
      </trkpt>
      <trkpt lat="36.660553" lon="-6.332252">
        <ele>36.481</ele>
        <time>2015-06-18T12:53:47Z</time>
      </trkpt>
      <trkpt lat="36.660554" lon="-6.332024">
        <ele>36.461</ele>
        <time>2015-06-18T12:53:51Z</time>
      </trkpt>
      <trkpt lat="36.660557" lon="-6.331492">
        <ele>36.417</ele>
        <time>2015-06-18T12:54:00Z</time>
      </trkpt>
      <trkpt lat="36.660555" lon="-6.331004">
        <ele>36.408</ele>
        <time>2015-06-18T12:54:08Z</time>
      </trkpt>
      <trkpt lat="36.660566" lon="-6.330833">
        <ele>36.449</ele>
        <time>2015-06-18T12:54:11Z</time>
      </trkpt>
      <trkpt lat="36.660569" lon="-6.330646">
        <ele>36.435</ele>
        <time>2015-06-18T12:54:14Z</time>
      </trkpt>
      <trkpt lat="36.660565" lon="-6.330444">
        <ele>36.441</ele>
        <time>2015-06-18T12:54:17Z</time>
      </trkpt>
      <trkpt lat="36.660567" lon="-6.330376">
        <ele>36.010</ele>
        <time>2015-06-18T12:54:18Z</time>
      </trkpt>
      <trkpt lat="36.660567" lon="-6.330306">
        <ele>35.413</ele>
        <time>2015-06-18T12:54:19Z</time>
      </trkpt>
      <trkpt lat="36.660567" lon="-6.330235">
        <ele>35.095</ele>
        <time>2015-06-18T12:54:20Z</time>
      </trkpt>
      <trkpt lat="36.660565" lon="-6.330161">
        <ele>34.628</ele>
        <time>2015-06-18T12:54:21Z</time>
      </trkpt>
      <trkpt lat="36.660565" lon="-6.330087">
        <ele>34.052</ele>
        <time>2015-06-18T12:54:22Z</time>
      </trkpt>
      <trkpt lat="36.660561" lon="-6.329775">
        <ele>34.072</ele>
        <time>2015-06-18T12:54:26Z</time>
      </trkpt>
      <trkpt lat="36.660548" lon="-6.329319">
        <ele>34.013</ele>
        <time>2015-06-18T12:54:33Z</time>
      </trkpt>
      <trkpt lat="36.660536" lon="-6.328967">
        <ele>34.014</ele>
        <time>2015-06-18T12:54:38Z</time>
      </trkpt>
      <trkpt lat="36.660536" lon="-6.328903">
        <ele>33.608</ele>
        <time>2015-06-18T12:54:39Z</time>
      </trkpt>
      <trkpt lat="36.660532" lon="-6.328839">
        <ele>33.258</ele>
        <time>2015-06-18T12:54:40Z</time>
      </trkpt>
      <trkpt lat="36.660530" lon="-6.328782">
        <ele>32.814</ele>
        <time>2015-06-18T12:54:41Z</time>
      </trkpt>
      <trkpt lat="36.660529" lon="-6.328724">
        <ele>32.470</ele>
        <time>2015-06-18T12:54:42Z</time>
      </trkpt>
      <trkpt lat="36.660528" lon="-6.328667">
        <ele>32.099</ele>
        <time>2015-06-18T12:54:43Z</time>
      </trkpt>
      <trkpt lat="36.660528" lon="-6.328554">
        <ele>32.012</ele>
        <time>2015-06-18T12:54:45Z</time>
      </trkpt>
      <trkpt lat="36.660525" lon="-6.328432">
        <ele>31.634</ele>
        <time>2015-06-18T12:54:47Z</time>
      </trkpt>
      <trkpt lat="36.660523" lon="-6.328368">
        <ele>31.047</ele>
        <time>2015-06-18T12:54:48Z</time>
      </trkpt>
      <trkpt lat="36.660521" lon="-6.328307">
        <ele>30.691</ele>
        <time>2015-06-18T12:54:49Z</time>
      </trkpt>
      <trkpt lat="36.660520" lon="-6.328248">
        <ele>30.255</ele>
        <time>2015-06-18T12:54:50Z</time>
      </trkpt>
      <trkpt lat="36.660517" lon="-6.328190">
        <ele>29.607</ele>
        <time>2015-06-18T12:54:51Z</time>
      </trkpt>
      <trkpt lat="36.660512" lon="-6.328073">
        <ele>29.617</ele>
        <time>2015-06-18T12:54:53Z</time>
      </trkpt>
      <trkpt lat="36.660517" lon="-6.327834">
        <ele>29.608</ele>
        <time>2015-06-18T12:54:57Z</time>
      </trkpt>
      <trkpt lat="36.660518" lon="-6.327590">
        <ele>29.616</ele>
        <time>2015-06-18T12:55:01Z</time>
      </trkpt>
      <trkpt lat="36.660521" lon="-6.327281">
        <ele>29.622</ele>
        <time>2015-06-18T12:55:06Z</time>
      </trkpt>
      <trkpt lat="36.660525" lon="-6.327149">
        <ele>29.638</ele>
        <time>2015-06-18T12:55:08Z</time>
      </trkpt>
      <trkpt lat="36.660529" lon="-6.326631">
        <ele>29.697</ele>
        <time>2015-06-18T12:55:16Z</time>
      </trkpt>
      <trkpt lat="36.660518" lon="-6.326250">
        <ele>29.640</ele>
        <time>2015-06-18T12:55:23Z</time>
      </trkpt>
      <trkpt lat="36.660485" lon="-6.325835">
        <ele>29.642</ele>
        <time>2015-06-18T12:55:30Z</time>
      </trkpt>
      <trkpt lat="36.660470" lon="-6.325539">
        <ele>29.275</ele>
        <time>2015-06-18T12:55:34Z</time>
      </trkpt>
      <trkpt lat="36.660465" lon="-6.325461">
        <ele>28.829</ele>
        <time>2015-06-18T12:55:35Z</time>
      </trkpt>
      <trkpt lat="36.660462" lon="-6.325385">
        <ele>28.413</ele>
        <time>2015-06-18T12:55:36Z</time>
      </trkpt>
      <trkpt lat="36.660457" lon="-6.325307">
        <ele>28.043</ele>
        <time>2015-06-18T12:55:37Z</time>
      </trkpt>
      <trkpt lat="36.660455" lon="-6.325229">
        <ele>27.607</ele>
        <time>2015-06-18T12:55:38Z</time>
      </trkpt>
      <trkpt lat="36.660455" lon="-6.324983">
        <ele>27.608</ele>
        <time>2015-06-18T12:55:41Z</time>
      </trkpt>
      <trkpt lat="36.660457" lon="-6.324816">
        <ele>27.222</ele>
        <time>2015-06-18T12:55:43Z</time>
      </trkpt>
      <trkpt lat="36.660460" lon="-6.324731">
        <ele>26.858</ele>
        <time>2015-06-18T12:55:44Z</time>
      </trkpt>
      <trkpt lat="36.660461" lon="-6.324648">
        <ele>26.434</ele>
        <time>2015-06-18T12:55:45Z</time>
      </trkpt>
      <trkpt lat="36.660465" lon="-6.324565">
        <ele>25.683</ele>
        <time>2015-06-18T12:55:46Z</time>
      </trkpt>
      <trkpt lat="36.660463" lon="-6.324085">
        <ele>25.636</ele>
        <time>2015-06-18T12:55:52Z</time>
      </trkpt>
      <trkpt lat="36.660474" lon="-6.323795">
        <ele>25.298</ele>
        <time>2015-06-18T12:55:56Z</time>
      </trkpt>
      <trkpt lat="36.660475" lon="-6.323725">
        <ele>24.831</ele>
        <time>2015-06-18T12:55:57Z</time>
      </trkpt>
      <trkpt lat="36.660476" lon="-6.323657">
        <ele>24.465</ele>
        <time>2015-06-18T12:55:58Z</time>
      </trkpt>
      <trkpt lat="36.660475" lon="-6.323594">
        <ele>24.013</ele>
        <time>2015-06-18T12:55:59Z</time>
      </trkpt>
      <trkpt lat="36.660472" lon="-6.323532">
        <ele>23.443</ele>
        <time>2015-06-18T12:56:00Z</time>
      </trkpt>
      <trkpt lat="36.660470" lon="-6.323405">
        <ele>23.007</ele>
        <time>2015-06-18T12:56:02Z</time>
      </trkpt>
      <trkpt lat="36.660472" lon="-6.323337">
        <ele>22.608</ele>
        <time>2015-06-18T12:56:03Z</time>
      </trkpt>
      <trkpt lat="36.660472" lon="-6.323273">
        <ele>22.282</ele>
        <time>2015-06-18T12:56:04Z</time>
      </trkpt>
      <trkpt lat="36.660472" lon="-6.323208">
        <ele>21.898</ele>
        <time>2015-06-18T12:56:05Z</time>
      </trkpt>
      <trkpt lat="36.660474" lon="-6.323144">
        <ele>21.434</ele>
        <time>2015-06-18T12:56:06Z</time>
      </trkpt>
      <trkpt lat="36.660477" lon="-6.323083">
        <ele>21.433</ele>
        <time>2015-06-18T12:56:07Z</time>
      </trkpt>
      <trkpt lat="36.660480" lon="-6.323022">
        <ele>21.466</ele>
        <time>2015-06-18T12:56:08Z</time>
      </trkpt>
      <trkpt lat="36.660479" lon="-6.322644">
        <ele>21.428</ele>
        <time>2015-06-18T12:56:14Z</time>
      </trkpt>
      <trkpt lat="36.660480" lon="-6.322111">
        <ele>21.431</ele>
        <time>2015-06-18T12:56:22Z</time>
      </trkpt>
      <trkpt lat="36.660479" lon="-6.322046">
        <ele>21.435</ele>
        <time>2015-06-18T12:56:23Z</time>
      </trkpt>
      <trkpt lat="36.660478" lon="-6.321981">
        <ele>21.042</ele>
        <time>2015-06-18T12:56:24Z</time>
      </trkpt>
      <trkpt lat="36.660477" lon="-6.321920">
        <ele>20.622</ele>
        <time>2015-06-18T12:56:25Z</time>
      </trkpt>
      <trkpt lat="36.660476" lon="-6.321857">
        <ele>20.214</ele>
        <time>2015-06-18T12:56:26Z</time>
      </trkpt>
      <trkpt lat="36.660477" lon="-6.321793">
        <ele>19.808</ele>
        <time>2015-06-18T12:56:27Z</time>
      </trkpt>
      <trkpt lat="36.660475" lon="-6.321730">
        <ele>19.475</ele>
        <time>2015-06-18T12:56:28Z</time>
      </trkpt>
      <trkpt lat="36.660478" lon="-6.321603">
        <ele>19.491</ele>
        <time>2015-06-18T12:56:30Z</time>
      </trkpt>
      <trkpt lat="36.660475" lon="-6.321273">
        <ele>19.467</ele>
        <time>2015-06-18T12:56:35Z</time>
      </trkpt>
      <trkpt lat="36.660475" lon="-6.321207">
        <ele>19.436</ele>
        <time>2015-06-18T12:56:36Z</time>
      </trkpt>
      <trkpt lat="36.660470" lon="-6.320605">
        <ele>19.089</ele>
        <time>2015-06-18T12:56:45Z</time>
      </trkpt>
      <trkpt lat="36.660469" lon="-6.320537">
        <ele>18.421</ele>
        <time>2015-06-18T12:56:46Z</time>
      </trkpt>
      <trkpt lat="36.660469" lon="-6.320472">
        <ele>18.034</ele>
        <time>2015-06-18T12:56:47Z</time>
      </trkpt>
      <trkpt lat="36.660469" lon="-6.320408">
        <ele>17.688</ele>
        <time>2015-06-18T12:56:48Z</time>
      </trkpt>
      <trkpt lat="36.660468" lon="-6.320346">
        <ele>17.267</ele>
        <time>2015-06-18T12:56:49Z</time>
      </trkpt>
      <trkpt lat="36.660469" lon="-6.320224">
        <ele>17.281</ele>
        <time>2015-06-18T12:56:51Z</time>
      </trkpt>
      <trkpt lat="36.660468" lon="-6.320099">
        <ele>17.219</ele>
        <time>2015-06-18T12:56:53Z</time>
      </trkpt>
      <trkpt lat="36.660450" lon="-6.319521">
        <ele>17.208</ele>
        <time>2015-06-18T12:57:03Z</time>
      </trkpt>
      <trkpt lat="36.660443" lon="-6.319331">
        <ele>17.237</ele>
        <time>2015-06-18T12:57:06Z</time>
      </trkpt>
      <trkpt lat="36.660425" lon="-6.319149">
        <ele>17.233</ele>
        <time>2015-06-18T12:57:09Z</time>
      </trkpt>
      <trkpt lat="36.660420" lon="-6.319040">
        <ele>17.229</ele>
        <time>2015-06-18T12:57:11Z</time>
      </trkpt>
      <trkpt lat="36.660412" lon="-6.318929">
        <ele>17.288</ele>
        <time>2015-06-18T12:57:13Z</time>
      </trkpt>
      <trkpt lat="36.660402" lon="-6.318821">
        <ele>17.271</ele>
        <time>2015-06-18T12:57:15Z</time>
      </trkpt>
      <trkpt lat="36.660382" lon="-6.318606">
        <ele>17.213</ele>
        <time>2015-06-18T12:57:19Z</time>
      </trkpt>
      <trkpt lat="36.660374" lon="-6.318553">
        <ele>17.226</ele>
        <time>2015-06-18T12:57:20Z</time>
      </trkpt>
      <trkpt lat="36.660337" lon="-6.318280">
        <ele>17.240</ele>
        <time>2015-06-18T12:57:25Z</time>
      </trkpt>
      <trkpt lat="36.660320" lon="-6.318168">
        <ele>17.287</ele>
        <time>2015-06-18T12:57:27Z</time>
      </trkpt>
      <trkpt lat="36.660255" lon="-6.317788">
        <ele>17.242</ele>
        <time>2015-06-18T12:57:34Z</time>
      </trkpt>
      <trkpt lat="36.660221" lon="-6.317629">
        <ele>17.226</ele>
        <time>2015-06-18T12:57:37Z</time>
      </trkpt>
      <trkpt lat="36.660189" lon="-6.317463">
        <ele>17.208</ele>
        <time>2015-06-18T12:57:40Z</time>
      </trkpt>
      <trkpt lat="36.660137" lon="-6.317307">
        <ele>17.289</ele>
        <time>2015-06-18T12:57:43Z</time>
      </trkpt>
      <trkpt lat="36.660060" lon="-6.317166">
        <ele>17.235</ele>
        <time>2015-06-18T12:57:46Z</time>
      </trkpt>
      <trkpt lat="36.659889" lon="-6.316898">
        <ele>17.261</ele>
        <time>2015-06-18T12:57:52Z</time>
      </trkpt>
      <trkpt lat="36.659671" lon="-6.316614">
        <ele>17.220</ele>
        <time>2015-06-18T12:57:59Z</time>
      </trkpt>
      <trkpt lat="36.659607" lon="-6.316532">
        <ele>17.263</ele>
        <time>2015-06-18T12:58:01Z</time>
      </trkpt>
      <trkpt lat="36.659488" lon="-6.316370">
        <ele>17.225</ele>
        <time>2015-06-18T12:58:05Z</time>
      </trkpt>
      <trkpt lat="36.659245" lon="-6.316059">
        <ele>17.228</ele>
        <time>2015-06-18T12:58:13Z</time>
      </trkpt>
      <trkpt lat="36.659006" lon="-6.315743">
        <ele>17.222</ele>
        <time>2015-06-18T12:58:21Z</time>
      </trkpt>
      <trkpt lat="36.658815" lon="-6.315493">
        <ele>17.256</ele>
        <time>2015-06-18T12:58:28Z</time>
      </trkpt>
      <trkpt lat="36.658690" lon="-6.315245">
        <ele>17.259</ele>
        <time>2015-06-18T12:58:34Z</time>
      </trkpt>
      <trkpt lat="36.658645" lon="-6.315162">
        <ele>17.214</ele>
        <time>2015-06-18T12:58:36Z</time>
      </trkpt>
      <trkpt lat="36.658618" lon="-6.315124">
        <ele>17.208</ele>
        <time>2015-06-18T12:58:37Z</time>
      </trkpt>
      <trkpt lat="36.658549" lon="-6.315069">
        <ele>17.236</ele>
        <time>2015-06-18T12:58:39Z</time>
      </trkpt>
      <trkpt lat="36.658363" lon="-6.314996">
        <ele>17.212</ele>
        <time>2015-06-18T12:58:44Z</time>
      </trkpt>
      <trkpt lat="36.658161" lon="-6.314918">
        <ele>17.218</ele>
        <time>2015-06-18T12:58:49Z</time>
      </trkpt>
      <trkpt lat="36.658072" lon="-6.314882">
        <ele>17.237</ele>
        <time>2015-06-18T12:58:51Z</time>
      </trkpt>
      <trkpt lat="36.657779" lon="-6.314748">
        <ele>17.210</ele>
        <time>2015-06-18T12:58:58Z</time>
      </trkpt>
      <trkpt lat="36.657504" lon="-6.314556">
        <ele>17.252</ele>
        <time>2015-06-18T12:59:05Z</time>
      </trkpt>
      <trkpt lat="36.657233" lon="-6.314363">
        <ele>17.295</ele>
        <time>2015-06-18T12:59:12Z</time>
      </trkpt>
      <trkpt lat="36.656977" lon="-6.314169">
        <ele>17.239</ele>
        <time>2015-06-18T12:59:19Z</time>
      </trkpt>
      <trkpt lat="36.656942" lon="-6.314143">
        <ele>17.277</ele>
        <time>2015-06-18T12:59:20Z</time>
      </trkpt>
      <trkpt lat="36.656751" lon="-6.314002">
        <ele>17.261</ele>
        <time>2015-06-18T12:59:25Z</time>
      </trkpt>
      <trkpt lat="36.656494" lon="-6.313834">
        <ele>17.227</ele>
        <time>2015-06-18T12:59:32Z</time>
      </trkpt>
      <trkpt lat="36.656378" lon="-6.313756">
        <ele>17.208</ele>
        <time>2015-06-18T12:59:35Z</time>
      </trkpt>
      <trkpt lat="36.656251" lon="-6.313690">
        <ele>17.268</ele>
        <time>2015-06-18T12:59:38Z</time>
      </trkpt>
      <trkpt lat="36.656211" lon="-6.313672">
        <ele>17.294</ele>
        <time>2015-06-18T12:59:39Z</time>
      </trkpt>
      <trkpt lat="36.655969" lon="-6.313569">
        <ele>17.260</ele>
        <time>2015-06-18T12:59:45Z</time>
      </trkpt>
      <trkpt lat="36.655628" lon="-6.313436">
        <ele>17.259</ele>
        <time>2015-06-18T12:59:53Z</time>
      </trkpt>
      <trkpt lat="36.655283" lon="-6.313297">
        <ele>17.272</ele>
        <time>2015-06-18T13:00:01Z</time>
      </trkpt>
      <trkpt lat="36.654938" lon="-6.313170">
        <ele>17.244</ele>
        <time>2015-06-18T13:00:09Z</time>
      </trkpt>
      <trkpt lat="36.654654" lon="-6.313069">
        <ele>17.267</ele>
        <time>2015-06-18T13:00:16Z</time>
      </trkpt>
      <trkpt lat="36.654369" lon="-6.312971">
        <ele>17.211</ele>
        <time>2015-06-18T13:00:23Z</time>
      </trkpt>
      <trkpt lat="36.654241" lon="-6.312921">
        <ele>17.273</ele>
        <time>2015-06-18T13:00:26Z</time>
      </trkpt>
      <trkpt lat="36.654076" lon="-6.312861">
        <ele>17.285</ele>
        <time>2015-06-18T13:00:30Z</time>
      </trkpt>
      <trkpt lat="36.653702" lon="-6.312719">
        <ele>17.213</ele>
        <time>2015-06-18T13:00:39Z</time>
      </trkpt>
      <trkpt lat="36.653407" lon="-6.312603">
        <ele>17.208</ele>
        <time>2015-06-18T13:00:46Z</time>
      </trkpt>
      <trkpt lat="36.653085" lon="-6.312485">
        <ele>17.218</ele>
        <time>2015-06-18T13:00:54Z</time>
      </trkpt>
      <trkpt lat="36.652767" lon="-6.312363">
        <ele>17.294</ele>
        <time>2015-06-18T13:01:03Z</time>
      </trkpt>
      <trkpt lat="36.652485" lon="-6.312248">
        <ele>17.240</ele>
        <time>2015-06-18T13:01:11Z</time>
      </trkpt>
      <trkpt lat="36.652277" lon="-6.312155">
        <ele>17.259</ele>
        <time>2015-06-18T13:01:17Z</time>
      </trkpt>
      <trkpt lat="36.651978" lon="-6.312031">
        <ele>17.282</ele>
        <time>2015-06-18T13:01:25Z</time>
      </trkpt>
      <trkpt lat="36.651724" lon="-6.311910">
        <ele>17.294</ele>
        <time>2015-06-18T13:01:32Z</time>
      </trkpt>
      <trkpt lat="36.651489" lon="-6.311794">
        <ele>17.257</ele>
        <time>2015-06-18T13:01:39Z</time>
      </trkpt>
      <trkpt lat="36.651256" lon="-6.311663">
        <ele>17.211</ele>
        <time>2015-06-18T13:01:46Z</time>
      </trkpt>
      <trkpt lat="36.651157" lon="-6.311552">
        <ele>17.257</ele>
        <time>2015-06-18T13:01:51Z</time>
      </trkpt>
      <trkpt lat="36.651142" lon="-6.311536">
        <ele>17.200</ele>
        <time>2015-06-18T13:01:52Z</time>
      </trkpt>
      <trkpt lat="36.651116" lon="-6.311515">
        <ele>16.820</ele>
        <time>2015-06-18T13:01:54Z</time>
      </trkpt>
      <trkpt lat="36.651105" lon="-6.311509">
        <ele>16.408</ele>
        <time>2015-06-18T13:01:55Z</time>
      </trkpt>
      <trkpt lat="36.651099" lon="-6.311503">
        <ele>16.096</ele>
        <time>2015-06-18T13:01:56Z</time>
      </trkpt>
      <trkpt lat="36.651093" lon="-6.311495">
        <ele>15.682</ele>
        <time>2015-06-18T13:01:57Z</time>
      </trkpt>
      <trkpt lat="36.651084" lon="-6.311488">
        <ele>15.228</ele>
        <time>2015-06-18T13:01:58Z</time>
      </trkpt>
      <trkpt lat="36.650980" lon="-6.311422">
        <ele>15.287</ele>
        <time>2015-06-18T13:02:03Z</time>
      </trkpt>
      <trkpt lat="36.650776" lon="-6.311337">
        <ele>15.280</ele>
        <time>2015-06-18T13:02:09Z</time>
      </trkpt>
      <trkpt lat="36.650611" lon="-6.311248">
        <ele>15.282</ele>
        <time>2015-06-18T13:02:14Z</time>
      </trkpt>
      <trkpt lat="36.650393" lon="-6.311164">
        <ele>15.265</ele>
        <time>2015-06-18T13:02:20Z</time>
      </trkpt>
      <trkpt lat="36.650111" lon="-6.311073">
        <ele>15.239</ele>
        <time>2015-06-18T13:02:28Z</time>
      </trkpt>
      <trkpt lat="36.649877" lon="-6.311034">
        <ele>15.236</ele>
        <time>2015-06-18T13:02:34Z</time>
      </trkpt>
      <trkpt lat="36.649606" lon="-6.310956">
        <ele>15.217</ele>
        <time>2015-06-18T13:02:41Z</time>
      </trkpt>
      <trkpt lat="36.649336" lon="-6.310905">
        <ele>15.218</ele>
        <time>2015-06-18T13:02:48Z</time>
      </trkpt>
      <trkpt lat="36.649077" lon="-6.310847">
        <ele>15.208</ele>
        <time>2015-06-18T13:02:55Z</time>
      </trkpt>
      <trkpt lat="36.648959" lon="-6.310821">
        <ele>15.224</ele>
        <time>2015-06-18T13:02:58Z</time>
      </trkpt>
      <trkpt lat="36.648878" lon="-6.310804">
        <ele>15.290</ele>
        <time>2015-06-18T13:03:00Z</time>
      </trkpt>
      <trkpt lat="36.648836" lon="-6.310796">
        <ele>15.226</ele>
        <time>2015-06-18T13:03:01Z</time>
      </trkpt>
      <trkpt lat="36.648665" lon="-6.310765">
        <ele>15.245</ele>
        <time>2015-06-18T13:03:05Z</time>
      </trkpt>
      <trkpt lat="36.648545" lon="-6.310729">
        <ele>15.218</ele>
        <time>2015-06-18T13:03:08Z</time>
      </trkpt>
      <trkpt lat="36.648352" lon="-6.310674">
        <ele>14.830</ele>
        <time>2015-06-18T13:03:13Z</time>
      </trkpt>
      <trkpt lat="36.648310" lon="-6.310665">
        <ele>14.423</ele>
        <time>2015-06-18T13:03:14Z</time>
      </trkpt>
      <trkpt lat="36.648268" lon="-6.310655">
        <ele>14.057</ele>
        <time>2015-06-18T13:03:15Z</time>
      </trkpt>
      <trkpt lat="36.648227" lon="-6.310642">
        <ele>13.695</ele>
        <time>2015-06-18T13:03:16Z</time>
      </trkpt>
      <trkpt lat="36.648186" lon="-6.310632">
        <ele>13.249</ele>
        <time>2015-06-18T13:03:17Z</time>
      </trkpt>
      <trkpt lat="36.648065" lon="-6.310596">
        <ele>13.223</ele>
        <time>2015-06-18T13:03:20Z</time>
      </trkpt>
      <trkpt lat="36.647991" lon="-6.310574">
        <ele>13.208</ele>
        <time>2015-06-18T13:03:22Z</time>
      </trkpt>
      <trkpt lat="36.647885" lon="-6.310544">
        <ele>13.270</ele>
        <time>2015-06-18T13:03:25Z</time>
      </trkpt>
      <trkpt lat="36.647821" lon="-6.310524">
        <ele>13.296</ele>
        <time>2015-06-18T13:03:27Z</time>
      </trkpt>
      <trkpt lat="36.647791" lon="-6.310511">
        <ele>13.282</ele>
        <time>2015-06-18T13:03:28Z</time>
      </trkpt>
      <trkpt lat="36.647580" lon="-6.310437">
        <ele>13.291</ele>
        <time>2015-06-18T13:03:34Z</time>
      </trkpt>
      <trkpt lat="36.647542" lon="-6.310417">
        <ele>12.894</ele>
        <time>2015-06-18T13:03:35Z</time>
      </trkpt>
      <trkpt lat="36.647503" lon="-6.310403">
        <ele>12.486</ele>
        <time>2015-06-18T13:03:36Z</time>
      </trkpt>
      <trkpt lat="36.647465" lon="-6.310392">
        <ele>12.069</ele>
        <time>2015-06-18T13:03:37Z</time>
      </trkpt>
      <trkpt lat="36.647424" lon="-6.310380">
        <ele>11.643</ele>
        <time>2015-06-18T13:03:38Z</time>
      </trkpt>
      <trkpt lat="36.647384" lon="-6.310368">
        <ele>11.223</ele>
        <time>2015-06-18T13:03:39Z</time>
      </trkpt>
      <trkpt lat="36.647303" lon="-6.310338">
        <ele>11.283</ele>
        <time>2015-06-18T13:03:41Z</time>
      </trkpt>
      <trkpt lat="36.646991" lon="-6.310217">
        <ele>11.211</ele>
        <time>2015-06-18T13:03:49Z</time>
      </trkpt>
      <trkpt lat="36.646688" lon="-6.310098">
        <ele>11.208</ele>
        <time>2015-06-18T13:03:57Z</time>
      </trkpt>
      <trkpt lat="36.646569" lon="-6.310053">
        <ele>10.873</ele>
        <time>2015-06-18T13:04:00Z</time>
      </trkpt>
      <trkpt lat="36.646529" lon="-6.310041">
        <ele>10.489</ele>
        <time>2015-06-18T13:04:01Z</time>
      </trkpt>
      <trkpt lat="36.646492" lon="-6.310030">
        <ele>10.015</ele>
        <time>2015-06-18T13:04:02Z</time>
      </trkpt>
      <trkpt lat="36.646456" lon="-6.310014">
        <ele>9.634</ele>
        <time>2015-06-18T13:04:03Z</time>
      </trkpt>
      <trkpt lat="36.646419" lon="-6.309998">
        <ele>9.297</ele>
        <time>2015-06-18T13:04:04Z</time>
      </trkpt>
      <trkpt lat="36.646379" lon="-6.309986">
        <ele>9.249</ele>
        <time>2015-06-18T13:04:05Z</time>
      </trkpt>
      <trkpt lat="36.646170" lon="-6.309934">
        <ele>9.252</ele>
        <time>2015-06-18T13:04:10Z</time>
      </trkpt>
      <trkpt lat="36.646097" lon="-6.309884">
        <ele>9.266</ele>
        <time>2015-06-18T13:04:12Z</time>
      </trkpt>
      <trkpt lat="36.646048" lon="-6.309758">
        <ele>9.237</ele>
        <time>2015-06-18T13:04:15Z</time>
      </trkpt>
      <trkpt lat="36.646042" lon="-6.309586">
        <ele>9.249</ele>
        <time>2015-06-18T13:04:19Z</time>
      </trkpt>
      <trkpt lat="36.646040" lon="-6.309538">
        <ele>9.213</ele>
        <time>2015-06-18T13:04:20Z</time>
      </trkpt>
      <trkpt lat="36.646027" lon="-6.309411">
        <ele>8.608</ele>
        <time>2015-06-18T13:04:23Z</time>
      </trkpt>
      <trkpt lat="36.646013" lon="-6.309370">
        <ele>8.224</ele>
        <time>2015-06-18T13:04:24Z</time>
      </trkpt>
      <trkpt lat="36.645998" lon="-6.309328">
        <ele>7.830</ele>
        <time>2015-06-18T13:04:25Z</time>
      </trkpt>
      <trkpt lat="36.645982" lon="-6.309283">
        <ele>7.496</ele>
        <time>2015-06-18T13:04:26Z</time>
      </trkpt>
      <trkpt lat="36.645964" lon="-6.309243">
        <ele>7.085</ele>
        <time>2015-06-18T13:04:27Z</time>
      </trkpt>
      <trkpt lat="36.645914" lon="-6.309165">
        <ele>7.028</ele>
        <time>2015-06-18T13:04:29Z</time>
      </trkpt>
      <trkpt lat="36.645863" lon="-6.309082">
        <ele>7.010</ele>
        <time>2015-06-18T13:04:31Z</time>
      </trkpt>
      <trkpt lat="36.645716" lon="-6.308839">
        <ele>7.023</ele>
        <time>2015-06-18T13:04:37Z</time>
      </trkpt>
      <trkpt lat="36.645692" lon="-6.308802">
        <ele>7.027</ele>
        <time>2015-06-18T13:04:38Z</time>
      </trkpt>
      <trkpt lat="36.645663" lon="-6.308770">
        <ele>7.035</ele>
        <time>2015-06-18T13:04:39Z</time>
      </trkpt>
      <trkpt lat="36.645555" lon="-6.308622">
        <ele>7.086</ele>
        <time>2015-06-18T13:04:43Z</time>
      </trkpt>
      <trkpt lat="36.645392" lon="-6.308359">
        <ele>7.014</ele>
        <time>2015-06-18T13:04:50Z</time>
      </trkpt>
      <trkpt lat="36.645236" lon="-6.308110">
        <ele>7.008</ele>
        <time>2015-06-18T13:04:57Z</time>
      </trkpt>
      <trkpt lat="36.645116" lon="-6.307909">
        <ele>7.044</ele>
        <time>2015-06-18T13:05:03Z</time>
      </trkpt>
      <trkpt lat="36.645075" lon="-6.307842">
        <ele>7.020</ele>
        <time>2015-06-18T13:05:05Z</time>
      </trkpt>
      <trkpt lat="36.644971" lon="-6.307663">
        <ele>7.046</ele>
        <time>2015-06-18T13:05:11Z</time>
      </trkpt>
      <trkpt lat="36.644863" lon="-6.307472">
        <ele>6.655</ele>
        <time>2015-06-18T13:05:17Z</time>
      </trkpt>
      <trkpt lat="36.644845" lon="-6.307439">
        <ele>6.248</ele>
        <time>2015-06-18T13:05:18Z</time>
      </trkpt>
      <trkpt lat="36.644825" lon="-6.307405">
        <ele>5.840</ele>
        <time>2015-06-18T13:05:19Z</time>
      </trkpt>
      <trkpt lat="36.644805" lon="-6.307374">
        <ele>5.423</ele>
        <time>2015-06-18T13:05:20Z</time>
      </trkpt>
      <trkpt lat="36.644785" lon="-6.307344">
        <ele>5.077</ele>
        <time>2015-06-18T13:05:21Z</time>
      </trkpt>
      <trkpt lat="36.644690" lon="-6.307199">
        <ele>5.078</ele>
        <time>2015-06-18T13:05:26Z</time>
      </trkpt>
      <trkpt lat="36.644530" lon="-6.306910">
        <ele>5.033</ele>
        <time>2015-06-18T13:05:35Z</time>
      </trkpt>
      <trkpt lat="36.644373" lon="-6.306659">
        <ele>5.026</ele>
        <time>2015-06-18T13:05:43Z</time>
      </trkpt>
      <trkpt lat="36.644199" lon="-6.306359">
        <ele>5.008</ele>
        <time>2015-06-18T13:05:52Z</time>
      </trkpt>
      <trkpt lat="36.644026" lon="-6.306091">
        <ele>5.098</ele>
        <time>2015-06-18T13:06:01Z</time>
      </trkpt>
      <trkpt lat="36.644005" lon="-6.306061">
        <ele>5.434</ele>
        <time>2015-06-18T13:06:02Z</time>
      </trkpt>
      <trkpt lat="36.643986" lon="-6.306029">
        <ele>5.820</ele>
        <time>2015-06-18T13:06:03Z</time>
      </trkpt>
      <trkpt lat="36.643967" lon="-6.305997">
        <ele>6.239</ele>
        <time>2015-06-18T13:06:04Z</time>
      </trkpt>
      <trkpt lat="36.643947" lon="-6.305962">
        <ele>6.692</ele>
        <time>2015-06-18T13:06:05Z</time>
      </trkpt>
      <trkpt lat="36.643929" lon="-6.305929">
        <ele>7.034</ele>
        <time>2015-06-18T13:06:06Z</time>
      </trkpt>
      <trkpt lat="36.643867" lon="-6.305840">
        <ele>7.057</ele>
        <time>2015-06-18T13:06:09Z</time>
      </trkpt>
      <trkpt lat="36.643728" lon="-6.305621">
        <ele>7.061</ele>
        <time>2015-06-18T13:06:16Z</time>
      </trkpt>
      <trkpt lat="36.643565" lon="-6.305370">
        <ele>7.064</ele>
        <time>2015-06-18T13:06:24Z</time>
      </trkpt>
      <trkpt lat="36.643408" lon="-6.305146">
        <ele>7.006</ele>
        <time>2015-06-18T13:06:32Z</time>
      </trkpt>
      <trkpt lat="36.643256" lon="-6.304923">
        <ele>7.016</ele>
        <time>2015-06-18T13:06:39Z</time>
      </trkpt>
      <trkpt lat="36.643102" lon="-6.304693">
        <ele>7.008</ele>
        <time>2015-06-18T13:06:47Z</time>
      </trkpt>
      <trkpt lat="36.642923" lon="-6.304429">
        <ele>7.027</ele>
        <time>2015-06-18T13:06:56Z</time>
      </trkpt>
      <trkpt lat="36.642770" lon="-6.304201">
        <ele>7.013</ele>
        <time>2015-06-18T13:07:04Z</time>
      </trkpt>
      <trkpt lat="36.642630" lon="-6.303994">
        <ele>7.089</ele>
        <time>2015-06-18T13:07:11Z</time>
      </trkpt>
      <trkpt lat="36.642469" lon="-6.303745">
        <ele>7.028</ele>
        <time>2015-06-18T13:07:19Z</time>
      </trkpt>
      <trkpt lat="36.642317" lon="-6.303523">
        <ele>7.081</ele>
        <time>2015-06-18T13:07:26Z</time>
      </trkpt>
      <trkpt lat="36.642255" lon="-6.303430">
        <ele>7.483</ele>
        <time>2015-06-18T13:07:29Z</time>
      </trkpt>
      <trkpt lat="36.642236" lon="-6.303400">
        <ele>7.896</ele>
        <time>2015-06-18T13:07:30Z</time>
      </trkpt>
      <trkpt lat="36.642217" lon="-6.303369">
        <ele>8.620</ele>
        <time>2015-06-18T13:07:31Z</time>
      </trkpt>
      <trkpt lat="36.642196" lon="-6.303338">
        <ele>9.092</ele>
        <time>2015-06-18T13:07:32Z</time>
      </trkpt>
      <trkpt lat="36.642132" lon="-6.303246">
        <ele>9.073</ele>
        <time>2015-06-18T13:07:35Z</time>
      </trkpt>
      <trkpt lat="36.641965" lon="-6.302998">
        <ele>9.020</ele>
        <time>2015-06-18T13:07:43Z</time>
      </trkpt>
      <trkpt lat="36.641845" lon="-6.302816">
        <ele>9.408</ele>
        <time>2015-06-18T13:07:49Z</time>
      </trkpt>
      <trkpt lat="36.641825" lon="-6.302790">
        <ele>10.060</ele>
        <time>2015-06-18T13:07:50Z</time>
      </trkpt>
      <trkpt lat="36.641808" lon="-6.302760">
        <ele>10.476</ele>
        <time>2015-06-18T13:07:51Z</time>
      </trkpt>
      <trkpt lat="36.641789" lon="-6.302729">
        <ele>10.882</ele>
        <time>2015-06-18T13:07:52Z</time>
      </trkpt>
      <trkpt lat="36.641770" lon="-6.302700">
        <ele>11.211</ele>
        <time>2015-06-18T13:07:53Z</time>
      </trkpt>
      <trkpt lat="36.641621" lon="-6.302480">
        <ele>11.274</ele>
        <time>2015-06-18T13:08:00Z</time>
      </trkpt>
      <trkpt lat="36.641461" lon="-6.302233">
        <ele>11.266</ele>
        <time>2015-06-18T13:08:08Z</time>
      </trkpt>
      <trkpt lat="36.641321" lon="-6.302030">
        <ele>11.229</ele>
        <time>2015-06-18T13:08:15Z</time>
      </trkpt>
      <trkpt lat="36.641209" lon="-6.301865">
        <ele>11.273</ele>
        <time>2015-06-18T13:08:21Z</time>
      </trkpt>
      <trkpt lat="36.641095" lon="-6.301693">
        <ele>11.214</ele>
        <time>2015-06-18T13:08:27Z</time>
      </trkpt>
      <trkpt lat="36.640933" lon="-6.301460">
        <ele>11.254</ele>
        <time>2015-06-18T13:08:35Z</time>
      </trkpt>
      <trkpt lat="36.640721" lon="-6.301137">
        <ele>11.209</ele>
        <time>2015-06-18T13:08:46Z</time>
      </trkpt>
      <trkpt lat="36.640584" lon="-6.300930">
        <ele>11.608</ele>
        <time>2015-06-18T13:08:53Z</time>
      </trkpt>
      <trkpt lat="36.640564" lon="-6.300902">
        <ele>12.022</ele>
        <time>2015-06-18T13:08:54Z</time>
      </trkpt>
      <trkpt lat="36.640544" lon="-6.300872">
        <ele>12.628</ele>
        <time>2015-06-18T13:08:55Z</time>
      </trkpt>
      <trkpt lat="36.640524" lon="-6.300845">
        <ele>13.024</ele>
        <time>2015-06-18T13:08:56Z</time>
      </trkpt>
      <trkpt lat="36.640504" lon="-6.300817">
        <ele>13.493</ele>
        <time>2015-06-18T13:08:57Z</time>
      </trkpt>
      <trkpt lat="36.640312" lon="-6.300530">
        <ele>13.426</ele>
        <time>2015-06-18T13:09:07Z</time>
      </trkpt>
      <trkpt lat="36.640179" lon="-6.300310">
        <ele>13.498</ele>
        <time>2015-06-18T13:09:14Z</time>
      </trkpt>
      <trkpt lat="36.640003" lon="-6.300075">
        <ele>13.461</ele>
        <time>2015-06-18T13:09:22Z</time>
      </trkpt>
      <trkpt lat="36.639837" lon="-6.299820">
        <ele>13.425</ele>
        <time>2015-06-18T13:09:30Z</time>
      </trkpt>
      <trkpt lat="36.639697" lon="-6.299609">
        <ele>13.878</ele>
        <time>2015-06-18T13:09:37Z</time>
      </trkpt>
      <trkpt lat="36.639675" lon="-6.299579">
        <ele>14.233</ele>
        <time>2015-06-18T13:09:38Z</time>
      </trkpt>
      <trkpt lat="36.639654" lon="-6.299550">
        <ele>14.626</ele>
        <time>2015-06-18T13:09:39Z</time>
      </trkpt>
      <trkpt lat="36.639634" lon="-6.299522">
        <ele>15.008</ele>
        <time>2015-06-18T13:09:40Z</time>
      </trkpt>
      <trkpt lat="36.639615" lon="-6.299490">
        <ele>15.458</ele>
        <time>2015-06-18T13:09:41Z</time>
      </trkpt>
      <trkpt lat="36.639539" lon="-6.299375">
        <ele>15.414</ele>
        <time>2015-06-18T13:09:45Z</time>
      </trkpt>
      <trkpt lat="36.639489" lon="-6.299295">
        <ele>15.890</ele>
        <time>2015-06-18T13:09:48Z</time>
      </trkpt>
      <trkpt lat="36.639471" lon="-6.299269">
        <ele>16.229</ele>
        <time>2015-06-18T13:09:49Z</time>
      </trkpt>
      <trkpt lat="36.639455" lon="-6.299243">
        <ele>16.642</ele>
        <time>2015-06-18T13:09:50Z</time>
      </trkpt>
      <trkpt lat="36.639440" lon="-6.299218">
        <ele>17.094</ele>
        <time>2015-06-18T13:09:51Z</time>
      </trkpt>
      <trkpt lat="36.639423" lon="-6.299193">
        <ele>17.687</ele>
        <time>2015-06-18T13:09:52Z</time>
      </trkpt>
      <trkpt lat="36.639370" lon="-6.299119">
        <ele>17.671</ele>
        <time>2015-06-18T13:09:55Z</time>
      </trkpt>
      <trkpt lat="36.639230" lon="-6.298905">
        <ele>17.683</ele>
        <time>2015-06-18T13:10:03Z</time>
      </trkpt>
      <trkpt lat="36.639105" lon="-6.298714">
        <ele>17.625</ele>
        <time>2015-06-18T13:10:10Z</time>
      </trkpt>
      <trkpt lat="36.638942" lon="-6.298474">
        <ele>17.617</ele>
        <time>2015-06-18T13:10:19Z</time>
      </trkpt>
      <trkpt lat="36.638826" lon="-6.298302">
        <ele>17.608</ele>
        <time>2015-06-18T13:10:26Z</time>
      </trkpt>
      <trkpt lat="36.638677" lon="-6.298087">
        <ele>17.679</ele>
        <time>2015-06-18T13:10:34Z</time>
      </trkpt>
      <trkpt lat="36.638531" lon="-6.297879">
        <ele>17.675</ele>
        <time>2015-06-18T13:10:42Z</time>
      </trkpt>
      <trkpt lat="36.638405" lon="-6.297694">
        <ele>17.671</ele>
        <time>2015-06-18T13:10:49Z</time>
      </trkpt>
      <trkpt lat="36.638311" lon="-6.297534">
        <ele>18.080</ele>
        <time>2015-06-18T13:10:55Z</time>
      </trkpt>
      <trkpt lat="36.638295" lon="-6.297507">
        <ele>18.493</ele>
        <time>2015-06-18T13:10:56Z</time>
      </trkpt>
      <trkpt lat="36.638277" lon="-6.297483">
        <ele>18.885</ele>
        <time>2015-06-18T13:10:57Z</time>
      </trkpt>
      <trkpt lat="36.638258" lon="-6.297458">
        <ele>19.238</ele>
        <time>2015-06-18T13:10:58Z</time>
      </trkpt>
      <trkpt lat="36.638237" lon="-6.297437">
        <ele>19.612</ele>
        <time>2015-06-18T13:10:59Z</time>
      </trkpt>
      <trkpt lat="36.638097" lon="-6.297214">
        <ele>19.661</ele>
        <time>2015-06-18T13:11:07Z</time>
      </trkpt>
      <trkpt lat="36.637969" lon="-6.297030">
        <ele>19.621</ele>
        <time>2015-06-18T13:11:14Z</time>
      </trkpt>
      <trkpt lat="36.637802" lon="-6.296778">
        <ele>19.613</ele>
        <time>2015-06-18T13:11:24Z</time>
      </trkpt>
      <trkpt lat="36.637760" lon="-6.296729">
        <ele>20.008</ele>
        <time>2015-06-18T13:11:26Z</time>
      </trkpt>
      <trkpt lat="36.637742" lon="-6.296700">
        <ele>20.437</ele>
        <time>2015-06-18T13:11:27Z</time>
      </trkpt>
      <trkpt lat="36.637726" lon="-6.296672">
        <ele>20.883</ele>
        <time>2015-06-18T13:11:28Z</time>
      </trkpt>
      <trkpt lat="36.637708" lon="-6.296645">
        <ele>21.419</ele>
        <time>2015-06-18T13:11:29Z</time>
      </trkpt>
      <trkpt lat="36.637692" lon="-6.296621">
        <ele>21.858</ele>
        <time>2015-06-18T13:11:30Z</time>
      </trkpt>
      <trkpt lat="36.637534" lon="-6.296436">
        <ele>21.871</ele>
        <time>2015-06-18T13:11:38Z</time>
      </trkpt>
      <trkpt lat="36.637395" lon="-6.296283">
        <ele>21.893</ele>
        <time>2015-06-18T13:11:45Z</time>
      </trkpt>
      <trkpt lat="36.637290" lon="-6.296176">
        <ele>22.216</ele>
        <time>2015-06-18T13:11:50Z</time>
      </trkpt>
      <trkpt lat="36.637267" lon="-6.296158">
        <ele>22.650</ele>
        <time>2015-06-18T13:11:51Z</time>
      </trkpt>
      <trkpt lat="36.637247" lon="-6.296135">
        <ele>23.089</ele>
        <time>2015-06-18T13:11:52Z</time>
      </trkpt>
      <trkpt lat="36.637226" lon="-6.296115">
        <ele>23.606</ele>
        <time>2015-06-18T13:11:53Z</time>
      </trkpt>
      <trkpt lat="36.637202" lon="-6.296096">
        <ele>24.026</ele>
        <time>2015-06-18T13:11:54Z</time>
      </trkpt>
      <trkpt lat="36.637030" lon="-6.295958">
        <ele>24.008</ele>
        <time>2015-06-18T13:12:01Z</time>
      </trkpt>
      <trkpt lat="36.636822" lon="-6.295822">
        <ele>24.059</ele>
        <time>2015-06-18T13:12:08Z</time>
      </trkpt>
      <trkpt lat="36.636623" lon="-6.295694">
        <ele>24.075</ele>
        <time>2015-06-18T13:12:15Z</time>
      </trkpt>
      <trkpt lat="36.636571" lon="-6.295661">
        <ele>24.421</ele>
        <time>2015-06-18T13:12:17Z</time>
      </trkpt>
      <trkpt lat="36.636543" lon="-6.295644">
        <ele>24.870</ele>
        <time>2015-06-18T13:12:18Z</time>
      </trkpt>
      <trkpt lat="36.636516" lon="-6.295628">
        <ele>25.293</ele>
        <time>2015-06-18T13:12:19Z</time>
      </trkpt>
      <trkpt lat="36.636487" lon="-6.295610">
        <ele>25.655</ele>
        <time>2015-06-18T13:12:20Z</time>
      </trkpt>
      <trkpt lat="36.636461" lon="-6.295591">
        <ele>26.058</ele>
        <time>2015-06-18T13:12:21Z</time>
      </trkpt>
      <trkpt lat="36.636383" lon="-6.295543">
        <ele>26.092</ele>
        <time>2015-06-18T13:12:24Z</time>
      </trkpt>
      <trkpt lat="36.636173" lon="-6.295410">
        <ele>26.037</ele>
        <time>2015-06-18T13:12:31Z</time>
      </trkpt>
      <trkpt lat="36.635968" lon="-6.295258">
        <ele>26.049</ele>
        <time>2015-06-18T13:12:38Z</time>
      </trkpt>
      <trkpt lat="36.635722" lon="-6.295074">
        <ele>26.013</ele>
        <time>2015-06-18T13:12:46Z</time>
      </trkpt>
      <trkpt lat="36.635589" lon="-6.294966">
        <ele>26.008</ele>
        <time>2015-06-18T13:12:52Z</time>
      </trkpt>
      <trkpt lat="36.635448" lon="-6.294842">
        <ele>26.044</ele>
        <time>2015-06-18T13:12:58Z</time>
      </trkpt>
      <trkpt lat="36.635312" lon="-6.294711">
        <ele>26.060</ele>
        <time>2015-06-18T13:13:03Z</time>
      </trkpt>
      <trkpt lat="36.635231" lon="-6.294624">
        <ele>26.076</ele>
        <time>2015-06-18T13:13:06Z</time>
      </trkpt>
      <trkpt lat="36.635110" lon="-6.294484">
        <ele>26.055</ele>
        <time>2015-06-18T13:13:11Z</time>
      </trkpt>
      <trkpt lat="36.635060" lon="-6.294423">
        <ele>26.058</ele>
        <time>2015-06-18T13:13:13Z</time>
      </trkpt>
      <trkpt lat="36.634948" lon="-6.294271">
        <ele>25.290</ele>
        <time>2015-06-18T13:13:18Z</time>
      </trkpt>
      <trkpt lat="36.634929" lon="-6.294244">
        <ele>24.643</ele>
        <time>2015-06-18T13:13:19Z</time>
      </trkpt>
      <trkpt lat="36.634912" lon="-6.294222">
        <ele>24.227</ele>
        <time>2015-06-18T13:13:20Z</time>
      </trkpt>
      <trkpt lat="36.634897" lon="-6.294202">
        <ele>23.889</ele>
        <time>2015-06-18T13:13:21Z</time>
      </trkpt>
      <trkpt lat="36.634781" lon="-6.294054">
        <ele>23.806</ele>
        <time>2015-06-18T13:13:27Z</time>
      </trkpt>
      <trkpt lat="36.634733" lon="-6.293996">
        <ele>23.226</ele>
        <time>2015-06-18T13:13:29Z</time>
      </trkpt>
      <trkpt lat="36.634711" lon="-6.293962">
        <ele>22.808</ele>
        <time>2015-06-18T13:13:30Z</time>
      </trkpt>
      <trkpt lat="36.634683" lon="-6.293933">
        <ele>22.449</ele>
        <time>2015-06-18T13:13:31Z</time>
      </trkpt>
      <trkpt lat="36.634660" lon="-6.293903">
        <ele>22.075</ele>
        <time>2015-06-18T13:13:32Z</time>
      </trkpt>
      <trkpt lat="36.634638" lon="-6.293872">
        <ele>21.651</ele>
        <time>2015-06-18T13:13:33Z</time>
      </trkpt>
      <trkpt lat="36.634430" lon="-6.293608">
        <ele>21.680</ele>
        <time>2015-06-18T13:13:42Z</time>
      </trkpt>
      <trkpt lat="36.634406" lon="-6.293577">
        <ele>22.093</ele>
        <time>2015-06-18T13:13:43Z</time>
      </trkpt>
      <trkpt lat="36.634386" lon="-6.293545">
        <ele>22.495</ele>
        <time>2015-06-18T13:13:44Z</time>
      </trkpt>
      <trkpt lat="36.634366" lon="-6.293517">
        <ele>22.838</ele>
        <time>2015-06-18T13:13:45Z</time>
      </trkpt>
      <trkpt lat="36.634345" lon="-6.293489">
        <ele>23.262</ele>
        <time>2015-06-18T13:13:46Z</time>
      </trkpt>
      <trkpt lat="36.634322" lon="-6.293461">
        <ele>23.672</ele>
        <time>2015-06-18T13:13:47Z</time>
      </trkpt>
      <trkpt lat="36.634254" lon="-6.293375">
        <ele>23.613</ele>
        <time>2015-06-18T13:13:50Z</time>
      </trkpt>
      <trkpt lat="36.634108" lon="-6.293153">
        <ele>23.614</ele>
        <time>2015-06-18T13:13:57Z</time>
      </trkpt>
      <trkpt lat="36.634086" lon="-6.293120">
        <ele>24.008</ele>
        <time>2015-06-18T13:13:58Z</time>
      </trkpt>
      <trkpt lat="36.634067" lon="-6.293087">
        <ele>24.498</ele>
        <time>2015-06-18T13:13:59Z</time>
      </trkpt>
      <trkpt lat="36.634047" lon="-6.293054">
        <ele>24.874</ele>
        <time>2015-06-18T13:14:00Z</time>
      </trkpt>
      <trkpt lat="36.634024" lon="-6.293022">
        <ele>25.270</ele>
        <time>2015-06-18T13:14:01Z</time>
      </trkpt>
      <trkpt lat="36.634002" lon="-6.292991">
        <ele>25.649</ele>
        <time>2015-06-18T13:14:02Z</time>
      </trkpt>
      <trkpt lat="36.633951" lon="-6.292891">
        <ele>25.672</ele>
        <time>2015-06-18T13:14:05Z</time>
      </trkpt>
      <trkpt lat="36.633914" lon="-6.292831">
        <ele>24.864</ele>
        <time>2015-06-18T13:14:07Z</time>
      </trkpt>
      <trkpt lat="36.633893" lon="-6.292801">
        <ele>24.247</ele>
        <time>2015-06-18T13:14:08Z</time>
      </trkpt>
      <trkpt lat="36.633876" lon="-6.292769">
        <ele>23.891</ele>
        <time>2015-06-18T13:14:09Z</time>
      </trkpt>
      <trkpt lat="36.633858" lon="-6.292739">
        <ele>23.427</ele>
        <time>2015-06-18T13:14:10Z</time>
      </trkpt>
      <trkpt lat="36.633842" lon="-6.292707">
        <ele>23.468</ele>
        <time>2015-06-18T13:14:11Z</time>
      </trkpt>
      <trkpt lat="36.633719" lon="-6.292484">
        <ele>23.414</ele>
        <time>2015-06-18T13:14:18Z</time>
      </trkpt>
      <trkpt lat="36.633628" lon="-6.292300">
        <ele>23.408</ele>
        <time>2015-06-18T13:14:23Z</time>
      </trkpt>
      <trkpt lat="36.633498" lon="-6.291981">
        <ele>23.413</ele>
        <time>2015-06-18T13:14:31Z</time>
      </trkpt>
      <trkpt lat="36.633404" lon="-6.291656">
        <ele>23.499</ele>
        <time>2015-06-18T13:14:38Z</time>
      </trkpt>
      <trkpt lat="36.633337" lon="-6.291284">
        <ele>23.425</ele>
        <time>2015-06-18T13:14:46Z</time>
      </trkpt>
      <trkpt lat="36.633323" lon="-6.290940">
        <ele>23.424</ele>
        <time>2015-06-18T13:14:54Z</time>
      </trkpt>
      <trkpt lat="36.633324" lon="-6.290894">
        <ele>22.697</ele>
        <time>2015-06-18T13:14:55Z</time>
      </trkpt>
      <trkpt lat="36.633329" lon="-6.290854">
        <ele>22.239</ele>
        <time>2015-06-18T13:14:56Z</time>
      </trkpt>
      <trkpt lat="36.633330" lon="-6.290811">
        <ele>22.692</ele>
        <time>2015-06-18T13:14:57Z</time>
      </trkpt>
      <trkpt lat="36.633333" lon="-6.290772">
        <ele>23.016</ele>
        <time>2015-06-18T13:14:58Z</time>
      </trkpt>
      <trkpt lat="36.633336" lon="-6.290733">
        <ele>23.654</ele>
        <time>2015-06-18T13:14:59Z</time>
      </trkpt>
      <trkpt lat="36.633340" lon="-6.290694">
        <ele>24.056</ele>
        <time>2015-06-18T13:15:00Z</time>
      </trkpt>
      <trkpt lat="36.633344" lon="-6.290655">
        <ele>24.611</ele>
        <time>2015-06-18T13:15:01Z</time>
      </trkpt>
      <trkpt lat="36.633369" lon="-6.290376">
        <ele>24.608</ele>
        <time>2015-06-18T13:15:08Z</time>
      </trkpt>
      <trkpt lat="36.633411" lon="-6.290017">
        <ele>24.696</ele>
        <time>2015-06-18T13:15:17Z</time>
      </trkpt>
      <trkpt lat="36.633440" lon="-6.289665">
        <ele>24.632</ele>
        <time>2015-06-18T13:15:26Z</time>
      </trkpt>
      <trkpt lat="36.633462" lon="-6.289473">
        <ele>25.038</ele>
        <time>2015-06-18T13:15:31Z</time>
      </trkpt>
      <trkpt lat="36.633467" lon="-6.289434">
        <ele>25.437</ele>
        <time>2015-06-18T13:15:32Z</time>
      </trkpt>
      <trkpt lat="36.633472" lon="-6.289396">
        <ele>25.880</ele>
        <time>2015-06-18T13:15:33Z</time>
      </trkpt>
      <trkpt lat="36.633475" lon="-6.289355">
        <ele>26.212</ele>
        <time>2015-06-18T13:15:34Z</time>
      </trkpt>
      <trkpt lat="36.633479" lon="-6.289312">
        <ele>26.685</ele>
        <time>2015-06-18T13:15:35Z</time>
      </trkpt>
      <trkpt lat="36.633500" lon="-6.289112">
        <ele>26.669</ele>
        <time>2015-06-18T13:15:40Z</time>
      </trkpt>
      <trkpt lat="36.633524" lon="-6.288789">
        <ele>26.629</ele>
        <time>2015-06-18T13:15:48Z</time>
      </trkpt>
      <trkpt lat="36.633548" lon="-6.288551">
        <ele>26.600</ele>
        <time>2015-06-18T13:15:54Z</time>
      </trkpt>
      <trkpt lat="36.633559" lon="-6.288471">
        <ele>27.020</ele>
        <time>2015-06-18T13:15:56Z</time>
      </trkpt>
      <trkpt lat="36.633563" lon="-6.288431">
        <ele>27.608</ele>
        <time>2015-06-18T13:15:57Z</time>
      </trkpt>
      <trkpt lat="36.633568" lon="-6.288391">
        <ele>28.033</ele>
        <time>2015-06-18T13:15:58Z</time>
      </trkpt>
      <trkpt lat="36.633570" lon="-6.288353">
        <ele>28.649</ele>
        <time>2015-06-18T13:15:59Z</time>
      </trkpt>
      <trkpt lat="36.633573" lon="-6.288314">
        <ele>29.085</ele>
        <time>2015-06-18T13:16:00Z</time>
      </trkpt>
      <trkpt lat="36.633576" lon="-6.288274">
        <ele>29.044</ele>
        <time>2015-06-18T13:16:01Z</time>
      </trkpt>
      <trkpt lat="36.633612" lon="-6.287920">
        <ele>29.027</ele>
        <time>2015-06-18T13:16:10Z</time>
      </trkpt>
      <trkpt lat="36.633640" lon="-6.287640">
        <ele>29.419</ele>
        <time>2015-06-18T13:16:17Z</time>
      </trkpt>
      <trkpt lat="36.633645" lon="-6.287600">
        <ele>29.862</ele>
        <time>2015-06-18T13:16:18Z</time>
      </trkpt>
      <trkpt lat="36.633650" lon="-6.287557">
        <ele>30.296</ele>
        <time>2015-06-18T13:16:19Z</time>
      </trkpt>
      <trkpt lat="36.633656" lon="-6.287513">
        <ele>30.661</ele>
        <time>2015-06-18T13:16:20Z</time>
      </trkpt>
      <trkpt lat="36.633660" lon="-6.287471">
        <ele>31.021</ele>
        <time>2015-06-18T13:16:21Z</time>
      </trkpt>
      <trkpt lat="36.633682" lon="-6.287225">
        <ele>31.013</ele>
        <time>2015-06-18T13:16:26Z</time>
      </trkpt>
      <trkpt lat="36.633692" lon="-6.287069">
        <ele>31.008</ele>
        <time>2015-06-18T13:16:29Z</time>
      </trkpt>
      <trkpt lat="36.633693" lon="-6.286912">
        <ele>31.037</ele>
        <time>2015-06-18T13:16:32Z</time>
      </trkpt>
      <trkpt lat="36.633686" lon="-6.286589">
        <ele>31.053</ele>
        <time>2015-06-18T13:16:39Z</time>
      </trkpt>
      <trkpt lat="36.633647" lon="-6.286292">
        <ele>31.049</ele>
        <time>2015-06-18T13:16:45Z</time>
      </trkpt>
      <trkpt lat="36.633638" lon="-6.286236">
        <ele>31.088</ele>
        <time>2015-06-18T13:16:46Z</time>
      </trkpt>
      <trkpt lat="36.633632" lon="-6.286180">
        <ele>30.631</ele>
        <time>2015-06-18T13:16:47Z</time>
      </trkpt>
      <trkpt lat="36.633626" lon="-6.286124">
        <ele>30.263</ele>
        <time>2015-06-18T13:16:48Z</time>
      </trkpt>
      <trkpt lat="36.633616" lon="-6.286067">
        <ele>29.666</ele>
        <time>2015-06-18T13:16:49Z</time>
      </trkpt>
      <trkpt lat="36.633609" lon="-6.286010">
        <ele>29.290</ele>
        <time>2015-06-18T13:16:50Z</time>
      </trkpt>
      <trkpt lat="36.633603" lon="-6.285953">
        <ele>28.828</ele>
        <time>2015-06-18T13:16:51Z</time>
      </trkpt>
      <trkpt lat="36.633580" lon="-6.285783">
        <ele>28.889</ele>
        <time>2015-06-18T13:16:54Z</time>
      </trkpt>
      <trkpt lat="36.633564" lon="-6.285607">
        <ele>28.817</ele>
        <time>2015-06-18T13:16:57Z</time>
      </trkpt>
      <trkpt lat="36.633560" lon="-6.285555">
        <ele>28.808</ele>
        <time>2015-06-18T13:16:58Z</time>
      </trkpt>
      <trkpt lat="36.633543" lon="-6.285402">
        <ele>28.863</ele>
        <time>2015-06-18T13:17:01Z</time>
      </trkpt>
      <trkpt lat="36.633518" lon="-6.285247">
        <ele>28.419</ele>
        <time>2015-06-18T13:17:04Z</time>
      </trkpt>
      <trkpt lat="36.633511" lon="-6.285192">
        <ele>28.045</ele>
        <time>2015-06-18T13:17:05Z</time>
      </trkpt>
      <trkpt lat="36.633503" lon="-6.285138">
        <ele>27.624</ele>
        <time>2015-06-18T13:17:06Z</time>
      </trkpt>
      <trkpt lat="36.633493" lon="-6.285084">
        <ele>27.037</ele>
        <time>2015-06-18T13:17:07Z</time>
      </trkpt>
      <trkpt lat="36.633484" lon="-6.285030">
        <ele>26.659</ele>
        <time>2015-06-18T13:17:08Z</time>
      </trkpt>
      <trkpt lat="36.633449" lon="-6.284816">
        <ele>26.652</ele>
        <time>2015-06-18T13:17:12Z</time>
      </trkpt>
      <trkpt lat="36.633431" lon="-6.284716">
        <ele>26.676</ele>
        <time>2015-06-18T13:17:14Z</time>
      </trkpt>
      <trkpt lat="36.633364" lon="-6.284482">
        <ele>26.682</ele>
        <time>2015-06-18T13:17:19Z</time>
      </trkpt>
      <trkpt lat="36.633355" lon="-6.284435">
        <ele>26.643</ele>
        <time>2015-06-18T13:17:20Z</time>
      </trkpt>
      <trkpt lat="36.633267" lon="-6.284191">
        <ele>26.617</ele>
        <time>2015-06-18T13:17:26Z</time>
      </trkpt>
      <trkpt lat="36.633138" lon="-6.283888">
        <ele>26.608</ele>
        <time>2015-06-18T13:17:34Z</time>
      </trkpt>
      <trkpt lat="36.632952" lon="-6.283553">
        <ele>26.619</ele>
        <time>2015-06-18T13:17:43Z</time>
      </trkpt>
      <trkpt lat="36.632805" lon="-6.283345">
        <ele>26.695</ele>
        <time>2015-06-18T13:17:49Z</time>
      </trkpt>
      <trkpt lat="36.632753" lon="-6.283277">
        <ele>26.651</ele>
        <time>2015-06-18T13:17:51Z</time>
      </trkpt>
      <trkpt lat="36.632586" lon="-6.283085">
        <ele>26.630</ele>
        <time>2015-06-18T13:17:58Z</time>
      </trkpt>
      <trkpt lat="36.632384" lon="-6.282881">
        <ele>26.693</ele>
        <time>2015-06-18T13:18:06Z</time>
      </trkpt>
      <trkpt lat="36.632229" lon="-6.282736">
        <ele>26.625</ele>
        <time>2015-06-18T13:18:12Z</time>
      </trkpt>
      <trkpt lat="36.632051" lon="-6.282566">
        <ele>26.678</ele>
        <time>2015-06-18T13:18:19Z</time>
      </trkpt>
      <trkpt lat="36.631850" lon="-6.282375">
        <ele>26.642</ele>
        <time>2015-06-18T13:18:27Z</time>
      </trkpt>
      <trkpt lat="36.631674" lon="-6.282203">
        <ele>26.659</ele>
        <time>2015-06-18T13:18:34Z</time>
      </trkpt>
      <trkpt lat="36.631458" lon="-6.281996">
        <ele>26.603</ele>
        <time>2015-06-18T13:18:43Z</time>
      </trkpt>
      <trkpt lat="36.631268" lon="-6.281818">
        <ele>26.623</ele>
        <time>2015-06-18T13:18:51Z</time>
      </trkpt>
      <trkpt lat="36.631091" lon="-6.281653">
        <ele>26.608</ele>
        <time>2015-06-18T13:18:58Z</time>
      </trkpt>
      <trkpt lat="36.630869" lon="-6.281437">
        <ele>26.616</ele>
        <time>2015-06-18T13:19:06Z</time>
      </trkpt>
      <trkpt lat="36.630683" lon="-6.281268">
        <ele>26.632</ele>
        <time>2015-06-18T13:19:13Z</time>
      </trkpt>
      <trkpt lat="36.630500" lon="-6.281086">
        <ele>26.678</ele>
        <time>2015-06-18T13:19:20Z</time>
      </trkpt>
      <trkpt lat="36.630334" lon="-6.280898">
        <ele>26.637</ele>
        <time>2015-06-18T13:19:27Z</time>
      </trkpt>
      <trkpt lat="36.630193" lon="-6.280729">
        <ele>26.210</ele>
        <time>2015-06-18T13:19:33Z</time>
      </trkpt>
      <trkpt lat="36.630169" lon="-6.280699">
        <ele>25.812</ele>
        <time>2015-06-18T13:19:34Z</time>
      </trkpt>
      <trkpt lat="36.630142" lon="-6.280668">
        <ele>25.445</ele>
        <time>2015-06-18T13:19:35Z</time>
      </trkpt>
      <trkpt lat="36.630119" lon="-6.280638">
        <ele>25.059</ele>
        <time>2015-06-18T13:19:36Z</time>
      </trkpt>
      <trkpt lat="36.630095" lon="-6.280607">
        <ele>24.697</ele>
        <time>2015-06-18T13:19:37Z</time>
      </trkpt>
      <trkpt lat="36.629962" lon="-6.280430">
        <ele>24.223</ele>
        <time>2015-06-18T13:19:43Z</time>
      </trkpt>
      <trkpt lat="36.629940" lon="-6.280404">
        <ele>23.825</ele>
        <time>2015-06-18T13:19:44Z</time>
      </trkpt>
      <trkpt lat="36.629918" lon="-6.280376">
        <ele>23.408</ele>
        <time>2015-06-18T13:19:45Z</time>
      </trkpt>
      <trkpt lat="36.629897" lon="-6.280347">
        <ele>23.050</ele>
        <time>2015-06-18T13:19:46Z</time>
      </trkpt>
      <trkpt lat="36.629874" lon="-6.280320">
        <ele>22.436</ele>
        <time>2015-06-18T13:19:47Z</time>
      </trkpt>
      <trkpt lat="36.629805" lon="-6.280230">
        <ele>22.462</ele>
        <time>2015-06-18T13:19:50Z</time>
      </trkpt>
      <trkpt lat="36.629660" lon="-6.280054">
        <ele>22.431</ele>
        <time>2015-06-18T13:19:56Z</time>
      </trkpt>
      <trkpt lat="36.629466" lon="-6.279819">
        <ele>22.484</ele>
        <time>2015-06-18T13:20:04Z</time>
      </trkpt>
      <trkpt lat="36.629276" lon="-6.279574">
        <ele>22.486</ele>
        <time>2015-06-18T13:20:12Z</time>
      </trkpt>
      <trkpt lat="36.629116" lon="-6.279343">
        <ele>22.419</ele>
        <time>2015-06-18T13:20:19Z</time>
      </trkpt>
      <trkpt lat="36.628948" lon="-6.279127">
        <ele>22.483</ele>
        <time>2015-06-18T13:20:26Z</time>
      </trkpt>
      <trkpt lat="36.628769" lon="-6.278895">
        <ele>22.417</ele>
        <time>2015-06-18T13:20:33Z</time>
      </trkpt>
      <trkpt lat="36.628621" lon="-6.278710">
        <ele>22.487</ele>
        <time>2015-06-18T13:20:39Z</time>
      </trkpt>
      <trkpt lat="36.628456" lon="-6.278499">
        <ele>22.415</ele>
        <time>2015-06-18T13:20:46Z</time>
      </trkpt>
      <trkpt lat="36.628217" lon="-6.278195">
        <ele>22.408</ele>
        <time>2015-06-18T13:20:56Z</time>
      </trkpt>
      <trkpt lat="36.628062" lon="-6.277990">
        <ele>22.462</ele>
        <time>2015-06-18T13:21:03Z</time>
      </trkpt>
      <trkpt lat="36.627890" lon="-6.277774">
        <ele>22.498</ele>
        <time>2015-06-18T13:21:11Z</time>
      </trkpt>
      <trkpt lat="36.627721" lon="-6.277554">
        <ele>22.474</ele>
        <time>2015-06-18T13:21:19Z</time>
      </trkpt>
      <trkpt lat="36.627555" lon="-6.277356">
        <ele>22.463</ele>
        <time>2015-06-18T13:21:27Z</time>
      </trkpt>
      <trkpt lat="36.627386" lon="-6.277148">
        <ele>22.466</ele>
        <time>2015-06-18T13:21:35Z</time>
      </trkpt>
      <trkpt lat="36.627197" lon="-6.276897">
        <ele>22.478</ele>
        <time>2015-06-18T13:21:44Z</time>
      </trkpt>
      <trkpt lat="36.627028" lon="-6.276670">
        <ele>22.441</ele>
        <time>2015-06-18T13:21:52Z</time>
      </trkpt>
      <trkpt lat="36.626897" lon="-6.276412">
        <ele>22.465</ele>
        <time>2015-06-18T13:22:00Z</time>
      </trkpt>
      <trkpt lat="36.626858" lon="-6.276225">
        <ele>22.467</ele>
        <time>2015-06-18T13:22:05Z</time>
      </trkpt>
      <trkpt lat="36.626832" lon="-6.275999">
        <ele>22.481</ele>
        <time>2015-06-18T13:22:11Z</time>
      </trkpt>
      <trkpt lat="36.626821" lon="-6.275812">
        <ele>22.419</ele>
        <time>2015-06-18T13:22:17Z</time>
      </trkpt>
      <trkpt lat="36.626824" lon="-6.275561">
        <ele>22.408</ele>
        <time>2015-06-18T13:22:24Z</time>
      </trkpt>
      <trkpt lat="36.626851" lon="-6.275326">
        <ele>22.417</ele>
        <time>2015-06-18T13:22:30Z</time>
      </trkpt>
      <trkpt lat="36.626918" lon="-6.275016">
        <ele>22.493</ele>
        <time>2015-06-18T13:22:38Z</time>
      </trkpt>
      <trkpt lat="36.626907" lon="-6.274712">
        <ele>22.469</ele>
        <time>2015-06-18T13:22:46Z</time>
      </trkpt>
      <trkpt lat="36.626805" lon="-6.274628">
        <ele>22.468</ele>
        <time>2015-06-18T13:22:50Z</time>
      </trkpt>
      <trkpt lat="36.626699" lon="-6.274513">
        <ele>22.481</ele>
        <time>2015-06-18T13:22:55Z</time>
      </trkpt>
      <trkpt lat="36.626602" lon="-6.274330">
        <ele>22.433</ele>
        <time>2015-06-18T13:23:01Z</time>
      </trkpt>
      <trkpt lat="36.626519" lon="-6.274140">
        <ele>22.446</ele>
        <time>2015-06-18T13:23:06Z</time>
      </trkpt>
      <trkpt lat="36.626429" lon="-6.274123">
        <ele>22.430</ele>
        <time>2015-06-18T13:23:09Z</time>
      </trkpt>
      <trkpt lat="36.626324" lon="-6.274240">
        <ele>22.484</ele>
        <time>2015-06-18T13:23:13Z</time>
      </trkpt>
      <trkpt lat="36.626140" lon="-6.274408">
        <ele>22.407</ele>
        <time>2015-06-18T13:23:19Z</time>
      </trkpt>
      <trkpt lat="36.625856" lon="-6.274644">
        <ele>22.417</ele>
        <time>2015-06-18T13:23:27Z</time>
      </trkpt>
      <trkpt lat="36.625730" lon="-6.274704">
        <ele>22.408</ele>
        <time>2015-06-18T13:23:31Z</time>
      </trkpt>
      <trkpt lat="36.625702" lon="-6.274686">
        <ele>22.449</ele>
        <time>2015-06-18T13:23:32Z</time>
      </trkpt>
      <trkpt lat="36.625630" lon="-6.274571">
        <ele>22.435</ele>
        <time>2015-06-18T13:23:36Z</time>
      </trkpt>
      <trkpt lat="36.625612" lon="-6.274537">
        <ele>22.461</ele>
        <time>2015-06-18T13:23:37Z</time>
      </trkpt>
      <trkpt lat="36.625534" lon="-6.274335">
        <ele>22.450</ele>
        <time>2015-06-18T13:23:43Z</time>
      </trkpt>
      <trkpt lat="36.625398" lon="-6.274040">
        <ele>22.453</ele>
        <time>2015-06-18T13:23:51Z</time>
      </trkpt>
      <trkpt lat="36.625264" lon="-6.273868">
        <ele>22.485</ele>
        <time>2015-06-18T13:23:57Z</time>
      </trkpt>
      <trkpt lat="36.625141" lon="-6.273839">
        <ele>22.478</ele>
        <time>2015-06-18T13:24:01Z</time>
      </trkpt>
      <trkpt lat="36.625106" lon="-6.273843">
        <ele>22.432</ele>
        <time>2015-06-18T13:24:02Z</time>
      </trkpt>
      <trkpt lat="36.624969" lon="-6.273865">
        <ele>22.474</ele>
        <time>2015-06-18T13:24:06Z</time>
      </trkpt>
      <trkpt lat="36.624902" lon="-6.273863">
        <ele>22.456</ele>
        <time>2015-06-18T13:24:08Z</time>
      </trkpt>
      <trkpt lat="36.624675" lon="-6.273890">
        <ele>23.021</ele>
        <time>2015-06-18T13:24:15Z</time>
      </trkpt>
      <trkpt lat="36.624644" lon="-6.273893">
        <ele>23.408</ele>
        <time>2015-06-18T13:24:16Z</time>
      </trkpt>
      <trkpt lat="36.624611" lon="-6.273894">
        <ele>23.838</ele>
        <time>2015-06-18T13:24:17Z</time>
      </trkpt>
      <trkpt lat="36.624578" lon="-6.273897">
        <ele>24.214</ele>
        <time>2015-06-18T13:24:18Z</time>
      </trkpt>
      <trkpt lat="36.624545" lon="-6.273893">
        <ele>24.650</ele>
        <time>2015-06-18T13:24:19Z</time>
      </trkpt>
      <trkpt lat="36.624445" lon="-6.273879">
        <ele>24.619</ele>
        <time>2015-06-18T13:24:22Z</time>
      </trkpt>
      <trkpt lat="36.624153" lon="-6.273869">
        <ele>24.692</ele>
        <time>2015-06-18T13:24:31Z</time>
      </trkpt>
      <trkpt lat="36.623890" lon="-6.273880">
        <ele>24.664</ele>
        <time>2015-06-18T13:24:39Z</time>
      </trkpt>
      <trkpt lat="36.623709" lon="-6.273823">
        <ele>24.617</ele>
        <time>2015-06-18T13:24:45Z</time>
      </trkpt>
      <trkpt lat="36.623611" lon="-6.273736">
        <ele>24.621</ele>
        <time>2015-06-18T13:24:49Z</time>
      </trkpt>
      <trkpt lat="36.623505" lon="-6.273607">
        <ele>25.028</ele>
        <time>2015-06-18T13:24:54Z</time>
      </trkpt>
      <trkpt lat="36.623487" lon="-6.273582">
        <ele>25.489</ele>
        <time>2015-06-18T13:24:55Z</time>
      </trkpt>
      <trkpt lat="36.623468" lon="-6.273555">
        <ele>25.817</ele>
        <time>2015-06-18T13:24:56Z</time>
      </trkpt>
      <trkpt lat="36.623451" lon="-6.273527">
        <ele>26.208</ele>
        <time>2015-06-18T13:24:57Z</time>
      </trkpt>
      <trkpt lat="36.623436" lon="-6.273497">
        <ele>26.633</ele>
        <time>2015-06-18T13:24:58Z</time>
      </trkpt>
      <trkpt lat="36.623381" lon="-6.273406">
        <ele>26.689</ele>
        <time>2015-06-18T13:25:01Z</time>
      </trkpt>
      <trkpt lat="36.623290" lon="-6.273235">
        <ele>26.635</ele>
        <time>2015-06-18T13:25:07Z</time>
      </trkpt>
      <trkpt lat="36.623194" lon="-6.273080">
        <ele>26.634</ele>
        <time>2015-06-18T13:25:13Z</time>
      </trkpt>
      <trkpt lat="36.623119" lon="-6.272945">
        <ele>26.617</ele>
        <time>2015-06-18T13:25:18Z</time>
      </trkpt>
      <trkpt lat="36.622989" lon="-6.272749">
        <ele>26.669</ele>
        <time>2015-06-18T13:25:25Z</time>
      </trkpt>
      <trkpt lat="36.622952" lon="-6.272714">
        <ele>27.072</ele>
        <time>2015-06-18T13:25:27Z</time>
      </trkpt>
      <trkpt lat="36.622921" lon="-6.272691">
        <ele>27.466</ele>
        <time>2015-06-18T13:25:28Z</time>
      </trkpt>
      <trkpt lat="36.622908" lon="-6.272679">
        <ele>27.864</ele>
        <time>2015-06-18T13:25:29Z</time>
      </trkpt>
      <trkpt lat="36.622899" lon="-6.272670">
        <ele>28.206</ele>
        <time>2015-06-18T13:25:30Z</time>
      </trkpt>
      <trkpt lat="36.622899" lon="-6.272672">
        <ele>28.616</ele>
        <time>2015-06-18T13:25:31Z</time>
      </trkpt>
      <trkpt lat="36.622897" lon="-6.272670">
        <ele>28.608</ele>
        <time>2015-06-18T13:25:33Z</time>
      </trkpt>
      <trkpt lat="36.622897" lon="-6.272670">
        <ele>28.627</ele>
        <time>2015-06-18T13:25:40Z</time>
      </trkpt>
      <trkpt lat="36.622897" lon="-6.272670">
        <ele>28.693</ele>
        <time>2015-06-18T13:25:50Z</time>
      </trkpt>
      <trkpt lat="36.622897" lon="-6.272670">
        <ele>28.699</ele>
        <time>2015-06-18T13:25:58Z</time>
      </trkpt>
      <trkpt lat="36.622897" lon="-6.272670">
        <ele>28.638</ele>
        <time>2015-06-18T13:26:02Z</time>
      </trkpt>
      <trkpt lat="36.622897" lon="-6.272670">
        <ele>28.691</ele>
        <time>2015-06-18T13:26:07Z</time>
      </trkpt>
      <trkpt lat="36.622897" lon="-6.272670">
        <ele>28.623</ele>
        <time>2015-06-18T13:26:14Z</time>
      </trkpt>
      <trkpt lat="36.622897" lon="-6.272670">
        <ele>28.686</ele>
        <time>2015-06-18T13:26:16Z</time>
      </trkpt>
      <trkpt lat="36.622898" lon="-6.272673">
        <ele>28.610</ele>
        <time>2015-06-18T13:26:26Z</time>
      </trkpt>
      <trkpt lat="36.622898" lon="-6.272673">
        <ele>28.634</ele>
        <time>2015-06-18T13:26:31Z</time>
      </trkpt>
      <trkpt lat="36.622898" lon="-6.272673">
        <ele>28.655</ele>
        <time>2015-06-18T13:26:38Z</time>
      </trkpt>
      <trkpt lat="36.622898" lon="-6.272673">
        <ele>28.610</ele>
        <time>2015-06-18T13:26:43Z</time>
      </trkpt>
      <trkpt lat="36.622898" lon="-6.272673">
        <ele>28.608</ele>
        <time>2015-06-18T13:26:54Z</time>
      </trkpt>
      <trkpt lat="36.622898" lon="-6.272673">
        <ele>28.664</ele>
        <time>2015-06-18T13:26:56Z</time>
      </trkpt>
      <trkpt lat="36.622899" lon="-6.272676">
        <ele>28.670</ele>
        <time>2015-06-18T13:27:04Z</time>
      </trkpt>
      <trkpt lat="36.622899" lon="-6.272676">
        <ele>28.646</ele>
        <time>2015-06-18T13:27:07Z</time>
      </trkpt>
      <trkpt lat="36.622899" lon="-6.272676">
        <ele>28.685</ele>
        <time>2015-06-18T13:27:11Z</time>
      </trkpt>
      <trkpt lat="36.622899" lon="-6.272676">
        <ele>28.698</ele>
        <time>2015-06-18T13:27:18Z</time>
      </trkpt>
      <trkpt lat="36.622899" lon="-6.272676">
        <ele>28.680</ele>
        <time>2015-06-18T13:27:20Z</time>
      </trkpt>
      <trkpt lat="36.622896" lon="-6.272666">
        <ele>28.633</ele>
        <time>2015-06-18T13:27:25Z</time>
      </trkpt>
      <trkpt lat="36.622870" lon="-6.272629">
        <ele>28.637</ele>
        <time>2015-06-18T13:27:30Z</time>
      </trkpt>
      <trkpt lat="36.622821" lon="-6.272514">
        <ele>28.674</ele>
        <time>2015-06-18T13:27:36Z</time>
      </trkpt>
      <trkpt lat="36.622789" lon="-6.272476">
        <ele>28.656</ele>
        <time>2015-06-18T13:27:38Z</time>
      </trkpt>
      <trkpt lat="36.622768" lon="-6.272433">
        <ele>28.621</ele>
        <time>2015-06-18T13:27:40Z</time>
      </trkpt>
      <trkpt lat="36.622761" lon="-6.272407">
        <ele>28.608</ele>
        <time>2015-06-18T13:27:41Z</time>
      </trkpt>
      <trkpt lat="36.622682" lon="-6.272281">
        <ele>28.638</ele>
        <time>2015-06-18T13:27:46Z</time>
      </trkpt>
      <trkpt lat="36.622663" lon="-6.272258">
        <ele>28.694</ele>
        <time>2015-06-18T13:27:47Z</time>
      </trkpt>
      <trkpt lat="36.622620" lon="-6.272180">
        <ele>28.610</ele>
        <time>2015-06-18T13:27:50Z</time>
      </trkpt>
      <trkpt lat="36.622597" lon="-6.272131">
        <ele>28.629</ele>
        <time>2015-06-18T13:27:52Z</time>
      </trkpt>
      <trkpt lat="36.622577" lon="-6.272073">
        <ele>28.632</ele>
        <time>2015-06-18T13:27:54Z</time>
      </trkpt>
      <trkpt lat="36.622541" lon="-6.271996">
        <ele>28.664</ele>
        <time>2015-06-18T13:27:57Z</time>
      </trkpt>
      <trkpt lat="36.622516" lon="-6.271917">
        <ele>28.647</ele>
        <time>2015-06-18T13:28:00Z</time>
      </trkpt>
      <trkpt lat="36.622506" lon="-6.271895">
        <ele>28.681</ele>
        <time>2015-06-18T13:28:01Z</time>
      </trkpt>
      <trkpt lat="36.622479" lon="-6.271819">
        <ele>28.689</ele>
        <time>2015-06-18T13:28:04Z</time>
      </trkpt>
      <trkpt lat="36.622440" lon="-6.271715">
        <ele>28.606</ele>
        <time>2015-06-18T13:28:08Z</time>
      </trkpt>
      <trkpt lat="36.622398" lon="-6.271612">
        <ele>28.626</ele>
        <time>2015-06-18T13:28:12Z</time>
      </trkpt>
      <trkpt lat="36.622377" lon="-6.271566">
        <ele>29.008</ele>
        <time>2015-06-18T13:28:14Z</time>
      </trkpt>
      <trkpt lat="36.622365" lon="-6.271541">
        <ele>29.439</ele>
        <time>2015-06-18T13:28:15Z</time>
      </trkpt>
      <trkpt lat="36.622356" lon="-6.271515">
        <ele>29.815</ele>
        <time>2015-06-18T13:28:16Z</time>
      </trkpt>
      <trkpt lat="36.622348" lon="-6.271490">
        <ele>30.291</ele>
        <time>2015-06-18T13:28:17Z</time>
      </trkpt>
      <trkpt lat="36.622337" lon="-6.271463">
        <ele>30.670</ele>
        <time>2015-06-18T13:28:18Z</time>
      </trkpt>
      <trkpt lat="36.622288" lon="-6.271368">
        <ele>30.613</ele>
        <time>2015-06-18T13:28:22Z</time>
      </trkpt>
      <trkpt lat="36.622207" lon="-6.271205">
        <ele>30.695</ele>
        <time>2015-06-18T13:28:29Z</time>
      </trkpt>
      <trkpt lat="36.622193" lon="-6.271183">
        <ele>31.428</ele>
        <time>2015-06-18T13:28:30Z</time>
      </trkpt>
      <trkpt lat="36.622188" lon="-6.271157">
        <ele>31.822</ele>
        <time>2015-06-18T13:28:31Z</time>
      </trkpt>
      <trkpt lat="36.622176" lon="-6.271131">
        <ele>32.278</ele>
        <time>2015-06-18T13:28:32Z</time>
      </trkpt>
      <trkpt lat="36.622165" lon="-6.271099">
        <ele>32.633</ele>
        <time>2015-06-18T13:28:33Z</time>
      </trkpt>
      <trkpt lat="36.622151" lon="-6.271069">
        <ele>32.626</ele>
        <time>2015-06-18T13:28:34Z</time>
      </trkpt>
      <trkpt lat="36.622083" lon="-6.270837">
        <ele>32.608</ele>
        <time>2015-06-18T13:28:41Z</time>
      </trkpt>
      <trkpt lat="36.622026" lon="-6.270727">
        <ele>33.018</ele>
        <time>2015-06-18T13:28:45Z</time>
      </trkpt>
      <trkpt lat="36.622015" lon="-6.270707">
        <ele>33.444</ele>
        <time>2015-06-18T13:28:46Z</time>
      </trkpt>
      <trkpt lat="36.622005" lon="-6.270681">
        <ele>33.850</ele>
        <time>2015-06-18T13:28:47Z</time>
      </trkpt>
      <trkpt lat="36.621988" lon="-6.270661">
        <ele>34.219</ele>
        <time>2015-06-18T13:28:48Z</time>
      </trkpt>
      <trkpt lat="36.621972" lon="-6.270632">
        <ele>34.662</ele>
        <time>2015-06-18T13:28:49Z</time>
      </trkpt>
      <trkpt lat="36.621927" lon="-6.270525">
        <ele>34.684</ele>
        <time>2015-06-18T13:28:53Z</time>
      </trkpt>
      <trkpt lat="36.621834" lon="-6.270338">
        <ele>34.617</ele>
        <time>2015-06-18T13:29:00Z</time>
      </trkpt>
      <trkpt lat="36.621770" lon="-6.270178">
        <ele>34.621</ele>
        <time>2015-06-18T13:29:06Z</time>
      </trkpt>
      <trkpt lat="36.621722" lon="-6.270035">
        <ele>35.069</ele>
        <time>2015-06-18T13:29:11Z</time>
      </trkpt>
      <trkpt lat="36.621723" lon="-6.270005">
        <ele>35.404</ele>
        <time>2015-06-18T13:29:12Z</time>
      </trkpt>
      <trkpt lat="36.621717" lon="-6.269979">
        <ele>35.824</ele>
        <time>2015-06-18T13:29:13Z</time>
      </trkpt>
      <trkpt lat="36.621705" lon="-6.269954">
        <ele>36.208</ele>
        <time>2015-06-18T13:29:14Z</time>
      </trkpt>
      <trkpt lat="36.621693" lon="-6.269928">
        <ele>36.887</ele>
        <time>2015-06-18T13:29:15Z</time>
      </trkpt>
      <trkpt lat="36.621665" lon="-6.269874">
        <ele>36.823</ele>
        <time>2015-06-18T13:29:17Z</time>
      </trkpt>
      <trkpt lat="36.621615" lon="-6.269738">
        <ele>36.839</ele>
        <time>2015-06-18T13:29:22Z</time>
      </trkpt>
      <trkpt lat="36.621600" lon="-6.269687">
        <ele>37.248</ele>
        <time>2015-06-18T13:29:24Z</time>
      </trkpt>
      <trkpt lat="36.621591" lon="-6.269660">
        <ele>37.611</ele>
        <time>2015-06-18T13:29:25Z</time>
      </trkpt>
      <trkpt lat="36.621579" lon="-6.269632">
        <ele>38.013</ele>
        <time>2015-06-18T13:29:26Z</time>
      </trkpt>
      <trkpt lat="36.621565" lon="-6.269606">
        <ele>38.476</ele>
        <time>2015-06-18T13:29:27Z</time>
      </trkpt>
      <trkpt lat="36.621553" lon="-6.269576">
        <ele>38.890</ele>
        <time>2015-06-18T13:29:28Z</time>
      </trkpt>
      <trkpt lat="36.621490" lon="-6.269451">
        <ele>38.824</ele>
        <time>2015-06-18T13:29:33Z</time>
      </trkpt>
      <trkpt lat="36.621391" lon="-6.269238">
        <ele>39.204</ele>
        <time>2015-06-18T13:29:40Z</time>
      </trkpt>
      <trkpt lat="36.621377" lon="-6.269205">
        <ele>39.814</ele>
        <time>2015-06-18T13:29:41Z</time>
      </trkpt>
      <trkpt lat="36.621361" lon="-6.269172">
        <ele>40.208</ele>
        <time>2015-06-18T13:29:42Z</time>
      </trkpt>
      <trkpt lat="36.621345" lon="-6.269138">
        <ele>40.683</ele>
        <time>2015-06-18T13:29:43Z</time>
      </trkpt>
      <trkpt lat="36.621331" lon="-6.269108">
        <ele>41.049</ele>
        <time>2015-06-18T13:29:44Z</time>
      </trkpt>
      <trkpt lat="36.621240" lon="-6.268949">
        <ele>41.095</ele>
        <time>2015-06-18T13:29:49Z</time>
      </trkpt>
      <trkpt lat="36.621115" lon="-6.268728">
        <ele>41.034</ele>
        <time>2015-06-18T13:29:55Z</time>
      </trkpt>
      <trkpt lat="36.621032" lon="-6.268599">
        <ele>41.067</ele>
        <time>2015-06-18T13:29:59Z</time>
      </trkpt>
      <trkpt lat="36.620998" lon="-6.268551">
        <ele>41.089</ele>
        <time>2015-06-18T13:30:01Z</time>
      </trkpt>
      <trkpt lat="36.620891" lon="-6.268361">
        <ele>41.072</ele>
        <time>2015-06-18T13:30:08Z</time>
      </trkpt>
      <trkpt lat="36.620874" lon="-6.268335">
        <ele>41.056</ele>
        <time>2015-06-18T13:30:09Z</time>
      </trkpt>
      <trkpt lat="36.620724" lon="-6.268124">
        <ele>41.099</ele>
        <time>2015-06-18T13:30:17Z</time>
      </trkpt>
      <trkpt lat="36.620616" lon="-6.267977">
        <ele>41.007</ele>
        <time>2015-06-18T13:30:23Z</time>
      </trkpt>
      <trkpt lat="36.620483" lon="-6.267795">
        <ele>41.027</ele>
        <time>2015-06-18T13:30:30Z</time>
      </trkpt>
      <trkpt lat="36.620381" lon="-6.267613">
        <ele>41.008</ele>
        <time>2015-06-18T13:30:36Z</time>
      </trkpt>
      <trkpt lat="36.620245" lon="-6.267416">
        <ele>41.020</ele>
        <time>2015-06-18T13:30:43Z</time>
      </trkpt>
      <trkpt lat="36.620183" lon="-6.267266">
        <ele>41.416</ele>
        <time>2015-06-18T13:30:47Z</time>
      </trkpt>
      <trkpt lat="36.620169" lon="-6.267229">
        <ele>41.872</ele>
        <time>2015-06-18T13:30:48Z</time>
      </trkpt>
      <trkpt lat="36.620146" lon="-6.267195">
        <ele>42.221</ele>
        <time>2015-06-18T13:30:49Z</time>
      </trkpt>
      <trkpt lat="36.620131" lon="-6.267158">
        <ele>42.654</ele>
        <time>2015-06-18T13:30:50Z</time>
      </trkpt>
      <trkpt lat="36.620118" lon="-6.267121">
        <ele>43.086</ele>
        <time>2015-06-18T13:30:51Z</time>
      </trkpt>
      <trkpt lat="36.620058" lon="-6.266980">
        <ele>43.099</ele>
        <time>2015-06-18T13:30:55Z</time>
      </trkpt>
      <trkpt lat="36.619965" lon="-6.266820">
        <ele>43.043</ele>
        <time>2015-06-18T13:31:00Z</time>
      </trkpt>
      <trkpt lat="36.619826" lon="-6.266525">
        <ele>43.076</ele>
        <time>2015-06-18T13:31:08Z</time>
      </trkpt>
      <trkpt lat="36.619805" lon="-6.266445">
        <ele>43.490</ele>
        <time>2015-06-18T13:31:10Z</time>
      </trkpt>
      <trkpt lat="36.619787" lon="-6.266410">
        <ele>43.819</ele>
        <time>2015-06-18T13:31:11Z</time>
      </trkpt>
      <trkpt lat="36.619771" lon="-6.266370">
        <ele>44.408</ele>
        <time>2015-06-18T13:31:12Z</time>
      </trkpt>
      <trkpt lat="36.619750" lon="-6.266333">
        <ele>44.818</ele>
        <time>2015-06-18T13:31:13Z</time>
      </trkpt>
      <trkpt lat="36.619729" lon="-6.266298">
        <ele>45.274</ele>
        <time>2015-06-18T13:31:14Z</time>
      </trkpt>
      <trkpt lat="36.619622" lon="-6.266085">
        <ele>45.260</ele>
        <time>2015-06-18T13:31:20Z</time>
      </trkpt>
      <trkpt lat="36.619561" lon="-6.265844">
        <ele>45.219</ele>
        <time>2015-06-18T13:31:25Z</time>
      </trkpt>
      <trkpt lat="36.619561" lon="-6.265553">
        <ele>45.212</ele>
        <time>2015-06-18T13:31:30Z</time>
      </trkpt>
      <trkpt lat="36.619579" lon="-6.265422">
        <ele>45.254</ele>
        <time>2015-06-18T13:31:32Z</time>
      </trkpt>
      <trkpt lat="36.619606" lon="-6.265150">
        <ele>45.247</ele>
        <time>2015-06-18T13:31:36Z</time>
      </trkpt>
      <trkpt lat="36.619598" lon="-6.264951">
        <ele>45.281</ele>
        <time>2015-06-18T13:31:39Z</time>
      </trkpt>
      <trkpt lat="36.619581" lon="-6.264896">
        <ele>45.242</ele>
        <time>2015-06-18T13:31:40Z</time>
      </trkpt>
      <trkpt lat="36.619536" lon="-6.264754">
        <ele>45.222</ele>
        <time>2015-06-18T13:31:43Z</time>
      </trkpt>
      <trkpt lat="36.619463" lon="-6.264508">
        <ele>45.214</ele>
        <time>2015-06-18T13:31:48Z</time>
      </trkpt>
      <trkpt lat="36.619443" lon="-6.264462">
        <ele>45.208</ele>
        <time>2015-06-18T13:31:49Z</time>
      </trkpt>
      <trkpt lat="36.619389" lon="-6.264395">
        <ele>45.245</ele>
        <time>2015-06-18T13:31:51Z</time>
      </trkpt>
      <trkpt lat="36.619194" lon="-6.264126">
        <ele>45.261</ele>
        <time>2015-06-18T13:31:58Z</time>
      </trkpt>
      <trkpt lat="36.619148" lon="-6.264046">
        <ele>45.287</ele>
        <time>2015-06-18T13:32:00Z</time>
      </trkpt>
      <trkpt lat="36.619049" lon="-6.263844">
        <ele>45.266</ele>
        <time>2015-06-18T13:32:05Z</time>
      </trkpt>
      <trkpt lat="36.618994" lon="-6.263521">
        <ele>45.219</ele>
        <time>2015-06-18T13:32:12Z</time>
      </trkpt>
      <trkpt lat="36.618979" lon="-6.263187">
        <ele>45.231</ele>
        <time>2015-06-18T13:32:19Z</time>
      </trkpt>
      <trkpt lat="36.618972" lon="-6.263136">
        <ele>45.254</ele>
        <time>2015-06-18T13:32:20Z</time>
      </trkpt>
      <trkpt lat="36.618953" lon="-6.263034">
        <ele>45.258</ele>
        <time>2015-06-18T13:32:22Z</time>
      </trkpt>
      <trkpt lat="36.618921" lon="-6.262935">
        <ele>44.816</ele>
        <time>2015-06-18T13:32:24Z</time>
      </trkpt>
      <trkpt lat="36.618906" lon="-6.262894">
        <ele>44.276</ele>
        <time>2015-06-18T13:32:25Z</time>
      </trkpt>
      <trkpt lat="36.618883" lon="-6.262848">
        <ele>43.813</ele>
        <time>2015-06-18T13:32:26Z</time>
      </trkpt>
      <trkpt lat="36.618864" lon="-6.262800">
        <ele>43.408</ele>
        <time>2015-06-18T13:32:27Z</time>
      </trkpt>
      <trkpt lat="36.618848" lon="-6.262746">
        <ele>43.022</ele>
        <time>2015-06-18T13:32:28Z</time>
      </trkpt>
      <trkpt lat="36.618831" lon="-6.262697">
        <ele>43.078</ele>
        <time>2015-06-18T13:32:29Z</time>
      </trkpt>
      <trkpt lat="36.618697" lon="-6.262438">
        <ele>43.034</ele>
        <time>2015-06-18T13:32:35Z</time>
      </trkpt>
      <trkpt lat="36.618675" lon="-6.262398">
        <ele>43.053</ele>
        <time>2015-06-18T13:32:36Z</time>
      </trkpt>
      <trkpt lat="36.618567" lon="-6.262149">
        <ele>43.066</ele>
        <time>2015-06-18T13:32:42Z</time>
      </trkpt>
      <trkpt lat="36.618459" lon="-6.261994">
        <ele>43.098</ele>
        <time>2015-06-18T13:32:47Z</time>
      </trkpt>
      <trkpt lat="36.618342" lon="-6.261821">
        <ele>43.091</ele>
        <time>2015-06-18T13:32:52Z</time>
      </trkpt>
      <trkpt lat="36.618126" lon="-6.261588">
        <ele>43.055</ele>
        <time>2015-06-18T13:33:00Z</time>
      </trkpt>
      <trkpt lat="36.617969" lon="-6.261328">
        <ele>43.034</ele>
        <time>2015-06-18T13:33:07Z</time>
      </trkpt>
      <trkpt lat="36.617854" lon="-6.261062">
        <ele>43.055</ele>
        <time>2015-06-18T13:33:14Z</time>
      </trkpt>
      <trkpt lat="36.617764" lon="-6.260867">
        <ele>43.010</ele>
        <time>2015-06-18T13:33:20Z</time>
      </trkpt>
      <trkpt lat="36.617686" lon="-6.260623">
        <ele>43.008</ele>
        <time>2015-06-18T13:33:27Z</time>
      </trkpt>
      <trkpt lat="36.617765" lon="-6.260483">
        <ele>43.024</ele>
        <time>2015-06-18T13:33:31Z</time>
      </trkpt>
      <trkpt lat="36.617819" lon="-6.260417">
        <ele>43.480</ele>
        <time>2015-06-18T13:33:33Z</time>
      </trkpt>
      <trkpt lat="36.617850" lon="-6.260374">
        <ele>43.856</ele>
        <time>2015-06-18T13:33:34Z</time>
      </trkpt>
      <trkpt lat="36.617882" lon="-6.260333">
        <ele>44.255</ele>
        <time>2015-06-18T13:33:35Z</time>
      </trkpt>
      <trkpt lat="36.617916" lon="-6.260295">
        <ele>44.688</ele>
        <time>2015-06-18T13:33:36Z</time>
      </trkpt>
      <trkpt lat="36.617952" lon="-6.260258">
        <ele>45.020</ele>
        <time>2015-06-18T13:33:37Z</time>
      </trkpt>
      <trkpt lat="36.618158" lon="-6.260054">
        <ele>45.073</ele>
        <time>2015-06-18T13:33:42Z</time>
      </trkpt>
      <trkpt lat="36.618396" lon="-6.259801">
        <ele>45.017</ele>
        <time>2015-06-18T13:33:48Z</time>
      </trkpt>
      <trkpt lat="36.618515" lon="-6.259670">
        <ele>45.017</ele>
        <time>2015-06-18T13:33:51Z</time>
      </trkpt>
      <trkpt lat="36.618649" lon="-6.259543">
        <ele>45.087</ele>
        <time>2015-06-18T13:33:54Z</time>
      </trkpt>
      <trkpt lat="36.618796" lon="-6.259433">
        <ele>45.015</ele>
        <time>2015-06-18T13:33:57Z</time>
      </trkpt>
      <trkpt lat="36.618837" lon="-6.259388">
        <ele>44.608</ele>
        <time>2015-06-18T13:33:58Z</time>
      </trkpt>
      <trkpt lat="36.618871" lon="-6.259338">
        <ele>44.282</ele>
        <time>2015-06-18T13:33:59Z</time>
      </trkpt>
      <trkpt lat="36.618903" lon="-6.259285">
        <ele>43.848</ele>
        <time>2015-06-18T13:34:00Z</time>
      </trkpt>
      <trkpt lat="36.618932" lon="-6.259230">
        <ele>43.264</ele>
        <time>2015-06-18T13:34:01Z</time>
      </trkpt>
      <trkpt lat="36.618948" lon="-6.259175">
        <ele>42.823</ele>
        <time>2015-06-18T13:34:02Z</time>
      </trkpt>
      <trkpt lat="36.618953" lon="-6.259120">
        <ele>42.896</ele>
        <time>2015-06-18T13:34:03Z</time>
      </trkpt>
      <trkpt lat="36.618896" lon="-6.258954">
        <ele>42.888</ele>
        <time>2015-06-18T13:34:07Z</time>
      </trkpt>
      <trkpt lat="36.618712" lon="-6.258732">
        <ele>42.861</ele>
        <time>2015-06-18T13:34:14Z</time>
      </trkpt>
      <trkpt lat="36.618613" lon="-6.258592">
        <ele>42.855</ele>
        <time>2015-06-18T13:34:18Z</time>
      </trkpt>
      <trkpt lat="36.618476" lon="-6.258412">
        <ele>42.867</ele>
        <time>2015-06-18T13:34:24Z</time>
      </trkpt>
      <trkpt lat="36.618295" lon="-6.258170">
        <ele>42.881</ele>
        <time>2015-06-18T13:34:32Z</time>
      </trkpt>
      <trkpt lat="36.618140" lon="-6.257962">
        <ele>42.819</ele>
        <time>2015-06-18T13:34:39Z</time>
      </trkpt>
      <trkpt lat="36.618100" lon="-6.257903">
        <ele>42.808</ele>
        <time>2015-06-18T13:34:41Z</time>
      </trkpt>
      <trkpt lat="36.617962" lon="-6.257707">
        <ele>42.867</ele>
        <time>2015-06-18T13:34:48Z</time>
      </trkpt>
      <trkpt lat="36.617831" lon="-6.257508">
        <ele>43.283</ele>
        <time>2015-06-18T13:34:55Z</time>
      </trkpt>
      <trkpt lat="36.617814" lon="-6.257482">
        <ele>43.649</ele>
        <time>2015-06-18T13:34:56Z</time>
      </trkpt>
      <trkpt lat="36.617796" lon="-6.257456">
        <ele>44.078</ele>
        <time>2015-06-18T13:34:57Z</time>
      </trkpt>
      <trkpt lat="36.617778" lon="-6.257430">
        <ele>44.651</ele>
        <time>2015-06-18T13:34:58Z</time>
      </trkpt>
      <trkpt lat="36.617763" lon="-6.257404">
        <ele>45.063</ele>
        <time>2015-06-18T13:34:59Z</time>
      </trkpt>
      <trkpt lat="36.617714" lon="-6.257321">
        <ele>45.016</ele>
        <time>2015-06-18T13:35:02Z</time>
      </trkpt>
      <trkpt lat="36.617607" lon="-6.257171">
        <ele>45.070</ele>
        <time>2015-06-18T13:35:08Z</time>
      </trkpt>
      <trkpt lat="36.617507" lon="-6.257010">
        <ele>45.044</ele>
        <time>2015-06-18T13:35:14Z</time>
      </trkpt>
      <trkpt lat="36.617343" lon="-6.256770">
        <ele>45.005</ele>
        <time>2015-06-18T13:35:23Z</time>
      </trkpt>
      <trkpt lat="36.617182" lon="-6.256526">
        <ele>45.015</ele>
        <time>2015-06-18T13:35:32Z</time>
      </trkpt>
      <trkpt lat="36.617062" lon="-6.256381">
        <ele>45.008</ele>
        <time>2015-06-18T13:35:38Z</time>
      </trkpt>
      <trkpt lat="36.616956" lon="-6.256222">
        <ele>45.095</ele>
        <time>2015-06-18T13:35:44Z</time>
      </trkpt>
      <trkpt lat="36.616897" lon="-6.256152">
        <ele>45.471</ele>
        <time>2015-06-18T13:35:47Z</time>
      </trkpt>
      <trkpt lat="36.616880" lon="-6.256126">
        <ele>45.827</ele>
        <time>2015-06-18T13:35:48Z</time>
      </trkpt>
      <trkpt lat="36.616864" lon="-6.256097">
        <ele>46.256</ele>
        <time>2015-06-18T13:35:49Z</time>
      </trkpt>
      <trkpt lat="36.616846" lon="-6.256071">
        <ele>46.639</ele>
        <time>2015-06-18T13:35:50Z</time>
      </trkpt>
      <trkpt lat="36.616827" lon="-6.256046">
        <ele>47.081</ele>
        <time>2015-06-18T13:35:51Z</time>
      </trkpt>
      <trkpt lat="36.616809" lon="-6.256020">
        <ele>47.054</ele>
        <time>2015-06-18T13:35:52Z</time>
      </trkpt>
      <trkpt lat="36.616689" lon="-6.255831">
        <ele>47.088</ele>
        <time>2015-06-18T13:35:59Z</time>
      </trkpt>
      <trkpt lat="36.616617" lon="-6.255730">
        <ele>47.425</ele>
        <time>2015-06-18T13:36:03Z</time>
      </trkpt>
      <trkpt lat="36.616604" lon="-6.255702">
        <ele>47.826</ele>
        <time>2015-06-18T13:36:04Z</time>
      </trkpt>
      <trkpt lat="36.616589" lon="-6.255674">
        <ele>48.208</ele>
        <time>2015-06-18T13:36:05Z</time>
      </trkpt>
      <trkpt lat="36.616570" lon="-6.255649">
        <ele>48.608</ele>
        <time>2015-06-18T13:36:06Z</time>
      </trkpt>
      <trkpt lat="36.616552" lon="-6.255624">
        <ele>49.033</ele>
        <time>2015-06-18T13:36:07Z</time>
      </trkpt>
      <trkpt lat="36.616454" lon="-6.255474">
        <ele>49.049</ele>
        <time>2015-06-18T13:36:13Z</time>
      </trkpt>
      <trkpt lat="36.616301" lon="-6.255234">
        <ele>49.475</ele>
        <time>2015-06-18T13:36:23Z</time>
      </trkpt>
      <trkpt lat="36.616288" lon="-6.255213">
        <ele>49.814</ele>
        <time>2015-06-18T13:36:24Z</time>
      </trkpt>
      <trkpt lat="36.616277" lon="-6.255194">
        <ele>50.277</ele>
        <time>2015-06-18T13:36:25Z</time>
      </trkpt>
      <trkpt lat="36.616265" lon="-6.255176">
        <ele>50.679</ele>
        <time>2015-06-18T13:36:26Z</time>
      </trkpt>
      <trkpt lat="36.616254" lon="-6.255157">
        <ele>51.042</ele>
        <time>2015-06-18T13:36:27Z</time>
      </trkpt>
      <trkpt lat="36.616246" lon="-6.255134">
        <ele>51.076</ele>
        <time>2015-06-18T13:36:28Z</time>
      </trkpt>
      <trkpt lat="36.616167" lon="-6.254982">
        <ele>51.035</ele>
        <time>2015-06-18T13:36:35Z</time>
      </trkpt>
      <trkpt lat="36.616107" lon="-6.254896">
        <ele>51.086</ele>
        <time>2015-06-18T13:36:40Z</time>
      </trkpt>
      <trkpt lat="36.616097" lon="-6.254875">
        <ele>51.014</ele>
        <time>2015-06-18T13:36:41Z</time>
      </trkpt>
      <trkpt lat="36.616076" lon="-6.254770">
        <ele>51.008</ele>
        <time>2015-06-18T13:36:45Z</time>
      </trkpt>
      <trkpt lat="36.616053" lon="-6.254721">
        <ele>51.024</ele>
        <time>2015-06-18T13:36:47Z</time>
      </trkpt>
      <trkpt lat="36.616004" lon="-6.254614">
        <ele>51.640</ele>
        <time>2015-06-18T13:36:51Z</time>
      </trkpt>
      <trkpt lat="36.615991" lon="-6.254584">
        <ele>52.036</ele>
        <time>2015-06-18T13:36:52Z</time>
      </trkpt>
      <trkpt lat="36.615980" lon="-6.254556">
        <ele>52.435</ele>
        <time>2015-06-18T13:36:53Z</time>
      </trkpt>
      <trkpt lat="36.615968" lon="-6.254527">
        <ele>52.858</ele>
        <time>2015-06-18T13:36:54Z</time>
      </trkpt>
      <trkpt lat="36.615956" lon="-6.254500">
        <ele>53.290</ele>
        <time>2015-06-18T13:36:55Z</time>
      </trkpt>
      <trkpt lat="36.615921" lon="-6.254409">
        <ele>53.213</ele>
        <time>2015-06-18T13:36:58Z</time>
      </trkpt>
      <trkpt lat="36.615847" lon="-6.254274">
        <ele>53.247</ele>
        <time>2015-06-18T13:37:03Z</time>
      </trkpt>
      <trkpt lat="36.615762" lon="-6.254103">
        <ele>54.049</ele>
        <time>2015-06-18T13:37:09Z</time>
      </trkpt>
      <trkpt lat="36.615748" lon="-6.254076">
        <ele>54.402</ele>
        <time>2015-06-18T13:37:10Z</time>
      </trkpt>
      <trkpt lat="36.615733" lon="-6.254051">
        <ele>54.822</ele>
        <time>2015-06-18T13:37:11Z</time>
      </trkpt>
      <trkpt lat="36.615720" lon="-6.254022">
        <ele>55.208</ele>
        <time>2015-06-18T13:37:12Z</time>
      </trkpt>
      <trkpt lat="36.615657" lon="-6.253878">
        <ele>55.235</ele>
        <time>2015-06-18T13:37:17Z</time>
      </trkpt>
      <trkpt lat="36.615592" lon="-6.253710">
        <ele>55.241</ele>
        <time>2015-06-18T13:37:23Z</time>
      </trkpt>
      <trkpt lat="36.615518" lon="-6.253544">
        <ele>55.837</ele>
        <time>2015-06-18T13:37:29Z</time>
      </trkpt>
      <trkpt lat="36.615509" lon="-6.253516">
        <ele>56.256</ele>
        <time>2015-06-18T13:37:30Z</time>
      </trkpt>
      <trkpt lat="36.615501" lon="-6.253491">
        <ele>56.679</ele>
        <time>2015-06-18T13:37:31Z</time>
      </trkpt>
      <trkpt lat="36.615492" lon="-6.253465">
        <ele>57.041</ele>
        <time>2015-06-18T13:37:32Z</time>
      </trkpt>
      <trkpt lat="36.615478" lon="-6.253438">
        <ele>57.454</ele>
        <time>2015-06-18T13:37:33Z</time>
      </trkpt>
      <trkpt lat="36.615445" lon="-6.253379">
        <ele>57.468</ele>
        <time>2015-06-18T13:37:35Z</time>
      </trkpt>
      <trkpt lat="36.615346" lon="-6.253209">
        <ele>57.474</ele>
        <time>2015-06-18T13:37:41Z</time>
      </trkpt>
      <trkpt lat="36.615237" lon="-6.253016">
        <ele>58.056</ele>
        <time>2015-06-18T13:37:47Z</time>
      </trkpt>
      <trkpt lat="36.615218" lon="-6.252982">
        <ele>58.421</ele>
        <time>2015-06-18T13:37:48Z</time>
      </trkpt>
      <trkpt lat="36.615200" lon="-6.252948">
        <ele>58.808</ele>
        <time>2015-06-18T13:37:49Z</time>
      </trkpt>
      <trkpt lat="36.615182" lon="-6.252915">
        <ele>59.298</ele>
        <time>2015-06-18T13:37:50Z</time>
      </trkpt>
      <trkpt lat="36.615164" lon="-6.252880">
        <ele>59.624</ele>
        <time>2015-06-18T13:37:51Z</time>
      </trkpt>
      <trkpt lat="36.615098" lon="-6.252752">
        <ele>59.630</ele>
        <time>2015-06-18T13:37:55Z</time>
      </trkpt>
      <trkpt lat="36.614963" lon="-6.252536">
        <ele>59.689</ele>
        <time>2015-06-18T13:38:02Z</time>
      </trkpt>
      <trkpt lat="36.614841" lon="-6.252319">
        <ele>59.682</ele>
        <time>2015-06-18T13:38:08Z</time>
      </trkpt>
      <trkpt lat="36.614719" lon="-6.252099">
        <ele>60.234</ele>
        <time>2015-06-18T13:38:14Z</time>
      </trkpt>
      <trkpt lat="36.614694" lon="-6.252061">
        <ele>60.847</ele>
        <time>2015-06-18T13:38:15Z</time>
      </trkpt>
      <trkpt lat="36.614669" lon="-6.252022">
        <ele>61.431</ele>
        <time>2015-06-18T13:38:16Z</time>
      </trkpt>
      <trkpt lat="36.614646" lon="-6.251981">
        <ele>62.011</ele>
        <time>2015-06-18T13:38:17Z</time>
      </trkpt>
      <trkpt lat="36.614622" lon="-6.251943">
        <ele>62.621</ele>
        <time>2015-06-18T13:38:18Z</time>
      </trkpt>
      <trkpt lat="36.614598" lon="-6.251903">
        <ele>62.603</ele>
        <time>2015-06-18T13:38:19Z</time>
      </trkpt>
      <trkpt lat="36.614512" lon="-6.251737">
        <ele>62.608</ele>
        <time>2015-06-18T13:38:23Z</time>
      </trkpt>
      <trkpt lat="36.614360" lon="-6.251454">
        <ele>62.662</ele>
        <time>2015-06-18T13:38:30Z</time>
      </trkpt>
      <trkpt lat="36.614171" lon="-6.251109">
        <ele>62.658</ele>
        <time>2015-06-18T13:38:39Z</time>
      </trkpt>
      <trkpt lat="36.614016" lon="-6.250859">
        <ele>62.674</ele>
        <time>2015-06-18T13:38:46Z</time>
      </trkpt>
      <trkpt lat="36.613846" lon="-6.250573">
        <ele>62.643</ele>
        <time>2015-06-18T13:38:54Z</time>
      </trkpt>
      <trkpt lat="36.613759" lon="-6.250419">
        <ele>63.076</ele>
        <time>2015-06-18T13:38:58Z</time>
      </trkpt>
      <trkpt lat="36.613735" lon="-6.250382">
        <ele>63.488</ele>
        <time>2015-06-18T13:38:59Z</time>
      </trkpt>
      <trkpt lat="36.613714" lon="-6.250345">
        <ele>63.871</ele>
        <time>2015-06-18T13:39:00Z</time>
      </trkpt>
      <trkpt lat="36.613692" lon="-6.250307">
        <ele>64.215</ele>
        <time>2015-06-18T13:39:01Z</time>
      </trkpt>
      <trkpt lat="36.613670" lon="-6.250271">
        <ele>64.663</ele>
        <time>2015-06-18T13:39:02Z</time>
      </trkpt>
      <trkpt lat="36.613462" lon="-6.249998">
        <ele>64.644</ele>
        <time>2015-06-18T13:39:10Z</time>
      </trkpt>
      <trkpt lat="36.613319" lon="-6.249804">
        <ele>64.618</ele>
        <time>2015-06-18T13:39:17Z</time>
      </trkpt>
      <trkpt lat="36.613258" lon="-6.249686">
        <ele>64.608</ele>
        <time>2015-06-18T13:39:23Z</time>
      </trkpt>
      <trkpt lat="36.613298" lon="-6.249677">
        <ele>64.697</ele>
        <time>2015-06-18T13:39:27Z</time>
      </trkpt>
      <trkpt lat="36.613327" lon="-6.249668">
        <ele>64.613</ele>
        <time>2015-06-18T13:39:29Z</time>
      </trkpt>
      <trkpt lat="36.613335" lon="-6.249630">
        <ele>64.619</ele>
        <time>2015-06-18T13:39:31Z</time>
      </trkpt>
      <trkpt lat="36.613333" lon="-6.249589">
        <ele>64.638</ele>
        <time>2015-06-18T13:39:33Z</time>
      </trkpt>
      <trkpt lat="36.613331" lon="-6.249551">
        <ele>64.671</ele>
        <time>2015-06-18T13:39:36Z</time>
      </trkpt>
      <trkpt lat="36.613331" lon="-6.249551">
        <ele>64.673</ele>
        <time>2015-06-18T13:39:37Z</time>
      </trkpt>
      <trkpt lat="36.613331" lon="-6.249551">
        <ele>64.676</ele>
        <time>2015-06-18T13:39:41Z</time>
      </trkpt>
      <trkpt lat="36.613326" lon="-6.249549">
        <ele>64.830</ele>
        <time>2015-06-18T13:41:08Z</time>
      </trkpt>
      <trkpt lat="36.613326" lon="-6.249549">
        <ele>64.864</ele>
        <time>2015-06-18T13:41:13Z</time>
      </trkpt>
      <trkpt lat="36.613326" lon="-6.249549">
        <ele>64.806</ele>
        <time>2015-06-18T13:41:23Z</time>
      </trkpt>
      <trkpt lat="36.613326" lon="-6.249549">
        <ele>64.816</ele>
        <time>2015-06-18T13:41:25Z</time>
      </trkpt>
      <trkpt lat="36.613326" lon="-6.249549">
        <ele>64.808</ele>
        <time>2015-06-18T13:41:37Z</time>
      </trkpt>
      <trkpt lat="36.613328" lon="-6.249551">
        <ele>64.887</ele>
        <time>2015-06-18T13:41:39Z</time>
      </trkpt>
      <trkpt lat="36.613328" lon="-6.249551">
        <ele>64.873</ele>
        <time>2015-06-18T13:41:41Z</time>
      </trkpt>
      <trkpt lat="36.613328" lon="-6.249551">
        <ele>64.819</ele>
        <time>2015-06-18T13:41:45Z</time>
      </trkpt>
      <trkpt lat="36.613328" lon="-6.249551">
        <ele>64.878</ele>
        <time>2015-06-18T13:41:48Z</time>
      </trkpt>
      <trkpt lat="36.613328" lon="-6.249551">
        <ele>64.861</ele>
        <time>2015-06-18T13:41:53Z</time>
      </trkpt>
      <trkpt lat="36.613328" lon="-6.249551">
        <ele>64.843</ele>
        <time>2015-06-18T13:41:55Z</time>
      </trkpt>
      <trkpt lat="36.613328" lon="-6.249551">
        <ele>64.816</ele>
        <time>2015-06-18T13:42:12Z</time>
      </trkpt>
      <trkpt lat="36.613329" lon="-6.249552">
        <ele>64.810</ele>
        <time>2015-06-18T13:42:25Z</time>
      </trkpt>
      <trkpt lat="36.613329" lon="-6.249552">
        <ele>64.843</ele>
        <time>2015-06-18T13:42:43Z</time>
      </trkpt>
      <trkpt lat="36.613329" lon="-6.249552">
        <ele>64.864</ele>
        <time>2015-06-18T13:42:56Z</time>
      </trkpt>
      <trkpt lat="36.613327" lon="-6.249546">
        <ele>64.810</ele>
        <time>2015-06-18T13:43:11Z</time>
      </trkpt>
      <trkpt lat="36.613327" lon="-6.249546">
        <ele>64.808</ele>
        <time>2015-06-18T13:43:13Z</time>
      </trkpt>
      <trkpt lat="36.613327" lon="-6.249546">
        <ele>64.875</ele>
        <time>2015-06-18T13:43:30Z</time>
      </trkpt>
      <trkpt lat="36.613324" lon="-6.249544">
        <ele>64.881</ele>
        <time>2015-06-18T13:43:47Z</time>
      </trkpt>
      <trkpt lat="36.613324" lon="-6.249544">
        <ele>64.887</ele>
        <time>2015-06-18T13:44:04Z</time>
      </trkpt>
      <trkpt lat="36.613322" lon="-6.249545">
        <ele>64.896</ele>
        <time>2015-06-18T13:44:25Z</time>
      </trkpt>
      <trkpt lat="36.613322" lon="-6.249545">
        <ele>64.839</ele>
        <time>2015-06-18T13:44:43Z</time>
      </trkpt>
      <trkpt lat="36.613322" lon="-6.249544">
        <ele>64.811</ele>
        <time>2015-06-18T13:45:00Z</time>
      </trkpt>
      <trkpt lat="36.613322" lon="-6.249544">
        <ele>64.814</ele>
        <time>2015-06-18T13:45:20Z</time>
      </trkpt>
      <trkpt lat="36.613322" lon="-6.249544">
        <ele>64.898</ele>
        <time>2015-06-18T13:45:22Z</time>
      </trkpt>
      <trkpt lat="36.613322" lon="-6.249544">
        <ele>64.877</ele>
        <time>2015-06-18T13:45:23Z</time>
      </trkpt>
      <trkpt lat="36.613322" lon="-6.249544">
        <ele>64.861</ele>
        <time>2015-06-18T13:45:26Z</time>
      </trkpt>
      <trkpt lat="36.613322" lon="-6.249544">
        <ele>64.827</ele>
        <time>2015-06-18T13:45:35Z</time>
      </trkpt>
      <trkpt lat="36.613322" lon="-6.249544">
        <ele>64.808</ele>
        <time>2015-06-18T13:45:37Z</time>
      </trkpt>
      <trkpt lat="36.613324" lon="-6.249543">
        <ele>64.878</ele>
        <time>2015-06-18T13:45:47Z</time>
      </trkpt>
      <trkpt lat="36.613324" lon="-6.249543">
        <ele>64.874</ele>
        <time>2015-06-18T13:45:53Z</time>
      </trkpt>
      <trkpt lat="36.613324" lon="-6.249543">
        <ele>64.830</ele>
        <time>2015-06-18T13:45:58Z</time>
      </trkpt>
      <trkpt lat="36.613324" lon="-6.249543">
        <ele>64.859</ele>
        <time>2015-06-18T13:46:06Z</time>
      </trkpt>
      <trkpt lat="36.613324" lon="-6.249543">
        <ele>64.842</ele>
        <time>2015-06-18T13:46:10Z</time>
      </trkpt>
      <trkpt lat="36.613324" lon="-6.249543">
        <ele>64.854</ele>
        <time>2015-06-18T13:46:15Z</time>
      </trkpt>
      <trkpt lat="36.613327" lon="-6.249542">
        <ele>64.847</ele>
        <time>2015-06-18T13:46:27Z</time>
      </trkpt>
      <trkpt lat="36.613327" lon="-6.249542">
        <ele>64.861</ele>
        <time>2015-06-18T13:46:39Z</time>
      </trkpt>
      <trkpt lat="36.613327" lon="-6.249542">
        <ele>64.815</ele>
        <time>2015-06-18T13:46:45Z</time>
      </trkpt>
      <trkpt lat="36.613327" lon="-6.249542">
        <ele>64.865</ele>
        <time>2015-06-18T13:46:46Z</time>
      </trkpt>
      <trkpt lat="36.613325" lon="-6.249537">
        <ele>64.811</ele>
        <time>2015-06-18T13:47:00Z</time>
      </trkpt>
      <trkpt lat="36.613325" lon="-6.249537">
        <ele>64.808</ele>
        <time>2015-06-18T13:47:02Z</time>
      </trkpt>
      <trkpt lat="36.613325" lon="-6.249537">
        <ele>64.892</ele>
        <time>2015-06-18T13:47:05Z</time>
      </trkpt>
      <trkpt lat="36.613325" lon="-6.249537">
        <ele>64.898</ele>
        <time>2015-06-18T13:47:18Z</time>
      </trkpt>
      <trkpt lat="36.613325" lon="-6.249537">
        <ele>64.854</ele>
        <time>2015-06-18T13:47:29Z</time>
      </trkpt>
      <trkpt lat="36.613325" lon="-6.249537">
        <ele>64.833</ele>
        <time>2015-06-18T13:47:33Z</time>
      </trkpt>
      <trkpt lat="36.613323" lon="-6.249537">
        <ele>64.836</ele>
        <time>2015-06-18T13:47:42Z</time>
      </trkpt>
      <trkpt lat="36.613323" lon="-6.249537">
        <ele>64.868</ele>
        <time>2015-06-18T13:47:51Z</time>
      </trkpt>
      <trkpt lat="36.613323" lon="-6.249537">
        <ele>64.891</ele>
        <time>2015-06-18T13:48:05Z</time>
      </trkpt>
      <trkpt lat="36.613323" lon="-6.249537">
        <ele>64.865</ele>
        <time>2015-06-18T13:48:09Z</time>
      </trkpt>
      <trkpt lat="36.613323" lon="-6.249537">
        <ele>65.294</ele>
        <time>2015-06-18T13:48:11Z</time>
      </trkpt>
      <trkpt lat="36.613323" lon="-6.249537">
        <ele>65.657</ele>
        <time>2015-06-18T13:48:12Z</time>
      </trkpt>
      <trkpt lat="36.613323" lon="-6.249537">
        <ele>66.022</ele>
        <time>2015-06-18T13:48:13Z</time>
      </trkpt>
      <trkpt lat="36.613323" lon="-6.249537">
        <ele>66.408</ele>
        <time>2015-06-18T13:48:14Z</time>
      </trkpt>
      <trkpt lat="36.613323" lon="-6.249537">
        <ele>66.810</ele>
        <time>2015-06-18T13:48:15Z</time>
      </trkpt>
      <trkpt lat="36.613323" lon="-6.249537">
        <ele>66.856</ele>
        <time>2015-06-18T13:48:18Z</time>
      </trkpt>
      <trkpt lat="36.613322" lon="-6.249537">
        <ele>66.822</ele>
        <time>2015-06-18T13:48:30Z</time>
      </trkpt>
      <trkpt lat="36.613322" lon="-6.249537">
        <ele>66.871</ele>
        <time>2015-06-18T13:48:37Z</time>
      </trkpt>
      <trkpt lat="36.613322" lon="-6.249537">
        <ele>66.834</ele>
        <time>2015-06-18T13:48:43Z</time>
      </trkpt>
      <trkpt lat="36.613322" lon="-6.249537">
        <ele>66.896</ele>
        <time>2015-06-18T13:48:47Z</time>
      </trkpt>
      <trkpt lat="36.613322" lon="-6.249537">
        <ele>66.899</ele>
        <time>2015-06-18T13:48:49Z</time>
      </trkpt>
      <trkpt lat="36.613322" lon="-6.249537">
        <ele>66.883</ele>
        <time>2015-06-18T13:48:55Z</time>
      </trkpt>
      <trkpt lat="36.613322" lon="-6.249537">
        <ele>66.822</ele>
        <time>2015-06-18T13:48:58Z</time>
      </trkpt>
      <trkpt lat="36.613319" lon="-6.249538">
        <ele>66.862</ele>
        <time>2015-06-18T13:49:03Z</time>
      </trkpt>
      <trkpt lat="36.613319" lon="-6.249538">
        <ele>66.808</ele>
        <time>2015-06-18T13:49:06Z</time>
      </trkpt>
      <trkpt lat="36.613319" lon="-6.249538">
        <ele>66.808</ele>
        <time>2015-06-18T13:49:09Z</time>
      </trkpt>
      <trkpt lat="36.613319" lon="-6.249538">
        <ele>66.853</ele>
        <time>2015-06-18T13:49:12Z</time>
      </trkpt>
      <trkpt lat="36.613319" lon="-6.249538">
        <ele>66.849</ele>
        <time>2015-06-18T13:49:26Z</time>
      </trkpt>
      <trkpt lat="36.613319" lon="-6.249538">
        <ele>66.875</ele>
        <time>2015-06-18T13:49:33Z</time>
      </trkpt>
      <trkpt lat="36.613320" lon="-6.249539">
        <ele>66.814</ele>
        <time>2015-06-18T13:49:40Z</time>
      </trkpt>
      <trkpt lat="36.613320" lon="-6.249539">
        <ele>66.897</ele>
        <time>2015-06-18T13:49:56Z</time>
      </trkpt>
      <trkpt lat="36.613320" lon="-6.249539">
        <ele>66.899</ele>
        <time>2015-06-18T13:50:00Z</time>
      </trkpt>
      <trkpt lat="36.613320" lon="-6.249539">
        <ele>66.872</ele>
        <time>2015-06-18T13:50:02Z</time>
      </trkpt>
      <trkpt lat="36.613320" lon="-6.249539">
        <ele>66.816</ele>
        <time>2015-06-18T13:50:05Z</time>
      </trkpt>
      <trkpt lat="36.613320" lon="-6.249539">
        <ele>66.836</ele>
        <time>2015-06-18T13:50:08Z</time>
      </trkpt>
      <trkpt lat="36.613320" lon="-6.249539">
        <ele>66.817</ele>
        <time>2015-06-18T13:50:12Z</time>
      </trkpt>
      <trkpt lat="36.613318" lon="-6.249539">
        <ele>66.818</ele>
        <time>2015-06-18T13:50:20Z</time>
      </trkpt>
      <trkpt lat="36.613318" lon="-6.249539">
        <ele>66.808</ele>
        <time>2015-06-18T13:50:30Z</time>
      </trkpt>
      <trkpt lat="36.613318" lon="-6.249539">
        <ele>66.834</ele>
        <time>2015-06-18T13:50:36Z</time>
      </trkpt>
      <trkpt lat="36.613318" lon="-6.249539">
        <ele>66.810</ele>
        <time>2015-06-18T13:50:46Z</time>
      </trkpt>
      <trkpt lat="36.613318" lon="-6.249539">
        <ele>66.816</ele>
        <time>2015-06-18T13:50:52Z</time>
      </trkpt>
      <trkpt lat="36.613316" lon="-6.249540">
        <ele>66.835</ele>
        <time>2015-06-18T13:51:04Z</time>
      </trkpt>
      <trkpt lat="36.613316" lon="-6.249540">
        <ele>66.878</ele>
        <time>2015-06-18T13:51:22Z</time>
      </trkpt>
      <trkpt lat="36.613316" lon="-6.249540">
        <ele>66.810</ele>
        <time>2015-06-18T13:51:34Z</time>
      </trkpt>
      <trkpt lat="36.613316" lon="-6.249540">
        <ele>66.883</ele>
        <time>2015-06-18T13:51:36Z</time>
      </trkpt>
      <trkpt lat="36.613312" lon="-6.249542">
        <ele>66.827</ele>
        <time>2015-06-18T13:51:42Z</time>
      </trkpt>
      <trkpt lat="36.613312" lon="-6.249542">
        <ele>66.866</ele>
        <time>2015-06-18T13:51:51Z</time>
      </trkpt>
      <trkpt lat="36.613312" lon="-6.249542">
        <ele>66.829</ele>
        <time>2015-06-18T13:51:59Z</time>
      </trkpt>
      <trkpt lat="36.613312" lon="-6.249542">
        <ele>66.821</ele>
        <time>2015-06-18T13:52:14Z</time>
      </trkpt>
      <trkpt lat="36.613312" lon="-6.249542">
        <ele>66.808</ele>
        <time>2015-06-18T13:52:17Z</time>
      </trkpt>
      <trkpt lat="36.613311" lon="-6.249542">
        <ele>66.877</ele>
        <time>2015-06-18T13:52:29Z</time>
      </trkpt>
      <trkpt lat="36.613311" lon="-6.249542">
        <ele>66.823</ele>
        <time>2015-06-18T13:52:30Z</time>
      </trkpt>
      <trkpt lat="36.613311" lon="-6.249542">
        <ele>66.819</ele>
        <time>2015-06-18T13:52:37Z</time>
      </trkpt>
      <trkpt lat="36.613311" lon="-6.249542">
        <ele>66.898</ele>
        <time>2015-06-18T13:52:38Z</time>
      </trkpt>
      <trkpt lat="36.613311" lon="-6.249542">
        <ele>66.891</ele>
        <time>2015-06-18T13:52:47Z</time>
      </trkpt>
      <trkpt lat="36.613311" lon="-6.249546">
        <ele>66.813</ele>
        <time>2015-06-18T13:53:04Z</time>
      </trkpt>
      <trkpt lat="36.613311" lon="-6.249546">
        <ele>66.886</ele>
        <time>2015-06-18T13:53:22Z</time>
      </trkpt>
      <trkpt lat="36.613311" lon="-6.249546">
        <ele>66.860</ele>
        <time>2015-06-18T13:53:39Z</time>
      </trkpt>
      <trkpt lat="36.613310" lon="-6.249547">
        <ele>66.888</ele>
        <time>2015-06-18T13:53:55Z</time>
      </trkpt>
      <trkpt lat="36.613310" lon="-6.249547">
        <ele>66.824</ele>
        <time>2015-06-18T13:54:14Z</time>
      </trkpt>
      <trkpt lat="36.613310" lon="-6.249548">
        <ele>66.826</ele>
        <time>2015-06-18T13:54:31Z</time>
      </trkpt>
      <trkpt lat="36.613310" lon="-6.249548">
        <ele>66.808</ele>
        <time>2015-06-18T13:54:47Z</time>
      </trkpt>
      <trkpt lat="36.613310" lon="-6.249548">
        <ele>66.859</ele>
        <time>2015-06-18T13:54:51Z</time>
      </trkpt>
      <trkpt lat="36.613310" lon="-6.249548">
        <ele>66.885</ele>
        <time>2015-06-18T13:54:56Z</time>
      </trkpt>
      <trkpt lat="36.613310" lon="-6.249549">
        <ele>66.861</ele>
        <time>2015-06-18T13:55:05Z</time>
      </trkpt>
      <trkpt lat="36.613310" lon="-6.249549">
        <ele>66.870</ele>
        <time>2015-06-18T13:55:15Z</time>
      </trkpt>
      <trkpt lat="36.613310" lon="-6.249549">
        <ele>66.893</ele>
        <time>2015-06-18T13:55:22Z</time>
      </trkpt>
      <trkpt lat="36.613311" lon="-6.249546">
        <ele>66.845</ele>
        <time>2015-06-18T13:55:42Z</time>
      </trkpt>
      <trkpt lat="36.613311" lon="-6.249546">
        <ele>66.898</ele>
        <time>2015-06-18T13:55:58Z</time>
      </trkpt>
      <trkpt lat="36.613311" lon="-6.249546">
        <ele>66.872</ele>
        <time>2015-06-18T13:56:14Z</time>
      </trkpt>
      <trkpt lat="36.613310" lon="-6.249547">
        <ele>66.829</ele>
        <time>2015-06-18T13:56:23Z</time>
      </trkpt>
      <trkpt lat="36.613310" lon="-6.249547">
        <ele>66.800</ele>
        <time>2015-06-18T13:56:33Z</time>
      </trkpt>
      <trkpt lat="36.613310" lon="-6.249547">
        <ele>66.820</ele>
        <time>2015-06-18T13:56:35Z</time>
      </trkpt>
      <trkpt lat="36.613310" lon="-6.249547">
        <ele>66.808</ele>
        <time>2015-06-18T13:56:38Z</time>
      </trkpt>
      <trkpt lat="36.613310" lon="-6.249547">
        <ele>66.853</ele>
        <time>2015-06-18T13:56:41Z</time>
      </trkpt>
      <trkpt lat="36.613310" lon="-6.249547">
        <ele>66.849</ele>
        <time>2015-06-18T13:56:42Z</time>
      </trkpt>
      <trkpt lat="36.613310" lon="-6.249547">
        <ele>66.835</ele>
        <time>2015-06-18T13:56:44Z</time>
      </trkpt>
      <trkpt lat="36.613310" lon="-6.249547">
        <ele>66.844</ele>
        <time>2015-06-18T13:56:49Z</time>
      </trkpt>
      <trkpt lat="36.613310" lon="-6.249545">
        <ele>66.827</ele>
        <time>2015-06-18T13:57:07Z</time>
      </trkpt>
      <trkpt lat="36.613310" lon="-6.249545">
        <ele>66.819</ele>
        <time>2015-06-18T13:57:23Z</time>
      </trkpt>
      <trkpt lat="36.613310" lon="-6.249544">
        <ele>66.852</ele>
        <time>2015-06-18T13:57:40Z</time>
      </trkpt>
      <trkpt lat="36.613310" lon="-6.249544">
        <ele>66.846</ele>
        <time>2015-06-18T13:57:57Z</time>
      </trkpt>
      <trkpt lat="36.613310" lon="-6.249544">
        <ele>66.882</ele>
        <time>2015-06-18T13:58:13Z</time>
      </trkpt>
      <trkpt lat="36.613310" lon="-6.249544">
        <ele>67.243</ele>
        <time>2015-06-18T13:58:17Z</time>
      </trkpt>
      <trkpt lat="36.613310" lon="-6.249544">
        <ele>67.617</ele>
        <time>2015-06-18T13:58:18Z</time>
      </trkpt>
      <trkpt lat="36.613310" lon="-6.249544">
        <ele>68.008</ele>
        <time>2015-06-18T13:58:19Z</time>
      </trkpt>
      <trkpt lat="36.613310" lon="-6.249546">
        <ele>68.439</ele>
        <time>2015-06-18T13:58:20Z</time>
      </trkpt>
      <trkpt lat="36.613310" lon="-6.249546">
        <ele>68.855</ele>
        <time>2015-06-18T13:58:21Z</time>
      </trkpt>
      <trkpt lat="36.613310" lon="-6.249546">
        <ele>68.821</ele>
        <time>2015-06-18T13:58:22Z</time>
      </trkpt>
      <trkpt lat="36.613310" lon="-6.249546">
        <ele>68.840</ele>
        <time>2015-06-18T13:58:30Z</time>
      </trkpt>
      <trkpt lat="36.613310" lon="-6.249546">
        <ele>68.833</ele>
        <time>2015-06-18T13:58:42Z</time>
      </trkpt>
      <trkpt lat="36.613310" lon="-6.249546">
        <ele>68.825</ele>
        <time>2015-06-18T13:58:44Z</time>
      </trkpt>
      <trkpt lat="36.613314" lon="-6.249545">
        <ele>68.828</ele>
        <time>2015-06-18T13:59:01Z</time>
      </trkpt>
      <trkpt lat="36.613314" lon="-6.249545">
        <ele>68.872</ele>
        <time>2015-06-18T13:59:06Z</time>
      </trkpt>
      <trkpt lat="36.613314" lon="-6.249545">
        <ele>68.877</ele>
        <time>2015-06-18T13:59:10Z</time>
      </trkpt>
      <trkpt lat="36.613314" lon="-6.249545">
        <ele>68.861</ele>
        <time>2015-06-18T13:59:13Z</time>
      </trkpt>
      <trkpt lat="36.613314" lon="-6.249545">
        <ele>68.827</ele>
        <time>2015-06-18T13:59:16Z</time>
      </trkpt>
      <trkpt lat="36.613314" lon="-6.249545">
        <ele>68.808</ele>
        <time>2015-06-18T13:59:20Z</time>
      </trkpt>
      <trkpt lat="36.613314" lon="-6.249545">
        <ele>68.868</ele>
        <time>2015-06-18T13:59:31Z</time>
      </trkpt>
      <trkpt lat="36.613314" lon="-6.249545">
        <ele>68.864</ele>
        <time>2015-06-18T13:59:34Z</time>
      </trkpt>
      <trkpt lat="36.613316" lon="-6.249548">
        <ele>68.880</ele>
        <time>2015-06-18T13:59:40Z</time>
      </trkpt>
      <trkpt lat="36.613316" lon="-6.249548">
        <ele>68.829</ele>
        <time>2015-06-18T13:59:46Z</time>
      </trkpt>
      <trkpt lat="36.613316" lon="-6.249548">
        <ele>68.852</ele>
        <time>2015-06-18T14:00:02Z</time>
      </trkpt>
      <trkpt lat="36.613316" lon="-6.249548">
        <ele>68.864</ele>
        <time>2015-06-18T14:00:18Z</time>
      </trkpt>
      <trkpt lat="36.613317" lon="-6.249549">
        <ele>68.847</ele>
        <time>2015-06-18T14:00:22Z</time>
      </trkpt>
      <trkpt lat="36.613317" lon="-6.249549">
        <ele>68.831</ele>
        <time>2015-06-18T14:00:38Z</time>
      </trkpt>
      <trkpt lat="36.613317" lon="-6.249549">
        <ele>68.858</ele>
        <time>2015-06-18T14:00:54Z</time>
      </trkpt>
      <trkpt lat="36.613315" lon="-6.249551">
        <ele>68.852</ele>
        <time>2015-06-18T14:01:07Z</time>
      </trkpt>
      <trkpt lat="36.613315" lon="-6.249551">
        <ele>68.817</ele>
        <time>2015-06-18T14:01:10Z</time>
      </trkpt>
      <trkpt lat="36.613315" lon="-6.249551">
        <ele>68.808</ele>
        <time>2015-06-18T14:01:25Z</time>
      </trkpt>
      <trkpt lat="36.613315" lon="-6.249551">
        <ele>68.866</ele>
        <time>2015-06-18T14:01:34Z</time>
      </trkpt>
      <trkpt lat="36.613314" lon="-6.249550">
        <ele>68.832</ele>
        <time>2015-06-18T14:01:40Z</time>
      </trkpt>
      <trkpt lat="36.613314" lon="-6.249550">
        <ele>68.838</ele>
        <time>2015-06-18T14:01:46Z</time>
      </trkpt>
      <trkpt lat="36.613314" lon="-6.249550">
        <ele>68.817</ele>
        <time>2015-06-18T14:01:49Z</time>
      </trkpt>
      <trkpt lat="36.613314" lon="-6.249550">
        <ele>68.860</ele>
        <time>2015-06-18T14:01:51Z</time>
      </trkpt>
      <trkpt lat="36.613314" lon="-6.249550">
        <ele>68.882</ele>
        <time>2015-06-18T14:01:53Z</time>
      </trkpt>
      <trkpt lat="36.613314" lon="-6.249550">
        <ele>68.815</ele>
        <time>2015-06-18T14:01:55Z</time>
      </trkpt>
      <trkpt lat="36.613314" lon="-6.249550">
        <ele>68.819</ele>
        <time>2015-06-18T14:02:11Z</time>
      </trkpt>
      <trkpt lat="36.613313" lon="-6.249551">
        <ele>68.846</ele>
        <time>2015-06-18T14:02:22Z</time>
      </trkpt>
      <trkpt lat="36.613313" lon="-6.249551">
        <ele>68.888</ele>
        <time>2015-06-18T14:02:27Z</time>
      </trkpt>
      <trkpt lat="36.613313" lon="-6.249551">
        <ele>68.816</ele>
        <time>2015-06-18T14:02:42Z</time>
      </trkpt>
      <trkpt lat="36.613313" lon="-6.249551">
        <ele>68.808</ele>
        <time>2015-06-18T14:02:45Z</time>
      </trkpt>
      <trkpt lat="36.613313" lon="-6.249551">
        <ele>68.885</ele>
        <time>2015-06-18T14:02:55Z</time>
      </trkpt>
      <trkpt lat="36.613313" lon="-6.249551">
        <ele>68.871</ele>
        <time>2015-06-18T14:02:58Z</time>
      </trkpt>
      <trkpt lat="36.613311" lon="-6.249549">
        <ele>68.837</ele>
        <time>2015-06-18T14:03:00Z</time>
      </trkpt>
      <trkpt lat="36.613311" lon="-6.249549">
        <ele>68.816</ele>
        <time>2015-06-18T14:03:09Z</time>
      </trkpt>
      <trkpt lat="36.613311" lon="-6.249549">
        <ele>68.859</ele>
        <time>2015-06-18T14:03:12Z</time>
      </trkpt>
      <trkpt lat="36.613311" lon="-6.249549">
        <ele>68.861</ele>
        <time>2015-06-18T14:03:15Z</time>
      </trkpt>
      <trkpt lat="36.613311" lon="-6.249549">
        <ele>68.894</ele>
        <time>2015-06-18T14:03:23Z</time>
      </trkpt>
      <trkpt lat="36.613311" lon="-6.249549">
        <ele>68.898</ele>
        <time>2015-06-18T14:03:25Z</time>
      </trkpt>
      <trkpt lat="36.613311" lon="-6.249549">
        <ele>68.867</ele>
        <time>2015-06-18T14:03:29Z</time>
      </trkpt>
      <trkpt lat="36.613311" lon="-6.249549">
        <ele>68.881</ele>
        <time>2015-06-18T14:03:38Z</time>
      </trkpt>
      <trkpt lat="36.613308" lon="-6.249542">
        <ele>68.819</ele>
        <time>2015-06-18T14:03:45Z</time>
      </trkpt>
      <trkpt lat="36.613308" lon="-6.249542">
        <ele>68.808</ele>
        <time>2015-06-18T14:03:49Z</time>
      </trkpt>
      <trkpt lat="36.613308" lon="-6.249542">
        <ele>68.837</ele>
        <time>2015-06-18T14:03:51Z</time>
      </trkpt>
      <trkpt lat="36.613308" lon="-6.249542">
        <ele>68.823</ele>
        <time>2015-06-18T14:03:56Z</time>
      </trkpt>
      <trkpt lat="36.613308" lon="-6.249542">
        <ele>68.829</ele>
        <time>2015-06-18T14:03:58Z</time>
      </trkpt>
      <trkpt lat="36.613308" lon="-6.249542">
        <ele>68.838</ele>
        <time>2015-06-18T14:04:02Z</time>
      </trkpt>
      <trkpt lat="36.613308" lon="-6.249542">
        <ele>68.861</ele>
        <time>2015-06-18T14:04:09Z</time>
      </trkpt>
      <trkpt lat="36.613308" lon="-6.249542">
        <ele>68.883</ele>
        <time>2015-06-18T14:04:13Z</time>
      </trkpt>
      <trkpt lat="36.613308" lon="-6.249542">
        <ele>68.846</ele>
        <time>2015-06-18T14:04:19Z</time>
      </trkpt>
      <trkpt lat="36.613308" lon="-6.249542">
        <ele>68.810</ele>
        <time>2015-06-18T14:04:37Z</time>
      </trkpt>
      <trkpt lat="36.613308" lon="-6.249542">
        <ele>68.835</ele>
        <time>2015-06-18T14:04:40Z</time>
      </trkpt>
      <trkpt lat="36.613308" lon="-6.249542">
        <ele>68.886</ele>
        <time>2015-06-18T14:04:43Z</time>
      </trkpt>
      <trkpt lat="36.613308" lon="-6.249542">
        <ele>68.814</ele>
        <time>2015-06-18T14:04:49Z</time>
      </trkpt>
      <trkpt lat="36.613308" lon="-6.249542">
        <ele>68.808</ele>
        <time>2015-06-18T14:04:58Z</time>
      </trkpt>
      <trkpt lat="36.613308" lon="-6.249541">
        <ele>68.854</ele>
        <time>2015-06-18T14:05:18Z</time>
      </trkpt>
      <trkpt lat="36.613308" lon="-6.249541">
        <ele>68.840</ele>
        <time>2015-06-18T14:05:20Z</time>
      </trkpt>
      <trkpt lat="36.613308" lon="-6.249541">
        <ele>68.866</ele>
        <time>2015-06-18T14:05:22Z</time>
      </trkpt>
      <trkpt lat="36.613308" lon="-6.249541">
        <ele>68.895</ele>
        <time>2015-06-18T14:05:35Z</time>
      </trkpt>
      <trkpt lat="36.613307" lon="-6.249543">
        <ele>68.878</ele>
        <time>2015-06-18T14:05:44Z</time>
      </trkpt>
      <trkpt lat="36.613307" lon="-6.249543">
        <ele>68.840</ele>
        <time>2015-06-18T14:05:47Z</time>
      </trkpt>
      <trkpt lat="36.613307" lon="-6.249543">
        <ele>68.853</ele>
        <time>2015-06-18T14:05:53Z</time>
      </trkpt>
      <trkpt lat="36.613307" lon="-6.249543">
        <ele>68.877</ele>
        <time>2015-06-18T14:06:09Z</time>
      </trkpt>
      <trkpt lat="36.613307" lon="-6.249543">
        <ele>68.867</ele>
        <time>2015-06-18T14:06:15Z</time>
      </trkpt>
      <trkpt lat="36.613310" lon="-6.249542">
        <ele>68.881</ele>
        <time>2015-06-18T14:06:27Z</time>
      </trkpt>
      <trkpt lat="36.613310" lon="-6.249542">
        <ele>68.819</ele>
        <time>2015-06-18T14:06:44Z</time>
      </trkpt>
      <trkpt lat="36.613310" lon="-6.249542">
        <ele>68.808</ele>
        <time>2015-06-18T14:06:58Z</time>
      </trkpt>
      <trkpt lat="36.613309" lon="-6.249541">
        <ele>68.877</ele>
        <time>2015-06-18T14:07:10Z</time>
      </trkpt>
      <trkpt lat="36.613309" lon="-6.249541">
        <ele>68.813</ele>
        <time>2015-06-18T14:07:12Z</time>
      </trkpt>
      <trkpt lat="36.613309" lon="-6.249541">
        <ele>68.859</ele>
        <time>2015-06-18T14:07:29Z</time>
      </trkpt>
      <trkpt lat="36.613309" lon="-6.249541">
        <ele>68.878</ele>
        <time>2015-06-18T14:07:31Z</time>
      </trkpt>
      <trkpt lat="36.613308" lon="-6.249540">
        <ele>68.851</ele>
        <time>2015-06-18T14:07:46Z</time>
      </trkpt>
      <trkpt lat="36.613308" lon="-6.249540">
        <ele>68.853</ele>
        <time>2015-06-18T14:08:02Z</time>
      </trkpt>
      <trkpt lat="36.613309" lon="-6.249542">
        <ele>68.826</ele>
        <time>2015-06-18T14:08:21Z</time>
      </trkpt>
      <trkpt lat="36.613309" lon="-6.249542">
        <ele>68.860</ele>
        <time>2015-06-18T14:08:22Z</time>
      </trkpt>
      <trkpt lat="36.613309" lon="-6.249542">
        <ele>68.858</ele>
        <time>2015-06-18T14:08:39Z</time>
      </trkpt>
      <trkpt lat="36.613309" lon="-6.249542">
        <ele>68.852</ele>
        <time>2015-06-18T14:08:54Z</time>
      </trkpt>
      <trkpt lat="36.613309" lon="-6.249544">
        <ele>68.817</ele>
        <time>2015-06-18T14:09:10Z</time>
      </trkpt>
      <trkpt lat="36.613309" lon="-6.249544">
        <ele>68.808</ele>
        <time>2015-06-18T14:09:30Z</time>
      </trkpt>
      <trkpt lat="36.613309" lon="-6.249544">
        <ele>68.826</ele>
        <time>2015-06-18T14:09:31Z</time>
      </trkpt>
      <trkpt lat="36.613309" lon="-6.249544">
        <ele>68.872</ele>
        <time>2015-06-18T14:09:36Z</time>
      </trkpt>
      <trkpt lat="36.613311" lon="-6.249544">
        <ele>68.898</ele>
        <time>2015-06-18T14:09:49Z</time>
      </trkpt>
      <trkpt lat="36.613311" lon="-6.249544">
        <ele>68.837</ele>
        <time>2015-06-18T14:09:56Z</time>
      </trkpt>
      <trkpt lat="36.613311" lon="-6.249544">
        <ele>68.810</ele>
        <time>2015-06-18T14:10:10Z</time>
      </trkpt>
      <trkpt lat="36.613312" lon="-6.249545">
        <ele>68.892</ele>
        <time>2015-06-18T14:10:29Z</time>
      </trkpt>
      <trkpt lat="36.613312" lon="-6.249545">
        <ele>68.845</ele>
        <time>2015-06-18T14:10:49Z</time>
      </trkpt>
      <trkpt lat="36.613312" lon="-6.249544">
        <ele>68.829</ele>
        <time>2015-06-18T14:11:12Z</time>
      </trkpt>
      <trkpt lat="36.613312" lon="-6.249544">
        <ele>68.864</ele>
        <time>2015-06-18T14:11:31Z</time>
      </trkpt>
      <trkpt lat="36.613313" lon="-6.249550">
        <ele>68.806</ele>
        <time>2015-06-18T14:11:51Z</time>
      </trkpt>
      <trkpt lat="36.613313" lon="-6.249550">
        <ele>68.816</ele>
        <time>2015-06-18T14:11:58Z</time>
      </trkpt>
      <trkpt lat="36.613313" lon="-6.249550">
        <ele>68.808</ele>
        <time>2015-06-18T14:12:01Z</time>
      </trkpt>
      <trkpt lat="36.613313" lon="-6.249550">
        <ele>69.287</ele>
        <time>2015-06-18T14:12:02Z</time>
      </trkpt>
      <trkpt lat="36.613313" lon="-6.249550">
        <ele>69.623</ele>
        <time>2015-06-18T14:12:03Z</time>
      </trkpt>
      <trkpt lat="36.613313" lon="-6.249550">
        <ele>70.089</ele>
        <time>2015-06-18T14:12:04Z</time>
      </trkpt>
      <trkpt lat="36.613313" lon="-6.249550">
        <ele>70.458</ele>
        <time>2015-06-18T14:12:05Z</time>
      </trkpt>
      <trkpt lat="36.613313" lon="-6.249550">
        <ele>70.811</ele>
        <time>2015-06-18T14:12:06Z</time>
      </trkpt>
      <trkpt lat="36.613313" lon="-6.249550">
        <ele>70.873</ele>
        <time>2015-06-18T14:12:10Z</time>
      </trkpt>
      <trkpt lat="36.613313" lon="-6.249557">
        <ele>70.896</ele>
        <time>2015-06-18T14:12:24Z</time>
      </trkpt>
      <trkpt lat="36.613313" lon="-6.249557">
        <ele>70.810</ele>
        <time>2015-06-18T14:12:29Z</time>
      </trkpt>
      <trkpt lat="36.613313" lon="-6.249557">
        <ele>70.893</ele>
        <time>2015-06-18T14:12:31Z</time>
      </trkpt>
      <trkpt lat="36.613313" lon="-6.249557">
        <ele>70.865</ele>
        <time>2015-06-18T14:12:46Z</time>
      </trkpt>
      <trkpt lat="36.613313" lon="-6.249557">
        <ele>70.821</ele>
        <time>2015-06-18T14:12:47Z</time>
      </trkpt>
      <trkpt lat="36.613314" lon="-6.249559">
        <ele>70.808</ele>
        <time>2015-06-18T14:13:02Z</time>
      </trkpt>
      <trkpt lat="36.613314" lon="-6.249559">
        <ele>70.890</ele>
        <time>2015-06-18T14:13:15Z</time>
      </trkpt>
      <trkpt lat="36.613314" lon="-6.249559">
        <ele>70.886</ele>
        <time>2015-06-18T14:13:21Z</time>
      </trkpt>
      <trkpt lat="36.613314" lon="-6.249559">
        <ele>70.852</ele>
        <time>2015-06-18T14:13:31Z</time>
      </trkpt>
      <trkpt lat="36.613314" lon="-6.249559">
        <ele>70.821</ele>
        <time>2015-06-18T14:13:38Z</time>
      </trkpt>
      <trkpt lat="36.613320" lon="-6.249566">
        <ele>70.814</ele>
        <time>2015-06-18T14:13:42Z</time>
      </trkpt>
      <trkpt lat="36.613320" lon="-6.249566">
        <ele>70.896</ele>
        <time>2015-06-18T14:13:46Z</time>
      </trkpt>
      <trkpt lat="36.613320" lon="-6.249566">
        <ele>70.819</ele>
        <time>2015-06-18T14:13:54Z</time>
      </trkpt>
      <trkpt lat="36.613320" lon="-6.249566">
        <ele>70.833</ele>
        <time>2015-06-18T14:13:56Z</time>
      </trkpt>
      <trkpt lat="36.613320" lon="-6.249566">
        <ele>70.847</ele>
        <time>2015-06-18T14:14:01Z</time>
      </trkpt>
      <trkpt lat="36.613320" lon="-6.249566">
        <ele>70.829</ele>
        <time>2015-06-18T14:14:11Z</time>
      </trkpt>
      <trkpt lat="36.613322" lon="-6.249566">
        <ele>70.821</ele>
        <time>2015-06-18T14:14:21Z</time>
      </trkpt>
      <trkpt lat="36.613322" lon="-6.249566">
        <ele>70.808</ele>
        <time>2015-06-18T14:14:27Z</time>
      </trkpt>
      <trkpt lat="36.613322" lon="-6.249566">
        <ele>70.835</ele>
        <time>2015-06-18T14:14:28Z</time>
      </trkpt>
      <trkpt lat="36.613322" lon="-6.249566">
        <ele>70.891</ele>
        <time>2015-06-18T14:14:38Z</time>
      </trkpt>
      <trkpt lat="36.613322" lon="-6.249566">
        <ele>70.847</ele>
        <time>2015-06-18T14:14:47Z</time>
      </trkpt>
      <trkpt lat="36.613322" lon="-6.249566">
        <ele>70.816</ele>
        <time>2015-06-18T14:14:51Z</time>
      </trkpt>
      <trkpt lat="36.613325" lon="-6.249564">
        <ele>70.829</ele>
        <time>2015-06-18T14:15:04Z</time>
      </trkpt>
      <trkpt lat="36.613325" lon="-6.249564">
        <ele>70.821</ele>
        <time>2015-06-18T14:15:07Z</time>
      </trkpt>
      <trkpt lat="36.613325" lon="-6.249564">
        <ele>70.854</ele>
        <time>2015-06-18T14:15:15Z</time>
      </trkpt>
      <trkpt lat="36.613325" lon="-6.249564">
        <ele>70.868</ele>
        <time>2015-06-18T14:15:18Z</time>
      </trkpt>
      <trkpt lat="36.613325" lon="-6.249564">
        <ele>70.846</ele>
        <time>2015-06-18T14:15:20Z</time>
      </trkpt>
      <trkpt lat="36.613325" lon="-6.249564">
        <ele>70.888</ele>
        <time>2015-06-18T14:15:22Z</time>
      </trkpt>
      <trkpt lat="36.613325" lon="-6.249564">
        <ele>70.816</ele>
        <time>2015-06-18T14:15:24Z</time>
      </trkpt>
      <trkpt lat="36.613325" lon="-6.249564">
        <ele>70.808</ele>
        <time>2015-06-18T14:15:25Z</time>
      </trkpt>
      <trkpt lat="36.613325" lon="-6.249564">
        <ele>70.815</ele>
        <time>2015-06-18T14:15:38Z</time>
      </trkpt>
      <trkpt lat="36.613327" lon="-6.249564">
        <ele>70.881</ele>
        <time>2015-06-18T14:15:40Z</time>
      </trkpt>
      <trkpt lat="36.613327" lon="-6.249564">
        <ele>70.887</ele>
        <time>2015-06-18T14:15:43Z</time>
      </trkpt>
      <trkpt lat="36.613327" lon="-6.249564">
        <ele>70.886</ele>
        <time>2015-06-18T14:15:45Z</time>
      </trkpt>
      <trkpt lat="36.613327" lon="-6.249564">
        <ele>70.899</ele>
        <time>2015-06-18T14:15:50Z</time>
      </trkpt>
      <trkpt lat="36.613327" lon="-6.249564">
        <ele>70.851</ele>
        <time>2015-06-18T14:15:54Z</time>
      </trkpt>
      <trkpt lat="36.613333" lon="-6.249583">
        <ele>70.824</ele>
        <time>2015-06-18T14:16:04Z</time>
      </trkpt>
      <trkpt lat="36.613325" lon="-6.249646">
        <ele>70.838</ele>
        <time>2015-06-18T14:16:08Z</time>
      </trkpt>
      <trkpt lat="36.613298" lon="-6.249663">
        <ele>70.836</ele>
        <time>2015-06-18T14:16:10Z</time>
      </trkpt>
      <trkpt lat="36.613271" lon="-6.249667">
        <ele>70.817</ele>
        <time>2015-06-18T14:16:11Z</time>
      </trkpt>
      <trkpt lat="36.613223" lon="-6.249651">
        <ele>70.818</ele>
        <time>2015-06-18T14:16:13Z</time>
      </trkpt>
      <trkpt lat="36.613132" lon="-6.249552">
        <ele>70.808</ele>
        <time>2015-06-18T14:16:18Z</time>
      </trkpt>
      <trkpt lat="36.613105" lon="-6.249509">
        <ele>70.884</ele>
        <time>2015-06-18T14:16:20Z</time>
      </trkpt>
      <trkpt lat="36.613026" lon="-6.249399">
        <ele>70.880</ele>
        <time>2015-06-18T14:16:25Z</time>
      </trkpt>
      <trkpt lat="36.612925" lon="-6.249271">
        <ele>70.496</ele>
        <time>2015-06-18T14:16:31Z</time>
      </trkpt>
      <trkpt lat="36.612907" lon="-6.249247">
        <ele>70.045</ele>
        <time>2015-06-18T14:16:32Z</time>
      </trkpt>
      <trkpt lat="36.612890" lon="-6.249220">
        <ele>69.438</ele>
        <time>2015-06-18T14:16:33Z</time>
      </trkpt>
      <trkpt lat="36.612873" lon="-6.249192">
        <ele>69.880</ele>
        <time>2015-06-18T14:16:34Z</time>
      </trkpt>
      <trkpt lat="36.612854" lon="-6.249166">
        <ele>70.243</ele>
        <time>2015-06-18T14:16:35Z</time>
      </trkpt>
      <trkpt lat="36.612836" lon="-6.249139">
        <ele>70.677</ele>
        <time>2015-06-18T14:16:36Z</time>
      </trkpt>
      <trkpt lat="36.612817" lon="-6.249110">
        <ele>70.842</ele>
        <time>2015-06-18T14:16:37Z</time>
      </trkpt>
      <trkpt lat="36.612799" lon="-6.249079">
        <ele>71.222</ele>
        <time>2015-06-18T14:16:38Z</time>
      </trkpt>
      <trkpt lat="36.612782" lon="-6.249047">
        <ele>71.214</ele>
        <time>2015-06-18T14:16:39Z</time>
      </trkpt>
      <trkpt lat="36.612627" lon="-6.248792">
        <ele>71.208</ele>
        <time>2015-06-18T14:16:46Z</time>
      </trkpt>
      <trkpt lat="36.612545" lon="-6.248678">
        <ele>71.255</ele>
        <time>2015-06-18T14:16:49Z</time>
      </trkpt>
      <trkpt lat="36.612464" lon="-6.248553">
        <ele>70.831</ele>
        <time>2015-06-18T14:16:52Z</time>
      </trkpt>
      <trkpt lat="36.612433" lon="-6.248506">
        <ele>70.447</ele>
        <time>2015-06-18T14:16:53Z</time>
      </trkpt>
      <trkpt lat="36.612403" lon="-6.248462">
        <ele>70.036</ele>
        <time>2015-06-18T14:16:54Z</time>
      </trkpt>
      <trkpt lat="36.612373" lon="-6.248413">
        <ele>69.459</ele>
        <time>2015-06-18T14:16:55Z</time>
      </trkpt>
      <trkpt lat="36.612344" lon="-6.248365">
        <ele>69.051</ele>
        <time>2015-06-18T14:16:56Z</time>
      </trkpt>
      <trkpt lat="36.612245" lon="-6.248227">
        <ele>69.074</ele>
        <time>2015-06-18T14:16:59Z</time>
      </trkpt>
      <trkpt lat="36.612111" lon="-6.248028">
        <ele>69.098</ele>
        <time>2015-06-18T14:17:03Z</time>
      </trkpt>
      <trkpt lat="36.612014" lon="-6.247880">
        <ele>69.031</ele>
        <time>2015-06-18T14:17:06Z</time>
      </trkpt>
      <trkpt lat="36.611910" lon="-6.247729">
        <ele>68.261</ele>
        <time>2015-06-18T14:17:09Z</time>
      </trkpt>
      <trkpt lat="36.611875" lon="-6.247676">
        <ele>67.807</ele>
        <time>2015-06-18T14:17:10Z</time>
      </trkpt>
      <trkpt lat="36.611842" lon="-6.247623">
        <ele>67.408</ele>
        <time>2015-06-18T14:17:11Z</time>
      </trkpt>
      <trkpt lat="36.611810" lon="-6.247567">
        <ele>66.844</ele>
        <time>2015-06-18T14:17:12Z</time>
      </trkpt>
      <trkpt lat="36.611780" lon="-6.247511">
        <ele>66.840</ele>
        <time>2015-06-18T14:17:13Z</time>
      </trkpt>
      <trkpt lat="36.611687" lon="-6.247341">
        <ele>66.856</ele>
        <time>2015-06-18T14:17:16Z</time>
      </trkpt>
      <trkpt lat="36.611603" lon="-6.247173">
        <ele>66.455</ele>
        <time>2015-06-18T14:17:19Z</time>
      </trkpt>
      <trkpt lat="36.611569" lon="-6.247123">
        <ele>66.018</ele>
        <time>2015-06-18T14:17:20Z</time>
      </trkpt>
      <trkpt lat="36.611536" lon="-6.247073">
        <ele>65.680</ele>
        <time>2015-06-18T14:17:21Z</time>
      </trkpt>
      <trkpt lat="36.611506" lon="-6.247021">
        <ele>65.223</ele>
        <time>2015-06-18T14:17:22Z</time>
      </trkpt>
      <trkpt lat="36.611477" lon="-6.246966">
        <ele>64.647</ele>
        <time>2015-06-18T14:17:23Z</time>
      </trkpt>
      <trkpt lat="36.611374" lon="-6.246782">
        <ele>64.693</ele>
        <time>2015-06-18T14:17:27Z</time>
      </trkpt>
      <trkpt lat="36.611256" lon="-6.246562">
        <ele>64.665</ele>
        <time>2015-06-18T14:17:32Z</time>
      </trkpt>
      <trkpt lat="36.611235" lon="-6.246519">
        <ele>63.821</ele>
        <time>2015-06-18T14:17:33Z</time>
      </trkpt>
      <trkpt lat="36.611212" lon="-6.246475">
        <ele>63.408</ele>
        <time>2015-06-18T14:17:34Z</time>
      </trkpt>
      <trkpt lat="36.611191" lon="-6.246430">
        <ele>62.850</ele>
        <time>2015-06-18T14:17:35Z</time>
      </trkpt>
      <trkpt lat="36.611168" lon="-6.246383">
        <ele>62.476</ele>
        <time>2015-06-18T14:17:36Z</time>
      </trkpt>
      <trkpt lat="36.611071" lon="-6.246198">
        <ele>62.472</ele>
        <time>2015-06-18T14:17:40Z</time>
      </trkpt>
      <trkpt lat="36.610955" lon="-6.245985">
        <ele>62.471</ele>
        <time>2015-06-18T14:17:45Z</time>
      </trkpt>
      <trkpt lat="36.610883" lon="-6.245867">
        <ele>62.444</ele>
        <time>2015-06-18T14:17:48Z</time>
      </trkpt>
      <trkpt lat="36.610808" lon="-6.245751">
        <ele>62.076</ele>
        <time>2015-06-18T14:17:51Z</time>
      </trkpt>
      <trkpt lat="36.610782" lon="-6.245712">
        <ele>61.629</ele>
        <time>2015-06-18T14:17:52Z</time>
      </trkpt>
      <trkpt lat="36.610752" lon="-6.245675">
        <ele>61.293</ele>
        <time>2015-06-18T14:17:53Z</time>
      </trkpt>
      <trkpt lat="36.610721" lon="-6.245640">
        <ele>60.617</ele>
        <time>2015-06-18T14:17:54Z</time>
      </trkpt>
      <trkpt lat="36.610690" lon="-6.245604">
        <ele>60.287</ele>
        <time>2015-06-18T14:17:55Z</time>
      </trkpt>
      <trkpt lat="36.610660" lon="-6.245567">
        <ele>60.215</ele>
        <time>2015-06-18T14:17:56Z</time>
      </trkpt>
      <trkpt lat="36.610566" lon="-6.245460">
        <ele>60.208</ele>
        <time>2015-06-18T14:17:59Z</time>
      </trkpt>
      <trkpt lat="36.610442" lon="-6.245308">
        <ele>60.242</ele>
        <time>2015-06-18T14:18:03Z</time>
      </trkpt>
      <trkpt lat="36.610383" lon="-6.245234">
        <ele>60.258</ele>
        <time>2015-06-18T14:18:05Z</time>
      </trkpt>
      <trkpt lat="36.610273" lon="-6.245095">
        <ele>60.214</ele>
        <time>2015-06-18T14:18:09Z</time>
      </trkpt>
      <trkpt lat="36.610135" lon="-6.244877">
        <ele>60.293</ele>
        <time>2015-06-18T14:18:15Z</time>
      </trkpt>
      <trkpt lat="36.610093" lon="-6.244791">
        <ele>60.256</ele>
        <time>2015-06-18T14:18:17Z</time>
      </trkpt>
      <trkpt lat="36.610050" lon="-6.244696">
        <ele>60.258</ele>
        <time>2015-06-18T14:18:19Z</time>
      </trkpt>
      <trkpt lat="36.609942" lon="-6.244462">
        <ele>60.211</ele>
        <time>2015-06-18T14:18:24Z</time>
      </trkpt>
      <trkpt lat="36.609923" lon="-6.244414">
        <ele>59.875</ele>
        <time>2015-06-18T14:18:25Z</time>
      </trkpt>
      <trkpt lat="36.609906" lon="-6.244363">
        <ele>59.486</ele>
        <time>2015-06-18T14:18:26Z</time>
      </trkpt>
      <trkpt lat="36.609884" lon="-6.244312">
        <ele>59.060</ele>
        <time>2015-06-18T14:18:27Z</time>
      </trkpt>
      <trkpt lat="36.609860" lon="-6.244261">
        <ele>58.626</ele>
        <time>2015-06-18T14:18:28Z</time>
      </trkpt>
      <trkpt lat="36.609837" lon="-6.244207">
        <ele>58.008</ele>
        <time>2015-06-18T14:18:29Z</time>
      </trkpt>
      <trkpt lat="36.609814" lon="-6.244152">
        <ele>58.099</ele>
        <time>2015-06-18T14:18:30Z</time>
      </trkpt>
      <trkpt lat="36.609745" lon="-6.243996">
        <ele>58.065</ele>
        <time>2015-06-18T14:18:33Z</time>
      </trkpt>
      <trkpt lat="36.609653" lon="-6.243788">
        <ele>58.021</ele>
        <time>2015-06-18T14:18:37Z</time>
      </trkpt>
      <trkpt lat="36.609629" lon="-6.243735">
        <ele>58.080</ele>
        <time>2015-06-18T14:18:38Z</time>
      </trkpt>
      <trkpt lat="36.609577" lon="-6.243631">
        <ele>58.033</ele>
        <time>2015-06-18T14:18:40Z</time>
      </trkpt>
      <trkpt lat="36.609456" lon="-6.243355">
        <ele>58.055</ele>
        <time>2015-06-18T14:18:45Z</time>
      </trkpt>
      <trkpt lat="36.609433" lon="-6.243300">
        <ele>57.698</ele>
        <time>2015-06-18T14:18:46Z</time>
      </trkpt>
      <trkpt lat="36.609410" lon="-6.243246">
        <ele>56.842</ele>
        <time>2015-06-18T14:18:47Z</time>
      </trkpt>
      <trkpt lat="36.609387" lon="-6.243194">
        <ele>56.481</ele>
        <time>2015-06-18T14:18:48Z</time>
      </trkpt>
      <trkpt lat="36.609363" lon="-6.243142">
        <ele>56.061</ele>
        <time>2015-06-18T14:18:49Z</time>
      </trkpt>
      <trkpt lat="36.609295" lon="-6.242995">
        <ele>56.017</ele>
        <time>2015-06-18T14:18:52Z</time>
      </trkpt>
      <trkpt lat="36.609254" lon="-6.242904">
        <ele>56.008</ele>
        <time>2015-06-18T14:18:54Z</time>
      </trkpt>
      <trkpt lat="36.609130" lon="-6.242622">
        <ele>56.089</ele>
        <time>2015-06-18T14:19:00Z</time>
      </trkpt>
      <trkpt lat="36.609051" lon="-6.242471">
        <ele>56.095</ele>
        <time>2015-06-18T14:19:03Z</time>
      </trkpt>
      <trkpt lat="36.608835" lon="-6.242059">
        <ele>56.021</ele>
        <time>2015-06-18T14:19:11Z</time>
      </trkpt>
      <trkpt lat="36.608747" lon="-6.241892">
        <ele>55.630</ele>
        <time>2015-06-18T14:19:14Z</time>
      </trkpt>
      <trkpt lat="36.608722" lon="-6.241839">
        <ele>55.253</ele>
        <time>2015-06-18T14:19:15Z</time>
      </trkpt>
      <trkpt lat="36.608695" lon="-6.241789">
        <ele>54.825</ele>
        <time>2015-06-18T14:19:16Z</time>
      </trkpt>
      <trkpt lat="36.608667" lon="-6.241741">
        <ele>54.468</ele>
        <time>2015-06-18T14:19:17Z</time>
      </trkpt>
      <trkpt lat="36.608637" lon="-6.241691">
        <ele>54.052</ele>
        <time>2015-06-18T14:19:18Z</time>
      </trkpt>
      <trkpt lat="36.608363" lon="-6.241310">
        <ele>54.068</ele>
        <time>2015-06-18T14:19:26Z</time>
      </trkpt>
      <trkpt lat="36.608087" lon="-6.240935">
        <ele>54.042</ele>
        <time>2015-06-18T14:19:34Z</time>
      </trkpt>
      <trkpt lat="36.607874" lon="-6.240647">
        <ele>54.026</ele>
        <time>2015-06-18T14:19:40Z</time>
      </trkpt>
      <trkpt lat="36.607839" lon="-6.240604">
        <ele>53.608</ele>
        <time>2015-06-18T14:19:41Z</time>
      </trkpt>
      <trkpt lat="36.607803" lon="-6.240562">
        <ele>53.267</ele>
        <time>2015-06-18T14:19:42Z</time>
      </trkpt>
      <trkpt lat="36.607768" lon="-6.240520">
        <ele>52.833</ele>
        <time>2015-06-18T14:19:43Z</time>
      </trkpt>
      <trkpt lat="36.607733" lon="-6.240477">
        <ele>52.419</ele>
        <time>2015-06-18T14:19:44Z</time>
      </trkpt>
      <trkpt lat="36.607696" lon="-6.240439">
        <ele>52.038</ele>
        <time>2015-06-18T14:19:45Z</time>
      </trkpt>
      <trkpt lat="36.607552" lon="-6.240273">
        <ele>52.041</ele>
        <time>2015-06-18T14:19:49Z</time>
      </trkpt>
      <trkpt lat="36.607299" lon="-6.239975">
        <ele>52.033</ele>
        <time>2015-06-18T14:19:56Z</time>
      </trkpt>
      <trkpt lat="36.607056" lon="-6.239690">
        <ele>51.616</ele>
        <time>2015-06-18T14:20:02Z</time>
      </trkpt>
      <trkpt lat="36.607014" lon="-6.239639">
        <ele>51.220</ele>
        <time>2015-06-18T14:20:03Z</time>
      </trkpt>
      <trkpt lat="36.606972" lon="-6.239586">
        <ele>50.657</ele>
        <time>2015-06-18T14:20:04Z</time>
      </trkpt>
      <trkpt lat="36.606933" lon="-6.239530">
        <ele>50.200</ele>
        <time>2015-06-18T14:20:05Z</time>
      </trkpt>
      <trkpt lat="36.606893" lon="-6.239473">
        <ele>49.820</ele>
        <time>2015-06-18T14:20:06Z</time>
      </trkpt>
      <trkpt lat="36.606728" lon="-6.239255">
        <ele>49.808</ele>
        <time>2015-06-18T14:20:10Z</time>
      </trkpt>
      <trkpt lat="36.606614" lon="-6.239113">
        <ele>49.816</ele>
        <time>2015-06-18T14:20:13Z</time>
      </trkpt>
      <trkpt lat="36.606413" lon="-6.238861">
        <ele>49.842</ele>
        <time>2015-06-18T14:20:18Z</time>
      </trkpt>
      <trkpt lat="36.606370" lon="-6.238808">
        <ele>49.428</ele>
        <time>2015-06-18T14:20:19Z</time>
      </trkpt>
      <trkpt lat="36.606326" lon="-6.238759">
        <ele>49.077</ele>
        <time>2015-06-18T14:20:20Z</time>
      </trkpt>
      <trkpt lat="36.606283" lon="-6.238711">
        <ele>48.620</ele>
        <time>2015-06-18T14:20:21Z</time>
      </trkpt>
      <trkpt lat="36.606238" lon="-6.238660">
        <ele>48.272</ele>
        <time>2015-06-18T14:20:22Z</time>
      </trkpt>
      <trkpt lat="36.606197" lon="-6.238612">
        <ele>47.895</ele>
        <time>2015-06-18T14:20:23Z</time>
      </trkpt>
      <trkpt lat="36.606153" lon="-6.238567">
        <ele>47.889</ele>
        <time>2015-06-18T14:20:24Z</time>
      </trkpt>
      <trkpt lat="36.605933" lon="-6.238315">
        <ele>47.899</ele>
        <time>2015-06-18T14:20:29Z</time>
      </trkpt>
      <trkpt lat="36.605845" lon="-6.238202">
        <ele>47.807</ele>
        <time>2015-06-18T14:20:31Z</time>
      </trkpt>
      <trkpt lat="36.605757" lon="-6.238103">
        <ele>47.827</ele>
        <time>2015-06-18T14:20:33Z</time>
      </trkpt>
      <trkpt lat="36.605631" lon="-6.237954">
        <ele>47.808</ele>
        <time>2015-06-18T14:20:36Z</time>
      </trkpt>
      <trkpt lat="36.605490" lon="-6.237783">
        <ele>47.230</ele>
        <time>2015-06-18T14:20:39Z</time>
      </trkpt>
      <trkpt lat="36.605444" lon="-6.237725">
        <ele>46.846</ele>
        <time>2015-06-18T14:20:40Z</time>
      </trkpt>
      <trkpt lat="36.605393" lon="-6.237669">
        <ele>46.432</ele>
        <time>2015-06-18T14:20:41Z</time>
      </trkpt>
      <trkpt lat="36.605343" lon="-6.237612">
        <ele>46.061</ele>
        <time>2015-06-18T14:20:42Z</time>
      </trkpt>
      <trkpt lat="36.605295" lon="-6.237555">
        <ele>45.424</ele>
        <time>2015-06-18T14:20:43Z</time>
      </trkpt>
      <trkpt lat="36.605016" lon="-6.237225">
        <ele>45.476</ele>
        <time>2015-06-18T14:20:49Z</time>
      </trkpt>
      <trkpt lat="36.604930" lon="-6.237120">
        <ele>45.449</ele>
        <time>2015-06-18T14:20:51Z</time>
      </trkpt>
      <trkpt lat="36.604733" lon="-6.236884">
        <ele>45.043</ele>
        <time>2015-06-18T14:20:56Z</time>
      </trkpt>
      <trkpt lat="36.604697" lon="-6.236842">
        <ele>44.626</ele>
        <time>2015-06-18T14:20:57Z</time>
      </trkpt>
      <trkpt lat="36.604662" lon="-6.236801">
        <ele>44.047</ele>
        <time>2015-06-18T14:20:58Z</time>
      </trkpt>
      <trkpt lat="36.604627" lon="-6.236761">
        <ele>43.611</ele>
        <time>2015-06-18T14:20:59Z</time>
      </trkpt>
      <trkpt lat="36.604591" lon="-6.236720">
        <ele>43.208</ele>
        <time>2015-06-18T14:21:00Z</time>
      </trkpt>
      <trkpt lat="36.604435" lon="-6.236555">
        <ele>43.213</ele>
        <time>2015-06-18T14:21:05Z</time>
      </trkpt>
      <trkpt lat="36.604408" lon="-6.236524">
        <ele>42.639</ele>
        <time>2015-06-18T14:21:06Z</time>
      </trkpt>
      <trkpt lat="36.604379" lon="-6.236489">
        <ele>42.275</ele>
        <time>2015-06-18T14:21:07Z</time>
      </trkpt>
      <trkpt lat="36.604352" lon="-6.236457">
        <ele>41.884</ele>
        <time>2015-06-18T14:21:08Z</time>
      </trkpt>
      <trkpt lat="36.604326" lon="-6.236425">
        <ele>41.467</ele>
        <time>2015-06-18T14:21:09Z</time>
      </trkpt>
      <trkpt lat="36.604300" lon="-6.236389">
        <ele>41.029</ele>
        <time>2015-06-18T14:21:10Z</time>
      </trkpt>
      <trkpt lat="36.604247" lon="-6.236325">
        <ele>41.022</ele>
        <time>2015-06-18T14:21:12Z</time>
      </trkpt>
      <trkpt lat="36.604021" lon="-6.236080">
        <ele>41.086</ele>
        <time>2015-06-18T14:21:19Z</time>
      </trkpt>
      <trkpt lat="36.603694" lon="-6.235718">
        <ele>41.061</ele>
        <time>2015-06-18T14:21:28Z</time>
      </trkpt>
      <trkpt lat="36.603397" lon="-6.235411">
        <ele>40.621</ele>
        <time>2015-06-18T14:21:35Z</time>
      </trkpt>
      <trkpt lat="36.603348" lon="-6.235368">
        <ele>40.213</ele>
        <time>2015-06-18T14:21:36Z</time>
      </trkpt>
      <trkpt lat="36.603297" lon="-6.235320">
        <ele>39.808</ele>
        <time>2015-06-18T14:21:37Z</time>
      </trkpt>
      <trkpt lat="36.603247" lon="-6.235271">
        <ele>39.457</ele>
        <time>2015-06-18T14:21:38Z</time>
      </trkpt>
      <trkpt lat="36.603195" lon="-6.235225">
        <ele>39.073</ele>
        <time>2015-06-18T14:21:39Z</time>
      </trkpt>
      <trkpt lat="36.603147" lon="-6.235171">
        <ele>39.019</ele>
        <time>2015-06-18T14:21:40Z</time>
      </trkpt>
      <trkpt lat="36.603094" lon="-6.235125">
        <ele>39.068</ele>
        <time>2015-06-18T14:21:41Z</time>
      </trkpt>
      <trkpt lat="36.602941" lon="-6.234991">
        <ele>39.091</ele>
        <time>2015-06-18T14:21:44Z</time>
      </trkpt>
      <trkpt lat="36.602892" lon="-6.234952">
        <ele>39.053</ele>
        <time>2015-06-18T14:21:45Z</time>
      </trkpt>
      <trkpt lat="36.602630" lon="-6.234736">
        <ele>39.036</ele>
        <time>2015-06-18T14:21:50Z</time>
      </trkpt>
      <trkpt lat="36.602478" lon="-6.234611">
        <ele>39.040</ele>
        <time>2015-06-18T14:21:53Z</time>
      </trkpt>
      <trkpt lat="36.602427" lon="-6.234581">
        <ele>39.069</ele>
        <time>2015-06-18T14:21:54Z</time>
      </trkpt>
      <trkpt lat="36.602238" lon="-6.234454">
        <ele>38.604</ele>
        <time>2015-06-18T14:21:58Z</time>
      </trkpt>
      <trkpt lat="36.602189" lon="-6.234424">
        <ele>38.224</ele>
        <time>2015-06-18T14:21:59Z</time>
      </trkpt>
      <trkpt lat="36.602139" lon="-6.234402">
        <ele>37.608</ele>
        <time>2015-06-18T14:22:00Z</time>
      </trkpt>
      <trkpt lat="36.602091" lon="-6.234378">
        <ele>37.287</ele>
        <time>2015-06-18T14:22:01Z</time>
      </trkpt>
      <trkpt lat="36.602041" lon="-6.234354">
        <ele>36.853</ele>
        <time>2015-06-18T14:22:02Z</time>
      </trkpt>
      <trkpt lat="36.601940" lon="-6.234302">
        <ele>36.829</ele>
        <time>2015-06-18T14:22:04Z</time>
      </trkpt>
      <trkpt lat="36.601786" lon="-6.234240">
        <ele>36.838</ele>
        <time>2015-06-18T14:22:07Z</time>
      </trkpt>
      <trkpt lat="36.601692" lon="-6.234192">
        <ele>36.411</ele>
        <time>2015-06-18T14:22:09Z</time>
      </trkpt>
      <trkpt lat="36.601651" lon="-6.234179">
        <ele>36.093</ele>
        <time>2015-06-18T14:22:10Z</time>
      </trkpt>
      <trkpt lat="36.601611" lon="-6.234168">
        <ele>35.656</ele>
        <time>2015-06-18T14:22:11Z</time>
      </trkpt>
      <trkpt lat="36.601575" lon="-6.234158">
        <ele>35.290</ele>
        <time>2015-06-18T14:22:12Z</time>
      </trkpt>
      <trkpt lat="36.601600" lon="-6.234147">
        <ele>30.292</ele>
        <time>2015-06-18T14:23:12Z</time>
      </trkpt>
      <trkpt lat="36.601634" lon="-6.234043">
        <ele>30.273</ele>
        <time>2015-06-18T14:23:16Z</time>
      </trkpt>
      <trkpt lat="36.601631" lon="-6.233992">
        <ele>30.220</ele>
        <time>2015-06-18T14:23:18Z</time>
      </trkpt>
      <trkpt lat="36.601641" lon="-6.233942">
        <ele>30.208</ele>
        <time>2015-06-18T14:23:20Z</time>
      </trkpt>
      <trkpt lat="36.601680" lon="-6.233918">
        <ele>30.210</ele>
        <time>2015-06-18T14:23:22Z</time>
      </trkpt>
      <trkpt lat="36.601715" lon="-6.233889">
        <ele>30.276</ele>
        <time>2015-06-18T14:23:24Z</time>
      </trkpt>
      <trkpt lat="36.601729" lon="-6.233878">
        <ele>30.222</ele>
        <time>2015-06-18T14:23:26Z</time>
      </trkpt>
      <trkpt lat="36.601732" lon="-6.233876">
        <ele>30.281</ele>
        <time>2015-06-18T14:23:28Z</time>
      </trkpt>
      <trkpt lat="36.601738" lon="-6.233852">
        <ele>30.284</ele>
        <time>2015-06-18T14:23:30Z</time>
      </trkpt>
      <trkpt lat="36.601734" lon="-6.233832">
        <ele>30.666</ele>
        <time>2015-06-18T14:23:31Z</time>
      </trkpt>
      <trkpt lat="36.601726" lon="-6.233808">
        <ele>31.039</ele>
        <time>2015-06-18T14:23:32Z</time>
      </trkpt>
      <trkpt lat="36.601721" lon="-6.233780">
        <ele>31.453</ele>
        <time>2015-06-18T14:23:33Z</time>
      </trkpt>
      <trkpt lat="36.601720" lon="-6.233745">
        <ele>31.887</ele>
        <time>2015-06-18T14:23:34Z</time>
      </trkpt>
      <trkpt lat="36.601720" lon="-6.233701">
        <ele>32.242</ele>
        <time>2015-06-18T14:23:35Z</time>
      </trkpt>
      <trkpt lat="36.601716" lon="-6.233652">
        <ele>32.226</ele>
        <time>2015-06-18T14:23:36Z</time>
      </trkpt>
      <trkpt lat="36.601685" lon="-6.233565">
        <ele>32.208</ele>
        <time>2015-06-18T14:23:38Z</time>
      </trkpt>
      <trkpt lat="36.601641" lon="-6.233479">
        <ele>32.259</ele>
        <time>2015-06-18T14:23:40Z</time>
      </trkpt>
      <trkpt lat="36.601616" lon="-6.233439">
        <ele>32.235</ele>
        <time>2015-06-18T14:23:41Z</time>
      </trkpt>
      <trkpt lat="36.601459" lon="-6.233191">
        <ele>32.211</ele>
        <time>2015-06-18T14:23:47Z</time>
      </trkpt>
      <trkpt lat="36.601332" lon="-6.233007">
        <ele>32.230</ele>
        <time>2015-06-18T14:23:51Z</time>
      </trkpt>
      <trkpt lat="36.601244" lon="-6.232873">
        <ele>32.223</ele>
        <time>2015-06-18T14:23:54Z</time>
      </trkpt>
      <trkpt lat="36.601111" lon="-6.232691">
        <ele>32.285</ele>
        <time>2015-06-18T14:23:59Z</time>
      </trkpt>
      <trkpt lat="36.601075" lon="-6.232687">
        <ele>32.288</ele>
        <time>2015-06-18T14:24:00Z</time>
      </trkpt>
      <trkpt lat="36.600994" lon="-6.232732">
        <ele>31.822</ele>
        <time>2015-06-18T14:24:02Z</time>
      </trkpt>
      <trkpt lat="36.600955" lon="-6.232766">
        <ele>31.415</ele>
        <time>2015-06-18T14:24:03Z</time>
      </trkpt>
      <trkpt lat="36.600916" lon="-6.232801">
        <ele>30.865</ele>
        <time>2015-06-18T14:24:04Z</time>
      </trkpt>
      <trkpt lat="36.600875" lon="-6.232841">
        <ele>30.411</ele>
        <time>2015-06-18T14:24:05Z</time>
      </trkpt>
      <trkpt lat="36.600831" lon="-6.232883">
        <ele>29.808</ele>
        <time>2015-06-18T14:24:06Z</time>
      </trkpt>
      <trkpt lat="36.600734" lon="-6.232970">
        <ele>29.012</ele>
        <time>2015-06-18T14:24:08Z</time>
      </trkpt>
      <trkpt lat="36.600681" lon="-6.233019">
        <ele>28.688</ele>
        <time>2015-06-18T14:24:09Z</time>
      </trkpt>
      <trkpt lat="36.600626" lon="-6.233074">
        <ele>28.244</ele>
        <time>2015-06-18T14:24:10Z</time>
      </trkpt>
      <trkpt lat="36.600571" lon="-6.233126">
        <ele>27.633</ele>
        <time>2015-06-18T14:24:11Z</time>
      </trkpt>
      <trkpt lat="36.600403" lon="-6.233278">
        <ele>27.666</ele>
        <time>2015-06-18T14:24:14Z</time>
      </trkpt>
      <trkpt lat="36.600339" lon="-6.233316">
        <ele>27.648</ele>
        <time>2015-06-18T14:24:15Z</time>
      </trkpt>
      <trkpt lat="36.600281" lon="-6.233324">
        <ele>27.671</ele>
        <time>2015-06-18T14:24:16Z</time>
      </trkpt>
      <trkpt lat="36.600187" lon="-6.233253">
        <ele>27.245</ele>
        <time>2015-06-18T14:24:18Z</time>
      </trkpt>
      <trkpt lat="36.600160" lon="-6.233197">
        <ele>26.811</ele>
        <time>2015-06-18T14:24:19Z</time>
      </trkpt>
      <trkpt lat="36.600131" lon="-6.233141">
        <ele>26.421</ele>
        <time>2015-06-18T14:24:20Z</time>
      </trkpt>
      <trkpt lat="36.600098" lon="-6.233086">
        <ele>25.803</ele>
        <time>2015-06-18T14:24:21Z</time>
      </trkpt>
      <trkpt lat="36.600064" lon="-6.233030">
        <ele>25.408</ele>
        <time>2015-06-18T14:24:22Z</time>
      </trkpt>
      <trkpt lat="36.600028" lon="-6.232974">
        <ele>25.482</ele>
        <time>2015-06-18T14:24:23Z</time>
      </trkpt>
      <trkpt lat="36.599768" lon="-6.232537">
        <ele>25.468</ele>
        <time>2015-06-18T14:24:30Z</time>
      </trkpt>
      <trkpt lat="36.599728" lon="-6.232471">
        <ele>25.034</ele>
        <time>2015-06-18T14:24:31Z</time>
      </trkpt>
      <trkpt lat="36.599686" lon="-6.232404">
        <ele>24.623</ele>
        <time>2015-06-18T14:24:32Z</time>
      </trkpt>
      <trkpt lat="36.599644" lon="-6.232338">
        <ele>23.866</ele>
        <time>2015-06-18T14:24:33Z</time>
      </trkpt>
      <trkpt lat="36.599603" lon="-6.232276">
        <ele>23.418</ele>
        <time>2015-06-18T14:24:34Z</time>
      </trkpt>
      <trkpt lat="36.599464" lon="-6.232088">
        <ele>23.461</ele>
        <time>2015-06-18T14:24:37Z</time>
      </trkpt>
      <trkpt lat="36.599218" lon="-6.231739">
        <ele>23.455</ele>
        <time>2015-06-18T14:24:43Z</time>
      </trkpt>
      <trkpt lat="36.599187" lon="-6.231694">
        <ele>23.045</ele>
        <time>2015-06-18T14:24:44Z</time>
      </trkpt>
      <trkpt lat="36.599161" lon="-6.231655">
        <ele>22.647</ele>
        <time>2015-06-18T14:24:45Z</time>
      </trkpt>
      <trkpt lat="36.599140" lon="-6.231628">
        <ele>22.211</ele>
        <time>2015-06-18T14:24:46Z</time>
      </trkpt>
      <trkpt lat="36.599125" lon="-6.231602">
        <ele>21.808</ele>
        <time>2015-06-18T14:24:47Z</time>
      </trkpt>
      <trkpt lat="36.599110" lon="-6.231572">
        <ele>21.435</ele>
        <time>2015-06-18T14:24:48Z</time>
      </trkpt>
      <trkpt lat="36.599052" lon="-6.231472">
        <ele>20.831</ele>
        <time>2015-06-18T14:24:51Z</time>
      </trkpt>
      <trkpt lat="36.599032" lon="-6.231434">
        <ele>20.427</ele>
        <time>2015-06-18T14:24:52Z</time>
      </trkpt>
      <trkpt lat="36.599013" lon="-6.231394">
        <ele>20.096</ele>
        <time>2015-06-18T14:24:53Z</time>
      </trkpt>
      <trkpt lat="36.598993" lon="-6.231354">
        <ele>19.629</ele>
        <time>2015-06-18T14:24:54Z</time>
      </trkpt>
      <trkpt lat="36.598972" lon="-6.231316">
        <ele>19.211</ele>
        <time>2015-06-18T14:24:55Z</time>
      </trkpt>
      <trkpt lat="36.598855" lon="-6.231131">
        <ele>19.294</ele>
        <time>2015-06-18T14:25:00Z</time>
      </trkpt>
      <trkpt lat="36.598787" lon="-6.230987">
        <ele>19.258</ele>
        <time>2015-06-18T14:25:04Z</time>
      </trkpt>
      <trkpt lat="36.598771" lon="-6.230949">
        <ele>19.216</ele>
        <time>2015-06-18T14:25:05Z</time>
      </trkpt>
      <trkpt lat="36.598648" lon="-6.230737">
        <ele>18.876</ele>
        <time>2015-06-18T14:25:10Z</time>
      </trkpt>
      <trkpt lat="36.598599" lon="-6.230686">
        <ele>18.413</ele>
        <time>2015-06-18T14:25:11Z</time>
      </trkpt>
      <trkpt lat="36.598562" lon="-6.230638">
        <ele>17.808</ele>
        <time>2015-06-18T14:25:12Z</time>
      </trkpt>
      <trkpt lat="36.598528" lon="-6.230587">
        <ele>17.462</ele>
        <time>2015-06-18T14:25:13Z</time>
      </trkpt>
      <trkpt lat="36.598499" lon="-6.230545">
        <ele>17.078</ele>
        <time>2015-06-18T14:25:14Z</time>
      </trkpt>
      <trkpt lat="36.598459" lon="-6.230503">
        <ele>17.044</ele>
        <time>2015-06-18T14:25:16Z</time>
      </trkpt>
      <trkpt lat="36.598429" lon="-6.230458">
        <ele>17.013</ele>
        <time>2015-06-18T14:25:20Z</time>
      </trkpt>
      <trkpt lat="36.598419" lon="-6.230431">
        <ele>17.086</ele>
        <time>2015-06-18T14:25:22Z</time>
      </trkpt>
      <trkpt lat="36.598415" lon="-6.230416">
        <ele>17.058</ele>
        <time>2015-06-18T14:25:23Z</time>
      </trkpt>
      <trkpt lat="36.598405" lon="-6.230332">
        <ele>17.031</ele>
        <time>2015-06-18T14:25:27Z</time>
      </trkpt>
      <trkpt lat="36.598386" lon="-6.230253">
        <ele>17.085</ele>
        <time>2015-06-18T14:25:30Z</time>
      </trkpt>
      <trkpt lat="36.598314" lon="-6.230120">
        <ele>17.087</ele>
        <time>2015-06-18T14:25:34Z</time>
      </trkpt>
      <trkpt lat="36.598269" lon="-6.230071">
        <ele>17.042</ele>
        <time>2015-06-18T14:25:36Z</time>
      </trkpt>
      <trkpt lat="36.598217" lon="-6.230003">
        <ele>17.026</ele>
        <time>2015-06-18T14:25:39Z</time>
      </trkpt>
      <trkpt lat="36.598185" lon="-6.229940">
        <ele>17.008</ele>
        <time>2015-06-18T14:25:41Z</time>
      </trkpt>
      <trkpt lat="36.598175" lon="-6.229911">
        <ele>17.079</ele>
        <time>2015-06-18T14:25:42Z</time>
      </trkpt>
      <trkpt lat="36.598150" lon="-6.229806">
        <ele>17.075</ele>
        <time>2015-06-18T14:25:45Z</time>
      </trkpt>
      <trkpt lat="36.598077" lon="-6.229688">
        <ele>17.011</ele>
        <time>2015-06-18T14:25:47Z</time>
      </trkpt>
      <trkpt lat="36.598035" lon="-6.229633">
        <ele>17.040</ele>
        <time>2015-06-18T14:25:48Z</time>
      </trkpt>
      <trkpt lat="36.597912" lon="-6.229439">
        <ele>17.053</ele>
        <time>2015-06-18T14:25:52Z</time>
      </trkpt>
      <trkpt lat="36.597864" lon="-6.229389">
        <ele>17.035</ele>
        <time>2015-06-18T14:25:54Z</time>
      </trkpt>
      <trkpt lat="36.597724" lon="-6.229300">
        <ele>17.098</ele>
        <time>2015-06-18T14:25:57Z</time>
      </trkpt>
      <trkpt lat="36.597714" lon="-6.229289">
        <ele>17.032</ele>
        <time>2015-06-18T14:26:01Z</time>
      </trkpt>
      <trkpt lat="36.597667" lon="-6.229295">
        <ele>17.043</ele>
        <time>2015-06-18T14:26:03Z</time>
      </trkpt>
      <trkpt lat="36.597629" lon="-6.229246">
        <ele>14.864</ele>
        <time>2015-06-18T14:26:22Z</time>
      </trkpt>
      <trkpt lat="36.597659" lon="-6.229183">
        <ele>14.810</ele>
        <time>2015-06-18T14:26:24Z</time>
      </trkpt>
      <trkpt lat="36.597657" lon="-6.229159">
        <ele>14.808</ele>
        <time>2015-06-18T14:26:25Z</time>
      </trkpt>
      <trkpt lat="36.597622" lon="-6.229064">
        <ele>14.865</ele>
        <time>2015-06-18T14:26:28Z</time>
      </trkpt>
      <trkpt lat="36.597581" lon="-6.228997">
        <ele>14.831</ele>
        <time>2015-06-18T14:26:30Z</time>
      </trkpt>
      <trkpt lat="36.597426" lon="-6.228775">
        <ele>14.867</ele>
        <time>2015-06-18T14:26:35Z</time>
      </trkpt>
      <trkpt lat="36.597380" lon="-6.228713">
        <ele>14.896</ele>
        <time>2015-06-18T14:26:36Z</time>
      </trkpt>
      <trkpt lat="36.597254" lon="-6.228531">
        <ele>14.829</ele>
        <time>2015-06-18T14:26:40Z</time>
      </trkpt>
      <trkpt lat="36.597192" lon="-6.228430">
        <ele>14.871</ele>
        <time>2015-06-18T14:26:42Z</time>
      </trkpt>
      <trkpt lat="36.597164" lon="-6.228386">
        <ele>14.864</ele>
        <time>2015-06-18T14:26:43Z</time>
      </trkpt>
      <trkpt lat="36.596975" lon="-6.228046">
        <ele>14.838</ele>
        <time>2015-06-18T14:26:51Z</time>
      </trkpt>
      <trkpt lat="36.596862" lon="-6.227853">
        <ele>14.814</ele>
        <time>2015-06-18T14:26:57Z</time>
      </trkpt>
      <trkpt lat="36.596725" lon="-6.227615">
        <ele>14.854</ele>
        <time>2015-06-18T14:27:04Z</time>
      </trkpt>
      <trkpt lat="36.596546" lon="-6.227366">
        <ele>14.809</ele>
        <time>2015-06-18T14:27:11Z</time>
      </trkpt>
      <trkpt lat="36.596404" lon="-6.227128">
        <ele>14.808</ele>
        <time>2015-06-18T14:27:17Z</time>
      </trkpt>
      <trkpt lat="36.596331" lon="-6.226989">
        <ele>14.892</ele>
        <time>2015-06-18T14:27:20Z</time>
      </trkpt>
      <trkpt lat="36.596230" lon="-6.226856">
        <ele>14.868</ele>
        <time>2015-06-18T14:27:23Z</time>
      </trkpt>
      <trkpt lat="36.595966" lon="-6.226391">
        <ele>14.474</ele>
        <time>2015-06-18T14:27:31Z</time>
      </trkpt>
      <trkpt lat="36.595929" lon="-6.226343">
        <ele>13.863</ele>
        <time>2015-06-18T14:27:32Z</time>
      </trkpt>
      <trkpt lat="36.595895" lon="-6.226299">
        <ele>13.466</ele>
        <time>2015-06-18T14:27:33Z</time>
      </trkpt>
      <trkpt lat="36.595869" lon="-6.226258">
        <ele>13.098</ele>
        <time>2015-06-18T14:27:34Z</time>
      </trkpt>
      <trkpt lat="36.595845" lon="-6.226224">
        <ele>12.651</ele>
        <time>2015-06-18T14:27:35Z</time>
      </trkpt>
      <trkpt lat="36.595818" lon="-6.226161">
        <ele>12.685</ele>
        <time>2015-06-18T14:27:37Z</time>
      </trkpt>
      <trkpt lat="36.595800" lon="-6.226103">
        <ele>12.653</ele>
        <time>2015-06-18T14:27:39Z</time>
      </trkpt>
      <trkpt lat="36.595805" lon="-6.226048">
        <ele>12.204</ele>
        <time>2015-06-18T14:27:41Z</time>
      </trkpt>
      <trkpt lat="36.595817" lon="-6.226027">
        <ele>11.814</ele>
        <time>2015-06-18T14:27:42Z</time>
      </trkpt>
      <trkpt lat="36.595841" lon="-6.226010">
        <ele>11.208</ele>
        <time>2015-06-18T14:27:43Z</time>
      </trkpt>
      <trkpt lat="36.595867" lon="-6.225985">
        <ele>10.886</ele>
        <time>2015-06-18T14:27:44Z</time>
      </trkpt>
      <trkpt lat="36.595897" lon="-6.225957">
        <ele>10.492</ele>
        <time>2015-06-18T14:27:45Z</time>
      </trkpt>
      <trkpt lat="36.595977" lon="-6.225872">
        <ele>10.458</ele>
        <time>2015-06-18T14:27:48Z</time>
      </trkpt>
      <trkpt lat="36.596029" lon="-6.225831">
        <ele>10.487</ele>
        <time>2015-06-18T14:27:50Z</time>
      </trkpt>
      <trkpt lat="36.596082" lon="-6.225781">
        <ele>10.430</ele>
        <time>2015-06-18T14:27:53Z</time>
      </trkpt>
      <trkpt lat="36.596157" lon="-6.225696">
        <ele>10.472</ele>
        <time>2015-06-18T14:27:57Z</time>
      </trkpt>
      <trkpt lat="36.596177" lon="-6.225672">
        <ele>10.425</ele>
        <time>2015-06-18T14:27:58Z</time>
      </trkpt>
      <trkpt lat="36.596260" lon="-6.225567">
        <ele>10.479</ele>
        <time>2015-06-18T14:28:04Z</time>
      </trkpt>
      <trkpt lat="36.596324" lon="-6.225495">
        <ele>10.473</ele>
        <time>2015-06-18T14:28:09Z</time>
      </trkpt>
      <trkpt lat="36.596397" lon="-6.225400">
        <ele>10.485</ele>
        <time>2015-06-18T14:28:13Z</time>
      </trkpt>
      <trkpt lat="36.596415" lon="-6.225376">
        <ele>10.413</ele>
        <time>2015-06-18T14:28:14Z</time>
      </trkpt>
      <trkpt lat="36.596496" lon="-6.225289">
        <ele>10.408</ele>
        <time>2015-06-18T14:28:18Z</time>
      </trkpt>
      <trkpt lat="36.596660" lon="-6.225110">
        <ele>10.438</ele>
        <time>2015-06-18T14:28:24Z</time>
      </trkpt>
      <trkpt lat="36.596867" lon="-6.224911">
        <ele>10.424</ele>
        <time>2015-06-18T14:28:32Z</time>
      </trkpt>
      <trkpt lat="36.597045" lon="-6.224749">
        <ele>10.450</ele>
        <time>2015-06-18T14:28:38Z</time>
      </trkpt>
      <trkpt lat="36.597186" lon="-6.224617">
        <ele>10.499</ele>
        <time>2015-06-18T14:28:44Z</time>
      </trkpt>
      <trkpt lat="36.597335" lon="-6.224507">
        <ele>10.462</ele>
        <time>2015-06-18T14:28:50Z</time>
      </trkpt>
      <trkpt lat="36.597486" lon="-6.224375">
        <ele>10.414</ele>
        <time>2015-06-18T14:28:57Z</time>
      </trkpt>
      <trkpt lat="36.597610" lon="-6.224292">
        <ele>10.437</ele>
        <time>2015-06-18T14:29:02Z</time>
      </trkpt>
      <trkpt lat="36.597699" lon="-6.224205">
        <ele>10.421</ele>
        <time>2015-06-18T14:29:06Z</time>
      </trkpt>
      <trkpt lat="36.597728" lon="-6.224199">
        <ele>10.413</ele>
        <time>2015-06-18T14:29:07Z</time>
      </trkpt>
      <trkpt lat="36.597753" lon="-6.224199">
        <ele>10.443</ele>
        <time>2015-06-18T14:29:08Z</time>
      </trkpt>
      <trkpt lat="36.597789" lon="-6.224159">
        <ele>10.407</ele>
        <time>2015-06-18T14:29:10Z</time>
      </trkpt>
      <trkpt lat="36.597805" lon="-6.224126">
        <ele>10.408</ele>
        <time>2015-06-18T14:29:11Z</time>
      </trkpt>
      <trkpt lat="36.597908" lon="-6.224011">
        <ele>10.462</ele>
        <time>2015-06-18T14:29:15Z</time>
      </trkpt>
      <trkpt lat="36.597938" lon="-6.223986">
        <ele>10.498</ele>
        <time>2015-06-18T14:29:16Z</time>
      </trkpt>
      <trkpt lat="36.598061" lon="-6.223864">
        <ele>10.474</ele>
        <time>2015-06-18T14:29:20Z</time>
      </trkpt>
      <trkpt lat="36.598124" lon="-6.223794">
        <ele>10.433</ele>
        <time>2015-06-18T14:29:22Z</time>
      </trkpt>
      <trkpt lat="36.598157" lon="-6.223759">
        <ele>10.476</ele>
        <time>2015-06-18T14:29:23Z</time>
      </trkpt>
      <trkpt lat="36.598254" lon="-6.223660">
        <ele>10.488</ele>
        <time>2015-06-18T14:29:26Z</time>
      </trkpt>
      <trkpt lat="36.598403" lon="-6.223520">
        <ele>10.491</ele>
        <time>2015-06-18T14:29:31Z</time>
      </trkpt>
      <trkpt lat="36.598542" lon="-6.223406">
        <ele>10.415</ele>
        <time>2015-06-18T14:29:35Z</time>
      </trkpt>
      <trkpt lat="36.598612" lon="-6.223345">
        <ele>10.415</ele>
        <time>2015-06-18T14:29:37Z</time>
      </trkpt>
      <trkpt lat="36.598750" lon="-6.223217">
        <ele>10.465</ele>
        <time>2015-06-18T14:29:41Z</time>
      </trkpt>
      <trkpt lat="36.598822" lon="-6.223147">
        <ele>10.411</ele>
        <time>2015-06-18T14:29:43Z</time>
      </trkpt>
      <trkpt lat="36.599060" lon="-6.222952">
        <ele>10.408</ele>
        <time>2015-06-18T14:29:49Z</time>
      </trkpt>
      <trkpt lat="36.599303" lon="-6.222727">
        <ele>10.472</ele>
        <time>2015-06-18T14:29:56Z</time>
      </trkpt>
      <trkpt lat="36.599474" lon="-6.222551">
        <ele>10.428</ele>
        <time>2015-06-18T14:30:02Z</time>
      </trkpt>
      <trkpt lat="36.599569" lon="-6.222478">
        <ele>10.494</ele>
        <time>2015-06-18T14:30:05Z</time>
      </trkpt>
      <trkpt lat="36.599672" lon="-6.222402">
        <ele>10.413</ele>
        <time>2015-06-18T14:30:08Z</time>
      </trkpt>
      <trkpt lat="36.599701" lon="-6.222368">
        <ele>10.426</ele>
        <time>2015-06-18T14:30:09Z</time>
      </trkpt>
      <trkpt lat="36.599848" lon="-6.222199">
        <ele>10.438</ele>
        <time>2015-06-18T14:30:14Z</time>
      </trkpt>
      <trkpt lat="36.599871" lon="-6.222046">
        <ele>10.471</ele>
        <time>2015-06-18T14:30:18Z</time>
      </trkpt>
      <trkpt lat="36.599838" lon="-6.221941">
        <ele>10.435</ele>
        <time>2015-06-18T14:30:21Z</time>
      </trkpt>
      <trkpt lat="36.599805" lon="-6.221884">
        <ele>10.415</ele>
        <time>2015-06-18T14:30:23Z</time>
      </trkpt>
      <trkpt lat="36.599757" lon="-6.221792">
        <ele>10.465</ele>
        <time>2015-06-18T14:30:26Z</time>
      </trkpt>
      <trkpt lat="36.599708" lon="-6.221697">
        <ele>10.411</ele>
        <time>2015-06-18T14:30:29Z</time>
      </trkpt>
      <trkpt lat="36.599693" lon="-6.221665">
        <ele>10.408</ele>
        <time>2015-06-18T14:30:30Z</time>
      </trkpt>
      <trkpt lat="36.599663" lon="-6.221610">
        <ele>10.472</ele>
        <time>2015-06-18T14:30:32Z</time>
      </trkpt>
      <trkpt lat="36.599649" lon="-6.221581">
        <ele>10.848</ele>
        <time>2015-06-18T14:30:33Z</time>
      </trkpt>
      <trkpt lat="36.599637" lon="-6.221553">
        <ele>11.264</ele>
        <time>2015-06-18T14:30:34Z</time>
      </trkpt>
      <trkpt lat="36.599624" lon="-6.221524">
        <ele>11.613</ele>
        <time>2015-06-18T14:30:35Z</time>
      </trkpt>
      <trkpt lat="36.599612" lon="-6.221495">
        <ele>12.066</ele>
        <time>2015-06-18T14:30:36Z</time>
      </trkpt>
      <trkpt lat="36.599597" lon="-6.221462">
        <ele>12.628</ele>
        <time>2015-06-18T14:30:37Z</time>
      </trkpt>
      <trkpt lat="36.599564" lon="-6.221398">
        <ele>12.631</ele>
        <time>2015-06-18T14:30:39Z</time>
      </trkpt>
      <trkpt lat="36.599460" lon="-6.221172">
        <ele>12.645</ele>
        <time>2015-06-18T14:30:44Z</time>
      </trkpt>
      <trkpt lat="36.599274" lon="-6.220887">
        <ele>12.698</ele>
        <time>2015-06-18T14:30:49Z</time>
      </trkpt>
      <trkpt lat="36.599193" lon="-6.220800">
        <ele>12.015</ele>
        <time>2015-06-18T14:30:51Z</time>
      </trkpt>
      <trkpt lat="36.599145" lon="-6.220769">
        <ele>11.626</ele>
        <time>2015-06-18T14:30:52Z</time>
      </trkpt>
      <trkpt lat="36.599097" lon="-6.220751">
        <ele>11.208</ele>
        <time>2015-06-18T14:30:53Z</time>
      </trkpt>
      <trkpt lat="36.599049" lon="-6.220740">
        <ele>10.890</ele>
        <time>2015-06-18T14:30:54Z</time>
      </trkpt>
      <trkpt lat="36.599002" lon="-6.220734">
        <ele>10.436</ele>
        <time>2015-06-18T14:30:55Z</time>
      </trkpt>
      <trkpt lat="36.598954" lon="-6.220732">
        <ele>10.442</ele>
        <time>2015-06-18T14:30:56Z</time>
      </trkpt>
      <trkpt lat="36.598857" lon="-6.220730">
        <ele>10.451</ele>
        <time>2015-06-18T14:30:58Z</time>
      </trkpt>
      <trkpt lat="36.598527" lon="-6.220789">
        <ele>10.414</ele>
        <time>2015-06-18T14:31:05Z</time>
      </trkpt>
      <trkpt lat="36.598445" lon="-6.220794">
        <ele>10.416</ele>
        <time>2015-06-18T14:31:07Z</time>
      </trkpt>
      <trkpt lat="36.598361" lon="-6.220773">
        <ele>10.439</ele>
        <time>2015-06-18T14:31:09Z</time>
      </trkpt>
      <trkpt lat="36.598279" lon="-6.220766">
        <ele>10.433</ele>
        <time>2015-06-18T14:31:11Z</time>
      </trkpt>
      <trkpt lat="36.598146" lon="-6.220766">
        <ele>10.456</ele>
        <time>2015-06-18T14:31:14Z</time>
      </trkpt>
      <trkpt lat="36.597956" lon="-6.220783">
        <ele>10.459</ele>
        <time>2015-06-18T14:31:18Z</time>
      </trkpt>
      <trkpt lat="36.597909" lon="-6.220799">
        <ele>10.414</ele>
        <time>2015-06-18T14:31:19Z</time>
      </trkpt>
      <trkpt lat="36.597730" lon="-6.220878">
        <ele>10.408</ele>
        <time>2015-06-18T14:31:23Z</time>
      </trkpt>
      <trkpt lat="36.597639" lon="-6.220909">
        <ele>10.426</ele>
        <time>2015-06-18T14:31:25Z</time>
      </trkpt>
      <trkpt lat="36.597594" lon="-6.220904">
        <ele>10.452</ele>
        <time>2015-06-18T14:31:26Z</time>
      </trkpt>
      <trkpt lat="36.597446" lon="-6.220913">
        <ele>10.468</ele>
        <time>2015-06-18T14:31:30Z</time>
      </trkpt>
      <trkpt lat="36.597293" lon="-6.220987">
        <ele>10.427</ele>
        <time>2015-06-18T14:31:34Z</time>
      </trkpt>
      <trkpt lat="36.597212" lon="-6.221040">
        <ele>10.430</ele>
        <time>2015-06-18T14:31:36Z</time>
      </trkpt>
      <trkpt lat="36.596956" lon="-6.221150">
        <ele>10.442</ele>
        <time>2015-06-18T14:31:42Z</time>
      </trkpt>
      <trkpt lat="36.596767" lon="-6.221233">
        <ele>10.485</ele>
        <time>2015-06-18T14:31:48Z</time>
      </trkpt>
      <trkpt lat="36.596597" lon="-6.221301">
        <ele>10.449</ele>
        <time>2015-06-18T14:31:54Z</time>
      </trkpt>
      <trkpt lat="36.596352" lon="-6.221421">
        <ele>10.423</ele>
        <time>2015-06-18T14:32:01Z</time>
      </trkpt>
      <trkpt lat="36.596199" lon="-6.221481">
        <ele>10.483</ele>
        <time>2015-06-18T14:32:05Z</time>
      </trkpt>
      <trkpt lat="36.596032" lon="-6.221549">
        <ele>10.411</ele>
        <time>2015-06-18T14:32:09Z</time>
      </trkpt>
      <trkpt lat="36.595653" lon="-6.221709">
        <ele>10.408</ele>
        <time>2015-06-18T14:32:18Z</time>
      </trkpt>
      <trkpt lat="36.595372" lon="-6.221824">
        <ele>10.493</ele>
        <time>2015-06-18T14:32:24Z</time>
      </trkpt>
      <trkpt lat="36.595041" lon="-6.221962">
        <ele>10.419</ele>
        <time>2015-06-18T14:32:31Z</time>
      </trkpt>
      <trkpt lat="36.594996" lon="-6.221991">
        <ele>10.485</ele>
        <time>2015-06-18T14:32:32Z</time>
      </trkpt>
      <trkpt lat="36.594644" lon="-6.222160">
        <ele>10.484</ele>
        <time>2015-06-18T14:32:40Z</time>
      </trkpt>
      <trkpt lat="36.594475" lon="-6.222254">
        <ele>10.477</ele>
        <time>2015-06-18T14:32:45Z</time>
      </trkpt>
      <trkpt lat="36.594449" lon="-6.222296">
        <ele>10.439</ele>
        <time>2015-06-18T14:32:46Z</time>
      </trkpt>
      <trkpt lat="36.594401" lon="-6.222448">
        <ele>10.492</ele>
        <time>2015-06-18T14:32:49Z</time>
      </trkpt>
      <trkpt lat="36.594281" lon="-6.222622">
        <ele>10.446</ele>
        <time>2015-06-18T14:32:53Z</time>
      </trkpt>
      <trkpt lat="36.594195" lon="-6.222660">
        <ele>10.463</ele>
        <time>2015-06-18T14:32:55Z</time>
      </trkpt>
      <trkpt lat="36.594111" lon="-6.222672">
        <ele>10.444</ele>
        <time>2015-06-18T14:32:57Z</time>
      </trkpt>
      <trkpt lat="36.594072" lon="-6.222679">
        <ele>10.418</ele>
        <time>2015-06-18T14:32:58Z</time>
      </trkpt>
      <trkpt lat="36.594038" lon="-6.222658">
        <ele>10.408</ele>
        <time>2015-06-18T14:32:59Z</time>
      </trkpt>
      <trkpt lat="36.593981" lon="-6.222597">
        <ele>10.457</ele>
        <time>2015-06-18T14:33:01Z</time>
      </trkpt>
      <trkpt lat="36.593884" lon="-6.222539">
        <ele>10.453</ele>
        <time>2015-06-18T14:33:04Z</time>
      </trkpt>
      <trkpt lat="36.593847" lon="-6.222527">
        <ele>10.439</ele>
        <time>2015-06-18T14:33:05Z</time>
      </trkpt>
      <trkpt lat="36.593808" lon="-6.222519">
        <ele>10.458</ele>
        <time>2015-06-18T14:33:06Z</time>
      </trkpt>
      <trkpt lat="36.593648" lon="-6.222537">
        <ele>10.461</ele>
        <time>2015-06-18T14:33:10Z</time>
      </trkpt>
      <trkpt lat="36.593611" lon="-6.222557">
        <ele>10.413</ele>
        <time>2015-06-18T14:33:11Z</time>
      </trkpt>
      <trkpt lat="36.593442" lon="-6.222633">
        <ele>10.426</ele>
        <time>2015-06-18T14:33:15Z</time>
      </trkpt>
      <trkpt lat="36.593258" lon="-6.222712">
        <ele>10.490</ele>
        <time>2015-06-18T14:33:19Z</time>
      </trkpt>
      <trkpt lat="36.593169" lon="-6.222759">
        <ele>10.499</ele>
        <time>2015-06-18T14:33:21Z</time>
      </trkpt>
      <trkpt lat="36.592990" lon="-6.222847">
        <ele>10.407</ele>
        <time>2015-06-18T14:33:25Z</time>
      </trkpt>
      <trkpt lat="36.592667" lon="-6.222968">
        <ele>10.427</ele>
        <time>2015-06-18T14:33:32Z</time>
      </trkpt>
      <trkpt lat="36.592616" lon="-6.222978">
        <ele>10.408</ele>
        <time>2015-06-18T14:33:33Z</time>
      </trkpt>
      <trkpt lat="36.592471" lon="-6.223027">
        <ele>10.440</ele>
        <time>2015-06-18T14:33:36Z</time>
      </trkpt>
      <trkpt lat="36.592338" lon="-6.223110">
        <ele>10.426</ele>
        <time>2015-06-18T14:33:39Z</time>
      </trkpt>
      <trkpt lat="36.592010" lon="-6.223252">
        <ele>10.442</ele>
        <time>2015-06-18T14:33:46Z</time>
      </trkpt>
      <trkpt lat="36.591741" lon="-6.223317">
        <ele>11.021</ele>
        <time>2015-06-18T14:33:52Z</time>
      </trkpt>
      <trkpt lat="36.591699" lon="-6.223327">
        <ele>11.444</ele>
        <time>2015-06-18T14:33:53Z</time>
      </trkpt>
      <trkpt lat="36.591656" lon="-6.223331">
        <ele>11.846</ele>
        <time>2015-06-18T14:33:54Z</time>
      </trkpt>
      <trkpt lat="36.591617" lon="-6.223335">
        <ele>12.289</ele>
        <time>2015-06-18T14:33:55Z</time>
      </trkpt>
      <trkpt lat="36.591576" lon="-6.223340">
        <ele>12.693</ele>
        <time>2015-06-18T14:33:56Z</time>
      </trkpt>
      <trkpt lat="36.591496" lon="-6.223356">
        <ele>12.668</ele>
        <time>2015-06-18T14:33:58Z</time>
      </trkpt>
      <trkpt lat="36.591456" lon="-6.223355">
        <ele>12.642</ele>
        <time>2015-06-18T14:33:59Z</time>
      </trkpt>
      <trkpt lat="36.591245" lon="-6.223369">
        <ele>12.626</ele>
        <time>2015-06-18T14:34:04Z</time>
      </trkpt>
      <trkpt lat="36.591160" lon="-6.223362">
        <ele>12.608</ele>
        <time>2015-06-18T14:34:06Z</time>
      </trkpt>
      <trkpt lat="36.590986" lon="-6.223356">
        <ele>12.667</ele>
        <time>2015-06-18T14:34:10Z</time>
      </trkpt>
      <trkpt lat="36.590864" lon="-6.223340">
        <ele>12.623</ele>
        <time>2015-06-18T14:34:13Z</time>
      </trkpt>
      <trkpt lat="36.590703" lon="-6.223313">
        <ele>12.619</ele>
        <time>2015-06-18T14:34:17Z</time>
      </trkpt>
      <trkpt lat="36.590398" lon="-6.223214">
        <ele>12.658</ele>
        <time>2015-06-18T14:34:24Z</time>
      </trkpt>
      <trkpt lat="36.590001" lon="-6.223024">
        <ele>12.681</ele>
        <time>2015-06-18T14:34:33Z</time>
      </trkpt>
      <trkpt lat="36.589721" lon="-6.222826">
        <ele>12.653</ele>
        <time>2015-06-18T14:34:40Z</time>
      </trkpt>
      <trkpt lat="36.589684" lon="-6.222796">
        <ele>12.646</ele>
        <time>2015-06-18T14:34:41Z</time>
      </trkpt>
      <trkpt lat="36.589383" lon="-6.222539">
        <ele>12.690</ele>
        <time>2015-06-18T14:34:49Z</time>
      </trkpt>
      <trkpt lat="36.589161" lon="-6.222344">
        <ele>12.676</ele>
        <time>2015-06-18T14:34:55Z</time>
      </trkpt>
      <trkpt lat="36.589087" lon="-6.222280">
        <ele>12.690</ele>
        <time>2015-06-18T14:34:57Z</time>
      </trkpt>
      <trkpt lat="36.588883" lon="-6.222100">
        <ele>12.619</ele>
        <time>2015-06-18T14:35:03Z</time>
      </trkpt>
      <trkpt lat="36.588852" lon="-6.222070">
        <ele>12.608</ele>
        <time>2015-06-18T14:35:04Z</time>
      </trkpt>
      <trkpt lat="36.588663" lon="-6.221904">
        <ele>12.628</ele>
        <time>2015-06-18T14:35:10Z</time>
      </trkpt>
      <trkpt lat="36.588521" lon="-6.221785">
        <ele>12.614</ele>
        <time>2015-06-18T14:35:14Z</time>
      </trkpt>
      <trkpt lat="36.588436" lon="-6.221759">
        <ele>12.630</ele>
        <time>2015-06-18T14:35:16Z</time>
      </trkpt>
      <trkpt lat="36.588336" lon="-6.221678">
        <ele>12.649</ele>
        <time>2015-06-18T14:35:19Z</time>
      </trkpt>
      <trkpt lat="36.588300" lon="-6.221649">
        <ele>12.642</ele>
        <time>2015-06-18T14:35:20Z</time>
      </trkpt>
      <trkpt lat="36.588155" lon="-6.221506">
        <ele>12.664</ele>
        <time>2015-06-18T14:35:24Z</time>
      </trkpt>
      <trkpt lat="36.588140" lon="-6.221456">
        <ele>12.697</ele>
        <time>2015-06-18T14:35:25Z</time>
      </trkpt>
      <trkpt lat="36.588045" lon="-6.221354">
        <ele>12.621</ele>
        <time>2015-06-18T14:35:28Z</time>
      </trkpt>
      <trkpt lat="36.588008" lon="-6.221323">
        <ele>12.634</ele>
        <time>2015-06-18T14:35:29Z</time>
      </trkpt>
      <trkpt lat="36.587714" lon="-6.221075">
        <ele>12.655</ele>
        <time>2015-06-18T14:35:37Z</time>
      </trkpt>
      <trkpt lat="36.587481" lon="-6.220880">
        <ele>12.610</ele>
        <time>2015-06-18T14:35:44Z</time>
      </trkpt>
      <trkpt lat="36.587323" lon="-6.220756">
        <ele>12.608</ele>
        <time>2015-06-18T14:35:49Z</time>
      </trkpt>
      <trkpt lat="36.587182" lon="-6.220663">
        <ele>12.614</ele>
        <time>2015-06-18T14:35:53Z</time>
      </trkpt>
      <trkpt lat="36.587173" lon="-6.220612">
        <ele>12.660</ele>
        <time>2015-06-18T14:35:54Z</time>
      </trkpt>
      <trkpt lat="36.587089" lon="-6.220532">
        <ele>12.656</ele>
        <time>2015-06-18T14:35:57Z</time>
      </trkpt>
      <trkpt lat="36.586903" lon="-6.220370">
        <ele>12.695</ele>
        <time>2015-06-18T14:36:03Z</time>
      </trkpt>
      <trkpt lat="36.586623" lon="-6.220128">
        <ele>12.668</ele>
        <time>2015-06-18T14:36:11Z</time>
      </trkpt>
      <trkpt lat="36.586339" lon="-6.219890">
        <ele>12.630</ele>
        <time>2015-06-18T14:36:19Z</time>
      </trkpt>
      <trkpt lat="36.586030" lon="-6.219623">
        <ele>12.693</ele>
        <time>2015-06-18T14:36:28Z</time>
      </trkpt>
      <trkpt lat="36.585796" lon="-6.219422">
        <ele>12.617</ele>
        <time>2015-06-18T14:36:35Z</time>
      </trkpt>
      <trkpt lat="36.585513" lon="-6.219174">
        <ele>12.649</ele>
        <time>2015-06-18T14:36:44Z</time>
      </trkpt>
      <trkpt lat="36.585256" lon="-6.218953">
        <ele>12.602</ele>
        <time>2015-06-18T14:36:52Z</time>
      </trkpt>
      <trkpt lat="36.584938" lon="-6.218690">
        <ele>12.622</ele>
        <time>2015-06-18T14:37:02Z</time>
      </trkpt>
      <trkpt lat="36.584754" lon="-6.218557">
        <ele>12.608</ele>
        <time>2015-06-18T14:37:08Z</time>
      </trkpt>
      <trkpt lat="36.584620" lon="-6.218466">
        <ele>12.645</ele>
        <time>2015-06-18T14:37:13Z</time>
      </trkpt>
      <trkpt lat="36.584490" lon="-6.218314">
        <ele>12.641</ele>
        <time>2015-06-18T14:37:18Z</time>
      </trkpt>
      <trkpt lat="36.584313" lon="-6.218166">
        <ele>12.687</ele>
        <time>2015-06-18T14:37:24Z</time>
      </trkpt>
      <trkpt lat="36.584143" lon="-6.218153">
        <ele>12.696</ele>
        <time>2015-06-18T14:37:29Z</time>
      </trkpt>
      <trkpt lat="36.584036" lon="-6.218167">
        <ele>12.669</ele>
        <time>2015-06-18T14:37:33Z</time>
      </trkpt>
      <trkpt lat="36.584023" lon="-6.218184">
        <ele>12.611</ele>
        <time>2015-06-18T14:37:34Z</time>
      </trkpt>
      <trkpt lat="36.583926" lon="-6.218145">
        <ele>12.684</ele>
        <time>2015-06-18T14:37:38Z</time>
      </trkpt>
      <trkpt lat="36.583870" lon="-6.218016">
        <ele>12.638</ele>
        <time>2015-06-18T14:37:42Z</time>
      </trkpt>
      <trkpt lat="36.583884" lon="-6.217941">
        <ele>12.648</ele>
        <time>2015-06-18T14:37:44Z</time>
      </trkpt>
      <trkpt lat="36.583872" lon="-6.217902">
        <ele>12.261</ele>
        <time>2015-06-18T14:37:45Z</time>
      </trkpt>
      <trkpt lat="36.583860" lon="-6.217865">
        <ele>11.817</ele>
        <time>2015-06-18T14:37:46Z</time>
      </trkpt>
      <trkpt lat="36.583848" lon="-6.217829">
        <ele>11.208</ele>
        <time>2015-06-18T14:37:47Z</time>
      </trkpt>
      <trkpt lat="36.583839" lon="-6.217791">
        <ele>10.835</ele>
        <time>2015-06-18T14:37:48Z</time>
      </trkpt>
      <trkpt lat="36.583817" lon="-6.217757">
        <ele>10.421</ele>
        <time>2015-06-18T14:37:49Z</time>
      </trkpt>
      <trkpt lat="36.583764" lon="-6.217709">
        <ele>10.477</ele>
        <time>2015-06-18T14:37:51Z</time>
      </trkpt>
      <trkpt lat="36.583558" lon="-6.217597">
        <ele>10.446</ele>
        <time>2015-06-18T14:37:57Z</time>
      </trkpt>
      <trkpt lat="36.583406" lon="-6.217479">
        <ele>10.499</ele>
        <time>2015-06-18T14:38:02Z</time>
      </trkpt>
      <trkpt lat="36.583200" lon="-6.217324">
        <ele>10.451</ele>
        <time>2015-06-18T14:38:08Z</time>
      </trkpt>
      <trkpt lat="36.583100" lon="-6.217244">
        <ele>10.884</ele>
        <time>2015-06-18T14:38:11Z</time>
      </trkpt>
      <trkpt lat="36.583069" lon="-6.217217">
        <ele>11.248</ele>
        <time>2015-06-18T14:38:12Z</time>
      </trkpt>
      <trkpt lat="36.583032" lon="-6.217195">
        <ele>11.627</ele>
        <time>2015-06-18T14:38:13Z</time>
      </trkpt>
      <trkpt lat="36.583000" lon="-6.217171">
        <ele>12.068</ele>
        <time>2015-06-18T14:38:14Z</time>
      </trkpt>
      <trkpt lat="36.582971" lon="-6.217146">
        <ele>12.414</ele>
        <time>2015-06-18T14:38:15Z</time>
      </trkpt>
      <trkpt lat="36.582839" lon="-6.217015">
        <ele>12.408</ele>
        <time>2015-06-18T14:38:20Z</time>
      </trkpt>
      <trkpt lat="36.582683" lon="-6.216875">
        <ele>12.413</ele>
        <time>2015-06-18T14:38:25Z</time>
      </trkpt>
      <trkpt lat="36.582655" lon="-6.216845">
        <ele>12.489</ele>
        <time>2015-06-18T14:38:26Z</time>
      </trkpt>
      <trkpt lat="36.582403" lon="-6.216636">
        <ele>12.445</ele>
        <time>2015-06-18T14:38:34Z</time>
      </trkpt>
      <trkpt lat="36.582104" lon="-6.216373">
        <ele>12.424</ele>
        <time>2015-06-18T14:38:43Z</time>
      </trkpt>
      <trkpt lat="36.581844" lon="-6.216159">
        <ele>12.477</ele>
        <time>2015-06-18T14:38:51Z</time>
      </trkpt>
      <trkpt lat="36.581667" lon="-6.216023">
        <ele>12.489</ele>
        <time>2015-06-18T14:38:57Z</time>
      </trkpt>
      <trkpt lat="36.581472" lon="-6.215852">
        <ele>12.482</ele>
        <time>2015-06-18T14:39:03Z</time>
      </trkpt>
      <trkpt lat="36.581211" lon="-6.215616">
        <ele>12.496</ele>
        <time>2015-06-18T14:39:11Z</time>
      </trkpt>
      <trkpt lat="36.580984" lon="-6.215440">
        <ele>12.447</ele>
        <time>2015-06-18T14:39:18Z</time>
      </trkpt>
      <trkpt lat="36.580831" lon="-6.215299">
        <ele>12.429</ele>
        <time>2015-06-18T14:39:23Z</time>
      </trkpt>
      <trkpt lat="36.580628" lon="-6.215118">
        <ele>12.421</ele>
        <time>2015-06-18T14:39:30Z</time>
      </trkpt>
      <trkpt lat="36.580348" lon="-6.214882">
        <ele>12.408</ele>
        <time>2015-06-18T14:39:39Z</time>
      </trkpt>
      <trkpt lat="36.580148" lon="-6.214754">
        <ele>12.445</ele>
        <time>2015-06-18T14:39:45Z</time>
      </trkpt>
      <trkpt lat="36.579913" lon="-6.214579">
        <ele>12.491</ele>
        <time>2015-06-18T14:39:52Z</time>
      </trkpt>
      <trkpt lat="36.579684" lon="-6.214414">
        <ele>12.487</ele>
        <time>2015-06-18T14:39:59Z</time>
      </trkpt>
      <trkpt lat="36.579392" lon="-6.214198">
        <ele>12.436</ele>
        <time>2015-06-18T14:40:08Z</time>
      </trkpt>
      <trkpt lat="36.579198" lon="-6.214060">
        <ele>12.439</ele>
        <time>2015-06-18T14:40:14Z</time>
      </trkpt>
      <trkpt lat="36.579012" lon="-6.213942">
        <ele>12.441</ele>
        <time>2015-06-18T14:40:20Z</time>
      </trkpt>
      <trkpt lat="36.578733" lon="-6.213853">
        <ele>12.414</ele>
        <time>2015-06-18T14:40:28Z</time>
      </trkpt>
      <trkpt lat="36.578661" lon="-6.213833">
        <ele>12.018</ele>
        <time>2015-06-18T14:40:30Z</time>
      </trkpt>
      <trkpt lat="36.578622" lon="-6.213808">
        <ele>11.648</ele>
        <time>2015-06-18T14:40:31Z</time>
      </trkpt>
      <trkpt lat="36.578590" lon="-6.213776">
        <ele>11.261</ele>
        <time>2015-06-18T14:40:32Z</time>
      </trkpt>
      <trkpt lat="36.578557" lon="-6.213744">
        <ele>10.817</ele>
        <time>2015-06-18T14:40:33Z</time>
      </trkpt>
      <trkpt lat="36.578524" lon="-6.213714">
        <ele>10.408</ele>
        <time>2015-06-18T14:40:34Z</time>
      </trkpt>
      <trkpt lat="36.578379" lon="-6.213521">
        <ele>10.435</ele>
        <time>2015-06-18T14:40:40Z</time>
      </trkpt>
      <trkpt lat="36.578190" lon="-6.213295">
        <ele>10.431</ele>
        <time>2015-06-18T14:40:47Z</time>
      </trkpt>
      <trkpt lat="36.578060" lon="-6.213104">
        <ele>10.497</ele>
        <time>2015-06-18T14:40:52Z</time>
      </trkpt>
      <trkpt lat="36.578034" lon="-6.213069">
        <ele>10.486</ele>
        <time>2015-06-18T14:40:53Z</time>
      </trkpt>
      <trkpt lat="36.577863" lon="-6.212931">
        <ele>10.449</ele>
        <time>2015-06-18T14:40:58Z</time>
      </trkpt>
      <trkpt lat="36.577630" lon="-6.212715">
        <ele>10.481</ele>
        <time>2015-06-18T14:41:05Z</time>
      </trkpt>
      <trkpt lat="36.577369" lon="-6.212461">
        <ele>10.444</ele>
        <time>2015-06-18T14:41:14Z</time>
      </trkpt>
      <trkpt lat="36.577176" lon="-6.212225">
        <ele>10.498</ele>
        <time>2015-06-18T14:41:21Z</time>
      </trkpt>
      <trkpt lat="36.577032" lon="-6.212038">
        <ele>10.444</ele>
        <time>2015-06-18T14:41:27Z</time>
      </trkpt>
      <trkpt lat="36.576890" lon="-6.211849">
        <ele>10.405</ele>
        <time>2015-06-18T14:41:33Z</time>
      </trkpt>
      <trkpt lat="36.576736" lon="-6.211668">
        <ele>10.415</ele>
        <time>2015-06-18T14:41:39Z</time>
      </trkpt>
      <trkpt lat="36.576562" lon="-6.211397">
        <ele>10.408</ele>
        <time>2015-06-18T14:41:47Z</time>
      </trkpt>
      <trkpt lat="36.576406" lon="-6.211097">
        <ele>10.445</ele>
        <time>2015-06-18T14:41:55Z</time>
      </trkpt>
      <trkpt lat="36.576385" lon="-6.211045">
        <ele>10.411</ele>
        <time>2015-06-18T14:41:57Z</time>
      </trkpt>
      <trkpt lat="36.576396" lon="-6.211020">
        <ele>10.467</ele>
        <time>2015-06-18T14:41:58Z</time>
      </trkpt>
      <trkpt lat="36.576398" lon="-6.210906">
        <ele>10.436</ele>
        <time>2015-06-18T14:42:02Z</time>
      </trkpt>
      <trkpt lat="36.576370" lon="-6.210840">
        <ele>10.449</ele>
        <time>2015-06-18T14:42:04Z</time>
      </trkpt>
      <trkpt lat="36.576305" lon="-6.210657">
        <ele>10.471</ele>
        <time>2015-06-18T14:42:09Z</time>
      </trkpt>
      <trkpt lat="36.576211" lon="-6.210432">
        <ele>10.434</ele>
        <time>2015-06-18T14:42:15Z</time>
      </trkpt>
      <trkpt lat="36.576121" lon="-6.210250">
        <ele>10.468</ele>
        <time>2015-06-18T14:42:21Z</time>
      </trkpt>
      <trkpt lat="36.576034" lon="-6.210077">
        <ele>10.484</ele>
        <time>2015-06-18T14:42:27Z</time>
      </trkpt>
      <trkpt lat="36.576019" lon="-6.210044">
        <ele>10.807</ele>
        <time>2015-06-18T14:42:28Z</time>
      </trkpt>
      <trkpt lat="36.576007" lon="-6.210008">
        <ele>11.217</ele>
        <time>2015-06-18T14:42:29Z</time>
      </trkpt>
      <trkpt lat="36.575991" lon="-6.209972">
        <ele>11.608</ele>
        <time>2015-06-18T14:42:30Z</time>
      </trkpt>
      <trkpt lat="36.575970" lon="-6.209940">
        <ele>12.089</ele>
        <time>2015-06-18T14:42:31Z</time>
      </trkpt>
      <trkpt lat="36.575954" lon="-6.209909">
        <ele>12.415</ele>
        <time>2015-06-18T14:42:32Z</time>
      </trkpt>
      <trkpt lat="36.575923" lon="-6.209853">
        <ele>12.431</ele>
        <time>2015-06-18T14:42:34Z</time>
      </trkpt>
      <trkpt lat="36.575841" lon="-6.209674">
        <ele>12.470</ele>
        <time>2015-06-18T14:42:40Z</time>
      </trkpt>
      <trkpt lat="36.575762" lon="-6.209523">
        <ele>12.473</ele>
        <time>2015-06-18T14:42:47Z</time>
      </trkpt>
      <trkpt lat="36.575714" lon="-6.209413">
        <ele>12.475</ele>
        <time>2015-06-18T14:42:52Z</time>
      </trkpt>
      <trkpt lat="36.575677" lon="-6.209379">
        <ele>12.468</ele>
        <time>2015-06-18T14:42:54Z</time>
      </trkpt>
      <trkpt lat="36.575657" lon="-6.209399">
        <ele>12.442</ele>
        <time>2015-06-18T14:42:55Z</time>
      </trkpt>
      <trkpt lat="36.575653" lon="-6.209434">
        <ele>12.447</ele>
        <time>2015-06-18T14:42:56Z</time>
      </trkpt>
      <trkpt lat="36.575665" lon="-6.209509">
        <ele>12.429</ele>
        <time>2015-06-18T14:42:58Z</time>
      </trkpt>
      <trkpt lat="36.575620" lon="-6.209558">
        <ele>12.421</ele>
        <time>2015-06-18T14:43:00Z</time>
      </trkpt>
      <trkpt lat="36.575596" lon="-6.209576">
        <ele>12.408</ele>
        <time>2015-06-18T14:43:01Z</time>
      </trkpt>
      <trkpt lat="36.575437" lon="-6.209705">
        <ele>12.475</ele>
        <time>2015-06-18T14:43:07Z</time>
      </trkpt>
      <trkpt lat="36.575323" lon="-6.209861">
        <ele>12.451</ele>
        <time>2015-06-18T14:43:13Z</time>
      </trkpt>
      <trkpt lat="36.575272" lon="-6.209980">
        <ele>12.427</ele>
        <time>2015-06-18T14:43:16Z</time>
      </trkpt>
      <trkpt lat="36.575226" lon="-6.210057">
        <ele>12.876</ele>
        <time>2015-06-18T14:43:18Z</time>
      </trkpt>
      <trkpt lat="36.575202" lon="-6.210093">
        <ele>13.219</ele>
        <time>2015-06-18T14:43:19Z</time>
      </trkpt>
      <trkpt lat="36.575178" lon="-6.210128">
        <ele>13.621</ele>
        <time>2015-06-18T14:43:20Z</time>
      </trkpt>
      <trkpt lat="36.575150" lon="-6.210165">
        <ele>14.074</ele>
        <time>2015-06-18T14:43:21Z</time>
      </trkpt>
      <trkpt lat="36.575122" lon="-6.210201">
        <ele>14.468</ele>
        <time>2015-06-18T14:43:22Z</time>
      </trkpt>
      <trkpt lat="36.575017" lon="-6.210365">
        <ele>14.418</ele>
        <time>2015-06-18T14:43:26Z</time>
      </trkpt>
      <trkpt lat="36.574874" lon="-6.210583">
        <ele>14.498</ele>
        <time>2015-06-18T14:43:32Z</time>
      </trkpt>
      <trkpt lat="36.574780" lon="-6.210687">
        <ele>14.417</ele>
        <time>2015-06-18T14:43:35Z</time>
      </trkpt>
      <trkpt lat="36.574680" lon="-6.210796">
        <ele>14.408</ele>
        <time>2015-06-18T14:43:38Z</time>
      </trkpt>
      <trkpt lat="36.574465" lon="-6.211006">
        <ele>14.462</ele>
        <time>2015-06-18T14:43:45Z</time>
      </trkpt>
      <trkpt lat="36.574302" lon="-6.211134">
        <ele>14.488</ele>
        <time>2015-06-18T14:43:51Z</time>
      </trkpt>
      <trkpt lat="36.574115" lon="-6.211304">
        <ele>14.454</ele>
        <time>2015-06-18T14:43:57Z</time>
      </trkpt>
      <trkpt lat="36.573801" lon="-6.211586">
        <ele>14.433</ele>
        <time>2015-06-18T14:44:06Z</time>
      </trkpt>
      <trkpt lat="36.573567" lon="-6.211784">
        <ele>14.426</ele>
        <time>2015-06-18T14:44:12Z</time>
      </trkpt>
      <trkpt lat="36.573525" lon="-6.211814">
        <ele>14.468</ele>
        <time>2015-06-18T14:44:13Z</time>
      </trkpt>
      <trkpt lat="36.573279" lon="-6.211980">
        <ele>14.481</ele>
        <time>2015-06-18T14:44:19Z</time>
      </trkpt>
      <trkpt lat="36.572961" lon="-6.212153">
        <ele>14.495</ele>
        <time>2015-06-18T14:44:27Z</time>
      </trkpt>
      <trkpt lat="36.572719" lon="-6.212262">
        <ele>14.411</ele>
        <time>2015-06-18T14:44:33Z</time>
      </trkpt>
      <trkpt lat="36.572683" lon="-6.212242">
        <ele>14.421</ele>
        <time>2015-06-18T14:44:34Z</time>
      </trkpt>
      <trkpt lat="36.572595" lon="-6.212144">
        <ele>14.403</ele>
        <time>2015-06-18T14:44:37Z</time>
      </trkpt>
      <trkpt lat="36.572570" lon="-6.212107">
        <ele>14.008</ele>
        <time>2015-06-18T14:44:38Z</time>
      </trkpt>
      <trkpt lat="36.572549" lon="-6.212075">
        <ele>12.842</ele>
        <time>2015-06-18T14:44:39Z</time>
      </trkpt>
      <trkpt lat="36.572524" lon="-6.212055">
        <ele>12.448</ele>
        <time>2015-06-18T14:44:40Z</time>
      </trkpt>
      <trkpt lat="36.572494" lon="-6.212061">
        <ele>11.844</ele>
        <time>2015-06-18T14:44:41Z</time>
      </trkpt>
      <trkpt lat="36.572456" lon="-6.212069">
        <ele>11.863</ele>
        <time>2015-06-18T14:44:42Z</time>
      </trkpt>
      <trkpt lat="36.572311" lon="-6.212166">
        <ele>11.876</ele>
        <time>2015-06-18T14:44:46Z</time>
      </trkpt>
      <trkpt lat="36.572193" lon="-6.212216">
        <ele>11.838</ele>
        <time>2015-06-18T14:44:49Z</time>
      </trkpt>
      <trkpt lat="36.572108" lon="-6.212242">
        <ele>11.831</ele>
        <time>2015-06-18T14:44:51Z</time>
      </trkpt>
      <trkpt lat="36.572021" lon="-6.212262">
        <ele>11.865</ele>
        <time>2015-06-18T14:44:53Z</time>
      </trkpt>
      <trkpt lat="36.571886" lon="-6.212271">
        <ele>12.288</ele>
        <time>2015-06-18T14:44:56Z</time>
      </trkpt>
      <trkpt lat="36.571839" lon="-6.212273">
        <ele>12.624</ele>
        <time>2015-06-18T14:44:57Z</time>
      </trkpt>
      <trkpt lat="36.571794" lon="-6.212276">
        <ele>13.026</ele>
        <time>2015-06-18T14:44:58Z</time>
      </trkpt>
      <trkpt lat="36.571750" lon="-6.212274">
        <ele>13.408</ele>
        <time>2015-06-18T14:44:59Z</time>
      </trkpt>
      <trkpt lat="36.571707" lon="-6.212275">
        <ele>13.899</ele>
        <time>2015-06-18T14:45:00Z</time>
      </trkpt>
      <trkpt lat="36.571412" lon="-6.212268">
        <ele>13.825</ele>
        <time>2015-06-18T14:45:07Z</time>
      </trkpt>
      <trkpt lat="36.571333" lon="-6.212263">
        <ele>14.281</ele>
        <time>2015-06-18T14:45:09Z</time>
      </trkpt>
      <trkpt lat="36.571298" lon="-6.212262">
        <ele>14.650</ele>
        <time>2015-06-18T14:45:10Z</time>
      </trkpt>
      <trkpt lat="36.571261" lon="-6.212260">
        <ele>15.213</ele>
        <time>2015-06-18T14:45:11Z</time>
      </trkpt>
      <trkpt lat="36.571223" lon="-6.212257">
        <ele>15.665</ele>
        <time>2015-06-18T14:45:12Z</time>
      </trkpt>
      <trkpt lat="36.571187" lon="-6.212253">
        <ele>16.048</ele>
        <time>2015-06-18T14:45:13Z</time>
      </trkpt>
      <trkpt lat="36.571150" lon="-6.212257">
        <ele>16.022</ele>
        <time>2015-06-18T14:45:14Z</time>
      </trkpt>
      <trkpt lat="36.570945" lon="-6.212242">
        <ele>16.476</ele>
        <time>2015-06-18T14:45:20Z</time>
      </trkpt>
      <trkpt lat="36.570912" lon="-6.212235">
        <ele>16.890</ele>
        <time>2015-06-18T14:45:21Z</time>
      </trkpt>
      <trkpt lat="36.570879" lon="-6.212229">
        <ele>17.219</ele>
        <time>2015-06-18T14:45:22Z</time>
      </trkpt>
      <trkpt lat="36.570845" lon="-6.212225">
        <ele>17.608</ele>
        <time>2015-06-18T14:45:23Z</time>
      </trkpt>
      <trkpt lat="36.570813" lon="-6.212220">
        <ele>18.098</ele>
        <time>2015-06-18T14:45:24Z</time>
      </trkpt>
      <trkpt lat="36.570627" lon="-6.212179">
        <ele>18.094</ele>
        <time>2015-06-18T14:45:30Z</time>
      </trkpt>
      <trkpt lat="36.570449" lon="-6.212143">
        <ele>18.070</ele>
        <time>2015-06-18T14:45:36Z</time>
      </trkpt>
      <trkpt lat="36.570361" lon="-6.212112">
        <ele>17.649</ele>
        <time>2015-06-18T14:45:39Z</time>
      </trkpt>
      <trkpt lat="36.570331" lon="-6.212105">
        <ele>17.252</ele>
        <time>2015-06-18T14:45:40Z</time>
      </trkpt>
      <trkpt lat="36.570303" lon="-6.212095">
        <ele>16.834</ele>
        <time>2015-06-18T14:45:41Z</time>
      </trkpt>
      <trkpt lat="36.570274" lon="-6.212089">
        <ele>16.457</ele>
        <time>2015-06-18T14:45:42Z</time>
      </trkpt>
      <trkpt lat="36.570244" lon="-6.212079">
        <ele>15.881</ele>
        <time>2015-06-18T14:45:43Z</time>
      </trkpt>
      <trkpt lat="36.570093" lon="-6.212041">
        <ele>15.889</ele>
        <time>2015-06-18T14:45:48Z</time>
      </trkpt>
      <trkpt lat="36.569867" lon="-6.211942">
        <ele>15.806</ele>
        <time>2015-06-18T14:45:56Z</time>
      </trkpt>
      <trkpt lat="36.569809" lon="-6.211910">
        <ele>15.426</ele>
        <time>2015-06-18T14:45:58Z</time>
      </trkpt>
      <trkpt lat="36.569785" lon="-6.211898">
        <ele>14.808</ele>
        <time>2015-06-18T14:45:59Z</time>
      </trkpt>
      <trkpt lat="36.569759" lon="-6.211878">
        <ele>14.449</ele>
        <time>2015-06-18T14:46:00Z</time>
      </trkpt>
      <trkpt lat="36.569733" lon="-6.211854">
        <ele>13.815</ele>
        <time>2015-06-18T14:46:01Z</time>
      </trkpt>
      <trkpt lat="36.569706" lon="-6.211830">
        <ele>13.441</ele>
        <time>2015-06-18T14:46:02Z</time>
      </trkpt>
      <trkpt lat="36.569678" lon="-6.211808">
        <ele>12.870</ele>
        <time>2015-06-18T14:46:03Z</time>
      </trkpt>
      <trkpt lat="36.569651" lon="-6.211787">
        <ele>12.213</ele>
        <time>2015-06-18T14:46:04Z</time>
      </trkpt>
      <trkpt lat="36.569624" lon="-6.211764">
        <ele>11.685</ele>
        <time>2015-06-18T14:46:05Z</time>
      </trkpt>
      <trkpt lat="36.569596" lon="-6.211740">
        <ele>11.298</ele>
        <time>2015-06-18T14:46:06Z</time>
      </trkpt>
      <trkpt lat="36.569432" lon="-6.211617">
        <ele>11.232</ele>
        <time>2015-06-18T14:46:12Z</time>
      </trkpt>
      <trkpt lat="36.569206" lon="-6.211445">
        <ele>11.232</ele>
        <time>2015-06-18T14:46:21Z</time>
      </trkpt>
      <trkpt lat="36.568955" lon="-6.211251">
        <ele>11.292</ele>
        <time>2015-06-18T14:46:30Z</time>
      </trkpt>
      <trkpt lat="36.568794" lon="-6.211132">
        <ele>11.211</ele>
        <time>2015-06-18T14:46:36Z</time>
      </trkpt>
      <trkpt lat="36.568622" lon="-6.210980">
        <ele>11.208</ele>
        <time>2015-06-18T14:46:43Z</time>
      </trkpt>
      <trkpt lat="36.568471" lon="-6.210851">
        <ele>11.244</ele>
        <time>2015-06-18T14:46:49Z</time>
      </trkpt>
      <trkpt lat="36.568248" lon="-6.210638">
        <ele>11.220</ele>
        <time>2015-06-18T14:46:58Z</time>
      </trkpt>
      <trkpt lat="36.568173" lon="-6.210521">
        <ele>11.226</ele>
        <time>2015-06-18T14:47:03Z</time>
      </trkpt>
      <trkpt lat="36.568167" lon="-6.210485">
        <ele>11.295</ele>
        <time>2015-06-18T14:47:04Z</time>
      </trkpt>
      <trkpt lat="36.568176" lon="-6.210362">
        <ele>10.828</ele>
        <time>2015-06-18T14:47:07Z</time>
      </trkpt>
      <trkpt lat="36.568181" lon="-6.210318">
        <ele>10.430</ele>
        <time>2015-06-18T14:47:08Z</time>
      </trkpt>
      <trkpt lat="36.568186" lon="-6.210276">
        <ele>10.063</ele>
        <time>2015-06-18T14:47:09Z</time>
      </trkpt>
      <trkpt lat="36.568185" lon="-6.210232">
        <ele>9.667</ele>
        <time>2015-06-18T14:47:10Z</time>
      </trkpt>
      <trkpt lat="36.568190" lon="-6.210189">
        <ele>9.223</ele>
        <time>2015-06-18T14:47:11Z</time>
      </trkpt>
      <trkpt lat="36.568197" lon="-6.210009">
        <ele>9.283</ele>
        <time>2015-06-18T14:47:15Z</time>
      </trkpt>
      <trkpt lat="36.568135" lon="-6.209697">
        <ele>9.211</ele>
        <time>2015-06-18T14:47:22Z</time>
      </trkpt>
      <trkpt lat="36.568051" lon="-6.209356">
        <ele>9.208</ele>
        <time>2015-06-18T14:47:29Z</time>
      </trkpt>
      <trkpt lat="36.568031" lon="-6.209312">
        <ele>9.243</ele>
        <time>2015-06-18T14:47:30Z</time>
      </trkpt>
      <trkpt lat="36.567911" lon="-6.209183">
        <ele>9.289</ele>
        <time>2015-06-18T14:47:34Z</time>
      </trkpt>
      <trkpt lat="36.567725" lon="-6.209124">
        <ele>9.615</ele>
        <time>2015-06-18T14:47:39Z</time>
      </trkpt>
      <trkpt lat="36.567690" lon="-6.209118">
        <ele>10.044</ele>
        <time>2015-06-18T14:47:40Z</time>
      </trkpt>
      <trkpt lat="36.567655" lon="-6.209115">
        <ele>10.447</ele>
        <time>2015-06-18T14:47:41Z</time>
      </trkpt>
      <trkpt lat="36.567621" lon="-6.209109">
        <ele>10.889</ele>
        <time>2015-06-18T14:47:42Z</time>
      </trkpt>
      <trkpt lat="36.567590" lon="-6.209098">
        <ele>11.452</ele>
        <time>2015-06-18T14:47:43Z</time>
      </trkpt>
      <trkpt lat="36.567494" lon="-6.209083">
        <ele>11.476</ele>
        <time>2015-06-18T14:47:46Z</time>
      </trkpt>
      <trkpt lat="36.567248" lon="-6.208977">
        <ele>11.469</ele>
        <time>2015-06-18T14:47:54Z</time>
      </trkpt>
      <trkpt lat="36.567114" lon="-6.208911">
        <ele>11.804</ele>
        <time>2015-06-18T14:47:59Z</time>
      </trkpt>
      <trkpt lat="36.567089" lon="-6.208904">
        <ele>12.224</ele>
        <time>2015-06-18T14:48:00Z</time>
      </trkpt>
      <trkpt lat="36.567067" lon="-6.208893">
        <ele>12.608</ele>
        <time>2015-06-18T14:48:01Z</time>
      </trkpt>
      <trkpt lat="36.567046" lon="-6.208886">
        <ele>13.047</ele>
        <time>2015-06-18T14:48:02Z</time>
      </trkpt>
      <trkpt lat="36.567026" lon="-6.208877">
        <ele>13.483</ele>
        <time>2015-06-18T14:48:03Z</time>
      </trkpt>
      <trkpt lat="36.566912" lon="-6.208835">
        <ele>13.419</ele>
        <time>2015-06-18T14:48:07Z</time>
      </trkpt>
      <trkpt lat="36.566745" lon="-6.208680">
        <ele>13.478</ele>
        <time>2015-06-18T14:48:13Z</time>
      </trkpt>
      <trkpt lat="36.566722" lon="-6.208638">
        <ele>12.871</ele>
        <time>2015-06-18T14:48:14Z</time>
      </trkpt>
      <trkpt lat="36.566696" lon="-6.208600">
        <ele>12.433</ele>
        <time>2015-06-18T14:48:15Z</time>
      </trkpt>
      <trkpt lat="36.566675" lon="-6.208560">
        <ele>12.046</ele>
        <time>2015-06-18T14:48:16Z</time>
      </trkpt>
      <trkpt lat="36.566645" lon="-6.208526">
        <ele>11.410</ele>
        <time>2015-06-18T14:48:17Z</time>
      </trkpt>
      <trkpt lat="36.566608" lon="-6.208509">
        <ele>11.012</ele>
        <time>2015-06-18T14:48:18Z</time>
      </trkpt>
      <trkpt lat="36.566575" lon="-6.208491">
        <ele>11.032</ele>
        <time>2015-06-18T14:48:19Z</time>
      </trkpt>
      <trkpt lat="36.566303" lon="-6.208384">
        <ele>11.005</ele>
        <time>2015-06-18T14:48:27Z</time>
      </trkpt>
      <trkpt lat="36.566027" lon="-6.208248">
        <ele>11.008</ele>
        <time>2015-06-18T14:48:35Z</time>
      </trkpt>
      <trkpt lat="36.565842" lon="-6.208119">
        <ele>11.042</ele>
        <time>2015-06-18T14:48:41Z</time>
      </trkpt>
      <trkpt lat="36.565661" lon="-6.207916">
        <ele>11.068</ele>
        <time>2015-06-18T14:48:48Z</time>
      </trkpt>
      <trkpt lat="36.565557" lon="-6.207711">
        <ele>11.064</ele>
        <time>2015-06-18T14:48:54Z</time>
      </trkpt>
      <trkpt lat="36.565417" lon="-6.207383">
        <ele>11.023</ele>
        <time>2015-06-18T14:49:03Z</time>
      </trkpt>
      <trkpt lat="36.565372" lon="-6.207319">
        <ele>10.616</ele>
        <time>2015-06-18T14:49:05Z</time>
      </trkpt>
      <trkpt lat="36.565350" lon="-6.207283">
        <ele>10.018</ele>
        <time>2015-06-18T14:49:06Z</time>
      </trkpt>
      <trkpt lat="36.565324" lon="-6.207249">
        <ele>9.651</ele>
        <time>2015-06-18T14:49:07Z</time>
      </trkpt>
      <trkpt lat="36.565296" lon="-6.207223">
        <ele>9.275</ele>
        <time>2015-06-18T14:49:08Z</time>
      </trkpt>
      <trkpt lat="36.565266" lon="-6.207194">
        <ele>8.857</ele>
        <time>2015-06-18T14:49:09Z</time>
      </trkpt>
      <trkpt lat="36.565059" lon="-6.207037">
        <ele>9.200</ele>
        <time>2015-06-18T14:49:16Z</time>
      </trkpt>
      <trkpt lat="36.565028" lon="-6.207011">
        <ele>9.620</ele>
        <time>2015-06-18T14:49:17Z</time>
      </trkpt>
      <trkpt lat="36.564998" lon="-6.206990">
        <ele>10.208</ele>
        <time>2015-06-18T14:49:18Z</time>
      </trkpt>
      <trkpt lat="36.564965" lon="-6.206970">
        <ele>10.616</ele>
        <time>2015-06-18T14:49:19Z</time>
      </trkpt>
      <trkpt lat="36.564931" lon="-6.206953">
        <ele>11.042</ele>
        <time>2015-06-18T14:49:20Z</time>
      </trkpt>
      <trkpt lat="36.564770" lon="-6.206900">
        <ele>11.088</ele>
        <time>2015-06-18T14:49:24Z</time>
      </trkpt>
      <trkpt lat="36.564652" lon="-6.206802">
        <ele>11.077</ele>
        <time>2015-06-18T14:49:28Z</time>
      </trkpt>
      <trkpt lat="36.564451" lon="-6.206578">
        <ele>11.090</ele>
        <time>2015-06-18T14:49:35Z</time>
      </trkpt>
      <trkpt lat="36.564245" lon="-6.206399">
        <ele>11.092</ele>
        <time>2015-06-18T14:49:42Z</time>
      </trkpt>
      <trkpt lat="36.564209" lon="-6.206290">
        <ele>11.025</ele>
        <time>2015-06-18T14:49:45Z</time>
      </trkpt>
      <trkpt lat="36.564218" lon="-6.206257">
        <ele>11.019</ele>
        <time>2015-06-18T14:49:46Z</time>
      </trkpt>
      <trkpt lat="36.564251" lon="-6.206207">
        <ele>10.622</ele>
        <time>2015-06-18T14:49:48Z</time>
      </trkpt>
      <trkpt lat="36.564269" lon="-6.206201">
        <ele>10.262</ele>
        <time>2015-06-18T14:49:49Z</time>
      </trkpt>
      <trkpt lat="36.564286" lon="-6.206175">
        <ele>9.808</ele>
        <time>2015-06-18T14:49:50Z</time>
      </trkpt>
      <trkpt lat="36.564314" lon="-6.206155">
        <ele>9.408</ele>
        <time>2015-06-18T14:49:51Z</time>
      </trkpt>
      <trkpt lat="36.564342" lon="-6.206128">
        <ele>9.073</ele>
        <time>2015-06-18T14:49:52Z</time>
      </trkpt>
      <trkpt lat="36.564417" lon="-6.206055">
        <ele>9.059</ele>
        <time>2015-06-18T14:49:55Z</time>
      </trkpt>
      <trkpt lat="36.564445" lon="-6.206030">
        <ele>8.665</ele>
        <time>2015-06-18T14:49:56Z</time>
      </trkpt>
      <trkpt lat="36.564474" lon="-6.206008">
        <ele>8.254</ele>
        <time>2015-06-18T14:49:57Z</time>
      </trkpt>
      <trkpt lat="36.564500" lon="-6.205982">
        <ele>7.447</ele>
        <time>2015-06-18T14:49:58Z</time>
      </trkpt>
      <trkpt lat="36.564522" lon="-6.205953">
        <ele>7.029</ele>
        <time>2015-06-18T14:49:59Z</time>
      </trkpt>
      <trkpt lat="36.564537" lon="-6.205868">
        <ele>7.042</ele>
        <time>2015-06-18T14:50:01Z</time>
      </trkpt>
      <trkpt lat="36.564487" lon="-6.205735">
        <ele>7.026</ele>
        <time>2015-06-18T14:50:05Z</time>
      </trkpt>
      <trkpt lat="36.564471" lon="-6.205704">
        <ele>7.089</ele>
        <time>2015-06-18T14:50:06Z</time>
      </trkpt>
      <trkpt lat="36.564446" lon="-6.205633">
        <ele>7.406</ele>
        <time>2015-06-18T14:50:08Z</time>
      </trkpt>
      <trkpt lat="36.564433" lon="-6.205598">
        <ele>7.826</ele>
        <time>2015-06-18T14:50:09Z</time>
      </trkpt>
      <trkpt lat="36.564421" lon="-6.205559">
        <ele>8.208</ele>
        <time>2015-06-18T14:50:10Z</time>
      </trkpt>
      <trkpt lat="36.564409" lon="-6.205522">
        <ele>8.869</ele>
        <time>2015-06-18T14:50:11Z</time>
      </trkpt>
      <trkpt lat="36.564396" lon="-6.205482">
        <ele>9.265</ele>
        <time>2015-06-18T14:50:12Z</time>
      </trkpt>
      <trkpt lat="36.564383" lon="-6.205440">
        <ele>9.231</ele>
        <time>2015-06-18T14:50:13Z</time>
      </trkpt>
      <trkpt lat="36.564274" lon="-6.205087">
        <ele>9.230</ele>
        <time>2015-06-18T14:50:22Z</time>
      </trkpt>
      <trkpt lat="36.564176" lon="-6.204723">
        <ele>9.213</ele>
        <time>2015-06-18T14:50:31Z</time>
      </trkpt>
      <trkpt lat="36.564113" lon="-6.204486">
        <ele>9.235</ele>
        <time>2015-06-18T14:50:37Z</time>
      </trkpt>
      <trkpt lat="36.564084" lon="-6.204369">
        <ele>9.298</ele>
        <time>2015-06-18T14:50:40Z</time>
      </trkpt>
      <trkpt lat="36.564029" lon="-6.204165">
        <ele>9.292</ele>
        <time>2015-06-18T14:50:45Z</time>
      </trkpt>
      <trkpt lat="36.564002" lon="-6.204027">
        <ele>9.255</ele>
        <time>2015-06-18T14:50:48Z</time>
      </trkpt>
      <trkpt lat="36.563953" lon="-6.203788">
        <ele>9.207</ele>
        <time>2015-06-18T14:50:53Z</time>
      </trkpt>
      <trkpt lat="36.563935" lon="-6.203693">
        <ele>9.217</ele>
        <time>2015-06-18T14:50:55Z</time>
      </trkpt>
      <trkpt lat="36.563853" lon="-6.203380">
        <ele>9.208</ele>
        <time>2015-06-18T14:51:02Z</time>
      </trkpt>
      <trkpt lat="36.563828" lon="-6.203179">
        <ele>9.226</ele>
        <time>2015-06-18T14:51:08Z</time>
      </trkpt>
      <trkpt lat="36.563755" lon="-6.203053">
        <ele>9.242</ele>
        <time>2015-06-18T14:51:12Z</time>
      </trkpt>
      <trkpt lat="36.563598" lon="-6.203033">
        <ele>9.238</ele>
        <time>2015-06-18T14:51:16Z</time>
      </trkpt>
      <trkpt lat="36.563165" lon="-6.203031">
        <ele>9.247</ele>
        <time>2015-06-18T14:51:25Z</time>
      </trkpt>
      <trkpt lat="36.562871" lon="-6.203023">
        <ele>9.240</ele>
        <time>2015-06-18T14:51:31Z</time>
      </trkpt>
      <trkpt lat="36.562502" lon="-6.203029">
        <ele>9.222</ele>
        <time>2015-06-18T14:51:38Z</time>
      </trkpt>
      <trkpt lat="36.562017" lon="-6.203033">
        <ele>9.225</ele>
        <time>2015-06-18T14:51:47Z</time>
      </trkpt>
      <trkpt lat="36.561601" lon="-6.203040">
        <ele>9.259</ele>
        <time>2015-06-18T14:51:55Z</time>
      </trkpt>
      <trkpt lat="36.561293" lon="-6.203049">
        <ele>9.245</ele>
        <time>2015-06-18T14:52:01Z</time>
      </trkpt>
      <trkpt lat="36.560934" lon="-6.203041">
        <ele>9.247</ele>
        <time>2015-06-18T14:52:08Z</time>
      </trkpt>
      <trkpt lat="36.560514" lon="-6.203019">
        <ele>9.211</ele>
        <time>2015-06-18T14:52:16Z</time>
      </trkpt>
      <trkpt lat="36.560200" lon="-6.202986">
        <ele>9.208</ele>
        <time>2015-06-18T14:52:22Z</time>
      </trkpt>
      <trkpt lat="36.559749" lon="-6.202919">
        <ele>9.265</ele>
        <time>2015-06-18T14:52:31Z</time>
      </trkpt>
      <trkpt lat="36.559280" lon="-6.202874">
        <ele>9.211</ele>
        <time>2015-06-18T14:52:41Z</time>
      </trkpt>
      <trkpt lat="36.558988" lon="-6.202853">
        <ele>9.257</ele>
        <time>2015-06-18T14:52:48Z</time>
      </trkpt>
      <trkpt lat="36.558681" lon="-6.202838">
        <ele>9.256</ele>
        <time>2015-06-18T14:52:55Z</time>
      </trkpt>
      <trkpt lat="36.558357" lon="-6.202834">
        <ele>9.219</ele>
        <time>2015-06-18T14:53:02Z</time>
      </trkpt>
      <trkpt lat="36.558131" lon="-6.202847">
        <ele>9.211</ele>
        <time>2015-06-18T14:53:07Z</time>
      </trkpt>
      <trkpt lat="36.558092" lon="-6.202872">
        <ele>9.244</ele>
        <time>2015-06-18T14:53:08Z</time>
      </trkpt>
      <trkpt lat="36.557940" lon="-6.203054">
        <ele>9.258</ele>
        <time>2015-06-18T14:53:13Z</time>
      </trkpt>
      <trkpt lat="36.557914" lon="-6.203096">
        <ele>9.252</ele>
        <time>2015-06-18T14:53:14Z</time>
      </trkpt>
      <trkpt lat="36.557885" lon="-6.203137">
        <ele>9.253</ele>
        <time>2015-06-18T14:53:15Z</time>
      </trkpt>
      <trkpt lat="36.557799" lon="-6.203266">
        <ele>9.208</ele>
        <time>2015-06-18T14:53:18Z</time>
      </trkpt>
      <trkpt lat="36.557632" lon="-6.203536">
        <ele>9.208</ele>
        <time>2015-06-18T14:53:24Z</time>
      </trkpt>
      <trkpt lat="36.557557" lon="-6.203604">
        <ele>9.226</ele>
        <time>2015-06-18T14:53:26Z</time>
      </trkpt>
      <trkpt lat="36.557376" lon="-6.203634">
        <ele>9.242</ele>
        <time>2015-06-18T14:53:30Z</time>
      </trkpt>
      <trkpt lat="36.557291" lon="-6.203632">
        <ele>9.248</ele>
        <time>2015-06-18T14:53:32Z</time>
      </trkpt>
      <trkpt lat="36.557149" lon="-6.203632">
        <ele>9.257</ele>
        <time>2015-06-18T14:53:35Z</time>
      </trkpt>
      <trkpt lat="36.557010" lon="-6.203637">
        <ele>9.220</ele>
        <time>2015-06-18T14:53:38Z</time>
      </trkpt>
      <trkpt lat="36.556826" lon="-6.203648">
        <ele>9.232</ele>
        <time>2015-06-18T14:53:42Z</time>
      </trkpt>
      <trkpt lat="36.556465" lon="-6.203663">
        <ele>9.245</ele>
        <time>2015-06-18T14:53:50Z</time>
      </trkpt>
      <trkpt lat="36.556195" lon="-6.203690">
        <ele>8.859</ele>
        <time>2015-06-18T14:53:56Z</time>
      </trkpt>
      <trkpt lat="36.556151" lon="-6.203700">
        <ele>8.482</ele>
        <time>2015-06-18T14:53:57Z</time>
      </trkpt>
      <trkpt lat="36.556107" lon="-6.203710">
        <ele>8.043</ele>
        <time>2015-06-18T14:53:58Z</time>
      </trkpt>
      <trkpt lat="36.556063" lon="-6.203720">
        <ele>7.617</ele>
        <time>2015-06-18T14:53:59Z</time>
      </trkpt>
      <trkpt lat="36.556019" lon="-6.203730">
        <ele>7.208</ele>
        <time>2015-06-18T14:54:00Z</time>
      </trkpt>
      <trkpt lat="36.555751" lon="-6.203792">
        <ele>7.259</ele>
        <time>2015-06-18T14:54:06Z</time>
      </trkpt>
      <trkpt lat="36.555559" lon="-6.203854">
        <ele>7.215</ele>
        <time>2015-06-18T14:54:11Z</time>
      </trkpt>
      <trkpt lat="36.555367" lon="-6.203916">
        <ele>7.221</ele>
        <time>2015-06-18T14:54:16Z</time>
      </trkpt>
      <trkpt lat="36.555325" lon="-6.203923">
        <ele>7.270</ele>
        <time>2015-06-18T14:54:17Z</time>
      </trkpt>
      <trkpt lat="36.555110" lon="-6.203942">
        <ele>7.243</ele>
        <time>2015-06-18T14:54:22Z</time>
      </trkpt>
      <trkpt lat="36.554982" lon="-6.203953">
        <ele>7.265</ele>
        <time>2015-06-18T14:54:25Z</time>
      </trkpt>
      <trkpt lat="36.554802" lon="-6.203948">
        <ele>7.218</ele>
        <time>2015-06-18T14:54:29Z</time>
      </trkpt>
      <trkpt lat="36.554719" lon="-6.203907">
        <ele>7.222</ele>
        <time>2015-06-18T14:54:31Z</time>
      </trkpt>
      <trkpt lat="36.554647" lon="-6.203848">
        <ele>7.253</ele>
        <time>2015-06-18T14:54:33Z</time>
      </trkpt>
      <trkpt lat="36.554539" lon="-6.203751">
        <ele>7.204</ele>
        <time>2015-06-18T14:54:36Z</time>
      </trkpt>
      <trkpt lat="36.554508" lon="-6.203716">
        <ele>7.214</ele>
        <time>2015-06-18T14:54:37Z</time>
      </trkpt>
      <trkpt lat="36.554417" lon="-6.203604">
        <ele>7.208</ele>
        <time>2015-06-18T14:54:40Z</time>
      </trkpt>
      <trkpt lat="36.554350" lon="-6.203541">
        <ele>7.276</ele>
        <time>2015-06-18T14:54:42Z</time>
      </trkpt>
      <trkpt lat="36.554181" lon="-6.203479">
        <ele>7.292</ele>
        <time>2015-06-18T14:54:46Z</time>
      </trkpt>
      <trkpt lat="36.554061" lon="-6.203527">
        <ele>7.278</ele>
        <time>2015-06-18T14:54:49Z</time>
      </trkpt>
      <trkpt lat="36.554021" lon="-6.203551">
        <ele>7.237</ele>
        <time>2015-06-18T14:54:50Z</time>
      </trkpt>
      <trkpt lat="36.553769" lon="-6.203734">
        <ele>7.210</ele>
        <time>2015-06-18T14:54:56Z</time>
      </trkpt>
      <trkpt lat="36.553507" lon="-6.203925">
        <ele>7.242</ele>
        <time>2015-06-18T14:55:02Z</time>
      </trkpt>
      <trkpt lat="36.553461" lon="-6.203950">
        <ele>7.235</ele>
        <time>2015-06-18T14:55:03Z</time>
      </trkpt>
      <trkpt lat="36.553252" lon="-6.204016">
        <ele>7.229</ele>
        <time>2015-06-18T14:55:07Z</time>
      </trkpt>
      <trkpt lat="36.552991" lon="-6.204115">
        <ele>7.226</ele>
        <time>2015-06-18T14:55:13Z</time>
      </trkpt>
      <trkpt lat="36.552769" lon="-6.204211">
        <ele>7.247</ele>
        <time>2015-06-18T14:55:19Z</time>
      </trkpt>
      <trkpt lat="36.552540" lon="-6.204267">
        <ele>7.211</ele>
        <time>2015-06-18T14:55:26Z</time>
      </trkpt>
      <trkpt lat="36.552337" lon="-6.204268">
        <ele>7.208</ele>
        <time>2015-06-18T14:55:31Z</time>
      </trkpt>
      <trkpt lat="36.552286" lon="-6.204273">
        <ele>7.293</ele>
        <time>2015-06-18T14:55:32Z</time>
      </trkpt>
      <trkpt lat="36.552236" lon="-6.204276">
        <ele>7.269</ele>
        <time>2015-06-18T14:55:33Z</time>
      </trkpt>
      <trkpt lat="36.552042" lon="-6.204279">
        <ele>7.255</ele>
        <time>2015-06-18T14:55:37Z</time>
      </trkpt>
      <trkpt lat="36.551900" lon="-6.204303">
        <ele>6.654</ele>
        <time>2015-06-18T14:55:40Z</time>
      </trkpt>
      <trkpt lat="36.551854" lon="-6.204315">
        <ele>6.297</ele>
        <time>2015-06-18T14:55:41Z</time>
      </trkpt>
      <trkpt lat="36.551806" lon="-6.204328">
        <ele>5.849</ele>
        <time>2015-06-18T14:55:42Z</time>
      </trkpt>
      <trkpt lat="36.551761" lon="-6.204341">
        <ele>6.042</ele>
        <time>2015-06-18T14:55:43Z</time>
      </trkpt>
      <trkpt lat="36.551716" lon="-6.204356">
        <ele>6.626</ele>
        <time>2015-06-18T14:55:44Z</time>
      </trkpt>
      <trkpt lat="36.551675" lon="-6.204371">
        <ele>6.825</ele>
        <time>2015-06-18T14:55:45Z</time>
      </trkpt>
      <trkpt lat="36.551635" lon="-6.204385">
        <ele>7.026</ele>
        <time>2015-06-18T14:55:46Z</time>
      </trkpt>
      <trkpt lat="36.551488" lon="-6.204462">
        <ele>7.008</ele>
        <time>2015-06-18T14:55:50Z</time>
      </trkpt>
      <trkpt lat="36.551282" lon="-6.204538">
        <ele>7.008</ele>
        <time>2015-06-18T14:55:56Z</time>
      </trkpt>
      <trkpt lat="36.551058" lon="-6.204590">
        <ele>7.063</ele>
        <time>2015-06-18T14:56:02Z</time>
      </trkpt>
      <trkpt lat="36.550891" lon="-6.204606">
        <ele>7.039</ele>
        <time>2015-06-18T14:56:06Z</time>
      </trkpt>
      <trkpt lat="36.550845" lon="-6.204616">
        <ele>7.015</ele>
        <time>2015-06-18T14:56:07Z</time>
      </trkpt>
      <trkpt lat="36.550604" lon="-6.204672">
        <ele>7.054</ele>
        <time>2015-06-18T14:56:12Z</time>
      </trkpt>
      <trkpt lat="36.550511" lon="-6.204710">
        <ele>7.087</ele>
        <time>2015-06-18T14:56:14Z</time>
      </trkpt>
      <trkpt lat="36.550212" lon="-6.204809">
        <ele>7.079</ele>
        <time>2015-06-18T14:56:20Z</time>
      </trkpt>
      <trkpt lat="36.550161" lon="-6.204826">
        <ele>7.092</ele>
        <time>2015-06-18T14:56:21Z</time>
      </trkpt>
      <trkpt lat="36.549954" lon="-6.204868">
        <ele>7.066</ele>
        <time>2015-06-18T14:56:25Z</time>
      </trkpt>
      <trkpt lat="36.549799" lon="-6.204887">
        <ele>7.094</ele>
        <time>2015-06-18T14:56:28Z</time>
      </trkpt>
      <trkpt lat="36.549433" lon="-6.204905">
        <ele>7.057</ele>
        <time>2015-06-18T14:56:35Z</time>
      </trkpt>
      <trkpt lat="36.549283" lon="-6.204901">
        <ele>7.022</ele>
        <time>2015-06-18T14:56:38Z</time>
      </trkpt>
      <trkpt lat="36.549132" lon="-6.204870">
        <ele>7.008</ele>
        <time>2015-06-18T14:56:41Z</time>
      </trkpt>
      <trkpt lat="36.548845" lon="-6.204816">
        <ele>7.050</ele>
        <time>2015-06-18T14:56:47Z</time>
      </trkpt>
      <trkpt lat="36.548801" lon="-6.204792">
        <ele>7.086</ele>
        <time>2015-06-18T14:56:48Z</time>
      </trkpt>
      <trkpt lat="36.548695" lon="-6.204670">
        <ele>7.072</ele>
        <time>2015-06-18T14:56:51Z</time>
      </trkpt>
      <trkpt lat="36.548667" lon="-6.204618">
        <ele>7.081</ele>
        <time>2015-06-18T14:56:52Z</time>
      </trkpt>
      <trkpt lat="36.548602" lon="-6.204457">
        <ele>7.084</ele>
        <time>2015-06-18T14:56:55Z</time>
      </trkpt>
      <trkpt lat="36.548541" lon="-6.204295">
        <ele>7.016</ele>
        <time>2015-06-18T14:56:58Z</time>
      </trkpt>
      <trkpt lat="36.548432" lon="-6.204030">
        <ele>7.039</ele>
        <time>2015-06-18T14:57:03Z</time>
      </trkpt>
      <trkpt lat="36.548371" lon="-6.203946">
        <ele>7.023</ele>
        <time>2015-06-18T14:57:05Z</time>
      </trkpt>
      <trkpt lat="36.548298" lon="-6.203886">
        <ele>7.093</ele>
        <time>2015-06-18T14:57:07Z</time>
      </trkpt>
      <trkpt lat="36.548261" lon="-6.203861">
        <ele>7.065</ele>
        <time>2015-06-18T14:57:08Z</time>
      </trkpt>
      <trkpt lat="36.548173" lon="-6.203830">
        <ele>7.021</ele>
        <time>2015-06-18T14:57:10Z</time>
      </trkpt>
      <trkpt lat="36.547989" lon="-6.203877">
        <ele>7.008</ele>
        <time>2015-06-18T14:57:14Z</time>
      </trkpt>
      <trkpt lat="36.547863" lon="-6.203975">
        <ele>7.060</ele>
        <time>2015-06-18T14:57:17Z</time>
      </trkpt>
      <trkpt lat="36.547739" lon="-6.204083">
        <ele>7.036</ele>
        <time>2015-06-18T14:57:20Z</time>
      </trkpt>
      <trkpt lat="36.547563" lon="-6.204198">
        <ele>7.072</ele>
        <time>2015-06-18T14:57:24Z</time>
      </trkpt>
      <trkpt lat="36.547463" lon="-6.204232">
        <ele>7.051</ele>
        <time>2015-06-18T14:57:26Z</time>
      </trkpt>
      <trkpt lat="36.547154" lon="-6.204316">
        <ele>7.014</ele>
        <time>2015-06-18T14:57:32Z</time>
      </trkpt>
      <trkpt lat="36.547050" lon="-6.204353">
        <ele>7.066</ele>
        <time>2015-06-18T14:57:34Z</time>
      </trkpt>
      <trkpt lat="36.546892" lon="-6.204400">
        <ele>7.069</ele>
        <time>2015-06-18T14:57:37Z</time>
      </trkpt>
      <trkpt lat="36.546627" lon="-6.204437">
        <ele>7.093</ele>
        <time>2015-06-18T14:57:42Z</time>
      </trkpt>
      <trkpt lat="36.546198" lon="-6.204471">
        <ele>7.089</ele>
        <time>2015-06-18T14:57:51Z</time>
      </trkpt>
      <trkpt lat="36.545921" lon="-6.204536">
        <ele>7.006</ele>
        <time>2015-06-18T14:57:56Z</time>
      </trkpt>
      <trkpt lat="36.545921" lon="-6.204536">
        <ele>7.026</ele>
        <time>2015-06-18T14:57:58Z</time>
      </trkpt>
      <trkpt lat="36.545590" lon="-6.204716">
        <ele>7.008</ele>
        <time>2015-06-18T14:58:05Z</time>
      </trkpt>
      <trkpt lat="36.545215" lon="-6.204932">
        <ele>7.029</ele>
        <time>2015-06-18T14:58:13Z</time>
      </trkpt>
      <trkpt lat="36.545127" lon="-6.204999">
        <ele>7.085</ele>
        <time>2015-06-18T14:58:15Z</time>
      </trkpt>
      <trkpt lat="36.545067" lon="-6.205104">
        <ele>7.081</ele>
        <time>2015-06-18T14:58:17Z</time>
      </trkpt>
      <trkpt lat="36.545061" lon="-6.205297">
        <ele>7.020</ele>
        <time>2015-06-18T14:58:20Z</time>
      </trkpt>
      <trkpt lat="36.545107" lon="-6.205418">
        <ele>7.083</ele>
        <time>2015-06-18T14:58:22Z</time>
      </trkpt>
      <trkpt lat="36.545136" lon="-6.205479">
        <ele>7.055</ele>
        <time>2015-06-18T14:58:23Z</time>
      </trkpt>
      <trkpt lat="36.545238" lon="-6.205679">
        <ele>7.088</ele>
        <time>2015-06-18T14:58:26Z</time>
      </trkpt>
      <trkpt lat="36.545291" lon="-6.205822">
        <ele>7.022</ele>
        <time>2015-06-18T14:58:28Z</time>
      </trkpt>
      <trkpt lat="36.545337" lon="-6.205957">
        <ele>7.082</ele>
        <time>2015-06-18T14:58:30Z</time>
      </trkpt>
      <trkpt lat="36.545452" lon="-6.206206">
        <ele>7.043</ele>
        <time>2015-06-18T14:58:34Z</time>
      </trkpt>
      <trkpt lat="36.545467" lon="-6.206269">
        <ele>7.017</ele>
        <time>2015-06-18T14:58:35Z</time>
      </trkpt>
      <trkpt lat="36.545440" lon="-6.206384">
        <ele>7.008</ele>
        <time>2015-06-18T14:58:37Z</time>
      </trkpt>
      <trkpt lat="36.545339" lon="-6.206424">
        <ele>7.099</ele>
        <time>2015-06-18T14:58:40Z</time>
      </trkpt>
      <trkpt lat="36.545199" lon="-6.206460">
        <ele>7.015</ele>
        <time>2015-06-18T14:58:43Z</time>
      </trkpt>
      <trkpt lat="36.545147" lon="-6.206479">
        <ele>7.021</ele>
        <time>2015-06-18T14:58:44Z</time>
      </trkpt>
      <trkpt lat="36.544821" lon="-6.206571">
        <ele>7.020</ele>
        <time>2015-06-18T14:58:50Z</time>
      </trkpt>
      <trkpt lat="36.544715" lon="-6.206598">
        <ele>7.023</ele>
        <time>2015-06-18T14:58:52Z</time>
      </trkpt>
      <trkpt lat="36.544376" lon="-6.206699">
        <ele>7.025</ele>
        <time>2015-06-18T14:58:58Z</time>
      </trkpt>
      <trkpt lat="36.544206" lon="-6.206729">
        <ele>7.058</ele>
        <time>2015-06-18T14:59:01Z</time>
      </trkpt>
      <trkpt lat="36.543977" lon="-6.206794">
        <ele>7.042</ele>
        <time>2015-06-18T14:59:05Z</time>
      </trkpt>
      <trkpt lat="36.543867" lon="-6.206846">
        <ele>7.018</ele>
        <time>2015-06-18T14:59:07Z</time>
      </trkpt>
      <trkpt lat="36.543581" lon="-6.206914">
        <ele>7.098</ele>
        <time>2015-06-18T14:59:12Z</time>
      </trkpt>
      <trkpt lat="36.543522" lon="-6.206913">
        <ele>7.017</ele>
        <time>2015-06-18T14:59:13Z</time>
      </trkpt>
      <trkpt lat="36.543342" lon="-6.206913">
        <ele>7.008</ele>
        <time>2015-06-18T14:59:16Z</time>
      </trkpt>
      <trkpt lat="36.543231" lon="-6.206985">
        <ele>7.052</ele>
        <time>2015-06-18T14:59:18Z</time>
      </trkpt>
      <trkpt lat="36.543006" lon="-6.207119">
        <ele>7.058</ele>
        <time>2015-06-18T14:59:22Z</time>
      </trkpt>
      <trkpt lat="36.542779" lon="-6.207239">
        <ele>7.034</ele>
        <time>2015-06-18T14:59:26Z</time>
      </trkpt>
      <trkpt lat="36.542657" lon="-6.207280">
        <ele>7.023</ele>
        <time>2015-06-18T14:59:28Z</time>
      </trkpt>
      <trkpt lat="36.542273" lon="-6.207370">
        <ele>7.016</ele>
        <time>2015-06-18T14:59:34Z</time>
      </trkpt>
      <trkpt lat="36.541814" lon="-6.207509">
        <ele>7.078</ele>
        <time>2015-06-18T14:59:41Z</time>
      </trkpt>
      <trkpt lat="36.541391" lon="-6.207688">
        <ele>7.081</ele>
        <time>2015-06-18T14:59:48Z</time>
      </trkpt>
      <trkpt lat="36.541333" lon="-6.207712">
        <ele>7.045</ele>
        <time>2015-06-18T14:59:49Z</time>
      </trkpt>
      <trkpt lat="36.541160" lon="-6.207755">
        <ele>7.051</ele>
        <time>2015-06-18T14:59:52Z</time>
      </trkpt>
      <trkpt lat="36.541104" lon="-6.207758">
        <ele>7.001</ele>
        <time>2015-06-18T14:59:53Z</time>
      </trkpt>
      <trkpt lat="36.540721" lon="-6.207753">
        <ele>7.011</ele>
        <time>2015-06-18T15:00:00Z</time>
      </trkpt>
      <trkpt lat="36.540334" lon="-6.207675">
        <ele>7.008</ele>
        <time>2015-06-18T15:00:07Z</time>
      </trkpt>
      <trkpt lat="36.540280" lon="-6.207675">
        <ele>7.056</ele>
        <time>2015-06-18T15:00:08Z</time>
      </trkpt>
      <trkpt lat="36.540181" lon="-6.207723">
        <ele>7.022</ele>
        <time>2015-06-18T15:00:10Z</time>
      </trkpt>
      <trkpt lat="36.539816" lon="-6.207876">
        <ele>7.028</ele>
        <time>2015-06-18T15:00:17Z</time>
      </trkpt>
      <trkpt lat="36.539709" lon="-6.207909">
        <ele>7.017</ele>
        <time>2015-06-18T15:00:19Z</time>
      </trkpt>
      <trkpt lat="36.539556" lon="-6.207980">
        <ele>7.020</ele>
        <time>2015-06-18T15:00:22Z</time>
      </trkpt>
      <trkpt lat="36.539451" lon="-6.208025">
        <ele>7.082</ele>
        <time>2015-06-18T15:00:24Z</time>
      </trkpt>
      <trkpt lat="36.539227" lon="-6.208051">
        <ele>7.015</ele>
        <time>2015-06-18T15:00:28Z</time>
      </trkpt>
      <trkpt lat="36.538802" lon="-6.208105">
        <ele>7.089</ele>
        <time>2015-06-18T15:00:36Z</time>
      </trkpt>
      <trkpt lat="36.538368" lon="-6.208229">
        <ele>7.017</ele>
        <time>2015-06-18T15:00:44Z</time>
      </trkpt>
      <trkpt lat="36.537978" lon="-6.208333">
        <ele>7.087</ele>
        <time>2015-06-18T15:00:51Z</time>
      </trkpt>
      <trkpt lat="36.537862" lon="-6.208342">
        <ele>7.015</ele>
        <time>2015-06-18T15:00:53Z</time>
      </trkpt>
      <trkpt lat="36.537745" lon="-6.208310">
        <ele>7.008</ele>
        <time>2015-06-18T15:00:55Z</time>
      </trkpt>
      <trkpt lat="36.537637" lon="-6.208249">
        <ele>7.042</ele>
        <time>2015-06-18T15:00:57Z</time>
      </trkpt>
      <trkpt lat="36.537528" lon="-6.208210">
        <ele>7.048</ele>
        <time>2015-06-18T15:00:59Z</time>
      </trkpt>
      <trkpt lat="36.537473" lon="-6.208214">
        <ele>7.094</ele>
        <time>2015-06-18T15:01:00Z</time>
      </trkpt>
      <trkpt lat="36.537183" lon="-6.208249">
        <ele>7.023</ele>
        <time>2015-06-18T15:01:05Z</time>
      </trkpt>
      <trkpt lat="36.536911" lon="-6.208294">
        <ele>7.056</ele>
        <time>2015-06-18T15:01:10Z</time>
      </trkpt>
      <trkpt lat="36.536859" lon="-6.208317">
        <ele>7.058</ele>
        <time>2015-06-18T15:01:11Z</time>
      </trkpt>
      <trkpt lat="36.536542" lon="-6.208417">
        <ele>7.051</ele>
        <time>2015-06-18T15:01:17Z</time>
      </trkpt>
      <trkpt lat="36.536228" lon="-6.208512">
        <ele>7.035</ele>
        <time>2015-06-18T15:01:23Z</time>
      </trkpt>
      <trkpt lat="36.535808" lon="-6.208634">
        <ele>7.068</ele>
        <time>2015-06-18T15:01:31Z</time>
      </trkpt>
      <trkpt lat="36.535326" lon="-6.208811">
        <ele>7.042</ele>
        <time>2015-06-18T15:01:40Z</time>
      </trkpt>
      <trkpt lat="36.534944" lon="-6.208958">
        <ele>7.026</ele>
        <time>2015-06-18T15:01:47Z</time>
      </trkpt>
      <trkpt lat="36.534525" lon="-6.209157">
        <ele>7.008</ele>
        <time>2015-06-18T15:01:55Z</time>
      </trkpt>
      <trkpt lat="36.534082" lon="-6.209342">
        <ele>7.077</ele>
        <time>2015-06-18T15:02:03Z</time>
      </trkpt>
      <trkpt lat="36.533707" lon="-6.209501">
        <ele>7.063</ele>
        <time>2015-06-18T15:02:10Z</time>
      </trkpt>
      <trkpt lat="36.533302" lon="-6.209662">
        <ele>7.099</ele>
        <time>2015-06-18T15:02:18Z</time>
      </trkpt>
      <trkpt lat="36.532876" lon="-6.209816">
        <ele>7.038</ele>
        <time>2015-06-18T15:02:27Z</time>
      </trkpt>
      <trkpt lat="36.532459" lon="-6.209926">
        <ele>7.021</ele>
        <time>2015-06-18T15:02:36Z</time>
      </trkpt>
      <trkpt lat="36.532292" lon="-6.209846">
        <ele>7.043</ele>
        <time>2015-06-18T15:02:40Z</time>
      </trkpt>
      <trkpt lat="36.532176" lon="-6.209781">
        <ele>7.056</ele>
        <time>2015-06-18T15:02:43Z</time>
      </trkpt>
      <trkpt lat="36.532133" lon="-6.209794">
        <ele>7.010</ele>
        <time>2015-06-18T15:02:44Z</time>
      </trkpt>
      <trkpt lat="36.531954" lon="-6.209837">
        <ele>7.041</ele>
        <time>2015-06-18T15:02:48Z</time>
      </trkpt>
      <trkpt lat="36.531869" lon="-6.209844">
        <ele>7.081</ele>
        <time>2015-06-18T15:02:50Z</time>
      </trkpt>
      <trkpt lat="36.531824" lon="-6.209843">
        <ele>7.009</ele>
        <time>2015-06-18T15:02:51Z</time>
      </trkpt>
      <trkpt lat="36.531742" lon="-6.209828">
        <ele>7.008</ele>
        <time>2015-06-18T15:02:53Z</time>
      </trkpt>
      <trkpt lat="36.531666" lon="-6.209806">
        <ele>7.055</ele>
        <time>2015-06-18T15:02:55Z</time>
      </trkpt>
      <trkpt lat="36.531626" lon="-6.209790">
        <ele>7.021</ele>
        <time>2015-06-18T15:02:56Z</time>
      </trkpt>
      <trkpt lat="36.531585" lon="-6.209758">
        <ele>7.057</ele>
        <time>2015-06-18T15:02:57Z</time>
      </trkpt>
      <trkpt lat="36.531537" lon="-6.209763">
        <ele>4.876</ele>
        <time>2015-06-18T15:11:25Z</time>
      </trkpt>
      <trkpt lat="36.531518" lon="-6.209831">
        <ele>4.899</ele>
        <time>2015-06-18T15:11:29Z</time>
      </trkpt>
      <trkpt lat="36.531434" lon="-6.209831">
        <ele>4.821</ele>
        <time>2015-06-18T15:11:33Z</time>
      </trkpt>
      <trkpt lat="36.531371" lon="-6.209735">
        <ele>4.894</ele>
        <time>2015-06-18T15:11:36Z</time>
      </trkpt>
      <trkpt lat="36.531348" lon="-6.209698">
        <ele>4.828</ele>
        <time>2015-06-18T15:11:37Z</time>
      </trkpt>
      <trkpt lat="36.531164" lon="-6.209393">
        <ele>4.894</ele>
        <time>2015-06-18T15:11:45Z</time>
      </trkpt>
      <trkpt lat="36.531031" lon="-6.209152">
        <ele>4.857</ele>
        <time>2015-06-18T15:11:51Z</time>
      </trkpt>
      <trkpt lat="36.530875" lon="-6.208876">
        <ele>4.822</ele>
        <time>2015-06-18T15:11:58Z</time>
      </trkpt>
      <trkpt lat="36.530766" lon="-6.208686">
        <ele>4.808</ele>
        <time>2015-06-18T15:12:03Z</time>
      </trkpt>
      <trkpt lat="36.530729" lon="-6.208616">
        <ele>4.890</ele>
        <time>2015-06-18T15:12:05Z</time>
      </trkpt>
      <trkpt lat="36.530642" lon="-6.208481">
        <ele>5.426</ele>
        <time>2015-06-18T15:12:09Z</time>
      </trkpt>
      <trkpt lat="36.530621" lon="-6.208448">
        <ele>5.872</ele>
        <time>2015-06-18T15:12:10Z</time>
      </trkpt>
      <trkpt lat="36.530601" lon="-6.208417">
        <ele>6.231</ele>
        <time>2015-06-18T15:12:11Z</time>
      </trkpt>
      <trkpt lat="36.530580" lon="-6.208393">
        <ele>6.694</ele>
        <time>2015-06-18T15:12:12Z</time>
      </trkpt>
      <trkpt lat="36.530558" lon="-6.208371">
        <ele>7.276</ele>
        <time>2015-06-18T15:12:13Z</time>
      </trkpt>
      <trkpt lat="36.530449" lon="-6.208237">
        <ele>7.289</ele>
        <time>2015-06-18T15:12:19Z</time>
      </trkpt>
      <trkpt lat="36.530308" lon="-6.208041">
        <ele>7.223</ele>
        <time>2015-06-18T15:12:27Z</time>
      </trkpt>
      <trkpt lat="36.530276" lon="-6.208001">
        <ele>7.262</ele>
        <time>2015-06-18T15:12:29Z</time>
      </trkpt>
      <trkpt lat="36.530202" lon="-6.207981">
        <ele>7.283</ele>
        <time>2015-06-18T15:12:32Z</time>
      </trkpt>
      <trkpt lat="36.530062" lon="-6.207874">
        <ele>7.211</ele>
        <time>2015-06-18T15:12:38Z</time>
      </trkpt>
      <trkpt lat="36.529922" lon="-6.207731">
        <ele>7.208</ele>
        <time>2015-06-18T15:12:45Z</time>
      </trkpt>
      <trkpt lat="36.529822" lon="-6.207667">
        <ele>7.257</ele>
        <time>2015-06-18T15:12:49Z</time>
      </trkpt>
      <trkpt lat="36.529772" lon="-6.207633">
        <ele>7.223</ele>
        <time>2015-06-18T15:12:51Z</time>
      </trkpt>
      <trkpt lat="36.529748" lon="-6.207616">
        <ele>7.689</ele>
        <time>2015-06-18T15:12:52Z</time>
      </trkpt>
      <trkpt lat="36.529725" lon="-6.207598">
        <ele>8.478</ele>
        <time>2015-06-18T15:12:53Z</time>
      </trkpt>
      <trkpt lat="36.529702" lon="-6.207581">
        <ele>8.871</ele>
        <time>2015-06-18T15:12:54Z</time>
      </trkpt>
      <trkpt lat="36.529679" lon="-6.207564">
        <ele>9.253</ele>
        <time>2015-06-18T15:12:55Z</time>
      </trkpt>
      <trkpt lat="36.529564" lon="-6.207472">
        <ele>9.266</ele>
        <time>2015-06-18T15:13:00Z</time>
      </trkpt>
      <trkpt lat="36.529498" lon="-6.207421">
        <ele>9.640</ele>
        <time>2015-06-18T15:13:03Z</time>
      </trkpt>
      <trkpt lat="36.529477" lon="-6.207403">
        <ele>10.032</ele>
        <time>2015-06-18T15:13:04Z</time>
      </trkpt>
      <trkpt lat="36.529457" lon="-6.207384">
        <ele>10.492</ele>
        <time>2015-06-18T15:13:05Z</time>
      </trkpt>
      <trkpt lat="36.529438" lon="-6.207366">
        <ele>10.811</ele>
        <time>2015-06-18T15:13:06Z</time>
      </trkpt>
      <trkpt lat="36.529417" lon="-6.207348">
        <ele>11.208</ele>
        <time>2015-06-18T15:13:07Z</time>
      </trkpt>
      <trkpt lat="36.529398" lon="-6.207329">
        <ele>11.274</ele>
        <time>2015-06-18T15:13:08Z</time>
      </trkpt>
      <trkpt lat="36.529311" lon="-6.207254">
        <ele>11.670</ele>
        <time>2015-06-18T15:13:12Z</time>
      </trkpt>
      <trkpt lat="36.529290" lon="-6.207234">
        <ele>12.076</ele>
        <time>2015-06-18T15:13:13Z</time>
      </trkpt>
      <trkpt lat="36.529270" lon="-6.207215">
        <ele>12.465</ele>
        <time>2015-06-18T15:13:14Z</time>
      </trkpt>
      <trkpt lat="36.529248" lon="-6.207198">
        <ele>12.818</ele>
        <time>2015-06-18T15:13:15Z</time>
      </trkpt>
      <trkpt lat="36.529226" lon="-6.207182">
        <ele>13.290</ele>
        <time>2015-06-18T15:13:16Z</time>
      </trkpt>
      <trkpt lat="36.529077" lon="-6.207029">
        <ele>13.213</ele>
        <time>2015-06-18T15:13:23Z</time>
      </trkpt>
      <trkpt lat="36.528924" lon="-6.206840">
        <ele>13.267</ele>
        <time>2015-06-18T15:13:30Z</time>
      </trkpt>
      <trkpt lat="36.528760" lon="-6.206590">
        <ele>13.247</ele>
        <time>2015-06-18T15:13:38Z</time>
      </trkpt>
      <trkpt lat="36.528752" lon="-6.206324">
        <ele>13.229</ele>
        <time>2015-06-18T15:13:44Z</time>
      </trkpt>
      <trkpt lat="36.528784" lon="-6.206199">
        <ele>13.221</ele>
        <time>2015-06-18T15:13:47Z</time>
      </trkpt>
      <trkpt lat="36.528830" lon="-6.206080">
        <ele>13.208</ele>
        <time>2015-06-18T15:13:50Z</time>
      </trkpt>
      <trkpt lat="36.528964" lon="-6.205727">
        <ele>13.295</ele>
        <time>2015-06-18T15:13:58Z</time>
      </trkpt>
      <trkpt lat="36.529095" lon="-6.205434">
        <ele>13.221</ele>
        <time>2015-06-18T15:14:05Z</time>
      </trkpt>
      <trkpt lat="36.529236" lon="-6.205137">
        <ele>13.237</ele>
        <time>2015-06-18T15:14:11Z</time>
      </trkpt>
      <trkpt lat="36.529416" lon="-6.204765">
        <ele>13.286</ele>
        <time>2015-06-18T15:14:18Z</time>
      </trkpt>
      <trkpt lat="36.529467" lon="-6.204658">
        <ele>13.229</ele>
        <time>2015-06-18T15:14:20Z</time>
      </trkpt>
      <trkpt lat="36.529516" lon="-6.204542">
        <ele>13.281</ele>
        <time>2015-06-18T15:14:22Z</time>
      </trkpt>
      <trkpt lat="36.529570" lon="-6.204367">
        <ele>13.274</ele>
        <time>2015-06-18T15:14:25Z</time>
      </trkpt>
      <trkpt lat="36.529581" lon="-6.204307">
        <ele>13.248</ele>
        <time>2015-06-18T15:14:26Z</time>
      </trkpt>
      <trkpt lat="36.529587" lon="-6.204248">
        <ele>13.293</ele>
        <time>2015-06-18T15:14:27Z</time>
      </trkpt>
      <trkpt lat="36.529607" lon="-6.204132">
        <ele>13.265</ele>
        <time>2015-06-18T15:14:29Z</time>
      </trkpt>
      <trkpt lat="36.529643" lon="-6.204026">
        <ele>13.221</ele>
        <time>2015-06-18T15:14:31Z</time>
      </trkpt>
      <trkpt lat="36.529733" lon="-6.203807">
        <ele>13.208</ele>
        <time>2015-06-18T15:14:35Z</time>
      </trkpt>
      <trkpt lat="36.529753" lon="-6.203672">
        <ele>12.840</ele>
        <time>2015-06-18T15:14:37Z</time>
      </trkpt>
      <trkpt lat="36.529737" lon="-6.203608">
        <ele>12.416</ele>
        <time>2015-06-18T15:14:38Z</time>
      </trkpt>
      <trkpt lat="36.529707" lon="-6.203550">
        <ele>11.842</ele>
        <time>2015-06-18T15:14:39Z</time>
      </trkpt>
      <trkpt lat="36.529673" lon="-6.203495">
        <ele>11.491</ele>
        <time>2015-06-18T15:14:40Z</time>
      </trkpt>
      <trkpt lat="36.529642" lon="-6.203433">
        <ele>11.034</ele>
        <time>2015-06-18T15:14:41Z</time>
      </trkpt>
      <trkpt lat="36.529607" lon="-6.203296">
        <ele>11.036</ele>
        <time>2015-06-18T15:14:43Z</time>
      </trkpt>
      <trkpt lat="36.529595" lon="-6.203158">
        <ele>11.059</ele>
        <time>2015-06-18T15:14:45Z</time>
      </trkpt>
      <trkpt lat="36.529593" lon="-6.203039">
        <ele>11.073</ele>
        <time>2015-06-18T15:14:47Z</time>
      </trkpt>
      <trkpt lat="36.529599" lon="-6.202985">
        <ele>10.617</ele>
        <time>2015-06-18T15:14:48Z</time>
      </trkpt>
      <trkpt lat="36.529606" lon="-6.202933">
        <ele>10.287</ele>
        <time>2015-06-18T15:14:49Z</time>
      </trkpt>
      <trkpt lat="36.529609" lon="-6.202880">
        <ele>9.615</ele>
        <time>2015-06-18T15:14:50Z</time>
      </trkpt>
      <trkpt lat="36.529607" lon="-6.202828">
        <ele>9.208</ele>
        <time>2015-06-18T15:14:51Z</time>
      </trkpt>
      <trkpt lat="36.529602" lon="-6.202773">
        <ele>8.812</ele>
        <time>2015-06-18T15:14:52Z</time>
      </trkpt>
      <trkpt lat="36.529594" lon="-6.202720">
        <ele>8.878</ele>
        <time>2015-06-18T15:14:53Z</time>
      </trkpt>
      <trkpt lat="36.529574" lon="-6.202622">
        <ele>8.854</ele>
        <time>2015-06-18T15:14:55Z</time>
      </trkpt>
      <trkpt lat="36.529498" lon="-6.202406">
        <ele>8.893</ele>
        <time>2015-06-18T15:15:00Z</time>
      </trkpt>
      <trkpt lat="36.529371" lon="-6.202238">
        <ele>8.866</ele>
        <time>2015-06-18T15:15:05Z</time>
      </trkpt>
      <trkpt lat="36.529295" lon="-6.202110">
        <ele>8.818</ele>
        <time>2015-06-18T15:15:08Z</time>
      </trkpt>
      <trkpt lat="36.529265" lon="-6.202008">
        <ele>8.841</ele>
        <time>2015-06-18T15:15:10Z</time>
      </trkpt>
      <trkpt lat="36.529189" lon="-6.201735">
        <ele>8.835</ele>
        <time>2015-06-18T15:15:16Z</time>
      </trkpt>
      <trkpt lat="36.529119" lon="-6.201478">
        <ele>8.875</ele>
        <time>2015-06-18T15:15:24Z</time>
      </trkpt>
      <trkpt lat="36.529052" lon="-6.201287">
        <ele>8.828</ele>
        <time>2015-06-18T15:15:31Z</time>
      </trkpt>
      <trkpt lat="36.529003" lon="-6.201106">
        <ele>8.820</ele>
        <time>2015-06-18T15:15:36Z</time>
      </trkpt>
      <trkpt lat="36.528958" lon="-6.200890">
        <ele>8.808</ele>
        <time>2015-06-18T15:15:43Z</time>
      </trkpt>
      <trkpt lat="36.528908" lon="-6.200706">
        <ele>2.018</ele>
        <time>2015-06-18T15:15:50Z</time>
      </trkpt>
      <trkpt lat="36.528865" lon="-6.200571">
        <ele>3.274</ele>
        <time>2015-06-18T15:15:54Z</time>
      </trkpt>
      <trkpt lat="36.528820" lon="-6.200448">
        <ele>3.280</ele>
        <time>2015-06-18T15:15:57Z</time>
      </trkpt>
      <trkpt lat="36.528745" lon="-6.200268">
        <ele>3.219</ele>
        <time>2015-06-18T15:16:01Z</time>
      </trkpt>
      <trkpt lat="36.528702" lon="-6.200116">
        <ele>3.222</ele>
        <time>2015-06-18T15:16:04Z</time>
      </trkpt>
      <trkpt lat="36.528642" lon="-6.199916">
        <ele>3.294</ele>
        <time>2015-06-18T15:16:08Z</time>
      </trkpt>
      <trkpt lat="36.528577" lon="-6.199681">
        <ele>3.257</ele>
        <time>2015-06-18T15:16:13Z</time>
      </trkpt>
      <trkpt lat="36.528469" lon="-6.199236">
        <ele>3.241</ele>
        <time>2015-06-18T15:16:22Z</time>
      </trkpt>
      <trkpt lat="36.528444" lon="-6.199132">
        <ele>3.279</ele>
        <time>2015-06-18T15:16:24Z</time>
      </trkpt>
      <trkpt lat="36.528397" lon="-6.198940">
        <ele>3.205</ele>
        <time>2015-06-18T15:16:28Z</time>
      </trkpt>
      <trkpt lat="36.528285" lon="-6.198633">
        <ele>3.225</ele>
        <time>2015-06-18T15:16:35Z</time>
      </trkpt>
      <trkpt lat="36.528164" lon="-6.198200">
        <ele>3.208</ele>
        <time>2015-06-18T15:16:44Z</time>
      </trkpt>
      <trkpt lat="36.528120" lon="-6.198105">
        <ele>3.278</ele>
        <time>2015-06-18T15:16:46Z</time>
      </trkpt>
      <trkpt lat="36.528037" lon="-6.197985">
        <ele>3.264</ele>
        <time>2015-06-18T15:16:49Z</time>
      </trkpt>
      <trkpt lat="36.527835" lon="-6.197730">
        <ele>3.230</ele>
        <time>2015-06-18T15:16:56Z</time>
      </trkpt>
      <trkpt lat="36.527642" lon="-6.197556">
        <ele>3.269</ele>
        <time>2015-06-18T15:17:02Z</time>
      </trkpt>
      <trkpt lat="36.527426" lon="-6.197383">
        <ele>3.252</ele>
        <time>2015-06-18T15:17:08Z</time>
      </trkpt>
      <trkpt lat="36.527269" lon="-6.197269">
        <ele>3.224</ele>
        <time>2015-06-18T15:17:13Z</time>
      </trkpt>
      <trkpt lat="36.527238" lon="-6.197250">
        <ele>2.827</ele>
        <time>2015-06-18T15:17:14Z</time>
      </trkpt>
      <trkpt lat="36.527210" lon="-6.197227">
        <ele>2.431</ele>
        <time>2015-06-18T15:17:15Z</time>
      </trkpt>
      <trkpt lat="36.527181" lon="-6.197205">
        <ele>2.036</ele>
        <time>2015-06-18T15:17:16Z</time>
      </trkpt>
      <trkpt lat="36.527155" lon="-6.197184">
        <ele>1.617</ele>
        <time>2015-06-18T15:17:17Z</time>
      </trkpt>
      <trkpt lat="36.527127" lon="-6.197159">
        <ele>1.218</ele>
        <time>2015-06-18T15:17:18Z</time>
      </trkpt>
      <trkpt lat="36.527103" lon="-6.197131">
        <ele>1.208</ele>
        <time>2015-06-18T15:17:19Z</time>
      </trkpt>
      <trkpt lat="36.526948" lon="-6.196929">
        <ele>1.224</ele>
        <time>2015-06-18T15:17:25Z</time>
      </trkpt>
      <trkpt lat="36.526893" lon="-6.196824">
        <ele>1.660</ele>
        <time>2015-06-18T15:17:28Z</time>
      </trkpt>
      <trkpt lat="36.526876" lon="-6.196786">
        <ele>2.066</ele>
        <time>2015-06-18T15:17:29Z</time>
      </trkpt>
      <trkpt lat="36.526859" lon="-6.196748">
        <ele>2.475</ele>
        <time>2015-06-18T15:17:30Z</time>
      </trkpt>
      <trkpt lat="36.526842" lon="-6.196707">
        <ele>2.898</ele>
        <time>2015-06-18T15:17:31Z</time>
      </trkpt>
      <trkpt lat="36.526825" lon="-6.196670">
        <ele>3.220</ele>
        <time>2015-06-18T15:17:32Z</time>
      </trkpt>
      <trkpt lat="36.526769" lon="-6.196466">
        <ele>3.213</ele>
        <time>2015-06-18T15:17:37Z</time>
      </trkpt>
      <trkpt lat="36.526679" lon="-6.196159">
        <ele>3.297</ele>
        <time>2015-06-18T15:17:44Z</time>
      </trkpt>
      <trkpt lat="36.526614" lon="-6.195919">
        <ele>3.295</ele>
        <time>2015-06-18T15:17:50Z</time>
      </trkpt>
      <trkpt lat="36.526544" lon="-6.195685">
        <ele>3.249</ele>
        <time>2015-06-18T15:17:56Z</time>
      </trkpt>
      <trkpt lat="36.526467" lon="-6.195359">
        <ele>3.223</ele>
        <time>2015-06-18T15:18:04Z</time>
      </trkpt>
      <trkpt lat="36.526379" lon="-6.195018">
        <ele>3.208</ele>
        <time>2015-06-18T15:18:12Z</time>
      </trkpt>
      <trkpt lat="36.526319" lon="-6.194746">
        <ele>3.270</ele>
        <time>2015-06-18T15:18:18Z</time>
      </trkpt>
      <trkpt lat="36.526269" lon="-6.194528">
        <ele>3.256</ele>
        <time>2015-06-18T15:18:23Z</time>
      </trkpt>
      <trkpt lat="36.526226" lon="-6.194353">
        <ele>3.242</ele>
        <time>2015-06-18T15:18:27Z</time>
      </trkpt>
      <trkpt lat="36.526138" lon="-6.193993">
        <ele>3.211</ele>
        <time>2015-06-18T15:18:35Z</time>
      </trkpt>
      <trkpt lat="36.526047" lon="-6.193615">
        <ele>3.264</ele>
        <time>2015-06-18T15:18:43Z</time>
      </trkpt>
      <trkpt lat="36.525975" lon="-6.193305">
        <ele>3.296</ele>
        <time>2015-06-18T15:18:50Z</time>
      </trkpt>
      <trkpt lat="36.525908" lon="-6.193034">
        <ele>3.269</ele>
        <time>2015-06-18T15:18:56Z</time>
      </trkpt>
      <trkpt lat="36.525883" lon="-6.192950">
        <ele>3.283</ele>
        <time>2015-06-18T15:18:58Z</time>
      </trkpt>
      <trkpt lat="36.525800" lon="-6.192703">
        <ele>3.281</ele>
        <time>2015-06-18T15:19:04Z</time>
      </trkpt>
      <trkpt lat="36.525790" lon="-6.192665">
        <ele>3.661</ele>
        <time>2015-06-18T15:19:05Z</time>
      </trkpt>
      <trkpt lat="36.525783" lon="-6.192623">
        <ele>4.017</ele>
        <time>2015-06-18T15:19:06Z</time>
      </trkpt>
      <trkpt lat="36.525778" lon="-6.192580">
        <ele>4.608</ele>
        <time>2015-06-18T15:19:07Z</time>
      </trkpt>
      <trkpt lat="36.525771" lon="-6.192536">
        <ele>5.039</ele>
        <time>2015-06-18T15:19:08Z</time>
      </trkpt>
      <trkpt lat="36.525766" lon="-6.192490">
        <ele>5.465</ele>
        <time>2015-06-18T15:19:09Z</time>
      </trkpt>
      <trkpt lat="36.525747" lon="-6.192363">
        <ele>5.461</ele>
        <time>2015-06-18T15:19:12Z</time>
      </trkpt>
      <trkpt lat="36.525698" lon="-6.192153">
        <ele>5.030</ele>
        <time>2015-06-18T15:19:17Z</time>
      </trkpt>
      <trkpt lat="36.525690" lon="-6.192109">
        <ele>4.683</ele>
        <time>2015-06-18T15:19:18Z</time>
      </trkpt>
      <trkpt lat="36.525682" lon="-6.192065">
        <ele>4.295</ele>
        <time>2015-06-18T15:19:19Z</time>
      </trkpt>
      <trkpt lat="36.525674" lon="-6.192018">
        <ele>3.688</ele>
        <time>2015-06-18T15:19:20Z</time>
      </trkpt>
      <trkpt lat="36.525666" lon="-6.191972">
        <ele>3.282</ele>
        <time>2015-06-18T15:19:21Z</time>
      </trkpt>
      <trkpt lat="36.525603" lon="-6.191707">
        <ele>3.282</ele>
        <time>2015-06-18T15:19:27Z</time>
      </trkpt>
      <trkpt lat="36.525600" lon="-6.191668">
        <ele>3.243</ele>
        <time>2015-06-18T15:19:28Z</time>
      </trkpt>
      <trkpt lat="36.525612" lon="-6.191632">
        <ele>3.217</ele>
        <time>2015-06-18T15:19:29Z</time>
      </trkpt>
      <trkpt lat="36.525652" lon="-6.191561">
        <ele>2.808</ele>
        <time>2015-06-18T15:19:31Z</time>
      </trkpt>
      <trkpt lat="36.525673" lon="-6.191521">
        <ele>2.479</ele>
        <time>2015-06-18T15:19:32Z</time>
      </trkpt>
      <trkpt lat="36.525692" lon="-6.191481">
        <ele>1.845</ele>
        <time>2015-06-18T15:19:33Z</time>
      </trkpt>
      <trkpt lat="36.525712" lon="-6.191440">
        <ele>1.431</ele>
        <time>2015-06-18T15:19:34Z</time>
      </trkpt>
      <trkpt lat="36.525730" lon="-6.191400">
        <ele>1.060</ele>
        <time>2015-06-18T15:19:35Z</time>
      </trkpt>
      <trkpt lat="36.525806" lon="-6.191234">
        <ele>1.013</ele>
        <time>2015-06-18T15:19:39Z</time>
      </trkpt>
      <trkpt lat="36.525913" lon="-6.191022">
        <ele>1.045</ele>
        <time>2015-06-18T15:19:45Z</time>
      </trkpt>
      <trkpt lat="36.525923" lon="-6.190960">
        <ele>1.068</ele>
        <time>2015-06-18T15:19:47Z</time>
      </trkpt>
      <trkpt lat="36.525909" lon="-6.190890">
        <ele>1.052</ele>
        <time>2015-06-18T15:19:49Z</time>
      </trkpt>
      <trkpt lat="36.525867" lon="-6.190738">
        <ele>1.092</ele>
        <time>2015-06-18T15:19:54Z</time>
      </trkpt>
      <trkpt lat="36.525861" lon="-6.190720">
        <ele>1.073</ele>
        <time>2015-06-18T15:19:55Z</time>
      </trkpt>
      <trkpt lat="36.525851" lon="-6.190656">
        <ele>1.020</ele>
        <time>2015-06-18T15:19:59Z</time>
      </trkpt>
      <trkpt lat="36.525852" lon="-6.190643">
        <ele>1.408</ele>
        <time>2015-06-18T15:20:00Z</time>
      </trkpt>
      <trkpt lat="36.525855" lon="-6.190639">
        <ele>2.080</ele>
        <time>2015-06-18T15:20:01Z</time>
      </trkpt>
      <trkpt lat="36.525863" lon="-6.190638">
        <ele>2.416</ele>
        <time>2015-06-18T15:20:02Z</time>
      </trkpt>
      <trkpt lat="36.525863" lon="-6.190638">
        <ele>2.822</ele>
        <time>2015-06-18T15:20:03Z</time>
      </trkpt>
      <trkpt lat="36.525863" lon="-6.190638">
        <ele>2.681</ele>
        <time>2015-06-18T15:20:04Z</time>
      </trkpt>
      <trkpt lat="36.525863" lon="-6.190638">
        <ele>2.274</ele>
        <time>2015-06-18T15:20:05Z</time>
      </trkpt>
      <trkpt lat="36.525863" lon="-6.190638">
        <ele>2.056</ele>
        <time>2015-06-18T15:20:06Z</time>
      </trkpt>
      <trkpt lat="36.525863" lon="-6.190638">
        <ele>1.659</ele>
        <time>2015-06-18T15:20:07Z</time>
      </trkpt>
      <trkpt lat="36.525863" lon="-6.190638">
        <ele>1.473</ele>
        <time>2015-06-18T15:20:08Z</time>
      </trkpt>
      <trkpt lat="36.525863" lon="-6.190638">
        <ele>1.413</ele>
        <time>2015-06-18T15:20:10Z</time>
      </trkpt>
      <trkpt lat="36.525865" lon="-6.190612">
        <ele>1.443</ele>
        <time>2015-06-18T15:20:19Z</time>
      </trkpt>
      <trkpt lat="36.525858" lon="-6.190491">
        <ele>1.407</ele>
        <time>2015-06-18T15:20:23Z</time>
      </trkpt>
      <trkpt lat="36.525824" lon="-6.190387">
        <ele>1.408</ele>
        <time>2015-06-18T15:20:26Z</time>
      </trkpt>
      <trkpt lat="36.525780" lon="-6.190285">
        <ele>1.452</ele>
        <time>2015-06-18T15:20:29Z</time>
      </trkpt>
      <trkpt lat="36.525715" lon="-6.190177">
        <ele>1.498</ele>
        <time>2015-06-18T15:20:33Z</time>
      </trkpt>
      <trkpt lat="36.525593" lon="-6.190033">
        <ele>1.434</ele>
        <time>2015-06-18T15:20:39Z</time>
      </trkpt>
      <trkpt lat="36.525462" lon="-6.189860">
        <ele>1.483</ele>
        <time>2015-06-18T15:20:45Z</time>
      </trkpt>
      <trkpt lat="36.525377" lon="-6.189691">
        <ele>1.466</ele>
        <time>2015-06-18T15:20:50Z</time>
      </trkpt>
      <trkpt lat="36.525282" lon="-6.189506">
        <ele>1.498</ele>
        <time>2015-06-18T15:20:56Z</time>
      </trkpt>
      <trkpt lat="36.525218" lon="-6.189367">
        <ele>1.471</ele>
        <time>2015-06-18T15:21:00Z</time>
      </trkpt>
      <trkpt lat="36.525195" lon="-6.189291">
        <ele>1.455</ele>
        <time>2015-06-18T15:21:02Z</time>
      </trkpt>
      <trkpt lat="36.525126" lon="-6.189094">
        <ele>1.448</ele>
        <time>2015-06-18T15:21:08Z</time>
      </trkpt>
      <trkpt lat="36.525100" lon="-6.188983">
        <ele>1.861</ele>
        <time>2015-06-18T15:21:11Z</time>
      </trkpt>
      <trkpt lat="36.525092" lon="-6.188943">
        <ele>2.217</ele>
        <time>2015-06-18T15:21:12Z</time>
      </trkpt>
      <trkpt lat="36.525082" lon="-6.188907">
        <ele>2.608</ele>
        <time>2015-06-18T15:21:13Z</time>
      </trkpt>
      <trkpt lat="36.525070" lon="-6.188866">
        <ele>3.045</ele>
        <time>2015-06-18T15:21:14Z</time>
      </trkpt>
      <trkpt lat="36.525061" lon="-6.188829">
        <ele>3.441</ele>
        <time>2015-06-18T15:21:15Z</time>
      </trkpt>
      <trkpt lat="36.525000" lon="-6.188598">
        <ele>3.447</ele>
        <time>2015-06-18T15:21:21Z</time>
      </trkpt>
      <trkpt lat="36.524959" lon="-6.188323">
        <ele>3.426</ele>
        <time>2015-06-18T15:21:28Z</time>
      </trkpt>
      <trkpt lat="36.524930" lon="-6.188109">
        <ele>3.439</ele>
        <time>2015-06-18T15:21:34Z</time>
      </trkpt>
      <trkpt lat="36.524921" lon="-6.188001">
        <ele>3.441</ele>
        <time>2015-06-18T15:21:37Z</time>
      </trkpt>
      <trkpt lat="36.524910" lon="-6.187886">
        <ele>4.094</ele>
        <time>2015-06-18T15:21:40Z</time>
      </trkpt>
      <trkpt lat="36.524909" lon="-6.187851">
        <ele>4.458</ele>
        <time>2015-06-18T15:21:41Z</time>
      </trkpt>
      <trkpt lat="36.524907" lon="-6.187818">
        <ele>4.841</ele>
        <time>2015-06-18T15:21:42Z</time>
      </trkpt>
      <trkpt lat="36.524907" lon="-6.187786">
        <ele>5.481</ele>
        <time>2015-06-18T15:21:43Z</time>
      </trkpt>
      <trkpt lat="36.524908" lon="-6.187752">
        <ele>5.809</ele>
        <time>2015-06-18T15:21:44Z</time>
      </trkpt>
      <trkpt lat="36.524922" lon="-6.187605">
        <ele>5.808</ele>
        <time>2015-06-18T15:21:49Z</time>
      </trkpt>
      <trkpt lat="36.524949" lon="-6.187554">
        <ele>5.485</ele>
        <time>2015-06-18T15:21:51Z</time>
      </trkpt>
      <trkpt lat="36.524949" lon="-6.187525">
        <ele>5.021</ele>
        <time>2015-06-18T15:21:52Z</time>
      </trkpt>
      <trkpt lat="36.524944" lon="-6.187490">
        <ele>4.477</ele>
        <time>2015-06-18T15:21:53Z</time>
      </trkpt>
      <trkpt lat="36.524938" lon="-6.187457">
        <ele>3.816</ele>
        <time>2015-06-18T15:21:54Z</time>
      </trkpt>
      <trkpt lat="36.524940" lon="-6.187424">
        <ele>3.219</ele>
        <time>2015-06-18T15:21:55Z</time>
      </trkpt>
      <trkpt lat="36.524947" lon="-6.187391">
        <ele>2.681</ele>
        <time>2015-06-18T15:21:56Z</time>
      </trkpt>
      <trkpt lat="36.524956" lon="-6.187358">
        <ele>2.024</ele>
        <time>2015-06-18T15:21:57Z</time>
      </trkpt>
      <trkpt lat="36.524963" lon="-6.187324">
        <ele>1.448</ele>
        <time>2015-06-18T15:21:58Z</time>
      </trkpt>
      <trkpt lat="36.525013" lon="-6.187111">
        <ele>1.468</ele>
        <time>2015-06-18T15:22:04Z</time>
      </trkpt>
      <trkpt lat="36.525106" lon="-6.186848">
        <ele>1.442</ele>
        <time>2015-06-18T15:22:11Z</time>
      </trkpt>
      <trkpt lat="36.525148" lon="-6.186745">
        <ele>1.026</ele>
        <time>2015-06-18T15:22:14Z</time>
      </trkpt>
      <trkpt lat="36.525163" lon="-6.186710">
        <ele>0.608</ele>
        <time>2015-06-18T15:22:15Z</time>
      </trkpt>
      <trkpt lat="36.525182" lon="-6.186674">
        <ele>0.227</ele>
        <time>2015-06-18T15:22:16Z</time>
      </trkpt>
      <trkpt lat="36.525196" lon="-6.186639">
        <ele>-0.273</ele>
        <time>2015-06-18T15:22:17Z</time>
      </trkpt>
      <trkpt lat="36.525214" lon="-6.186605">
        <ele>-0.659</ele>
        <time>2015-06-18T15:22:18Z</time>
      </trkpt>
      <trkpt lat="36.525327" lon="-6.186386">
        <ele>-0.628</ele>
        <time>2015-06-18T15:22:25Z</time>
      </trkpt>
      <trkpt lat="36.525342" lon="-6.186354">
        <ele>-0.651</ele>
        <time>2015-06-18T15:22:26Z</time>
      </trkpt>
      <trkpt lat="36.525485" lon="-6.186141">
        <ele>-0.653</ele>
        <time>2015-06-18T15:22:33Z</time>
      </trkpt>
      <trkpt lat="36.525629" lon="-6.185931">
        <ele>-0.636</ele>
        <time>2015-06-18T15:22:40Z</time>
      </trkpt>
      <trkpt lat="36.525699" lon="-6.185805">
        <ele>-1.070</ele>
        <time>2015-06-18T15:22:44Z</time>
      </trkpt>
      <trkpt lat="36.525717" lon="-6.185772">
        <ele>-1.465</ele>
        <time>2015-06-18T15:22:45Z</time>
      </trkpt>
      <trkpt lat="36.525733" lon="-6.185738">
        <ele>-1.868</ele>
        <time>2015-06-18T15:22:46Z</time>
      </trkpt>
      <trkpt lat="36.525748" lon="-6.185706">
        <ele>-2.214</ele>
        <time>2015-06-18T15:22:47Z</time>
      </trkpt>
      <trkpt lat="36.525762" lon="-6.185672">
        <ele>-2.608</ele>
        <time>2015-06-18T15:22:48Z</time>
      </trkpt>
      <trkpt lat="36.525857" lon="-6.185441">
        <ele>-2.677</ele>
        <time>2015-06-18T15:22:55Z</time>
      </trkpt>
      <trkpt lat="36.525894" lon="-6.185314">
        <ele>-2.673</ele>
        <time>2015-06-18T15:23:00Z</time>
      </trkpt>
      <trkpt lat="36.525921" lon="-6.185249">
        <ele>2.089</ele>
        <time>2015-06-18T15:23:04Z</time>
      </trkpt>
      <trkpt lat="36.525934" lon="-6.185204">
        <ele>2.048</ele>
        <time>2015-06-18T15:23:06Z</time>
      </trkpt>
      <trkpt lat="36.525950" lon="-6.185145">
        <ele>1.621</ele>
        <time>2015-06-18T15:23:08Z</time>
      </trkpt>
      <trkpt lat="36.525958" lon="-6.185115">
        <ele>1.673</ele>
        <time>2015-06-18T15:23:09Z</time>
      </trkpt>
      <trkpt lat="36.525972" lon="-6.185051">
        <ele>1.656</ele>
        <time>2015-06-18T15:23:11Z</time>
      </trkpt>
      <trkpt lat="36.525998" lon="-6.184808">
        <ele>1.620</ele>
        <time>2015-06-18T15:23:18Z</time>
      </trkpt>
      <trkpt lat="36.526022" lon="-6.184578">
        <ele>1.682</ele>
        <time>2015-06-18T15:23:24Z</time>
      </trkpt>
      <trkpt lat="36.526017" lon="-6.184307">
        <ele>1.643</ele>
        <time>2015-06-18T15:23:31Z</time>
      </trkpt>
      <trkpt lat="36.526007" lon="-6.184198">
        <ele>2.017</ele>
        <time>2015-06-18T15:23:34Z</time>
      </trkpt>
      <trkpt lat="36.526005" lon="-6.184161">
        <ele>2.408</ele>
        <time>2015-06-18T15:23:35Z</time>
      </trkpt>
      <trkpt lat="36.526001" lon="-6.184123">
        <ele>2.849</ele>
        <time>2015-06-18T15:23:36Z</time>
      </trkpt>
      <trkpt lat="36.525994" lon="-6.184083">
        <ele>3.265</ele>
        <time>2015-06-18T15:23:37Z</time>
      </trkpt>
      <trkpt lat="36.525986" lon="-6.184042">
        <ele>3.611</ele>
        <time>2015-06-18T15:23:38Z</time>
      </trkpt>
      <trkpt lat="36.525931" lon="-6.183746">
        <ele>3.640</ele>
        <time>2015-06-18T15:23:45Z</time>
      </trkpt>
      <trkpt lat="36.525866" lon="-6.183543">
        <ele>3.663</ele>
        <time>2015-06-18T15:23:50Z</time>
      </trkpt>
      <trkpt lat="36.525777" lon="-6.183293">
        <ele>3.695</ele>
        <time>2015-06-18T15:23:56Z</time>
      </trkpt>
      <trkpt lat="36.525671" lon="-6.183094">
        <ele>3.698</ele>
        <time>2015-06-18T15:24:01Z</time>
      </trkpt>
      <trkpt lat="36.525493" lon="-6.182813">
        <ele>3.612</ele>
        <time>2015-06-18T15:24:08Z</time>
      </trkpt>
      <trkpt lat="36.525467" lon="-6.182768">
        <ele>3.688</ele>
        <time>2015-06-18T15:24:09Z</time>
      </trkpt>
      <trkpt lat="36.525384" lon="-6.182640">
        <ele>3.624</ele>
        <time>2015-06-18T15:24:12Z</time>
      </trkpt>
      <trkpt lat="36.525245" lon="-6.182479">
        <ele>3.626</ele>
        <time>2015-06-18T15:24:16Z</time>
      </trkpt>
      <trkpt lat="36.525036" lon="-6.182290">
        <ele>3.608</ele>
        <time>2015-06-18T15:24:22Z</time>
      </trkpt>
      <trkpt lat="36.524972" lon="-6.182244">
        <ele>3.249</ele>
        <time>2015-06-18T15:26:14Z</time>
      </trkpt>
      <trkpt lat="36.524987" lon="-6.182229">
        <ele>3.275</ele>
        <time>2015-06-18T15:26:15Z</time>
      </trkpt>
      <trkpt lat="36.525008" lon="-6.182173">
        <ele>2.831</ele>
        <time>2015-06-18T15:26:18Z</time>
      </trkpt>
      <trkpt lat="36.525018" lon="-6.182150">
        <ele>2.420</ele>
        <time>2015-06-18T15:26:19Z</time>
      </trkpt>
      <trkpt lat="36.525031" lon="-6.182123">
        <ele>2.013</ele>
        <time>2015-06-18T15:26:20Z</time>
      </trkpt>
      <trkpt lat="36.525043" lon="-6.182099">
        <ele>1.415</ele>
        <time>2015-06-18T15:26:21Z</time>
      </trkpt>
      <trkpt lat="36.525060" lon="-6.182083">
        <ele>1.068</ele>
        <time>2015-06-18T15:26:22Z</time>
      </trkpt>
      <trkpt lat="36.525167" lon="-6.182124">
        <ele>1.072</ele>
        <time>2015-06-18T15:26:29Z</time>
      </trkpt>
      <trkpt lat="36.525167" lon="-6.182124">
        <ele>1.636</ele>
        <time>2015-06-18T15:26:31Z</time>
      </trkpt>
      <trkpt lat="36.525167" lon="-6.182124">
        <ele>2.017</ele>
        <time>2015-06-18T15:26:32Z</time>
      </trkpt>
      <trkpt lat="36.525169" lon="-6.182124">
        <ele>3.018</ele>
        <time>2015-06-18T15:26:33Z</time>
      </trkpt>
      <trkpt lat="36.525178" lon="-6.182123">
        <ele>3.608</ele>
        <time>2015-06-18T15:26:34Z</time>
      </trkpt>
      <trkpt lat="36.525186" lon="-6.182126">
        <ele>3.654</ele>
        <time>2015-06-18T15:26:36Z</time>
      </trkpt>
      <trkpt lat="36.525186" lon="-6.182126">
        <ele>3.680</ele>
        <time>2015-06-18T15:26:38Z</time>
      </trkpt>
      <trkpt lat="36.525187" lon="-6.182130">
        <ele>3.616</ele>
        <time>2015-06-18T15:26:40Z</time>
      </trkpt>
      <trkpt lat="36.525187" lon="-6.182130">
        <ele>3.625</ele>
        <time>2015-06-18T15:26:42Z</time>
      </trkpt>
      <trkpt lat="36.525187" lon="-6.182130">
        <ele>3.658</ele>
        <time>2015-06-18T15:26:45Z</time>
      </trkpt>
      <trkpt lat="36.525177" lon="-6.182103">
        <ele>3.660</ele>
        <time>2015-06-18T15:26:48Z</time>
      </trkpt>
      <trkpt lat="36.525177" lon="-6.182114">
        <ele>3.673</ele>
        <time>2015-06-18T15:27:50Z</time>
      </trkpt>
      <trkpt lat="36.525218" lon="-6.182177">
        <ele>3.687</ele>
        <time>2015-06-18T15:27:57Z</time>
      </trkpt>
      <trkpt lat="36.525261" lon="-6.182190">
        <ele>3.614</ele>
        <time>2015-06-18T15:28:04Z</time>
      </trkpt>
      <trkpt lat="36.525276" lon="-6.182192">
        <ele>4.054</ele>
        <time>2015-06-18T15:28:08Z</time>
      </trkpt>
      <trkpt lat="36.525280" lon="-6.182191">
        <ele>4.409</ele>
        <time>2015-06-18T15:28:09Z</time>
      </trkpt>
      <trkpt lat="36.525281" lon="-6.182188">
        <ele>4.808</ele>
        <time>2015-06-18T15:28:10Z</time>
      </trkpt>
      <trkpt lat="36.525281" lon="-6.182188">
        <ele>5.662</ele>
        <time>2015-06-18T15:28:11Z</time>
      </trkpt>
      <trkpt lat="36.525282" lon="-6.182175">
        <ele>5.698</ele>
        <time>2015-06-18T15:28:12Z</time>
      </trkpt>
      <trkpt lat="36.525278" lon="-6.182164">
        <ele>6.014</ele>
        <time>2015-06-18T15:28:13Z</time>
      </trkpt>
      <trkpt lat="36.525270" lon="-6.182155">
        <ele>6.433</ele>
        <time>2015-06-18T15:28:14Z</time>
      </trkpt>
      <trkpt lat="36.525272" lon="-6.182146">
        <ele>6.886</ele>
        <time>2015-06-18T15:28:15Z</time>
      </trkpt>
      <trkpt lat="36.525275" lon="-6.182143">
        <ele>7.218</ele>
        <time>2015-06-18T15:28:16Z</time>
      </trkpt>
      <trkpt lat="36.525283" lon="-6.182133">
        <ele>7.871</ele>
        <time>2015-06-18T15:28:17Z</time>
      </trkpt>
      <trkpt lat="36.525298" lon="-6.182104">
        <ele>7.865</ele>
        <time>2015-06-18T15:28:19Z</time>
      </trkpt>
      <trkpt lat="36.525308" lon="-6.182044">
        <ele>7.844</ele>
        <time>2015-06-18T15:28:25Z</time>
      </trkpt>
      <trkpt lat="36.525322" lon="-6.182044">
        <ele>7.805</ele>
        <time>2015-06-18T15:28:30Z</time>
      </trkpt>
      <trkpt lat="36.525327" lon="-6.182039">
        <ele>7.415</ele>
        <time>2015-06-18T15:28:31Z</time>
      </trkpt>
      <trkpt lat="36.525331" lon="-6.182033">
        <ele>6.808</ele>
        <time>2015-06-18T15:28:32Z</time>
      </trkpt>
      <trkpt lat="36.525333" lon="-6.182029">
        <ele>6.485</ele>
        <time>2015-06-18T15:28:33Z</time>
      </trkpt>
      <trkpt lat="36.525335" lon="-6.182025">
        <ele>6.061</ele>
        <time>2015-06-18T15:28:34Z</time>
      </trkpt>
      <trkpt lat="36.525335" lon="-6.182025">
        <ele>5.657</ele>
        <time>2015-06-18T15:28:35Z</time>
      </trkpt>
      <trkpt lat="36.525335" lon="-6.182025">
        <ele>5.616</ele>
        <time>2015-06-18T15:28:36Z</time>
      </trkpt>
      <trkpt lat="36.525335" lon="-6.182025">
        <ele>5.679</ele>
        <time>2015-06-18T15:28:48Z</time>
      </trkpt>
      <trkpt lat="36.525335" lon="-6.182025">
        <ele>5.621</ele>
        <time>2015-06-18T15:29:00Z</time>
      </trkpt>
      <trkpt lat="36.525335" lon="-6.182025">
        <ele>4.674</ele>
        <time>2015-06-18T15:29:01Z</time>
      </trkpt>
      <trkpt lat="36.525335" lon="-6.182025">
        <ele>4.078</ele>
        <time>2015-06-18T15:29:02Z</time>
      </trkpt>
      <trkpt lat="36.525335" lon="-6.182025">
        <ele>3.682</ele>
        <time>2015-06-18T15:29:03Z</time>
      </trkpt>
      <trkpt lat="36.525335" lon="-6.182025">
        <ele>3.043</ele>
        <time>2015-06-18T15:29:04Z</time>
      </trkpt>
      <trkpt lat="36.525335" lon="-6.182025">
        <ele>3.417</ele>
        <time>2015-06-18T15:29:09Z</time>
      </trkpt>
      <trkpt lat="36.525335" lon="-6.182025">
        <ele>3.808</ele>
        <time>2015-06-18T15:29:10Z</time>
      </trkpt>
      <trkpt lat="36.525335" lon="-6.182025">
        <ele>4.239</ele>
        <time>2015-06-18T15:29:11Z</time>
      </trkpt>
      <trkpt lat="36.525335" lon="-6.182025">
        <ele>4.625</ele>
        <time>2015-06-18T15:29:12Z</time>
      </trkpt>
      <trkpt lat="36.525335" lon="-6.182025">
        <ele>5.021</ele>
        <time>2015-06-18T15:29:13Z</time>
      </trkpt>
      <trkpt lat="36.525343" lon="-6.182036">
        <ele>5.090</ele>
        <time>2015-06-18T15:29:20Z</time>
      </trkpt>
      <trkpt lat="36.525343" lon="-6.182036">
        <ele>5.033</ele>
        <time>2015-06-18T15:29:23Z</time>
      </trkpt>
      <trkpt lat="36.525343" lon="-6.182036">
        <ele>5.025</ele>
        <time>2015-06-18T15:29:38Z</time>
      </trkpt>
      <trkpt lat="36.525343" lon="-6.182036">
        <ele>5.088</ele>
        <time>2015-06-18T15:29:53Z</time>
      </trkpt>
      <trkpt lat="36.525343" lon="-6.182036">
        <ele>5.052</ele>
        <time>2015-06-18T15:29:55Z</time>
      </trkpt>
      <trkpt lat="36.525346" lon="-6.182039">
        <ele>5.033</ele>
        <time>2015-06-18T15:30:04Z</time>
      </trkpt>
      <trkpt lat="36.525346" lon="-6.182039">
        <ele>5.023</ele>
        <time>2015-06-18T15:30:11Z</time>
      </trkpt>
      <trkpt lat="36.525346" lon="-6.182039">
        <ele>5.015</ele>
        <time>2015-06-18T15:30:25Z</time>
      </trkpt>
      <trkpt lat="36.525346" lon="-6.182039">
        <ele>5.008</ele>
        <time>2015-06-18T15:30:40Z</time>
      </trkpt>
      <trkpt lat="36.525349" lon="-6.182039">
        <ele>5.034</ele>
        <time>2015-06-18T15:30:55Z</time>
      </trkpt>
      <trkpt lat="36.525349" lon="-6.182039">
        <ele>5.090</ele>
        <time>2015-06-18T15:31:11Z</time>
      </trkpt>
      <trkpt lat="36.525351" lon="-6.182041">
        <ele>5.026</ele>
        <time>2015-06-18T15:31:28Z</time>
      </trkpt>
      <trkpt lat="36.525351" lon="-6.182041">
        <ele>5.095</ele>
        <time>2015-06-18T15:31:43Z</time>
      </trkpt>
      <trkpt lat="36.525351" lon="-6.182041">
        <ele>5.058</ele>
        <time>2015-06-18T15:31:44Z</time>
      </trkpt>
      <trkpt lat="36.525351" lon="-6.182041">
        <ele>5.020</ele>
        <time>2015-06-18T15:31:49Z</time>
      </trkpt>
      <trkpt lat="36.525351" lon="-6.182041">
        <ele>5.013</ele>
        <time>2015-06-18T15:31:58Z</time>
      </trkpt>
      <trkpt lat="36.525352" lon="-6.182041">
        <ele>5.037</ele>
        <time>2015-06-18T15:32:11Z</time>
      </trkpt>
      <trkpt lat="36.525352" lon="-6.182041">
        <ele>5.064</ele>
        <time>2015-06-18T15:32:15Z</time>
      </trkpt>
      <trkpt lat="36.525352" lon="-6.182041">
        <ele>5.006</ele>
        <time>2015-06-18T15:32:30Z</time>
      </trkpt>
      <trkpt lat="36.525352" lon="-6.182041">
        <ele>5.016</ele>
        <time>2015-06-18T15:32:39Z</time>
      </trkpt>
      <trkpt lat="36.525353" lon="-6.182039">
        <ele>5.008</ele>
        <time>2015-06-18T15:32:43Z</time>
      </trkpt>
      <trkpt lat="36.525353" lon="-6.182039">
        <ele>5.027</ele>
        <time>2015-06-18T15:32:54Z</time>
      </trkpt>
      <trkpt lat="36.525353" lon="-6.182039">
        <ele>5.073</ele>
        <time>2015-06-18T15:33:07Z</time>
      </trkpt>
      <trkpt lat="36.525353" lon="-6.182040">
        <ele>5.079</ele>
        <time>2015-06-18T15:33:23Z</time>
      </trkpt>
      <trkpt lat="36.525353" lon="-6.182040">
        <ele>5.088</ele>
        <time>2015-06-18T15:33:35Z</time>
      </trkpt>
      <trkpt lat="36.525352" lon="-6.182036">
        <ele>5.021</ele>
        <time>2015-06-18T15:33:40Z</time>
      </trkpt>
      <trkpt lat="36.525352" lon="-6.182036">
        <ele>5.073</ele>
        <time>2015-06-18T15:33:44Z</time>
      </trkpt>
      <trkpt lat="36.525352" lon="-6.182036">
        <ele>5.076</ele>
        <time>2015-06-18T15:33:50Z</time>
      </trkpt>
      <trkpt lat="36.525352" lon="-6.182036">
        <ele>5.020</ele>
        <time>2015-06-18T15:33:57Z</time>
      </trkpt>
      <trkpt lat="36.525352" lon="-6.182036">
        <ele>5.072</ele>
        <time>2015-06-18T15:34:01Z</time>
      </trkpt>
      <trkpt lat="36.525352" lon="-6.182036">
        <ele>5.013</ele>
        <time>2015-06-18T15:34:02Z</time>
      </trkpt>
      <trkpt lat="36.525357" lon="-6.182039">
        <ele>5.014</ele>
        <time>2015-06-18T15:34:03Z</time>
      </trkpt>
      <trkpt lat="36.525357" lon="-6.182039">
        <ele>5.008</ele>
        <time>2015-06-18T15:34:04Z</time>
      </trkpt>
      <trkpt lat="36.525357" lon="-6.182039">
        <ele>5.018</ele>
        <time>2015-06-18T15:34:05Z</time>
      </trkpt>
      <trkpt lat="36.525371" lon="-6.182047">
        <ele>5.094</ele>
        <time>2015-06-18T15:34:09Z</time>
      </trkpt>
      <trkpt lat="36.525371" lon="-6.182047">
        <ele>5.090</ele>
        <time>2015-06-18T15:34:12Z</time>
      </trkpt>
      <trkpt lat="36.525371" lon="-6.182047">
        <ele>5.059</ele>
        <time>2015-06-18T15:34:18Z</time>
      </trkpt>
      <trkpt lat="36.525371" lon="-6.182047">
        <ele>5.062</ele>
        <time>2015-06-18T15:34:22Z</time>
      </trkpt>
      <trkpt lat="36.525371" lon="-6.182047">
        <ele>5.054</ele>
        <time>2015-06-18T15:34:32Z</time>
      </trkpt>
      <trkpt lat="36.525370" lon="-6.182051">
        <ele>5.047</ele>
        <time>2015-06-18T15:34:48Z</time>
      </trkpt>
      <trkpt lat="36.525370" lon="-6.182051">
        <ele>5.011</ele>
        <time>2015-06-18T15:35:00Z</time>
      </trkpt>
      <trkpt lat="36.525370" lon="-6.182051">
        <ele>5.056</ele>
        <time>2015-06-18T15:35:01Z</time>
      </trkpt>
      <trkpt lat="36.525370" lon="-6.182051">
        <ele>5.059</ele>
        <time>2015-06-18T15:35:03Z</time>
      </trkpt>
      <trkpt lat="36.525370" lon="-6.182051">
        <ele>5.014</ele>
        <time>2015-06-18T15:35:04Z</time>
      </trkpt>
      <trkpt lat="36.525370" lon="-6.182051">
        <ele>5.008</ele>
        <time>2015-06-18T15:35:06Z</time>
      </trkpt>
      <trkpt lat="36.525370" lon="-6.182051">
        <ele>5.046</ele>
        <time>2015-06-18T15:35:11Z</time>
      </trkpt>
      <trkpt lat="36.525370" lon="-6.182051">
        <ele>5.042</ele>
        <time>2015-06-18T15:35:15Z</time>
      </trkpt>
      <trkpt lat="36.525370" lon="-6.182051">
        <ele>5.028</ele>
        <time>2015-06-18T15:35:24Z</time>
      </trkpt>
      <trkpt lat="36.525367" lon="-6.182057">
        <ele>5.017</ele>
        <time>2015-06-18T15:35:35Z</time>
      </trkpt>
      <trkpt lat="36.525367" lon="-6.182057">
        <ele>5.090</ele>
        <time>2015-06-18T15:35:38Z</time>
      </trkpt>
      <trkpt lat="36.525367" lon="-6.182057">
        <ele>5.022</ele>
        <time>2015-06-18T15:35:47Z</time>
      </trkpt>
      <trkpt lat="36.525367" lon="-6.182057">
        <ele>5.085</ele>
        <time>2015-06-18T15:35:58Z</time>
      </trkpt>
      <trkpt lat="36.525367" lon="-6.182057">
        <ele>5.099</ele>
        <time>2015-06-18T15:36:10Z</time>
      </trkpt>
      <trkpt lat="36.525367" lon="-6.182057">
        <ele>5.029</ele>
        <time>2015-06-18T15:36:12Z</time>
      </trkpt>
      <trkpt lat="36.525367" lon="-6.182057">
        <ele>5.000</ele>
        <time>2015-06-18T15:36:23Z</time>
      </trkpt>
      <trkpt lat="36.525367" lon="-6.182057">
        <ele>5.020</ele>
        <time>2015-06-18T15:36:27Z</time>
      </trkpt>
      <trkpt lat="36.525367" lon="-6.182057">
        <ele>5.008</ele>
        <time>2015-06-18T15:36:34Z</time>
      </trkpt>
      <trkpt lat="36.525375" lon="-6.182060">
        <ele>5.053</ele>
        <time>2015-06-18T15:36:46Z</time>
      </trkpt>
      <trkpt lat="36.525394" lon="-6.182042">
        <ele>5.029</ele>
        <time>2015-06-18T15:36:49Z</time>
      </trkpt>
      <trkpt lat="36.525425" lon="-6.182009">
        <ele>5.085</ele>
        <time>2015-06-18T15:36:53Z</time>
      </trkpt>
      <trkpt lat="36.525447" lon="-6.181984">
        <ele>5.054</ele>
        <time>2015-06-18T15:36:55Z</time>
      </trkpt>
      <trkpt lat="36.525480" lon="-6.181953">
        <ele>5.037</ele>
        <time>2015-06-18T15:36:58Z</time>
      </trkpt>
      <trkpt lat="36.525487" lon="-6.181957">
        <ele>5.039</ele>
        <time>2015-06-18T15:37:03Z</time>
      </trkpt>
      <trkpt lat="36.525487" lon="-6.181957">
        <ele>5.012</ele>
        <time>2015-06-18T15:37:07Z</time>
      </trkpt>
      <trkpt lat="36.525487" lon="-6.181957">
        <ele>5.046</ele>
        <time>2015-06-18T15:37:10Z</time>
      </trkpt>
      <trkpt lat="36.525490" lon="-6.181951">
        <ele>5.015</ele>
        <time>2015-06-18T15:37:13Z</time>
      </trkpt>
      <trkpt lat="36.525521" lon="-6.181900">
        <ele>5.065</ele>
        <time>2015-06-18T15:37:16Z</time>
      </trkpt>
      <trkpt lat="36.525526" lon="-6.181849">
        <ele>5.011</ele>
        <time>2015-06-18T15:37:17Z</time>
      </trkpt>
      <trkpt lat="36.525467" lon="-6.181746">
        <ele>5.008</ele>
        <time>2015-06-18T15:37:20Z</time>
      </trkpt>
      <trkpt lat="36.525446" lon="-6.181720">
        <ele>5.092</ele>
        <time>2015-06-18T15:37:21Z</time>
      </trkpt>
      <trkpt lat="36.525392" lon="-6.181640">
        <ele>4.618</ele>
        <time>2015-06-18T15:37:24Z</time>
      </trkpt>
      <trkpt lat="36.525372" lon="-6.181613">
        <ele>4.284</ele>
        <time>2015-06-18T15:37:25Z</time>
      </trkpt>
      <trkpt lat="36.525352" lon="-6.181590">
        <ele>3.863</ele>
        <time>2015-06-18T15:37:26Z</time>
      </trkpt>
      <trkpt lat="36.525331" lon="-6.181558">
        <ele>3.456</ele>
        <time>2015-06-18T15:37:27Z</time>
      </trkpt>
      <trkpt lat="36.525311" lon="-6.181527">
        <ele>3.028</ele>
        <time>2015-06-18T15:37:28Z</time>
      </trkpt>
      <trkpt lat="36.525225" lon="-6.181421">
        <ele>3.081</ele>
        <time>2015-06-18T15:37:32Z</time>
      </trkpt>
      <trkpt lat="36.525087" lon="-6.181201">
        <ele>3.045</ele>
        <time>2015-06-18T15:37:39Z</time>
      </trkpt>
      <trkpt lat="36.524964" lon="-6.181006">
        <ele>3.034</ele>
        <time>2015-06-18T15:37:46Z</time>
      </trkpt>
      <trkpt lat="36.524946" lon="-6.180976">
        <ele>3.055</ele>
        <time>2015-06-18T15:37:47Z</time>
      </trkpt>
      <trkpt lat="36.524879" lon="-6.180835">
        <ele>3.010</ele>
        <time>2015-06-18T15:37:52Z</time>
      </trkpt>
      <trkpt lat="36.524866" lon="-6.180810">
        <ele>3.008</ele>
        <time>2015-06-18T15:37:53Z</time>
      </trkpt>
      <trkpt lat="36.524777" lon="-6.180659">
        <ele>3.054</ele>
        <time>2015-06-18T15:37:58Z</time>
      </trkpt>
      <trkpt lat="36.524759" lon="-6.180626">
        <ele>3.060</ele>
        <time>2015-06-18T15:37:59Z</time>
      </trkpt>
      <trkpt lat="36.524609" lon="-6.180338">
        <ele>3.076</ele>
        <time>2015-06-18T15:38:07Z</time>
      </trkpt>
      <trkpt lat="36.524478" lon="-6.180032">
        <ele>3.095</ele>
        <time>2015-06-18T15:38:15Z</time>
      </trkpt>
      <trkpt lat="36.524349" lon="-6.179708">
        <ele>3.058</ele>
        <time>2015-06-18T15:38:24Z</time>
      </trkpt>
      <trkpt lat="36.524268" lon="-6.179475">
        <ele>3.010</ele>
        <time>2015-06-18T15:38:31Z</time>
      </trkpt>
      <trkpt lat="36.524163" lon="-6.179178">
        <ele>3.093</ele>
        <time>2015-06-18T15:38:40Z</time>
      </trkpt>
      <trkpt lat="36.524086" lon="-6.178909">
        <ele>3.017</ele>
        <time>2015-06-18T15:38:48Z</time>
      </trkpt>
      <trkpt lat="36.524060" lon="-6.178837">
        <ele>3.484</ele>
        <time>2015-06-18T15:38:50Z</time>
      </trkpt>
      <trkpt lat="36.524050" lon="-6.178804">
        <ele>3.807</ele>
        <time>2015-06-18T15:38:51Z</time>
      </trkpt>
      <trkpt lat="36.524038" lon="-6.178770">
        <ele>4.217</ele>
        <time>2015-06-18T15:38:52Z</time>
      </trkpt>
      <trkpt lat="36.524026" lon="-6.178736">
        <ele>4.608</ele>
        <time>2015-06-18T15:38:53Z</time>
      </trkpt>
      <trkpt lat="36.524017" lon="-6.178699">
        <ele>5.229</ele>
        <time>2015-06-18T15:38:54Z</time>
      </trkpt>
      <trkpt lat="36.524007" lon="-6.178664">
        <ele>5.295</ele>
        <time>2015-06-18T15:38:55Z</time>
      </trkpt>
      <trkpt lat="36.523932" lon="-6.178430">
        <ele>5.261</ele>
        <time>2015-06-18T15:39:02Z</time>
      </trkpt>
      <trkpt lat="36.523884" lon="-6.178280">
        <ele>5.230</ele>
        <time>2015-06-18T15:39:07Z</time>
      </trkpt>
      <trkpt lat="36.523813" lon="-6.178053">
        <ele>5.253</ele>
        <time>2015-06-18T15:39:14Z</time>
      </trkpt>
      <trkpt lat="36.523735" lon="-6.177783">
        <ele>5.295</ele>
        <time>2015-06-18T15:39:22Z</time>
      </trkpt>
      <trkpt lat="36.523660" lon="-6.177512">
        <ele>5.268</ele>
        <time>2015-06-18T15:39:30Z</time>
      </trkpt>
      <trkpt lat="36.523556" lon="-6.177137">
        <ele>5.292</ele>
        <time>2015-06-18T15:39:41Z</time>
      </trkpt>
      <trkpt lat="36.523489" lon="-6.176824">
        <ele>5.261</ele>
        <time>2015-06-18T15:39:50Z</time>
      </trkpt>
      <trkpt lat="36.523436" lon="-6.176605">
        <ele>5.221</ele>
        <time>2015-06-18T15:39:57Z</time>
      </trkpt>
      <trkpt lat="36.523391" lon="-6.176390">
        <ele>5.213</ele>
        <time>2015-06-18T15:40:04Z</time>
      </trkpt>
      <trkpt lat="36.523360" lon="-6.176251">
        <ele>6.008</ele>
        <time>2015-06-18T15:40:09Z</time>
      </trkpt>
      <trkpt lat="36.523353" lon="-6.176221">
        <ele>6.457</ele>
        <time>2015-06-18T15:40:10Z</time>
      </trkpt>
      <trkpt lat="36.523345" lon="-6.176195">
        <ele>6.853</ele>
        <time>2015-06-18T15:40:11Z</time>
      </trkpt>
      <trkpt lat="36.523337" lon="-6.176167">
        <ele>7.419</ele>
        <time>2015-06-18T15:40:12Z</time>
      </trkpt>
      <trkpt lat="36.523240" lon="-6.175939">
        <ele>7.428</ele>
        <time>2015-06-18T15:40:20Z</time>
      </trkpt>
      <trkpt lat="36.523203" lon="-6.175684">
        <ele>7.491</ele>
        <time>2015-06-18T15:40:27Z</time>
      </trkpt>
      <trkpt lat="36.523137" lon="-6.175454">
        <ele>7.423</ele>
        <time>2015-06-18T15:40:33Z</time>
      </trkpt>
      <trkpt lat="36.523047" lon="-6.175144">
        <ele>7.436</ele>
        <time>2015-06-18T15:40:41Z</time>
      </trkpt>
      <trkpt lat="36.523038" lon="-6.175104">
        <ele>7.420</ele>
        <time>2015-06-18T15:40:42Z</time>
      </trkpt>
      <trkpt lat="36.522980" lon="-6.174879">
        <ele>7.489</ele>
        <time>2015-06-18T15:40:48Z</time>
      </trkpt>
      <trkpt lat="36.522903" lon="-6.174611">
        <ele>7.406</ele>
        <time>2015-06-18T15:40:55Z</time>
      </trkpt>
      <trkpt lat="36.522845" lon="-6.174384">
        <ele>7.426</ele>
        <time>2015-06-18T15:41:01Z</time>
      </trkpt>
      <trkpt lat="36.522781" lon="-6.174124">
        <ele>7.408</ele>
        <time>2015-06-18T15:41:07Z</time>
      </trkpt>
      <trkpt lat="36.522688" lon="-6.173769">
        <ele>7.469</ele>
        <time>2015-06-18T15:41:16Z</time>
      </trkpt>
      <trkpt lat="36.522603" lon="-6.173413">
        <ele>7.485</ele>
        <time>2015-06-18T15:41:25Z</time>
      </trkpt>
      <trkpt lat="36.522505" lon="-6.173009">
        <ele>7.411</ele>
        <time>2015-06-18T15:41:34Z</time>
      </trkpt>
      <trkpt lat="36.522417" lon="-6.172643">
        <ele>7.830</ele>
        <time>2015-06-18T15:41:42Z</time>
      </trkpt>
      <trkpt lat="36.522405" lon="-6.172594">
        <ele>8.233</ele>
        <time>2015-06-18T15:41:43Z</time>
      </trkpt>
      <trkpt lat="36.522394" lon="-6.172549">
        <ele>8.695</ele>
        <time>2015-06-18T15:41:44Z</time>
      </trkpt>
      <trkpt lat="36.522385" lon="-6.172504">
        <ele>9.058</ele>
        <time>2015-06-18T15:41:45Z</time>
      </trkpt>
      <trkpt lat="36.522375" lon="-6.172458">
        <ele>9.442</ele>
        <time>2015-06-18T15:41:46Z</time>
      </trkpt>
      <trkpt lat="36.522288" lon="-6.172087">
        <ele>9.449</ele>
        <time>2015-06-18T15:41:54Z</time>
      </trkpt>
      <trkpt lat="36.522173" lon="-6.171589">
        <ele>9.402</ele>
        <time>2015-06-18T15:42:05Z</time>
      </trkpt>
      <trkpt lat="36.522081" lon="-6.171180">
        <ele>9.422</ele>
        <time>2015-06-18T15:42:14Z</time>
      </trkpt>
      <trkpt lat="36.521994" lon="-6.170815">
        <ele>9.408</ele>
        <time>2015-06-18T15:42:22Z</time>
      </trkpt>
      <trkpt lat="36.521917" lon="-6.170512">
        <ele>9.415</ele>
        <time>2015-06-18T15:42:29Z</time>
      </trkpt>
      <trkpt lat="36.521881" lon="-6.170298">
        <ele>9.431</ele>
        <time>2015-06-18T15:42:35Z</time>
      </trkpt>
      <trkpt lat="36.521869" lon="-6.170242">
        <ele>9.427</ele>
        <time>2015-06-18T15:42:37Z</time>
      </trkpt>
      <trkpt lat="36.521843" lon="-6.170181">
        <ele>9.426</ele>
        <time>2015-06-18T15:42:40Z</time>
      </trkpt>
      <trkpt lat="36.521845" lon="-6.170180">
        <ele>9.469</ele>
        <time>2015-06-18T15:42:44Z</time>
      </trkpt>
      <trkpt lat="36.521846" lon="-6.170176">
        <ele>9.491</ele>
        <time>2015-06-18T15:42:52Z</time>
      </trkpt>
      <trkpt lat="36.521847" lon="-6.170157">
        <ele>9.424</ele>
        <time>2015-06-18T15:42:58Z</time>
      </trkpt>
      <trkpt lat="36.521814" lon="-6.170039">
        <ele>9.418</ele>
        <time>2015-06-18T15:43:03Z</time>
      </trkpt>
      <trkpt lat="36.521805" lon="-6.170008">
        <ele>9.472</ele>
        <time>2015-06-18T15:43:04Z</time>
      </trkpt>
      <trkpt lat="36.521784" lon="-6.169932">
        <ele>9.413</ele>
        <time>2015-06-18T15:43:06Z</time>
      </trkpt>
      <trkpt lat="36.521755" lon="-6.169812">
        <ele>9.414</ele>
        <time>2015-06-18T15:43:09Z</time>
      </trkpt>
      <trkpt lat="36.521744" lon="-6.169769">
        <ele>9.408</ele>
        <time>2015-06-18T15:43:10Z</time>
      </trkpt>
      <trkpt lat="36.521665" lon="-6.169436">
        <ele>9.478</ele>
        <time>2015-06-18T15:43:18Z</time>
      </trkpt>
      <trkpt lat="36.521626" lon="-6.169250">
        <ele>9.474</ele>
        <time>2015-06-18T15:43:22Z</time>
      </trkpt>
      <trkpt lat="36.521570" lon="-6.169025">
        <ele>9.430</ele>
        <time>2015-06-18T15:43:27Z</time>
      </trkpt>
      <trkpt lat="36.521500" lon="-6.168721">
        <ele>9.439</ele>
        <time>2015-06-18T15:43:34Z</time>
      </trkpt>
      <trkpt lat="36.521426" lon="-6.168375">
        <ele>9.462</ele>
        <time>2015-06-18T15:43:42Z</time>
      </trkpt>
      <trkpt lat="36.521365" lon="-6.168056">
        <ele>9.454</ele>
        <time>2015-06-18T15:43:49Z</time>
      </trkpt>
      <trkpt lat="36.521343" lon="-6.167672">
        <ele>9.417</ele>
        <time>2015-06-18T15:43:57Z</time>
      </trkpt>
      <trkpt lat="36.521340" lon="-6.167623">
        <ele>9.021</ele>
        <time>2015-06-18T15:43:58Z</time>
      </trkpt>
      <trkpt lat="36.521349" lon="-6.167577">
        <ele>8.678</ele>
        <time>2015-06-18T15:43:59Z</time>
      </trkpt>
      <trkpt lat="36.521352" lon="-6.167533">
        <ele>8.233</ele>
        <time>2015-06-18T15:44:00Z</time>
      </trkpt>
      <trkpt lat="36.521353" lon="-6.167486">
        <ele>7.826</ele>
        <time>2015-06-18T15:44:01Z</time>
      </trkpt>
      <trkpt lat="36.521357" lon="-6.167435">
        <ele>7.408</ele>
        <time>2015-06-18T15:44:02Z</time>
      </trkpt>
      <trkpt lat="36.521384" lon="-6.167023">
        <ele>7.468</ele>
        <time>2015-06-18T15:44:09Z</time>
      </trkpt>
      <trkpt lat="36.521408" lon="-6.166641">
        <ele>7.434</ele>
        <time>2015-06-18T15:44:16Z</time>
      </trkpt>
      <trkpt lat="36.521409" lon="-6.166381">
        <ele>7.480</ele>
        <time>2015-06-18T15:44:22Z</time>
      </trkpt>
      <trkpt lat="36.521451" lon="-6.166160">
        <ele>7.449</ele>
        <time>2015-06-18T15:44:27Z</time>
      </trkpt>
      <trkpt lat="36.521477" lon="-6.166019">
        <ele>7.432</ele>
        <time>2015-06-18T15:44:30Z</time>
      </trkpt>
      <trkpt lat="36.521512" lon="-6.165673">
        <ele>7.474</ele>
        <time>2015-06-18T15:44:38Z</time>
      </trkpt>
      <trkpt lat="36.521537" lon="-6.165386">
        <ele>7.497</ele>
        <time>2015-06-18T15:44:45Z</time>
      </trkpt>
      <trkpt lat="36.521548" lon="-6.165267">
        <ele>7.451</ele>
        <time>2015-06-18T15:44:48Z</time>
      </trkpt>
      <trkpt lat="36.521562" lon="-6.165123">
        <ele>7.437</ele>
        <time>2015-06-18T15:44:52Z</time>
      </trkpt>
      <trkpt lat="36.521565" lon="-6.165086">
        <ele>7.449</ele>
        <time>2015-06-18T15:44:53Z</time>
      </trkpt>
      <trkpt lat="36.521589" lon="-6.164784">
        <ele>7.413</ele>
        <time>2015-06-18T15:45:01Z</time>
      </trkpt>
      <trkpt lat="36.521628" lon="-6.164529">
        <ele>7.808</ele>
        <time>2015-06-18T15:45:08Z</time>
      </trkpt>
      <trkpt lat="36.521640" lon="-6.164495">
        <ele>8.234</ele>
        <time>2015-06-18T15:45:09Z</time>
      </trkpt>
      <trkpt lat="36.521649" lon="-6.164461">
        <ele>8.630</ele>
        <time>2015-06-18T15:45:10Z</time>
      </trkpt>
      <trkpt lat="36.521659" lon="-6.164425">
        <ele>9.276</ele>
        <time>2015-06-18T15:45:11Z</time>
      </trkpt>
      <trkpt lat="36.521668" lon="-6.164391">
        <ele>9.615</ele>
        <time>2015-06-18T15:45:12Z</time>
      </trkpt>
      <trkpt lat="36.521723" lon="-6.164277">
        <ele>9.638</ele>
        <time>2015-06-18T15:45:16Z</time>
      </trkpt>
      <trkpt lat="36.521763" lon="-6.164227">
        <ele>10.040</ele>
        <time>2015-06-18T15:45:18Z</time>
      </trkpt>
      <trkpt lat="36.521781" lon="-6.164199">
        <ele>10.433</ele>
        <time>2015-06-18T15:45:19Z</time>
      </trkpt>
      <trkpt lat="36.521801" lon="-6.164175">
        <ele>10.897</ele>
        <time>2015-06-18T15:45:20Z</time>
      </trkpt>
      <trkpt lat="36.521822" lon="-6.164151">
        <ele>11.298</ele>
        <time>2015-06-18T15:45:21Z</time>
      </trkpt>
      <trkpt lat="36.521843" lon="-6.164124">
        <ele>11.615</ele>
        <time>2015-06-18T15:45:22Z</time>
      </trkpt>
      <trkpt lat="36.521866" lon="-6.164096">
        <ele>11.626</ele>
        <time>2015-06-18T15:45:23Z</time>
      </trkpt>
      <trkpt lat="36.521993" lon="-6.163967">
        <ele>11.608</ele>
        <time>2015-06-18T15:45:28Z</time>
      </trkpt>
      <trkpt lat="36.522020" lon="-6.163942">
        <ele>12.060</ele>
        <time>2015-06-18T15:45:29Z</time>
      </trkpt>
      <trkpt lat="36.522050" lon="-6.163913">
        <ele>12.886</ele>
        <time>2015-06-18T15:45:30Z</time>
      </trkpt>
      <trkpt lat="36.522080" lon="-6.163881">
        <ele>13.242</ele>
        <time>2015-06-18T15:45:31Z</time>
      </trkpt>
      <trkpt lat="36.522114" lon="-6.163848">
        <ele>13.651</ele>
        <time>2015-06-18T15:45:32Z</time>
      </trkpt>
      <trkpt lat="36.522148" lon="-6.163807">
        <ele>13.614</ele>
        <time>2015-06-18T15:45:33Z</time>
      </trkpt>
      <trkpt lat="36.522188" lon="-6.163760">
        <ele>13.616</ele>
        <time>2015-06-18T15:45:34Z</time>
      </trkpt>
      <trkpt lat="36.522334" lon="-6.163584">
        <ele>13.639</ele>
        <time>2015-06-18T15:45:37Z</time>
      </trkpt>
      <trkpt lat="36.522358" lon="-6.163497">
        <ele>13.223</ele>
        <time>2015-06-18T15:45:38Z</time>
      </trkpt>
      <trkpt lat="36.522358" lon="-6.163407">
        <ele>12.836</ele>
        <time>2015-06-18T15:45:39Z</time>
      </trkpt>
      <trkpt lat="36.522347" lon="-6.163322">
        <ele>12.417</ele>
        <time>2015-06-18T15:45:40Z</time>
      </trkpt>
      <trkpt lat="36.522323" lon="-6.163259">
        <ele>11.818</ele>
        <time>2015-06-18T15:45:41Z</time>
      </trkpt>
      <trkpt lat="36.522278" lon="-6.163233">
        <ele>11.408</ele>
        <time>2015-06-18T15:45:42Z</time>
      </trkpt>
      <trkpt lat="36.522246" lon="-6.163216">
        <ele>11.064</ele>
        <time>2015-06-18T15:45:43Z</time>
      </trkpt>
      <trkpt lat="36.522217" lon="-6.163200">
        <ele>10.630</ele>
        <time>2015-06-18T15:45:44Z</time>
      </trkpt>
      <trkpt lat="36.522183" lon="-6.163193">
        <ele>10.286</ele>
        <time>2015-06-18T15:45:45Z</time>
      </trkpt>
      <trkpt lat="36.522151" lon="-6.163191">
        <ele>9.835</ele>
        <time>2015-06-18T15:45:46Z</time>
      </trkpt>
      <trkpt lat="36.522119" lon="-6.163192">
        <ele>9.458</ele>
        <time>2015-06-18T15:45:47Z</time>
      </trkpt>
      <trkpt lat="36.522086" lon="-6.163184">
        <ele>9.450</ele>
        <time>2015-06-18T15:45:48Z</time>
      </trkpt>
      <trkpt lat="36.521866" lon="-6.163146">
        <ele>9.423</ele>
        <time>2015-06-18T15:45:55Z</time>
      </trkpt>
      <trkpt lat="36.521837" lon="-6.163140">
        <ele>9.887</ele>
        <time>2015-06-18T15:45:56Z</time>
      </trkpt>
      <trkpt lat="36.521809" lon="-6.163132">
        <ele>10.249</ele>
        <time>2015-06-18T15:45:57Z</time>
      </trkpt>
      <trkpt lat="36.521782" lon="-6.163123">
        <ele>10.602</ele>
        <time>2015-06-18T15:45:58Z</time>
      </trkpt>
      <trkpt lat="36.521755" lon="-6.163109">
        <ele>11.022</ele>
        <time>2015-06-18T15:45:59Z</time>
      </trkpt>
      <trkpt lat="36.521728" lon="-6.163083">
        <ele>11.408</ele>
        <time>2015-06-18T15:46:00Z</time>
      </trkpt>
      <trkpt lat="36.521689" lon="-6.163013">
        <ele>11.475</ele>
        <time>2015-06-18T15:46:02Z</time>
      </trkpt>
      <trkpt lat="36.521674" lon="-6.162841">
        <ele>11.461</ele>
        <time>2015-06-18T15:46:06Z</time>
      </trkpt>
      <trkpt lat="36.521679" lon="-6.162744">
        <ele>11.447</ele>
        <time>2015-06-18T15:46:08Z</time>
      </trkpt>
      <trkpt lat="36.521641" lon="-6.162595">
        <ele>11.446</ele>
        <time>2015-06-18T15:46:11Z</time>
      </trkpt>
      <trkpt lat="36.521557" lon="-6.162469">
        <ele>11.449</ele>
        <time>2015-06-18T15:46:14Z</time>
      </trkpt>
      <trkpt lat="36.521482" lon="-6.162392">
        <ele>11.451</ele>
        <time>2015-06-18T15:46:16Z</time>
      </trkpt>
      <trkpt lat="36.521444" lon="-6.162355">
        <ele>11.494</ele>
        <time>2015-06-18T15:46:17Z</time>
      </trkpt>
      <trkpt lat="36.521364" lon="-6.162276">
        <ele>11.028</ele>
        <time>2015-06-18T15:46:19Z</time>
      </trkpt>
      <trkpt lat="36.521319" lon="-6.162235">
        <ele>10.022</ele>
        <time>2015-06-18T15:46:20Z</time>
      </trkpt>
      <trkpt lat="36.521269" lon="-6.162189">
        <ele>9.662</ele>
        <time>2015-06-18T15:46:21Z</time>
      </trkpt>
      <trkpt lat="36.521221" lon="-6.162142">
        <ele>9.008</ele>
        <time>2015-06-18T15:46:22Z</time>
      </trkpt>
      <trkpt lat="36.521116" lon="-6.162040">
        <ele>9.008</ele>
        <time>2015-06-18T15:46:24Z</time>
      </trkpt>
      <trkpt lat="36.520955" lon="-6.161888">
        <ele>8.623</ele>
        <time>2015-06-18T15:46:27Z</time>
      </trkpt>
      <trkpt lat="36.520904" lon="-6.161836">
        <ele>8.269</ele>
        <time>2015-06-18T15:46:28Z</time>
      </trkpt>
      <trkpt lat="36.520852" lon="-6.161789">
        <ele>7.645</ele>
        <time>2015-06-18T15:46:29Z</time>
      </trkpt>
      <trkpt lat="36.520799" lon="-6.161742">
        <ele>7.294</ele>
        <time>2015-06-18T15:46:30Z</time>
      </trkpt>
      <trkpt lat="36.520747" lon="-6.161699">
        <ele>6.887</ele>
        <time>2015-06-18T15:46:31Z</time>
      </trkpt>
      <trkpt lat="36.520528" lon="-6.161487">
        <ele>6.829</ele>
        <time>2015-06-18T15:46:36Z</time>
      </trkpt>
      <trkpt lat="36.520440" lon="-6.161324">
        <ele>6.812</ele>
        <time>2015-06-18T15:46:39Z</time>
      </trkpt>
      <trkpt lat="36.520407" lon="-6.161212">
        <ele>6.866</ele>
        <time>2015-06-18T15:46:41Z</time>
      </trkpt>
      <trkpt lat="36.520396" lon="-6.161096">
        <ele>6.079</ele>
        <time>2015-06-18T15:46:43Z</time>
      </trkpt>
      <trkpt lat="36.520399" lon="-6.161039">
        <ele>5.605</ele>
        <time>2015-06-18T15:46:44Z</time>
      </trkpt>
      <trkpt lat="36.520409" lon="-6.160983">
        <ele>5.225</ele>
        <time>2015-06-18T15:46:45Z</time>
      </trkpt>
      <trkpt lat="36.520412" lon="-6.160933">
        <ele>4.808</ele>
        <time>2015-06-18T15:46:46Z</time>
      </trkpt>
      <trkpt lat="36.520421" lon="-6.160881">
        <ele>4.818</ele>
        <time>2015-06-18T15:46:47Z</time>
      </trkpt>
      <trkpt lat="36.520458" lon="-6.160719">
        <ele>4.824</ele>
        <time>2015-06-18T15:46:50Z</time>
      </trkpt>
      <trkpt lat="36.520480" lon="-6.160672">
        <ele>4.870</ele>
        <time>2015-06-18T15:46:51Z</time>
      </trkpt>
      <trkpt lat="36.520609" lon="-6.160589">
        <ele>4.839</ele>
        <time>2015-06-18T15:46:54Z</time>
      </trkpt>
      <trkpt lat="36.520663" lon="-6.160571">
        <ele>4.832</ele>
        <time>2015-06-18T15:46:55Z</time>
      </trkpt>
      <trkpt lat="36.520923" lon="-6.160485">
        <ele>4.844</ele>
        <time>2015-06-18T15:47:00Z</time>
      </trkpt>
      <trkpt lat="36.521038" lon="-6.160277">
        <ele>4.817</ele>
        <time>2015-06-18T15:47:04Z</time>
      </trkpt>
      <trkpt lat="36.521024" lon="-6.160043">
        <ele>4.891</ele>
        <time>2015-06-18T15:47:08Z</time>
      </trkpt>
      <trkpt lat="36.520888" lon="-6.159901">
        <ele>4.831</ele>
        <time>2015-06-18T15:47:12Z</time>
      </trkpt>
      <trkpt lat="36.520784" lon="-6.159872">
        <ele>4.861</ele>
        <time>2015-06-18T15:47:15Z</time>
      </trkpt>
      <trkpt lat="36.520751" lon="-6.159862">
        <ele>4.807</ele>
        <time>2015-06-18T15:47:16Z</time>
      </trkpt>
      <trkpt lat="36.520536" lon="-6.159832">
        <ele>4.808</ele>
        <time>2015-06-18T15:47:22Z</time>
      </trkpt>
      <trkpt lat="36.520303" lon="-6.159765">
        <ele>4.874</ele>
        <time>2015-06-18T15:47:29Z</time>
      </trkpt>
      <trkpt lat="36.520000" lon="-6.159647">
        <ele>4.820</ele>
        <time>2015-06-18T15:47:38Z</time>
      </trkpt>
      <trkpt lat="36.519766" lon="-6.159508">
        <ele>4.866</ele>
        <time>2015-06-18T15:47:45Z</time>
      </trkpt>
      <trkpt lat="36.519584" lon="-6.159364">
        <ele>4.865</ele>
        <time>2015-06-18T15:47:51Z</time>
      </trkpt>
      <trkpt lat="36.519522" lon="-6.159315">
        <ele>4.848</ele>
        <time>2015-06-18T15:47:53Z</time>
      </trkpt>
      <trkpt lat="36.519348" lon="-6.159134">
        <ele>5.230</ele>
        <time>2015-06-18T15:47:59Z</time>
      </trkpt>
      <trkpt lat="36.519323" lon="-6.159098">
        <ele>5.653</ele>
        <time>2015-06-18T15:48:00Z</time>
      </trkpt>
      <trkpt lat="36.519301" lon="-6.159059">
        <ele>6.077</ele>
        <time>2015-06-18T15:48:01Z</time>
      </trkpt>
      <trkpt lat="36.519278" lon="-6.159022">
        <ele>6.434</ele>
        <time>2015-06-18T15:48:02Z</time>
      </trkpt>
      <trkpt lat="36.519257" lon="-6.158980">
        <ele>6.855</ele>
        <time>2015-06-18T15:48:03Z</time>
      </trkpt>
      <trkpt lat="36.519176" lon="-6.158759">
        <ele>6.810</ele>
        <time>2015-06-18T15:48:08Z</time>
      </trkpt>
      <trkpt lat="36.519148" lon="-6.158516">
        <ele>6.808</ele>
        <time>2015-06-18T15:48:13Z</time>
      </trkpt>
      <trkpt lat="36.519210" lon="-6.158161">
        <ele>6.884</ele>
        <time>2015-06-18T15:48:20Z</time>
      </trkpt>
      <trkpt lat="36.519273" lon="-6.158015">
        <ele>6.880</ele>
        <time>2015-06-18T15:48:23Z</time>
      </trkpt>
      <trkpt lat="36.519339" lon="-6.157876">
        <ele>6.846</ele>
        <time>2015-06-18T15:48:26Z</time>
      </trkpt>
      <trkpt lat="36.519410" lon="-6.157754">
        <ele>7.265</ele>
        <time>2015-06-18T15:48:29Z</time>
      </trkpt>
      <trkpt lat="36.519431" lon="-6.157714">
        <ele>7.648</ele>
        <time>2015-06-18T15:48:30Z</time>
      </trkpt>
      <trkpt lat="36.519446" lon="-6.157675">
        <ele>8.080</ele>
        <time>2015-06-18T15:48:31Z</time>
      </trkpt>
      <trkpt lat="36.519467" lon="-6.157631">
        <ele>8.433</ele>
        <time>2015-06-18T15:48:32Z</time>
      </trkpt>
      <trkpt lat="36.519489" lon="-6.157591">
        <ele>9.087</ele>
        <time>2015-06-18T15:48:33Z</time>
      </trkpt>
      <trkpt lat="36.519534" lon="-6.157507">
        <ele>9.487</ele>
        <time>2015-06-18T15:48:35Z</time>
      </trkpt>
      <trkpt lat="36.519552" lon="-6.157463">
        <ele>9.842</ele>
        <time>2015-06-18T15:48:36Z</time>
      </trkpt>
      <trkpt lat="36.519570" lon="-6.157417">
        <ele>10.226</ele>
        <time>2015-06-18T15:48:37Z</time>
      </trkpt>
      <trkpt lat="36.519588" lon="-6.157366">
        <ele>10.608</ele>
        <time>2015-06-18T15:48:38Z</time>
      </trkpt>
      <trkpt lat="36.519611" lon="-6.157315">
        <ele>11.269</ele>
        <time>2015-06-18T15:48:39Z</time>
      </trkpt>
      <trkpt lat="36.519714" lon="-6.157004">
        <ele>11.215</ele>
        <time>2015-06-18T15:48:45Z</time>
      </trkpt>
      <trkpt lat="36.519733" lon="-6.156951">
        <ele>11.221</ele>
        <time>2015-06-18T15:48:46Z</time>
      </trkpt>
      <trkpt lat="36.519796" lon="-6.156697">
        <ele>11.210</ele>
        <time>2015-06-18T15:48:51Z</time>
      </trkpt>
      <trkpt lat="36.519842" lon="-6.156366">
        <ele>11.293</ele>
        <time>2015-06-18T15:48:58Z</time>
      </trkpt>
      <trkpt lat="36.519826" lon="-6.156191">
        <ele>11.235</ele>
        <time>2015-06-18T15:49:02Z</time>
      </trkpt>
      <trkpt lat="36.519813" lon="-6.156186">
        <ele>11.218</ele>
        <time>2015-06-18T15:49:03Z</time>
      </trkpt>
      <trkpt lat="36.519791" lon="-6.156177">
        <ele>11.212</ele>
        <time>2015-06-18T15:49:04Z</time>
      </trkpt>
      <trkpt lat="36.519733" lon="-6.156106">
        <ele>11.281</ele>
        <time>2015-06-18T15:49:08Z</time>
      </trkpt>
      <trkpt lat="36.519698" lon="-6.156073">
        <ele>11.261</ele>
        <time>2015-06-18T15:49:10Z</time>
      </trkpt>
      <trkpt lat="36.519592" lon="-6.155924">
        <ele>11.217</ele>
        <time>2015-06-18T15:49:16Z</time>
      </trkpt>
      <trkpt lat="36.519496" lon="-6.155714">
        <ele>11.208</ele>
        <time>2015-06-18T15:49:22Z</time>
      </trkpt>
      <trkpt lat="36.519391" lon="-6.155422">
        <ele>11.269</ele>
        <time>2015-06-18T15:49:30Z</time>
      </trkpt>
      <trkpt lat="36.519257" lon="-6.155089">
        <ele>11.255</ele>
        <time>2015-06-18T15:49:39Z</time>
      </trkpt>
      <trkpt lat="36.519133" lon="-6.154784">
        <ele>11.251</ele>
        <time>2015-06-18T15:49:47Z</time>
      </trkpt>
      <trkpt lat="36.519118" lon="-6.154738">
        <ele>11.620</ele>
        <time>2015-06-18T15:49:48Z</time>
      </trkpt>
      <trkpt lat="36.519099" lon="-6.154686">
        <ele>12.033</ele>
        <time>2015-06-18T15:49:49Z</time>
      </trkpt>
      <trkpt lat="36.519084" lon="-6.154644">
        <ele>12.425</ele>
        <time>2015-06-18T15:49:50Z</time>
      </trkpt>
      <trkpt lat="36.519075" lon="-6.154594">
        <ele>12.848</ele>
        <time>2015-06-18T15:49:51Z</time>
      </trkpt>
      <trkpt lat="36.519069" lon="-6.154537">
        <ele>13.232</ele>
        <time>2015-06-18T15:49:52Z</time>
      </trkpt>
      <trkpt lat="36.519062" lon="-6.154488">
        <ele>13.228</ele>
        <time>2015-06-18T15:49:53Z</time>
      </trkpt>
      <trkpt lat="36.519006" lon="-6.154128">
        <ele>13.289</ele>
        <time>2015-06-18T15:50:00Z</time>
      </trkpt>
      <trkpt lat="36.518974" lon="-6.153845">
        <ele>13.217</ele>
        <time>2015-06-18T15:50:06Z</time>
      </trkpt>
      <trkpt lat="36.518920" lon="-6.153719">
        <ele>13.208</ele>
        <time>2015-06-18T15:50:11Z</time>
      </trkpt>
      <trkpt lat="36.518882" lon="-6.153699">
        <ele>13.233</ele>
        <time>2015-06-18T15:50:15Z</time>
      </trkpt>
      <trkpt lat="36.518869" lon="-6.153708">
        <ele>13.289</ele>
        <time>2015-06-18T15:50:16Z</time>
      </trkpt>
      <trkpt lat="36.518826" lon="-6.153726">
        <ele>12.885</ele>
        <time>2015-06-18T15:50:19Z</time>
      </trkpt>
      <trkpt lat="36.518812" lon="-6.153733">
        <ele>12.454</ele>
        <time>2015-06-18T15:50:20Z</time>
      </trkpt>
      <trkpt lat="36.518797" lon="-6.153739">
        <ele>11.837</ele>
        <time>2015-06-18T15:50:21Z</time>
      </trkpt>
      <trkpt lat="36.518783" lon="-6.153744">
        <ele>11.469</ele>
        <time>2015-06-18T15:50:22Z</time>
      </trkpt>
      <trkpt lat="36.518768" lon="-6.153749">
        <ele>11.092</ele>
        <time>2015-06-18T15:50:23Z</time>
      </trkpt>
      <trkpt lat="36.518749" lon="-6.153738">
        <ele>11.076</ele>
        <time>2015-06-18T15:50:24Z</time>
      </trkpt>
      <trkpt lat="36.518742" lon="-6.153724">
        <ele>11.066</ele>
        <time>2015-06-18T15:50:25Z</time>
      </trkpt>
      <trkpt lat="36.518760" lon="-6.153705">
        <ele>11.029</ele>
        <time>2015-06-18T15:50:26Z</time>
      </trkpt>
      <trkpt lat="36.518800" lon="-6.153696">
        <ele>11.021</ele>
        <time>2015-06-18T15:50:28Z</time>
      </trkpt>
      <trkpt lat="36.518834" lon="-6.153676">
        <ele>11.008</ele>
        <time>2015-06-18T15:50:30Z</time>
      </trkpt>
      <trkpt lat="36.518890" lon="-6.153642">
        <ele>11.097</ele>
        <time>2015-06-18T15:50:33Z</time>
      </trkpt>
      <trkpt lat="36.518935" lon="-6.153608">
        <ele>11.023</ele>
        <time>2015-06-18T15:50:36Z</time>
      </trkpt>
      <trkpt lat="36.518946" lon="-6.153600">
        <ele>11.059</ele>
        <time>2015-06-18T15:50:37Z</time>
      </trkpt>
      <trkpt lat="36.518992" lon="-6.153559">
        <ele>11.038</ele>
        <time>2015-06-18T15:50:43Z</time>
      </trkpt>
      <trkpt lat="36.519006" lon="-6.153553">
        <ele>11.081</ele>
        <time>2015-06-18T15:50:45Z</time>
      </trkpt>
      <trkpt lat="36.519003" lon="-6.153532">
        <ele>11.023</ele>
        <time>2015-06-18T15:50:47Z</time>
      </trkpt>
      <trkpt lat="36.518965" lon="-6.153528">
        <ele>11.046</ele>
        <time>2015-06-18T15:50:50Z</time>
      </trkpt>
      <trkpt lat="36.518943" lon="-6.153580">
        <ele>11.010</ele>
        <time>2015-06-18T15:50:54Z</time>
      </trkpt>
      <trkpt lat="36.518933" lon="-6.153603">
        <ele>11.087</ele>
        <time>2015-06-18T15:50:55Z</time>
      </trkpt>
      <trkpt lat="36.518921" lon="-6.153651">
        <ele>11.042</ele>
        <time>2015-06-18T15:50:57Z</time>
      </trkpt>
      <trkpt lat="36.518931" lon="-6.153684">
        <ele>11.426</ele>
        <time>2015-06-18T15:51:00Z</time>
      </trkpt>
      <trkpt lat="36.518931" lon="-6.153684">
        <ele>11.808</ele>
        <time>2015-06-18T15:51:01Z</time>
      </trkpt>
      <trkpt lat="36.518931" lon="-6.153684">
        <ele>12.259</ele>
        <time>2015-06-18T15:51:02Z</time>
      </trkpt>
      <trkpt lat="36.518931" lon="-6.153684">
        <ele>12.875</ele>
        <time>2015-06-18T15:51:03Z</time>
      </trkpt>
      <trkpt lat="36.518931" lon="-6.153684">
        <ele>13.241</ele>
        <time>2015-06-18T15:51:04Z</time>
      </trkpt>
      <trkpt lat="36.518931" lon="-6.153684">
        <ele>13.240</ele>
        <time>2015-06-18T15:51:08Z</time>
      </trkpt>
      <trkpt lat="36.518936" lon="-6.153683">
        <ele>13.293</ele>
        <time>2015-06-18T15:51:09Z</time>
      </trkpt>
      <trkpt lat="36.518931" lon="-6.153684">
        <ele>13.245</ele>
        <time>2015-06-18T15:51:18Z</time>
      </trkpt>
      <trkpt lat="36.518931" lon="-6.153684">
        <ele>12.818</ele>
        <time>2015-06-18T15:51:21Z</time>
      </trkpt>
      <trkpt lat="36.518931" lon="-6.153684">
        <ele>12.492</ele>
        <time>2015-06-18T15:51:22Z</time>
      </trkpt>
      <trkpt lat="36.518931" lon="-6.153684">
        <ele>12.067</ele>
        <time>2015-06-18T15:51:23Z</time>
      </trkpt>
      <trkpt lat="36.518931" lon="-6.153684">
        <ele>11.681</ele>
        <time>2015-06-18T15:51:24Z</time>
      </trkpt>
      <trkpt lat="36.518931" lon="-6.153684">
        <ele>11.219</ele>
        <time>2015-06-18T15:51:25Z</time>
      </trkpt>
      <trkpt lat="36.518931" lon="-6.153684">
        <ele>11.208</ele>
        <time>2015-06-18T15:51:28Z</time>
      </trkpt>
      <trkpt lat="36.518931" lon="-6.153684">
        <ele>11.257</ele>
        <time>2015-06-18T15:51:31Z</time>
      </trkpt>
      <trkpt lat="36.518921" lon="-6.153674">
        <ele>11.253</ele>
        <time>2015-06-18T15:51:41Z</time>
      </trkpt>
      <trkpt lat="36.518899" lon="-6.153682">
        <ele>11.219</ele>
        <time>2015-06-18T15:51:47Z</time>
      </trkpt>
      <trkpt lat="36.518902" lon="-6.153682">
        <ele>11.268</ele>
        <time>2015-06-18T15:51:49Z</time>
      </trkpt>
      <trkpt lat="36.518885" lon="-6.153691">
        <ele>11.231</ele>
        <time>2015-06-18T15:51:51Z</time>
      </trkpt>
      <trkpt lat="36.518875" lon="-6.153696">
        <ele>11.213</ele>
        <time>2015-06-18T15:51:52Z</time>
      </trkpt>
      <trkpt lat="36.518776" lon="-6.153747">
        <ele>11.296</ele>
        <time>2015-06-18T15:51:58Z</time>
      </trkpt>
      <trkpt lat="36.518669" lon="-6.153800">
        <ele>11.240</ele>
        <time>2015-06-18T15:52:02Z</time>
      </trkpt>
      <trkpt lat="36.518583" lon="-6.153837">
        <ele>11.248</ele>
        <time>2015-06-18T15:52:05Z</time>
      </trkpt>
      <trkpt lat="36.518478" lon="-6.153885">
        <ele>11.261</ele>
        <time>2015-06-18T15:52:09Z</time>
      </trkpt>
      <trkpt lat="36.518418" lon="-6.153920">
        <ele>11.217</ele>
        <time>2015-06-18T15:52:11Z</time>
      </trkpt>
      <trkpt lat="36.518193" lon="-6.154016">
        <ele>11.208</ele>
        <time>2015-06-18T15:52:19Z</time>
      </trkpt>
      <trkpt lat="36.518162" lon="-6.154013">
        <ele>11.285</ele>
        <time>2015-06-18T15:52:21Z</time>
      </trkpt>
      <trkpt lat="36.518148" lon="-6.154024">
        <ele>11.251</ele>
        <time>2015-06-18T15:52:23Z</time>
      </trkpt>
      <trkpt lat="36.518078" lon="-6.154089">
        <ele>11.277</ele>
        <time>2015-06-18T15:52:28Z</time>
      </trkpt>
      <trkpt lat="36.517971" lon="-6.154139">
        <ele>11.256</ele>
        <time>2015-06-18T15:52:32Z</time>
      </trkpt>
      <trkpt lat="36.517940" lon="-6.154155">
        <ele>10.839</ele>
        <time>2015-06-18T15:52:33Z</time>
      </trkpt>
      <trkpt lat="36.517908" lon="-6.154172">
        <ele>10.261</ele>
        <time>2015-06-18T15:52:34Z</time>
      </trkpt>
      <trkpt lat="36.517874" lon="-6.154190">
        <ele>9.834</ele>
        <time>2015-06-18T15:52:35Z</time>
      </trkpt>
      <trkpt lat="36.517838" lon="-6.154209">
        <ele>9.488</ele>
        <time>2015-06-18T15:52:36Z</time>
      </trkpt>
      <trkpt lat="36.517802" lon="-6.154229">
        <ele>9.029</ele>
        <time>2015-06-18T15:52:37Z</time>
      </trkpt>
      <trkpt lat="36.517597" lon="-6.154340">
        <ele>9.000</ele>
        <time>2015-06-18T15:52:42Z</time>
      </trkpt>
      <trkpt lat="36.517321" lon="-6.154468">
        <ele>9.020</ele>
        <time>2015-06-18T15:52:48Z</time>
      </trkpt>
      <trkpt lat="36.517138" lon="-6.154559">
        <ele>9.008</ele>
        <time>2015-06-18T15:52:52Z</time>
      </trkpt>
      <trkpt lat="36.517057" lon="-6.154607">
        <ele>9.083</ele>
        <time>2015-06-18T15:52:54Z</time>
      </trkpt>
      <trkpt lat="36.516874" lon="-6.154742">
        <ele>9.049</ele>
        <time>2015-06-18T15:52:59Z</time>
      </trkpt>
      <trkpt lat="36.516837" lon="-6.154770">
        <ele>8.625</ele>
        <time>2015-06-18T15:53:00Z</time>
      </trkpt>
      <trkpt lat="36.516798" lon="-6.154797">
        <ele>8.224</ele>
        <time>2015-06-18T15:53:01Z</time>
      </trkpt>
      <trkpt lat="36.516764" lon="-6.154827">
        <ele>7.857</ele>
        <time>2015-06-18T15:53:02Z</time>
      </trkpt>
      <trkpt lat="36.516731" lon="-6.154858">
        <ele>7.469</ele>
        <time>2015-06-18T15:53:03Z</time>
      </trkpt>
      <trkpt lat="36.516697" lon="-6.154888">
        <ele>7.012</ele>
        <time>2015-06-18T15:53:04Z</time>
      </trkpt>
      <trkpt lat="36.516589" lon="-6.154981">
        <ele>7.036</ele>
        <time>2015-06-18T15:53:07Z</time>
      </trkpt>
      <trkpt lat="36.516480" lon="-6.155081">
        <ele>7.098</ele>
        <time>2015-06-18T15:53:10Z</time>
      </trkpt>
      <trkpt lat="36.516366" lon="-6.155187">
        <ele>7.015</ele>
        <time>2015-06-18T15:53:13Z</time>
      </trkpt>
      <trkpt lat="36.516330" lon="-6.155223">
        <ele>7.026</ele>
        <time>2015-06-18T15:53:14Z</time>
      </trkpt>
      <trkpt lat="36.516265" lon="-6.155290">
        <ele>7.008</ele>
        <time>2015-06-18T15:53:16Z</time>
      </trkpt>
      <trkpt lat="36.516161" lon="-6.155311">
        <ele>7.030</ele>
        <time>2015-06-18T15:53:19Z</time>
      </trkpt>
      <trkpt lat="36.516016" lon="-6.155227">
        <ele>7.016</ele>
        <time>2015-06-18T15:53:23Z</time>
      </trkpt>
      <trkpt lat="36.515984" lon="-6.155194">
        <ele>7.092</ele>
        <time>2015-06-18T15:53:24Z</time>
      </trkpt>
      <trkpt lat="36.515900" lon="-6.155088">
        <ele>7.011</ele>
        <time>2015-06-18T15:53:27Z</time>
      </trkpt>
      <trkpt lat="36.515785" lon="-6.154930">
        <ele>7.094</ele>
        <time>2015-06-18T15:53:31Z</time>
      </trkpt>
      <trkpt lat="36.515640" lon="-6.154740">
        <ele>7.046</ele>
        <time>2015-06-18T15:53:36Z</time>
      </trkpt>
      <trkpt lat="36.515559" lon="-6.154627">
        <ele>7.089</ele>
        <time>2015-06-18T15:53:39Z</time>
      </trkpt>
      <trkpt lat="36.515533" lon="-6.154587">
        <ele>7.053</ele>
        <time>2015-06-18T15:53:40Z</time>
      </trkpt>
      <trkpt lat="36.515419" lon="-6.154420">
        <ele>7.082</ele>
        <time>2015-06-18T15:53:44Z</time>
      </trkpt>
      <trkpt lat="36.515332" lon="-6.154304">
        <ele>7.043</ele>
        <time>2015-06-18T15:53:47Z</time>
      </trkpt>
      <trkpt lat="36.515084" lon="-6.153976">
        <ele>6.617</ele>
        <time>2015-06-18T15:53:55Z</time>
      </trkpt>
      <trkpt lat="36.515049" lon="-6.153933">
        <ele>6.208</ele>
        <time>2015-06-18T15:53:56Z</time>
      </trkpt>
      <trkpt lat="36.515014" lon="-6.153888">
        <ele>5.879</ele>
        <time>2015-06-18T15:53:57Z</time>
      </trkpt>
      <trkpt lat="36.514980" lon="-6.153842">
        <ele>5.465</ele>
        <time>2015-06-18T15:53:58Z</time>
      </trkpt>
      <trkpt lat="36.514947" lon="-6.153793">
        <ele>5.041</ele>
        <time>2015-06-18T15:53:59Z</time>
      </trkpt>
      <trkpt lat="36.514848" lon="-6.153660">
        <ele>5.090</ele>
        <time>2015-06-18T15:54:02Z</time>
      </trkpt>
      <trkpt lat="36.514707" lon="-6.153479">
        <ele>5.063</ele>
        <time>2015-06-18T15:54:06Z</time>
      </trkpt>
      <trkpt lat="36.514522" lon="-6.153249">
        <ele>4.625</ele>
        <time>2015-06-18T15:54:11Z</time>
      </trkpt>
      <trkpt lat="36.514488" lon="-6.153205">
        <ele>4.218</ele>
        <time>2015-06-18T15:54:12Z</time>
      </trkpt>
      <trkpt lat="36.514455" lon="-6.153162">
        <ele>3.842</ele>
        <time>2015-06-18T15:54:13Z</time>
      </trkpt>
      <trkpt lat="36.514422" lon="-6.153116">
        <ele>3.417</ele>
        <time>2015-06-18T15:54:14Z</time>
      </trkpt>
      <trkpt lat="36.514387" lon="-6.153070">
        <ele>3.087</ele>
        <time>2015-06-18T15:54:15Z</time>
      </trkpt>
      <trkpt lat="36.514255" lon="-6.152901">
        <ele>3.015</ele>
        <time>2015-06-18T15:54:19Z</time>
      </trkpt>
      <trkpt lat="36.514100" lon="-6.152695">
        <ele>3.008</ele>
        <time>2015-06-18T15:54:24Z</time>
      </trkpt>
      <trkpt lat="36.514038" lon="-6.152617">
        <ele>3.082</ele>
        <time>2015-06-18T15:54:26Z</time>
      </trkpt>
      <trkpt lat="36.513943" lon="-6.152506">
        <ele>3.028</ele>
        <time>2015-06-18T15:54:29Z</time>
      </trkpt>
      <trkpt lat="36.513818" lon="-6.152357">
        <ele>3.034</ele>
        <time>2015-06-18T15:54:33Z</time>
      </trkpt>
      <trkpt lat="36.513553" lon="-6.152010">
        <ele>3.093</ele>
        <time>2015-06-18T15:54:42Z</time>
      </trkpt>
      <trkpt lat="36.513316" lon="-6.151702">
        <ele>3.026</ele>
        <time>2015-06-18T15:54:50Z</time>
      </trkpt>
      <trkpt lat="36.513174" lon="-6.151521">
        <ele>3.038</ele>
        <time>2015-06-18T15:54:55Z</time>
      </trkpt>
      <trkpt lat="36.513033" lon="-6.151338">
        <ele>3.021</ele>
        <time>2015-06-18T15:55:00Z</time>
      </trkpt>
      <trkpt lat="36.512921" lon="-6.151197">
        <ele>3.015</ele>
        <time>2015-06-18T15:55:04Z</time>
      </trkpt>
      <trkpt lat="36.512783" lon="-6.151024">
        <ele>3.025</ele>
        <time>2015-06-18T15:55:09Z</time>
      </trkpt>
      <trkpt lat="36.512701" lon="-6.150917">
        <ele>3.426</ele>
        <time>2015-06-18T15:55:12Z</time>
      </trkpt>
      <trkpt lat="36.512672" lon="-6.150884">
        <ele>3.808</ele>
        <time>2015-06-18T15:55:13Z</time>
      </trkpt>
      <trkpt lat="36.512642" lon="-6.150852">
        <ele>4.208</ele>
        <time>2015-06-18T15:55:14Z</time>
      </trkpt>
      <trkpt lat="36.512613" lon="-6.150815">
        <ele>4.633</ele>
        <time>2015-06-18T15:55:15Z</time>
      </trkpt>
      <trkpt lat="36.512586" lon="-6.150779">
        <ele>5.079</ele>
        <time>2015-06-18T15:55:16Z</time>
      </trkpt>
      <trkpt lat="36.512560" lon="-6.150744">
        <ele>5.095</ele>
        <time>2015-06-18T15:55:17Z</time>
      </trkpt>
      <trkpt lat="36.512304" lon="-6.150434">
        <ele>5.064</ele>
        <time>2015-06-18T15:55:26Z</time>
      </trkpt>
      <trkpt lat="36.512041" lon="-6.150148">
        <ele>5.017</ele>
        <time>2015-06-18T15:55:35Z</time>
      </trkpt>
      <trkpt lat="36.511905" lon="-6.150033">
        <ele>5.039</ele>
        <time>2015-06-18T15:55:41Z</time>
      </trkpt>
      <trkpt lat="36.511739" lon="-6.149900">
        <ele>5.052</ele>
        <time>2015-06-18T15:55:47Z</time>
      </trkpt>
      <trkpt lat="36.511648" lon="-6.149840">
        <ele>5.666</ele>
        <time>2015-06-18T15:55:50Z</time>
      </trkpt>
      <trkpt lat="36.511619" lon="-6.149818">
        <ele>6.099</ele>
        <time>2015-06-18T15:55:51Z</time>
      </trkpt>
      <trkpt lat="36.511591" lon="-6.149798">
        <ele>6.407</ele>
        <time>2015-06-18T15:55:52Z</time>
      </trkpt>
      <trkpt lat="36.511560" lon="-6.149778">
        <ele>6.827</ele>
        <time>2015-06-18T15:55:53Z</time>
      </trkpt>
      <trkpt lat="36.511532" lon="-6.149759">
        <ele>7.208</ele>
        <time>2015-06-18T15:55:54Z</time>
      </trkpt>
      <trkpt lat="36.511450" lon="-6.149706">
        <ele>7.230</ele>
        <time>2015-06-18T15:55:57Z</time>
      </trkpt>
      <trkpt lat="36.511417" lon="-6.149652">
        <ele>7.276</ele>
        <time>2015-06-18T15:56:00Z</time>
      </trkpt>
      <trkpt lat="36.511433" lon="-6.149634">
        <ele>7.292</ele>
        <time>2015-06-18T15:56:01Z</time>
      </trkpt>
      <trkpt lat="36.511553" lon="-6.149566">
        <ele>7.261</ele>
        <time>2015-06-18T15:56:06Z</time>
      </trkpt>
      <trkpt lat="36.511574" lon="-6.149549">
        <ele>7.244</ele>
        <time>2015-06-18T15:56:07Z</time>
      </trkpt>
      <trkpt lat="36.511589" lon="-6.149443">
        <ele>7.216</ele>
        <time>2015-06-18T15:56:10Z</time>
      </trkpt>
      <trkpt lat="36.511507" lon="-6.149311">
        <ele>7.239</ele>
        <time>2015-06-18T15:56:14Z</time>
      </trkpt>
      <trkpt lat="36.511484" lon="-6.149277">
        <ele>7.233</ele>
        <time>2015-06-18T15:56:15Z</time>
      </trkpt>
      <trkpt lat="36.511362" lon="-6.149135">
        <ele>7.252</ele>
        <time>2015-06-18T15:56:20Z</time>
      </trkpt>
      <trkpt lat="36.511323" lon="-6.149074">
        <ele>7.853</ele>
        <time>2015-06-18T15:56:22Z</time>
      </trkpt>
      <trkpt lat="36.511301" lon="-6.149039">
        <ele>8.208</ele>
        <time>2015-06-18T15:56:23Z</time>
      </trkpt>
      <trkpt lat="36.511278" lon="-6.149006">
        <ele>8.608</ele>
        <time>2015-06-18T15:56:24Z</time>
      </trkpt>
      <trkpt lat="36.511257" lon="-6.148970">
        <ele>9.256</ele>
        <time>2015-06-18T15:56:25Z</time>
      </trkpt>
      <trkpt lat="36.511239" lon="-6.148932">
        <ele>9.682</ele>
        <time>2015-06-18T15:56:26Z</time>
      </trkpt>
      <trkpt lat="36.511192" lon="-6.148732">
        <ele>9.688</ele>
        <time>2015-06-18T15:56:31Z</time>
      </trkpt>
      <trkpt lat="36.511203" lon="-6.148691">
        <ele>9.687</ele>
        <time>2015-06-18T15:56:32Z</time>
      </trkpt>
      <trkpt lat="36.511333" lon="-6.148482">
        <ele>9.690</ele>
        <time>2015-06-18T15:56:38Z</time>
      </trkpt>
      <trkpt lat="36.511450" lon="-6.148330">
        <ele>10.092</ele>
        <time>2015-06-18T15:56:43Z</time>
      </trkpt>
      <trkpt lat="36.511468" lon="-6.148294">
        <ele>10.485</ele>
        <time>2015-06-18T15:56:44Z</time>
      </trkpt>
      <trkpt lat="36.511486" lon="-6.148260">
        <ele>10.849</ele>
        <time>2015-06-18T15:56:45Z</time>
      </trkpt>
      <trkpt lat="36.511508" lon="-6.148233">
        <ele>11.277</ele>
        <time>2015-06-18T15:56:46Z</time>
      </trkpt>
      <trkpt lat="36.511528" lon="-6.148209">
        <ele>11.661</ele>
        <time>2015-06-18T15:56:47Z</time>
      </trkpt>
      <trkpt lat="36.511562" lon="-6.148161">
        <ele>11.627</ele>
        <time>2015-06-18T15:56:49Z</time>
      </trkpt>
      <trkpt lat="36.511604" lon="-6.148071">
        <ele>12.008</ele>
        <time>2015-06-18T15:56:52Z</time>
      </trkpt>
      <trkpt lat="36.511619" lon="-6.148034">
        <ele>12.648</ele>
        <time>2015-06-18T15:56:53Z</time>
      </trkpt>
      <trkpt lat="36.511634" lon="-6.147994">
        <ele>13.044</ele>
        <time>2015-06-18T15:56:54Z</time>
      </trkpt>
      <trkpt lat="36.511646" lon="-6.147952">
        <ele>13.410</ele>
        <time>2015-06-18T15:56:55Z</time>
      </trkpt>
      <trkpt lat="36.511656" lon="-6.147910">
        <ele>13.889</ele>
        <time>2015-06-18T15:56:56Z</time>
      </trkpt>
      <trkpt lat="36.511701" lon="-6.147753">
        <ele>13.892</ele>
        <time>2015-06-18T15:57:00Z</time>
      </trkpt>
      <trkpt lat="36.511773" lon="-6.147499">
        <ele>13.854</ele>
        <time>2015-06-18T15:57:06Z</time>
      </trkpt>
      <trkpt lat="36.511839" lon="-6.147322">
        <ele>13.857</ele>
        <time>2015-06-18T15:57:10Z</time>
      </trkpt>
      <trkpt lat="36.511881" lon="-6.147044">
        <ele>13.841</ele>
        <time>2015-06-18T15:57:16Z</time>
      </trkpt>
      <trkpt lat="36.511911" lon="-6.146838">
        <ele>13.844</ele>
        <time>2015-06-18T15:57:21Z</time>
      </trkpt>
      <trkpt lat="36.511940" lon="-6.146619">
        <ele>13.805</ele>
        <time>2015-06-18T15:57:26Z</time>
      </trkpt>
      <trkpt lat="36.511957" lon="-6.146521">
        <ele>13.815</ele>
        <time>2015-06-18T15:57:28Z</time>
      </trkpt>
      <trkpt lat="36.511990" lon="-6.146317">
        <ele>13.808</ele>
        <time>2015-06-18T15:57:32Z</time>
      </trkpt>
      <trkpt lat="36.512006" lon="-6.146215">
        <ele>13.815</ele>
        <time>2015-06-18T15:57:34Z</time>
      </trkpt>
      <trkpt lat="36.512024" lon="-6.146112">
        <ele>13.891</ele>
        <time>2015-06-18T15:57:36Z</time>
      </trkpt>
      <trkpt lat="36.512030" lon="-6.146060">
        <ele>13.897</ele>
        <time>2015-06-18T15:57:37Z</time>
      </trkpt>
      <trkpt lat="36.512039" lon="-6.145903">
        <ele>13.826</ele>
        <time>2015-06-18T15:57:40Z</time>
      </trkpt>
      <trkpt lat="36.512058" lon="-6.145757">
        <ele>13.839</ele>
        <time>2015-06-18T15:57:43Z</time>
      </trkpt>
      <trkpt lat="36.512080" lon="-6.145623">
        <ele>13.891</ele>
        <time>2015-06-18T15:57:46Z</time>
      </trkpt>
      <trkpt lat="36.512109" lon="-6.145392">
        <ele>13.874</ele>
        <time>2015-06-18T15:57:52Z</time>
      </trkpt>
      <trkpt lat="36.512152" lon="-6.145199">
        <ele>13.818</ele>
        <time>2015-06-18T15:57:57Z</time>
      </trkpt>
      <trkpt lat="36.512179" lon="-6.144970">
        <ele>13.849</ele>
        <time>2015-06-18T15:58:03Z</time>
      </trkpt>
      <trkpt lat="36.512210" lon="-6.144785">
        <ele>13.802</ele>
        <time>2015-06-18T15:58:08Z</time>
      </trkpt>
      <trkpt lat="36.512232" lon="-6.144626">
        <ele>13.822</ele>
        <time>2015-06-18T15:58:12Z</time>
      </trkpt>
      <trkpt lat="36.512272" lon="-6.144333">
        <ele>13.808</ele>
        <time>2015-06-18T15:58:20Z</time>
      </trkpt>
      <trkpt lat="36.512321" lon="-6.144086">
        <ele>13.835</ele>
        <time>2015-06-18T15:58:26Z</time>
      </trkpt>
      <trkpt lat="36.512355" lon="-6.143862">
        <ele>13.811</ele>
        <time>2015-06-18T15:58:32Z</time>
      </trkpt>
      <trkpt lat="36.512313" lon="-6.143675">
        <ele>13.827</ele>
        <time>2015-06-18T15:58:38Z</time>
      </trkpt>
      <trkpt lat="36.512250" lon="-6.143606">
        <ele>13.836</ele>
        <time>2015-06-18T15:58:43Z</time>
      </trkpt>
      <trkpt lat="36.512194" lon="-6.143563">
        <ele>13.829</ele>
        <time>2015-06-18T15:58:48Z</time>
      </trkpt>
      <trkpt lat="36.512157" lon="-6.143461">
        <ele>13.871</ele>
        <time>2015-06-18T15:58:52Z</time>
      </trkpt>
      <trkpt lat="36.512108" lon="-6.143365">
        <ele>13.854</ele>
        <time>2015-06-18T15:58:55Z</time>
      </trkpt>
      <trkpt lat="36.512065" lon="-6.143308">
        <ele>13.848</ele>
        <time>2015-06-18T15:58:57Z</time>
      </trkpt>
      <trkpt lat="36.511929" lon="-6.143106">
        <ele>13.851</ele>
        <time>2015-06-18T15:59:03Z</time>
      </trkpt>
      <trkpt lat="36.511749" lon="-6.142835">
        <ele>13.801</ele>
        <time>2015-06-18T15:59:11Z</time>
      </trkpt>
      <trkpt lat="36.511598" lon="-6.142629">
        <ele>13.811</ele>
        <time>2015-06-18T15:59:17Z</time>
      </trkpt>
      <trkpt lat="36.511546" lon="-6.142559">
        <ele>13.808</ele>
        <time>2015-06-18T15:59:19Z</time>
      </trkpt>
      <trkpt lat="36.511397" lon="-6.142388">
        <ele>13.816</ele>
        <time>2015-06-18T15:59:25Z</time>
      </trkpt>
      <trkpt lat="36.511259" lon="-6.142212">
        <ele>13.872</ele>
        <time>2015-06-18T15:59:31Z</time>
      </trkpt>
      <trkpt lat="36.511138" lon="-6.142067">
        <ele>13.858</ele>
        <time>2015-06-18T15:59:36Z</time>
      </trkpt>
      <trkpt lat="36.511010" lon="-6.141892">
        <ele>13.857</ele>
        <time>2015-06-18T15:59:42Z</time>
      </trkpt>
      <trkpt lat="36.510867" lon="-6.141701">
        <ele>13.820</ele>
        <time>2015-06-18T15:59:48Z</time>
      </trkpt>
      <trkpt lat="36.510632" lon="-6.141382">
        <ele>13.842</ele>
        <time>2015-06-18T15:59:58Z</time>
      </trkpt>
      <trkpt lat="36.510455" lon="-6.141142">
        <ele>13.835</ele>
        <time>2015-06-18T16:00:05Z</time>
      </trkpt>
      <trkpt lat="36.510241" lon="-6.140868">
        <ele>13.869</ele>
        <time>2015-06-18T16:00:13Z</time>
      </trkpt>
      <trkpt lat="36.510059" lon="-6.140633">
        <ele>13.894</ele>
        <time>2015-06-18T16:00:20Z</time>
      </trkpt>
      <trkpt lat="36.509857" lon="-6.140366">
        <ele>13.857</ele>
        <time>2015-06-18T16:00:28Z</time>
      </trkpt>
      <trkpt lat="36.509618" lon="-6.140053">
        <ele>13.822</ele>
        <time>2015-06-18T16:00:37Z</time>
      </trkpt>
      <trkpt lat="36.509503" lon="-6.139900">
        <ele>13.808</ele>
        <time>2015-06-18T16:00:41Z</time>
      </trkpt>
      <trkpt lat="36.509420" lon="-6.139796">
        <ele>13.880</ele>
        <time>2015-06-18T16:00:44Z</time>
      </trkpt>
      <trkpt lat="36.509387" lon="-6.139669">
        <ele>13.866</ele>
        <time>2015-06-18T16:00:48Z</time>
      </trkpt>
      <trkpt lat="36.509400" lon="-6.139641">
        <ele>13.852</ele>
        <time>2015-06-18T16:00:49Z</time>
      </trkpt>
      <trkpt lat="36.509460" lon="-6.139573">
        <ele>13.811</ele>
        <time>2015-06-18T16:00:52Z</time>
      </trkpt>
      <trkpt lat="36.509573" lon="-6.139417">
        <ele>13.824</ele>
        <time>2015-06-18T16:00:58Z</time>
      </trkpt>
      <trkpt lat="36.509676" lon="-6.139308">
        <ele>13.876</ele>
        <time>2015-06-18T16:01:03Z</time>
      </trkpt>
      <trkpt lat="36.509695" lon="-6.139286">
        <ele>14.299</ele>
        <time>2015-06-18T16:01:04Z</time>
      </trkpt>
      <trkpt lat="36.509709" lon="-6.139268">
        <ele>14.883</ele>
        <time>2015-06-18T16:01:05Z</time>
      </trkpt>
      <trkpt lat="36.509728" lon="-6.139248">
        <ele>15.289</ele>
        <time>2015-06-18T16:01:06Z</time>
      </trkpt>
      <trkpt lat="36.509747" lon="-6.139226">
        <ele>15.606</ele>
        <time>2015-06-18T16:01:07Z</time>
      </trkpt>
      <trkpt lat="36.509766" lon="-6.139201">
        <ele>16.026</ele>
        <time>2015-06-18T16:01:08Z</time>
      </trkpt>
      <trkpt lat="36.509861" lon="-6.139085">
        <ele>16.008</ele>
        <time>2015-06-18T16:01:13Z</time>
      </trkpt>
      <trkpt lat="36.509899" lon="-6.139038">
        <ele>16.069</ele>
        <time>2015-06-18T16:01:15Z</time>
      </trkpt>
      <trkpt lat="36.510010" lon="-6.138919">
        <ele>16.015</ele>
        <time>2015-06-18T16:01:20Z</time>
      </trkpt>
      <trkpt lat="36.510098" lon="-6.138816">
        <ele>16.051</ele>
        <time>2015-06-18T16:01:24Z</time>
      </trkpt>
      <trkpt lat="36.510210" lon="-6.138687">
        <ele>16.050</ele>
        <time>2015-06-18T16:01:29Z</time>
      </trkpt>
      <trkpt lat="36.510231" lon="-6.138662">
        <ele>16.433</ele>
        <time>2015-06-18T16:01:30Z</time>
      </trkpt>
      <trkpt lat="36.510252" lon="-6.138634">
        <ele>16.885</ele>
        <time>2015-06-18T16:01:31Z</time>
      </trkpt>
      <trkpt lat="36.510274" lon="-6.138607">
        <ele>17.228</ele>
        <time>2015-06-18T16:01:32Z</time>
      </trkpt>
      <trkpt lat="36.510293" lon="-6.138579">
        <ele>17.672</ele>
        <time>2015-06-18T16:01:33Z</time>
      </trkpt>
      <trkpt lat="36.510313" lon="-6.138550">
        <ele>18.017</ele>
        <time>2015-06-18T16:01:34Z</time>
      </trkpt>
      <trkpt lat="36.510370" lon="-6.138461">
        <ele>18.087</ele>
        <time>2015-06-18T16:01:37Z</time>
      </trkpt>
      <trkpt lat="36.510388" lon="-6.138329">
        <ele>18.015</ele>
        <time>2015-06-18T16:01:41Z</time>
      </trkpt>
      <trkpt lat="36.510327" lon="-6.138171">
        <ele>18.008</ele>
        <time>2015-06-18T16:01:46Z</time>
      </trkpt>
      <trkpt lat="36.510240" lon="-6.137993">
        <ele>18.012</ele>
        <time>2015-06-18T16:01:52Z</time>
      </trkpt>
      <trkpt lat="36.510174" lon="-6.137843">
        <ele>18.438</ele>
        <time>2015-06-18T16:01:57Z</time>
      </trkpt>
      <trkpt lat="36.510163" lon="-6.137810">
        <ele>18.894</ele>
        <time>2015-06-18T16:01:58Z</time>
      </trkpt>
      <trkpt lat="36.510148" lon="-6.137776">
        <ele>19.423</ele>
        <time>2015-06-18T16:01:59Z</time>
      </trkpt>
      <trkpt lat="36.510134" lon="-6.137742">
        <ele>19.836</ele>
        <time>2015-06-18T16:02:00Z</time>
      </trkpt>
      <trkpt lat="36.510122" lon="-6.137706">
        <ele>20.288</ele>
        <time>2015-06-18T16:02:01Z</time>
      </trkpt>
      <trkpt lat="36.510080" lon="-6.137611">
        <ele>20.281</ele>
        <time>2015-06-18T16:02:04Z</time>
      </trkpt>
      <trkpt lat="36.509993" lon="-6.137423">
        <ele>20.265</ele>
        <time>2015-06-18T16:02:10Z</time>
      </trkpt>
      <trkpt lat="36.509917" lon="-6.137268">
        <ele>20.268</ele>
        <time>2015-06-18T16:02:17Z</time>
      </trkpt>
      <trkpt lat="36.509889" lon="-6.137218">
        <ele>20.242</ele>
        <time>2015-06-18T16:02:20Z</time>
      </trkpt>
      <trkpt lat="36.509860" lon="-6.137138">
        <ele>20.226</ele>
        <time>2015-06-18T16:02:23Z</time>
      </trkpt>
      <trkpt lat="36.509792" lon="-6.136967">
        <ele>20.208</ele>
        <time>2015-06-18T16:02:28Z</time>
      </trkpt>
      <trkpt lat="36.509681" lon="-6.136711">
        <ele>20.217</ele>
        <time>2015-06-18T16:02:35Z</time>
      </trkpt>
      <trkpt lat="36.509555" lon="-6.136468">
        <ele>20.243</ele>
        <time>2015-06-18T16:02:42Z</time>
      </trkpt>
      <trkpt lat="36.509420" lon="-6.136151">
        <ele>20.239</ele>
        <time>2015-06-18T16:02:50Z</time>
      </trkpt>
      <trkpt lat="36.509277" lon="-6.135822">
        <ele>20.258</ele>
        <time>2015-06-18T16:02:58Z</time>
      </trkpt>
      <trkpt lat="36.509153" lon="-6.135559">
        <ele>20.231</ele>
        <time>2015-06-18T16:03:05Z</time>
      </trkpt>
      <trkpt lat="36.509134" lon="-6.135486">
        <ele>20.263</ele>
        <time>2015-06-18T16:03:08Z</time>
      </trkpt>
      <trkpt lat="36.509138" lon="-6.135441">
        <ele>20.236</ele>
        <time>2015-06-18T16:03:10Z</time>
      </trkpt>
      <trkpt lat="36.509174" lon="-6.135392">
        <ele>20.230</ele>
        <time>2015-06-18T16:03:14Z</time>
      </trkpt>
      <trkpt lat="36.509257" lon="-6.135347">
        <ele>20.224</ele>
        <time>2015-06-18T16:03:18Z</time>
      </trkpt>
      <trkpt lat="36.509447" lon="-6.135240">
        <ele>20.204</ele>
        <time>2015-06-18T16:03:26Z</time>
      </trkpt>
      <trkpt lat="36.509512" lon="-6.135198">
        <ele>20.614</ele>
        <time>2015-06-18T16:03:29Z</time>
      </trkpt>
      <trkpt lat="36.509533" lon="-6.135181">
        <ele>21.008</ele>
        <time>2015-06-18T16:03:30Z</time>
      </trkpt>
      <trkpt lat="36.509555" lon="-6.135162">
        <ele>21.463</ele>
        <time>2015-06-18T16:03:31Z</time>
      </trkpt>
      <trkpt lat="36.509578" lon="-6.135148">
        <ele>22.259</ele>
        <time>2015-06-18T16:03:32Z</time>
      </trkpt>
      <trkpt lat="36.509600" lon="-6.135135">
        <ele>22.255</ele>
        <time>2015-06-18T16:03:33Z</time>
      </trkpt>
      <trkpt lat="36.509771" lon="-6.135048">
        <ele>22.234</ele>
        <time>2015-06-18T16:03:41Z</time>
      </trkpt>
      <trkpt lat="36.509792" lon="-6.135031">
        <ele>22.217</ele>
        <time>2015-06-18T16:03:43Z</time>
      </trkpt>
      <trkpt lat="36.509819" lon="-6.135013">
        <ele>22.279</ele>
        <time>2015-06-18T16:03:46Z</time>
      </trkpt>
      <trkpt lat="36.509833" lon="-6.135004">
        <ele>22.232</ele>
        <time>2015-06-18T16:03:47Z</time>
      </trkpt>
      <trkpt lat="36.509901" lon="-6.134961">
        <ele>22.246</ele>
        <time>2015-06-18T16:03:51Z</time>
      </trkpt>
      <trkpt lat="36.509989" lon="-6.134839">
        <ele>22.697</ele>
        <time>2015-06-18T16:03:57Z</time>
      </trkpt>
      <trkpt lat="36.509996" lon="-6.134809">
        <ele>23.023</ele>
        <time>2015-06-18T16:03:58Z</time>
      </trkpt>
      <trkpt lat="36.510000" lon="-6.134778">
        <ele>23.625</ele>
        <time>2015-06-18T16:03:59Z</time>
      </trkpt>
      <trkpt lat="36.510001" lon="-6.134744">
        <ele>24.008</ele>
        <time>2015-06-18T16:04:00Z</time>
      </trkpt>
      <trkpt lat="36.509998" lon="-6.134708">
        <ele>24.430</ele>
        <time>2015-06-18T16:04:01Z</time>
      </trkpt>
      <trkpt lat="36.509969" lon="-6.134607">
        <ele>24.436</ele>
        <time>2015-06-18T16:04:04Z</time>
      </trkpt>
      <trkpt lat="36.509913" lon="-6.134368">
        <ele>24.862</ele>
        <time>2015-06-18T16:04:11Z</time>
      </trkpt>
      <trkpt lat="36.509909" lon="-6.134336">
        <ele>25.221</ele>
        <time>2015-06-18T16:04:12Z</time>
      </trkpt>
      <trkpt lat="36.509906" lon="-6.134304">
        <ele>25.634</ele>
        <time>2015-06-18T16:04:13Z</time>
      </trkpt>
      <trkpt lat="36.509902" lon="-6.134271">
        <ele>26.286</ele>
        <time>2015-06-18T16:04:14Z</time>
      </trkpt>
      <trkpt lat="36.509896" lon="-6.134236">
        <ele>26.699</ele>
        <time>2015-06-18T16:04:15Z</time>
      </trkpt>
      <trkpt lat="36.509885" lon="-6.134132">
        <ele>26.673</ele>
        <time>2015-06-18T16:04:18Z</time>
      </trkpt>
      <trkpt lat="36.509849" lon="-6.133907">
        <ele>26.665</ele>
        <time>2015-06-18T16:04:25Z</time>
      </trkpt>
      <trkpt lat="36.509811" lon="-6.133718">
        <ele>26.668</ele>
        <time>2015-06-18T16:04:31Z</time>
      </trkpt>
      <trkpt lat="36.509771" lon="-6.133515">
        <ele>26.614</ele>
        <time>2015-06-18T16:04:37Z</time>
      </trkpt>
      <trkpt lat="36.509753" lon="-6.133380">
        <ele>27.008</ele>
        <time>2015-06-18T16:04:41Z</time>
      </trkpt>
      <trkpt lat="36.509747" lon="-6.133349">
        <ele>27.447</ele>
        <time>2015-06-18T16:04:42Z</time>
      </trkpt>
      <trkpt lat="36.509741" lon="-6.133318">
        <ele>27.853</ele>
        <time>2015-06-18T16:04:43Z</time>
      </trkpt>
      <trkpt lat="36.509733" lon="-6.133286">
        <ele>28.259</ele>
        <time>2015-06-18T16:04:44Z</time>
      </trkpt>
      <trkpt lat="36.509726" lon="-6.133252">
        <ele>28.688</ele>
        <time>2015-06-18T16:04:45Z</time>
      </trkpt>
      <trkpt lat="36.509705" lon="-6.133092">
        <ele>28.661</ele>
        <time>2015-06-18T16:04:50Z</time>
      </trkpt>
      <trkpt lat="36.509667" lon="-6.132884">
        <ele>28.663</ele>
        <time>2015-06-18T16:04:56Z</time>
      </trkpt>
      <trkpt lat="36.509647" lon="-6.132754">
        <ele>28.676</ele>
        <time>2015-06-18T16:05:01Z</time>
      </trkpt>
      <trkpt lat="36.509608" lon="-6.132517">
        <ele>28.630</ele>
        <time>2015-06-18T16:05:08Z</time>
      </trkpt>
      <trkpt lat="36.509576" lon="-6.132324">
        <ele>28.687</ele>
        <time>2015-06-18T16:05:14Z</time>
      </trkpt>
      <trkpt lat="36.509543" lon="-6.132156">
        <ele>28.642</ele>
        <time>2015-06-18T16:05:21Z</time>
      </trkpt>
      <trkpt lat="36.509509" lon="-6.131974">
        <ele>28.626</ele>
        <time>2015-06-18T16:05:27Z</time>
      </trkpt>
      <trkpt lat="36.509474" lon="-6.131738">
        <ele>28.608</ele>
        <time>2015-06-18T16:05:34Z</time>
      </trkpt>
      <trkpt lat="36.509469" lon="-6.131701">
        <ele>29.019</ele>
        <time>2015-06-18T16:05:35Z</time>
      </trkpt>
      <trkpt lat="36.509464" lon="-6.131665">
        <ele>29.885</ele>
        <time>2015-06-18T16:05:36Z</time>
      </trkpt>
      <trkpt lat="36.509460" lon="-6.131629">
        <ele>30.241</ele>
        <time>2015-06-18T16:05:37Z</time>
      </trkpt>
      <trkpt lat="36.509455" lon="-6.131594">
        <ele>30.620</ele>
        <time>2015-06-18T16:05:38Z</time>
      </trkpt>
      <trkpt lat="36.509440" lon="-6.131559">
        <ele>30.673</ele>
        <time>2015-06-18T16:05:39Z</time>
      </trkpt>
      <trkpt lat="36.509421" lon="-6.131494">
        <ele>30.685</ele>
        <time>2015-06-18T16:05:41Z</time>
      </trkpt>
      <trkpt lat="36.509375" lon="-6.131211">
        <ele>30.638</ele>
        <time>2015-06-18T16:05:49Z</time>
      </trkpt>
      <trkpt lat="36.509324" lon="-6.130955">
        <ele>30.662</ele>
        <time>2015-06-18T16:05:56Z</time>
      </trkpt>
      <trkpt lat="36.509289" lon="-6.130776">
        <ele>30.646</ele>
        <time>2015-06-18T16:06:01Z</time>
      </trkpt>
      <trkpt lat="36.509292" lon="-6.130631">
        <ele>30.688</ele>
        <time>2015-06-18T16:06:06Z</time>
      </trkpt>
      <trkpt lat="36.509308" lon="-6.130605">
        <ele>30.616</ele>
        <time>2015-06-18T16:06:07Z</time>
      </trkpt>
      <trkpt lat="36.509420" lon="-6.130553">
        <ele>30.608</ele>
        <time>2015-06-18T16:06:11Z</time>
      </trkpt>
      <trkpt lat="36.509718" lon="-6.130500">
        <ele>30.665</ele>
        <time>2015-06-18T16:06:20Z</time>
      </trkpt>
      <trkpt lat="36.509927" lon="-6.130472">
        <ele>30.651</ele>
        <time>2015-06-18T16:06:26Z</time>
      </trkpt>
      <trkpt lat="36.510118" lon="-6.130459">
        <ele>30.637</ele>
        <time>2015-06-18T16:06:32Z</time>
      </trkpt>
      <trkpt lat="36.510300" lon="-6.130444">
        <ele>30.666</ele>
        <time>2015-06-18T16:06:38Z</time>
      </trkpt>
      <trkpt lat="36.510467" lon="-6.130424">
        <ele>30.629</ele>
        <time>2015-06-18T16:06:43Z</time>
      </trkpt>
      <trkpt lat="36.510661" lon="-6.130388">
        <ele>30.691</ele>
        <time>2015-06-18T16:06:49Z</time>
      </trkpt>
      <trkpt lat="36.510689" lon="-6.130368">
        <ele>31.454</ele>
        <time>2015-06-18T16:06:50Z</time>
      </trkpt>
      <trkpt lat="36.510712" lon="-6.130339">
        <ele>31.818</ele>
        <time>2015-06-18T16:06:51Z</time>
      </trkpt>
      <trkpt lat="36.510729" lon="-6.130305">
        <ele>32.212</ele>
        <time>2015-06-18T16:06:52Z</time>
      </trkpt>
      <trkpt lat="36.510736" lon="-6.130266">
        <ele>32.632</ele>
        <time>2015-06-18T16:06:53Z</time>
      </trkpt>
      <trkpt lat="36.510730" lon="-6.130226">
        <ele>32.605</ele>
        <time>2015-06-18T16:06:54Z</time>
      </trkpt>
      <trkpt lat="36.510697" lon="-6.130158">
        <ele>32.608</ele>
        <time>2015-06-18T16:06:56Z</time>
      </trkpt>
      <trkpt lat="36.510653" lon="-6.130048">
        <ele>32.692</ele>
        <time>2015-06-18T16:06:59Z</time>
      </trkpt>
      <trkpt lat="36.510626" lon="-6.129976">
        <ele>32.618</ele>
        <time>2015-06-18T16:07:01Z</time>
      </trkpt>
      <trkpt lat="36.510583" lon="-6.129865">
        <ele>33.054</ele>
        <time>2015-06-18T16:07:04Z</time>
      </trkpt>
      <trkpt lat="36.510569" lon="-6.129828">
        <ele>33.643</ele>
        <time>2015-06-18T16:07:05Z</time>
      </trkpt>
      <trkpt lat="36.510554" lon="-6.129792">
        <ele>34.076</ele>
        <time>2015-06-18T16:07:06Z</time>
      </trkpt>
      <trkpt lat="36.510541" lon="-6.129754">
        <ele>34.468</ele>
        <time>2015-06-18T16:07:07Z</time>
      </trkpt>
      <trkpt lat="36.510530" lon="-6.129715">
        <ele>34.861</ele>
        <time>2015-06-18T16:07:08Z</time>
      </trkpt>
      <trkpt lat="36.510559" lon="-6.129530">
        <ele>34.845</ele>
        <time>2015-06-18T16:07:13Z</time>
      </trkpt>
      <trkpt lat="36.510672" lon="-6.129457">
        <ele>34.871</ele>
        <time>2015-06-18T16:07:17Z</time>
      </trkpt>
      <trkpt lat="36.510828" lon="-6.129362">
        <ele>34.841</ele>
        <time>2015-06-18T16:07:23Z</time>
      </trkpt>
      <trkpt lat="36.510972" lon="-6.129256">
        <ele>34.815</ele>
        <time>2015-06-18T16:07:29Z</time>
      </trkpt>
      <trkpt lat="36.511149" lon="-6.129121">
        <ele>34.808</ele>
        <time>2015-06-18T16:07:36Z</time>
      </trkpt>
      <trkpt lat="36.511349" lon="-6.128947">
        <ele>35.298</ele>
        <time>2015-06-18T16:07:44Z</time>
      </trkpt>
      <trkpt lat="36.511371" lon="-6.128932">
        <ele>35.694</ele>
        <time>2015-06-18T16:07:45Z</time>
      </trkpt>
      <trkpt lat="36.511390" lon="-6.128917">
        <ele>36.060</ele>
        <time>2015-06-18T16:07:46Z</time>
      </trkpt>
      <trkpt lat="36.511410" lon="-6.128903">
        <ele>36.469</ele>
        <time>2015-06-18T16:07:47Z</time>
      </trkpt>
      <trkpt lat="36.511431" lon="-6.128887">
        <ele>36.892</ele>
        <time>2015-06-18T16:07:48Z</time>
      </trkpt>
      <trkpt lat="36.511476" lon="-6.128858">
        <ele>36.844</ele>
        <time>2015-06-18T16:07:50Z</time>
      </trkpt>
      <trkpt lat="36.511651" lon="-6.128750">
        <ele>36.877</ele>
        <time>2015-06-18T16:07:57Z</time>
      </trkpt>
      <trkpt lat="36.511815" lon="-6.128640">
        <ele>36.891</ele>
        <time>2015-06-18T16:08:03Z</time>
      </trkpt>
      <trkpt lat="36.512033" lon="-6.128495">
        <ele>36.885</ele>
        <time>2015-06-18T16:08:11Z</time>
      </trkpt>
      <trkpt lat="36.512197" lon="-6.128347">
        <ele>36.889</ele>
        <time>2015-06-18T16:08:17Z</time>
      </trkpt>
      <trkpt lat="36.512305" lon="-6.128174">
        <ele>37.217</ele>
        <time>2015-06-18T16:08:21Z</time>
      </trkpt>
      <trkpt lat="36.512335" lon="-6.128123">
        <ele>37.608</ele>
        <time>2015-06-18T16:08:22Z</time>
      </trkpt>
      <trkpt lat="36.512361" lon="-6.128065">
        <ele>38.239</ele>
        <time>2015-06-18T16:08:23Z</time>
      </trkpt>
      <trkpt lat="36.512390" lon="-6.128010">
        <ele>38.655</ele>
        <time>2015-06-18T16:08:24Z</time>
      </trkpt>
      <trkpt lat="36.512423" lon="-6.127958">
        <ele>39.031</ele>
        <time>2015-06-18T16:08:25Z</time>
      </trkpt>
      <trkpt lat="36.512491" lon="-6.127860">
        <ele>39.020</ele>
        <time>2015-06-18T16:08:27Z</time>
      </trkpt>
      <trkpt lat="36.512553" lon="-6.127767">
        <ele>39.063</ele>
        <time>2015-06-18T16:08:29Z</time>
      </trkpt>
      <trkpt lat="36.512626" lon="-6.127641">
        <ele>39.015</ele>
        <time>2015-06-18T16:08:32Z</time>
      </trkpt>
      <trkpt lat="36.512700" lon="-6.127531">
        <ele>39.098</ele>
        <time>2015-06-18T16:08:35Z</time>
      </trkpt>
      <trkpt lat="36.512768" lon="-6.127415">
        <ele>39.032</ele>
        <time>2015-06-18T16:08:38Z</time>
      </trkpt>
      <trkpt lat="36.512797" lon="-6.127382">
        <ele>39.036</ele>
        <time>2015-06-18T16:08:39Z</time>
      </trkpt>
      <trkpt lat="36.512916" lon="-6.127255">
        <ele>39.017</ele>
        <time>2015-06-18T16:08:43Z</time>
      </trkpt>
      <trkpt lat="36.512950" lon="-6.127226">
        <ele>39.018</ele>
        <time>2015-06-18T16:08:44Z</time>
      </trkpt>
      <trkpt lat="36.513079" lon="-6.127077">
        <ele>39.008</ele>
        <time>2015-06-18T16:08:48Z</time>
      </trkpt>
      <trkpt lat="36.513119" lon="-6.126975">
        <ele>39.014</ele>
        <time>2015-06-18T16:08:50Z</time>
      </trkpt>
      <trkpt lat="36.513130" lon="-6.126925">
        <ele>39.020</ele>
        <time>2015-06-18T16:08:51Z</time>
      </trkpt>
      <trkpt lat="36.513131" lon="-6.126877">
        <ele>39.086</ele>
        <time>2015-06-18T16:08:52Z</time>
      </trkpt>
      <trkpt lat="36.513105" lon="-6.126574">
        <ele>39.055</ele>
        <time>2015-06-18T16:08:59Z</time>
      </trkpt>
      <trkpt lat="36.513066" lon="-6.126381">
        <ele>39.058</ele>
        <time>2015-06-18T16:09:05Z</time>
      </trkpt>
      <trkpt lat="36.513052" lon="-6.126270">
        <ele>39.090</ele>
        <time>2015-06-18T16:09:09Z</time>
      </trkpt>
      <trkpt lat="36.513071" lon="-6.126203">
        <ele>39.013</ele>
        <time>2015-06-18T16:09:11Z</time>
      </trkpt>
      <trkpt lat="36.513111" lon="-6.126046">
        <ele>39.037</ele>
        <time>2015-06-18T16:09:17Z</time>
      </trkpt>
      <trkpt lat="36.513155" lon="-6.125855">
        <ele>39.046</ele>
        <time>2015-06-18T16:09:22Z</time>
      </trkpt>
      <trkpt lat="36.513215" lon="-6.125704">
        <ele>39.088</ele>
        <time>2015-06-18T16:09:26Z</time>
      </trkpt>
      <trkpt lat="36.513273" lon="-6.125591">
        <ele>39.016</ele>
        <time>2015-06-18T16:09:29Z</time>
      </trkpt>
      <trkpt lat="36.513343" lon="-6.125490">
        <ele>39.008</ele>
        <time>2015-06-18T16:09:32Z</time>
      </trkpt>
      <trkpt lat="36.513390" lon="-6.125370">
        <ele>39.095</ele>
        <time>2015-06-18T16:09:35Z</time>
      </trkpt>
      <trkpt lat="36.513427" lon="-6.125201">
        <ele>39.061</ele>
        <time>2015-06-18T16:09:40Z</time>
      </trkpt>
      <trkpt lat="36.513439" lon="-6.124984">
        <ele>39.067</ele>
        <time>2015-06-18T16:09:46Z</time>
      </trkpt>
      <trkpt lat="36.513406" lon="-6.124834">
        <ele>39.496</ele>
        <time>2015-06-18T16:09:50Z</time>
      </trkpt>
      <trkpt lat="36.513398" lon="-6.124800">
        <ele>39.859</ele>
        <time>2015-06-18T16:09:51Z</time>
      </trkpt>
      <trkpt lat="36.513390" lon="-6.124763">
        <ele>40.251</ele>
        <time>2015-06-18T16:09:52Z</time>
      </trkpt>
      <trkpt lat="36.513393" lon="-6.124722">
        <ele>40.674</ele>
        <time>2015-06-18T16:09:53Z</time>
      </trkpt>
      <trkpt lat="36.513396" lon="-6.124679">
        <ele>41.098</ele>
        <time>2015-06-18T16:09:54Z</time>
      </trkpt>
      <trkpt lat="36.513426" lon="-6.124469">
        <ele>41.052</ele>
        <time>2015-06-18T16:09:59Z</time>
      </trkpt>
      <trkpt lat="36.513447" lon="-6.124206">
        <ele>41.053</ele>
        <time>2015-06-18T16:10:05Z</time>
      </trkpt>
      <trkpt lat="36.513485" lon="-6.123955">
        <ele>41.008</ele>
        <time>2015-06-18T16:10:11Z</time>
      </trkpt>
      <trkpt lat="36.513500" lon="-6.123947">
        <ele>41.008</ele>
        <time>2015-06-18T16:10:15Z</time>
      </trkpt>
      <trkpt lat="36.513500" lon="-6.123947">
        <ele>41.066</ele>
        <time>2015-06-18T16:10:26Z</time>
      </trkpt>
      <trkpt lat="36.513500" lon="-6.123947">
        <ele>41.062</ele>
        <time>2015-06-18T16:10:38Z</time>
      </trkpt>
      <trkpt lat="36.513500" lon="-6.123947">
        <ele>41.098</ele>
        <time>2015-06-18T16:10:39Z</time>
      </trkpt>
      <trkpt lat="36.513500" lon="-6.123947">
        <ele>41.037</ele>
        <time>2015-06-18T16:10:45Z</time>
      </trkpt>
      <trkpt lat="36.513504" lon="-6.123945">
        <ele>41.080</ele>
        <time>2015-06-18T16:10:55Z</time>
      </trkpt>
      <trkpt lat="36.513504" lon="-6.123945">
        <ele>41.072</ele>
        <time>2015-06-18T16:10:57Z</time>
      </trkpt>
      <trkpt lat="36.513504" lon="-6.123945">
        <ele>41.095</ele>
        <time>2015-06-18T16:11:02Z</time>
      </trkpt>
      <trkpt lat="36.513504" lon="-6.123945">
        <ele>41.079</ele>
        <time>2015-06-18T16:11:04Z</time>
      </trkpt>
      <trkpt lat="36.513504" lon="-6.123945">
        <ele>41.022</ele>
        <time>2015-06-18T16:11:09Z</time>
      </trkpt>
      <trkpt lat="36.513504" lon="-6.123945">
        <ele>41.062</ele>
        <time>2015-06-18T16:11:16Z</time>
      </trkpt>
      <trkpt lat="36.513504" lon="-6.123945">
        <ele>41.008</ele>
        <time>2015-06-18T16:11:18Z</time>
      </trkpt>
      <trkpt lat="36.513504" lon="-6.123945">
        <ele>41.008</ele>
        <time>2015-06-18T16:11:20Z</time>
      </trkpt>
      <trkpt lat="36.513504" lon="-6.123945">
        <ele>41.083</ele>
        <time>2015-06-18T16:11:33Z</time>
      </trkpt>
      <trkpt lat="36.513508" lon="-6.123914">
        <ele>41.099</ele>
        <time>2015-06-18T16:11:35Z</time>
      </trkpt>
      <trkpt lat="36.513514" lon="-6.123849">
        <ele>41.015</ele>
        <time>2015-06-18T16:11:38Z</time>
      </trkpt>
      <trkpt lat="36.513501" lon="-6.123696">
        <ele>41.054</ele>
        <time>2015-06-18T16:11:44Z</time>
      </trkpt>
      <trkpt lat="36.513488" lon="-6.123580">
        <ele>41.077</ele>
        <time>2015-06-18T16:11:47Z</time>
      </trkpt>
      <trkpt lat="36.513474" lon="-6.123542">
        <ele>41.039</ele>
        <time>2015-06-18T16:11:48Z</time>
      </trkpt>
      <trkpt lat="36.513461" lon="-6.123495">
        <ele>40.662</ele>
        <time>2015-06-18T16:11:49Z</time>
      </trkpt>
      <trkpt lat="36.513445" lon="-6.123448">
        <ele>40.216</ele>
        <time>2015-06-18T16:11:50Z</time>
      </trkpt>
      <trkpt lat="36.513434" lon="-6.123402">
        <ele>39.834</ele>
        <time>2015-06-18T16:11:51Z</time>
      </trkpt>
      <trkpt lat="36.513425" lon="-6.123357">
        <ele>39.455</ele>
        <time>2015-06-18T16:11:52Z</time>
      </trkpt>
      <trkpt lat="36.513421" lon="-6.123312">
        <ele>39.010</ele>
        <time>2015-06-18T16:11:53Z</time>
      </trkpt>
      <trkpt lat="36.513459" lon="-6.123181">
        <ele>39.008</ele>
        <time>2015-06-18T16:11:56Z</time>
      </trkpt>
      <trkpt lat="36.513491" lon="-6.123143">
        <ele>39.064</ele>
        <time>2015-06-18T16:11:57Z</time>
      </trkpt>
      <trkpt lat="36.513641" lon="-6.123059">
        <ele>39.030</ele>
        <time>2015-06-18T16:12:01Z</time>
      </trkpt>
      <trkpt lat="36.513708" lon="-6.123020">
        <ele>39.096</ele>
        <time>2015-06-18T16:12:03Z</time>
      </trkpt>
      <trkpt lat="36.513750" lon="-6.122952">
        <ele>39.035</ele>
        <time>2015-06-18T16:12:05Z</time>
      </trkpt>
      <trkpt lat="36.513738" lon="-6.122839">
        <ele>39.058</ele>
        <time>2015-06-18T16:12:08Z</time>
      </trkpt>
      <trkpt lat="36.513732" lon="-6.122805">
        <ele>39.010</ele>
        <time>2015-06-18T16:12:09Z</time>
      </trkpt>
      <trkpt lat="36.513705" lon="-6.122584">
        <ele>39.083</ele>
        <time>2015-06-18T16:12:14Z</time>
      </trkpt>
      <trkpt lat="36.513726" lon="-6.122349">
        <ele>39.017</ele>
        <time>2015-06-18T16:12:19Z</time>
      </trkpt>
      <trkpt lat="36.513725" lon="-6.122283">
        <ele>38.615</ele>
        <time>2015-06-18T16:12:20Z</time>
      </trkpt>
      <trkpt lat="36.513722" lon="-6.122229">
        <ele>38.065</ele>
        <time>2015-06-18T16:12:21Z</time>
      </trkpt>
      <trkpt lat="36.513716" lon="-6.122184">
        <ele>37.611</ele>
        <time>2015-06-18T16:12:22Z</time>
      </trkpt>
      <trkpt lat="36.513709" lon="-6.122136">
        <ele>37.208</ele>
        <time>2015-06-18T16:12:23Z</time>
      </trkpt>
      <trkpt lat="36.513701" lon="-6.122089">
        <ele>36.812</ele>
        <time>2015-06-18T16:12:24Z</time>
      </trkpt>
      <trkpt lat="36.513673" lon="-6.121835">
        <ele>36.878</ele>
        <time>2015-06-18T16:12:29Z</time>
      </trkpt>
      <trkpt lat="36.513627" lon="-6.121576">
        <ele>36.824</ele>
        <time>2015-06-18T16:12:35Z</time>
      </trkpt>
      <trkpt lat="36.513617" lon="-6.121308">
        <ele>36.813</ele>
        <time>2015-06-18T16:12:41Z</time>
      </trkpt>
      <trkpt lat="36.513637" lon="-6.121131">
        <ele>36.896</ele>
        <time>2015-06-18T16:12:45Z</time>
      </trkpt>
      <trkpt lat="36.513643" lon="-6.121011">
        <ele>36.878</ele>
        <time>2015-06-18T16:12:48Z</time>
      </trkpt>
      <trkpt lat="36.513652" lon="-6.120974">
        <ele>36.821</ele>
        <time>2015-06-18T16:12:49Z</time>
      </trkpt>
      <trkpt lat="36.513659" lon="-6.120784">
        <ele>36.875</ele>
        <time>2015-06-18T16:12:54Z</time>
      </trkpt>
      <trkpt lat="36.513656" lon="-6.120654">
        <ele>36.845</ele>
        <time>2015-06-18T16:12:58Z</time>
      </trkpt>
      <trkpt lat="36.513655" lon="-6.120548">
        <ele>36.847</ele>
        <time>2015-06-18T16:13:01Z</time>
      </trkpt>
      <trkpt lat="36.513674" lon="-6.120228">
        <ele>36.811</ele>
        <time>2015-06-18T16:13:09Z</time>
      </trkpt>
      <trkpt lat="36.513702" lon="-6.120004">
        <ele>36.808</ele>
        <time>2015-06-18T16:13:15Z</time>
      </trkpt>
      <trkpt lat="36.513756" lon="-6.119751">
        <ele>37.265</ele>
        <time>2015-06-18T16:13:22Z</time>
      </trkpt>
      <trkpt lat="36.513764" lon="-6.119716">
        <ele>37.611</ele>
        <time>2015-06-18T16:13:23Z</time>
      </trkpt>
      <trkpt lat="36.513770" lon="-6.119681">
        <ele>38.087</ele>
        <time>2015-06-18T16:13:24Z</time>
      </trkpt>
      <trkpt lat="36.513778" lon="-6.119644">
        <ele>38.426</ele>
        <time>2015-06-18T16:13:25Z</time>
      </trkpt>
      <trkpt lat="36.513786" lon="-6.119606">
        <ele>38.869</ele>
        <time>2015-06-18T16:13:26Z</time>
      </trkpt>
      <trkpt lat="36.513793" lon="-6.119447">
        <ele>38.881</ele>
        <time>2015-06-18T16:13:30Z</time>
      </trkpt>
      <trkpt lat="36.513786" lon="-6.119209">
        <ele>38.874</ele>
        <time>2015-06-18T16:13:37Z</time>
      </trkpt>
      <trkpt lat="36.513782" lon="-6.119004">
        <ele>38.898</ele>
        <time>2015-06-18T16:13:43Z</time>
      </trkpt>
      <trkpt lat="36.513773" lon="-6.118867">
        <ele>39.261</ele>
        <time>2015-06-18T16:13:47Z</time>
      </trkpt>
      <trkpt lat="36.513774" lon="-6.118831">
        <ele>39.621</ele>
        <time>2015-06-18T16:13:48Z</time>
      </trkpt>
      <trkpt lat="36.513778" lon="-6.118793">
        <ele>40.013</ele>
        <time>2015-06-18T16:13:49Z</time>
      </trkpt>
      <trkpt lat="36.513784" lon="-6.118757">
        <ele>40.408</ele>
        <time>2015-06-18T16:13:50Z</time>
      </trkpt>
      <trkpt lat="36.513787" lon="-6.118724">
        <ele>41.037</ele>
        <time>2015-06-18T16:13:51Z</time>
      </trkpt>
      <trkpt lat="36.513793" lon="-6.118691">
        <ele>41.073</ele>
        <time>2015-06-18T16:13:52Z</time>
      </trkpt>
      <trkpt lat="36.513823" lon="-6.118578">
        <ele>41.079</ele>
        <time>2015-06-18T16:13:56Z</time>
      </trkpt>
      <trkpt lat="36.513870" lon="-6.118273">
        <ele>41.018</ele>
        <time>2015-06-18T16:14:03Z</time>
      </trkpt>
      <trkpt lat="36.513921" lon="-6.118056">
        <ele>41.021</ele>
        <time>2015-06-18T16:14:09Z</time>
      </trkpt>
      <trkpt lat="36.514020" lon="-6.117790">
        <ele>41.063</ele>
        <time>2015-06-18T16:14:16Z</time>
      </trkpt>
      <trkpt lat="36.514029" lon="-6.117756">
        <ele>41.426</ele>
        <time>2015-06-18T16:14:17Z</time>
      </trkpt>
      <trkpt lat="36.514035" lon="-6.117722">
        <ele>41.870</ele>
        <time>2015-06-18T16:14:18Z</time>
      </trkpt>
      <trkpt lat="36.514040" lon="-6.117690">
        <ele>42.211</ele>
        <time>2015-06-18T16:14:19Z</time>
      </trkpt>
      <trkpt lat="36.514046" lon="-6.117654">
        <ele>42.621</ele>
        <time>2015-06-18T16:14:20Z</time>
      </trkpt>
      <trkpt lat="36.514048" lon="-6.117621">
        <ele>43.003</ele>
        <time>2015-06-18T16:14:21Z</time>
      </trkpt>
      <trkpt lat="36.514040" lon="-6.117443">
        <ele>43.008</ele>
        <time>2015-06-18T16:14:25Z</time>
      </trkpt>
      <trkpt lat="36.514028" lon="-6.117048">
        <ele>43.042</ele>
        <time>2015-06-18T16:14:32Z</time>
      </trkpt>
      <trkpt lat="36.514069" lon="-6.116721">
        <ele>43.078</ele>
        <time>2015-06-18T16:14:38Z</time>
      </trkpt>
      <trkpt lat="36.514072" lon="-6.116530">
        <ele>43.044</ele>
        <time>2015-06-18T16:14:43Z</time>
      </trkpt>
      <trkpt lat="36.514074" lon="-6.116355">
        <ele>43.073</ele>
        <time>2015-06-18T16:14:49Z</time>
      </trkpt>
      <trkpt lat="36.514068" lon="-6.116059">
        <ele>43.026</ele>
        <time>2015-06-18T16:14:58Z</time>
      </trkpt>
      <trkpt lat="36.514090" lon="-6.115749">
        <ele>43.038</ele>
        <time>2015-06-18T16:15:04Z</time>
      </trkpt>
      <trkpt lat="36.514095" lon="-6.115553">
        <ele>43.031</ele>
        <time>2015-06-18T16:15:08Z</time>
      </trkpt>
      <trkpt lat="36.514118" lon="-6.115265">
        <ele>43.085</ele>
        <time>2015-06-18T16:15:13Z</time>
      </trkpt>
      <trkpt lat="36.514151" lon="-6.115054">
        <ele>43.034</ele>
        <time>2015-06-18T16:15:18Z</time>
      </trkpt>
      <trkpt lat="36.514156" lon="-6.115014">
        <ele>43.055</ele>
        <time>2015-06-18T16:15:19Z</time>
      </trkpt>
      <trkpt lat="36.514169" lon="-6.114760">
        <ele>43.010</ele>
        <time>2015-06-18T16:15:24Z</time>
      </trkpt>
      <trkpt lat="36.514161" lon="-6.114697">
        <ele>43.408</ele>
        <time>2015-06-18T16:15:25Z</time>
      </trkpt>
      <trkpt lat="36.514157" lon="-6.114650">
        <ele>43.894</ele>
        <time>2015-06-18T16:15:26Z</time>
      </trkpt>
      <trkpt lat="36.514148" lon="-6.114605">
        <ele>44.220</ele>
        <time>2015-06-18T16:15:27Z</time>
      </trkpt>
      <trkpt lat="36.514138" lon="-6.114572">
        <ele>44.666</ele>
        <time>2015-06-18T16:15:28Z</time>
      </trkpt>
      <trkpt lat="36.514131" lon="-6.114544">
        <ele>45.065</ele>
        <time>2015-06-18T16:15:29Z</time>
      </trkpt>
      <trkpt lat="36.514106" lon="-6.114479">
        <ele>45.078</ele>
        <time>2015-06-18T16:15:31Z</time>
      </trkpt>
      <trkpt lat="36.514079" lon="-6.114410">
        <ele>45.090</ele>
        <time>2015-06-18T16:15:33Z</time>
      </trkpt>
      <trkpt lat="36.513960" lon="-6.114176">
        <ele>45.023</ele>
        <time>2015-06-18T16:15:39Z</time>
      </trkpt>
      <trkpt lat="36.513940" lon="-6.114003">
        <ele>45.067</ele>
        <time>2015-06-18T16:15:43Z</time>
      </trkpt>
      <trkpt lat="36.513951" lon="-6.113904">
        <ele>45.096</ele>
        <time>2015-06-18T16:15:47Z</time>
      </trkpt>
      <trkpt lat="36.513931" lon="-6.113847">
        <ele>45.031</ele>
        <time>2015-06-18T16:15:49Z</time>
      </trkpt>
      <trkpt lat="36.513894" lon="-6.113811">
        <ele>45.024</ele>
        <time>2015-06-18T16:15:51Z</time>
      </trkpt>
      <trkpt lat="36.513842" lon="-6.113800">
        <ele>45.008</ele>
        <time>2015-06-18T16:15:53Z</time>
      </trkpt>
      <trkpt lat="36.513783" lon="-6.113796">
        <ele>45.060</ele>
        <time>2015-06-18T16:15:55Z</time>
      </trkpt>
      <trkpt lat="36.513654" lon="-6.113808">
        <ele>45.076</ele>
        <time>2015-06-18T16:15:59Z</time>
      </trkpt>
      <trkpt lat="36.513508" lon="-6.113813">
        <ele>45.042</ele>
        <time>2015-06-18T16:16:02Z</time>
      </trkpt>
      <trkpt lat="36.513401" lon="-6.113817">
        <ele>45.081</ele>
        <time>2015-06-18T16:16:04Z</time>
      </trkpt>
      <trkpt lat="36.513311" lon="-6.113839">
        <ele>45.014</ele>
        <time>2015-06-18T16:16:06Z</time>
      </trkpt>
      <trkpt lat="36.513192" lon="-6.113874">
        <ele>45.016</ele>
        <time>2015-06-18T16:16:09Z</time>
      </trkpt>
      <trkpt lat="36.513108" lon="-6.113891">
        <ele>45.059</ele>
        <time>2015-06-18T16:16:11Z</time>
      </trkpt>
      <trkpt lat="36.512949" lon="-6.113915">
        <ele>45.033</ele>
        <time>2015-06-18T16:16:15Z</time>
      </trkpt>
      <trkpt lat="36.512681" lon="-6.113964">
        <ele>45.033</ele>
        <time>2015-06-18T16:16:22Z</time>
      </trkpt>
      <trkpt lat="36.512361" lon="-6.113985">
        <ele>45.023</ele>
        <time>2015-06-18T16:16:29Z</time>
      </trkpt>
      <trkpt lat="36.512167" lon="-6.113992">
        <ele>45.015</ele>
        <time>2015-06-18T16:16:33Z</time>
      </trkpt>
      <trkpt lat="36.512092" lon="-6.114006">
        <ele>45.008</ele>
        <time>2015-06-18T16:16:35Z</time>
      </trkpt>
      <trkpt lat="36.511987" lon="-6.114035">
        <ele>45.074</ele>
        <time>2015-06-18T16:16:38Z</time>
      </trkpt>
      <trkpt lat="36.511902" lon="-6.114033">
        <ele>45.080</ele>
        <time>2015-06-18T16:16:40Z</time>
      </trkpt>
      <trkpt lat="36.511803" lon="-6.114045">
        <ele>45.066</ele>
        <time>2015-06-18T16:16:42Z</time>
      </trkpt>
      <trkpt lat="36.511632" lon="-6.114047">
        <ele>45.055</ele>
        <time>2015-06-18T16:16:45Z</time>
      </trkpt>
      <trkpt lat="36.511535" lon="-6.114056">
        <ele>45.038</ele>
        <time>2015-06-18T16:16:47Z</time>
      </trkpt>
      <trkpt lat="36.511491" lon="-6.114060">
        <ele>45.010</ele>
        <time>2015-06-18T16:16:48Z</time>
      </trkpt>
      <trkpt lat="36.511281" lon="-6.114104">
        <ele>45.083</ele>
        <time>2015-06-18T16:16:53Z</time>
      </trkpt>
      <trkpt lat="36.511179" lon="-6.114120">
        <ele>45.017</ele>
        <time>2015-06-18T16:16:55Z</time>
      </trkpt>
      <trkpt lat="36.511037" lon="-6.114161">
        <ele>45.064</ele>
        <time>2015-06-18T16:16:58Z</time>
      </trkpt>
      <trkpt lat="36.510846" lon="-6.114218">
        <ele>45.006</ele>
        <time>2015-06-18T16:17:02Z</time>
      </trkpt>
      <trkpt lat="36.510749" lon="-6.114247">
        <ele>45.016</ele>
        <time>2015-06-18T16:17:04Z</time>
      </trkpt>
      <trkpt lat="36.510700" lon="-6.114258">
        <ele>44.608</ele>
        <time>2015-06-18T16:17:05Z</time>
      </trkpt>
      <trkpt lat="36.510659" lon="-6.114274">
        <ele>44.247</ele>
        <time>2015-06-18T16:17:06Z</time>
      </trkpt>
      <trkpt lat="36.510620" lon="-6.114293">
        <ele>43.823</ele>
        <time>2015-06-18T16:17:07Z</time>
      </trkpt>
      <trkpt lat="36.510579" lon="-6.114307">
        <ele>43.499</ele>
        <time>2015-06-18T16:17:08Z</time>
      </trkpt>
      <trkpt lat="36.510538" lon="-6.114318">
        <ele>43.048</ele>
        <time>2015-06-18T16:17:09Z</time>
      </trkpt>
      <trkpt lat="36.510494" lon="-6.114335">
        <ele>43.061</ele>
        <time>2015-06-18T16:17:10Z</time>
      </trkpt>
      <trkpt lat="36.510316" lon="-6.114400">
        <ele>43.023</ele>
        <time>2015-06-18T16:17:14Z</time>
      </trkpt>
      <trkpt lat="36.510231" lon="-6.114442">
        <ele>43.086</ele>
        <time>2015-06-18T16:17:16Z</time>
      </trkpt>
      <trkpt lat="36.510142" lon="-6.114467">
        <ele>43.010</ele>
        <time>2015-06-18T16:17:18Z</time>
      </trkpt>
      <trkpt lat="36.510006" lon="-6.114507">
        <ele>43.049</ele>
        <time>2015-06-18T16:17:21Z</time>
      </trkpt>
      <trkpt lat="36.509847" lon="-6.114570">
        <ele>43.002</ele>
        <time>2015-06-18T16:17:25Z</time>
      </trkpt>
      <trkpt lat="36.509715" lon="-6.114552">
        <ele>43.022</ele>
        <time>2015-06-18T16:17:28Z</time>
      </trkpt>
      <trkpt lat="36.509671" lon="-6.114542">
        <ele>43.008</ele>
        <time>2015-06-18T16:17:29Z</time>
      </trkpt>
      <trkpt lat="36.509628" lon="-6.114528">
        <ele>43.085</ele>
        <time>2015-06-18T16:17:30Z</time>
      </trkpt>
      <trkpt lat="36.509507" lon="-6.114502">
        <ele>43.021</ele>
        <time>2015-06-18T16:17:33Z</time>
      </trkpt>
      <trkpt lat="36.509429" lon="-6.114466">
        <ele>43.027</ele>
        <time>2015-06-18T16:17:35Z</time>
      </trkpt>
      <trkpt lat="36.509302" lon="-6.114411">
        <ele>43.016</ele>
        <time>2015-06-18T16:17:38Z</time>
      </trkpt>
      <trkpt lat="36.509169" lon="-6.114348">
        <ele>43.079</ele>
        <time>2015-06-18T16:17:41Z</time>
      </trkpt>
      <trkpt lat="36.509121" lon="-6.114329">
        <ele>43.011</ele>
        <time>2015-06-18T16:17:42Z</time>
      </trkpt>
      <trkpt lat="36.509022" lon="-6.114311">
        <ele>43.044</ele>
        <time>2015-06-18T16:17:44Z</time>
      </trkpt>
      <trkpt lat="36.508923" lon="-6.114317">
        <ele>43.098</ele>
        <time>2015-06-18T16:17:46Z</time>
      </trkpt>
      <trkpt lat="36.508833" lon="-6.114322">
        <ele>43.094</ele>
        <time>2015-06-18T16:17:48Z</time>
      </trkpt>
      <trkpt lat="36.508701" lon="-6.114311">
        <ele>43.057</ele>
        <time>2015-06-18T16:17:51Z</time>
      </trkpt>
      <trkpt lat="36.508538" lon="-6.114298">
        <ele>43.022</ele>
        <time>2015-06-18T16:17:55Z</time>
      </trkpt>
      <trkpt lat="36.508498" lon="-6.114291">
        <ele>43.008</ele>
        <time>2015-06-18T16:17:56Z</time>
      </trkpt>
      <trkpt lat="36.508411" lon="-6.114280">
        <ele>43.020</ele>
        <time>2015-06-18T16:17:58Z</time>
      </trkpt>
      <trkpt lat="36.508283" lon="-6.114311">
        <ele>43.076</ele>
        <time>2015-06-18T16:18:01Z</time>
      </trkpt>
      <trkpt lat="36.508193" lon="-6.114347">
        <ele>43.032</ele>
        <time>2015-06-18T16:18:03Z</time>
      </trkpt>
      <trkpt lat="36.507998" lon="-6.114377">
        <ele>43.021</ele>
        <time>2015-06-18T16:18:07Z</time>
      </trkpt>
      <trkpt lat="36.507952" lon="-6.114369">
        <ele>43.094</ele>
        <time>2015-06-18T16:18:08Z</time>
      </trkpt>
      <trkpt lat="36.507812" lon="-6.114378">
        <ele>43.046</ele>
        <time>2015-06-18T16:18:11Z</time>
      </trkpt>
      <trkpt lat="36.507645" lon="-6.114407">
        <ele>42.659</ele>
        <time>2015-06-18T16:18:15Z</time>
      </trkpt>
      <trkpt lat="36.507606" lon="-6.114421">
        <ele>42.213</ele>
        <time>2015-06-18T16:18:16Z</time>
      </trkpt>
      <trkpt lat="36.507572" lon="-6.114451">
        <ele>41.873</ele>
        <time>2015-06-18T16:18:17Z</time>
      </trkpt>
      <trkpt lat="36.507539" lon="-6.114475">
        <ele>41.485</ele>
        <time>2015-06-18T16:18:18Z</time>
      </trkpt>
      <trkpt lat="36.507499" lon="-6.114488">
        <ele>41.013</ele>
        <time>2015-06-18T16:18:19Z</time>
      </trkpt>
      <trkpt lat="36.507408" lon="-6.114499">
        <ele>41.008</ele>
        <time>2015-06-18T16:18:21Z</time>
      </trkpt>
      <trkpt lat="36.507315" lon="-6.114499">
        <ele>41.068</ele>
        <time>2015-06-18T16:18:23Z</time>
      </trkpt>
      <trkpt lat="36.507163" lon="-6.114506">
        <ele>41.084</ele>
        <time>2015-06-18T16:18:26Z</time>
      </trkpt>
      <trkpt lat="36.507115" lon="-6.114518">
        <ele>41.010</ele>
        <time>2015-06-18T16:18:27Z</time>
      </trkpt>
      <trkpt lat="36.506984" lon="-6.114562">
        <ele>41.019</ele>
        <time>2015-06-18T16:18:30Z</time>
      </trkpt>
      <trkpt lat="36.506944" lon="-6.114580">
        <ele>41.022</ele>
        <time>2015-06-18T16:18:31Z</time>
      </trkpt>
      <trkpt lat="36.506826" lon="-6.114642">
        <ele>41.014</ele>
        <time>2015-06-18T16:18:34Z</time>
      </trkpt>
      <trkpt lat="36.506727" lon="-6.114705">
        <ele>41.017</ele>
        <time>2015-06-18T16:18:37Z</time>
      </trkpt>
      <trkpt lat="36.506554" lon="-6.114797">
        <ele>41.051</ele>
        <time>2015-06-18T16:18:42Z</time>
      </trkpt>
      <trkpt lat="36.506510" lon="-6.114807">
        <ele>41.096</ele>
        <time>2015-06-18T16:18:43Z</time>
      </trkpt>
      <trkpt lat="36.506386" lon="-6.114836">
        <ele>41.031</ele>
        <time>2015-06-18T16:18:46Z</time>
      </trkpt>
      <trkpt lat="36.506343" lon="-6.114838">
        <ele>41.024</ele>
        <time>2015-06-18T16:18:47Z</time>
      </trkpt>
      <trkpt lat="36.506101" lon="-6.114846">
        <ele>41.008</ele>
        <time>2015-06-18T16:18:53Z</time>
      </trkpt>
      <trkpt lat="36.505987" lon="-6.114842">
        <ele>41.050</ele>
        <time>2015-06-18T16:18:56Z</time>
      </trkpt>
      <trkpt lat="36.505835" lon="-6.114848">
        <ele>41.096</ele>
        <time>2015-06-18T16:19:00Z</time>
      </trkpt>
      <trkpt lat="36.505728" lon="-6.114860">
        <ele>41.022</ele>
        <time>2015-06-18T16:19:03Z</time>
      </trkpt>
      <trkpt lat="36.505565" lon="-6.114962">
        <ele>41.071</ele>
        <time>2015-06-18T16:19:08Z</time>
      </trkpt>
      <trkpt lat="36.505492" lon="-6.115060">
        <ele>41.414</ele>
        <time>2015-06-18T16:19:11Z</time>
      </trkpt>
      <trkpt lat="36.505469" lon="-6.115094">
        <ele>41.876</ele>
        <time>2015-06-18T16:19:12Z</time>
      </trkpt>
      <trkpt lat="36.505442" lon="-6.115120">
        <ele>42.659</ele>
        <time>2015-06-18T16:19:13Z</time>
      </trkpt>
      <trkpt lat="36.505413" lon="-6.115144">
        <ele>43.023</ele>
        <time>2015-06-18T16:19:14Z</time>
      </trkpt>
      <trkpt lat="36.505271" lon="-6.115198">
        <ele>43.058</ele>
        <time>2015-06-18T16:19:18Z</time>
      </trkpt>
      <trkpt lat="36.505233" lon="-6.115199">
        <ele>43.052</ele>
        <time>2015-06-18T16:19:19Z</time>
      </trkpt>
      <trkpt lat="36.505049" lon="-6.115175">
        <ele>43.017</ele>
        <time>2015-06-18T16:19:24Z</time>
      </trkpt>
      <trkpt lat="36.504844" lon="-6.115191">
        <ele>43.008</ele>
        <time>2015-06-18T16:19:29Z</time>
      </trkpt>
      <trkpt lat="36.504762" lon="-6.115210">
        <ele>43.026</ele>
        <time>2015-06-18T16:19:31Z</time>
      </trkpt>
      <trkpt lat="36.504517" lon="-6.115274">
        <ele>43.082</ele>
        <time>2015-06-18T16:19:37Z</time>
      </trkpt>
      <trkpt lat="36.504445" lon="-6.115301">
        <ele>43.048</ele>
        <time>2015-06-18T16:19:39Z</time>
      </trkpt>
      <trkpt lat="36.504192" lon="-6.115326">
        <ele>43.027</ele>
        <time>2015-06-18T16:19:45Z</time>
      </trkpt>
      <trkpt lat="36.503956" lon="-6.115264">
        <ele>43.090</ele>
        <time>2015-06-18T16:19:50Z</time>
      </trkpt>
      <trkpt lat="36.503913" lon="-6.115255">
        <ele>43.012</ele>
        <time>2015-06-18T16:19:51Z</time>
      </trkpt>
      <trkpt lat="36.503768" lon="-6.115217">
        <ele>43.045</ele>
        <time>2015-06-18T16:19:55Z</time>
      </trkpt>
      <trkpt lat="36.503713" lon="-6.115190">
        <ele>43.049</ele>
        <time>2015-06-18T16:19:57Z</time>
      </trkpt>
      <trkpt lat="36.503657" lon="-6.115167">
        <ele>43.079</ele>
        <time>2015-06-18T16:19:59Z</time>
      </trkpt>
      <trkpt lat="36.503637" lon="-6.115136">
        <ele>43.405</ele>
        <time>2015-06-18T16:20:00Z</time>
      </trkpt>
      <trkpt lat="36.503617" lon="-6.115108">
        <ele>43.825</ele>
        <time>2015-06-18T16:20:01Z</time>
      </trkpt>
      <trkpt lat="36.503593" lon="-6.115081">
        <ele>44.608</ele>
        <time>2015-06-18T16:20:02Z</time>
      </trkpt>
      <trkpt lat="36.503566" lon="-6.115059">
        <ele>45.048</ele>
        <time>2015-06-18T16:20:03Z</time>
      </trkpt>
      <trkpt lat="36.503481" lon="-6.114973">
        <ele>45.094</ele>
        <time>2015-06-18T16:20:06Z</time>
      </trkpt>
      <trkpt lat="36.503450" lon="-6.114941">
        <ele>45.040</ele>
        <time>2015-06-18T16:20:07Z</time>
      </trkpt>
      <trkpt lat="36.503207" lon="-6.114687">
        <ele>45.049</ele>
        <time>2015-06-18T16:20:15Z</time>
      </trkpt>
      <trkpt lat="36.503087" lon="-6.114553">
        <ele>45.082</ele>
        <time>2015-06-18T16:20:20Z</time>
      </trkpt>
      <trkpt lat="36.502923" lon="-6.114384">
        <ele>45.034</ele>
        <time>2015-06-18T16:20:27Z</time>
      </trkpt>
      <trkpt lat="36.502741" lon="-6.114206">
        <ele>45.027</ele>
        <time>2015-06-18T16:20:34Z</time>
      </trkpt>
      <trkpt lat="36.502580" lon="-6.114043">
        <ele>45.071</ele>
        <time>2015-06-18T16:20:40Z</time>
      </trkpt>
      <trkpt lat="36.502404" lon="-6.113893">
        <ele>45.057</ele>
        <time>2015-06-18T16:20:46Z</time>
      </trkpt>
      <trkpt lat="36.502218" lon="-6.113764">
        <ele>45.000</ele>
        <time>2015-06-18T16:20:52Z</time>
      </trkpt>
      <trkpt lat="36.501957" lon="-6.113599">
        <ele>45.020</ele>
        <time>2015-06-18T16:20:59Z</time>
      </trkpt>
      <trkpt lat="36.501730" lon="-6.113458">
        <ele>45.008</ele>
        <time>2015-06-18T16:21:05Z</time>
      </trkpt>
      <trkpt lat="36.501688" lon="-6.113432">
        <ele>45.026</ele>
        <time>2015-06-18T16:21:06Z</time>
      </trkpt>
      <trkpt lat="36.501355" lon="-6.113248">
        <ele>45.052</ele>
        <time>2015-06-18T16:21:14Z</time>
      </trkpt>
      <trkpt lat="36.501172" lon="-6.113179">
        <ele>45.098</ele>
        <time>2015-06-18T16:21:18Z</time>
      </trkpt>
      <trkpt lat="36.501037" lon="-6.113142">
        <ele>45.087</ele>
        <time>2015-06-18T16:21:21Z</time>
      </trkpt>
      <trkpt lat="36.500770" lon="-6.113086">
        <ele>45.070</ele>
        <time>2015-06-18T16:21:27Z</time>
      </trkpt>
      <trkpt lat="36.500722" lon="-6.113086">
        <ele>45.052</ele>
        <time>2015-06-18T16:21:28Z</time>
      </trkpt>
      <trkpt lat="36.500522" lon="-6.113090">
        <ele>45.045</ele>
        <time>2015-06-18T16:21:32Z</time>
      </trkpt>
      <trkpt lat="36.500424" lon="-6.113096">
        <ele>45.059</ele>
        <time>2015-06-18T16:21:34Z</time>
      </trkpt>
      <trkpt lat="36.500137" lon="-6.113109">
        <ele>45.088</ele>
        <time>2015-06-18T16:21:40Z</time>
      </trkpt>
      <trkpt lat="36.500040" lon="-6.113100">
        <ele>45.024</ele>
        <time>2015-06-18T16:21:42Z</time>
      </trkpt>
      <trkpt lat="36.499904" lon="-6.113076">
        <ele>45.026</ele>
        <time>2015-06-18T16:21:45Z</time>
      </trkpt>
      <trkpt lat="36.499781" lon="-6.113032">
        <ele>45.008</ele>
        <time>2015-06-18T16:21:48Z</time>
      </trkpt>
      <trkpt lat="36.499649" lon="-6.112999">
        <ele>45.019</ele>
        <time>2015-06-18T16:21:51Z</time>
      </trkpt>
      <trkpt lat="36.499552" lon="-6.112964">
        <ele>45.065</ele>
        <time>2015-06-18T16:21:53Z</time>
      </trkpt>
      <trkpt lat="36.499343" lon="-6.112912">
        <ele>44.611</ele>
        <time>2015-06-18T16:21:57Z</time>
      </trkpt>
      <trkpt lat="36.499288" lon="-6.112898">
        <ele>44.210</ele>
        <time>2015-06-18T16:21:58Z</time>
      </trkpt>
      <trkpt lat="36.499234" lon="-6.112887">
        <ele>43.873</ele>
        <time>2015-06-18T16:21:59Z</time>
      </trkpt>
      <trkpt lat="36.499172" lon="-6.112880">
        <ele>43.495</ele>
        <time>2015-06-18T16:22:00Z</time>
      </trkpt>
      <trkpt lat="36.499111" lon="-6.112880">
        <ele>42.858</ele>
        <time>2015-06-18T16:22:01Z</time>
      </trkpt>
      <trkpt lat="36.499049" lon="-6.112886">
        <ele>42.252</ele>
        <time>2015-06-18T16:22:02Z</time>
      </trkpt>
      <trkpt lat="36.498987" lon="-6.112890">
        <ele>41.817</ele>
        <time>2015-06-18T16:22:03Z</time>
      </trkpt>
      <trkpt lat="36.498921" lon="-6.112894">
        <ele>41.287</ele>
        <time>2015-06-18T16:22:04Z</time>
      </trkpt>
      <trkpt lat="36.498859" lon="-6.112900">
        <ele>40.815</ele>
        <time>2015-06-18T16:22:05Z</time>
      </trkpt>
      <trkpt lat="36.498796" lon="-6.112908">
        <ele>40.408</ele>
        <time>2015-06-18T16:22:06Z</time>
      </trkpt>
      <trkpt lat="36.498733" lon="-6.112916">
        <ele>39.812</ele>
        <time>2015-06-18T16:22:07Z</time>
      </trkpt>
      <trkpt lat="36.498668" lon="-6.112929">
        <ele>39.448</ele>
        <time>2015-06-18T16:22:08Z</time>
      </trkpt>
      <trkpt lat="36.498605" lon="-6.112937">
        <ele>39.074</ele>
        <time>2015-06-18T16:22:09Z</time>
      </trkpt>
      <trkpt lat="36.498547" lon="-6.112945">
        <ele>38.673</ele>
        <time>2015-06-18T16:22:10Z</time>
      </trkpt>
      <trkpt lat="36.498489" lon="-6.112954">
        <ele>38.616</ele>
        <time>2015-06-18T16:22:11Z</time>
      </trkpt>
      <trkpt lat="36.498328" lon="-6.112979">
        <ele>38.248</ele>
        <time>2015-06-18T16:22:14Z</time>
      </trkpt>
      <trkpt lat="36.498274" lon="-6.112985">
        <ele>37.891</ele>
        <time>2015-06-18T16:22:15Z</time>
      </trkpt>
      <trkpt lat="36.498219" lon="-6.112993">
        <ele>37.475</ele>
        <time>2015-06-18T16:22:16Z</time>
      </trkpt>
      <trkpt lat="36.498164" lon="-6.113001">
        <ele>37.033</ele>
        <time>2015-06-18T16:22:17Z</time>
      </trkpt>
      <trkpt lat="36.498109" lon="-6.113002">
        <ele>36.623</ele>
        <time>2015-06-18T16:22:18Z</time>
      </trkpt>
      <trkpt lat="36.497937" lon="-6.113024">
        <ele>36.615</ele>
        <time>2015-06-18T16:22:21Z</time>
      </trkpt>
      <trkpt lat="36.497818" lon="-6.113049">
        <ele>36.608</ele>
        <time>2015-06-18T16:22:23Z</time>
      </trkpt>
      <trkpt lat="36.497757" lon="-6.113050">
        <ele>36.624</ele>
        <time>2015-06-18T16:22:24Z</time>
      </trkpt>
      <trkpt lat="36.497511" lon="-6.113089">
        <ele>36.670</ele>
        <time>2015-06-18T16:22:28Z</time>
      </trkpt>
      <trkpt lat="36.497196" lon="-6.113129">
        <ele>36.246</ele>
        <time>2015-06-18T16:22:33Z</time>
      </trkpt>
      <trkpt lat="36.497136" lon="-6.113135">
        <ele>35.875</ele>
        <time>2015-06-18T16:22:34Z</time>
      </trkpt>
      <trkpt lat="36.497075" lon="-6.113143">
        <ele>35.448</ele>
        <time>2015-06-18T16:22:35Z</time>
      </trkpt>
      <trkpt lat="36.497011" lon="-6.113150">
        <ele>35.070</ele>
        <time>2015-06-18T16:22:36Z</time>
      </trkpt>
      <trkpt lat="36.496948" lon="-6.113160">
        <ele>34.653</ele>
        <time>2015-06-18T16:22:37Z</time>
      </trkpt>
      <trkpt lat="36.496821" lon="-6.113201">
        <ele>34.667</ele>
        <time>2015-06-18T16:22:39Z</time>
      </trkpt>
      <trkpt lat="36.496648" lon="-6.113309">
        <ele>34.648</ele>
        <time>2015-06-18T16:22:42Z</time>
      </trkpt>
      <trkpt lat="36.496436" lon="-6.113487">
        <ele>34.661</ele>
        <time>2015-06-18T16:22:46Z</time>
      </trkpt>
      <trkpt lat="36.496280" lon="-6.113620">
        <ele>34.617</ele>
        <time>2015-06-18T16:22:49Z</time>
      </trkpt>
      <trkpt lat="36.496004" lon="-6.113861">
        <ele>34.608</ele>
        <time>2015-06-18T16:22:54Z</time>
      </trkpt>
      <trkpt lat="36.495893" lon="-6.113957">
        <ele>34.635</ele>
        <time>2015-06-18T16:22:56Z</time>
      </trkpt>
      <trkpt lat="36.495781" lon="-6.114053">
        <ele>34.041</ele>
        <time>2015-06-18T16:22:58Z</time>
      </trkpt>
      <trkpt lat="36.495721" lon="-6.114102">
        <ele>33.687</ele>
        <time>2015-06-18T16:22:59Z</time>
      </trkpt>
      <trkpt lat="36.495663" lon="-6.114150">
        <ele>33.216</ele>
        <time>2015-06-18T16:23:00Z</time>
      </trkpt>
      <trkpt lat="36.495603" lon="-6.114206">
        <ele>32.899</ele>
        <time>2015-06-18T16:23:01Z</time>
      </trkpt>
      <trkpt lat="36.495541" lon="-6.114260">
        <ele>32.481</ele>
        <time>2015-06-18T16:23:02Z</time>
      </trkpt>
      <trkpt lat="36.495476" lon="-6.114311">
        <ele>32.484</ele>
        <time>2015-06-18T16:23:03Z</time>
      </trkpt>
      <trkpt lat="36.495354" lon="-6.114416">
        <ele>32.028</ele>
        <time>2015-06-18T16:23:05Z</time>
      </trkpt>
      <trkpt lat="36.495296" lon="-6.114465">
        <ele>31.635</ele>
        <time>2015-06-18T16:23:06Z</time>
      </trkpt>
      <trkpt lat="36.495233" lon="-6.114506">
        <ele>31.286</ele>
        <time>2015-06-18T16:23:07Z</time>
      </trkpt>
      <trkpt lat="36.495170" lon="-6.114547">
        <ele>30.814</ele>
        <time>2015-06-18T16:23:08Z</time>
      </trkpt>
      <trkpt lat="36.495114" lon="-6.114588">
        <ele>30.408</ele>
        <time>2015-06-18T16:23:09Z</time>
      </trkpt>
      <trkpt lat="36.494954" lon="-6.114703">
        <ele>30.474</ele>
        <time>2015-06-18T16:23:12Z</time>
      </trkpt>
      <trkpt lat="36.494811" lon="-6.114819">
        <ele>30.460</ele>
        <time>2015-06-18T16:23:15Z</time>
      </trkpt>
      <trkpt lat="36.494565" lon="-6.114953">
        <ele>30.436</ele>
        <time>2015-06-18T16:23:20Z</time>
      </trkpt>
      <trkpt lat="36.494519" lon="-6.114988">
        <ele>30.485</ele>
        <time>2015-06-18T16:23:21Z</time>
      </trkpt>
      <trkpt lat="36.494480" lon="-6.115020">
        <ele>30.498</ele>
        <time>2015-06-18T16:23:22Z</time>
      </trkpt>
      <trkpt lat="36.494383" lon="-6.115093">
        <ele>30.080</ele>
        <time>2015-06-18T16:23:24Z</time>
      </trkpt>
      <trkpt lat="36.494331" lon="-6.115135">
        <ele>29.623</ele>
        <time>2015-06-18T16:23:25Z</time>
      </trkpt>
      <trkpt lat="36.494276" lon="-6.115176">
        <ele>29.257</ele>
        <time>2015-06-18T16:23:26Z</time>
      </trkpt>
      <trkpt lat="36.494221" lon="-6.115215">
        <ele>28.825</ele>
        <time>2015-06-18T16:23:27Z</time>
      </trkpt>
      <trkpt lat="36.494165" lon="-6.115252">
        <ele>28.426</ele>
        <time>2015-06-18T16:23:28Z</time>
      </trkpt>
      <trkpt lat="36.493896" lon="-6.115427">
        <ele>28.408</ele>
        <time>2015-06-18T16:23:33Z</time>
      </trkpt>
      <trkpt lat="36.493666" lon="-6.115595">
        <ele>28.408</ele>
        <time>2015-06-18T16:23:38Z</time>
      </trkpt>
      <trkpt lat="36.493576" lon="-6.115622">
        <ele>28.423</ele>
        <time>2015-06-18T16:23:40Z</time>
      </trkpt>
      <trkpt lat="36.493541" lon="-6.115640">
        <ele>28.059</ele>
        <time>2015-06-18T16:23:41Z</time>
      </trkpt>
      <trkpt lat="36.493510" lon="-6.115663">
        <ele>27.625</ele>
        <time>2015-06-18T16:23:42Z</time>
      </trkpt>
      <trkpt lat="36.493482" lon="-6.115686">
        <ele>27.284</ele>
        <time>2015-06-18T16:23:43Z</time>
      </trkpt>
      <trkpt lat="36.493450" lon="-6.115713">
        <ele>26.857</ele>
        <time>2015-06-18T16:23:44Z</time>
      </trkpt>
      <trkpt lat="36.493416" lon="-6.115747">
        <ele>26.479</ele>
        <time>2015-06-18T16:23:45Z</time>
      </trkpt>
      <trkpt lat="36.493298" lon="-6.115839">
        <ele>26.422</ele>
        <time>2015-06-18T16:23:48Z</time>
      </trkpt>
      <trkpt lat="36.493260" lon="-6.115869">
        <ele>26.436</ele>
        <time>2015-06-18T16:23:49Z</time>
      </trkpt>
      <trkpt lat="36.492974" lon="-6.116074">
        <ele>26.493</ele>
        <time>2015-06-18T16:23:56Z</time>
      </trkpt>
      <trkpt lat="36.492886" lon="-6.116131">
        <ele>26.065</ele>
        <time>2015-06-18T16:23:58Z</time>
      </trkpt>
      <trkpt lat="36.492843" lon="-6.116159">
        <ele>25.621</ele>
        <time>2015-06-18T16:23:59Z</time>
      </trkpt>
      <trkpt lat="36.492799" lon="-6.116182">
        <ele>25.008</ele>
        <time>2015-06-18T16:24:00Z</time>
      </trkpt>
      <trkpt lat="36.492761" lon="-6.116189">
        <ele>24.670</ele>
        <time>2015-06-18T16:24:01Z</time>
      </trkpt>
      <trkpt lat="36.492730" lon="-6.116203">
        <ele>24.226</ele>
        <time>2015-06-18T16:24:02Z</time>
      </trkpt>
      <trkpt lat="36.492713" lon="-6.116301">
        <ele>24.252</ele>
        <time>2015-06-18T16:24:05Z</time>
      </trkpt>
      <trkpt lat="36.492656" lon="-6.116406">
        <ele>24.221</ele>
        <time>2015-06-18T16:24:08Z</time>
      </trkpt>
      <trkpt lat="36.492620" lon="-6.116426">
        <ele>24.244</ele>
        <time>2015-06-18T16:24:09Z</time>
      </trkpt>
      <trkpt lat="36.492584" lon="-6.116451">
        <ele>24.296</ele>
        <time>2015-06-18T16:24:10Z</time>
      </trkpt>
      <trkpt lat="36.492379" lon="-6.116600">
        <ele>24.219</ele>
        <time>2015-06-18T16:24:15Z</time>
      </trkpt>
      <trkpt lat="36.492287" lon="-6.116666">
        <ele>23.873</ele>
        <time>2015-06-18T16:24:17Z</time>
      </trkpt>
      <trkpt lat="36.492238" lon="-6.116694">
        <ele>23.421</ele>
        <time>2015-06-18T16:24:18Z</time>
      </trkpt>
      <trkpt lat="36.492191" lon="-6.116729">
        <ele>23.041</ele>
        <time>2015-06-18T16:24:19Z</time>
      </trkpt>
      <trkpt lat="36.492144" lon="-6.116766">
        <ele>22.605</ele>
        <time>2015-06-18T16:24:20Z</time>
      </trkpt>
      <trkpt lat="36.492095" lon="-6.116802">
        <ele>22.208</ele>
        <time>2015-06-18T16:24:21Z</time>
      </trkpt>
      <trkpt lat="36.492046" lon="-6.116837">
        <ele>22.263</ele>
        <time>2015-06-18T16:24:22Z</time>
      </trkpt>
      <trkpt lat="36.491710" lon="-6.117078">
        <ele>22.219</ele>
        <time>2015-06-18T16:24:29Z</time>
      </trkpt>
      <trkpt lat="36.491431" lon="-6.117276">
        <ele>21.895</ele>
        <time>2015-06-18T16:24:35Z</time>
      </trkpt>
      <trkpt lat="36.491382" lon="-6.117304">
        <ele>21.444</ele>
        <time>2015-06-18T16:24:36Z</time>
      </trkpt>
      <trkpt lat="36.491333" lon="-6.117335">
        <ele>21.027</ele>
        <time>2015-06-18T16:24:37Z</time>
      </trkpt>
      <trkpt lat="36.491289" lon="-6.117372">
        <ele>20.439</ele>
        <time>2015-06-18T16:24:38Z</time>
      </trkpt>
      <trkpt lat="36.491243" lon="-6.117406">
        <ele>20.092</ele>
        <time>2015-06-18T16:24:39Z</time>
      </trkpt>
      <trkpt lat="36.491048" lon="-6.117540">
        <ele>20.016</ele>
        <time>2015-06-18T16:24:43Z</time>
      </trkpt>
      <trkpt lat="36.490831" lon="-6.117660">
        <ele>20.051</ele>
        <time>2015-06-18T16:24:47Z</time>
      </trkpt>
      <trkpt lat="36.490699" lon="-6.117696">
        <ele>20.001</ele>
        <time>2015-06-18T16:24:49Z</time>
      </trkpt>
      <trkpt lat="36.490566" lon="-6.117712">
        <ele>20.011</ele>
        <time>2015-06-18T16:24:51Z</time>
      </trkpt>
      <trkpt lat="36.490499" lon="-6.117710">
        <ele>19.608</ele>
        <time>2015-06-18T16:24:52Z</time>
      </trkpt>
      <trkpt lat="36.490430" lon="-6.117707">
        <ele>19.286</ele>
        <time>2015-06-18T16:24:53Z</time>
      </trkpt>
      <trkpt lat="36.490359" lon="-6.117707">
        <ele>18.892</ele>
        <time>2015-06-18T16:24:54Z</time>
      </trkpt>
      <trkpt lat="36.490284" lon="-6.117705">
        <ele>18.418</ele>
        <time>2015-06-18T16:24:55Z</time>
      </trkpt>
      <trkpt lat="36.490213" lon="-6.117705">
        <ele>18.077</ele>
        <time>2015-06-18T16:24:56Z</time>
      </trkpt>
      <trkpt lat="36.489861" lon="-6.117701">
        <ele>18.070</ele>
        <time>2015-06-18T16:25:01Z</time>
      </trkpt>
      <trkpt lat="36.489796" lon="-6.117697">
        <ele>18.022</ele>
        <time>2015-06-18T16:25:02Z</time>
      </trkpt>
      <trkpt lat="36.489665" lon="-6.117701">
        <ele>17.665</ele>
        <time>2015-06-18T16:25:04Z</time>
      </trkpt>
      <trkpt lat="36.489603" lon="-6.117700">
        <ele>17.279</ele>
        <time>2015-06-18T16:25:05Z</time>
      </trkpt>
      <trkpt lat="36.489539" lon="-6.117700">
        <ele>16.841</ele>
        <time>2015-06-18T16:25:06Z</time>
      </trkpt>
      <trkpt lat="36.489475" lon="-6.117695">
        <ele>16.481</ele>
        <time>2015-06-18T16:25:07Z</time>
      </trkpt>
      <trkpt lat="36.489410" lon="-6.117695">
        <ele>15.809</ele>
        <time>2015-06-18T16:25:08Z</time>
      </trkpt>
      <trkpt lat="36.489217" lon="-6.117693">
        <ele>15.808</ele>
        <time>2015-06-18T16:25:11Z</time>
      </trkpt>
      <trkpt lat="36.489041" lon="-6.117689">
        <ele>15.845</ele>
        <time>2015-06-18T16:25:14Z</time>
      </trkpt>
      <trkpt lat="36.488992" lon="-6.117674">
        <ele>15.871</ele>
        <time>2015-06-18T16:25:15Z</time>
      </trkpt>
      <trkpt lat="36.488826" lon="-6.117660">
        <ele>15.857</ele>
        <time>2015-06-18T16:25:18Z</time>
      </trkpt>
      <trkpt lat="36.488662" lon="-6.117640">
        <ele>15.866</ele>
        <time>2015-06-18T16:25:21Z</time>
      </trkpt>
      <trkpt lat="36.488551" lon="-6.117614">
        <ele>15.849</ele>
        <time>2015-06-18T16:25:23Z</time>
      </trkpt>
      <trkpt lat="36.488219" lon="-6.117528">
        <ele>15.851</ele>
        <time>2015-06-18T16:25:29Z</time>
      </trkpt>
      <trkpt lat="36.488168" lon="-6.117500">
        <ele>15.884</ele>
        <time>2015-06-18T16:25:30Z</time>
      </trkpt>
      <trkpt lat="36.488000" lon="-6.117473">
        <ele>15.858</ele>
        <time>2015-06-18T16:25:33Z</time>
      </trkpt>
      <trkpt lat="36.487816" lon="-6.117428">
        <ele>15.487</ele>
        <time>2015-06-18T16:25:36Z</time>
      </trkpt>
      <trkpt lat="36.487755" lon="-6.117410">
        <ele>15.042</ele>
        <time>2015-06-18T16:25:37Z</time>
      </trkpt>
      <trkpt lat="36.487691" lon="-6.117394">
        <ele>14.626</ele>
        <time>2015-06-18T16:25:38Z</time>
      </trkpt>
      <trkpt lat="36.487631" lon="-6.117374">
        <ele>14.208</ele>
        <time>2015-06-18T16:25:39Z</time>
      </trkpt>
      <trkpt lat="36.487577" lon="-6.117341">
        <ele>13.899</ele>
        <time>2015-06-18T16:25:40Z</time>
      </trkpt>
      <trkpt lat="36.487414" lon="-6.117245">
        <ele>13.845</ele>
        <time>2015-06-18T16:25:43Z</time>
      </trkpt>
      <trkpt lat="36.487365" lon="-6.117211">
        <ele>13.851</ele>
        <time>2015-06-18T16:25:44Z</time>
      </trkpt>
      <trkpt lat="36.487311" lon="-6.117197">
        <ele>13.890</ele>
        <time>2015-06-18T16:25:45Z</time>
      </trkpt>
      <trkpt lat="36.487213" lon="-6.117148">
        <ele>13.873</ele>
        <time>2015-06-18T16:25:47Z</time>
      </trkpt>
      <trkpt lat="36.487175" lon="-6.117110">
        <ele>13.815</ele>
        <time>2015-06-18T16:25:48Z</time>
      </trkpt>
      <trkpt lat="36.487070" lon="-6.117000">
        <ele>13.878</ele>
        <time>2015-06-18T16:25:51Z</time>
      </trkpt>
      <trkpt lat="36.486970" lon="-6.116910">
        <ele>13.872</ele>
        <time>2015-06-18T16:25:54Z</time>
      </trkpt>
      <trkpt lat="36.486924" lon="-6.116897">
        <ele>13.833</ele>
        <time>2015-06-18T16:25:55Z</time>
      </trkpt>
      <trkpt lat="36.486833" lon="-6.116853">
        <ele>13.823</ele>
        <time>2015-06-18T16:25:57Z</time>
      </trkpt>
      <trkpt lat="36.486750" lon="-6.116781">
        <ele>13.415</ele>
        <time>2015-06-18T16:25:59Z</time>
      </trkpt>
      <trkpt lat="36.486701" lon="-6.116760">
        <ele>12.808</ele>
        <time>2015-06-18T16:26:00Z</time>
      </trkpt>
      <trkpt lat="36.486652" lon="-6.116734">
        <ele>12.474</ele>
        <time>2015-06-18T16:26:01Z</time>
      </trkpt>
      <trkpt lat="36.486601" lon="-6.116709">
        <ele>12.020</ele>
        <time>2015-06-18T16:26:02Z</time>
      </trkpt>
      <trkpt lat="36.486549" lon="-6.116681">
        <ele>11.666</ele>
        <time>2015-06-18T16:26:03Z</time>
      </trkpt>
      <trkpt lat="36.486393" lon="-6.116609">
        <ele>11.615</ele>
        <time>2015-06-18T16:26:06Z</time>
      </trkpt>
      <trkpt lat="36.486149" lon="-6.116489">
        <ele>11.678</ele>
        <time>2015-06-18T16:26:11Z</time>
      </trkpt>
      <trkpt lat="36.485973" lon="-6.116413">
        <ele>11.680</ele>
        <time>2015-06-18T16:26:15Z</time>
      </trkpt>
      <trkpt lat="36.485895" lon="-6.116397">
        <ele>11.623</ele>
        <time>2015-06-18T16:26:17Z</time>
      </trkpt>
      <trkpt lat="36.485774" lon="-6.116406">
        <ele>11.697</ele>
        <time>2015-06-18T16:26:21Z</time>
      </trkpt>
      <trkpt lat="36.485574" lon="-6.116474">
        <ele>11.275</ele>
        <time>2015-06-18T16:26:26Z</time>
      </trkpt>
      <trkpt lat="36.485517" lon="-6.116483">
        <ele>10.828</ele>
        <time>2015-06-18T16:26:27Z</time>
      </trkpt>
      <trkpt lat="36.485473" lon="-6.116462">
        <ele>10.420</ele>
        <time>2015-06-18T16:26:28Z</time>
      </trkpt>
      <trkpt lat="36.485435" lon="-6.116436">
        <ele>10.008</ele>
        <time>2015-06-18T16:26:29Z</time>
      </trkpt>
      <trkpt lat="36.485396" lon="-6.116408">
        <ele>9.698</ele>
        <time>2015-06-18T16:26:30Z</time>
      </trkpt>
      <trkpt lat="36.485302" lon="-6.116362">
        <ele>9.634</ele>
        <time>2015-06-18T16:26:32Z</time>
      </trkpt>
      <trkpt lat="36.485110" lon="-6.116253">
        <ele>9.670</ele>
        <time>2015-06-18T16:26:36Z</time>
      </trkpt>
      <trkpt lat="36.485054" lon="-6.116234">
        <ele>9.699</ele>
        <time>2015-06-18T16:26:37Z</time>
      </trkpt>
      <trkpt lat="36.484881" lon="-6.116266">
        <ele>9.642</ele>
        <time>2015-06-18T16:26:40Z</time>
      </trkpt>
      <trkpt lat="36.484761" lon="-6.116327">
        <ele>9.654</ele>
        <time>2015-06-18T16:26:42Z</time>
      </trkpt>
      <trkpt lat="36.484707" lon="-6.116354">
        <ele>9.287</ele>
        <time>2015-06-18T16:26:43Z</time>
      </trkpt>
      <trkpt lat="36.484646" lon="-6.116379">
        <ele>8.621</ele>
        <time>2015-06-18T16:26:44Z</time>
      </trkpt>
      <trkpt lat="36.484589" lon="-6.116405">
        <ele>8.291</ele>
        <time>2015-06-18T16:26:45Z</time>
      </trkpt>
      <trkpt lat="36.484537" lon="-6.116433">
        <ele>7.881</ele>
        <time>2015-06-18T16:26:46Z</time>
      </trkpt>
      <trkpt lat="36.484495" lon="-6.116457">
        <ele>7.419</ele>
        <time>2015-06-18T16:26:47Z</time>
      </trkpt>
      <trkpt lat="36.484435" lon="-6.116485">
        <ele>7.408</ele>
        <time>2015-06-18T16:26:49Z</time>
      </trkpt>
      <trkpt lat="36.484339" lon="-6.116552">
        <ele>7.430</ele>
        <time>2015-06-18T16:26:54Z</time>
      </trkpt>
      <trkpt lat="36.484324" lon="-6.116554">
        <ele>7.436</ele>
        <time>2015-06-18T16:26:58Z</time>
      </trkpt>
      <trkpt lat="36.484332" lon="-6.116549">
        <ele>7.432</ele>
        <time>2015-06-18T16:27:01Z</time>
      </trkpt>
      <trkpt lat="36.484322" lon="-6.116549">
        <ele>7.481</ele>
        <time>2015-06-18T16:27:03Z</time>
      </trkpt>
      <trkpt lat="36.484340" lon="-6.116530">
        <ele>7.444</ele>
        <time>2015-06-18T16:27:10Z</time>
      </trkpt>
      <trkpt lat="36.484391" lon="-6.116500">
        <ele>7.436</ele>
        <time>2015-06-18T16:27:15Z</time>
      </trkpt>
      <trkpt lat="36.484452" lon="-6.116464">
        <ele>7.439</ele>
        <time>2015-06-18T16:27:18Z</time>
      </trkpt>
      <trkpt lat="36.484520" lon="-6.116441">
        <ele>7.413</ele>
        <time>2015-06-18T16:27:21Z</time>
      </trkpt>
      <trkpt lat="36.484601" lon="-6.116394">
        <ele>7.443</ele>
        <time>2015-06-18T16:27:25Z</time>
      </trkpt>
      <trkpt lat="36.484599" lon="-6.116377">
        <ele>7.464</ele>
        <time>2015-06-18T16:27:26Z</time>
      </trkpt>
      <trkpt lat="36.484555" lon="-6.116330">
        <ele>7.410</ele>
        <time>2015-06-18T16:27:31Z</time>
      </trkpt>
      <trkpt lat="36.484507" lon="-6.116353">
        <ele>7.408</ele>
        <time>2015-06-18T16:27:34Z</time>
      </trkpt>
      <trkpt lat="36.484465" lon="-6.116375">
        <ele>7.475</ele>
        <time>2015-06-18T16:27:36Z</time>
      </trkpt>
      <trkpt lat="36.484397" lon="-6.116407">
        <ele>7.491</ele>
        <time>2015-06-18T16:27:38Z</time>
      </trkpt>
      <trkpt lat="36.484290" lon="-6.116452">
        <ele>7.437</ele>
        <time>2015-06-18T16:27:41Z</time>
      </trkpt>
      <trkpt lat="36.484214" lon="-6.116489">
        <ele>7.466</ele>
        <time>2015-06-18T16:27:43Z</time>
      </trkpt>
      <trkpt lat="36.484025" lon="-6.116572">
        <ele>7.459</ele>
        <time>2015-06-18T16:27:48Z</time>
      </trkpt>
      <trkpt lat="36.483905" lon="-6.116616">
        <ele>7.411</ele>
        <time>2015-06-18T16:27:51Z</time>
      </trkpt>
      <trkpt lat="36.483663" lon="-6.116680">
        <ele>7.444</ele>
        <time>2015-06-18T16:27:58Z</time>
      </trkpt>
      <trkpt lat="36.483526" lon="-6.116710">
        <ele>7.818</ele>
        <time>2015-06-18T16:28:02Z</time>
      </trkpt>
      <trkpt lat="36.483492" lon="-6.116718">
        <ele>8.295</ele>
        <time>2015-06-18T16:28:03Z</time>
      </trkpt>
      <trkpt lat="36.483461" lon="-6.116724">
        <ele>8.649</ele>
        <time>2015-06-18T16:28:04Z</time>
      </trkpt>
      <trkpt lat="36.483426" lon="-6.116727">
        <ele>9.023</ele>
        <time>2015-06-18T16:28:05Z</time>
      </trkpt>
      <trkpt lat="36.483395" lon="-6.116734">
        <ele>9.408</ele>
        <time>2015-06-18T16:28:06Z</time>
      </trkpt>
      <trkpt lat="36.483215" lon="-6.116770">
        <ele>9.490</ele>
        <time>2015-06-18T16:28:11Z</time>
      </trkpt>
      <trkpt lat="36.482943" lon="-6.116813">
        <ele>9.496</ele>
        <time>2015-06-18T16:28:18Z</time>
      </trkpt>
      <trkpt lat="36.482660" lon="-6.116874">
        <ele>9.462</ele>
        <time>2015-06-18T16:28:25Z</time>
      </trkpt>
      <trkpt lat="36.482619" lon="-6.116874">
        <ele>9.411</ele>
        <time>2015-06-18T16:28:26Z</time>
      </trkpt>
      <trkpt lat="36.482541" lon="-6.116891">
        <ele>9.064</ele>
        <time>2015-06-18T16:28:28Z</time>
      </trkpt>
      <trkpt lat="36.482503" lon="-6.116896">
        <ele>8.626</ele>
        <time>2015-06-18T16:28:29Z</time>
      </trkpt>
      <trkpt lat="36.482465" lon="-6.116901">
        <ele>8.239</ele>
        <time>2015-06-18T16:28:30Z</time>
      </trkpt>
      <trkpt lat="36.482428" lon="-6.116911">
        <ele>7.863</ele>
        <time>2015-06-18T16:28:31Z</time>
      </trkpt>
      <trkpt lat="36.482389" lon="-6.116916">
        <ele>7.428</ele>
        <time>2015-06-18T16:28:32Z</time>
      </trkpt>
      <trkpt lat="36.482006" lon="-6.116984">
        <ele>7.489</ele>
        <time>2015-06-18T16:28:42Z</time>
      </trkpt>
      <trkpt lat="36.481732" lon="-6.117034">
        <ele>7.417</ele>
        <time>2015-06-18T16:28:50Z</time>
      </trkpt>
      <trkpt lat="36.481498" lon="-6.117072">
        <ele>7.408</ele>
        <time>2015-06-18T16:28:57Z</time>
      </trkpt>
      <trkpt lat="36.481467" lon="-6.117076">
        <ele>7.813</ele>
        <time>2015-06-18T16:28:58Z</time>
      </trkpt>
      <trkpt lat="36.481436" lon="-6.117075">
        <ele>8.289</ele>
        <time>2015-06-18T16:28:59Z</time>
      </trkpt>
      <trkpt lat="36.481407" lon="-6.117078">
        <ele>8.845</ele>
        <time>2015-06-18T16:29:00Z</time>
      </trkpt>
      <trkpt lat="36.481379" lon="-6.117076">
        <ele>9.264</ele>
        <time>2015-06-18T16:29:01Z</time>
      </trkpt>
      <trkpt lat="36.481353" lon="-6.117079">
        <ele>9.687</ele>
        <time>2015-06-18T16:29:02Z</time>
      </trkpt>
      <trkpt lat="36.481272" lon="-6.117080">
        <ele>9.699</ele>
        <time>2015-06-18T16:29:05Z</time>
      </trkpt>
      <trkpt lat="36.481149" lon="-6.117084">
        <ele>9.682</ele>
        <time>2015-06-18T16:29:10Z</time>
      </trkpt>
      <trkpt lat="36.480985" lon="-6.117069">
        <ele>10.016</ele>
        <time>2015-06-18T16:29:16Z</time>
      </trkpt>
      <trkpt lat="36.480958" lon="-6.117072">
        <ele>10.699</ele>
        <time>2015-06-18T16:29:17Z</time>
      </trkpt>
      <trkpt lat="36.480933" lon="-6.117072">
        <ele>11.007</ele>
        <time>2015-06-18T16:29:18Z</time>
      </trkpt>
      <trkpt lat="36.480907" lon="-6.117070">
        <ele>11.627</ele>
        <time>2015-06-18T16:29:19Z</time>
      </trkpt>
      <trkpt lat="36.480880" lon="-6.117070">
        <ele>12.008</ele>
        <time>2015-06-18T16:29:20Z</time>
      </trkpt>
      <trkpt lat="36.480717" lon="-6.117058">
        <ele>12.010</ele>
        <time>2015-06-18T16:29:26Z</time>
      </trkpt>
      <trkpt lat="36.480465" lon="-6.117046">
        <ele>12.016</ele>
        <time>2015-06-18T16:29:35Z</time>
      </trkpt>
      <trkpt lat="36.480435" lon="-6.117048">
        <ele>12.052</ele>
        <time>2015-06-18T16:29:36Z</time>
      </trkpt>
      <trkpt lat="36.480221" lon="-6.117038">
        <ele>12.061</ele>
        <time>2015-06-18T16:29:43Z</time>
      </trkpt>
      <trkpt lat="36.479968" lon="-6.117028">
        <ele>12.044</ele>
        <time>2015-06-18T16:29:51Z</time>
      </trkpt>
      <trkpt lat="36.479686" lon="-6.117022">
        <ele>12.026</ele>
        <time>2015-06-18T16:30:00Z</time>
      </trkpt>
      <trkpt lat="36.479457" lon="-6.117016">
        <ele>12.439</ele>
        <time>2015-06-18T16:30:07Z</time>
      </trkpt>
      <trkpt lat="36.479427" lon="-6.117016">
        <ele>12.873</ele>
        <time>2015-06-18T16:30:08Z</time>
      </trkpt>
      <trkpt lat="36.479393" lon="-6.117017">
        <ele>13.221</ele>
        <time>2015-06-18T16:30:09Z</time>
      </trkpt>
      <trkpt lat="36.479359" lon="-6.117012">
        <ele>13.641</ele>
        <time>2015-06-18T16:30:10Z</time>
      </trkpt>
      <trkpt lat="36.479322" lon="-6.117012">
        <ele>14.005</ele>
        <time>2015-06-18T16:30:11Z</time>
      </trkpt>
      <trkpt lat="36.479109" lon="-6.117009">
        <ele>14.008</ele>
        <time>2015-06-18T16:30:17Z</time>
      </trkpt>
      <trkpt lat="36.478817" lon="-6.117003">
        <ele>14.033</ele>
        <time>2015-06-18T16:30:25Z</time>
      </trkpt>
      <trkpt lat="36.478508" lon="-6.116988">
        <ele>14.099</ele>
        <time>2015-06-18T16:30:34Z</time>
      </trkpt>
      <trkpt lat="36.478268" lon="-6.116977">
        <ele>14.475</ele>
        <time>2015-06-18T16:30:41Z</time>
      </trkpt>
      <trkpt lat="36.478237" lon="-6.116979">
        <ele>14.814</ele>
        <time>2015-06-18T16:30:42Z</time>
      </trkpt>
      <trkpt lat="36.478206" lon="-6.116981">
        <ele>15.257</ele>
        <time>2015-06-18T16:30:43Z</time>
      </trkpt>
      <trkpt lat="36.478176" lon="-6.116989">
        <ele>15.629</ele>
        <time>2015-06-18T16:30:44Z</time>
      </trkpt>
      <trkpt lat="36.478144" lon="-6.116986">
        <ele>16.092</ele>
        <time>2015-06-18T16:30:45Z</time>
      </trkpt>
      <trkpt lat="36.478057" lon="-6.116961">
        <ele>16.056</ele>
        <time>2015-06-18T16:30:48Z</time>
      </trkpt>
      <trkpt lat="36.477953" lon="-6.116924">
        <ele>16.026</ele>
        <time>2015-06-18T16:30:52Z</time>
      </trkpt>
      <trkpt lat="36.477928" lon="-6.116928">
        <ele>16.047</ele>
        <time>2015-06-18T16:30:53Z</time>
      </trkpt>
      <trkpt lat="36.477843" lon="-6.116923">
        <ele>16.011</ele>
        <time>2015-06-18T16:30:58Z</time>
      </trkpt>
      <trkpt lat="36.477824" lon="-6.116938">
        <ele>16.008</ele>
        <time>2015-06-18T16:30:59Z</time>
      </trkpt>
      <trkpt lat="36.477753" lon="-6.117003">
        <ele>16.053</ele>
        <time>2015-06-18T16:31:02Z</time>
      </trkpt>
      <trkpt lat="36.477654" lon="-6.117023">
        <ele>16.019</ele>
        <time>2015-06-18T16:31:05Z</time>
      </trkpt>
      <trkpt lat="36.477591" lon="-6.117038">
        <ele>16.045</ele>
        <time>2015-06-18T16:31:07Z</time>
      </trkpt>
      <trkpt lat="36.477364" lon="-6.117097">
        <ele>16.024</ele>
        <time>2015-06-18T16:31:14Z</time>
      </trkpt>
      <trkpt lat="36.477034" lon="-6.117193">
        <ele>16.067</ele>
        <time>2015-06-18T16:31:23Z</time>
      </trkpt>
      <trkpt lat="36.476671" lon="-6.117286">
        <ele>16.079</ele>
        <time>2015-06-18T16:31:33Z</time>
      </trkpt>
      <trkpt lat="36.476518" lon="-6.117261">
        <ele>16.082</ele>
        <time>2015-06-18T16:31:38Z</time>
      </trkpt>
      <trkpt lat="36.476501" lon="-6.117223">
        <ele>16.096</ele>
        <time>2015-06-18T16:31:39Z</time>
      </trkpt>
      <trkpt lat="36.476475" lon="-6.117130">
        <ele>16.041</ele>
        <time>2015-06-18T16:31:42Z</time>
      </trkpt>
      <trkpt lat="36.476464" lon="-6.117060">
        <ele>16.081</ele>
        <time>2015-06-18T16:31:44Z</time>
      </trkpt>
      <trkpt lat="36.476435" lon="-6.116858">
        <ele>16.009</ele>
        <time>2015-06-18T16:31:49Z</time>
      </trkpt>
      <trkpt lat="36.476403" lon="-6.116672">
        <ele>16.408</ele>
        <time>2015-06-18T16:31:53Z</time>
      </trkpt>
      <trkpt lat="36.476395" lon="-6.116631">
        <ele>17.025</ele>
        <time>2015-06-18T16:31:54Z</time>
      </trkpt>
      <trkpt lat="36.476385" lon="-6.116584">
        <ele>17.481</ele>
        <time>2015-06-18T16:31:55Z</time>
      </trkpt>
      <trkpt lat="36.476371" lon="-6.116545">
        <ele>17.867</ele>
        <time>2015-06-18T16:31:56Z</time>
      </trkpt>
      <trkpt lat="36.476349" lon="-6.116514">
        <ele>18.256</ele>
        <time>2015-06-18T16:31:57Z</time>
      </trkpt>
      <trkpt lat="36.476332" lon="-6.116476">
        <ele>18.229</ele>
        <time>2015-06-18T16:31:59Z</time>
      </trkpt>
      <trkpt lat="36.476329" lon="-6.116471">
        <ele>18.261</ele>
        <time>2015-06-18T16:32:04Z</time>
      </trkpt>
      <trkpt lat="36.476329" lon="-6.116471">
        <ele>18.244</ele>
        <time>2015-06-18T16:32:11Z</time>
      </trkpt>
      <trkpt lat="36.476329" lon="-6.116471">
        <ele>18.248</ele>
        <time>2015-06-18T16:32:23Z</time>
      </trkpt>
      <trkpt lat="36.476329" lon="-6.116471">
        <ele>18.211</ele>
        <time>2015-06-18T16:32:25Z</time>
      </trkpt>
      <trkpt lat="36.476329" lon="-6.116471">
        <ele>18.221</ele>
        <time>2015-06-18T16:32:32Z</time>
      </trkpt>
      <trkpt lat="36.476329" lon="-6.116471">
        <ele>18.203</ele>
        <time>2015-06-18T16:32:35Z</time>
      </trkpt>
      <trkpt lat="36.476330" lon="-6.116471">
        <ele>18.208</ele>
        <time>2015-06-18T16:32:41Z</time>
      </trkpt>
      <trkpt lat="36.476330" lon="-6.116471">
        <ele>18.252</ele>
        <time>2015-06-18T16:32:43Z</time>
      </trkpt>
      <trkpt lat="36.476330" lon="-6.116471">
        <ele>18.298</ele>
        <time>2015-06-18T16:32:46Z</time>
      </trkpt>
      <trkpt lat="36.476330" lon="-6.116471">
        <ele>18.274</ele>
        <time>2015-06-18T16:32:51Z</time>
      </trkpt>
      <trkpt lat="36.476330" lon="-6.116471">
        <ele>18.253</ele>
        <time>2015-06-18T16:32:53Z</time>
      </trkpt>
      <trkpt lat="36.476330" lon="-6.116471">
        <ele>18.296</ele>
        <time>2015-06-18T16:32:59Z</time>
      </trkpt>
      <trkpt lat="36.476330" lon="-6.116471">
        <ele>18.268</ele>
        <time>2015-06-18T16:33:08Z</time>
      </trkpt>
      <trkpt lat="36.476330" lon="-6.116471">
        <ele>18.241</ele>
        <time>2015-06-18T16:33:14Z</time>
      </trkpt>
      <trkpt lat="36.476330" lon="-6.116471">
        <ele>18.275</ele>
        <time>2015-06-18T16:33:16Z</time>
      </trkpt>
      <trkpt lat="36.476335" lon="-6.116470">
        <ele>18.222</ele>
        <time>2015-06-18T16:33:18Z</time>
      </trkpt>
      <trkpt lat="36.476335" lon="-6.116470">
        <ele>18.262</ele>
        <time>2015-06-18T16:33:21Z</time>
      </trkpt>
      <trkpt lat="36.476340" lon="-6.116416">
        <ele>18.208</ele>
        <time>2015-06-18T16:33:24Z</time>
      </trkpt>
      <trkpt lat="36.476329" lon="-6.116340">
        <ele>18.208</ele>
        <time>2015-06-18T16:33:27Z</time>
      </trkpt>
      <trkpt lat="36.476319" lon="-6.116276">
        <ele>18.243</ele>
        <time>2015-06-18T16:33:29Z</time>
      </trkpt>
      <trkpt lat="36.476314" lon="-6.116244">
        <ele>18.239</ele>
        <time>2015-06-18T16:33:30Z</time>
      </trkpt>
      <trkpt lat="36.476279" lon="-6.116001">
        <ele>18.215</ele>
        <time>2015-06-18T16:33:37Z</time>
      </trkpt>
      <trkpt lat="36.476263" lon="-6.115887">
        <ele>18.294</ele>
        <time>2015-06-18T16:33:40Z</time>
      </trkpt>
      <trkpt lat="36.476248" lon="-6.115780">
        <ele>18.267</ele>
        <time>2015-06-18T16:33:43Z</time>
      </trkpt>
      <trkpt lat="36.476245" lon="-6.115744">
        <ele>18.239</ele>
        <time>2015-06-18T16:33:44Z</time>
      </trkpt>
      <trkpt lat="36.476235" lon="-6.115672">
        <ele>18.252</ele>
        <time>2015-06-18T16:33:46Z</time>
      </trkpt>
      <trkpt lat="36.476213" lon="-6.115569">
        <ele>18.676</ele>
        <time>2015-06-18T16:33:49Z</time>
      </trkpt>
      <trkpt lat="36.476208" lon="-6.115532">
        <ele>19.241</ele>
        <time>2015-06-18T16:33:50Z</time>
      </trkpt>
      <trkpt lat="36.476204" lon="-6.115495">
        <ele>19.681</ele>
        <time>2015-06-18T16:33:51Z</time>
      </trkpt>
      <trkpt lat="36.476200" lon="-6.115457">
        <ele>20.009</ele>
        <time>2015-06-18T16:33:52Z</time>
      </trkpt>
      <trkpt lat="36.476194" lon="-6.115421">
        <ele>20.408</ele>
        <time>2015-06-18T16:33:53Z</time>
      </trkpt>
      <trkpt lat="36.476175" lon="-6.115317">
        <ele>20.455</ele>
        <time>2015-06-18T16:33:56Z</time>
      </trkpt>
      <trkpt lat="36.476164" lon="-6.115241">
        <ele>20.431</ele>
        <time>2015-06-18T16:33:58Z</time>
      </trkpt>
      <trkpt lat="36.476148" lon="-6.115129">
        <ele>20.467</ele>
        <time>2015-06-18T16:34:01Z</time>
      </trkpt>
      <trkpt lat="36.476110" lon="-6.114926">
        <ele>20.496</ele>
        <time>2015-06-18T16:34:07Z</time>
      </trkpt>
      <trkpt lat="36.476093" lon="-6.114732">
        <ele>20.439</ele>
        <time>2015-06-18T16:34:12Z</time>
      </trkpt>
      <trkpt lat="36.476044" lon="-6.114417">
        <ele>20.481</ele>
        <time>2015-06-18T16:34:20Z</time>
      </trkpt>
      <trkpt lat="36.475998" lon="-6.114141">
        <ele>20.414</ele>
        <time>2015-06-18T16:34:27Z</time>
      </trkpt>
      <trkpt lat="36.475947" lon="-6.113825">
        <ele>20.458</ele>
        <time>2015-06-18T16:34:35Z</time>
      </trkpt>
      <trkpt lat="36.475916" lon="-6.113632">
        <ele>20.887</ele>
        <time>2015-06-18T16:34:40Z</time>
      </trkpt>
      <trkpt lat="36.475910" lon="-6.113594">
        <ele>21.242</ele>
        <time>2015-06-18T16:34:41Z</time>
      </trkpt>
      <trkpt lat="36.475903" lon="-6.113555">
        <ele>21.626</ele>
        <time>2015-06-18T16:34:42Z</time>
      </trkpt>
      <trkpt lat="36.475895" lon="-6.113515">
        <ele>22.008</ele>
        <time>2015-06-18T16:34:43Z</time>
      </trkpt>
      <trkpt lat="36.475886" lon="-6.113479">
        <ele>22.489</ele>
        <time>2015-06-18T16:34:44Z</time>
      </trkpt>
      <trkpt lat="36.475864" lon="-6.113252">
        <ele>22.435</ele>
        <time>2015-06-18T16:34:50Z</time>
      </trkpt>
      <trkpt lat="36.475825" lon="-6.113019">
        <ele>22.431</ele>
        <time>2015-06-18T16:34:57Z</time>
      </trkpt>
      <trkpt lat="36.475784" lon="-6.112745">
        <ele>22.420</ele>
        <time>2015-06-18T16:35:05Z</time>
      </trkpt>
      <trkpt lat="36.475780" lon="-6.112712">
        <ele>22.453</ele>
        <time>2015-06-18T16:35:06Z</time>
      </trkpt>
      <trkpt lat="36.475740" lon="-6.112487">
        <ele>22.495</ele>
        <time>2015-06-18T16:35:13Z</time>
      </trkpt>
      <trkpt lat="36.475709" lon="-6.112328">
        <ele>22.878</ele>
        <time>2015-06-18T16:35:19Z</time>
      </trkpt>
      <trkpt lat="36.475709" lon="-6.112309">
        <ele>23.252</ele>
        <time>2015-06-18T16:35:20Z</time>
      </trkpt>
      <trkpt lat="36.475709" lon="-6.112293">
        <ele>23.695</ele>
        <time>2015-06-18T16:35:21Z</time>
      </trkpt>
      <trkpt lat="36.475703" lon="-6.112274">
        <ele>24.249</ele>
        <time>2015-06-18T16:35:22Z</time>
      </trkpt>
      <trkpt lat="36.475698" lon="-6.112249">
        <ele>24.623</ele>
        <time>2015-06-18T16:35:23Z</time>
      </trkpt>
      <trkpt lat="36.475690" lon="-6.112187">
        <ele>24.608</ele>
        <time>2015-06-18T16:35:25Z</time>
      </trkpt>
      <trkpt lat="36.475641" lon="-6.111950">
        <ele>24.640</ele>
        <time>2015-06-18T16:35:32Z</time>
      </trkpt>
      <trkpt lat="36.475600" lon="-6.111729">
        <ele>24.686</ele>
        <time>2015-06-18T16:35:38Z</time>
      </trkpt>
      <trkpt lat="36.475555" lon="-6.111462">
        <ele>24.662</ele>
        <time>2015-06-18T16:35:45Z</time>
      </trkpt>
      <trkpt lat="36.475511" lon="-6.111180">
        <ele>24.671</ele>
        <time>2015-06-18T16:35:52Z</time>
      </trkpt>
      <trkpt lat="36.475475" lon="-6.110976">
        <ele>24.694</ele>
        <time>2015-06-18T16:35:58Z</time>
      </trkpt>
      <trkpt lat="36.475440" lon="-6.110749">
        <ele>24.646</ele>
        <time>2015-06-18T16:36:04Z</time>
      </trkpt>
      <trkpt lat="36.475405" lon="-6.110479">
        <ele>25.019</ele>
        <time>2015-06-18T16:36:11Z</time>
      </trkpt>
      <trkpt lat="36.475397" lon="-6.110441">
        <ele>25.483</ele>
        <time>2015-06-18T16:36:12Z</time>
      </trkpt>
      <trkpt lat="36.475391" lon="-6.110402">
        <ele>25.893</ele>
        <time>2015-06-18T16:36:13Z</time>
      </trkpt>
      <trkpt lat="36.475387" lon="-6.110364">
        <ele>26.265</ele>
        <time>2015-06-18T16:36:14Z</time>
      </trkpt>
      <trkpt lat="36.475382" lon="-6.110325">
        <ele>26.621</ele>
        <time>2015-06-18T16:36:15Z</time>
      </trkpt>
      <trkpt lat="36.475343" lon="-6.110095">
        <ele>26.608</ele>
        <time>2015-06-18T16:36:21Z</time>
      </trkpt>
      <trkpt lat="36.475301" lon="-6.109834">
        <ele>26.630</ele>
        <time>2015-06-18T16:36:28Z</time>
      </trkpt>
      <trkpt lat="36.475270" lon="-6.109657">
        <ele>26.696</ele>
        <time>2015-06-18T16:36:34Z</time>
      </trkpt>
      <trkpt lat="36.475239" lon="-6.109466">
        <ele>26.682</ele>
        <time>2015-06-18T16:36:39Z</time>
      </trkpt>
      <trkpt lat="36.475195" lon="-6.109206">
        <ele>26.671</ele>
        <time>2015-06-18T16:36:46Z</time>
      </trkpt>
      <trkpt lat="36.475164" lon="-6.108966">
        <ele>26.634</ele>
        <time>2015-06-18T16:36:53Z</time>
      </trkpt>
      <trkpt lat="36.475127" lon="-6.108733">
        <ele>27.066</ele>
        <time>2015-06-18T16:37:00Z</time>
      </trkpt>
      <trkpt lat="36.475124" lon="-6.108699">
        <ele>27.449</ele>
        <time>2015-06-18T16:37:01Z</time>
      </trkpt>
      <trkpt lat="36.475120" lon="-6.108664">
        <ele>27.873</ele>
        <time>2015-06-18T16:37:02Z</time>
      </trkpt>
      <trkpt lat="36.475115" lon="-6.108629">
        <ele>28.277</ele>
        <time>2015-06-18T16:37:03Z</time>
      </trkpt>
      <trkpt lat="36.475111" lon="-6.108596">
        <ele>28.661</ele>
        <time>2015-06-18T16:37:04Z</time>
      </trkpt>
      <trkpt lat="36.475094" lon="-6.108453">
        <ele>28.627</ele>
        <time>2015-06-18T16:37:08Z</time>
      </trkpt>
      <trkpt lat="36.475067" lon="-6.108284">
        <ele>28.608</ele>
        <time>2015-06-18T16:37:13Z</time>
      </trkpt>
      <trkpt lat="36.475061" lon="-6.108256">
        <ele>28.688</ele>
        <time>2015-06-18T16:37:14Z</time>
      </trkpt>
      <trkpt lat="36.475032" lon="-6.108116">
        <ele>28.614</ele>
        <time>2015-06-18T16:37:19Z</time>
      </trkpt>
      <trkpt lat="36.475020" lon="-6.108024">
        <ele>28.640</ele>
        <time>2015-06-18T16:37:22Z</time>
      </trkpt>
      <trkpt lat="36.475013" lon="-6.107989">
        <ele>28.679</ele>
        <time>2015-06-18T16:37:23Z</time>
      </trkpt>
      <trkpt lat="36.474992" lon="-6.107840">
        <ele>28.672</ele>
        <time>2015-06-18T16:37:28Z</time>
      </trkpt>
      <trkpt lat="36.474939" lon="-6.107552">
        <ele>28.624</ele>
        <time>2015-06-18T16:37:36Z</time>
      </trkpt>
      <trkpt lat="36.474923" lon="-6.107413">
        <ele>29.017</ele>
        <time>2015-06-18T16:37:40Z</time>
      </trkpt>
      <trkpt lat="36.474918" lon="-6.107378">
        <ele>29.471</ele>
        <time>2015-06-18T16:37:41Z</time>
      </trkpt>
      <trkpt lat="36.474914" lon="-6.107342">
        <ele>29.825</ele>
        <time>2015-06-18T16:37:42Z</time>
      </trkpt>
      <trkpt lat="36.474911" lon="-6.107308">
        <ele>30.226</ele>
        <time>2015-06-18T16:37:43Z</time>
      </trkpt>
      <trkpt lat="36.474906" lon="-6.107272">
        <ele>30.608</ele>
        <time>2015-06-18T16:37:44Z</time>
      </trkpt>
      <trkpt lat="36.474877" lon="-6.107102">
        <ele>30.608</ele>
        <time>2015-06-18T16:37:49Z</time>
      </trkpt>
      <trkpt lat="36.474854" lon="-6.106892">
        <ele>30.693</ele>
        <time>2015-06-18T16:37:55Z</time>
      </trkpt>
      <trkpt lat="36.474828" lon="-6.106748">
        <ele>30.689</ele>
        <time>2015-06-18T16:37:59Z</time>
      </trkpt>
      <trkpt lat="36.474823" lon="-6.106715">
        <ele>31.085</ele>
        <time>2015-06-18T16:38:00Z</time>
      </trkpt>
      <trkpt lat="36.474819" lon="-6.106680">
        <ele>31.634</ele>
        <time>2015-06-18T16:38:01Z</time>
      </trkpt>
      <trkpt lat="36.474815" lon="-6.106646">
        <ele>32.027</ele>
        <time>2015-06-18T16:38:02Z</time>
      </trkpt>
      <trkpt lat="36.474808" lon="-6.106610">
        <ele>32.429</ele>
        <time>2015-06-18T16:38:03Z</time>
      </trkpt>
      <trkpt lat="36.474800" lon="-6.106573">
        <ele>32.822</ele>
        <time>2015-06-18T16:38:04Z</time>
      </trkpt>
      <trkpt lat="36.474786" lon="-6.106505">
        <ele>32.876</ele>
        <time>2015-06-18T16:38:06Z</time>
      </trkpt>
      <trkpt lat="36.474729" lon="-6.106251">
        <ele>32.896</ele>
        <time>2015-06-18T16:38:13Z</time>
      </trkpt>
      <trkpt lat="36.474698" lon="-6.106017">
        <ele>32.831</ele>
        <time>2015-06-18T16:38:19Z</time>
      </trkpt>
      <trkpt lat="36.474653" lon="-6.105748">
        <ele>32.824</ele>
        <time>2015-06-18T16:38:26Z</time>
      </trkpt>
      <trkpt lat="36.474609" lon="-6.105511">
        <ele>32.808</ele>
        <time>2015-06-18T16:38:32Z</time>
      </trkpt>
      <trkpt lat="36.474569" lon="-6.105229">
        <ele>32.830</ele>
        <time>2015-06-18T16:38:39Z</time>
      </trkpt>
      <trkpt lat="36.474521" lon="-6.104950">
        <ele>33.296</ele>
        <time>2015-06-18T16:38:46Z</time>
      </trkpt>
      <trkpt lat="36.474515" lon="-6.104913">
        <ele>33.662</ele>
        <time>2015-06-18T16:38:47Z</time>
      </trkpt>
      <trkpt lat="36.474509" lon="-6.104874">
        <ele>34.051</ele>
        <time>2015-06-18T16:38:48Z</time>
      </trkpt>
      <trkpt lat="36.474503" lon="-6.104836">
        <ele>34.444</ele>
        <time>2015-06-18T16:38:49Z</time>
      </trkpt>
      <trkpt lat="36.474496" lon="-6.104797">
        <ele>34.836</ele>
        <time>2015-06-18T16:38:50Z</time>
      </trkpt>
      <trkpt lat="36.474466" lon="-6.104614">
        <ele>34.829</ele>
        <time>2015-06-18T16:38:55Z</time>
      </trkpt>
      <trkpt lat="36.474430" lon="-6.104352">
        <ele>34.863</ele>
        <time>2015-06-18T16:39:02Z</time>
      </trkpt>
      <trkpt lat="36.474387" lon="-6.104137">
        <ele>34.845</ele>
        <time>2015-06-18T16:39:09Z</time>
      </trkpt>
      <trkpt lat="36.474345" lon="-6.103962">
        <ele>34.847</ele>
        <time>2015-06-18T16:39:15Z</time>
      </trkpt>
      <trkpt lat="36.474294" lon="-6.103760">
        <ele>34.811</ele>
        <time>2015-06-18T16:39:22Z</time>
      </trkpt>
      <trkpt lat="36.474250" lon="-6.103562">
        <ele>34.808</ele>
        <time>2015-06-18T16:39:28Z</time>
      </trkpt>
      <trkpt lat="36.474240" lon="-6.103530">
        <ele>35.245</ele>
        <time>2015-06-18T16:39:29Z</time>
      </trkpt>
      <trkpt lat="36.474230" lon="-6.103496">
        <ele>35.681</ele>
        <time>2015-06-18T16:39:30Z</time>
      </trkpt>
      <trkpt lat="36.474222" lon="-6.103461">
        <ele>36.027</ele>
        <time>2015-06-18T16:39:31Z</time>
      </trkpt>
      <trkpt lat="36.474211" lon="-6.103429">
        <ele>36.446</ele>
        <time>2015-06-18T16:39:32Z</time>
      </trkpt>
      <trkpt lat="36.474201" lon="-6.103395">
        <ele>36.899</ele>
        <time>2015-06-18T16:39:33Z</time>
      </trkpt>
      <trkpt lat="36.474196" lon="-6.103360">
        <ele>36.811</ele>
        <time>2015-06-18T16:39:34Z</time>
      </trkpt>
      <trkpt lat="36.474133" lon="-6.103081">
        <ele>36.884</ele>
        <time>2015-06-18T16:39:42Z</time>
      </trkpt>
      <trkpt lat="36.474054" lon="-6.102801">
        <ele>36.828</ele>
        <time>2015-06-18T16:39:51Z</time>
      </trkpt>
      <trkpt lat="36.473991" lon="-6.102565">
        <ele>36.842</ele>
        <time>2015-06-18T16:39:58Z</time>
      </trkpt>
      <trkpt lat="36.473926" lon="-6.102310">
        <ele>37.222</ele>
        <time>2015-06-18T16:40:05Z</time>
      </trkpt>
      <trkpt lat="36.473919" lon="-6.102278">
        <ele>37.614</ele>
        <time>2015-06-18T16:40:06Z</time>
      </trkpt>
      <trkpt lat="36.473915" lon="-6.102249">
        <ele>38.008</ele>
        <time>2015-06-18T16:40:07Z</time>
      </trkpt>
      <trkpt lat="36.473910" lon="-6.102221">
        <ele>38.485</ele>
        <time>2015-06-18T16:40:08Z</time>
      </trkpt>
      <trkpt lat="36.473906" lon="-6.102193">
        <ele>38.851</ele>
        <time>2015-06-18T16:40:09Z</time>
      </trkpt>
      <trkpt lat="36.473883" lon="-6.102103">
        <ele>38.837</ele>
        <time>2015-06-18T16:40:12Z</time>
      </trkpt>
      <trkpt lat="36.473828" lon="-6.101950">
        <ele>38.846</ele>
        <time>2015-06-18T16:40:18Z</time>
      </trkpt>
      <trkpt lat="36.473823" lon="-6.101943">
        <ele>38.819</ele>
        <time>2015-06-18T16:40:22Z</time>
      </trkpt>
      <trkpt lat="36.473820" lon="-6.101943">
        <ele>38.841</ele>
        <time>2015-06-18T16:40:27Z</time>
      </trkpt>
      <trkpt lat="36.473820" lon="-6.101943">
        <ele>38.884</ele>
        <time>2015-06-18T16:40:32Z</time>
      </trkpt>
      <trkpt lat="36.473820" lon="-6.101943">
        <ele>38.888</ele>
        <time>2015-06-18T16:40:42Z</time>
      </trkpt>
      <trkpt lat="36.473819" lon="-6.101947">
        <ele>38.873</ele>
        <time>2015-06-18T16:40:49Z</time>
      </trkpt>
      <trkpt lat="36.473819" lon="-6.101947">
        <ele>38.885</ele>
        <time>2015-06-18T16:40:58Z</time>
      </trkpt>
      <trkpt lat="36.473819" lon="-6.101947">
        <ele>38.813</ele>
        <time>2015-06-18T16:41:04Z</time>
      </trkpt>
      <trkpt lat="36.473819" lon="-6.101947">
        <ele>38.808</ele>
        <time>2015-06-18T16:41:13Z</time>
      </trkpt>
      <trkpt lat="36.473819" lon="-6.101947">
        <ele>38.868</ele>
        <time>2015-06-18T16:41:19Z</time>
      </trkpt>
      <trkpt lat="36.473818" lon="-6.101944">
        <ele>38.874</ele>
        <time>2015-06-18T16:41:21Z</time>
      </trkpt>
      <trkpt lat="36.473802" lon="-6.101867">
        <ele>38.830</ele>
        <time>2015-06-18T16:41:26Z</time>
      </trkpt>
      <trkpt lat="36.473788" lon="-6.101818">
        <ele>38.889</ele>
        <time>2015-06-18T16:41:28Z</time>
      </trkpt>
      <trkpt lat="36.473776" lon="-6.101778">
        <ele>38.882</ele>
        <time>2015-06-18T16:41:30Z</time>
      </trkpt>
      <trkpt lat="36.473762" lon="-6.101735">
        <ele>38.884</ele>
        <time>2015-06-18T16:41:33Z</time>
      </trkpt>
      <trkpt lat="36.473749" lon="-6.101695">
        <ele>38.837</ele>
        <time>2015-06-18T16:41:37Z</time>
      </trkpt>
      <trkpt lat="36.473742" lon="-6.101633">
        <ele>38.831</ele>
        <time>2015-06-18T16:41:40Z</time>
      </trkpt>
      <trkpt lat="36.473732" lon="-6.101576">
        <ele>38.884</ele>
        <time>2015-06-18T16:41:42Z</time>
      </trkpt>
      <trkpt lat="36.473710" lon="-6.101485">
        <ele>38.807</ele>
        <time>2015-06-18T16:41:45Z</time>
      </trkpt>
      <trkpt lat="36.473692" lon="-6.101425">
        <ele>38.817</ele>
        <time>2015-06-18T16:41:47Z</time>
      </trkpt>
      <trkpt lat="36.473677" lon="-6.101364">
        <ele>38.808</ele>
        <time>2015-06-18T16:41:49Z</time>
      </trkpt>
      <trkpt lat="36.473655" lon="-6.101283">
        <ele>39.259</ele>
        <time>2015-06-18T16:41:52Z</time>
      </trkpt>
      <trkpt lat="36.473648" lon="-6.101257">
        <ele>39.665</ele>
        <time>2015-06-18T16:41:53Z</time>
      </trkpt>
      <trkpt lat="36.473641" lon="-6.101231">
        <ele>40.041</ele>
        <time>2015-06-18T16:41:54Z</time>
      </trkpt>
      <trkpt lat="36.473635" lon="-6.101205">
        <ele>40.430</ele>
        <time>2015-06-18T16:41:55Z</time>
      </trkpt>
      <trkpt lat="36.473628" lon="-6.101177">
        <ele>40.893</ele>
        <time>2015-06-18T16:41:56Z</time>
      </trkpt>
      <trkpt lat="36.473619" lon="-6.101149">
        <ele>40.895</ele>
        <time>2015-06-18T16:41:57Z</time>
      </trkpt>
      <trkpt lat="36.473579" lon="-6.100981">
        <ele>40.818</ele>
        <time>2015-06-18T16:42:03Z</time>
      </trkpt>
      <trkpt lat="36.473548" lon="-6.100908">
        <ele>40.862</ele>
        <time>2015-06-18T16:42:06Z</time>
      </trkpt>
      <trkpt lat="36.473500" lon="-6.100743">
        <ele>40.877</ele>
        <time>2015-06-18T16:42:13Z</time>
      </trkpt>
      <trkpt lat="36.473463" lon="-6.100584">
        <ele>40.861</ele>
        <time>2015-06-18T16:42:19Z</time>
      </trkpt>
      <trkpt lat="36.473406" lon="-6.100338">
        <ele>40.827</ele>
        <time>2015-06-18T16:42:27Z</time>
      </trkpt>
      <trkpt lat="36.473345" lon="-6.100103">
        <ele>40.808</ele>
        <time>2015-06-18T16:42:35Z</time>
      </trkpt>
      <trkpt lat="36.473290" lon="-6.099892">
        <ele>40.898</ele>
        <time>2015-06-18T16:42:42Z</time>
      </trkpt>
      <trkpt lat="36.473250" lon="-6.099761">
        <ele>40.864</ele>
        <time>2015-06-18T16:42:47Z</time>
      </trkpt>
      <trkpt lat="36.473165" lon="-6.099513">
        <ele>40.820</ele>
        <time>2015-06-18T16:42:56Z</time>
      </trkpt>
      <trkpt lat="36.473116" lon="-6.099347">
        <ele>41.269</ele>
        <time>2015-06-18T16:43:02Z</time>
      </trkpt>
      <trkpt lat="36.473108" lon="-6.099314">
        <ele>41.852</ele>
        <time>2015-06-18T16:43:03Z</time>
      </trkpt>
      <trkpt lat="36.473102" lon="-6.099281">
        <ele>42.234</ele>
        <time>2015-06-18T16:43:04Z</time>
      </trkpt>
      <trkpt lat="36.473094" lon="-6.099249">
        <ele>42.647</ele>
        <time>2015-06-18T16:43:05Z</time>
      </trkpt>
      <trkpt lat="36.473086" lon="-6.099219">
        <ele>43.011</ele>
        <time>2015-06-18T16:43:06Z</time>
      </trkpt>
      <trkpt lat="36.473054" lon="-6.099110">
        <ele>43.062</ele>
        <time>2015-06-18T16:43:10Z</time>
      </trkpt>
      <trkpt lat="36.472991" lon="-6.098883">
        <ele>43.083</ele>
        <time>2015-06-18T16:43:18Z</time>
      </trkpt>
      <trkpt lat="36.472933" lon="-6.098649">
        <ele>43.011</ele>
        <time>2015-06-18T16:43:26Z</time>
      </trkpt>
      <trkpt lat="36.472870" lon="-6.098434">
        <ele>43.008</ele>
        <time>2015-06-18T16:43:33Z</time>
      </trkpt>
      <trkpt lat="36.472820" lon="-6.098248">
        <ele>43.477</ele>
        <time>2015-06-18T16:43:39Z</time>
      </trkpt>
      <trkpt lat="36.472810" lon="-6.098216">
        <ele>43.893</ele>
        <time>2015-06-18T16:43:40Z</time>
      </trkpt>
      <trkpt lat="36.472799" lon="-6.098182">
        <ele>44.279</ele>
        <time>2015-06-18T16:43:41Z</time>
      </trkpt>
      <trkpt lat="36.472790" lon="-6.098151">
        <ele>44.648</ele>
        <time>2015-06-18T16:43:42Z</time>
      </trkpt>
      <trkpt lat="36.472781" lon="-6.098121">
        <ele>45.091</ele>
        <time>2015-06-18T16:43:43Z</time>
      </trkpt>
      <trkpt lat="36.472736" lon="-6.098002">
        <ele>45.063</ele>
        <time>2015-06-18T16:43:47Z</time>
      </trkpt>
      <trkpt lat="36.472668" lon="-6.097773">
        <ele>45.066</ele>
        <time>2015-06-18T16:43:55Z</time>
      </trkpt>
      <trkpt lat="36.472652" lon="-6.097726">
        <ele>45.070</ele>
        <time>2015-06-18T16:43:57Z</time>
      </trkpt>
      <trkpt lat="36.472635" lon="-6.097651">
        <ele>45.055</ele>
        <time>2015-06-18T16:44:00Z</time>
      </trkpt>
      <trkpt lat="36.472575" lon="-6.097462">
        <ele>45.007</ele>
        <time>2015-06-18T16:44:08Z</time>
      </trkpt>
      <trkpt lat="36.472569" lon="-6.097439">
        <ele>45.017</ele>
        <time>2015-06-18T16:44:09Z</time>
      </trkpt>
      <trkpt lat="36.472562" lon="-6.097413">
        <ele>45.408</ele>
        <time>2015-06-18T16:44:10Z</time>
      </trkpt>
      <trkpt lat="36.472555" lon="-6.097387">
        <ele>45.886</ele>
        <time>2015-06-18T16:44:11Z</time>
      </trkpt>
      <trkpt lat="36.472548" lon="-6.097362">
        <ele>46.232</ele>
        <time>2015-06-18T16:44:12Z</time>
      </trkpt>
      <trkpt lat="36.472539" lon="-6.097342">
        <ele>46.688</ele>
        <time>2015-06-18T16:44:13Z</time>
      </trkpt>
      <trkpt lat="36.472537" lon="-6.097319">
        <ele>47.097</ele>
        <time>2015-06-18T16:44:14Z</time>
      </trkpt>
      <trkpt lat="36.472523" lon="-6.097277">
        <ele>47.050</ele>
        <time>2015-06-18T16:44:16Z</time>
      </trkpt>
      <trkpt lat="36.472509" lon="-6.097234">
        <ele>47.042</ele>
        <time>2015-06-18T16:44:18Z</time>
      </trkpt>
      <trkpt lat="36.472497" lon="-6.097185">
        <ele>47.045</ele>
        <time>2015-06-18T16:44:20Z</time>
      </trkpt>
      <trkpt lat="36.472474" lon="-6.097053">
        <ele>47.059</ele>
        <time>2015-06-18T16:44:25Z</time>
      </trkpt>
      <trkpt lat="36.472431" lon="-6.096906">
        <ele>47.471</ele>
        <time>2015-06-18T16:44:31Z</time>
      </trkpt>
      <trkpt lat="36.472425" lon="-6.096881">
        <ele>47.841</ele>
        <time>2015-06-18T16:44:32Z</time>
      </trkpt>
      <trkpt lat="36.472418" lon="-6.096857">
        <ele>48.215</ele>
        <time>2015-06-18T16:44:33Z</time>
      </trkpt>
      <trkpt lat="36.472412" lon="-6.096832">
        <ele>48.608</ele>
        <time>2015-06-18T16:44:34Z</time>
      </trkpt>
      <trkpt lat="36.472404" lon="-6.096808">
        <ele>49.098</ele>
        <time>2015-06-18T16:44:35Z</time>
      </trkpt>
      <trkpt lat="36.472364" lon="-6.096680">
        <ele>49.014</ele>
        <time>2015-06-18T16:44:40Z</time>
      </trkpt>
      <trkpt lat="36.472313" lon="-6.096567">
        <ele>49.030</ele>
        <time>2015-06-18T16:44:45Z</time>
      </trkpt>
      <trkpt lat="36.472270" lon="-6.096407">
        <ele>49.029</ele>
        <time>2015-06-18T16:44:52Z</time>
      </trkpt>
      <trkpt lat="36.472259" lon="-6.096361">
        <ele>49.482</ele>
        <time>2015-06-18T16:44:54Z</time>
      </trkpt>
      <trkpt lat="36.472251" lon="-6.096339">
        <ele>50.044</ele>
        <time>2015-06-18T16:44:55Z</time>
      </trkpt>
      <trkpt lat="36.472241" lon="-6.096317">
        <ele>50.417</ele>
        <time>2015-06-18T16:44:56Z</time>
      </trkpt>
      <trkpt lat="36.472234" lon="-6.096297">
        <ele>50.841</ele>
        <time>2015-06-18T16:44:57Z</time>
      </trkpt>
      <trkpt lat="36.472229" lon="-6.096276">
        <ele>51.235</ele>
        <time>2015-06-18T16:44:58Z</time>
      </trkpt>
      <trkpt lat="36.472222" lon="-6.096257">
        <ele>51.286</ele>
        <time>2015-06-18T16:44:59Z</time>
      </trkpt>
      <trkpt lat="36.472191" lon="-6.096123">
        <ele>51.214</ele>
        <time>2015-06-18T16:45:05Z</time>
      </trkpt>
      <trkpt lat="36.472177" lon="-6.096082">
        <ele>51.608</ele>
        <time>2015-06-18T16:45:07Z</time>
      </trkpt>
      <trkpt lat="36.472171" lon="-6.096055">
        <ele>52.054</ele>
        <time>2015-06-18T16:45:08Z</time>
      </trkpt>
      <trkpt lat="36.472163" lon="-6.096032">
        <ele>52.410</ele>
        <time>2015-06-18T16:45:09Z</time>
      </trkpt>
      <trkpt lat="36.472150" lon="-6.096012">
        <ele>53.296</ele>
        <time>2015-06-18T16:45:10Z</time>
      </trkpt>
      <trkpt lat="36.472060" lon="-6.096003">
        <ele>53.275</ele>
        <time>2015-06-18T16:45:14Z</time>
      </trkpt>
      <trkpt lat="36.471961" lon="-6.096070">
        <ele>53.268</ele>
        <time>2015-06-18T16:45:18Z</time>
      </trkpt>
      <trkpt lat="36.471911" lon="-6.096098">
        <ele>53.230</ele>
        <time>2015-06-18T16:45:20Z</time>
      </trkpt>
      <trkpt lat="36.471802" lon="-6.096127">
        <ele>53.223</ele>
        <time>2015-06-18T16:45:24Z</time>
      </trkpt>
      <trkpt lat="36.471668" lon="-6.096186">
        <ele>53.227</ele>
        <time>2015-06-18T16:45:30Z</time>
      </trkpt>
      <trkpt lat="36.471529" lon="-6.096169">
        <ele>53.282</ele>
        <time>2015-06-18T16:45:36Z</time>
      </trkpt>
      <trkpt lat="36.471422" lon="-6.096089">
        <ele>53.243</ele>
        <time>2015-06-18T16:45:41Z</time>
      </trkpt>
      <trkpt lat="36.471416" lon="-6.096063">
        <ele>53.217</ele>
        <time>2015-06-18T16:45:42Z</time>
      </trkpt>
      <trkpt lat="36.471391" lon="-6.095951">
        <ele>53.208</ele>
        <time>2015-06-18T16:45:46Z</time>
      </trkpt>
      <trkpt lat="36.471374" lon="-6.095861">
        <ele>53.279</ele>
        <time>2015-06-18T16:45:49Z</time>
      </trkpt>
      <trkpt lat="36.471367" lon="-6.095830">
        <ele>53.885</ele>
        <time>2015-06-18T16:45:50Z</time>
      </trkpt>
      <trkpt lat="36.471362" lon="-6.095800">
        <ele>54.271</ele>
        <time>2015-06-18T16:45:51Z</time>
      </trkpt>
      <trkpt lat="36.471358" lon="-6.095772">
        <ele>54.650</ele>
        <time>2015-06-18T16:45:52Z</time>
      </trkpt>
      <trkpt lat="36.471353" lon="-6.095743">
        <ele>55.023</ele>
        <time>2015-06-18T16:45:53Z</time>
      </trkpt>
      <trkpt lat="36.471348" lon="-6.095714">
        <ele>55.425</ele>
        <time>2015-06-18T16:45:54Z</time>
      </trkpt>
      <trkpt lat="36.471334" lon="-6.095529">
        <ele>55.818</ele>
        <time>2015-06-18T16:46:00Z</time>
      </trkpt>
      <trkpt lat="36.471330" lon="-6.095495">
        <ele>56.292</ele>
        <time>2015-06-18T16:46:01Z</time>
      </trkpt>
      <trkpt lat="36.471325" lon="-6.095459">
        <ele>56.689</ele>
        <time>2015-06-18T16:46:02Z</time>
      </trkpt>
      <trkpt lat="36.471318" lon="-6.095427">
        <ele>57.206</ele>
        <time>2015-06-18T16:46:03Z</time>
      </trkpt>
      <trkpt lat="36.471314" lon="-6.095397">
        <ele>57.626</ele>
        <time>2015-06-18T16:46:04Z</time>
      </trkpt>
      <trkpt lat="36.471305" lon="-6.095287">
        <ele>57.608</ele>
        <time>2015-06-18T16:46:08Z</time>
      </trkpt>
      <trkpt lat="36.471281" lon="-6.095201">
        <ele>58.059</ele>
        <time>2015-06-18T16:46:11Z</time>
      </trkpt>
      <trkpt lat="36.471278" lon="-6.095174">
        <ele>58.455</ele>
        <time>2015-06-18T16:46:12Z</time>
      </trkpt>
      <trkpt lat="36.471275" lon="-6.095145">
        <ele>58.861</ele>
        <time>2015-06-18T16:46:13Z</time>
      </trkpt>
      <trkpt lat="36.471270" lon="-6.095115">
        <ele>59.280</ele>
        <time>2015-06-18T16:46:14Z</time>
      </trkpt>
      <trkpt lat="36.471264" lon="-6.095084">
        <ele>59.673</ele>
        <time>2015-06-18T16:46:15Z</time>
      </trkpt>
      <trkpt lat="36.471244" lon="-6.094955">
        <ele>59.685</ele>
        <time>2015-06-18T16:46:20Z</time>
      </trkpt>
      <trkpt lat="36.471217" lon="-6.094770">
        <ele>59.638</ele>
        <time>2015-06-18T16:46:27Z</time>
      </trkpt>
      <trkpt lat="36.471206" lon="-6.094745">
        <ele>59.642</ele>
        <time>2015-06-18T16:46:28Z</time>
      </trkpt>
      <trkpt lat="36.471172" lon="-6.094635">
        <ele>59.686</ele>
        <time>2015-06-18T16:46:32Z</time>
      </trkpt>
      <trkpt lat="36.471132" lon="-6.094377">
        <ele>59.660</ele>
        <time>2015-06-18T16:46:38Z</time>
      </trkpt>
      <trkpt lat="36.471079" lon="-6.094126">
        <ele>59.626</ele>
        <time>2015-06-18T16:46:43Z</time>
      </trkpt>
      <trkpt lat="36.471037" lon="-6.093865">
        <ele>59.608</ele>
        <time>2015-06-18T16:46:47Z</time>
      </trkpt>
      <trkpt lat="36.471020" lon="-6.093722">
        <ele>59.239</ele>
        <time>2015-06-18T16:46:49Z</time>
      </trkpt>
      <trkpt lat="36.471013" lon="-6.093652">
        <ele>58.815</ele>
        <time>2015-06-18T16:46:50Z</time>
      </trkpt>
      <trkpt lat="36.471007" lon="-6.093580">
        <ele>58.431</ele>
        <time>2015-06-18T16:46:51Z</time>
      </trkpt>
      <trkpt lat="36.471003" lon="-6.093511">
        <ele>58.080</ele>
        <time>2015-06-18T16:46:52Z</time>
      </trkpt>
      <trkpt lat="36.471003" lon="-6.093445">
        <ele>57.653</ele>
        <time>2015-06-18T16:46:53Z</time>
      </trkpt>
      <trkpt lat="36.470997" lon="-6.093313">
        <ele>57.635</ele>
        <time>2015-06-18T16:46:55Z</time>
      </trkpt>
      <trkpt lat="36.470994" lon="-6.093250">
        <ele>57.068</ele>
        <time>2015-06-18T16:46:56Z</time>
      </trkpt>
      <trkpt lat="36.470987" lon="-6.093188">
        <ele>56.642</ele>
        <time>2015-06-18T16:46:57Z</time>
      </trkpt>
      <trkpt lat="36.470978" lon="-6.093129">
        <ele>56.246</ele>
        <time>2015-06-18T16:46:58Z</time>
      </trkpt>
      <trkpt lat="36.470970" lon="-6.093073">
        <ele>55.888</ele>
        <time>2015-06-18T16:46:59Z</time>
      </trkpt>
      <trkpt lat="36.470968" lon="-6.093018">
        <ele>55.416</ele>
        <time>2015-06-18T16:47:00Z</time>
      </trkpt>
      <trkpt lat="36.470964" lon="-6.092960">
        <ele>55.408</ele>
        <time>2015-06-18T16:47:01Z</time>
      </trkpt>
      <trkpt lat="36.470921" lon="-6.092785">
        <ele>55.475</ele>
        <time>2015-06-18T16:47:05Z</time>
      </trkpt>
      <trkpt lat="36.470911" lon="-6.092745">
        <ele>55.411</ele>
        <time>2015-06-18T16:47:06Z</time>
      </trkpt>
      <trkpt lat="36.470876" lon="-6.092564">
        <ele>55.417</ele>
        <time>2015-06-18T16:47:12Z</time>
      </trkpt>
      <trkpt lat="36.470864" lon="-6.092356">
        <ele>55.436</ele>
        <time>2015-06-18T16:47:19Z</time>
      </trkpt>
      <trkpt lat="36.470874" lon="-6.092169">
        <ele>55.429</ele>
        <time>2015-06-18T16:47:26Z</time>
      </trkpt>
      <trkpt lat="36.470877" lon="-6.092035">
        <ele>55.461</ele>
        <time>2015-06-18T16:47:32Z</time>
      </trkpt>
      <trkpt lat="36.470869" lon="-6.091897">
        <ele>55.414</ele>
        <time>2015-06-18T16:47:39Z</time>
      </trkpt>
      <trkpt lat="36.470864" lon="-6.091836">
        <ele>55.888</ele>
        <time>2015-06-18T16:47:42Z</time>
      </trkpt>
      <trkpt lat="36.470860" lon="-6.091816">
        <ele>56.216</ele>
        <time>2015-06-18T16:47:43Z</time>
      </trkpt>
      <trkpt lat="36.470860" lon="-6.091798">
        <ele>56.676</ele>
        <time>2015-06-18T16:47:44Z</time>
      </trkpt>
      <trkpt lat="36.470858" lon="-6.091780">
        <ele>57.013</ele>
        <time>2015-06-18T16:47:45Z</time>
      </trkpt>
      <trkpt lat="36.470855" lon="-6.091762">
        <ele>57.408</ele>
        <time>2015-06-18T16:47:46Z</time>
      </trkpt>
      <trkpt lat="36.470851" lon="-6.091746">
        <ele>57.442</ele>
        <time>2015-06-18T16:47:47Z</time>
      </trkpt>
      <trkpt lat="36.470835" lon="-6.091679">
        <ele>57.488</ele>
        <time>2015-06-18T16:47:51Z</time>
      </trkpt>
      <trkpt lat="36.470828" lon="-6.091620">
        <ele>58.014</ele>
        <time>2015-06-18T16:47:54Z</time>
      </trkpt>
      <trkpt lat="36.470825" lon="-6.091599">
        <ele>58.493</ele>
        <time>2015-06-18T16:47:55Z</time>
      </trkpt>
      <trkpt lat="36.470824" lon="-6.091582">
        <ele>58.846</ele>
        <time>2015-06-18T16:47:56Z</time>
      </trkpt>
      <trkpt lat="36.470823" lon="-6.091565">
        <ele>59.268</ele>
        <time>2015-06-18T16:47:57Z</time>
      </trkpt>
      <trkpt lat="36.470821" lon="-6.091547">
        <ele>59.841</ele>
        <time>2015-06-18T16:47:58Z</time>
      </trkpt>
      <trkpt lat="36.470801" lon="-6.091505">
        <ele>59.835</ele>
        <time>2015-06-18T16:48:01Z</time>
      </trkpt>
      <trkpt lat="36.470786" lon="-6.091443">
        <ele>60.274</ele>
        <time>2015-06-18T16:48:05Z</time>
      </trkpt>
      <trkpt lat="36.470786" lon="-6.091426">
        <ele>60.656</ele>
        <time>2015-06-18T16:48:06Z</time>
      </trkpt>
      <trkpt lat="36.470786" lon="-6.091408">
        <ele>61.021</ele>
        <time>2015-06-18T16:48:07Z</time>
      </trkpt>
      <trkpt lat="36.470786" lon="-6.091389">
        <ele>61.408</ele>
        <time>2015-06-18T16:48:08Z</time>
      </trkpt>
      <trkpt lat="36.470785" lon="-6.091370">
        <ele>61.848</ele>
        <time>2015-06-18T16:48:09Z</time>
      </trkpt>
      <trkpt lat="36.470765" lon="-6.091269">
        <ele>61.894</ele>
        <time>2015-06-18T16:48:15Z</time>
      </trkpt>
      <trkpt lat="36.470764" lon="-6.091250">
        <ele>61.820</ele>
        <time>2015-06-18T16:48:16Z</time>
      </trkpt>
      <trkpt lat="36.470760" lon="-6.091230">
        <ele>62.269</ele>
        <time>2015-06-18T16:48:17Z</time>
      </trkpt>
      <trkpt lat="36.470758" lon="-6.091210">
        <ele>62.682</ele>
        <time>2015-06-18T16:48:18Z</time>
      </trkpt>
      <trkpt lat="36.470754" lon="-6.091192">
        <ele>63.084</ele>
        <time>2015-06-18T16:48:19Z</time>
      </trkpt>
      <trkpt lat="36.470752" lon="-6.091176">
        <ele>63.437</ele>
        <time>2015-06-18T16:48:20Z</time>
      </trkpt>
      <trkpt lat="36.470751" lon="-6.091159">
        <ele>63.821</ele>
        <time>2015-06-18T16:48:21Z</time>
      </trkpt>
      <trkpt lat="36.470745" lon="-6.091128">
        <ele>63.888</ele>
        <time>2015-06-18T16:48:23Z</time>
      </trkpt>
      <trkpt lat="36.470726" lon="-6.091017">
        <ele>64.224</ele>
        <time>2015-06-18T16:48:29Z</time>
      </trkpt>
      <trkpt lat="36.470721" lon="-6.091000">
        <ele>64.626</ele>
        <time>2015-06-18T16:48:30Z</time>
      </trkpt>
      <trkpt lat="36.470715" lon="-6.090981">
        <ele>65.008</ele>
        <time>2015-06-18T16:48:31Z</time>
      </trkpt>
      <trkpt lat="36.470706" lon="-6.090965">
        <ele>65.449</ele>
        <time>2015-06-18T16:48:32Z</time>
      </trkpt>
      <trkpt lat="36.470701" lon="-6.090951">
        <ele>65.885</ele>
        <time>2015-06-18T16:48:33Z</time>
      </trkpt>
      <trkpt lat="36.470684" lon="-6.090882">
        <ele>65.831</ele>
        <time>2015-06-18T16:48:37Z</time>
      </trkpt>
      <trkpt lat="36.470668" lon="-6.090831">
        <ele>66.220</ele>
        <time>2015-06-18T16:48:40Z</time>
      </trkpt>
      <trkpt lat="36.470665" lon="-6.090815">
        <ele>66.893</ele>
        <time>2015-06-18T16:48:41Z</time>
      </trkpt>
      <trkpt lat="36.470662" lon="-6.090798">
        <ele>67.245</ele>
        <time>2015-06-18T16:48:42Z</time>
      </trkpt>
      <trkpt lat="36.470657" lon="-6.090781">
        <ele>67.638</ele>
        <time>2015-06-18T16:48:43Z</time>
      </trkpt>
      <trkpt lat="36.470652" lon="-6.090766">
        <ele>68.032</ele>
        <time>2015-06-18T16:48:44Z</time>
      </trkpt>
      <trkpt lat="36.470628" lon="-6.090673">
        <ele>68.049</ele>
        <time>2015-06-18T16:48:50Z</time>
      </trkpt>
      <trkpt lat="36.470626" lon="-6.090659">
        <ele>68.402</ele>
        <time>2015-06-18T16:48:51Z</time>
      </trkpt>
      <trkpt lat="36.470622" lon="-6.090644">
        <ele>68.822</ele>
        <time>2015-06-18T16:48:52Z</time>
      </trkpt>
      <trkpt lat="36.470616" lon="-6.090631">
        <ele>69.208</ele>
        <time>2015-06-18T16:48:53Z</time>
      </trkpt>
      <trkpt lat="36.470613" lon="-6.090614">
        <ele>69.615</ele>
        <time>2015-06-18T16:48:54Z</time>
      </trkpt>
      <trkpt lat="36.470605" lon="-6.090595">
        <ele>70.021</ele>
        <time>2015-06-18T16:48:55Z</time>
      </trkpt>
      <trkpt lat="36.470585" lon="-6.090567">
        <ele>70.027</ele>
        <time>2015-06-18T16:48:57Z</time>
      </trkpt>
      <trkpt lat="36.470571" lon="-6.090521">
        <ele>70.056</ele>
        <time>2015-06-18T16:49:00Z</time>
      </trkpt>
      <trkpt lat="36.470552" lon="-6.090491">
        <ele>70.059</ele>
        <time>2015-06-18T16:49:03Z</time>
      </trkpt>
      <trkpt lat="36.470522" lon="-6.090448">
        <ele>70.431</ele>
        <time>2015-06-18T16:49:06Z</time>
      </trkpt>
      <trkpt lat="36.470515" lon="-6.090432">
        <ele>71.054</ele>
        <time>2015-06-18T16:49:07Z</time>
      </trkpt>
      <trkpt lat="36.470504" lon="-6.090417">
        <ele>71.418</ele>
        <time>2015-06-18T16:49:08Z</time>
      </trkpt>
      <trkpt lat="36.470494" lon="-6.090401">
        <ele>71.866</ele>
        <time>2015-06-18T16:49:09Z</time>
      </trkpt>
      <trkpt lat="36.470485" lon="-6.090387">
        <ele>72.429</ele>
        <time>2015-06-18T16:49:10Z</time>
      </trkpt>
      <trkpt lat="36.470476" lon="-6.090369">
        <ele>72.421</ele>
        <time>2015-06-18T16:49:11Z</time>
      </trkpt>
      <trkpt lat="36.470417" lon="-6.090233">
        <ele>72.408</ele>
        <time>2015-06-18T16:49:18Z</time>
      </trkpt>
      <trkpt lat="36.470362" lon="-6.090120">
        <ele>72.467</ele>
        <time>2015-06-18T16:49:24Z</time>
      </trkpt>
      <trkpt lat="36.470292" lon="-6.089969">
        <ele>72.443</ele>
        <time>2015-06-18T16:49:31Z</time>
      </trkpt>
      <trkpt lat="36.470215" lon="-6.089848">
        <ele>72.429</ele>
        <time>2015-06-18T16:49:36Z</time>
      </trkpt>
      <trkpt lat="36.470108" lon="-6.089713">
        <ele>72.458</ele>
        <time>2015-06-18T16:49:42Z</time>
      </trkpt>
      <trkpt lat="36.470096" lon="-6.089672">
        <ele>72.461</ele>
        <time>2015-06-18T16:49:44Z</time>
      </trkpt>
      <trkpt lat="36.470083" lon="-6.089637">
        <ele>72.873</ele>
        <time>2015-06-18T16:49:46Z</time>
      </trkpt>
      <trkpt lat="36.470071" lon="-6.089623">
        <ele>73.286</ele>
        <time>2015-06-18T16:49:47Z</time>
      </trkpt>
      <trkpt lat="36.470056" lon="-6.089611">
        <ele>73.660</ele>
        <time>2015-06-18T16:49:48Z</time>
      </trkpt>
      <trkpt lat="36.470039" lon="-6.089600">
        <ele>74.025</ele>
        <time>2015-06-18T16:49:49Z</time>
      </trkpt>
      <trkpt lat="36.470021" lon="-6.089589">
        <ele>74.426</ele>
        <time>2015-06-18T16:49:50Z</time>
      </trkpt>
      <trkpt lat="36.469976" lon="-6.089576">
        <ele>73.808</ele>
        <time>2015-06-18T16:49:52Z</time>
      </trkpt>
      <trkpt lat="36.469951" lon="-6.089567">
        <ele>73.408</ele>
        <time>2015-06-18T16:49:53Z</time>
      </trkpt>
      <trkpt lat="36.469926" lon="-6.089563">
        <ele>73.043</ele>
        <time>2015-06-18T16:49:54Z</time>
      </trkpt>
      <trkpt lat="36.469900" lon="-6.089560">
        <ele>73.419</ele>
        <time>2015-06-18T16:49:55Z</time>
      </trkpt>
      <trkpt lat="36.469875" lon="-6.089559">
        <ele>73.695</ele>
        <time>2015-06-18T16:49:56Z</time>
      </trkpt>
      <trkpt lat="36.469850" lon="-6.089558">
        <ele>74.014</ele>
        <time>2015-06-18T16:49:57Z</time>
      </trkpt>
      <trkpt lat="36.469825" lon="-6.089560">
        <ele>74.277</ele>
        <time>2015-06-18T16:49:58Z</time>
      </trkpt>
      <trkpt lat="36.469800" lon="-6.089562">
        <ele>74.679</ele>
        <time>2015-06-18T16:49:59Z</time>
      </trkpt>
      <trkpt lat="36.469749" lon="-6.089563">
        <ele>74.632</ele>
        <time>2015-06-18T16:50:01Z</time>
      </trkpt>
      <trkpt lat="36.469599" lon="-6.089573">
        <ele>74.656</ele>
        <time>2015-06-18T16:50:07Z</time>
      </trkpt>
      <trkpt lat="36.469573" lon="-6.089575">
        <ele>74.655</ele>
        <time>2015-06-18T16:50:08Z</time>
      </trkpt>
      <trkpt lat="36.469376" lon="-6.089597">
        <ele>74.607</ele>
        <time>2015-06-18T16:50:16Z</time>
      </trkpt>
      <trkpt lat="36.469282" lon="-6.089603">
        <ele>75.017</ele>
        <time>2015-06-18T16:50:20Z</time>
      </trkpt>
      <trkpt lat="36.469264" lon="-6.089605">
        <ele>75.408</ele>
        <time>2015-06-18T16:50:21Z</time>
      </trkpt>
      <trkpt lat="36.469243" lon="-6.089612">
        <ele>75.816</ele>
        <time>2015-06-18T16:50:22Z</time>
      </trkpt>
      <trkpt lat="36.469218" lon="-6.089620">
        <ele>76.272</ele>
        <time>2015-06-18T16:50:23Z</time>
      </trkpt>
      <trkpt lat="36.469193" lon="-6.089624">
        <ele>76.618</ele>
        <time>2015-06-18T16:50:24Z</time>
      </trkpt>
      <trkpt lat="36.469100" lon="-6.089651">
        <ele>76.677</ele>
        <time>2015-06-18T16:50:28Z</time>
      </trkpt>
      <trkpt lat="36.468986" lon="-6.089651">
        <ele>76.630</ele>
        <time>2015-06-18T16:50:33Z</time>
      </trkpt>
      <trkpt lat="36.468844" lon="-6.089663">
        <ele>76.642</ele>
        <time>2015-06-18T16:50:40Z</time>
      </trkpt>
      <trkpt lat="36.468692" lon="-6.089660">
        <ele>76.645</ele>
        <time>2015-06-18T16:50:45Z</time>
      </trkpt>
      <trkpt lat="36.468512" lon="-6.089668">
        <ele>76.649</ele>
        <time>2015-06-18T16:50:50Z</time>
      </trkpt>
      <trkpt lat="36.468427" lon="-6.089675">
        <ele>76.695</ele>
        <time>2015-06-18T16:50:52Z</time>
      </trkpt>
      <trkpt lat="36.468152" lon="-6.089687">
        <ele>76.649</ele>
        <time>2015-06-18T16:50:58Z</time>
      </trkpt>
      <trkpt lat="36.467988" lon="-6.089686">
        <ele>76.623</ele>
        <time>2015-06-18T16:51:02Z</time>
      </trkpt>
      <trkpt lat="36.467907" lon="-6.089696">
        <ele>76.608</ele>
        <time>2015-06-18T16:51:04Z</time>
      </trkpt>
      <trkpt lat="36.467610" lon="-6.089715">
        <ele>76.240</ele>
        <time>2015-06-18T16:51:11Z</time>
      </trkpt>
      <trkpt lat="36.467566" lon="-6.089715">
        <ele>75.896</ele>
        <time>2015-06-18T16:51:12Z</time>
      </trkpt>
      <trkpt lat="36.467522" lon="-6.089713">
        <ele>75.242</ele>
        <time>2015-06-18T16:51:13Z</time>
      </trkpt>
      <trkpt lat="36.467477" lon="-6.089713">
        <ele>74.851</ele>
        <time>2015-06-18T16:51:14Z</time>
      </trkpt>
      <trkpt lat="36.467437" lon="-6.089715">
        <ele>74.444</ele>
        <time>2015-06-18T16:51:15Z</time>
      </trkpt>
      <trkpt lat="36.467239" lon="-6.089721">
        <ele>74.426</ele>
        <time>2015-06-18T16:51:20Z</time>
      </trkpt>
      <trkpt lat="36.467199" lon="-6.089721">
        <ele>74.459</ele>
        <time>2015-06-18T16:51:21Z</time>
      </trkpt>
      <trkpt lat="36.467090" lon="-6.089723">
        <ele>74.483</ele>
        <time>2015-06-18T16:51:24Z</time>
      </trkpt>
      <trkpt lat="36.466965" lon="-6.089716">
        <ele>74.419</ele>
        <time>2015-06-18T16:51:28Z</time>
      </trkpt>
      <trkpt lat="36.466935" lon="-6.089723">
        <ele>74.409</ele>
        <time>2015-06-18T16:51:29Z</time>
      </trkpt>
      <trkpt lat="36.466889" lon="-6.089732">
        <ele>74.419</ele>
        <time>2015-06-18T16:51:31Z</time>
      </trkpt>
      <trkpt lat="36.466869" lon="-6.089748">
        <ele>74.408</ele>
        <time>2015-06-18T16:51:32Z</time>
      </trkpt>
      <trkpt lat="36.466828" lon="-6.089763">
        <ele>74.492</ele>
        <time>2015-06-18T16:51:34Z</time>
      </trkpt>
      <trkpt lat="36.466788" lon="-6.089760">
        <ele>74.428</ele>
        <time>2015-06-18T16:51:36Z</time>
      </trkpt>
      <trkpt lat="36.466715" lon="-6.089759">
        <ele>74.454</ele>
        <time>2015-06-18T16:51:39Z</time>
      </trkpt>
      <trkpt lat="36.466688" lon="-6.089766">
        <ele>74.433</ele>
        <time>2015-06-18T16:51:40Z</time>
      </trkpt>
      <trkpt lat="36.466414" lon="-6.089791">
        <ele>74.436</ele>
        <time>2015-06-18T16:51:48Z</time>
      </trkpt>
      <trkpt lat="36.466233" lon="-6.089797">
        <ele>74.478</ele>
        <time>2015-06-18T16:51:53Z</time>
      </trkpt>
      <trkpt lat="36.465946" lon="-6.089765">
        <ele>74.441</ele>
        <time>2015-06-18T16:52:01Z</time>
      </trkpt>
      <trkpt lat="36.465862" lon="-6.089715">
        <ele>74.475</ele>
        <time>2015-06-18T16:52:04Z</time>
      </trkpt>
      <trkpt lat="36.465844" lon="-6.089682">
        <ele>74.475</ele>
        <time>2015-06-18T16:52:05Z</time>
      </trkpt>
      <trkpt lat="36.465847" lon="-6.089531">
        <ele>74.428</ele>
        <time>2015-06-18T16:52:09Z</time>
      </trkpt>
      <trkpt lat="36.465856" lon="-6.089493">
        <ele>74.420</ele>
        <time>2015-06-18T16:52:10Z</time>
      </trkpt>
      <trkpt lat="36.465866" lon="-6.089358">
        <ele>74.408</ele>
        <time>2015-06-18T16:52:13Z</time>
      </trkpt>
      <trkpt lat="36.465869" lon="-6.089310">
        <ele>74.458</ele>
        <time>2015-06-18T16:52:14Z</time>
      </trkpt>
      <trkpt lat="36.465873" lon="-6.089259">
        <ele>74.424</ele>
        <time>2015-06-18T16:52:15Z</time>
      </trkpt>
      <trkpt lat="36.465880" lon="-6.089162">
        <ele>74.480</ele>
        <time>2015-06-18T16:52:17Z</time>
      </trkpt>
      <trkpt lat="36.465867" lon="-6.089036">
        <ele>74.459</ele>
        <time>2015-06-18T16:52:20Z</time>
      </trkpt>
      <trkpt lat="36.465821" lon="-6.088925">
        <ele>74.452</ele>
        <time>2015-06-18T16:52:23Z</time>
      </trkpt>
      <trkpt lat="36.465795" lon="-6.088901">
        <ele>74.434</ele>
        <time>2015-06-18T16:52:24Z</time>
      </trkpt>
      <trkpt lat="36.465614" lon="-6.088805">
        <ele>74.467</ele>
        <time>2015-06-18T16:52:30Z</time>
      </trkpt>
      <trkpt lat="36.465260" lon="-6.088724">
        <ele>74.481</ele>
        <time>2015-06-18T16:52:40Z</time>
      </trkpt>
      <trkpt lat="36.465127" lon="-6.088716">
        <ele>74.419</ele>
        <time>2015-06-18T16:52:45Z</time>
      </trkpt>
      <trkpt lat="36.464961" lon="-6.088721">
        <ele>74.409</ele>
        <time>2015-06-18T16:52:50Z</time>
      </trkpt>
      <trkpt lat="36.464698" lon="-6.088714">
        <ele>74.419</ele>
        <time>2015-06-18T16:52:57Z</time>
      </trkpt>
      <trkpt lat="36.464365" lon="-6.088674">
        <ele>74.408</ele>
        <time>2015-06-18T16:53:06Z</time>
      </trkpt>
      <trkpt lat="36.464136" lon="-6.088619">
        <ele>74.432</ele>
        <time>2015-06-18T16:53:13Z</time>
      </trkpt>
      <trkpt lat="36.463908" lon="-6.088572">
        <ele>74.428</ele>
        <time>2015-06-18T16:53:21Z</time>
      </trkpt>
      <trkpt lat="36.463878" lon="-6.088576">
        <ele>74.824</ele>
        <time>2015-06-18T16:53:22Z</time>
      </trkpt>
      <trkpt lat="36.463847" lon="-6.088572">
        <ele>75.223</ele>
        <time>2015-06-18T16:53:23Z</time>
      </trkpt>
      <trkpt lat="36.463817" lon="-6.088567">
        <ele>75.686</ele>
        <time>2015-06-18T16:53:24Z</time>
      </trkpt>
      <trkpt lat="36.463785" lon="-6.088561">
        <ele>76.048</ele>
        <time>2015-06-18T16:53:25Z</time>
      </trkpt>
      <trkpt lat="36.463753" lon="-6.088559">
        <ele>76.431</ele>
        <time>2015-06-18T16:53:26Z</time>
      </trkpt>
      <trkpt lat="36.463721" lon="-6.088559">
        <ele>76.475</ele>
        <time>2015-06-18T16:53:27Z</time>
      </trkpt>
      <trkpt lat="36.463532" lon="-6.088548">
        <ele>76.441</ele>
        <time>2015-06-18T16:53:34Z</time>
      </trkpt>
      <trkpt lat="36.463410" lon="-6.088504">
        <ele>76.481</ele>
        <time>2015-06-18T16:53:41Z</time>
      </trkpt>
      <trkpt lat="36.463280" lon="-6.088473">
        <ele>76.409</ele>
        <time>2015-06-18T16:53:47Z</time>
      </trkpt>
      <trkpt lat="36.463137" lon="-6.088442">
        <ele>76.408</ele>
        <time>2015-06-18T16:53:53Z</time>
      </trkpt>
      <trkpt lat="36.462963" lon="-6.088399">
        <ele>76.435</ele>
        <time>2015-06-18T16:54:00Z</time>
      </trkpt>
      <trkpt lat="36.462866" lon="-6.088368">
        <ele>76.891</ele>
        <time>2015-06-18T16:54:04Z</time>
      </trkpt>
      <trkpt lat="36.462841" lon="-6.088359">
        <ele>77.467</ele>
        <time>2015-06-18T16:54:05Z</time>
      </trkpt>
      <trkpt lat="36.462814" lon="-6.088352">
        <ele>77.846</ele>
        <time>2015-06-18T16:54:06Z</time>
      </trkpt>
      <trkpt lat="36.462786" lon="-6.088340">
        <ele>78.269</ele>
        <time>2015-06-18T16:54:07Z</time>
      </trkpt>
      <trkpt lat="36.462754" lon="-6.088330">
        <ele>78.681</ele>
        <time>2015-06-18T16:54:08Z</time>
      </trkpt>
      <trkpt lat="36.462658" lon="-6.088312">
        <ele>78.694</ele>
        <time>2015-06-18T16:54:11Z</time>
      </trkpt>
      <trkpt lat="36.462581" lon="-6.088278">
        <ele>78.618</ele>
        <time>2015-06-18T16:54:14Z</time>
      </trkpt>
      <trkpt lat="36.462522" lon="-6.088256">
        <ele>78.695</ele>
        <time>2015-06-18T16:54:16Z</time>
      </trkpt>
      <trkpt lat="36.462398" lon="-6.088207">
        <ele>78.649</ele>
        <time>2015-06-18T16:54:20Z</time>
      </trkpt>
      <trkpt lat="36.462368" lon="-6.088202">
        <ele>78.623</ele>
        <time>2015-06-18T16:54:21Z</time>
      </trkpt>
      <trkpt lat="36.462096" lon="-6.088160">
        <ele>78.608</ele>
        <time>2015-06-18T16:54:29Z</time>
      </trkpt>
      <trkpt lat="36.461783" lon="-6.088120">
        <ele>78.640</ele>
        <time>2015-06-18T16:54:38Z</time>
      </trkpt>
      <trkpt lat="36.461494" lon="-6.088106">
        <ele>78.646</ele>
        <time>2015-06-18T16:54:46Z</time>
      </trkpt>
      <trkpt lat="36.461331" lon="-6.088081">
        <ele>78.672</ele>
        <time>2015-06-18T16:54:51Z</time>
      </trkpt>
      <trkpt lat="36.461118" lon="-6.088089">
        <ele>78.631</ele>
        <time>2015-06-18T16:54:57Z</time>
      </trkpt>
      <trkpt lat="36.460939" lon="-6.088090">
        <ele>78.614</ele>
        <time>2015-06-18T16:55:02Z</time>
      </trkpt>
      <trkpt lat="36.460719" lon="-6.088079">
        <ele>78.666</ele>
        <time>2015-06-18T16:55:09Z</time>
      </trkpt>
      <trkpt lat="36.460448" lon="-6.088071">
        <ele>78.649</ele>
        <time>2015-06-18T16:55:17Z</time>
      </trkpt>
      <trkpt lat="36.460298" lon="-6.088064">
        <ele>79.073</ele>
        <time>2015-06-18T16:55:22Z</time>
      </trkpt>
      <trkpt lat="36.460268" lon="-6.088065">
        <ele>79.491</ele>
        <time>2015-06-18T16:55:23Z</time>
      </trkpt>
      <trkpt lat="36.460237" lon="-6.088064">
        <ele>79.881</ele>
        <time>2015-06-18T16:55:24Z</time>
      </trkpt>
      <trkpt lat="36.460208" lon="-6.088063">
        <ele>80.219</ele>
        <time>2015-06-18T16:55:25Z</time>
      </trkpt>
      <trkpt lat="36.460178" lon="-6.088067">
        <ele>80.608</ele>
        <time>2015-06-18T16:55:26Z</time>
      </trkpt>
      <trkpt lat="36.459956" lon="-6.088072">
        <ele>80.640</ele>
        <time>2015-06-18T16:55:34Z</time>
      </trkpt>
      <trkpt lat="36.459909" lon="-6.088078">
        <ele>81.046</ele>
        <time>2015-06-18T16:55:36Z</time>
      </trkpt>
      <trkpt lat="36.459887" lon="-6.088078">
        <ele>81.622</ele>
        <time>2015-06-18T16:55:37Z</time>
      </trkpt>
      <trkpt lat="36.459864" lon="-6.088073">
        <ele>82.071</ele>
        <time>2015-06-18T16:55:38Z</time>
      </trkpt>
      <trkpt lat="36.459840" lon="-6.088074">
        <ele>82.444</ele>
        <time>2015-06-18T16:55:39Z</time>
      </trkpt>
      <trkpt lat="36.459815" lon="-6.088072">
        <ele>82.856</ele>
        <time>2015-06-18T16:55:40Z</time>
      </trkpt>
      <trkpt lat="36.459788" lon="-6.088071">
        <ele>82.889</ele>
        <time>2015-06-18T16:55:41Z</time>
      </trkpt>
      <trkpt lat="36.459646" lon="-6.088059">
        <ele>82.853</ele>
        <time>2015-06-18T16:55:47Z</time>
      </trkpt>
      <trkpt lat="36.459498" lon="-6.088038">
        <ele>82.856</ele>
        <time>2015-06-18T16:55:53Z</time>
      </trkpt>
      <trkpt lat="36.459430" lon="-6.088025">
        <ele>83.259</ele>
        <time>2015-06-18T16:55:56Z</time>
      </trkpt>
      <trkpt lat="36.459408" lon="-6.088023">
        <ele>83.614</ele>
        <time>2015-06-18T16:55:57Z</time>
      </trkpt>
      <trkpt lat="36.459383" lon="-6.088025">
        <ele>84.208</ele>
        <time>2015-06-18T16:55:58Z</time>
      </trkpt>
      <trkpt lat="36.459360" lon="-6.088028">
        <ele>84.666</ele>
        <time>2015-06-18T16:55:59Z</time>
      </trkpt>
      <trkpt lat="36.459335" lon="-6.088039">
        <ele>85.052</ele>
        <time>2015-06-18T16:56:00Z</time>
      </trkpt>
      <trkpt lat="36.459232" lon="-6.088053">
        <ele>85.058</ele>
        <time>2015-06-18T16:56:04Z</time>
      </trkpt>
      <trkpt lat="36.459059" lon="-6.088043">
        <ele>85.017</ele>
        <time>2015-06-18T16:56:10Z</time>
      </trkpt>
      <trkpt lat="36.458885" lon="-6.088046">
        <ele>85.030</ele>
        <time>2015-06-18T16:56:16Z</time>
      </trkpt>
      <trkpt lat="36.458694" lon="-6.088066">
        <ele>85.042</ele>
        <time>2015-06-18T16:56:21Z</time>
      </trkpt>
      <trkpt lat="36.458614" lon="-6.088052">
        <ele>85.055</ele>
        <time>2015-06-18T16:56:23Z</time>
      </trkpt>
      <trkpt lat="36.458499" lon="-6.088022">
        <ele>85.049</ele>
        <time>2015-06-18T16:56:26Z</time>
      </trkpt>
      <trkpt lat="36.458223" lon="-6.087985">
        <ele>85.015</ele>
        <time>2015-06-18T16:56:33Z</time>
      </trkpt>
      <trkpt lat="36.458057" lon="-6.087934">
        <ele>85.065</ele>
        <time>2015-06-18T16:56:37Z</time>
      </trkpt>
      <trkpt lat="36.457959" lon="-6.087913">
        <ele>85.011</ele>
        <time>2015-06-18T16:56:39Z</time>
      </trkpt>
      <trkpt lat="36.457778" lon="-6.087858">
        <ele>85.008</ele>
        <time>2015-06-18T16:56:43Z</time>
      </trkpt>
      <trkpt lat="36.457683" lon="-6.087845">
        <ele>85.012</ele>
        <time>2015-06-18T16:56:45Z</time>
      </trkpt>
      <trkpt lat="36.457454" lon="-6.087811">
        <ele>84.688</ele>
        <time>2015-06-18T16:56:49Z</time>
      </trkpt>
      <trkpt lat="36.457390" lon="-6.087806">
        <ele>84.024</ele>
        <time>2015-06-18T16:56:50Z</time>
      </trkpt>
      <trkpt lat="36.457322" lon="-6.087802">
        <ele>83.633</ele>
        <time>2015-06-18T16:56:51Z</time>
      </trkpt>
      <trkpt lat="36.457253" lon="-6.087802">
        <ele>83.296</ele>
        <time>2015-06-18T16:56:52Z</time>
      </trkpt>
      <trkpt lat="36.457181" lon="-6.087801">
        <ele>82.858</ele>
        <time>2015-06-18T16:56:53Z</time>
      </trkpt>
      <trkpt lat="36.457028" lon="-6.087814">
        <ele>82.221</ele>
        <time>2015-06-18T16:56:55Z</time>
      </trkpt>
      <trkpt lat="36.456953" lon="-6.087819">
        <ele>81.835</ele>
        <time>2015-06-18T16:56:56Z</time>
      </trkpt>
      <trkpt lat="36.456879" lon="-6.087818">
        <ele>81.443</ele>
        <time>2015-06-18T16:56:57Z</time>
      </trkpt>
      <trkpt lat="36.456804" lon="-6.087818">
        <ele>81.064</ele>
        <time>2015-06-18T16:56:58Z</time>
      </trkpt>
      <trkpt lat="36.456730" lon="-6.087821">
        <ele>80.610</ele>
        <time>2015-06-18T16:56:59Z</time>
      </trkpt>
      <trkpt lat="36.456513" lon="-6.087836">
        <ele>80.608</ele>
        <time>2015-06-18T16:57:02Z</time>
      </trkpt>
      <trkpt lat="36.456375" lon="-6.087862">
        <ele>80.025</ele>
        <time>2015-06-18T16:57:04Z</time>
      </trkpt>
      <trkpt lat="36.456309" lon="-6.087878">
        <ele>79.671</ele>
        <time>2015-06-18T16:57:05Z</time>
      </trkpt>
      <trkpt lat="36.456248" lon="-6.087895">
        <ele>79.237</ele>
        <time>2015-06-18T16:57:06Z</time>
      </trkpt>
      <trkpt lat="36.456186" lon="-6.087904">
        <ele>78.826</ele>
        <time>2015-06-18T16:57:07Z</time>
      </trkpt>
      <trkpt lat="36.456123" lon="-6.087921">
        <ele>78.469</ele>
        <time>2015-06-18T16:57:08Z</time>
      </trkpt>
      <trkpt lat="36.455999" lon="-6.087958">
        <ele>78.441</ele>
        <time>2015-06-18T16:57:10Z</time>
      </trkpt>
      <trkpt lat="36.455880" lon="-6.087999">
        <ele>78.034</ele>
        <time>2015-06-18T16:57:12Z</time>
      </trkpt>
      <trkpt lat="36.455824" lon="-6.088019">
        <ele>77.628</ele>
        <time>2015-06-18T16:57:13Z</time>
      </trkpt>
      <trkpt lat="36.455766" lon="-6.088038">
        <ele>77.261</ele>
        <time>2015-06-18T16:57:14Z</time>
      </trkpt>
      <trkpt lat="36.455710" lon="-6.088056">
        <ele>76.821</ele>
        <time>2015-06-18T16:57:15Z</time>
      </trkpt>
      <trkpt lat="36.455655" lon="-6.088079">
        <ele>76.413</ele>
        <time>2015-06-18T16:57:16Z</time>
      </trkpt>
      <trkpt lat="36.455600" lon="-6.088099">
        <ele>76.408</ele>
        <time>2015-06-18T16:57:17Z</time>
      </trkpt>
      <trkpt lat="36.455271" lon="-6.088221">
        <ele>76.497</ele>
        <time>2015-06-18T16:57:23Z</time>
      </trkpt>
      <trkpt lat="36.455104" lon="-6.088272">
        <ele>76.023</ele>
        <time>2015-06-18T16:57:26Z</time>
      </trkpt>
      <trkpt lat="36.455053" lon="-6.088299">
        <ele>75.659</ele>
        <time>2015-06-18T16:57:27Z</time>
      </trkpt>
      <trkpt lat="36.455000" lon="-6.088318">
        <ele>75.048</ele>
        <time>2015-06-18T16:57:28Z</time>
      </trkpt>
      <trkpt lat="36.454949" lon="-6.088340">
        <ele>74.651</ele>
        <time>2015-06-18T16:57:29Z</time>
      </trkpt>
      <trkpt lat="36.454897" lon="-6.088360">
        <ele>74.283</ele>
        <time>2015-06-18T16:57:30Z</time>
      </trkpt>
      <trkpt lat="36.454679" lon="-6.088434">
        <ele>73.846</ele>
        <time>2015-06-18T16:57:34Z</time>
      </trkpt>
      <trkpt lat="36.454626" lon="-6.088451">
        <ele>73.430</ele>
        <time>2015-06-18T16:57:35Z</time>
      </trkpt>
      <trkpt lat="36.454574" lon="-6.088467">
        <ele>73.053</ele>
        <time>2015-06-18T16:57:36Z</time>
      </trkpt>
      <trkpt lat="36.454523" lon="-6.088486">
        <ele>72.604</ele>
        <time>2015-06-18T16:57:37Z</time>
      </trkpt>
      <trkpt lat="36.454471" lon="-6.088503">
        <ele>72.014</ele>
        <time>2015-06-18T16:57:38Z</time>
      </trkpt>
      <trkpt lat="36.454271" lon="-6.088573">
        <ele>72.008</ele>
        <time>2015-06-18T16:57:42Z</time>
      </trkpt>
      <trkpt lat="36.454178" lon="-6.088608">
        <ele>72.046</ele>
        <time>2015-06-18T16:57:44Z</time>
      </trkpt>
      <trkpt lat="36.453962" lon="-6.088690">
        <ele>72.022</ele>
        <time>2015-06-18T16:57:49Z</time>
      </trkpt>
      <trkpt lat="36.453922" lon="-6.088706">
        <ele>72.098</ele>
        <time>2015-06-18T16:57:50Z</time>
      </trkpt>
      <trkpt lat="36.453715" lon="-6.088792">
        <ele>72.037</ele>
        <time>2015-06-18T16:57:55Z</time>
      </trkpt>
      <trkpt lat="36.453628" lon="-6.088834">
        <ele>72.060</ele>
        <time>2015-06-18T16:57:57Z</time>
      </trkpt>
      <trkpt lat="36.453587" lon="-6.088856">
        <ele>71.262</ele>
        <time>2015-06-18T16:57:58Z</time>
      </trkpt>
      <trkpt lat="36.453544" lon="-6.088872">
        <ele>70.885</ele>
        <time>2015-06-18T16:57:59Z</time>
      </trkpt>
      <trkpt lat="36.453499" lon="-6.088883">
        <ele>70.469</ele>
        <time>2015-06-18T16:58:00Z</time>
      </trkpt>
      <trkpt lat="36.453458" lon="-6.088901">
        <ele>70.093</ele>
        <time>2015-06-18T16:58:01Z</time>
      </trkpt>
      <trkpt lat="36.453385" lon="-6.088950">
        <ele>70.065</ele>
        <time>2015-06-18T16:58:03Z</time>
      </trkpt>
      <trkpt lat="36.453314" lon="-6.088986">
        <ele>70.021</ele>
        <time>2015-06-18T16:58:05Z</time>
      </trkpt>
      <trkpt lat="36.453226" lon="-6.089044">
        <ele>70.008</ele>
        <time>2015-06-18T16:58:08Z</time>
      </trkpt>
      <trkpt lat="36.453024" lon="-6.089158">
        <ele>70.020</ele>
        <time>2015-06-18T16:58:14Z</time>
      </trkpt>
      <trkpt lat="36.452882" lon="-6.089253">
        <ele>70.056</ele>
        <time>2015-06-18T16:58:19Z</time>
      </trkpt>
      <trkpt lat="36.452696" lon="-6.089374">
        <ele>70.092</ele>
        <time>2015-06-18T16:58:26Z</time>
      </trkpt>
      <trkpt lat="36.452567" lon="-6.089457">
        <ele>70.081</ele>
        <time>2015-06-18T16:58:30Z</time>
      </trkpt>
      <trkpt lat="36.452349" lon="-6.089572">
        <ele>70.094</ele>
        <time>2015-06-18T16:58:36Z</time>
      </trkpt>
      <trkpt lat="36.452311" lon="-6.089591">
        <ele>70.076</ele>
        <time>2015-06-18T16:58:37Z</time>
      </trkpt>
      <trkpt lat="36.452152" lon="-6.089679">
        <ele>70.099</ele>
        <time>2015-06-18T16:58:41Z</time>
      </trkpt>
      <trkpt lat="36.452032" lon="-6.089728">
        <ele>70.073</ele>
        <time>2015-06-18T16:58:44Z</time>
      </trkpt>
      <trkpt lat="36.451949" lon="-6.089757">
        <ele>70.059</ele>
        <time>2015-06-18T16:58:46Z</time>
      </trkpt>
      <trkpt lat="36.451776" lon="-6.089821">
        <ele>70.003</ele>
        <time>2015-06-18T16:58:50Z</time>
      </trkpt>
      <trkpt lat="36.451734" lon="-6.089842">
        <ele>70.023</ele>
        <time>2015-06-18T16:58:51Z</time>
      </trkpt>
      <trkpt lat="36.451553" lon="-6.089899">
        <ele>70.008</ele>
        <time>2015-06-18T16:58:55Z</time>
      </trkpt>
      <trkpt lat="36.451286" lon="-6.089986">
        <ele>70.026</ele>
        <time>2015-06-18T16:59:01Z</time>
      </trkpt>
      <trkpt lat="36.451150" lon="-6.090043">
        <ele>70.022</ele>
        <time>2015-06-18T16:59:04Z</time>
      </trkpt>
      <trkpt lat="36.451063" lon="-6.090079">
        <ele>70.088</ele>
        <time>2015-06-18T16:59:06Z</time>
      </trkpt>
      <trkpt lat="36.450867" lon="-6.090151">
        <ele>70.047</ele>
        <time>2015-06-18T16:59:10Z</time>
      </trkpt>
      <trkpt lat="36.450781" lon="-6.090186">
        <ele>70.010</ele>
        <time>2015-06-18T16:59:12Z</time>
      </trkpt>
      <trkpt lat="36.450707" lon="-6.090240">
        <ele>70.072</ele>
        <time>2015-06-18T16:59:14Z</time>
      </trkpt>
      <trkpt lat="36.450623" lon="-6.090282">
        <ele>70.035</ele>
        <time>2015-06-18T16:59:16Z</time>
      </trkpt>
      <trkpt lat="36.450496" lon="-6.090364">
        <ele>70.049</ele>
        <time>2015-06-18T16:59:19Z</time>
      </trkpt>
      <trkpt lat="36.450454" lon="-6.090394">
        <ele>70.015</ele>
        <time>2015-06-18T16:59:20Z</time>
      </trkpt>
      <trkpt lat="36.450279" lon="-6.090542">
        <ele>70.065</ele>
        <time>2015-06-18T16:59:25Z</time>
      </trkpt>
      <trkpt lat="36.450088" lon="-6.090698">
        <ele>70.011</ele>
        <time>2015-06-18T16:59:31Z</time>
      </trkpt>
      <trkpt lat="36.450049" lon="-6.090729">
        <ele>70.008</ele>
        <time>2015-06-18T16:59:32Z</time>
      </trkpt>
      <trkpt lat="36.449912" lon="-6.090871">
        <ele>70.072</ele>
        <time>2015-06-18T16:59:36Z</time>
      </trkpt>
      <trkpt lat="36.449881" lon="-6.090902">
        <ele>70.078</ele>
        <time>2015-06-18T16:59:37Z</time>
      </trkpt>
      <trkpt lat="36.449853" lon="-6.090939">
        <ele>70.024</ele>
        <time>2015-06-18T16:59:38Z</time>
      </trkpt>
      <trkpt lat="36.449782" lon="-6.091006">
        <ele>70.033</ele>
        <time>2015-06-18T16:59:40Z</time>
      </trkpt>
      <trkpt lat="36.449705" lon="-6.091095">
        <ele>70.086</ele>
        <time>2015-06-18T16:59:42Z</time>
      </trkpt>
      <trkpt lat="36.449661" lon="-6.091135">
        <ele>70.048</ele>
        <time>2015-06-18T16:59:43Z</time>
      </trkpt>
      <trkpt lat="36.449439" lon="-6.091349">
        <ele>70.051</ele>
        <time>2015-06-18T16:59:48Z</time>
      </trkpt>
      <trkpt lat="36.449102" lon="-6.091571">
        <ele>70.065</ele>
        <time>2015-06-18T16:59:55Z</time>
      </trkpt>
      <trkpt lat="36.448696" lon="-6.091736">
        <ele>70.075</ele>
        <time>2015-06-18T17:00:03Z</time>
      </trkpt>
      <trkpt lat="36.448599" lon="-6.091797">
        <ele>70.028</ele>
        <time>2015-06-18T17:00:05Z</time>
      </trkpt>
      <trkpt lat="36.448474" lon="-6.091914">
        <ele>70.020</ele>
        <time>2015-06-18T17:00:08Z</time>
      </trkpt>
      <trkpt lat="36.448389" lon="-6.091983">
        <ele>70.008</ele>
        <time>2015-06-18T17:00:10Z</time>
      </trkpt>
      <trkpt lat="36.448259" lon="-6.092065">
        <ele>70.028</ele>
        <time>2015-06-18T17:00:13Z</time>
      </trkpt>
      <trkpt lat="36.448049" lon="-6.092195">
        <ele>70.024</ele>
        <time>2015-06-18T17:00:18Z</time>
      </trkpt>
      <trkpt lat="36.448004" lon="-6.092219">
        <ele>70.080</ele>
        <time>2015-06-18T17:00:19Z</time>
      </trkpt>
      <trkpt lat="36.447843" lon="-6.092310">
        <ele>70.099</ele>
        <time>2015-06-18T17:00:23Z</time>
      </trkpt>
      <trkpt lat="36.447643" lon="-6.092446">
        <ele>70.082</ele>
        <time>2015-06-18T17:00:29Z</time>
      </trkpt>
      <trkpt lat="36.447462" lon="-6.092569">
        <ele>70.034</ele>
        <time>2015-06-18T17:00:34Z</time>
      </trkpt>
      <trkpt lat="36.447309" lon="-6.092675">
        <ele>70.057</ele>
        <time>2015-06-18T17:00:39Z</time>
      </trkpt>
      <trkpt lat="36.447128" lon="-6.092752">
        <ele>70.041</ele>
        <time>2015-06-18T17:00:44Z</time>
      </trkpt>
      <trkpt lat="36.447022" lon="-6.092826">
        <ele>70.095</ele>
        <time>2015-06-18T17:00:47Z</time>
      </trkpt>
      <trkpt lat="36.446911" lon="-6.092882">
        <ele>70.049</ele>
        <time>2015-06-18T17:00:50Z</time>
      </trkpt>
      <trkpt lat="36.446699" lon="-6.093020">
        <ele>69.623</ele>
        <time>2015-06-18T17:00:56Z</time>
      </trkpt>
      <trkpt lat="36.446656" lon="-6.093046">
        <ele>69.208</ele>
        <time>2015-06-18T17:00:57Z</time>
      </trkpt>
      <trkpt lat="36.446610" lon="-6.093076">
        <ele>68.810</ele>
        <time>2015-06-18T17:00:58Z</time>
      </trkpt>
      <trkpt lat="36.446569" lon="-6.093113">
        <ele>68.486</ele>
        <time>2015-06-18T17:00:59Z</time>
      </trkpt>
      <trkpt lat="36.446530" lon="-6.093148">
        <ele>68.082</ele>
        <time>2015-06-18T17:01:00Z</time>
      </trkpt>
      <trkpt lat="36.446419" lon="-6.093262">
        <ele>68.091</ele>
        <time>2015-06-18T17:01:03Z</time>
      </trkpt>
      <trkpt lat="36.446325" lon="-6.093328">
        <ele>68.044</ele>
        <time>2015-06-18T17:01:05Z</time>
      </trkpt>
      <trkpt lat="36.446219" lon="-6.093394">
        <ele>68.046</ele>
        <time>2015-06-18T17:01:07Z</time>
      </trkpt>
      <trkpt lat="36.445926" lon="-6.093567">
        <ele>68.069</ele>
        <time>2015-06-18T17:01:13Z</time>
      </trkpt>
      <trkpt lat="36.445760" lon="-6.093685">
        <ele>68.093</ele>
        <time>2015-06-18T17:01:17Z</time>
      </trkpt>
      <trkpt lat="36.445673" lon="-6.093738">
        <ele>68.067</ele>
        <time>2015-06-18T17:01:19Z</time>
      </trkpt>
      <trkpt lat="36.445452" lon="-6.093897">
        <ele>68.081</ele>
        <time>2015-06-18T17:01:24Z</time>
      </trkpt>
      <trkpt lat="36.445405" lon="-6.093928">
        <ele>68.019</ele>
        <time>2015-06-18T17:01:25Z</time>
      </trkpt>
      <trkpt lat="36.445281" lon="-6.094024">
        <ele>68.008</ele>
        <time>2015-06-18T17:01:28Z</time>
      </trkpt>
      <trkpt lat="36.445237" lon="-6.094047">
        <ele>68.027</ele>
        <time>2015-06-18T17:01:29Z</time>
      </trkpt>
      <trkpt lat="36.445151" lon="-6.094102">
        <ele>68.063</ele>
        <time>2015-06-18T17:01:31Z</time>
      </trkpt>
      <trkpt lat="36.444868" lon="-6.094314">
        <ele>68.019</ele>
        <time>2015-06-18T17:01:37Z</time>
      </trkpt>
      <trkpt lat="36.444766" lon="-6.094383">
        <ele>67.668</ele>
        <time>2015-06-18T17:01:39Z</time>
      </trkpt>
      <trkpt lat="36.444709" lon="-6.094422">
        <ele>67.231</ele>
        <time>2015-06-18T17:01:40Z</time>
      </trkpt>
      <trkpt lat="36.444656" lon="-6.094458">
        <ele>66.873</ele>
        <time>2015-06-18T17:01:41Z</time>
      </trkpt>
      <trkpt lat="36.444599" lon="-6.094492">
        <ele>66.486</ele>
        <time>2015-06-18T17:01:42Z</time>
      </trkpt>
      <trkpt lat="36.444545" lon="-6.094533">
        <ele>66.090</ele>
        <time>2015-06-18T17:01:43Z</time>
      </trkpt>
      <trkpt lat="36.444487" lon="-6.094574">
        <ele>66.036</ele>
        <time>2015-06-18T17:01:44Z</time>
      </trkpt>
      <trkpt lat="36.444080" lon="-6.094900">
        <ele>66.017</ele>
        <time>2015-06-18T17:01:51Z</time>
      </trkpt>
      <trkpt lat="36.443919" lon="-6.095055">
        <ele>65.418</ele>
        <time>2015-06-18T17:01:54Z</time>
      </trkpt>
      <trkpt lat="36.443863" lon="-6.095105">
        <ele>65.008</ele>
        <time>2015-06-18T17:01:55Z</time>
      </trkpt>
      <trkpt lat="36.443806" lon="-6.095145">
        <ele>64.614</ele>
        <time>2015-06-18T17:01:56Z</time>
      </trkpt>
      <trkpt lat="36.443750" lon="-6.095188">
        <ele>64.240</ele>
        <time>2015-06-18T17:01:57Z</time>
      </trkpt>
      <trkpt lat="36.443696" lon="-6.095226">
        <ele>63.896</ele>
        <time>2015-06-18T17:01:58Z</time>
      </trkpt>
      <trkpt lat="36.443379" lon="-6.095482">
        <ele>63.825</ele>
        <time>2015-06-18T17:02:04Z</time>
      </trkpt>
      <trkpt lat="36.443182" lon="-6.095665">
        <ele>63.258</ele>
        <time>2015-06-18T17:02:08Z</time>
      </trkpt>
      <trkpt lat="36.443131" lon="-6.095712">
        <ele>62.650</ele>
        <time>2015-06-18T17:02:09Z</time>
      </trkpt>
      <trkpt lat="36.443086" lon="-6.095756">
        <ele>62.093</ele>
        <time>2015-06-18T17:02:10Z</time>
      </trkpt>
      <trkpt lat="36.443040" lon="-6.095801">
        <ele>61.457</ele>
        <time>2015-06-18T17:02:11Z</time>
      </trkpt>
      <trkpt lat="36.442993" lon="-6.095848">
        <ele>61.052</ele>
        <time>2015-06-18T17:02:12Z</time>
      </trkpt>
      <trkpt lat="36.442739" lon="-6.096103">
        <ele>61.053</ele>
        <time>2015-06-18T17:02:17Z</time>
      </trkpt>
      <trkpt lat="36.442686" lon="-6.096150">
        <ele>61.008</ele>
        <time>2015-06-18T17:02:18Z</time>
      </trkpt>
      <trkpt lat="36.442390" lon="-6.096334">
        <ele>61.008</ele>
        <time>2015-06-18T17:02:23Z</time>
      </trkpt>
      <trkpt lat="36.442179" lon="-6.096451">
        <ele>61.086</ele>
        <time>2015-06-18T17:02:27Z</time>
      </trkpt>
      <trkpt lat="36.442129" lon="-6.096471">
        <ele>61.052</ele>
        <time>2015-06-18T17:02:28Z</time>
      </trkpt>
      <trkpt lat="36.441844" lon="-6.096642">
        <ele>61.058</ele>
        <time>2015-06-18T17:02:34Z</time>
      </trkpt>
      <trkpt lat="36.441473" lon="-6.096876">
        <ele>61.077</ele>
        <time>2015-06-18T17:02:42Z</time>
      </trkpt>
      <trkpt lat="36.441113" lon="-6.097119">
        <ele>61.010</ele>
        <time>2015-06-18T17:02:50Z</time>
      </trkpt>
      <trkpt lat="36.441016" lon="-6.097168">
        <ele>61.062</ele>
        <time>2015-06-18T17:02:52Z</time>
      </trkpt>
      <trkpt lat="36.440883" lon="-6.097267">
        <ele>61.045</ele>
        <time>2015-06-18T17:02:55Z</time>
      </trkpt>
      <trkpt lat="36.440625" lon="-6.097464">
        <ele>61.089</ele>
        <time>2015-06-18T17:03:01Z</time>
      </trkpt>
      <trkpt lat="36.440386" lon="-6.097685">
        <ele>61.088</ele>
        <time>2015-06-18T17:03:07Z</time>
      </trkpt>
      <trkpt lat="36.440316" lon="-6.097747">
        <ele>61.024</ele>
        <time>2015-06-18T17:03:09Z</time>
      </trkpt>
      <trkpt lat="36.440236" lon="-6.097809">
        <ele>61.026</ele>
        <time>2015-06-18T17:03:11Z</time>
      </trkpt>
      <trkpt lat="36.440161" lon="-6.097884">
        <ele>61.008</ele>
        <time>2015-06-18T17:03:13Z</time>
      </trkpt>
      <trkpt lat="36.440092" lon="-6.097963">
        <ele>61.019</ele>
        <time>2015-06-18T17:03:15Z</time>
      </trkpt>
      <trkpt lat="36.439790" lon="-6.098286">
        <ele>61.075</ele>
        <time>2015-06-18T17:03:23Z</time>
      </trkpt>
      <trkpt lat="36.439710" lon="-6.098376">
        <ele>61.091</ele>
        <time>2015-06-18T17:03:25Z</time>
      </trkpt>
      <trkpt lat="36.439437" lon="-6.098671">
        <ele>61.080</ele>
        <time>2015-06-18T17:03:32Z</time>
      </trkpt>
      <trkpt lat="36.439148" lon="-6.098940">
        <ele>61.083</ele>
        <time>2015-06-18T17:03:39Z</time>
      </trkpt>
      <trkpt lat="36.438927" lon="-6.099154">
        <ele>61.065</ele>
        <time>2015-06-18T17:03:45Z</time>
      </trkpt>
      <trkpt lat="36.438827" lon="-6.099257">
        <ele>61.068</ele>
        <time>2015-06-18T17:03:48Z</time>
      </trkpt>
      <trkpt lat="36.438668" lon="-6.099416">
        <ele>61.092</ele>
        <time>2015-06-18T17:03:53Z</time>
      </trkpt>
      <trkpt lat="36.438572" lon="-6.099496">
        <ele>61.056</ele>
        <time>2015-06-18T17:03:56Z</time>
      </trkpt>
      <trkpt lat="36.438520" lon="-6.099560">
        <ele>61.059</ele>
        <time>2015-06-18T17:03:58Z</time>
      </trkpt>
      <trkpt lat="36.438430" lon="-6.099630">
        <ele>61.014</ele>
        <time>2015-06-18T17:04:01Z</time>
      </trkpt>
      <trkpt lat="36.438375" lon="-6.099682">
        <ele>61.008</ele>
        <time>2015-06-18T17:04:03Z</time>
      </trkpt>
      <trkpt lat="36.438285" lon="-6.099771">
        <ele>61.046</ele>
        <time>2015-06-18T17:04:06Z</time>
      </trkpt>
      <trkpt lat="36.438214" lon="-6.099834">
        <ele>61.072</ele>
        <time>2015-06-18T17:04:08Z</time>
      </trkpt>
      <trkpt lat="36.437947" lon="-6.100078">
        <ele>61.078</ele>
        <time>2015-06-18T17:04:15Z</time>
      </trkpt>
      <trkpt lat="36.437742" lon="-6.100271">
        <ele>61.077</ele>
        <time>2015-06-18T17:04:20Z</time>
      </trkpt>
      <trkpt lat="36.437663" lon="-6.100352">
        <ele>61.030</ele>
        <time>2015-06-18T17:04:22Z</time>
      </trkpt>
      <trkpt lat="36.437439" lon="-6.100536">
        <ele>61.092</ele>
        <time>2015-06-18T17:04:27Z</time>
      </trkpt>
      <trkpt lat="36.437339" lon="-6.100612">
        <ele>61.015</ele>
        <time>2015-06-18T17:04:29Z</time>
      </trkpt>
      <trkpt lat="36.436954" lon="-6.100868">
        <ele>61.079</ele>
        <time>2015-06-18T17:04:36Z</time>
      </trkpt>
      <trkpt lat="36.436896" lon="-6.100901">
        <ele>60.652</ele>
        <time>2015-06-18T17:04:37Z</time>
      </trkpt>
      <trkpt lat="36.436841" lon="-6.100938">
        <ele>60.053</ele>
        <time>2015-06-18T17:04:38Z</time>
      </trkpt>
      <trkpt lat="36.436786" lon="-6.100977">
        <ele>59.608</ele>
        <time>2015-06-18T17:04:39Z</time>
      </trkpt>
      <trkpt lat="36.436736" lon="-6.101021">
        <ele>59.208</ele>
        <time>2015-06-18T17:04:40Z</time>
      </trkpt>
      <trkpt lat="36.436681" lon="-6.101062">
        <ele>58.816</ele>
        <time>2015-06-18T17:04:41Z</time>
      </trkpt>
      <trkpt lat="36.436627" lon="-6.101088">
        <ele>58.882</ele>
        <time>2015-06-18T17:04:42Z</time>
      </trkpt>
      <trkpt lat="36.436311" lon="-6.101279">
        <ele>58.838</ele>
        <time>2015-06-18T17:04:48Z</time>
      </trkpt>
      <trkpt lat="36.435980" lon="-6.101501">
        <ele>58.837</ele>
        <time>2015-06-18T17:04:55Z</time>
      </trkpt>
      <trkpt lat="36.435940" lon="-6.101554">
        <ele>58.840</ele>
        <time>2015-06-18T17:04:56Z</time>
      </trkpt>
      <trkpt lat="36.435851" lon="-6.101610">
        <ele>58.012</ele>
        <time>2015-06-18T17:04:58Z</time>
      </trkpt>
      <trkpt lat="36.435808" lon="-6.101647">
        <ele>57.625</ele>
        <time>2015-06-18T17:04:59Z</time>
      </trkpt>
      <trkpt lat="36.435765" lon="-6.101684">
        <ele>57.279</ele>
        <time>2015-06-18T17:05:00Z</time>
      </trkpt>
      <trkpt lat="36.435722" lon="-6.101724">
        <ele>56.617</ele>
        <time>2015-06-18T17:05:01Z</time>
      </trkpt>
      <trkpt lat="36.435598" lon="-6.101861">
        <ele>56.687</ele>
        <time>2015-06-18T17:05:04Z</time>
      </trkpt>
      <trkpt lat="36.435484" lon="-6.102011">
        <ele>56.615</ele>
        <time>2015-06-18T17:05:07Z</time>
      </trkpt>
      <trkpt lat="36.435452" lon="-6.102066">
        <ele>56.608</ele>
        <time>2015-06-18T17:05:08Z</time>
      </trkpt>
      <trkpt lat="36.435376" lon="-6.102176">
        <ele>56.662</ele>
        <time>2015-06-18T17:05:10Z</time>
      </trkpt>
      <trkpt lat="36.435336" lon="-6.102232">
        <ele>56.248</ele>
        <time>2015-06-18T17:05:11Z</time>
      </trkpt>
      <trkpt lat="36.435298" lon="-6.102286">
        <ele>55.874</ele>
        <time>2015-06-18T17:05:12Z</time>
      </trkpt>
      <trkpt lat="36.435257" lon="-6.102336">
        <ele>55.463</ele>
        <time>2015-06-18T17:05:13Z</time>
      </trkpt>
      <trkpt lat="36.435213" lon="-6.102389">
        <ele>55.046</ele>
        <time>2015-06-18T17:05:14Z</time>
      </trkpt>
      <trkpt lat="36.435171" lon="-6.102444">
        <ele>54.678</ele>
        <time>2015-06-18T17:05:15Z</time>
      </trkpt>
      <trkpt lat="36.435032" lon="-6.102605">
        <ele>54.681</ele>
        <time>2015-06-18T17:05:18Z</time>
      </trkpt>
      <trkpt lat="36.434856" lon="-6.102827">
        <ele>54.685</ele>
        <time>2015-06-18T17:05:22Z</time>
      </trkpt>
      <trkpt lat="36.434718" lon="-6.102995">
        <ele>54.239</ele>
        <time>2015-06-18T17:05:25Z</time>
      </trkpt>
      <trkpt lat="36.434669" lon="-6.103052">
        <ele>53.801</ele>
        <time>2015-06-18T17:05:26Z</time>
      </trkpt>
      <trkpt lat="36.434623" lon="-6.103108">
        <ele>53.421</ele>
        <time>2015-06-18T17:05:27Z</time>
      </trkpt>
      <trkpt lat="36.434578" lon="-6.103165">
        <ele>52.808</ele>
        <time>2015-06-18T17:05:28Z</time>
      </trkpt>
      <trkpt lat="36.434532" lon="-6.103220">
        <ele>52.484</ele>
        <time>2015-06-18T17:05:29Z</time>
      </trkpt>
      <trkpt lat="36.434303" lon="-6.103487">
        <ele>52.440</ele>
        <time>2015-06-18T17:05:34Z</time>
      </trkpt>
      <trkpt lat="36.434007" lon="-6.103740">
        <ele>52.476</ele>
        <time>2015-06-18T17:05:40Z</time>
      </trkpt>
      <trkpt lat="36.433816" lon="-6.103933">
        <ele>52.055</ele>
        <time>2015-06-18T17:05:44Z</time>
      </trkpt>
      <trkpt lat="36.433767" lon="-6.103978">
        <ele>51.648</ele>
        <time>2015-06-18T17:05:45Z</time>
      </trkpt>
      <trkpt lat="36.433717" lon="-6.104025">
        <ele>51.250</ele>
        <time>2015-06-18T17:05:46Z</time>
      </trkpt>
      <trkpt lat="36.433668" lon="-6.104071">
        <ele>50.413</ele>
        <time>2015-06-18T17:05:47Z</time>
      </trkpt>
      <trkpt lat="36.433433" lon="-6.104358">
        <ele>50.437</ele>
        <time>2015-06-18T17:05:52Z</time>
      </trkpt>
      <trkpt lat="36.433396" lon="-6.104424">
        <ele>50.451</ele>
        <time>2015-06-18T17:05:53Z</time>
      </trkpt>
      <trkpt lat="36.433310" lon="-6.104550">
        <ele>50.001</ele>
        <time>2015-06-18T17:05:55Z</time>
      </trkpt>
      <trkpt lat="36.433270" lon="-6.104624">
        <ele>49.611</ele>
        <time>2015-06-18T17:05:56Z</time>
      </trkpt>
      <trkpt lat="36.433236" lon="-6.104679">
        <ele>49.208</ele>
        <time>2015-06-18T17:05:57Z</time>
      </trkpt>
      <trkpt lat="36.433207" lon="-6.104726">
        <ele>48.866</ele>
        <time>2015-06-18T17:05:58Z</time>
      </trkpt>
      <trkpt lat="36.433175" lon="-6.104780">
        <ele>48.462</ele>
        <time>2015-06-18T17:05:59Z</time>
      </trkpt>
      <trkpt lat="36.433072" lon="-6.104957">
        <ele>48.018</ele>
        <time>2015-06-18T17:06:02Z</time>
      </trkpt>
      <trkpt lat="36.433028" lon="-6.105016">
        <ele>47.487</ele>
        <time>2015-06-18T17:06:03Z</time>
      </trkpt>
      <trkpt lat="36.432987" lon="-6.105084">
        <ele>47.070</ele>
        <time>2015-06-18T17:06:04Z</time>
      </trkpt>
      <trkpt lat="36.432947" lon="-6.105146">
        <ele>46.672</ele>
        <time>2015-06-18T17:06:05Z</time>
      </trkpt>
      <trkpt lat="36.432902" lon="-6.105208">
        <ele>46.285</ele>
        <time>2015-06-18T17:06:06Z</time>
      </trkpt>
      <trkpt lat="36.432810" lon="-6.105349">
        <ele>46.269</ele>
        <time>2015-06-18T17:06:08Z</time>
      </trkpt>
      <trkpt lat="36.432716" lon="-6.105491">
        <ele>45.894</ele>
        <time>2015-06-18T17:06:10Z</time>
      </trkpt>
      <trkpt lat="36.432665" lon="-6.105571">
        <ele>45.457</ele>
        <time>2015-06-18T17:06:11Z</time>
      </trkpt>
      <trkpt lat="36.432623" lon="-6.105652">
        <ele>44.622</ele>
        <time>2015-06-18T17:06:12Z</time>
      </trkpt>
      <trkpt lat="36.432578" lon="-6.105728">
        <ele>44.208</ele>
        <time>2015-06-18T17:06:13Z</time>
      </trkpt>
      <trkpt lat="36.432529" lon="-6.105800">
        <ele>44.210</ele>
        <time>2015-06-18T17:06:14Z</time>
      </trkpt>
      <trkpt lat="36.432399" lon="-6.106037">
        <ele>43.856</ele>
        <time>2015-06-18T17:06:17Z</time>
      </trkpt>
      <trkpt lat="36.432359" lon="-6.106118">
        <ele>43.252</ele>
        <time>2015-06-18T17:06:18Z</time>
      </trkpt>
      <trkpt lat="36.432321" lon="-6.106198">
        <ele>42.841</ele>
        <time>2015-06-18T17:06:19Z</time>
      </trkpt>
      <trkpt lat="36.432284" lon="-6.106278">
        <ele>42.434</ele>
        <time>2015-06-18T17:06:20Z</time>
      </trkpt>
      <trkpt lat="36.432250" lon="-6.106356">
        <ele>42.036</ele>
        <time>2015-06-18T17:06:21Z</time>
      </trkpt>
      <trkpt lat="36.432208" lon="-6.106428">
        <ele>42.049</ele>
        <time>2015-06-18T17:06:22Z</time>
      </trkpt>
      <trkpt lat="36.432112" lon="-6.106556">
        <ele>42.093</ele>
        <time>2015-06-18T17:06:24Z</time>
      </trkpt>
      <trkpt lat="36.432013" lon="-6.106681">
        <ele>42.095</ele>
        <time>2015-06-18T17:06:26Z</time>
      </trkpt>
      <trkpt lat="36.431897" lon="-6.106766">
        <ele>42.049</ele>
        <time>2015-06-18T17:06:28Z</time>
      </trkpt>
      <trkpt lat="36.431851" lon="-6.106824">
        <ele>42.023</ele>
        <time>2015-06-18T17:06:29Z</time>
      </trkpt>
      <trkpt lat="36.431803" lon="-6.106879">
        <ele>42.008</ele>
        <time>2015-06-18T17:06:30Z</time>
      </trkpt>
      <trkpt lat="36.431513" lon="-6.107146">
        <ele>42.010</ele>
        <time>2015-06-18T17:06:36Z</time>
      </trkpt>
      <trkpt lat="36.431470" lon="-6.107186">
        <ele>41.496</ele>
        <time>2015-06-18T17:06:37Z</time>
      </trkpt>
      <trkpt lat="36.431428" lon="-6.107223">
        <ele>41.092</ele>
        <time>2015-06-18T17:06:38Z</time>
      </trkpt>
      <trkpt lat="36.431389" lon="-6.107266">
        <ele>40.691</ele>
        <time>2015-06-18T17:06:39Z</time>
      </trkpt>
      <trkpt lat="36.431349" lon="-6.107302">
        <ele>40.234</ele>
        <time>2015-06-18T17:06:40Z</time>
      </trkpt>
      <trkpt lat="36.431309" lon="-6.107336">
        <ele>39.826</ele>
        <time>2015-06-18T17:06:41Z</time>
      </trkpt>
      <trkpt lat="36.431276" lon="-6.107373">
        <ele>39.869</ele>
        <time>2015-06-18T17:06:42Z</time>
      </trkpt>
      <trkpt lat="36.431112" lon="-6.107565">
        <ele>39.833</ele>
        <time>2015-06-18T17:06:47Z</time>
      </trkpt>
      <trkpt lat="36.431073" lon="-6.107607">
        <ele>39.826</ele>
        <time>2015-06-18T17:06:48Z</time>
      </trkpt>
      <trkpt lat="36.430951" lon="-6.107721">
        <ele>39.847</ele>
        <time>2015-06-18T17:06:51Z</time>
      </trkpt>
      <trkpt lat="36.430839" lon="-6.107853">
        <ele>39.811</ele>
        <time>2015-06-18T17:06:54Z</time>
      </trkpt>
      <trkpt lat="36.430595" lon="-6.108138">
        <ele>39.808</ele>
        <time>2015-06-18T17:07:01Z</time>
      </trkpt>
      <trkpt lat="36.430567" lon="-6.108180">
        <ele>39.853</ele>
        <time>2015-06-18T17:07:02Z</time>
      </trkpt>
      <trkpt lat="36.430408" lon="-6.108402">
        <ele>39.879</ele>
        <time>2015-06-18T17:07:07Z</time>
      </trkpt>
      <trkpt lat="36.430256" lon="-6.108581">
        <ele>39.865</ele>
        <time>2015-06-18T17:07:11Z</time>
      </trkpt>
      <trkpt lat="36.430186" lon="-6.108668">
        <ele>39.844</ele>
        <time>2015-06-18T17:07:13Z</time>
      </trkpt>
      <trkpt lat="36.430138" lon="-6.108706">
        <ele>39.887</ele>
        <time>2015-06-18T17:07:14Z</time>
      </trkpt>
      <trkpt lat="36.429960" lon="-6.108866">
        <ele>39.849</ele>
        <time>2015-06-18T17:07:18Z</time>
      </trkpt>
      <trkpt lat="36.429757" lon="-6.109082">
        <ele>39.832</ele>
        <time>2015-06-18T17:07:23Z</time>
      </trkpt>
      <trkpt lat="36.429717" lon="-6.109130">
        <ele>39.826</ele>
        <time>2015-06-18T17:07:24Z</time>
      </trkpt>
      <trkpt lat="36.429669" lon="-6.109169">
        <ele>39.875</ele>
        <time>2015-06-18T17:07:25Z</time>
      </trkpt>
      <trkpt lat="36.429538" lon="-6.109285">
        <ele>39.828</ele>
        <time>2015-06-18T17:07:28Z</time>
      </trkpt>
      <trkpt lat="36.429260" lon="-6.109547">
        <ele>39.420</ele>
        <time>2015-06-18T17:07:34Z</time>
      </trkpt>
      <trkpt lat="36.429216" lon="-6.109588">
        <ele>39.008</ele>
        <time>2015-06-18T17:07:35Z</time>
      </trkpt>
      <trkpt lat="36.429169" lon="-6.109631">
        <ele>38.688</ele>
        <time>2015-06-18T17:07:36Z</time>
      </trkpt>
      <trkpt lat="36.429125" lon="-6.109671">
        <ele>38.254</ele>
        <time>2015-06-18T17:07:37Z</time>
      </trkpt>
      <trkpt lat="36.429082" lon="-6.109717">
        <ele>37.860</ele>
        <time>2015-06-18T17:07:38Z</time>
      </trkpt>
      <trkpt lat="36.428985" lon="-6.109788">
        <ele>37.899</ele>
        <time>2015-06-18T17:07:40Z</time>
      </trkpt>
      <trkpt lat="36.428941" lon="-6.109826">
        <ele>37.882</ele>
        <time>2015-06-18T17:07:41Z</time>
      </trkpt>
      <trkpt lat="36.428824" lon="-6.109951">
        <ele>37.834</ele>
        <time>2015-06-18T17:07:44Z</time>
      </trkpt>
      <trkpt lat="36.428780" lon="-6.109981">
        <ele>37.877</ele>
        <time>2015-06-18T17:07:45Z</time>
      </trkpt>
      <trkpt lat="36.428737" lon="-6.110015">
        <ele>37.881</ele>
        <time>2015-06-18T17:07:46Z</time>
      </trkpt>
      <trkpt lat="36.428697" lon="-6.110052">
        <ele>37.287</ele>
        <time>2015-06-18T17:07:47Z</time>
      </trkpt>
      <trkpt lat="36.428652" lon="-6.110089">
        <ele>35.842</ele>
        <time>2015-06-18T17:07:48Z</time>
      </trkpt>
      <trkpt lat="36.428613" lon="-6.110129">
        <ele>36.026</ele>
        <time>2015-06-18T17:07:49Z</time>
      </trkpt>
      <trkpt lat="36.428576" lon="-6.110166">
        <ele>36.208</ele>
        <time>2015-06-18T17:07:50Z</time>
      </trkpt>
      <trkpt lat="36.428538" lon="-6.110202">
        <ele>36.479</ele>
        <time>2015-06-18T17:07:51Z</time>
      </trkpt>
      <trkpt lat="36.428503" lon="-6.110234">
        <ele>36.015</ele>
        <time>2015-06-18T17:07:52Z</time>
      </trkpt>
      <trkpt lat="36.428466" lon="-6.110265">
        <ele>35.691</ele>
        <time>2015-06-18T17:07:53Z</time>
      </trkpt>
      <trkpt lat="36.428431" lon="-6.110295">
        <ele>35.270</ele>
        <time>2015-06-18T17:07:54Z</time>
      </trkpt>
      <trkpt lat="36.428397" lon="-6.110328">
        <ele>35.873</ele>
        <time>2015-06-18T17:07:55Z</time>
      </trkpt>
      <trkpt lat="36.428368" lon="-6.110359">
        <ele>36.285</ele>
        <time>2015-06-18T17:07:56Z</time>
      </trkpt>
      <trkpt lat="36.428340" lon="-6.110389">
        <ele>36.678</ele>
        <time>2015-06-18T17:07:57Z</time>
      </trkpt>
      <trkpt lat="36.428308" lon="-6.110419">
        <ele>37.232</ele>
        <time>2015-06-18T17:07:58Z</time>
      </trkpt>
      <trkpt lat="36.428278" lon="-6.110447">
        <ele>37.614</ele>
        <time>2015-06-18T17:07:59Z</time>
      </trkpt>
      <trkpt lat="36.428164" lon="-6.110548">
        <ele>37.254</ele>
        <time>2015-06-18T17:08:03Z</time>
      </trkpt>
      <trkpt lat="36.428140" lon="-6.110569">
        <ele>36.809</ele>
        <time>2015-06-18T17:08:04Z</time>
      </trkpt>
      <trkpt lat="36.428117" lon="-6.110590">
        <ele>36.408</ele>
        <time>2015-06-18T17:08:05Z</time>
      </trkpt>
      <trkpt lat="36.428095" lon="-6.110612">
        <ele>36.072</ele>
        <time>2015-06-18T17:08:06Z</time>
      </trkpt>
      <trkpt lat="36.428074" lon="-6.110632">
        <ele>35.638</ele>
        <time>2015-06-18T17:08:07Z</time>
      </trkpt>
      <trkpt lat="36.427907" lon="-6.110783">
        <ele>35.684</ele>
        <time>2015-06-18T17:08:12Z</time>
      </trkpt>
      <trkpt lat="36.427666" lon="-6.110974">
        <ele>35.693</ele>
        <time>2015-06-18T17:08:17Z</time>
      </trkpt>
      <trkpt lat="36.427322" lon="-6.111275">
        <ele>35.686</ele>
        <time>2015-06-18T17:08:24Z</time>
      </trkpt>
      <trkpt lat="36.427033" lon="-6.111503">
        <ele>35.688</ele>
        <time>2015-06-18T17:08:30Z</time>
      </trkpt>
      <trkpt lat="36.426863" lon="-6.111657">
        <ele>35.631</ele>
        <time>2015-06-18T17:08:34Z</time>
      </trkpt>
      <trkpt lat="36.426784" lon="-6.111725">
        <ele>35.655</ele>
        <time>2015-06-18T17:08:36Z</time>
      </trkpt>
      <trkpt lat="36.426705" lon="-6.111793">
        <ele>35.244</ele>
        <time>2015-06-18T17:08:38Z</time>
      </trkpt>
      <trkpt lat="36.426669" lon="-6.111830">
        <ele>34.805</ele>
        <time>2015-06-18T17:08:39Z</time>
      </trkpt>
      <trkpt lat="36.426630" lon="-6.111866">
        <ele>34.215</ele>
        <time>2015-06-18T17:08:40Z</time>
      </trkpt>
      <trkpt lat="36.426589" lon="-6.111900">
        <ele>33.808</ele>
        <time>2015-06-18T17:08:41Z</time>
      </trkpt>
      <trkpt lat="36.426549" lon="-6.111937">
        <ele>33.495</ele>
        <time>2015-06-18T17:08:42Z</time>
      </trkpt>
      <trkpt lat="36.426331" lon="-6.112116">
        <ele>33.421</ele>
        <time>2015-06-18T17:08:47Z</time>
      </trkpt>
      <trkpt lat="36.426006" lon="-6.112386">
        <ele>33.427</ele>
        <time>2015-06-18T17:08:55Z</time>
      </trkpt>
      <trkpt lat="36.425971" lon="-6.112418">
        <ele>33.436</ele>
        <time>2015-06-18T17:08:56Z</time>
      </trkpt>
      <trkpt lat="36.425808" lon="-6.112541">
        <ele>33.419</ele>
        <time>2015-06-18T17:09:00Z</time>
      </trkpt>
      <trkpt lat="36.425568" lon="-6.112757">
        <ele>33.411</ele>
        <time>2015-06-18T17:09:06Z</time>
      </trkpt>
      <trkpt lat="36.425414" lon="-6.112897">
        <ele>33.494</ele>
        <time>2015-06-18T17:09:10Z</time>
      </trkpt>
      <trkpt lat="36.425287" lon="-6.113013">
        <ele>33.428</ele>
        <time>2015-06-18T17:09:13Z</time>
      </trkpt>
      <trkpt lat="36.425243" lon="-6.113050">
        <ele>33.419</ele>
        <time>2015-06-18T17:09:14Z</time>
      </trkpt>
      <trkpt lat="36.425156" lon="-6.113121">
        <ele>33.409</ele>
        <time>2015-06-18T17:09:16Z</time>
      </trkpt>
      <trkpt lat="36.425065" lon="-6.113188">
        <ele>33.419</ele>
        <time>2015-06-18T17:09:18Z</time>
      </trkpt>
      <trkpt lat="36.424980" lon="-6.113246">
        <ele>33.408</ele>
        <time>2015-06-18T17:09:20Z</time>
      </trkpt>
      <trkpt lat="36.424850" lon="-6.113286">
        <ele>33.482</ele>
        <time>2015-06-18T17:09:23Z</time>
      </trkpt>
      <trkpt lat="36.424808" lon="-6.113292">
        <ele>33.458</ele>
        <time>2015-06-18T17:09:24Z</time>
      </trkpt>
      <trkpt lat="36.424621" lon="-6.113320">
        <ele>33.414</ele>
        <time>2015-06-18T17:09:28Z</time>
      </trkpt>
      <trkpt lat="36.424569" lon="-6.113323">
        <ele>33.453</ele>
        <time>2015-06-18T17:09:29Z</time>
      </trkpt>
      <trkpt lat="36.424295" lon="-6.113369">
        <ele>33.416</ele>
        <time>2015-06-18T17:09:34Z</time>
      </trkpt>
      <trkpt lat="36.424196" lon="-6.113414">
        <ele>33.428</ele>
        <time>2015-06-18T17:09:36Z</time>
      </trkpt>
      <trkpt lat="36.424152" lon="-6.113439">
        <ele>32.851</ele>
        <time>2015-06-18T17:09:37Z</time>
      </trkpt>
      <trkpt lat="36.424112" lon="-6.113463">
        <ele>32.295</ele>
        <time>2015-06-18T17:09:38Z</time>
      </trkpt>
      <trkpt lat="36.424075" lon="-6.113489">
        <ele>31.678</ele>
        <time>2015-06-18T17:09:39Z</time>
      </trkpt>
      <trkpt lat="36.424040" lon="-6.113518">
        <ele>31.033</ele>
        <time>2015-06-18T17:09:40Z</time>
      </trkpt>
      <trkpt lat="36.424006" lon="-6.113553">
        <ele>30.426</ele>
        <time>2015-06-18T17:09:41Z</time>
      </trkpt>
      <trkpt lat="36.423882" lon="-6.113737">
        <ele>30.408</ele>
        <time>2015-06-18T17:09:46Z</time>
      </trkpt>
      <trkpt lat="36.423842" lon="-6.113907">
        <ele>30.448</ele>
        <time>2015-06-18T17:09:50Z</time>
      </trkpt>
      <trkpt lat="36.423833" lon="-6.113956">
        <ele>30.444</ele>
        <time>2015-06-18T17:09:51Z</time>
      </trkpt>
      <trkpt lat="36.423760" lon="-6.114390">
        <ele>30.460</ele>
        <time>2015-06-18T17:09:59Z</time>
      </trkpt>
      <trkpt lat="36.423712" lon="-6.114752">
        <ele>30.439</ele>
        <time>2015-06-18T17:10:05Z</time>
      </trkpt>
      <trkpt lat="36.423690" lon="-6.114809">
        <ele>30.452</ele>
        <time>2015-06-18T17:10:06Z</time>
      </trkpt>
      <trkpt lat="36.423565" lon="-6.115020">
        <ele>30.424</ele>
        <time>2015-06-18T17:10:10Z</time>
      </trkpt>
      <trkpt lat="36.423487" lon="-6.115126">
        <ele>30.427</ele>
        <time>2015-06-18T17:10:12Z</time>
      </trkpt>
      <trkpt lat="36.423285" lon="-6.115397">
        <ele>30.411</ele>
        <time>2015-06-18T17:10:17Z</time>
      </trkpt>
      <trkpt lat="36.423198" lon="-6.115514">
        <ele>30.435</ele>
        <time>2015-06-18T17:10:19Z</time>
      </trkpt>
      <trkpt lat="36.423061" lon="-6.115709">
        <ele>30.486</ele>
        <time>2015-06-18T17:10:22Z</time>
      </trkpt>
      <trkpt lat="36.422976" lon="-6.115853">
        <ele>30.414</ele>
        <time>2015-06-18T17:10:24Z</time>
      </trkpt>
      <trkpt lat="36.422689" lon="-6.116390">
        <ele>30.408</ele>
        <time>2015-06-18T17:10:31Z</time>
      </trkpt>
      <trkpt lat="36.422372" lon="-6.116997">
        <ele>30.494</ele>
        <time>2015-06-18T17:10:39Z</time>
      </trkpt>
      <trkpt lat="36.422262" lon="-6.117199">
        <ele>30.040</ele>
        <time>2015-06-18T17:10:42Z</time>
      </trkpt>
      <trkpt lat="36.422224" lon="-6.117258">
        <ele>29.076</ele>
        <time>2015-06-18T17:10:43Z</time>
      </trkpt>
      <trkpt lat="36.422188" lon="-6.117320">
        <ele>28.625</ele>
        <time>2015-06-18T17:10:44Z</time>
      </trkpt>
      <trkpt lat="36.422155" lon="-6.117383">
        <ele>28.278</ele>
        <time>2015-06-18T17:10:45Z</time>
      </trkpt>
      <trkpt lat="36.422074" lon="-6.117567">
        <ele>28.230</ele>
        <time>2015-06-18T17:10:48Z</time>
      </trkpt>
      <trkpt lat="36.421987" lon="-6.117737">
        <ele>28.293</ele>
        <time>2015-06-18T17:10:51Z</time>
      </trkpt>
      <trkpt lat="36.421956" lon="-6.117791">
        <ele>28.227</ele>
        <time>2015-06-18T17:10:52Z</time>
      </trkpt>
      <trkpt lat="36.421869" lon="-6.117941">
        <ele>27.887</ele>
        <time>2015-06-18T17:10:55Z</time>
      </trkpt>
      <trkpt lat="36.421839" lon="-6.117989">
        <ele>27.242</ele>
        <time>2015-06-18T17:10:56Z</time>
      </trkpt>
      <trkpt lat="36.421814" lon="-6.118039">
        <ele>26.826</ele>
        <time>2015-06-18T17:10:57Z</time>
      </trkpt>
      <trkpt lat="36.421794" lon="-6.118084">
        <ele>26.408</ele>
        <time>2015-06-18T17:10:58Z</time>
      </trkpt>
      <trkpt lat="36.421770" lon="-6.118132">
        <ele>26.039</ele>
        <time>2015-06-18T17:10:59Z</time>
      </trkpt>
      <trkpt lat="36.421691" lon="-6.118279">
        <ele>26.035</ele>
        <time>2015-06-18T17:11:02Z</time>
      </trkpt>
      <trkpt lat="36.421586" lon="-6.118478">
        <ele>26.071</ele>
        <time>2015-06-18T17:11:06Z</time>
      </trkpt>
      <trkpt lat="36.421417" lon="-6.118802">
        <ele>26.040</ele>
        <time>2015-06-18T17:11:12Z</time>
      </trkpt>
      <trkpt lat="36.421387" lon="-6.118849">
        <ele>26.013</ele>
        <time>2015-06-18T17:11:13Z</time>
      </trkpt>
      <trkpt lat="36.421237" lon="-6.119106">
        <ele>26.085</ele>
        <time>2015-06-18T17:11:19Z</time>
      </trkpt>
      <trkpt lat="36.421219" lon="-6.119138">
        <ele>26.428</ele>
        <time>2015-06-18T17:11:20Z</time>
      </trkpt>
      <trkpt lat="36.421195" lon="-6.119174">
        <ele>26.852</ele>
        <time>2015-06-18T17:11:21Z</time>
      </trkpt>
      <trkpt lat="36.421172" lon="-6.119209">
        <ele>27.257</ele>
        <time>2015-06-18T17:11:22Z</time>
      </trkpt>
      <trkpt lat="36.421145" lon="-6.119248">
        <ele>27.600</ele>
        <time>2015-06-18T17:11:23Z</time>
      </trkpt>
      <trkpt lat="36.421119" lon="-6.119281">
        <ele>28.020</ele>
        <time>2015-06-18T17:11:24Z</time>
      </trkpt>
      <trkpt lat="36.421089" lon="-6.119317">
        <ele>28.008</ele>
        <time>2015-06-18T17:11:25Z</time>
      </trkpt>
      <trkpt lat="36.421059" lon="-6.119352">
        <ele>28.036</ele>
        <time>2015-06-18T17:11:26Z</time>
      </trkpt>
      <trkpt lat="36.420926" lon="-6.119516">
        <ele>28.082</ele>
        <time>2015-06-18T17:11:30Z</time>
      </trkpt>
      <trkpt lat="36.420746" lon="-6.119845">
        <ele>28.058</ele>
        <time>2015-06-18T17:11:36Z</time>
      </trkpt>
      <trkpt lat="36.420590" lon="-6.120208">
        <ele>27.687</ele>
        <time>2015-06-18T17:11:42Z</time>
      </trkpt>
      <trkpt lat="36.420567" lon="-6.120270">
        <ele>27.220</ele>
        <time>2015-06-18T17:11:43Z</time>
      </trkpt>
      <trkpt lat="36.420546" lon="-6.120333">
        <ele>26.812</ele>
        <time>2015-06-18T17:11:44Z</time>
      </trkpt>
      <trkpt lat="36.420528" lon="-6.120394">
        <ele>26.415</ele>
        <time>2015-06-18T17:11:45Z</time>
      </trkpt>
      <trkpt lat="36.420510" lon="-6.120453">
        <ele>26.019</ele>
        <time>2015-06-18T17:11:46Z</time>
      </trkpt>
      <trkpt lat="36.420442" lon="-6.120696">
        <ele>26.036</ele>
        <time>2015-06-18T17:11:50Z</time>
      </trkpt>
      <trkpt lat="36.420371" lon="-6.120957">
        <ele>26.017</ele>
        <time>2015-06-18T17:11:54Z</time>
      </trkpt>
      <trkpt lat="36.420331" lon="-6.121095">
        <ele>26.018</ele>
        <time>2015-06-18T17:11:56Z</time>
      </trkpt>
      <trkpt lat="36.420307" lon="-6.121164">
        <ele>26.008</ele>
        <time>2015-06-18T17:11:57Z</time>
      </trkpt>
      <trkpt lat="36.420123" lon="-6.121602">
        <ele>26.044</ele>
        <time>2015-06-18T17:12:04Z</time>
      </trkpt>
      <trkpt lat="36.419913" lon="-6.122058">
        <ele>26.090</ele>
        <time>2015-06-18T17:12:12Z</time>
      </trkpt>
      <trkpt lat="36.419747" lon="-6.122418">
        <ele>26.086</ele>
        <time>2015-06-18T17:12:19Z</time>
      </trkpt>
      <trkpt lat="36.419687" lon="-6.122563">
        <ele>26.025</ele>
        <time>2015-06-18T17:12:22Z</time>
      </trkpt>
      <trkpt lat="36.419622" lon="-6.122694">
        <ele>26.078</ele>
        <time>2015-06-18T17:12:25Z</time>
      </trkpt>
      <trkpt lat="36.419547" lon="-6.122842">
        <ele>26.070</ele>
        <time>2015-06-18T17:12:28Z</time>
      </trkpt>
      <trkpt lat="36.419476" lon="-6.122994">
        <ele>26.073</ele>
        <time>2015-06-18T17:12:31Z</time>
      </trkpt>
      <trkpt lat="36.419437" lon="-6.123092">
        <ele>25.447</ele>
        <time>2015-06-18T17:12:33Z</time>
      </trkpt>
      <trkpt lat="36.419418" lon="-6.123142">
        <ele>25.078</ele>
        <time>2015-06-18T17:12:34Z</time>
      </trkpt>
      <trkpt lat="36.419398" lon="-6.123188">
        <ele>24.633</ele>
        <time>2015-06-18T17:12:35Z</time>
      </trkpt>
      <trkpt lat="36.419380" lon="-6.123228">
        <ele>24.826</ele>
        <time>2015-06-18T17:12:36Z</time>
      </trkpt>
      <trkpt lat="36.419368" lon="-6.123258">
        <ele>25.008</ele>
        <time>2015-06-18T17:12:37Z</time>
      </trkpt>
      <trkpt lat="36.419361" lon="-6.123280">
        <ele>25.288</ele>
        <time>2015-06-18T17:12:38Z</time>
      </trkpt>
      <trkpt lat="36.419360" lon="-6.123295">
        <ele>25.674</ele>
        <time>2015-06-18T17:12:39Z</time>
      </trkpt>
      <trkpt lat="36.419364" lon="-6.123308">
        <ele>25.860</ele>
        <time>2015-06-18T17:12:40Z</time>
      </trkpt>
      <trkpt lat="36.419367" lon="-6.123325">
        <ele>25.869</ele>
        <time>2015-06-18T17:12:41Z</time>
      </trkpt>
      <trkpt lat="36.419314" lon="-6.123410">
        <ele>25.872</ele>
        <time>2015-06-18T17:12:45Z</time>
      </trkpt>
      <trkpt lat="36.419221" lon="-6.123548">
        <ele>25.894</ele>
        <time>2015-06-18T17:12:49Z</time>
      </trkpt>
      <trkpt lat="36.419200" lon="-6.123590">
        <ele>25.837</ele>
        <time>2015-06-18T17:12:50Z</time>
      </trkpt>
      <trkpt lat="36.419162" lon="-6.123680">
        <ele>25.891</ele>
        <time>2015-06-18T17:12:52Z</time>
      </trkpt>
      <trkpt lat="36.419100" lon="-6.123808">
        <ele>25.885</ele>
        <time>2015-06-18T17:12:55Z</time>
      </trkpt>
      <trkpt lat="36.419080" lon="-6.123853">
        <ele>25.889</ele>
        <time>2015-06-18T17:12:56Z</time>
      </trkpt>
      <trkpt lat="36.419034" lon="-6.123945">
        <ele>25.817</ele>
        <time>2015-06-18T17:12:58Z</time>
      </trkpt>
      <trkpt lat="36.418942" lon="-6.124128">
        <ele>25.808</ele>
        <time>2015-06-18T17:13:02Z</time>
      </trkpt>
      <trkpt lat="36.418853" lon="-6.124320">
        <ele>25.879</ele>
        <time>2015-06-18T17:13:06Z</time>
      </trkpt>
      <trkpt lat="36.418781" lon="-6.124458">
        <ele>25.865</ele>
        <time>2015-06-18T17:13:09Z</time>
      </trkpt>
      <trkpt lat="36.418685" lon="-6.124652">
        <ele>25.861</ele>
        <time>2015-06-18T17:13:13Z</time>
      </trkpt>
      <trkpt lat="36.418616" lon="-6.124803">
        <ele>25.830</ele>
        <time>2015-06-18T17:13:16Z</time>
      </trkpt>
      <trkpt lat="36.418438" lon="-6.125151">
        <ele>25.813</ele>
        <time>2015-06-18T17:13:23Z</time>
      </trkpt>
      <trkpt lat="36.418303" lon="-6.125423">
        <ele>25.855</ele>
        <time>2015-06-18T17:13:29Z</time>
      </trkpt>
      <trkpt lat="36.418144" lon="-6.125772">
        <ele>25.888</ele>
        <time>2015-06-18T17:13:36Z</time>
      </trkpt>
      <trkpt lat="36.417995" lon="-6.126096">
        <ele>25.842</ele>
        <time>2015-06-18T17:13:42Z</time>
      </trkpt>
      <trkpt lat="36.417928" lon="-6.126253">
        <ele>25.881</ele>
        <time>2015-06-18T17:13:45Z</time>
      </trkpt>
      <trkpt lat="36.417855" lon="-6.126395">
        <ele>25.861</ele>
        <time>2015-06-18T17:13:48Z</time>
      </trkpt>
      <trkpt lat="36.417736" lon="-6.126660">
        <ele>26.217</ele>
        <time>2015-06-18T17:13:53Z</time>
      </trkpt>
      <trkpt lat="36.417711" lon="-6.126714">
        <ele>26.608</ele>
        <time>2015-06-18T17:13:54Z</time>
      </trkpt>
      <trkpt lat="36.417688" lon="-6.126771">
        <ele>27.059</ele>
        <time>2015-06-18T17:13:55Z</time>
      </trkpt>
      <trkpt lat="36.417666" lon="-6.126829">
        <ele>27.415</ele>
        <time>2015-06-18T17:13:56Z</time>
      </trkpt>
      <trkpt lat="36.417643" lon="-6.126887">
        <ele>27.871</ele>
        <time>2015-06-18T17:13:57Z</time>
      </trkpt>
      <trkpt lat="36.417543" lon="-6.127116">
        <ele>27.820</ele>
        <time>2015-06-18T17:14:01Z</time>
      </trkpt>
      <trkpt lat="36.417408" lon="-6.127429">
        <ele>27.813</ele>
        <time>2015-06-18T17:14:07Z</time>
      </trkpt>
      <trkpt lat="36.417363" lon="-6.127528">
        <ele>27.835</ele>
        <time>2015-06-18T17:14:09Z</time>
      </trkpt>
      <trkpt lat="36.417273" lon="-6.127725">
        <ele>27.838</ele>
        <time>2015-06-18T17:14:13Z</time>
      </trkpt>
      <trkpt lat="36.417212" lon="-6.127866">
        <ele>28.212</ele>
        <time>2015-06-18T17:14:16Z</time>
      </trkpt>
      <trkpt lat="36.417189" lon="-6.127913">
        <ele>28.616</ele>
        <time>2015-06-18T17:14:17Z</time>
      </trkpt>
      <trkpt lat="36.417167" lon="-6.127960">
        <ele>29.276</ele>
        <time>2015-06-18T17:14:18Z</time>
      </trkpt>
      <trkpt lat="36.417144" lon="-6.128008">
        <ele>29.613</ele>
        <time>2015-06-18T17:14:19Z</time>
      </trkpt>
      <trkpt lat="36.417121" lon="-6.128060">
        <ele>30.008</ele>
        <time>2015-06-18T17:14:20Z</time>
      </trkpt>
      <trkpt lat="36.416969" lon="-6.128425">
        <ele>30.032</ele>
        <time>2015-06-18T17:14:27Z</time>
      </trkpt>
      <trkpt lat="36.416792" lon="-6.128812">
        <ele>30.048</ele>
        <time>2015-06-18T17:14:34Z</time>
      </trkpt>
      <trkpt lat="36.416768" lon="-6.128862">
        <ele>30.044</ele>
        <time>2015-06-18T17:14:35Z</time>
      </trkpt>
      <trkpt lat="36.416643" lon="-6.129093">
        <ele>30.033</ele>
        <time>2015-06-18T17:14:40Z</time>
      </trkpt>
      <trkpt lat="36.416594" lon="-6.129187">
        <ele>30.016</ele>
        <time>2015-06-18T17:14:42Z</time>
      </trkpt>
      <trkpt lat="36.416540" lon="-6.129284">
        <ele>30.058</ele>
        <time>2015-06-18T17:14:44Z</time>
      </trkpt>
      <trkpt lat="36.416489" lon="-6.129385">
        <ele>30.051</ele>
        <time>2015-06-18T17:14:46Z</time>
      </trkpt>
      <trkpt lat="36.416316" lon="-6.129710">
        <ele>30.035</ele>
        <time>2015-06-18T17:14:53Z</time>
      </trkpt>
      <trkpt lat="36.416287" lon="-6.129752">
        <ele>30.058</ele>
        <time>2015-06-18T17:14:54Z</time>
      </trkpt>
      <trkpt lat="36.416209" lon="-6.129884">
        <ele>30.052</ele>
        <time>2015-06-18T17:14:57Z</time>
      </trkpt>
      <trkpt lat="36.416127" lon="-6.130014">
        <ele>30.017</ele>
        <time>2015-06-18T17:15:00Z</time>
      </trkpt>
      <trkpt lat="36.416075" lon="-6.130105">
        <ele>30.008</ele>
        <time>2015-06-18T17:15:02Z</time>
      </trkpt>
      <trkpt lat="36.416042" lon="-6.130150">
        <ele>30.086</ele>
        <time>2015-06-18T17:15:03Z</time>
      </trkpt>
      <trkpt lat="36.415882" lon="-6.130406">
        <ele>29.692</ele>
        <time>2015-06-18T17:15:08Z</time>
      </trkpt>
      <trkpt lat="36.415849" lon="-6.130455">
        <ele>29.238</ele>
        <time>2015-06-18T17:15:09Z</time>
      </trkpt>
      <trkpt lat="36.415819" lon="-6.130503">
        <ele>28.887</ele>
        <time>2015-06-18T17:15:10Z</time>
      </trkpt>
      <trkpt lat="36.415793" lon="-6.130544">
        <ele>28.470</ele>
        <time>2015-06-18T17:15:11Z</time>
      </trkpt>
      <trkpt lat="36.415774" lon="-6.130585">
        <ele>27.862</ele>
        <time>2015-06-18T17:15:12Z</time>
      </trkpt>
      <trkpt lat="36.415757" lon="-6.130629">
        <ele>27.825</ele>
        <time>2015-06-18T17:15:13Z</time>
      </trkpt>
      <trkpt lat="36.415700" lon="-6.130760">
        <ele>27.819</ele>
        <time>2015-06-18T17:15:16Z</time>
      </trkpt>
      <trkpt lat="36.415679" lon="-6.130880">
        <ele>27.852</ele>
        <time>2015-06-18T17:15:18Z</time>
      </trkpt>
      <trkpt lat="36.415676" lon="-6.131001">
        <ele>27.853</ele>
        <time>2015-06-18T17:15:20Z</time>
      </trkpt>
      <trkpt lat="36.415672" lon="-6.131058">
        <ele>27.808</ele>
        <time>2015-06-18T17:15:21Z</time>
      </trkpt>
      <trkpt lat="36.415666" lon="-6.131118">
        <ele>27.808</ele>
        <time>2015-06-18T17:15:22Z</time>
      </trkpt>
      <trkpt lat="36.415654" lon="-6.131286">
        <ele>27.836</ele>
        <time>2015-06-18T17:15:25Z</time>
      </trkpt>
      <trkpt lat="36.415652" lon="-6.131445">
        <ele>27.882</ele>
        <time>2015-06-18T17:15:28Z</time>
      </trkpt>
      <trkpt lat="36.415681" lon="-6.131815">
        <ele>27.868</ele>
        <time>2015-06-18T17:15:34Z</time>
      </trkpt>
      <trkpt lat="36.415729" lon="-6.132241">
        <ele>27.897</ele>
        <time>2015-06-18T17:15:41Z</time>
      </trkpt>
      <trkpt lat="36.415785" lon="-6.132703">
        <ele>27.840</ele>
        <time>2015-06-18T17:15:48Z</time>
      </trkpt>
      <trkpt lat="36.415820" lon="-6.132914">
        <ele>27.822</ele>
        <time>2015-06-18T17:15:51Z</time>
      </trkpt>
      <trkpt lat="36.415853" lon="-6.133141">
        <ele>27.865</ele>
        <time>2015-06-18T17:15:54Z</time>
      </trkpt>
      <trkpt lat="36.415864" lon="-6.133218">
        <ele>27.469</ele>
        <time>2015-06-18T17:15:55Z</time>
      </trkpt>
      <trkpt lat="36.415874" lon="-6.133297">
        <ele>27.037</ele>
        <time>2015-06-18T17:15:56Z</time>
      </trkpt>
      <trkpt lat="36.415883" lon="-6.133376">
        <ele>26.449</ele>
        <time>2015-06-18T17:15:57Z</time>
      </trkpt>
      <trkpt lat="36.415891" lon="-6.133456">
        <ele>26.013</ele>
        <time>2015-06-18T17:15:58Z</time>
      </trkpt>
      <trkpt lat="36.415901" lon="-6.133538">
        <ele>25.608</ele>
        <time>2015-06-18T17:15:59Z</time>
      </trkpt>
      <trkpt lat="36.415923" lon="-6.133701">
        <ele>25.684</ele>
        <time>2015-06-18T17:16:01Z</time>
      </trkpt>
      <trkpt lat="36.416017" lon="-6.134405">
        <ele>25.680</ele>
        <time>2015-06-18T17:16:09Z</time>
      </trkpt>
      <trkpt lat="36.416062" lon="-6.134691">
        <ele>25.276</ele>
        <time>2015-06-18T17:16:12Z</time>
      </trkpt>
      <trkpt lat="36.416083" lon="-6.134792">
        <ele>24.895</ele>
        <time>2015-06-18T17:16:13Z</time>
      </trkpt>
      <trkpt lat="36.416101" lon="-6.134886">
        <ele>24.278</ele>
        <time>2015-06-18T17:16:14Z</time>
      </trkpt>
      <trkpt lat="36.416118" lon="-6.134976">
        <ele>23.850</ele>
        <time>2015-06-18T17:16:15Z</time>
      </trkpt>
      <trkpt lat="36.416136" lon="-6.135066">
        <ele>23.473</ele>
        <time>2015-06-18T17:16:16Z</time>
      </trkpt>
      <trkpt lat="36.416243" lon="-6.135460">
        <ele>23.497</ele>
        <time>2015-06-18T17:16:20Z</time>
      </trkpt>
      <trkpt lat="36.416414" lon="-6.135973">
        <ele>23.076</ele>
        <time>2015-06-18T17:16:25Z</time>
      </trkpt>
      <trkpt lat="36.416453" lon="-6.136072">
        <ele>22.690</ele>
        <time>2015-06-18T17:16:26Z</time>
      </trkpt>
      <trkpt lat="36.416491" lon="-6.136173">
        <ele>22.219</ele>
        <time>2015-06-18T17:16:27Z</time>
      </trkpt>
      <trkpt lat="36.416527" lon="-6.136273">
        <ele>21.808</ele>
        <time>2015-06-18T17:16:28Z</time>
      </trkpt>
      <trkpt lat="36.416566" lon="-6.136383">
        <ele>21.418</ele>
        <time>2015-06-18T17:16:29Z</time>
      </trkpt>
      <trkpt lat="36.416672" lon="-6.136687">
        <ele>21.084</ele>
        <time>2015-06-18T17:16:32Z</time>
      </trkpt>
      <trkpt lat="36.416707" lon="-6.136787">
        <ele>20.660</ele>
        <time>2015-06-18T17:16:33Z</time>
      </trkpt>
      <trkpt lat="36.416745" lon="-6.136886">
        <ele>20.239</ele>
        <time>2015-06-18T17:16:34Z</time>
      </trkpt>
      <trkpt lat="36.416782" lon="-6.136981">
        <ele>19.812</ele>
        <time>2015-06-18T17:16:35Z</time>
      </trkpt>
      <trkpt lat="36.416820" lon="-6.137083">
        <ele>19.444</ele>
        <time>2015-06-18T17:16:36Z</time>
      </trkpt>
      <trkpt lat="36.417028" lon="-6.137638">
        <ele>19.417</ele>
        <time>2015-06-18T17:16:42Z</time>
      </trkpt>
      <trkpt lat="36.417204" lon="-6.138083">
        <ele>19.411</ele>
        <time>2015-06-18T17:16:47Z</time>
      </trkpt>
      <trkpt lat="36.417381" lon="-6.138536">
        <ele>19.056</ele>
        <time>2015-06-18T17:16:52Z</time>
      </trkpt>
      <trkpt lat="36.417413" lon="-6.138625">
        <ele>18.459</ele>
        <time>2015-06-18T17:16:53Z</time>
      </trkpt>
      <trkpt lat="36.417448" lon="-6.138710">
        <ele>18.014</ele>
        <time>2015-06-18T17:16:54Z</time>
      </trkpt>
      <trkpt lat="36.417484" lon="-6.138790">
        <ele>17.208</ele>
        <time>2015-06-18T17:16:55Z</time>
      </trkpt>
      <trkpt lat="36.417639" lon="-6.139079">
        <ele>17.256</ele>
        <time>2015-06-18T17:16:59Z</time>
      </trkpt>
      <trkpt lat="36.417856" lon="-6.139369">
        <ele>17.242</ele>
        <time>2015-06-18T17:17:04Z</time>
      </trkpt>
      <trkpt lat="36.418045" lon="-6.139546">
        <ele>17.268</ele>
        <time>2015-06-18T17:17:09Z</time>
      </trkpt>
      <trkpt lat="36.418084" lon="-6.139553">
        <ele>17.227</ele>
        <time>2015-06-18T17:17:10Z</time>
      </trkpt>
      <trkpt lat="36.418147" lon="-6.139518">
        <ele>17.280</ele>
        <time>2015-06-18T17:17:12Z</time>
      </trkpt>
      <trkpt lat="36.418170" lon="-6.139495">
        <ele>17.232</ele>
        <time>2015-06-18T17:17:13Z</time>
      </trkpt>
      <trkpt lat="36.418248" lon="-6.139459">
        <ele>17.255</ele>
        <time>2015-06-18T17:17:17Z</time>
      </trkpt>
      <trkpt lat="36.418262" lon="-6.139459">
        <ele>17.229</ele>
        <time>2015-06-18T17:17:18Z</time>
      </trkpt>
      <trkpt lat="36.418302" lon="-6.139451">
        <ele>17.213</ele>
        <time>2015-06-18T17:17:21Z</time>
      </trkpt>
      <trkpt lat="36.418326" lon="-6.139458">
        <ele>17.243</ele>
        <time>2015-06-18T17:17:23Z</time>
      </trkpt>
      <trkpt lat="36.418335" lon="-6.139464">
        <ele>17.207</ele>
        <time>2015-06-18T17:17:24Z</time>
      </trkpt>
      <trkpt lat="36.418379" lon="-6.139504">
        <ele>17.208</ele>
        <time>2015-06-18T17:26:43Z</time>
      </trkpt>
      <trkpt lat="36.418385" lon="-6.139528">
        <ele>17.262</ele>
        <time>2015-06-18T17:26:44Z</time>
      </trkpt>
      <trkpt lat="36.418423" lon="-6.139734">
        <ele>17.258</ele>
        <time>2015-06-18T17:26:48Z</time>
      </trkpt>
      <trkpt lat="36.418467" lon="-6.139811">
        <ele>17.224</ele>
        <time>2015-06-18T17:26:50Z</time>
      </trkpt>
      <trkpt lat="36.418543" lon="-6.139910">
        <ele>17.293</ele>
        <time>2015-06-18T17:26:53Z</time>
      </trkpt>
      <trkpt lat="36.418619" lon="-6.139989">
        <ele>17.216</ele>
        <time>2015-06-18T17:26:56Z</time>
      </trkpt>
      <trkpt lat="36.418666" lon="-6.140055">
        <ele>17.238</ele>
        <time>2015-06-18T17:26:58Z</time>
      </trkpt>
      <trkpt lat="36.418773" lon="-6.140176">
        <ele>17.251</ele>
        <time>2015-06-18T17:27:02Z</time>
      </trkpt>
      <trkpt lat="36.418792" lon="-6.140207">
        <ele>17.295</ele>
        <time>2015-06-18T17:27:03Z</time>
      </trkpt>
      <trkpt lat="36.418899" lon="-6.140353">
        <ele>17.285</ele>
        <time>2015-06-18T17:27:08Z</time>
      </trkpt>
      <trkpt lat="36.418943" lon="-6.140406">
        <ele>17.289</ele>
        <time>2015-06-18T17:27:10Z</time>
      </trkpt>
      <trkpt lat="36.419124" lon="-6.140575">
        <ele>17.217</ele>
        <time>2015-06-18T17:27:17Z</time>
      </trkpt>
      <trkpt lat="36.419282" lon="-6.140802">
        <ele>17.208</ele>
        <time>2015-06-18T17:27:24Z</time>
      </trkpt>
      <trkpt lat="36.419446" lon="-6.140996">
        <ele>17.239</ele>
        <time>2015-06-18T17:27:30Z</time>
      </trkpt>
      <trkpt lat="36.419527" lon="-6.141092">
        <ele>17.295</ele>
        <time>2015-06-18T17:27:33Z</time>
      </trkpt>
      <trkpt lat="36.419608" lon="-6.141171">
        <ele>17.251</ele>
        <time>2015-06-18T17:27:36Z</time>
      </trkpt>
      <trkpt lat="36.419807" lon="-6.141356">
        <ele>17.210</ele>
        <time>2015-06-18T17:27:43Z</time>
      </trkpt>
      <trkpt lat="36.419868" lon="-6.141409">
        <ele>17.293</ele>
        <time>2015-06-18T17:27:45Z</time>
      </trkpt>
      <trkpt lat="36.419919" lon="-6.141483">
        <ele>17.265</ele>
        <time>2015-06-18T17:27:47Z</time>
      </trkpt>
      <trkpt lat="36.420001" lon="-6.141629">
        <ele>17.258</ele>
        <time>2015-06-18T17:27:50Z</time>
      </trkpt>
      <trkpt lat="36.420189" lon="-6.141984">
        <ele>17.222</ele>
        <time>2015-06-18T17:27:56Z</time>
      </trkpt>
      <trkpt lat="36.420413" lon="-6.142391">
        <ele>17.299</ele>
        <time>2015-06-18T17:28:03Z</time>
      </trkpt>
      <trkpt lat="36.420611" lon="-6.142805">
        <ele>17.207</ele>
        <time>2015-06-18T17:28:09Z</time>
      </trkpt>
      <trkpt lat="36.420721" lon="-6.143021">
        <ele>17.227</ele>
        <time>2015-06-18T17:28:12Z</time>
      </trkpt>
      <trkpt lat="36.420755" lon="-6.143095">
        <ele>16.808</ele>
        <time>2015-06-18T17:28:13Z</time>
      </trkpt>
      <trkpt lat="36.420792" lon="-6.143170">
        <ele>16.490</ele>
        <time>2015-06-18T17:28:14Z</time>
      </trkpt>
      <trkpt lat="36.420832" lon="-6.143250">
        <ele>16.026</ele>
        <time>2015-06-18T17:28:15Z</time>
      </trkpt>
      <trkpt lat="36.420868" lon="-6.143331">
        <ele>15.612</ele>
        <time>2015-06-18T17:28:16Z</time>
      </trkpt>
      <trkpt lat="36.420905" lon="-6.143411">
        <ele>15.271</ele>
        <time>2015-06-18T17:28:17Z</time>
      </trkpt>
      <trkpt lat="36.420986" lon="-6.143564">
        <ele>15.264</ele>
        <time>2015-06-18T17:28:19Z</time>
      </trkpt>
      <trkpt lat="36.421058" lon="-6.143707">
        <ele>14.696</ele>
        <time>2015-06-18T17:28:21Z</time>
      </trkpt>
      <trkpt lat="36.421097" lon="-6.143771">
        <ele>13.859</ele>
        <time>2015-06-18T17:28:22Z</time>
      </trkpt>
      <trkpt lat="36.421132" lon="-6.143831">
        <ele>13.473</ele>
        <time>2015-06-18T17:28:23Z</time>
      </trkpt>
      <trkpt lat="36.421167" lon="-6.143889">
        <ele>13.084</ele>
        <time>2015-06-18T17:28:24Z</time>
      </trkpt>
      <trkpt lat="36.421198" lon="-6.143952">
        <ele>12.607</ele>
        <time>2015-06-18T17:28:25Z</time>
      </trkpt>
      <trkpt lat="36.421229" lon="-6.144012">
        <ele>12.217</ele>
        <time>2015-06-18T17:28:26Z</time>
      </trkpt>
      <trkpt lat="36.421257" lon="-6.144063">
        <ele>11.808</ele>
        <time>2015-06-18T17:28:27Z</time>
      </trkpt>
      <trkpt lat="36.421276" lon="-6.144108">
        <ele>11.429</ele>
        <time>2015-06-18T17:28:28Z</time>
      </trkpt>
      <trkpt lat="36.421301" lon="-6.144130">
        <ele>11.025</ele>
        <time>2015-06-18T17:28:29Z</time>
      </trkpt>
      <trkpt lat="36.421334" lon="-6.144186">
        <ele>10.451</ele>
        <time>2015-06-18T17:28:31Z</time>
      </trkpt>
      <trkpt lat="36.421350" lon="-6.144225">
        <ele>10.010</ele>
        <time>2015-06-18T17:28:32Z</time>
      </trkpt>
      <trkpt lat="36.421368" lon="-6.144265">
        <ele>9.633</ele>
        <time>2015-06-18T17:28:33Z</time>
      </trkpt>
      <trkpt lat="36.421384" lon="-6.144300">
        <ele>9.215</ele>
        <time>2015-06-18T17:28:34Z</time>
      </trkpt>
      <trkpt lat="36.421402" lon="-6.144330">
        <ele>8.868</ele>
        <time>2015-06-18T17:28:35Z</time>
      </trkpt>
      <trkpt lat="36.421484" lon="-6.144479">
        <ele>8.832</ele>
        <time>2015-06-18T17:28:39Z</time>
      </trkpt>
      <trkpt lat="36.421541" lon="-6.144554">
        <ele>8.436</ele>
        <time>2015-06-18T17:28:42Z</time>
      </trkpt>
      <trkpt lat="36.421555" lon="-6.144569">
        <ele>8.017</ele>
        <time>2015-06-18T17:28:43Z</time>
      </trkpt>
      <trkpt lat="36.421563" lon="-6.144580">
        <ele>7.418</ele>
        <time>2015-06-18T17:28:44Z</time>
      </trkpt>
      <trkpt lat="36.421603" lon="-6.144589">
        <ele>6.608</ele>
        <time>2015-06-18T17:28:57Z</time>
      </trkpt>
      <trkpt lat="36.421652" lon="-6.144645">
        <ele>6.664</ele>
        <time>2015-06-18T17:29:01Z</time>
      </trkpt>
      <trkpt lat="36.421690" lon="-6.144636">
        <ele>6.650</ele>
        <time>2015-06-18T17:29:05Z</time>
      </trkpt>
      <trkpt lat="36.421690" lon="-6.144636">
        <ele>6.676</ele>
        <time>2015-06-18T17:29:08Z</time>
      </trkpt>
      <trkpt lat="36.421715" lon="-6.144646">
        <ele>6.635</ele>
        <time>2015-06-18T17:29:12Z</time>
      </trkpt>
      <trkpt lat="36.421719" lon="-6.144656">
        <ele>6.698</ele>
        <time>2015-06-18T17:29:16Z</time>
      </trkpt>
      <trkpt lat="36.421717" lon="-6.144676">
        <ele>6.670</ele>
        <time>2015-06-18T17:29:18Z</time>
      </trkpt>
      <trkpt lat="36.421719" lon="-6.144729">
        <ele>6.613</ele>
        <time>2015-06-18T17:29:20Z</time>
      </trkpt>
      <trkpt lat="36.421762" lon="-6.144829">
        <ele>6.627</ele>
        <time>2015-06-18T17:29:23Z</time>
      </trkpt>
      <trkpt lat="36.421776" lon="-6.144870">
        <ele>6.639</ele>
        <time>2015-06-18T17:29:24Z</time>
      </trkpt>
      <trkpt lat="36.421853" lon="-6.145170">
        <ele>6.601</ele>
        <time>2015-06-18T17:29:30Z</time>
      </trkpt>
      <trkpt lat="36.421932" lon="-6.145419">
        <ele>6.621</ele>
        <time>2015-06-18T17:29:36Z</time>
      </trkpt>
      <trkpt lat="36.421941" lon="-6.145462">
        <ele>6.208</ele>
        <time>2015-06-18T17:29:37Z</time>
      </trkpt>
      <trkpt lat="36.421953" lon="-6.145498">
        <ele>5.884</ele>
        <time>2015-06-18T17:29:38Z</time>
      </trkpt>
      <trkpt lat="36.421966" lon="-6.145534">
        <ele>5.480</ele>
        <time>2015-06-18T17:29:39Z</time>
      </trkpt>
      <trkpt lat="36.421981" lon="-6.145571">
        <ele>5.066</ele>
        <time>2015-06-18T17:29:40Z</time>
      </trkpt>
      <trkpt lat="36.421991" lon="-6.145602">
        <ele>4.615</ele>
        <time>2015-06-18T17:29:41Z</time>
      </trkpt>
      <trkpt lat="36.421995" lon="-6.145629">
        <ele>4.638</ele>
        <time>2015-06-18T17:29:42Z</time>
      </trkpt>
      <trkpt lat="36.421988" lon="-6.145683">
        <ele>4.680</ele>
        <time>2015-06-18T17:29:46Z</time>
      </trkpt>
      <trkpt lat="36.421984" lon="-6.145691">
        <ele>4.623</ele>
        <time>2015-06-18T17:29:52Z</time>
      </trkpt>
      <trkpt lat="36.421985" lon="-6.145705">
        <ele>4.637</ele>
        <time>2015-06-18T17:29:56Z</time>
      </trkpt>
      <trkpt lat="36.421953" lon="-6.145760">
        <ele>4.683</ele>
        <time>2015-06-18T17:29:58Z</time>
      </trkpt>
      <trkpt lat="36.421938" lon="-6.145786">
        <ele>4.625</ele>
        <time>2015-06-18T17:29:59Z</time>
      </trkpt>
      <trkpt lat="36.421964" lon="-6.145867">
        <ele>4.617</ele>
        <time>2015-06-18T17:30:04Z</time>
      </trkpt>
      <trkpt lat="36.421987" lon="-6.145893">
        <ele>4.608</ele>
        <time>2015-06-18T17:30:06Z</time>
      </trkpt>
      <trkpt lat="36.421996" lon="-6.145900">
        <ele>4.669</ele>
        <time>2015-06-18T17:30:09Z</time>
      </trkpt>
      <trkpt lat="36.421996" lon="-6.145900">
        <ele>4.625</ele>
        <time>2015-06-18T17:30:12Z</time>
      </trkpt>
      <trkpt lat="36.421996" lon="-6.145900">
        <ele>4.641</ele>
        <time>2015-06-18T17:30:14Z</time>
      </trkpt>
      <trkpt lat="36.421996" lon="-6.145900">
        <ele>4.680</ele>
        <time>2015-06-18T17:30:16Z</time>
      </trkpt>
      <trkpt lat="36.421996" lon="-6.145900">
        <ele>4.653</ele>
        <time>2015-06-18T17:30:17Z</time>
      </trkpt>
      <trkpt lat="36.421890" lon="-6.145937">
        <ele>12.09</ele>
        <time>2015-06-19T05:24:55Z</time>
      </trkpt>
      <trkpt lat="36.421880" lon="-6.145903">
        <ele>12.08</ele>
        <time>2015-06-19T05:24:56Z</time>
      </trkpt>
      <trkpt lat="36.421860" lon="-6.145854">
        <ele>12.02</ele>
        <time>2015-06-19T05:24:58Z</time>
      </trkpt>
      <trkpt lat="36.421847" lon="-6.145830">
        <ele>11.81</ele>
        <time>2015-06-19T05:24:59Z</time>
      </trkpt>
      <trkpt lat="36.421809" lon="-6.145756">
        <ele>11.89</ele>
        <time>2015-06-19T05:25:02Z</time>
      </trkpt>
      <trkpt lat="36.421844" lon="-6.145676">
        <ele>11.84</ele>
        <time>2015-06-19T05:25:05Z</time>
      </trkpt>
      <trkpt lat="36.421826" lon="-6.145632">
        <ele>11.89</ele>
        <time>2015-06-19T05:25:07Z</time>
      </trkpt>
      <trkpt lat="36.421800" lon="-6.145574">
        <ele>11.89</ele>
        <time>2015-06-19T05:25:09Z</time>
      </trkpt>
      <trkpt lat="36.421787" lon="-6.145512">
        <ele>11.84</ele>
        <time>2015-06-19T05:25:11Z</time>
      </trkpt>
      <trkpt lat="36.421758" lon="-6.145373">
        <ele>11.87</ele>
        <time>2015-06-19T05:25:15Z</time>
      </trkpt>
      <trkpt lat="36.421739" lon="-6.145301">
        <ele>11.87</ele>
        <time>2015-06-19T05:25:17Z</time>
      </trkpt>
      <trkpt lat="36.421708" lon="-6.145233">
        <ele>12.27</ele>
        <time>2015-06-19T05:25:19Z</time>
      </trkpt>
      <trkpt lat="36.421697" lon="-6.145198">
        <ele>13.03</ele>
        <time>2015-06-19T05:25:20Z</time>
      </trkpt>
      <trkpt lat="36.421688" lon="-6.145163">
        <ele>13.45</ele>
        <time>2015-06-19T05:25:21Z</time>
      </trkpt>
      <trkpt lat="36.421667" lon="-6.145092">
        <ele>13.81</ele>
        <time>2015-06-19T05:25:22Z</time>
      </trkpt>
      <trkpt lat="36.421661" lon="-6.145054">
        <ele>13.81</ele>
        <time>2015-06-19T05:25:24Z</time>
      </trkpt>
      <trkpt lat="36.421613" lon="-6.144820">
        <ele>13.84</ele>
        <time>2015-06-19T05:25:31Z</time>
      </trkpt>
      <trkpt lat="36.421539" lon="-6.144731">
        <ele>13.84</ele>
        <time>2015-06-19T05:25:35Z</time>
      </trkpt>
      <trkpt lat="36.421512" lon="-6.144729">
        <ele>13.82</ele>
        <time>2015-06-19T05:25:36Z</time>
      </trkpt>
      <trkpt lat="36.421432" lon="-6.144785">
        <ele>13.82</ele>
        <time>2015-06-19T05:25:39Z</time>
      </trkpt>
      <trkpt lat="36.421397" lon="-6.144792">
        <ele>13.84</ele>
        <time>2015-06-19T05:25:40Z</time>
      </trkpt>
      <trkpt lat="36.421357" lon="-6.144773">
        <ele>13.83</ele>
        <time>2015-06-19T05:25:41Z</time>
      </trkpt>
      <trkpt lat="36.421315" lon="-6.144686">
        <ele>13.84</ele>
        <time>2015-06-19T05:25:43Z</time>
      </trkpt>
      <trkpt lat="36.421331" lon="-6.144495">
        <ele>13.86</ele>
        <time>2015-06-19T05:25:47Z</time>
      </trkpt>
      <trkpt lat="36.421346" lon="-6.144460">
        <ele>14.23</ele>
        <time>2015-06-19T05:25:48Z</time>
      </trkpt>
      <trkpt lat="36.421362" lon="-6.144432">
        <ele>14.62</ele>
        <time>2015-06-19T05:25:49Z</time>
      </trkpt>
      <trkpt lat="36.421368" lon="-6.144402">
        <ele>15.02</ele>
        <time>2015-06-19T05:25:50Z</time>
      </trkpt>
      <trkpt lat="36.421356" lon="-6.144368">
        <ele>15.41</ele>
        <time>2015-06-19T05:25:51Z</time>
      </trkpt>
      <trkpt lat="36.421344" lon="-6.144337">
        <ele>15.89</ele>
        <time>2015-06-19T05:25:52Z</time>
      </trkpt>
      <trkpt lat="36.421283" lon="-6.144219">
        <ele>15.84</ele>
        <time>2015-06-19T05:25:56Z</time>
      </trkpt>
      <trkpt lat="36.421228" lon="-6.144099">
        <ele>16.21</ele>
        <time>2015-06-19T05:26:00Z</time>
      </trkpt>
      <trkpt lat="36.421210" lon="-6.144070">
        <ele>16.88</ele>
        <time>2015-06-19T05:26:01Z</time>
      </trkpt>
      <trkpt lat="36.421192" lon="-6.144042">
        <ele>17.22</ele>
        <time>2015-06-19T05:26:02Z</time>
      </trkpt>
      <trkpt lat="36.421175" lon="-6.144016">
        <ele>17.70</ele>
        <time>2015-06-19T05:26:03Z</time>
      </trkpt>
      <trkpt lat="36.421159" lon="-6.143989">
        <ele>18.05</ele>
        <time>2015-06-19T05:26:04Z</time>
      </trkpt>
      <trkpt lat="36.421079" lon="-6.143816">
        <ele>18.02</ele>
        <time>2015-06-19T05:26:10Z</time>
      </trkpt>
      <trkpt lat="36.421033" lon="-6.143729">
        <ele>18.46</ele>
        <time>2015-06-19T05:26:13Z</time>
      </trkpt>
      <trkpt lat="36.421017" lon="-6.143701">
        <ele>18.81</ele>
        <time>2015-06-19T05:26:14Z</time>
      </trkpt>
      <trkpt lat="36.421001" lon="-6.143673">
        <ele>19.22</ele>
        <time>2015-06-19T05:26:15Z</time>
      </trkpt>
      <trkpt lat="36.420984" lon="-6.143645">
        <ele>19.61</ele>
        <time>2015-06-19T05:26:16Z</time>
      </trkpt>
      <trkpt lat="36.420968" lon="-6.143616">
        <ele>20.10</ele>
        <time>2015-06-19T05:26:17Z</time>
      </trkpt>
      <trkpt lat="36.420886" lon="-6.143449">
        <ele>20.08</ele>
        <time>2015-06-19T05:26:23Z</time>
      </trkpt>
      <trkpt lat="36.420813" lon="-6.143318">
        <ele>20.50</ele>
        <time>2015-06-19T05:26:28Z</time>
      </trkpt>
      <trkpt lat="36.420798" lon="-6.143290">
        <ele>20.87</ele>
        <time>2015-06-19T05:26:29Z</time>
      </trkpt>
      <trkpt lat="36.420784" lon="-6.143259">
        <ele>21.44</ele>
        <time>2015-06-19T05:26:30Z</time>
      </trkpt>
      <trkpt lat="36.420770" lon="-6.143226">
        <ele>21.85</ele>
        <time>2015-06-19T05:26:31Z</time>
      </trkpt>
      <trkpt lat="36.420752" lon="-6.143195">
        <ele>22.27</ele>
        <time>2015-06-19T05:26:32Z</time>
      </trkpt>
      <trkpt lat="36.420650" lon="-6.142989">
        <ele>22.30</ele>
        <time>2015-06-19T05:26:39Z</time>
      </trkpt>
      <trkpt lat="36.420524" lon="-6.142761">
        <ele>22.23</ele>
        <time>2015-06-19T05:26:47Z</time>
      </trkpt>
      <trkpt lat="36.420479" lon="-6.142682">
        <ele>22.63</ele>
        <time>2015-06-19T05:26:50Z</time>
      </trkpt>
      <trkpt lat="36.420465" lon="-6.142656">
        <ele>23.21</ele>
        <time>2015-06-19T05:26:51Z</time>
      </trkpt>
      <trkpt lat="36.420449" lon="-6.142630">
        <ele>23.81</ele>
        <time>2015-06-19T05:26:52Z</time>
      </trkpt>
      <trkpt lat="36.420433" lon="-6.142602">
        <ele>24.24</ele>
        <time>2015-06-19T05:26:53Z</time>
      </trkpt>
      <trkpt lat="36.420420" lon="-6.142567">
        <ele>24.82</ele>
        <time>2015-06-19T05:26:54Z</time>
      </trkpt>
      <trkpt lat="36.420405" lon="-6.142536">
        <ele>24.89</ele>
        <time>2015-06-19T05:26:55Z</time>
      </trkpt>
      <trkpt lat="36.420257" lon="-6.142236">
        <ele>24.86</ele>
        <time>2015-06-19T05:27:05Z</time>
      </trkpt>
      <trkpt lat="36.420164" lon="-6.142053">
        <ele>24.90</ele>
        <time>2015-06-19T05:27:10Z</time>
      </trkpt>
      <trkpt lat="36.420124" lon="-6.141980">
        <ele>25.27</ele>
        <time>2015-06-19T05:27:12Z</time>
      </trkpt>
      <trkpt lat="36.420105" lon="-6.141943">
        <ele>25.64</ele>
        <time>2015-06-19T05:27:13Z</time>
      </trkpt>
      <trkpt lat="36.420082" lon="-6.141909">
        <ele>26.02</ele>
        <time>2015-06-19T05:27:14Z</time>
      </trkpt>
      <trkpt lat="36.420058" lon="-6.141875">
        <ele>26.50</ele>
        <time>2015-06-19T05:27:15Z</time>
      </trkpt>
      <trkpt lat="36.420038" lon="-6.141836">
        <ele>26.82</ele>
        <time>2015-06-19T05:27:16Z</time>
      </trkpt>
      <trkpt lat="36.420019" lon="-6.141795">
        <ele>26.83</ele>
        <time>2015-06-19T05:27:17Z</time>
      </trkpt>
      <trkpt lat="36.419840" lon="-6.141495">
        <ele>26.81</ele>
        <time>2015-06-19T05:27:25Z</time>
      </trkpt>
      <trkpt lat="36.419664" lon="-6.141279">
        <ele>26.85</ele>
        <time>2015-06-19T05:27:31Z</time>
      </trkpt>
      <trkpt lat="36.419367" lon="-6.140963">
        <ele>26.83</ele>
        <time>2015-06-19T05:27:39Z</time>
      </trkpt>
      <trkpt lat="36.419202" lon="-6.140806">
        <ele>26.88</ele>
        <time>2015-06-19T05:27:43Z</time>
      </trkpt>
      <trkpt lat="36.419075" lon="-6.140687">
        <ele>26.87</ele>
        <time>2015-06-19T05:27:46Z</time>
      </trkpt>
      <trkpt lat="36.418909" lon="-6.140514">
        <ele>26.82</ele>
        <time>2015-06-19T05:27:50Z</time>
      </trkpt>
      <trkpt lat="36.418792" lon="-6.140381">
        <ele>26.90</ele>
        <time>2015-06-19T05:27:53Z</time>
      </trkpt>
      <trkpt lat="36.418707" lon="-6.140297">
        <ele>26.82</ele>
        <time>2015-06-19T05:27:55Z</time>
      </trkpt>
      <trkpt lat="36.418518" lon="-6.140102">
        <ele>26.87</ele>
        <time>2015-06-19T05:28:00Z</time>
      </trkpt>
      <trkpt lat="36.418263" lon="-6.139839">
        <ele>26.89</ele>
        <time>2015-06-19T05:28:07Z</time>
      </trkpt>
      <trkpt lat="36.418021" lon="-6.139576">
        <ele>26.86</ele>
        <time>2015-06-19T05:28:14Z</time>
      </trkpt>
      <trkpt lat="36.417778" lon="-6.139316">
        <ele>26.82</ele>
        <time>2015-06-19T05:28:21Z</time>
      </trkpt>
      <trkpt lat="36.417682" lon="-6.139197">
        <ele>26.81</ele>
        <time>2015-06-19T05:28:24Z</time>
      </trkpt>
      <trkpt lat="36.417477" lon="-6.138853">
        <ele>26.89</ele>
        <time>2015-06-19T05:28:32Z</time>
      </trkpt>
      <trkpt lat="36.417425" lon="-6.138737">
        <ele>26.84</ele>
        <time>2015-06-19T05:28:35Z</time>
      </trkpt>
      <trkpt lat="36.417353" lon="-6.138625">
        <ele>26.87</ele>
        <time>2015-06-19T05:28:39Z</time>
      </trkpt>
      <trkpt lat="36.417367" lon="-6.138629">
        <ele>26.86</ele>
        <time>2015-06-19T05:28:42Z</time>
      </trkpt>
      <trkpt lat="36.417360" lon="-6.138633">
        <ele>26.84</ele>
        <time>2015-06-19T05:28:48Z</time>
      </trkpt>
      <trkpt lat="36.417331" lon="-6.138605">
        <ele>26.88</ele>
        <time>2015-06-19T05:28:50Z</time>
      </trkpt>
      <trkpt lat="36.417313" lon="-6.138552">
        <ele>26.90</ele>
        <time>2015-06-19T05:28:52Z</time>
      </trkpt>
      <trkpt lat="36.417276" lon="-6.138461">
        <ele>26.81</ele>
        <time>2015-06-19T05:28:55Z</time>
      </trkpt>
      <trkpt lat="36.417228" lon="-6.138340">
        <ele>26.85</ele>
        <time>2015-06-19T05:28:58Z</time>
      </trkpt>
      <trkpt lat="36.417146" lon="-6.137973">
        <ele>26.80</ele>
        <time>2015-06-19T05:29:06Z</time>
      </trkpt>
      <trkpt lat="36.417141" lon="-6.137922">
        <ele>26.81</ele>
        <time>2015-06-19T05:29:07Z</time>
      </trkpt>
      <trkpt lat="36.417126" lon="-6.137876">
        <ele>26.81</ele>
        <time>2015-06-19T05:29:08Z</time>
      </trkpt>
      <trkpt lat="36.417050" lon="-6.137704">
        <ele>26.88</ele>
        <time>2015-06-19T05:29:12Z</time>
      </trkpt>
      <trkpt lat="36.416964" lon="-6.137462">
        <ele>26.85</ele>
        <time>2015-06-19T05:29:17Z</time>
      </trkpt>
      <trkpt lat="36.416907" lon="-6.137317">
        <ele>26.84</ele>
        <time>2015-06-19T05:29:20Z</time>
      </trkpt>
      <trkpt lat="36.416889" lon="-6.137270">
        <ele>27.27</ele>
        <time>2015-06-19T05:29:21Z</time>
      </trkpt>
      <trkpt lat="36.416870" lon="-6.137224">
        <ele>27.83</ele>
        <time>2015-06-19T05:29:22Z</time>
      </trkpt>
      <trkpt lat="36.416853" lon="-6.137176">
        <ele>28.22</ele>
        <time>2015-06-19T05:29:23Z</time>
      </trkpt>
      <trkpt lat="36.416835" lon="-6.137126">
        <ele>28.66</ele>
        <time>2015-06-19T05:29:24Z</time>
      </trkpt>
      <trkpt lat="36.416815" lon="-6.137080">
        <ele>29.03</ele>
        <time>2015-06-19T05:29:25Z</time>
      </trkpt>
      <trkpt lat="36.416761" lon="-6.136924">
        <ele>29.02</ele>
        <time>2015-06-19T05:29:28Z</time>
      </trkpt>
      <trkpt lat="36.416656" lon="-6.136675">
        <ele>29.09</ele>
        <time>2015-06-19T05:29:33Z</time>
      </trkpt>
      <trkpt lat="36.416604" lon="-6.136523">
        <ele>29.02</ele>
        <time>2015-06-19T05:29:36Z</time>
      </trkpt>
      <trkpt lat="36.416519" lon="-6.136290">
        <ele>29.01</ele>
        <time>2015-06-19T05:29:41Z</time>
      </trkpt>
      <trkpt lat="36.416478" lon="-6.136199">
        <ele>29.08</ele>
        <time>2015-06-19T05:29:43Z</time>
      </trkpt>
      <trkpt lat="36.416381" lon="-6.135939">
        <ele>29.06</ele>
        <time>2015-06-19T05:29:50Z</time>
      </trkpt>
      <trkpt lat="36.416317" lon="-6.135760">
        <ele>29.43</ele>
        <time>2015-06-19T05:29:55Z</time>
      </trkpt>
      <trkpt lat="36.416305" lon="-6.135728">
        <ele>29.84</ele>
        <time>2015-06-19T05:29:56Z</time>
      </trkpt>
      <trkpt lat="36.416296" lon="-6.135700">
        <ele>30.25</ele>
        <time>2015-06-19T05:29:57Z</time>
      </trkpt>
      <trkpt lat="36.416291" lon="-6.135673">
        <ele>30.83</ele>
        <time>2015-06-19T05:29:58Z</time>
      </trkpt>
      <trkpt lat="36.416281" lon="-6.135642">
        <ele>31.29</ele>
        <time>2015-06-19T05:29:59Z</time>
      </trkpt>
      <trkpt lat="36.416219" lon="-6.135471">
        <ele>31.28</ele>
        <time>2015-06-19T05:30:04Z</time>
      </trkpt>
      <trkpt lat="36.416188" lon="-6.135317">
        <ele>31.29</ele>
        <time>2015-06-19T05:30:10Z</time>
      </trkpt>
      <trkpt lat="36.416116" lon="-6.135260">
        <ele>31.27</ele>
        <time>2015-06-19T05:30:15Z</time>
      </trkpt>
      <trkpt lat="36.416112" lon="-6.135258">
        <ele>31.22</ele>
        <time>2015-06-19T05:30:20Z</time>
      </trkpt>
      <trkpt lat="36.416112" lon="-6.135258">
        <ele>31.21</ele>
        <time>2015-06-19T05:30:27Z</time>
      </trkpt>
      <trkpt lat="36.416112" lon="-6.135258">
        <ele>31.22</ele>
        <time>2015-06-19T05:30:36Z</time>
      </trkpt>
      <trkpt lat="36.416112" lon="-6.135258">
        <ele>31.24</ele>
        <time>2015-06-19T05:30:45Z</time>
      </trkpt>
      <trkpt lat="36.416112" lon="-6.135258">
        <ele>31.29</ele>
        <time>2015-06-19T05:30:51Z</time>
      </trkpt>
      <trkpt lat="36.416112" lon="-6.135258">
        <ele>31.28</ele>
        <time>2015-06-19T05:30:54Z</time>
      </trkpt>
      <trkpt lat="36.416109" lon="-6.135259">
        <ele>31.29</ele>
        <time>2015-06-19T05:30:58Z</time>
      </trkpt>
      <trkpt lat="36.416109" lon="-6.135259">
        <ele>31.23</ele>
        <time>2015-06-19T05:31:04Z</time>
      </trkpt>
      <trkpt lat="36.416109" lon="-6.135259">
        <ele>31.23</ele>
        <time>2015-06-19T05:31:08Z</time>
      </trkpt>
      <trkpt lat="36.416109" lon="-6.135259">
        <ele>31.27</ele>
        <time>2015-06-19T05:31:14Z</time>
      </trkpt>
      <trkpt lat="36.416109" lon="-6.135259">
        <ele>31.23</ele>
        <time>2015-06-19T05:31:20Z</time>
      </trkpt>
      <trkpt lat="36.416109" lon="-6.135259">
        <ele>31.25</ele>
        <time>2015-06-19T05:31:30Z</time>
      </trkpt>
      <trkpt lat="36.416109" lon="-6.135259">
        <ele>31.21</ele>
        <time>2015-06-19T05:31:34Z</time>
      </trkpt>
      <trkpt lat="36.416082" lon="-6.135249">
        <ele>31.21</ele>
        <time>2015-06-19T05:31:41Z</time>
      </trkpt>
      <trkpt lat="36.416027" lon="-6.135247">
        <ele>31.29</ele>
        <time>2015-06-19T05:31:45Z</time>
      </trkpt>
      <trkpt lat="36.416010" lon="-6.135264">
        <ele>31.27</ele>
        <time>2015-06-19T05:31:47Z</time>
      </trkpt>
      <trkpt lat="36.415988" lon="-6.135264">
        <ele>31.28</ele>
        <time>2015-06-19T05:31:49Z</time>
      </trkpt>
      <trkpt lat="36.415938" lon="-6.135289">
        <ele>31.27</ele>
        <time>2015-06-19T05:31:54Z</time>
      </trkpt>
      <trkpt lat="36.415934" lon="-6.135303">
        <ele>31.29</ele>
        <time>2015-06-19T05:31:55Z</time>
      </trkpt>
      <trkpt lat="36.415901" lon="-6.135352">
        <ele>31.23</ele>
        <time>2015-06-19T05:31:59Z</time>
      </trkpt>
      <trkpt lat="36.415898" lon="-6.135365">
        <ele>31.23</ele>
        <time>2015-06-19T05:32:00Z</time>
      </trkpt>
      <trkpt lat="36.415896" lon="-6.135394">
        <ele>31.25</ele>
        <time>2015-06-19T05:32:03Z</time>
      </trkpt>
      <trkpt lat="36.415895" lon="-6.135412">
        <ele>31.22</ele>
        <time>2015-06-19T05:32:06Z</time>
      </trkpt>
      <trkpt lat="36.415895" lon="-6.135412">
        <ele>31.30</ele>
        <time>2015-06-19T05:32:13Z</time>
      </trkpt>
      <trkpt lat="36.415895" lon="-6.135412">
        <ele>31.22</ele>
        <time>2015-06-19T05:32:21Z</time>
      </trkpt>
      <trkpt lat="36.415895" lon="-6.135412">
        <ele>31.21</ele>
        <time>2015-06-19T05:32:36Z</time>
      </trkpt>
      <trkpt lat="36.415896" lon="-6.135415">
        <ele>31.21</ele>
        <time>2015-06-19T05:32:53Z</time>
      </trkpt>
      <trkpt lat="36.415896" lon="-6.135415">
        <ele>31.28</ele>
        <time>2015-06-19T05:33:03Z</time>
      </trkpt>
      <trkpt lat="36.415896" lon="-6.135415">
        <ele>31.21</ele>
        <time>2015-06-19T05:33:10Z</time>
      </trkpt>
      <trkpt lat="36.415896" lon="-6.135415">
        <ele>31.21</ele>
        <time>2015-06-19T05:33:11Z</time>
      </trkpt>
      <trkpt lat="36.415898" lon="-6.135428">
        <ele>31.25</ele>
        <time>2015-06-19T05:33:15Z</time>
      </trkpt>
      <trkpt lat="36.415892" lon="-6.135472">
        <ele>31.24</ele>
        <time>2015-06-19T05:33:17Z</time>
      </trkpt>
      <trkpt lat="36.415842" lon="-6.135736">
        <ele>31.26</ele>
        <time>2015-06-19T05:33:23Z</time>
      </trkpt>
      <trkpt lat="36.415764" lon="-6.136119">
        <ele>31.22</ele>
        <time>2015-06-19T05:33:29Z</time>
      </trkpt>
      <trkpt lat="36.415670" lon="-6.136539">
        <ele>30.90</ele>
        <time>2015-06-19T05:33:34Z</time>
      </trkpt>
      <trkpt lat="36.415648" lon="-6.136633">
        <ele>29.82</ele>
        <time>2015-06-19T05:33:35Z</time>
      </trkpt>
      <trkpt lat="36.415627" lon="-6.136728">
        <ele>29.43</ele>
        <time>2015-06-19T05:33:36Z</time>
      </trkpt>
      <trkpt lat="36.415606" lon="-6.136826">
        <ele>29.01</ele>
        <time>2015-06-19T05:33:37Z</time>
      </trkpt>
      <trkpt lat="36.415530" lon="-6.137128">
        <ele>29.06</ele>
        <time>2015-06-19T05:33:40Z</time>
      </trkpt>
      <trkpt lat="36.415504" lon="-6.137233">
        <ele>28.47</ele>
        <time>2015-06-19T05:33:41Z</time>
      </trkpt>
      <trkpt lat="36.415478" lon="-6.137334">
        <ele>28.06</ele>
        <time>2015-06-19T05:33:42Z</time>
      </trkpt>
      <trkpt lat="36.415446" lon="-6.137450">
        <ele>27.67</ele>
        <time>2015-06-19T05:33:43Z</time>
      </trkpt>
      <trkpt lat="36.415417" lon="-6.137561">
        <ele>27.26</ele>
        <time>2015-06-19T05:33:44Z</time>
      </trkpt>
      <trkpt lat="36.415386" lon="-6.137674">
        <ele>26.88</ele>
        <time>2015-06-19T05:33:45Z</time>
      </trkpt>
      <trkpt lat="36.415284" lon="-6.138018">
        <ele>26.26</ele>
        <time>2015-06-19T05:33:48Z</time>
      </trkpt>
      <trkpt lat="36.415248" lon="-6.138136">
        <ele>25.85</ele>
        <time>2015-06-19T05:33:49Z</time>
      </trkpt>
      <trkpt lat="36.415209" lon="-6.138255">
        <ele>25.43</ele>
        <time>2015-06-19T05:33:50Z</time>
      </trkpt>
      <trkpt lat="36.415170" lon="-6.138373">
        <ele>24.87</ele>
        <time>2015-06-19T05:33:51Z</time>
      </trkpt>
      <trkpt lat="36.415129" lon="-6.138494">
        <ele>24.41</ele>
        <time>2015-06-19T05:33:52Z</time>
      </trkpt>
      <trkpt lat="36.415087" lon="-6.138617">
        <ele>24.01</ele>
        <time>2015-06-19T05:33:53Z</time>
      </trkpt>
      <trkpt lat="36.415045" lon="-6.138743">
        <ele>23.43</ele>
        <time>2015-06-19T05:33:54Z</time>
      </trkpt>
      <trkpt lat="36.415003" lon="-6.138868">
        <ele>23.02</ele>
        <time>2015-06-19T05:33:55Z</time>
      </trkpt>
      <trkpt lat="36.414959" lon="-6.138995">
        <ele>22.63</ele>
        <time>2015-06-19T05:33:56Z</time>
      </trkpt>
      <trkpt lat="36.414913" lon="-6.139119">
        <ele>22.06</ele>
        <time>2015-06-19T05:33:57Z</time>
      </trkpt>
      <trkpt lat="36.414815" lon="-6.139370">
        <ele>21.67</ele>
        <time>2015-06-19T05:33:59Z</time>
      </trkpt>
      <trkpt lat="36.414766" lon="-6.139493">
        <ele>21.29</ele>
        <time>2015-06-19T05:34:00Z</time>
      </trkpt>
      <trkpt lat="36.414717" lon="-6.139616">
        <ele>20.23</ele>
        <time>2015-06-19T05:34:01Z</time>
      </trkpt>
      <trkpt lat="36.414666" lon="-6.139735">
        <ele>19.90</ele>
        <time>2015-06-19T05:34:02Z</time>
      </trkpt>
      <trkpt lat="36.414616" lon="-6.139852">
        <ele>19.86</ele>
        <time>2015-06-19T05:34:03Z</time>
      </trkpt>
      <trkpt lat="36.414516" lon="-6.140089">
        <ele>19.46</ele>
        <time>2015-06-19T05:34:05Z</time>
      </trkpt>
      <trkpt lat="36.414468" lon="-6.140202">
        <ele>18.81</ele>
        <time>2015-06-19T05:34:06Z</time>
      </trkpt>
      <trkpt lat="36.414421" lon="-6.140308">
        <ele>18.41</ele>
        <time>2015-06-19T05:34:07Z</time>
      </trkpt>
      <trkpt lat="36.414375" lon="-6.140412">
        <ele>18.04</ele>
        <time>2015-06-19T05:34:08Z</time>
      </trkpt>
      <trkpt lat="36.414329" lon="-6.140516">
        <ele>17.43</ele>
        <time>2015-06-19T05:34:09Z</time>
      </trkpt>
      <trkpt lat="36.414284" lon="-6.140618">
        <ele>17.06</ele>
        <time>2015-06-19T05:34:10Z</time>
      </trkpt>
      <trkpt lat="36.414241" lon="-6.140718">
        <ele>16.68</ele>
        <time>2015-06-19T05:34:11Z</time>
      </trkpt>
      <trkpt lat="36.414198" lon="-6.140817">
        <ele>16.26</ele>
        <time>2015-06-19T05:34:12Z</time>
      </trkpt>
      <trkpt lat="36.414156" lon="-6.140914">
        <ele>15.84</ele>
        <time>2015-06-19T05:34:13Z</time>
      </trkpt>
      <trkpt lat="36.414116" lon="-6.141009">
        <ele>15.48</ele>
        <time>2015-06-19T05:34:14Z</time>
      </trkpt>
      <trkpt lat="36.414044" lon="-6.141176">
        <ele>15.42</ele>
        <time>2015-06-19T05:34:16Z</time>
      </trkpt>
      <trkpt lat="36.413970" lon="-6.141332">
        <ele>15.49</ele>
        <time>2015-06-19T05:34:19Z</time>
      </trkpt>
      <trkpt lat="36.413924" lon="-6.141443">
        <ele>15.46</ele>
        <time>2015-06-19T05:34:22Z</time>
      </trkpt>
      <trkpt lat="36.413864" lon="-6.141584">
        <ele>15.42</ele>
        <time>2015-06-19T05:34:26Z</time>
      </trkpt>
      <trkpt lat="36.413793" lon="-6.141758">
        <ele>15.41</ele>
        <time>2015-06-19T05:34:31Z</time>
      </trkpt>
      <trkpt lat="36.413747" lon="-6.141856">
        <ele>15.49</ele>
        <time>2015-06-19T05:34:34Z</time>
      </trkpt>
      <trkpt lat="36.413722" lon="-6.141896">
        <ele>15.46</ele>
        <time>2015-06-19T05:34:36Z</time>
      </trkpt>
      <trkpt lat="36.413694" lon="-6.141903">
        <ele>15.49</ele>
        <time>2015-06-19T05:34:38Z</time>
      </trkpt>
      <trkpt lat="36.413660" lon="-6.141899">
        <ele>15.07</ele>
        <time>2015-06-19T05:34:40Z</time>
      </trkpt>
      <trkpt lat="36.413643" lon="-6.141884">
        <ele>14.67</ele>
        <time>2015-06-19T05:34:41Z</time>
      </trkpt>
      <trkpt lat="36.413623" lon="-6.141867">
        <ele>14.29</ele>
        <time>2015-06-19T05:34:42Z</time>
      </trkpt>
      <trkpt lat="36.413607" lon="-6.141847">
        <ele>13.86</ele>
        <time>2015-06-19T05:34:43Z</time>
      </trkpt>
      <trkpt lat="36.413591" lon="-6.141830">
        <ele>13.47</ele>
        <time>2015-06-19T05:34:44Z</time>
      </trkpt>
      <trkpt lat="36.413547" lon="-6.141746">
        <ele>13.50</ele>
        <time>2015-06-19T05:34:47Z</time>
      </trkpt>
      <trkpt lat="36.413572" lon="-6.141638">
        <ele>13.43</ele>
        <time>2015-06-19T05:34:50Z</time>
      </trkpt>
      <trkpt lat="36.413652" lon="-6.141551">
        <ele>13.42</ele>
        <time>2015-06-19T05:34:53Z</time>
      </trkpt>
      <trkpt lat="36.413679" lon="-6.141517">
        <ele>13.41</ele>
        <time>2015-06-19T05:34:54Z</time>
      </trkpt>
      <trkpt lat="36.413724" lon="-6.141429">
        <ele>13.42</ele>
        <time>2015-06-19T05:34:56Z</time>
      </trkpt>
      <trkpt lat="36.413785" lon="-6.141296">
        <ele>13.43</ele>
        <time>2015-06-19T05:34:59Z</time>
      </trkpt>
      <trkpt lat="36.413843" lon="-6.141176">
        <ele>13.46</ele>
        <time>2015-06-19T05:35:02Z</time>
      </trkpt>
      <trkpt lat="36.413897" lon="-6.141060">
        <ele>13.45</ele>
        <time>2015-06-19T05:35:05Z</time>
      </trkpt>
      <trkpt lat="36.413978" lon="-6.140805">
        <ele>13.46</ele>
        <time>2015-06-19T05:35:11Z</time>
      </trkpt>
      <trkpt lat="36.414049" lon="-6.140687">
        <ele>13.46</ele>
        <time>2015-06-19T05:35:15Z</time>
      </trkpt>
      <trkpt lat="36.414148" lon="-6.140464">
        <ele>13.49</ele>
        <time>2015-06-19T05:35:20Z</time>
      </trkpt>
      <trkpt lat="36.414162" lon="-6.140428">
        <ele>13.45</ele>
        <time>2015-06-19T05:35:21Z</time>
      </trkpt>
      <trkpt lat="36.414170" lon="-6.140390">
        <ele>13.49</ele>
        <time>2015-06-19T05:35:22Z</time>
      </trkpt>
      <trkpt lat="36.414143" lon="-6.140331">
        <ele>13.46</ele>
        <time>2015-06-19T05:35:24Z</time>
      </trkpt>
      <trkpt lat="36.414080" lon="-6.140333">
        <ele>13.42</ele>
        <time>2015-06-19T05:35:26Z</time>
      </trkpt>
      <trkpt lat="36.414044" lon="-6.140343">
        <ele>13.41</ele>
        <time>2015-06-19T05:35:27Z</time>
      </trkpt>
      <trkpt lat="36.414003" lon="-6.140363">
        <ele>13.47</ele>
        <time>2015-06-19T05:35:28Z</time>
      </trkpt>
      <trkpt lat="36.413780" lon="-6.140466">
        <ele>13.48</ele>
        <time>2015-06-19T05:35:33Z</time>
      </trkpt>
      <trkpt lat="36.413643" lon="-6.140413">
        <ele>13.48</ele>
        <time>2015-06-19T05:35:36Z</time>
      </trkpt>
      <trkpt lat="36.413606" lon="-6.140386">
        <ele>13.46</ele>
        <time>2015-06-19T05:35:37Z</time>
      </trkpt>
      <trkpt lat="36.413530" lon="-6.140334">
        <ele>13.41</ele>
        <time>2015-06-19T05:35:39Z</time>
      </trkpt>
      <trkpt lat="36.413324" lon="-6.140201">
        <ele>13.48</ele>
        <time>2015-06-19T05:35:44Z</time>
      </trkpt>
      <trkpt lat="36.413234" lon="-6.140158">
        <ele>13.46</ele>
        <time>2015-06-19T05:35:46Z</time>
      </trkpt>
      <trkpt lat="36.413113" lon="-6.140055">
        <ele>13.48</ele>
        <time>2015-06-19T05:35:49Z</time>
      </trkpt>
      <trkpt lat="36.413072" lon="-6.140023">
        <ele>13.42</ele>
        <time>2015-06-19T05:35:50Z</time>
      </trkpt>
      <trkpt lat="36.412813" lon="-6.139874">
        <ele>13.48</ele>
        <time>2015-06-19T05:35:56Z</time>
      </trkpt>
      <trkpt lat="36.412623" lon="-6.139891">
        <ele>13.41</ele>
        <time>2015-06-19T05:36:00Z</time>
      </trkpt>
      <trkpt lat="36.412440" lon="-6.139942">
        <ele>13.41</ele>
        <time>2015-06-19T05:36:04Z</time>
      </trkpt>
      <trkpt lat="36.412344" lon="-6.139950">
        <ele>13.86</ele>
        <time>2015-06-19T05:36:06Z</time>
      </trkpt>
      <trkpt lat="36.412293" lon="-6.139955">
        <ele>14.27</ele>
        <time>2015-06-19T05:36:07Z</time>
      </trkpt>
      <trkpt lat="36.412244" lon="-6.139959">
        <ele>14.67</ele>
        <time>2015-06-19T05:36:08Z</time>
      </trkpt>
      <trkpt lat="36.412197" lon="-6.139958">
        <ele>15.09</ele>
        <time>2015-06-19T05:36:09Z</time>
      </trkpt>
      <trkpt lat="36.412152" lon="-6.139952">
        <ele>15.63</ele>
        <time>2015-06-19T05:36:10Z</time>
      </trkpt>
      <trkpt lat="36.412073" lon="-6.139915">
        <ele>15.63</ele>
        <time>2015-06-19T05:36:12Z</time>
      </trkpt>
      <trkpt lat="36.411963" lon="-6.139753">
        <ele>15.69</ele>
        <time>2015-06-19T05:36:16Z</time>
      </trkpt>
      <trkpt lat="36.411720" lon="-6.139319">
        <ele>15.68</ele>
        <time>2015-06-19T05:36:25Z</time>
      </trkpt>
      <trkpt lat="36.411640" lon="-6.139166">
        <ele>15.70</ele>
        <time>2015-06-19T05:36:28Z</time>
      </trkpt>
      <trkpt lat="36.411481" lon="-6.138862">
        <ele>15.62</ele>
        <time>2015-06-19T05:36:34Z</time>
      </trkpt>
      <trkpt lat="36.411463" lon="-6.138807">
        <ele>15.63</ele>
        <time>2015-06-19T05:36:35Z</time>
      </trkpt>
      <trkpt lat="36.411448" lon="-6.138750">
        <ele>15.61</ele>
        <time>2015-06-19T05:36:36Z</time>
      </trkpt>
      <trkpt lat="36.411432" lon="-6.138632">
        <ele>16.02</ele>
        <time>2015-06-19T05:36:38Z</time>
      </trkpt>
      <trkpt lat="36.411429" lon="-6.138575">
        <ele>16.50</ele>
        <time>2015-06-19T05:36:39Z</time>
      </trkpt>
      <trkpt lat="36.411429" lon="-6.138520">
        <ele>16.89</ele>
        <time>2015-06-19T05:36:40Z</time>
      </trkpt>
      <trkpt lat="36.411428" lon="-6.138465">
        <ele>17.24</ele>
        <time>2015-06-19T05:36:41Z</time>
      </trkpt>
      <trkpt lat="36.411418" lon="-6.138411">
        <ele>17.66</ele>
        <time>2015-06-19T05:36:42Z</time>
      </trkpt>
      <trkpt lat="36.411379" lon="-6.138313">
        <ele>17.65</ele>
        <time>2015-06-19T05:36:44Z</time>
      </trkpt>
      <trkpt lat="36.411278" lon="-6.138112">
        <ele>17.66</ele>
        <time>2015-06-19T05:36:48Z</time>
      </trkpt>
      <trkpt lat="36.411252" lon="-6.138004">
        <ele>17.66</ele>
        <time>2015-06-19T05:36:50Z</time>
      </trkpt>
      <trkpt lat="36.411291" lon="-6.137774">
        <ele>17.66</ele>
        <time>2015-06-19T05:36:54Z</time>
      </trkpt>
      <trkpt lat="36.411336" lon="-6.137669">
        <ele>17.60</ele>
        <time>2015-06-19T05:36:56Z</time>
      </trkpt>
      <trkpt lat="36.411393" lon="-6.137572">
        <ele>17.62</ele>
        <time>2015-06-19T05:36:58Z</time>
      </trkpt>
      <trkpt lat="36.411403" lon="-6.137390">
        <ele>17.61</ele>
        <time>2015-06-19T05:37:01Z</time>
      </trkpt>
      <trkpt lat="36.411397" lon="-6.137265">
        <ele>17.67</ele>
        <time>2015-06-19T05:37:03Z</time>
      </trkpt>
      <trkpt lat="36.411392" lon="-6.136952">
        <ele>17.64</ele>
        <time>2015-06-19T05:37:08Z</time>
      </trkpt>
      <trkpt lat="36.411394" lon="-6.136497">
        <ele>17.69</ele>
        <time>2015-06-19T05:37:15Z</time>
      </trkpt>
      <trkpt lat="36.411367" lon="-6.136254">
        <ele>17.66</ele>
        <time>2015-06-19T05:37:19Z</time>
      </trkpt>
      <trkpt lat="36.411315" lon="-6.136147">
        <ele>17.64</ele>
        <time>2015-06-19T05:37:21Z</time>
      </trkpt>
      <trkpt lat="36.411297" lon="-6.136087">
        <ele>17.68</ele>
        <time>2015-06-19T05:37:22Z</time>
      </trkpt>
      <trkpt lat="36.411280" lon="-6.135959">
        <ele>17.70</ele>
        <time>2015-06-19T05:37:24Z</time>
      </trkpt>
      <trkpt lat="36.411160" lon="-6.135773">
        <ele>17.69</ele>
        <time>2015-06-19T05:37:28Z</time>
      </trkpt>
      <trkpt lat="36.410994" lon="-6.135664">
        <ele>17.68</ele>
        <time>2015-06-19T05:37:32Z</time>
      </trkpt>
      <trkpt lat="36.410854" lon="-6.135661">
        <ele>17.63</ele>
        <time>2015-06-19T05:37:35Z</time>
      </trkpt>
      <trkpt lat="36.410760" lon="-6.135664">
        <ele>17.63</ele>
        <time>2015-06-19T05:37:37Z</time>
      </trkpt>
      <trkpt lat="36.410498" lon="-6.135686">
        <ele>17.61</ele>
        <time>2015-06-19T05:37:43Z</time>
      </trkpt>
      <trkpt lat="36.410350" lon="-6.135696">
        <ele>17.64</ele>
        <time>2015-06-19T05:37:48Z</time>
      </trkpt>
      <trkpt lat="36.410327" lon="-6.135697">
        <ele>17.65</ele>
        <time>2015-06-19T05:37:51Z</time>
      </trkpt>
      <trkpt lat="36.410327" lon="-6.135697">
        <ele>17.70</ele>
        <time>2015-06-19T05:37:57Z</time>
      </trkpt>
      <trkpt lat="36.410327" lon="-6.135697">
        <ele>17.67</ele>
        <time>2015-06-19T05:37:59Z</time>
      </trkpt>
      <trkpt lat="36.410327" lon="-6.135697">
        <ele>17.64</ele>
        <time>2015-06-19T05:38:01Z</time>
      </trkpt>
      <trkpt lat="36.410327" lon="-6.135697">
        <ele>17.68</ele>
        <time>2015-06-19T05:38:03Z</time>
      </trkpt>
      <trkpt lat="36.410327" lon="-6.135697">
        <ele>17.69</ele>
        <time>2015-06-19T05:38:07Z</time>
      </trkpt>
      <trkpt lat="36.410327" lon="-6.135697">
        <ele>17.65</ele>
        <time>2015-06-19T05:38:12Z</time>
      </trkpt>
      <trkpt lat="36.410327" lon="-6.135697">
        <ele>17.63</ele>
        <time>2015-06-19T05:38:13Z</time>
      </trkpt>
      <trkpt lat="36.410327" lon="-6.135697">
        <ele>17.62</ele>
        <time>2015-06-19T05:38:14Z</time>
      </trkpt>
      <trkpt lat="36.410327" lon="-6.135697">
        <ele>17.61</ele>
        <time>2015-06-19T05:38:16Z</time>
      </trkpt>
      <trkpt lat="36.410327" lon="-6.135697">
        <ele>17.61</ele>
        <time>2015-06-19T05:38:19Z</time>
      </trkpt>
      <trkpt lat="36.410327" lon="-6.135697">
        <ele>17.61</ele>
        <time>2015-06-19T05:38:21Z</time>
      </trkpt>
      <trkpt lat="36.410330" lon="-6.135695">
        <ele>17.69</ele>
        <time>2015-06-19T05:38:31Z</time>
      </trkpt>
      <trkpt lat="36.410330" lon="-6.135695">
        <ele>17.62</ele>
        <time>2015-06-19T05:38:32Z</time>
      </trkpt>
      <trkpt lat="36.410328" lon="-6.135695">
        <ele>17.68</ele>
        <time>2015-06-19T05:38:44Z</time>
      </trkpt>
      <trkpt lat="36.410322" lon="-6.135695">
        <ele>17.63</ele>
        <time>2015-06-19T05:38:49Z</time>
      </trkpt>
      <trkpt lat="36.410322" lon="-6.135695">
        <ele>17.68</ele>
        <time>2015-06-19T05:39:00Z</time>
      </trkpt>
      <trkpt lat="36.410271" lon="-6.135694">
        <ele>17.61</ele>
        <time>2015-06-19T05:39:05Z</time>
      </trkpt>
      <trkpt lat="36.410199" lon="-6.135691">
        <ele>17.64</ele>
        <time>2015-06-19T05:39:08Z</time>
      </trkpt>
      <trkpt lat="36.410140" lon="-6.135688">
        <ele>17.62</ele>
        <time>2015-06-19T05:39:10Z</time>
      </trkpt>
      <trkpt lat="36.409859" lon="-6.135700">
        <ele>17.64</ele>
        <time>2015-06-19T05:39:17Z</time>
      </trkpt>
      <trkpt lat="36.409503" lon="-6.135714">
        <ele>17.61</ele>
        <time>2015-06-19T05:39:25Z</time>
      </trkpt>
      <trkpt lat="36.409460" lon="-6.135712">
        <ele>17.61</ele>
        <time>2015-06-19T05:39:26Z</time>
      </trkpt>
      <trkpt lat="36.409302" lon="-6.135668">
        <ele>17.61</ele>
        <time>2015-06-19T05:39:30Z</time>
      </trkpt>
      <trkpt lat="36.409192" lon="-6.135631">
        <ele>17.65</ele>
        <time>2015-06-19T05:39:33Z</time>
      </trkpt>
      <trkpt lat="36.409153" lon="-6.135619">
        <ele>17.62</ele>
        <time>2015-06-19T05:39:34Z</time>
      </trkpt>
      <trkpt lat="36.409123" lon="-6.135597">
        <ele>17.21</ele>
        <time>2015-06-19T05:39:35Z</time>
      </trkpt>
      <trkpt lat="36.409100" lon="-6.135570">
        <ele>16.86</ele>
        <time>2015-06-19T05:39:36Z</time>
      </trkpt>
      <trkpt lat="36.409078" lon="-6.135536">
        <ele>16.42</ele>
        <time>2015-06-19T05:39:37Z</time>
      </trkpt>
      <trkpt lat="36.409054" lon="-6.135500">
        <ele>16.01</ele>
        <time>2015-06-19T05:39:38Z</time>
      </trkpt>
      <trkpt lat="36.409026" lon="-6.135466">
        <ele>15.70</ele>
        <time>2015-06-19T05:39:39Z</time>
      </trkpt>
      <trkpt lat="36.408887" lon="-6.135278">
        <ele>15.70</ele>
        <time>2015-06-19T05:39:44Z</time>
      </trkpt>
      <trkpt lat="36.408749" lon="-6.135091">
        <ele>15.65</ele>
        <time>2015-06-19T05:39:49Z</time>
      </trkpt>
      <trkpt lat="36.408689" lon="-6.135008">
        <ele>15.62</ele>
        <time>2015-06-19T05:39:51Z</time>
      </trkpt>
      <trkpt lat="36.408605" lon="-6.134860">
        <ele>15.61</ele>
        <time>2015-06-19T05:39:54Z</time>
      </trkpt>
      <trkpt lat="36.408557" lon="-6.134697">
        <ele>15.62</ele>
        <time>2015-06-19T05:39:57Z</time>
      </trkpt>
      <trkpt lat="36.408522" lon="-6.134505">
        <ele>15.64</ele>
        <time>2015-06-19T05:40:01Z</time>
      </trkpt>
      <trkpt lat="36.408499" lon="-6.134359">
        <ele>15.67</ele>
        <time>2015-06-19T05:40:04Z</time>
      </trkpt>
      <trkpt lat="36.408451" lon="-6.134035">
        <ele>15.67</ele>
        <time>2015-06-19T05:40:12Z</time>
      </trkpt>
      <trkpt lat="36.408398" lon="-6.133877">
        <ele>15.64</ele>
        <time>2015-06-19T05:40:16Z</time>
      </trkpt>
      <trkpt lat="36.408366" lon="-6.133850">
        <ele>15.62</ele>
        <time>2015-06-19T05:40:17Z</time>
      </trkpt>
      <trkpt lat="36.408214" lon="-6.133817">
        <ele>15.68</ele>
        <time>2015-06-19T05:40:21Z</time>
      </trkpt>
      <trkpt lat="36.408102" lon="-6.133834">
        <ele>15.66</ele>
        <time>2015-06-19T05:40:24Z</time>
      </trkpt>
      <trkpt lat="36.408063" lon="-6.133840">
        <ele>15.68</ele>
        <time>2015-06-19T05:40:26Z</time>
      </trkpt>
      <trkpt lat="36.407939" lon="-6.133852">
        <ele>15.63</ele>
        <time>2015-06-19T05:40:31Z</time>
      </trkpt>
      <trkpt lat="36.407839" lon="-6.133799">
        <ele>15.62</ele>
        <time>2015-06-19T05:40:34Z</time>
      </trkpt>
      <trkpt lat="36.407814" lon="-6.133755">
        <ele>15.61</ele>
        <time>2015-06-19T05:40:35Z</time>
      </trkpt>
      <trkpt lat="36.407761" lon="-6.133660">
        <ele>15.66</ele>
        <time>2015-06-19T05:40:37Z</time>
      </trkpt>
      <trkpt lat="36.407655" lon="-6.133530">
        <ele>15.68</ele>
        <time>2015-06-19T05:40:40Z</time>
      </trkpt>
      <trkpt lat="36.407473" lon="-6.133345">
        <ele>15.64</ele>
        <time>2015-06-19T05:40:45Z</time>
      </trkpt>
      <trkpt lat="36.407359" lon="-6.133238">
        <ele>15.70</ele>
        <time>2015-06-19T05:40:48Z</time>
      </trkpt>
      <trkpt lat="36.407273" lon="-6.133179">
        <ele>15.69</ele>
        <time>2015-06-19T05:40:50Z</time>
      </trkpt>
      <trkpt lat="36.407127" lon="-6.133132">
        <ele>15.68</ele>
        <time>2015-06-19T05:40:53Z</time>
      </trkpt>
      <trkpt lat="36.407076" lon="-6.133124">
        <ele>15.70</ele>
        <time>2015-06-19T05:40:54Z</time>
      </trkpt>
      <trkpt lat="36.407029" lon="-6.133123">
        <ele>15.64</ele>
        <time>2015-06-19T05:40:55Z</time>
      </trkpt>
      <trkpt lat="36.406848" lon="-6.133122">
        <ele>15.70</ele>
        <time>2015-06-19T05:40:59Z</time>
      </trkpt>
      <trkpt lat="36.406636" lon="-6.133108">
        <ele>16.02</ele>
        <time>2015-06-19T05:41:04Z</time>
      </trkpt>
      <trkpt lat="36.406596" lon="-6.133107">
        <ele>16.43</ele>
        <time>2015-06-19T05:41:05Z</time>
      </trkpt>
      <trkpt lat="36.406557" lon="-6.133107">
        <ele>16.81</ele>
        <time>2015-06-19T05:41:06Z</time>
      </trkpt>
      <trkpt lat="36.406516" lon="-6.133108">
        <ele>17.23</ele>
        <time>2015-06-19T05:41:07Z</time>
      </trkpt>
      <trkpt lat="36.406477" lon="-6.133109">
        <ele>17.67</ele>
        <time>2015-06-19T05:41:08Z</time>
      </trkpt>
      <trkpt lat="36.406222" lon="-6.133152">
        <ele>17.63</ele>
        <time>2015-06-19T05:41:15Z</time>
      </trkpt>
      <trkpt lat="36.406075" lon="-6.133195">
        <ele>18.05</ele>
        <time>2015-06-19T05:41:20Z</time>
      </trkpt>
      <trkpt lat="36.406047" lon="-6.133202">
        <ele>18.61</ele>
        <time>2015-06-19T05:41:21Z</time>
      </trkpt>
      <trkpt lat="36.406020" lon="-6.133210">
        <ele>19.07</ele>
        <time>2015-06-19T05:41:22Z</time>
      </trkpt>
      <trkpt lat="36.405992" lon="-6.133216">
        <ele>19.50</ele>
        <time>2015-06-19T05:41:23Z</time>
      </trkpt>
      <trkpt lat="36.405965" lon="-6.133224">
        <ele>19.81</ele>
        <time>2015-06-19T05:41:24Z</time>
      </trkpt>
      <trkpt lat="36.405858" lon="-6.133257">
        <ele>19.83</ele>
        <time>2015-06-19T05:41:28Z</time>
      </trkpt>
      <trkpt lat="36.405801" lon="-6.133287">
        <ele>20.29</ele>
        <time>2015-06-19T05:41:30Z</time>
      </trkpt>
      <trkpt lat="36.405774" lon="-6.133301">
        <ele>20.61</ele>
        <time>2015-06-19T05:41:31Z</time>
      </trkpt>
      <trkpt lat="36.405748" lon="-6.133312">
        <ele>21.01</ele>
        <time>2015-06-19T05:41:32Z</time>
      </trkpt>
      <trkpt lat="36.405721" lon="-6.133322">
        <ele>21.45</ele>
        <time>2015-06-19T05:41:33Z</time>
      </trkpt>
      <trkpt lat="36.405695" lon="-6.133333">
        <ele>21.82</ele>
        <time>2015-06-19T05:41:34Z</time>
      </trkpt>
      <trkpt lat="36.405669" lon="-6.133350">
        <ele>21.81</ele>
        <time>2015-06-19T05:41:35Z</time>
      </trkpt>
      <trkpt lat="36.405490" lon="-6.133450">
        <ele>21.84</ele>
        <time>2015-06-19T05:41:41Z</time>
      </trkpt>
      <trkpt lat="36.405342" lon="-6.133503">
        <ele>22.49</ele>
        <time>2015-06-19T05:41:46Z</time>
      </trkpt>
      <trkpt lat="36.405315" lon="-6.133515">
        <ele>22.88</ele>
        <time>2015-06-19T05:41:47Z</time>
      </trkpt>
      <trkpt lat="36.405290" lon="-6.133529">
        <ele>23.29</ele>
        <time>2015-06-19T05:41:48Z</time>
      </trkpt>
      <trkpt lat="36.405265" lon="-6.133540">
        <ele>23.65</ele>
        <time>2015-06-19T05:41:49Z</time>
      </trkpt>
      <trkpt lat="36.405239" lon="-6.133550">
        <ele>24.04</ele>
        <time>2015-06-19T05:41:50Z</time>
      </trkpt>
      <trkpt lat="36.405101" lon="-6.133608">
        <ele>24.48</ele>
        <time>2015-06-19T05:41:56Z</time>
      </trkpt>
      <trkpt lat="36.405080" lon="-6.133615">
        <ele>24.81</ele>
        <time>2015-06-19T05:41:57Z</time>
      </trkpt>
      <trkpt lat="36.405055" lon="-6.133622">
        <ele>25.21</ele>
        <time>2015-06-19T05:41:58Z</time>
      </trkpt>
      <trkpt lat="36.405029" lon="-6.133629">
        <ele>25.64</ele>
        <time>2015-06-19T05:41:59Z</time>
      </trkpt>
      <trkpt lat="36.405007" lon="-6.133639">
        <ele>26.07</ele>
        <time>2015-06-19T05:42:00Z</time>
      </trkpt>
      <trkpt lat="36.404925" lon="-6.133670">
        <ele>26.06</ele>
        <time>2015-06-19T05:42:04Z</time>
      </trkpt>
      <trkpt lat="36.404886" lon="-6.133684">
        <ele>26.42</ele>
        <time>2015-06-19T05:42:06Z</time>
      </trkpt>
      <trkpt lat="36.404867" lon="-6.133693">
        <ele>27.06</ele>
        <time>2015-06-19T05:42:07Z</time>
      </trkpt>
      <trkpt lat="36.404848" lon="-6.133701">
        <ele>27.48</ele>
        <time>2015-06-19T05:42:08Z</time>
      </trkpt>
      <trkpt lat="36.404827" lon="-6.133704">
        <ele>27.85</ele>
        <time>2015-06-19T05:42:09Z</time>
      </trkpt>
      <trkpt lat="36.404806" lon="-6.133707">
        <ele>28.28</ele>
        <time>2015-06-19T05:42:10Z</time>
      </trkpt>
      <trkpt lat="36.404763" lon="-6.133708">
        <ele>28.26</ele>
        <time>2015-06-19T05:42:12Z</time>
      </trkpt>
      <trkpt lat="36.404682" lon="-6.133728">
        <ele>29.08</ele>
        <time>2015-06-19T05:42:15Z</time>
      </trkpt>
      <trkpt lat="36.404656" lon="-6.133736">
        <ele>29.41</ele>
        <time>2015-06-19T05:42:16Z</time>
      </trkpt>
      <trkpt lat="36.404631" lon="-6.133743">
        <ele>29.81</ele>
        <time>2015-06-19T05:42:17Z</time>
      </trkpt>
      <trkpt lat="36.404605" lon="-6.133751">
        <ele>30.28</ele>
        <time>2015-06-19T05:42:18Z</time>
      </trkpt>
      <trkpt lat="36.404358" lon="-6.133814">
        <ele>30.21</ele>
        <time>2015-06-19T05:42:25Z</time>
      </trkpt>
      <trkpt lat="36.404189" lon="-6.133844">
        <ele>30.27</ele>
        <time>2015-06-19T05:42:29Z</time>
      </trkpt>
      <trkpt lat="36.404052" lon="-6.133890">
        <ele>30.29</ele>
        <time>2015-06-19T05:42:32Z</time>
      </trkpt>
      <trkpt lat="36.403822" lon="-6.133952">
        <ele>30.21</ele>
        <time>2015-06-19T05:42:37Z</time>
      </trkpt>
      <trkpt lat="36.403688" lon="-6.133987">
        <ele>30.25</ele>
        <time>2015-06-19T05:42:40Z</time>
      </trkpt>
      <trkpt lat="36.403554" lon="-6.134026">
        <ele>30.27</ele>
        <time>2015-06-19T05:42:43Z</time>
      </trkpt>
      <trkpt lat="36.403424" lon="-6.134059">
        <ele>30.26</ele>
        <time>2015-06-19T05:42:46Z</time>
      </trkpt>
      <trkpt lat="36.403355" lon="-6.134072">
        <ele>30.27</ele>
        <time>2015-06-19T05:42:48Z</time>
      </trkpt>
      <trkpt lat="36.403098" lon="-6.134117">
        <ele>30.83</ele>
        <time>2015-06-19T05:42:56Z</time>
      </trkpt>
      <trkpt lat="36.403065" lon="-6.134124">
        <ele>31.22</ele>
        <time>2015-06-19T05:42:57Z</time>
      </trkpt>
      <trkpt lat="36.403034" lon="-6.134130">
        <ele>31.61</ele>
        <time>2015-06-19T05:42:58Z</time>
      </trkpt>
      <trkpt lat="36.403003" lon="-6.134136">
        <ele>32.07</ele>
        <time>2015-06-19T05:42:59Z</time>
      </trkpt>
      <trkpt lat="36.402973" lon="-6.134143">
        <ele>32.42</ele>
        <time>2015-06-19T05:43:00Z</time>
      </trkpt>
      <trkpt lat="36.402844" lon="-6.134165">
        <ele>32.42</ele>
        <time>2015-06-19T05:43:04Z</time>
      </trkpt>
      <trkpt lat="36.402744" lon="-6.134185">
        <ele>32.88</ele>
        <time>2015-06-19T05:43:07Z</time>
      </trkpt>
      <trkpt lat="36.402710" lon="-6.134189">
        <ele>33.24</ele>
        <time>2015-06-19T05:43:08Z</time>
      </trkpt>
      <trkpt lat="36.402679" lon="-6.134193">
        <ele>33.62</ele>
        <time>2015-06-19T05:43:09Z</time>
      </trkpt>
      <trkpt lat="36.402648" lon="-6.134196">
        <ele>34.06</ele>
        <time>2015-06-19T05:43:10Z</time>
      </trkpt>
      <trkpt lat="36.402618" lon="-6.134202">
        <ele>34.44</ele>
        <time>2015-06-19T05:43:11Z</time>
      </trkpt>
      <trkpt lat="36.402558" lon="-6.134212">
        <ele>34.44</ele>
        <time>2015-06-19T05:43:13Z</time>
      </trkpt>
      <trkpt lat="36.402373" lon="-6.134231">
        <ele>34.81</ele>
        <time>2015-06-19T05:43:19Z</time>
      </trkpt>
      <trkpt lat="36.402344" lon="-6.134230">
        <ele>35.22</ele>
        <time>2015-06-19T05:43:20Z</time>
      </trkpt>
      <trkpt lat="36.402317" lon="-6.134229">
        <ele>35.81</ele>
        <time>2015-06-19T05:43:21Z</time>
      </trkpt>
      <trkpt lat="36.402288" lon="-6.134226">
        <ele>36.24</ele>
        <time>2015-06-19T05:43:22Z</time>
      </trkpt>
      <trkpt lat="36.402258" lon="-6.134220">
        <ele>36.65</ele>
        <time>2015-06-19T05:43:23Z</time>
      </trkpt>
      <trkpt lat="36.402076" lon="-6.134196">
        <ele>36.66</ele>
        <time>2015-06-19T05:43:29Z</time>
      </trkpt>
      <trkpt lat="36.402045" lon="-6.134198">
        <ele>37.46</ele>
        <time>2015-06-19T05:43:30Z</time>
      </trkpt>
      <trkpt lat="36.402013" lon="-6.134203">
        <ele>37.89</ele>
        <time>2015-06-19T05:43:31Z</time>
      </trkpt>
      <trkpt lat="36.401981" lon="-6.134205">
        <ele>38.21</ele>
        <time>2015-06-19T05:43:32Z</time>
      </trkpt>
      <trkpt lat="36.401950" lon="-6.134204">
        <ele>38.89</ele>
        <time>2015-06-19T05:43:33Z</time>
      </trkpt>
      <trkpt lat="36.401887" lon="-6.134192">
        <ele>38.87</ele>
        <time>2015-06-19T05:43:35Z</time>
      </trkpt>
      <trkpt lat="36.401653" lon="-6.134091">
        <ele>38.84</ele>
        <time>2015-06-19T05:43:42Z</time>
      </trkpt>
      <trkpt lat="36.401411" lon="-6.133925">
        <ele>38.85</ele>
        <time>2015-06-19T05:43:49Z</time>
      </trkpt>
      <trkpt lat="36.401375" lon="-6.133900">
        <ele>39.21</ele>
        <time>2015-06-19T05:43:50Z</time>
      </trkpt>
      <trkpt lat="36.401338" lon="-6.133873">
        <ele>39.61</ele>
        <time>2015-06-19T05:43:51Z</time>
      </trkpt>
      <trkpt lat="36.401304" lon="-6.133842">
        <ele>40.08</ele>
        <time>2015-06-19T05:43:52Z</time>
      </trkpt>
      <trkpt lat="36.401271" lon="-6.133807">
        <ele>40.43</ele>
        <time>2015-06-19T05:43:53Z</time>
      </trkpt>
      <trkpt lat="36.401240" lon="-6.133767">
        <ele>40.86</ele>
        <time>2015-06-19T05:43:54Z</time>
      </trkpt>
      <trkpt lat="36.401210" lon="-6.133728">
        <ele>40.83</ele>
        <time>2015-06-19T05:43:55Z</time>
      </trkpt>
      <trkpt lat="36.401156" lon="-6.133646">
        <ele>40.87</ele>
        <time>2015-06-19T05:43:57Z</time>
      </trkpt>
      <trkpt lat="36.401081" lon="-6.133516">
        <ele>40.82</ele>
        <time>2015-06-19T05:44:00Z</time>
      </trkpt>
      <trkpt lat="36.401059" lon="-6.133469">
        <ele>40.89</ele>
        <time>2015-06-19T05:44:01Z</time>
      </trkpt>
      <trkpt lat="36.400903" lon="-6.133080">
        <ele>40.84</ele>
        <time>2015-06-19T05:44:09Z</time>
      </trkpt>
      <trkpt lat="36.400814" lon="-6.132872">
        <ele>40.83</ele>
        <time>2015-06-19T05:44:13Z</time>
      </trkpt>
      <trkpt lat="36.400734" lon="-6.132654">
        <ele>40.87</ele>
        <time>2015-06-19T05:44:17Z</time>
      </trkpt>
      <trkpt lat="36.400543" lon="-6.132169">
        <ele>40.81</ele>
        <time>2015-06-19T05:44:26Z</time>
      </trkpt>
      <trkpt lat="36.400334" lon="-6.131663">
        <ele>40.81</ele>
        <time>2015-06-19T05:44:35Z</time>
      </trkpt>
      <trkpt lat="36.400258" lon="-6.131449">
        <ele>40.83</ele>
        <time>2015-06-19T05:44:39Z</time>
      </trkpt>
      <trkpt lat="36.400183" lon="-6.131252">
        <ele>40.89</ele>
        <time>2015-06-19T05:44:43Z</time>
      </trkpt>
      <trkpt lat="36.400119" lon="-6.131100">
        <ele>40.86</ele>
        <time>2015-06-19T05:44:46Z</time>
      </trkpt>
      <trkpt lat="36.400056" lon="-6.130943">
        <ele>40.87</ele>
        <time>2015-06-19T05:44:49Z</time>
      </trkpt>
      <trkpt lat="36.399991" lon="-6.130779">
        <ele>40.86</ele>
        <time>2015-06-19T05:44:52Z</time>
      </trkpt>
      <trkpt lat="36.399921" lon="-6.130609">
        <ele>40.48</ele>
        <time>2015-06-19T05:44:55Z</time>
      </trkpt>
      <trkpt lat="36.399899" lon="-6.130552">
        <ele>40.04</ele>
        <time>2015-06-19T05:44:56Z</time>
      </trkpt>
      <trkpt lat="36.399875" lon="-6.130495">
        <ele>39.66</ele>
        <time>2015-06-19T05:44:57Z</time>
      </trkpt>
      <trkpt lat="36.399851" lon="-6.130439">
        <ele>39.07</ele>
        <time>2015-06-19T05:44:58Z</time>
      </trkpt>
      <trkpt lat="36.399829" lon="-6.130379">
        <ele>38.64</ele>
        <time>2015-06-19T05:44:59Z</time>
      </trkpt>
      <trkpt lat="36.399790" lon="-6.130256">
        <ele>38.63</ele>
        <time>2015-06-19T05:45:01Z</time>
      </trkpt>
      <trkpt lat="36.399755" lon="-6.130147">
        <ele>38.61</ele>
        <time>2015-06-19T05:45:03Z</time>
      </trkpt>
      <trkpt lat="36.399717" lon="-6.130055">
        <ele>38.69</ele>
        <time>2015-06-19T05:45:05Z</time>
      </trkpt>
      <trkpt lat="36.399675" lon="-6.130007">
        <ele>38.22</ele>
        <time>2015-06-19T05:45:07Z</time>
      </trkpt>
      <trkpt lat="36.399645" lon="-6.130008">
        <ele>37.49</ele>
        <time>2015-06-19T05:45:08Z</time>
      </trkpt>
      <trkpt lat="36.399617" lon="-6.130021">
        <ele>37.06</ele>
        <time>2015-06-19T05:45:09Z</time>
      </trkpt>
      <trkpt lat="36.399594" lon="-6.130041">
        <ele>36.66</ele>
        <time>2015-06-19T05:45:10Z</time>
      </trkpt>
      <trkpt lat="36.399575" lon="-6.130062">
        <ele>36.65</ele>
        <time>2015-06-19T05:45:11Z</time>
      </trkpt>
      <trkpt lat="36.399557" lon="-6.130077">
        <ele>36.67</ele>
        <time>2015-06-19T05:45:12Z</time>
      </trkpt>
      <trkpt lat="36.399507" lon="-6.130118">
        <ele>36.62</ele>
        <time>2015-06-19T05:45:17Z</time>
      </trkpt>
      <trkpt lat="36.399464" lon="-6.130116">
        <ele>36.63</ele>
        <time>2015-06-19T05:45:19Z</time>
      </trkpt>
      <trkpt lat="36.399386" lon="-6.130095">
        <ele>36.69</ele>
        <time>2015-06-19T05:45:22Z</time>
      </trkpt>
      <trkpt lat="36.399308" lon="-6.130074">
        <ele>36.61</ele>
        <time>2015-06-19T05:45:24Z</time>
      </trkpt>
      <trkpt lat="36.399222" lon="-6.130034">
        <ele>36.61</ele>
        <time>2015-06-19T05:45:26Z</time>
      </trkpt>
      <trkpt lat="36.399042" lon="-6.129917">
        <ele>36.62</ele>
        <time>2015-06-19T05:45:31Z</time>
      </trkpt>
      <trkpt lat="36.399019" lon="-6.129904">
        <ele>36.68</ele>
        <time>2015-06-19T05:45:32Z</time>
      </trkpt>
      <trkpt lat="36.399001" lon="-6.129898">
        <ele>36.28</ele>
        <time>2015-06-19T05:45:33Z</time>
      </trkpt>
      <trkpt lat="36.398987" lon="-6.129893">
        <ele>35.64</ele>
        <time>2015-06-19T05:45:34Z</time>
      </trkpt>
      <trkpt lat="36.398968" lon="-6.129891">
        <ele>35.23</ele>
        <time>2015-06-19T05:45:35Z</time>
      </trkpt>
      <trkpt lat="36.398952" lon="-6.129890">
        <ele>34.85</ele>
        <time>2015-06-19T05:45:36Z</time>
      </trkpt>
      <trkpt lat="36.398937" lon="-6.129890">
        <ele>34.47</ele>
        <time>2015-06-19T05:45:37Z</time>
      </trkpt>
      <trkpt lat="36.398841" lon="-6.129899">
        <ele>34.48</ele>
        <time>2015-06-19T05:45:41Z</time>
      </trkpt>
      <trkpt lat="36.398675" lon="-6.129937">
        <ele>34.48</ele>
        <time>2015-06-19T05:45:45Z</time>
      </trkpt>
      <trkpt lat="36.398625" lon="-6.129950">
        <ele>34.42</ele>
        <time>2015-06-19T05:45:46Z</time>
      </trkpt>
      <trkpt lat="36.398300" lon="-6.130023">
        <ele>34.42</ele>
        <time>2015-06-19T05:45:53Z</time>
      </trkpt>
      <trkpt lat="36.398084" lon="-6.130058">
        <ele>34.41</ele>
        <time>2015-06-19T05:45:58Z</time>
      </trkpt>
      <trkpt lat="36.398038" lon="-6.130067">
        <ele>34.10</ele>
        <time>2015-06-19T05:45:59Z</time>
      </trkpt>
      <trkpt lat="36.397991" lon="-6.130075">
        <ele>33.69</ele>
        <time>2015-06-19T05:46:00Z</time>
      </trkpt>
      <trkpt lat="36.397943" lon="-6.130083">
        <ele>33.22</ele>
        <time>2015-06-19T05:46:01Z</time>
      </trkpt>
      <trkpt lat="36.397902" lon="-6.130089">
        <ele>32.87</ele>
        <time>2015-06-19T05:46:02Z</time>
      </trkpt>
      <trkpt lat="36.397861" lon="-6.130095">
        <ele>32.48</ele>
        <time>2015-06-19T05:46:03Z</time>
      </trkpt>
      <trkpt lat="36.397824" lon="-6.130106">
        <ele>32.42</ele>
        <time>2015-06-19T05:46:04Z</time>
      </trkpt>
      <trkpt lat="36.397584" lon="-6.130236">
        <ele>32.45</ele>
        <time>2015-06-19T05:46:11Z</time>
      </trkpt>
      <trkpt lat="36.397588" lon="-6.130401">
        <ele>32.41</ele>
        <time>2015-06-19T05:46:14Z</time>
      </trkpt>
      <trkpt lat="36.397602" lon="-6.130453">
        <ele>32.45</ele>
        <time>2015-06-19T05:46:15Z</time>
      </trkpt>
      <trkpt lat="36.397645" lon="-6.130649">
        <ele>32.40</ele>
        <time>2015-06-19T05:46:19Z</time>
      </trkpt>
      <trkpt lat="36.397658" lon="-6.130700">
        <ele>32.41</ele>
        <time>2015-06-19T05:46:20Z</time>
      </trkpt>
      <trkpt lat="36.397675" lon="-6.130806">
        <ele>32.41</ele>
        <time>2015-06-19T05:46:22Z</time>
      </trkpt>
      <trkpt lat="36.397705" lon="-6.131004">
        <ele>32.44</ele>
        <time>2015-06-19T05:46:26Z</time>
      </trkpt>
      <trkpt lat="36.397752" lon="-6.131259">
        <ele>32.44</ele>
        <time>2015-06-19T05:46:33Z</time>
      </trkpt>
      <trkpt lat="36.397748" lon="-6.131308">
        <ele>32.45</ele>
        <time>2015-06-19T05:46:35Z</time>
      </trkpt>
      <trkpt lat="36.397718" lon="-6.131327">
        <ele>32.48</ele>
        <time>2015-06-19T05:46:37Z</time>
      </trkpt>
      <trkpt lat="36.397604" lon="-6.131324">
        <ele>32.47</ele>
        <time>2015-06-19T05:46:41Z</time>
      </trkpt>
      <trkpt lat="36.397453" lon="-6.131380">
        <ele>32.42</ele>
        <time>2015-06-19T05:46:45Z</time>
      </trkpt>
      <trkpt lat="36.397412" lon="-6.131388">
        <ele>32.49</ele>
        <time>2015-06-19T05:46:46Z</time>
      </trkpt>
      <trkpt lat="36.397167" lon="-6.131455">
        <ele>32.82</ele>
        <time>2015-06-19T05:46:52Z</time>
      </trkpt>
      <trkpt lat="36.397127" lon="-6.131467">
        <ele>33.24</ele>
        <time>2015-06-19T05:46:53Z</time>
      </trkpt>
      <trkpt lat="36.397085" lon="-6.131478">
        <ele>33.65</ele>
        <time>2015-06-19T05:46:54Z</time>
      </trkpt>
      <trkpt lat="36.397043" lon="-6.131490">
        <ele>34.01</ele>
        <time>2015-06-19T05:46:55Z</time>
      </trkpt>
      <trkpt lat="36.397006" lon="-6.131505">
        <ele>34.41</ele>
        <time>2015-06-19T05:46:56Z</time>
      </trkpt>
      <trkpt lat="36.396965" lon="-6.131513">
        <ele>34.47</ele>
        <time>2015-06-19T05:46:57Z</time>
      </trkpt>
      <trkpt lat="36.396886" lon="-6.131534">
        <ele>34.45</ele>
        <time>2015-06-19T05:46:59Z</time>
      </trkpt>
      <trkpt lat="36.396658" lon="-6.131609">
        <ele>34.48</ele>
        <time>2015-06-19T05:47:05Z</time>
      </trkpt>
      <trkpt lat="36.396489" lon="-6.131586">
        <ele>34.43</ele>
        <time>2015-06-19T05:47:10Z</time>
      </trkpt>
      <trkpt lat="36.396368" lon="-6.131524">
        <ele>34.43</ele>
        <time>2015-06-19T05:47:15Z</time>
      </trkpt>
      <trkpt lat="36.396281" lon="-6.131487">
        <ele>34.48</ele>
        <time>2015-06-19T05:47:19Z</time>
      </trkpt>
      <trkpt lat="36.396242" lon="-6.131488">
        <ele>34.46</ele>
        <time>2015-06-19T05:47:20Z</time>
      </trkpt>
      <trkpt lat="36.396022" lon="-6.131468">
        <ele>34.46</ele>
        <time>2015-06-19T05:47:25Z</time>
      </trkpt>
      <trkpt lat="36.395821" lon="-6.131446">
        <ele>34.45</ele>
        <time>2015-06-19T05:47:30Z</time>
      </trkpt>
      <trkpt lat="36.395680" lon="-6.131423">
        <ele>34.49</ele>
        <time>2015-06-19T05:47:33Z</time>
      </trkpt>
      <trkpt lat="36.395460" lon="-6.131387">
        <ele>34.42</ele>
        <time>2015-06-19T05:47:38Z</time>
      </trkpt>
      <trkpt lat="36.395209" lon="-6.131318">
        <ele>34.41</ele>
        <time>2015-06-19T05:47:44Z</time>
      </trkpt>
      <trkpt lat="36.395076" lon="-6.131285">
        <ele>34.45</ele>
        <time>2015-06-19T05:47:47Z</time>
      </trkpt>
      <trkpt lat="36.394877" lon="-6.131269">
        <ele>34.47</ele>
        <time>2015-06-19T05:47:51Z</time>
      </trkpt>
      <trkpt lat="36.394593" lon="-6.131283">
        <ele>34.47</ele>
        <time>2015-06-19T05:47:57Z</time>
      </trkpt>
      <trkpt lat="36.394552" lon="-6.131412">
        <ele>34.02</ele>
        <time>2015-06-19T05:48:00Z</time>
      </trkpt>
      <trkpt lat="36.394550" lon="-6.131453">
        <ele>33.67</ele>
        <time>2015-06-19T05:48:01Z</time>
      </trkpt>
      <trkpt lat="36.394545" lon="-6.131491">
        <ele>33.22</ele>
        <time>2015-06-19T05:48:02Z</time>
      </trkpt>
      <trkpt lat="36.394531" lon="-6.131521">
        <ele>32.82</ele>
        <time>2015-06-19T05:48:03Z</time>
      </trkpt>
      <trkpt lat="36.394512" lon="-6.131542">
        <ele>32.49</ele>
        <time>2015-06-19T05:48:04Z</time>
      </trkpt>
      <trkpt lat="36.394488" lon="-6.131554">
        <ele>32.47</ele>
        <time>2015-06-19T05:48:05Z</time>
      </trkpt>
      <trkpt lat="36.394356" lon="-6.131554">
        <ele>32.48</ele>
        <time>2015-06-19T05:48:09Z</time>
      </trkpt>
      <trkpt lat="36.394325" lon="-6.131567">
        <ele>32.42</ele>
        <time>2015-06-19T05:48:10Z</time>
      </trkpt>
      <trkpt lat="36.394304" lon="-6.131629">
        <ele>32.41</ele>
        <time>2015-06-19T05:48:12Z</time>
      </trkpt>
      <trkpt lat="36.394273" lon="-6.131853">
        <ele>32.44</ele>
        <time>2015-06-19T05:48:17Z</time>
      </trkpt>
      <trkpt lat="36.394264" lon="-6.131905">
        <ele>32.49</ele>
        <time>2015-06-19T05:48:18Z</time>
      </trkpt>
      <trkpt lat="36.394231" lon="-6.132064">
        <ele>32.47</ele>
        <time>2015-06-19T05:48:21Z</time>
      </trkpt>
      <trkpt lat="36.394206" lon="-6.132175">
        <ele>32.49</ele>
        <time>2015-06-19T05:48:23Z</time>
      </trkpt>
      <trkpt lat="36.394195" lon="-6.132235">
        <ele>32.45</ele>
        <time>2015-06-19T05:48:24Z</time>
      </trkpt>
      <trkpt lat="36.394181" lon="-6.132354">
        <ele>32.48</ele>
        <time>2015-06-19T05:48:26Z</time>
      </trkpt>
      <trkpt lat="36.394155" lon="-6.132470">
        <ele>32.49</ele>
        <time>2015-06-19T05:48:28Z</time>
      </trkpt>
      <trkpt lat="36.394118" lon="-6.132589">
        <ele>32.45</ele>
        <time>2015-06-19T05:48:30Z</time>
      </trkpt>
      <trkpt lat="36.393996" lon="-6.133066">
        <ele>32.42</ele>
        <time>2015-06-19T05:48:37Z</time>
      </trkpt>
      <trkpt lat="36.393928" lon="-6.133456">
        <ele>32.49</ele>
        <time>2015-06-19T05:48:42Z</time>
      </trkpt>
      <trkpt lat="36.393914" lon="-6.133539">
        <ele>32.41</ele>
        <time>2015-06-19T05:48:43Z</time>
      </trkpt>
      <trkpt lat="36.393853" lon="-6.133763">
        <ele>32.41</ele>
        <time>2015-06-19T05:48:46Z</time>
      </trkpt>
      <trkpt lat="36.393839" lon="-6.133844">
        <ele>32.48</ele>
        <time>2015-06-19T05:48:47Z</time>
      </trkpt>
      <trkpt lat="36.393772" lon="-6.134296">
        <ele>32.43</ele>
        <time>2015-06-19T05:48:53Z</time>
      </trkpt>
      <trkpt lat="36.393756" lon="-6.134365">
        <ele>32.43</ele>
        <time>2015-06-19T05:48:54Z</time>
      </trkpt>
      <trkpt lat="36.393674" lon="-6.134719">
        <ele>32.42</ele>
        <time>2015-06-19T05:48:59Z</time>
      </trkpt>
      <trkpt lat="36.393574" lon="-6.135161">
        <ele>32.49</ele>
        <time>2015-06-19T05:49:06Z</time>
      </trkpt>
      <trkpt lat="36.393513" lon="-6.135356">
        <ele>32.45</ele>
        <time>2015-06-19T05:49:10Z</time>
      </trkpt>
      <trkpt lat="36.393493" lon="-6.135394">
        <ele>32.46</ele>
        <time>2015-06-19T05:49:11Z</time>
      </trkpt>
      <trkpt lat="36.393485" lon="-6.135445">
        <ele>32.44</ele>
        <time>2015-06-19T05:49:12Z</time>
      </trkpt>
      <trkpt lat="36.393474" lon="-6.135556">
        <ele>32.50</ele>
        <time>2015-06-19T05:49:14Z</time>
      </trkpt>
      <trkpt lat="36.393463" lon="-6.135608">
        <ele>32.43</ele>
        <time>2015-06-19T05:49:15Z</time>
      </trkpt>
      <trkpt lat="36.393423" lon="-6.135804">
        <ele>32.42</ele>
        <time>2015-06-19T05:49:19Z</time>
      </trkpt>
      <trkpt lat="36.393339" lon="-6.136156">
        <ele>32.41</ele>
        <time>2015-06-19T05:49:27Z</time>
      </trkpt>
      <trkpt lat="36.393332" lon="-6.136192">
        <ele>32.87</ele>
        <time>2015-06-19T05:49:28Z</time>
      </trkpt>
      <trkpt lat="36.393321" lon="-6.136227">
        <ele>33.23</ele>
        <time>2015-06-19T05:49:29Z</time>
      </trkpt>
      <trkpt lat="36.393304" lon="-6.136253">
        <ele>33.67</ele>
        <time>2015-06-19T05:49:30Z</time>
      </trkpt>
      <trkpt lat="36.393281" lon="-6.136264">
        <ele>34.07</ele>
        <time>2015-06-19T05:49:31Z</time>
      </trkpt>
      <trkpt lat="36.393253" lon="-6.136260">
        <ele>34.43</ele>
        <time>2015-06-19T05:49:32Z</time>
      </trkpt>
      <trkpt lat="36.393064" lon="-6.136198">
        <ele>34.47</ele>
        <time>2015-06-19T05:49:37Z</time>
      </trkpt>
      <trkpt lat="36.392741" lon="-6.136079">
        <ele>34.42</ele>
        <time>2015-06-19T05:49:44Z</time>
      </trkpt>
      <trkpt lat="36.392369" lon="-6.135934">
        <ele>34.42</ele>
        <time>2015-06-19T05:49:52Z</time>
      </trkpt>
      <trkpt lat="36.392056" lon="-6.135810">
        <ele>34.42</ele>
        <time>2015-06-19T05:49:58Z</time>
      </trkpt>
      <trkpt lat="36.391761" lon="-6.135743">
        <ele>34.50</ele>
        <time>2015-06-19T05:50:03Z</time>
      </trkpt>
      <trkpt lat="36.391707" lon="-6.135734">
        <ele>34.42</ele>
        <time>2015-06-19T05:50:04Z</time>
      </trkpt>
      <trkpt lat="36.391502" lon="-6.135712">
        <ele>34.41</ele>
        <time>2015-06-19T05:50:08Z</time>
      </trkpt>
      <trkpt lat="36.391404" lon="-6.135709">
        <ele>34.47</ele>
        <time>2015-06-19T05:50:10Z</time>
      </trkpt>
      <trkpt lat="36.391073" lon="-6.135695">
        <ele>34.45</ele>
        <time>2015-06-19T05:50:17Z</time>
      </trkpt>
      <trkpt lat="36.390794" lon="-6.135676">
        <ele>34.48</ele>
        <time>2015-06-19T05:50:23Z</time>
      </trkpt>
      <trkpt lat="36.390522" lon="-6.135677">
        <ele>34.49</ele>
        <time>2015-06-19T05:50:29Z</time>
      </trkpt>
      <trkpt lat="36.390425" lon="-6.135674">
        <ele>34.45</ele>
        <time>2015-06-19T05:50:31Z</time>
      </trkpt>
      <trkpt lat="36.390082" lon="-6.135680">
        <ele>34.49</ele>
        <time>2015-06-19T05:50:39Z</time>
      </trkpt>
      <trkpt lat="36.390032" lon="-6.135684">
        <ele>34.42</ele>
        <time>2015-06-19T05:50:40Z</time>
      </trkpt>
      <trkpt lat="36.389790" lon="-6.135706">
        <ele>34.44</ele>
        <time>2015-06-19T05:50:45Z</time>
      </trkpt>
      <trkpt lat="36.389450" lon="-6.135753">
        <ele>34.41</ele>
        <time>2015-06-19T05:50:53Z</time>
      </trkpt>
      <trkpt lat="36.389235" lon="-6.135724">
        <ele>34.45</ele>
        <time>2015-06-19T05:50:59Z</time>
      </trkpt>
      <trkpt lat="36.389120" lon="-6.135678">
        <ele>34.41</ele>
        <time>2015-06-19T05:51:05Z</time>
      </trkpt>
      <trkpt lat="36.388999" lon="-6.135594">
        <ele>34.41</ele>
        <time>2015-06-19T05:51:11Z</time>
      </trkpt>
      <trkpt lat="36.388967" lon="-6.135562">
        <ele>34.45</ele>
        <time>2015-06-19T05:51:13Z</time>
      </trkpt>
      <trkpt lat="36.388956" lon="-6.135541">
        <ele>34.83</ele>
        <time>2015-06-19T05:51:14Z</time>
      </trkpt>
      <trkpt lat="36.388948" lon="-6.135520">
        <ele>35.26</ele>
        <time>2015-06-19T05:51:15Z</time>
      </trkpt>
      <trkpt lat="36.388937" lon="-6.135499">
        <ele>35.69</ele>
        <time>2015-06-19T05:51:16Z</time>
      </trkpt>
      <trkpt lat="36.388926" lon="-6.135478">
        <ele>36.27</ele>
        <time>2015-06-19T05:51:17Z</time>
      </trkpt>
      <trkpt lat="36.388910" lon="-6.135455">
        <ele>36.67</ele>
        <time>2015-06-19T05:51:18Z</time>
      </trkpt>
      <trkpt lat="36.388869" lon="-6.135397">
        <ele>36.67</ele>
        <time>2015-06-19T05:51:21Z</time>
      </trkpt>
      <trkpt lat="36.388858" lon="-6.135372">
        <ele>37.08</ele>
        <time>2015-06-19T05:51:22Z</time>
      </trkpt>
      <trkpt lat="36.388843" lon="-6.135351">
        <ele>37.42</ele>
        <time>2015-06-19T05:51:23Z</time>
      </trkpt>
      <trkpt lat="36.388828" lon="-6.135326">
        <ele>37.83</ele>
        <time>2015-06-19T05:51:24Z</time>
      </trkpt>
      <trkpt lat="36.388816" lon="-6.135300">
        <ele>38.21</ele>
        <time>2015-06-19T05:51:25Z</time>
      </trkpt>
      <trkpt lat="36.388800" lon="-6.135275">
        <ele>38.61</ele>
        <time>2015-06-19T05:51:26Z</time>
      </trkpt>
      <trkpt lat="36.388783" lon="-6.135255">
        <ele>38.66</ele>
        <time>2015-06-19T05:51:27Z</time>
      </trkpt>
      <trkpt lat="36.388763" lon="-6.135234">
        <ele>38.64</ele>
        <time>2015-06-19T05:51:28Z</time>
      </trkpt>
      <trkpt lat="36.388695" lon="-6.135152">
        <ele>39.01</ele>
        <time>2015-06-19T05:51:32Z</time>
      </trkpt>
      <trkpt lat="36.388682" lon="-6.135124">
        <ele>39.48</ele>
        <time>2015-06-19T05:51:33Z</time>
      </trkpt>
      <trkpt lat="36.388667" lon="-6.135099">
        <ele>40.03</ele>
        <time>2015-06-19T05:51:34Z</time>
      </trkpt>
      <trkpt lat="36.388658" lon="-6.135070">
        <ele>40.50</ele>
        <time>2015-06-19T05:51:35Z</time>
      </trkpt>
      <trkpt lat="36.388650" lon="-6.135041">
        <ele>40.83</ele>
        <time>2015-06-19T05:51:36Z</time>
      </trkpt>
      <trkpt lat="36.388626" lon="-6.134955">
        <ele>40.84</ele>
        <time>2015-06-19T05:51:39Z</time>
      </trkpt>
      <trkpt lat="36.388536" lon="-6.134826">
        <ele>40.86</ele>
        <time>2015-06-19T05:51:44Z</time>
      </trkpt>
      <trkpt lat="36.388384" lon="-6.134612">
        <ele>40.80</ele>
        <time>2015-06-19T05:51:50Z</time>
      </trkpt>
      <trkpt lat="36.388300" lon="-6.134468">
        <ele>40.82</ele>
        <time>2015-06-19T05:51:53Z</time>
      </trkpt>
      <trkpt lat="36.388241" lon="-6.134375">
        <ele>40.81</ele>
        <time>2015-06-19T05:51:55Z</time>
      </trkpt>
      <trkpt lat="36.388180" lon="-6.134282">
        <ele>40.89</ele>
        <time>2015-06-19T05:51:57Z</time>
      </trkpt>
      <trkpt lat="36.388088" lon="-6.134157">
        <ele>40.89</ele>
        <time>2015-06-19T05:52:00Z</time>
      </trkpt>
      <trkpt lat="36.388009" lon="-6.134081">
        <ele>40.82</ele>
        <time>2015-06-19T05:52:02Z</time>
      </trkpt>
      <trkpt lat="36.387978" lon="-6.134030">
        <ele>40.90</ele>
        <time>2015-06-19T05:52:03Z</time>
      </trkpt>
      <trkpt lat="36.387917" lon="-6.133930">
        <ele>40.83</ele>
        <time>2015-06-19T05:52:05Z</time>
      </trkpt>
      <trkpt lat="36.387883" lon="-6.133886">
        <ele>40.81</ele>
        <time>2015-06-19T05:52:06Z</time>
      </trkpt>
      <trkpt lat="36.387813" lon="-6.133795">
        <ele>40.84</ele>
        <time>2015-06-19T05:52:08Z</time>
      </trkpt>
      <trkpt lat="36.387746" lon="-6.133690">
        <ele>40.87</ele>
        <time>2015-06-19T05:52:10Z</time>
      </trkpt>
      <trkpt lat="36.387676" lon="-6.133582">
        <ele>40.42</ele>
        <time>2015-06-19T05:52:12Z</time>
      </trkpt>
      <trkpt lat="36.387640" lon="-6.133530">
        <ele>40.10</ele>
        <time>2015-06-19T05:52:13Z</time>
      </trkpt>
      <trkpt lat="36.387606" lon="-6.133477">
        <ele>39.62</ele>
        <time>2015-06-19T05:52:14Z</time>
      </trkpt>
      <trkpt lat="36.387570" lon="-6.133428">
        <ele>39.21</ele>
        <time>2015-06-19T05:52:15Z</time>
      </trkpt>
      <trkpt lat="36.387534" lon="-6.133380">
        <ele>38.82</ele>
        <time>2015-06-19T05:52:16Z</time>
      </trkpt>
      <trkpt lat="36.387439" lon="-6.133220">
        <ele>38.86</ele>
        <time>2015-06-19T05:52:19Z</time>
      </trkpt>
      <trkpt lat="36.387350" lon="-6.133066">
        <ele>38.83</ele>
        <time>2015-06-19T05:52:22Z</time>
      </trkpt>
      <trkpt lat="36.387285" lon="-6.132974">
        <ele>38.81</ele>
        <time>2015-06-19T05:52:24Z</time>
      </trkpt>
      <trkpt lat="36.387062" lon="-6.132671">
        <ele>38.84</ele>
        <time>2015-06-19T05:52:31Z</time>
      </trkpt>
      <trkpt lat="36.387039" lon="-6.132627">
        <ele>38.87</ele>
        <time>2015-06-19T05:52:32Z</time>
      </trkpt>
      <trkpt lat="36.386916" lon="-6.132393">
        <ele>38.85</ele>
        <time>2015-06-19T05:52:37Z</time>
      </trkpt>
      <trkpt lat="36.386848" lon="-6.132249">
        <ele>38.47</ele>
        <time>2015-06-19T05:52:40Z</time>
      </trkpt>
      <trkpt lat="36.386824" lon="-6.132204">
        <ele>38.08</ele>
        <time>2015-06-19T05:52:41Z</time>
      </trkpt>
      <trkpt lat="36.386799" lon="-6.132161">
        <ele>37.61</ele>
        <time>2015-06-19T05:52:42Z</time>
      </trkpt>
      <trkpt lat="36.386772" lon="-6.132117">
        <ele>37.22</ele>
        <time>2015-06-19T05:52:43Z</time>
      </trkpt>
      <trkpt lat="36.386746" lon="-6.132074">
        <ele>36.81</ele>
        <time>2015-06-19T05:52:44Z</time>
      </trkpt>
      <trkpt lat="36.386723" lon="-6.132024">
        <ele>36.84</ele>
        <time>2015-06-19T05:52:45Z</time>
      </trkpt>
      <trkpt lat="36.386676" lon="-6.131922">
        <ele>36.81</ele>
        <time>2015-06-19T05:52:47Z</time>
      </trkpt>
      <trkpt lat="36.386603" lon="-6.131762">
        <ele>36.90</ele>
        <time>2015-06-19T05:52:50Z</time>
      </trkpt>
      <trkpt lat="36.386355" lon="-6.131261">
        <ele>36.84</ele>
        <time>2015-06-19T05:53:00Z</time>
      </trkpt>
      <trkpt lat="36.386277" lon="-6.131111">
        <ele>36.83</ele>
        <time>2015-06-19T05:53:03Z</time>
      </trkpt>
      <trkpt lat="36.386174" lon="-6.130920">
        <ele>36.83</ele>
        <time>2015-06-19T05:53:07Z</time>
      </trkpt>
      <trkpt lat="36.386124" lon="-6.130833">
        <ele>36.89</ele>
        <time>2015-06-19T05:53:09Z</time>
      </trkpt>
      <trkpt lat="36.386080" lon="-6.130716">
        <ele>36.82</ele>
        <time>2015-06-19T05:53:12Z</time>
      </trkpt>
      <trkpt lat="36.385954" lon="-6.130493">
        <ele>36.84</ele>
        <time>2015-06-19T05:53:18Z</time>
      </trkpt>
      <trkpt lat="36.385850" lon="-6.130383">
        <ele>36.45</ele>
        <time>2015-06-19T05:53:21Z</time>
      </trkpt>
      <trkpt lat="36.385816" lon="-6.130341">
        <ele>36.01</ele>
        <time>2015-06-19T05:53:22Z</time>
      </trkpt>
      <trkpt lat="36.385783" lon="-6.130296">
        <ele>35.41</ele>
        <time>2015-06-19T05:53:23Z</time>
      </trkpt>
      <trkpt lat="36.385754" lon="-6.130231">
        <ele>35.08</ele>
        <time>2015-06-19T05:53:24Z</time>
      </trkpt>
      <trkpt lat="36.385734" lon="-6.130161">
        <ele>34.63</ele>
        <time>2015-06-19T05:53:25Z</time>
      </trkpt>
      <trkpt lat="36.385714" lon="-6.130014">
        <ele>34.67</ele>
        <time>2015-06-19T05:53:27Z</time>
      </trkpt>
      <trkpt lat="36.385715" lon="-6.129949">
        <ele>34.26</ele>
        <time>2015-06-19T05:53:28Z</time>
      </trkpt>
      <trkpt lat="36.385706" lon="-6.129899">
        <ele>33.82</ele>
        <time>2015-06-19T05:53:29Z</time>
      </trkpt>
      <trkpt lat="36.385692" lon="-6.129867">
        <ele>33.22</ele>
        <time>2015-06-19T05:53:30Z</time>
      </trkpt>
      <trkpt lat="36.385676" lon="-6.129845">
        <ele>32.88</ele>
        <time>2015-06-19T05:53:31Z</time>
      </trkpt>
      <trkpt lat="36.385652" lon="-6.129822">
        <ele>32.42</ele>
        <time>2015-06-19T05:53:32Z</time>
      </trkpt>
      <trkpt lat="36.385630" lon="-6.129796">
        <ele>32.04</ele>
        <time>2015-06-19T05:53:33Z</time>
      </trkpt>
      <trkpt lat="36.385606" lon="-6.129769">
        <ele>31.65</ele>
        <time>2015-06-19T05:53:34Z</time>
      </trkpt>
      <trkpt lat="36.385585" lon="-6.129743">
        <ele>31.01</ele>
        <time>2015-06-19T05:53:35Z</time>
      </trkpt>
      <trkpt lat="36.385561" lon="-6.129712">
        <ele>30.61</ele>
        <time>2015-06-19T05:53:36Z</time>
      </trkpt>
      <trkpt lat="36.385542" lon="-6.129700">
        <ele>30.29</ele>
        <time>2015-06-19T05:53:37Z</time>
      </trkpt>
      <trkpt lat="36.385490" lon="-6.129666">
        <ele>30.22</ele>
        <time>2015-06-19T05:53:39Z</time>
      </trkpt>
      <trkpt lat="36.385306" lon="-6.129543">
        <ele>30.29</ele>
        <time>2015-06-19T05:53:45Z</time>
      </trkpt>
      <trkpt lat="36.385087" lon="-6.129376">
        <ele>30.21</ele>
        <time>2015-06-19T05:53:50Z</time>
      </trkpt>
      <trkpt lat="36.384965" lon="-6.129334">
        <ele>30.24</ele>
        <time>2015-06-19T05:53:54Z</time>
      </trkpt>
      <trkpt lat="36.384892" lon="-6.129370">
        <ele>30.24</ele>
        <time>2015-06-19T05:53:59Z</time>
      </trkpt>
      <trkpt lat="36.384874" lon="-6.129416">
        <ele>30.27</ele>
        <time>2015-06-19T05:54:02Z</time>
      </trkpt>
      <trkpt lat="36.384855" lon="-6.129468">
        <ele>30.26</ele>
        <time>2015-06-19T05:54:05Z</time>
      </trkpt>
      <trkpt lat="36.384844" lon="-6.129511">
        <ele>30.23</ele>
        <time>2015-06-19T05:54:08Z</time>
      </trkpt>
      <trkpt lat="36.384836" lon="-6.129536">
        <ele>30.65</ele>
        <time>2015-06-19T05:54:10Z</time>
      </trkpt>
      <trkpt lat="36.384836" lon="-6.129550">
        <ele>31.01</ele>
        <time>2015-06-19T05:54:11Z</time>
      </trkpt>
      <trkpt lat="36.384832" lon="-6.129566">
        <ele>31.41</ele>
        <time>2015-06-19T05:54:12Z</time>
      </trkpt>
      <trkpt lat="36.384824" lon="-6.129569">
        <ele>31.83</ele>
        <time>2015-06-19T05:54:13Z</time>
      </trkpt>
      <trkpt lat="36.384827" lon="-6.129585">
        <ele>32.22</ele>
        <time>2015-06-19T05:54:14Z</time>
      </trkpt>
      <trkpt lat="36.384827" lon="-6.129599">
        <ele>32.27</ele>
        <time>2015-06-19T05:54:15Z</time>
      </trkpt>
      <trkpt lat="36.384815" lon="-6.129652">
        <ele>32.25</ele>
        <time>2015-06-19T05:54:18Z</time>
      </trkpt>
      <trkpt lat="36.384811" lon="-6.129674">
        <ele>32.70</ele>
        <time>2015-06-19T05:54:19Z</time>
      </trkpt>
      <trkpt lat="36.384808" lon="-6.129690">
        <ele>33.30</ele>
        <time>2015-06-19T05:54:20Z</time>
      </trkpt>
      <trkpt lat="36.384807" lon="-6.129701">
        <ele>33.63</ele>
        <time>2015-06-19T05:54:21Z</time>
      </trkpt>
      <trkpt lat="36.384806" lon="-6.129719">
        <ele>34.09</ele>
        <time>2015-06-19T05:54:22Z</time>
      </trkpt>
      <trkpt lat="36.384802" lon="-6.129734">
        <ele>34.44</ele>
        <time>2015-06-19T05:54:23Z</time>
      </trkpt>
      <trkpt lat="36.384790" lon="-6.129782">
        <ele>34.46</ele>
        <time>2015-06-19T05:54:27Z</time>
      </trkpt>
      <trkpt lat="36.384787" lon="-6.129797">
        <ele>34.41</ele>
        <time>2015-06-19T05:54:28Z</time>
      </trkpt>
      <trkpt lat="36.384786" lon="-6.129810">
        <ele>34.81</ele>
        <time>2015-06-19T05:54:29Z</time>
      </trkpt>
      <trkpt lat="36.384787" lon="-6.129826">
        <ele>35.23</ele>
        <time>2015-06-19T05:54:30Z</time>
      </trkpt>
      <trkpt lat="36.384789" lon="-6.129837">
        <ele>35.66</ele>
        <time>2015-06-19T05:54:31Z</time>
      </trkpt>
      <trkpt lat="36.384785" lon="-6.129854">
        <ele>36.27</ele>
        <time>2015-06-19T05:54:32Z</time>
      </trkpt>
      <trkpt lat="36.384784" lon="-6.129868">
        <ele>36.61</ele>
        <time>2015-06-19T05:54:33Z</time>
      </trkpt>
      <trkpt lat="36.384784" lon="-6.129960">
        <ele>36.64</ele>
        <time>2015-06-19T05:54:39Z</time>
      </trkpt>
      <trkpt lat="36.384784" lon="-6.129989">
        <ele>37.01</ele>
        <time>2015-06-19T05:54:41Z</time>
      </trkpt>
      <trkpt lat="36.384787" lon="-6.130006">
        <ele>37.42</ele>
        <time>2015-06-19T05:54:42Z</time>
      </trkpt>
      <trkpt lat="36.384781" lon="-6.130024">
        <ele>37.89</ele>
        <time>2015-06-19T05:54:43Z</time>
      </trkpt>
      <trkpt lat="36.384775" lon="-6.130045">
        <ele>38.27</ele>
        <time>2015-06-19T05:54:44Z</time>
      </trkpt>
      <trkpt lat="36.384772" lon="-6.130062">
        <ele>38.60</ele>
        <time>2015-06-19T05:54:45Z</time>
      </trkpt>
      <trkpt lat="36.384768" lon="-6.130094">
        <ele>38.62</ele>
        <time>2015-06-19T05:54:47Z</time>
      </trkpt>
      <trkpt lat="36.384771" lon="-6.130105">
        <ele>38.61</ele>
        <time>2015-06-19T05:54:48Z</time>
      </trkpt>
      <trkpt lat="36.384770" lon="-6.130169">
        <ele>38.69</ele>
        <time>2015-06-19T05:54:52Z</time>
      </trkpt>
      <trkpt lat="36.384770" lon="-6.130184">
        <ele>38.61</ele>
        <time>2015-06-19T05:54:53Z</time>
      </trkpt>
      <trkpt lat="36.384765" lon="-6.130210">
        <ele>38.63</ele>
        <time>2015-06-19T05:54:55Z</time>
      </trkpt>
      <trkpt lat="36.384753" lon="-6.130269">
        <ele>39.04</ele>
        <time>2015-06-19T05:54:58Z</time>
      </trkpt>
      <trkpt lat="36.384749" lon="-6.130288">
        <ele>39.69</ele>
        <time>2015-06-19T05:54:59Z</time>
      </trkpt>
      <trkpt lat="36.384750" lon="-6.130304">
        <ele>40.48</ele>
        <time>2015-06-19T05:55:00Z</time>
      </trkpt>
      <trkpt lat="36.384753" lon="-6.130316">
        <ele>40.82</ele>
        <time>2015-06-19T05:55:01Z</time>
      </trkpt>
      <trkpt lat="36.384755" lon="-6.130379">
        <ele>40.89</ele>
        <time>2015-06-19T05:55:05Z</time>
      </trkpt>
      <trkpt lat="36.384750" lon="-6.130450">
        <ele>41.25</ele>
        <time>2015-06-19T05:55:10Z</time>
      </trkpt>
      <trkpt lat="36.384752" lon="-6.130468">
        <ele>41.60</ele>
        <time>2015-06-19T05:55:11Z</time>
      </trkpt>
      <trkpt lat="36.384752" lon="-6.130483">
        <ele>42.21</ele>
        <time>2015-06-19T05:55:12Z</time>
      </trkpt>
      <trkpt lat="36.384747" lon="-6.130496">
        <ele>42.61</ele>
        <time>2015-06-19T05:55:13Z</time>
      </trkpt>
      <trkpt lat="36.384750" lon="-6.130508">
        <ele>43.02</ele>
        <time>2015-06-19T05:55:14Z</time>
      </trkpt>
      <trkpt lat="36.384743" lon="-6.130533">
        <ele>43.05</ele>
        <time>2015-06-19T05:55:16Z</time>
      </trkpt>
      <trkpt lat="36.384746" lon="-6.130581">
        <ele>43.47</ele>
        <time>2015-06-19T05:55:20Z</time>
      </trkpt>
      <trkpt lat="36.384742" lon="-6.130591">
        <ele>43.88</ele>
        <time>2015-06-19T05:55:21Z</time>
      </trkpt>
      <trkpt lat="36.384741" lon="-6.130605">
        <ele>44.30</ele>
        <time>2015-06-19T05:55:22Z</time>
      </trkpt>
      <trkpt lat="36.384742" lon="-6.130603">
        <ele>44.65</ele>
        <time>2015-06-19T05:55:23Z</time>
      </trkpt>
      <trkpt lat="36.384742" lon="-6.130603">
        <ele>45.27</ele>
        <time>2015-06-19T05:55:24Z</time>
      </trkpt>
      <trkpt lat="36.384742" lon="-6.130608">
        <ele>45.22</ele>
        <time>2015-06-19T05:55:29Z</time>
      </trkpt>
      <trkpt lat="36.384725" lon="-6.130639">
        <ele>45.24</ele>
        <time>2015-06-19T05:55:33Z</time>
      </trkpt>
      <trkpt lat="36.384711" lon="-6.130661">
        <ele>45.20</ele>
        <time>2015-06-19T05:55:36Z</time>
      </trkpt>
      <trkpt lat="36.384705" lon="-6.130664">
        <ele>45.62</ele>
        <time>2015-06-19T05:55:37Z</time>
      </trkpt>
      <trkpt lat="36.384699" lon="-6.130668">
        <ele>46.01</ele>
        <time>2015-06-19T05:55:38Z</time>
      </trkpt>
      <trkpt lat="36.384694" lon="-6.130673">
        <ele>46.47</ele>
        <time>2015-06-19T05:55:39Z</time>
      </trkpt>
      <trkpt lat="36.384691" lon="-6.130680">
        <ele>46.83</ele>
        <time>2015-06-19T05:55:40Z</time>
      </trkpt>
      <trkpt lat="36.384691" lon="-6.130688">
        <ele>47.23</ele>
        <time>2015-06-19T05:55:41Z</time>
      </trkpt>
      <trkpt lat="36.384691" lon="-6.130707">
        <ele>47.23</ele>
        <time>2015-06-19T05:55:43Z</time>
      </trkpt>
      <trkpt lat="36.384692" lon="-6.130766">
        <ele>47.65</ele>
        <time>2015-06-19T05:55:51Z</time>
      </trkpt>
      <trkpt lat="36.384694" lon="-6.130773">
        <ele>48.08</ele>
        <time>2015-06-19T05:55:52Z</time>
      </trkpt>
      <trkpt lat="36.384695" lon="-6.130781">
        <ele>48.47</ele>
        <time>2015-06-19T05:55:53Z</time>
      </trkpt>
      <trkpt lat="36.384697" lon="-6.130789">
        <ele>48.83</ele>
        <time>2015-06-19T05:55:54Z</time>
      </trkpt>
      <trkpt lat="36.384697" lon="-6.130793">
        <ele>49.30</ele>
        <time>2015-06-19T05:55:55Z</time>
      </trkpt>
      <trkpt lat="36.384704" lon="-6.130815">
        <ele>49.22</ele>
        <time>2015-06-19T05:55:58Z</time>
      </trkpt>
      <trkpt lat="36.384712" lon="-6.130872">
        <ele>49.23</ele>
        <time>2015-06-19T05:56:05Z</time>
      </trkpt>
      <trkpt lat="36.384712" lon="-6.130882">
        <ele>49.61</ele>
        <time>2015-06-19T05:56:06Z</time>
      </trkpt>
      <trkpt lat="36.384712" lon="-6.130892">
        <ele>50.26</ele>
        <time>2015-06-19T05:56:07Z</time>
      </trkpt>
      <trkpt lat="36.384713" lon="-6.130903">
        <ele>50.62</ele>
        <time>2015-06-19T05:56:08Z</time>
      </trkpt>
      <trkpt lat="36.384711" lon="-6.130913">
        <ele>51.07</ele>
        <time>2015-06-19T05:56:09Z</time>
      </trkpt>
      <trkpt lat="36.384710" lon="-6.130923">
        <ele>51.42</ele>
        <time>2015-06-19T05:56:10Z</time>
      </trkpt>
      <trkpt lat="36.384711" lon="-6.130933">
        <ele>51.41</ele>
        <time>2015-06-19T05:56:11Z</time>
      </trkpt>
      <trkpt lat="36.384713" lon="-6.130954">
        <ele>51.44</ele>
        <time>2015-06-19T05:56:13Z</time>
      </trkpt>
      <trkpt lat="36.384712" lon="-6.130984">
        <ele>51.45</ele>
        <time>2015-06-19T05:56:17Z</time>
      </trkpt>
      <trkpt lat="36.384714" lon="-6.130994">
        <ele>51.42</ele>
        <time>2015-06-19T05:56:18Z</time>
      </trkpt>
      <trkpt lat="36.384712" lon="-6.131019">
        <ele>51.82</ele>
        <time>2015-06-19T05:56:21Z</time>
      </trkpt>
      <trkpt lat="36.384712" lon="-6.131019">
        <ele>52.28</ele>
        <time>2015-06-19T05:56:22Z</time>
      </trkpt>
      <trkpt lat="36.384712" lon="-6.131025">
        <ele>52.61</ele>
        <time>2015-06-19T05:56:23Z</time>
      </trkpt>
      <trkpt lat="36.384713" lon="-6.131036">
        <ele>53.01</ele>
        <time>2015-06-19T05:56:24Z</time>
      </trkpt>
      <trkpt lat="36.384720" lon="-6.131046">
        <ele>53.48</ele>
        <time>2015-06-19T05:56:25Z</time>
      </trkpt>
      <trkpt lat="36.384721" lon="-6.131054">
        <ele>53.50</ele>
        <time>2015-06-19T05:56:29Z</time>
      </trkpt>
      <trkpt lat="36.384721" lon="-6.131054">
        <ele>53.47</ele>
        <time>2015-06-19T05:56:38Z</time>
      </trkpt>
      <trkpt lat="36.384721" lon="-6.131054">
        <ele>53.48</ele>
        <time>2015-06-19T05:56:39Z</time>
      </trkpt>
      <trkpt lat="36.384721" lon="-6.131054">
        <ele>53.42</ele>
        <time>2015-06-19T05:56:44Z</time>
      </trkpt>
      <trkpt lat="36.384731" lon="-6.131072">
        <ele>53.42</ele>
        <time>2015-06-19T05:56:49Z</time>
      </trkpt>
      <trkpt lat="36.384730" lon="-6.131072">
        <ele>53.48</ele>
        <time>2015-06-19T05:56:52Z</time>
      </trkpt>
      <trkpt lat="36.384730" lon="-6.131072">
        <ele>53.42</ele>
        <time>2015-06-19T05:56:57Z</time>
      </trkpt>
      <trkpt lat="36.384722" lon="-6.131084">
        <ele>53.46</ele>
        <time>2015-06-19T05:57:09Z</time>
      </trkpt>
      <trkpt lat="36.384699" lon="-6.131115">
        <ele>53.40</ele>
        <time>2015-06-19T05:57:12Z</time>
      </trkpt>
      <trkpt lat="36.384685" lon="-6.131133">
        <ele>53.42</ele>
        <time>2015-06-19T05:57:15Z</time>
      </trkpt>
      <trkpt lat="36.384679" lon="-6.131138">
        <ele>53.81</ele>
        <time>2015-06-19T05:57:16Z</time>
      </trkpt>
      <trkpt lat="36.384673" lon="-6.131144">
        <ele>54.26</ele>
        <time>2015-06-19T05:57:17Z</time>
      </trkpt>
      <trkpt lat="36.384673" lon="-6.131144">
        <ele>54.69</ele>
        <time>2015-06-19T05:57:18Z</time>
      </trkpt>
      <trkpt lat="36.384662" lon="-6.131142">
        <ele>55.05</ele>
        <time>2015-06-19T05:57:19Z</time>
      </trkpt>
      <trkpt lat="36.384660" lon="-6.131142">
        <ele>55.49</ele>
        <time>2015-06-19T05:57:20Z</time>
      </trkpt>
      <trkpt lat="36.384660" lon="-6.131142">
        <ele>55.48</ele>
        <time>2015-06-19T05:57:21Z</time>
      </trkpt>
      <trkpt lat="36.384656" lon="-6.131140">
        <ele>55.42</ele>
        <time>2015-06-19T05:57:29Z</time>
      </trkpt>
      <trkpt lat="36.384656" lon="-6.131140">
        <ele>55.44</ele>
        <time>2015-06-19T05:57:35Z</time>
      </trkpt>
      <trkpt lat="36.384656" lon="-6.131140">
        <ele>55.45</ele>
        <time>2015-06-19T05:57:42Z</time>
      </trkpt>
      <trkpt lat="36.384656" lon="-6.131140">
        <ele>55.43</ele>
        <time>2015-06-19T05:57:53Z</time>
      </trkpt>
      <trkpt lat="36.384656" lon="-6.131140">
        <ele>55.49</ele>
        <time>2015-06-19T05:57:59Z</time>
      </trkpt>
      <trkpt lat="36.384653" lon="-6.131143">
        <ele>55.41</ele>
        <time>2015-06-19T05:58:02Z</time>
      </trkpt>
      <trkpt lat="36.384653" lon="-6.131143">
        <ele>55.41</ele>
        <time>2015-06-19T05:58:18Z</time>
      </trkpt>
      <trkpt lat="36.384653" lon="-6.131143">
        <ele>55.48</ele>
        <time>2015-06-19T05:58:33Z</time>
      </trkpt>
      <trkpt lat="36.384653" lon="-6.131143">
        <ele>55.43</ele>
        <time>2015-06-19T05:58:35Z</time>
      </trkpt>
      <trkpt lat="36.384653" lon="-6.131141">
        <ele>55.45</ele>
        <time>2015-06-19T05:58:52Z</time>
      </trkpt>
      <trkpt lat="36.384653" lon="-6.131141">
        <ele>55.49</ele>
        <time>2015-06-19T05:59:08Z</time>
      </trkpt>
      <trkpt lat="36.384652" lon="-6.131139">
        <ele>55.45</ele>
        <time>2015-06-19T05:59:26Z</time>
      </trkpt>
      <trkpt lat="36.384652" lon="-6.131139">
        <ele>55.43</ele>
        <time>2015-06-19T05:59:29Z</time>
      </trkpt>
      <trkpt lat="36.384652" lon="-6.131139">
        <ele>55.42</ele>
        <time>2015-06-19T05:59:46Z</time>
      </trkpt>
      <trkpt lat="36.384652" lon="-6.131139">
        <ele>55.43</ele>
        <time>2015-06-19T05:59:58Z</time>
      </trkpt>
      <trkpt lat="36.384652" lon="-6.131139">
        <ele>55.41</ele>
        <time>2015-06-19T06:00:00Z</time>
      </trkpt>
      <trkpt lat="36.384652" lon="-6.131136">
        <ele>55.42</ele>
        <time>2015-06-19T06:00:11Z</time>
      </trkpt>
      <trkpt lat="36.384652" lon="-6.131136">
        <ele>55.40</ele>
        <time>2015-06-19T06:00:18Z</time>
      </trkpt>
      <trkpt lat="36.384652" lon="-6.131136">
        <ele>55.41</ele>
        <time>2015-06-19T06:00:22Z</time>
      </trkpt>
      <trkpt lat="36.384652" lon="-6.131136">
        <ele>55.43</ele>
        <time>2015-06-19T06:00:32Z</time>
      </trkpt>
      <trkpt lat="36.384658" lon="-6.131148">
        <ele>55.48</ele>
        <time>2015-06-19T06:00:36Z</time>
      </trkpt>
      <trkpt lat="36.384658" lon="-6.131148">
        <ele>55.44</ele>
        <time>2015-06-19T06:00:42Z</time>
      </trkpt>
      <trkpt lat="36.384658" lon="-6.131148">
        <ele>55.48</ele>
        <time>2015-06-19T06:00:45Z</time>
      </trkpt>
      <trkpt lat="36.384658" lon="-6.131148">
        <ele>55.44</ele>
        <time>2015-06-19T06:00:55Z</time>
      </trkpt>
      <trkpt lat="36.384658" lon="-6.131148">
        <ele>55.50</ele>
        <time>2015-06-19T06:01:02Z</time>
      </trkpt>
      <trkpt lat="36.384658" lon="-6.131148">
        <ele>55.48</ele>
        <time>2015-06-19T06:01:05Z</time>
      </trkpt>
      <trkpt lat="36.384657" lon="-6.131145">
        <ele>55.43</ele>
        <time>2015-06-19T06:01:15Z</time>
      </trkpt>
      <trkpt lat="36.384657" lon="-6.131145">
        <ele>55.46</ele>
        <time>2015-06-19T06:01:18Z</time>
      </trkpt>
      <trkpt lat="36.384657" lon="-6.131145">
        <ele>55.41</ele>
        <time>2015-06-19T06:01:29Z</time>
      </trkpt>
      <trkpt lat="36.384657" lon="-6.131145">
        <ele>55.42</ele>
        <time>2015-06-19T06:01:34Z</time>
      </trkpt>
      <trkpt lat="36.384657" lon="-6.131145">
        <ele>55.41</ele>
        <time>2015-06-19T06:01:42Z</time>
      </trkpt>
      <trkpt lat="36.384657" lon="-6.131145">
        <ele>55.43</ele>
        <time>2015-06-19T06:01:48Z</time>
      </trkpt>
      <trkpt lat="36.384657" lon="-6.131145">
        <ele>55.44</ele>
        <time>2015-06-19T06:01:53Z</time>
      </trkpt>
      <trkpt lat="36.384654" lon="-6.131145">
        <ele>55.44</ele>
        <time>2015-06-19T06:02:09Z</time>
      </trkpt>
      <trkpt lat="36.384654" lon="-6.131145">
        <ele>55.47</ele>
        <time>2015-06-19T06:02:10Z</time>
      </trkpt>
      <trkpt lat="36.384654" lon="-6.131145">
        <ele>55.42</ele>
        <time>2015-06-19T06:02:18Z</time>
      </trkpt>
      <trkpt lat="36.384654" lon="-6.131145">
        <ele>55.44</ele>
        <time>2015-06-19T06:02:26Z</time>
      </trkpt>
      <trkpt lat="36.384654" lon="-6.131145">
        <ele>55.48</ele>
        <time>2015-06-19T06:02:27Z</time>
      </trkpt>
      <trkpt lat="36.384652" lon="-6.131170">
        <ele>55.46</ele>
        <time>2015-06-19T06:02:35Z</time>
      </trkpt>
      <trkpt lat="36.384652" lon="-6.131167">
        <ele>55.43</ele>
        <time>2015-06-19T06:02:37Z</time>
      </trkpt>
      <trkpt lat="36.384656" lon="-6.131177">
        <ele>55.49</ele>
        <time>2015-06-19T06:02:40Z</time>
      </trkpt>
      <trkpt lat="36.384660" lon="-6.131208">
        <ele>55.42</ele>
        <time>2015-06-19T06:02:42Z</time>
      </trkpt>
      <trkpt lat="36.384702" lon="-6.131326">
        <ele>55.41</ele>
        <time>2015-06-19T06:02:47Z</time>
      </trkpt>
      <trkpt lat="36.384719" lon="-6.131384">
        <ele>55.48</ele>
        <time>2015-06-19T06:02:49Z</time>
      </trkpt>
      <trkpt lat="36.384745" lon="-6.131480">
        <ele>55.43</ele>
        <time>2015-06-19T06:02:52Z</time>
      </trkpt>
      <trkpt lat="36.384803" lon="-6.131659">
        <ele>55.46</ele>
        <time>2015-06-19T06:02:58Z</time>
      </trkpt>
      <trkpt lat="36.384791" lon="-6.131759">
        <ele>55.48</ele>
        <time>2015-06-19T06:03:02Z</time>
      </trkpt>
      <trkpt lat="36.384768" lon="-6.131756">
        <ele>55.47</ele>
        <time>2015-06-19T06:03:03Z</time>
      </trkpt>
      <trkpt lat="36.384694" lon="-6.131701">
        <ele>55.43</ele>
        <time>2015-06-19T06:03:06Z</time>
      </trkpt>
      <trkpt lat="36.384669" lon="-6.131678">
        <ele>55.44</ele>
        <time>2015-06-19T06:03:07Z</time>
      </trkpt>
      <trkpt lat="36.384603" lon="-6.131638">
        <ele>55.85</ele>
        <time>2015-06-19T06:03:10Z</time>
      </trkpt>
      <trkpt lat="36.384581" lon="-6.131628">
        <ele>56.23</ele>
        <time>2015-06-19T06:03:11Z</time>
      </trkpt>
      <trkpt lat="36.384565" lon="-6.131614">
        <ele>56.62</ele>
        <time>2015-06-19T06:03:12Z</time>
      </trkpt>
      <trkpt lat="36.384549" lon="-6.131598">
        <ele>57.02</ele>
        <time>2015-06-19T06:03:13Z</time>
      </trkpt>
      <trkpt lat="36.384533" lon="-6.131589">
        <ele>57.41</ele>
        <time>2015-06-19T06:03:14Z</time>
      </trkpt>
      <trkpt lat="36.384510" lon="-6.131590">
        <ele>57.46</ele>
        <time>2015-06-19T06:03:17Z</time>
      </trkpt>
      <trkpt lat="36.384496" lon="-6.131600">
        <ele>57.49</ele>
        <time>2015-06-19T06:03:20Z</time>
      </trkpt>
      <trkpt lat="36.384483" lon="-6.131588">
        <ele>57.43</ele>
        <time>2015-06-19T06:03:22Z</time>
      </trkpt>
      <trkpt lat="36.384486" lon="-6.131588">
        <ele>57.45</ele>
        <time>2015-06-19T06:03:25Z</time>
      </trkpt>
      <trkpt lat="36.384486" lon="-6.131584">
        <ele>57.49</ele>
        <time>2015-06-19T06:03:27Z</time>
      </trkpt>
      <trkpt lat="36.384491" lon="-6.131559">
        <ele>57.44</ele>
        <time>2015-06-19T06:03:29Z</time>
      </trkpt>
      <trkpt lat="36.384488" lon="-6.131523">
        <ele>57.43</ele>
        <time>2015-06-19T06:03:31Z</time>
      </trkpt>
      <trkpt lat="36.384409" lon="-6.131496">
        <ele>57.42</ele>
        <time>2015-06-19T06:03:35Z</time>
      </trkpt>
      <trkpt lat="36.384337" lon="-6.131456">
        <ele>57.47</ele>
        <time>2015-06-19T06:03:38Z</time>
      </trkpt>
      <trkpt lat="36.384261" lon="-6.131399">
        <ele>57.44</ele>
        <time>2015-06-19T06:03:41Z</time>
      </trkpt>
      <trkpt lat="36.384066" lon="-6.131282">
        <ele>57.43</ele>
        <time>2015-06-19T06:03:48Z</time>
      </trkpt>
      <trkpt lat="36.383838" lon="-6.131140">
        <ele>57.41</ele>
        <time>2015-06-19T06:03:55Z</time>
      </trkpt>
      <trkpt lat="36.383641" lon="-6.131016">
        <ele>57.42</ele>
        <time>2015-06-19T06:04:00Z</time>
      </trkpt>
      <trkpt lat="36.383550" lon="-6.130963">
        <ele>57.49</ele>
        <time>2015-06-19T06:04:02Z</time>
      </trkpt>
      <trkpt lat="36.383503" lon="-6.130932">
        <ele>57.50</ele>
        <time>2015-06-19T06:04:03Z</time>
      </trkpt>
      <trkpt lat="36.383402" lon="-6.130876">
        <ele>57.45</ele>
        <time>2015-06-19T06:04:05Z</time>
      </trkpt>
      <trkpt lat="36.383299" lon="-6.130837">
        <ele>57.41</ele>
        <time>2015-06-19T06:04:07Z</time>
      </trkpt>
      <trkpt lat="36.383246" lon="-6.130827">
        <ele>57.41</ele>
        <time>2015-06-19T06:04:08Z</time>
      </trkpt>
      <trkpt lat="36.382993" lon="-6.130812">
        <ele>57.47</ele>
        <time>2015-06-19T06:04:13Z</time>
      </trkpt>
      <trkpt lat="36.382904" lon="-6.130835">
        <ele>57.42</ele>
        <time>2015-06-19T06:04:16Z</time>
      </trkpt>
      <trkpt lat="36.382878" lon="-6.130842">
        <ele>57.06</ele>
        <time>2015-06-19T06:04:17Z</time>
      </trkpt>
      <trkpt lat="36.382855" lon="-6.130836">
        <ele>56.68</ele>
        <time>2015-06-19T06:04:18Z</time>
      </trkpt>
      <trkpt lat="36.382837" lon="-6.130837">
        <ele>56.21</ele>
        <time>2015-06-19T06:04:19Z</time>
      </trkpt>
      <trkpt lat="36.382817" lon="-6.130833">
        <ele>55.81</ele>
        <time>2015-06-19T06:04:20Z</time>
      </trkpt>
      <trkpt lat="36.382798" lon="-6.130834">
        <ele>55.26</ele>
        <time>2015-06-19T06:04:21Z</time>
      </trkpt>
      <trkpt lat="36.382739" lon="-6.130826">
        <ele>55.21</ele>
        <time>2015-06-19T06:04:23Z</time>
      </trkpt>
      <trkpt lat="36.382716" lon="-6.130807">
        <ele>55.29</ele>
        <time>2015-06-19T06:04:24Z</time>
      </trkpt>
      <trkpt lat="36.382687" lon="-6.130818">
        <ele>55.25</ele>
        <time>2015-06-19T06:04:25Z</time>
      </trkpt>
      <trkpt lat="36.382614" lon="-6.130813">
        <ele>55.29</ele>
        <time>2015-06-19T06:04:27Z</time>
      </trkpt>
      <trkpt lat="36.382572" lon="-6.130810">
        <ele>55.22</ele>
        <time>2015-06-19T06:04:28Z</time>
      </trkpt>
      <trkpt lat="36.382487" lon="-6.130798">
        <ele>55.25</ele>
        <time>2015-06-19T06:04:30Z</time>
      </trkpt>
      <trkpt lat="36.382405" lon="-6.130793">
        <ele>55.27</ele>
        <time>2015-06-19T06:04:32Z</time>
      </trkpt>
      <trkpt lat="36.382229" lon="-6.130782">
        <ele>55.24</ele>
        <time>2015-06-19T06:04:36Z</time>
      </trkpt>
      <trkpt lat="36.382185" lon="-6.130786">
        <ele>55.20</ele>
        <time>2015-06-19T06:04:37Z</time>
      </trkpt>
      <trkpt lat="36.382031" lon="-6.130767">
        <ele>55.22</ele>
        <time>2015-06-19T06:04:41Z</time>
      </trkpt>
      <trkpt lat="36.381947" lon="-6.130765">
        <ele>55.21</ele>
        <time>2015-06-19T06:04:43Z</time>
      </trkpt>
      <trkpt lat="36.381812" lon="-6.130751">
        <ele>55.26</ele>
        <time>2015-06-19T06:04:46Z</time>
      </trkpt>
      <trkpt lat="36.381718" lon="-6.130759">
        <ele>55.22</ele>
        <time>2015-06-19T06:04:48Z</time>
      </trkpt>
      <trkpt lat="36.381591" lon="-6.130789">
        <ele>55.27</ele>
        <time>2015-06-19T06:04:51Z</time>
      </trkpt>
      <trkpt lat="36.381565" lon="-6.130830">
        <ele>55.29</ele>
        <time>2015-06-19T06:04:52Z</time>
      </trkpt>
      <trkpt lat="36.381543" lon="-6.130869">
        <ele>54.50</ele>
        <time>2015-06-19T06:04:53Z</time>
      </trkpt>
      <trkpt lat="36.381523" lon="-6.130911">
        <ele>54.05</ele>
        <time>2015-06-19T06:04:54Z</time>
      </trkpt>
      <trkpt lat="36.381514" lon="-6.130957">
        <ele>53.65</ele>
        <time>2015-06-19T06:04:55Z</time>
      </trkpt>
      <trkpt lat="36.381504" lon="-6.130998">
        <ele>53.29</ele>
        <time>2015-06-19T06:04:56Z</time>
      </trkpt>
      <trkpt lat="36.381480" lon="-6.131142">
        <ele>53.24</ele>
        <time>2015-06-19T06:04:59Z</time>
      </trkpt>
      <trkpt lat="36.381459" lon="-6.131263">
        <ele>53.26</ele>
        <time>2015-06-19T06:05:01Z</time>
      </trkpt>
      <trkpt lat="36.381446" lon="-6.131388">
        <ele>53.21</ele>
        <time>2015-06-19T06:05:03Z</time>
      </trkpt>
      <trkpt lat="36.381402" lon="-6.131616">
        <ele>53.21</ele>
        <time>2015-06-19T06:05:08Z</time>
      </trkpt>
      <trkpt lat="36.381382" lon="-6.131679">
        <ele>53.30</ele>
        <time>2015-06-19T06:05:10Z</time>
      </trkpt>
      <trkpt lat="36.381360" lon="-6.131801">
        <ele>53.22</ele>
        <time>2015-06-19T06:05:13Z</time>
      </trkpt>
      <trkpt lat="36.381350" lon="-6.131922">
        <ele>53.27</ele>
        <time>2015-06-19T06:05:17Z</time>
      </trkpt>
      <trkpt lat="36.381315" lon="-6.132056">
        <ele>53.26</ele>
        <time>2015-06-19T06:05:22Z</time>
      </trkpt>
      <trkpt lat="36.381305" lon="-6.132098">
        <ele>52.85</ele>
        <time>2015-06-19T06:05:23Z</time>
      </trkpt>
      <trkpt lat="36.381287" lon="-6.132137">
        <ele>52.48</ele>
        <time>2015-06-19T06:05:24Z</time>
      </trkpt>
      <trkpt lat="36.381271" lon="-6.132179">
        <ele>52.06</ele>
        <time>2015-06-19T06:05:25Z</time>
      </trkpt>
      <trkpt lat="36.381269" lon="-6.132227">
        <ele>51.65</ele>
        <time>2015-06-19T06:05:26Z</time>
      </trkpt>
      <trkpt lat="36.381261" lon="-6.132275">
        <ele>51.06</ele>
        <time>2015-06-19T06:05:27Z</time>
      </trkpt>
      <trkpt lat="36.381204" lon="-6.132532">
        <ele>51.01</ele>
        <time>2015-06-19T06:05:33Z</time>
      </trkpt>
      <trkpt lat="36.381176" lon="-6.132659">
        <ele>51.02</ele>
        <time>2015-06-19T06:05:37Z</time>
      </trkpt>
      <trkpt lat="36.381172" lon="-6.132680">
        <ele>51.01</ele>
        <time>2015-06-19T06:05:38Z</time>
      </trkpt>
      <trkpt lat="36.381169" lon="-6.132681">
        <ele>51.03</ele>
        <time>2015-06-19T06:05:40Z</time>
      </trkpt>
      <trkpt lat="36.381169" lon="-6.132681">
        <ele>51.05</ele>
        <time>2015-06-19T06:05:42Z</time>
      </trkpt>
      <trkpt lat="36.381169" lon="-6.132683">
        <ele>51.04</ele>
        <time>2015-06-19T06:05:51Z</time>
      </trkpt>
      <trkpt lat="36.381150" lon="-6.132754">
        <ele>51.04</ele>
        <time>2015-06-19T06:05:57Z</time>
      </trkpt>
      <trkpt lat="36.381122" lon="-6.132931">
        <ele>51.04</ele>
        <time>2015-06-19T06:06:02Z</time>
      </trkpt>
      <trkpt lat="36.381066" lon="-6.133109">
        <ele>51.09</ele>
        <time>2015-06-19T06:06:07Z</time>
      </trkpt>
      <trkpt lat="36.381047" lon="-6.133276">
        <ele>51.04</ele>
        <time>2015-06-19T06:06:11Z</time>
      </trkpt>
      <trkpt lat="36.381040" lon="-6.133328">
        <ele>51.08</ele>
        <time>2015-06-19T06:06:12Z</time>
      </trkpt>
      <trkpt lat="36.381016" lon="-6.133372">
        <ele>51.08</ele>
        <time>2015-06-19T06:06:13Z</time>
      </trkpt>
      <trkpt lat="36.381005" lon="-6.133419">
        <ele>50.63</ele>
        <time>2015-06-19T06:06:14Z</time>
      </trkpt>
      <trkpt lat="36.380993" lon="-6.133471">
        <ele>50.23</ele>
        <time>2015-06-19T06:06:15Z</time>
      </trkpt>
      <trkpt lat="36.380983" lon="-6.133522">
        <ele>49.81</ele>
        <time>2015-06-19T06:06:16Z</time>
      </trkpt>
      <trkpt lat="36.380968" lon="-6.133577">
        <ele>49.47</ele>
        <time>2015-06-19T06:06:17Z</time>
      </trkpt>
      <trkpt lat="36.380960" lon="-6.133637">
        <ele>49.07</ele>
        <time>2015-06-19T06:06:18Z</time>
      </trkpt>
      <trkpt lat="36.380917" lon="-6.133871">
        <ele>49.06</ele>
        <time>2015-06-19T06:06:22Z</time>
      </trkpt>
      <trkpt lat="36.380858" lon="-6.134141">
        <ele>49.06</ele>
        <time>2015-06-19T06:06:27Z</time>
      </trkpt>
      <trkpt lat="36.380843" lon="-6.134200">
        <ele>48.25</ele>
        <time>2015-06-19T06:06:30Z</time>
      </trkpt>
      <trkpt lat="36.380851" lon="-6.134215">
        <ele>47.86</ele>
        <time>2015-06-19T06:06:31Z</time>
      </trkpt>
      <trkpt lat="36.380841" lon="-6.134225">
        <ele>47.47</ele>
        <time>2015-06-19T06:06:32Z</time>
      </trkpt>
      <trkpt lat="36.380841" lon="-6.134221">
        <ele>47.02</ele>
        <time>2015-06-19T06:06:33Z</time>
      </trkpt>
      <trkpt lat="36.380841" lon="-6.134221">
        <ele>47.06</ele>
        <time>2015-06-19T06:06:34Z</time>
      </trkpt>
      <trkpt lat="36.380831" lon="-6.134216">
        <ele>47.05</ele>
        <time>2015-06-19T06:06:36Z</time>
      </trkpt>
      <trkpt lat="36.380821" lon="-6.134213">
        <ele>47.02</ele>
        <time>2015-06-19T06:06:38Z</time>
      </trkpt>
      <trkpt lat="36.380817" lon="-6.134216">
        <ele>47.01</ele>
        <time>2015-06-19T06:06:39Z</time>
      </trkpt>
      <trkpt lat="36.380820" lon="-6.134229">
        <ele>47.08</ele>
        <time>2015-06-19T06:06:41Z</time>
      </trkpt>
      <trkpt lat="36.380829" lon="-6.134241">
        <ele>47.08</ele>
        <time>2015-06-19T06:06:42Z</time>
      </trkpt>
      <trkpt lat="36.380835" lon="-6.134260">
        <ele>47.02</ele>
        <time>2015-06-19T06:06:44Z</time>
      </trkpt>
      <trkpt lat="36.380850" lon="-6.134295">
        <ele>47.09</ele>
        <time>2015-06-19T06:06:46Z</time>
      </trkpt>
      <trkpt lat="36.380896" lon="-6.134364">
        <ele>47.04</ele>
        <time>2015-06-19T06:06:49Z</time>
      </trkpt>
      <trkpt lat="36.381004" lon="-6.134516">
        <ele>47.03</ele>
        <time>2015-06-19T06:06:54Z</time>
      </trkpt>
      <trkpt lat="36.381087" lon="-6.134724">
        <ele>47.06</ele>
        <time>2015-06-19T06:06:59Z</time>
      </trkpt>
      <trkpt lat="36.381169" lon="-6.134901">
        <ele>47.10</ele>
        <time>2015-06-19T06:07:03Z</time>
      </trkpt>
      <trkpt lat="36.381231" lon="-6.135051">
        <ele>47.10</ele>
        <time>2015-06-19T06:07:06Z</time>
      </trkpt>
      <trkpt lat="36.381279" lon="-6.135152">
        <ele>47.02</ele>
        <time>2015-06-19T06:07:08Z</time>
      </trkpt>
      <trkpt lat="36.381413" lon="-6.135415">
        <ele>47.03</ele>
        <time>2015-06-19T06:07:13Z</time>
      </trkpt>
      <trkpt lat="36.381493" lon="-6.135623">
        <ele>47.01</ele>
        <time>2015-06-19T06:07:18Z</time>
      </trkpt>
      <trkpt lat="36.381472" lon="-6.135632">
        <ele>47.02</ele>
        <time>2015-06-19T06:07:19Z</time>
      </trkpt>
      <trkpt lat="36.381358" lon="-6.135635">
        <ele>47.08</ele>
        <time>2015-06-19T06:07:22Z</time>
      </trkpt>
      <trkpt lat="36.381269" lon="-6.135630">
        <ele>46.62</ele>
        <time>2015-06-19T06:07:24Z</time>
      </trkpt>
      <trkpt lat="36.381219" lon="-6.135628">
        <ele>46.25</ele>
        <time>2015-06-19T06:07:25Z</time>
      </trkpt>
      <trkpt lat="36.381169" lon="-6.135628">
        <ele>45.86</ele>
        <time>2015-06-19T06:07:26Z</time>
      </trkpt>
      <trkpt lat="36.381116" lon="-6.135631">
        <ele>45.48</ele>
        <time>2015-06-19T06:07:27Z</time>
      </trkpt>
      <trkpt lat="36.381065" lon="-6.135634">
        <ele>45.06</ele>
        <time>2015-06-19T06:07:28Z</time>
      </trkpt>
      <trkpt lat="36.380766" lon="-6.135663">
        <ele>45.05</ele>
        <time>2015-06-19T06:07:34Z</time>
      </trkpt>
      <trkpt lat="36.380662" lon="-6.135690">
        <ele>45.02</ele>
        <time>2015-06-19T06:07:36Z</time>
      </trkpt>
      <trkpt lat="36.380609" lon="-6.135706">
        <ele>45.08</ele>
        <time>2015-06-19T06:07:37Z</time>
      </trkpt>
      <trkpt lat="36.380497" lon="-6.135733">
        <ele>45.01</ele>
        <time>2015-06-19T06:07:39Z</time>
      </trkpt>
      <trkpt lat="36.380433" lon="-6.135733">
        <ele>45.01</ele>
        <time>2015-06-19T06:07:40Z</time>
      </trkpt>
      <trkpt lat="36.380312" lon="-6.135717">
        <ele>44.66</ele>
        <time>2015-06-19T06:07:42Z</time>
      </trkpt>
      <trkpt lat="36.380252" lon="-6.135720">
        <ele>44.22</ele>
        <time>2015-06-19T06:07:43Z</time>
      </trkpt>
      <trkpt lat="36.380191" lon="-6.135726">
        <ele>43.44</ele>
        <time>2015-06-19T06:07:44Z</time>
      </trkpt>
      <trkpt lat="36.380128" lon="-6.135727">
        <ele>43.03</ele>
        <time>2015-06-19T06:07:45Z</time>
      </trkpt>
      <trkpt lat="36.379930" lon="-6.135748">
        <ele>43.09</ele>
        <time>2015-06-19T06:07:48Z</time>
      </trkpt>
      <trkpt lat="36.379787" lon="-6.135761">
        <ele>42.49</ele>
        <time>2015-06-19T06:07:50Z</time>
      </trkpt>
      <trkpt lat="36.379716" lon="-6.135766">
        <ele>42.01</ele>
        <time>2015-06-19T06:07:51Z</time>
      </trkpt>
      <trkpt lat="36.379645" lon="-6.135771">
        <ele>41.64</ele>
        <time>2015-06-19T06:07:52Z</time>
      </trkpt>
      <trkpt lat="36.379572" lon="-6.135780">
        <ele>41.23</ele>
        <time>2015-06-19T06:07:53Z</time>
      </trkpt>
      <trkpt lat="36.379497" lon="-6.135791">
        <ele>40.65</ele>
        <time>2015-06-19T06:07:54Z</time>
      </trkpt>
      <trkpt lat="36.379352" lon="-6.135802">
        <ele>40.61</ele>
        <time>2015-06-19T06:07:56Z</time>
      </trkpt>
      <trkpt lat="36.379275" lon="-6.135792">
        <ele>40.61</ele>
        <time>2015-06-19T06:07:57Z</time>
      </trkpt>
      <trkpt lat="36.379200" lon="-6.135795">
        <ele>40.22</ele>
        <time>2015-06-19T06:07:58Z</time>
      </trkpt>
      <trkpt lat="36.379130" lon="-6.135810">
        <ele>39.85</ele>
        <time>2015-06-19T06:07:59Z</time>
      </trkpt>
      <trkpt lat="36.379063" lon="-6.135823">
        <ele>39.48</ele>
        <time>2015-06-19T06:08:00Z</time>
      </trkpt>
      <trkpt lat="36.378993" lon="-6.135837">
        <ele>39.05</ele>
        <time>2015-06-19T06:08:01Z</time>
      </trkpt>
      <trkpt lat="36.378919" lon="-6.135848">
        <ele>38.62</ele>
        <time>2015-06-19T06:08:02Z</time>
      </trkpt>
      <trkpt lat="36.378758" lon="-6.135853">
        <ele>38.26</ele>
        <time>2015-06-19T06:08:04Z</time>
      </trkpt>
      <trkpt lat="36.378680" lon="-6.135862">
        <ele>37.85</ele>
        <time>2015-06-19T06:08:05Z</time>
      </trkpt>
      <trkpt lat="36.378602" lon="-6.135873">
        <ele>37.28</ele>
        <time>2015-06-19T06:08:06Z</time>
      </trkpt>
      <trkpt lat="36.378522" lon="-6.135884">
        <ele>36.87</ele>
        <time>2015-06-19T06:08:07Z</time>
      </trkpt>
      <trkpt lat="36.378444" lon="-6.135891">
        <ele>36.44</ele>
        <time>2015-06-19T06:08:08Z</time>
      </trkpt>
      <trkpt lat="36.378368" lon="-6.135897">
        <ele>36.03</ele>
        <time>2015-06-19T06:08:09Z</time>
      </trkpt>
      <trkpt lat="36.378292" lon="-6.135906">
        <ele>35.61</ele>
        <time>2015-06-19T06:08:10Z</time>
      </trkpt>
      <trkpt lat="36.378215" lon="-6.135913">
        <ele>35.24</ele>
        <time>2015-06-19T06:08:11Z</time>
      </trkpt>
      <trkpt lat="36.378139" lon="-6.135926">
        <ele>34.85</ele>
        <time>2015-06-19T06:08:12Z</time>
      </trkpt>
      <trkpt lat="36.378067" lon="-6.135938">
        <ele>34.30</ele>
        <time>2015-06-19T06:08:13Z</time>
      </trkpt>
      <trkpt lat="36.377716" lon="-6.135973">
        <ele>33.82</ele>
        <time>2015-06-19T06:08:18Z</time>
      </trkpt>
      <trkpt lat="36.377641" lon="-6.135978">
        <ele>33.41</ele>
        <time>2015-06-19T06:08:19Z</time>
      </trkpt>
      <trkpt lat="36.377574" lon="-6.135985">
        <ele>33.04</ele>
        <time>2015-06-19T06:08:20Z</time>
      </trkpt>
      <trkpt lat="36.377509" lon="-6.135992">
        <ele>32.64</ele>
        <time>2015-06-19T06:08:21Z</time>
      </trkpt>
      <trkpt lat="36.377442" lon="-6.135996">
        <ele>32.23</ele>
        <time>2015-06-19T06:08:22Z</time>
      </trkpt>
      <trkpt lat="36.377240" lon="-6.136018">
        <ele>32.26</ele>
        <time>2015-06-19T06:08:25Z</time>
      </trkpt>
      <trkpt lat="36.377183" lon="-6.136039">
        <ele>32.22</ele>
        <time>2015-06-19T06:08:26Z</time>
      </trkpt>
      <trkpt lat="36.377134" lon="-6.136060">
        <ele>31.81</ele>
        <time>2015-06-19T06:08:27Z</time>
      </trkpt>
      <trkpt lat="36.377074" lon="-6.136067">
        <ele>31.41</ele>
        <time>2015-06-19T06:08:28Z</time>
      </trkpt>
      <trkpt lat="36.377034" lon="-6.136068">
        <ele>31.06</ele>
        <time>2015-06-19T06:08:29Z</time>
      </trkpt>
      <trkpt lat="36.376998" lon="-6.136081">
        <ele>30.67</ele>
        <time>2015-06-19T06:08:30Z</time>
      </trkpt>
      <trkpt lat="36.376961" lon="-6.136104">
        <ele>30.23</ele>
        <time>2015-06-19T06:08:31Z</time>
      </trkpt>
      <trkpt lat="36.376947" lon="-6.136203">
        <ele>29.84</ele>
        <time>2015-06-19T06:08:33Z</time>
      </trkpt>
      <trkpt lat="36.376957" lon="-6.136262">
        <ele>29.42</ele>
        <time>2015-06-19T06:08:34Z</time>
      </trkpt>
      <trkpt lat="36.376973" lon="-6.136318">
        <ele>29.04</ele>
        <time>2015-06-19T06:08:35Z</time>
      </trkpt>
      <trkpt lat="36.376990" lon="-6.136370">
        <ele>28.70</ele>
        <time>2015-06-19T06:08:36Z</time>
      </trkpt>
      <trkpt lat="36.376999" lon="-6.136419">
        <ele>28.26</ele>
        <time>2015-06-19T06:08:37Z</time>
      </trkpt>
      <trkpt lat="36.376999" lon="-6.136478">
        <ele>28.26</ele>
        <time>2015-06-19T06:08:38Z</time>
      </trkpt>
      <trkpt lat="36.376993" lon="-6.136598">
        <ele>28.21</ele>
        <time>2015-06-19T06:08:40Z</time>
      </trkpt>
      <trkpt lat="36.376989" lon="-6.136719">
        <ele>28.22</ele>
        <time>2015-06-19T06:08:42Z</time>
      </trkpt>
      <trkpt lat="36.376971" lon="-6.137036">
        <ele>28.21</ele>
        <time>2015-06-19T06:08:48Z</time>
      </trkpt>
      <trkpt lat="36.376966" lon="-6.137329">
        <ele>28.22</ele>
        <time>2015-06-19T06:08:54Z</time>
      </trkpt>
      <trkpt lat="36.376975" lon="-6.137483">
        <ele>28.28</ele>
        <time>2015-06-19T06:08:57Z</time>
      </trkpt>
      <trkpt lat="36.376992" lon="-6.137595">
        <ele>28.25</ele>
        <time>2015-06-19T06:08:59Z</time>
      </trkpt>
      <trkpt lat="36.377009" lon="-6.137649">
        <ele>28.24</ele>
        <time>2015-06-19T06:09:00Z</time>
      </trkpt>
      <trkpt lat="36.377032" lon="-6.137894">
        <ele>28.24</ele>
        <time>2015-06-19T06:09:04Z</time>
      </trkpt>
      <trkpt lat="36.377034" lon="-6.137956">
        <ele>28.23</ele>
        <time>2015-06-19T06:09:05Z</time>
      </trkpt>
      <trkpt lat="36.377041" lon="-6.138206">
        <ele>28.22</ele>
        <time>2015-06-19T06:09:09Z</time>
      </trkpt>
      <trkpt lat="36.377055" lon="-6.138467">
        <ele>28.26</ele>
        <time>2015-06-19T06:09:13Z</time>
      </trkpt>
      <trkpt lat="36.377111" lon="-6.138875">
        <ele>28.29</ele>
        <time>2015-06-19T06:09:20Z</time>
      </trkpt>
      <trkpt lat="36.377121" lon="-6.138926">
        <ele>28.22</ele>
        <time>2015-06-19T06:09:21Z</time>
      </trkpt>
      <trkpt lat="36.377161" lon="-6.139229">
        <ele>28.23</ele>
        <time>2015-06-19T06:09:27Z</time>
      </trkpt>
      <trkpt lat="36.377233" lon="-6.139607">
        <ele>28.21</ele>
        <time>2015-06-19T06:09:35Z</time>
      </trkpt>
      <trkpt lat="36.377312" lon="-6.139911">
        <ele>28.22</ele>
        <time>2015-06-19T06:09:41Z</time>
      </trkpt>
      <trkpt lat="36.377337" lon="-6.140013">
        <ele>28.29</ele>
        <time>2015-06-19T06:09:43Z</time>
      </trkpt>
      <trkpt lat="36.377356" lon="-6.140214">
        <ele>28.27</ele>
        <time>2015-06-19T06:09:47Z</time>
      </trkpt>
      <trkpt lat="36.377313" lon="-6.140244">
        <ele>28.30</ele>
        <time>2015-06-19T06:09:48Z</time>
      </trkpt>
      <trkpt lat="36.377187" lon="-6.140255">
        <ele>28.26</ele>
        <time>2015-06-19T06:09:51Z</time>
      </trkpt>
      <trkpt lat="36.377140" lon="-6.140247">
        <ele>28.21</ele>
        <time>2015-06-19T06:09:52Z</time>
      </trkpt>
      <trkpt lat="36.376760" lon="-6.140199">
        <ele>28.23</ele>
        <time>2015-06-19T06:09:59Z</time>
      </trkpt>
      <trkpt lat="36.376563" lon="-6.140167">
        <ele>28.27</ele>
        <time>2015-06-19T06:10:02Z</time>
      </trkpt>
      <trkpt lat="36.376371" lon="-6.140113">
        <ele>28.28</ele>
        <time>2015-06-19T06:10:05Z</time>
      </trkpt>
      <trkpt lat="36.376025" lon="-6.139954">
        <ele>28.29</ele>
        <time>2015-06-19T06:10:11Z</time>
      </trkpt>
      <trkpt lat="36.375969" lon="-6.139916">
        <ele>27.82</ele>
        <time>2015-06-19T06:10:12Z</time>
      </trkpt>
      <trkpt lat="36.375914" lon="-6.139882">
        <ele>27.41</ele>
        <time>2015-06-19T06:10:13Z</time>
      </trkpt>
      <trkpt lat="36.375862" lon="-6.139846">
        <ele>27.08</ele>
        <time>2015-06-19T06:10:14Z</time>
      </trkpt>
      <trkpt lat="36.375809" lon="-6.139810">
        <ele>26.65</ele>
        <time>2015-06-19T06:10:15Z</time>
      </trkpt>
      <trkpt lat="36.375757" lon="-6.139780">
        <ele>26.07</ele>
        <time>2015-06-19T06:10:16Z</time>
      </trkpt>
      <trkpt lat="36.375703" lon="-6.139755">
        <ele>26.02</ele>
        <time>2015-06-19T06:10:17Z</time>
      </trkpt>
      <trkpt lat="36.375595" lon="-6.139699">
        <ele>26.09</ele>
        <time>2015-06-19T06:10:19Z</time>
      </trkpt>
      <trkpt lat="36.375429" lon="-6.139611">
        <ele>26.09</ele>
        <time>2015-06-19T06:10:22Z</time>
      </trkpt>
      <trkpt lat="36.375164" lon="-6.139446">
        <ele>26.05</ele>
        <time>2015-06-19T06:10:27Z</time>
      </trkpt>
      <trkpt lat="36.374956" lon="-6.139319">
        <ele>26.02</ele>
        <time>2015-06-19T06:10:31Z</time>
      </trkpt>
      <trkpt lat="36.374604" lon="-6.139169">
        <ele>26.04</ele>
        <time>2015-06-19T06:10:38Z</time>
      </trkpt>
      <trkpt lat="36.374294" lon="-6.139116">
        <ele>26.02</ele>
        <time>2015-06-19T06:10:44Z</time>
      </trkpt>
      <trkpt lat="36.374194" lon="-6.139104">
        <ele>26.02</ele>
        <time>2015-06-19T06:10:46Z</time>
      </trkpt>
      <trkpt lat="36.373782" lon="-6.139025">
        <ele>26.01</ele>
        <time>2015-06-19T06:10:54Z</time>
      </trkpt>
      <trkpt lat="36.373441" lon="-6.138955">
        <ele>26.08</ele>
        <time>2015-06-19T06:11:01Z</time>
      </trkpt>
      <trkpt lat="36.373037" lon="-6.138895">
        <ele>26.06</ele>
        <time>2015-06-19T06:11:09Z</time>
      </trkpt>
      <trkpt lat="36.372726" lon="-6.138840">
        <ele>26.09</ele>
        <time>2015-06-19T06:11:15Z</time>
      </trkpt>
      <trkpt lat="36.372319" lon="-6.138744">
        <ele>26.05</ele>
        <time>2015-06-19T06:11:23Z</time>
      </trkpt>
      <trkpt lat="36.371965" lon="-6.138650">
        <ele>26.05</ele>
        <time>2015-06-19T06:11:30Z</time>
      </trkpt>
      <trkpt lat="36.371709" lon="-6.138591">
        <ele>26.09</ele>
        <time>2015-06-19T06:11:35Z</time>
      </trkpt>
      <trkpt lat="36.371568" lon="-6.138550">
        <ele>26.03</ele>
        <time>2015-06-19T06:11:38Z</time>
      </trkpt>
      <trkpt lat="36.371271" lon="-6.138474">
        <ele>26.08</ele>
        <time>2015-06-19T06:11:45Z</time>
      </trkpt>
      <trkpt lat="36.371147" lon="-6.138444">
        <ele>26.08</ele>
        <time>2015-06-19T06:11:48Z</time>
      </trkpt>
      <trkpt lat="36.371055" lon="-6.138425">
        <ele>26.04</ele>
        <time>2015-06-19T06:11:50Z</time>
      </trkpt>
      <trkpt lat="36.370734" lon="-6.138310">
        <ele>26.02</ele>
        <time>2015-06-19T06:11:57Z</time>
      </trkpt>
      <trkpt lat="36.370643" lon="-6.138280">
        <ele>26.01</ele>
        <time>2015-06-19T06:11:59Z</time>
      </trkpt>
      <trkpt lat="36.370354" lon="-6.138193">
        <ele>26.02</ele>
        <time>2015-06-19T06:12:06Z</time>
      </trkpt>
      <trkpt lat="36.370121" lon="-6.138127">
        <ele>26.09</ele>
        <time>2015-06-19T06:12:12Z</time>
      </trkpt>
      <trkpt lat="36.370038" lon="-6.138096">
        <ele>26.66</ele>
        <time>2015-06-19T06:12:14Z</time>
      </trkpt>
      <trkpt lat="36.369996" lon="-6.138076">
        <ele>27.48</ele>
        <time>2015-06-19T06:12:15Z</time>
      </trkpt>
      <trkpt lat="36.369956" lon="-6.138056">
        <ele>27.81</ele>
        <time>2015-06-19T06:12:16Z</time>
      </trkpt>
      <trkpt lat="36.369911" lon="-6.138037">
        <ele>28.22</ele>
        <time>2015-06-19T06:12:17Z</time>
      </trkpt>
      <trkpt lat="36.369867" lon="-6.138014">
        <ele>28.22</ele>
        <time>2015-06-19T06:12:18Z</time>
      </trkpt>
      <trkpt lat="36.369781" lon="-6.137981">
        <ele>28.27</ele>
        <time>2015-06-19T06:12:20Z</time>
      </trkpt>
      <trkpt lat="36.369559" lon="-6.137908">
        <ele>28.29</ele>
        <time>2015-06-19T06:12:25Z</time>
      </trkpt>
      <trkpt lat="36.369351" lon="-6.137894">
        <ele>28.22</ele>
        <time>2015-06-19T06:12:29Z</time>
      </trkpt>
      <trkpt lat="36.369298" lon="-6.137901">
        <ele>28.23</ele>
        <time>2015-06-19T06:12:30Z</time>
      </trkpt>
      <trkpt lat="36.369143" lon="-6.137950">
        <ele>28.21</ele>
        <time>2015-06-19T06:12:33Z</time>
      </trkpt>
      <trkpt lat="36.369042" lon="-6.138011">
        <ele>28.22</ele>
        <time>2015-06-19T06:12:35Z</time>
      </trkpt>
      <trkpt lat="36.368723" lon="-6.138241">
        <ele>27.88</ele>
        <time>2015-06-19T06:12:41Z</time>
      </trkpt>
      <trkpt lat="36.368667" lon="-6.138287">
        <ele>27.49</ele>
        <time>2015-06-19T06:12:42Z</time>
      </trkpt>
      <trkpt lat="36.368611" lon="-6.138333">
        <ele>27.07</ele>
        <time>2015-06-19T06:12:43Z</time>
      </trkpt>
      <trkpt lat="36.368555" lon="-6.138382">
        <ele>26.41</ele>
        <time>2015-06-19T06:12:44Z</time>
      </trkpt>
      <trkpt lat="36.368500" lon="-6.138429">
        <ele>26.02</ele>
        <time>2015-06-19T06:12:45Z</time>
      </trkpt>
      <trkpt lat="36.368336" lon="-6.138565">
        <ele>26.05</ele>
        <time>2015-06-19T06:12:48Z</time>
      </trkpt>
      <trkpt lat="36.367912" lon="-6.138880">
        <ele>26.07</ele>
        <time>2015-06-19T06:12:56Z</time>
      </trkpt>
      <trkpt lat="36.367752" lon="-6.138980">
        <ele>26.04</ele>
        <time>2015-06-19T06:12:59Z</time>
      </trkpt>
      <trkpt lat="36.367642" lon="-6.139023">
        <ele>26.08</ele>
        <time>2015-06-19T06:13:01Z</time>
      </trkpt>
      <trkpt lat="36.367503" lon="-6.139140">
        <ele>26.01</ele>
        <time>2015-06-19T06:13:04Z</time>
      </trkpt>
      <trkpt lat="36.367456" lon="-6.139181">
        <ele>26.01</ele>
        <time>2015-06-19T06:13:05Z</time>
      </trkpt>
      <trkpt lat="36.367253" lon="-6.139311">
        <ele>26.09</ele>
        <time>2015-06-19T06:13:09Z</time>
      </trkpt>
      <trkpt lat="36.367147" lon="-6.139362">
        <ele>26.09</ele>
        <time>2015-06-19T06:13:11Z</time>
      </trkpt>
      <trkpt lat="36.366797" lon="-6.139515">
        <ele>26.07</ele>
        <time>2015-06-19T06:13:18Z</time>
      </trkpt>
      <trkpt lat="36.366461" lon="-6.139608">
        <ele>26.05</ele>
        <time>2015-06-19T06:13:25Z</time>
      </trkpt>
      <trkpt lat="36.366249" lon="-6.139659">
        <ele>26.09</ele>
        <time>2015-06-19T06:13:30Z</time>
      </trkpt>
      <trkpt lat="36.365989" lon="-6.139755">
        <ele>26.08</ele>
        <time>2015-06-19T06:13:36Z</time>
      </trkpt>
      <trkpt lat="36.365845" lon="-6.139794">
        <ele>26.09</ele>
        <time>2015-06-19T06:13:39Z</time>
      </trkpt>
      <trkpt lat="36.365643" lon="-6.139844">
        <ele>26.02</ele>
        <time>2015-06-19T06:13:43Z</time>
      </trkpt>
      <trkpt lat="36.365302" lon="-6.139908">
        <ele>26.03</ele>
        <time>2015-06-19T06:13:50Z</time>
      </trkpt>
      <trkpt lat="36.364966" lon="-6.139986">
        <ele>26.09</ele>
        <time>2015-06-19T06:13:57Z</time>
      </trkpt>
      <trkpt lat="36.364624" lon="-6.140051">
        <ele>26.02</ele>
        <time>2015-06-19T06:14:04Z</time>
      </trkpt>
      <trkpt lat="36.364301" lon="-6.140140">
        <ele>26.01</ele>
        <time>2015-06-19T06:14:11Z</time>
      </trkpt>
      <trkpt lat="36.364040" lon="-6.140197">
        <ele>26.07</ele>
        <time>2015-06-19T06:14:17Z</time>
      </trkpt>
      <trkpt lat="36.363780" lon="-6.140264">
        <ele>26.10</ele>
        <time>2015-06-19T06:14:23Z</time>
      </trkpt>
      <trkpt lat="36.363476" lon="-6.140329">
        <ele>26.06</ele>
        <time>2015-06-19T06:14:30Z</time>
      </trkpt>
      <trkpt lat="36.363295" lon="-6.140375">
        <ele>26.04</ele>
        <time>2015-06-19T06:14:34Z</time>
      </trkpt>
      <trkpt lat="36.363171" lon="-6.140405">
        <ele>26.42</ele>
        <time>2015-06-19T06:14:37Z</time>
      </trkpt>
      <trkpt lat="36.363131" lon="-6.140419">
        <ele>26.89</ele>
        <time>2015-06-19T06:14:38Z</time>
      </trkpt>
      <trkpt lat="36.363092" lon="-6.140433">
        <ele>27.29</ele>
        <time>2015-06-19T06:14:39Z</time>
      </trkpt>
      <trkpt lat="36.363053" lon="-6.140452">
        <ele>27.82</ele>
        <time>2015-06-19T06:14:40Z</time>
      </trkpt>
      <trkpt lat="36.363017" lon="-6.140473">
        <ele>28.26</ele>
        <time>2015-06-19T06:14:41Z</time>
      </trkpt>
      <trkpt lat="36.362909" lon="-6.140540">
        <ele>28.20</ele>
        <time>2015-06-19T06:14:44Z</time>
      </trkpt>
      <trkpt lat="36.362616" lon="-6.140750">
        <ele>28.22</ele>
        <time>2015-06-19T06:14:52Z</time>
      </trkpt>
      <trkpt lat="36.362322" lon="-6.140981">
        <ele>28.21</ele>
        <time>2015-06-19T06:15:00Z</time>
      </trkpt>
      <trkpt lat="36.361982" lon="-6.141259">
        <ele>28.25</ele>
        <time>2015-06-19T06:15:09Z</time>
      </trkpt>
      <trkpt lat="36.361751" lon="-6.141465">
        <ele>28.21</ele>
        <time>2015-06-19T06:15:15Z</time>
      </trkpt>
      <trkpt lat="36.361715" lon="-6.141497">
        <ele>28.27</ele>
        <time>2015-06-19T06:15:16Z</time>
      </trkpt>
      <trkpt lat="36.361674" lon="-6.141529">
        <ele>28.61</ele>
        <time>2015-06-19T06:15:17Z</time>
      </trkpt>
      <trkpt lat="36.361636" lon="-6.141560">
        <ele>29.02</ele>
        <time>2015-06-19T06:15:18Z</time>
      </trkpt>
      <trkpt lat="36.361599" lon="-6.141590">
        <ele>29.49</ele>
        <time>2015-06-19T06:15:19Z</time>
      </trkpt>
      <trkpt lat="36.361563" lon="-6.141621">
        <ele>29.84</ele>
        <time>2015-06-19T06:15:20Z</time>
      </trkpt>
      <trkpt lat="36.361525" lon="-6.141652">
        <ele>30.25</ele>
        <time>2015-06-19T06:15:21Z</time>
      </trkpt>
      <trkpt lat="36.361488" lon="-6.141682">
        <ele>30.23</ele>
        <time>2015-06-19T06:15:22Z</time>
      </trkpt>
      <trkpt lat="36.361217" lon="-6.141901">
        <ele>30.29</ele>
        <time>2015-06-19T06:15:30Z</time>
      </trkpt>
      <trkpt lat="36.360998" lon="-6.142122">
        <ele>30.21</ele>
        <time>2015-06-19T06:15:37Z</time>
      </trkpt>
      <trkpt lat="36.360910" lon="-6.142216">
        <ele>30.61</ele>
        <time>2015-06-19T06:15:40Z</time>
      </trkpt>
      <trkpt lat="36.360880" lon="-6.142246">
        <ele>31.01</ele>
        <time>2015-06-19T06:15:41Z</time>
      </trkpt>
      <trkpt lat="36.360852" lon="-6.142273">
        <ele>31.49</ele>
        <time>2015-06-19T06:15:42Z</time>
      </trkpt>
      <trkpt lat="36.360822" lon="-6.142298">
        <ele>31.82</ele>
        <time>2015-06-19T06:15:43Z</time>
      </trkpt>
      <trkpt lat="36.360793" lon="-6.142319">
        <ele>32.27</ele>
        <time>2015-06-19T06:15:44Z</time>
      </trkpt>
      <trkpt lat="36.360613" lon="-6.142474">
        <ele>32.25</ele>
        <time>2015-06-19T06:15:50Z</time>
      </trkpt>
      <trkpt lat="36.360430" lon="-6.142644">
        <ele>32.30</ele>
        <time>2015-06-19T06:15:56Z</time>
      </trkpt>
      <trkpt lat="36.360402" lon="-6.142670">
        <ele>33.08</ele>
        <time>2015-06-19T06:15:57Z</time>
      </trkpt>
      <trkpt lat="36.360375" lon="-6.142699">
        <ele>33.44</ele>
        <time>2015-06-19T06:15:58Z</time>
      </trkpt>
      <trkpt lat="36.360345" lon="-6.142727">
        <ele>33.87</ele>
        <time>2015-06-19T06:15:59Z</time>
      </trkpt>
      <trkpt lat="36.360317" lon="-6.142755">
        <ele>34.27</ele>
        <time>2015-06-19T06:16:00Z</time>
      </trkpt>
      <trkpt lat="36.360229" lon="-6.142824">
        <ele>34.21</ele>
        <time>2015-06-19T06:16:03Z</time>
      </trkpt>
      <trkpt lat="36.360092" lon="-6.142952">
        <ele>34.61</ele>
        <time>2015-06-19T06:16:08Z</time>
      </trkpt>
      <trkpt lat="36.360068" lon="-6.142979">
        <ele>35.03</ele>
        <time>2015-06-19T06:16:09Z</time>
      </trkpt>
      <trkpt lat="36.360043" lon="-6.143007">
        <ele>35.44</ele>
        <time>2015-06-19T06:16:10Z</time>
      </trkpt>
      <trkpt lat="36.360016" lon="-6.143031">
        <ele>36.09</ele>
        <time>2015-06-19T06:16:11Z</time>
      </trkpt>
      <trkpt lat="36.359987" lon="-6.143053">
        <ele>36.48</ele>
        <time>2015-06-19T06:16:12Z</time>
      </trkpt>
      <trkpt lat="36.359796" lon="-6.143226">
        <ele>36.43</ele>
        <time>2015-06-19T06:16:19Z</time>
      </trkpt>
      <trkpt lat="36.359770" lon="-6.143252">
        <ele>36.85</ele>
        <time>2015-06-19T06:16:20Z</time>
      </trkpt>
      <trkpt lat="36.359741" lon="-6.143279">
        <ele>37.26</ele>
        <time>2015-06-19T06:16:21Z</time>
      </trkpt>
      <trkpt lat="36.359712" lon="-6.143304">
        <ele>38.06</ele>
        <time>2015-06-19T06:16:22Z</time>
      </trkpt>
      <trkpt lat="36.359682" lon="-6.143328">
        <ele>38.42</ele>
        <time>2015-06-19T06:16:23Z</time>
      </trkpt>
      <trkpt lat="36.359558" lon="-6.143433">
        <ele>38.46</ele>
        <time>2015-06-19T06:16:27Z</time>
      </trkpt>
      <trkpt lat="36.359319" lon="-6.143645">
        <ele>38.81</ele>
        <time>2015-06-19T06:16:35Z</time>
      </trkpt>
      <trkpt lat="36.359287" lon="-6.143670">
        <ele>39.21</ele>
        <time>2015-06-19T06:16:36Z</time>
      </trkpt>
      <trkpt lat="36.359254" lon="-6.143697">
        <ele>39.68</ele>
        <time>2015-06-19T06:16:37Z</time>
      </trkpt>
      <trkpt lat="36.359220" lon="-6.143723">
        <ele>40.05</ele>
        <time>2015-06-19T06:16:38Z</time>
      </trkpt>
      <trkpt lat="36.359185" lon="-6.143750">
        <ele>40.41</ele>
        <time>2015-06-19T06:16:39Z</time>
      </trkpt>
      <trkpt lat="36.358987" lon="-6.143905">
        <ele>40.41</ele>
        <time>2015-06-19T06:16:45Z</time>
      </trkpt>
      <trkpt lat="36.358813" lon="-6.144024">
        <ele>40.43</ele>
        <time>2015-06-19T06:16:50Z</time>
      </trkpt>
      <trkpt lat="36.358709" lon="-6.144099">
        <ele>40.43</ele>
        <time>2015-06-19T06:16:53Z</time>
      </trkpt>
      <trkpt lat="36.358639" lon="-6.144147">
        <ele>40.88</ele>
        <time>2015-06-19T06:16:55Z</time>
      </trkpt>
      <trkpt lat="36.358604" lon="-6.144172">
        <ele>41.23</ele>
        <time>2015-06-19T06:16:56Z</time>
      </trkpt>
      <trkpt lat="36.358569" lon="-6.144196">
        <ele>41.67</ele>
        <time>2015-06-19T06:16:57Z</time>
      </trkpt>
      <trkpt lat="36.358536" lon="-6.144220">
        <ele>42.04</ele>
        <time>2015-06-19T06:16:58Z</time>
      </trkpt>
      <trkpt lat="36.358502" lon="-6.144245">
        <ele>42.43</ele>
        <time>2015-06-19T06:16:59Z</time>
      </trkpt>
      <trkpt lat="36.358467" lon="-6.144268">
        <ele>42.41</ele>
        <time>2015-06-19T06:17:00Z</time>
      </trkpt>
      <trkpt lat="36.358360" lon="-6.144344">
        <ele>42.47</ele>
        <time>2015-06-19T06:17:03Z</time>
      </trkpt>
      <trkpt lat="36.358230" lon="-6.144444">
        <ele>42.44</ele>
        <time>2015-06-19T06:17:07Z</time>
      </trkpt>
      <trkpt lat="36.357956" lon="-6.144638">
        <ele>42.45</ele>
        <time>2015-06-19T06:17:15Z</time>
      </trkpt>
      <trkpt lat="36.357788" lon="-6.144744">
        <ele>42.83</ele>
        <time>2015-06-19T06:17:20Z</time>
      </trkpt>
      <trkpt lat="36.357753" lon="-6.144765">
        <ele>43.23</ele>
        <time>2015-06-19T06:17:21Z</time>
      </trkpt>
      <trkpt lat="36.357720" lon="-6.144789">
        <ele>43.64</ele>
        <time>2015-06-19T06:17:22Z</time>
      </trkpt>
      <trkpt lat="36.357686" lon="-6.144815">
        <ele>44.09</ele>
        <time>2015-06-19T06:17:23Z</time>
      </trkpt>
      <trkpt lat="36.357653" lon="-6.144847">
        <ele>44.46</ele>
        <time>2015-06-19T06:17:24Z</time>
      </trkpt>
      <trkpt lat="36.357432" lon="-6.145055">
        <ele>44.45</ele>
        <time>2015-06-19T06:17:31Z</time>
      </trkpt>
      <trkpt lat="36.357239" lon="-6.145251">
        <ele>44.45</ele>
        <time>2015-06-19T06:17:37Z</time>
      </trkpt>
      <trkpt lat="36.356993" lon="-6.145504">
        <ele>44.41</ele>
        <time>2015-06-19T06:17:43Z</time>
      </trkpt>
      <trkpt lat="36.356710" lon="-6.145789">
        <ele>44.41</ele>
        <time>2015-06-19T06:17:49Z</time>
      </trkpt>
      <trkpt lat="36.356477" lon="-6.146059">
        <ele>44.45</ele>
        <time>2015-06-19T06:17:54Z</time>
      </trkpt>
      <trkpt lat="36.356345" lon="-6.146220">
        <ele>44.46</ele>
        <time>2015-06-19T06:17:57Z</time>
      </trkpt>
      <trkpt lat="36.356153" lon="-6.146437">
        <ele>44.45</ele>
        <time>2015-06-19T06:18:01Z</time>
      </trkpt>
      <trkpt lat="36.356014" lon="-6.146605">
        <ele>44.46</ele>
        <time>2015-06-19T06:18:04Z</time>
      </trkpt>
      <trkpt lat="36.355870" lon="-6.146774">
        <ele>44.47</ele>
        <time>2015-06-19T06:18:07Z</time>
      </trkpt>
      <trkpt lat="36.355775" lon="-6.146899">
        <ele>44.09</ele>
        <time>2015-06-19T06:18:09Z</time>
      </trkpt>
      <trkpt lat="36.355725" lon="-6.146952">
        <ele>43.69</ele>
        <time>2015-06-19T06:18:10Z</time>
      </trkpt>
      <trkpt lat="36.355676" lon="-6.147002">
        <ele>43.29</ele>
        <time>2015-06-19T06:18:11Z</time>
      </trkpt>
      <trkpt lat="36.355627" lon="-6.147055">
        <ele>42.90</ele>
        <time>2015-06-19T06:18:12Z</time>
      </trkpt>
      <trkpt lat="36.355578" lon="-6.147109">
        <ele>42.41</ele>
        <time>2015-06-19T06:18:13Z</time>
      </trkpt>
      <trkpt lat="36.355320" lon="-6.147362">
        <ele>42.43</ele>
        <time>2015-06-19T06:18:18Z</time>
      </trkpt>
      <trkpt lat="36.355267" lon="-6.147401">
        <ele>42.41</ele>
        <time>2015-06-19T06:18:19Z</time>
      </trkpt>
      <trkpt lat="36.355102" lon="-6.147510">
        <ele>42.45</ele>
        <time>2015-06-19T06:18:22Z</time>
      </trkpt>
      <trkpt lat="36.355014" lon="-6.147567">
        <ele>41.62</ele>
        <time>2015-06-19T06:18:24Z</time>
      </trkpt>
      <trkpt lat="36.354969" lon="-6.147593">
        <ele>41.21</ele>
        <time>2015-06-19T06:18:25Z</time>
      </trkpt>
      <trkpt lat="36.354924" lon="-6.147621">
        <ele>40.82</ele>
        <time>2015-06-19T06:18:26Z</time>
      </trkpt>
      <trkpt lat="36.354875" lon="-6.147650">
        <ele>40.42</ele>
        <time>2015-06-19T06:18:27Z</time>
      </trkpt>
      <trkpt lat="36.354728" lon="-6.147758">
        <ele>40.48</ele>
        <time>2015-06-19T06:18:30Z</time>
      </trkpt>
      <trkpt lat="36.354650" lon="-6.147826">
        <ele>40.48</ele>
        <time>2015-06-19T06:18:32Z</time>
      </trkpt>
      <trkpt lat="36.354532" lon="-6.147921">
        <ele>40.46</ele>
        <time>2015-06-19T06:18:35Z</time>
      </trkpt>
      <trkpt lat="36.354447" lon="-6.147983">
        <ele>40.45</ele>
        <time>2015-06-19T06:18:37Z</time>
      </trkpt>
      <trkpt lat="36.354262" lon="-6.148122">
        <ele>40.45</ele>
        <time>2015-06-19T06:18:41Z</time>
      </trkpt>
      <trkpt lat="36.354177" lon="-6.148186">
        <ele>40.41</ele>
        <time>2015-06-19T06:18:43Z</time>
      </trkpt>
      <trkpt lat="36.354089" lon="-6.148318">
        <ele>40.41</ele>
        <time>2015-06-19T06:18:46Z</time>
      </trkpt>
      <trkpt lat="36.354065" lon="-6.148360">
        <ele>40.46</ele>
        <time>2015-06-19T06:18:47Z</time>
      </trkpt>
      <trkpt lat="36.353985" lon="-6.148491">
        <ele>40.48</ele>
        <time>2015-06-19T06:18:50Z</time>
      </trkpt>
      <trkpt lat="36.353928" lon="-6.148565">
        <ele>40.42</ele>
        <time>2015-06-19T06:18:52Z</time>
      </trkpt>
      <trkpt lat="36.353717" lon="-6.148785">
        <ele>40.42</ele>
        <time>2015-06-19T06:18:58Z</time>
      </trkpt>
      <trkpt lat="36.353592" lon="-6.148947">
        <ele>40.44</ele>
        <time>2015-06-19T06:19:03Z</time>
      </trkpt>
      <trkpt lat="36.353457" lon="-6.149112">
        <ele>40.44</ele>
        <time>2015-06-19T06:19:08Z</time>
      </trkpt>
      <trkpt lat="36.353255" lon="-6.149358">
        <ele>40.45</ele>
        <time>2015-06-19T06:19:12Z</time>
      </trkpt>
      <trkpt lat="36.353112" lon="-6.149506">
        <ele>39.42</ele>
        <time>2015-06-19T06:19:14Z</time>
      </trkpt>
      <trkpt lat="36.353040" lon="-6.149569">
        <ele>39.06</ele>
        <time>2015-06-19T06:19:15Z</time>
      </trkpt>
      <trkpt lat="36.352966" lon="-6.149624">
        <ele>38.66</ele>
        <time>2015-06-19T06:19:16Z</time>
      </trkpt>
      <trkpt lat="36.352896" lon="-6.149671">
        <ele>38.21</ele>
        <time>2015-06-19T06:19:17Z</time>
      </trkpt>
      <trkpt lat="36.352686" lon="-6.149798">
        <ele>37.81</ele>
        <time>2015-06-19T06:19:20Z</time>
      </trkpt>
      <trkpt lat="36.352616" lon="-6.149840">
        <ele>37.46</ele>
        <time>2015-06-19T06:19:21Z</time>
      </trkpt>
      <trkpt lat="36.352547" lon="-6.149879">
        <ele>36.82</ele>
        <time>2015-06-19T06:19:22Z</time>
      </trkpt>
      <trkpt lat="36.352478" lon="-6.149918">
        <ele>36.47</ele>
        <time>2015-06-19T06:19:23Z</time>
      </trkpt>
      <trkpt lat="36.352407" lon="-6.149956">
        <ele>36.09</ele>
        <time>2015-06-19T06:19:24Z</time>
      </trkpt>
      <trkpt lat="36.352206" lon="-6.150062">
        <ele>36.06</ele>
        <time>2015-06-19T06:19:27Z</time>
      </trkpt>
      <trkpt lat="36.351901" lon="-6.150235">
        <ele>36.04</ele>
        <time>2015-06-19T06:19:32Z</time>
      </trkpt>
      <trkpt lat="36.351793" lon="-6.150295">
        <ele>36.02</ele>
        <time>2015-06-19T06:19:34Z</time>
      </trkpt>
      <trkpt lat="36.351568" lon="-6.150435">
        <ele>36.06</ele>
        <time>2015-06-19T06:19:39Z</time>
      </trkpt>
      <trkpt lat="36.351481" lon="-6.150489">
        <ele>36.05</ele>
        <time>2015-06-19T06:19:41Z</time>
      </trkpt>
      <trkpt lat="36.351405" lon="-6.150539">
        <ele>36.03</ele>
        <time>2015-06-19T06:19:43Z</time>
      </trkpt>
      <trkpt lat="36.351329" lon="-6.150590">
        <ele>36.02</ele>
        <time>2015-06-19T06:19:45Z</time>
      </trkpt>
      <trkpt lat="36.351249" lon="-6.150636">
        <ele>36.01</ele>
        <time>2015-06-19T06:19:47Z</time>
      </trkpt>
      <trkpt lat="36.351030" lon="-6.150744">
        <ele>36.06</ele>
        <time>2015-06-19T06:19:52Z</time>
      </trkpt>
      <trkpt lat="36.350913" lon="-6.150801">
        <ele>36.03</ele>
        <time>2015-06-19T06:19:55Z</time>
      </trkpt>
      <trkpt lat="36.350794" lon="-6.150853">
        <ele>36.02</ele>
        <time>2015-06-19T06:19:58Z</time>
      </trkpt>
      <trkpt lat="36.350600" lon="-6.150953">
        <ele>36.03</ele>
        <time>2015-06-19T06:20:03Z</time>
      </trkpt>
      <trkpt lat="36.350561" lon="-6.150969">
        <ele>36.10</ele>
        <time>2015-06-19T06:20:04Z</time>
      </trkpt>
      <trkpt lat="36.350305" lon="-6.151039">
        <ele>36.05</ele>
        <time>2015-06-19T06:20:10Z</time>
      </trkpt>
      <trkpt lat="36.350066" lon="-6.151148">
        <ele>36.02</ele>
        <time>2015-06-19T06:20:16Z</time>
      </trkpt>
      <trkpt lat="36.349988" lon="-6.151180">
        <ele>36.05</ele>
        <time>2015-06-19T06:20:18Z</time>
      </trkpt>
      <trkpt lat="36.349883" lon="-6.151216">
        <ele>36.05</ele>
        <time>2015-06-19T06:20:21Z</time>
      </trkpt>
      <trkpt lat="36.349754" lon="-6.151283">
        <ele>36.49</ele>
        <time>2015-06-19T06:20:25Z</time>
      </trkpt>
      <trkpt lat="36.349720" lon="-6.151290">
        <ele>36.82</ele>
        <time>2015-06-19T06:20:26Z</time>
      </trkpt>
      <trkpt lat="36.349687" lon="-6.151297">
        <ele>37.41</ele>
        <time>2015-06-19T06:20:27Z</time>
      </trkpt>
      <trkpt lat="36.349658" lon="-6.151308">
        <ele>38.26</ele>
        <time>2015-06-19T06:20:28Z</time>
      </trkpt>
      <trkpt lat="36.349574" lon="-6.151350">
        <ele>38.27</ele>
        <time>2015-06-19T06:20:31Z</time>
      </trkpt>
      <trkpt lat="36.349377" lon="-6.151424">
        <ele>38.24</ele>
        <time>2015-06-19T06:20:37Z</time>
      </trkpt>
      <trkpt lat="36.349230" lon="-6.151484">
        <ele>38.68</ele>
        <time>2015-06-19T06:20:42Z</time>
      </trkpt>
      <trkpt lat="36.349201" lon="-6.151494">
        <ele>39.04</ele>
        <time>2015-06-19T06:20:43Z</time>
      </trkpt>
      <trkpt lat="36.349171" lon="-6.151505">
        <ele>39.46</ele>
        <time>2015-06-19T06:20:44Z</time>
      </trkpt>
      <trkpt lat="36.349138" lon="-6.151520">
        <ele>40.08</ele>
        <time>2015-06-19T06:20:45Z</time>
      </trkpt>
      <trkpt lat="36.349100" lon="-6.151540">
        <ele>40.46</ele>
        <time>2015-06-19T06:20:46Z</time>
      </trkpt>
      <trkpt lat="36.348991" lon="-6.151612">
        <ele>40.48</ele>
        <time>2015-06-19T06:20:49Z</time>
      </trkpt>
      <trkpt lat="36.348901" lon="-6.151703">
        <ele>40.41</ele>
        <time>2015-06-19T06:20:52Z</time>
      </trkpt>
      <trkpt lat="36.348877" lon="-6.151755">
        <ele>40.42</ele>
        <time>2015-06-19T06:20:53Z</time>
      </trkpt>
      <trkpt lat="36.348852" lon="-6.151978">
        <ele>40.41</ele>
        <time>2015-06-19T06:20:57Z</time>
      </trkpt>
      <trkpt lat="36.348861" lon="-6.152155">
        <ele>40.48</ele>
        <time>2015-06-19T06:21:00Z</time>
      </trkpt>
      <trkpt lat="36.348867" lon="-6.152263">
        <ele>40.47</ele>
        <time>2015-06-19T06:21:02Z</time>
      </trkpt>
      <trkpt lat="36.348871" lon="-6.152310">
        <ele>40.46</ele>
        <time>2015-06-19T06:21:03Z</time>
      </trkpt>
      <trkpt lat="36.348846" lon="-6.152512">
        <ele>40.45</ele>
        <time>2015-06-19T06:21:07Z</time>
      </trkpt>
      <trkpt lat="36.348819" lon="-6.152664">
        <ele>40.85</ele>
        <time>2015-06-19T06:21:10Z</time>
      </trkpt>
      <trkpt lat="36.348811" lon="-6.152710">
        <ele>41.23</ele>
        <time>2015-06-19T06:21:11Z</time>
      </trkpt>
      <trkpt lat="36.348799" lon="-6.152752">
        <ele>41.70</ele>
        <time>2015-06-19T06:21:12Z</time>
      </trkpt>
      <trkpt lat="36.348781" lon="-6.152786">
        <ele>42.03</ele>
        <time>2015-06-19T06:21:13Z</time>
      </trkpt>
      <trkpt lat="36.348760" lon="-6.152815">
        <ele>42.65</ele>
        <time>2015-06-19T06:21:14Z</time>
      </trkpt>
      <trkpt lat="36.348701" lon="-6.152896">
        <ele>42.60</ele>
        <time>2015-06-19T06:21:17Z</time>
      </trkpt>
      <trkpt lat="36.348673" lon="-6.152934">
        <ele>42.62</ele>
        <time>2015-06-19T06:21:19Z</time>
      </trkpt>
      <trkpt lat="36.348591" lon="-6.152999">
        <ele>42.61</ele>
        <time>2015-06-19T06:21:22Z</time>
      </trkpt>
      <trkpt lat="36.348560" lon="-6.153018">
        <ele>42.63</ele>
        <time>2015-06-19T06:21:23Z</time>
      </trkpt>
      <trkpt lat="36.348528" lon="-6.153022">
        <ele>42.65</ele>
        <time>2015-06-19T06:21:24Z</time>
      </trkpt>
      <trkpt lat="36.348461" lon="-6.153009">
        <ele>42.63</ele>
        <time>2015-06-19T06:21:26Z</time>
      </trkpt>
      <trkpt lat="36.348255" lon="-6.152999">
        <ele>42.64</ele>
        <time>2015-06-19T06:21:31Z</time>
      </trkpt>
      <trkpt lat="36.348208" lon="-6.152999">
        <ele>42.64</ele>
        <time>2015-06-19T06:21:32Z</time>
      </trkpt>
      <trkpt lat="36.347991" lon="-6.152979">
        <ele>42.62</ele>
        <time>2015-06-19T06:21:37Z</time>
      </trkpt>
      <trkpt lat="36.347656" lon="-6.152961">
        <ele>42.61</ele>
        <time>2015-06-19T06:21:44Z</time>
      </trkpt>
      <trkpt lat="36.347319" lon="-6.152962">
        <ele>42.68</ele>
        <time>2015-06-19T06:21:51Z</time>
      </trkpt>
      <trkpt lat="36.347268" lon="-6.152962">
        <ele>42.70</ele>
        <time>2015-06-19T06:21:52Z</time>
      </trkpt>
      <trkpt lat="36.347073" lon="-6.152974">
        <ele>42.62</ele>
        <time>2015-06-19T06:21:56Z</time>
      </trkpt>
      <trkpt lat="36.346884" lon="-6.152995">
        <ele>42.63</ele>
        <time>2015-06-19T06:22:00Z</time>
      </trkpt>
      <trkpt lat="36.346803" lon="-6.153034">
        <ele>42.61</ele>
        <time>2015-06-19T06:22:02Z</time>
      </trkpt>
      <trkpt lat="36.346681" lon="-6.153099">
        <ele>42.62</ele>
        <time>2015-06-19T06:22:05Z</time>
      </trkpt>
      <trkpt lat="36.346589" lon="-6.153118">
        <ele>42.62</ele>
        <time>2015-06-19T06:22:07Z</time>
      </trkpt>
      <trkpt lat="36.346150" lon="-6.153199">
        <ele>42.69</ele>
        <time>2015-06-19T06:22:16Z</time>
      </trkpt>
      <trkpt lat="36.345716" lon="-6.153297">
        <ele>42.65</ele>
        <time>2015-06-19T06:22:25Z</time>
      </trkpt>
      <trkpt lat="36.345353" lon="-6.153378">
        <ele>42.69</ele>
        <time>2015-06-19T06:22:33Z</time>
      </trkpt>
      <trkpt lat="36.345091" lon="-6.153440">
        <ele>43.06</ele>
        <time>2015-06-19T06:22:39Z</time>
      </trkpt>
      <trkpt lat="36.345051" lon="-6.153455">
        <ele>43.46</ele>
        <time>2015-06-19T06:22:40Z</time>
      </trkpt>
      <trkpt lat="36.345011" lon="-6.153471">
        <ele>43.88</ele>
        <time>2015-06-19T06:22:41Z</time>
      </trkpt>
      <trkpt lat="36.344970" lon="-6.153488">
        <ele>44.24</ele>
        <time>2015-06-19T06:22:42Z</time>
      </trkpt>
      <trkpt lat="36.344928" lon="-6.153504">
        <ele>44.62</ele>
        <time>2015-06-19T06:22:43Z</time>
      </trkpt>
      <trkpt lat="36.344887" lon="-6.153523">
        <ele>44.61</ele>
        <time>2015-06-19T06:22:44Z</time>
      </trkpt>
      <trkpt lat="36.344763" lon="-6.153600">
        <ele>44.61</ele>
        <time>2015-06-19T06:22:47Z</time>
      </trkpt>
      <trkpt lat="36.344618" lon="-6.153719">
        <ele>44.62</ele>
        <time>2015-06-19T06:22:51Z</time>
      </trkpt>
      <trkpt lat="36.344515" lon="-6.153821">
        <ele>44.67</ele>
        <time>2015-06-19T06:22:54Z</time>
      </trkpt>
      <trkpt lat="36.344289" lon="-6.154002">
        <ele>44.66</ele>
        <time>2015-06-19T06:23:00Z</time>
      </trkpt>
      <trkpt lat="36.344106" lon="-6.153993">
        <ele>45.04</ele>
        <time>2015-06-19T06:23:04Z</time>
      </trkpt>
      <trkpt lat="36.344062" lon="-6.153980">
        <ele>45.48</ele>
        <time>2015-06-19T06:23:05Z</time>
      </trkpt>
      <trkpt lat="36.344017" lon="-6.153971">
        <ele>45.81</ele>
        <time>2015-06-19T06:23:06Z</time>
      </trkpt>
      <trkpt lat="36.343970" lon="-6.153975">
        <ele>46.26</ele>
        <time>2015-06-19T06:23:07Z</time>
      </trkpt>
      <trkpt lat="36.343923" lon="-6.153985">
        <ele>46.68</ele>
        <time>2015-06-19T06:23:08Z</time>
      </trkpt>
      <trkpt lat="36.343879" lon="-6.153990">
        <ele>46.66</ele>
        <time>2015-06-19T06:23:09Z</time>
      </trkpt>
      <trkpt lat="36.343682" lon="-6.154080">
        <ele>46.61</ele>
        <time>2015-06-19T06:23:14Z</time>
      </trkpt>
      <trkpt lat="36.343644" lon="-6.154102">
        <ele>46.62</ele>
        <time>2015-06-19T06:23:15Z</time>
      </trkpt>
      <trkpt lat="36.343485" lon="-6.154209">
        <ele>46.61</ele>
        <time>2015-06-19T06:23:19Z</time>
      </trkpt>
      <trkpt lat="36.343406" lon="-6.154263">
        <ele>46.69</ele>
        <time>2015-06-19T06:23:21Z</time>
      </trkpt>
      <trkpt lat="36.343290" lon="-6.154346">
        <ele>47.06</ele>
        <time>2015-06-19T06:23:24Z</time>
      </trkpt>
      <trkpt lat="36.343254" lon="-6.154373">
        <ele>47.43</ele>
        <time>2015-06-19T06:23:25Z</time>
      </trkpt>
      <trkpt lat="36.343217" lon="-6.154399">
        <ele>47.84</ele>
        <time>2015-06-19T06:23:26Z</time>
      </trkpt>
      <trkpt lat="36.343179" lon="-6.154429">
        <ele>48.28</ele>
        <time>2015-06-19T06:23:27Z</time>
      </trkpt>
      <trkpt lat="36.343142" lon="-6.154459">
        <ele>48.65</ele>
        <time>2015-06-19T06:23:28Z</time>
      </trkpt>
      <trkpt lat="36.343107" lon="-6.154490">
        <ele>48.66</ele>
        <time>2015-06-19T06:23:29Z</time>
      </trkpt>
      <trkpt lat="36.342780" lon="-6.154769">
        <ele>48.67</ele>
        <time>2015-06-19T06:23:38Z</time>
      </trkpt>
      <trkpt lat="36.342586" lon="-6.154946">
        <ele>48.63</ele>
        <time>2015-06-19T06:23:44Z</time>
      </trkpt>
      <trkpt lat="36.342376" lon="-6.155174">
        <ele>48.66</ele>
        <time>2015-06-19T06:23:51Z</time>
      </trkpt>
      <trkpt lat="36.342133" lon="-6.155473">
        <ele>48.61</ele>
        <time>2015-06-19T06:23:58Z</time>
      </trkpt>
      <trkpt lat="36.341994" lon="-6.155670">
        <ele>48.61</ele>
        <time>2015-06-19T06:24:02Z</time>
      </trkpt>
      <trkpt lat="36.341888" lon="-6.155810">
        <ele>48.61</ele>
        <time>2015-06-19T06:24:05Z</time>
      </trkpt>
      <trkpt lat="36.341856" lon="-6.155861">
        <ele>48.64</ele>
        <time>2015-06-19T06:24:06Z</time>
      </trkpt>
      <trkpt lat="36.341739" lon="-6.156055">
        <ele>48.61</ele>
        <time>2015-06-19T06:24:10Z</time>
      </trkpt>
      <trkpt lat="36.341643" lon="-6.156215">
        <ele>48.68</ele>
        <time>2015-06-19T06:24:13Z</time>
      </trkpt>
      <trkpt lat="36.341402" lon="-6.156650">
        <ele>48.63</ele>
        <time>2015-06-19T06:24:21Z</time>
      </trkpt>
      <trkpt lat="36.341349" lon="-6.156761">
        <ele>48.68</ele>
        <time>2015-06-19T06:24:23Z</time>
      </trkpt>
      <trkpt lat="36.341201" lon="-6.157095">
        <ele>48.64</ele>
        <time>2015-06-19T06:24:29Z</time>
      </trkpt>
      <trkpt lat="36.341116" lon="-6.157321">
        <ele>48.65</ele>
        <time>2015-06-19T06:24:33Z</time>
      </trkpt>
      <trkpt lat="36.341059" lon="-6.157501">
        <ele>48.63</ele>
        <time>2015-06-19T06:24:36Z</time>
      </trkpt>
      <trkpt lat="36.340989" lon="-6.157694">
        <ele>48.60</ele>
        <time>2015-06-19T06:24:39Z</time>
      </trkpt>
      <trkpt lat="36.340893" lon="-6.157961">
        <ele>48.62</ele>
        <time>2015-06-19T06:24:43Z</time>
      </trkpt>
      <trkpt lat="36.340701" lon="-6.158467">
        <ele>48.61</ele>
        <time>2015-06-19T06:24:50Z</time>
      </trkpt>
      <trkpt lat="36.340664" lon="-6.158542">
        <ele>48.69</ele>
        <time>2015-06-19T06:24:51Z</time>
      </trkpt>
      <trkpt lat="36.340558" lon="-6.158765">
        <ele>48.24</ele>
        <time>2015-06-19T06:24:54Z</time>
      </trkpt>
      <trkpt lat="36.340513" lon="-6.158835">
        <ele>47.82</ele>
        <time>2015-06-19T06:24:55Z</time>
      </trkpt>
      <trkpt lat="36.340474" lon="-6.158911">
        <ele>47.48</ele>
        <time>2015-06-19T06:24:56Z</time>
      </trkpt>
      <trkpt lat="36.340433" lon="-6.158985">
        <ele>47.06</ele>
        <time>2015-06-19T06:24:57Z</time>
      </trkpt>
      <trkpt lat="36.340389" lon="-6.159058">
        <ele>46.68</ele>
        <time>2015-06-19T06:24:58Z</time>
      </trkpt>
      <trkpt lat="36.340234" lon="-6.159269">
        <ele>46.63</ele>
        <time>2015-06-19T06:25:01Z</time>
      </trkpt>
      <trkpt lat="36.340178" lon="-6.159337">
        <ele>46.63</ele>
        <time>2015-06-19T06:25:02Z</time>
      </trkpt>
      <trkpt lat="36.339993" lon="-6.159509">
        <ele>46.61</ele>
        <time>2015-06-19T06:25:05Z</time>
      </trkpt>
      <trkpt lat="36.339931" lon="-6.159559">
        <ele>46.25</ele>
        <time>2015-06-19T06:25:06Z</time>
      </trkpt>
      <trkpt lat="36.339863" lon="-6.159609">
        <ele>45.81</ele>
        <time>2015-06-19T06:25:07Z</time>
      </trkpt>
      <trkpt lat="36.339798" lon="-6.159650">
        <ele>45.41</ele>
        <time>2015-06-19T06:25:08Z</time>
      </trkpt>
      <trkpt lat="36.339735" lon="-6.159689">
        <ele>45.08</ele>
        <time>2015-06-19T06:25:09Z</time>
      </trkpt>
      <trkpt lat="36.339671" lon="-6.159725">
        <ele>44.62</ele>
        <time>2015-06-19T06:25:10Z</time>
      </trkpt>
      <trkpt lat="36.339608" lon="-6.159755">
        <ele>44.68</ele>
        <time>2015-06-19T06:25:11Z</time>
      </trkpt>
      <trkpt lat="36.339483" lon="-6.159803">
        <ele>44.64</ele>
        <time>2015-06-19T06:25:13Z</time>
      </trkpt>
      <trkpt lat="36.339421" lon="-6.159816">
        <ele>44.63</ele>
        <time>2015-06-19T06:25:14Z</time>
      </trkpt>
      <trkpt lat="36.339239" lon="-6.159871">
        <ele>44.66</ele>
        <time>2015-06-19T06:25:17Z</time>
      </trkpt>
      <trkpt lat="36.338970" lon="-6.159915">
        <ele>44.62</ele>
        <time>2015-06-19T06:25:22Z</time>
      </trkpt>
      <trkpt lat="36.338913" lon="-6.160055">
        <ele>44.64</ele>
        <time>2015-06-19T06:25:25Z</time>
      </trkpt>
      <trkpt lat="36.338912" lon="-6.160110">
        <ele>44.68</ele>
        <time>2015-06-19T06:25:26Z</time>
      </trkpt>
      <trkpt lat="36.338902" lon="-6.160220">
        <ele>44.63</ele>
        <time>2015-06-19T06:25:28Z</time>
      </trkpt>
      <trkpt lat="36.338878" lon="-6.160335">
        <ele>44.02</ele>
        <time>2015-06-19T06:25:30Z</time>
      </trkpt>
      <trkpt lat="36.338858" lon="-6.160396">
        <ele>43.61</ele>
        <time>2015-06-19T06:25:31Z</time>
      </trkpt>
      <trkpt lat="36.338844" lon="-6.160459">
        <ele>43.27</ele>
        <time>2015-06-19T06:25:32Z</time>
      </trkpt>
      <trkpt lat="36.338832" lon="-6.160525">
        <ele>42.88</ele>
        <time>2015-06-19T06:25:33Z</time>
      </trkpt>
      <trkpt lat="36.338821" lon="-6.160595">
        <ele>42.48</ele>
        <time>2015-06-19T06:25:34Z</time>
      </trkpt>
      <trkpt lat="36.338787" lon="-6.160740">
        <ele>42.44</ele>
        <time>2015-06-19T06:25:36Z</time>
      </trkpt>
      <trkpt lat="36.338681" lon="-6.161241">
        <ele>42.04</ele>
        <time>2015-06-19T06:25:42Z</time>
      </trkpt>
      <trkpt lat="36.338659" lon="-6.161331">
        <ele>41.62</ele>
        <time>2015-06-19T06:25:43Z</time>
      </trkpt>
      <trkpt lat="36.338638" lon="-6.161423">
        <ele>41.28</ele>
        <time>2015-06-19T06:25:44Z</time>
      </trkpt>
      <trkpt lat="36.338618" lon="-6.161517">
        <ele>40.81</ele>
        <time>2015-06-19T06:25:45Z</time>
      </trkpt>
      <trkpt lat="36.338594" lon="-6.161616">
        <ele>40.43</ele>
        <time>2015-06-19T06:25:46Z</time>
      </trkpt>
      <trkpt lat="36.338527" lon="-6.161910">
        <ele>40.06</ele>
        <time>2015-06-19T06:25:49Z</time>
      </trkpt>
      <trkpt lat="36.338506" lon="-6.162008">
        <ele>39.61</ele>
        <time>2015-06-19T06:25:50Z</time>
      </trkpt>
      <trkpt lat="36.338487" lon="-6.162096">
        <ele>39.21</ele>
        <time>2015-06-19T06:25:51Z</time>
      </trkpt>
      <trkpt lat="36.338458" lon="-6.162176">
        <ele>38.87</ele>
        <time>2015-06-19T06:25:52Z</time>
      </trkpt>
      <trkpt lat="36.338424" lon="-6.162243">
        <ele>38.42</ele>
        <time>2015-06-19T06:25:53Z</time>
      </trkpt>
      <trkpt lat="36.338311" lon="-6.162366">
        <ele>38.45</ele>
        <time>2015-06-19T06:25:56Z</time>
      </trkpt>
      <trkpt lat="36.338289" lon="-6.162380">
        <ele>38.04</ele>
        <time>2015-06-19T06:25:57Z</time>
      </trkpt>
      <trkpt lat="36.338275" lon="-6.162386">
        <ele>37.44</ele>
        <time>2015-06-19T06:25:58Z</time>
      </trkpt>
      <trkpt lat="36.338264" lon="-6.162393">
        <ele>37.08</ele>
        <time>2015-06-19T06:25:59Z</time>
      </trkpt>
      <trkpt lat="36.338252" lon="-6.162404">
        <ele>36.69</ele>
        <time>2015-06-19T06:26:00Z</time>
      </trkpt>
      <trkpt lat="36.338244" lon="-6.162412">
        <ele>36.23</ele>
        <time>2015-06-19T06:26:01Z</time>
      </trkpt>
      <trkpt lat="36.338218" lon="-6.162440">
        <ele>36.22</ele>
        <time>2015-06-19T06:26:03Z</time>
      </trkpt>
      <trkpt lat="36.338178" lon="-6.162486">
        <ele>36.21</ele>
        <time>2015-06-19T06:26:05Z</time>
      </trkpt>
      <trkpt lat="36.338092" lon="-6.162665">
        <ele>36.22</ele>
        <time>2015-06-19T06:26:10Z</time>
      </trkpt>
      <trkpt lat="36.338092" lon="-6.162713">
        <ele>36.21</ele>
        <time>2015-06-19T06:26:11Z</time>
      </trkpt>
      <trkpt lat="36.338079" lon="-6.162944">
        <ele>36.24</ele>
        <time>2015-06-19T06:26:15Z</time>
      </trkpt>
      <trkpt lat="36.338069" lon="-6.163016">
        <ele>36.23</ele>
        <time>2015-06-19T06:26:16Z</time>
      </trkpt>
      <trkpt lat="36.338057" lon="-6.163090">
        <ele>35.86</ele>
        <time>2015-06-19T06:26:17Z</time>
      </trkpt>
      <trkpt lat="36.338043" lon="-6.163162">
        <ele>35.49</ele>
        <time>2015-06-19T06:26:18Z</time>
      </trkpt>
      <trkpt lat="36.338028" lon="-6.163234">
        <ele>35.06</ele>
        <time>2015-06-19T06:26:19Z</time>
      </trkpt>
      <trkpt lat="36.338013" lon="-6.163298">
        <ele>34.50</ele>
        <time>2015-06-19T06:26:20Z</time>
      </trkpt>
      <trkpt lat="36.337997" lon="-6.163366">
        <ele>34.08</ele>
        <time>2015-06-19T06:26:21Z</time>
      </trkpt>
      <trkpt lat="36.337974" lon="-6.163461">
        <ele>33.68</ele>
        <time>2015-06-19T06:26:23Z</time>
      </trkpt>
      <trkpt lat="36.337956" lon="-6.163493">
        <ele>33.27</ele>
        <time>2015-06-19T06:26:24Z</time>
      </trkpt>
      <trkpt lat="36.337926" lon="-6.163505">
        <ele>32.60</ele>
        <time>2015-06-19T06:26:25Z</time>
      </trkpt>
      <trkpt lat="36.337896" lon="-6.163489">
        <ele>32.22</ele>
        <time>2015-06-19T06:26:26Z</time>
      </trkpt>
      <trkpt lat="36.337866" lon="-6.163473">
        <ele>31.81</ele>
        <time>2015-06-19T06:26:27Z</time>
      </trkpt>
      <trkpt lat="36.337807" lon="-6.163447">
        <ele>31.90</ele>
        <time>2015-06-19T06:26:29Z</time>
      </trkpt>
      <trkpt lat="36.337756" lon="-6.163469">
        <ele>31.86</ele>
        <time>2015-06-19T06:26:31Z</time>
      </trkpt>
      <trkpt lat="36.337724" lon="-6.163545">
        <ele>31.88</ele>
        <time>2015-06-19T06:26:33Z</time>
      </trkpt>
      <trkpt lat="36.337689" lon="-6.163571">
        <ele>31.82</ele>
        <time>2015-06-19T06:26:34Z</time>
      </trkpt>
      <trkpt lat="36.337631" lon="-6.163527">
        <ele>31.81</ele>
        <time>2015-06-19T06:26:36Z</time>
      </trkpt>
      <trkpt lat="36.337536" lon="-6.163458">
        <ele>31.87</ele>
        <time>2015-06-19T06:26:41Z</time>
      </trkpt>
      <trkpt lat="36.337517" lon="-6.163450">
        <ele>31.86</ele>
        <time>2015-06-19T06:26:45Z</time>
      </trkpt>
      <trkpt lat="36.337513" lon="-6.163448">
        <ele>31.89</ele>
        <time>2015-06-19T06:26:47Z</time>
      </trkpt>
      <trkpt lat="36.337510" lon="-6.163447">
        <ele>31.86</ele>
        <time>2015-06-19T06:26:50Z</time>
      </trkpt>
      <trkpt lat="36.337510" lon="-6.163447">
        <ele>31.80</ele>
        <time>2015-06-19T06:26:52Z</time>
      </trkpt>
      <trkpt lat="36.337510" lon="-6.163447">
        <ele>31.82</ele>
        <time>2015-06-19T06:27:00Z</time>
      </trkpt>
      <trkpt lat="36.337510" lon="-6.163447">
        <ele>31.81</ele>
        <time>2015-06-19T06:27:04Z</time>
      </trkpt>
      <trkpt lat="36.337510" lon="-6.163447">
        <ele>31.89</ele>
        <time>2015-06-19T06:27:06Z</time>
      </trkpt>
      <trkpt lat="36.337510" lon="-6.163447">
        <ele>31.88</ele>
        <time>2015-06-19T06:27:13Z</time>
      </trkpt>
      <trkpt lat="36.337510" lon="-6.163447">
        <ele>31.86</ele>
        <time>2015-06-19T06:27:17Z</time>
      </trkpt>
      <trkpt lat="36.337510" lon="-6.163447">
        <ele>31.82</ele>
        <time>2015-06-19T06:27:23Z</time>
      </trkpt>
      <trkpt lat="36.337510" lon="-6.163447">
        <ele>31.84</ele>
        <time>2015-06-19T06:27:25Z</time>
      </trkpt>
      <trkpt lat="36.337510" lon="-6.163447">
        <ele>31.82</ele>
        <time>2015-06-19T06:27:36Z</time>
      </trkpt>
      <trkpt lat="36.337510" lon="-6.163447">
        <ele>31.82</ele>
        <time>2015-06-19T06:27:41Z</time>
      </trkpt>
      <trkpt lat="36.337510" lon="-6.163447">
        <ele>31.86</ele>
        <time>2015-06-19T06:27:59Z</time>
      </trkpt>
      <trkpt lat="36.337510" lon="-6.163447">
        <ele>31.89</ele>
        <time>2015-06-19T06:28:06Z</time>
      </trkpt>
      <trkpt lat="36.337510" lon="-6.163449">
        <ele>31.86</ele>
        <time>2015-06-19T06:28:15Z</time>
      </trkpt>
      <trkpt lat="36.337510" lon="-6.163449">
        <ele>31.82</ele>
        <time>2015-06-19T06:28:19Z</time>
      </trkpt>
      <trkpt lat="36.337510" lon="-6.163449">
        <ele>31.81</ele>
        <time>2015-06-19T06:28:22Z</time>
      </trkpt>
      <trkpt lat="36.337510" lon="-6.163449">
        <ele>31.87</ele>
        <time>2015-06-19T06:28:34Z</time>
      </trkpt>
      <trkpt lat="36.337513" lon="-6.163453">
        <ele>31.85</ele>
        <time>2015-06-19T06:28:49Z</time>
      </trkpt>
      <trkpt lat="36.337513" lon="-6.163453">
        <ele>31.85</ele>
        <time>2015-06-19T06:28:52Z</time>
      </trkpt>
      <trkpt lat="36.337513" lon="-6.163453">
        <ele>31.89</ele>
        <time>2015-06-19T06:28:57Z</time>
      </trkpt>
      <trkpt lat="36.337513" lon="-6.163453">
        <ele>31.89</ele>
        <time>2015-06-19T06:29:04Z</time>
      </trkpt>
      <trkpt lat="36.337513" lon="-6.163453">
        <ele>31.82</ele>
        <time>2015-06-19T06:29:16Z</time>
      </trkpt>
      <trkpt lat="36.337513" lon="-6.163453">
        <ele>31.86</ele>
        <time>2015-06-19T06:29:19Z</time>
      </trkpt>
      <trkpt lat="36.337512" lon="-6.163452">
        <ele>31.85</ele>
        <time>2015-06-19T06:29:33Z</time>
      </trkpt>
      <trkpt lat="36.337512" lon="-6.163452">
        <ele>31.89</ele>
        <time>2015-06-19T06:29:35Z</time>
      </trkpt>
      <trkpt lat="36.337512" lon="-6.163452">
        <ele>31.82</ele>
        <time>2015-06-19T06:29:39Z</time>
      </trkpt>
      <trkpt lat="36.337512" lon="-6.163452">
        <ele>31.83</ele>
        <time>2015-06-19T06:29:52Z</time>
      </trkpt>
      <trkpt lat="36.337512" lon="-6.163452">
        <ele>31.81</ele>
        <time>2015-06-19T06:30:01Z</time>
      </trkpt>
      <trkpt lat="36.337513" lon="-6.163454">
        <ele>31.83</ele>
        <time>2015-06-19T06:30:12Z</time>
      </trkpt>
      <trkpt lat="36.337513" lon="-6.163454">
        <ele>31.86</ele>
        <time>2015-06-19T06:30:30Z</time>
      </trkpt>
      <trkpt lat="36.337513" lon="-6.163454">
        <ele>31.84</ele>
        <time>2015-06-19T06:30:31Z</time>
      </trkpt>
      <trkpt lat="36.337513" lon="-6.163454">
        <ele>31.89</ele>
        <time>2015-06-19T06:30:43Z</time>
      </trkpt>
      <trkpt lat="36.337514" lon="-6.163453">
        <ele>31.81</ele>
        <time>2015-06-19T06:30:51Z</time>
      </trkpt>
      <trkpt lat="36.337514" lon="-6.163453">
        <ele>31.87</ele>
        <time>2015-06-19T06:31:00Z</time>
      </trkpt>
      <trkpt lat="36.337514" lon="-6.163453">
        <ele>31.90</ele>
        <time>2015-06-19T06:31:06Z</time>
      </trkpt>
      <trkpt lat="36.337514" lon="-6.163453">
        <ele>31.87</ele>
        <time>2015-06-19T06:31:10Z</time>
      </trkpt>
      <trkpt lat="36.337514" lon="-6.163453">
        <ele>31.82</ele>
        <time>2015-06-19T06:31:27Z</time>
      </trkpt>
      <trkpt lat="36.337512" lon="-6.163453">
        <ele>31.84</ele>
        <time>2015-06-19T06:31:42Z</time>
      </trkpt>
      <trkpt lat="36.337510" lon="-6.163453">
        <ele>31.81</ele>
        <time>2015-06-19T06:31:45Z</time>
      </trkpt>
      <trkpt lat="36.337497" lon="-6.163432">
        <ele>31.81</ele>
        <time>2015-06-19T06:31:47Z</time>
      </trkpt>
      <trkpt lat="36.337464" lon="-6.163406">
        <ele>31.83</ele>
        <time>2015-06-19T06:31:49Z</time>
      </trkpt>
      <trkpt lat="36.337423" lon="-6.163355">
        <ele>31.90</ele>
        <time>2015-06-19T06:31:52Z</time>
      </trkpt>
      <trkpt lat="36.337401" lon="-6.163314">
        <ele>31.82</ele>
        <time>2015-06-19T06:31:54Z</time>
      </trkpt>
      <trkpt lat="36.337375" lon="-6.163254">
        <ele>31.87</ele>
        <time>2015-06-19T06:31:57Z</time>
      </trkpt>
      <trkpt lat="36.337358" lon="-6.163210">
        <ele>31.83</ele>
        <time>2015-06-19T06:31:59Z</time>
      </trkpt>
      <trkpt lat="36.337310" lon="-6.163087">
        <ele>31.85</ele>
        <time>2015-06-19T06:32:04Z</time>
      </trkpt>
      <trkpt lat="36.337284" lon="-6.163037">
        <ele>32.29</ele>
        <time>2015-06-19T06:32:06Z</time>
      </trkpt>
      <trkpt lat="36.337260" lon="-6.163015">
        <ele>32.88</ele>
        <time>2015-06-19T06:32:07Z</time>
      </trkpt>
      <trkpt lat="36.337238" lon="-6.162993">
        <ele>33.22</ele>
        <time>2015-06-19T06:32:08Z</time>
      </trkpt>
      <trkpt lat="36.337210" lon="-6.162981">
        <ele>33.66</ele>
        <time>2015-06-19T06:32:09Z</time>
      </trkpt>
      <trkpt lat="36.337178" lon="-6.162979">
        <ele>34.21</ele>
        <time>2015-06-19T06:32:10Z</time>
      </trkpt>
      <trkpt lat="36.336989" lon="-6.162996">
        <ele>34.21</ele>
        <time>2015-06-19T06:32:15Z</time>
      </trkpt>
      <trkpt lat="36.336840" lon="-6.162923">
        <ele>34.23</ele>
        <time>2015-06-19T06:32:19Z</time>
      </trkpt>
      <trkpt lat="36.336754" lon="-6.162906">
        <ele>34.23</ele>
        <time>2015-06-19T06:32:21Z</time>
      </trkpt>
      <trkpt lat="36.336677" lon="-6.162919">
        <ele>34.23</ele>
        <time>2015-06-19T06:32:23Z</time>
      </trkpt>
      <trkpt lat="36.336527" lon="-6.162958">
        <ele>34.26</ele>
        <time>2015-06-19T06:32:27Z</time>
      </trkpt>
      <trkpt lat="36.336449" lon="-6.163013">
        <ele>34.28</ele>
        <time>2015-06-19T06:32:29Z</time>
      </trkpt>
      <trkpt lat="36.336408" lon="-6.163025">
        <ele>34.26</ele>
        <time>2015-06-19T06:32:30Z</time>
      </trkpt>
      <trkpt lat="36.336340" lon="-6.162990">
        <ele>34.25</ele>
        <time>2015-06-19T06:32:32Z</time>
      </trkpt>
      <trkpt lat="36.336301" lon="-6.162906">
        <ele>34.27</ele>
        <time>2015-06-19T06:32:34Z</time>
      </trkpt>
      <trkpt lat="36.336251" lon="-6.162838">
        <ele>34.27</ele>
        <time>2015-06-19T06:32:36Z</time>
      </trkpt>
      <trkpt lat="36.336154" lon="-6.162746">
        <ele>34.28</ele>
        <time>2015-06-19T06:32:39Z</time>
      </trkpt>
      <trkpt lat="36.336020" lon="-6.162677">
        <ele>34.21</ele>
        <time>2015-06-19T06:32:42Z</time>
      </trkpt>
      <trkpt lat="36.335921" lon="-6.162644">
        <ele>34.21</ele>
        <time>2015-06-19T06:32:44Z</time>
      </trkpt>
      <trkpt lat="36.335727" lon="-6.162589">
        <ele>34.23</ele>
        <time>2015-06-19T06:32:48Z</time>
      </trkpt>
      <trkpt lat="36.335578" lon="-6.162522">
        <ele>34.28</ele>
        <time>2015-06-19T06:32:52Z</time>
      </trkpt>
      <trkpt lat="36.335551" lon="-6.162478">
        <ele>34.22</ele>
        <time>2015-06-19T06:32:53Z</time>
      </trkpt>
      <trkpt lat="36.335527" lon="-6.162312">
        <ele>34.24</ele>
        <time>2015-06-19T06:32:56Z</time>
      </trkpt>
      <trkpt lat="36.335526" lon="-6.162260">
        <ele>34.22</ele>
        <time>2015-06-19T06:32:57Z</time>
      </trkpt>
      <trkpt lat="36.335516" lon="-6.162205">
        <ele>34.24</ele>
        <time>2015-06-19T06:32:58Z</time>
      </trkpt>
      <trkpt lat="36.335468" lon="-6.162099">
        <ele>34.25</ele>
        <time>2015-06-19T06:33:00Z</time>
      </trkpt>
      <trkpt lat="36.335341" lon="-6.162028">
        <ele>34.25</ele>
        <time>2015-06-19T06:33:03Z</time>
      </trkpt>
      <trkpt lat="36.335251" lon="-6.161974">
        <ele>34.27</ele>
        <time>2015-06-19T06:33:05Z</time>
      </trkpt>
      <trkpt lat="36.335144" lon="-6.161849">
        <ele>34.28</ele>
        <time>2015-06-19T06:33:08Z</time>
      </trkpt>
      <trkpt lat="36.335072" lon="-6.161687">
        <ele>34.22</ele>
        <time>2015-06-19T06:33:11Z</time>
      </trkpt>
      <trkpt lat="36.335032" lon="-6.161582">
        <ele>34.21</ele>
        <time>2015-06-19T06:33:13Z</time>
      </trkpt>
      <trkpt lat="36.335011" lon="-6.161536">
        <ele>34.29</ele>
        <time>2015-06-19T06:33:14Z</time>
      </trkpt>
      <trkpt lat="36.334916" lon="-6.161469">
        <ele>34.27</ele>
        <time>2015-06-19T06:33:17Z</time>
      </trkpt>
      <trkpt lat="36.334820" lon="-6.161541">
        <ele>34.24</ele>
        <time>2015-06-19T06:33:20Z</time>
      </trkpt>
      <trkpt lat="36.334783" lon="-6.161561">
        <ele>34.25</ele>
        <time>2015-06-19T06:33:21Z</time>
      </trkpt>
      <trkpt lat="36.334743" lon="-6.161562">
        <ele>34.28</ele>
        <time>2015-06-19T06:33:22Z</time>
      </trkpt>
      <trkpt lat="36.334704" lon="-6.161541">
        <ele>34.27</ele>
        <time>2015-06-19T06:33:23Z</time>
      </trkpt>
      <trkpt lat="36.334555" lon="-6.161386">
        <ele>34.29</ele>
        <time>2015-06-19T06:33:28Z</time>
      </trkpt>
      <trkpt lat="36.334512" lon="-6.161235">
        <ele>34.29</ele>
        <time>2015-06-19T06:33:31Z</time>
      </trkpt>
      <trkpt lat="36.334511" lon="-6.161192">
        <ele>34.27</ele>
        <time>2015-06-19T06:33:32Z</time>
      </trkpt>
      <trkpt lat="36.334509" lon="-6.161153">
        <ele>34.24</ele>
        <time>2015-06-19T06:33:33Z</time>
      </trkpt>
      <trkpt lat="36.334459" lon="-6.161069">
        <ele>34.23</ele>
        <time>2015-06-19T06:33:36Z</time>
      </trkpt>
      <trkpt lat="36.334312" lon="-6.160933">
        <ele>34.21</ele>
        <time>2015-06-19T06:33:40Z</time>
      </trkpt>
      <trkpt lat="36.334101" lon="-6.160857">
        <ele>34.24</ele>
        <time>2015-06-19T06:33:44Z</time>
      </trkpt>
      <trkpt lat="36.334019" lon="-6.160857">
        <ele>34.23</ele>
        <time>2015-06-19T06:33:46Z</time>
      </trkpt>
      <trkpt lat="36.333966" lon="-6.160864">
        <ele>34.25</ele>
        <time>2015-06-19T06:33:48Z</time>
      </trkpt>
      <trkpt lat="36.333812" lon="-6.160882">
        <ele>34.24</ele>
        <time>2015-06-19T06:33:53Z</time>
      </trkpt>
      <trkpt lat="36.333632" lon="-6.160920">
        <ele>34.24</ele>
        <time>2015-06-19T06:33:59Z</time>
      </trkpt>
      <trkpt lat="36.333559" lon="-6.160799">
        <ele>34.27</ele>
        <time>2015-06-19T06:34:03Z</time>
      </trkpt>
      <trkpt lat="36.333470" lon="-6.160649">
        <ele>34.30</ele>
        <time>2015-06-19T06:34:06Z</time>
      </trkpt>
      <trkpt lat="36.333329" lon="-6.160609">
        <ele>34.27</ele>
        <time>2015-06-19T06:34:09Z</time>
      </trkpt>
      <trkpt lat="36.333289" lon="-6.160605">
        <ele>34.23</ele>
        <time>2015-06-19T06:34:10Z</time>
      </trkpt>
      <trkpt lat="36.333057" lon="-6.160557">
        <ele>34.22</ele>
        <time>2015-06-19T06:34:15Z</time>
      </trkpt>
      <trkpt lat="36.333013" lon="-6.160561">
        <ele>34.22</ele>
        <time>2015-06-19T06:34:16Z</time>
      </trkpt>
      <trkpt lat="36.332945" lon="-6.160605">
        <ele>34.21</ele>
        <time>2015-06-19T06:34:18Z</time>
      </trkpt>
      <trkpt lat="36.332818" lon="-6.160587">
        <ele>34.21</ele>
        <time>2015-06-19T06:34:21Z</time>
      </trkpt>
      <trkpt lat="36.332743" lon="-6.160533">
        <ele>34.24</ele>
        <time>2015-06-19T06:34:23Z</time>
      </trkpt>
      <trkpt lat="36.332707" lon="-6.160496">
        <ele>34.26</ele>
        <time>2015-06-19T06:34:24Z</time>
      </trkpt>
      <trkpt lat="36.332623" lon="-6.160469">
        <ele>34.23</ele>
        <time>2015-06-19T06:34:26Z</time>
      </trkpt>
      <trkpt lat="36.332540" lon="-6.160462">
        <ele>34.24</ele>
        <time>2015-06-19T06:34:28Z</time>
      </trkpt>
      <trkpt lat="36.332500" lon="-6.160456">
        <ele>34.62</ele>
        <time>2015-06-19T06:34:29Z</time>
      </trkpt>
      <trkpt lat="36.332458" lon="-6.160450">
        <ele>35.02</ele>
        <time>2015-06-19T06:34:30Z</time>
      </trkpt>
      <trkpt lat="36.332417" lon="-6.160432">
        <ele>35.42</ele>
        <time>2015-06-19T06:34:31Z</time>
      </trkpt>
      <trkpt lat="36.332379" lon="-6.160417">
        <ele>35.84</ele>
        <time>2015-06-19T06:34:32Z</time>
      </trkpt>
      <trkpt lat="36.332347" lon="-6.160405">
        <ele>36.25</ele>
        <time>2015-06-19T06:34:33Z</time>
      </trkpt>
      <trkpt lat="36.332210" lon="-6.160354">
        <ele>36.21</ele>
        <time>2015-06-19T06:34:37Z</time>
      </trkpt>
      <trkpt lat="36.332173" lon="-6.160330">
        <ele>36.21</ele>
        <time>2015-06-19T06:34:38Z</time>
      </trkpt>
      <trkpt lat="36.332042" lon="-6.160227">
        <ele>36.28</ele>
        <time>2015-06-19T06:34:42Z</time>
      </trkpt>
      <trkpt lat="36.331949" lon="-6.160082">
        <ele>36.26</ele>
        <time>2015-06-19T06:34:47Z</time>
      </trkpt>
      <trkpt lat="36.331945" lon="-6.160032">
        <ele>36.29</ele>
        <time>2015-06-19T06:34:49Z</time>
      </trkpt>
      <trkpt lat="36.331957" lon="-6.159961">
        <ele>36.29</ele>
        <time>2015-06-19T06:34:51Z</time>
      </trkpt>
      <trkpt lat="36.331914" lon="-6.159846">
        <ele>36.29</ele>
        <time>2015-06-19T06:34:54Z</time>
      </trkpt>
      <trkpt lat="36.331901" lon="-6.159811">
        <ele>36.26</ele>
        <time>2015-06-19T06:34:55Z</time>
      </trkpt>
      <trkpt lat="36.331916" lon="-6.159646">
        <ele>36.29</ele>
        <time>2015-06-19T06:34:59Z</time>
      </trkpt>
      <trkpt lat="36.331967" lon="-6.159524">
        <ele>36.62</ele>
        <time>2015-06-19T06:35:02Z</time>
      </trkpt>
      <trkpt lat="36.331986" lon="-6.159485">
        <ele>37.06</ele>
        <time>2015-06-19T06:35:03Z</time>
      </trkpt>
      <trkpt lat="36.332001" lon="-6.159448">
        <ele>37.40</ele>
        <time>2015-06-19T06:35:04Z</time>
      </trkpt>
      <trkpt lat="36.332016" lon="-6.159413">
        <ele>37.82</ele>
        <time>2015-06-19T06:35:05Z</time>
      </trkpt>
      <trkpt lat="36.332035" lon="-6.159379">
        <ele>38.21</ele>
        <time>2015-06-19T06:35:06Z</time>
      </trkpt>
      <trkpt lat="36.332175" lon="-6.159124">
        <ele>38.25</ele>
        <time>2015-06-19T06:35:14Z</time>
      </trkpt>
      <trkpt lat="36.332256" lon="-6.158978">
        <ele>38.66</ele>
        <time>2015-06-19T06:35:19Z</time>
      </trkpt>
      <trkpt lat="36.332274" lon="-6.158948">
        <ele>39.10</ele>
        <time>2015-06-19T06:35:20Z</time>
      </trkpt>
      <trkpt lat="36.332291" lon="-6.158916">
        <ele>39.49</ele>
        <time>2015-06-19T06:35:21Z</time>
      </trkpt>
      <trkpt lat="36.332308" lon="-6.158886">
        <ele>39.89</ele>
        <time>2015-06-19T06:35:22Z</time>
      </trkpt>
      <trkpt lat="36.332325" lon="-6.158857">
        <ele>40.29</ele>
        <time>2015-06-19T06:35:23Z</time>
      </trkpt>
      <trkpt lat="36.332389" lon="-6.158734">
        <ele>40.27</ele>
        <time>2015-06-19T06:35:27Z</time>
      </trkpt>
      <trkpt lat="36.332416" lon="-6.158674">
        <ele>40.24</ele>
        <time>2015-06-19T06:35:29Z</time>
      </trkpt>
      <trkpt lat="36.332558" lon="-6.158454">
        <ele>40.29</ele>
        <time>2015-06-19T06:35:37Z</time>
      </trkpt>
      <trkpt lat="36.332577" lon="-6.158430">
        <ele>40.67</ele>
        <time>2015-06-19T06:35:38Z</time>
      </trkpt>
      <trkpt lat="36.332597" lon="-6.158404">
        <ele>41.02</ele>
        <time>2015-06-19T06:35:39Z</time>
      </trkpt>
      <trkpt lat="36.332614" lon="-6.158376">
        <ele>41.41</ele>
        <time>2015-06-19T06:35:40Z</time>
      </trkpt>
      <trkpt lat="36.332633" lon="-6.158349">
        <ele>42.42</ele>
        <time>2015-06-19T06:35:41Z</time>
      </trkpt>
      <trkpt lat="36.332705" lon="-6.158282">
        <ele>42.50</ele>
        <time>2015-06-19T06:35:44Z</time>
      </trkpt>
      <trkpt lat="36.332786" lon="-6.158135">
        <ele>42.43</ele>
        <time>2015-06-19T06:35:49Z</time>
      </trkpt>
      <trkpt lat="36.332804" lon="-6.158111">
        <ele>42.88</ele>
        <time>2015-06-19T06:35:50Z</time>
      </trkpt>
      <trkpt lat="36.332821" lon="-6.158085">
        <ele>43.26</ele>
        <time>2015-06-19T06:35:51Z</time>
      </trkpt>
      <trkpt lat="36.332838" lon="-6.158055">
        <ele>43.62</ele>
        <time>2015-06-19T06:35:52Z</time>
      </trkpt>
      <trkpt lat="36.332854" lon="-6.158024">
        <ele>44.06</ele>
        <time>2015-06-19T06:35:53Z</time>
      </trkpt>
      <trkpt lat="36.332867" lon="-6.157993">
        <ele>44.47</ele>
        <time>2015-06-19T06:35:54Z</time>
      </trkpt>
      <trkpt lat="36.332895" lon="-6.157933">
        <ele>44.47</ele>
        <time>2015-06-19T06:35:56Z</time>
      </trkpt>
      <trkpt lat="36.332983" lon="-6.157796">
        <ele>44.44</ele>
        <time>2015-06-19T06:36:01Z</time>
      </trkpt>
      <trkpt lat="36.333041" lon="-6.157720">
        <ele>44.81</ele>
        <time>2015-06-19T06:36:04Z</time>
      </trkpt>
      <trkpt lat="36.333059" lon="-6.157690">
        <ele>45.21</ele>
        <time>2015-06-19T06:36:05Z</time>
      </trkpt>
      <trkpt lat="36.333076" lon="-6.157662">
        <ele>46.26</ele>
        <time>2015-06-19T06:36:06Z</time>
      </trkpt>
      <trkpt lat="36.333093" lon="-6.157634">
        <ele>46.63</ele>
        <time>2015-06-19T06:36:07Z</time>
      </trkpt>
      <trkpt lat="36.333131" lon="-6.157581">
        <ele>46.69</ele>
        <time>2015-06-19T06:36:09Z</time>
      </trkpt>
      <trkpt lat="36.333225" lon="-6.157421">
        <ele>46.65</ele>
        <time>2015-06-19T06:36:15Z</time>
      </trkpt>
      <trkpt lat="36.333275" lon="-6.157328">
        <ele>47.07</ele>
        <time>2015-06-19T06:36:18Z</time>
      </trkpt>
      <trkpt lat="36.333291" lon="-6.157295">
        <ele>47.45</ele>
        <time>2015-06-19T06:36:19Z</time>
      </trkpt>
      <trkpt lat="36.333309" lon="-6.157261">
        <ele>47.89</ele>
        <time>2015-06-19T06:36:20Z</time>
      </trkpt>
      <trkpt lat="36.333328" lon="-6.157234">
        <ele>48.26</ele>
        <time>2015-06-19T06:36:21Z</time>
      </trkpt>
      <trkpt lat="36.333351" lon="-6.157210">
        <ele>48.64</ele>
        <time>2015-06-19T06:36:22Z</time>
      </trkpt>
      <trkpt lat="36.333373" lon="-6.157185">
        <ele>48.62</ele>
        <time>2015-06-19T06:36:23Z</time>
      </trkpt>
      <trkpt lat="36.333507" lon="-6.156967">
        <ele>48.62</ele>
        <time>2015-06-19T06:36:30Z</time>
      </trkpt>
      <trkpt lat="36.333588" lon="-6.156828">
        <ele>48.61</ele>
        <time>2015-06-19T06:36:34Z</time>
      </trkpt>
      <trkpt lat="36.333627" lon="-6.156723">
        <ele>48.63</ele>
        <time>2015-06-19T06:36:37Z</time>
      </trkpt>
      <trkpt lat="36.333544" lon="-6.156633">
        <ele>48.63</ele>
        <time>2015-06-19T06:36:40Z</time>
      </trkpt>
      <trkpt lat="36.333516" lon="-6.156605">
        <ele>48.64</ele>
        <time>2015-06-19T06:36:41Z</time>
      </trkpt>
      <trkpt lat="36.333347" lon="-6.156422">
        <ele>48.61</ele>
        <time>2015-06-19T06:36:47Z</time>
      </trkpt>
      <trkpt lat="36.333195" lon="-6.156264">
        <ele>48.65</ele>
        <time>2015-06-19T06:36:51Z</time>
      </trkpt>
      <trkpt lat="36.333091" lon="-6.156181">
        <ele>48.64</ele>
        <time>2015-06-19T06:36:53Z</time>
      </trkpt>
      <trkpt lat="36.332910" lon="-6.156073">
        <ele>48.64</ele>
        <time>2015-06-19T06:36:56Z</time>
      </trkpt>
      <trkpt lat="36.332772" lon="-6.156055">
        <ele>48.67</ele>
        <time>2015-06-19T06:36:58Z</time>
      </trkpt>
      <trkpt lat="36.332569" lon="-6.156074">
        <ele>48.65</ele>
        <time>2015-06-19T06:37:01Z</time>
      </trkpt>
      <trkpt lat="36.332437" lon="-6.156078">
        <ele>48.60</ele>
        <time>2015-06-19T06:37:03Z</time>
      </trkpt>
      <trkpt lat="36.332367" lon="-6.156077">
        <ele>48.61</ele>
        <time>2015-06-19T06:37:04Z</time>
      </trkpt>
      <trkpt lat="36.332232" lon="-6.156080">
        <ele>48.21</ele>
        <time>2015-06-19T06:37:06Z</time>
      </trkpt>
      <trkpt lat="36.332163" lon="-6.156071">
        <ele>47.84</ele>
        <time>2015-06-19T06:37:07Z</time>
      </trkpt>
      <trkpt lat="36.332094" lon="-6.156066">
        <ele>47.46</ele>
        <time>2015-06-19T06:37:08Z</time>
      </trkpt>
      <trkpt lat="36.332022" lon="-6.156062">
        <ele>47.05</ele>
        <time>2015-06-19T06:37:09Z</time>
      </trkpt>
      <trkpt lat="36.331947" lon="-6.156053">
        <ele>46.69</ele>
        <time>2015-06-19T06:37:10Z</time>
      </trkpt>
      <trkpt lat="36.331403" lon="-6.155984">
        <ele>46.25</ele>
        <time>2015-06-19T06:37:17Z</time>
      </trkpt>
      <trkpt lat="36.331328" lon="-6.155974">
        <ele>45.62</ele>
        <time>2015-06-19T06:37:18Z</time>
      </trkpt>
      <trkpt lat="36.331249" lon="-6.155964">
        <ele>44.88</ele>
        <time>2015-06-19T06:37:19Z</time>
      </trkpt>
      <trkpt lat="36.331173" lon="-6.155957">
        <ele>44.49</ele>
        <time>2015-06-19T06:37:20Z</time>
      </trkpt>
      <trkpt lat="36.330945" lon="-6.155941">
        <ele>44.48</ele>
        <time>2015-06-19T06:37:23Z</time>
      </trkpt>
      <trkpt lat="36.330719" lon="-6.155916">
        <ele>44.09</ele>
        <time>2015-06-19T06:37:26Z</time>
      </trkpt>
      <trkpt lat="36.330640" lon="-6.155903">
        <ele>43.62</ele>
        <time>2015-06-19T06:37:27Z</time>
      </trkpt>
      <trkpt lat="36.330569" lon="-6.155879">
        <ele>43.21</ele>
        <time>2015-06-19T06:37:28Z</time>
      </trkpt>
      <trkpt lat="36.330495" lon="-6.155861">
        <ele>42.89</ele>
        <time>2015-06-19T06:37:29Z</time>
      </trkpt>
      <trkpt lat="36.330419" lon="-6.155838">
        <ele>42.49</ele>
        <time>2015-06-19T06:37:30Z</time>
      </trkpt>
      <trkpt lat="36.330118" lon="-6.155727">
        <ele>42.45</ele>
        <time>2015-06-19T06:37:34Z</time>
      </trkpt>
      <trkpt lat="36.329826" lon="-6.155609">
        <ele>42.43</ele>
        <time>2015-06-19T06:37:38Z</time>
      </trkpt>
      <trkpt lat="36.329755" lon="-6.155579">
        <ele>42.06</ele>
        <time>2015-06-19T06:37:39Z</time>
      </trkpt>
      <trkpt lat="36.329686" lon="-6.155548">
        <ele>41.66</ele>
        <time>2015-06-19T06:37:40Z</time>
      </trkpt>
      <trkpt lat="36.329618" lon="-6.155515">
        <ele>41.29</ele>
        <time>2015-06-19T06:37:41Z</time>
      </trkpt>
      <trkpt lat="36.329547" lon="-6.155483">
        <ele>40.87</ele>
        <time>2015-06-19T06:37:42Z</time>
      </trkpt>
      <trkpt lat="36.329478" lon="-6.155453">
        <ele>40.42</ele>
        <time>2015-06-19T06:37:43Z</time>
      </trkpt>
      <trkpt lat="36.329207" lon="-6.155337">
        <ele>40.43</ele>
        <time>2015-06-19T06:37:47Z</time>
      </trkpt>
      <trkpt lat="36.328875" lon="-6.155192">
        <ele>40.41</ele>
        <time>2015-06-19T06:37:52Z</time>
      </trkpt>
      <trkpt lat="36.328810" lon="-6.155167">
        <ele>40.01</ele>
        <time>2015-06-19T06:37:53Z</time>
      </trkpt>
      <trkpt lat="36.328747" lon="-6.155142">
        <ele>39.47</ele>
        <time>2015-06-19T06:37:54Z</time>
      </trkpt>
      <trkpt lat="36.328683" lon="-6.155115">
        <ele>39.09</ele>
        <time>2015-06-19T06:37:55Z</time>
      </trkpt>
      <trkpt lat="36.328619" lon="-6.155090">
        <ele>38.69</ele>
        <time>2015-06-19T06:37:56Z</time>
      </trkpt>
      <trkpt lat="36.328550" lon="-6.155064">
        <ele>38.21</ele>
        <time>2015-06-19T06:37:57Z</time>
      </trkpt>
      <trkpt lat="36.328325" lon="-6.154952">
        <ele>38.30</ele>
        <time>2015-06-19T06:38:01Z</time>
      </trkpt>
      <trkpt lat="36.327940" lon="-6.154731">
        <ele>38.22</ele>
        <time>2015-06-19T06:38:08Z</time>
      </trkpt>
      <trkpt lat="36.327497" lon="-6.154478">
        <ele>38.23</ele>
        <time>2015-06-19T06:38:16Z</time>
      </trkpt>
      <trkpt lat="36.327440" lon="-6.154457">
        <ele>38.28</ele>
        <time>2015-06-19T06:38:17Z</time>
      </trkpt>
      <trkpt lat="36.327269" lon="-6.154407">
        <ele>37.89</ele>
        <time>2015-06-19T06:38:20Z</time>
      </trkpt>
      <trkpt lat="36.327215" lon="-6.154396">
        <ele>37.48</ele>
        <time>2015-06-19T06:38:21Z</time>
      </trkpt>
      <trkpt lat="36.327162" lon="-6.154382">
        <ele>37.02</ele>
        <time>2015-06-19T06:38:22Z</time>
      </trkpt>
      <trkpt lat="36.327109" lon="-6.154365">
        <ele>36.61</ele>
        <time>2015-06-19T06:38:23Z</time>
      </trkpt>
      <trkpt lat="36.327059" lon="-6.154354">
        <ele>36.24</ele>
        <time>2015-06-19T06:38:24Z</time>
      </trkpt>
      <trkpt lat="36.326898" lon="-6.154308">
        <ele>36.28</ele>
        <time>2015-06-19T06:38:27Z</time>
      </trkpt>
      <trkpt lat="36.326781" lon="-6.154298">
        <ele>36.25</ele>
        <time>2015-06-19T06:38:29Z</time>
      </trkpt>
      <trkpt lat="36.326449" lon="-6.154240">
        <ele>36.29</ele>
        <time>2015-06-19T06:38:35Z</time>
      </trkpt>
      <trkpt lat="36.326396" lon="-6.154220">
        <ele>36.29</ele>
        <time>2015-06-19T06:38:36Z</time>
      </trkpt>
      <trkpt lat="36.326163" lon="-6.154161">
        <ele>36.27</ele>
        <time>2015-06-19T06:38:40Z</time>
      </trkpt>
      <trkpt lat="36.325724" lon="-6.154081">
        <ele>36.24</ele>
        <time>2015-06-19T06:38:47Z</time>
      </trkpt>
      <trkpt lat="36.325664" lon="-6.154065">
        <ele>36.25</ele>
        <time>2015-06-19T06:38:48Z</time>
      </trkpt>
      <trkpt lat="36.325224" lon="-6.153967">
        <ele>36.23</ele>
        <time>2015-06-19T06:38:55Z</time>
      </trkpt>
      <trkpt lat="36.324885" lon="-6.153901">
        <ele>36.20</ele>
        <time>2015-06-19T06:39:01Z</time>
      </trkpt>
      <trkpt lat="36.324473" lon="-6.153803">
        <ele>36.22</ele>
        <time>2015-06-19T06:39:09Z</time>
      </trkpt>
      <trkpt lat="36.324040" lon="-6.153686">
        <ele>36.21</ele>
        <time>2015-06-19T06:39:17Z</time>
      </trkpt>
      <trkpt lat="36.323894" lon="-6.153649">
        <ele>36.28</ele>
        <time>2015-06-19T06:39:20Z</time>
      </trkpt>
      <trkpt lat="36.323685" lon="-6.153592">
        <ele>36.28</ele>
        <time>2015-06-19T06:39:24Z</time>
      </trkpt>
      <trkpt lat="36.323635" lon="-6.153574">
        <ele>35.83</ele>
        <time>2015-06-19T06:39:25Z</time>
      </trkpt>
      <trkpt lat="36.323584" lon="-6.153560">
        <ele>35.45</ele>
        <time>2015-06-19T06:39:26Z</time>
      </trkpt>
      <trkpt lat="36.323535" lon="-6.153544">
        <ele>34.86</ele>
        <time>2015-06-19T06:39:27Z</time>
      </trkpt>
      <trkpt lat="36.323487" lon="-6.153524">
        <ele>34.42</ele>
        <time>2015-06-19T06:39:28Z</time>
      </trkpt>
      <trkpt lat="36.323442" lon="-6.153516">
        <ele>34.02</ele>
        <time>2015-06-19T06:39:29Z</time>
      </trkpt>
      <trkpt lat="36.323397" lon="-6.153502">
        <ele>34.08</ele>
        <time>2015-06-19T06:39:30Z</time>
      </trkpt>
      <trkpt lat="36.323161" lon="-6.153441">
        <ele>34.03</ele>
        <time>2015-06-19T06:39:35Z</time>
      </trkpt>
      <trkpt lat="36.323108" lon="-6.153426">
        <ele>34.06</ele>
        <time>2015-06-19T06:39:36Z</time>
      </trkpt>
      <trkpt lat="36.322806" lon="-6.153341">
        <ele>34.01</ele>
        <time>2015-06-19T06:39:42Z</time>
      </trkpt>
      <trkpt lat="36.322751" lon="-6.153326">
        <ele>34.01</ele>
        <time>2015-06-19T06:39:43Z</time>
      </trkpt>
      <trkpt lat="36.322312" lon="-6.153205">
        <ele>34.09</ele>
        <time>2015-06-19T06:39:52Z</time>
      </trkpt>
      <trkpt lat="36.322014" lon="-6.153134">
        <ele>34.03</ele>
        <time>2015-06-19T06:39:58Z</time>
      </trkpt>
      <trkpt lat="36.321738" lon="-6.153071">
        <ele>34.06</ele>
        <time>2015-06-19T06:40:04Z</time>
      </trkpt>
      <trkpt lat="36.321453" lon="-6.153005">
        <ele>34.02</ele>
        <time>2015-06-19T06:40:10Z</time>
      </trkpt>
      <trkpt lat="36.321415" lon="-6.153005">
        <ele>34.02</ele>
        <time>2015-06-19T06:40:11Z</time>
      </trkpt>
      <trkpt lat="36.321226" lon="-6.152965">
        <ele>34.08</ele>
        <time>2015-06-19T06:40:16Z</time>
      </trkpt>
      <trkpt lat="36.321183" lon="-6.152959">
        <ele>34.04</ele>
        <time>2015-06-19T06:40:17Z</time>
      </trkpt>
      <trkpt lat="36.320938" lon="-6.152894">
        <ele>34.05</ele>
        <time>2015-06-19T06:40:23Z</time>
      </trkpt>
      <trkpt lat="36.320682" lon="-6.152826">
        <ele>34.03</ele>
        <time>2015-06-19T06:40:28Z</time>
      </trkpt>
      <trkpt lat="36.320631" lon="-6.152817">
        <ele>34.00</ele>
        <time>2015-06-19T06:40:29Z</time>
      </trkpt>
      <trkpt lat="36.320395" lon="-6.152761">
        <ele>34.02</ele>
        <time>2015-06-19T06:40:34Z</time>
      </trkpt>
      <trkpt lat="36.320305" lon="-6.152737">
        <ele>34.01</ele>
        <time>2015-06-19T06:40:36Z</time>
      </trkpt>
      <trkpt lat="36.320194" lon="-6.152717">
        <ele>34.08</ele>
        <time>2015-06-19T06:40:38Z</time>
      </trkpt>
      <trkpt lat="36.320136" lon="-6.152704">
        <ele>33.67</ele>
        <time>2015-06-19T06:40:39Z</time>
      </trkpt>
      <trkpt lat="36.320079" lon="-6.152690">
        <ele>33.23</ele>
        <time>2015-06-19T06:40:40Z</time>
      </trkpt>
      <trkpt lat="36.320023" lon="-6.152674">
        <ele>32.89</ele>
        <time>2015-06-19T06:40:41Z</time>
      </trkpt>
      <trkpt lat="36.319971" lon="-6.152663">
        <ele>32.44</ele>
        <time>2015-06-19T06:40:42Z</time>
      </trkpt>
      <trkpt lat="36.319913" lon="-6.152649">
        <ele>32.04</ele>
        <time>2015-06-19T06:40:43Z</time>
      </trkpt>
      <trkpt lat="36.319806" lon="-6.152634">
        <ele>32.05</ele>
        <time>2015-06-19T06:40:45Z</time>
      </trkpt>
      <trkpt lat="36.319661" lon="-6.152616">
        <ele>32.06</ele>
        <time>2015-06-19T06:40:48Z</time>
      </trkpt>
      <trkpt lat="36.319617" lon="-6.152597">
        <ele>32.07</ele>
        <time>2015-06-19T06:40:49Z</time>
      </trkpt>
      <trkpt lat="36.319573" lon="-6.152579">
        <ele>32.08</ele>
        <time>2015-06-19T06:40:50Z</time>
      </trkpt>
      <trkpt lat="36.319436" lon="-6.152532">
        <ele>32.02</ele>
        <time>2015-06-19T06:40:53Z</time>
      </trkpt>
      <trkpt lat="36.319300" lon="-6.152482">
        <ele>32.01</ele>
        <time>2015-06-19T06:40:56Z</time>
      </trkpt>
      <trkpt lat="36.319046" lon="-6.152391">
        <ele>32.10</ele>
        <time>2015-06-19T06:41:01Z</time>
      </trkpt>
      <trkpt lat="36.318900" lon="-6.152347">
        <ele>32.09</ele>
        <time>2015-06-19T06:41:04Z</time>
      </trkpt>
      <trkpt lat="36.318815" lon="-6.152312">
        <ele>32.06</ele>
        <time>2015-06-19T06:41:06Z</time>
      </trkpt>
      <trkpt lat="36.318636" lon="-6.152226">
        <ele>32.09</ele>
        <time>2015-06-19T06:41:11Z</time>
      </trkpt>
      <trkpt lat="36.318596" lon="-6.152215">
        <ele>32.08</ele>
        <time>2015-06-19T06:41:12Z</time>
      </trkpt>
      <trkpt lat="36.318477" lon="-6.152176">
        <ele>32.01</ele>
        <time>2015-06-19T06:41:15Z</time>
      </trkpt>
      <trkpt lat="36.318392" lon="-6.152143">
        <ele>32.10</ele>
        <time>2015-06-19T06:41:17Z</time>
      </trkpt>
      <trkpt lat="36.318158" lon="-6.152036">
        <ele>32.03</ele>
        <time>2015-06-19T06:41:23Z</time>
      </trkpt>
      <trkpt lat="36.317977" lon="-6.151951">
        <ele>32.02</ele>
        <time>2015-06-19T06:41:28Z</time>
      </trkpt>
      <trkpt lat="36.317934" lon="-6.151952">
        <ele>32.04</ele>
        <time>2015-06-19T06:41:29Z</time>
      </trkpt>
      <trkpt lat="36.317732" lon="-6.151893">
        <ele>32.01</ele>
        <time>2015-06-19T06:41:34Z</time>
      </trkpt>
      <trkpt lat="36.317688" lon="-6.151868">
        <ele>32.01</ele>
        <time>2015-06-19T06:41:35Z</time>
      </trkpt>
      <trkpt lat="36.317529" lon="-6.151787">
        <ele>32.06</ele>
        <time>2015-06-19T06:41:39Z</time>
      </trkpt>
      <trkpt lat="36.317393" lon="-6.151727">
        <ele>32.10</ele>
        <time>2015-06-19T06:41:43Z</time>
      </trkpt>
      <trkpt lat="36.317350" lon="-6.151719">
        <ele>32.05</ele>
        <time>2015-06-19T06:41:44Z</time>
      </trkpt>
      <trkpt lat="36.317255" lon="-6.151684">
        <ele>32.08</ele>
        <time>2015-06-19T06:41:46Z</time>
      </trkpt>
      <trkpt lat="36.317160" lon="-6.151631">
        <ele>32.02</ele>
        <time>2015-06-19T06:41:48Z</time>
      </trkpt>
      <trkpt lat="36.316920" lon="-6.151516">
        <ele>32.10</ele>
        <time>2015-06-19T06:41:54Z</time>
      </trkpt>
      <trkpt lat="36.316842" lon="-6.151470">
        <ele>32.08</ele>
        <time>2015-06-19T06:41:56Z</time>
      </trkpt>
      <trkpt lat="36.316763" lon="-6.151433">
        <ele>32.03</ele>
        <time>2015-06-19T06:41:58Z</time>
      </trkpt>
      <trkpt lat="36.316668" lon="-6.151390">
        <ele>32.02</ele>
        <time>2015-06-19T06:42:00Z</time>
      </trkpt>
      <trkpt lat="36.316485" lon="-6.151315">
        <ele>32.06</ele>
        <time>2015-06-19T06:42:04Z</time>
      </trkpt>
      <trkpt lat="36.316363" lon="-6.151270">
        <ele>32.01</ele>
        <time>2015-06-19T06:42:07Z</time>
      </trkpt>
      <trkpt lat="36.316240" lon="-6.151217">
        <ele>32.01</ele>
        <time>2015-06-19T06:42:10Z</time>
      </trkpt>
      <trkpt lat="36.316200" lon="-6.151200">
        <ele>32.04</ele>
        <time>2015-06-19T06:42:11Z</time>
      </trkpt>
      <trkpt lat="36.315958" lon="-6.151102">
        <ele>32.07</ele>
        <time>2015-06-19T06:42:17Z</time>
      </trkpt>
      <trkpt lat="36.315874" lon="-6.151065">
        <ele>32.06</ele>
        <time>2015-06-19T06:42:19Z</time>
      </trkpt>
      <trkpt lat="36.315738" lon="-6.151003">
        <ele>32.01</ele>
        <time>2015-06-19T06:42:22Z</time>
      </trkpt>
      <trkpt lat="36.315690" lon="-6.150982">
        <ele>32.05</ele>
        <time>2015-06-19T06:42:23Z</time>
      </trkpt>
      <trkpt lat="36.315509" lon="-6.150891">
        <ele>32.09</ele>
        <time>2015-06-19T06:42:27Z</time>
      </trkpt>
      <trkpt lat="36.315378" lon="-6.150837">
        <ele>32.04</ele>
        <time>2015-06-19T06:42:30Z</time>
      </trkpt>
      <trkpt lat="36.315203" lon="-6.150762">
        <ele>31.69</ele>
        <time>2015-06-19T06:42:35Z</time>
      </trkpt>
      <trkpt lat="36.315161" lon="-6.150739">
        <ele>31.29</ele>
        <time>2015-06-19T06:42:36Z</time>
      </trkpt>
      <trkpt lat="36.315120" lon="-6.150714">
        <ele>30.81</ele>
        <time>2015-06-19T06:42:37Z</time>
      </trkpt>
      <trkpt lat="36.315082" lon="-6.150698">
        <ele>30.43</ele>
        <time>2015-06-19T06:42:38Z</time>
      </trkpt>
      <trkpt lat="36.315042" lon="-6.150676">
        <ele>30.01</ele>
        <time>2015-06-19T06:42:39Z</time>
      </trkpt>
      <trkpt lat="36.314955" lon="-6.150636">
        <ele>30.05</ele>
        <time>2015-06-19T06:42:41Z</time>
      </trkpt>
      <trkpt lat="36.314909" lon="-6.150619">
        <ele>30.06</ele>
        <time>2015-06-19T06:42:42Z</time>
      </trkpt>
      <trkpt lat="36.314771" lon="-6.150551">
        <ele>30.05</ele>
        <time>2015-06-19T06:42:45Z</time>
      </trkpt>
      <trkpt lat="36.314549" lon="-6.150465">
        <ele>30.04</ele>
        <time>2015-06-19T06:42:50Z</time>
      </trkpt>
      <trkpt lat="36.314267" lon="-6.150320">
        <ele>30.06</ele>
        <time>2015-06-19T06:42:57Z</time>
      </trkpt>
      <trkpt lat="36.313907" lon="-6.150159">
        <ele>30.03</ele>
        <time>2015-06-19T06:43:05Z</time>
      </trkpt>
      <trkpt lat="36.313570" lon="-6.149984">
        <ele>30.07</ele>
        <time>2015-06-19T06:43:13Z</time>
      </trkpt>
      <trkpt lat="36.313530" lon="-6.149969">
        <ele>30.01</ele>
        <time>2015-06-19T06:43:14Z</time>
      </trkpt>
      <trkpt lat="36.313280" lon="-6.149852">
        <ele>30.02</ele>
        <time>2015-06-19T06:43:20Z</time>
      </trkpt>
      <trkpt lat="36.313195" lon="-6.149814">
        <ele>30.08</ele>
        <time>2015-06-19T06:43:22Z</time>
      </trkpt>
      <trkpt lat="36.313056" lon="-6.149772">
        <ele>30.01</ele>
        <time>2015-06-19T06:43:25Z</time>
      </trkpt>
      <trkpt lat="36.312895" lon="-6.149688">
        <ele>30.01</ele>
        <time>2015-06-19T06:43:29Z</time>
      </trkpt>
      <trkpt lat="36.312813" lon="-6.149639">
        <ele>30.02</ele>
        <time>2015-06-19T06:43:31Z</time>
      </trkpt>
      <trkpt lat="36.312572" lon="-6.149550">
        <ele>30.10</ele>
        <time>2015-06-19T06:43:37Z</time>
      </trkpt>
      <trkpt lat="36.312405" lon="-6.149491">
        <ele>30.03</ele>
        <time>2015-06-19T06:43:41Z</time>
      </trkpt>
      <trkpt lat="36.312331" lon="-6.149458">
        <ele>30.05</ele>
        <time>2015-06-19T06:43:43Z</time>
      </trkpt>
      <trkpt lat="36.312158" lon="-6.149382">
        <ele>30.02</ele>
        <time>2015-06-19T06:43:48Z</time>
      </trkpt>
      <trkpt lat="36.311816" lon="-6.149208">
        <ele>30.02</ele>
        <time>2015-06-19T06:43:57Z</time>
      </trkpt>
      <trkpt lat="36.311736" lon="-6.149178">
        <ele>30.42</ele>
        <time>2015-06-19T06:43:59Z</time>
      </trkpt>
      <trkpt lat="36.311696" lon="-6.149158">
        <ele>30.83</ele>
        <time>2015-06-19T06:44:00Z</time>
      </trkpt>
      <trkpt lat="36.311653" lon="-6.149144">
        <ele>31.22</ele>
        <time>2015-06-19T06:44:01Z</time>
      </trkpt>
      <trkpt lat="36.311610" lon="-6.149131">
        <ele>31.66</ele>
        <time>2015-06-19T06:44:02Z</time>
      </trkpt>
      <trkpt lat="36.311569" lon="-6.149109">
        <ele>32.01</ele>
        <time>2015-06-19T06:44:03Z</time>
      </trkpt>
      <trkpt lat="36.311299" lon="-6.149001">
        <ele>32.01</ele>
        <time>2015-06-19T06:44:10Z</time>
      </trkpt>
      <trkpt lat="36.311096" lon="-6.148907">
        <ele>32.04</ele>
        <time>2015-06-19T06:44:16Z</time>
      </trkpt>
      <trkpt lat="36.310952" lon="-6.148840">
        <ele>32.08</ele>
        <time>2015-06-19T06:44:20Z</time>
      </trkpt>
      <trkpt lat="36.310814" lon="-6.148768">
        <ele>32.02</ele>
        <time>2015-06-19T06:44:24Z</time>
      </trkpt>
      <trkpt lat="36.310700" lon="-6.148721">
        <ele>32.09</ele>
        <time>2015-06-19T06:44:27Z</time>
      </trkpt>
      <trkpt lat="36.310582" lon="-6.148667">
        <ele>32.03</ele>
        <time>2015-06-19T06:44:30Z</time>
      </trkpt>
      <trkpt lat="36.310457" lon="-6.148612">
        <ele>32.07</ele>
        <time>2015-06-19T06:44:33Z</time>
      </trkpt>
      <trkpt lat="36.310288" lon="-6.148530">
        <ele>32.03</ele>
        <time>2015-06-19T06:44:37Z</time>
      </trkpt>
      <trkpt lat="36.310247" lon="-6.148511">
        <ele>32.05</ele>
        <time>2015-06-19T06:44:38Z</time>
      </trkpt>
      <trkpt lat="36.309955" lon="-6.148390">
        <ele>32.09</ele>
        <time>2015-06-19T06:44:45Z</time>
      </trkpt>
      <trkpt lat="36.309667" lon="-6.148258">
        <ele>32.06</ele>
        <time>2015-06-19T06:44:52Z</time>
      </trkpt>
      <trkpt lat="36.309626" lon="-6.148234">
        <ele>32.42</ele>
        <time>2015-06-19T06:44:53Z</time>
      </trkpt>
      <trkpt lat="36.309583" lon="-6.148211">
        <ele>32.81</ele>
        <time>2015-06-19T06:44:54Z</time>
      </trkpt>
      <trkpt lat="36.309539" lon="-6.148192">
        <ele>33.23</ele>
        <time>2015-06-19T06:44:55Z</time>
      </trkpt>
      <trkpt lat="36.309494" lon="-6.148173">
        <ele>33.63</ele>
        <time>2015-06-19T06:44:56Z</time>
      </trkpt>
      <trkpt lat="36.309452" lon="-6.148155">
        <ele>34.02</ele>
        <time>2015-06-19T06:44:57Z</time>
      </trkpt>
      <trkpt lat="36.309321" lon="-6.148088">
        <ele>34.05</ele>
        <time>2015-06-19T06:45:00Z</time>
      </trkpt>
      <trkpt lat="36.309235" lon="-6.148037">
        <ele>34.09</ele>
        <time>2015-06-19T06:45:02Z</time>
      </trkpt>
      <trkpt lat="36.309163" lon="-6.147986">
        <ele>34.09</ele>
        <time>2015-06-19T06:45:04Z</time>
      </trkpt>
      <trkpt lat="36.309128" lon="-6.147968">
        <ele>34.07</ele>
        <time>2015-06-19T06:45:05Z</time>
      </trkpt>
      <trkpt lat="36.309086" lon="-6.147963">
        <ele>34.02</ele>
        <time>2015-06-19T06:45:06Z</time>
      </trkpt>
      <trkpt lat="36.308886" lon="-6.147953">
        <ele>34.04</ele>
        <time>2015-06-19T06:45:10Z</time>
      </trkpt>
      <trkpt lat="36.308692" lon="-6.147946">
        <ele>34.08</ele>
        <time>2015-06-19T06:45:14Z</time>
      </trkpt>
      <trkpt lat="36.308556" lon="-6.147932">
        <ele>34.01</ele>
        <time>2015-06-19T06:45:17Z</time>
      </trkpt>
      <trkpt lat="36.308314" lon="-6.147917">
        <ele>34.01</ele>
        <time>2015-06-19T06:45:23Z</time>
      </trkpt>
      <trkpt lat="36.308015" lon="-6.147881">
        <ele>34.02</ele>
        <time>2015-06-19T06:45:30Z</time>
      </trkpt>
      <trkpt lat="36.307750" lon="-6.147854">
        <ele>34.04</ele>
        <time>2015-06-19T06:45:36Z</time>
      </trkpt>
      <trkpt lat="36.307663" lon="-6.147843">
        <ele>34.02</ele>
        <time>2015-06-19T06:45:38Z</time>
      </trkpt>
      <trkpt lat="36.307480" lon="-6.147839">
        <ele>34.03</ele>
        <time>2015-06-19T06:45:42Z</time>
      </trkpt>
      <trkpt lat="36.307437" lon="-6.147846">
        <ele>34.10</ele>
        <time>2015-06-19T06:45:43Z</time>
      </trkpt>
      <trkpt lat="36.307365" lon="-6.147894">
        <ele>34.04</ele>
        <time>2015-06-19T06:45:45Z</time>
      </trkpt>
      <trkpt lat="36.307353" lon="-6.147933">
        <ele>34.03</ele>
        <time>2015-06-19T06:45:46Z</time>
      </trkpt>
      <trkpt lat="36.307329" lon="-6.148033">
        <ele>34.03</ele>
        <time>2015-06-19T06:45:48Z</time>
      </trkpt>
      <trkpt lat="36.307243" lon="-6.148386">
        <ele>34.09</ele>
        <time>2015-06-19T06:45:55Z</time>
      </trkpt>
      <trkpt lat="36.307192" lon="-6.148551">
        <ele>34.02</ele>
        <time>2015-06-19T06:45:58Z</time>
      </trkpt>
      <trkpt lat="36.307116" lon="-6.148798">
        <ele>34.03</ele>
        <time>2015-06-19T06:46:02Z</time>
      </trkpt>
      <trkpt lat="36.307030" lon="-6.149083">
        <ele>33.61</ele>
        <time>2015-06-19T06:46:06Z</time>
      </trkpt>
      <trkpt lat="36.307011" lon="-6.149153">
        <ele>33.23</ele>
        <time>2015-06-19T06:46:07Z</time>
      </trkpt>
      <trkpt lat="36.306992" lon="-6.149225">
        <ele>32.83</ele>
        <time>2015-06-19T06:46:08Z</time>
      </trkpt>
      <trkpt lat="36.306972" lon="-6.149291">
        <ele>32.49</ele>
        <time>2015-06-19T06:46:09Z</time>
      </trkpt>
      <trkpt lat="36.306952" lon="-6.149359">
        <ele>32.04</ele>
        <time>2015-06-19T06:46:10Z</time>
      </trkpt>
      <trkpt lat="36.306856" lon="-6.149735">
        <ele>32.04</ele>
        <time>2015-06-19T06:46:16Z</time>
      </trkpt>
      <trkpt lat="36.306848" lon="-6.149761">
        <ele>32.09</ele>
        <time>2015-06-19T06:46:17Z</time>
      </trkpt>
      <trkpt lat="36.306828" lon="-6.149779">
        <ele>32.08</ele>
        <time>2015-06-19T06:46:19Z</time>
      </trkpt>
      <trkpt lat="36.306819" lon="-6.149785">
        <ele>32.04</ele>
        <time>2015-06-19T06:46:20Z</time>
      </trkpt>
      <trkpt lat="36.306801" lon="-6.149792">
        <ele>32.07</ele>
        <time>2015-06-19T06:46:22Z</time>
      </trkpt>
      <trkpt lat="36.306769" lon="-6.149803">
        <ele>32.08</ele>
        <time>2015-06-19T06:46:24Z</time>
      </trkpt>
      <trkpt lat="36.306749" lon="-6.149815">
        <ele>32.02</ele>
        <time>2015-06-19T06:46:25Z</time>
      </trkpt>
      <trkpt lat="36.306663" lon="-6.149874">
        <ele>32.01</ele>
        <time>2015-06-19T06:46:28Z</time>
      </trkpt>
      <trkpt lat="36.306606" lon="-6.149925">
        <ele>32.05</ele>
        <time>2015-06-19T06:46:30Z</time>
      </trkpt>
      <trkpt lat="36.306543" lon="-6.149974">
        <ele>31.61</ele>
        <time>2015-06-19T06:46:32Z</time>
      </trkpt>
      <trkpt lat="36.306517" lon="-6.149986">
        <ele>31.29</ele>
        <time>2015-06-19T06:46:33Z</time>
      </trkpt>
      <trkpt lat="36.306494" lon="-6.149987">
        <ele>30.64</ele>
        <time>2015-06-19T06:46:34Z</time>
      </trkpt>
      <trkpt lat="36.306474" lon="-6.149975">
        <ele>30.29</ele>
        <time>2015-06-19T06:46:35Z</time>
      </trkpt>
      <trkpt lat="36.306454" lon="-6.149960">
        <ele>29.83</ele>
        <time>2015-06-19T06:46:36Z</time>
      </trkpt>
      <trkpt lat="36.306367" lon="-6.149905">
        <ele>29.85</ele>
        <time>2015-06-19T06:46:40Z</time>
      </trkpt>
      <trkpt lat="36.306354" lon="-6.149875">
        <ele>29.88</ele>
        <time>2015-06-19T06:46:41Z</time>
      </trkpt>
      <trkpt lat="36.306348" lon="-6.149815">
        <ele>29.84</ele>
        <time>2015-06-19T06:46:43Z</time>
      </trkpt>
      <trkpt lat="36.306331" lon="-6.149707">
        <ele>29.81</ele>
        <time>2015-06-19T06:46:47Z</time>
      </trkpt>
      <trkpt lat="36.306250" lon="-6.149722">
        <ele>29.82</ele>
        <time>2015-06-19T06:46:50Z</time>
      </trkpt>
      <trkpt lat="36.306166" lon="-6.149730">
        <ele>29.81</ele>
        <time>2015-06-19T06:46:52Z</time>
      </trkpt>
      <trkpt lat="36.306122" lon="-6.149727">
        <ele>29.86</ele>
        <time>2015-06-19T06:46:53Z</time>
      </trkpt>
      <trkpt lat="36.306084" lon="-6.149715">
        <ele>29.84</ele>
        <time>2015-06-19T06:46:54Z</time>
      </trkpt>
      <trkpt lat="36.306024" lon="-6.149640">
        <ele>29.82</ele>
        <time>2015-06-19T06:46:57Z</time>
      </trkpt>
      <trkpt lat="36.305957" lon="-6.149579">
        <ele>29.83</ele>
        <time>2015-06-19T06:47:01Z</time>
      </trkpt>
      <trkpt lat="36.305893" lon="-6.149573">
        <ele>29.85</ele>
        <time>2015-06-19T06:47:03Z</time>
      </trkpt>
      <trkpt lat="36.305864" lon="-6.149559">
        <ele>29.85</ele>
        <time>2015-06-19T06:47:04Z</time>
      </trkpt>
      <trkpt lat="36.305811" lon="-6.149514">
        <ele>29.86</ele>
        <time>2015-06-19T06:47:06Z</time>
      </trkpt>
      <trkpt lat="36.305710" lon="-6.149436">
        <ele>29.85</ele>
        <time>2015-06-19T06:47:10Z</time>
      </trkpt>
      <trkpt lat="36.305659" lon="-6.149403">
        <ele>29.90</ele>
        <time>2015-06-19T06:47:12Z</time>
      </trkpt>
      <trkpt lat="36.305620" lon="-6.149370">
        <ele>29.85</ele>
        <time>2015-06-19T06:47:14Z</time>
      </trkpt>
      <trkpt lat="36.305600" lon="-6.149353">
        <ele>29.82</ele>
        <time>2015-06-19T06:47:15Z</time>
      </trkpt>
      <trkpt lat="36.305548" lon="-6.149216">
        <ele>29.81</ele>
        <time>2015-06-19T06:47:20Z</time>
      </trkpt>
      <trkpt lat="36.305535" lon="-6.149189">
        <ele>29.85</ele>
        <time>2015-06-19T06:47:21Z</time>
      </trkpt>
      <trkpt lat="36.305493" lon="-6.149151">
        <ele>29.88</ele>
        <time>2015-06-19T06:47:23Z</time>
      </trkpt>
      <trkpt lat="36.305461" lon="-6.149063">
        <ele>29.84</ele>
        <time>2015-06-19T06:47:26Z</time>
      </trkpt>
      <trkpt lat="36.305451" lon="-6.149040">
        <ele>29.84</ele>
        <time>2015-06-19T06:47:27Z</time>
      </trkpt>
      <trkpt lat="36.305371" lon="-6.149017">
        <ele>29.86</ele>
        <time>2015-06-19T06:47:31Z</time>
      </trkpt>
      <trkpt lat="36.305351" lon="-6.149015">
        <ele>29.90</ele>
        <time>2015-06-19T06:47:32Z</time>
      </trkpt>
      <trkpt lat="36.305293" lon="-6.149043">
        <ele>29.84</ele>
        <time>2015-06-19T06:47:35Z</time>
      </trkpt>
      <trkpt lat="36.305256" lon="-6.149058">
        <ele>29.83</ele>
        <time>2015-06-19T06:47:37Z</time>
      </trkpt>
      <trkpt lat="36.305219" lon="-6.149080">
        <ele>29.88</ele>
        <time>2015-06-19T06:47:40Z</time>
      </trkpt>
      <trkpt lat="36.305123" lon="-6.149169">
        <ele>29.81</ele>
        <time>2015-06-19T06:47:45Z</time>
      </trkpt>
      <trkpt lat="36.305073" lon="-6.149209">
        <ele>29.43</ele>
        <time>2015-06-19T06:47:49Z</time>
      </trkpt>
      <trkpt lat="36.305067" lon="-6.149220">
        <ele>29.01</ele>
        <time>2015-06-19T06:47:50Z</time>
      </trkpt>
      <trkpt lat="36.305070" lon="-6.149232">
        <ele>28.66</ele>
        <time>2015-06-19T06:47:51Z</time>
      </trkpt>
      <trkpt lat="36.305076" lon="-6.149244">
        <ele>28.02</ele>
        <time>2015-06-19T06:47:52Z</time>
      </trkpt>
      <trkpt lat="36.305085" lon="-6.149258">
        <ele>27.66</ele>
        <time>2015-06-19T06:47:53Z</time>
      </trkpt>
      <trkpt lat="36.305092" lon="-6.149275">
        <ele>27.62</ele>
        <time>2015-06-19T06:47:54Z</time>
      </trkpt>
      <trkpt lat="36.305103" lon="-6.149292">
        <ele>27.62</ele>
        <time>2015-06-19T06:47:56Z</time>
      </trkpt>
      <trkpt lat="36.305105" lon="-6.149287">
        <ele>27.67</ele>
        <time>2015-06-19T06:48:01Z</time>
      </trkpt>
      <trkpt lat="36.305105" lon="-6.149287">
        <ele>27.64</ele>
        <time>2015-06-19T06:48:03Z</time>
      </trkpt>
      <trkpt lat="36.305101" lon="-6.149293">
        <ele>27.64</ele>
        <time>2015-06-19T06:48:11Z</time>
      </trkpt>
      <trkpt lat="36.305099" lon="-6.149296">
        <ele>27.66</ele>
        <time>2015-06-19T06:48:14Z</time>
      </trkpt>
      <trkpt lat="36.305099" lon="-6.149296">
        <ele>27.66</ele>
        <time>2015-06-19T06:48:18Z</time>
      </trkpt>
      <trkpt lat="36.305099" lon="-6.149296">
        <ele>27.61</ele>
        <time>2015-06-19T06:48:19Z</time>
      </trkpt>
      <trkpt lat="36.305099" lon="-6.149296">
        <ele>27.61</ele>
        <time>2015-06-19T06:48:23Z</time>
      </trkpt>
      <trkpt lat="36.305092" lon="-6.149294">
        <ele>27.68</ele>
        <time>2015-06-19T06:48:31Z</time>
      </trkpt>
      <trkpt lat="36.305085" lon="-6.149294">
        <ele>27.67</ele>
        <time>2015-06-19T06:48:32Z</time>
      </trkpt>
      <trkpt lat="36.305041" lon="-6.149262">
        <ele>27.63</ele>
        <time>2015-06-19T06:48:36Z</time>
      </trkpt>
      <trkpt lat="36.304976" lon="-6.149253">
        <ele>27.68</ele>
        <time>2015-06-19T06:48:39Z</time>
      </trkpt>
      <trkpt lat="36.304922" lon="-6.149240">
        <ele>27.62</ele>
        <time>2015-06-19T06:48:41Z</time>
      </trkpt>
      <trkpt lat="36.304855" lon="-6.149157">
        <ele>27.66</ele>
        <time>2015-06-19T06:48:45Z</time>
      </trkpt>
      <trkpt lat="36.304831" lon="-6.149095">
        <ele>27.65</ele>
        <time>2015-06-19T06:48:48Z</time>
      </trkpt>
      <trkpt lat="36.304836" lon="-6.149075">
        <ele>27.62</ele>
        <time>2015-06-19T06:48:49Z</time>
      </trkpt>
      <trkpt lat="36.304854" lon="-6.149031">
        <ele>27.68</ele>
        <time>2015-06-19T06:48:52Z</time>
      </trkpt>
      <trkpt lat="36.304869" lon="-6.149005">
        <ele>27.63</ele>
        <time>2015-06-19T06:48:54Z</time>
      </trkpt>
      <trkpt lat="36.304886" lon="-6.148978">
        <ele>27.62</ele>
        <time>2015-06-19T06:48:56Z</time>
      </trkpt>
      <trkpt lat="36.304888" lon="-6.148945">
        <ele>27.61</ele>
        <time>2015-06-19T06:48:58Z</time>
      </trkpt>
      <trkpt lat="36.304862" lon="-6.148917">
        <ele>27.68</ele>
        <time>2015-06-19T06:49:00Z</time>
      </trkpt>
      <trkpt lat="36.304823" lon="-6.148841">
        <ele>27.65</ele>
        <time>2015-06-19T06:49:04Z</time>
      </trkpt>
      <trkpt lat="36.304813" lon="-6.148726">
        <ele>27.65</ele>
        <time>2015-06-19T06:49:08Z</time>
      </trkpt>
      <trkpt lat="36.304763" lon="-6.148647">
        <ele>27.65</ele>
        <time>2015-06-19T06:49:12Z</time>
      </trkpt>
      <trkpt lat="36.304750" lon="-6.148638">
        <ele>27.67</ele>
        <time>2015-06-19T06:49:13Z</time>
      </trkpt>
      <trkpt lat="36.304740" lon="-6.148623">
        <ele>27.64</ele>
        <time>2015-06-19T06:49:14Z</time>
      </trkpt>
      <trkpt lat="36.304702" lon="-6.148548">
        <ele>28.42</ele>
        <time>2015-06-19T06:49:17Z</time>
      </trkpt>
      <trkpt lat="36.304686" lon="-6.148521">
        <ele>28.85</ele>
        <time>2015-06-19T06:49:18Z</time>
      </trkpt>
      <trkpt lat="36.304671" lon="-6.148497">
        <ele>29.23</ele>
        <time>2015-06-19T06:49:19Z</time>
      </trkpt>
      <trkpt lat="36.304657" lon="-6.148477">
        <ele>29.67</ele>
        <time>2015-06-19T06:49:20Z</time>
      </trkpt>
      <trkpt lat="36.304634" lon="-6.148436">
        <ele>29.61</ele>
        <time>2015-06-19T06:49:22Z</time>
      </trkpt>
      <trkpt lat="36.304623" lon="-6.148414">
        <ele>29.61</ele>
        <time>2015-06-19T06:49:23Z</time>
      </trkpt>
      <trkpt lat="36.304621" lon="-6.148385">
        <ele>29.66</ele>
        <time>2015-06-19T06:49:24Z</time>
      </trkpt>
      <trkpt lat="36.304623" lon="-6.148330">
        <ele>29.63</ele>
        <time>2015-06-19T06:49:26Z</time>
      </trkpt>
      <trkpt lat="36.304578" lon="-6.148238">
        <ele>29.67</ele>
        <time>2015-06-19T06:49:30Z</time>
      </trkpt>
      <trkpt lat="36.304550" lon="-6.148226">
        <ele>29.64</ele>
        <time>2015-06-19T06:49:31Z</time>
      </trkpt>
      <trkpt lat="36.304406" lon="-6.148184">
        <ele>29.63</ele>
        <time>2015-06-19T06:49:35Z</time>
      </trkpt>
      <trkpt lat="36.304251" lon="-6.148180">
        <ele>29.66</ele>
        <time>2015-06-19T06:49:38Z</time>
      </trkpt>
      <trkpt lat="36.304144" lon="-6.148170">
        <ele>29.66</ele>
        <time>2015-06-19T06:49:40Z</time>
      </trkpt>
      <trkpt lat="36.304047" lon="-6.148152">
        <ele>29.64</ele>
        <time>2015-06-19T06:49:42Z</time>
      </trkpt>
      <trkpt lat="36.303940" lon="-6.148090">
        <ele>29.67</ele>
        <time>2015-06-19T06:49:45Z</time>
      </trkpt>
      <trkpt lat="36.303773" lon="-6.147927">
        <ele>29.68</ele>
        <time>2015-06-19T06:49:50Z</time>
      </trkpt>
      <trkpt lat="36.303591" lon="-6.147704">
        <ele>29.62</ele>
        <time>2015-06-19T06:49:56Z</time>
      </trkpt>
      <trkpt lat="36.303452" lon="-6.147534">
        <ele>29.61</ele>
        <time>2015-06-19T06:50:00Z</time>
      </trkpt>
      <trkpt lat="36.303418" lon="-6.147492">
        <ele>29.69</ele>
        <time>2015-06-19T06:50:01Z</time>
      </trkpt>
      <trkpt lat="36.303262" lon="-6.147303">
        <ele>29.64</ele>
        <time>2015-06-19T06:50:06Z</time>
      </trkpt>
      <trkpt lat="36.303100" lon="-6.147101">
        <ele>29.68</ele>
        <time>2015-06-19T06:50:11Z</time>
      </trkpt>
      <trkpt lat="36.303022" lon="-6.147047">
        <ele>29.67</ele>
        <time>2015-06-19T06:50:13Z</time>
      </trkpt>
      <trkpt lat="36.302983" lon="-6.147021">
        <ele>29.64</ele>
        <time>2015-06-19T06:50:14Z</time>
      </trkpt>
      <trkpt lat="36.302814" lon="-6.146947">
        <ele>29.65</ele>
        <time>2015-06-19T06:50:18Z</time>
      </trkpt>
      <trkpt lat="36.302704" lon="-6.146875">
        <ele>29.62</ele>
        <time>2015-06-19T06:50:21Z</time>
      </trkpt>
      <trkpt lat="36.302671" lon="-6.146845">
        <ele>29.66</ele>
        <time>2015-06-19T06:50:22Z</time>
      </trkpt>
      <trkpt lat="36.302595" lon="-6.146782">
        <ele>29.63</ele>
        <time>2015-06-19T06:50:24Z</time>
      </trkpt>
      <trkpt lat="36.302523" lon="-6.146722">
        <ele>29.65</ele>
        <time>2015-06-19T06:50:26Z</time>
      </trkpt>
      <trkpt lat="36.302387" lon="-6.146574">
        <ele>29.61</ele>
        <time>2015-06-19T06:50:31Z</time>
      </trkpt>
      <trkpt lat="36.302332" lon="-6.146513">
        <ele>29.61</ele>
        <time>2015-06-19T06:50:33Z</time>
      </trkpt>
      <trkpt lat="36.302248" lon="-6.146466">
        <ele>29.69</ele>
        <time>2015-06-19T06:50:35Z</time>
      </trkpt>
      <trkpt lat="36.302202" lon="-6.146444">
        <ele>29.62</ele>
        <time>2015-06-19T06:50:36Z</time>
      </trkpt>
      <trkpt lat="36.302014" lon="-6.146384">
        <ele>29.69</ele>
        <time>2015-06-19T06:50:40Z</time>
      </trkpt>
      <trkpt lat="36.301929" lon="-6.146343">
        <ele>29.67</ele>
        <time>2015-06-19T06:50:42Z</time>
      </trkpt>
      <trkpt lat="36.301777" lon="-6.146242">
        <ele>29.62</ele>
        <time>2015-06-19T06:50:46Z</time>
      </trkpt>
      <trkpt lat="36.301595" lon="-6.146085">
        <ele>29.65</ele>
        <time>2015-06-19T06:50:52Z</time>
      </trkpt>
      <trkpt lat="36.301480" lon="-6.145927">
        <ele>29.65</ele>
        <time>2015-06-19T06:50:57Z</time>
      </trkpt>
      <trkpt lat="36.301447" lon="-6.145903">
        <ele>29.64</ele>
        <time>2015-06-19T06:50:58Z</time>
      </trkpt>
      <trkpt lat="36.301290" lon="-6.145744">
        <ele>29.64</ele>
        <time>2015-06-19T06:51:03Z</time>
      </trkpt>
      <trkpt lat="36.301168" lon="-6.145611">
        <ele>29.65</ele>
        <time>2015-06-19T06:51:07Z</time>
      </trkpt>
      <trkpt lat="36.301135" lon="-6.145577">
        <ele>29.61</ele>
        <time>2015-06-19T06:51:08Z</time>
      </trkpt>
      <trkpt lat="36.301031" lon="-6.145436">
        <ele>29.61</ele>
        <time>2015-06-19T06:51:12Z</time>
      </trkpt>
      <trkpt lat="36.301009" lon="-6.145394">
        <ele>29.62</ele>
        <time>2015-06-19T06:51:13Z</time>
      </trkpt>
      <trkpt lat="36.300892" lon="-6.145264">
        <ele>29.61</ele>
        <time>2015-06-19T06:51:17Z</time>
      </trkpt>
      <trkpt lat="36.300831" lon="-6.145204">
        <ele>29.66</ele>
        <time>2015-06-19T06:51:19Z</time>
      </trkpt>
      <trkpt lat="36.300725" lon="-6.145077">
        <ele>29.63</ele>
        <time>2015-06-19T06:51:23Z</time>
      </trkpt>
      <trkpt lat="36.300693" lon="-6.145045">
        <ele>29.63</ele>
        <time>2015-06-19T06:51:24Z</time>
      </trkpt>
      <trkpt lat="36.300580" lon="-6.144980">
        <ele>29.64</ele>
        <time>2015-06-19T06:51:27Z</time>
      </trkpt>
      <trkpt lat="36.300514" lon="-6.144922">
        <ele>29.61</ele>
        <time>2015-06-19T06:51:29Z</time>
      </trkpt>
      <trkpt lat="36.300419" lon="-6.144830">
        <ele>29.65</ele>
        <time>2015-06-19T06:51:32Z</time>
      </trkpt>
      <trkpt lat="36.300175" lon="-6.144627">
        <ele>29.61</ele>
        <time>2015-06-19T06:51:39Z</time>
      </trkpt>
      <trkpt lat="36.300139" lon="-6.144599">
        <ele>29.62</ele>
        <time>2015-06-19T06:51:40Z</time>
      </trkpt>
      <trkpt lat="36.300073" lon="-6.144540">
        <ele>30.20</ele>
        <time>2015-06-19T06:51:42Z</time>
      </trkpt>
      <trkpt lat="36.300045" lon="-6.144507">
        <ele>30.61</ele>
        <time>2015-06-19T06:51:43Z</time>
      </trkpt>
      <trkpt lat="36.300018" lon="-6.144477">
        <ele>31.03</ele>
        <time>2015-06-19T06:51:44Z</time>
      </trkpt>
      <trkpt lat="36.299990" lon="-6.144448">
        <ele>31.83</ele>
        <time>2015-06-19T06:51:45Z</time>
      </trkpt>
      <trkpt lat="36.299959" lon="-6.144417">
        <ele>31.88</ele>
        <time>2015-06-19T06:51:46Z</time>
      </trkpt>
      <trkpt lat="36.299923" lon="-6.144390">
        <ele>31.86</ele>
        <time>2015-06-19T06:51:47Z</time>
      </trkpt>
      <trkpt lat="36.299780" lon="-6.144306">
        <ele>31.86</ele>
        <time>2015-06-19T06:51:51Z</time>
      </trkpt>
      <trkpt lat="36.299586" lon="-6.144157">
        <ele>31.90</ele>
        <time>2015-06-19T06:51:57Z</time>
      </trkpt>
      <trkpt lat="36.299427" lon="-6.144016">
        <ele>31.88</ele>
        <time>2015-06-19T06:52:02Z</time>
      </trkpt>
      <trkpt lat="36.299390" lon="-6.143990">
        <ele>31.84</ele>
        <time>2015-06-19T06:52:03Z</time>
      </trkpt>
      <trkpt lat="36.299301" lon="-6.143909">
        <ele>31.82</ele>
        <time>2015-06-19T06:52:06Z</time>
      </trkpt>
      <trkpt lat="36.299267" lon="-6.143889">
        <ele>31.83</ele>
        <time>2015-06-19T06:52:07Z</time>
      </trkpt>
      <trkpt lat="36.299227" lon="-6.143875">
        <ele>31.81</ele>
        <time>2015-06-19T06:52:08Z</time>
      </trkpt>
      <trkpt lat="36.299057" lon="-6.143814">
        <ele>31.81</ele>
        <time>2015-06-19T06:52:12Z</time>
      </trkpt>
      <trkpt lat="36.299018" lon="-6.143798">
        <ele>31.87</ele>
        <time>2015-06-19T06:52:13Z</time>
      </trkpt>
      <trkpt lat="36.298901" lon="-6.143729">
        <ele>31.86</ele>
        <time>2015-06-19T06:52:16Z</time>
      </trkpt>
      <trkpt lat="36.298861" lon="-6.143702">
        <ele>31.82</ele>
        <time>2015-06-19T06:52:17Z</time>
      </trkpt>
      <trkpt lat="36.298623" lon="-6.143530">
        <ele>31.83</ele>
        <time>2015-06-19T06:52:23Z</time>
      </trkpt>
      <trkpt lat="36.298582" lon="-6.143498">
        <ele>31.82</ele>
        <time>2015-06-19T06:52:24Z</time>
      </trkpt>
      <trkpt lat="36.298428" lon="-6.143383">
        <ele>31.84</ele>
        <time>2015-06-19T06:52:28Z</time>
      </trkpt>
      <trkpt lat="36.298264" lon="-6.143384">
        <ele>31.86</ele>
        <time>2015-06-19T06:52:32Z</time>
      </trkpt>
      <trkpt lat="36.298180" lon="-6.143411">
        <ele>31.86</ele>
        <time>2015-06-19T06:52:34Z</time>
      </trkpt>
      <trkpt lat="36.298047" lon="-6.143476">
        <ele>31.81</ele>
        <time>2015-06-19T06:52:37Z</time>
      </trkpt>
      <trkpt lat="36.297999" lon="-6.143496">
        <ele>31.85</ele>
        <time>2015-06-19T06:52:38Z</time>
      </trkpt>
      <trkpt lat="36.297860" lon="-6.143529">
        <ele>31.81</ele>
        <time>2015-06-19T06:52:41Z</time>
      </trkpt>
      <trkpt lat="36.297746" lon="-6.143493">
        <ele>31.81</ele>
        <time>2015-06-19T06:52:44Z</time>
      </trkpt>
      <trkpt lat="36.297716" lon="-6.143475">
        <ele>31.89</ele>
        <time>2015-06-19T06:52:45Z</time>
      </trkpt>
      <trkpt lat="36.297631" lon="-6.143364">
        <ele>31.85</ele>
        <time>2015-06-19T06:52:49Z</time>
      </trkpt>
      <trkpt lat="36.297612" lon="-6.143330">
        <ele>31.82</ele>
        <time>2015-06-19T06:52:50Z</time>
      </trkpt>
      <trkpt lat="36.297509" lon="-6.143095">
        <ele>31.82</ele>
        <time>2015-06-19T06:52:56Z</time>
      </trkpt>
      <trkpt lat="36.297434" lon="-6.142994">
        <ele>31.82</ele>
        <time>2015-06-19T06:52:59Z</time>
      </trkpt>
      <trkpt lat="36.297385" lon="-6.142930">
        <ele>31.87</ele>
        <time>2015-06-19T06:53:01Z</time>
      </trkpt>
      <trkpt lat="36.297315" lon="-6.142830">
        <ele>31.89</ele>
        <time>2015-06-19T06:53:04Z</time>
      </trkpt>
      <trkpt lat="36.297157" lon="-6.142658">
        <ele>31.84</ele>
        <time>2015-06-19T06:53:10Z</time>
      </trkpt>
      <trkpt lat="36.297053" lon="-6.142582">
        <ele>31.84</ele>
        <time>2015-06-19T06:53:14Z</time>
      </trkpt>
      <trkpt lat="36.297026" lon="-6.142578">
        <ele>31.82</ele>
        <time>2015-06-19T06:53:15Z</time>
      </trkpt>
      <trkpt lat="36.296867" lon="-6.142586">
        <ele>31.81</ele>
        <time>2015-06-19T06:53:20Z</time>
      </trkpt>
      <trkpt lat="36.296799" lon="-6.142566">
        <ele>31.81</ele>
        <time>2015-06-19T06:53:22Z</time>
      </trkpt>
      <trkpt lat="36.296713" lon="-6.142494">
        <ele>31.82</ele>
        <time>2015-06-19T06:53:25Z</time>
      </trkpt>
      <trkpt lat="36.296636" lon="-6.142431">
        <ele>31.89</ele>
        <time>2015-06-19T06:53:28Z</time>
      </trkpt>
      <trkpt lat="36.296565" lon="-6.142371">
        <ele>31.84</ele>
        <time>2015-06-19T06:53:31Z</time>
      </trkpt>
      <trkpt lat="36.296491" lon="-6.142303">
        <ele>31.87</ele>
        <time>2015-06-19T06:53:34Z</time>
      </trkpt>
      <trkpt lat="36.296414" lon="-6.142243">
        <ele>31.85</ele>
        <time>2015-06-19T06:53:37Z</time>
      </trkpt>
      <trkpt lat="36.296329" lon="-6.142189">
        <ele>31.81</ele>
        <time>2015-06-19T06:53:41Z</time>
      </trkpt>
      <trkpt lat="36.296244" lon="-6.142148">
        <ele>31.83</ele>
        <time>2015-06-19T06:53:45Z</time>
      </trkpt>
      <trkpt lat="36.296231" lon="-6.142152">
        <ele>31.85</ele>
        <time>2015-06-19T06:53:46Z</time>
      </trkpt>
      <trkpt lat="36.296228" lon="-6.142167">
        <ele>31.86</ele>
        <time>2015-06-19T06:53:47Z</time>
      </trkpt>
      <trkpt lat="36.296225" lon="-6.142227">
        <ele>31.85</ele>
        <time>2015-06-19T06:53:53Z</time>
      </trkpt>
      <trkpt lat="36.296225" lon="-6.142227">
        <ele>31.82</ele>
        <time>2015-06-19T06:53:56Z</time>
      </trkpt>
      <trkpt lat="36.296225" lon="-6.142227">
        <ele>31.81</ele>
        <time>2015-06-19T06:53:59Z</time>
      </trkpt>
      <trkpt lat="36.296225" lon="-6.142227">
        <ele>31.86</ele>
        <time>2015-06-19T06:54:04Z</time>
      </trkpt>
      <trkpt lat="36.296225" lon="-6.142227">
        <ele>31.89</ele>
        <time>2015-06-19T06:54:10Z</time>
      </trkpt>
      <trkpt lat="36.296225" lon="-6.142227">
        <ele>31.88</ele>
        <time>2015-06-19T06:54:21Z</time>
      </trkpt>
      <trkpt lat="36.296225" lon="-6.142227">
        <ele>31.86</ele>
        <time>2015-06-19T06:54:25Z</time>
      </trkpt>
      <trkpt lat="36.296225" lon="-6.142227">
        <ele>31.85</ele>
        <time>2015-06-19T06:54:33Z</time>
      </trkpt>
      <trkpt lat="36.296225" lon="-6.142227">
        <ele>31.84</ele>
        <time>2015-06-19T06:54:41Z</time>
      </trkpt>
      <trkpt lat="36.296225" lon="-6.142227">
        <ele>31.88</ele>
        <time>2015-06-19T06:54:47Z</time>
      </trkpt>
      <trkpt lat="36.296225" lon="-6.142227">
        <ele>31.87</ele>
        <time>2015-06-19T06:54:49Z</time>
      </trkpt>
      <trkpt lat="36.296225" lon="-6.142227">
        <ele>31.87</ele>
        <time>2015-06-19T06:54:55Z</time>
      </trkpt>
      <trkpt lat="36.296225" lon="-6.142227">
        <ele>31.86</ele>
        <time>2015-06-19T06:54:57Z</time>
      </trkpt>
      <trkpt lat="36.296225" lon="-6.142227">
        <ele>31.82</ele>
        <time>2015-06-19T06:54:59Z</time>
      </trkpt>
      <trkpt lat="36.296226" lon="-6.142229">
        <ele>31.81</ele>
        <time>2015-06-19T06:55:15Z</time>
      </trkpt>
      <trkpt lat="36.296226" lon="-6.142229">
        <ele>31.84</ele>
        <time>2015-06-19T06:55:18Z</time>
      </trkpt>
      <trkpt lat="36.296226" lon="-6.142229">
        <ele>31.89</ele>
        <time>2015-06-19T06:55:21Z</time>
      </trkpt>
      <trkpt lat="36.296226" lon="-6.142229">
        <ele>31.86</ele>
        <time>2015-06-19T06:55:33Z</time>
      </trkpt>
      <trkpt lat="36.296226" lon="-6.142229">
        <ele>31.88</ele>
        <time>2015-06-19T06:55:37Z</time>
      </trkpt>
      <trkpt lat="36.296226" lon="-6.142229">
        <ele>31.81</ele>
        <time>2015-06-19T06:55:42Z</time>
      </trkpt>
      <trkpt lat="36.296226" lon="-6.142229">
        <ele>31.88</ele>
        <time>2015-06-19T06:55:48Z</time>
      </trkpt>
      <trkpt lat="36.296230" lon="-6.142229">
        <ele>31.86</ele>
        <time>2015-06-19T06:56:00Z</time>
      </trkpt>
      <trkpt lat="36.296230" lon="-6.142229">
        <ele>31.86</ele>
        <time>2015-06-19T06:56:03Z</time>
      </trkpt>
      <trkpt lat="36.296230" lon="-6.142229">
        <ele>31.88</ele>
        <time>2015-06-19T06:56:15Z</time>
      </trkpt>
      <trkpt lat="36.296230" lon="-6.142229">
        <ele>31.82</ele>
        <time>2015-06-19T06:56:19Z</time>
      </trkpt>
      <trkpt lat="36.296230" lon="-6.142229">
        <ele>31.82</ele>
        <time>2015-06-19T06:56:27Z</time>
      </trkpt>
      <trkpt lat="36.296230" lon="-6.142229">
        <ele>31.81</ele>
        <time>2015-06-19T06:56:30Z</time>
      </trkpt>
      <trkpt lat="36.296230" lon="-6.142229">
        <ele>31.87</ele>
        <time>2015-06-19T06:56:32Z</time>
      </trkpt>
      <trkpt lat="36.296230" lon="-6.142233">
        <ele>31.82</ele>
        <time>2015-06-19T06:56:36Z</time>
      </trkpt>
      <trkpt lat="36.296230" lon="-6.142233">
        <ele>31.90</ele>
        <time>2015-06-19T06:56:40Z</time>
      </trkpt>
      <trkpt lat="36.296230" lon="-6.142233">
        <ele>31.86</ele>
        <time>2015-06-19T06:56:48Z</time>
      </trkpt>
      <trkpt lat="36.296230" lon="-6.142233">
        <ele>31.83</ele>
        <time>2015-06-19T06:56:52Z</time>
      </trkpt>
      <trkpt lat="36.296230" lon="-6.142233">
        <ele>31.89</ele>
        <time>2015-06-19T06:57:00Z</time>
      </trkpt>
      <trkpt lat="36.296230" lon="-6.142233">
        <ele>31.87</ele>
        <time>2015-06-19T06:57:12Z</time>
      </trkpt>
      <trkpt lat="36.296234" lon="-6.142234">
        <ele>31.83</ele>
        <time>2015-06-19T06:57:17Z</time>
      </trkpt>
      <trkpt lat="36.296234" lon="-6.142234">
        <ele>31.90</ele>
        <time>2015-06-19T06:57:26Z</time>
      </trkpt>
      <trkpt lat="36.296234" lon="-6.142234">
        <ele>31.85</ele>
        <time>2015-06-19T06:57:29Z</time>
      </trkpt>
      <trkpt lat="36.296234" lon="-6.142234">
        <ele>31.82</ele>
        <time>2015-06-19T06:57:32Z</time>
      </trkpt>
      <trkpt lat="36.296234" lon="-6.142234">
        <ele>31.81</ele>
        <time>2015-06-19T06:57:34Z</time>
      </trkpt>
      <trkpt lat="36.296234" lon="-6.142234">
        <ele>31.89</ele>
        <time>2015-06-19T06:57:37Z</time>
      </trkpt>
      <trkpt lat="36.296234" lon="-6.142234">
        <ele>31.88</ele>
        <time>2015-06-19T06:57:47Z</time>
      </trkpt>
      <trkpt lat="36.296229" lon="-6.142237">
        <ele>31.84</ele>
        <time>2015-06-19T06:57:55Z</time>
      </trkpt>
      <trkpt lat="36.296229" lon="-6.142237">
        <ele>31.82</ele>
        <time>2015-06-19T06:57:58Z</time>
      </trkpt>
      <trkpt lat="36.296229" lon="-6.142237">
        <ele>31.87</ele>
        <time>2015-06-19T06:58:05Z</time>
      </trkpt>
      <trkpt lat="36.296229" lon="-6.142237">
        <ele>31.89</ele>
        <time>2015-06-19T06:58:09Z</time>
      </trkpt>
      <trkpt lat="36.296229" lon="-6.142237">
        <ele>31.85</ele>
        <time>2015-06-19T06:58:11Z</time>
      </trkpt>
      <trkpt lat="36.296229" lon="-6.142237">
        <ele>31.81</ele>
        <time>2015-06-19T06:58:19Z</time>
      </trkpt>
      <trkpt lat="36.296229" lon="-6.142237">
        <ele>31.84</ele>
        <time>2015-06-19T06:58:31Z</time>
      </trkpt>
      <trkpt lat="36.296231" lon="-6.142239">
        <ele>31.87</ele>
        <time>2015-06-19T06:58:34Z</time>
      </trkpt>
      <trkpt lat="36.296231" lon="-6.142239">
        <ele>31.82</ele>
        <time>2015-06-19T06:58:39Z</time>
      </trkpt>
      <trkpt lat="36.296231" lon="-6.142239">
        <ele>31.81</ele>
        <time>2015-06-19T06:58:48Z</time>
      </trkpt>
      <trkpt lat="36.296231" lon="-6.142239">
        <ele>31.83</ele>
        <time>2015-06-19T06:58:52Z</time>
      </trkpt>
      <trkpt lat="36.296231" lon="-6.142239">
        <ele>31.86</ele>
        <time>2015-06-19T06:59:00Z</time>
      </trkpt>
      <trkpt lat="36.296231" lon="-6.142239">
        <ele>31.87</ele>
        <time>2015-06-19T06:59:04Z</time>
      </trkpt>
      <trkpt lat="36.296231" lon="-6.142239">
        <ele>31.84</ele>
        <time>2015-06-19T06:59:11Z</time>
      </trkpt>
      <trkpt lat="36.296231" lon="-6.142237">
        <ele>31.88</ele>
        <time>2015-06-19T06:59:13Z</time>
      </trkpt>
      <trkpt lat="36.296245" lon="-6.142219">
        <ele>31.84</ele>
        <time>2015-06-19T06:59:16Z</time>
      </trkpt>
      <trkpt lat="36.296248" lon="-6.142206">
        <ele>31.84</ele>
        <time>2015-06-19T06:59:17Z</time>
      </trkpt>
      <trkpt lat="36.296248" lon="-6.142195">
        <ele>31.84</ele>
        <time>2015-06-19T06:59:18Z</time>
      </trkpt>
      <trkpt lat="36.296248" lon="-6.142194">
        <ele>31.81</ele>
        <time>2015-06-19T06:59:20Z</time>
      </trkpt>
      <trkpt lat="36.296243" lon="-6.142165">
        <ele>31.82</ele>
        <time>2015-06-19T06:59:23Z</time>
      </trkpt>
      <trkpt lat="36.296174" lon="-6.142049">
        <ele>31.80</ele>
        <time>2015-06-19T06:59:28Z</time>
      </trkpt>
      <trkpt lat="36.296117" lon="-6.141958">
        <ele>31.81</ele>
        <time>2015-06-19T06:59:32Z</time>
      </trkpt>
      <trkpt lat="36.296092" lon="-6.141940">
        <ele>31.86</ele>
        <time>2015-06-19T06:59:33Z</time>
      </trkpt>
      <trkpt lat="36.296026" lon="-6.141865">
        <ele>31.82</ele>
        <time>2015-06-19T06:59:36Z</time>
      </trkpt>
      <trkpt lat="36.295988" lon="-6.141824">
        <ele>31.84</ele>
        <time>2015-06-19T06:59:38Z</time>
      </trkpt>
      <trkpt lat="36.295919" lon="-6.141724">
        <ele>31.87</ele>
        <time>2015-06-19T06:59:43Z</time>
      </trkpt>
      <trkpt lat="36.295824" lon="-6.141596">
        <ele>31.86</ele>
        <time>2015-06-19T06:59:48Z</time>
      </trkpt>
      <trkpt lat="36.295730" lon="-6.141391">
        <ele>31.83</ele>
        <time>2015-06-19T06:59:54Z</time>
      </trkpt>
      <trkpt lat="36.295658" lon="-6.141181">
        <ele>31.87</ele>
        <time>2015-06-19T06:59:59Z</time>
      </trkpt>
      <trkpt lat="36.295584" lon="-6.140979">
        <ele>31.85</ele>
        <time>2015-06-19T07:00:05Z</time>
      </trkpt>
      <trkpt lat="36.295578" lon="-6.140771">
        <ele>31.83</ele>
        <time>2015-06-19T07:00:11Z</time>
      </trkpt>
      <trkpt lat="36.295577" lon="-6.140743">
        <ele>32.26</ele>
        <time>2015-06-19T07:00:12Z</time>
      </trkpt>
      <trkpt lat="36.295576" lon="-6.140713">
        <ele>32.81</ele>
        <time>2015-06-19T07:00:13Z</time>
      </trkpt>
      <trkpt lat="36.295573" lon="-6.140683">
        <ele>33.21</ele>
        <time>2015-06-19T07:00:14Z</time>
      </trkpt>
      <trkpt lat="36.295575" lon="-6.140658">
        <ele>33.66</ele>
        <time>2015-06-19T07:00:15Z</time>
      </trkpt>
      <trkpt lat="36.295572" lon="-6.140636">
        <ele>34.05</ele>
        <time>2015-06-19T07:00:16Z</time>
      </trkpt>
      <trkpt lat="36.295564" lon="-6.140606">
        <ele>34.06</ele>
        <time>2015-06-19T07:00:17Z</time>
      </trkpt>
      <trkpt lat="36.295532" lon="-6.140564">
        <ele>34.04</ele>
        <time>2015-06-19T07:00:19Z</time>
      </trkpt>
      <trkpt lat="36.295497" lon="-6.140516">
        <ele>34.05</ele>
        <time>2015-06-19T07:00:21Z</time>
      </trkpt>
      <trkpt lat="36.295399" lon="-6.140446">
        <ele>34.04</ele>
        <time>2015-06-19T07:00:25Z</time>
      </trkpt>
      <trkpt lat="36.295383" lon="-6.140422">
        <ele>34.05</ele>
        <time>2015-06-19T07:00:26Z</time>
      </trkpt>
      <trkpt lat="36.295389" lon="-6.140393">
        <ele>34.06</ele>
        <time>2015-06-19T07:00:28Z</time>
      </trkpt>
      <trkpt lat="36.295406" lon="-6.140384">
        <ele>34.04</ele>
        <time>2015-06-19T07:00:29Z</time>
      </trkpt>
      <trkpt lat="36.295456" lon="-6.140300">
        <ele>34.02</ele>
        <time>2015-06-19T07:00:34Z</time>
      </trkpt>
      <trkpt lat="36.295495" lon="-6.140315">
        <ele>34.01</ele>
        <time>2015-06-19T07:00:38Z</time>
      </trkpt>
      <trkpt lat="36.295539" lon="-6.140366">
        <ele>34.01</ele>
        <time>2015-06-19T07:00:43Z</time>
      </trkpt>
      <trkpt lat="36.295548" lon="-6.140372">
        <ele>34.02</ele>
        <time>2015-06-19T07:00:44Z</time>
      </trkpt>
      <trkpt lat="36.295576" lon="-6.140368">
        <ele>34.06</ele>
        <time>2015-06-19T07:00:47Z</time>
      </trkpt>
      <trkpt lat="36.295592" lon="-6.140279">
        <ele>34.05</ele>
        <time>2015-06-19T07:00:51Z</time>
      </trkpt>
      <trkpt lat="36.295614" lon="-6.140158">
        <ele>34.42</ele>
        <time>2015-06-19T07:00:55Z</time>
      </trkpt>
      <trkpt lat="36.295624" lon="-6.140127">
        <ele>35.10</ele>
        <time>2015-06-19T07:00:56Z</time>
      </trkpt>
      <trkpt lat="36.295632" lon="-6.140095">
        <ele>35.48</ele>
        <time>2015-06-19T07:00:57Z</time>
      </trkpt>
      <trkpt lat="36.295641" lon="-6.140062">
        <ele>35.81</ele>
        <time>2015-06-19T07:00:58Z</time>
      </trkpt>
      <trkpt lat="36.295649" lon="-6.140030">
        <ele>36.26</ele>
        <time>2015-06-19T07:00:59Z</time>
      </trkpt>
      <trkpt lat="36.295730" lon="-6.139815">
        <ele>36.25</ele>
        <time>2015-06-19T07:01:06Z</time>
      </trkpt>
      <trkpt lat="36.295846" lon="-6.139592">
        <ele>36.26</ele>
        <time>2015-06-19T07:01:13Z</time>
      </trkpt>
      <trkpt lat="36.296019" lon="-6.139435">
        <ele>36.22</ele>
        <time>2015-06-19T07:01:19Z</time>
      </trkpt>
      <trkpt lat="36.296064" lon="-6.139421">
        <ele>36.21</ele>
        <time>2015-06-19T07:01:20Z</time>
      </trkpt>
      <trkpt lat="36.296212" lon="-6.139433">
        <ele>36.24</ele>
        <time>2015-06-19T07:01:23Z</time>
      </trkpt>
      <trkpt lat="36.296265" lon="-6.139444">
        <ele>36.28</ele>
        <time>2015-06-19T07:01:24Z</time>
      </trkpt>
      <trkpt lat="36.296377" lon="-6.139469">
        <ele>35.84</ele>
        <time>2015-06-19T07:01:26Z</time>
      </trkpt>
      <trkpt lat="36.296437" lon="-6.139487">
        <ele>35.47</ele>
        <time>2015-06-19T07:01:27Z</time>
      </trkpt>
      <trkpt lat="36.296498" lon="-6.139508">
        <ele>34.82</ele>
        <time>2015-06-19T07:01:28Z</time>
      </trkpt>
      <trkpt lat="36.296557" lon="-6.139527">
        <ele>34.47</ele>
        <time>2015-06-19T07:01:29Z</time>
      </trkpt>
      <trkpt lat="36.296614" lon="-6.139550">
        <ele>33.86</ele>
        <time>2015-06-19T07:01:30Z</time>
      </trkpt>
      <trkpt lat="36.296935" lon="-6.139671">
        <ele>33.87</ele>
        <time>2015-06-19T07:01:36Z</time>
      </trkpt>
      <trkpt lat="36.297144" lon="-6.139733">
        <ele>33.86</ele>
        <time>2015-06-19T07:01:40Z</time>
      </trkpt>
      <trkpt lat="36.297244" lon="-6.139766">
        <ele>33.82</ele>
        <time>2015-06-19T07:01:42Z</time>
      </trkpt>
      <trkpt lat="36.297396" lon="-6.139803">
        <ele>33.81</ele>
        <time>2015-06-19T07:01:45Z</time>
      </trkpt>
      <trkpt lat="36.297452" lon="-6.139778">
        <ele>33.41</ele>
        <time>2015-06-19T07:01:46Z</time>
      </trkpt>
      <trkpt lat="36.297503" lon="-6.139728">
        <ele>33.08</ele>
        <time>2015-06-19T07:01:47Z</time>
      </trkpt>
      <trkpt lat="36.297544" lon="-6.139654">
        <ele>32.63</ele>
        <time>2015-06-19T07:01:48Z</time>
      </trkpt>
      <trkpt lat="36.297579" lon="-6.139555">
        <ele>32.28</ele>
        <time>2015-06-19T07:01:49Z</time>
      </trkpt>
      <trkpt lat="36.297602" lon="-6.139444">
        <ele>31.65</ele>
        <time>2015-06-19T07:01:50Z</time>
      </trkpt>
      <trkpt lat="36.297614" lon="-6.139325">
        <ele>31.64</ele>
        <time>2015-06-19T07:01:51Z</time>
      </trkpt>
      <trkpt lat="36.297616" lon="-6.139199">
        <ele>31.23</ele>
        <time>2015-06-19T07:01:52Z</time>
      </trkpt>
      <trkpt lat="36.297608" lon="-6.139070">
        <ele>30.65</ele>
        <time>2015-06-19T07:01:53Z</time>
      </trkpt>
      <trkpt lat="36.297592" lon="-6.138941">
        <ele>30.07</ele>
        <time>2015-06-19T07:01:54Z</time>
      </trkpt>
      <trkpt lat="36.297571" lon="-6.138808">
        <ele>29.29</ele>
        <time>2015-06-19T07:01:55Z</time>
      </trkpt>
      <trkpt lat="36.297545" lon="-6.138676">
        <ele>28.27</ele>
        <time>2015-06-19T07:01:56Z</time>
      </trkpt>
      <trkpt lat="36.297503" lon="-6.138542">
        <ele>27.42</ele>
        <time>2015-06-19T07:01:57Z</time>
      </trkpt>
      <trkpt lat="36.297451" lon="-6.138417">
        <ele>26.41</ele>
        <time>2015-06-19T07:01:58Z</time>
      </trkpt>
      <trkpt lat="36.297332" lon="-6.138300">
        <ele>25.66</ele>
        <time>2015-06-19T07:01:59Z</time>
      </trkpt>
      <trkpt lat="36.297249" lon="-6.138189">
        <ele>24.87</ele>
        <time>2015-06-19T07:02:00Z</time>
      </trkpt>
      <trkpt lat="36.297180" lon="-6.138091">
        <ele>24.08</ele>
        <time>2015-06-19T07:02:01Z</time>
      </trkpt>
      <trkpt lat="36.297113" lon="-6.138009">
        <ele>23.05</ele>
        <time>2015-06-19T07:02:02Z</time>
      </trkpt>
      <trkpt lat="36.297054" lon="-6.137934">
        <ele>22.25</ele>
        <time>2015-06-19T07:02:03Z</time>
      </trkpt>
      <trkpt lat="36.297007" lon="-6.137856">
        <ele>20.48</ele>
        <time>2015-06-19T07:02:04Z</time>
      </trkpt>
      <trkpt lat="36.296989" lon="-6.137776">
        <ele>19.47</ele>
        <time>2015-06-19T07:02:05Z</time>
      </trkpt>
      <trkpt lat="36.296999" lon="-6.137641">
        <ele>19.43</ele>
        <time>2015-06-19T07:02:07Z</time>
      </trkpt>
      <trkpt lat="36.297080" lon="-6.137503">
        <ele>19.46</ele>
        <time>2015-06-19T07:02:10Z</time>
      </trkpt>
      <trkpt lat="36.297105" lon="-6.137469">
        <ele>19.44</ele>
        <time>2015-06-19T07:02:11Z</time>
      </trkpt>
      <trkpt lat="36.297150" lon="-6.137425">
        <ele>19.42</ele>
        <time>2015-06-19T07:02:13Z</time>
      </trkpt>
      <trkpt lat="36.297183" lon="-6.137385">
        <ele>19.41</ele>
        <time>2015-06-19T07:02:15Z</time>
      </trkpt>
      <trkpt lat="36.297199" lon="-6.137368">
        <ele>19.45</ele>
        <time>2015-06-19T07:02:16Z</time>
      </trkpt>
      <trkpt lat="36.297237" lon="-6.137338">
        <ele>19.42</ele>
        <time>2015-06-19T07:02:18Z</time>
      </trkpt>
      <trkpt lat="36.297256" lon="-6.137326">
        <ele>19.43</ele>
        <time>2015-06-19T07:02:19Z</time>
      </trkpt>
      <trkpt lat="36.297294" lon="-6.137291">
        <ele>19.47</ele>
        <time>2015-06-19T07:02:21Z</time>
      </trkpt>
      <trkpt lat="36.297312" lon="-6.137273">
        <ele>20.08</ele>
        <time>2015-06-19T07:02:22Z</time>
      </trkpt>
      <trkpt lat="36.297330" lon="-6.137255">
        <ele>20.49</ele>
        <time>2015-06-19T07:02:23Z</time>
      </trkpt>
      <trkpt lat="36.297348" lon="-6.137240">
        <ele>20.82</ele>
        <time>2015-06-19T07:02:24Z</time>
      </trkpt>
      <trkpt lat="36.297369" lon="-6.137221">
        <ele>21.28</ele>
        <time>2015-06-19T07:02:25Z</time>
      </trkpt>
      <trkpt lat="36.297384" lon="-6.137200">
        <ele>21.69</ele>
        <time>2015-06-19T07:02:26Z</time>
      </trkpt>
      <trkpt lat="36.297432" lon="-6.137144">
        <ele>21.68</ele>
        <time>2015-06-19T07:02:29Z</time>
      </trkpt>
      <trkpt lat="36.297503" lon="-6.137080">
        <ele>22.02</ele>
        <time>2015-06-19T07:02:33Z</time>
      </trkpt>
      <trkpt lat="36.297523" lon="-6.137065">
        <ele>22.41</ele>
        <time>2015-06-19T07:02:34Z</time>
      </trkpt>
      <trkpt lat="36.297544" lon="-6.137053">
        <ele>22.88</ele>
        <time>2015-06-19T07:02:35Z</time>
      </trkpt>
      <trkpt lat="36.297565" lon="-6.137037">
        <ele>23.30</ele>
        <time>2015-06-19T07:02:36Z</time>
      </trkpt>
      <trkpt lat="36.297584" lon="-6.137024">
        <ele>23.85</ele>
        <time>2015-06-19T07:02:37Z</time>
      </trkpt>
      <trkpt lat="36.297623" lon="-6.137012">
        <ele>23.90</ele>
        <time>2015-06-19T07:02:39Z</time>
      </trkpt>
      <trkpt lat="36.297690" lon="-6.136986">
        <ele>23.84</ele>
        <time>2015-06-19T07:02:42Z</time>
      </trkpt>
      <trkpt lat="36.297786" lon="-6.136911">
        <ele>23.89</ele>
        <time>2015-06-19T07:02:47Z</time>
      </trkpt>
      <trkpt lat="36.297814" lon="-6.136868">
        <ele>23.86</ele>
        <time>2015-06-19T07:02:49Z</time>
      </trkpt>
      <trkpt lat="36.297825" lon="-6.136841">
        <ele>24.22</ele>
        <time>2015-06-19T07:02:50Z</time>
      </trkpt>
      <trkpt lat="36.297831" lon="-6.136816">
        <ele>24.67</ele>
        <time>2015-06-19T07:02:51Z</time>
      </trkpt>
      <trkpt lat="36.297829" lon="-6.136791">
        <ele>25.03</ele>
        <time>2015-06-19T07:02:52Z</time>
      </trkpt>
      <trkpt lat="36.297826" lon="-6.136762">
        <ele>25.82</ele>
        <time>2015-06-19T07:02:53Z</time>
      </trkpt>
      <trkpt lat="36.297813" lon="-6.136710">
        <ele>25.81</ele>
        <time>2015-06-19T07:02:55Z</time>
      </trkpt>
      <trkpt lat="36.297788" lon="-6.136617">
        <ele>25.88</ele>
        <time>2015-06-19T07:02:59Z</time>
      </trkpt>
      <trkpt lat="36.297781" lon="-6.136594">
        <ele>26.29</ele>
        <time>2015-06-19T07:03:00Z</time>
      </trkpt>
      <trkpt lat="36.297773" lon="-6.136570">
        <ele>26.65</ele>
        <time>2015-06-19T07:03:01Z</time>
      </trkpt>
      <trkpt lat="36.297766" lon="-6.136545">
        <ele>27.09</ele>
        <time>2015-06-19T07:03:02Z</time>
      </trkpt>
      <trkpt lat="36.297762" lon="-6.136522">
        <ele>27.44</ele>
        <time>2015-06-19T07:03:03Z</time>
      </trkpt>
      <trkpt lat="36.297751" lon="-6.136504">
        <ele>27.86</ele>
        <time>2015-06-19T07:03:04Z</time>
      </trkpt>
      <trkpt lat="36.297733" lon="-6.136471">
        <ele>27.88</ele>
        <time>2015-06-19T07:03:06Z</time>
      </trkpt>
      <trkpt lat="36.297695" lon="-6.136329">
        <ele>27.83</ele>
        <time>2015-06-19T07:03:12Z</time>
      </trkpt>
      <trkpt lat="36.297678" lon="-6.136255">
        <ele>28.25</ele>
        <time>2015-06-19T07:03:15Z</time>
      </trkpt>
      <trkpt lat="36.297676" lon="-6.136226">
        <ele>28.60</ele>
        <time>2015-06-19T07:03:16Z</time>
      </trkpt>
      <trkpt lat="36.297674" lon="-6.136198">
        <ele>29.02</ele>
        <time>2015-06-19T07:03:17Z</time>
      </trkpt>
      <trkpt lat="36.297672" lon="-6.136169">
        <ele>29.81</ele>
        <time>2015-06-19T07:03:18Z</time>
      </trkpt>
      <trkpt lat="36.297674" lon="-6.136029">
        <ele>29.82</ele>
        <time>2015-06-19T07:03:23Z</time>
      </trkpt>
      <trkpt lat="36.297675" lon="-6.135903">
        <ele>30.21</ele>
        <time>2015-06-19T07:03:27Z</time>
      </trkpt>
      <trkpt lat="36.297674" lon="-6.135868">
        <ele>30.63</ele>
        <time>2015-06-19T07:03:28Z</time>
      </trkpt>
      <trkpt lat="36.297671" lon="-6.135831">
        <ele>31.04</ele>
        <time>2015-06-19T07:03:29Z</time>
      </trkpt>
      <trkpt lat="36.297670" lon="-6.135792">
        <ele>31.47</ele>
        <time>2015-06-19T07:03:30Z</time>
      </trkpt>
      <trkpt lat="36.297669" lon="-6.135752">
        <ele>31.86</ele>
        <time>2015-06-19T07:03:31Z</time>
      </trkpt>
      <trkpt lat="36.297671" lon="-6.135541">
        <ele>31.86</ele>
        <time>2015-06-19T07:03:36Z</time>
      </trkpt>
      <trkpt lat="36.297672" lon="-6.135304">
        <ele>31.85</ele>
        <time>2015-06-19T07:03:42Z</time>
      </trkpt>
      <trkpt lat="36.297660" lon="-6.135258">
        <ele>31.83</ele>
        <time>2015-06-19T07:03:43Z</time>
      </trkpt>
      <trkpt lat="36.297646" lon="-6.135123">
        <ele>31.86</ele>
        <time>2015-06-19T07:03:46Z</time>
      </trkpt>
      <trkpt lat="36.297642" lon="-6.134994">
        <ele>31.81</ele>
        <time>2015-06-19T07:03:49Z</time>
      </trkpt>
      <trkpt lat="36.297602" lon="-6.134720">
        <ele>31.81</ele>
        <time>2015-06-19T07:03:55Z</time>
      </trkpt>
      <trkpt lat="36.297623" lon="-6.134522">
        <ele>31.88</ele>
        <time>2015-06-19T07:03:59Z</time>
      </trkpt>
      <trkpt lat="36.297636" lon="-6.134472">
        <ele>31.81</ele>
        <time>2015-06-19T07:04:00Z</time>
      </trkpt>
      <trkpt lat="36.297667" lon="-6.134311">
        <ele>31.81</ele>
        <time>2015-06-19T07:04:03Z</time>
      </trkpt>
      <trkpt lat="36.297670" lon="-6.134209">
        <ele>31.85</ele>
        <time>2015-06-19T07:04:05Z</time>
      </trkpt>
      <trkpt lat="36.297668" lon="-6.134158">
        <ele>31.86</ele>
        <time>2015-06-19T07:04:06Z</time>
      </trkpt>
      <trkpt lat="36.297662" lon="-6.133934">
        <ele>31.83</ele>
        <time>2015-06-19T07:04:10Z</time>
      </trkpt>
      <trkpt lat="36.297645" lon="-6.133826">
        <ele>31.85</ele>
        <time>2015-06-19T07:04:12Z</time>
      </trkpt>
      <trkpt lat="36.297608" lon="-6.133617">
        <ele>31.82</ele>
        <time>2015-06-19T07:04:16Z</time>
      </trkpt>
      <trkpt lat="36.297607" lon="-6.133563">
        <ele>31.82</ele>
        <time>2015-06-19T07:04:17Z</time>
      </trkpt>
      <trkpt lat="36.297618" lon="-6.133454">
        <ele>31.44</ele>
        <time>2015-06-19T07:04:19Z</time>
      </trkpt>
      <trkpt lat="36.297632" lon="-6.133399">
        <ele>31.00</ele>
        <time>2015-06-19T07:04:20Z</time>
      </trkpt>
      <trkpt lat="36.297659" lon="-6.133349">
        <ele>30.61</ele>
        <time>2015-06-19T07:04:21Z</time>
      </trkpt>
      <trkpt lat="36.297686" lon="-6.133306">
        <ele>30.23</ele>
        <time>2015-06-19T07:04:22Z</time>
      </trkpt>
      <trkpt lat="36.297717" lon="-6.133270">
        <ele>29.86</ele>
        <time>2015-06-19T07:04:23Z</time>
      </trkpt>
      <trkpt lat="36.297771" lon="-6.133189">
        <ele>29.87</ele>
        <time>2015-06-19T07:04:25Z</time>
      </trkpt>
      <trkpt lat="36.297835" lon="-6.133140">
        <ele>29.85</ele>
        <time>2015-06-19T07:04:27Z</time>
      </trkpt>
      <trkpt lat="36.297908" lon="-6.133099">
        <ele>29.48</ele>
        <time>2015-06-19T07:04:29Z</time>
      </trkpt>
      <trkpt lat="36.297945" lon="-6.133076">
        <ele>29.07</ele>
        <time>2015-06-19T07:04:30Z</time>
      </trkpt>
      <trkpt lat="36.297982" lon="-6.133046">
        <ele>28.63</ele>
        <time>2015-06-19T07:04:31Z</time>
      </trkpt>
      <trkpt lat="36.298017" lon="-6.133019">
        <ele>28.27</ele>
        <time>2015-06-19T07:04:32Z</time>
      </trkpt>
      <trkpt lat="36.298050" lon="-6.132993">
        <ele>27.87</ele>
        <time>2015-06-19T07:04:33Z</time>
      </trkpt>
      <trkpt lat="36.298082" lon="-6.132966">
        <ele>27.80</ele>
        <time>2015-06-19T07:04:34Z</time>
      </trkpt>
      <trkpt lat="36.298161" lon="-6.132877">
        <ele>27.82</ele>
        <time>2015-06-19T07:04:37Z</time>
      </trkpt>
      <trkpt lat="36.298216" lon="-6.132796">
        <ele>27.81</ele>
        <time>2015-06-19T07:04:39Z</time>
      </trkpt>
      <trkpt lat="36.298372" lon="-6.132556">
        <ele>27.82</ele>
        <time>2015-06-19T07:04:45Z</time>
      </trkpt>
      <trkpt lat="36.298526" lon="-6.132395">
        <ele>27.89</ele>
        <time>2015-06-19T07:04:50Z</time>
      </trkpt>
      <trkpt lat="36.298737" lon="-6.132268">
        <ele>27.90</ele>
        <time>2015-06-19T07:04:55Z</time>
      </trkpt>
      <trkpt lat="36.298783" lon="-6.132243">
        <ele>27.83</ele>
        <time>2015-06-19T07:04:56Z</time>
      </trkpt>
      <trkpt lat="36.298941" lon="-6.132137">
        <ele>27.85</ele>
        <time>2015-06-19T07:05:00Z</time>
      </trkpt>
      <trkpt lat="36.299058" lon="-6.132057">
        <ele>27.89</ele>
        <time>2015-06-19T07:05:03Z</time>
      </trkpt>
      <trkpt lat="36.299125" lon="-6.132014">
        <ele>27.90</ele>
        <time>2015-06-19T07:05:05Z</time>
      </trkpt>
      <trkpt lat="36.299299" lon="-6.131835">
        <ele>28.30</ele>
        <time>2015-06-19T07:05:11Z</time>
      </trkpt>
      <trkpt lat="36.299328" lon="-6.131801">
        <ele>28.64</ele>
        <time>2015-06-19T07:05:12Z</time>
      </trkpt>
      <trkpt lat="36.299358" lon="-6.131762">
        <ele>29.02</ele>
        <time>2015-06-19T07:05:13Z</time>
      </trkpt>
      <trkpt lat="36.299386" lon="-6.131721">
        <ele>29.41</ele>
        <time>2015-06-19T07:05:14Z</time>
      </trkpt>
      <trkpt lat="36.299415" lon="-6.131677">
        <ele>29.81</ele>
        <time>2015-06-19T07:05:15Z</time>
      </trkpt>
      <trkpt lat="36.299446" lon="-6.131641">
        <ele>29.86</ele>
        <time>2015-06-19T07:05:16Z</time>
      </trkpt>
      <trkpt lat="36.299472" lon="-6.131598">
        <ele>29.84</ele>
        <time>2015-06-19T07:05:17Z</time>
      </trkpt>
      <trkpt lat="36.299537" lon="-6.131429">
        <ele>29.82</ele>
        <time>2015-06-19T07:05:21Z</time>
      </trkpt>
      <trkpt lat="36.299574" lon="-6.131235">
        <ele>29.87</ele>
        <time>2015-06-19T07:05:25Z</time>
      </trkpt>
      <trkpt lat="36.299606" lon="-6.131141">
        <ele>29.88</ele>
        <time>2015-06-19T07:05:27Z</time>
      </trkpt>
      <trkpt lat="36.299624" lon="-6.131095">
        <ele>29.82</ele>
        <time>2015-06-19T07:05:28Z</time>
      </trkpt>
      <trkpt lat="36.299652" lon="-6.130875">
        <ele>29.84</ele>
        <time>2015-06-19T07:05:33Z</time>
      </trkpt>
      <trkpt lat="36.299629" lon="-6.130599">
        <ele>29.87</ele>
        <time>2015-06-19T07:05:39Z</time>
      </trkpt>
      <trkpt lat="36.299640" lon="-6.130558">
        <ele>29.89</ele>
        <time>2015-06-19T07:05:40Z</time>
      </trkpt>
      <trkpt lat="36.299655" lon="-6.130423">
        <ele>29.84</ele>
        <time>2015-06-19T07:05:43Z</time>
      </trkpt>
      <trkpt lat="36.299631" lon="-6.130159">
        <ele>29.83</ele>
        <time>2015-06-19T07:05:49Z</time>
      </trkpt>
      <trkpt lat="36.299589" lon="-6.130093">
        <ele>29.81</ele>
        <time>2015-06-19T07:05:51Z</time>
      </trkpt>
      <trkpt lat="36.299520" lon="-6.130033">
        <ele>29.88</ele>
        <time>2015-06-19T07:05:53Z</time>
      </trkpt>
      <trkpt lat="36.299370" lon="-6.129840">
        <ele>29.86</ele>
        <time>2015-06-19T07:05:57Z</time>
      </trkpt>
      <trkpt lat="36.299255" lon="-6.129683">
        <ele>29.84</ele>
        <time>2015-06-19T07:06:00Z</time>
      </trkpt>
      <trkpt lat="36.299174" lon="-6.129616">
        <ele>29.90</ele>
        <time>2015-06-19T07:06:02Z</time>
      </trkpt>
      <trkpt lat="36.299052" lon="-6.129617">
        <ele>29.85</ele>
        <time>2015-06-19T07:06:05Z</time>
      </trkpt>
      <trkpt lat="36.298944" lon="-6.129753">
        <ele>29.88</ele>
        <time>2015-06-19T07:06:09Z</time>
      </trkpt>
      <trkpt lat="36.298916" lon="-6.129786">
        <ele>29.46</ele>
        <time>2015-06-19T07:06:10Z</time>
      </trkpt>
      <trkpt lat="36.298887" lon="-6.129815">
        <ele>29.08</ele>
        <time>2015-06-19T07:06:11Z</time>
      </trkpt>
      <trkpt lat="36.298860" lon="-6.129836">
        <ele>28.24</ele>
        <time>2015-06-19T07:06:12Z</time>
      </trkpt>
      <trkpt lat="36.298824" lon="-6.129861">
        <ele>27.88</ele>
        <time>2015-06-19T07:06:13Z</time>
      </trkpt>
      <trkpt lat="36.298786" lon="-6.129891">
        <ele>27.81</ele>
        <time>2015-06-19T07:06:14Z</time>
      </trkpt>
      <trkpt lat="36.298662" lon="-6.130022">
        <ele>27.81</ele>
        <time>2015-06-19T07:06:17Z</time>
      </trkpt>
      <trkpt lat="36.298643" lon="-6.130086">
        <ele>27.84</ele>
        <time>2015-06-19T07:06:18Z</time>
      </trkpt>
      <trkpt lat="36.298580" lon="-6.130288">
        <ele>27.82</ele>
        <time>2015-06-19T07:06:21Z</time>
      </trkpt>
      <trkpt lat="36.298550" lon="-6.130346">
        <ele>27.86</ele>
        <time>2015-06-19T07:06:22Z</time>
      </trkpt>
      <trkpt lat="36.298489" lon="-6.130464">
        <ele>27.82</ele>
        <time>2015-06-19T07:06:24Z</time>
      </trkpt>
      <trkpt lat="36.298377" lon="-6.130656">
        <ele>27.87</ele>
        <time>2015-06-19T07:06:28Z</time>
      </trkpt>
      <trkpt lat="36.298348" lon="-6.130698">
        <ele>27.88</ele>
        <time>2015-06-19T07:06:29Z</time>
      </trkpt>
      <trkpt lat="36.298281" lon="-6.130764">
        <ele>27.86</ele>
        <time>2015-06-19T07:06:31Z</time>
      </trkpt>
      <trkpt lat="36.298221" lon="-6.130831">
        <ele>27.82</ele>
        <time>2015-06-19T07:06:33Z</time>
      </trkpt>
      <trkpt lat="36.298107" lon="-6.130911">
        <ele>27.89</ele>
        <time>2015-06-19T07:06:36Z</time>
      </trkpt>
      <trkpt lat="36.298078" lon="-6.130952">
        <ele>27.86</ele>
        <time>2015-06-19T07:06:37Z</time>
      </trkpt>
      <trkpt lat="36.298009" lon="-6.131109">
        <ele>27.82</ele>
        <time>2015-06-19T07:06:40Z</time>
      </trkpt>
      <trkpt lat="36.297977" lon="-6.131162">
        <ele>27.81</ele>
        <time>2015-06-19T07:06:41Z</time>
      </trkpt>
      <trkpt lat="36.297813" lon="-6.131353">
        <ele>27.86</ele>
        <time>2015-06-19T07:06:45Z</time>
      </trkpt>
      <trkpt lat="36.297762" lon="-6.131390">
        <ele>27.85</ele>
        <time>2015-06-19T07:06:46Z</time>
      </trkpt>
      <trkpt lat="36.297653" lon="-6.131433">
        <ele>27.87</ele>
        <time>2015-06-19T07:06:48Z</time>
      </trkpt>
      <trkpt lat="36.297550" lon="-6.131432">
        <ele>27.88</ele>
        <time>2015-06-19T07:06:50Z</time>
      </trkpt>
      <trkpt lat="36.297467" lon="-6.131381">
        <ele>27.86</ele>
        <time>2015-06-19T07:06:52Z</time>
      </trkpt>
      <trkpt lat="36.297431" lon="-6.131368">
        <ele>27.86</ele>
        <time>2015-06-19T07:06:53Z</time>
      </trkpt>
      <trkpt lat="36.297267" lon="-6.131387">
        <ele>27.86</ele>
        <time>2015-06-19T07:06:58Z</time>
      </trkpt>
      <trkpt lat="36.297138" lon="-6.131342">
        <ele>27.83</ele>
        <time>2015-06-19T07:07:03Z</time>
      </trkpt>
      <trkpt lat="36.297078" lon="-6.131224">
        <ele>27.88</ele>
        <time>2015-06-19T07:07:07Z</time>
      </trkpt>
      <trkpt lat="36.297064" lon="-6.131190">
        <ele>27.84</ele>
        <time>2015-06-19T07:07:08Z</time>
      </trkpt>
      <trkpt lat="36.296974" lon="-6.131047">
        <ele>27.82</ele>
        <time>2015-06-19T07:07:13Z</time>
      </trkpt>
      <trkpt lat="36.296961" lon="-6.130945">
        <ele>27.81</ele>
        <time>2015-06-19T07:07:16Z</time>
      </trkpt>
      <trkpt lat="36.296962" lon="-6.130905">
        <ele>27.83</ele>
        <time>2015-06-19T07:07:17Z</time>
      </trkpt>
      <trkpt lat="36.296939" lon="-6.130771">
        <ele>27.84</ele>
        <time>2015-06-19T07:07:21Z</time>
      </trkpt>
      <trkpt lat="36.296925" lon="-6.130740">
        <ele>27.86</ele>
        <time>2015-06-19T07:07:22Z</time>
      </trkpt>
      <trkpt lat="36.296879" lon="-6.130598">
        <ele>28.82</ele>
        <time>2015-06-19T07:07:26Z</time>
      </trkpt>
      <trkpt lat="36.296869" lon="-6.130562">
        <ele>29.24</ele>
        <time>2015-06-19T07:07:27Z</time>
      </trkpt>
      <trkpt lat="36.296859" lon="-6.130527">
        <ele>29.64</ele>
        <time>2015-06-19T07:07:28Z</time>
      </trkpt>
      <trkpt lat="36.296842" lon="-6.130500">
        <ele>30.02</ele>
        <time>2015-06-19T07:07:29Z</time>
      </trkpt>
      <trkpt lat="36.296788" lon="-6.130338">
        <ele>30.01</ele>
        <time>2015-06-19T07:07:34Z</time>
      </trkpt>
      <trkpt lat="36.296733" lon="-6.130164">
        <ele>30.06</ele>
        <time>2015-06-19T07:07:39Z</time>
      </trkpt>
      <trkpt lat="36.296643" lon="-6.130013">
        <ele>30.04</ele>
        <time>2015-06-19T07:07:44Z</time>
      </trkpt>
      <trkpt lat="36.296613" lon="-6.129859">
        <ele>30.42</ele>
        <time>2015-06-19T07:07:48Z</time>
      </trkpt>
      <trkpt lat="36.296613" lon="-6.129818">
        <ele>30.81</ele>
        <time>2015-06-19T07:07:49Z</time>
      </trkpt>
      <trkpt lat="36.296613" lon="-6.129781">
        <ele>31.87</ele>
        <time>2015-06-19T07:07:50Z</time>
      </trkpt>
      <trkpt lat="36.296608" lon="-6.129742">
        <ele>32.26</ele>
        <time>2015-06-19T07:07:51Z</time>
      </trkpt>
      <trkpt lat="36.296592" lon="-6.129583">
        <ele>32.30</ele>
        <time>2015-06-19T07:07:55Z</time>
      </trkpt>
      <trkpt lat="36.296555" lon="-6.129340">
        <ele>32.24</ele>
        <time>2015-06-19T07:08:02Z</time>
      </trkpt>
      <trkpt lat="36.296543" lon="-6.129282">
        <ele>32.26</ele>
        <time>2015-06-19T07:08:05Z</time>
      </trkpt>
      <trkpt lat="36.296537" lon="-6.129252">
        <ele>32.21</ele>
        <time>2015-06-19T07:08:07Z</time>
      </trkpt>
      <trkpt lat="36.296537" lon="-6.129226">
        <ele>32.27</ele>
        <time>2015-06-19T07:08:10Z</time>
      </trkpt>
      <trkpt lat="36.296537" lon="-6.129226">
        <ele>32.26</ele>
        <time>2015-06-19T07:08:12Z</time>
      </trkpt>
      <trkpt lat="36.296537" lon="-6.129226">
        <ele>32.22</ele>
        <time>2015-06-19T07:08:19Z</time>
      </trkpt>
      <trkpt lat="36.296537" lon="-6.129226">
        <ele>32.24</ele>
        <time>2015-06-19T07:08:23Z</time>
      </trkpt>
      <trkpt lat="36.296537" lon="-6.129226">
        <ele>32.20</ele>
        <time>2015-06-19T07:08:29Z</time>
      </trkpt>
      <trkpt lat="36.296537" lon="-6.129226">
        <ele>32.21</ele>
        <time>2015-06-19T07:08:33Z</time>
      </trkpt>
      <trkpt lat="36.296537" lon="-6.129226">
        <ele>32.24</ele>
        <time>2015-06-19T07:08:40Z</time>
      </trkpt>
      <trkpt lat="36.296539" lon="-6.129218">
        <ele>32.26</ele>
        <time>2015-06-19T07:08:42Z</time>
      </trkpt>
      <trkpt lat="36.296546" lon="-6.129175">
        <ele>32.27</ele>
        <time>2015-06-19T07:08:44Z</time>
      </trkpt>
      <trkpt lat="36.296540" lon="-6.129122">
        <ele>32.28</ele>
        <time>2015-06-19T07:08:46Z</time>
      </trkpt>
      <trkpt lat="36.296509" lon="-6.129018">
        <ele>32.24</ele>
        <time>2015-06-19T07:08:49Z</time>
      </trkpt>
      <trkpt lat="36.296464" lon="-6.128789">
        <ele>32.30</ele>
        <time>2015-06-19T07:08:55Z</time>
      </trkpt>
      <trkpt lat="36.296428" lon="-6.128671">
        <ele>32.26</ele>
        <time>2015-06-19T07:08:58Z</time>
      </trkpt>
      <trkpt lat="36.296403" lon="-6.128536">
        <ele>32.30</ele>
        <time>2015-06-19T07:09:01Z</time>
      </trkpt>
      <trkpt lat="36.296397" lon="-6.128321">
        <ele>32.24</ele>
        <time>2015-06-19T07:09:06Z</time>
      </trkpt>
      <trkpt lat="36.296382" lon="-6.128078">
        <ele>32.28</ele>
        <time>2015-06-19T07:09:12Z</time>
      </trkpt>
      <trkpt lat="36.296457" lon="-6.127849">
        <ele>32.21</ele>
        <time>2015-06-19T07:09:18Z</time>
      </trkpt>
      <trkpt lat="36.296463" lon="-6.127590">
        <ele>32.21</ele>
        <time>2015-06-19T07:09:24Z</time>
      </trkpt>
      <trkpt lat="36.296463" lon="-6.127538">
        <ele>32.27</ele>
        <time>2015-06-19T07:09:25Z</time>
      </trkpt>
      <trkpt lat="36.296471" lon="-6.127462">
        <ele>32.24</ele>
        <time>2015-06-19T07:09:28Z</time>
      </trkpt>
      <trkpt lat="36.296470" lon="-6.127462">
        <ele>32.24</ele>
        <time>2015-06-19T07:09:33Z</time>
      </trkpt>
      <trkpt lat="36.296470" lon="-6.127462">
        <ele>32.21</ele>
        <time>2015-06-19T07:09:41Z</time>
      </trkpt>
      <trkpt lat="36.296470" lon="-6.127462">
        <ele>32.26</ele>
        <time>2015-06-19T07:09:45Z</time>
      </trkpt>
      <trkpt lat="36.296470" lon="-6.127462">
        <ele>32.25</ele>
        <time>2015-06-19T07:09:59Z</time>
      </trkpt>
      <trkpt lat="36.296476" lon="-6.127435">
        <ele>32.24</ele>
        <time>2015-06-19T07:10:02Z</time>
      </trkpt>
      <trkpt lat="36.296486" lon="-6.127403">
        <ele>32.24</ele>
        <time>2015-06-19T07:10:04Z</time>
      </trkpt>
      <trkpt lat="36.296502" lon="-6.127336">
        <ele>32.26</ele>
        <time>2015-06-19T07:10:07Z</time>
      </trkpt>
      <trkpt lat="36.296521" lon="-6.127276">
        <ele>32.28</ele>
        <time>2015-06-19T07:10:09Z</time>
      </trkpt>
      <trkpt lat="36.296551" lon="-6.127165">
        <ele>32.21</ele>
        <time>2015-06-19T07:10:12Z</time>
      </trkpt>
      <trkpt lat="36.296601" lon="-6.127058">
        <ele>32.21</ele>
        <time>2015-06-19T07:10:15Z</time>
      </trkpt>
      <trkpt lat="36.296697" lon="-6.126850">
        <ele>32.28</ele>
        <time>2015-06-19T07:10:21Z</time>
      </trkpt>
      <trkpt lat="36.296729" lon="-6.126704">
        <ele>32.24</ele>
        <time>2015-06-19T07:10:25Z</time>
      </trkpt>
      <trkpt lat="36.296738" lon="-6.126668">
        <ele>32.29</ele>
        <time>2015-06-19T07:10:26Z</time>
      </trkpt>
      <trkpt lat="36.296732" lon="-6.126626">
        <ele>32.24</ele>
        <time>2015-06-19T07:10:27Z</time>
      </trkpt>
      <trkpt lat="36.296706" lon="-6.126546">
        <ele>32.24</ele>
        <time>2015-06-19T07:10:29Z</time>
      </trkpt>
      <trkpt lat="36.296603" lon="-6.126425">
        <ele>32.21</ele>
        <time>2015-06-19T07:10:33Z</time>
      </trkpt>
      <trkpt lat="36.296565" lon="-6.126408">
        <ele>32.24</ele>
        <time>2015-06-19T07:10:34Z</time>
      </trkpt>
      <trkpt lat="36.296528" lon="-6.126388">
        <ele>32.24</ele>
        <time>2015-06-19T07:10:35Z</time>
      </trkpt>
      <trkpt lat="36.296450" lon="-6.126413">
        <ele>32.27</ele>
        <time>2015-06-19T07:10:37Z</time>
      </trkpt>
      <trkpt lat="36.296411" lon="-6.126429">
        <ele>32.26</ele>
        <time>2015-06-19T07:10:38Z</time>
      </trkpt>
      <trkpt lat="36.296251" lon="-6.126433">
        <ele>32.22</ele>
        <time>2015-06-19T07:10:42Z</time>
      </trkpt>
      <trkpt lat="36.296141" lon="-6.126342">
        <ele>32.21</ele>
        <time>2015-06-19T07:10:46Z</time>
      </trkpt>
      <trkpt lat="36.296099" lon="-6.126195">
        <ele>32.30</ele>
        <time>2015-06-19T07:10:50Z</time>
      </trkpt>
      <trkpt lat="36.296101" lon="-6.126160">
        <ele>32.21</ele>
        <time>2015-06-19T07:10:51Z</time>
      </trkpt>
      <trkpt lat="36.296058" lon="-6.126083">
        <ele>32.67</ele>
        <time>2015-06-19T07:10:54Z</time>
      </trkpt>
      <trkpt lat="36.296037" lon="-6.126059">
        <ele>33.04</ele>
        <time>2015-06-19T07:10:55Z</time>
      </trkpt>
      <trkpt lat="36.296018" lon="-6.126032">
        <ele>33.43</ele>
        <time>2015-06-19T07:10:56Z</time>
      </trkpt>
      <trkpt lat="36.295996" lon="-6.126008">
        <ele>34.07</ele>
        <time>2015-06-19T07:10:57Z</time>
      </trkpt>
      <trkpt lat="36.295975" lon="-6.125987">
        <ele>34.46</ele>
        <time>2015-06-19T07:10:58Z</time>
      </trkpt>
      <trkpt lat="36.295925" lon="-6.125929">
        <ele>34.47</ele>
        <time>2015-06-19T07:11:01Z</time>
      </trkpt>
      <trkpt lat="36.295897" lon="-6.125890">
        <ele>34.44</ele>
        <time>2015-06-19T07:11:04Z</time>
      </trkpt>
      <trkpt lat="36.295877" lon="-6.125827">
        <ele>34.48</ele>
        <time>2015-06-19T07:11:07Z</time>
      </trkpt>
      <trkpt lat="36.295861" lon="-6.125792">
        <ele>34.41</ele>
        <time>2015-06-19T07:11:12Z</time>
      </trkpt>
      <trkpt lat="36.295860" lon="-6.125772">
        <ele>34.41</ele>
        <time>2015-06-19T07:11:24Z</time>
      </trkpt>
      <trkpt lat="36.295825" lon="-6.125699">
        <ele>34.42</ele>
        <time>2015-06-19T07:11:28Z</time>
      </trkpt>
      <trkpt lat="36.295814" lon="-6.125679">
        <ele>34.42</ele>
        <time>2015-06-19T07:11:29Z</time>
      </trkpt>
      <trkpt lat="36.295810" lon="-6.125657">
        <ele>34.44</ele>
        <time>2015-06-19T07:11:30Z</time>
      </trkpt>
      <trkpt lat="36.295796" lon="-6.125611">
        <ele>34.42</ele>
        <time>2015-06-19T07:11:32Z</time>
      </trkpt>
      <trkpt lat="36.295783" lon="-6.125563">
        <ele>34.43</ele>
        <time>2015-06-19T07:11:34Z</time>
      </trkpt>
      <trkpt lat="36.295775" lon="-6.125520">
        <ele>34.41</ele>
        <time>2015-06-19T07:11:36Z</time>
      </trkpt>
      <trkpt lat="36.295754" lon="-6.125417">
        <ele>34.44</ele>
        <time>2015-06-19T07:11:41Z</time>
      </trkpt>
      <trkpt lat="36.295728" lon="-6.125210">
        <ele>34.48</ele>
        <time>2015-06-19T07:11:47Z</time>
      </trkpt>
      <trkpt lat="36.295681" lon="-6.125090">
        <ele>34.41</ele>
        <time>2015-06-19T07:11:50Z</time>
      </trkpt>
      <trkpt lat="36.295636" lon="-6.124963">
        <ele>34.42</ele>
        <time>2015-06-19T07:11:53Z</time>
      </trkpt>
      <trkpt lat="36.295614" lon="-6.124893">
        <ele>34.40</ele>
        <time>2015-06-19T07:12:38Z</time>
      </trkpt>
      <trkpt lat="36.295658" lon="-6.124867">
        <ele>34.41</ele>
        <time>2015-06-19T07:12:41Z</time>
      </trkpt>
      <trkpt lat="36.295666" lon="-6.124822">
        <ele>34.47</ele>
        <time>2015-06-19T07:12:43Z</time>
      </trkpt>
      <trkpt lat="36.295669" lon="-6.124796">
        <ele>34.42</ele>
        <time>2015-06-19T07:12:44Z</time>
      </trkpt>
      <trkpt lat="36.295664" lon="-6.124626">
        <ele>34.48</ele>
        <time>2015-06-19T07:12:49Z</time>
      </trkpt>
      <trkpt lat="36.295643" lon="-6.124467">
        <ele>34.47</ele>
        <time>2015-06-19T07:12:54Z</time>
      </trkpt>
      <trkpt lat="36.295659" lon="-6.124435">
        <ele>34.47</ele>
        <time>2015-06-19T07:12:55Z</time>
      </trkpt>
      <trkpt lat="36.295682" lon="-6.124306">
        <ele>34.45</ele>
        <time>2015-06-19T07:12:58Z</time>
      </trkpt>
      <trkpt lat="36.295654" lon="-6.124132">
        <ele>34.46</ele>
        <time>2015-06-19T07:13:02Z</time>
      </trkpt>
      <trkpt lat="36.295647" lon="-6.124089">
        <ele>34.42</ele>
        <time>2015-06-19T07:13:03Z</time>
      </trkpt>
      <trkpt lat="36.295620" lon="-6.123958">
        <ele>34.42</ele>
        <time>2015-06-19T07:13:06Z</time>
      </trkpt>
      <trkpt lat="36.295599" lon="-6.123871">
        <ele>34.48</ele>
        <time>2015-06-19T07:13:08Z</time>
      </trkpt>
      <trkpt lat="36.295593" lon="-6.123699">
        <ele>34.41</ele>
        <time>2015-06-19T07:13:12Z</time>
      </trkpt>
      <trkpt lat="36.295606" lon="-6.123661">
        <ele>34.41</ele>
        <time>2015-06-19T07:13:13Z</time>
      </trkpt>
      <trkpt lat="36.295634" lon="-6.123412">
        <ele>34.41</ele>
        <time>2015-06-19T07:13:19Z</time>
      </trkpt>
      <trkpt lat="36.295603" lon="-6.123198">
        <ele>34.50</ele>
        <time>2015-06-19T07:13:24Z</time>
      </trkpt>
      <trkpt lat="36.295583" lon="-6.123155">
        <ele>34.43</ele>
        <time>2015-06-19T07:13:25Z</time>
      </trkpt>
      <trkpt lat="36.295522" lon="-6.122932">
        <ele>34.46</ele>
        <time>2015-06-19T07:13:30Z</time>
      </trkpt>
      <trkpt lat="36.295498" lon="-6.122794">
        <ele>34.81</ele>
        <time>2015-06-19T07:13:33Z</time>
      </trkpt>
      <trkpt lat="36.295480" lon="-6.122757">
        <ele>35.29</ele>
        <time>2015-06-19T07:13:34Z</time>
      </trkpt>
      <trkpt lat="36.295457" lon="-6.122722">
        <ele>35.63</ele>
        <time>2015-06-19T07:13:35Z</time>
      </trkpt>
      <trkpt lat="36.295441" lon="-6.122685">
        <ele>36.05</ele>
        <time>2015-06-19T07:13:36Z</time>
      </trkpt>
      <trkpt lat="36.295425" lon="-6.122647">
        <ele>36.45</ele>
        <time>2015-06-19T07:13:37Z</time>
      </trkpt>
      <trkpt lat="36.295319" lon="-6.122349">
        <ele>36.40</ele>
        <time>2015-06-19T07:13:45Z</time>
      </trkpt>
      <trkpt lat="36.295251" lon="-6.122051">
        <ele>36.42</ele>
        <time>2015-06-19T07:13:53Z</time>
      </trkpt>
      <trkpt lat="36.295261" lon="-6.121779">
        <ele>36.41</ele>
        <time>2015-06-19T07:14:00Z</time>
      </trkpt>
      <trkpt lat="36.295277" lon="-6.121666">
        <ele>36.84</ele>
        <time>2015-06-19T07:14:03Z</time>
      </trkpt>
      <trkpt lat="36.295283" lon="-6.121628">
        <ele>37.28</ele>
        <time>2015-06-19T07:14:04Z</time>
      </trkpt>
      <trkpt lat="36.295284" lon="-6.121591">
        <ele>37.66</ele>
        <time>2015-06-19T07:14:05Z</time>
      </trkpt>
      <trkpt lat="36.295284" lon="-6.121552">
        <ele>38.06</ele>
        <time>2015-06-19T07:14:06Z</time>
      </trkpt>
      <trkpt lat="36.295279" lon="-6.121514">
        <ele>38.50</ele>
        <time>2015-06-19T07:14:07Z</time>
      </trkpt>
      <trkpt lat="36.295281" lon="-6.121319">
        <ele>38.48</ele>
        <time>2015-06-19T07:14:12Z</time>
      </trkpt>
      <trkpt lat="36.295255" lon="-6.121007">
        <ele>38.49</ele>
        <time>2015-06-19T07:14:20Z</time>
      </trkpt>
      <trkpt lat="36.295235" lon="-6.120694">
        <ele>38.46</ele>
        <time>2015-06-19T07:14:27Z</time>
      </trkpt>
      <trkpt lat="36.295230" lon="-6.120649">
        <ele>38.47</ele>
        <time>2015-06-19T07:14:28Z</time>
      </trkpt>
      <trkpt lat="36.295162" lon="-6.120399">
        <ele>38.48</ele>
        <time>2015-06-19T07:14:34Z</time>
      </trkpt>
      <trkpt lat="36.295031" lon="-6.120110">
        <ele>38.41</ele>
        <time>2015-06-19T07:14:41Z</time>
      </trkpt>
      <trkpt lat="36.294967" lon="-6.119835">
        <ele>38.41</ele>
        <time>2015-06-19T07:14:47Z</time>
      </trkpt>
      <trkpt lat="36.294894" lon="-6.119665">
        <ele>38.50</ele>
        <time>2015-06-19T07:14:51Z</time>
      </trkpt>
      <trkpt lat="36.294825" lon="-6.119436">
        <ele>38.44</ele>
        <time>2015-06-19T07:14:56Z</time>
      </trkpt>
      <trkpt lat="36.294667" lon="-6.119104">
        <ele>38.50</ele>
        <time>2015-06-19T07:15:04Z</time>
      </trkpt>
      <trkpt lat="36.294638" lon="-6.118951">
        <ele>38.47</ele>
        <time>2015-06-19T07:15:07Z</time>
      </trkpt>
      <trkpt lat="36.294614" lon="-6.118902">
        <ele>38.49</ele>
        <time>2015-06-19T07:15:08Z</time>
      </trkpt>
      <trkpt lat="36.294586" lon="-6.118745">
        <ele>38.44</ele>
        <time>2015-06-19T07:15:11Z</time>
      </trkpt>
      <trkpt lat="36.294550" lon="-6.118641">
        <ele>38.45</ele>
        <time>2015-06-19T07:15:13Z</time>
      </trkpt>
      <trkpt lat="36.294535" lon="-6.118534">
        <ele>38.44</ele>
        <time>2015-06-19T07:15:15Z</time>
      </trkpt>
      <trkpt lat="36.294520" lon="-6.118361">
        <ele>38.46</ele>
        <time>2015-06-19T07:15:18Z</time>
      </trkpt>
      <trkpt lat="36.294488" lon="-6.118266">
        <ele>38.40</ele>
        <time>2015-06-19T07:15:20Z</time>
      </trkpt>
      <trkpt lat="36.294476" lon="-6.118087">
        <ele>38.42</ele>
        <time>2015-06-19T07:15:24Z</time>
      </trkpt>
      <trkpt lat="36.294514" lon="-6.117893">
        <ele>38.41</ele>
        <time>2015-06-19T07:15:29Z</time>
      </trkpt>
      <trkpt lat="36.294502" lon="-6.117725">
        <ele>38.49</ele>
        <time>2015-06-19T07:15:33Z</time>
      </trkpt>
      <trkpt lat="36.294509" lon="-6.117584">
        <ele>38.49</ele>
        <time>2015-06-19T07:15:36Z</time>
      </trkpt>
      <trkpt lat="36.294509" lon="-6.117491">
        <ele>38.44</ele>
        <time>2015-06-19T07:15:38Z</time>
      </trkpt>
      <trkpt lat="36.294513" lon="-6.117227">
        <ele>38.47</ele>
        <time>2015-06-19T07:15:44Z</time>
      </trkpt>
      <trkpt lat="36.294569" lon="-6.117028">
        <ele>38.49</ele>
        <time>2015-06-19T07:15:49Z</time>
      </trkpt>
      <trkpt lat="36.294603" lon="-6.116901">
        <ele>38.47</ele>
        <time>2015-06-19T07:15:53Z</time>
      </trkpt>
      <trkpt lat="36.294632" lon="-6.116849">
        <ele>38.49</ele>
        <time>2015-06-19T07:15:55Z</time>
      </trkpt>
      <trkpt lat="36.294690" lon="-6.116797">
        <ele>38.49</ele>
        <time>2015-06-19T07:15:57Z</time>
      </trkpt>
      <trkpt lat="36.294789" lon="-6.116725">
        <ele>38.50</ele>
        <time>2015-06-19T07:16:01Z</time>
      </trkpt>
      <trkpt lat="36.294892" lon="-6.116744">
        <ele>38.41</ele>
        <time>2015-06-19T07:16:04Z</time>
      </trkpt>
      <trkpt lat="36.294922" lon="-6.116745">
        <ele>38.43</ele>
        <time>2015-06-19T07:16:05Z</time>
      </trkpt>
      <trkpt lat="36.294953" lon="-6.116747">
        <ele>38.41</ele>
        <time>2015-06-19T07:16:06Z</time>
      </trkpt>
      <trkpt lat="36.295080" lon="-6.116664">
        <ele>38.42</ele>
        <time>2015-06-19T07:16:10Z</time>
      </trkpt>
      <trkpt lat="36.295271" lon="-6.116491">
        <ele>38.44</ele>
        <time>2015-06-19T07:16:16Z</time>
      </trkpt>
      <trkpt lat="36.295300" lon="-6.116411">
        <ele>38.48</ele>
        <time>2015-06-19T07:16:18Z</time>
      </trkpt>
      <trkpt lat="36.295288" lon="-6.116365">
        <ele>38.43</ele>
        <time>2015-06-19T07:16:19Z</time>
      </trkpt>
      <trkpt lat="36.295230" lon="-6.116324">
        <ele>38.49</ele>
        <time>2015-06-19T07:16:21Z</time>
      </trkpt>
      <trkpt lat="36.295198" lon="-6.116312">
        <ele>38.48</ele>
        <time>2015-06-19T07:16:22Z</time>
      </trkpt>
      <trkpt lat="36.295154" lon="-6.116200">
        <ele>38.46</ele>
        <time>2015-06-19T07:16:26Z</time>
      </trkpt>
      <trkpt lat="36.295209" lon="-6.116099">
        <ele>37.49</ele>
        <time>2015-06-19T07:16:30Z</time>
      </trkpt>
      <trkpt lat="36.295207" lon="-6.116058">
        <ele>37.01</ele>
        <time>2015-06-19T07:16:31Z</time>
      </trkpt>
      <trkpt lat="36.295209" lon="-6.116022">
        <ele>36.63</ele>
        <time>2015-06-19T07:16:32Z</time>
      </trkpt>
      <trkpt lat="36.295205" lon="-6.115982">
        <ele>36.20</ele>
        <time>2015-06-19T07:16:33Z</time>
      </trkpt>
      <trkpt lat="36.295194" lon="-6.115953">
        <ele>36.21</ele>
        <time>2015-06-19T07:16:34Z</time>
      </trkpt>
      <trkpt lat="36.295185" lon="-6.115926">
        <ele>36.26</ele>
        <time>2015-06-19T07:16:35Z</time>
      </trkpt>
      <trkpt lat="36.295184" lon="-6.115892">
        <ele>35.68</ele>
        <time>2015-06-19T07:16:36Z</time>
      </trkpt>
      <trkpt lat="36.295187" lon="-6.115861">
        <ele>35.21</ele>
        <time>2015-06-19T07:16:37Z</time>
      </trkpt>
      <trkpt lat="36.295196" lon="-6.115847">
        <ele>34.62</ele>
        <time>2015-06-19T07:16:38Z</time>
      </trkpt>
      <trkpt lat="36.295200" lon="-6.115832">
        <ele>34.27</ele>
        <time>2015-06-19T07:16:39Z</time>
      </trkpt>
      <trkpt lat="36.295196" lon="-6.115813">
        <ele>33.83</ele>
        <time>2015-06-19T07:16:40Z</time>
      </trkpt>
      <trkpt lat="36.295184" lon="-6.115710">
        <ele>33.49</ele>
        <time>2015-06-19T07:16:43Z</time>
      </trkpt>
      <trkpt lat="36.295185" lon="-6.115676">
        <ele>33.05</ele>
        <time>2015-06-19T07:16:44Z</time>
      </trkpt>
      <trkpt lat="36.295183" lon="-6.115649">
        <ele>32.43</ele>
        <time>2015-06-19T07:16:45Z</time>
      </trkpt>
      <trkpt lat="36.295170" lon="-6.115618">
        <ele>32.06</ele>
        <time>2015-06-19T07:16:46Z</time>
      </trkpt>
      <trkpt lat="36.295169" lon="-6.115569">
        <ele>31.61</ele>
        <time>2015-06-19T07:16:47Z</time>
      </trkpt>
      <trkpt lat="36.295160" lon="-6.115408">
        <ele>31.61</ele>
        <time>2015-06-19T07:16:50Z</time>
      </trkpt>
      <trkpt lat="36.295150" lon="-6.115302">
        <ele>31.65</ele>
        <time>2015-06-19T07:16:52Z</time>
      </trkpt>
      <trkpt lat="36.295139" lon="-6.115207">
        <ele>31.22</ele>
        <time>2015-06-19T07:16:54Z</time>
      </trkpt>
      <trkpt lat="36.295128" lon="-6.115143">
        <ele>30.47</ele>
        <time>2015-06-19T07:16:55Z</time>
      </trkpt>
      <trkpt lat="36.295121" lon="-6.115079">
        <ele>30.05</ele>
        <time>2015-06-19T07:16:56Z</time>
      </trkpt>
      <trkpt lat="36.295103" lon="-6.115019">
        <ele>29.62</ele>
        <time>2015-06-19T07:16:57Z</time>
      </trkpt>
      <trkpt lat="36.295076" lon="-6.114821">
        <ele>29.09</ele>
        <time>2015-06-19T07:17:00Z</time>
      </trkpt>
      <trkpt lat="36.295067" lon="-6.114743">
        <ele>28.63</ele>
        <time>2015-06-19T07:17:01Z</time>
      </trkpt>
      <trkpt lat="36.295051" lon="-6.114653">
        <ele>28.27</ele>
        <time>2015-06-19T07:17:02Z</time>
      </trkpt>
      <trkpt lat="36.295034" lon="-6.114564">
        <ele>27.90</ele>
        <time>2015-06-19T07:17:03Z</time>
      </trkpt>
      <trkpt lat="36.295028" lon="-6.114474">
        <ele>27.43</ele>
        <time>2015-06-19T07:17:04Z</time>
      </trkpt>
      <trkpt lat="36.295019" lon="-6.114394">
        <ele>27.42</ele>
        <time>2015-06-19T07:17:05Z</time>
      </trkpt>
      <trkpt lat="36.295017" lon="-6.114275">
        <ele>26.81</ele>
        <time>2015-06-19T07:17:07Z</time>
      </trkpt>
      <trkpt lat="36.295047" lon="-6.114228">
        <ele>26.45</ele>
        <time>2015-06-19T07:17:08Z</time>
      </trkpt>
      <trkpt lat="36.295078" lon="-6.114180">
        <ele>26.09</ele>
        <time>2015-06-19T07:17:09Z</time>
      </trkpt>
      <trkpt lat="36.295104" lon="-6.114126">
        <ele>25.48</ele>
        <time>2015-06-19T07:17:10Z</time>
      </trkpt>
      <trkpt lat="36.295130" lon="-6.114086">
        <ele>25.08</ele>
        <time>2015-06-19T07:17:11Z</time>
      </trkpt>
      <trkpt lat="36.295148" lon="-6.114047">
        <ele>24.45</ele>
        <time>2015-06-19T07:17:12Z</time>
      </trkpt>
      <trkpt lat="36.295156" lon="-6.114011">
        <ele>23.88</ele>
        <time>2015-06-19T07:17:13Z</time>
      </trkpt>
      <trkpt lat="36.295156" lon="-6.113981">
        <ele>23.42</ele>
        <time>2015-06-19T07:17:14Z</time>
      </trkpt>
      <trkpt lat="36.295155" lon="-6.113951">
        <ele>22.81</ele>
        <time>2015-06-19T07:17:15Z</time>
      </trkpt>
      <trkpt lat="36.295151" lon="-6.113922">
        <ele>22.85</ele>
        <time>2015-06-19T07:17:16Z</time>
      </trkpt>
      <trkpt lat="36.295145" lon="-6.113881">
        <ele>22.85</ele>
        <time>2015-06-19T07:17:17Z</time>
      </trkpt>
      <trkpt lat="36.295163" lon="-6.113757">
        <ele>22.81</ele>
        <time>2015-06-19T07:17:20Z</time>
      </trkpt>
      <trkpt lat="36.295232" lon="-6.113614">
        <ele>22.81</ele>
        <time>2015-06-19T07:17:25Z</time>
      </trkpt>
      <trkpt lat="36.295315" lon="-6.113552">
        <ele>22.87</ele>
        <time>2015-06-19T07:17:29Z</time>
      </trkpt>
      <trkpt lat="36.295337" lon="-6.113546">
        <ele>22.84</ele>
        <time>2015-06-19T07:17:30Z</time>
      </trkpt>
      <trkpt lat="36.295443" lon="-6.113500">
        <ele>22.87</ele>
        <time>2015-06-19T07:17:34Z</time>
      </trkpt>
      <trkpt lat="36.295502" lon="-6.113482">
        <ele>22.89</ele>
        <time>2015-06-19T07:17:36Z</time>
      </trkpt>
      <trkpt lat="36.295617" lon="-6.113481">
        <ele>22.84</ele>
        <time>2015-06-19T07:17:41Z</time>
      </trkpt>
      <trkpt lat="36.295665" lon="-6.113492">
        <ele>22.82</ele>
        <time>2015-06-19T07:17:45Z</time>
      </trkpt>
      <trkpt lat="36.295702" lon="-6.113501">
        <ele>22.90</ele>
        <time>2015-06-19T07:17:47Z</time>
      </trkpt>
      <trkpt lat="36.295724" lon="-6.113499">
        <ele>23.28</ele>
        <time>2015-06-19T07:17:48Z</time>
      </trkpt>
      <trkpt lat="36.295750" lon="-6.113508">
        <ele>23.62</ele>
        <time>2015-06-19T07:17:49Z</time>
      </trkpt>
      <trkpt lat="36.295778" lon="-6.113508">
        <ele>24.04</ele>
        <time>2015-06-19T07:17:50Z</time>
      </trkpt>
      <trkpt lat="36.295806" lon="-6.113507">
        <ele>24.41</ele>
        <time>2015-06-19T07:17:51Z</time>
      </trkpt>
      <trkpt lat="36.295833" lon="-6.113509">
        <ele>25.01</ele>
        <time>2015-06-19T07:17:52Z</time>
      </trkpt>
      <trkpt lat="36.295877" lon="-6.113498">
        <ele>25.08</ele>
        <time>2015-06-19T07:17:54Z</time>
      </trkpt>
      <trkpt lat="36.295924" lon="-6.113436">
        <ele>25.04</ele>
        <time>2015-06-19T07:17:57Z</time>
      </trkpt>
      <trkpt lat="36.295902" lon="-6.113330">
        <ele>25.04</ele>
        <time>2015-06-19T07:18:00Z</time>
      </trkpt>
      <trkpt lat="36.295862" lon="-6.113127">
        <ele>25.07</ele>
        <time>2015-06-19T07:18:06Z</time>
      </trkpt>
      <trkpt lat="36.295831" lon="-6.112983">
        <ele>25.03</ele>
        <time>2015-06-19T07:18:10Z</time>
      </trkpt>
      <trkpt lat="36.295825" lon="-6.112913">
        <ele>25.09</ele>
        <time>2015-06-19T07:18:12Z</time>
      </trkpt>
      <trkpt lat="36.295839" lon="-6.112772">
        <ele>25.09</ele>
        <time>2015-06-19T07:18:16Z</time>
      </trkpt>
      <trkpt lat="36.295848" lon="-6.112684">
        <ele>25.06</ele>
        <time>2015-06-19T07:18:19Z</time>
      </trkpt>
      <trkpt lat="36.295888" lon="-6.112482">
        <ele>25.08</ele>
        <time>2015-06-19T07:18:26Z</time>
      </trkpt>
      <trkpt lat="36.295907" lon="-6.112386">
        <ele>25.46</ele>
        <time>2015-06-19T07:18:29Z</time>
      </trkpt>
      <trkpt lat="36.295913" lon="-6.112357">
        <ele>25.83</ele>
        <time>2015-06-19T07:18:30Z</time>
      </trkpt>
      <trkpt lat="36.295914" lon="-6.112319">
        <ele>26.21</ele>
        <time>2015-06-19T07:18:31Z</time>
      </trkpt>
      <trkpt lat="36.295918" lon="-6.112285">
        <ele>27.04</ele>
        <time>2015-06-19T07:18:32Z</time>
      </trkpt>
      <trkpt lat="36.295947" lon="-6.112067">
        <ele>27.07</ele>
        <time>2015-06-19T07:18:38Z</time>
      </trkpt>
      <trkpt lat="36.295967" lon="-6.111915">
        <ele>27.06</ele>
        <time>2015-06-19T07:18:42Z</time>
      </trkpt>
      <trkpt lat="36.295934" lon="-6.111765">
        <ele>27.09</ele>
        <time>2015-06-19T07:18:46Z</time>
      </trkpt>
      <trkpt lat="36.295871" lon="-6.111600">
        <ele>27.47</ele>
        <time>2015-06-19T07:18:51Z</time>
      </trkpt>
      <trkpt lat="36.295852" lon="-6.111572">
        <ele>27.89</ele>
        <time>2015-06-19T07:18:52Z</time>
      </trkpt>
      <trkpt lat="36.295841" lon="-6.111540">
        <ele>28.23</ele>
        <time>2015-06-19T07:18:53Z</time>
      </trkpt>
      <trkpt lat="36.295827" lon="-6.111510">
        <ele>28.69</ele>
        <time>2015-06-19T07:18:54Z</time>
      </trkpt>
      <trkpt lat="36.295817" lon="-6.111475">
        <ele>29.09</ele>
        <time>2015-06-19T07:18:55Z</time>
      </trkpt>
      <trkpt lat="36.295749" lon="-6.111323">
        <ele>29.49</ele>
        <time>2015-06-19T07:19:00Z</time>
      </trkpt>
      <trkpt lat="36.295737" lon="-6.111292">
        <ele>29.82</ele>
        <time>2015-06-19T07:19:01Z</time>
      </trkpt>
      <trkpt lat="36.295728" lon="-6.111261">
        <ele>30.21</ele>
        <time>2015-06-19T07:19:02Z</time>
      </trkpt>
      <trkpt lat="36.295712" lon="-6.111228">
        <ele>30.65</ele>
        <time>2015-06-19T07:19:03Z</time>
      </trkpt>
      <trkpt lat="36.295695" lon="-6.111195">
        <ele>31.06</ele>
        <time>2015-06-19T07:19:04Z</time>
      </trkpt>
      <trkpt lat="36.295652" lon="-6.111090">
        <ele>31.07</ele>
        <time>2015-06-19T07:19:07Z</time>
      </trkpt>
      <trkpt lat="36.295538" lon="-6.110855">
        <ele>31.06</ele>
        <time>2015-06-19T07:19:14Z</time>
      </trkpt>
      <trkpt lat="36.295501" lon="-6.110762">
        <ele>31.03</ele>
        <time>2015-06-19T07:19:16Z</time>
      </trkpt>
      <trkpt lat="36.295455" lon="-6.110630">
        <ele>31.08</ele>
        <time>2015-06-19T07:19:19Z</time>
      </trkpt>
      <trkpt lat="36.295345" lon="-6.110361">
        <ele>31.09</ele>
        <time>2015-06-19T07:19:25Z</time>
      </trkpt>
      <trkpt lat="36.295305" lon="-6.110259">
        <ele>31.09</ele>
        <time>2015-06-19T07:19:27Z</time>
      </trkpt>
      <trkpt lat="36.295253" lon="-6.110143">
        <ele>31.05</ele>
        <time>2015-06-19T07:19:29Z</time>
      </trkpt>
      <trkpt lat="36.295179" lon="-6.110024">
        <ele>31.00</ele>
        <time>2015-06-19T07:19:31Z</time>
      </trkpt>
      <trkpt lat="36.295047" lon="-6.109984">
        <ele>31.02</ele>
        <time>2015-06-19T07:19:33Z</time>
      </trkpt>
      <trkpt lat="36.294898" lon="-6.110064">
        <ele>31.01</ele>
        <time>2015-06-19T07:19:35Z</time>
      </trkpt>
      <trkpt lat="36.294811" lon="-6.110093">
        <ele>30.43</ele>
        <time>2015-06-19T07:19:36Z</time>
      </trkpt>
      <trkpt lat="36.294721" lon="-6.110097">
        <ele>30.06</ele>
        <time>2015-06-19T07:19:37Z</time>
      </trkpt>
      <trkpt lat="36.294648" lon="-6.110073">
        <ele>29.47</ele>
        <time>2015-06-19T07:19:38Z</time>
      </trkpt>
      <trkpt lat="36.294594" lon="-6.110022">
        <ele>29.02</ele>
        <time>2015-06-19T07:19:39Z</time>
      </trkpt>
      <trkpt lat="36.294556" lon="-6.109945">
        <ele>28.44</ele>
        <time>2015-06-19T07:19:40Z</time>
      </trkpt>
      <trkpt lat="36.294515" lon="-6.109866">
        <ele>27.89</ele>
        <time>2015-06-19T07:19:41Z</time>
      </trkpt>
      <trkpt lat="36.294484" lon="-6.109784">
        <ele>27.25</ele>
        <time>2015-06-19T07:19:42Z</time>
      </trkpt>
      <trkpt lat="36.294452" lon="-6.109709">
        <ele>26.85</ele>
        <time>2015-06-19T07:19:43Z</time>
      </trkpt>
      <trkpt lat="36.294423" lon="-6.109635">
        <ele>26.25</ele>
        <time>2015-06-19T07:19:44Z</time>
      </trkpt>
      <trkpt lat="36.294407" lon="-6.109564">
        <ele>26.21</ele>
        <time>2015-06-19T07:19:45Z</time>
      </trkpt>
      <trkpt lat="36.294384" lon="-6.109427">
        <ele>26.22</ele>
        <time>2015-06-19T07:19:47Z</time>
      </trkpt>
      <trkpt lat="36.294368" lon="-6.109378">
        <ele>26.21</ele>
        <time>2015-06-19T07:19:48Z</time>
      </trkpt>
      <trkpt lat="36.294282" lon="-6.109221">
        <ele>26.30</ele>
        <time>2015-06-19T07:19:52Z</time>
      </trkpt>
      <trkpt lat="36.294202" lon="-6.109198">
        <ele>26.24</ele>
        <time>2015-06-19T07:19:55Z</time>
      </trkpt>
      <trkpt lat="36.294175" lon="-6.109195">
        <ele>26.23</ele>
        <time>2015-06-19T07:19:56Z</time>
      </trkpt>
      <trkpt lat="36.294115" lon="-6.109200">
        <ele>26.25</ele>
        <time>2015-06-19T07:19:58Z</time>
      </trkpt>
      <trkpt lat="36.294023" lon="-6.109213">
        <ele>26.29</ele>
        <time>2015-06-19T07:20:01Z</time>
      </trkpt>
      <trkpt lat="36.293963" lon="-6.109228">
        <ele>26.24</ele>
        <time>2015-06-19T07:20:03Z</time>
      </trkpt>
      <trkpt lat="36.293882" lon="-6.109260">
        <ele>26.66</ele>
        <time>2015-06-19T07:20:06Z</time>
      </trkpt>
      <trkpt lat="36.293853" lon="-6.109274">
        <ele>27.03</ele>
        <time>2015-06-19T07:20:07Z</time>
      </trkpt>
      <trkpt lat="36.293820" lon="-6.109279">
        <ele>27.41</ele>
        <time>2015-06-19T07:20:08Z</time>
      </trkpt>
      <trkpt lat="36.293795" lon="-6.109297">
        <ele>27.84</ele>
        <time>2015-06-19T07:20:09Z</time>
      </trkpt>
      <trkpt lat="36.293764" lon="-6.109307">
        <ele>28.21</ele>
        <time>2015-06-19T07:20:10Z</time>
      </trkpt>
      <trkpt lat="36.293649" lon="-6.109377">
        <ele>28.21</ele>
        <time>2015-06-19T07:20:14Z</time>
      </trkpt>
      <trkpt lat="36.293614" lon="-6.109391">
        <ele>28.27</ele>
        <time>2015-06-19T07:20:15Z</time>
      </trkpt>
      <trkpt lat="36.293515" lon="-6.109439">
        <ele>28.25</ele>
        <time>2015-06-19T07:20:18Z</time>
      </trkpt>
      <trkpt lat="36.293454" lon="-6.109472">
        <ele>28.26</ele>
        <time>2015-06-19T07:20:20Z</time>
      </trkpt>
      <trkpt lat="36.293254" lon="-6.109564">
        <ele>28.24</ele>
        <time>2015-06-19T07:20:26Z</time>
      </trkpt>
      <trkpt lat="36.293090" lon="-6.109652">
        <ele>28.29</ele>
        <time>2015-06-19T07:20:31Z</time>
      </trkpt>
      <trkpt lat="36.293060" lon="-6.109670">
        <ele>28.23</ele>
        <time>2015-06-19T07:20:32Z</time>
      </trkpt>
      <trkpt lat="36.292957" lon="-6.109711">
        <ele>28.29</ele>
        <time>2015-06-19T07:20:35Z</time>
      </trkpt>
      <trkpt lat="36.292887" lon="-6.109740">
        <ele>28.23</ele>
        <time>2015-06-19T07:20:37Z</time>
      </trkpt>
      <trkpt lat="36.292855" lon="-6.109758">
        <ele>28.29</ele>
        <time>2015-06-19T07:20:38Z</time>
      </trkpt>
      <trkpt lat="36.292749" lon="-6.109804">
        <ele>28.27</ele>
        <time>2015-06-19T07:20:41Z</time>
      </trkpt>
      <trkpt lat="36.292655" lon="-6.109839">
        <ele>28.22</ele>
        <time>2015-06-19T07:20:44Z</time>
      </trkpt>
      <trkpt lat="36.292551" lon="-6.109877">
        <ele>28.21</ele>
        <time>2015-06-19T07:20:47Z</time>
      </trkpt>
      <trkpt lat="36.292473" lon="-6.109898">
        <ele>28.23</ele>
        <time>2015-06-19T07:20:49Z</time>
      </trkpt>
      <trkpt lat="36.292438" lon="-6.109922">
        <ele>28.28</ele>
        <time>2015-06-19T07:20:50Z</time>
      </trkpt>
      <trkpt lat="36.292241" lon="-6.110017">
        <ele>28.28</ele>
        <time>2015-06-19T07:20:55Z</time>
      </trkpt>
      <trkpt lat="36.292199" lon="-6.110036">
        <ele>28.23</ele>
        <time>2015-06-19T07:20:56Z</time>
      </trkpt>
      <trkpt lat="36.292157" lon="-6.110047">
        <ele>28.28</ele>
        <time>2015-06-19T07:20:57Z</time>
      </trkpt>
      <trkpt lat="36.291988" lon="-6.110049">
        <ele>28.23</ele>
        <time>2015-06-19T07:21:00Z</time>
      </trkpt>
      <trkpt lat="36.291934" lon="-6.110047">
        <ele>28.30</ele>
        <time>2015-06-19T07:21:01Z</time>
      </trkpt>
      <trkpt lat="36.291881" lon="-6.110037">
        <ele>28.28</ele>
        <time>2015-06-19T07:21:02Z</time>
      </trkpt>
      <trkpt lat="36.291671" lon="-6.109983">
        <ele>28.26</ele>
        <time>2015-06-19T07:21:06Z</time>
      </trkpt>
      <trkpt lat="36.291532" lon="-6.109919">
        <ele>28.24</ele>
        <time>2015-06-19T07:21:09Z</time>
      </trkpt>
      <trkpt lat="36.291493" lon="-6.109890">
        <ele>28.22</ele>
        <time>2015-06-19T07:21:10Z</time>
      </trkpt>
      <trkpt lat="36.291413" lon="-6.109827">
        <ele>28.21</ele>
        <time>2015-06-19T07:21:12Z</time>
      </trkpt>
      <trkpt lat="36.291295" lon="-6.109719">
        <ele>28.28</ele>
        <time>2015-06-19T07:21:15Z</time>
      </trkpt>
      <trkpt lat="36.291150" lon="-6.109571">
        <ele>28.29</ele>
        <time>2015-06-19T07:21:19Z</time>
      </trkpt>
      <trkpt lat="36.290971" lon="-6.109306">
        <ele>28.24</ele>
        <time>2015-06-19T07:21:25Z</time>
      </trkpt>
      <trkpt lat="36.290953" lon="-6.109263">
        <ele>28.29</ele>
        <time>2015-06-19T07:21:26Z</time>
      </trkpt>
      <trkpt lat="36.290852" lon="-6.108935">
        <ele>28.29</ele>
        <time>2015-06-19T07:21:33Z</time>
      </trkpt>
      <trkpt lat="36.290787" lon="-6.108704">
        <ele>28.29</ele>
        <time>2015-06-19T07:21:38Z</time>
      </trkpt>
      <trkpt lat="36.290769" lon="-6.108613">
        <ele>28.24</ele>
        <time>2015-06-19T07:21:40Z</time>
      </trkpt>
      <trkpt lat="36.290665" lon="-6.108323">
        <ele>28.23</ele>
        <time>2015-06-19T07:21:47Z</time>
      </trkpt>
      <trkpt lat="36.290602" lon="-6.108115">
        <ele>28.26</ele>
        <time>2015-06-19T07:21:52Z</time>
      </trkpt>
      <trkpt lat="36.290523" lon="-6.107854">
        <ele>28.26</ele>
        <time>2015-06-19T07:21:58Z</time>
      </trkpt>
      <trkpt lat="36.290463" lon="-6.107581">
        <ele>28.21</ele>
        <time>2015-06-19T07:22:04Z</time>
      </trkpt>
      <trkpt lat="36.290378" lon="-6.107340">
        <ele>28.21</ele>
        <time>2015-06-19T07:22:10Z</time>
      </trkpt>
      <trkpt lat="36.290311" lon="-6.107196">
        <ele>28.63</ele>
        <time>2015-06-19T07:22:14Z</time>
      </trkpt>
      <trkpt lat="36.290291" lon="-6.107162">
        <ele>29.48</ele>
        <time>2015-06-19T07:22:15Z</time>
      </trkpt>
      <trkpt lat="36.290276" lon="-6.107123">
        <ele>29.85</ele>
        <time>2015-06-19T07:22:16Z</time>
      </trkpt>
      <trkpt lat="36.290261" lon="-6.107084">
        <ele>30.43</ele>
        <time>2015-06-19T07:22:17Z</time>
      </trkpt>
      <trkpt lat="36.290234" lon="-6.106874">
        <ele>30.50</ele>
        <time>2015-06-19T07:22:23Z</time>
      </trkpt>
      <trkpt lat="36.290230" lon="-6.106820">
        <ele>30.47</ele>
        <time>2015-06-19T07:22:25Z</time>
      </trkpt>
      <trkpt lat="36.290216" lon="-6.106756">
        <ele>30.47</ele>
        <time>2015-06-19T07:22:27Z</time>
      </trkpt>
      <trkpt lat="36.290170" lon="-6.106624">
        <ele>30.44</ele>
        <time>2015-06-19T07:22:31Z</time>
      </trkpt>
      <trkpt lat="36.290156" lon="-6.106545">
        <ele>30.49</ele>
        <time>2015-06-19T07:22:33Z</time>
      </trkpt>
      <trkpt lat="36.290108" lon="-6.106414">
        <ele>30.82</ele>
        <time>2015-06-19T07:22:38Z</time>
      </trkpt>
      <trkpt lat="36.290104" lon="-6.106384">
        <ele>31.23</ele>
        <time>2015-06-19T07:22:39Z</time>
      </trkpt>
      <trkpt lat="36.290091" lon="-6.106357">
        <ele>32.01</ele>
        <time>2015-06-19T07:22:40Z</time>
      </trkpt>
      <trkpt lat="36.290077" lon="-6.106328">
        <ele>32.44</ele>
        <time>2015-06-19T07:22:41Z</time>
      </trkpt>
      <trkpt lat="36.290043" lon="-6.106204">
        <ele>32.47</ele>
        <time>2015-06-19T07:22:45Z</time>
      </trkpt>
      <trkpt lat="36.289970" lon="-6.105995">
        <ele>32.49</ele>
        <time>2015-06-19T07:22:52Z</time>
      </trkpt>
      <trkpt lat="36.289900" lon="-6.105809">
        <ele>32.42</ele>
        <time>2015-06-19T07:22:58Z</time>
      </trkpt>
      <trkpt lat="36.289865" lon="-6.105722">
        <ele>32.87</ele>
        <time>2015-06-19T07:23:01Z</time>
      </trkpt>
      <trkpt lat="36.289850" lon="-6.105693">
        <ele>33.28</ele>
        <time>2015-06-19T07:23:02Z</time>
      </trkpt>
      <trkpt lat="36.289839" lon="-6.105662">
        <ele>33.68</ele>
        <time>2015-06-19T07:23:03Z</time>
      </trkpt>
      <trkpt lat="36.289827" lon="-6.105635">
        <ele>34.63</ele>
        <time>2015-06-19T07:23:04Z</time>
      </trkpt>
      <trkpt lat="36.289803" lon="-6.105584">
        <ele>34.64</ele>
        <time>2015-06-19T07:23:06Z</time>
      </trkpt>
      <trkpt lat="36.289752" lon="-6.105448">
        <ele>34.60</ele>
        <time>2015-06-19T07:23:11Z</time>
      </trkpt>
      <trkpt lat="36.289694" lon="-6.105307">
        <ele>34.62</ele>
        <time>2015-06-19T07:23:16Z</time>
      </trkpt>
      <trkpt lat="36.289656" lon="-6.105184">
        <ele>35.01</ele>
        <time>2015-06-19T07:23:20Z</time>
      </trkpt>
      <trkpt lat="36.289646" lon="-6.105157">
        <ele>35.46</ele>
        <time>2015-06-19T07:23:21Z</time>
      </trkpt>
      <trkpt lat="36.289635" lon="-6.105120">
        <ele>35.86</ele>
        <time>2015-06-19T07:23:22Z</time>
      </trkpt>
      <trkpt lat="36.289627" lon="-6.105090">
        <ele>36.22</ele>
        <time>2015-06-19T07:23:23Z</time>
      </trkpt>
      <trkpt lat="36.289620" lon="-6.105064">
        <ele>36.62</ele>
        <time>2015-06-19T07:23:24Z</time>
      </trkpt>
      <trkpt lat="36.289572" lon="-6.104901">
        <ele>36.68</ele>
        <time>2015-06-19T07:23:30Z</time>
      </trkpt>
      <trkpt lat="36.289529" lon="-6.104812">
        <ele>37.08</ele>
        <time>2015-06-19T07:23:34Z</time>
      </trkpt>
      <trkpt lat="36.289522" lon="-6.104793">
        <ele>37.49</ele>
        <time>2015-06-19T07:23:35Z</time>
      </trkpt>
      <trkpt lat="36.289508" lon="-6.104774">
        <ele>37.82</ele>
        <time>2015-06-19T07:23:36Z</time>
      </trkpt>
      <trkpt lat="36.289500" lon="-6.104746">
        <ele>38.26</ele>
        <time>2015-06-19T07:23:37Z</time>
      </trkpt>
      <trkpt lat="36.289492" lon="-6.104719">
        <ele>38.61</ele>
        <time>2015-06-19T07:23:38Z</time>
      </trkpt>
      <trkpt lat="36.289458" lon="-6.104628">
        <ele>38.62</ele>
        <time>2015-06-19T07:23:42Z</time>
      </trkpt>
      <trkpt lat="36.289420" lon="-6.104531">
        <ele>39.01</ele>
        <time>2015-06-19T07:23:46Z</time>
      </trkpt>
      <trkpt lat="36.289412" lon="-6.104513">
        <ele>39.46</ele>
        <time>2015-06-19T07:23:47Z</time>
      </trkpt>
      <trkpt lat="36.289402" lon="-6.104492">
        <ele>39.85</ele>
        <time>2015-06-19T07:23:48Z</time>
      </trkpt>
      <trkpt lat="36.289398" lon="-6.104470">
        <ele>40.25</ele>
        <time>2015-06-19T07:23:49Z</time>
      </trkpt>
      <trkpt lat="36.289391" lon="-6.104447">
        <ele>40.63</ele>
        <time>2015-06-19T07:23:50Z</time>
      </trkpt>
      <trkpt lat="36.289344" lon="-6.104321">
        <ele>40.63</ele>
        <time>2015-06-19T07:23:56Z</time>
      </trkpt>
      <trkpt lat="36.289331" lon="-6.104276">
        <ele>40.67</ele>
        <time>2015-06-19T07:23:58Z</time>
      </trkpt>
      <trkpt lat="36.289320" lon="-6.104250">
        <ele>41.02</ele>
        <time>2015-06-19T07:23:59Z</time>
      </trkpt>
      <trkpt lat="36.289314" lon="-6.104226">
        <ele>41.44</ele>
        <time>2015-06-19T07:24:00Z</time>
      </trkpt>
      <trkpt lat="36.289307" lon="-6.104201">
        <ele>41.89</ele>
        <time>2015-06-19T07:24:01Z</time>
      </trkpt>
      <trkpt lat="36.289300" lon="-6.104178">
        <ele>42.26</ele>
        <time>2015-06-19T07:24:02Z</time>
      </trkpt>
      <trkpt lat="36.289293" lon="-6.104156">
        <ele>42.62</ele>
        <time>2015-06-19T07:24:03Z</time>
      </trkpt>
      <trkpt lat="36.289265" lon="-6.104092">
        <ele>42.61</ele>
        <time>2015-06-19T07:24:06Z</time>
      </trkpt>
      <trkpt lat="36.289228" lon="-6.103979">
        <ele>42.62</ele>
        <time>2015-06-19T07:24:11Z</time>
      </trkpt>
      <trkpt lat="36.289221" lon="-6.103959">
        <ele>43.07</ele>
        <time>2015-06-19T07:24:12Z</time>
      </trkpt>
      <trkpt lat="36.289215" lon="-6.103935">
        <ele>43.64</ele>
        <time>2015-06-19T07:24:13Z</time>
      </trkpt>
      <trkpt lat="36.289208" lon="-6.103913">
        <ele>44.07</ele>
        <time>2015-06-19T07:24:14Z</time>
      </trkpt>
      <trkpt lat="36.289201" lon="-6.103891">
        <ele>44.46</ele>
        <time>2015-06-19T07:24:15Z</time>
      </trkpt>
      <trkpt lat="36.289194" lon="-6.103871">
        <ele>44.85</ele>
        <time>2015-06-19T07:24:16Z</time>
      </trkpt>
      <trkpt lat="36.289160" lon="-6.103782">
        <ele>44.82</ele>
        <time>2015-06-19T07:24:20Z</time>
      </trkpt>
      <trkpt lat="36.289101" lon="-6.103614">
        <ele>44.85</ele>
        <time>2015-06-19T07:24:27Z</time>
      </trkpt>
      <trkpt lat="36.289094" lon="-6.103590">
        <ele>45.22</ele>
        <time>2015-06-19T07:24:28Z</time>
      </trkpt>
      <trkpt lat="36.289082" lon="-6.103567">
        <ele>45.69</ele>
        <time>2015-06-19T07:24:29Z</time>
      </trkpt>
      <trkpt lat="36.289075" lon="-6.103543">
        <ele>46.02</ele>
        <time>2015-06-19T07:24:30Z</time>
      </trkpt>
      <trkpt lat="36.289064" lon="-6.103523">
        <ele>46.41</ele>
        <time>2015-06-19T07:24:31Z</time>
      </trkpt>
      <trkpt lat="36.289050" lon="-6.103506">
        <ele>46.86</ele>
        <time>2015-06-19T07:24:32Z</time>
      </trkpt>
      <trkpt lat="36.289022" lon="-6.103491">
        <ele>46.90</ele>
        <time>2015-06-19T07:24:34Z</time>
      </trkpt>
      <trkpt lat="36.288996" lon="-6.103485">
        <ele>46.89</ele>
        <time>2015-06-19T07:24:36Z</time>
      </trkpt>
      <trkpt lat="36.288912" lon="-6.103464">
        <ele>47.46</ele>
        <time>2015-06-19T07:24:40Z</time>
      </trkpt>
      <trkpt lat="36.288888" lon="-6.103453">
        <ele>47.87</ele>
        <time>2015-06-19T07:24:41Z</time>
      </trkpt>
      <trkpt lat="36.288866" lon="-6.103438">
        <ele>48.62</ele>
        <time>2015-06-19T07:24:42Z</time>
      </trkpt>
      <trkpt lat="36.288846" lon="-6.103425">
        <ele>49.09</ele>
        <time>2015-06-19T07:24:43Z</time>
      </trkpt>
      <trkpt lat="36.288801" lon="-6.103407">
        <ele>49.03</ele>
        <time>2015-06-19T07:24:45Z</time>
      </trkpt>
      <trkpt lat="36.288670" lon="-6.103465">
        <ele>49.04</ele>
        <time>2015-06-19T07:24:49Z</time>
      </trkpt>
      <trkpt lat="36.288533" lon="-6.103566">
        <ele>49.06</ele>
        <time>2015-06-19T07:24:52Z</time>
      </trkpt>
      <trkpt lat="36.288421" lon="-6.103635">
        <ele>49.01</ele>
        <time>2015-06-19T07:24:54Z</time>
      </trkpt>
      <trkpt lat="36.288297" lon="-6.103702">
        <ele>49.01</ele>
        <time>2015-06-19T07:24:56Z</time>
      </trkpt>
      <trkpt lat="36.288165" lon="-6.103768">
        <ele>48.70</ele>
        <time>2015-06-19T07:24:58Z</time>
      </trkpt>
      <trkpt lat="36.288098" lon="-6.103809">
        <ele>48.21</ele>
        <time>2015-06-19T07:24:59Z</time>
      </trkpt>
      <trkpt lat="36.288030" lon="-6.103853">
        <ele>47.67</ele>
        <time>2015-06-19T07:25:00Z</time>
      </trkpt>
      <trkpt lat="36.287960" lon="-6.103899">
        <ele>47.29</ele>
        <time>2015-06-19T07:25:01Z</time>
      </trkpt>
      <trkpt lat="36.287893" lon="-6.103942">
        <ele>46.85</ele>
        <time>2015-06-19T07:25:02Z</time>
      </trkpt>
      <trkpt lat="36.287827" lon="-6.103985">
        <ele>46.88</ele>
        <time>2015-06-19T07:25:03Z</time>
      </trkpt>
      <trkpt lat="36.287760" lon="-6.104026">
        <ele>46.43</ele>
        <time>2015-06-19T07:25:04Z</time>
      </trkpt>
      <trkpt lat="36.287701" lon="-6.104064">
        <ele>45.86</ele>
        <time>2015-06-19T07:25:05Z</time>
      </trkpt>
      <trkpt lat="36.287645" lon="-6.104099">
        <ele>45.43</ele>
        <time>2015-06-19T07:25:06Z</time>
      </trkpt>
      <trkpt lat="36.287591" lon="-6.104126">
        <ele>45.05</ele>
        <time>2015-06-19T07:25:07Z</time>
      </trkpt>
      <trkpt lat="36.287539" lon="-6.104142">
        <ele>44.61</ele>
        <time>2015-06-19T07:25:08Z</time>
      </trkpt>
      <trkpt lat="36.287484" lon="-6.104155">
        <ele>44.61</ele>
        <time>2015-06-19T07:25:09Z</time>
      </trkpt>
      <trkpt lat="36.287428" lon="-6.104174">
        <ele>44.28</ele>
        <time>2015-06-19T07:25:10Z</time>
      </trkpt>
      <trkpt lat="36.287372" lon="-6.104203">
        <ele>43.67</ele>
        <time>2015-06-19T07:25:11Z</time>
      </trkpt>
      <trkpt lat="36.287315" lon="-6.104240">
        <ele>43.26</ele>
        <time>2015-06-19T07:25:12Z</time>
      </trkpt>
      <trkpt lat="36.287261" lon="-6.104281">
        <ele>42.88</ele>
        <time>2015-06-19T07:25:13Z</time>
      </trkpt>
      <trkpt lat="36.287205" lon="-6.104325">
        <ele>42.50</ele>
        <time>2015-06-19T07:25:14Z</time>
      </trkpt>
      <trkpt lat="36.286967" lon="-6.104494">
        <ele>42.08</ele>
        <time>2015-06-19T07:25:18Z</time>
      </trkpt>
      <trkpt lat="36.286912" lon="-6.104535">
        <ele>41.61</ele>
        <time>2015-06-19T07:25:19Z</time>
      </trkpt>
      <trkpt lat="36.286866" lon="-6.104569">
        <ele>41.27</ele>
        <time>2015-06-19T07:25:20Z</time>
      </trkpt>
      <trkpt lat="36.286830" lon="-6.104596">
        <ele>40.62</ele>
        <time>2015-06-19T07:25:21Z</time>
      </trkpt>
      <trkpt lat="36.286802" lon="-6.104616">
        <ele>40.28</ele>
        <time>2015-06-19T07:25:22Z</time>
      </trkpt>
      <trkpt lat="36.286780" lon="-6.104630">
        <ele>40.21</ele>
        <time>2015-06-19T07:25:23Z</time>
      </trkpt>
      <trkpt lat="36.286746" lon="-6.104651">
        <ele>39.81</ele>
        <time>2015-06-19T07:25:25Z</time>
      </trkpt>
      <trkpt lat="36.286725" lon="-6.104656">
        <ele>39.42</ele>
        <time>2015-06-19T07:25:26Z</time>
      </trkpt>
      <trkpt lat="36.286703" lon="-6.104659">
        <ele>39.05</ele>
        <time>2015-06-19T07:25:27Z</time>
      </trkpt>
      <trkpt lat="36.286677" lon="-6.104655">
        <ele>38.69</ele>
        <time>2015-06-19T07:25:28Z</time>
      </trkpt>
      <trkpt lat="36.286648" lon="-6.104639">
        <ele>38.25</ele>
        <time>2015-06-19T07:25:29Z</time>
      </trkpt>
      <trkpt lat="36.286591" lon="-6.104576">
        <ele>38.23</ele>
        <time>2015-06-19T07:25:31Z</time>
      </trkpt>
      <trkpt lat="36.286557" lon="-6.104491">
        <ele>38.25</ele>
        <time>2015-06-19T07:25:33Z</time>
      </trkpt>
      <trkpt lat="36.286499" lon="-6.104391">
        <ele>38.24</ele>
        <time>2015-06-19T07:25:36Z</time>
      </trkpt>
      <trkpt lat="36.286491" lon="-6.104371">
        <ele>38.27</ele>
        <time>2015-06-19T07:25:38Z</time>
      </trkpt>
      <trkpt lat="36.286492" lon="-6.104369">
        <ele>38.29</ele>
        <time>2015-06-19T07:25:43Z</time>
      </trkpt>
      <trkpt lat="36.286492" lon="-6.104369">
        <ele>38.28</ele>
        <time>2015-06-19T07:25:45Z</time>
      </trkpt>
      <trkpt lat="36.286492" lon="-6.104369">
        <ele>38.22</ele>
        <time>2015-06-19T07:25:49Z</time>
      </trkpt>
      <trkpt lat="36.286492" lon="-6.104369">
        <ele>38.21</ele>
        <time>2015-06-19T07:26:02Z</time>
      </trkpt>
      <trkpt lat="36.286492" lon="-6.104369">
        <ele>37.83</ele>
        <time>2015-06-19T07:26:09Z</time>
      </trkpt>
      <trkpt lat="36.286492" lon="-6.104369">
        <ele>37.49</ele>
        <time>2015-06-19T07:26:10Z</time>
      </trkpt>
      <trkpt lat="36.286492" lon="-6.104369">
        <ele>37.07</ele>
        <time>2015-06-19T07:26:11Z</time>
      </trkpt>
      <trkpt lat="36.286492" lon="-6.104369">
        <ele>36.67</ele>
        <time>2015-06-19T07:26:12Z</time>
      </trkpt>
      <trkpt lat="36.286492" lon="-6.104369">
        <ele>36.24</ele>
        <time>2015-06-19T07:26:13Z</time>
      </trkpt>
      <trkpt lat="36.286492" lon="-6.104369">
        <ele>36.26</ele>
        <time>2015-06-19T07:26:17Z</time>
      </trkpt>
      <trkpt lat="36.286493" lon="-6.104368">
        <ele>36.26</ele>
        <time>2015-06-19T07:26:30Z</time>
      </trkpt>
      <trkpt lat="36.286493" lon="-6.104368">
        <ele>36.24</ele>
        <time>2015-06-19T07:26:45Z</time>
      </trkpt>
      <trkpt lat="36.286493" lon="-6.104368">
        <ele>36.24</ele>
        <time>2015-06-19T07:26:56Z</time>
      </trkpt>
      <trkpt lat="36.286493" lon="-6.104369">
        <ele>36.28</ele>
        <time>2015-06-19T07:27:00Z</time>
      </trkpt>
      <trkpt lat="36.286493" lon="-6.104369">
        <ele>36.21</ele>
        <time>2015-06-19T07:27:12Z</time>
      </trkpt>
      <trkpt lat="36.286484" lon="-6.104367">
        <ele>36.21</ele>
        <time>2015-06-19T07:27:17Z</time>
      </trkpt>
      <trkpt lat="36.286455" lon="-6.104356">
        <ele>36.27</ele>
        <time>2015-06-19T07:27:19Z</time>
      </trkpt>
      <trkpt lat="36.286424" lon="-6.104309">
        <ele>36.28</ele>
        <time>2015-06-19T07:27:21Z</time>
      </trkpt>
      <trkpt lat="36.286388" lon="-6.104261">
        <ele>36.22</ele>
        <time>2015-06-19T07:27:23Z</time>
      </trkpt>
      <trkpt lat="36.286275" lon="-6.104103">
        <ele>36.27</ele>
        <time>2015-06-19T07:27:28Z</time>
      </trkpt>
      <trkpt lat="36.286118" lon="-6.103907">
        <ele>36.28</ele>
        <time>2015-06-19T07:27:34Z</time>
      </trkpt>
      <trkpt lat="36.286085" lon="-6.103851">
        <ele>36.69</ele>
        <time>2015-06-19T07:27:36Z</time>
      </trkpt>
      <trkpt lat="36.286068" lon="-6.103825">
        <ele>37.05</ele>
        <time>2015-06-19T07:27:37Z</time>
      </trkpt>
      <trkpt lat="36.286049" lon="-6.103797">
        <ele>37.63</ele>
        <time>2015-06-19T07:27:38Z</time>
      </trkpt>
      <trkpt lat="36.286033" lon="-6.103765">
        <ele>38.05</ele>
        <time>2015-06-19T07:27:39Z</time>
      </trkpt>
      <trkpt lat="36.286017" lon="-6.103732">
        <ele>38.40</ele>
        <time>2015-06-19T07:27:40Z</time>
      </trkpt>
      <trkpt lat="36.285902" lon="-6.103504">
        <ele>38.41</ele>
        <time>2015-06-19T07:27:46Z</time>
      </trkpt>
      <trkpt lat="36.285854" lon="-6.103400">
        <ele>38.41</ele>
        <time>2015-06-19T07:27:49Z</time>
      </trkpt>
      <trkpt lat="36.285796" lon="-6.103279">
        <ele>38.42</ele>
        <time>2015-06-19T07:27:53Z</time>
      </trkpt>
      <trkpt lat="36.285709" lon="-6.103070">
        <ele>38.43</ele>
        <time>2015-06-19T07:27:59Z</time>
      </trkpt>
      <trkpt lat="36.285670" lon="-6.102982">
        <ele>38.49</ele>
        <time>2015-06-19T07:28:01Z</time>
      </trkpt>
      <trkpt lat="36.285627" lon="-6.102881">
        <ele>38.48</ele>
        <time>2015-06-19T07:28:03Z</time>
      </trkpt>
      <trkpt lat="36.285578" lon="-6.102765">
        <ele>38.42</ele>
        <time>2015-06-19T07:28:05Z</time>
      </trkpt>
      <trkpt lat="36.285548" lon="-6.102716">
        <ele>38.42</ele>
        <time>2015-06-19T07:28:06Z</time>
      </trkpt>
      <trkpt lat="36.285398" lon="-6.102595">
        <ele>38.45</ele>
        <time>2015-06-19T07:28:09Z</time>
      </trkpt>
      <trkpt lat="36.285326" lon="-6.102559">
        <ele>38.04</ele>
        <time>2015-06-19T07:28:10Z</time>
      </trkpt>
      <trkpt lat="36.285252" lon="-6.102523">
        <ele>37.64</ele>
        <time>2015-06-19T07:28:11Z</time>
      </trkpt>
      <trkpt lat="36.285181" lon="-6.102490">
        <ele>37.26</ele>
        <time>2015-06-19T07:28:12Z</time>
      </trkpt>
      <trkpt lat="36.285118" lon="-6.102458">
        <ele>36.61</ele>
        <time>2015-06-19T07:28:13Z</time>
      </trkpt>
      <trkpt lat="36.285062" lon="-6.102425">
        <ele>36.01</ele>
        <time>2015-06-19T07:28:14Z</time>
      </trkpt>
      <trkpt lat="36.285009" lon="-6.102391">
        <ele>35.49</ele>
        <time>2015-06-19T07:28:15Z</time>
      </trkpt>
      <trkpt lat="36.284959" lon="-6.102354">
        <ele>34.63</ele>
        <time>2015-06-19T07:28:16Z</time>
      </trkpt>
      <trkpt lat="36.284908" lon="-6.102306">
        <ele>34.09</ele>
        <time>2015-06-19T07:28:17Z</time>
      </trkpt>
      <trkpt lat="36.284852" lon="-6.102251">
        <ele>33.23</ele>
        <time>2015-06-19T07:28:18Z</time>
      </trkpt>
      <trkpt lat="36.284787" lon="-6.102187">
        <ele>32.69</ele>
        <time>2015-06-19T07:28:19Z</time>
      </trkpt>
      <trkpt lat="36.284717" lon="-6.102123">
        <ele>31.89</ele>
        <time>2015-06-19T07:28:20Z</time>
      </trkpt>
      <trkpt lat="36.284643" lon="-6.102063">
        <ele>31.21</ele>
        <time>2015-06-19T07:28:21Z</time>
      </trkpt>
      <trkpt lat="36.284567" lon="-6.102012">
        <ele>30.62</ele>
        <time>2015-06-19T07:28:22Z</time>
      </trkpt>
      <trkpt lat="36.284480" lon="-6.101969">
        <ele>30.02</ele>
        <time>2015-06-19T07:28:23Z</time>
      </trkpt>
      <trkpt lat="36.284393" lon="-6.101934">
        <ele>29.26</ele>
        <time>2015-06-19T07:28:24Z</time>
      </trkpt>
      <trkpt lat="36.284306" lon="-6.101896">
        <ele>28.41</ele>
        <time>2015-06-19T07:28:25Z</time>
      </trkpt>
      <trkpt lat="36.284220" lon="-6.101861">
        <ele>27.01</ele>
        <time>2015-06-19T07:28:26Z</time>
      </trkpt>
      <trkpt lat="36.284138" lon="-6.101828">
        <ele>26.28</ele>
        <time>2015-06-19T07:28:27Z</time>
      </trkpt>
      <trkpt lat="36.284061" lon="-6.101795">
        <ele>25.48</ele>
        <time>2015-06-19T07:28:28Z</time>
      </trkpt>
      <trkpt lat="36.283987" lon="-6.101762">
        <ele>24.89</ele>
        <time>2015-06-19T07:28:29Z</time>
      </trkpt>
      <trkpt lat="36.283914" lon="-6.101722">
        <ele>24.22</ele>
        <time>2015-06-19T07:28:30Z</time>
      </trkpt>
      <trkpt lat="36.283852" lon="-6.101677">
        <ele>23.62</ele>
        <time>2015-06-19T07:28:31Z</time>
      </trkpt>
      <trkpt lat="36.283794" lon="-6.101630">
        <ele>23.02</ele>
        <time>2015-06-19T07:28:32Z</time>
      </trkpt>
      <trkpt lat="36.283740" lon="-6.101583">
        <ele>22.43</ele>
        <time>2015-06-19T07:28:33Z</time>
      </trkpt>
      <trkpt lat="36.283688" lon="-6.101538">
        <ele>21.84</ele>
        <time>2015-06-19T07:28:34Z</time>
      </trkpt>
      <trkpt lat="36.283591" lon="-6.101451">
        <ele>21.83</ele>
        <time>2015-06-19T07:28:36Z</time>
      </trkpt>
      <trkpt lat="36.283386" lon="-6.101272">
        <ele>21.45</ele>
        <time>2015-06-19T07:28:41Z</time>
      </trkpt>
      <trkpt lat="36.283352" lon="-6.101238">
        <ele>20.81</ele>
        <time>2015-06-19T07:28:42Z</time>
      </trkpt>
      <trkpt lat="36.283318" lon="-6.101203">
        <ele>20.41</ele>
        <time>2015-06-19T07:28:43Z</time>
      </trkpt>
      <trkpt lat="36.283282" lon="-6.101169">
        <ele>20.01</ele>
        <time>2015-06-19T07:28:44Z</time>
      </trkpt>
      <trkpt lat="36.283248" lon="-6.101136">
        <ele>19.61</ele>
        <time>2015-06-19T07:28:45Z</time>
      </trkpt>
      <trkpt lat="36.283082" lon="-6.100968">
        <ele>19.66</ele>
        <time>2015-06-19T07:28:50Z</time>
      </trkpt>
      <trkpt lat="36.282828" lon="-6.100692">
        <ele>19.27</ele>
        <time>2015-06-19T07:28:57Z</time>
      </trkpt>
      <trkpt lat="36.282792" lon="-6.100645">
        <ele>18.82</ele>
        <time>2015-06-19T07:28:58Z</time>
      </trkpt>
      <trkpt lat="36.282751" lon="-6.100602">
        <ele>18.47</ele>
        <time>2015-06-19T07:28:59Z</time>
      </trkpt>
      <trkpt lat="36.282705" lon="-6.100575">
        <ele>18.04</ele>
        <time>2015-06-19T07:29:00Z</time>
      </trkpt>
      <trkpt lat="36.282658" lon="-6.100554">
        <ele>17.66</ele>
        <time>2015-06-19T07:29:01Z</time>
      </trkpt>
      <trkpt lat="36.282501" lon="-6.100415">
        <ele>17.63</ele>
        <time>2015-06-19T07:29:05Z</time>
      </trkpt>
      <trkpt lat="36.282277" lon="-6.100189">
        <ele>17.60</ele>
        <time>2015-06-19T07:29:11Z</time>
      </trkpt>
      <trkpt lat="36.282207" lon="-6.100119">
        <ele>17.62</ele>
        <time>2015-06-19T07:29:13Z</time>
      </trkpt>
      <trkpt lat="36.282039" lon="-6.099950">
        <ele>17.61</ele>
        <time>2015-06-19T07:29:18Z</time>
      </trkpt>
      <trkpt lat="36.281972" lon="-6.099879">
        <ele>17.67</ele>
        <time>2015-06-19T07:29:20Z</time>
      </trkpt>
      <trkpt lat="36.281937" lon="-6.099842">
        <ele>17.67</ele>
        <time>2015-06-19T07:29:21Z</time>
      </trkpt>
      <trkpt lat="36.281796" lon="-6.099706">
        <ele>17.65</ele>
        <time>2015-06-19T07:29:25Z</time>
      </trkpt>
      <trkpt lat="36.281762" lon="-6.099674">
        <ele>17.68</ele>
        <time>2015-06-19T07:29:26Z</time>
      </trkpt>
      <trkpt lat="36.281593" lon="-6.099498">
        <ele>17.67</ele>
        <time>2015-06-19T07:29:31Z</time>
      </trkpt>
      <trkpt lat="36.281490" lon="-6.099396">
        <ele>17.64</ele>
        <time>2015-06-19T07:29:34Z</time>
      </trkpt>
      <trkpt lat="36.281185" lon="-6.099093">
        <ele>17.63</ele>
        <time>2015-06-19T07:29:43Z</time>
      </trkpt>
      <trkpt lat="36.281053" lon="-6.098956">
        <ele>17.63</ele>
        <time>2015-06-19T07:29:47Z</time>
      </trkpt>
      <trkpt lat="36.280992" lon="-6.098882">
        <ele>17.69</ele>
        <time>2015-06-19T07:29:49Z</time>
      </trkpt>
      <trkpt lat="36.280875" lon="-6.098681">
        <ele>17.68</ele>
        <time>2015-06-19T07:29:55Z</time>
      </trkpt>
      <trkpt lat="36.280798" lon="-6.098497">
        <ele>17.62</ele>
        <time>2015-06-19T07:30:01Z</time>
      </trkpt>
      <trkpt lat="36.280722" lon="-6.098327">
        <ele>17.61</ele>
        <time>2015-06-19T07:30:07Z</time>
      </trkpt>
      <trkpt lat="36.280633" lon="-6.098165">
        <ele>17.69</ele>
        <time>2015-06-19T07:30:13Z</time>
      </trkpt>
      <trkpt lat="36.280605" lon="-6.098113">
        <ele>17.68</ele>
        <time>2015-06-19T07:30:15Z</time>
      </trkpt>
      <trkpt lat="36.280561" lon="-6.098046">
        <ele>17.61</ele>
        <time>2015-06-19T07:30:18Z</time>
      </trkpt>
      <trkpt lat="36.280525" lon="-6.097983">
        <ele>17.68</ele>
        <time>2015-06-19T07:30:21Z</time>
      </trkpt>
      <trkpt lat="36.280507" lon="-6.097963">
        <ele>17.65</ele>
        <time>2015-06-19T07:30:22Z</time>
      </trkpt>
      <trkpt lat="36.280452" lon="-6.097876">
        <ele>18.04</ele>
        <time>2015-06-19T07:30:26Z</time>
      </trkpt>
      <trkpt lat="36.280439" lon="-6.097854">
        <ele>18.49</ele>
        <time>2015-06-19T07:30:27Z</time>
      </trkpt>
      <trkpt lat="36.280427" lon="-6.097831">
        <ele>18.82</ele>
        <time>2015-06-19T07:30:28Z</time>
      </trkpt>
      <trkpt lat="36.280412" lon="-6.097812">
        <ele>19.26</ele>
        <time>2015-06-19T07:30:29Z</time>
      </trkpt>
      <trkpt lat="36.280400" lon="-6.097791">
        <ele>19.65</ele>
        <time>2015-06-19T07:30:30Z</time>
      </trkpt>
      <trkpt lat="36.280351" lon="-6.097679">
        <ele>19.62</ele>
        <time>2015-06-19T07:30:35Z</time>
      </trkpt>
      <trkpt lat="36.280340" lon="-6.097658">
        <ele>19.61</ele>
        <time>2015-06-19T07:30:36Z</time>
      </trkpt>
      <trkpt lat="36.280327" lon="-6.097634">
        <ele>20.22</ele>
        <time>2015-06-19T07:30:37Z</time>
      </trkpt>
      <trkpt lat="36.280315" lon="-6.097608">
        <ele>20.61</ele>
        <time>2015-06-19T07:30:38Z</time>
      </trkpt>
      <trkpt lat="36.280303" lon="-6.097586">
        <ele>21.10</ele>
        <time>2015-06-19T07:30:39Z</time>
      </trkpt>
      <trkpt lat="36.280289" lon="-6.097563">
        <ele>21.48</ele>
        <time>2015-06-19T07:30:40Z</time>
      </trkpt>
      <trkpt lat="36.280274" lon="-6.097542">
        <ele>21.83</ele>
        <time>2015-06-19T07:30:41Z</time>
      </trkpt>
      <trkpt lat="36.280230" lon="-6.097475">
        <ele>22.27</ele>
        <time>2015-06-19T07:30:44Z</time>
      </trkpt>
      <trkpt lat="36.280217" lon="-6.097451">
        <ele>22.66</ele>
        <time>2015-06-19T07:30:45Z</time>
      </trkpt>
      <trkpt lat="36.280202" lon="-6.097429">
        <ele>23.10</ele>
        <time>2015-06-19T07:30:46Z</time>
      </trkpt>
      <trkpt lat="36.280189" lon="-6.097408">
        <ele>23.48</ele>
        <time>2015-06-19T07:30:47Z</time>
      </trkpt>
      <trkpt lat="36.280174" lon="-6.097385">
        <ele>23.84</ele>
        <time>2015-06-19T07:30:48Z</time>
      </trkpt>
      <trkpt lat="36.280107" lon="-6.097268">
        <ele>23.82</ele>
        <time>2015-06-19T07:30:53Z</time>
      </trkpt>
      <trkpt lat="36.280064" lon="-6.097200">
        <ele>24.21</ele>
        <time>2015-06-19T07:30:56Z</time>
      </trkpt>
      <trkpt lat="36.280048" lon="-6.097178">
        <ele>24.64</ele>
        <time>2015-06-19T07:30:57Z</time>
      </trkpt>
      <trkpt lat="36.280031" lon="-6.097155">
        <ele>25.09</ele>
        <time>2015-06-19T07:30:58Z</time>
      </trkpt>
      <trkpt lat="36.280014" lon="-6.097131">
        <ele>25.45</ele>
        <time>2015-06-19T07:30:59Z</time>
      </trkpt>
      <trkpt lat="36.279997" lon="-6.097110">
        <ele>25.88</ele>
        <time>2015-06-19T07:31:00Z</time>
      </trkpt>
      <trkpt lat="36.279981" lon="-6.097084">
        <ele>25.82</ele>
        <time>2015-06-19T07:31:01Z</time>
      </trkpt>
      <trkpt lat="36.279871" lon="-6.096946">
        <ele>25.86</ele>
        <time>2015-06-19T07:31:08Z</time>
      </trkpt>
      <trkpt lat="36.279785" lon="-6.096849">
        <ele>25.88</ele>
        <time>2015-06-19T07:31:13Z</time>
      </trkpt>
      <trkpt lat="36.279743" lon="-6.096807">
        <ele>25.82</ele>
        <time>2015-06-19T07:31:15Z</time>
      </trkpt>
      <trkpt lat="36.279623" lon="-6.096649">
        <ele>26.47</ele>
        <time>2015-06-19T07:31:21Z</time>
      </trkpt>
      <trkpt lat="36.279605" lon="-6.096621">
        <ele>26.89</ele>
        <time>2015-06-19T07:31:22Z</time>
      </trkpt>
      <trkpt lat="36.279589" lon="-6.096595">
        <ele>27.21</ele>
        <time>2015-06-19T07:31:23Z</time>
      </trkpt>
      <trkpt lat="36.279570" lon="-6.096564">
        <ele>27.61</ele>
        <time>2015-06-19T07:31:24Z</time>
      </trkpt>
      <trkpt lat="36.279550" lon="-6.096534">
        <ele>28.07</ele>
        <time>2015-06-19T07:31:25Z</time>
      </trkpt>
      <trkpt lat="36.279448" lon="-6.096323">
        <ele>28.02</ele>
        <time>2015-06-19T07:31:32Z</time>
      </trkpt>
      <trkpt lat="36.279437" lon="-6.096297">
        <ele>28.03</ele>
        <time>2015-06-19T07:31:33Z</time>
      </trkpt>
      <trkpt lat="36.279406" lon="-6.096230">
        <ele>28.08</ele>
        <time>2015-06-19T07:31:36Z</time>
      </trkpt>
      <trkpt lat="36.279386" lon="-6.096233">
        <ele>28.07</ele>
        <time>2015-06-19T07:31:37Z</time>
      </trkpt>
      <trkpt lat="36.279379" lon="-6.096243">
        <ele>28.06</ele>
        <time>2015-06-19T07:31:38Z</time>
      </trkpt>
      <trkpt lat="36.279418" lon="-6.096320">
        <ele>28.10</ele>
        <time>2015-06-19T07:31:42Z</time>
      </trkpt>
      <trkpt lat="36.279422" lon="-6.096352">
        <ele>28.05</ele>
        <time>2015-06-19T07:31:45Z</time>
      </trkpt>
      <trkpt lat="36.279426" lon="-6.096354">
        <ele>28.03</ele>
        <time>2015-06-19T07:31:46Z</time>
      </trkpt>
      <trkpt lat="36.279421" lon="-6.096359">
        <ele>28.06</ele>
        <time>2015-06-19T07:31:51Z</time>
      </trkpt>
      <trkpt lat="36.279418" lon="-6.096361">
        <ele>28.01</ele>
        <time>2015-06-19T07:31:52Z</time>
      </trkpt>
      <trkpt lat="36.279407" lon="-6.096389">
        <ele>28.01</ele>
        <time>2015-06-19T07:31:55Z</time>
      </trkpt>
      <trkpt lat="36.279409" lon="-6.096398">
        <ele>28.07</ele>
        <time>2015-06-19T07:31:58Z</time>
      </trkpt>
      <trkpt lat="36.279430" lon="-6.096512">
        <ele>28.05</ele>
        <time>2015-06-19T07:32:02Z</time>
      </trkpt>
      <trkpt lat="36.279433" lon="-6.096581">
        <ele>27.41</ele>
        <time>2015-06-19T07:32:05Z</time>
      </trkpt>
      <trkpt lat="36.279442" lon="-6.096624">
        <ele>27.07</ele>
        <time>2015-06-19T07:32:06Z</time>
      </trkpt>
      <trkpt lat="36.279449" lon="-6.096666">
        <ele>26.47</ele>
        <time>2015-06-19T07:32:07Z</time>
      </trkpt>
      <trkpt lat="36.279456" lon="-6.096711">
        <ele>26.10</ele>
        <time>2015-06-19T07:32:08Z</time>
      </trkpt>
      <trkpt lat="36.279470" lon="-6.096749">
        <ele>25.26</ele>
        <time>2015-06-19T07:32:09Z</time>
      </trkpt>
      <trkpt lat="36.279476" lon="-6.096780">
        <ele>24.70</ele>
        <time>2015-06-19T07:32:10Z</time>
      </trkpt>
      <trkpt lat="36.279468" lon="-6.096807">
        <ele>24.02</ele>
        <time>2015-06-19T07:32:11Z</time>
      </trkpt>
      <trkpt lat="36.279468" lon="-6.096814">
        <ele>23.08</ele>
        <time>2015-06-19T07:32:12Z</time>
      </trkpt>
      <trkpt lat="36.279470" lon="-6.096812">
        <ele>22.21</ele>
        <time>2015-06-19T07:32:13Z</time>
      </trkpt>
      <trkpt lat="36.279470" lon="-6.096812">
        <ele>21.41</ele>
        <time>2015-06-19T07:32:14Z</time>
      </trkpt>
      <trkpt lat="36.279472" lon="-6.096816">
        <ele>20.65</ele>
        <time>2015-06-19T07:32:15Z</time>
      </trkpt>
      <trkpt lat="36.279472" lon="-6.096816">
        <ele>19.84</ele>
        <time>2015-06-19T07:32:16Z</time>
      </trkpt>
      <trkpt lat="36.279472" lon="-6.096816">
        <ele>19.86</ele>
        <time>2015-06-19T07:32:17Z</time>
      </trkpt>
      <trkpt lat="36.279472" lon="-6.096816">
        <ele>19.82</ele>
        <time>2015-06-19T07:32:20Z</time>
      </trkpt>
      <trkpt lat="36.279473" lon="-6.096832">
        <ele>19.84</ele>
        <time>2015-06-19T07:32:27Z</time>
      </trkpt>
      <trkpt lat="36.279481" lon="-6.096849">
        <ele>19.45</ele>
        <time>2015-06-19T07:32:29Z</time>
      </trkpt>
      <trkpt lat="36.279481" lon="-6.096854">
        <ele>19.07</ele>
        <time>2015-06-19T07:32:30Z</time>
      </trkpt>
      <trkpt lat="36.279479" lon="-6.096873">
        <ele>18.66</ele>
        <time>2015-06-19T07:32:31Z</time>
      </trkpt>
      <trkpt lat="36.279481" lon="-6.096892">
        <ele>18.25</ele>
        <time>2015-06-19T07:32:32Z</time>
      </trkpt>
      <trkpt lat="36.279479" lon="-6.096908">
        <ele>17.83</ele>
        <time>2015-06-19T07:32:33Z</time>
      </trkpt>
      <trkpt lat="36.279472" lon="-6.096944">
        <ele>17.82</ele>
        <time>2015-06-19T07:32:35Z</time>
      </trkpt>
      <trkpt lat="36.279452" lon="-6.096941">
        <ele>17.81</ele>
        <time>2015-06-19T07:32:37Z</time>
      </trkpt>
      <trkpt lat="36.279390" lon="-6.096888">
        <ele>17.84</ele>
        <time>2015-06-19T07:32:41Z</time>
      </trkpt>
      <trkpt lat="36.279363" lon="-6.096874">
        <ele>17.81</ele>
        <time>2015-06-19T07:32:42Z</time>
      </trkpt>
      <trkpt lat="36.279319" lon="-6.096841">
        <ele>17.89</ele>
        <time>2015-06-19T07:32:44Z</time>
      </trkpt>
      <trkpt lat="36.279295" lon="-6.096847">
        <ele>17.85</ele>
        <time>2015-06-19T07:32:45Z</time>
      </trkpt>
      <trkpt lat="36.279272" lon="-6.096866">
        <ele>17.87</ele>
        <time>2015-06-19T07:32:46Z</time>
      </trkpt>
      <trkpt lat="36.279186" lon="-6.096924">
        <ele>17.43</ele>
        <time>2015-06-19T07:32:50Z</time>
      </trkpt>
      <trkpt lat="36.279166" lon="-6.096925">
        <ele>17.05</ele>
        <time>2015-06-19T07:32:51Z</time>
      </trkpt>
      <trkpt lat="36.279154" lon="-6.096916">
        <ele>16.63</ele>
        <time>2015-06-19T07:32:52Z</time>
      </trkpt>
      <trkpt lat="36.279141" lon="-6.096896">
        <ele>16.25</ele>
        <time>2015-06-19T07:32:53Z</time>
      </trkpt>
      <trkpt lat="36.279117" lon="-6.096869">
        <ele>15.83</ele>
        <time>2015-06-19T07:32:54Z</time>
      </trkpt>
      <trkpt lat="36.279074" lon="-6.096805">
        <ele>15.82</ele>
        <time>2015-06-19T07:32:56Z</time>
      </trkpt>
      <trkpt lat="36.279022" lon="-6.096740">
        <ele>15.81</ele>
        <time>2015-06-19T07:32:58Z</time>
      </trkpt>
      <trkpt lat="36.278994" lon="-6.096679">
        <ele>15.86</ele>
        <time>2015-06-19T07:33:00Z</time>
      </trkpt>
      <trkpt lat="36.278988" lon="-6.096641">
        <ele>15.82</ele>
        <time>2015-06-19T07:33:01Z</time>
      </trkpt>
      <trkpt lat="36.278961" lon="-6.096394">
        <ele>15.82</ele>
        <time>2015-06-19T07:33:07Z</time>
      </trkpt>
      <trkpt lat="36.278919" lon="-6.096280">
        <ele>15.82</ele>
        <time>2015-06-19T07:33:10Z</time>
      </trkpt>
      <trkpt lat="36.278891" lon="-6.096197">
        <ele>15.87</ele>
        <time>2015-06-19T07:33:12Z</time>
      </trkpt>
      <trkpt lat="36.278827" lon="-6.096129">
        <ele>15.88</ele>
        <time>2015-06-19T07:33:14Z</time>
      </trkpt>
      <trkpt lat="36.278732" lon="-6.096080">
        <ele>15.82</ele>
        <time>2015-06-19T07:33:16Z</time>
      </trkpt>
      <trkpt lat="36.278462" lon="-6.095886">
        <ele>15.89</ele>
        <time>2015-06-19T07:33:22Z</time>
      </trkpt>
      <trkpt lat="36.278395" lon="-6.095830">
        <ele>15.86</ele>
        <time>2015-06-19T07:33:24Z</time>
      </trkpt>
      <trkpt lat="36.278300" lon="-6.095753">
        <ele>15.81</ele>
        <time>2015-06-19T07:33:27Z</time>
      </trkpt>
      <trkpt lat="36.278257" lon="-6.095740">
        <ele>15.82</ele>
        <time>2015-06-19T07:33:28Z</time>
      </trkpt>
      <trkpt lat="36.278121" lon="-6.095669">
        <ele>15.81</ele>
        <time>2015-06-19T07:33:31Z</time>
      </trkpt>
      <trkpt lat="36.278013" lon="-6.095561">
        <ele>15.86</ele>
        <time>2015-06-19T07:33:34Z</time>
      </trkpt>
      <trkpt lat="36.277981" lon="-6.095527">
        <ele>15.48</ele>
        <time>2015-06-19T07:33:35Z</time>
      </trkpt>
      <trkpt lat="36.277959" lon="-6.095498">
        <ele>14.89</ele>
        <time>2015-06-19T07:33:36Z</time>
      </trkpt>
      <trkpt lat="36.277936" lon="-6.095474">
        <ele>14.47</ele>
        <time>2015-06-19T07:33:37Z</time>
      </trkpt>
      <trkpt lat="36.277909" lon="-6.095446">
        <ele>14.01</ele>
        <time>2015-06-19T07:33:38Z</time>
      </trkpt>
      <trkpt lat="36.277884" lon="-6.095414">
        <ele>13.65</ele>
        <time>2015-06-19T07:33:39Z</time>
      </trkpt>
      <trkpt lat="36.277829" lon="-6.095351">
        <ele>13.68</ele>
        <time>2015-06-19T07:33:41Z</time>
      </trkpt>
      <trkpt lat="36.277802" lon="-6.095315">
        <ele>13.70</ele>
        <time>2015-06-19T07:33:42Z</time>
      </trkpt>
      <trkpt lat="36.277635" lon="-6.095094">
        <ele>13.65</ele>
        <time>2015-06-19T07:33:48Z</time>
      </trkpt>
      <trkpt lat="36.277442" lon="-6.094862">
        <ele>13.60</ele>
        <time>2015-06-19T07:33:54Z</time>
      </trkpt>
      <trkpt lat="36.277409" lon="-6.094818">
        <ele>13.61</ele>
        <time>2015-06-19T07:33:55Z</time>
      </trkpt>
      <trkpt lat="36.277286" lon="-6.094690">
        <ele>13.61</ele>
        <time>2015-06-19T07:33:59Z</time>
      </trkpt>
      <trkpt lat="36.277114" lon="-6.094543">
        <ele>13.62</ele>
        <time>2015-06-19T07:34:05Z</time>
      </trkpt>
      <trkpt lat="36.277054" lon="-6.094475">
        <ele>13.63</ele>
        <time>2015-06-19T07:34:07Z</time>
      </trkpt>
      <trkpt lat="36.276993" lon="-6.094408">
        <ele>13.65</ele>
        <time>2015-06-19T07:34:09Z</time>
      </trkpt>
      <trkpt lat="36.276845" lon="-6.094267">
        <ele>13.68</ele>
        <time>2015-06-19T07:34:14Z</time>
      </trkpt>
      <trkpt lat="36.276772" lon="-6.094192">
        <ele>13.65</ele>
        <time>2015-06-19T07:34:17Z</time>
      </trkpt>
      <trkpt lat="36.276697" lon="-6.094127">
        <ele>13.65</ele>
        <time>2015-06-19T07:34:20Z</time>
      </trkpt>
      <trkpt lat="36.276649" lon="-6.094016">
        <ele>13.65</ele>
        <time>2015-06-19T07:34:24Z</time>
      </trkpt>
      <trkpt lat="36.276579" lon="-6.093827">
        <ele>13.62</ele>
        <time>2015-06-19T07:34:29Z</time>
      </trkpt>
      <trkpt lat="36.276541" lon="-6.093790">
        <ele>13.66</ele>
        <time>2015-06-19T07:34:30Z</time>
      </trkpt>
      <trkpt lat="36.276461" lon="-6.093727">
        <ele>13.61</ele>
        <time>2015-06-19T07:34:32Z</time>
      </trkpt>
      <trkpt lat="36.276418" lon="-6.093712">
        <ele>13.62</ele>
        <time>2015-06-19T07:34:33Z</time>
      </trkpt>
      <trkpt lat="36.276271" lon="-6.093598">
        <ele>13.61</ele>
        <time>2015-06-19T07:34:37Z</time>
      </trkpt>
      <trkpt lat="36.276214" lon="-6.093512">
        <ele>13.70</ele>
        <time>2015-06-19T07:34:39Z</time>
      </trkpt>
      <trkpt lat="36.276141" lon="-6.093368">
        <ele>13.64</ele>
        <time>2015-06-19T07:34:42Z</time>
      </trkpt>
      <trkpt lat="36.276068" lon="-6.093287">
        <ele>13.63</ele>
        <time>2015-06-19T07:34:44Z</time>
      </trkpt>
      <trkpt lat="36.275961" lon="-6.093173">
        <ele>13.64</ele>
        <time>2015-06-19T07:34:47Z</time>
      </trkpt>
      <trkpt lat="36.275894" lon="-6.093098">
        <ele>13.63</ele>
        <time>2015-06-19T07:34:49Z</time>
      </trkpt>
      <trkpt lat="36.275599" lon="-6.092739">
        <ele>13.62</ele>
        <time>2015-06-19T07:34:58Z</time>
      </trkpt>
      <trkpt lat="36.275443" lon="-6.092549">
        <ele>13.65</ele>
        <time>2015-06-19T07:35:03Z</time>
      </trkpt>
      <trkpt lat="36.275359" lon="-6.092454">
        <ele>13.69</ele>
        <time>2015-06-19T07:35:06Z</time>
      </trkpt>
      <trkpt lat="36.275258" lon="-6.092356">
        <ele>13.66</ele>
        <time>2015-06-19T07:35:10Z</time>
      </trkpt>
      <trkpt lat="36.275188" lon="-6.092290">
        <ele>13.62</ele>
        <time>2015-06-19T07:35:13Z</time>
      </trkpt>
      <trkpt lat="36.275170" lon="-6.092269">
        <ele>5.01</ele>
        <time>2015-06-19T07:35:14Z</time>
      </trkpt>
      <trkpt lat="36.275105" lon="-6.092215">
        <ele>5.01</ele>
        <time>2015-06-19T07:35:17Z</time>
      </trkpt>
      <trkpt lat="36.275081" lon="-6.092195">
        <ele>6.43</ele>
        <time>2015-06-19T07:35:18Z</time>
      </trkpt>
      <trkpt lat="36.275033" lon="-6.092141">
        <ele>6.43</ele>
        <time>2015-06-19T07:35:20Z</time>
      </trkpt>
      <trkpt lat="36.274783" lon="-6.091896">
        <ele>6.44</ele>
        <time>2015-06-19T07:35:28Z</time>
      </trkpt>
      <trkpt lat="36.274603" lon="-6.091705">
        <ele>6.50</ele>
        <time>2015-06-19T07:35:34Z</time>
      </trkpt>
      <trkpt lat="36.274541" lon="-6.091637">
        <ele>6.45</ele>
        <time>2015-06-19T07:35:36Z</time>
      </trkpt>
      <trkpt lat="36.274506" lon="-6.091606">
        <ele>6.41</ele>
        <time>2015-06-19T07:35:37Z</time>
      </trkpt>
      <trkpt lat="36.274433" lon="-6.091560">
        <ele>6.50</ele>
        <time>2015-06-19T07:35:39Z</time>
      </trkpt>
      <trkpt lat="36.274349" lon="-6.091549">
        <ele>6.43</ele>
        <time>2015-06-19T07:35:41Z</time>
      </trkpt>
      <trkpt lat="36.274306" lon="-6.091526">
        <ele>6.46</ele>
        <time>2015-06-19T07:35:42Z</time>
      </trkpt>
      <trkpt lat="36.274225" lon="-6.091453">
        <ele>6.41</ele>
        <time>2015-06-19T07:35:44Z</time>
      </trkpt>
      <trkpt lat="36.274184" lon="-6.091413">
        <ele>6.42</ele>
        <time>2015-06-19T07:35:45Z</time>
      </trkpt>
      <trkpt lat="36.274106" lon="-6.091336">
        <ele>6.41</ele>
        <time>2015-06-19T07:35:47Z</time>
      </trkpt>
      <trkpt lat="36.274023" lon="-6.091254">
        <ele>6.50</ele>
        <time>2015-06-19T07:35:49Z</time>
      </trkpt>
      <trkpt lat="36.273858" lon="-6.091096">
        <ele>6.41</ele>
        <time>2015-06-19T07:35:53Z</time>
      </trkpt>
      <trkpt lat="36.273469" lon="-6.090776">
        <ele>6.45</ele>
        <time>2015-06-19T07:36:02Z</time>
      </trkpt>
      <trkpt lat="36.273170" lon="-6.090532">
        <ele>6.46</ele>
        <time>2015-06-19T07:36:09Z</time>
      </trkpt>
      <trkpt lat="36.272957" lon="-6.090345">
        <ele>6.46</ele>
        <time>2015-06-19T07:36:15Z</time>
      </trkpt>
      <trkpt lat="36.272640" lon="-6.090057">
        <ele>6.44</ele>
        <time>2015-06-19T07:36:23Z</time>
      </trkpt>
      <trkpt lat="36.272430" lon="-6.089891">
        <ele>6.49</ele>
        <time>2015-06-19T07:36:28Z</time>
      </trkpt>
      <trkpt lat="36.272332" lon="-6.089870">
        <ele>6.47</ele>
        <time>2015-06-19T07:36:30Z</time>
      </trkpt>
      <trkpt lat="36.272238" lon="-6.089841">
        <ele>6.49</ele>
        <time>2015-06-19T07:36:32Z</time>
      </trkpt>
      <trkpt lat="36.272003" lon="-6.089757">
        <ele>6.42</ele>
        <time>2015-06-19T07:36:37Z</time>
      </trkpt>
      <trkpt lat="36.271828" lon="-6.089683">
        <ele>6.43</ele>
        <time>2015-06-19T07:36:41Z</time>
      </trkpt>
      <trkpt lat="36.271767" lon="-6.089595">
        <ele>6.41</ele>
        <time>2015-06-19T07:36:43Z</time>
      </trkpt>
      <trkpt lat="36.271689" lon="-6.089434">
        <ele>6.49</ele>
        <time>2015-06-19T07:36:46Z</time>
      </trkpt>
      <trkpt lat="36.271658" lon="-6.089384">
        <ele>6.45</ele>
        <time>2015-06-19T07:36:47Z</time>
      </trkpt>
      <trkpt lat="36.271518" lon="-6.089200">
        <ele>6.42</ele>
        <time>2015-06-19T07:36:51Z</time>
      </trkpt>
      <trkpt lat="36.271409" lon="-6.089070">
        <ele>6.44</ele>
        <time>2015-06-19T07:36:54Z</time>
      </trkpt>
      <trkpt lat="36.271174" lon="-6.088758">
        <ele>6.41</ele>
        <time>2015-06-19T07:37:01Z</time>
      </trkpt>
      <trkpt lat="36.271127" lon="-6.088662">
        <ele>6.45</ele>
        <time>2015-06-19T07:37:03Z</time>
      </trkpt>
      <trkpt lat="36.271018" lon="-6.088417">
        <ele>6.47</ele>
        <time>2015-06-19T07:37:09Z</time>
      </trkpt>
      <trkpt lat="36.270958" lon="-6.088220">
        <ele>6.48</ele>
        <time>2015-06-19T07:37:15Z</time>
      </trkpt>
      <trkpt lat="36.270931" lon="-6.087939">
        <ele>6.47</ele>
        <time>2015-06-19T07:37:21Z</time>
      </trkpt>
      <trkpt lat="36.270838" lon="-6.087775">
        <ele>6.43</ele>
        <time>2015-06-19T07:37:25Z</time>
      </trkpt>
      <trkpt lat="36.270746" lon="-6.087718">
        <ele>6.42</ele>
        <time>2015-06-19T07:37:28Z</time>
      </trkpt>
      <trkpt lat="36.270693" lon="-6.087686">
        <ele>6.41</ele>
        <time>2015-06-19T07:37:30Z</time>
      </trkpt>
      <trkpt lat="36.270614" lon="-6.087637">
        <ele>6.47</ele>
        <time>2015-06-19T07:37:33Z</time>
      </trkpt>
      <trkpt lat="36.270534" lon="-6.087578">
        <ele>6.43</ele>
        <time>2015-06-19T07:37:36Z</time>
      </trkpt>
      <trkpt lat="36.270461" lon="-6.087534">
        <ele>6.49</ele>
        <time>2015-06-19T07:37:39Z</time>
      </trkpt>
      <trkpt lat="36.270392" lon="-6.087493">
        <ele>7.27</ele>
        <time>2015-06-19T07:37:43Z</time>
      </trkpt>
      <trkpt lat="36.270378" lon="-6.087483">
        <ele>7.66</ele>
        <time>2015-06-19T07:37:44Z</time>
      </trkpt>
      <trkpt lat="36.270363" lon="-6.087473">
        <ele>8.02</ele>
        <time>2015-06-19T07:37:45Z</time>
      </trkpt>
      <trkpt lat="36.270350" lon="-6.087464">
        <ele>8.46</ele>
        <time>2015-06-19T07:37:46Z</time>
      </trkpt>
      <trkpt lat="36.270333" lon="-6.087455">
        <ele>8.49</ele>
        <time>2015-06-19T07:37:47Z</time>
      </trkpt>
      <trkpt lat="36.270240" lon="-6.087394">
        <ele>8.49</ele>
        <time>2015-06-19T07:37:52Z</time>
      </trkpt>
      <trkpt lat="36.270209" lon="-6.087381">
        <ele>8.46</ele>
        <time>2015-06-19T07:37:53Z</time>
      </trkpt>
      <trkpt lat="36.270104" lon="-6.087311">
        <ele>8.42</ele>
        <time>2015-06-19T07:37:56Z</time>
      </trkpt>
      <trkpt lat="36.270015" lon="-6.087255">
        <ele>8.41</ele>
        <time>2015-06-19T07:37:58Z</time>
      </trkpt>
      <trkpt lat="36.269941" lon="-6.087193">
        <ele>8.07</ele>
        <time>2015-06-19T07:38:00Z</time>
      </trkpt>
      <trkpt lat="36.269907" lon="-6.087164">
        <ele>7.70</ele>
        <time>2015-06-19T07:38:01Z</time>
      </trkpt>
      <trkpt lat="36.269870" lon="-6.087148">
        <ele>7.22</ele>
        <time>2015-06-19T07:38:02Z</time>
      </trkpt>
      <trkpt lat="36.269838" lon="-6.087134">
        <ele>6.85</ele>
        <time>2015-06-19T07:38:03Z</time>
      </trkpt>
      <trkpt lat="36.269806" lon="-6.087119">
        <ele>6.41</ele>
        <time>2015-06-19T07:38:04Z</time>
      </trkpt>
      <trkpt lat="36.269681" lon="-6.087020">
        <ele>6.42</ele>
        <time>2015-06-19T07:38:09Z</time>
      </trkpt>
      <trkpt lat="36.269565" lon="-6.086911">
        <ele>6.45</ele>
        <time>2015-06-19T07:38:15Z</time>
      </trkpt>
      <trkpt lat="36.269465" lon="-6.086837">
        <ele>6.48</ele>
        <time>2015-06-19T07:38:19Z</time>
      </trkpt>
      <trkpt lat="36.269388" lon="-6.086782">
        <ele>6.42</ele>
        <time>2015-06-19T07:38:22Z</time>
      </trkpt>
      <trkpt lat="36.269194" lon="-6.086641">
        <ele>6.41</ele>
        <time>2015-06-19T07:38:28Z</time>
      </trkpt>
      <trkpt lat="36.269161" lon="-6.086611">
        <ele>6.42</ele>
        <time>2015-06-19T07:38:29Z</time>
      </trkpt>
      <trkpt lat="36.269017" lon="-6.086509">
        <ele>6.41</ele>
        <time>2015-06-19T07:38:33Z</time>
      </trkpt>
      <trkpt lat="36.268871" lon="-6.086399">
        <ele>6.48</ele>
        <time>2015-06-19T07:38:37Z</time>
      </trkpt>
      <trkpt lat="36.268636" lon="-6.086263">
        <ele>6.47</ele>
        <time>2015-06-19T07:38:43Z</time>
      </trkpt>
      <trkpt lat="36.268590" lon="-6.086253">
        <ele>6.43</ele>
        <time>2015-06-19T07:38:44Z</time>
      </trkpt>
      <trkpt lat="36.268400" lon="-6.086209">
        <ele>6.43</ele>
        <time>2015-06-19T07:38:48Z</time>
      </trkpt>
      <trkpt lat="36.268259" lon="-6.086153">
        <ele>6.09</ele>
        <time>2015-06-19T07:38:51Z</time>
      </trkpt>
      <trkpt lat="36.268221" lon="-6.086128">
        <ele>5.69</ele>
        <time>2015-06-19T07:38:52Z</time>
      </trkpt>
      <trkpt lat="36.268187" lon="-6.086102">
        <ele>5.25</ele>
        <time>2015-06-19T07:38:53Z</time>
      </trkpt>
      <trkpt lat="36.268142" lon="-6.086086">
        <ele>4.88</ele>
        <time>2015-06-19T07:38:54Z</time>
      </trkpt>
      <trkpt lat="36.268107" lon="-6.086065">
        <ele>4.50</ele>
        <time>2015-06-19T07:38:55Z</time>
      </trkpt>
      <trkpt lat="36.268074" lon="-6.086050">
        <ele>4.42</ele>
        <time>2015-06-19T07:38:56Z</time>
      </trkpt>
      <trkpt lat="36.268040" lon="-6.086005">
        <ele>4.42</ele>
        <time>2015-06-19T07:38:59Z</time>
      </trkpt>
      <trkpt lat="36.267967" lon="-6.085948">
        <ele>4.41</ele>
        <time>2015-06-19T07:39:04Z</time>
      </trkpt>
      <trkpt lat="36.267952" lon="-6.085943">
        <ele>4.41</ele>
        <time>2015-06-19T07:39:05Z</time>
      </trkpt>
      <trkpt lat="36.267899" lon="-6.085918">
        <ele>4.47</ele>
        <time>2015-06-19T07:39:10Z</time>
      </trkpt>
      <trkpt lat="36.267888" lon="-6.085918">
        <ele>4.48</ele>
        <time>2015-06-19T07:39:16Z</time>
      </trkpt>
      <trkpt lat="36.267843" lon="-6.085888">
        <ele>4.50</ele>
        <time>2015-06-19T07:39:21Z</time>
      </trkpt>
      <trkpt lat="36.267839" lon="-6.085890">
        <ele>4.46</ele>
        <time>2015-06-19T07:39:22Z</time>
      </trkpt>
      <trkpt lat="36.267832" lon="-6.085886">
        <ele>4.45</ele>
        <time>2015-06-19T07:39:23Z</time>
      </trkpt>
      <trkpt lat="36.267803" lon="-6.085877">
        <ele>4.43</ele>
        <time>2015-06-19T07:39:27Z</time>
      </trkpt>
      <trkpt lat="36.267799" lon="-6.085875">
        <ele>4.46</ele>
        <time>2015-06-19T07:39:28Z</time>
      </trkpt>
      <trkpt lat="36.267768" lon="-6.085813">
        <ele>4.48</ele>
        <time>2015-06-19T07:39:32Z</time>
      </trkpt>
      <trkpt lat="36.267763" lon="-6.085797">
        <ele>4.41</ele>
        <time>2015-06-19T07:39:33Z</time>
      </trkpt>
      <trkpt lat="36.267757" lon="-6.085794">
        <ele>4.42</ele>
        <time>2015-06-19T07:39:37Z</time>
      </trkpt>
      <trkpt lat="36.267734" lon="-6.085778">
        <ele>4.41</ele>
        <time>2015-06-19T07:39:42Z</time>
      </trkpt>
      <trkpt lat="36.267717" lon="-6.085760">
        <ele>4.45</ele>
        <time>2015-06-19T07:39:44Z</time>
      </trkpt>
      <trkpt lat="36.267671" lon="-6.085717">
        <ele>4.42</ele>
        <time>2015-06-19T07:39:50Z</time>
      </trkpt>
      <trkpt lat="36.267632" lon="-6.085679">
        <ele>4.49</ele>
        <time>2015-06-19T07:39:55Z</time>
      </trkpt>
      <trkpt lat="36.267591" lon="-6.085648">
        <ele>4.44</ele>
        <time>2015-06-19T07:40:00Z</time>
      </trkpt>
      <trkpt lat="36.267558" lon="-6.085615">
        <ele>4.46</ele>
        <time>2015-06-19T07:40:06Z</time>
      </trkpt>
      <trkpt lat="36.267552" lon="-6.085613">
        <ele>4.49</ele>
        <time>2015-06-19T07:40:07Z</time>
      </trkpt>
      <trkpt lat="36.267523" lon="-6.085603">
        <ele>4.46</ele>
        <time>2015-06-19T07:40:13Z</time>
      </trkpt>
      <trkpt lat="36.267504" lon="-6.085579">
        <ele>4.47</ele>
        <time>2015-06-19T07:40:15Z</time>
      </trkpt>
      <trkpt lat="36.267503" lon="-6.085570">
        <ele>4.49</ele>
        <time>2015-06-19T07:40:17Z</time>
      </trkpt>
      <trkpt lat="36.267487" lon="-6.085559">
        <ele>4.46</ele>
        <time>2015-06-19T07:40:20Z</time>
      </trkpt>
      <trkpt lat="36.267464" lon="-6.085552">
        <ele>4.42</ele>
        <time>2015-06-19T07:40:22Z</time>
      </trkpt>
      <trkpt lat="36.267435" lon="-6.085538">
        <ele>4.41</ele>
        <time>2015-06-19T07:40:26Z</time>
      </trkpt>
      <trkpt lat="36.267421" lon="-6.085522">
        <ele>4.42</ele>
        <time>2015-06-19T07:40:28Z</time>
      </trkpt>
      <trkpt lat="36.267398" lon="-6.085499">
        <ele>4.44</ele>
        <time>2015-06-19T07:40:31Z</time>
      </trkpt>
      <trkpt lat="36.267366" lon="-6.085462">
        <ele>4.46</ele>
        <time>2015-06-19T07:40:36Z</time>
      </trkpt>
      <trkpt lat="36.267330" lon="-6.085434">
        <ele>4.44</ele>
        <time>2015-06-19T07:40:42Z</time>
      </trkpt>
      <trkpt lat="36.267313" lon="-6.085422">
        <ele>4.49</ele>
        <time>2015-06-19T07:40:43Z</time>
      </trkpt>
      <trkpt lat="36.267292" lon="-6.085407">
        <ele>4.42</ele>
        <time>2015-06-19T07:40:46Z</time>
      </trkpt>
      <trkpt lat="36.267277" lon="-6.085397">
        <ele>4.46</ele>
        <time>2015-06-19T07:40:47Z</time>
      </trkpt>
      <trkpt lat="36.267162" lon="-6.085384">
        <ele>4.47</ele>
        <time>2015-06-19T07:40:53Z</time>
      </trkpt>
      <trkpt lat="36.267109" lon="-6.085379">
        <ele>4.48</ele>
        <time>2015-06-19T07:40:56Z</time>
      </trkpt>
      <trkpt lat="36.267076" lon="-6.085351">
        <ele>4.46</ele>
        <time>2015-06-19T07:40:58Z</time>
      </trkpt>
      <trkpt lat="36.266986" lon="-6.085214">
        <ele>4.43</ele>
        <time>2015-06-19T07:41:04Z</time>
      </trkpt>
      <trkpt lat="36.266938" lon="-6.085117">
        <ele>4.41</ele>
        <time>2015-06-19T07:41:09Z</time>
      </trkpt>
      <trkpt lat="36.266904" lon="-6.085087">
        <ele>4.47</ele>
        <time>2015-06-19T07:41:11Z</time>
      </trkpt>
      <trkpt lat="36.266858" lon="-6.085074">
        <ele>4.49</ele>
        <time>2015-06-19T07:41:13Z</time>
      </trkpt>
      <trkpt lat="36.266811" lon="-6.084981">
        <ele>4.50</ele>
        <time>2015-06-19T07:41:17Z</time>
      </trkpt>
      <trkpt lat="36.266725" lon="-6.084824">
        <ele>4.48</ele>
        <time>2015-06-19T07:41:23Z</time>
      </trkpt>
      <trkpt lat="36.266599" lon="-6.084632">
        <ele>4.48</ele>
        <time>2015-06-19T07:41:31Z</time>
      </trkpt>
      <trkpt lat="36.266504" lon="-6.084562">
        <ele>4.41</ele>
        <time>2015-06-19T07:41:36Z</time>
      </trkpt>
      <trkpt lat="36.266366" lon="-6.084428">
        <ele>4.44</ele>
        <time>2015-06-19T07:41:43Z</time>
      </trkpt>
      <trkpt lat="36.266252" lon="-6.084324">
        <ele>4.41</ele>
        <time>2015-06-19T07:41:49Z</time>
      </trkpt>
      <trkpt lat="36.266155" lon="-6.084195">
        <ele>4.49</ele>
        <time>2015-06-19T07:41:54Z</time>
      </trkpt>
      <trkpt lat="36.266090" lon="-6.084131">
        <ele>4.44</ele>
        <time>2015-06-19T07:41:59Z</time>
      </trkpt>
      <trkpt lat="36.266045" lon="-6.084074">
        <ele>4.43</ele>
        <time>2015-06-19T07:42:04Z</time>
      </trkpt>
      <trkpt lat="36.266028" lon="-6.084053">
        <ele>4.41</ele>
        <time>2015-06-19T07:42:06Z</time>
      </trkpt>
      <trkpt lat="36.266012" lon="-6.084047">
        <ele>4.48</ele>
        <time>2015-06-19T07:42:07Z</time>
      </trkpt>
      <trkpt lat="36.265896" lon="-6.084005">
        <ele>4.42</ele>
        <time>2015-06-19T07:42:12Z</time>
      </trkpt>
      <trkpt lat="36.265866" lon="-6.083997">
        <ele>4.45</ele>
        <time>2015-06-19T07:42:13Z</time>
      </trkpt>
      <trkpt lat="36.265677" lon="-6.083930">
        <ele>4.44</ele>
        <time>2015-06-19T07:42:20Z</time>
      </trkpt>
      <trkpt lat="36.265498" lon="-6.083871">
        <ele>4.47</ele>
        <time>2015-06-19T07:42:26Z</time>
      </trkpt>
      <trkpt lat="36.265278" lon="-6.083779">
        <ele>4.42</ele>
        <time>2015-06-19T07:42:32Z</time>
      </trkpt>
      <trkpt lat="36.265199" lon="-6.083739">
        <ele>4.42</ele>
        <time>2015-06-19T07:42:34Z</time>
      </trkpt>
      <trkpt lat="36.265120" lon="-6.083697">
        <ele>4.41</ele>
        <time>2015-06-19T07:42:36Z</time>
      </trkpt>
      <trkpt lat="36.265033" lon="-6.083657">
        <ele>4.49</ele>
        <time>2015-06-19T07:42:38Z</time>
      </trkpt>
      <trkpt lat="36.264911" lon="-6.083590">
        <ele>4.47</ele>
        <time>2015-06-19T07:42:41Z</time>
      </trkpt>
      <trkpt lat="36.264699" lon="-6.083508">
        <ele>4.42</ele>
        <time>2015-06-19T07:42:46Z</time>
      </trkpt>
      <trkpt lat="36.264482" lon="-6.083441">
        <ele>4.41</ele>
        <time>2015-06-19T07:42:51Z</time>
      </trkpt>
      <trkpt lat="36.264434" lon="-6.083426">
        <ele>4.46</ele>
        <time>2015-06-19T07:42:52Z</time>
      </trkpt>
      <trkpt lat="36.264340" lon="-6.083405">
        <ele>4.44</ele>
        <time>2015-06-19T07:42:54Z</time>
      </trkpt>
      <trkpt lat="36.264093" lon="-6.083362">
        <ele>4.41</ele>
        <time>2015-06-19T07:42:59Z</time>
      </trkpt>
      <trkpt lat="36.263887" lon="-6.083297">
        <ele>4.42</ele>
        <time>2015-06-19T07:43:04Z</time>
      </trkpt>
      <trkpt lat="36.263848" lon="-6.083278">
        <ele>4.48</ele>
        <time>2015-06-19T07:43:05Z</time>
      </trkpt>
      <trkpt lat="36.263602" lon="-6.083149">
        <ele>4.46</ele>
        <time>2015-06-19T07:43:11Z</time>
      </trkpt>
      <trkpt lat="36.263300" lon="-6.082992">
        <ele>4.44</ele>
        <time>2015-06-19T07:43:18Z</time>
      </trkpt>
      <trkpt lat="36.263030" lon="-6.082866">
        <ele>4.49</ele>
        <time>2015-06-19T07:43:24Z</time>
      </trkpt>
      <trkpt lat="36.262884" lon="-6.082863">
        <ele>4.49</ele>
        <time>2015-06-19T07:43:27Z</time>
      </trkpt>
      <trkpt lat="36.262791" lon="-6.082872">
        <ele>4.42</ele>
        <time>2015-06-19T07:43:29Z</time>
      </trkpt>
      <trkpt lat="36.262690" lon="-6.082879">
        <ele>4.43</ele>
        <time>2015-06-19T07:43:31Z</time>
      </trkpt>
      <trkpt lat="36.262599" lon="-6.082857">
        <ele>4.41</ele>
        <time>2015-06-19T07:43:33Z</time>
      </trkpt>
      <trkpt lat="36.262362" lon="-6.082825">
        <ele>4.44</ele>
        <time>2015-06-19T07:43:39Z</time>
      </trkpt>
      <trkpt lat="36.262155" lon="-6.082766">
        <ele>4.42</ele>
        <time>2015-06-19T07:43:44Z</time>
      </trkpt>
      <trkpt lat="36.262039" lon="-6.082776">
        <ele>4.44</ele>
        <time>2015-06-19T07:43:47Z</time>
      </trkpt>
      <trkpt lat="36.261996" lon="-6.082780">
        <ele>4.50</ele>
        <time>2015-06-19T07:43:48Z</time>
      </trkpt>
      <trkpt lat="36.261911" lon="-6.082780">
        <ele>4.45</ele>
        <time>2015-06-19T07:43:50Z</time>
      </trkpt>
      <trkpt lat="36.261832" lon="-6.082742">
        <ele>4.47</ele>
        <time>2015-06-19T07:43:52Z</time>
      </trkpt>
      <trkpt lat="36.261690" lon="-6.082680">
        <ele>4.45</ele>
        <time>2015-06-19T07:43:56Z</time>
      </trkpt>
      <trkpt lat="36.261656" lon="-6.082665">
        <ele>4.47</ele>
        <time>2015-06-19T07:43:57Z</time>
      </trkpt>
      <trkpt lat="36.261447" lon="-6.082561">
        <ele>4.46</ele>
        <time>2015-06-19T07:44:03Z</time>
      </trkpt>
      <trkpt lat="36.261317" lon="-6.082478">
        <ele>4.48</ele>
        <time>2015-06-19T07:44:08Z</time>
      </trkpt>
      <trkpt lat="36.261180" lon="-6.082510">
        <ele>4.41</ele>
        <time>2015-06-19T07:44:13Z</time>
      </trkpt>
      <trkpt lat="36.261063" lon="-6.082452">
        <ele>4.41</ele>
        <time>2015-06-19T07:44:17Z</time>
      </trkpt>
      <trkpt lat="36.260880" lon="-6.082354">
        <ele>4.46</ele>
        <time>2015-06-19T07:44:23Z</time>
      </trkpt>
      <trkpt lat="36.260643" lon="-6.082273">
        <ele>4.41</ele>
        <time>2015-06-19T07:44:30Z</time>
      </trkpt>
      <trkpt lat="36.260609" lon="-6.082260">
        <ele>4.45</ele>
        <time>2015-06-19T07:44:31Z</time>
      </trkpt>
      <trkpt lat="36.260429" lon="-6.082207">
        <ele>4.47</ele>
        <time>2015-06-19T07:44:37Z</time>
      </trkpt>
      <trkpt lat="36.260368" lon="-6.082184">
        <ele>4.88</ele>
        <time>2015-06-19T07:44:39Z</time>
      </trkpt>
      <trkpt lat="36.260337" lon="-6.082172">
        <ele>5.27</ele>
        <time>2015-06-19T07:44:40Z</time>
      </trkpt>
      <trkpt lat="36.260305" lon="-6.082160">
        <ele>5.64</ele>
        <time>2015-06-19T07:44:41Z</time>
      </trkpt>
      <trkpt lat="36.260272" lon="-6.082149">
        <ele>6.69</ele>
        <time>2015-06-19T07:44:42Z</time>
      </trkpt>
      <trkpt lat="36.260206" lon="-6.082129">
        <ele>6.63</ele>
        <time>2015-06-19T07:44:44Z</time>
      </trkpt>
      <trkpt lat="36.260006" lon="-6.082063">
        <ele>6.69</ele>
        <time>2015-06-19T07:44:51Z</time>
      </trkpt>
      <trkpt lat="36.259872" lon="-6.082018">
        <ele>6.61</ele>
        <time>2015-06-19T07:44:56Z</time>
      </trkpt>
      <trkpt lat="36.259699" lon="-6.081960">
        <ele>6.61</ele>
        <time>2015-06-19T07:45:01Z</time>
      </trkpt>
      <trkpt lat="36.259420" lon="-6.081833">
        <ele>6.66</ele>
        <time>2015-06-19T07:45:08Z</time>
      </trkpt>
      <trkpt lat="36.259090" lon="-6.081677">
        <ele>6.61</ele>
        <time>2015-06-19T07:45:16Z</time>
      </trkpt>
      <trkpt lat="36.258879" lon="-6.081608">
        <ele>6.61</ele>
        <time>2015-06-19T07:45:22Z</time>
      </trkpt>
      <trkpt lat="36.258661" lon="-6.081528">
        <ele>6.66</ele>
        <time>2015-06-19T07:45:28Z</time>
      </trkpt>
      <trkpt lat="36.258407" lon="-6.081446">
        <ele>6.69</ele>
        <time>2015-06-19T07:45:35Z</time>
      </trkpt>
      <trkpt lat="36.258234" lon="-6.081384">
        <ele>6.67</ele>
        <time>2015-06-19T07:45:40Z</time>
      </trkpt>
      <trkpt lat="36.258029" lon="-6.081323">
        <ele>6.61</ele>
        <time>2015-06-19T07:45:46Z</time>
      </trkpt>
      <trkpt lat="36.257776" lon="-6.081247">
        <ele>6.66</ele>
        <time>2015-06-19T07:45:53Z</time>
      </trkpt>
      <trkpt lat="36.257550" lon="-6.081194">
        <ele>6.68</ele>
        <time>2015-06-19T07:46:00Z</time>
      </trkpt>
      <trkpt lat="36.257373" lon="-6.081197">
        <ele>6.66</ele>
        <time>2015-06-19T07:46:05Z</time>
      </trkpt>
      <trkpt lat="36.257156" lon="-6.081119">
        <ele>6.63</ele>
        <time>2015-06-19T07:46:11Z</time>
      </trkpt>
      <trkpt lat="36.257122" lon="-6.081100">
        <ele>6.21</ele>
        <time>2015-06-19T07:46:12Z</time>
      </trkpt>
      <trkpt lat="36.257089" lon="-6.081083">
        <ele>5.83</ele>
        <time>2015-06-19T07:46:13Z</time>
      </trkpt>
      <trkpt lat="36.257058" lon="-6.081067">
        <ele>5.48</ele>
        <time>2015-06-19T07:46:14Z</time>
      </trkpt>
      <trkpt lat="36.257029" lon="-6.081050">
        <ele>5.07</ele>
        <time>2015-06-19T07:46:15Z</time>
      </trkpt>
      <trkpt lat="36.256999" lon="-6.081034">
        <ele>4.65</ele>
        <time>2015-06-19T07:46:16Z</time>
      </trkpt>
      <trkpt lat="36.256936" lon="-6.081006">
        <ele>4.66</ele>
        <time>2015-06-19T07:46:18Z</time>
      </trkpt>
      <trkpt lat="36.256745" lon="-6.080895">
        <ele>4.61</ele>
        <time>2015-06-19T07:46:24Z</time>
      </trkpt>
      <trkpt lat="36.256553" lon="-6.080790">
        <ele>4.65</ele>
        <time>2015-06-19T07:46:30Z</time>
      </trkpt>
      <trkpt lat="36.256307" lon="-6.080693">
        <ele>4.68</ele>
        <time>2015-06-19T07:46:37Z</time>
      </trkpt>
      <trkpt lat="36.256148" lon="-6.080642">
        <ele>4.67</ele>
        <time>2015-06-19T07:46:42Z</time>
      </trkpt>
      <trkpt lat="36.255958" lon="-6.080559">
        <ele>4.63</ele>
        <time>2015-06-19T07:46:48Z</time>
      </trkpt>
      <trkpt lat="36.255749" lon="-6.080490">
        <ele>4.62</ele>
        <time>2015-06-19T07:46:55Z</time>
      </trkpt>
      <trkpt lat="36.255569" lon="-6.080417">
        <ele>4.61</ele>
        <time>2015-06-19T07:47:02Z</time>
      </trkpt>
      <trkpt lat="36.255309" lon="-6.080337">
        <ele>4.64</ele>
        <time>2015-06-19T07:47:11Z</time>
      </trkpt>
      <trkpt lat="36.255132" lon="-6.080282">
        <ele>4.63</ele>
        <time>2015-06-19T07:47:17Z</time>
      </trkpt>
      <trkpt lat="36.254954" lon="-6.080256">
        <ele>4.65</ele>
        <time>2015-06-19T07:47:23Z</time>
      </trkpt>
      <trkpt lat="36.254673" lon="-6.080184">
        <ele>4.67</ele>
        <time>2015-06-19T07:47:32Z</time>
      </trkpt>
      <trkpt lat="36.254516" lon="-6.080147">
        <ele>4.62</ele>
        <time>2015-06-19T07:47:37Z</time>
      </trkpt>
      <trkpt lat="36.254328" lon="-6.080093">
        <ele>4.61</ele>
        <time>2015-06-19T07:47:43Z</time>
      </trkpt>
      <trkpt lat="36.254133" lon="-6.080095">
        <ele>4.66</ele>
        <time>2015-06-19T07:47:49Z</time>
      </trkpt>
      <trkpt lat="36.253942" lon="-6.080098">
        <ele>4.64</ele>
        <time>2015-06-19T07:47:55Z</time>
      </trkpt>
      <trkpt lat="36.253785" lon="-6.080010">
        <ele>4.63</ele>
        <time>2015-06-19T07:48:00Z</time>
      </trkpt>
      <trkpt lat="36.253729" lon="-6.079980">
        <ele>4.69</ele>
        <time>2015-06-19T07:48:04Z</time>
      </trkpt>
      <trkpt lat="36.253727" lon="-6.079977">
        <ele>4.61</ele>
        <time>2015-06-19T07:48:05Z</time>
      </trkpt>
      <trkpt lat="36.253727" lon="-6.079977">
        <ele>4.61</ele>
        <time>2015-06-19T07:48:11Z</time>
      </trkpt>
      <trkpt lat="36.253727" lon="-6.079977">
        <ele>4.63</ele>
        <time>2015-06-19T07:48:19Z</time>
      </trkpt>
      <trkpt lat="36.253727" lon="-6.079977">
        <ele>4.69</ele>
        <time>2015-06-19T07:48:20Z</time>
      </trkpt>
      <trkpt lat="36.253727" lon="-6.079977">
        <ele>4.61</ele>
        <time>2015-06-19T07:48:22Z</time>
      </trkpt>
      <trkpt lat="36.253727" lon="-6.079977">
        <ele>4.61</ele>
        <time>2015-06-19T07:48:26Z</time>
      </trkpt>
      <trkpt lat="36.253727" lon="-6.079977">
        <ele>4.64</ele>
        <time>2015-06-19T07:48:28Z</time>
      </trkpt>
      <trkpt lat="36.253727" lon="-6.079977">
        <ele>4.67</ele>
        <time>2015-06-19T07:48:36Z</time>
      </trkpt>
      <trkpt lat="36.253727" lon="-6.079977">
        <ele>4.62</ele>
        <time>2015-06-19T07:48:41Z</time>
      </trkpt>
      <trkpt lat="36.253727" lon="-6.079977">
        <ele>4.67</ele>
        <time>2015-06-19T07:48:44Z</time>
      </trkpt>
      <trkpt lat="36.253727" lon="-6.079977">
        <ele>4.65</ele>
        <time>2015-06-19T07:48:45Z</time>
      </trkpt>
      <trkpt lat="36.253727" lon="-6.079977">
        <ele>4.60</ele>
        <time>2015-06-19T07:48:51Z</time>
      </trkpt>
      <trkpt lat="36.253727" lon="-6.079977">
        <ele>4.61</ele>
        <time>2015-06-19T07:48:55Z</time>
      </trkpt>
      <trkpt lat="36.253727" lon="-6.079977">
        <ele>4.61</ele>
        <time>2015-06-19T07:48:59Z</time>
      </trkpt>
      <trkpt lat="36.253727" lon="-6.079977">
        <ele>4.66</ele>
        <time>2015-06-19T07:49:05Z</time>
      </trkpt>
      <trkpt lat="36.253727" lon="-6.079977">
        <ele>4.61</ele>
        <time>2015-06-19T07:49:07Z</time>
      </trkpt>
      <trkpt lat="36.253727" lon="-6.079977">
        <ele>4.63</ele>
        <time>2015-06-19T07:49:11Z</time>
      </trkpt>
      <trkpt lat="36.253727" lon="-6.079977">
        <ele>4.67</ele>
        <time>2015-06-19T07:49:15Z</time>
      </trkpt>
      <trkpt lat="36.253727" lon="-6.079977">
        <ele>4.67</ele>
        <time>2015-06-19T07:49:17Z</time>
      </trkpt>
      <trkpt lat="36.253713" lon="-6.079991">
        <ele>4.66</ele>
        <time>2015-06-19T07:49:23Z</time>
      </trkpt>
      <trkpt lat="36.253713" lon="-6.079991">
        <ele>4.66</ele>
        <time>2015-06-19T07:49:25Z</time>
      </trkpt>
      <trkpt lat="36.253713" lon="-6.079991">
        <ele>4.64</ele>
        <time>2015-06-19T07:49:28Z</time>
      </trkpt>
      <trkpt lat="36.253713" lon="-6.079991">
        <ele>4.65</ele>
        <time>2015-06-19T07:49:31Z</time>
      </trkpt>
      <trkpt lat="36.253713" lon="-6.079991">
        <ele>4.60</ele>
        <time>2015-06-19T07:49:38Z</time>
      </trkpt>
      <trkpt lat="36.253713" lon="-6.079991">
        <ele>4.61</ele>
        <time>2015-06-19T07:49:40Z</time>
      </trkpt>
      <trkpt lat="36.253713" lon="-6.079991">
        <ele>4.61</ele>
        <time>2015-06-19T07:49:41Z</time>
      </trkpt>
      <trkpt lat="36.253713" lon="-6.079991">
        <ele>4.66</ele>
        <time>2015-06-19T07:49:54Z</time>
      </trkpt>
      <trkpt lat="36.253713" lon="-6.079991">
        <ele>4.64</ele>
        <time>2015-06-19T07:49:56Z</time>
      </trkpt>
      <trkpt lat="36.253713" lon="-6.079991">
        <ele>4.64</ele>
        <time>2015-06-19T07:49:59Z</time>
      </trkpt>
      <trkpt lat="36.253713" lon="-6.079991">
        <ele>4.70</ele>
        <time>2015-06-19T07:50:02Z</time>
      </trkpt>
      <trkpt lat="36.253699" lon="-6.079980">
        <ele>4.68</ele>
        <time>2015-06-19T07:50:06Z</time>
      </trkpt>
      <trkpt lat="36.253696" lon="-6.079978">
        <ele>4.66</ele>
        <time>2015-06-19T07:50:12Z</time>
      </trkpt>
      <trkpt lat="36.253602" lon="-6.079946">
        <ele>4.67</ele>
        <time>2015-06-19T07:50:17Z</time>
      </trkpt>
      <trkpt lat="36.253521" lon="-6.079928">
        <ele>4.63</ele>
        <time>2015-06-19T07:50:20Z</time>
      </trkpt>
      <trkpt lat="36.253426" lon="-6.079902">
        <ele>4.70</ele>
        <time>2015-06-19T07:50:23Z</time>
      </trkpt>
      <trkpt lat="36.253292" lon="-6.079798">
        <ele>4.62</ele>
        <time>2015-06-19T07:50:28Z</time>
      </trkpt>
      <trkpt lat="36.253199" lon="-6.079733">
        <ele>4.63</ele>
        <time>2015-06-19T07:50:31Z</time>
      </trkpt>
      <trkpt lat="36.253075" lon="-6.079651">
        <ele>4.61</ele>
        <time>2015-06-19T07:50:35Z</time>
      </trkpt>
      <trkpt lat="36.252888" lon="-6.079550">
        <ele>4.63</ele>
        <time>2015-06-19T07:50:41Z</time>
      </trkpt>
      <trkpt lat="36.252825" lon="-6.079531">
        <ele>4.69</ele>
        <time>2015-06-19T07:50:43Z</time>
      </trkpt>
      <trkpt lat="36.252639" lon="-6.079518">
        <ele>4.68</ele>
        <time>2015-06-19T07:50:50Z</time>
      </trkpt>
      <trkpt lat="36.252394" lon="-6.079534">
        <ele>4.66</ele>
        <time>2015-06-19T07:50:57Z</time>
      </trkpt>
      <trkpt lat="36.252139" lon="-6.079546">
        <ele>4.68</ele>
        <time>2015-06-19T07:51:04Z</time>
      </trkpt>
      <trkpt lat="36.252100" lon="-6.079546">
        <ele>4.68</ele>
        <time>2015-06-19T07:51:05Z</time>
      </trkpt>
      <trkpt lat="36.251765" lon="-6.079523">
        <ele>4.63</ele>
        <time>2015-06-19T07:51:13Z</time>
      </trkpt>
      <trkpt lat="36.251633" lon="-6.079508">
        <ele>4.67</ele>
        <time>2015-06-19T07:51:16Z</time>
      </trkpt>
      <trkpt lat="36.251541" lon="-6.079498">
        <ele>4.64</ele>
        <time>2015-06-19T07:51:18Z</time>
      </trkpt>
      <trkpt lat="36.251453" lon="-6.079484">
        <ele>4.61</ele>
        <time>2015-06-19T07:51:20Z</time>
      </trkpt>
      <trkpt lat="36.251154" lon="-6.079393">
        <ele>4.62</ele>
        <time>2015-06-19T07:51:27Z</time>
      </trkpt>
      <trkpt lat="36.250878" lon="-6.079331">
        <ele>4.61</ele>
        <time>2015-06-19T07:51:34Z</time>
      </trkpt>
      <trkpt lat="36.250590" lon="-6.079345">
        <ele>4.66</ele>
        <time>2015-06-19T07:51:42Z</time>
      </trkpt>
      <trkpt lat="36.250349" lon="-6.079347">
        <ele>4.69</ele>
        <time>2015-06-19T07:51:49Z</time>
      </trkpt>
      <trkpt lat="36.250185" lon="-6.079346">
        <ele>5.04</ele>
        <time>2015-06-19T07:51:54Z</time>
      </trkpt>
      <trkpt lat="36.250149" lon="-6.079345">
        <ele>5.48</ele>
        <time>2015-06-19T07:51:55Z</time>
      </trkpt>
      <trkpt lat="36.250115" lon="-6.079342">
        <ele>5.83</ele>
        <time>2015-06-19T07:51:56Z</time>
      </trkpt>
      <trkpt lat="36.250084" lon="-6.079333">
        <ele>6.28</ele>
        <time>2015-06-19T07:51:57Z</time>
      </trkpt>
      <trkpt lat="36.250054" lon="-6.079325">
        <ele>6.69</ele>
        <time>2015-06-19T07:51:58Z</time>
      </trkpt>
      <trkpt lat="36.249939" lon="-6.079296">
        <ele>6.65</ele>
        <time>2015-06-19T07:52:02Z</time>
      </trkpt>
      <trkpt lat="36.249767" lon="-6.079220">
        <ele>6.66</ele>
        <time>2015-06-19T07:52:07Z</time>
      </trkpt>
      <trkpt lat="36.249594" lon="-6.079176">
        <ele>6.64</ele>
        <time>2015-06-19T07:52:13Z</time>
      </trkpt>
      <trkpt lat="36.249450" lon="-6.079131">
        <ele>6.62</ele>
        <time>2015-06-19T07:52:18Z</time>
      </trkpt>
      <trkpt lat="36.249391" lon="-6.079106">
        <ele>6.61</ele>
        <time>2015-06-19T07:52:20Z</time>
      </trkpt>
      <trkpt lat="36.249328" lon="-6.079073">
        <ele>7.02</ele>
        <time>2015-06-19T07:52:22Z</time>
      </trkpt>
      <trkpt lat="36.249295" lon="-6.079056">
        <ele>7.47</ele>
        <time>2015-06-19T07:52:23Z</time>
      </trkpt>
      <trkpt lat="36.249264" lon="-6.079036">
        <ele>7.84</ele>
        <time>2015-06-19T07:52:24Z</time>
      </trkpt>
      <trkpt lat="36.249232" lon="-6.079019">
        <ele>8.26</ele>
        <time>2015-06-19T07:52:25Z</time>
      </trkpt>
      <trkpt lat="36.249200" lon="-6.079000">
        <ele>8.63</ele>
        <time>2015-06-19T07:52:26Z</time>
      </trkpt>
      <trkpt lat="36.249169" lon="-6.078980">
        <ele>8.63</ele>
        <time>2015-06-19T07:52:27Z</time>
      </trkpt>
      <trkpt lat="36.248895" lon="-6.078792">
        <ele>8.64</ele>
        <time>2015-06-19T07:52:35Z</time>
      </trkpt>
      <trkpt lat="36.248751" lon="-6.078683">
        <ele>8.67</ele>
        <time>2015-06-19T07:52:39Z</time>
      </trkpt>
      <trkpt lat="36.248692" lon="-6.078638">
        <ele>8.68</ele>
        <time>2015-06-19T07:52:41Z</time>
      </trkpt>
      <trkpt lat="36.248607" lon="-6.078580">
        <ele>8.63</ele>
        <time>2015-06-19T07:52:44Z</time>
      </trkpt>
      <trkpt lat="36.248492" lon="-6.078534">
        <ele>8.62</ele>
        <time>2015-06-19T07:52:48Z</time>
      </trkpt>
      <trkpt lat="36.248420" lon="-6.078525">
        <ele>8.21</ele>
        <time>2015-06-19T07:52:50Z</time>
      </trkpt>
      <trkpt lat="36.248381" lon="-6.078519">
        <ele>7.88</ele>
        <time>2015-06-19T07:52:51Z</time>
      </trkpt>
      <trkpt lat="36.248344" lon="-6.078513">
        <ele>7.42</ele>
        <time>2015-06-19T07:52:52Z</time>
      </trkpt>
      <trkpt lat="36.248307" lon="-6.078508">
        <ele>6.88</ele>
        <time>2015-06-19T07:52:53Z</time>
      </trkpt>
      <trkpt lat="36.248272" lon="-6.078503">
        <ele>6.50</ele>
        <time>2015-06-19T07:52:54Z</time>
      </trkpt>
      <trkpt lat="36.248106" lon="-6.078458">
        <ele>6.47</ele>
        <time>2015-06-19T07:52:59Z</time>
      </trkpt>
      <trkpt lat="36.248068" lon="-6.078448">
        <ele>6.48</ele>
        <time>2015-06-19T07:53:00Z</time>
      </trkpt>
      <trkpt lat="36.247906" lon="-6.078394">
        <ele>6.46</ele>
        <time>2015-06-19T07:53:04Z</time>
      </trkpt>
      <trkpt lat="36.247745" lon="-6.078320">
        <ele>6.42</ele>
        <time>2015-06-19T07:53:09Z</time>
      </trkpt>
      <trkpt lat="36.247682" lon="-6.078296">
        <ele>6.42</ele>
        <time>2015-06-19T07:53:11Z</time>
      </trkpt>
      <trkpt lat="36.247576" lon="-6.078263">
        <ele>6.49</ele>
        <time>2015-06-19T07:53:14Z</time>
      </trkpt>
      <trkpt lat="36.247537" lon="-6.078256">
        <ele>6.42</ele>
        <time>2015-06-19T07:53:15Z</time>
      </trkpt>
      <trkpt lat="36.247496" lon="-6.078243">
        <ele>6.41</ele>
        <time>2015-06-19T07:53:16Z</time>
      </trkpt>
      <trkpt lat="36.247339" lon="-6.078205">
        <ele>6.48</ele>
        <time>2015-06-19T07:53:20Z</time>
      </trkpt>
      <trkpt lat="36.247160" lon="-6.078173">
        <ele>6.46</ele>
        <time>2015-06-19T07:53:26Z</time>
      </trkpt>
      <trkpt lat="36.247129" lon="-6.078166">
        <ele>6.47</ele>
        <time>2015-06-19T07:53:27Z</time>
      </trkpt>
      <trkpt lat="36.247028" lon="-6.078148">
        <ele>6.42</ele>
        <time>2015-06-19T07:53:30Z</time>
      </trkpt>
      <trkpt lat="36.246866" lon="-6.078118">
        <ele>6.43</ele>
        <time>2015-06-19T07:53:35Z</time>
      </trkpt>
      <trkpt lat="36.246623" lon="-6.078087">
        <ele>6.46</ele>
        <time>2015-06-19T07:53:42Z</time>
      </trkpt>
      <trkpt lat="36.246436" lon="-6.078039">
        <ele>6.47</ele>
        <time>2015-06-19T07:53:48Z</time>
      </trkpt>
      <trkpt lat="36.246234" lon="-6.077928">
        <ele>6.44</ele>
        <time>2015-06-19T07:53:54Z</time>
      </trkpt>
      <trkpt lat="36.246035" lon="-6.077843">
        <ele>6.46</ele>
        <time>2015-06-19T07:53:59Z</time>
      </trkpt>
      <trkpt lat="36.245994" lon="-6.077831">
        <ele>6.47</ele>
        <time>2015-06-19T07:54:00Z</time>
      </trkpt>
      <trkpt lat="36.245832" lon="-6.077757">
        <ele>6.41</ele>
        <time>2015-06-19T07:54:05Z</time>
      </trkpt>
      <trkpt lat="36.245680" lon="-6.077709">
        <ele>6.41</ele>
        <time>2015-06-19T07:54:09Z</time>
      </trkpt>
      <trkpt lat="36.245599" lon="-6.077691">
        <ele>6.50</ele>
        <time>2015-06-19T07:54:11Z</time>
      </trkpt>
      <trkpt lat="36.245558" lon="-6.077679">
        <ele>6.44</ele>
        <time>2015-06-19T07:54:12Z</time>
      </trkpt>
      <trkpt lat="36.245298" lon="-6.077565">
        <ele>6.50</ele>
        <time>2015-06-19T07:54:19Z</time>
      </trkpt>
      <trkpt lat="36.245117" lon="-6.077496">
        <ele>6.02</ele>
        <time>2015-06-19T07:54:23Z</time>
      </trkpt>
      <trkpt lat="36.245076" lon="-6.077470">
        <ele>5.65</ele>
        <time>2015-06-19T07:54:24Z</time>
      </trkpt>
      <trkpt lat="36.245035" lon="-6.077448">
        <ele>5.21</ele>
        <time>2015-06-19T07:54:25Z</time>
      </trkpt>
      <trkpt lat="36.244997" lon="-6.077429">
        <ele>4.82</ele>
        <time>2015-06-19T07:54:26Z</time>
      </trkpt>
      <trkpt lat="36.244960" lon="-6.077419">
        <ele>4.44</ele>
        <time>2015-06-19T07:54:27Z</time>
      </trkpt>
      <trkpt lat="36.244855" lon="-6.077430">
        <ele>4.49</ele>
        <time>2015-06-19T07:54:30Z</time>
      </trkpt>
      <trkpt lat="36.244756" lon="-6.077524">
        <ele>4.44</ele>
        <time>2015-06-19T07:54:34Z</time>
      </trkpt>
      <trkpt lat="36.244742" lon="-6.077554">
        <ele>4.43</ele>
        <time>2015-06-19T07:54:35Z</time>
      </trkpt>
      <trkpt lat="36.244708" lon="-6.077668">
        <ele>4.41</ele>
        <time>2015-06-19T07:54:39Z</time>
      </trkpt>
      <trkpt lat="36.244691" lon="-6.077858">
        <ele>4.50</ele>
        <time>2015-06-19T07:54:44Z</time>
      </trkpt>
      <trkpt lat="36.244689" lon="-6.077901">
        <ele>4.07</ele>
        <time>2015-06-19T07:54:45Z</time>
      </trkpt>
      <trkpt lat="36.244688" lon="-6.077937">
        <ele>3.62</ele>
        <time>2015-06-19T07:54:46Z</time>
      </trkpt>
      <trkpt lat="36.244685" lon="-6.077963">
        <ele>3.09</ele>
        <time>2015-06-19T07:54:47Z</time>
      </trkpt>
      <trkpt lat="36.244679" lon="-6.077986">
        <ele>2.66</ele>
        <time>2015-06-19T07:54:48Z</time>
      </trkpt>
      <trkpt lat="36.244673" lon="-6.078010">
        <ele>2.28</ele>
        <time>2015-06-19T07:54:49Z</time>
      </trkpt>
      <trkpt lat="36.244644" lon="-6.078097">
        <ele>2.30</ele>
        <time>2015-06-19T07:54:54Z</time>
      </trkpt>
      <trkpt lat="36.244636" lon="-6.078106">
        <ele>2.27</ele>
        <time>2015-06-19T07:54:59Z</time>
      </trkpt>
      <trkpt lat="36.244634" lon="-6.078108">
        <ele>2.26</ele>
        <time>2015-06-19T07:55:00Z</time>
      </trkpt>
      <trkpt lat="36.244632" lon="-6.078109">
        <ele>2.20</ele>
        <time>2015-06-19T07:55:02Z</time>
      </trkpt>
      <trkpt lat="36.244631" lon="-6.078111">
        <ele>2.22</ele>
        <time>2015-06-19T07:55:03Z</time>
      </trkpt>
      <trkpt lat="36.244603" lon="-6.078155">
        <ele>2.21</ele>
        <time>2015-06-19T07:55:06Z</time>
      </trkpt>
      <trkpt lat="36.244559" lon="-6.078256">
        <ele>2.30</ele>
        <time>2015-06-19T07:55:11Z</time>
      </trkpt>
      <trkpt lat="36.244580" lon="-6.078348">
        <ele>2.23</ele>
        <time>2015-06-19T07:55:15Z</time>
      </trkpt>
      <trkpt lat="36.244590" lon="-6.078362">
        <ele>2.23</ele>
        <time>2015-06-19T07:55:16Z</time>
      </trkpt>
      <trkpt lat="36.244629" lon="-6.078402">
        <ele>2.29</ele>
        <time>2015-06-19T07:55:20Z</time>
      </trkpt>
      <trkpt lat="36.244633" lon="-6.078411">
        <ele>2.23</ele>
        <time>2015-06-19T07:55:21Z</time>
      </trkpt>
      <trkpt lat="36.244664" lon="-6.078469">
        <ele>2.22</ele>
        <time>2015-06-19T07:55:25Z</time>
      </trkpt>
      <trkpt lat="36.244684" lon="-6.078502">
        <ele>2.25</ele>
        <time>2015-06-19T07:55:27Z</time>
      </trkpt>
      <trkpt lat="36.244751" lon="-6.078567">
        <ele>2.23</ele>
        <time>2015-06-19T07:55:32Z</time>
      </trkpt>
      <trkpt lat="36.244759" lon="-6.078584">
        <ele>2.22</ele>
        <time>2015-06-19T07:55:33Z</time>
      </trkpt>
      <trkpt lat="36.244784" lon="-6.078643">
        <ele>2.24</ele>
        <time>2015-06-19T07:55:36Z</time>
      </trkpt>
      <trkpt lat="36.244786" lon="-6.078668">
        <ele>2.21</ele>
        <time>2015-06-19T07:55:37Z</time>
      </trkpt>
      <trkpt lat="36.244735" lon="-6.078771">
        <ele>2.21</ele>
        <time>2015-06-19T07:55:41Z</time>
      </trkpt>
      <trkpt lat="36.244625" lon="-6.078800">
        <ele>2.24</ele>
        <time>2015-06-19T07:55:45Z</time>
      </trkpt>
      <trkpt lat="36.244533" lon="-6.078707">
        <ele>2.27</ele>
        <time>2015-06-19T07:55:49Z</time>
      </trkpt>
      <trkpt lat="36.244516" lon="-6.078678">
        <ele>2.21</ele>
        <time>2015-06-19T07:55:50Z</time>
      </trkpt>
      <trkpt lat="36.244396" lon="-6.078510">
        <ele>2.27</ele>
        <time>2015-06-19T07:55:56Z</time>
      </trkpt>
      <trkpt lat="36.244288" lon="-6.078459">
        <ele>2.28</ele>
        <time>2015-06-19T07:56:00Z</time>
      </trkpt>
      <trkpt lat="36.244234" lon="-6.078334">
        <ele>2.28</ele>
        <time>2015-06-19T07:56:04Z</time>
      </trkpt>
      <trkpt lat="36.244219" lon="-6.078157">
        <ele>2.29</ele>
        <time>2015-06-19T07:56:09Z</time>
      </trkpt>
      <trkpt lat="36.244139" lon="-6.077991">
        <ele>2.23</ele>
        <time>2015-06-19T07:56:16Z</time>
      </trkpt>
      <trkpt lat="36.244109" lon="-6.077811">
        <ele>2.27</ele>
        <time>2015-06-19T07:56:22Z</time>
      </trkpt>
      <trkpt lat="36.244119" lon="-6.077608">
        <ele>2.23</ele>
        <time>2015-06-19T07:56:28Z</time>
      </trkpt>
      <trkpt lat="36.244141" lon="-6.077497">
        <ele>2.22</ele>
        <time>2015-06-19T07:56:32Z</time>
      </trkpt>
      <trkpt lat="36.244142" lon="-6.077479">
        <ele>2.21</ele>
        <time>2015-06-19T07:56:33Z</time>
      </trkpt>
      <trkpt lat="36.244135" lon="-6.077453">
        <ele>2.24</ele>
        <time>2015-06-19T07:56:34Z</time>
      </trkpt>
      <trkpt lat="36.244081" lon="-6.077391">
        <ele>2.22</ele>
        <time>2015-06-19T07:56:37Z</time>
      </trkpt>
      <trkpt lat="36.243988" lon="-6.077304">
        <ele>2.23</ele>
        <time>2015-06-19T07:56:41Z</time>
      </trkpt>
      <trkpt lat="36.243905" lon="-6.077244">
        <ele>2.29</ele>
        <time>2015-06-19T07:56:44Z</time>
      </trkpt>
      <trkpt lat="36.243760" lon="-6.077151">
        <ele>2.26</ele>
        <time>2015-06-19T07:56:50Z</time>
      </trkpt>
      <trkpt lat="36.243715" lon="-6.077130">
        <ele>2.28</ele>
        <time>2015-06-19T07:56:52Z</time>
      </trkpt>
      <trkpt lat="36.243550" lon="-6.077039">
        <ele>2.23</ele>
        <time>2015-06-19T07:56:58Z</time>
      </trkpt>
      <trkpt lat="36.243459" lon="-6.076991">
        <ele>2.29</ele>
        <time>2015-06-19T07:57:01Z</time>
      </trkpt>
      <trkpt lat="36.243375" lon="-6.076938">
        <ele>2.29</ele>
        <time>2015-06-19T07:57:04Z</time>
      </trkpt>
      <trkpt lat="36.243299" lon="-6.076899">
        <ele>2.22</ele>
        <time>2015-06-19T07:57:07Z</time>
      </trkpt>
      <trkpt lat="36.243223" lon="-6.076842">
        <ele>2.23</ele>
        <time>2015-06-19T07:57:10Z</time>
      </trkpt>
      <trkpt lat="36.243014" lon="-6.076704">
        <ele>2.21</ele>
        <time>2015-06-19T07:57:18Z</time>
      </trkpt>
      <trkpt lat="36.242808" lon="-6.076600">
        <ele>2.24</ele>
        <time>2015-06-19T07:57:26Z</time>
      </trkpt>
      <trkpt lat="36.242766" lon="-6.076583">
        <ele>2.25</ele>
        <time>2015-06-19T07:57:28Z</time>
      </trkpt>
      <trkpt lat="36.242669" lon="-6.076541">
        <ele>2.25</ele>
        <time>2015-06-19T07:57:33Z</time>
      </trkpt>
      <trkpt lat="36.242629" lon="-6.076521">
        <ele>2.26</ele>
        <time>2015-06-19T07:57:35Z</time>
      </trkpt>
      <trkpt lat="36.242605" lon="-6.076488">
        <ele>2.23</ele>
        <time>2015-06-19T07:57:37Z</time>
      </trkpt>
      <trkpt lat="36.242603" lon="-6.076452">
        <ele>2.24</ele>
        <time>2015-06-19T07:57:39Z</time>
      </trkpt>
      <trkpt lat="36.242599" lon="-6.076433">
        <ele>2.28</ele>
        <time>2015-06-19T07:57:43Z</time>
      </trkpt>
      <trkpt lat="36.242599" lon="-6.076433">
        <ele>2.21</ele>
        <time>2015-06-19T07:57:46Z</time>
      </trkpt>
      <trkpt lat="36.242599" lon="-6.076433">
        <ele>2.27</ele>
        <time>2015-06-19T07:57:51Z</time>
      </trkpt>
      <trkpt lat="36.242599" lon="-6.076433">
        <ele>2.29</ele>
        <time>2015-06-19T07:57:53Z</time>
      </trkpt>
      <trkpt lat="36.242599" lon="-6.076433">
        <ele>2.21</ele>
        <time>2015-06-19T07:57:56Z</time>
      </trkpt>
      <trkpt lat="36.242599" lon="-6.076433">
        <ele>2.21</ele>
        <time>2015-06-19T07:58:05Z</time>
      </trkpt>
      <trkpt lat="36.242599" lon="-6.076433">
        <ele>2.28</ele>
        <time>2015-06-19T07:58:14Z</time>
      </trkpt>
      <trkpt lat="36.242599" lon="-6.076433">
        <ele>2.21</ele>
        <time>2015-06-19T07:58:17Z</time>
      </trkpt>
      <trkpt lat="36.242597" lon="-6.076433">
        <ele>2.26</ele>
        <time>2015-06-19T07:58:23Z</time>
      </trkpt>
      <trkpt lat="36.242592" lon="-6.076431">
        <ele>2.24</ele>
        <time>2015-06-19T07:58:25Z</time>
      </trkpt>
      <trkpt lat="36.242580" lon="-6.076429">
        <ele>2.28</ele>
        <time>2015-06-19T07:58:26Z</time>
      </trkpt>
      <trkpt lat="36.242545" lon="-6.076434">
        <ele>2.25</ele>
        <time>2015-06-19T07:58:28Z</time>
      </trkpt>
      <trkpt lat="36.242499" lon="-6.076419">
        <ele>2.26</ele>
        <time>2015-06-19T07:58:30Z</time>
      </trkpt>
      <trkpt lat="36.242414" lon="-6.076381">
        <ele>2.25</ele>
        <time>2015-06-19T07:58:34Z</time>
      </trkpt>
      <trkpt lat="36.242380" lon="-6.076355">
        <ele>2.25</ele>
        <time>2015-06-19T07:58:36Z</time>
      </trkpt>
      <trkpt lat="36.242320" lon="-6.076323">
        <ele>2.20</ele>
        <time>2015-06-19T07:58:39Z</time>
      </trkpt>
      <trkpt lat="36.242229" lon="-6.076267">
        <ele>2.21</ele>
        <time>2015-06-19T07:58:43Z</time>
      </trkpt>
      <trkpt lat="36.242208" lon="-6.076254">
        <ele>2.21</ele>
        <time>2015-06-19T07:58:44Z</time>
      </trkpt>
      <trkpt lat="36.242146" lon="-6.076206">
        <ele>2.24</ele>
        <time>2015-06-19T07:58:47Z</time>
      </trkpt>
      <trkpt lat="36.242075" lon="-6.076179">
        <ele>2.29</ele>
        <time>2015-06-19T07:58:50Z</time>
      </trkpt>
      <trkpt lat="36.242020" lon="-6.076157">
        <ele>2.30</ele>
        <time>2015-06-19T07:58:52Z</time>
      </trkpt>
      <trkpt lat="36.241930" lon="-6.076109">
        <ele>2.25</ele>
        <time>2015-06-19T07:58:57Z</time>
      </trkpt>
      <trkpt lat="36.241847" lon="-6.076053">
        <ele>2.22</ele>
        <time>2015-06-19T07:59:00Z</time>
      </trkpt>
      <trkpt lat="36.241770" lon="-6.076018">
        <ele>2.29</ele>
        <time>2015-06-19T07:59:03Z</time>
      </trkpt>
      <trkpt lat="36.241683" lon="-6.075973">
        <ele>2.27</ele>
        <time>2015-06-19T07:59:07Z</time>
      </trkpt>
      <trkpt lat="36.241631" lon="-6.075941">
        <ele>2.23</ele>
        <time>2015-06-19T07:59:09Z</time>
      </trkpt>
      <trkpt lat="36.241404" lon="-6.075820">
        <ele>2.23</ele>
        <time>2015-06-19T07:59:17Z</time>
      </trkpt>
      <trkpt lat="36.241378" lon="-6.075804">
        <ele>2.27</ele>
        <time>2015-06-19T07:59:18Z</time>
      </trkpt>
      <trkpt lat="36.241299" lon="-6.075754">
        <ele>2.21</ele>
        <time>2015-06-19T07:59:21Z</time>
      </trkpt>
      <trkpt lat="36.241120" lon="-6.075651">
        <ele>2.21</ele>
        <time>2015-06-19T07:59:27Z</time>
      </trkpt>
      <trkpt lat="36.240983" lon="-6.075564">
        <ele>2.28</ele>
        <time>2015-06-19T07:59:32Z</time>
      </trkpt>
      <trkpt lat="36.240826" lon="-6.075486">
        <ele>2.29</ele>
        <time>2015-06-19T07:59:37Z</time>
      </trkpt>
      <trkpt lat="36.240796" lon="-6.075461">
        <ele>2.25</ele>
        <time>2015-06-19T07:59:38Z</time>
      </trkpt>
      <trkpt lat="36.240664" lon="-6.075405">
        <ele>2.29</ele>
        <time>2015-06-19T07:59:42Z</time>
      </trkpt>
      <trkpt lat="36.240529" lon="-6.075300">
        <ele>2.22</ele>
        <time>2015-06-19T07:59:46Z</time>
      </trkpt>
      <trkpt lat="36.240497" lon="-6.075279">
        <ele>2.82</ele>
        <time>2015-06-19T07:59:47Z</time>
      </trkpt>
      <trkpt lat="36.240467" lon="-6.075264">
        <ele>3.21</ele>
        <time>2015-06-19T07:59:48Z</time>
      </trkpt>
      <trkpt lat="36.240436" lon="-6.075251">
        <ele>3.63</ele>
        <time>2015-06-19T07:59:49Z</time>
      </trkpt>
      <trkpt lat="36.240408" lon="-6.075240">
        <ele>4.08</ele>
        <time>2015-06-19T07:59:50Z</time>
      </trkpt>
      <trkpt lat="36.240384" lon="-6.075224">
        <ele>4.42</ele>
        <time>2015-06-19T07:59:51Z</time>
      </trkpt>
      <trkpt lat="36.240358" lon="-6.075209">
        <ele>4.42</ele>
        <time>2015-06-19T07:59:52Z</time>
      </trkpt>
      <trkpt lat="36.240186" lon="-6.075114">
        <ele>4.41</ele>
        <time>2015-06-19T07:59:58Z</time>
      </trkpt>
      <trkpt lat="36.240073" lon="-6.075051">
        <ele>4.48</ele>
        <time>2015-06-19T08:00:03Z</time>
      </trkpt>
      <trkpt lat="36.240053" lon="-6.075039">
        <ele>4.46</ele>
        <time>2015-06-19T08:00:04Z</time>
      </trkpt>
      <trkpt lat="36.239893" lon="-6.074938">
        <ele>4.49</ele>
        <time>2015-06-19T08:00:10Z</time>
      </trkpt>
      <trkpt lat="36.239673" lon="-6.074823">
        <ele>4.47</ele>
        <time>2015-06-19T08:00:17Z</time>
      </trkpt>
      <trkpt lat="36.239435" lon="-6.074681">
        <ele>4.47</ele>
        <time>2015-06-19T08:00:24Z</time>
      </trkpt>
      <trkpt lat="36.239368" lon="-6.074653">
        <ele>4.45</ele>
        <time>2015-06-19T08:00:26Z</time>
      </trkpt>
      <trkpt lat="36.239216" lon="-6.074569">
        <ele>4.45</ele>
        <time>2015-06-19T08:00:31Z</time>
      </trkpt>
      <trkpt lat="36.239026" lon="-6.074450">
        <ele>4.46</ele>
        <time>2015-06-19T08:00:37Z</time>
      </trkpt>
      <trkpt lat="36.238990" lon="-6.074431">
        <ele>4.45</ele>
        <time>2015-06-19T08:00:38Z</time>
      </trkpt>
      <trkpt lat="36.238771" lon="-6.074309">
        <ele>4.40</ele>
        <time>2015-06-19T08:00:44Z</time>
      </trkpt>
      <trkpt lat="36.238701" lon="-6.074271">
        <ele>4.42</ele>
        <time>2015-06-19T08:00:46Z</time>
      </trkpt>
      <trkpt lat="36.238457" lon="-6.074138">
        <ele>4.41</ele>
        <time>2015-06-19T08:00:53Z</time>
      </trkpt>
      <trkpt lat="36.238246" lon="-6.074009">
        <ele>4.46</ele>
        <time>2015-06-19T08:00:59Z</time>
      </trkpt>
      <trkpt lat="36.238127" lon="-6.073945">
        <ele>4.44</ele>
        <time>2015-06-19T08:01:02Z</time>
      </trkpt>
      <trkpt lat="36.237829" lon="-6.073766">
        <ele>4.42</ele>
        <time>2015-06-19T08:01:10Z</time>
      </trkpt>
      <trkpt lat="36.237607" lon="-6.073644">
        <ele>4.42</ele>
        <time>2015-06-19T08:01:16Z</time>
      </trkpt>
      <trkpt lat="36.237574" lon="-6.073610">
        <ele>4.43</ele>
        <time>2015-06-19T08:01:17Z</time>
      </trkpt>
      <trkpt lat="36.237462" lon="-6.073554">
        <ele>4.49</ele>
        <time>2015-06-19T08:01:20Z</time>
      </trkpt>
      <trkpt lat="36.237423" lon="-6.073539">
        <ele>4.49</ele>
        <time>2015-06-19T08:01:21Z</time>
      </trkpt>
      <trkpt lat="36.237213" lon="-6.073406">
        <ele>4.45</ele>
        <time>2015-06-19T08:01:27Z</time>
      </trkpt>
      <trkpt lat="36.237101" lon="-6.073339">
        <ele>4.44</ele>
        <time>2015-06-19T08:01:31Z</time>
      </trkpt>
      <trkpt lat="36.237037" lon="-6.073311">
        <ele>4.46</ele>
        <time>2015-06-19T08:01:33Z</time>
      </trkpt>
      <trkpt lat="36.236891" lon="-6.073233">
        <ele>4.41</ele>
        <time>2015-06-19T08:01:37Z</time>
      </trkpt>
      <trkpt lat="36.236779" lon="-6.073166">
        <ele>4.41</ele>
        <time>2015-06-19T08:01:40Z</time>
      </trkpt>
      <trkpt lat="36.236538" lon="-6.073033">
        <ele>4.45</ele>
        <time>2015-06-19T08:01:46Z</time>
      </trkpt>
      <trkpt lat="36.236454" lon="-6.072990">
        <ele>4.46</ele>
        <time>2015-06-19T08:01:48Z</time>
      </trkpt>
      <trkpt lat="36.236365" lon="-6.072944">
        <ele>4.42</ele>
        <time>2015-06-19T08:01:50Z</time>
      </trkpt>
      <trkpt lat="36.236243" lon="-6.072858">
        <ele>4.41</ele>
        <time>2015-06-19T08:01:53Z</time>
      </trkpt>
      <trkpt lat="36.236117" lon="-6.072788">
        <ele>4.44</ele>
        <time>2015-06-19T08:01:56Z</time>
      </trkpt>
      <trkpt lat="36.235946" lon="-6.072696">
        <ele>4.47</ele>
        <time>2015-06-19T08:02:00Z</time>
      </trkpt>
      <trkpt lat="36.235607" lon="-6.072507">
        <ele>4.47</ele>
        <time>2015-06-19T08:02:08Z</time>
      </trkpt>
      <trkpt lat="36.235504" lon="-6.072440">
        <ele>4.45</ele>
        <time>2015-06-19T08:02:11Z</time>
      </trkpt>
      <trkpt lat="36.235401" lon="-6.072383">
        <ele>4.45</ele>
        <time>2015-06-19T08:02:14Z</time>
      </trkpt>
      <trkpt lat="36.235219" lon="-6.072273">
        <ele>4.40</ele>
        <time>2015-06-19T08:02:19Z</time>
      </trkpt>
      <trkpt lat="36.235177" lon="-6.072252">
        <ele>4.41</ele>
        <time>2015-06-19T08:02:20Z</time>
      </trkpt>
      <trkpt lat="36.234858" lon="-6.072159">
        <ele>4.41</ele>
        <time>2015-06-19T08:02:27Z</time>
      </trkpt>
      <trkpt lat="36.234543" lon="-6.072118">
        <ele>4.45</ele>
        <time>2015-06-19T08:02:34Z</time>
      </trkpt>
      <trkpt lat="36.234460" lon="-6.072100">
        <ele>4.43</ele>
        <time>2015-06-19T08:02:36Z</time>
      </trkpt>
      <trkpt lat="36.234335" lon="-6.072049">
        <ele>4.43</ele>
        <time>2015-06-19T08:02:39Z</time>
      </trkpt>
      <trkpt lat="36.234296" lon="-6.072022">
        <ele>4.42</ele>
        <time>2015-06-19T08:02:40Z</time>
      </trkpt>
      <trkpt lat="36.234156" lon="-6.071882">
        <ele>4.88</ele>
        <time>2015-06-19T08:02:44Z</time>
      </trkpt>
      <trkpt lat="36.234125" lon="-6.071840">
        <ele>5.26</ele>
        <time>2015-06-19T08:02:45Z</time>
      </trkpt>
      <trkpt lat="36.234093" lon="-6.071797">
        <ele>5.67</ele>
        <time>2015-06-19T08:02:46Z</time>
      </trkpt>
      <trkpt lat="36.234061" lon="-6.071749">
        <ele>6.04</ele>
        <time>2015-06-19T08:02:47Z</time>
      </trkpt>
      <trkpt lat="36.234029" lon="-6.071702">
        <ele>6.43</ele>
        <time>2015-06-19T08:02:48Z</time>
      </trkpt>
      <trkpt lat="36.233897" lon="-6.071532">
        <ele>6.47</ele>
        <time>2015-06-19T08:02:52Z</time>
      </trkpt>
      <trkpt lat="36.233743" lon="-6.071445">
        <ele>6.41</ele>
        <time>2015-06-19T08:02:56Z</time>
      </trkpt>
      <trkpt lat="36.233572" lon="-6.071440">
        <ele>6.41</ele>
        <time>2015-06-19T08:03:00Z</time>
      </trkpt>
      <trkpt lat="36.233533" lon="-6.071440">
        <ele>6.45</ele>
        <time>2015-06-19T08:03:01Z</time>
      </trkpt>
      <trkpt lat="36.233321" lon="-6.071453">
        <ele>6.48</ele>
        <time>2015-06-19T08:03:07Z</time>
      </trkpt>
      <trkpt lat="36.233203" lon="-6.071427">
        <ele>6.42</ele>
        <time>2015-06-19T08:03:11Z</time>
      </trkpt>
      <trkpt lat="36.233117" lon="-6.071375">
        <ele>6.41</ele>
        <time>2015-06-19T08:03:15Z</time>
      </trkpt>
      <trkpt lat="36.233102" lon="-6.071351">
        <ele>6.43</ele>
        <time>2015-06-19T08:03:16Z</time>
      </trkpt>
      <trkpt lat="36.233083" lon="-6.071329">
        <ele>6.49</ele>
        <time>2015-06-19T08:03:20Z</time>
      </trkpt>
      <trkpt lat="36.233082" lon="-6.071330">
        <ele>6.48</ele>
        <time>2015-06-19T08:03:24Z</time>
      </trkpt>
      <trkpt lat="36.233082" lon="-6.071330">
        <ele>6.50</ele>
        <time>2015-06-19T08:03:26Z</time>
      </trkpt>
      <trkpt lat="36.233083" lon="-6.071327">
        <ele>6.49</ele>
        <time>2015-06-19T08:03:28Z</time>
      </trkpt>
      <trkpt lat="36.233071" lon="-6.071325">
        <ele>6.42</ele>
        <time>2015-06-19T08:03:31Z</time>
      </trkpt>
      <trkpt lat="36.233049" lon="-6.071335">
        <ele>6.43</ele>
        <time>2015-06-19T08:03:33Z</time>
      </trkpt>
      <trkpt lat="36.232998" lon="-6.071346">
        <ele>6.41</ele>
        <time>2015-06-19T08:03:36Z</time>
      </trkpt>
      <trkpt lat="36.232959" lon="-6.071330">
        <ele>6.42</ele>
        <time>2015-06-19T08:03:38Z</time>
      </trkpt>
      <trkpt lat="36.232882" lon="-6.071294">
        <ele>6.46</ele>
        <time>2015-06-19T08:03:42Z</time>
      </trkpt>
      <trkpt lat="36.232788" lon="-6.071251">
        <ele>6.42</ele>
        <time>2015-06-19T08:03:46Z</time>
      </trkpt>
      <trkpt lat="36.232732" lon="-6.071216">
        <ele>6.50</ele>
        <time>2015-06-19T08:03:48Z</time>
      </trkpt>
      <trkpt lat="36.232594" lon="-6.071123">
        <ele>6.45</ele>
        <time>2015-06-19T08:03:52Z</time>
      </trkpt>
      <trkpt lat="36.232523" lon="-6.071080">
        <ele>6.46</ele>
        <time>2015-06-19T08:03:54Z</time>
      </trkpt>
      <trkpt lat="36.232271" lon="-6.070906">
        <ele>6.43</ele>
        <time>2015-06-19T08:04:01Z</time>
      </trkpt>
      <trkpt lat="36.232111" lon="-6.070796">
        <ele>6.41</ele>
        <time>2015-06-19T08:04:05Z</time>
      </trkpt>
      <trkpt lat="36.231966" lon="-6.070687">
        <ele>6.46</ele>
        <time>2015-06-19T08:04:09Z</time>
      </trkpt>
      <trkpt lat="36.231693" lon="-6.070479">
        <ele>6.44</ele>
        <time>2015-06-19T08:04:17Z</time>
      </trkpt>
      <trkpt lat="36.231621" lon="-6.070429">
        <ele>6.42</ele>
        <time>2015-06-19T08:04:19Z</time>
      </trkpt>
      <trkpt lat="36.231365" lon="-6.070235">
        <ele>6.41</ele>
        <time>2015-06-19T08:04:27Z</time>
      </trkpt>
      <trkpt lat="36.231165" lon="-6.070087">
        <ele>6.46</ele>
        <time>2015-06-19T08:04:33Z</time>
      </trkpt>
      <trkpt lat="36.231128" lon="-6.070061">
        <ele>6.42</ele>
        <time>2015-06-19T08:04:34Z</time>
      </trkpt>
      <trkpt lat="36.230815" lon="-6.069813">
        <ele>6.47</ele>
        <time>2015-06-19T08:04:43Z</time>
      </trkpt>
      <trkpt lat="36.230711" lon="-6.069744">
        <ele>6.50</ele>
        <time>2015-06-19T08:04:46Z</time>
      </trkpt>
      <trkpt lat="36.230556" lon="-6.069620">
        <ele>6.47</ele>
        <time>2015-06-19T08:04:50Z</time>
      </trkpt>
      <trkpt lat="36.230221" lon="-6.069344">
        <ele>6.41</ele>
        <time>2015-06-19T08:04:58Z</time>
      </trkpt>
      <trkpt lat="36.230137" lon="-6.069279">
        <ele>6.45</ele>
        <time>2015-06-19T08:05:00Z</time>
      </trkpt>
      <trkpt lat="36.229937" lon="-6.069133">
        <ele>6.44</ele>
        <time>2015-06-19T08:05:05Z</time>
      </trkpt>
      <trkpt lat="36.229670" lon="-6.068913">
        <ele>6.42</ele>
        <time>2015-06-19T08:05:12Z</time>
      </trkpt>
      <trkpt lat="36.229523" lon="-6.068794">
        <ele>6.43</ele>
        <time>2015-06-19T08:05:16Z</time>
      </trkpt>
      <trkpt lat="36.229447" lon="-6.068733">
        <ele>7.01</ele>
        <time>2015-06-19T08:05:18Z</time>
      </trkpt>
      <trkpt lat="36.229406" lon="-6.068700">
        <ele>7.41</ele>
        <time>2015-06-19T08:05:19Z</time>
      </trkpt>
      <trkpt lat="36.229368" lon="-6.068669">
        <ele>7.88</ele>
        <time>2015-06-19T08:05:20Z</time>
      </trkpt>
      <trkpt lat="36.229330" lon="-6.068636">
        <ele>8.45</ele>
        <time>2015-06-19T08:05:21Z</time>
      </trkpt>
      <trkpt lat="36.229291" lon="-6.068604">
        <ele>8.87</ele>
        <time>2015-06-19T08:05:22Z</time>
      </trkpt>
      <trkpt lat="36.229099" lon="-6.068452">
        <ele>8.85</ele>
        <time>2015-06-19T08:05:27Z</time>
      </trkpt>
      <trkpt lat="36.228904" lon="-6.068292">
        <ele>8.90</ele>
        <time>2015-06-19T08:05:32Z</time>
      </trkpt>
      <trkpt lat="36.228820" lon="-6.068226">
        <ele>8.82</ele>
        <time>2015-06-19T08:05:34Z</time>
      </trkpt>
      <trkpt lat="36.228743" lon="-6.068157">
        <ele>8.87</ele>
        <time>2015-06-19T08:05:36Z</time>
      </trkpt>
      <trkpt lat="36.228545" lon="-6.067993">
        <ele>8.81</ele>
        <time>2015-06-19T08:05:41Z</time>
      </trkpt>
      <trkpt lat="36.228298" lon="-6.067782">
        <ele>8.87</ele>
        <time>2015-06-19T08:05:47Z</time>
      </trkpt>
      <trkpt lat="36.227986" lon="-6.067537">
        <ele>8.84</ele>
        <time>2015-06-19T08:05:55Z</time>
      </trkpt>
      <trkpt lat="36.227804" lon="-6.067381">
        <ele>8.81</ele>
        <time>2015-06-19T08:06:01Z</time>
      </trkpt>
      <trkpt lat="36.227677" lon="-6.067282">
        <ele>8.81</ele>
        <time>2015-06-19T08:06:05Z</time>
      </trkpt>
      <trkpt lat="36.227614" lon="-6.067225">
        <ele>8.88</ele>
        <time>2015-06-19T08:06:07Z</time>
      </trkpt>
      <trkpt lat="36.227471" lon="-6.067112">
        <ele>8.86</ele>
        <time>2015-06-19T08:06:11Z</time>
      </trkpt>
      <trkpt lat="36.227400" lon="-6.067057">
        <ele>8.87</ele>
        <time>2015-06-19T08:06:13Z</time>
      </trkpt>
      <trkpt lat="36.227212" lon="-6.066909">
        <ele>8.82</ele>
        <time>2015-06-19T08:06:19Z</time>
      </trkpt>
      <trkpt lat="36.227157" lon="-6.066863">
        <ele>8.89</ele>
        <time>2015-06-19T08:06:21Z</time>
      </trkpt>
      <trkpt lat="36.227047" lon="-6.066781">
        <ele>8.86</ele>
        <time>2015-06-19T08:06:25Z</time>
      </trkpt>
      <trkpt lat="36.226963" lon="-6.066714">
        <ele>8.90</ele>
        <time>2015-06-19T08:06:28Z</time>
      </trkpt>
      <trkpt lat="36.226770" lon="-6.066570">
        <ele>8.86</ele>
        <time>2015-06-19T08:06:35Z</time>
      </trkpt>
      <trkpt lat="36.226672" lon="-6.066502">
        <ele>8.87</ele>
        <time>2015-06-19T08:06:38Z</time>
      </trkpt>
      <trkpt lat="36.226496" lon="-6.066367">
        <ele>8.81</ele>
        <time>2015-06-19T08:06:43Z</time>
      </trkpt>
      <trkpt lat="36.226328" lon="-6.066240">
        <ele>8.81</ele>
        <time>2015-06-19T08:06:48Z</time>
      </trkpt>
      <trkpt lat="36.226192" lon="-6.066138">
        <ele>8.81</ele>
        <time>2015-06-19T08:06:52Z</time>
      </trkpt>
      <trkpt lat="36.226087" lon="-6.066055">
        <ele>8.89</ele>
        <time>2015-06-19T08:06:55Z</time>
      </trkpt>
      <trkpt lat="36.225816" lon="-6.065879">
        <ele>8.82</ele>
        <time>2015-06-19T08:07:02Z</time>
      </trkpt>
      <trkpt lat="36.225775" lon="-6.065853">
        <ele>8.83</ele>
        <time>2015-06-19T08:07:03Z</time>
      </trkpt>
      <trkpt lat="36.225602" lon="-6.065765">
        <ele>8.86</ele>
        <time>2015-06-19T08:07:07Z</time>
      </trkpt>
      <trkpt lat="36.225486" lon="-6.065688">
        <ele>8.81</ele>
        <time>2015-06-19T08:07:10Z</time>
      </trkpt>
      <trkpt lat="36.225311" lon="-6.065611">
        <ele>8.85</ele>
        <time>2015-06-19T08:07:14Z</time>
      </trkpt>
      <trkpt lat="36.225223" lon="-6.065573">
        <ele>8.87</ele>
        <time>2015-06-19T08:07:16Z</time>
      </trkpt>
      <trkpt lat="36.225093" lon="-6.065512">
        <ele>8.82</ele>
        <time>2015-06-19T08:07:19Z</time>
      </trkpt>
      <trkpt lat="36.224970" lon="-6.065444">
        <ele>8.86</ele>
        <time>2015-06-19T08:07:22Z</time>
      </trkpt>
      <trkpt lat="36.224896" lon="-6.065392">
        <ele>8.86</ele>
        <time>2015-06-19T08:07:24Z</time>
      </trkpt>
      <trkpt lat="36.224783" lon="-6.065324">
        <ele>8.81</ele>
        <time>2015-06-19T08:07:27Z</time>
      </trkpt>
      <trkpt lat="36.224680" lon="-6.065261">
        <ele>8.41</ele>
        <time>2015-06-19T08:07:30Z</time>
      </trkpt>
      <trkpt lat="36.224645" lon="-6.065239">
        <ele>8.02</ele>
        <time>2015-06-19T08:07:31Z</time>
      </trkpt>
      <trkpt lat="36.224610" lon="-6.065214">
        <ele>7.64</ele>
        <time>2015-06-19T08:07:32Z</time>
      </trkpt>
      <trkpt lat="36.224571" lon="-6.065191">
        <ele>7.30</ele>
        <time>2015-06-19T08:07:33Z</time>
      </trkpt>
      <trkpt lat="36.224533" lon="-6.065164">
        <ele>6.87</ele>
        <time>2015-06-19T08:07:34Z</time>
      </trkpt>
      <trkpt lat="36.224384" lon="-6.065066">
        <ele>6.85</ele>
        <time>2015-06-19T08:07:38Z</time>
      </trkpt>
      <trkpt lat="36.224321" lon="-6.065032">
        <ele>6.86</ele>
        <time>2015-06-19T08:07:40Z</time>
      </trkpt>
      <trkpt lat="36.224267" lon="-6.064990">
        <ele>6.84</ele>
        <time>2015-06-19T08:07:42Z</time>
      </trkpt>
      <trkpt lat="36.224172" lon="-6.064923">
        <ele>6.84</ele>
        <time>2015-06-19T08:07:45Z</time>
      </trkpt>
      <trkpt lat="36.224038" lon="-6.064828">
        <ele>6.86</ele>
        <time>2015-06-19T08:07:49Z</time>
      </trkpt>
      <trkpt lat="36.223790" lon="-6.064646">
        <ele>6.80</ele>
        <time>2015-06-19T08:07:56Z</time>
      </trkpt>
      <trkpt lat="36.223754" lon="-6.064621">
        <ele>6.82</ele>
        <time>2015-06-19T08:07:57Z</time>
      </trkpt>
      <trkpt lat="36.223517" lon="-6.064447">
        <ele>6.81</ele>
        <time>2015-06-19T08:08:04Z</time>
      </trkpt>
      <trkpt lat="36.223382" lon="-6.064358">
        <ele>6.83</ele>
        <time>2015-06-19T08:08:08Z</time>
      </trkpt>
      <trkpt lat="36.223284" lon="-6.064278">
        <ele>6.85</ele>
        <time>2015-06-19T08:08:11Z</time>
      </trkpt>
      <trkpt lat="36.223024" lon="-6.064103">
        <ele>6.84</ele>
        <time>2015-06-19T08:08:18Z</time>
      </trkpt>
      <trkpt lat="36.222832" lon="-6.063960">
        <ele>6.89</ele>
        <time>2015-06-19T08:08:23Z</time>
      </trkpt>
      <trkpt lat="36.222720" lon="-6.063881">
        <ele>6.89</ele>
        <time>2015-06-19T08:08:26Z</time>
      </trkpt>
      <trkpt lat="36.222652" lon="-6.063823">
        <ele>6.85</ele>
        <time>2015-06-19T08:08:28Z</time>
      </trkpt>
      <trkpt lat="36.222588" lon="-6.063768">
        <ele>7.22</ele>
        <time>2015-06-19T08:08:30Z</time>
      </trkpt>
      <trkpt lat="36.222553" lon="-6.063747">
        <ele>7.67</ele>
        <time>2015-06-19T08:08:31Z</time>
      </trkpt>
      <trkpt lat="36.222519" lon="-6.063725">
        <ele>8.03</ele>
        <time>2015-06-19T08:08:32Z</time>
      </trkpt>
      <trkpt lat="36.222484" lon="-6.063700">
        <ele>8.47</ele>
        <time>2015-06-19T08:08:33Z</time>
      </trkpt>
      <trkpt lat="36.222445" lon="-6.063677">
        <ele>8.81</ele>
        <time>2015-06-19T08:08:34Z</time>
      </trkpt>
      <trkpt lat="36.222403" lon="-6.063655">
        <ele>8.81</ele>
        <time>2015-06-19T08:08:35Z</time>
      </trkpt>
      <trkpt lat="36.222069" lon="-6.063474">
        <ele>8.84</ele>
        <time>2015-06-19T08:08:43Z</time>
      </trkpt>
      <trkpt lat="36.221708" lon="-6.063261">
        <ele>8.85</ele>
        <time>2015-06-19T08:08:52Z</time>
      </trkpt>
      <trkpt lat="36.221483" lon="-6.063121">
        <ele>8.82</ele>
        <time>2015-06-19T08:08:57Z</time>
      </trkpt>
      <trkpt lat="36.221350" lon="-6.063028">
        <ele>8.83</ele>
        <time>2015-06-19T08:09:00Z</time>
      </trkpt>
      <trkpt lat="36.221041" lon="-6.062769">
        <ele>8.83</ele>
        <time>2015-06-19T08:09:08Z</time>
      </trkpt>
      <trkpt lat="36.220955" lon="-6.062662">
        <ele>8.86</ele>
        <time>2015-06-19T08:09:11Z</time>
      </trkpt>
      <trkpt lat="36.220857" lon="-6.062550">
        <ele>8.84</ele>
        <time>2015-06-19T08:09:14Z</time>
      </trkpt>
      <trkpt lat="36.220633" lon="-6.062381">
        <ele>8.84</ele>
        <time>2015-06-19T08:09:20Z</time>
      </trkpt>
      <trkpt lat="36.220276" lon="-6.062156">
        <ele>8.84</ele>
        <time>2015-06-19T08:09:29Z</time>
      </trkpt>
      <trkpt lat="36.220068" lon="-6.062034">
        <ele>8.82</ele>
        <time>2015-06-19T08:09:34Z</time>
      </trkpt>
      <trkpt lat="36.219934" lon="-6.061949">
        <ele>8.82</ele>
        <time>2015-06-19T08:09:37Z</time>
      </trkpt>
      <trkpt lat="36.219644" lon="-6.061754">
        <ele>8.81</ele>
        <time>2015-06-19T08:09:43Z</time>
      </trkpt>
      <trkpt lat="36.219309" lon="-6.061588">
        <ele>8.88</ele>
        <time>2015-06-19T08:09:50Z</time>
      </trkpt>
      <trkpt lat="36.219026" lon="-6.061456">
        <ele>8.85</ele>
        <time>2015-06-19T08:09:56Z</time>
      </trkpt>
      <trkpt lat="36.218687" lon="-6.061350">
        <ele>8.87</ele>
        <time>2015-06-19T08:10:03Z</time>
      </trkpt>
      <trkpt lat="36.218638" lon="-6.061320">
        <ele>8.87</ele>
        <time>2015-06-19T08:10:04Z</time>
      </trkpt>
      <trkpt lat="36.218592" lon="-6.061284">
        <ele>8.49</ele>
        <time>2015-06-19T08:10:05Z</time>
      </trkpt>
      <trkpt lat="36.218552" lon="-6.061245">
        <ele>8.02</ele>
        <time>2015-06-19T08:10:06Z</time>
      </trkpt>
      <trkpt lat="36.218515" lon="-6.061201">
        <ele>7.64</ele>
        <time>2015-06-19T08:10:07Z</time>
      </trkpt>
      <trkpt lat="36.218479" lon="-6.061161">
        <ele>7.29</ele>
        <time>2015-06-19T08:10:08Z</time>
      </trkpt>
      <trkpt lat="36.218445" lon="-6.061116">
        <ele>6.87</ele>
        <time>2015-06-19T08:10:09Z</time>
      </trkpt>
      <trkpt lat="36.218281" lon="-6.060894">
        <ele>6.84</ele>
        <time>2015-06-19T08:10:14Z</time>
      </trkpt>
      <trkpt lat="36.217986" lon="-6.060529">
        <ele>6.82</ele>
        <time>2015-06-19T08:10:22Z</time>
      </trkpt>
      <trkpt lat="36.217759" lon="-6.060367">
        <ele>6.81</ele>
        <time>2015-06-19T08:10:27Z</time>
      </trkpt>
      <trkpt lat="36.217732" lon="-6.060314">
        <ele>6.85</ele>
        <time>2015-06-19T08:10:28Z</time>
      </trkpt>
      <trkpt lat="36.217740" lon="-6.060148">
        <ele>6.84</ele>
        <time>2015-06-19T08:10:31Z</time>
      </trkpt>
      <trkpt lat="36.217751" lon="-6.060098">
        <ele>6.83</ele>
        <time>2015-06-19T08:10:32Z</time>
      </trkpt>
      <trkpt lat="36.217826" lon="-6.059832">
        <ele>6.86</ele>
        <time>2015-06-19T08:10:38Z</time>
      </trkpt>
      <trkpt lat="36.217885" lon="-6.059648">
        <ele>6.85</ele>
        <time>2015-06-19T08:10:43Z</time>
      </trkpt>
      <trkpt lat="36.217907" lon="-6.059581">
        <ele>6.86</ele>
        <time>2015-06-19T08:10:45Z</time>
      </trkpt>
      <trkpt lat="36.217981" lon="-6.059341">
        <ele>6.85</ele>
        <time>2015-06-19T08:10:52Z</time>
      </trkpt>
      <trkpt lat="36.218002" lon="-6.059273">
        <ele>7.23</ele>
        <time>2015-06-19T08:10:54Z</time>
      </trkpt>
      <trkpt lat="36.218014" lon="-6.059239">
        <ele>7.67</ele>
        <time>2015-06-19T08:10:55Z</time>
      </trkpt>
      <trkpt lat="36.218024" lon="-6.059202">
        <ele>8.00</ele>
        <time>2015-06-19T08:10:56Z</time>
      </trkpt>
      <trkpt lat="36.218036" lon="-6.059165">
        <ele>8.42</ele>
        <time>2015-06-19T08:10:57Z</time>
      </trkpt>
      <trkpt lat="36.218050" lon="-6.059126">
        <ele>8.81</ele>
        <time>2015-06-19T08:10:58Z</time>
      </trkpt>
      <trkpt lat="36.218133" lon="-6.058868">
        <ele>8.86</ele>
        <time>2015-06-19T08:11:05Z</time>
      </trkpt>
      <trkpt lat="36.218156" lon="-6.058795">
        <ele>8.86</ele>
        <time>2015-06-19T08:11:07Z</time>
      </trkpt>
      <trkpt lat="36.218257" lon="-6.058494">
        <ele>9.27</ele>
        <time>2015-06-19T08:11:16Z</time>
      </trkpt>
      <trkpt lat="36.218268" lon="-6.058461">
        <ele>9.68</ele>
        <time>2015-06-19T08:11:17Z</time>
      </trkpt>
      <trkpt lat="36.218277" lon="-6.058429">
        <ele>10.09</ele>
        <time>2015-06-19T08:11:18Z</time>
      </trkpt>
      <trkpt lat="36.218290" lon="-6.058396">
        <ele>10.69</ele>
        <time>2015-06-19T08:11:19Z</time>
      </trkpt>
      <trkpt lat="36.218304" lon="-6.058361">
        <ele>11.04</ele>
        <time>2015-06-19T08:11:20Z</time>
      </trkpt>
      <trkpt lat="36.218350" lon="-6.058262">
        <ele>11.02</ele>
        <time>2015-06-19T08:11:23Z</time>
      </trkpt>
      <trkpt lat="36.218410" lon="-6.058076">
        <ele>11.07</ele>
        <time>2015-06-19T08:11:29Z</time>
      </trkpt>
      <trkpt lat="36.218475" lon="-6.057971">
        <ele>11.03</ele>
        <time>2015-06-19T08:11:34Z</time>
      </trkpt>
      <trkpt lat="36.218515" lon="-6.057802">
        <ele>11.02</ele>
        <time>2015-06-19T08:11:40Z</time>
      </trkpt>
      <trkpt lat="36.218530" lon="-6.057775">
        <ele>11.01</ele>
        <time>2015-06-19T08:11:41Z</time>
      </trkpt>
      <trkpt lat="36.218584" lon="-6.057639">
        <ele>11.08</ele>
        <time>2015-06-19T08:11:46Z</time>
      </trkpt>
      <trkpt lat="36.218594" lon="-6.057625">
        <ele>11.05</ele>
        <time>2015-06-19T08:11:47Z</time>
      </trkpt>
      <trkpt lat="36.218620" lon="-6.057571">
        <ele>11.03</ele>
        <time>2015-06-19T08:11:50Z</time>
      </trkpt>
      <trkpt lat="36.218652" lon="-6.057513">
        <ele>11.07</ele>
        <time>2015-06-19T08:11:53Z</time>
      </trkpt>
      <trkpt lat="36.218668" lon="-6.057401">
        <ele>11.03</ele>
        <time>2015-06-19T08:11:58Z</time>
      </trkpt>
      <trkpt lat="36.218724" lon="-6.057253">
        <ele>11.04</ele>
        <time>2015-06-19T08:12:03Z</time>
      </trkpt>
      <trkpt lat="36.218735" lon="-6.057216">
        <ele>11.04</ele>
        <time>2015-06-19T08:12:04Z</time>
      </trkpt>
      <trkpt lat="36.218801" lon="-6.057037">
        <ele>11.03</ele>
        <time>2015-06-19T08:12:09Z</time>
      </trkpt>
      <trkpt lat="36.218873" lon="-6.056853">
        <ele>11.07</ele>
        <time>2015-06-19T08:12:15Z</time>
      </trkpt>
      <trkpt lat="36.218884" lon="-6.056824">
        <ele>11.03</ele>
        <time>2015-06-19T08:12:16Z</time>
      </trkpt>
      <trkpt lat="36.218971" lon="-6.056595">
        <ele>11.02</ele>
        <time>2015-06-19T08:12:23Z</time>
      </trkpt>
      <trkpt lat="36.219028" lon="-6.056440">
        <ele>11.01</ele>
        <time>2015-06-19T08:12:28Z</time>
      </trkpt>
      <trkpt lat="36.219057" lon="-6.056351">
        <ele>11.07</ele>
        <time>2015-06-19T08:12:31Z</time>
      </trkpt>
      <trkpt lat="36.219136" lon="-6.056112">
        <ele>11.02</ele>
        <time>2015-06-19T08:12:38Z</time>
      </trkpt>
      <trkpt lat="36.219149" lon="-6.056083">
        <ele>11.49</ele>
        <time>2015-06-19T08:12:39Z</time>
      </trkpt>
      <trkpt lat="36.219164" lon="-6.056052">
        <ele>12.28</ele>
        <time>2015-06-19T08:12:40Z</time>
      </trkpt>
      <trkpt lat="36.219178" lon="-6.056021">
        <ele>12.63</ele>
        <time>2015-06-19T08:12:41Z</time>
      </trkpt>
      <trkpt lat="36.219188" lon="-6.055986">
        <ele>13.01</ele>
        <time>2015-06-19T08:12:42Z</time>
      </trkpt>
      <trkpt lat="36.219248" lon="-6.055808">
        <ele>13.05</ele>
        <time>2015-06-19T08:12:47Z</time>
      </trkpt>
      <trkpt lat="36.219333" lon="-6.055566">
        <ele>13.05</ele>
        <time>2015-06-19T08:12:53Z</time>
      </trkpt>
      <trkpt lat="36.219427" lon="-6.055330">
        <ele>13.06</ele>
        <time>2015-06-19T08:12:59Z</time>
      </trkpt>
      <trkpt lat="36.219458" lon="-6.055245">
        <ele>13.06</ele>
        <time>2015-06-19T08:13:01Z</time>
      </trkpt>
      <trkpt lat="36.219598" lon="-6.054872">
        <ele>13.01</ele>
        <time>2015-06-19T08:13:10Z</time>
      </trkpt>
      <trkpt lat="36.219721" lon="-6.054558">
        <ele>13.01</ele>
        <time>2015-06-19T08:13:18Z</time>
      </trkpt>
      <trkpt lat="36.219810" lon="-6.054304">
        <ele>13.09</ele>
        <time>2015-06-19T08:13:24Z</time>
      </trkpt>
      <trkpt lat="36.219884" lon="-6.054094">
        <ele>13.08</ele>
        <time>2015-06-19T08:13:29Z</time>
      </trkpt>
      <trkpt lat="36.219911" lon="-6.054011">
        <ele>13.04</ele>
        <time>2015-06-19T08:13:31Z</time>
      </trkpt>
      <trkpt lat="36.220026" lon="-6.053728">
        <ele>13.07</ele>
        <time>2015-06-19T08:13:38Z</time>
      </trkpt>
      <trkpt lat="36.220146" lon="-6.053407">
        <ele>13.04</ele>
        <time>2015-06-19T08:13:46Z</time>
      </trkpt>
      <trkpt lat="36.220270" lon="-6.053083">
        <ele>13.07</ele>
        <time>2015-06-19T08:13:54Z</time>
      </trkpt>
      <trkpt lat="36.220407" lon="-6.052717">
        <ele>13.03</ele>
        <time>2015-06-19T08:14:03Z</time>
      </trkpt>
      <trkpt lat="36.220519" lon="-6.052451">
        <ele>13.03</ele>
        <time>2015-06-19T08:14:10Z</time>
      </trkpt>
      <trkpt lat="36.220652" lon="-6.052130">
        <ele>13.09</ele>
        <time>2015-06-19T08:14:18Z</time>
      </trkpt>
      <trkpt lat="36.220792" lon="-6.051816">
        <ele>13.04</ele>
        <time>2015-06-19T08:14:26Z</time>
      </trkpt>
      <trkpt lat="36.220902" lon="-6.051529">
        <ele>13.03</ele>
        <time>2015-06-19T08:14:33Z</time>
      </trkpt>
      <trkpt lat="36.220973" lon="-6.051399">
        <ele>13.01</ele>
        <time>2015-06-19T08:14:37Z</time>
      </trkpt>
      <trkpt lat="36.221003" lon="-6.051394">
        <ele>13.05</ele>
        <time>2015-06-19T08:14:38Z</time>
      </trkpt>
      <trkpt lat="36.221077" lon="-6.051448">
        <ele>13.07</ele>
        <time>2015-06-19T08:14:41Z</time>
      </trkpt>
      <trkpt lat="36.221124" lon="-6.051475">
        <ele>13.03</ele>
        <time>2015-06-19T08:14:43Z</time>
      </trkpt>
      <trkpt lat="36.221182" lon="-6.051518">
        <ele>13.06</ele>
        <time>2015-06-19T08:14:46Z</time>
      </trkpt>
      <trkpt lat="36.221340" lon="-6.051574">
        <ele>13.07</ele>
        <time>2015-06-19T08:14:52Z</time>
      </trkpt>
      <trkpt lat="36.221402" lon="-6.051467">
        <ele>13.06</ele>
        <time>2015-06-19T08:14:55Z</time>
      </trkpt>
      <trkpt lat="36.221432" lon="-6.051387">
        <ele>13.06</ele>
        <time>2015-06-19T08:14:57Z</time>
      </trkpt>
      <trkpt lat="36.221510" lon="-6.051176">
        <ele>13.06</ele>
        <time>2015-06-19T08:15:02Z</time>
      </trkpt>
      <trkpt lat="36.221602" lon="-6.050932">
        <ele>14.10</ele>
        <time>2015-06-19T08:15:08Z</time>
      </trkpt>
      <trkpt lat="36.221616" lon="-6.050888">
        <ele>14.41</ele>
        <time>2015-06-19T08:15:09Z</time>
      </trkpt>
      <trkpt lat="36.221631" lon="-6.050847">
        <ele>14.83</ele>
        <time>2015-06-19T08:15:10Z</time>
      </trkpt>
      <trkpt lat="36.221642" lon="-6.050806">
        <ele>15.21</ele>
        <time>2015-06-19T08:15:11Z</time>
      </trkpt>
      <trkpt lat="36.221699" lon="-6.050639">
        <ele>15.28</ele>
        <time>2015-06-19T08:15:15Z</time>
      </trkpt>
      <trkpt lat="36.221711" lon="-6.050600">
        <ele>15.30</ele>
        <time>2015-06-19T08:15:16Z</time>
      </trkpt>
      <trkpt lat="36.221829" lon="-6.050288">
        <ele>15.23</ele>
        <time>2015-06-19T08:15:24Z</time>
      </trkpt>
      <trkpt lat="36.221903" lon="-6.050177">
        <ele>15.24</ele>
        <time>2015-06-19T08:15:28Z</time>
      </trkpt>
      <trkpt lat="36.221936" lon="-6.050189">
        <ele>15.23</ele>
        <time>2015-06-19T08:15:29Z</time>
      </trkpt>
      <trkpt lat="36.222029" lon="-6.050244">
        <ele>15.29</ele>
        <time>2015-06-19T08:15:32Z</time>
      </trkpt>
      <trkpt lat="36.222097" lon="-6.050277">
        <ele>15.24</ele>
        <time>2015-06-19T08:15:34Z</time>
      </trkpt>
      <trkpt lat="36.222160" lon="-6.050262">
        <ele>15.21</ele>
        <time>2015-06-19T08:15:36Z</time>
      </trkpt>
      <trkpt lat="36.222177" lon="-6.050239">
        <ele>15.27</ele>
        <time>2015-06-19T08:15:37Z</time>
      </trkpt>
      <trkpt lat="36.222212" lon="-6.050134">
        <ele>15.23</ele>
        <time>2015-06-19T08:15:40Z</time>
      </trkpt>
      <trkpt lat="36.222224" lon="-6.050096">
        <ele>15.22</ele>
        <time>2015-06-19T08:15:41Z</time>
      </trkpt>
      <trkpt lat="36.222320" lon="-6.049813">
        <ele>15.21</ele>
        <time>2015-06-19T08:15:48Z</time>
      </trkpt>
      <trkpt lat="36.222426" lon="-6.049502">
        <ele>15.29</ele>
        <time>2015-06-19T08:15:56Z</time>
      </trkpt>
      <trkpt lat="36.222491" lon="-6.049326">
        <ele>15.21</ele>
        <time>2015-06-19T08:16:02Z</time>
      </trkpt>
      <trkpt lat="36.222563" lon="-6.049091">
        <ele>15.23</ele>
        <time>2015-06-19T08:16:09Z</time>
      </trkpt>
      <trkpt lat="36.222652" lon="-6.048850">
        <ele>15.22</ele>
        <time>2015-06-19T08:16:15Z</time>
      </trkpt>
      <trkpt lat="36.222736" lon="-6.048587">
        <ele>15.23</ele>
        <time>2015-06-19T08:16:21Z</time>
      </trkpt>
      <trkpt lat="36.222745" lon="-6.048540">
        <ele>15.27</ele>
        <time>2015-06-19T08:16:22Z</time>
      </trkpt>
      <trkpt lat="36.222770" lon="-6.048367">
        <ele>15.26</ele>
        <time>2015-06-19T08:16:27Z</time>
      </trkpt>
      <trkpt lat="36.222752" lon="-6.048351">
        <ele>15.22</ele>
        <time>2015-06-19T08:16:28Z</time>
      </trkpt>
      <trkpt lat="36.222654" lon="-6.048348">
        <ele>15.29</ele>
        <time>2015-06-19T08:16:32Z</time>
      </trkpt>
      <trkpt lat="36.222466" lon="-6.048354">
        <ele>15.29</ele>
        <time>2015-06-19T08:16:37Z</time>
      </trkpt>
      <trkpt lat="36.222401" lon="-6.048359">
        <ele>15.62</ele>
        <time>2015-06-19T08:16:39Z</time>
      </trkpt>
      <trkpt lat="36.222371" lon="-6.048357">
        <ele>16.01</ele>
        <time>2015-06-19T08:16:40Z</time>
      </trkpt>
      <trkpt lat="36.222348" lon="-6.048332">
        <ele>16.45</ele>
        <time>2015-06-19T08:16:41Z</time>
      </trkpt>
      <trkpt lat="36.222334" lon="-6.048294">
        <ele>16.88</ele>
        <time>2015-06-19T08:16:42Z</time>
      </trkpt>
      <trkpt lat="36.222331" lon="-6.048264">
        <ele>17.23</ele>
        <time>2015-06-19T08:16:43Z</time>
      </trkpt>
      <trkpt lat="36.222334" lon="-6.048197">
        <ele>17.25</ele>
        <time>2015-06-19T08:16:45Z</time>
      </trkpt>
      <trkpt lat="36.222330" lon="-6.048153">
        <ele>17.24</ele>
        <time>2015-06-19T08:16:46Z</time>
      </trkpt>
      <trkpt lat="36.222272" lon="-6.047899">
        <ele>17.23</ele>
        <time>2015-06-19T08:16:52Z</time>
      </trkpt>
      <trkpt lat="36.222212" lon="-6.047580">
        <ele>17.30</ele>
        <time>2015-06-19T08:16:59Z</time>
      </trkpt>
      <trkpt lat="36.222188" lon="-6.047490">
        <ele>17.23</ele>
        <time>2015-06-19T08:17:01Z</time>
      </trkpt>
      <trkpt lat="36.222143" lon="-6.047389">
        <ele>17.24</ele>
        <time>2015-06-19T08:17:03Z</time>
      </trkpt>
      <trkpt lat="36.222117" lon="-6.047338">
        <ele>17.22</ele>
        <time>2015-06-19T08:17:04Z</time>
      </trkpt>
      <trkpt lat="36.222100" lon="-6.047278">
        <ele>17.21</ele>
        <time>2015-06-19T08:17:05Z</time>
      </trkpt>
      <trkpt lat="36.222098" lon="-6.047229">
        <ele>16.81</ele>
        <time>2015-06-19T08:17:06Z</time>
      </trkpt>
      <trkpt lat="36.222110" lon="-6.047187">
        <ele>16.47</ele>
        <time>2015-06-19T08:17:07Z</time>
      </trkpt>
      <trkpt lat="36.222133" lon="-6.047164">
        <ele>16.03</ele>
        <time>2015-06-19T08:17:08Z</time>
      </trkpt>
      <trkpt lat="36.222160" lon="-6.047147">
        <ele>15.69</ele>
        <time>2015-06-19T08:17:09Z</time>
      </trkpt>
      <trkpt lat="36.222185" lon="-6.047150">
        <ele>15.24</ele>
        <time>2015-06-19T08:17:10Z</time>
      </trkpt>
      <trkpt lat="36.222256" lon="-6.047127">
        <ele>15.24</ele>
        <time>2015-06-19T08:17:13Z</time>
      </trkpt>
      <trkpt lat="36.222282" lon="-6.047118">
        <ele>15.26</ele>
        <time>2015-06-19T08:17:14Z</time>
      </trkpt>
      <trkpt lat="36.222311" lon="-6.047107">
        <ele>15.22</ele>
        <time>2015-06-19T08:17:15Z</time>
      </trkpt>
      <trkpt lat="36.222399" lon="-6.047080">
        <ele>15.29</ele>
        <time>2015-06-19T08:17:18Z</time>
      </trkpt>
      <trkpt lat="36.222499" lon="-6.047055">
        <ele>15.28</ele>
        <time>2015-06-19T08:17:21Z</time>
      </trkpt>
      <trkpt lat="36.222696" lon="-6.046996">
        <ele>15.23</ele>
        <time>2015-06-19T08:17:27Z</time>
      </trkpt>
      <trkpt lat="36.222862" lon="-6.046919">
        <ele>15.23</ele>
        <time>2015-06-19T08:17:32Z</time>
      </trkpt>
      <trkpt lat="36.223040" lon="-6.046869">
        <ele>15.21</ele>
        <time>2015-06-19T08:17:37Z</time>
      </trkpt>
      <trkpt lat="36.223077" lon="-6.046861">
        <ele>15.27</ele>
        <time>2015-06-19T08:17:38Z</time>
      </trkpt>
      <trkpt lat="36.223425" lon="-6.046771">
        <ele>15.27</ele>
        <time>2015-06-19T08:17:47Z</time>
      </trkpt>
      <trkpt lat="36.223730" lon="-6.046653">
        <ele>15.25</ele>
        <time>2015-06-19T08:17:55Z</time>
      </trkpt>
      <trkpt lat="36.223788" lon="-6.046580">
        <ele>15.22</ele>
        <time>2015-06-19T08:17:57Z</time>
      </trkpt>
      <trkpt lat="36.223814" lon="-6.046485">
        <ele>15.29</ele>
        <time>2015-06-19T08:17:59Z</time>
      </trkpt>
      <trkpt lat="36.223811" lon="-6.046436">
        <ele>15.62</ele>
        <time>2015-06-19T08:18:00Z</time>
      </trkpt>
      <trkpt lat="36.223802" lon="-6.046382">
        <ele>16.63</ele>
        <time>2015-06-19T08:18:01Z</time>
      </trkpt>
      <trkpt lat="36.223799" lon="-6.046333">
        <ele>17.01</ele>
        <time>2015-06-19T08:18:02Z</time>
      </trkpt>
      <trkpt lat="36.223804" lon="-6.046282">
        <ele>17.69</ele>
        <time>2015-06-19T08:18:03Z</time>
      </trkpt>
      <trkpt lat="36.223882" lon="-6.046175">
        <ele>17.67</ele>
        <time>2015-06-19T08:18:06Z</time>
      </trkpt>
      <trkpt lat="36.223910" lon="-6.046136">
        <ele>17.62</ele>
        <time>2015-06-19T08:18:07Z</time>
      </trkpt>
      <trkpt lat="36.223942" lon="-6.046108">
        <ele>17.61</ele>
        <time>2015-06-19T08:18:08Z</time>
      </trkpt>
      <trkpt lat="36.224068" lon="-6.045971">
        <ele>17.65</ele>
        <time>2015-06-19T08:18:12Z</time>
      </trkpt>
      <trkpt lat="36.224233" lon="-6.045762">
        <ele>17.63</ele>
        <time>2015-06-19T08:18:18Z</time>
      </trkpt>
      <trkpt lat="36.224234" lon="-6.045735">
        <ele>17.64</ele>
        <time>2015-06-19T08:18:19Z</time>
      </trkpt>
      <trkpt lat="36.224211" lon="-6.045716">
        <ele>17.64</ele>
        <time>2015-06-19T08:18:21Z</time>
      </trkpt>
      <trkpt lat="36.224176" lon="-6.045785">
        <ele>17.63</ele>
        <time>2015-06-19T08:18:24Z</time>
      </trkpt>
      <trkpt lat="36.224162" lon="-6.045848">
        <ele>17.66</ele>
        <time>2015-06-19T08:18:26Z</time>
      </trkpt>
      <trkpt lat="36.224136" lon="-6.045876">
        <ele>17.63</ele>
        <time>2015-06-19T08:18:27Z</time>
      </trkpt>
      <trkpt lat="36.224081" lon="-6.045935">
        <ele>17.69</ele>
        <time>2015-06-19T08:18:29Z</time>
      </trkpt>
      <trkpt lat="36.223936" lon="-6.046110">
        <ele>17.66</ele>
        <time>2015-06-19T08:18:34Z</time>
      </trkpt>
      <trkpt lat="36.223902" lon="-6.046143">
        <ele>17.60</ele>
        <time>2015-06-19T08:18:35Z</time>
      </trkpt>
      <trkpt lat="36.223776" lon="-6.046320">
        <ele>17.62</ele>
        <time>2015-06-19T08:18:40Z</time>
      </trkpt>
      <trkpt lat="36.223771" lon="-6.046420">
        <ele>17.61</ele>
        <time>2015-06-19T08:18:42Z</time>
      </trkpt>
      <trkpt lat="36.223776" lon="-6.046533">
        <ele>17.62</ele>
        <time>2015-06-19T08:18:44Z</time>
      </trkpt>
      <trkpt lat="36.223769" lon="-6.046586">
        <ele>17.65</ele>
        <time>2015-06-19T08:18:45Z</time>
      </trkpt>
      <trkpt lat="36.223718" lon="-6.046667">
        <ele>17.66</ele>
        <time>2015-06-19T08:18:47Z</time>
      </trkpt>
      <trkpt lat="36.223577" lon="-6.046717">
        <ele>17.68</ele>
        <time>2015-06-19T08:18:51Z</time>
      </trkpt>
      <trkpt lat="36.223414" lon="-6.046769">
        <ele>17.65</ele>
        <time>2015-06-19T08:18:56Z</time>
      </trkpt>
      <trkpt lat="36.223302" lon="-6.046797">
        <ele>17.61</ele>
        <time>2015-06-19T08:18:59Z</time>
      </trkpt>
      <trkpt lat="36.223152" lon="-6.046835">
        <ele>17.70</ele>
        <time>2015-06-19T08:19:03Z</time>
      </trkpt>
      <trkpt lat="36.223030" lon="-6.046876">
        <ele>17.68</ele>
        <time>2015-06-19T08:19:07Z</time>
      </trkpt>
      <trkpt lat="36.223009" lon="-6.046879">
        <ele>17.68</ele>
        <time>2015-06-19T08:19:08Z</time>
      </trkpt>
      <trkpt lat="36.223006" lon="-6.046862">
        <ele>17.63</ele>
        <time>2015-06-19T08:19:10Z</time>
      </trkpt>
      <trkpt lat="36.223036" lon="-6.046855">
        <ele>17.63</ele>
        <time>2015-06-19T08:19:12Z</time>
      </trkpt>
      <trkpt lat="36.223078" lon="-6.046848">
        <ele>17.61</ele>
        <time>2015-06-19T08:19:14Z</time>
      </trkpt>
      <trkpt lat="36.223142" lon="-6.046841">
        <ele>17.69</ele>
        <time>2015-06-19T08:19:16Z</time>
      </trkpt>
      <trkpt lat="36.223175" lon="-6.046830">
        <ele>17.69</ele>
        <time>2015-06-19T08:19:17Z</time>
      </trkpt>
      <trkpt lat="36.223438" lon="-6.046749">
        <ele>17.68</ele>
        <time>2015-06-19T08:19:24Z</time>
      </trkpt>
      <trkpt lat="36.223626" lon="-6.046697">
        <ele>17.64</ele>
        <time>2015-06-19T08:19:29Z</time>
      </trkpt>
      <trkpt lat="36.223698" lon="-6.046652">
        <ele>17.61</ele>
        <time>2015-06-19T08:19:31Z</time>
      </trkpt>
      <trkpt lat="36.223726" lon="-6.046617">
        <ele>17.68</ele>
        <time>2015-06-19T08:19:32Z</time>
      </trkpt>
      <trkpt lat="36.223781" lon="-6.046489">
        <ele>17.68</ele>
        <time>2015-06-19T08:19:35Z</time>
      </trkpt>
      <trkpt lat="36.223781" lon="-6.046398">
        <ele>17.66</ele>
        <time>2015-06-19T08:19:37Z</time>
      </trkpt>
      <trkpt lat="36.223805" lon="-6.046230">
        <ele>17.65</ele>
        <time>2015-06-19T08:19:41Z</time>
      </trkpt>
      <trkpt lat="36.223972" lon="-6.046049">
        <ele>17.66</ele>
        <time>2015-06-19T08:19:47Z</time>
      </trkpt>
      <trkpt lat="36.224141" lon="-6.045852">
        <ele>17.62</ele>
        <time>2015-06-19T08:19:53Z</time>
      </trkpt>
      <trkpt lat="36.224344" lon="-6.045633">
        <ele>17.61</ele>
        <time>2015-06-19T08:20:00Z</time>
      </trkpt>
      <trkpt lat="36.224484" lon="-6.045463">
        <ele>17.64</ele>
        <time>2015-06-19T08:20:06Z</time>
      </trkpt>
      <trkpt lat="36.224676" lon="-6.045254">
        <ele>17.67</ele>
        <time>2015-06-19T08:20:14Z</time>
      </trkpt>
      <trkpt lat="36.224825" lon="-6.045087">
        <ele>17.63</ele>
        <time>2015-06-19T08:20:21Z</time>
      </trkpt>
      <trkpt lat="36.224891" lon="-6.045005">
        <ele>17.67</ele>
        <time>2015-06-19T08:20:26Z</time>
      </trkpt>
      <trkpt lat="36.224903" lon="-6.044999">
        <ele>17.70</ele>
        <time>2015-06-19T08:20:32Z</time>
      </trkpt>
      <trkpt lat="36.224936" lon="-6.045000">
        <ele>17.62</ele>
        <time>2015-06-19T08:20:36Z</time>
      </trkpt>
      <trkpt lat="36.224940" lon="-6.045000">
        <ele>17.64</ele>
        <time>2015-06-19T08:20:39Z</time>
      </trkpt>
      <trkpt lat="36.224940" lon="-6.045000">
        <ele>17.70</ele>
        <time>2015-06-19T08:20:50Z</time>
      </trkpt>
      <trkpt lat="36.224940" lon="-6.045000">
        <ele>17.65</ele>
        <time>2015-06-19T08:20:51Z</time>
      </trkpt>
      <trkpt lat="36.224940" lon="-6.045000">
        <ele>17.60</ele>
        <time>2015-06-19T08:21:03Z</time>
      </trkpt>
      <trkpt lat="36.224940" lon="-6.045000">
        <ele>17.61</ele>
        <time>2015-06-19T08:21:05Z</time>
      </trkpt>
      <trkpt lat="36.224948" lon="-6.044997">
        <ele>17.61</ele>
        <time>2015-06-19T08:21:10Z</time>
      </trkpt>
      <trkpt lat="36.224950" lon="-6.044996">
        <ele>17.64</ele>
        <time>2015-06-19T08:21:18Z</time>
      </trkpt>
      <trkpt lat="36.224946" lon="-6.044982">
        <ele>17.66</ele>
        <time>2015-06-19T08:21:23Z</time>
      </trkpt>
      <trkpt lat="36.224946" lon="-6.044982">
        <ele>17.66</ele>
        <time>2015-06-19T08:21:25Z</time>
      </trkpt>
      <trkpt lat="36.224950" lon="-6.044973">
        <ele>17.63</ele>
        <time>2015-06-19T08:21:34Z</time>
      </trkpt>
      <trkpt lat="36.224951" lon="-6.044958">
        <ele>17.62</ele>
        <time>2015-06-19T08:21:35Z</time>
      </trkpt>
      <trkpt lat="36.224955" lon="-6.044943">
        <ele>18.06</ele>
        <time>2015-06-19T08:21:37Z</time>
      </trkpt>
      <trkpt lat="36.224958" lon="-6.044939">
        <ele>18.48</ele>
        <time>2015-06-19T08:21:38Z</time>
      </trkpt>
      <trkpt lat="36.224958" lon="-6.044939">
        <ele>18.86</ele>
        <time>2015-06-19T08:21:39Z</time>
      </trkpt>
      <trkpt lat="36.224961" lon="-6.044939">
        <ele>19.30</ele>
        <time>2015-06-19T08:21:40Z</time>
      </trkpt>
      <trkpt lat="36.224961" lon="-6.044939">
        <ele>19.63</ele>
        <time>2015-06-19T08:21:41Z</time>
      </trkpt>
      <trkpt lat="36.224959" lon="-6.044905">
        <ele>19.62</ele>
        <time>2015-06-19T08:21:46Z</time>
      </trkpt>
      <trkpt lat="36.224950" lon="-6.044850">
        <ele>19.61</ele>
        <time>2015-06-19T08:21:49Z</time>
      </trkpt>
      <trkpt lat="36.224926" lon="-6.044812">
        <ele>19.63</ele>
        <time>2015-06-19T08:21:51Z</time>
      </trkpt>
      <trkpt lat="36.224800" lon="-6.044631">
        <ele>19.64</ele>
        <time>2015-06-19T08:21:57Z</time>
      </trkpt>
      <trkpt lat="36.224650" lon="-6.044416">
        <ele>19.66</ele>
        <time>2015-06-19T08:22:04Z</time>
      </trkpt>
      <trkpt lat="36.224500" lon="-6.044191">
        <ele>19.67</ele>
        <time>2015-06-19T08:22:10Z</time>
      </trkpt>
      <trkpt lat="36.224391" lon="-6.044044">
        <ele>19.67</ele>
        <time>2015-06-19T08:22:14Z</time>
      </trkpt>
      <trkpt lat="36.224241" lon="-6.043870">
        <ele>19.68</ele>
        <time>2015-06-19T08:22:19Z</time>
      </trkpt>
      <trkpt lat="36.223908" lon="-6.043519">
        <ele>19.67</ele>
        <time>2015-06-19T08:22:30Z</time>
      </trkpt>
      <trkpt lat="36.223878" lon="-6.043487">
        <ele>20.08</ele>
        <time>2015-06-19T08:22:31Z</time>
      </trkpt>
      <trkpt lat="36.223846" lon="-6.043454">
        <ele>20.42</ele>
        <time>2015-06-19T08:22:32Z</time>
      </trkpt>
      <trkpt lat="36.223817" lon="-6.043423">
        <ele>21.29</ele>
        <time>2015-06-19T08:22:33Z</time>
      </trkpt>
      <trkpt lat="36.223787" lon="-6.043390">
        <ele>21.61</ele>
        <time>2015-06-19T08:22:34Z</time>
      </trkpt>
      <trkpt lat="36.223701" lon="-6.043294">
        <ele>21.61</ele>
        <time>2015-06-19T08:22:37Z</time>
      </trkpt>
      <trkpt lat="36.223428" lon="-6.042996">
        <ele>21.64</ele>
        <time>2015-06-19T08:22:46Z</time>
      </trkpt>
      <trkpt lat="36.223147" lon="-6.042677">
        <ele>21.68</ele>
        <time>2015-06-19T08:22:55Z</time>
      </trkpt>
      <trkpt lat="36.222891" lon="-6.042410">
        <ele>21.64</ele>
        <time>2015-06-19T08:23:03Z</time>
      </trkpt>
      <trkpt lat="36.222616" lon="-6.042202">
        <ele>21.65</ele>
        <time>2015-06-19T08:23:11Z</time>
      </trkpt>
      <trkpt lat="36.222288" lon="-6.041975">
        <ele>21.65</ele>
        <time>2015-06-19T08:23:20Z</time>
      </trkpt>
      <trkpt lat="36.221996" lon="-6.041764">
        <ele>21.63</ele>
        <time>2015-06-19T08:23:28Z</time>
      </trkpt>
      <trkpt lat="36.221969" lon="-6.041729">
        <ele>21.64</ele>
        <time>2015-06-19T08:23:29Z</time>
      </trkpt>
      <trkpt lat="36.221690" lon="-6.041548">
        <ele>21.22</ele>
        <time>2015-06-19T08:27:45Z</time>
      </trkpt>
      <trkpt lat="36.221656" lon="-6.041531">
        <ele>20.81</ele>
        <time>2015-06-19T08:27:46Z</time>
      </trkpt>
      <trkpt lat="36.221624" lon="-6.041510">
        <ele>20.42</ele>
        <time>2015-06-19T08:27:47Z</time>
      </trkpt>
      <trkpt lat="36.221591" lon="-6.041489">
        <ele>20.00</ele>
        <time>2015-06-19T08:27:48Z</time>
      </trkpt>
      <trkpt lat="36.221555" lon="-6.041472">
        <ele>19.61</ele>
        <time>2015-06-19T08:27:49Z</time>
      </trkpt>
      <trkpt lat="36.221518" lon="-6.041454">
        <ele>19.63</ele>
        <time>2015-06-19T08:27:50Z</time>
      </trkpt>
      <trkpt lat="36.221407" lon="-6.041394">
        <ele>19.70</ele>
        <time>2015-06-19T08:27:53Z</time>
      </trkpt>
      <trkpt lat="36.221299" lon="-6.041334">
        <ele>19.64</ele>
        <time>2015-06-19T08:27:56Z</time>
      </trkpt>
      <trkpt lat="36.221111" lon="-6.041237">
        <ele>19.67</ele>
        <time>2015-06-19T08:28:01Z</time>
      </trkpt>
      <trkpt lat="36.221028" lon="-6.041216">
        <ele>19.65</ele>
        <time>2015-06-19T08:28:03Z</time>
      </trkpt>
      <trkpt lat="36.220988" lon="-6.041198">
        <ele>19.67</ele>
        <time>2015-06-19T08:28:04Z</time>
      </trkpt>
      <trkpt lat="36.220920" lon="-6.041132">
        <ele>19.62</ele>
        <time>2015-06-19T08:28:06Z</time>
      </trkpt>
      <trkpt lat="36.220888" lon="-6.041097">
        <ele>19.67</ele>
        <time>2015-06-19T08:28:07Z</time>
      </trkpt>
      <trkpt lat="36.220741" lon="-6.040978">
        <ele>19.64</ele>
        <time>2015-06-19T08:28:11Z</time>
      </trkpt>
      <trkpt lat="36.220660" lon="-6.040934">
        <ele>19.66</ele>
        <time>2015-06-19T08:28:13Z</time>
      </trkpt>
      <trkpt lat="36.220577" lon="-6.040888">
        <ele>19.61</ele>
        <time>2015-06-19T08:28:15Z</time>
      </trkpt>
      <trkpt lat="36.220344" lon="-6.040736">
        <ele>19.61</ele>
        <time>2015-06-19T08:28:21Z</time>
      </trkpt>
      <trkpt lat="36.220109" lon="-6.040553">
        <ele>19.61</ele>
        <time>2015-06-19T08:28:27Z</time>
      </trkpt>
      <trkpt lat="36.219837" lon="-6.040335">
        <ele>19.61</ele>
        <time>2015-06-19T08:28:34Z</time>
      </trkpt>
      <trkpt lat="36.219536" lon="-6.040087">
        <ele>19.66</ele>
        <time>2015-06-19T08:28:42Z</time>
      </trkpt>
      <trkpt lat="36.219203" lon="-6.039813">
        <ele>19.66</ele>
        <time>2015-06-19T08:28:51Z</time>
      </trkpt>
      <trkpt lat="36.218943" lon="-6.039599">
        <ele>19.64</ele>
        <time>2015-06-19T08:28:58Z</time>
      </trkpt>
      <trkpt lat="36.218637" lon="-6.039329">
        <ele>19.62</ele>
        <time>2015-06-19T08:29:06Z</time>
      </trkpt>
      <trkpt lat="36.218367" lon="-6.039093">
        <ele>19.63</ele>
        <time>2015-06-19T08:29:13Z</time>
      </trkpt>
      <trkpt lat="36.218111" lon="-6.038848">
        <ele>19.62</ele>
        <time>2015-06-19T08:29:20Z</time>
      </trkpt>
      <trkpt lat="36.217805" lon="-6.038532">
        <ele>19.66</ele>
        <time>2015-06-19T08:29:28Z</time>
      </trkpt>
      <trkpt lat="36.217557" lon="-6.038289">
        <ele>19.68</ele>
        <time>2015-06-19T08:29:34Z</time>
      </trkpt>
      <trkpt lat="36.217283" lon="-6.038019">
        <ele>19.61</ele>
        <time>2015-06-19T08:29:41Z</time>
      </trkpt>
      <trkpt lat="36.217004" lon="-6.037741">
        <ele>19.61</ele>
        <time>2015-06-19T08:29:48Z</time>
      </trkpt>
      <trkpt lat="36.216638" lon="-6.037371">
        <ele>19.69</ele>
        <time>2015-06-19T08:29:57Z</time>
      </trkpt>
      <trkpt lat="36.216605" lon="-6.037330">
        <ele>19.66</ele>
        <time>2015-06-19T08:29:58Z</time>
      </trkpt>
      <trkpt lat="36.216543" lon="-6.037203">
        <ele>19.70</ele>
        <time>2015-06-19T08:30:01Z</time>
      </trkpt>
      <trkpt lat="36.216481" lon="-6.037127">
        <ele>19.66</ele>
        <time>2015-06-19T08:30:05Z</time>
      </trkpt>
      <trkpt lat="36.216449" lon="-6.037095">
        <ele>19.68</ele>
        <time>2015-06-19T08:30:09Z</time>
      </trkpt>
      <trkpt lat="36.216449" lon="-6.037096">
        <ele>19.65</ele>
        <time>2015-06-19T08:30:11Z</time>
      </trkpt>
      <trkpt lat="36.216449" lon="-6.037096">
        <ele>19.69</ele>
        <time>2015-06-19T08:30:17Z</time>
      </trkpt>
      <trkpt lat="36.216447" lon="-6.037096">
        <ele>19.65</ele>
        <time>2015-06-19T08:30:19Z</time>
      </trkpt>
      <trkpt lat="36.216389" lon="-6.037054">
        <ele>19.62</ele>
        <time>2015-06-19T08:30:26Z</time>
      </trkpt>
      <trkpt lat="36.216302" lon="-6.037002">
        <ele>19.64</ele>
        <time>2015-06-19T08:30:35Z</time>
      </trkpt>
      <trkpt lat="36.216289" lon="-6.036985">
        <ele>19.61</ele>
        <time>2015-06-19T08:30:37Z</time>
      </trkpt>
      <trkpt lat="36.216279" lon="-6.036940">
        <ele>19.61</ele>
        <time>2015-06-19T08:30:41Z</time>
      </trkpt>
      <trkpt lat="36.216280" lon="-6.036943">
        <ele>19.69</ele>
        <time>2015-06-19T08:30:47Z</time>
      </trkpt>
      <trkpt lat="36.216280" lon="-6.036943">
        <ele>19.66</ele>
        <time>2015-06-19T08:30:48Z</time>
      </trkpt>
      <trkpt lat="36.216280" lon="-6.036943">
        <ele>19.64</ele>
        <time>2015-06-19T08:30:57Z</time>
      </trkpt>
      <trkpt lat="36.216280" lon="-6.036943">
        <ele>19.61</ele>
        <time>2015-06-19T08:31:00Z</time>
      </trkpt>
      <trkpt lat="36.216280" lon="-6.036943">
        <ele>19.64</ele>
        <time>2015-06-19T08:31:03Z</time>
      </trkpt>
      <trkpt lat="36.216280" lon="-6.036943">
        <ele>19.67</ele>
        <time>2015-06-19T08:31:04Z</time>
      </trkpt>
      <trkpt lat="36.216279" lon="-6.036946">
        <ele>19.64</ele>
        <time>2015-06-19T08:31:06Z</time>
      </trkpt>
      <trkpt lat="36.216269" lon="-6.036961">
        <ele>19.61</ele>
        <time>2015-06-19T08:31:08Z</time>
      </trkpt>
      <trkpt lat="36.216251" lon="-6.036964">
        <ele>19.64</ele>
        <time>2015-06-19T08:31:10Z</time>
      </trkpt>
      <trkpt lat="36.216238" lon="-6.036958">
        <ele>19.60</ele>
        <time>2015-06-19T08:31:14Z</time>
      </trkpt>
      <trkpt lat="36.216238" lon="-6.036958">
        <ele>19.62</ele>
        <time>2015-06-19T08:31:22Z</time>
      </trkpt>
      <trkpt lat="36.216237" lon="-6.036957">
        <ele>19.61</ele>
        <time>2015-06-19T08:31:29Z</time>
      </trkpt>
      <trkpt lat="36.216237" lon="-6.036956">
        <ele>19.61</ele>
        <time>2015-06-19T08:31:36Z</time>
      </trkpt>
      <trkpt lat="36.216227" lon="-6.036950">
        <ele>19.68</ele>
        <time>2015-06-19T08:31:39Z</time>
      </trkpt>
      <trkpt lat="36.216228" lon="-6.036950">
        <ele>19.67</ele>
        <time>2015-06-19T08:31:41Z</time>
      </trkpt>
      <trkpt lat="36.216226" lon="-6.036949">
        <ele>19.62</ele>
        <time>2015-06-19T08:31:42Z</time>
      </trkpt>
      <trkpt lat="36.216217" lon="-6.036942">
        <ele>19.67</ele>
        <time>2015-06-19T08:31:43Z</time>
      </trkpt>
      <trkpt lat="36.216216" lon="-6.036944">
        <ele>19.67</ele>
        <time>2015-06-19T08:31:48Z</time>
      </trkpt>
      <trkpt lat="36.216198" lon="-6.036937">
        <ele>19.66</ele>
        <time>2015-06-19T08:31:49Z</time>
      </trkpt>
      <trkpt lat="36.216125" lon="-6.036902">
        <ele>19.64</ele>
        <time>2015-06-19T08:31:52Z</time>
      </trkpt>
      <trkpt lat="36.216061" lon="-6.036890">
        <ele>19.67</ele>
        <time>2015-06-19T08:31:54Z</time>
      </trkpt>
      <trkpt lat="36.215981" lon="-6.036867">
        <ele>19.63</ele>
        <time>2015-06-19T08:31:56Z</time>
      </trkpt>
      <trkpt lat="36.215905" lon="-6.036811">
        <ele>19.62</ele>
        <time>2015-06-19T08:31:58Z</time>
      </trkpt>
      <trkpt lat="36.215785" lon="-6.036728">
        <ele>19.61</ele>
        <time>2015-06-19T08:32:01Z</time>
      </trkpt>
      <trkpt lat="36.215569" lon="-6.036575">
        <ele>19.67</ele>
        <time>2015-06-19T08:32:06Z</time>
      </trkpt>
      <trkpt lat="36.215330" lon="-6.036406">
        <ele>19.63</ele>
        <time>2015-06-19T08:32:11Z</time>
      </trkpt>
      <trkpt lat="36.215282" lon="-6.036373">
        <ele>19.67</ele>
        <time>2015-06-19T08:32:12Z</time>
      </trkpt>
      <trkpt lat="36.215091" lon="-6.036237">
        <ele>19.68</ele>
        <time>2015-06-19T08:32:16Z</time>
      </trkpt>
      <trkpt lat="36.214885" lon="-6.036088">
        <ele>19.63</ele>
        <time>2015-06-19T08:32:20Z</time>
      </trkpt>
      <trkpt lat="36.214494" lon="-6.035772">
        <ele>19.62</ele>
        <time>2015-06-19T08:32:28Z</time>
      </trkpt>
      <trkpt lat="36.214202" lon="-6.035499">
        <ele>19.69</ele>
        <time>2015-06-19T08:32:34Z</time>
      </trkpt>
      <trkpt lat="36.213920" lon="-6.035214">
        <ele>19.69</ele>
        <time>2015-06-19T08:32:40Z</time>
      </trkpt>
      <trkpt lat="36.213503" lon="-6.034775">
        <ele>19.66</ele>
        <time>2015-06-19T08:32:49Z</time>
      </trkpt>
      <trkpt lat="36.213153" lon="-6.034420">
        <ele>20.01</ele>
        <time>2015-06-19T08:32:57Z</time>
      </trkpt>
      <trkpt lat="36.213111" lon="-6.034377">
        <ele>20.42</ele>
        <time>2015-06-19T08:32:58Z</time>
      </trkpt>
      <trkpt lat="36.213071" lon="-6.034334">
        <ele>20.81</ele>
        <time>2015-06-19T08:32:59Z</time>
      </trkpt>
      <trkpt lat="36.213028" lon="-6.034290">
        <ele>21.22</ele>
        <time>2015-06-19T08:33:00Z</time>
      </trkpt>
      <trkpt lat="36.212987" lon="-6.034247">
        <ele>21.66</ele>
        <time>2015-06-19T08:33:01Z</time>
      </trkpt>
      <trkpt lat="36.212700" lon="-6.033960">
        <ele>21.66</ele>
        <time>2015-06-19T08:33:08Z</time>
      </trkpt>
      <trkpt lat="36.212426" lon="-6.033679">
        <ele>21.64</ele>
        <time>2015-06-19T08:33:15Z</time>
      </trkpt>
      <trkpt lat="36.212190" lon="-6.033436">
        <ele>21.68</ele>
        <time>2015-06-19T08:33:21Z</time>
      </trkpt>
      <trkpt lat="36.211904" lon="-6.033153">
        <ele>21.67</ele>
        <time>2015-06-19T08:33:28Z</time>
      </trkpt>
      <trkpt lat="36.211636" lon="-6.032937">
        <ele>21.61</ele>
        <time>2015-06-19T08:33:34Z</time>
      </trkpt>
      <trkpt lat="36.211587" lon="-6.032912">
        <ele>21.68</ele>
        <time>2015-06-19T08:33:35Z</time>
      </trkpt>
      <trkpt lat="36.211428" lon="-6.032864">
        <ele>21.63</ele>
        <time>2015-06-19T08:33:38Z</time>
      </trkpt>
      <trkpt lat="36.211305" lon="-6.032851">
        <ele>21.63</ele>
        <time>2015-06-19T08:33:40Z</time>
      </trkpt>
      <trkpt lat="36.210854" lon="-6.032858">
        <ele>21.61</ele>
        <time>2015-06-19T08:33:47Z</time>
      </trkpt>
      <trkpt lat="36.210534" lon="-6.032904">
        <ele>21.61</ele>
        <time>2015-06-19T08:33:52Z</time>
      </trkpt>
      <trkpt lat="36.210204" lon="-6.033018">
        <ele>21.61</ele>
        <time>2015-06-19T08:33:57Z</time>
      </trkpt>
      <trkpt lat="36.209702" lon="-6.033348">
        <ele>21.63</ele>
        <time>2015-06-19T08:34:05Z</time>
      </trkpt>
      <trkpt lat="36.209357" lon="-6.033604">
        <ele>21.63</ele>
        <time>2015-06-19T08:34:11Z</time>
      </trkpt>
      <trkpt lat="36.209058" lon="-6.033922">
        <ele>21.63</ele>
        <time>2015-06-19T08:34:17Z</time>
      </trkpt>
      <trkpt lat="36.208814" lon="-6.034314">
        <ele>21.23</ele>
        <time>2015-06-19T08:34:23Z</time>
      </trkpt>
      <trkpt lat="36.208774" lon="-6.034383">
        <ele>20.69</ele>
        <time>2015-06-19T08:34:24Z</time>
      </trkpt>
      <trkpt lat="36.208734" lon="-6.034456">
        <ele>20.28</ele>
        <time>2015-06-19T08:34:25Z</time>
      </trkpt>
      <trkpt lat="36.208692" lon="-6.034530">
        <ele>19.65</ele>
        <time>2015-06-19T08:34:26Z</time>
      </trkpt>
      <trkpt lat="36.208652" lon="-6.034604">
        <ele>19.06</ele>
        <time>2015-06-19T08:34:27Z</time>
      </trkpt>
      <trkpt lat="36.208530" lon="-6.034827">
        <ele>19.06</ele>
        <time>2015-06-19T08:34:30Z</time>
      </trkpt>
      <trkpt lat="36.208333" lon="-6.035113">
        <ele>19.01</ele>
        <time>2015-06-19T08:34:34Z</time>
      </trkpt>
      <trkpt lat="36.208271" lon="-6.035171">
        <ele>19.01</ele>
        <time>2015-06-19T08:34:35Z</time>
      </trkpt>
      <trkpt lat="36.208070" lon="-6.035308">
        <ele>19.10</ele>
        <time>2015-06-19T08:34:38Z</time>
      </trkpt>
      <trkpt lat="36.207930" lon="-6.035389">
        <ele>19.04</ele>
        <time>2015-06-19T08:34:40Z</time>
      </trkpt>
      <trkpt lat="36.207781" lon="-6.035446">
        <ele>19.02</ele>
        <time>2015-06-19T08:34:42Z</time>
      </trkpt>
      <trkpt lat="36.207626" lon="-6.035467">
        <ele>19.06</ele>
        <time>2015-06-19T08:34:44Z</time>
      </trkpt>
      <trkpt lat="36.207343" lon="-6.035401">
        <ele>19.04</ele>
        <time>2015-06-19T08:34:48Z</time>
      </trkpt>
      <trkpt lat="36.207035" lon="-6.035216">
        <ele>19.08</ele>
        <time>2015-06-19T08:34:53Z</time>
      </trkpt>
      <trkpt lat="36.206701" lon="-6.034998">
        <ele>19.02</ele>
        <time>2015-06-19T08:34:59Z</time>
      </trkpt>
      <trkpt lat="36.206254" lon="-6.034732">
        <ele>19.08</ele>
        <time>2015-06-19T08:35:07Z</time>
      </trkpt>
      <trkpt lat="36.205929" lon="-6.034543">
        <ele>19.09</ele>
        <time>2015-06-19T08:35:13Z</time>
      </trkpt>
      <trkpt lat="36.205880" lon="-6.034512">
        <ele>19.04</ele>
        <time>2015-06-19T08:35:14Z</time>
      </trkpt>
      <trkpt lat="36.205469" lon="-6.034265">
        <ele>19.03</ele>
        <time>2015-06-19T08:35:22Z</time>
      </trkpt>
      <trkpt lat="36.205198" lon="-6.034134">
        <ele>18.61</ele>
        <time>2015-06-19T08:35:27Z</time>
      </trkpt>
      <trkpt lat="36.205137" lon="-6.034109">
        <ele>18.26</ele>
        <time>2015-06-19T08:35:28Z</time>
      </trkpt>
      <trkpt lat="36.205080" lon="-6.034087">
        <ele>17.90</ele>
        <time>2015-06-19T08:35:29Z</time>
      </trkpt>
      <trkpt lat="36.205023" lon="-6.034071">
        <ele>17.47</ele>
        <time>2015-06-19T08:35:30Z</time>
      </trkpt>
      <trkpt lat="36.204963" lon="-6.034059">
        <ele>17.08</ele>
        <time>2015-06-19T08:35:31Z</time>
      </trkpt>
      <trkpt lat="36.204778" lon="-6.034050">
        <ele>17.09</ele>
        <time>2015-06-19T08:35:34Z</time>
      </trkpt>
      <trkpt lat="36.204545" lon="-6.034130">
        <ele>17.07</ele>
        <time>2015-06-19T08:35:38Z</time>
      </trkpt>
      <trkpt lat="36.204489" lon="-6.034158">
        <ele>17.08</ele>
        <time>2015-06-19T08:35:39Z</time>
      </trkpt>
      <trkpt lat="36.204162" lon="-6.034366">
        <ele>17.04</ele>
        <time>2015-06-19T08:35:45Z</time>
      </trkpt>
      <trkpt lat="36.203648" lon="-6.034709">
        <ele>17.03</ele>
        <time>2015-06-19T08:35:54Z</time>
      </trkpt>
      <trkpt lat="36.203277" lon="-6.034958">
        <ele>17.09</ele>
        <time>2015-06-19T08:36:01Z</time>
      </trkpt>
      <trkpt lat="36.202991" lon="-6.035138">
        <ele>17.01</ele>
        <time>2015-06-19T08:36:07Z</time>
      </trkpt>
      <trkpt lat="36.202840" lon="-6.035213">
        <ele>17.01</ele>
        <time>2015-06-19T08:36:10Z</time>
      </trkpt>
      <trkpt lat="36.202680" lon="-6.035273">
        <ele>17.05</ele>
        <time>2015-06-19T08:36:13Z</time>
      </trkpt>
      <trkpt lat="36.202377" lon="-6.035362">
        <ele>16.64</ele>
        <time>2015-06-19T08:36:19Z</time>
      </trkpt>
      <trkpt lat="36.202329" lon="-6.035375">
        <ele>16.29</ele>
        <time>2015-06-19T08:36:20Z</time>
      </trkpt>
      <trkpt lat="36.202277" lon="-6.035387">
        <ele>15.82</ele>
        <time>2015-06-19T08:36:21Z</time>
      </trkpt>
      <trkpt lat="36.202227" lon="-6.035396">
        <ele>15.42</ele>
        <time>2015-06-19T08:36:22Z</time>
      </trkpt>
      <trkpt lat="36.202175" lon="-6.035405">
        <ele>15.08</ele>
        <time>2015-06-19T08:36:23Z</time>
      </trkpt>
      <trkpt lat="36.201910" lon="-6.035469">
        <ele>15.01</ele>
        <time>2015-06-19T08:36:28Z</time>
      </trkpt>
      <trkpt lat="36.201679" lon="-6.035535">
        <ele>15.08</ele>
        <time>2015-06-19T08:36:33Z</time>
      </trkpt>
      <trkpt lat="36.201605" lon="-6.035549">
        <ele>15.08</ele>
        <time>2015-06-19T08:36:35Z</time>
      </trkpt>
      <trkpt lat="36.201549" lon="-6.035584">
        <ele>15.03</ele>
        <time>2015-06-19T08:36:38Z</time>
      </trkpt>
      <trkpt lat="36.201523" lon="-6.035587">
        <ele>15.02</ele>
        <time>2015-06-19T08:36:39Z</time>
      </trkpt>
      <trkpt lat="36.201544" lon="-6.035610">
        <ele>15.01</ele>
        <time>2015-06-19T08:37:23Z</time>
      </trkpt>
      <trkpt lat="36.201536" lon="-6.035648">
        <ele>15.10</ele>
        <time>2015-06-19T08:37:30Z</time>
      </trkpt>
      <trkpt lat="36.201521" lon="-6.035673">
        <ele>15.10</ele>
        <time>2015-06-19T08:37:32Z</time>
      </trkpt>
      <trkpt lat="36.201469" lon="-6.035719">
        <ele>15.09</ele>
        <time>2015-06-19T08:37:35Z</time>
      </trkpt>
      <trkpt lat="36.201445" lon="-6.035732">
        <ele>15.09</ele>
        <time>2015-06-19T08:37:36Z</time>
      </trkpt>
      <trkpt lat="36.201294" lon="-6.035802">
        <ele>15.01</ele>
        <time>2015-06-19T08:37:41Z</time>
      </trkpt>
      <trkpt lat="36.201142" lon="-6.035918">
        <ele>15.05</ele>
        <time>2015-06-19T08:37:46Z</time>
      </trkpt>
      <trkpt lat="36.201131" lon="-6.035962">
        <ele>15.08</ele>
        <time>2015-06-19T08:37:47Z</time>
      </trkpt>
      <trkpt lat="36.201149" lon="-6.036058">
        <ele>15.09</ele>
        <time>2015-06-19T08:37:49Z</time>
      </trkpt>
      <trkpt lat="36.201154" lon="-6.036170">
        <ele>15.06</ele>
        <time>2015-06-19T08:37:51Z</time>
      </trkpt>
      <trkpt lat="36.201185" lon="-6.036264">
        <ele>15.01</ele>
        <time>2015-06-19T08:37:53Z</time>
      </trkpt>
      <trkpt lat="36.201253" lon="-6.036503">
        <ele>15.02</ele>
        <time>2015-06-19T08:37:58Z</time>
      </trkpt>
      <trkpt lat="36.201265" lon="-6.036553">
        <ele>15.01</ele>
        <time>2015-06-19T08:37:59Z</time>
      </trkpt>
      <trkpt lat="36.201309" lon="-6.036725">
        <ele>15.07</ele>
        <time>2015-06-19T08:38:02Z</time>
      </trkpt>
      <trkpt lat="36.201318" lon="-6.036781">
        <ele>15.01</ele>
        <time>2015-06-19T08:38:03Z</time>
      </trkpt>
      <trkpt lat="36.201340" lon="-6.037107">
        <ele>15.04</ele>
        <time>2015-06-19T08:38:09Z</time>
      </trkpt>
      <trkpt lat="36.201350" lon="-6.037264">
        <ele>15.04</ele>
        <time>2015-06-19T08:38:12Z</time>
      </trkpt>
      <trkpt lat="36.201346" lon="-6.037349">
        <ele>15.04</ele>
        <time>2015-06-19T08:38:14Z</time>
      </trkpt>
      <trkpt lat="36.201352" lon="-6.037578">
        <ele>15.02</ele>
        <time>2015-06-19T08:38:19Z</time>
      </trkpt>
      <trkpt lat="36.201355" lon="-6.037629">
        <ele>15.05</ele>
        <time>2015-06-19T08:38:20Z</time>
      </trkpt>
      <trkpt lat="36.201448" lon="-6.038015">
        <ele>15.08</ele>
        <time>2015-06-19T08:38:26Z</time>
      </trkpt>
      <trkpt lat="36.201581" lon="-6.038442">
        <ele>15.01</ele>
        <time>2015-06-19T08:38:32Z</time>
      </trkpt>
      <trkpt lat="36.201661" lon="-6.038757">
        <ele>15.05</ele>
        <time>2015-06-19T08:38:37Z</time>
      </trkpt>
      <trkpt lat="36.201670" lon="-6.038822">
        <ele>15.01</ele>
        <time>2015-06-19T08:38:38Z</time>
      </trkpt>
      <trkpt lat="36.201670" lon="-6.038952">
        <ele>15.01</ele>
        <time>2015-06-19T08:38:40Z</time>
      </trkpt>
      <trkpt lat="36.201650" lon="-6.039092">
        <ele>15.05</ele>
        <time>2015-06-19T08:38:42Z</time>
      </trkpt>
      <trkpt lat="36.201629" lon="-6.039306">
        <ele>15.05</ele>
        <time>2015-06-19T08:38:45Z</time>
      </trkpt>
      <trkpt lat="36.201610" lon="-6.039457">
        <ele>15.06</ele>
        <time>2015-06-19T08:38:47Z</time>
      </trkpt>
      <trkpt lat="36.201589" lon="-6.039684">
        <ele>15.05</ele>
        <time>2015-06-19T08:38:50Z</time>
      </trkpt>
      <trkpt lat="36.201594" lon="-6.039905">
        <ele>15.07</ele>
        <time>2015-06-19T08:38:53Z</time>
      </trkpt>
      <trkpt lat="36.201576" lon="-6.040252">
        <ele>15.09</ele>
        <time>2015-06-19T08:38:58Z</time>
      </trkpt>
      <trkpt lat="36.201577" lon="-6.040322">
        <ele>15.04</ele>
        <time>2015-06-19T08:38:59Z</time>
      </trkpt>
      <trkpt lat="36.201581" lon="-6.040454">
        <ele>15.06</ele>
        <time>2015-06-19T08:39:01Z</time>
      </trkpt>
      <trkpt lat="36.201572" lon="-6.040634">
        <ele>15.06</ele>
        <time>2015-06-19T08:39:04Z</time>
      </trkpt>
      <trkpt lat="36.201652" lon="-6.040965">
        <ele>15.01</ele>
        <time>2015-06-19T08:39:09Z</time>
      </trkpt>
      <trkpt lat="36.201822" lon="-6.041499">
        <ele>15.02</ele>
        <time>2015-06-19T08:39:17Z</time>
      </trkpt>
      <trkpt lat="36.201886" lon="-6.041756">
        <ele>15.01</ele>
        <time>2015-06-19T08:39:21Z</time>
      </trkpt>
      <trkpt lat="36.201901" lon="-6.041888">
        <ele>15.07</ele>
        <time>2015-06-19T08:39:23Z</time>
      </trkpt>
      <trkpt lat="36.201899" lon="-6.041961">
        <ele>15.03</ele>
        <time>2015-06-19T08:39:24Z</time>
      </trkpt>
      <trkpt lat="36.201891" lon="-6.042164">
        <ele>15.09</ele>
        <time>2015-06-19T08:39:27Z</time>
      </trkpt>
      <trkpt lat="36.201893" lon="-6.042234">
        <ele>15.02</ele>
        <time>2015-06-19T08:39:28Z</time>
      </trkpt>
      <trkpt lat="36.201933" lon="-6.042504">
        <ele>15.06</ele>
        <time>2015-06-19T08:39:32Z</time>
      </trkpt>
      <trkpt lat="36.202020" lon="-6.042793">
        <ele>15.05</ele>
        <time>2015-06-19T08:39:36Z</time>
      </trkpt>
      <trkpt lat="36.202053" lon="-6.042939">
        <ele>14.70</ele>
        <time>2015-06-19T08:39:38Z</time>
      </trkpt>
      <trkpt lat="36.202068" lon="-6.043008">
        <ele>14.25</ele>
        <time>2015-06-19T08:39:39Z</time>
      </trkpt>
      <trkpt lat="36.202077" lon="-6.043079">
        <ele>13.67</ele>
        <time>2015-06-19T08:39:40Z</time>
      </trkpt>
      <trkpt lat="36.202088" lon="-6.043148">
        <ele>13.29</ele>
        <time>2015-06-19T08:39:41Z</time>
      </trkpt>
      <trkpt lat="36.202102" lon="-6.043212">
        <ele>12.81</ele>
        <time>2015-06-19T08:39:42Z</time>
      </trkpt>
      <trkpt lat="36.202118" lon="-6.043337">
        <ele>12.81</ele>
        <time>2015-06-19T08:39:44Z</time>
      </trkpt>
      <trkpt lat="36.202060" lon="-6.043499">
        <ele>12.85</ele>
        <time>2015-06-19T08:39:47Z</time>
      </trkpt>
      <trkpt lat="36.201907" lon="-6.043605">
        <ele>12.82</ele>
        <time>2015-06-19T08:39:50Z</time>
      </trkpt>
      <trkpt lat="36.201855" lon="-6.043630">
        <ele>12.89</ele>
        <time>2015-06-19T08:39:51Z</time>
      </trkpt>
      <trkpt lat="36.201578" lon="-6.043742">
        <ele>12.88</ele>
        <time>2015-06-19T08:39:56Z</time>
      </trkpt>
      <trkpt lat="36.201132" lon="-6.043912">
        <ele>12.87</ele>
        <time>2015-06-19T08:40:04Z</time>
      </trkpt>
      <trkpt lat="36.201039" lon="-6.044028">
        <ele>12.89</ele>
        <time>2015-06-19T08:40:07Z</time>
      </trkpt>
      <trkpt lat="36.201074" lon="-6.044117">
        <ele>12.85</ele>
        <time>2015-06-19T08:40:10Z</time>
      </trkpt>
      <trkpt lat="36.201094" lon="-6.044205">
        <ele>12.87</ele>
        <time>2015-06-19T08:40:12Z</time>
      </trkpt>
      <trkpt lat="36.201122" lon="-6.044299">
        <ele>12.87</ele>
        <time>2015-06-19T08:40:14Z</time>
      </trkpt>
      <trkpt lat="36.201136" lon="-6.044351">
        <ele>12.84</ele>
        <time>2015-06-19T08:40:15Z</time>
      </trkpt>
      <trkpt lat="36.201203" lon="-6.044577">
        <ele>12.83</ele>
        <time>2015-06-19T08:40:19Z</time>
      </trkpt>
      <trkpt lat="36.201236" lon="-6.044708">
        <ele>12.81</ele>
        <time>2015-06-19T08:40:21Z</time>
      </trkpt>
      <trkpt lat="36.201338" lon="-6.045031">
        <ele>12.83</ele>
        <time>2015-06-19T08:40:26Z</time>
      </trkpt>
      <trkpt lat="36.201380" lon="-6.045132">
        <ele>12.83</ele>
        <time>2015-06-19T08:40:28Z</time>
      </trkpt>
      <trkpt lat="36.201402" lon="-6.045168">
        <ele>12.47</ele>
        <time>2015-06-19T08:40:29Z</time>
      </trkpt>
      <trkpt lat="36.201418" lon="-6.045195">
        <ele>12.09</ele>
        <time>2015-06-19T08:40:30Z</time>
      </trkpt>
      <trkpt lat="36.201424" lon="-6.045219">
        <ele>11.64</ele>
        <time>2015-06-19T08:40:31Z</time>
      </trkpt>
      <trkpt lat="36.201424" lon="-6.045238">
        <ele>11.21</ele>
        <time>2015-06-19T08:40:32Z</time>
      </trkpt>
      <trkpt lat="36.201422" lon="-6.045260">
        <ele>10.86</ele>
        <time>2015-06-19T08:40:33Z</time>
      </trkpt>
      <trkpt lat="36.201425" lon="-6.045287">
        <ele>10.84</ele>
        <time>2015-06-19T08:40:34Z</time>
      </trkpt>
      <trkpt lat="36.201426" lon="-6.045310">
        <ele>10.84</ele>
        <time>2015-06-19T08:40:35Z</time>
      </trkpt>
      <trkpt lat="36.201440" lon="-6.045447">
        <ele>10.82</ele>
        <time>2015-06-19T08:40:39Z</time>
      </trkpt>
      <trkpt lat="36.201388" lon="-6.045540">
        <ele>10.81</ele>
        <time>2015-06-19T08:40:42Z</time>
      </trkpt>
      <trkpt lat="36.201361" lon="-6.045555">
        <ele>10.81</ele>
        <time>2015-06-19T08:40:43Z</time>
      </trkpt>
      <trkpt lat="36.201221" lon="-6.045629">
        <ele>10.89</ele>
        <time>2015-06-19T08:40:48Z</time>
      </trkpt>
      <trkpt lat="36.201187" lon="-6.045645">
        <ele>10.88</ele>
        <time>2015-06-19T08:40:49Z</time>
      </trkpt>
      <trkpt lat="36.200999" lon="-6.045723">
        <ele>10.88</ele>
        <time>2015-06-19T08:40:54Z</time>
      </trkpt>
      <trkpt lat="36.200959" lon="-6.045738">
        <ele>10.85</ele>
        <time>2015-06-19T08:40:55Z</time>
      </trkpt>
      <trkpt lat="36.200786" lon="-6.045815">
        <ele>10.89</ele>
        <time>2015-06-19T08:40:59Z</time>
      </trkpt>
      <trkpt lat="36.200695" lon="-6.045865">
        <ele>10.88</ele>
        <time>2015-06-19T08:41:01Z</time>
      </trkpt>
      <trkpt lat="36.200382" lon="-6.046032">
        <ele>10.89</ele>
        <time>2015-06-19T08:41:08Z</time>
      </trkpt>
      <trkpt lat="36.200339" lon="-6.046050">
        <ele>10.86</ele>
        <time>2015-06-19T08:41:09Z</time>
      </trkpt>
      <trkpt lat="36.200299" lon="-6.046075">
        <ele>10.85</ele>
        <time>2015-06-19T08:41:10Z</time>
      </trkpt>
      <trkpt lat="36.200134" lon="-6.046162">
        <ele>10.80</ele>
        <time>2015-06-19T08:41:14Z</time>
      </trkpt>
      <trkpt lat="36.199965" lon="-6.046264">
        <ele>10.81</ele>
        <time>2015-06-19T08:41:18Z</time>
      </trkpt>
      <trkpt lat="36.199851" lon="-6.046319">
        <ele>10.81</ele>
        <time>2015-06-19T08:41:21Z</time>
      </trkpt>
      <trkpt lat="36.199803" lon="-6.046348">
        <ele>10.90</ele>
        <time>2015-06-19T08:41:25Z</time>
      </trkpt>
      <trkpt lat="36.199797" lon="-6.046358">
        <ele>10.89</ele>
        <time>2015-06-19T08:41:28Z</time>
      </trkpt>
      <trkpt lat="36.199783" lon="-6.046367">
        <ele>10.85</ele>
        <time>2015-06-19T08:41:30Z</time>
      </trkpt>
      <trkpt lat="36.199773" lon="-6.046369">
        <ele>10.86</ele>
        <time>2015-06-19T08:41:31Z</time>
      </trkpt>
      <trkpt lat="36.199746" lon="-6.046380">
        <ele>10.87</ele>
        <time>2015-06-19T08:41:34Z</time>
      </trkpt>
      <trkpt lat="36.199723" lon="-6.046404">
        <ele>10.81</ele>
        <time>2015-06-19T08:41:37Z</time>
      </trkpt>
      <trkpt lat="36.199710" lon="-6.046421">
        <ele>10.88</ele>
        <time>2015-06-19T08:41:39Z</time>
      </trkpt>
      <trkpt lat="36.199702" lon="-6.046424">
        <ele>10.86</ele>
        <time>2015-06-19T08:41:40Z</time>
      </trkpt>
      <trkpt lat="36.199645" lon="-6.046454">
        <ele>10.85</ele>
        <time>2015-06-19T08:41:45Z</time>
      </trkpt>
      <trkpt lat="36.199630" lon="-6.046470">
        <ele>10.83</ele>
        <time>2015-06-19T08:41:46Z</time>
      </trkpt>
      <trkpt lat="36.199598" lon="-6.046496">
        <ele>10.82</ele>
        <time>2015-06-19T08:41:48Z</time>
      </trkpt>
      <trkpt lat="36.199555" lon="-6.046476">
        <ele>10.81</ele>
        <time>2015-06-19T08:41:50Z</time>
      </trkpt>
      <trkpt lat="36.199519" lon="-6.046425">
        <ele>10.85</ele>
        <time>2015-06-19T08:41:52Z</time>
      </trkpt>
      <trkpt lat="36.199447" lon="-6.046348">
        <ele>10.87</ele>
        <time>2015-06-19T08:41:55Z</time>
      </trkpt>
      <trkpt lat="36.199274" lon="-6.046194">
        <ele>10.84</ele>
        <time>2015-06-19T08:42:01Z</time>
      </trkpt>
      <trkpt lat="36.199104" lon="-6.046065">
        <ele>10.87</ele>
        <time>2015-06-19T08:42:07Z</time>
      </trkpt>
      <trkpt lat="36.198953" lon="-6.045931">
        <ele>10.88</ele>
        <time>2015-06-19T08:42:13Z</time>
      </trkpt>
      <trkpt lat="36.198812" lon="-6.045821">
        <ele>10.41</ele>
        <time>2015-06-19T08:42:17Z</time>
      </trkpt>
      <trkpt lat="36.198766" lon="-6.045780">
        <ele>10.07</ele>
        <time>2015-06-19T08:42:18Z</time>
      </trkpt>
      <trkpt lat="36.198725" lon="-6.045747">
        <ele>9.30</ele>
        <time>2015-06-19T08:42:19Z</time>
      </trkpt>
      <trkpt lat="36.198700" lon="-6.045738">
        <ele>8.69</ele>
        <time>2015-06-19T08:42:20Z</time>
      </trkpt>
      <trkpt lat="36.198695" lon="-6.045741">
        <ele>8.68</ele>
        <time>2015-06-19T08:42:21Z</time>
      </trkpt>
      <trkpt lat="36.198696" lon="-6.045741">
        <ele>8.22</ele>
        <time>2015-06-19T08:42:23Z</time>
      </trkpt>
      <trkpt lat="36.198696" lon="-6.045741">
        <ele>7.81</ele>
        <time>2015-06-19T08:42:24Z</time>
      </trkpt>
      <trkpt lat="36.198692" lon="-6.045736">
        <ele>7.45</ele>
        <time>2015-06-19T08:42:25Z</time>
      </trkpt>
      <trkpt lat="36.198685" lon="-6.045729">
        <ele>7.05</ele>
        <time>2015-06-19T08:42:26Z</time>
      </trkpt>
      <trkpt lat="36.198678" lon="-6.045724">
        <ele>6.62</ele>
        <time>2015-06-19T08:42:27Z</time>
      </trkpt>
      <trkpt lat="36.198645" lon="-6.045697">
        <ele>6.69</ele>
        <time>2015-06-19T08:42:31Z</time>
      </trkpt>
      <trkpt lat="36.198617" lon="-6.045673">
        <ele>6.62</ele>
        <time>2015-06-19T08:42:34Z</time>
      </trkpt>
      <trkpt lat="36.198574" lon="-6.045648">
        <ele>6.67</ele>
        <time>2015-06-19T08:42:41Z</time>
      </trkpt>
      <trkpt lat="36.198572" lon="-6.045648">
        <ele>6.70</ele>
        <time>2015-06-19T08:42:46Z</time>
      </trkpt>
      <trkpt lat="36.198566" lon="-6.045645">
        <ele>6.69</ele>
        <time>2015-06-19T08:42:47Z</time>
      </trkpt>
      <trkpt lat="36.198519" lon="-6.045612">
        <ele>6.69</ele>
        <time>2015-06-19T08:42:50Z</time>
      </trkpt>
      <trkpt lat="36.198452" lon="-6.045552">
        <ele>6.67</ele>
        <time>2015-06-19T08:42:54Z</time>
      </trkpt>
      <trkpt lat="36.198425" lon="-6.045533">
        <ele>6.62</ele>
        <time>2015-06-19T08:42:55Z</time>
      </trkpt>
      <trkpt lat="36.198274" lon="-6.045405">
        <ele>6.61</ele>
        <time>2015-06-19T08:43:01Z</time>
      </trkpt>
      <trkpt lat="36.198218" lon="-6.045370">
        <ele>7.08</ele>
        <time>2015-06-19T08:43:03Z</time>
      </trkpt>
      <trkpt lat="36.198186" lon="-6.045353">
        <ele>7.43</ele>
        <time>2015-06-19T08:43:04Z</time>
      </trkpt>
      <trkpt lat="36.198158" lon="-6.045334">
        <ele>7.87</ele>
        <time>2015-06-19T08:43:05Z</time>
      </trkpt>
      <trkpt lat="36.198132" lon="-6.045314">
        <ele>8.24</ele>
        <time>2015-06-19T08:43:06Z</time>
      </trkpt>
      <trkpt lat="36.198105" lon="-6.045289">
        <ele>8.67</ele>
        <time>2015-06-19T08:43:07Z</time>
      </trkpt>
      <trkpt lat="36.198075" lon="-6.045263">
        <ele>8.64</ele>
        <time>2015-06-19T08:43:08Z</time>
      </trkpt>
      <trkpt lat="36.197885" lon="-6.045120">
        <ele>8.65</ele>
        <time>2015-06-19T08:43:14Z</time>
      </trkpt>
      <trkpt lat="36.197675" lon="-6.044969">
        <ele>8.61</ele>
        <time>2015-06-19T08:43:20Z</time>
      </trkpt>
      <trkpt lat="36.197644" lon="-6.044945">
        <ele>8.63</ele>
        <time>2015-06-19T08:43:21Z</time>
      </trkpt>
      <trkpt lat="36.197572" lon="-6.044891">
        <ele>8.67</ele>
        <time>2015-06-19T08:43:24Z</time>
      </trkpt>
      <trkpt lat="36.197556" lon="-6.044853">
        <ele>8.61</ele>
        <time>2015-06-19T08:43:26Z</time>
      </trkpt>
      <trkpt lat="36.197548" lon="-6.044833">
        <ele>8.61</ele>
        <time>2015-06-19T08:43:29Z</time>
      </trkpt>
      <trkpt lat="36.197535" lon="-6.044821">
        <ele>8.65</ele>
        <time>2015-06-19T08:43:33Z</time>
      </trkpt>
      <trkpt lat="36.197532" lon="-6.044822">
        <ele>8.65</ele>
        <time>2015-06-19T08:43:37Z</time>
      </trkpt>
      <trkpt lat="36.197522" lon="-6.044833">
        <ele>8.65</ele>
        <time>2015-06-19T08:43:38Z</time>
      </trkpt>
      <trkpt lat="36.197496" lon="-6.044854">
        <ele>8.69</ele>
        <time>2015-06-19T08:43:41Z</time>
      </trkpt>
      <trkpt lat="36.197488" lon="-6.044847">
        <ele>8.67</ele>
        <time>2015-06-19T08:43:42Z</time>
      </trkpt>
      <trkpt lat="36.197457" lon="-6.044825">
        <ele>8.65</ele>
        <time>2015-06-19T08:43:45Z</time>
      </trkpt>
      <trkpt lat="36.197440" lon="-6.044822">
        <ele>8.63</ele>
        <time>2015-06-19T08:43:47Z</time>
      </trkpt>
      <trkpt lat="36.197410" lon="-6.044802">
        <ele>8.68</ele>
        <time>2015-06-19T08:43:53Z</time>
      </trkpt>
      <trkpt lat="36.197410" lon="-6.044802">
        <ele>8.63</ele>
        <time>2015-06-19T08:43:54Z</time>
      </trkpt>
      <trkpt lat="36.197396" lon="-6.044792">
        <ele>8.62</ele>
        <time>2015-06-19T08:43:56Z</time>
      </trkpt>
      <trkpt lat="36.197352" lon="-6.044781">
        <ele>8.62</ele>
        <time>2015-06-19T08:43:59Z</time>
      </trkpt>
      <trkpt lat="36.197334" lon="-6.044778">
        <ele>8.61</ele>
        <time>2015-06-19T08:44:00Z</time>
      </trkpt>
      <trkpt lat="36.197241" lon="-6.044701">
        <ele>8.65</ele>
        <time>2015-06-19T08:44:04Z</time>
      </trkpt>
      <trkpt lat="36.197128" lon="-6.044593">
        <ele>8.63</ele>
        <time>2015-06-19T08:44:09Z</time>
      </trkpt>
      <trkpt lat="36.197100" lon="-6.044571">
        <ele>8.65</ele>
        <time>2015-06-19T08:44:11Z</time>
      </trkpt>
      <trkpt lat="36.197100" lon="-6.044559">
        <ele>8.63</ele>
        <time>2015-06-19T08:44:12Z</time>
      </trkpt>
      <trkpt lat="36.197084" lon="-6.044517">
        <ele>8.64</ele>
        <time>2015-06-19T08:44:15Z</time>
      </trkpt>
      <trkpt lat="36.196975" lon="-6.044431">
        <ele>8.67</ele>
        <time>2015-06-19T08:44:20Z</time>
      </trkpt>
      <trkpt lat="36.196905" lon="-6.044389">
        <ele>8.69</ele>
        <time>2015-06-19T08:44:25Z</time>
      </trkpt>
      <trkpt lat="36.196855" lon="-6.044355">
        <ele>8.67</ele>
        <time>2015-06-19T08:44:30Z</time>
      </trkpt>
      <trkpt lat="36.196794" lon="-6.044340">
        <ele>8.25</ele>
        <time>2015-06-19T08:44:33Z</time>
      </trkpt>
      <trkpt lat="36.196786" lon="-6.044336">
        <ele>7.86</ele>
        <time>2015-06-19T08:44:34Z</time>
      </trkpt>
      <trkpt lat="36.196783" lon="-6.044336">
        <ele>7.42</ele>
        <time>2015-06-19T08:44:35Z</time>
      </trkpt>
      <trkpt lat="36.196783" lon="-6.044337">
        <ele>7.01</ele>
        <time>2015-06-19T08:44:36Z</time>
      </trkpt>
      <trkpt lat="36.196783" lon="-6.044337">
        <ele>6.63</ele>
        <time>2015-06-19T08:44:37Z</time>
      </trkpt>
      <trkpt lat="36.196757" lon="-6.044350">
        <ele>6.65</ele>
        <time>2015-06-19T08:44:40Z</time>
      </trkpt>
      <trkpt lat="36.196734" lon="-6.044372">
        <ele>6.66</ele>
        <time>2015-06-19T08:44:43Z</time>
      </trkpt>
      <trkpt lat="36.196709" lon="-6.044393">
        <ele>6.67</ele>
        <time>2015-06-19T08:44:47Z</time>
      </trkpt>
      <trkpt lat="36.196650" lon="-6.044452">
        <ele>6.68</ele>
        <time>2015-06-19T08:44:55Z</time>
      </trkpt>
      <trkpt lat="36.196629" lon="-6.044472">
        <ele>6.29</ele>
        <time>2015-06-19T08:44:58Z</time>
      </trkpt>
      <trkpt lat="36.196624" lon="-6.044478">
        <ele>5.86</ele>
        <time>2015-06-19T08:44:59Z</time>
      </trkpt>
      <trkpt lat="36.196623" lon="-6.044477">
        <ele>5.48</ele>
        <time>2015-06-19T08:45:00Z</time>
      </trkpt>
      <trkpt lat="36.196620" lon="-6.044477">
        <ele>5.08</ele>
        <time>2015-06-19T08:45:01Z</time>
      </trkpt>
      <trkpt lat="36.196619" lon="-6.044478">
        <ele>4.43</ele>
        <time>2015-06-19T08:45:02Z</time>
      </trkpt>
      <trkpt lat="36.196619" lon="-6.044478">
        <ele>4.43</ele>
        <time>2015-06-19T08:45:03Z</time>
      </trkpt>
      <trkpt lat="36.196598" lon="-6.044497">
        <ele>4.41</ele>
        <time>2015-06-19T08:45:09Z</time>
      </trkpt>
      <trkpt lat="36.196583" lon="-6.044505">
        <ele>4.42</ele>
        <time>2015-06-19T08:45:11Z</time>
      </trkpt>
      <trkpt lat="36.196548" lon="-6.044510">
        <ele>4.48</ele>
        <time>2015-06-19T08:45:14Z</time>
      </trkpt>
      <trkpt lat="36.196522" lon="-6.044497">
        <ele>4.46</ele>
        <time>2015-06-19T08:45:18Z</time>
      </trkpt>
      <trkpt lat="36.196437" lon="-6.044419">
        <ele>4.47</ele>
        <time>2015-06-19T08:45:23Z</time>
      </trkpt>
      <trkpt lat="36.196315" lon="-6.044299">
        <ele>4.48</ele>
        <time>2015-06-19T08:45:29Z</time>
      </trkpt>
      <trkpt lat="36.196140" lon="-6.044133">
        <ele>4.44</ele>
        <time>2015-06-19T08:45:37Z</time>
      </trkpt>
      <trkpt lat="36.196052" lon="-6.044034">
        <ele>4.49</ele>
        <time>2015-06-19T08:45:41Z</time>
      </trkpt>
      <trkpt lat="36.195950" lon="-6.043937">
        <ele>4.44</ele>
        <time>2015-06-19T08:45:45Z</time>
      </trkpt>
      <trkpt lat="36.195730" lon="-6.043727">
        <ele>4.45</ele>
        <time>2015-06-19T08:45:54Z</time>
      </trkpt>
      <trkpt lat="36.195625" lon="-6.043626">
        <ele>4.45</ele>
        <time>2015-06-19T08:46:00Z</time>
      </trkpt>
      <trkpt lat="36.195614" lon="-6.043626">
        <ele>4.41</ele>
        <time>2015-06-19T08:46:01Z</time>
      </trkpt>
      <trkpt lat="36.195586" lon="-6.043623">
        <ele>4.01</ele>
        <time>2015-06-19T08:46:03Z</time>
      </trkpt>
      <trkpt lat="36.195569" lon="-6.043622">
        <ele>3.69</ele>
        <time>2015-06-19T08:46:04Z</time>
      </trkpt>
      <trkpt lat="36.195545" lon="-6.043618">
        <ele>3.25</ele>
        <time>2015-06-19T08:46:05Z</time>
      </trkpt>
      <trkpt lat="36.195520" lon="-6.043605">
        <ele>2.85</ele>
        <time>2015-06-19T08:46:06Z</time>
      </trkpt>
      <trkpt lat="36.195492" lon="-6.043585">
        <ele>2.47</ele>
        <time>2015-06-19T08:46:07Z</time>
      </trkpt>
      <trkpt lat="36.195468" lon="-6.043566">
        <ele>2.42</ele>
        <time>2015-06-19T08:46:08Z</time>
      </trkpt>
      <trkpt lat="36.195423" lon="-6.043534">
        <ele>2.47</ele>
        <time>2015-06-19T08:46:10Z</time>
      </trkpt>
      <trkpt lat="36.195308" lon="-6.043433">
        <ele>2.41</ele>
        <time>2015-06-19T08:46:15Z</time>
      </trkpt>
      <trkpt lat="36.195185" lon="-6.043338">
        <ele>2.45</ele>
        <time>2015-06-19T08:46:20Z</time>
      </trkpt>
      <trkpt lat="36.195112" lon="-6.043277">
        <ele>2.46</ele>
        <time>2015-06-19T08:46:23Z</time>
      </trkpt>
      <trkpt lat="36.195090" lon="-6.043255">
        <ele>2.42</ele>
        <time>2015-06-19T08:46:24Z</time>
      </trkpt>
      <trkpt lat="36.194923" lon="-6.043131">
        <ele>2.41</ele>
        <time>2015-06-19T08:46:30Z</time>
      </trkpt>
      <trkpt lat="36.194784" lon="-6.043014">
        <ele>2.41</ele>
        <time>2015-06-19T08:46:36Z</time>
      </trkpt>
      <trkpt lat="36.194631" lon="-6.042890">
        <ele>2.46</ele>
        <time>2015-06-19T08:46:42Z</time>
      </trkpt>
      <trkpt lat="36.194605" lon="-6.042871">
        <ele>2.48</ele>
        <time>2015-06-19T08:46:43Z</time>
      </trkpt>
      <trkpt lat="36.194364" lon="-6.042693">
        <ele>2.42</ele>
        <time>2015-06-19T08:46:52Z</time>
      </trkpt>
      <trkpt lat="36.194177" lon="-6.042551">
        <ele>2.44</ele>
        <time>2015-06-19T08:46:59Z</time>
      </trkpt>
      <trkpt lat="36.194009" lon="-6.042365">
        <ele>2.47</ele>
        <time>2015-06-19T08:47:06Z</time>
      </trkpt>
      <trkpt lat="36.193823" lon="-6.042108">
        <ele>2.43</ele>
        <time>2015-06-19T08:47:15Z</time>
      </trkpt>
      <trkpt lat="36.193629" lon="-6.041867">
        <ele>2.47</ele>
        <time>2015-06-19T08:47:24Z</time>
      </trkpt>
      <trkpt lat="36.193408" lon="-6.041596">
        <ele>2.43</ele>
        <time>2015-06-19T08:47:34Z</time>
      </trkpt>
      <trkpt lat="36.193221" lon="-6.041357">
        <ele>2.44</ele>
        <time>2015-06-19T08:47:43Z</time>
      </trkpt>
      <trkpt lat="36.193062" lon="-6.041180">
        <ele>2.46</ele>
        <time>2015-06-19T08:47:50Z</time>
      </trkpt>
      <trkpt lat="36.192845" lon="-6.040930">
        <ele>2.41</ele>
        <time>2015-06-19T08:48:00Z</time>
      </trkpt>
      <trkpt lat="36.192687" lon="-6.040772">
        <ele>2.41</ele>
        <time>2015-06-19T08:48:07Z</time>
      </trkpt>
      <trkpt lat="36.192504" lon="-6.040597">
        <ele>2.44</ele>
        <time>2015-06-19T08:48:15Z</time>
      </trkpt>
      <trkpt lat="36.192357" lon="-6.040454">
        <ele>2.49</ele>
        <time>2015-06-19T08:48:22Z</time>
      </trkpt>
      <trkpt lat="36.192191" lon="-6.040326">
        <ele>3.50</ele>
        <time>2015-06-19T08:48:30Z</time>
      </trkpt>
      <trkpt lat="36.192167" lon="-6.040309">
        <ele>3.85</ele>
        <time>2015-06-19T08:48:31Z</time>
      </trkpt>
      <trkpt lat="36.192146" lon="-6.040291">
        <ele>4.30</ele>
        <time>2015-06-19T08:48:32Z</time>
      </trkpt>
      <trkpt lat="36.192126" lon="-6.040271">
        <ele>4.63</ele>
        <time>2015-06-19T08:48:33Z</time>
      </trkpt>
      <trkpt lat="36.192006" lon="-6.040170">
        <ele>4.63</ele>
        <time>2015-06-19T08:48:39Z</time>
      </trkpt>
      <trkpt lat="36.191802" lon="-6.040092">
        <ele>4.62</ele>
        <time>2015-06-19T08:48:47Z</time>
      </trkpt>
      <trkpt lat="36.191618" lon="-6.039982">
        <ele>4.65</ele>
        <time>2015-06-19T08:48:54Z</time>
      </trkpt>
      <trkpt lat="36.191361" lon="-6.039807">
        <ele>4.69</ele>
        <time>2015-06-19T08:49:04Z</time>
      </trkpt>
      <trkpt lat="36.191136" lon="-6.039643">
        <ele>4.62</ele>
        <time>2015-06-19T08:49:13Z</time>
      </trkpt>
      <trkpt lat="36.190868" lon="-6.039459">
        <ele>4.61</ele>
        <time>2015-06-19T08:49:24Z</time>
      </trkpt>
      <trkpt lat="36.190638" lon="-6.039319">
        <ele>4.62</ele>
        <time>2015-06-19T08:49:33Z</time>
      </trkpt>
      <trkpt lat="36.190413" lon="-6.039175">
        <ele>4.64</ele>
        <time>2015-06-19T08:49:42Z</time>
      </trkpt>
      <trkpt lat="36.190247" lon="-6.039056">
        <ele>4.67</ele>
        <time>2015-06-19T08:49:50Z</time>
      </trkpt>
      <trkpt lat="36.190162" lon="-6.039010">
        <ele>4.62</ele>
        <time>2015-06-19T08:49:55Z</time>
      </trkpt>
      <trkpt lat="36.190145" lon="-6.038994">
        <ele>4.65</ele>
        <time>2015-06-19T08:49:56Z</time>
      </trkpt>
      <trkpt lat="36.189998" lon="-6.038911">
        <ele>4.65</ele>
        <time>2015-06-19T08:50:03Z</time>
      </trkpt>
      <trkpt lat="36.189866" lon="-6.038842">
        <ele>4.62</ele>
        <time>2015-06-19T08:50:09Z</time>
      </trkpt>
      <trkpt lat="36.189763" lon="-6.038773">
        <ele>4.70</ele>
        <time>2015-06-19T08:50:14Z</time>
      </trkpt>
      <trkpt lat="36.189620" lon="-6.038677">
        <ele>4.67</ele>
        <time>2015-06-19T08:50:21Z</time>
      </trkpt>
      <trkpt lat="36.189494" lon="-6.038589">
        <ele>4.67</ele>
        <time>2015-06-19T08:50:27Z</time>
      </trkpt>
      <trkpt lat="36.189403" lon="-6.038535">
        <ele>4.61</ele>
        <time>2015-06-19T08:50:31Z</time>
      </trkpt>
      <trkpt lat="36.189333" lon="-6.038486">
        <ele>4.61</ele>
        <time>2015-06-19T08:50:34Z</time>
      </trkpt>
      <trkpt lat="36.189141" lon="-6.038370">
        <ele>4.67</ele>
        <time>2015-06-19T08:50:42Z</time>
      </trkpt>
      <trkpt lat="36.188996" lon="-6.038286">
        <ele>4.65</ele>
        <time>2015-06-19T08:50:48Z</time>
      </trkpt>
      <trkpt lat="36.188875" lon="-6.038208">
        <ele>4.29</ele>
        <time>2015-06-19T08:50:53Z</time>
      </trkpt>
      <trkpt lat="36.188857" lon="-6.038191">
        <ele>3.88</ele>
        <time>2015-06-19T08:50:54Z</time>
      </trkpt>
      <trkpt lat="36.188834" lon="-6.038183">
        <ele>3.41</ele>
        <time>2015-06-19T08:50:55Z</time>
      </trkpt>
      <trkpt lat="36.188811" lon="-6.038170">
        <ele>3.06</ele>
        <time>2015-06-19T08:50:56Z</time>
      </trkpt>
      <trkpt lat="36.188788" lon="-6.038158">
        <ele>2.63</ele>
        <time>2015-06-19T08:50:57Z</time>
      </trkpt>
      <trkpt lat="36.188680" lon="-6.038085">
        <ele>2.67</ele>
        <time>2015-06-19T08:51:02Z</time>
      </trkpt>
      <trkpt lat="36.188619" lon="-6.038049">
        <ele>1.03</ele>
        <time>2015-06-19T08:51:05Z</time>
      </trkpt>
      <trkpt lat="36.188542" lon="-6.038000">
        <ele>1.09</ele>
        <time>2015-06-19T08:51:09Z</time>
      </trkpt>
      <trkpt lat="36.188521" lon="-6.037984">
        <ele>1.41</ele>
        <time>2015-06-19T08:51:10Z</time>
      </trkpt>
      <trkpt lat="36.188377" lon="-6.037900">
        <ele>1.41</ele>
        <time>2015-06-19T08:51:16Z</time>
      </trkpt>
      <trkpt lat="36.188226" lon="-6.037802">
        <ele>1.43</ele>
        <time>2015-06-19T08:51:23Z</time>
      </trkpt>
      <trkpt lat="36.188069" lon="-6.037726">
        <ele>1.44</ele>
        <time>2015-06-19T08:51:29Z</time>
      </trkpt>
      <trkpt lat="36.187902" lon="-6.037627">
        <ele>1.42</ele>
        <time>2015-06-19T08:51:36Z</time>
      </trkpt>
      <trkpt lat="36.187766" lon="-6.037531">
        <ele>1.47</ele>
        <time>2015-06-19T08:51:42Z</time>
      </trkpt>
      <trkpt lat="36.187601" lon="-6.037448">
        <ele>1.47</ele>
        <time>2015-06-19T08:51:49Z</time>
      </trkpt>
      <trkpt lat="36.187441" lon="-6.037364">
        <ele>1.49</ele>
        <time>2015-06-19T08:51:56Z</time>
      </trkpt>
      <trkpt lat="36.187348" lon="-6.037309">
        <ele>1.49</ele>
        <time>2015-06-19T08:52:01Z</time>
      </trkpt>
      <trkpt lat="36.187291" lon="-6.037285">
        <ele>1.48</ele>
        <time>2015-06-19T08:52:04Z</time>
      </trkpt>
      <trkpt lat="36.187211" lon="-6.037248">
        <ele>1.45</ele>
        <time>2015-06-19T08:52:11Z</time>
      </trkpt>
      <trkpt lat="36.187211" lon="-6.037248">
        <ele>1.40</ele>
        <time>2015-06-19T08:52:18Z</time>
      </trkpt>
      <trkpt lat="36.187163" lon="-6.037236">
        <ele>1.41</ele>
        <time>2015-06-19T08:52:22Z</time>
      </trkpt>
      <trkpt lat="36.187145" lon="-6.037234">
        <ele>1.41</ele>
        <time>2015-06-19T08:52:23Z</time>
      </trkpt>
      <trkpt lat="36.187047" lon="-6.037192">
        <ele>1.43</ele>
        <time>2015-06-19T08:52:28Z</time>
      </trkpt>
      <trkpt lat="36.187026" lon="-6.037173">
        <ele>1.45</ele>
        <time>2015-06-19T08:52:29Z</time>
      </trkpt>
      <trkpt lat="36.186875" lon="-6.037105">
        <ele>1.44</ele>
        <time>2015-06-19T08:52:36Z</time>
      </trkpt>
      <trkpt lat="36.186739" lon="-6.037059">
        <ele>1.50</ele>
        <time>2015-06-19T08:52:42Z</time>
      </trkpt>
      <trkpt lat="36.186584" lon="-6.036985">
        <ele>1.49</ele>
        <time>2015-06-19T08:52:49Z</time>
      </trkpt>
      <trkpt lat="36.186466" lon="-6.036945">
        <ele>1.42</ele>
        <time>2015-06-19T08:52:55Z</time>
      </trkpt>
      <trkpt lat="36.186357" lon="-6.036899">
        <ele>1.42</ele>
        <time>2015-06-19T08:53:01Z</time>
      </trkpt>
      <trkpt lat="36.186240" lon="-6.036865">
        <ele>1.50</ele>
        <time>2015-06-19T08:53:06Z</time>
      </trkpt>
      <trkpt lat="36.186218" lon="-6.036866">
        <ele>1.50</ele>
        <time>2015-06-19T08:53:07Z</time>
      </trkpt>
      <trkpt lat="36.186102" lon="-6.036817">
        <ele>1.42</ele>
        <time>2015-06-19T08:53:12Z</time>
      </trkpt>
      <trkpt lat="36.185957" lon="-6.036763">
        <ele>1.43</ele>
        <time>2015-06-19T08:53:18Z</time>
      </trkpt>
      <trkpt lat="36.185911" lon="-6.036749">
        <ele>1.41</ele>
        <time>2015-06-19T08:53:20Z</time>
      </trkpt>
      <trkpt lat="36.185864" lon="-6.036723">
        <ele>1.42</ele>
        <time>2015-06-19T08:53:25Z</time>
      </trkpt>
      <trkpt lat="36.185866" lon="-6.036723">
        <ele>1.47</ele>
        <time>2015-06-19T08:53:31Z</time>
      </trkpt>
      <trkpt lat="36.185866" lon="-6.036723">
        <ele>1.42</ele>
        <time>2015-06-19T08:53:44Z</time>
      </trkpt>
      <trkpt lat="36.185872" lon="-6.036713">
        <ele>1.43</ele>
        <time>2015-06-19T08:53:54Z</time>
      </trkpt>
      <trkpt lat="36.185870" lon="-6.036718">
        <ele>1.42</ele>
        <time>2015-06-19T08:53:55Z</time>
      </trkpt>
      <trkpt lat="36.185870" lon="-6.036718">
        <ele>1.45</ele>
        <time>2015-06-19T08:54:01Z</time>
      </trkpt>
      <trkpt lat="36.185870" lon="-6.036718">
        <ele>1.50</ele>
        <time>2015-06-19T08:54:05Z</time>
      </trkpt>
      <trkpt lat="36.185854" lon="-6.036718">
        <ele>1.49</ele>
        <time>2015-06-19T08:54:09Z</time>
      </trkpt>
      <trkpt lat="36.185837" lon="-6.036710">
        <ele>1.46</ele>
        <time>2015-06-19T08:54:11Z</time>
      </trkpt>
      <trkpt lat="36.185827" lon="-6.036700">
        <ele>1.41</ele>
        <time>2015-06-19T08:54:13Z</time>
      </trkpt>
      <trkpt lat="36.185809" lon="-6.036689">
        <ele>1.42</ele>
        <time>2015-06-19T08:54:15Z</time>
      </trkpt>
      <trkpt lat="36.185794" lon="-6.036683">
        <ele>1.41</ele>
        <time>2015-06-19T08:54:17Z</time>
      </trkpt>
      <trkpt lat="36.185786" lon="-6.036682">
        <ele>1.43</ele>
        <time>2015-06-19T08:54:18Z</time>
      </trkpt>
      <trkpt lat="36.185768" lon="-6.036677">
        <ele>1.42</ele>
        <time>2015-06-19T08:54:20Z</time>
      </trkpt>
      <trkpt lat="36.185759" lon="-6.036670">
        <ele>1.49</ele>
        <time>2015-06-19T08:54:21Z</time>
      </trkpt>
      <trkpt lat="36.185741" lon="-6.036635">
        <ele>1.45</ele>
        <time>2015-06-19T08:54:26Z</time>
      </trkpt>
      <trkpt lat="36.185703" lon="-6.036577">
        <ele>1.42</ele>
        <time>2015-06-19T08:54:34Z</time>
      </trkpt>
      <trkpt lat="36.185695" lon="-6.036569">
        <ele>1.47</ele>
        <time>2015-06-19T08:54:35Z</time>
      </trkpt>
      <trkpt lat="36.185688" lon="-6.036563">
        <ele>1.88</ele>
        <time>2015-06-19T08:54:36Z</time>
      </trkpt>
      <trkpt lat="36.185680" lon="-6.036561">
        <ele>2.24</ele>
        <time>2015-06-19T08:54:37Z</time>
      </trkpt>
      <trkpt lat="36.185674" lon="-6.036553">
        <ele>2.67</ele>
        <time>2015-06-19T08:54:38Z</time>
      </trkpt>
      <trkpt lat="36.185665" lon="-6.036547">
        <ele>3.06</ele>
        <time>2015-06-19T08:54:39Z</time>
      </trkpt>
      <trkpt lat="36.185661" lon="-6.036545">
        <ele>3.42</ele>
        <time>2015-06-19T08:54:40Z</time>
      </trkpt>
      <trkpt lat="36.185658" lon="-6.036541">
        <ele>3.41</ele>
        <time>2015-06-19T08:54:42Z</time>
      </trkpt>
      <trkpt lat="36.185601" lon="-6.036527">
        <ele>3.45</ele>
        <time>2015-06-19T08:54:49Z</time>
      </trkpt>
      <trkpt lat="36.185539" lon="-6.036490">
        <ele>3.48</ele>
        <time>2015-06-19T08:54:57Z</time>
      </trkpt>
      <trkpt lat="36.185472" lon="-6.036453">
        <ele>3.47</ele>
        <time>2015-06-19T08:55:05Z</time>
      </trkpt>
      <trkpt lat="36.185444" lon="-6.036441">
        <ele>3.47</ele>
        <time>2015-06-19T08:55:08Z</time>
      </trkpt>
      <trkpt lat="36.185406" lon="-6.036433">
        <ele>3.49</ele>
        <time>2015-06-19T08:55:12Z</time>
      </trkpt>
      <trkpt lat="36.185399" lon="-6.036430">
        <ele>3.43</ele>
        <time>2015-06-19T08:55:13Z</time>
      </trkpt>
      <trkpt lat="36.185327" lon="-6.036392">
        <ele>3.42</ele>
        <time>2015-06-19T08:55:22Z</time>
      </trkpt>
      <trkpt lat="36.185277" lon="-6.036372">
        <ele>3.43</ele>
        <time>2015-06-19T08:55:30Z</time>
      </trkpt>
      <trkpt lat="36.185237" lon="-6.036334">
        <ele>3.44</ele>
        <time>2015-06-19T08:55:37Z</time>
      </trkpt>
      <trkpt lat="36.185219" lon="-6.036315">
        <ele>3.45</ele>
        <time>2015-06-19T08:55:40Z</time>
      </trkpt>
      <trkpt lat="36.185196" lon="-6.036302">
        <ele>3.41</ele>
        <time>2015-06-19T08:55:43Z</time>
      </trkpt>
      <trkpt lat="36.185134" lon="-6.036271">
        <ele>3.41</ele>
        <time>2015-06-19T08:55:51Z</time>
      </trkpt>
      <trkpt lat="36.185082" lon="-6.036256">
        <ele>3.47</ele>
        <time>2015-06-19T08:55:59Z</time>
      </trkpt>
      <trkpt lat="36.185035" lon="-6.036232">
        <ele>3.46</ele>
        <time>2015-06-19T08:56:05Z</time>
      </trkpt>
      <trkpt lat="36.185011" lon="-6.036221">
        <ele>3.45</ele>
        <time>2015-06-19T08:56:08Z</time>
      </trkpt>
      <trkpt lat="36.184960" lon="-6.036195">
        <ele>3.42</ele>
        <time>2015-06-19T08:56:17Z</time>
      </trkpt>
      <trkpt lat="36.184908" lon="-6.036170">
        <ele>3.44</ele>
        <time>2015-06-19T08:56:25Z</time>
      </trkpt>
      <trkpt lat="36.184879" lon="-6.036149">
        <ele>3.83</ele>
        <time>2015-06-19T08:56:29Z</time>
      </trkpt>
      <trkpt lat="36.184870" lon="-6.036142">
        <ele>4.22</ele>
        <time>2015-06-19T08:56:30Z</time>
      </trkpt>
      <trkpt lat="36.184862" lon="-6.036137">
        <ele>4.70</ele>
        <time>2015-06-19T08:56:31Z</time>
      </trkpt>
      <trkpt lat="36.184854" lon="-6.036132">
        <ele>5.03</ele>
        <time>2015-06-19T08:56:32Z</time>
      </trkpt>
      <trkpt lat="36.184847" lon="-6.036125">
        <ele>5.42</ele>
        <time>2015-06-19T08:56:33Z</time>
      </trkpt>
      <trkpt lat="36.184834" lon="-6.036119">
        <ele>5.42</ele>
        <time>2015-06-19T08:56:35Z</time>
      </trkpt>
      <trkpt lat="36.184813" lon="-6.036104">
        <ele>5.41</ele>
        <time>2015-06-19T08:56:38Z</time>
      </trkpt>
      <trkpt lat="36.184788" lon="-6.036100">
        <ele>5.45</ele>
        <time>2015-06-19T08:56:42Z</time>
      </trkpt>
      <trkpt lat="36.184724" lon="-6.036128">
        <ele>5.41</ele>
        <time>2015-06-19T08:56:48Z</time>
      </trkpt>
      <trkpt lat="36.184662" lon="-6.036131">
        <ele>5.44</ele>
        <time>2015-06-19T08:56:55Z</time>
      </trkpt>
      <trkpt lat="36.184643" lon="-6.036129">
        <ele>5.46</ele>
        <time>2015-06-19T08:56:57Z</time>
      </trkpt>
      <trkpt lat="36.184613" lon="-6.036137">
        <ele>5.48</ele>
        <time>2015-06-19T08:57:00Z</time>
      </trkpt>
      <trkpt lat="36.184574" lon="-6.036148">
        <ele>5.45</ele>
        <time>2015-06-19T08:57:04Z</time>
      </trkpt>
      <trkpt lat="36.184564" lon="-6.036153">
        <ele>5.07</ele>
        <time>2015-06-19T08:57:05Z</time>
      </trkpt>
      <trkpt lat="36.184554" lon="-6.036159">
        <ele>4.65</ele>
        <time>2015-06-19T08:57:06Z</time>
      </trkpt>
      <trkpt lat="36.184544" lon="-6.036163">
        <ele>4.25</ele>
        <time>2015-06-19T08:57:07Z</time>
      </trkpt>
      <trkpt lat="36.184532" lon="-6.036166">
        <ele>3.20</ele>
        <time>2015-06-19T08:57:08Z</time>
      </trkpt>
      <trkpt lat="36.184489" lon="-6.036168">
        <ele>3.21</ele>
        <time>2015-06-19T08:57:12Z</time>
      </trkpt>
      <trkpt lat="36.184457" lon="-6.036162">
        <ele>3.21</ele>
        <time>2015-06-19T08:57:16Z</time>
      </trkpt>
      <trkpt lat="36.184431" lon="-6.036152">
        <ele>3.22</ele>
        <time>2015-06-19T08:57:19Z</time>
      </trkpt>
      <trkpt lat="36.184387" lon="-6.036111">
        <ele>3.26</ele>
        <time>2015-06-19T08:57:27Z</time>
      </trkpt>
      <trkpt lat="36.184382" lon="-6.036103">
        <ele>3.29</ele>
        <time>2015-06-19T08:57:28Z</time>
      </trkpt>
      <trkpt lat="36.184358" lon="-6.036087">
        <ele>3.27</ele>
        <time>2015-06-19T08:57:35Z</time>
      </trkpt>
      <trkpt lat="36.184309" lon="-6.036049">
        <ele>3.26</ele>
        <time>2015-06-19T08:57:42Z</time>
      </trkpt>
      <trkpt lat="36.184276" lon="-6.036020">
        <ele>3.29</ele>
        <time>2015-06-19T08:57:48Z</time>
      </trkpt>
      <trkpt lat="36.184261" lon="-6.036011">
        <ele>3.67</ele>
        <time>2015-06-19T08:57:50Z</time>
      </trkpt>
      <trkpt lat="36.184254" lon="-6.036006">
        <ele>4.27</ele>
        <time>2015-06-19T08:57:51Z</time>
      </trkpt>
      <trkpt lat="36.184246" lon="-6.036003">
        <ele>4.65</ele>
        <time>2015-06-19T08:57:52Z</time>
      </trkpt>
      <trkpt lat="36.184240" lon="-6.035997">
        <ele>5.00</ele>
        <time>2015-06-19T08:57:53Z</time>
      </trkpt>
      <trkpt lat="36.184236" lon="-6.035988">
        <ele>5.41</ele>
        <time>2015-06-19T08:57:54Z</time>
      </trkpt>
      <trkpt lat="36.184181" lon="-6.035934">
        <ele>5.41</ele>
        <time>2015-06-19T08:58:03Z</time>
      </trkpt>
      <trkpt lat="36.184135" lon="-6.035866">
        <ele>5.47</ele>
        <time>2015-06-19T08:58:13Z</time>
      </trkpt>
      <trkpt lat="36.184078" lon="-6.035809">
        <ele>5.47</ele>
        <time>2015-06-19T08:58:22Z</time>
      </trkpt>
      <trkpt lat="36.184046" lon="-6.035795">
        <ele>6.05</ele>
        <time>2015-06-19T08:58:27Z</time>
      </trkpt>
      <trkpt lat="36.184042" lon="-6.035789">
        <ele>6.47</ele>
        <time>2015-06-19T08:58:28Z</time>
      </trkpt>
      <trkpt lat="36.184036" lon="-6.035782">
        <ele>6.90</ele>
        <time>2015-06-19T08:58:29Z</time>
      </trkpt>
      <trkpt lat="36.184029" lon="-6.035777">
        <ele>7.28</ele>
        <time>2015-06-19T08:58:30Z</time>
      </trkpt>
      <trkpt lat="36.184024" lon="-6.035772">
        <ele>7.68</ele>
        <time>2015-06-19T08:58:31Z</time>
      </trkpt>
      <trkpt lat="36.183980" lon="-6.035736">
        <ele>7.63</ele>
        <time>2015-06-19T08:58:39Z</time>
      </trkpt>
      <trkpt lat="36.183954" lon="-6.035710">
        <ele>7.67</ele>
        <time>2015-06-19T08:58:47Z</time>
      </trkpt>
      <trkpt lat="36.183954" lon="-6.035710">
        <ele>7.63</ele>
        <time>2015-06-19T08:58:57Z</time>
      </trkpt>
      <trkpt lat="36.183954" lon="-6.035710">
        <ele>7.62</ele>
        <time>2015-06-19T08:59:01Z</time>
      </trkpt>
      <trkpt lat="36.183954" lon="-6.035710">
        <ele>7.61</ele>
        <time>2015-06-19T08:59:03Z</time>
      </trkpt>
      <trkpt lat="36.183954" lon="-6.035710">
        <ele>7.66</ele>
        <time>2015-06-19T08:59:12Z</time>
      </trkpt>
      <trkpt lat="36.183954" lon="-6.035710">
        <ele>7.69</ele>
        <time>2015-06-19T08:59:13Z</time>
      </trkpt>
      <trkpt lat="36.183935" lon="-6.035693">
        <ele>7.65</ele>
        <time>2015-06-19T08:59:20Z</time>
      </trkpt>
      <trkpt lat="36.183921" lon="-6.035674">
        <ele>7.62</ele>
        <time>2015-06-19T08:59:23Z</time>
      </trkpt>
      <trkpt lat="36.183906" lon="-6.035656">
        <ele>7.69</ele>
        <time>2015-06-19T08:59:26Z</time>
      </trkpt>
      <trkpt lat="36.183896" lon="-6.035646">
        <ele>7.69</ele>
        <time>2015-06-19T08:59:28Z</time>
      </trkpt>
      <trkpt lat="36.183876" lon="-6.035608">
        <ele>7.64</ele>
        <time>2015-06-19T08:59:34Z</time>
      </trkpt>
      <trkpt lat="36.183829" lon="-6.035543">
        <ele>7.62</ele>
        <time>2015-06-19T08:59:43Z</time>
      </trkpt>
      <trkpt lat="36.183784" lon="-6.035494">
        <ele>8.04</ele>
        <time>2015-06-19T08:59:50Z</time>
      </trkpt>
      <trkpt lat="36.183779" lon="-6.035487">
        <ele>8.40</ele>
        <time>2015-06-19T08:59:51Z</time>
      </trkpt>
      <trkpt lat="36.183774" lon="-6.035480">
        <ele>8.82</ele>
        <time>2015-06-19T08:59:52Z</time>
      </trkpt>
      <trkpt lat="36.183769" lon="-6.035473">
        <ele>9.21</ele>
        <time>2015-06-19T08:59:53Z</time>
      </trkpt>
      <trkpt lat="36.183762" lon="-6.035465">
        <ele>9.62</ele>
        <time>2015-06-19T08:59:54Z</time>
      </trkpt>
      <trkpt lat="36.183735" lon="-6.035423">
        <ele>9.61</ele>
        <time>2015-06-19T08:59:59Z</time>
      </trkpt>
      <trkpt lat="36.183694" lon="-6.035364">
        <ele>9.62</ele>
        <time>2015-06-19T09:00:08Z</time>
      </trkpt>
      <trkpt lat="36.183652" lon="-6.035308">
        <ele>9.68</ele>
        <time>2015-06-19T09:00:16Z</time>
      </trkpt>
      <trkpt lat="36.183588" lon="-6.035240">
        <ele>9.67</ele>
        <time>2015-06-19T09:00:27Z</time>
      </trkpt>
      <trkpt lat="36.183571" lon="-6.035215">
        <ele>9.62</ele>
        <time>2015-06-19T09:00:33Z</time>
      </trkpt>
      <trkpt lat="36.183563" lon="-6.035185">
        <ele>9.64</ele>
        <time>2015-06-19T09:00:36Z</time>
      </trkpt>
      <trkpt lat="36.183547" lon="-6.035184">
        <ele>9.63</ele>
        <time>2015-06-19T09:00:38Z</time>
      </trkpt>
      <trkpt lat="36.183537" lon="-6.035188">
        <ele>9.28</ele>
        <time>2015-06-19T09:00:39Z</time>
      </trkpt>
      <trkpt lat="36.183530" lon="-6.035193">
        <ele>8.80</ele>
        <time>2015-06-19T09:00:40Z</time>
      </trkpt>
      <trkpt lat="36.183523" lon="-6.035198">
        <ele>8.43</ele>
        <time>2015-06-19T09:00:41Z</time>
      </trkpt>
      <trkpt lat="36.183514" lon="-6.035201">
        <ele>8.01</ele>
        <time>2015-06-19T09:00:42Z</time>
      </trkpt>
      <trkpt lat="36.183507" lon="-6.035202">
        <ele>7.69</ele>
        <time>2015-06-19T09:00:43Z</time>
      </trkpt>
      <trkpt lat="36.183500" lon="-6.035202">
        <ele>7.28</ele>
        <time>2015-06-19T09:00:44Z</time>
      </trkpt>
      <trkpt lat="36.183494" lon="-6.035200">
        <ele>6.86</ele>
        <time>2015-06-19T09:00:45Z</time>
      </trkpt>
      <trkpt lat="36.183487" lon="-6.035198">
        <ele>6.50</ele>
        <time>2015-06-19T09:00:46Z</time>
      </trkpt>
      <trkpt lat="36.183482" lon="-6.035194">
        <ele>6.08</ele>
        <time>2015-06-19T09:00:47Z</time>
      </trkpt>
      <trkpt lat="36.183475" lon="-6.035189">
        <ele>5.66</ele>
        <time>2015-06-19T09:00:48Z</time>
      </trkpt>
      <trkpt lat="36.183436" lon="-6.035135">
        <ele>5.65</ele>
        <time>2015-06-19T09:00:55Z</time>
      </trkpt>
      <trkpt lat="36.183429" lon="-6.035128">
        <ele>6.07</ele>
        <time>2015-06-19T09:00:56Z</time>
      </trkpt>
      <trkpt lat="36.183424" lon="-6.035123">
        <ele>6.45</ele>
        <time>2015-06-19T09:00:57Z</time>
      </trkpt>
      <trkpt lat="36.183419" lon="-6.035118">
        <ele>6.83</ele>
        <time>2015-06-19T09:00:58Z</time>
      </trkpt>
      <trkpt lat="36.183413" lon="-6.035112">
        <ele>7.22</ele>
        <time>2015-06-19T09:00:59Z</time>
      </trkpt>
      <trkpt lat="36.183408" lon="-6.035105">
        <ele>7.61</ele>
        <time>2015-06-19T09:01:00Z</time>
      </trkpt>
      <trkpt lat="36.183386" lon="-6.035081">
        <ele>7.63</ele>
        <time>2015-06-19T09:01:04Z</time>
      </trkpt>
      <trkpt lat="36.183363" lon="-6.035066">
        <ele>7.62</ele>
        <time>2015-06-19T09:01:08Z</time>
      </trkpt>
      <trkpt lat="36.183339" lon="-6.035042">
        <ele>7.67</ele>
        <time>2015-06-19T09:01:13Z</time>
      </trkpt>
      <trkpt lat="36.183322" lon="-6.035030">
        <ele>8.26</ele>
        <time>2015-06-19T09:01:16Z</time>
      </trkpt>
      <trkpt lat="36.183317" lon="-6.035024">
        <ele>8.68</ele>
        <time>2015-06-19T09:01:17Z</time>
      </trkpt>
      <trkpt lat="36.183310" lon="-6.035019">
        <ele>9.03</ele>
        <time>2015-06-19T09:01:18Z</time>
      </trkpt>
      <trkpt lat="36.183305" lon="-6.035014">
        <ele>9.42</ele>
        <time>2015-06-19T09:01:19Z</time>
      </trkpt>
      <trkpt lat="36.183299" lon="-6.035008">
        <ele>9.82</ele>
        <time>2015-06-19T09:01:20Z</time>
      </trkpt>
      <trkpt lat="36.183294" lon="-6.035002">
        <ele>9.82</ele>
        <time>2015-06-19T09:01:21Z</time>
      </trkpt>
      <trkpt lat="36.183264" lon="-6.034970">
        <ele>9.88</ele>
        <time>2015-06-19T09:01:27Z</time>
      </trkpt>
      <trkpt lat="36.183243" lon="-6.034946">
        <ele>9.81</ele>
        <time>2015-06-19T09:01:31Z</time>
      </trkpt>
      <trkpt lat="36.183225" lon="-6.034912">
        <ele>10.41</ele>
        <time>2015-06-19T09:01:36Z</time>
      </trkpt>
      <trkpt lat="36.183222" lon="-6.034905">
        <ele>10.87</ele>
        <time>2015-06-19T09:01:37Z</time>
      </trkpt>
      <trkpt lat="36.183219" lon="-6.034899">
        <ele>11.27</ele>
        <time>2015-06-19T09:01:38Z</time>
      </trkpt>
      <trkpt lat="36.183216" lon="-6.034892">
        <ele>11.68</ele>
        <time>2015-06-19T09:01:39Z</time>
      </trkpt>
      <trkpt lat="36.183212" lon="-6.034883">
        <ele>12.04</ele>
        <time>2015-06-19T09:01:40Z</time>
      </trkpt>
      <trkpt lat="36.183175" lon="-6.034831">
        <ele>12.10</ele>
        <time>2015-06-19T09:01:48Z</time>
      </trkpt>
      <trkpt lat="36.183167" lon="-6.034821">
        <ele>12.50</ele>
        <time>2015-06-19T09:01:50Z</time>
      </trkpt>
      <trkpt lat="36.183163" lon="-6.034819">
        <ele>12.88</ele>
        <time>2015-06-19T09:01:51Z</time>
      </trkpt>
      <trkpt lat="36.183160" lon="-6.034815">
        <ele>13.29</ele>
        <time>2015-06-19T09:01:52Z</time>
      </trkpt>
      <trkpt lat="36.183157" lon="-6.034810">
        <ele>13.68</ele>
        <time>2015-06-19T09:01:53Z</time>
      </trkpt>
      <trkpt lat="36.183151" lon="-6.034805">
        <ele>14.23</ele>
        <time>2015-06-19T09:01:54Z</time>
      </trkpt>
      <trkpt lat="36.183140" lon="-6.034795">
        <ele>14.22</ele>
        <time>2015-06-19T09:01:56Z</time>
      </trkpt>
      <trkpt lat="36.183106" lon="-6.034757">
        <ele>14.21</ele>
        <time>2015-06-19T09:02:03Z</time>
      </trkpt>
      <trkpt lat="36.183099" lon="-6.034750">
        <ele>15.04</ele>
        <time>2015-06-19T09:02:05Z</time>
      </trkpt>
      <trkpt lat="36.183096" lon="-6.034746">
        <ele>15.45</ele>
        <time>2015-06-19T09:02:06Z</time>
      </trkpt>
      <trkpt lat="36.183091" lon="-6.034741">
        <ele>15.85</ele>
        <time>2015-06-19T09:02:07Z</time>
      </trkpt>
      <trkpt lat="36.183086" lon="-6.034736">
        <ele>16.22</ele>
        <time>2015-06-19T09:02:08Z</time>
      </trkpt>
      <trkpt lat="36.183071" lon="-6.034723">
        <ele>16.22</ele>
        <time>2015-06-19T09:02:11Z</time>
      </trkpt>
      <trkpt lat="36.183060" lon="-6.034719">
        <ele>16.28</ele>
        <time>2015-06-19T09:02:17Z</time>
      </trkpt>
      <trkpt lat="36.183060" lon="-6.034719">
        <ele>16.29</ele>
        <time>2015-06-19T09:02:19Z</time>
      </trkpt>
      <trkpt lat="36.183055" lon="-6.034710">
        <ele>16.28</ele>
        <time>2015-06-19T09:02:20Z</time>
      </trkpt>
      <trkpt lat="36.183041" lon="-6.034653">
        <ele>16.29</ele>
        <time>2015-06-19T09:02:24Z</time>
      </trkpt>
      <trkpt lat="36.183019" lon="-6.034628">
        <ele>16.27</ele>
        <time>2015-06-19T09:02:26Z</time>
      </trkpt>
      <trkpt lat="36.182989" lon="-6.034608">
        <ele>16.22</ele>
        <time>2015-06-19T09:02:28Z</time>
      </trkpt>
      <trkpt lat="36.182962" lon="-6.034598">
        <ele>16.21</ele>
        <time>2015-06-19T09:02:30Z</time>
      </trkpt>
      <trkpt lat="36.182927" lon="-6.034591">
        <ele>16.25</ele>
        <time>2015-06-19T09:02:32Z</time>
      </trkpt>
      <trkpt lat="36.182855" lon="-6.034583">
        <ele>16.24</ele>
        <time>2015-06-19T09:02:36Z</time>
      </trkpt>
      <trkpt lat="36.182775" lon="-6.034602">
        <ele>16.64</ele>
        <time>2015-06-19T09:02:41Z</time>
      </trkpt>
      <trkpt lat="36.182761" lon="-6.034607">
        <ele>17.10</ele>
        <time>2015-06-19T09:02:42Z</time>
      </trkpt>
      <trkpt lat="36.182749" lon="-6.034612">
        <ele>17.41</ele>
        <time>2015-06-19T09:02:43Z</time>
      </trkpt>
      <trkpt lat="36.182739" lon="-6.034620">
        <ele>17.84</ele>
        <time>2015-06-19T09:02:44Z</time>
      </trkpt>
      <trkpt lat="36.182731" lon="-6.034633">
        <ele>18.25</ele>
        <time>2015-06-19T09:02:45Z</time>
      </trkpt>
      <trkpt lat="36.182711" lon="-6.034668">
        <ele>18.27</ele>
        <time>2015-06-19T09:02:47Z</time>
      </trkpt>
      <trkpt lat="36.182699" lon="-6.034694">
        <ele>18.22</ele>
        <time>2015-06-19T09:02:48Z</time>
      </trkpt>
      <trkpt lat="36.182668" lon="-6.034775">
        <ele>18.30</ele>
        <time>2015-06-19T09:02:50Z</time>
      </trkpt>
      <trkpt lat="36.182638" lon="-6.034874">
        <ele>18.22</ele>
        <time>2015-06-19T09:02:52Z</time>
      </trkpt>
      <trkpt lat="36.182629" lon="-6.035054">
        <ele>18.21</ele>
        <time>2015-06-19T09:02:56Z</time>
      </trkpt>
      <trkpt lat="36.182660" lon="-6.035147">
        <ele>18.25</ele>
        <time>2015-06-19T09:02:58Z</time>
      </trkpt>
      <trkpt lat="36.182702" lon="-6.035234">
        <ele>17.87</ele>
        <time>2015-06-19T09:03:00Z</time>
      </trkpt>
      <trkpt lat="36.182717" lon="-6.035275">
        <ele>17.26</ele>
        <time>2015-06-19T09:03:01Z</time>
      </trkpt>
      <trkpt lat="36.182729" lon="-6.035316">
        <ele>16.81</ele>
        <time>2015-06-19T09:03:02Z</time>
      </trkpt>
      <trkpt lat="36.182744" lon="-6.035348">
        <ele>16.25</ele>
        <time>2015-06-19T09:03:03Z</time>
      </trkpt>
      <trkpt lat="36.182754" lon="-6.035375">
        <ele>15.86</ele>
        <time>2015-06-19T09:03:04Z</time>
      </trkpt>
      <trkpt lat="36.182772" lon="-6.035411">
        <ele>15.88</ele>
        <time>2015-06-19T09:03:06Z</time>
      </trkpt>
      <trkpt lat="36.182847" lon="-6.035555">
        <ele>16.23</ele>
        <time>2015-06-19T09:03:13Z</time>
      </trkpt>
      <trkpt lat="36.182862" lon="-6.035580">
        <ele>16.62</ele>
        <time>2015-06-19T09:03:14Z</time>
      </trkpt>
      <trkpt lat="36.182878" lon="-6.035597">
        <ele>17.10</ele>
        <time>2015-06-19T09:03:15Z</time>
      </trkpt>
      <trkpt lat="36.182895" lon="-6.035605">
        <ele>17.42</ele>
        <time>2015-06-19T09:03:16Z</time>
      </trkpt>
      <trkpt lat="36.182911" lon="-6.035610">
        <ele>17.81</ele>
        <time>2015-06-19T09:03:17Z</time>
      </trkpt>
      <trkpt lat="36.182926" lon="-6.035612">
        <ele>17.89</ele>
        <time>2015-06-19T09:03:18Z</time>
      </trkpt>
      <trkpt lat="36.182989" lon="-6.035599">
        <ele>17.84</ele>
        <time>2015-06-19T09:03:22Z</time>
      </trkpt>
      <trkpt lat="36.183001" lon="-6.035598">
        <ele>17.81</ele>
        <time>2015-06-19T09:03:24Z</time>
      </trkpt>
      <trkpt lat="36.183002" lon="-6.035598">
        <ele>17.87</ele>
        <time>2015-06-19T09:03:28Z</time>
      </trkpt>
      <trkpt lat="36.183006" lon="-6.035597">
        <ele>17.84</ele>
        <time>2015-06-19T09:03:31Z</time>
      </trkpt>
      <trkpt lat="36.183006" lon="-6.035597">
        <ele>17.87</ele>
        <time>2015-06-19T09:03:33Z</time>
      </trkpt>
      <trkpt lat="36.183006" lon="-6.035597">
        <ele>18.44</ele>
        <time>2015-06-19T09:03:34Z</time>
      </trkpt>
      <trkpt lat="36.183006" lon="-6.035597">
        <ele>18.86</ele>
        <time>2015-06-19T09:03:35Z</time>
      </trkpt>
      <trkpt lat="36.183006" lon="-6.035597">
        <ele>19.22</ele>
        <time>2015-06-19T09:03:36Z</time>
      </trkpt>
      <trkpt lat="36.183006" lon="-6.035597">
        <ele>19.68</ele>
        <time>2015-06-19T09:03:37Z</time>
      </trkpt>
      <trkpt lat="36.183006" lon="-6.035597">
        <ele>20.01</ele>
        <time>2015-06-19T09:03:38Z</time>
      </trkpt>
      <trkpt lat="36.183006" lon="-6.035597">
        <ele>20.01</ele>
        <time>2015-06-19T09:03:45Z</time>
      </trkpt>
      <trkpt lat="36.183006" lon="-6.035597">
        <ele>20.06</ele>
        <time>2015-06-19T09:03:54Z</time>
      </trkpt>
      <trkpt lat="36.183006" lon="-6.035597">
        <ele>20.10</ele>
        <time>2015-06-19T09:03:59Z</time>
      </trkpt>
      <trkpt lat="36.183006" lon="-6.035597">
        <ele>20.02</ele>
        <time>2015-06-19T09:04:02Z</time>
      </trkpt>
      <trkpt lat="36.183006" lon="-6.035597">
        <ele>20.05</ele>
        <time>2015-06-19T09:04:04Z</time>
      </trkpt>
      <trkpt lat="36.183002" lon="-6.035599">
        <ele>20.06</ele>
        <time>2015-06-19T09:04:12Z</time>
      </trkpt>
      <trkpt lat="36.183002" lon="-6.035599">
        <ele>20.04</ele>
        <time>2015-06-19T09:04:15Z</time>
      </trkpt>
      <trkpt lat="36.183002" lon="-6.035599">
        <ele>20.02</ele>
        <time>2015-06-19T09:04:16Z</time>
      </trkpt>
      <trkpt lat="36.183002" lon="-6.035599">
        <ele>20.06</ele>
        <time>2015-06-19T09:04:24Z</time>
      </trkpt>
      <trkpt lat="36.183002" lon="-6.035599">
        <ele>20.07</ele>
        <time>2015-06-19T09:04:25Z</time>
      </trkpt>
      <trkpt lat="36.183002" lon="-6.035599">
        <ele>20.09</ele>
        <time>2015-06-19T09:04:36Z</time>
      </trkpt>
      <trkpt lat="36.183002" lon="-6.035599">
        <ele>20.01</ele>
        <time>2015-06-19T09:04:43Z</time>
      </trkpt>
      <trkpt lat="36.182997" lon="-6.035607">
        <ele>20.01</ele>
        <time>2015-06-19T09:04:58Z</time>
      </trkpt>
      <trkpt lat="36.182988" lon="-6.035617">
        <ele>20.03</ele>
        <time>2015-06-19T09:05:00Z</time>
      </trkpt>
      <trkpt lat="36.182976" lon="-6.035616">
        <ele>20.02</ele>
        <time>2015-06-19T09:05:02Z</time>
      </trkpt>
      <trkpt lat="36.182957" lon="-6.035613">
        <ele>20.09</ele>
        <time>2015-06-19T09:05:03Z</time>
      </trkpt>
      <trkpt lat="36.182871" lon="-6.035586">
        <ele>20.06</ele>
        <time>2015-06-19T09:05:06Z</time>
      </trkpt>
      <trkpt lat="36.182840" lon="-6.035548">
        <ele>20.06</ele>
        <time>2015-06-19T09:05:07Z</time>
      </trkpt>
      <trkpt lat="36.182795" lon="-6.035455">
        <ele>19.62</ele>
        <time>2015-06-19T09:05:09Z</time>
      </trkpt>
      <trkpt lat="36.182773" lon="-6.035412">
        <ele>19.30</ele>
        <time>2015-06-19T09:05:10Z</time>
      </trkpt>
      <trkpt lat="36.182747" lon="-6.035363">
        <ele>18.84</ele>
        <time>2015-06-19T09:05:11Z</time>
      </trkpt>
      <trkpt lat="36.182724" lon="-6.035306">
        <ele>18.43</ele>
        <time>2015-06-19T09:05:12Z</time>
      </trkpt>
      <trkpt lat="36.182700" lon="-6.035246">
        <ele>18.09</ele>
        <time>2015-06-19T09:05:13Z</time>
      </trkpt>
      <trkpt lat="36.182653" lon="-6.035127">
        <ele>18.01</ele>
        <time>2015-06-19T09:05:15Z</time>
      </trkpt>
      <trkpt lat="36.182637" lon="-6.035073">
        <ele>18.01</ele>
        <time>2015-06-19T09:05:16Z</time>
      </trkpt>
      <trkpt lat="36.182622" lon="-6.034976">
        <ele>18.03</ele>
        <time>2015-06-19T09:05:18Z</time>
      </trkpt>
      <trkpt lat="36.182622" lon="-6.034937">
        <ele>18.07</ele>
        <time>2015-06-19T09:05:19Z</time>
      </trkpt>
      <trkpt lat="36.182649" lon="-6.034825">
        <ele>18.06</ele>
        <time>2015-06-19T09:05:23Z</time>
      </trkpt>
      <trkpt lat="36.182658" lon="-6.034797">
        <ele>18.07</ele>
        <time>2015-06-19T09:05:24Z</time>
      </trkpt>
      <trkpt lat="36.182734" lon="-6.034643">
        <ele>18.02</ele>
        <time>2015-06-19T09:05:31Z</time>
      </trkpt>
      <trkpt lat="36.182752" lon="-6.034612">
        <ele>18.08</ele>
        <time>2015-06-19T09:05:33Z</time>
      </trkpt>
      <trkpt lat="36.182771" lon="-6.034553">
        <ele>18.08</ele>
        <time>2015-06-19T09:05:36Z</time>
      </trkpt>
      <trkpt lat="36.182765" lon="-6.034491">
        <ele>18.03</ele>
        <time>2015-06-19T09:05:38Z</time>
      </trkpt>
      <trkpt lat="36.182766" lon="-6.034446">
        <ele>18.09</ele>
        <time>2015-06-19T09:05:42Z</time>
      </trkpt>
      <trkpt lat="36.182766" lon="-6.034446">
        <ele>18.01</ele>
        <time>2015-06-19T09:05:47Z</time>
      </trkpt>
      <trkpt lat="36.182766" lon="-6.034446">
        <ele>18.03</ele>
        <time>2015-06-19T09:05:51Z</time>
      </trkpt>
      <trkpt lat="36.182766" lon="-6.034446">
        <ele>18.01</ele>
        <time>2015-06-19T09:05:55Z</time>
      </trkpt>
      <trkpt lat="36.182766" lon="-6.034446">
        <ele>18.06</ele>
        <time>2015-06-19T09:05:58Z</time>
      </trkpt>
      <trkpt lat="36.182766" lon="-6.034446">
        <ele>18.09</ele>
        <time>2015-06-19T09:06:03Z</time>
      </trkpt>
      <trkpt lat="36.182770" lon="-6.034413">
        <ele>18.05</ele>
        <time>2015-06-19T09:06:10Z</time>
      </trkpt>
      <trkpt lat="36.182779" lon="-6.034272">
        <ele>18.09</ele>
        <time>2015-06-19T09:06:15Z</time>
      </trkpt>
      <trkpt lat="36.182818" lon="-6.034002">
        <ele>18.04</ele>
        <time>2015-06-19T09:06:21Z</time>
      </trkpt>
      <trkpt lat="36.182831" lon="-6.033882">
        <ele>18.07</ele>
        <time>2015-06-19T09:06:23Z</time>
      </trkpt>
      <trkpt lat="36.182847" lon="-6.033672">
        <ele>18.04</ele>
        <time>2015-06-19T09:06:26Z</time>
      </trkpt>
      <trkpt lat="36.182871" lon="-6.033433">
        <ele>18.01</ele>
        <time>2015-06-19T09:06:29Z</time>
      </trkpt>
      <trkpt lat="36.182883" lon="-6.033352">
        <ele>17.68</ele>
        <time>2015-06-19T09:06:30Z</time>
      </trkpt>
      <trkpt lat="36.182900" lon="-6.033270">
        <ele>17.00</ele>
        <time>2015-06-19T09:06:31Z</time>
      </trkpt>
      <trkpt lat="36.182927" lon="-6.033190">
        <ele>16.63</ele>
        <time>2015-06-19T09:06:32Z</time>
      </trkpt>
      <trkpt lat="36.182963" lon="-6.033111">
        <ele>16.21</ele>
        <time>2015-06-19T09:06:33Z</time>
      </trkpt>
      <trkpt lat="36.183007" lon="-6.033034">
        <ele>15.68</ele>
        <time>2015-06-19T09:06:34Z</time>
      </trkpt>
      <trkpt lat="36.183054" lon="-6.032958">
        <ele>14.84</ele>
        <time>2015-06-19T09:06:35Z</time>
      </trkpt>
      <trkpt lat="36.183105" lon="-6.032880">
        <ele>13.88</ele>
        <time>2015-06-19T09:06:36Z</time>
      </trkpt>
      <trkpt lat="36.183152" lon="-6.032808">
        <ele>11.44</ele>
        <time>2015-06-19T09:06:37Z</time>
      </trkpt>
      <trkpt lat="36.183201" lon="-6.032735">
        <ele>10.48</ele>
        <time>2015-06-19T09:06:38Z</time>
      </trkpt>
      <trkpt lat="36.183250" lon="-6.032665">
        <ele>9.21</ele>
        <time>2015-06-19T09:06:39Z</time>
      </trkpt>
      <trkpt lat="36.183298" lon="-6.032591">
        <ele>8.25</ele>
        <time>2015-06-19T09:06:40Z</time>
      </trkpt>
      <trkpt lat="36.183346" lon="-6.032520">
        <ele>7.25</ele>
        <time>2015-06-19T09:06:41Z</time>
      </trkpt>
      <trkpt lat="36.183393" lon="-6.032452">
        <ele>6.25</ele>
        <time>2015-06-19T09:06:42Z</time>
      </trkpt>
      <trkpt lat="36.183430" lon="-6.032375">
        <ele>5.29</ele>
        <time>2015-06-19T09:06:43Z</time>
      </trkpt>
      <trkpt lat="36.183454" lon="-6.032297">
        <ele>4.22</ele>
        <time>2015-06-19T09:06:44Z</time>
      </trkpt>
      <trkpt lat="36.183525" lon="-6.032188">
        <ele>4.21</ele>
        <time>2015-06-19T09:06:46Z</time>
      </trkpt>
      <trkpt lat="36.183653" lon="-6.032104">
        <ele>4.22</ele>
        <time>2015-06-19T09:06:49Z</time>
      </trkpt>
      <trkpt lat="36.183684" lon="-6.032071">
        <ele>4.22</ele>
        <time>2015-06-19T09:06:50Z</time>
      </trkpt>
      <trkpt lat="36.183813" lon="-6.031897">
        <ele>4.25</ele>
        <time>2015-06-19T09:06:55Z</time>
      </trkpt>
      <trkpt lat="36.183931" lon="-6.031727">
        <ele>4.24</ele>
        <time>2015-06-19T09:07:00Z</time>
      </trkpt>
      <trkpt lat="36.183980" lon="-6.031676">
        <ele>4.22</ele>
        <time>2015-06-19T09:07:02Z</time>
      </trkpt>
      <trkpt lat="36.184064" lon="-6.031547">
        <ele>4.28</ele>
        <time>2015-06-19T09:07:06Z</time>
      </trkpt>
      <trkpt lat="36.184107" lon="-6.031480">
        <ele>4.22</ele>
        <time>2015-06-19T09:07:08Z</time>
      </trkpt>
      <trkpt lat="36.184155" lon="-6.031414">
        <ele>4.27</ele>
        <time>2015-06-19T09:07:10Z</time>
      </trkpt>
      <trkpt lat="36.184316" lon="-6.031195">
        <ele>4.27</ele>
        <time>2015-06-19T09:07:17Z</time>
      </trkpt>
      <trkpt lat="36.184508" lon="-6.030930">
        <ele>4.23</ele>
        <time>2015-06-19T09:07:25Z</time>
      </trkpt>
      <trkpt lat="36.184715" lon="-6.030636">
        <ele>4.22</ele>
        <time>2015-06-19T09:07:34Z</time>
      </trkpt>
      <trkpt lat="36.184841" lon="-6.030469">
        <ele>4.21</ele>
        <time>2015-06-19T09:07:40Z</time>
      </trkpt>
      <trkpt lat="36.184964" lon="-6.030290">
        <ele>4.26</ele>
        <time>2015-06-19T09:07:46Z</time>
      </trkpt>
      <trkpt lat="36.185116" lon="-6.030067">
        <ele>4.26</ele>
        <time>2015-06-19T09:07:54Z</time>
      </trkpt>
      <trkpt lat="36.185259" lon="-6.029871">
        <ele>4.26</ele>
        <time>2015-06-19T09:08:01Z</time>
      </trkpt>
      <trkpt lat="36.185453" lon="-6.029613">
        <ele>4.27</ele>
        <time>2015-06-19T09:08:10Z</time>
      </trkpt>
      <trkpt lat="36.185626" lon="-6.029359">
        <ele>4.21</ele>
        <time>2015-06-19T09:08:18Z</time>
      </trkpt>
      <trkpt lat="36.185805" lon="-6.029118">
        <ele>4.25</ele>
        <time>2015-06-19T09:08:26Z</time>
      </trkpt>
      <trkpt lat="36.185871" lon="-6.029028">
        <ele>4.89</ele>
        <time>2015-06-19T09:08:29Z</time>
      </trkpt>
      <trkpt lat="36.185895" lon="-6.028998">
        <ele>5.29</ele>
        <time>2015-06-19T09:08:30Z</time>
      </trkpt>
      <trkpt lat="36.185919" lon="-6.028969">
        <ele>5.68</ele>
        <time>2015-06-19T09:08:31Z</time>
      </trkpt>
      <trkpt lat="36.185942" lon="-6.028941">
        <ele>6.22</ele>
        <time>2015-06-19T09:08:32Z</time>
      </trkpt>
      <trkpt lat="36.185966" lon="-6.028915">
        <ele>6.62</ele>
        <time>2015-06-19T09:08:33Z</time>
      </trkpt>
      <trkpt lat="36.185986" lon="-6.028883">
        <ele>6.61</ele>
        <time>2015-06-19T09:08:34Z</time>
      </trkpt>
      <trkpt lat="36.186071" lon="-6.028757">
        <ele>6.24</ele>
        <time>2015-06-19T09:08:38Z</time>
      </trkpt>
      <trkpt lat="36.186093" lon="-6.028726">
        <ele>5.84</ele>
        <time>2015-06-19T09:08:39Z</time>
      </trkpt>
      <trkpt lat="36.186115" lon="-6.028696">
        <ele>5.44</ele>
        <time>2015-06-19T09:08:40Z</time>
      </trkpt>
      <trkpt lat="36.186136" lon="-6.028664">
        <ele>4.63</ele>
        <time>2015-06-19T09:08:41Z</time>
      </trkpt>
      <trkpt lat="36.186161" lon="-6.028633">
        <ele>4.69</ele>
        <time>2015-06-19T09:08:42Z</time>
      </trkpt>
      <trkpt lat="36.186348" lon="-6.028385">
        <ele>4.61</ele>
        <time>2015-06-19T09:08:50Z</time>
      </trkpt>
      <trkpt lat="36.186503" lon="-6.028166">
        <ele>4.67</ele>
        <time>2015-06-19T09:08:57Z</time>
      </trkpt>
      <trkpt lat="36.186594" lon="-6.028039">
        <ele>4.62</ele>
        <time>2015-06-19T09:09:02Z</time>
      </trkpt>
      <trkpt lat="36.186778" lon="-6.027789">
        <ele>4.67</ele>
        <time>2015-06-19T09:09:11Z</time>
      </trkpt>
      <trkpt lat="36.186958" lon="-6.027552">
        <ele>4.64</ele>
        <time>2015-06-19T09:09:19Z</time>
      </trkpt>
      <trkpt lat="36.187143" lon="-6.027276">
        <ele>4.62</ele>
        <time>2015-06-19T09:09:28Z</time>
      </trkpt>
      <trkpt lat="36.187213" lon="-6.027236">
        <ele>4.61</ele>
        <time>2015-06-19T09:09:33Z</time>
      </trkpt>
      <trkpt lat="36.187232" lon="-6.027220">
        <ele>4.63</ele>
        <time>2015-06-19T09:09:38Z</time>
      </trkpt>
      <trkpt lat="36.187238" lon="-6.027211">
        <ele>4.62</ele>
        <time>2015-06-19T09:09:42Z</time>
      </trkpt>
      <trkpt lat="36.187240" lon="-6.027196">
        <ele>4.68</ele>
        <time>2015-06-19T09:09:44Z</time>
      </trkpt>
      <trkpt lat="36.187247" lon="-6.027177">
        <ele>4.63</ele>
        <time>2015-06-19T09:09:47Z</time>
      </trkpt>
      <trkpt lat="36.187264" lon="-6.027156">
        <ele>4.62</ele>
        <time>2015-06-19T09:09:49Z</time>
      </trkpt>
      <trkpt lat="36.187294" lon="-6.027093">
        <ele>4.65</ele>
        <time>2015-06-19T09:09:52Z</time>
      </trkpt>
      <trkpt lat="36.187309" lon="-6.027070">
        <ele>4.68</ele>
        <time>2015-06-19T09:09:53Z</time>
      </trkpt>
      <trkpt lat="36.187363" lon="-6.026993">
        <ele>4.67</ele>
        <time>2015-06-19T09:09:56Z</time>
      </trkpt>
      <trkpt lat="36.187430" lon="-6.026917">
        <ele>4.63</ele>
        <time>2015-06-19T09:09:59Z</time>
      </trkpt>
      <trkpt lat="36.187606" lon="-6.026770">
        <ele>4.63</ele>
        <time>2015-06-19T09:10:06Z</time>
      </trkpt>
      <trkpt lat="36.187803" lon="-6.026665">
        <ele>4.61</ele>
        <time>2015-06-19T09:10:13Z</time>
      </trkpt>
      <trkpt lat="36.188043" lon="-6.026590">
        <ele>4.61</ele>
        <time>2015-06-19T09:10:21Z</time>
      </trkpt>
      <trkpt lat="36.188104" lon="-6.026563">
        <ele>5.08</ele>
        <time>2015-06-19T09:10:23Z</time>
      </trkpt>
      <trkpt lat="36.188133" lon="-6.026546">
        <ele>5.49</ele>
        <time>2015-06-19T09:10:24Z</time>
      </trkpt>
      <trkpt lat="36.188162" lon="-6.026524">
        <ele>5.85</ele>
        <time>2015-06-19T09:10:25Z</time>
      </trkpt>
      <trkpt lat="36.188190" lon="-6.026503">
        <ele>6.26</ele>
        <time>2015-06-19T09:10:26Z</time>
      </trkpt>
      <trkpt lat="36.188219" lon="-6.026480">
        <ele>6.63</ele>
        <time>2015-06-19T09:10:27Z</time>
      </trkpt>
      <trkpt lat="36.188249" lon="-6.026455">
        <ele>6.65</ele>
        <time>2015-06-19T09:10:28Z</time>
      </trkpt>
      <trkpt lat="36.188482" lon="-6.026215">
        <ele>6.62</ele>
        <time>2015-06-19T09:10:36Z</time>
      </trkpt>
      <trkpt lat="36.188720" lon="-6.025957">
        <ele>6.66</ele>
        <time>2015-06-19T09:10:45Z</time>
      </trkpt>
      <trkpt lat="36.188922" lon="-6.025709">
        <ele>6.66</ele>
        <time>2015-06-19T09:10:52Z</time>
      </trkpt>
      <trkpt lat="36.189099" lon="-6.025500">
        <ele>6.61</ele>
        <time>2015-06-19T09:10:58Z</time>
      </trkpt>
      <trkpt lat="36.189245" lon="-6.025331">
        <ele>6.62</ele>
        <time>2015-06-19T09:11:03Z</time>
      </trkpt>
      <trkpt lat="36.189319" lon="-6.025233">
        <ele>6.61</ele>
        <time>2015-06-19T09:11:06Z</time>
      </trkpt>
      <trkpt lat="36.189381" lon="-6.025107">
        <ele>6.69</ele>
        <time>2015-06-19T09:11:10Z</time>
      </trkpt>
      <trkpt lat="36.189330" lon="-6.025007">
        <ele>6.65</ele>
        <time>2015-06-19T09:11:13Z</time>
      </trkpt>
      <trkpt lat="36.189154" lon="-6.024748">
        <ele>7.08</ele>
        <time>2015-06-19T09:11:20Z</time>
      </trkpt>
      <trkpt lat="36.189129" lon="-6.024709">
        <ele>7.47</ele>
        <time>2015-06-19T09:11:21Z</time>
      </trkpt>
      <trkpt lat="36.189099" lon="-6.024667">
        <ele>7.84</ele>
        <time>2015-06-19T09:11:22Z</time>
      </trkpt>
      <trkpt lat="36.189070" lon="-6.024627">
        <ele>8.27</ele>
        <time>2015-06-19T09:11:23Z</time>
      </trkpt>
      <trkpt lat="36.189038" lon="-6.024584">
        <ele>8.85</ele>
        <time>2015-06-19T09:11:24Z</time>
      </trkpt>
      <trkpt lat="36.188919" lon="-6.024420">
        <ele>8.82</ele>
        <time>2015-06-19T09:11:28Z</time>
      </trkpt>
      <trkpt lat="36.188642" lon="-6.024031">
        <ele>8.84</ele>
        <time>2015-06-19T09:11:37Z</time>
      </trkpt>
      <trkpt lat="36.188424" lon="-6.023721">
        <ele>8.87</ele>
        <time>2015-06-19T09:11:44Z</time>
      </trkpt>
      <trkpt lat="36.188268" lon="-6.023430">
        <ele>8.82</ele>
        <time>2015-06-19T09:11:50Z</time>
      </trkpt>
      <trkpt lat="36.188233" lon="-6.023321">
        <ele>8.81</ele>
        <time>2015-06-19T09:11:52Z</time>
      </trkpt>
      <trkpt lat="36.188188" lon="-6.023156">
        <ele>8.84</ele>
        <time>2015-06-19T09:11:55Z</time>
      </trkpt>
      <trkpt lat="36.188145" lon="-6.022981">
        <ele>8.84</ele>
        <time>2015-06-19T09:11:58Z</time>
      </trkpt>
      <trkpt lat="36.188041" lon="-6.022402">
        <ele>8.89</ele>
        <time>2015-06-19T09:12:08Z</time>
      </trkpt>
      <trkpt lat="36.187997" lon="-6.022193">
        <ele>8.82</ele>
        <time>2015-06-19T09:12:12Z</time>
      </trkpt>
      <trkpt lat="36.187964" lon="-6.022043">
        <ele>8.90</ele>
        <time>2015-06-19T09:12:15Z</time>
      </trkpt>
      <trkpt lat="36.187863" lon="-6.021526">
        <ele>8.87</ele>
        <time>2015-06-19T09:12:25Z</time>
      </trkpt>
      <trkpt lat="36.187802" lon="-6.021223">
        <ele>8.88</ele>
        <time>2015-06-19T09:12:31Z</time>
      </trkpt>
      <trkpt lat="36.187775" lon="-6.021072">
        <ele>8.82</ele>
        <time>2015-06-19T09:12:34Z</time>
      </trkpt>
      <trkpt lat="36.187694" lon="-6.020698">
        <ele>8.89</ele>
        <time>2015-06-19T09:12:42Z</time>
      </trkpt>
      <trkpt lat="36.187642" lon="-6.020474">
        <ele>8.86</ele>
        <time>2015-06-19T09:12:47Z</time>
      </trkpt>
      <trkpt lat="36.187619" lon="-6.020384">
        <ele>8.82</ele>
        <time>2015-06-19T09:12:49Z</time>
      </trkpt>
      <trkpt lat="36.187524" lon="-6.020016">
        <ele>8.81</ele>
        <time>2015-06-19T09:12:57Z</time>
      </trkpt>
      <trkpt lat="36.187415" lon="-6.019608">
        <ele>8.83</ele>
        <time>2015-06-19T09:13:06Z</time>
      </trkpt>
      <trkpt lat="36.187375" lon="-6.019464">
        <ele>8.25</ele>
        <time>2015-06-19T09:13:09Z</time>
      </trkpt>
      <trkpt lat="36.187361" lon="-6.019415">
        <ele>7.86</ele>
        <time>2015-06-19T09:13:10Z</time>
      </trkpt>
      <trkpt lat="36.187347" lon="-6.019368">
        <ele>7.46</ele>
        <time>2015-06-19T09:13:11Z</time>
      </trkpt>
      <trkpt lat="36.187333" lon="-6.019318">
        <ele>6.66</ele>
        <time>2015-06-19T09:13:12Z</time>
      </trkpt>
      <trkpt lat="36.187288" lon="-6.019127">
        <ele>6.63</ele>
        <time>2015-06-19T09:13:16Z</time>
      </trkpt>
      <trkpt lat="36.187185" lon="-6.018745">
        <ele>6.64</ele>
        <time>2015-06-19T09:13:24Z</time>
      </trkpt>
      <trkpt lat="36.187078" lon="-6.018280">
        <ele>6.68</ele>
        <time>2015-06-19T09:13:33Z</time>
      </trkpt>
      <trkpt lat="36.187004" lon="-6.018001">
        <ele>6.66</ele>
        <time>2015-06-19T09:13:39Z</time>
      </trkpt>
      <trkpt lat="36.186891" lon="-6.017567">
        <ele>6.66</ele>
        <time>2015-06-19T09:13:48Z</time>
      </trkpt>
      <trkpt lat="36.186782" lon="-6.017177">
        <ele>6.61</ele>
        <time>2015-06-19T09:13:56Z</time>
      </trkpt>
      <trkpt lat="36.186689" lon="-6.016840">
        <ele>6.61</ele>
        <time>2015-06-19T09:14:03Z</time>
      </trkpt>
      <trkpt lat="36.186607" lon="-6.016546">
        <ele>6.64</ele>
        <time>2015-06-19T09:14:10Z</time>
      </trkpt>
      <trkpt lat="36.186493" lon="-6.016126">
        <ele>6.66</ele>
        <time>2015-06-19T09:14:19Z</time>
      </trkpt>
      <trkpt lat="36.186352" lon="-6.015598">
        <ele>6.69</ele>
        <time>2015-06-19T09:14:30Z</time>
      </trkpt>
      <trkpt lat="36.186246" lon="-6.015208">
        <ele>6.63</ele>
        <time>2015-06-19T09:14:38Z</time>
      </trkpt>
      <trkpt lat="36.186151" lon="-6.014815">
        <ele>6.69</ele>
        <time>2015-06-19T09:14:46Z</time>
      </trkpt>
      <trkpt lat="36.186131" lon="-6.014722">
        <ele>6.61</ele>
        <time>2015-06-19T09:14:48Z</time>
      </trkpt>
      <trkpt lat="36.186033" lon="-6.014399">
        <ele>6.66</ele>
        <time>2015-06-19T09:14:55Z</time>
      </trkpt>
      <trkpt lat="36.185946" lon="-6.014073">
        <ele>6.63</ele>
        <time>2015-06-19T09:15:02Z</time>
      </trkpt>
      <trkpt lat="36.185860" lon="-6.013742">
        <ele>6.65</ele>
        <time>2015-06-19T09:15:09Z</time>
      </trkpt>
      <trkpt lat="36.185814" lon="-6.013484">
        <ele>6.60</ele>
        <time>2015-06-19T09:15:15Z</time>
      </trkpt>
      <trkpt lat="36.185812" lon="-6.013440">
        <ele>6.61</ele>
        <time>2015-06-19T09:15:16Z</time>
      </trkpt>
      <trkpt lat="36.185807" lon="-6.013279">
        <ele>7.01</ele>
        <time>2015-06-19T09:15:20Z</time>
      </trkpt>
      <trkpt lat="36.185806" lon="-6.013241">
        <ele>7.43</ele>
        <time>2015-06-19T09:15:21Z</time>
      </trkpt>
      <trkpt lat="36.185804" lon="-6.013200">
        <ele>7.88</ele>
        <time>2015-06-19T09:15:22Z</time>
      </trkpt>
      <trkpt lat="36.185805" lon="-6.013158">
        <ele>8.46</ele>
        <time>2015-06-19T09:15:23Z</time>
      </trkpt>
      <trkpt lat="36.185803" lon="-6.013119">
        <ele>8.86</ele>
        <time>2015-06-19T09:15:24Z</time>
      </trkpt>
      <trkpt lat="36.185808" lon="-6.012877">
        <ele>8.87</ele>
        <time>2015-06-19T09:15:30Z</time>
      </trkpt>
      <trkpt lat="36.185819" lon="-6.012481">
        <ele>8.88</ele>
        <time>2015-06-19T09:15:39Z</time>
      </trkpt>
      <trkpt lat="36.185847" lon="-6.012162">
        <ele>8.88</ele>
        <time>2015-06-19T09:15:47Z</time>
      </trkpt>
      <trkpt lat="36.185846" lon="-6.011829">
        <ele>8.89</ele>
        <time>2015-06-19T09:15:55Z</time>
      </trkpt>
      <trkpt lat="36.185841" lon="-6.011745">
        <ele>9.25</ele>
        <time>2015-06-19T09:15:57Z</time>
      </trkpt>
      <trkpt lat="36.185840" lon="-6.011704">
        <ele>9.66</ele>
        <time>2015-06-19T09:15:58Z</time>
      </trkpt>
      <trkpt lat="36.185834" lon="-6.011666">
        <ele>10.02</ele>
        <time>2015-06-19T09:15:59Z</time>
      </trkpt>
      <trkpt lat="36.185831" lon="-6.011629">
        <ele>10.41</ele>
        <time>2015-06-19T09:16:00Z</time>
      </trkpt>
      <trkpt lat="36.185829" lon="-6.011593">
        <ele>10.85</ele>
        <time>2015-06-19T09:16:01Z</time>
      </trkpt>
      <trkpt lat="36.185823" lon="-6.011551">
        <ele>10.81</ele>
        <time>2015-06-19T09:16:02Z</time>
      </trkpt>
      <trkpt lat="36.185773" lon="-6.011181">
        <ele>10.82</ele>
        <time>2015-06-19T09:16:11Z</time>
      </trkpt>
      <trkpt lat="36.185684" lon="-6.010811">
        <ele>10.89</ele>
        <time>2015-06-19T09:16:20Z</time>
      </trkpt>
      <trkpt lat="36.185620" lon="-6.010431">
        <ele>10.83</ele>
        <time>2015-06-19T09:16:29Z</time>
      </trkpt>
      <trkpt lat="36.185573" lon="-6.010138">
        <ele>10.85</ele>
        <time>2015-06-19T09:16:36Z</time>
      </trkpt>
      <trkpt lat="36.185563" lon="-6.010053">
        <ele>11.26</ele>
        <time>2015-06-19T09:16:38Z</time>
      </trkpt>
      <trkpt lat="36.185558" lon="-6.010008">
        <ele>11.68</ele>
        <time>2015-06-19T09:16:39Z</time>
      </trkpt>
      <trkpt lat="36.185553" lon="-6.009968">
        <ele>12.06</ele>
        <time>2015-06-19T09:16:40Z</time>
      </trkpt>
      <trkpt lat="36.185549" lon="-6.009925">
        <ele>12.65</ele>
        <time>2015-06-19T09:16:41Z</time>
      </trkpt>
      <trkpt lat="36.185545" lon="-6.009887">
        <ele>13.02</ele>
        <time>2015-06-19T09:16:42Z</time>
      </trkpt>
      <trkpt lat="36.185533" lon="-6.009769">
        <ele>13.01</ele>
        <time>2015-06-19T09:16:45Z</time>
      </trkpt>
      <trkpt lat="36.185506" lon="-6.009552">
        <ele>13.02</ele>
        <time>2015-06-19T09:16:51Z</time>
      </trkpt>
      <trkpt lat="36.185457" lon="-6.009267">
        <ele>13.03</ele>
        <time>2015-06-19T09:16:58Z</time>
      </trkpt>
      <trkpt lat="36.185408" lon="-6.009019">
        <ele>13.04</ele>
        <time>2015-06-19T09:17:04Z</time>
      </trkpt>
      <trkpt lat="36.185392" lon="-6.008980">
        <ele>13.48</ele>
        <time>2015-06-19T09:17:05Z</time>
      </trkpt>
      <trkpt lat="36.185374" lon="-6.008940">
        <ele>13.89</ele>
        <time>2015-06-19T09:17:06Z</time>
      </trkpt>
      <trkpt lat="36.185352" lon="-6.008902">
        <ele>14.23</ele>
        <time>2015-06-19T09:17:07Z</time>
      </trkpt>
      <trkpt lat="36.185328" lon="-6.008866">
        <ele>14.69</ele>
        <time>2015-06-19T09:17:08Z</time>
      </trkpt>
      <trkpt lat="36.185305" lon="-6.008829">
        <ele>15.02</ele>
        <time>2015-06-19T09:17:09Z</time>
      </trkpt>
      <trkpt lat="36.185260" lon="-6.008758">
        <ele>15.09</ele>
        <time>2015-06-19T09:17:11Z</time>
      </trkpt>
      <trkpt lat="36.185089" lon="-6.008421">
        <ele>15.01</ele>
        <time>2015-06-19T09:17:20Z</time>
      </trkpt>
      <trkpt lat="36.184928" lon="-6.008111">
        <ele>15.03</ele>
        <time>2015-06-19T09:17:28Z</time>
      </trkpt>
      <trkpt lat="36.184766" lon="-6.007804">
        <ele>15.01</ele>
        <time>2015-06-19T09:17:36Z</time>
      </trkpt>
      <trkpt lat="36.184675" lon="-6.007586">
        <ele>15.03</ele>
        <time>2015-06-19T09:17:42Z</time>
      </trkpt>
      <trkpt lat="36.184568" lon="-6.007352">
        <ele>15.09</ele>
        <time>2015-06-19T09:17:48Z</time>
      </trkpt>
      <trkpt lat="36.184395" lon="-6.006981">
        <ele>15.04</ele>
        <time>2015-06-19T09:17:56Z</time>
      </trkpt>
      <trkpt lat="36.184369" lon="-6.006938">
        <ele>15.06</ele>
        <time>2015-06-19T09:17:57Z</time>
      </trkpt>
      <trkpt lat="36.184251" lon="-6.006717">
        <ele>15.02</ele>
        <time>2015-06-19T09:18:02Z</time>
      </trkpt>
      <trkpt lat="36.184130" lon="-6.006487">
        <ele>15.08</ele>
        <time>2015-06-19T09:18:07Z</time>
      </trkpt>
      <trkpt lat="36.184080" lon="-6.006383">
        <ele>15.08</ele>
        <time>2015-06-19T09:18:09Z</time>
      </trkpt>
      <trkpt lat="36.183966" lon="-6.006171">
        <ele>15.01</ele>
        <time>2015-06-19T09:18:13Z</time>
      </trkpt>
      <trkpt lat="36.183837" lon="-6.005937">
        <ele>15.09</ele>
        <time>2015-06-19T09:18:17Z</time>
      </trkpt>
      <trkpt lat="36.183571" lon="-6.005439">
        <ele>15.06</ele>
        <time>2015-06-19T09:18:25Z</time>
      </trkpt>
      <trkpt lat="36.183497" lon="-6.005251">
        <ele>15.02</ele>
        <time>2015-06-19T09:18:28Z</time>
      </trkpt>
      <trkpt lat="36.183470" lon="-6.005121">
        <ele>15.01</ele>
        <time>2015-06-19T09:18:30Z</time>
      </trkpt>
      <trkpt lat="36.183387" lon="-6.004702">
        <ele>15.06</ele>
        <time>2015-06-19T09:18:37Z</time>
      </trkpt>
      <trkpt lat="36.183340" lon="-6.004481">
        <ele>15.06</ele>
        <time>2015-06-19T09:18:42Z</time>
      </trkpt>
      <trkpt lat="36.183248" lon="-6.004184">
        <ele>15.03</ele>
        <time>2015-06-19T09:18:49Z</time>
      </trkpt>
      <trkpt lat="36.183153" lon="-6.003881">
        <ele>15.07</ele>
        <time>2015-06-19T09:18:56Z</time>
      </trkpt>
      <trkpt lat="36.183067" lon="-6.003594">
        <ele>15.02</ele>
        <time>2015-06-19T09:19:02Z</time>
      </trkpt>
      <trkpt lat="36.183044" lon="-6.003550">
        <ele>15.06</ele>
        <time>2015-06-19T09:19:03Z</time>
      </trkpt>
      <trkpt lat="36.182984" lon="-6.003355">
        <ele>15.05</ele>
        <time>2015-06-19T09:19:07Z</time>
      </trkpt>
      <trkpt lat="36.182954" lon="-6.003254">
        <ele>15.04</ele>
        <time>2015-06-19T09:19:09Z</time>
      </trkpt>
      <trkpt lat="36.182871" lon="-6.002903">
        <ele>15.10</ele>
        <time>2015-06-19T09:19:16Z</time>
      </trkpt>
      <trkpt lat="36.182816" lon="-6.002609">
        <ele>15.02</ele>
        <time>2015-06-19T09:19:22Z</time>
      </trkpt>
      <trkpt lat="36.182763" lon="-6.002418">
        <ele>15.03</ele>
        <time>2015-06-19T09:19:26Z</time>
      </trkpt>
      <trkpt lat="36.182739" lon="-6.002331">
        <ele>15.01</ele>
        <time>2015-06-19T09:19:28Z</time>
      </trkpt>
      <trkpt lat="36.182730" lon="-6.002284">
        <ele>15.04</ele>
        <time>2015-06-19T09:19:29Z</time>
      </trkpt>
      <trkpt lat="36.182731" lon="-6.002185">
        <ele>15.07</ele>
        <time>2015-06-19T09:19:31Z</time>
      </trkpt>
      <trkpt lat="36.182748" lon="-6.002054">
        <ele>15.09</ele>
        <time>2015-06-19T09:19:34Z</time>
      </trkpt>
      <trkpt lat="36.182784" lon="-6.001863">
        <ele>15.06</ele>
        <time>2015-06-19T09:19:40Z</time>
      </trkpt>
      <trkpt lat="36.182852" lon="-6.001679">
        <ele>15.05</ele>
        <time>2015-06-19T09:19:47Z</time>
      </trkpt>
      <trkpt lat="36.182896" lon="-6.001581">
        <ele>15.09</ele>
        <time>2015-06-19T09:19:51Z</time>
      </trkpt>
      <trkpt lat="36.182941" lon="-6.001452">
        <ele>15.09</ele>
        <time>2015-06-19T09:19:56Z</time>
      </trkpt>
      <trkpt lat="36.182952" lon="-6.001401">
        <ele>15.42</ele>
        <time>2015-06-19T09:19:58Z</time>
      </trkpt>
      <trkpt lat="36.182958" lon="-6.001376">
        <ele>15.87</ele>
        <time>2015-06-19T09:19:59Z</time>
      </trkpt>
      <trkpt lat="36.182967" lon="-6.001352">
        <ele>16.26</ele>
        <time>2015-06-19T09:20:00Z</time>
      </trkpt>
      <trkpt lat="36.182974" lon="-6.001328">
        <ele>16.62</ele>
        <time>2015-06-19T09:20:01Z</time>
      </trkpt>
      <trkpt lat="36.182984" lon="-6.001305">
        <ele>17.01</ele>
        <time>2015-06-19T09:20:02Z</time>
      </trkpt>
      <trkpt lat="36.183039" lon="-6.001211">
        <ele>17.50</ele>
        <time>2015-06-19T09:20:07Z</time>
      </trkpt>
      <trkpt lat="36.183047" lon="-6.001192">
        <ele>17.83</ele>
        <time>2015-06-19T09:20:08Z</time>
      </trkpt>
      <trkpt lat="36.183048" lon="-6.001174">
        <ele>18.28</ele>
        <time>2015-06-19T09:20:09Z</time>
      </trkpt>
      <trkpt lat="36.183044" lon="-6.001162">
        <ele>18.62</ele>
        <time>2015-06-19T09:20:10Z</time>
      </trkpt>
      <trkpt lat="36.183040" lon="-6.001152">
        <ele>19.03</ele>
        <time>2015-06-19T09:20:11Z</time>
      </trkpt>
      <trkpt lat="36.183039" lon="-6.001147">
        <ele>19.02</ele>
        <time>2015-06-19T09:20:14Z</time>
      </trkpt>
      <trkpt lat="36.183039" lon="-6.001147">
        <ele>19.04</ele>
        <time>2015-06-19T09:20:25Z</time>
      </trkpt>
      <trkpt lat="36.183039" lon="-6.001147">
        <ele>19.01</ele>
        <time>2015-06-19T09:20:27Z</time>
      </trkpt>
      <trkpt lat="36.183024" lon="-6.001153">
        <ele>19.08</ele>
        <time>2015-06-19T09:20:37Z</time>
      </trkpt>
      <trkpt lat="36.183020" lon="-6.001146">
        <ele>19.02</ele>
        <time>2015-06-19T09:20:40Z</time>
      </trkpt>
      <trkpt lat="36.183020" lon="-6.001146">
        <ele>19.02</ele>
        <time>2015-06-19T09:20:42Z</time>
      </trkpt>
      <trkpt lat="36.183010" lon="-6.001138">
        <ele>19.01</ele>
        <time>2015-06-19T09:20:48Z</time>
      </trkpt>
      <trkpt lat="36.183007" lon="-6.001136">
        <ele>19.02</ele>
        <time>2015-06-19T09:20:55Z</time>
      </trkpt>
      <trkpt lat="36.182995" lon="-6.001124">
        <ele>19.02</ele>
        <time>2015-06-19T09:20:57Z</time>
      </trkpt>
      <trkpt lat="36.182978" lon="-6.001104">
        <ele>19.02</ele>
        <time>2015-06-19T09:21:00Z</time>
      </trkpt>
      <trkpt lat="36.182957" lon="-6.001078">
        <ele>19.05</ele>
        <time>2015-06-19T09:21:03Z</time>
      </trkpt>
      <trkpt lat="36.182935" lon="-6.001052">
        <ele>19.05</ele>
        <time>2015-06-19T09:21:06Z</time>
      </trkpt>
      <trkpt lat="36.182892" lon="-6.001008">
        <ele>19.07</ele>
        <time>2015-06-19T09:21:13Z</time>
      </trkpt>
      <trkpt lat="36.182880" lon="-6.000947">
        <ele>19.03</ele>
        <time>2015-06-19T09:21:20Z</time>
      </trkpt>
      <trkpt lat="36.182869" lon="-6.000909">
        <ele>19.08</ele>
        <time>2015-06-19T09:21:25Z</time>
      </trkpt>
      <trkpt lat="36.182857" lon="-6.000875">
        <ele>19.02</ele>
        <time>2015-06-19T09:21:29Z</time>
      </trkpt>
      <trkpt lat="36.182826" lon="-6.000811">
        <ele>19.09</ele>
        <time>2015-06-19T09:21:37Z</time>
      </trkpt>
      <trkpt lat="36.182798" lon="-6.000762">
        <ele>19.02</ele>
        <time>2015-06-19T09:21:44Z</time>
      </trkpt>
      <trkpt lat="36.182790" lon="-6.000730">
        <ele>19.01</ele>
        <time>2015-06-19T09:21:52Z</time>
      </trkpt>
      <trkpt lat="36.182791" lon="-6.000716">
        <ele>19.06</ele>
        <time>2015-06-19T09:22:01Z</time>
      </trkpt>
      <trkpt lat="36.182791" lon="-6.000716">
        <ele>19.03</ele>
        <time>2015-06-19T09:22:02Z</time>
      </trkpt>
      <trkpt lat="36.182791" lon="-6.000716">
        <ele>19.08</ele>
        <time>2015-06-19T09:22:16Z</time>
      </trkpt>
      <trkpt lat="36.182791" lon="-6.000716">
        <ele>19.05</ele>
        <time>2015-06-19T09:22:31Z</time>
      </trkpt>
      <trkpt lat="36.182791" lon="-6.000716">
        <ele>19.09</ele>
        <time>2015-06-19T09:22:34Z</time>
      </trkpt>
      <trkpt lat="36.182794" lon="-6.000680">
        <ele>19.08</ele>
        <time>2015-06-19T09:22:41Z</time>
      </trkpt>
      <trkpt lat="36.182795" lon="-6.000680">
        <ele>19.03</ele>
        <time>2015-06-19T09:22:42Z</time>
      </trkpt>
      <trkpt lat="36.182795" lon="-6.000680">
        <ele>19.04</ele>
        <time>2015-06-19T09:22:44Z</time>
      </trkpt>
      <trkpt lat="36.182795" lon="-6.000675">
        <ele>19.07</ele>
        <time>2015-06-19T09:22:48Z</time>
      </trkpt>
      <trkpt lat="36.182794" lon="-6.000657">
        <ele>19.09</ele>
        <time>2015-06-19T09:22:50Z</time>
      </trkpt>
      <trkpt lat="36.182801" lon="-6.000598">
        <ele>19.41</ele>
        <time>2015-06-19T09:22:57Z</time>
      </trkpt>
      <trkpt lat="36.182803" lon="-6.000590">
        <ele>20.01</ele>
        <time>2015-06-19T09:22:58Z</time>
      </trkpt>
      <trkpt lat="36.182804" lon="-6.000582">
        <ele>20.42</ele>
        <time>2015-06-19T09:22:59Z</time>
      </trkpt>
      <trkpt lat="36.182805" lon="-6.000576">
        <ele>20.84</ele>
        <time>2015-06-19T09:23:00Z</time>
      </trkpt>
      <trkpt lat="36.182808" lon="-6.000569">
        <ele>21.26</ele>
        <time>2015-06-19T09:23:01Z</time>
      </trkpt>
      <trkpt lat="36.182810" lon="-6.000557">
        <ele>21.28</ele>
        <time>2015-06-19T09:23:04Z</time>
      </trkpt>
      <trkpt lat="36.182813" lon="-6.000549">
        <ele>21.25</ele>
        <time>2015-06-19T09:23:05Z</time>
      </trkpt>
      <trkpt lat="36.182823" lon="-6.000521">
        <ele>21.22</ele>
        <time>2015-06-19T09:23:10Z</time>
      </trkpt>
      <trkpt lat="36.182823" lon="-6.000515">
        <ele>21.26</ele>
        <time>2015-06-19T09:23:14Z</time>
      </trkpt>
      <trkpt lat="36.182808" lon="-6.000467">
        <ele>21.28</ele>
        <time>2015-06-19T09:23:19Z</time>
      </trkpt>
      <trkpt lat="36.182805" lon="-6.000449">
        <ele>21.26</ele>
        <time>2015-06-19T09:23:21Z</time>
      </trkpt>
      <trkpt lat="36.182774" lon="-6.000384">
        <ele>21.20</ele>
        <time>2015-06-19T09:23:29Z</time>
      </trkpt>
      <trkpt lat="36.182730" lon="-6.000308">
        <ele>21.22</ele>
        <time>2015-06-19T09:23:36Z</time>
      </trkpt>
      <trkpt lat="36.182720" lon="-6.000282">
        <ele>21.21</ele>
        <time>2015-06-19T09:23:39Z</time>
      </trkpt>
      <trkpt lat="36.182723" lon="-6.000269">
        <ele>21.25</ele>
        <time>2015-06-19T09:23:41Z</time>
      </trkpt>
      <trkpt lat="36.182694" lon="-6.000209">
        <ele>21.29</ele>
        <time>2015-06-19T09:23:47Z</time>
      </trkpt>
      <trkpt lat="36.182657" lon="-6.000145">
        <ele>21.24</ele>
        <time>2015-06-19T09:23:53Z</time>
      </trkpt>
      <trkpt lat="36.182618" lon="-6.000072">
        <ele>21.29</ele>
        <time>2015-06-19T09:24:02Z</time>
      </trkpt>
      <trkpt lat="36.182612" lon="-6.000062">
        <ele>21.30</ele>
        <time>2015-06-19T09:24:03Z</time>
      </trkpt>
      <trkpt lat="36.182569" lon="-5.999978">
        <ele>21.23</ele>
        <time>2015-06-19T09:24:11Z</time>
      </trkpt>
      <trkpt lat="36.182549" lon="-5.999914">
        <ele>21.25</ele>
        <time>2015-06-19T09:24:18Z</time>
      </trkpt>
      <trkpt lat="36.182541" lon="-5.999901">
        <ele>21.22</ele>
        <time>2015-06-19T09:24:23Z</time>
      </trkpt>
      <trkpt lat="36.182522" lon="-5.999852">
        <ele>21.29</ele>
        <time>2015-06-19T09:24:32Z</time>
      </trkpt>
      <trkpt lat="36.182498" lon="-5.999809">
        <ele>21.66</ele>
        <time>2015-06-19T09:24:38Z</time>
      </trkpt>
      <trkpt lat="36.182495" lon="-5.999801">
        <ele>22.02</ele>
        <time>2015-06-19T09:24:39Z</time>
      </trkpt>
      <trkpt lat="36.182491" lon="-5.999791">
        <ele>22.41</ele>
        <time>2015-06-19T09:24:40Z</time>
      </trkpt>
      <trkpt lat="36.182485" lon="-5.999780">
        <ele>22.81</ele>
        <time>2015-06-19T09:24:41Z</time>
      </trkpt>
      <trkpt lat="36.182478" lon="-5.999772">
        <ele>23.24</ele>
        <time>2015-06-19T09:24:42Z</time>
      </trkpt>
      <trkpt lat="36.182425" lon="-5.999702">
        <ele>23.28</ele>
        <time>2015-06-19T09:24:49Z</time>
      </trkpt>
      <trkpt lat="36.182375" lon="-5.999636">
        <ele>23.30</ele>
        <time>2015-06-19T09:24:57Z</time>
      </trkpt>
      <trkpt lat="36.182365" lon="-5.999589">
        <ele>23.23</ele>
        <time>2015-06-19T09:25:04Z</time>
      </trkpt>
      <trkpt lat="36.182342" lon="-5.999540">
        <ele>23.27</ele>
        <time>2015-06-19T09:25:10Z</time>
      </trkpt>
      <trkpt lat="36.182319" lon="-5.999460">
        <ele>23.30</ele>
        <time>2015-06-19T09:25:18Z</time>
      </trkpt>
      <trkpt lat="36.182305" lon="-5.999413">
        <ele>23.26</ele>
        <time>2015-06-19T09:25:25Z</time>
      </trkpt>
      <trkpt lat="36.182292" lon="-5.999345">
        <ele>23.26</ele>
        <time>2015-06-19T09:25:34Z</time>
      </trkpt>
      <trkpt lat="36.182281" lon="-5.999269">
        <ele>23.20</ele>
        <time>2015-06-19T09:25:45Z</time>
      </trkpt>
      <trkpt lat="36.182281" lon="-5.999269">
        <ele>23.22</ele>
        <time>2015-06-19T09:25:58Z</time>
      </trkpt>
      <trkpt lat="36.182281" lon="-5.999269">
        <ele>23.61</ele>
        <time>2015-06-19T09:26:00Z</time>
      </trkpt>
      <trkpt lat="36.182281" lon="-5.999269">
        <ele>24.10</ele>
        <time>2015-06-19T09:26:01Z</time>
      </trkpt>
      <trkpt lat="36.182281" lon="-5.999269">
        <ele>24.43</ele>
        <time>2015-06-19T09:26:02Z</time>
      </trkpt>
      <trkpt lat="36.182281" lon="-5.999269">
        <ele>24.89</ele>
        <time>2015-06-19T09:26:03Z</time>
      </trkpt>
      <trkpt lat="36.182281" lon="-5.999269">
        <ele>25.27</ele>
        <time>2015-06-19T09:26:04Z</time>
      </trkpt>
      <trkpt lat="36.182276" lon="-5.999251">
        <ele>25.25</ele>
        <time>2015-06-19T09:26:09Z</time>
      </trkpt>
      <trkpt lat="36.182266" lon="-5.999228">
        <ele>25.27</ele>
        <time>2015-06-19T09:26:12Z</time>
      </trkpt>
      <trkpt lat="36.182258" lon="-5.999216">
        <ele>25.23</ele>
        <time>2015-06-19T09:26:14Z</time>
      </trkpt>
      <trkpt lat="36.182254" lon="-5.999195">
        <ele>25.24</ele>
        <time>2015-06-19T09:26:16Z</time>
      </trkpt>
      <trkpt lat="36.182245" lon="-5.999177">
        <ele>25.22</ele>
        <time>2015-06-19T09:26:18Z</time>
      </trkpt>
      <trkpt lat="36.182217" lon="-5.999131">
        <ele>25.26</ele>
        <time>2015-06-19T09:26:25Z</time>
      </trkpt>
      <trkpt lat="36.182213" lon="-5.999111">
        <ele>25.21</ele>
        <time>2015-06-19T09:26:27Z</time>
      </trkpt>
      <trkpt lat="36.182195" lon="-5.999052">
        <ele>25.21</ele>
        <time>2015-06-19T09:26:34Z</time>
      </trkpt>
      <trkpt lat="36.182170" lon="-5.998989">
        <ele>25.22</ele>
        <time>2015-06-19T09:26:43Z</time>
      </trkpt>
      <trkpt lat="36.182151" lon="-5.998950">
        <ele>25.25</ele>
        <time>2015-06-19T09:26:48Z</time>
      </trkpt>
      <trkpt lat="36.182141" lon="-5.998923">
        <ele>25.25</ele>
        <time>2015-06-19T09:26:51Z</time>
      </trkpt>
      <trkpt lat="36.182143" lon="-5.998910">
        <ele>25.27</ele>
        <time>2015-06-19T09:26:52Z</time>
      </trkpt>
      <trkpt lat="36.182118" lon="-5.998866">
        <ele>25.24</ele>
        <time>2015-06-19T09:26:58Z</time>
      </trkpt>
      <trkpt lat="36.182120" lon="-5.998809">
        <ele>25.30</ele>
        <time>2015-06-19T09:27:05Z</time>
      </trkpt>
      <trkpt lat="36.182119" lon="-5.998766">
        <ele>25.23</ele>
        <time>2015-06-19T09:27:12Z</time>
      </trkpt>
      <trkpt lat="36.182128" lon="-5.998745">
        <ele>25.68</ele>
        <time>2015-06-19T09:27:17Z</time>
      </trkpt>
      <trkpt lat="36.182134" lon="-5.998737">
        <ele>26.02</ele>
        <time>2015-06-19T09:27:18Z</time>
      </trkpt>
      <trkpt lat="36.182135" lon="-5.998730">
        <ele>26.48</ele>
        <time>2015-06-19T09:27:19Z</time>
      </trkpt>
      <trkpt lat="36.182134" lon="-5.998730">
        <ele>26.81</ele>
        <time>2015-06-19T09:27:20Z</time>
      </trkpt>
      <trkpt lat="36.182133" lon="-5.998725">
        <ele>27.21</ele>
        <time>2015-06-19T09:27:21Z</time>
      </trkpt>
      <trkpt lat="36.182129" lon="-5.998704">
        <ele>27.22</ele>
        <time>2015-06-19T09:27:26Z</time>
      </trkpt>
      <trkpt lat="36.182126" lon="-5.998682">
        <ele>27.26</ele>
        <time>2015-06-19T09:27:32Z</time>
      </trkpt>
      <trkpt lat="36.182132" lon="-5.998653">
        <ele>27.23</ele>
        <time>2015-06-19T09:27:37Z</time>
      </trkpt>
      <trkpt lat="36.182132" lon="-5.998653">
        <ele>27.25</ele>
        <time>2015-06-19T09:27:43Z</time>
      </trkpt>
      <trkpt lat="36.182139" lon="-5.998606">
        <ele>27.66</ele>
        <time>2015-06-19T09:27:49Z</time>
      </trkpt>
      <trkpt lat="36.182140" lon="-5.998605">
        <ele>28.22</ele>
        <time>2015-06-19T09:27:50Z</time>
      </trkpt>
      <trkpt lat="36.182138" lon="-5.998600">
        <ele>28.65</ele>
        <time>2015-06-19T09:27:51Z</time>
      </trkpt>
      <trkpt lat="36.182135" lon="-5.998593">
        <ele>29.02</ele>
        <time>2015-06-19T09:27:52Z</time>
      </trkpt>
      <trkpt lat="36.182132" lon="-5.998588">
        <ele>29.44</ele>
        <time>2015-06-19T09:27:53Z</time>
      </trkpt>
      <trkpt lat="36.182125" lon="-5.998563">
        <ele>29.47</ele>
        <time>2015-06-19T09:27:57Z</time>
      </trkpt>
      <trkpt lat="36.182116" lon="-5.998565">
        <ele>29.42</ele>
        <time>2015-06-19T09:28:03Z</time>
      </trkpt>
      <trkpt lat="36.182124" lon="-5.998545">
        <ele>29.41</ele>
        <time>2015-06-19T09:28:09Z</time>
      </trkpt>
      <trkpt lat="36.182119" lon="-5.998496">
        <ele>29.41</ele>
        <time>2015-06-19T09:28:16Z</time>
      </trkpt>
      <trkpt lat="36.182113" lon="-5.998460">
        <ele>29.42</ele>
        <time>2015-06-19T09:28:22Z</time>
      </trkpt>
      <trkpt lat="36.182088" lon="-5.998429">
        <ele>29.44</ele>
        <time>2015-06-19T09:28:30Z</time>
      </trkpt>
      <trkpt lat="36.182086" lon="-5.998392">
        <ele>29.85</ele>
        <time>2015-06-19T09:28:37Z</time>
      </trkpt>
      <trkpt lat="36.182092" lon="-5.998385">
        <ele>30.29</ele>
        <time>2015-06-19T09:28:38Z</time>
      </trkpt>
      <trkpt lat="36.182097" lon="-5.998380">
        <ele>30.63</ele>
        <time>2015-06-19T09:28:39Z</time>
      </trkpt>
      <trkpt lat="36.182095" lon="-5.998379">
        <ele>31.08</ele>
        <time>2015-06-19T09:28:40Z</time>
      </trkpt>
      <trkpt lat="36.182095" lon="-5.998379">
        <ele>31.44</ele>
        <time>2015-06-19T09:28:41Z</time>
      </trkpt>
      <trkpt lat="36.182095" lon="-5.998376">
        <ele>31.49</ele>
        <time>2015-06-19T09:28:44Z</time>
      </trkpt>
      <trkpt lat="36.182101" lon="-5.998370">
        <ele>31.46</ele>
        <time>2015-06-19T09:28:48Z</time>
      </trkpt>
      <trkpt lat="36.182102" lon="-5.998360">
        <ele>31.42</ele>
        <time>2015-06-19T09:28:50Z</time>
      </trkpt>
      <trkpt lat="36.182116" lon="-5.998324">
        <ele>31.81</ele>
        <time>2015-06-19T09:28:58Z</time>
      </trkpt>
      <trkpt lat="36.182125" lon="-5.998323">
        <ele>32.23</ele>
        <time>2015-06-19T09:28:59Z</time>
      </trkpt>
      <trkpt lat="36.182129" lon="-5.998321">
        <ele>32.63</ele>
        <time>2015-06-19T09:29:00Z</time>
      </trkpt>
      <trkpt lat="36.182133" lon="-5.998318">
        <ele>33.02</ele>
        <time>2015-06-19T09:29:01Z</time>
      </trkpt>
      <trkpt lat="36.182133" lon="-5.998318">
        <ele>33.46</ele>
        <time>2015-06-19T09:29:02Z</time>
      </trkpt>
      <trkpt lat="36.182133" lon="-5.998318">
        <ele>33.45</ele>
        <time>2015-06-19T09:29:04Z</time>
      </trkpt>
      <trkpt lat="36.182165" lon="-5.998306">
        <ele>33.48</ele>
        <time>2015-06-19T09:29:11Z</time>
      </trkpt>
      <trkpt lat="36.182197" lon="-5.998303">
        <ele>33.44</ele>
        <time>2015-06-19T09:29:19Z</time>
      </trkpt>
      <trkpt lat="36.182211" lon="-5.998304">
        <ele>34.06</ele>
        <time>2015-06-19T09:29:25Z</time>
      </trkpt>
      <trkpt lat="36.182211" lon="-5.998304">
        <ele>34.47</ele>
        <time>2015-06-19T09:29:26Z</time>
      </trkpt>
      <trkpt lat="36.182211" lon="-5.998304">
        <ele>34.87</ele>
        <time>2015-06-19T09:29:27Z</time>
      </trkpt>
      <trkpt lat="36.182211" lon="-5.998304">
        <ele>35.21</ele>
        <time>2015-06-19T09:29:28Z</time>
      </trkpt>
      <trkpt lat="36.182211" lon="-5.998304">
        <ele>35.61</ele>
        <time>2015-06-19T09:29:29Z</time>
      </trkpt>
      <trkpt lat="36.182211" lon="-5.998304">
        <ele>35.68</ele>
        <time>2015-06-19T09:29:35Z</time>
      </trkpt>
      <trkpt lat="36.182222" lon="-5.998280">
        <ele>35.68</ele>
        <time>2015-06-19T09:29:40Z</time>
      </trkpt>
      <trkpt lat="36.182239" lon="-5.998245">
        <ele>35.69</ele>
        <time>2015-06-19T09:29:48Z</time>
      </trkpt>
      <trkpt lat="36.182245" lon="-5.998226">
        <ele>35.63</ele>
        <time>2015-06-19T09:29:55Z</time>
      </trkpt>
      <trkpt lat="36.182260" lon="-5.998203">
        <ele>35.69</ele>
        <time>2015-06-19T09:30:04Z</time>
      </trkpt>
      <trkpt lat="36.182257" lon="-5.998201">
        <ele>36.04</ele>
        <time>2015-06-19T09:30:05Z</time>
      </trkpt>
      <trkpt lat="36.182257" lon="-5.998201">
        <ele>36.87</ele>
        <time>2015-06-19T09:30:06Z</time>
      </trkpt>
      <trkpt lat="36.182257" lon="-5.998201">
        <ele>37.28</ele>
        <time>2015-06-19T09:30:07Z</time>
      </trkpt>
      <trkpt lat="36.182264" lon="-5.998194">
        <ele>37.62</ele>
        <time>2015-06-19T09:30:08Z</time>
      </trkpt>
      <trkpt lat="36.182268" lon="-5.998188">
        <ele>37.68</ele>
        <time>2015-06-19T09:30:10Z</time>
      </trkpt>
      <trkpt lat="36.182267" lon="-5.998170">
        <ele>37.61</ele>
        <time>2015-06-19T09:30:19Z</time>
      </trkpt>
      <trkpt lat="36.182273" lon="-5.998156">
        <ele>37.61</ele>
        <time>2015-06-19T09:30:24Z</time>
      </trkpt>
      <trkpt lat="36.182273" lon="-5.998156">
        <ele>38.01</ele>
        <time>2015-06-19T09:30:25Z</time>
      </trkpt>
      <trkpt lat="36.182274" lon="-5.998150">
        <ele>38.62</ele>
        <time>2015-06-19T09:30:26Z</time>
      </trkpt>
      <trkpt lat="36.182273" lon="-5.998143">
        <ele>39.03</ele>
        <time>2015-06-19T09:30:27Z</time>
      </trkpt>
      <trkpt lat="36.182273" lon="-5.998143">
        <ele>39.45</ele>
        <time>2015-06-19T09:30:28Z</time>
      </trkpt>
      <trkpt lat="36.182273" lon="-5.998143">
        <ele>39.87</ele>
        <time>2015-06-19T09:30:29Z</time>
      </trkpt>
      <trkpt lat="36.182273" lon="-5.998143">
        <ele>39.86</ele>
        <time>2015-06-19T09:30:31Z</time>
      </trkpt>
      <trkpt lat="36.182271" lon="-5.998117">
        <ele>39.86</ele>
        <time>2015-06-19T09:30:37Z</time>
      </trkpt>
      <trkpt lat="36.182281" lon="-5.998084">
        <ele>39.81</ele>
        <time>2015-06-19T09:30:41Z</time>
      </trkpt>
      <trkpt lat="36.182252" lon="-5.998041">
        <ele>39.82</ele>
        <time>2015-06-19T09:30:47Z</time>
      </trkpt>
      <trkpt lat="36.182242" lon="-5.998020">
        <ele>39.80</ele>
        <time>2015-06-19T09:30:52Z</time>
      </trkpt>
      <trkpt lat="36.182222" lon="-5.997993">
        <ele>40.21</ele>
        <time>2015-06-19T09:30:59Z</time>
      </trkpt>
      <trkpt lat="36.182220" lon="-5.997986">
        <ele>40.61</ele>
        <time>2015-06-19T09:31:00Z</time>
      </trkpt>
      <trkpt lat="36.182221" lon="-5.997979">
        <ele>41.05</ele>
        <time>2015-06-19T09:31:01Z</time>
      </trkpt>
      <trkpt lat="36.182221" lon="-5.997974">
        <ele>41.62</ele>
        <time>2015-06-19T09:31:02Z</time>
      </trkpt>
      <trkpt lat="36.182221" lon="-5.997974">
        <ele>42.08</ele>
        <time>2015-06-19T09:31:03Z</time>
      </trkpt>
      <trkpt lat="36.182223" lon="-5.997952">
        <ele>42.05</ele>
        <time>2015-06-19T09:31:07Z</time>
      </trkpt>
      <trkpt lat="36.182269" lon="-5.997895">
        <ele>42.42</ele>
        <time>2015-06-19T09:31:15Z</time>
      </trkpt>
      <trkpt lat="36.182279" lon="-5.997888">
        <ele>42.83</ele>
        <time>2015-06-19T09:31:16Z</time>
      </trkpt>
      <trkpt lat="36.182278" lon="-5.997886">
        <ele>43.22</ele>
        <time>2015-06-19T09:31:17Z</time>
      </trkpt>
      <trkpt lat="36.182285" lon="-5.997882">
        <ele>43.66</ele>
        <time>2015-06-19T09:31:18Z</time>
      </trkpt>
      <trkpt lat="36.182286" lon="-5.997875">
        <ele>44.03</ele>
        <time>2015-06-19T09:31:19Z</time>
      </trkpt>
      <trkpt lat="36.182287" lon="-5.997869">
        <ele>44.09</ele>
        <time>2015-06-19T09:31:24Z</time>
      </trkpt>
      <trkpt lat="36.182288" lon="-5.997863">
        <ele>44.02</ele>
        <time>2015-06-19T09:31:39Z</time>
      </trkpt>
      <trkpt lat="36.182271" lon="-5.997838">
        <ele>44.01</ele>
        <time>2015-06-19T09:31:45Z</time>
      </trkpt>
      <trkpt lat="36.182271" lon="-5.997838">
        <ele>44.02</ele>
        <time>2015-06-19T09:31:48Z</time>
      </trkpt>
      <trkpt lat="36.182281" lon="-5.997779">
        <ele>44.48</ele>
        <time>2015-06-19T09:31:55Z</time>
      </trkpt>
      <trkpt lat="36.182284" lon="-5.997770">
        <ele>44.84</ele>
        <time>2015-06-19T09:31:56Z</time>
      </trkpt>
      <trkpt lat="36.182285" lon="-5.997762">
        <ele>45.28</ele>
        <time>2015-06-19T09:31:57Z</time>
      </trkpt>
      <trkpt lat="36.182278" lon="-5.997757">
        <ele>45.64</ele>
        <time>2015-06-19T09:31:58Z</time>
      </trkpt>
      <trkpt lat="36.182271" lon="-5.997752">
        <ele>46.22</ele>
        <time>2015-06-19T09:31:59Z</time>
      </trkpt>
      <trkpt lat="36.182269" lon="-5.997730">
        <ele>46.21</ele>
        <time>2015-06-19T09:32:03Z</time>
      </trkpt>
      <trkpt lat="36.182256" lon="-5.997709">
        <ele>46.26</ele>
        <time>2015-06-19T09:32:11Z</time>
      </trkpt>
      <trkpt lat="36.182256" lon="-5.997709">
        <ele>46.64</ele>
        <time>2015-06-19T09:32:15Z</time>
      </trkpt>
      <trkpt lat="36.182256" lon="-5.997709">
        <ele>47.01</ele>
        <time>2015-06-19T09:32:16Z</time>
      </trkpt>
      <trkpt lat="36.182256" lon="-5.997698">
        <ele>47.41</ele>
        <time>2015-06-19T09:32:17Z</time>
      </trkpt>
      <trkpt lat="36.182261" lon="-5.997688">
        <ele>47.81</ele>
        <time>2015-06-19T09:32:18Z</time>
      </trkpt>
      <trkpt lat="36.182264" lon="-5.997679">
        <ele>48.23</ele>
        <time>2015-06-19T09:32:19Z</time>
      </trkpt>
      <trkpt lat="36.182268" lon="-5.997671">
        <ele>48.25</ele>
        <time>2015-06-19T09:32:21Z</time>
      </trkpt>
      <trkpt lat="36.182277" lon="-5.997624">
        <ele>48.23</ele>
        <time>2015-06-19T09:32:29Z</time>
      </trkpt>
      <trkpt lat="36.182254" lon="-5.997618">
        <ele>48.21</ele>
        <time>2015-06-19T09:32:38Z</time>
      </trkpt>
      <trkpt lat="36.182254" lon="-5.997618">
        <ele>48.28</ele>
        <time>2015-06-19T09:32:40Z</time>
      </trkpt>
      <trkpt lat="36.182254" lon="-5.997618">
        <ele>48.24</ele>
        <time>2015-06-19T09:32:47Z</time>
      </trkpt>
      <trkpt lat="36.182254" lon="-5.997618">
        <ele>48.21</ele>
        <time>2015-06-19T09:32:52Z</time>
      </trkpt>
      <trkpt lat="36.182250" lon="-5.997583">
        <ele>48.67</ele>
        <time>2015-06-19T09:32:57Z</time>
      </trkpt>
      <trkpt lat="36.182249" lon="-5.997578">
        <ele>49.08</ele>
        <time>2015-06-19T09:32:58Z</time>
      </trkpt>
      <trkpt lat="36.182251" lon="-5.997571">
        <ele>49.83</ele>
        <time>2015-06-19T09:32:59Z</time>
      </trkpt>
      <trkpt lat="36.182249" lon="-5.997565">
        <ele>50.22</ele>
        <time>2015-06-19T09:33:00Z</time>
      </trkpt>
      <trkpt lat="36.182249" lon="-5.997565">
        <ele>50.21</ele>
        <time>2015-06-19T09:33:10Z</time>
      </trkpt>
      <trkpt lat="36.182257" lon="-5.997554">
        <ele>50.69</ele>
        <time>2015-06-19T09:33:15Z</time>
      </trkpt>
      <trkpt lat="36.182257" lon="-5.997554">
        <ele>51.03</ele>
        <time>2015-06-19T09:33:16Z</time>
      </trkpt>
      <trkpt lat="36.182257" lon="-5.997554">
        <ele>51.66</ele>
        <time>2015-06-19T09:33:17Z</time>
      </trkpt>
      <trkpt lat="36.182258" lon="-5.997551">
        <ele>52.04</ele>
        <time>2015-06-19T09:33:18Z</time>
      </trkpt>
      <trkpt lat="36.182258" lon="-5.997551">
        <ele>52.48</ele>
        <time>2015-06-19T09:33:19Z</time>
      </trkpt>
      <trkpt lat="36.182249" lon="-5.997515">
        <ele>52.41</ele>
        <time>2015-06-19T09:33:25Z</time>
      </trkpt>
      <trkpt lat="36.182270" lon="-5.997430">
        <ele>52.43</ele>
        <time>2015-06-19T09:33:34Z</time>
      </trkpt>
      <trkpt lat="36.182273" lon="-5.997428">
        <ele>52.43</ele>
        <time>2015-06-19T09:33:43Z</time>
      </trkpt>
      <trkpt lat="36.182273" lon="-5.997421">
        <ele>52.45</ele>
        <time>2015-06-19T09:33:54Z</time>
      </trkpt>
      <trkpt lat="36.182276" lon="-5.997411">
        <ele>52.80</ele>
        <time>2015-06-19T09:33:57Z</time>
      </trkpt>
      <trkpt lat="36.182279" lon="-5.997406">
        <ele>53.21</ele>
        <time>2015-06-19T09:33:58Z</time>
      </trkpt>
      <trkpt lat="36.182279" lon="-5.997406">
        <ele>53.61</ele>
        <time>2015-06-19T09:33:59Z</time>
      </trkpt>
      <trkpt lat="36.182279" lon="-5.997406">
        <ele>54.03</ele>
        <time>2015-06-19T09:34:00Z</time>
      </trkpt>
      <trkpt lat="36.182277" lon="-5.997402">
        <ele>54.46</ele>
        <time>2015-06-19T09:34:01Z</time>
      </trkpt>
      <trkpt lat="36.182277" lon="-5.997402">
        <ele>54.50</ele>
        <time>2015-06-19T09:34:03Z</time>
      </trkpt>
      <trkpt lat="36.182280" lon="-5.997393">
        <ele>54.48</ele>
        <time>2015-06-19T09:34:10Z</time>
      </trkpt>
      <trkpt lat="36.182281" lon="-5.997390">
        <ele>54.43</ele>
        <time>2015-06-19T09:34:11Z</time>
      </trkpt>
      <trkpt lat="36.182283" lon="-5.997379">
        <ele>54.45</ele>
        <time>2015-06-19T09:34:16Z</time>
      </trkpt>
      <trkpt lat="36.182278" lon="-5.997373">
        <ele>54.44</ele>
        <time>2015-06-19T09:34:19Z</time>
      </trkpt>
      <trkpt lat="36.182278" lon="-5.997361">
        <ele>54.83</ele>
        <time>2015-06-19T09:34:21Z</time>
      </trkpt>
      <trkpt lat="36.182275" lon="-5.997355">
        <ele>55.26</ele>
        <time>2015-06-19T09:34:22Z</time>
      </trkpt>
      <trkpt lat="36.182268" lon="-5.997346">
        <ele>55.60</ele>
        <time>2015-06-19T09:34:23Z</time>
      </trkpt>
      <trkpt lat="36.182262" lon="-5.997341">
        <ele>56.02</ele>
        <time>2015-06-19T09:34:24Z</time>
      </trkpt>
      <trkpt lat="36.182254" lon="-5.997329">
        <ele>56.41</ele>
        <time>2015-06-19T09:34:25Z</time>
      </trkpt>
      <trkpt lat="36.182252" lon="-5.997324">
        <ele>56.49</ele>
        <time>2015-06-19T09:34:27Z</time>
      </trkpt>
      <trkpt lat="36.182252" lon="-5.997324">
        <ele>56.42</ele>
        <time>2015-06-19T09:34:28Z</time>
      </trkpt>
      <trkpt lat="36.182258" lon="-5.997263">
        <ele>56.45</ele>
        <time>2015-06-19T09:34:36Z</time>
      </trkpt>
      <trkpt lat="36.182264" lon="-5.997212">
        <ele>56.45</ele>
        <time>2015-06-19T09:34:44Z</time>
      </trkpt>
      <trkpt lat="36.182224" lon="-5.997164">
        <ele>56.42</ele>
        <time>2015-06-19T09:34:52Z</time>
      </trkpt>
      <trkpt lat="36.182222" lon="-5.997127">
        <ele>56.85</ele>
        <time>2015-06-19T09:34:59Z</time>
      </trkpt>
      <trkpt lat="36.182218" lon="-5.997123">
        <ele>57.28</ele>
        <time>2015-06-19T09:35:00Z</time>
      </trkpt>
      <trkpt lat="36.182212" lon="-5.997116">
        <ele>57.62</ele>
        <time>2015-06-19T09:35:01Z</time>
      </trkpt>
      <trkpt lat="36.182209" lon="-5.997112">
        <ele>58.02</ele>
        <time>2015-06-19T09:35:02Z</time>
      </trkpt>
      <trkpt lat="36.182206" lon="-5.997108">
        <ele>58.50</ele>
        <time>2015-06-19T09:35:03Z</time>
      </trkpt>
      <trkpt lat="36.182196" lon="-5.997099">
        <ele>58.42</ele>
        <time>2015-06-19T09:35:09Z</time>
      </trkpt>
      <trkpt lat="36.182185" lon="-5.997071">
        <ele>58.41</ele>
        <time>2015-06-19T09:35:19Z</time>
      </trkpt>
      <trkpt lat="36.182154" lon="-5.997028">
        <ele>58.48</ele>
        <time>2015-06-19T09:35:26Z</time>
      </trkpt>
      <trkpt lat="36.182154" lon="-5.997028">
        <ele>58.82</ele>
        <time>2015-06-19T09:35:30Z</time>
      </trkpt>
      <trkpt lat="36.182154" lon="-5.997028">
        <ele>59.49</ele>
        <time>2015-06-19T09:35:31Z</time>
      </trkpt>
      <trkpt lat="36.182154" lon="-5.997028">
        <ele>59.88</ele>
        <time>2015-06-19T09:35:32Z</time>
      </trkpt>
      <trkpt lat="36.182154" lon="-5.997028">
        <ele>60.26</ele>
        <time>2015-06-19T09:35:33Z</time>
      </trkpt>
      <trkpt lat="36.182151" lon="-5.997023">
        <ele>60.69</ele>
        <time>2015-06-19T09:35:34Z</time>
      </trkpt>
      <trkpt lat="36.182142" lon="-5.997011">
        <ele>60.69</ele>
        <time>2015-06-19T09:35:40Z</time>
      </trkpt>
      <trkpt lat="36.182134" lon="-5.996977">
        <ele>60.67</ele>
        <time>2015-06-19T09:35:48Z</time>
      </trkpt>
      <trkpt lat="36.182119" lon="-5.996948">
        <ele>61.10</ele>
        <time>2015-06-19T09:35:52Z</time>
      </trkpt>
      <trkpt lat="36.182119" lon="-5.996948">
        <ele>61.41</ele>
        <time>2015-06-19T09:35:53Z</time>
      </trkpt>
      <trkpt lat="36.182119" lon="-5.996948">
        <ele>61.83</ele>
        <time>2015-06-19T09:35:54Z</time>
      </trkpt>
      <trkpt lat="36.182119" lon="-5.996948">
        <ele>62.21</ele>
        <time>2015-06-19T09:35:55Z</time>
      </trkpt>
      <trkpt lat="36.182119" lon="-5.996934">
        <ele>62.66</ele>
        <time>2015-06-19T09:35:56Z</time>
      </trkpt>
      <trkpt lat="36.182118" lon="-5.996922">
        <ele>62.64</ele>
        <time>2015-06-19T09:35:57Z</time>
      </trkpt>
      <trkpt lat="36.182079" lon="-5.996851">
        <ele>62.65</ele>
        <time>2015-06-19T09:36:06Z</time>
      </trkpt>
      <trkpt lat="36.182062" lon="-5.996801">
        <ele>62.67</ele>
        <time>2015-06-19T09:36:14Z</time>
      </trkpt>
      <trkpt lat="36.182075" lon="-5.996715">
        <ele>62.69</ele>
        <time>2015-06-19T09:36:22Z</time>
      </trkpt>
      <trkpt lat="36.182069" lon="-5.996697">
        <ele>62.65</ele>
        <time>2015-06-19T09:36:28Z</time>
      </trkpt>
      <trkpt lat="36.182058" lon="-5.996687">
        <ele>63.06</ele>
        <time>2015-06-19T09:36:34Z</time>
      </trkpt>
      <trkpt lat="36.182048" lon="-5.996686">
        <ele>63.46</ele>
        <time>2015-06-19T09:36:35Z</time>
      </trkpt>
      <trkpt lat="36.182048" lon="-5.996686">
        <ele>63.89</ele>
        <time>2015-06-19T09:36:36Z</time>
      </trkpt>
      <trkpt lat="36.182048" lon="-5.996686">
        <ele>64.22</ele>
        <time>2015-06-19T09:36:37Z</time>
      </trkpt>
      <trkpt lat="36.182037" lon="-5.996687">
        <ele>64.63</ele>
        <time>2015-06-19T09:36:38Z</time>
      </trkpt>
      <trkpt lat="36.182031" lon="-5.996684">
        <ele>64.61</ele>
        <time>2015-06-19T09:36:43Z</time>
      </trkpt>
      <trkpt lat="36.182031" lon="-5.996684">
        <ele>64.69</ele>
        <time>2015-06-19T09:36:51Z</time>
      </trkpt>
      <trkpt lat="36.182031" lon="-5.996684">
        <ele>64.66</ele>
        <time>2015-06-19T09:37:02Z</time>
      </trkpt>
      <trkpt lat="36.181951" lon="-5.996660">
        <ele>64.68</ele>
        <time>2015-06-19T09:37:07Z</time>
      </trkpt>
      <trkpt lat="36.181942" lon="-5.996657">
        <ele>64.64</ele>
        <time>2015-06-19T09:37:08Z</time>
      </trkpt>
      <trkpt lat="36.181910" lon="-5.996643">
        <ele>64.64</ele>
        <time>2015-06-19T09:37:15Z</time>
      </trkpt>
      <trkpt lat="36.181893" lon="-5.996628">
        <ele>64.66</ele>
        <time>2015-06-19T09:37:18Z</time>
      </trkpt>
      <trkpt lat="36.181890" lon="-5.996623">
        <ele>64.68</ele>
        <time>2015-06-19T09:37:23Z</time>
      </trkpt>
      <trkpt lat="36.181882" lon="-5.996599">
        <ele>64.61</ele>
        <time>2015-06-19T09:37:30Z</time>
      </trkpt>
      <trkpt lat="36.181873" lon="-5.996558">
        <ele>64.68</ele>
        <time>2015-06-19T09:37:37Z</time>
      </trkpt>
      <trkpt lat="36.181871" lon="-5.996554">
        <ele>64.63</ele>
        <time>2015-06-19T09:37:38Z</time>
      </trkpt>
      <trkpt lat="36.181858" lon="-5.996542">
        <ele>64.63</ele>
        <time>2015-06-19T09:37:46Z</time>
      </trkpt>
      <trkpt lat="36.181817" lon="-5.996516">
        <ele>64.61</ele>
        <time>2015-06-19T09:37:52Z</time>
      </trkpt>
      <trkpt lat="36.181786" lon="-5.996487">
        <ele>64.69</ele>
        <time>2015-06-19T09:37:57Z</time>
      </trkpt>
      <trkpt lat="36.181787" lon="-5.996473">
        <ele>64.61</ele>
        <time>2015-06-19T09:38:03Z</time>
      </trkpt>
      <trkpt lat="36.181787" lon="-5.996473">
        <ele>64.67</ele>
        <time>2015-06-19T09:38:04Z</time>
      </trkpt>
      <trkpt lat="36.181778" lon="-5.996440">
        <ele>64.68</ele>
        <time>2015-06-19T09:38:11Z</time>
      </trkpt>
      <trkpt lat="36.181757" lon="-5.996414">
        <ele>64.68</ele>
        <time>2015-06-19T09:38:18Z</time>
      </trkpt>
      <trkpt lat="36.181742" lon="-5.996394">
        <ele>64.61</ele>
        <time>2015-06-19T09:38:24Z</time>
      </trkpt>
      <trkpt lat="36.181731" lon="-5.996391">
        <ele>64.68</ele>
        <time>2015-06-19T09:38:32Z</time>
      </trkpt>
      <trkpt lat="36.181727" lon="-5.996365">
        <ele>64.61</ele>
        <time>2015-06-19T09:38:39Z</time>
      </trkpt>
      <trkpt lat="36.181729" lon="-5.996365">
        <ele>64.61</ele>
        <time>2015-06-19T09:38:45Z</time>
      </trkpt>
      <trkpt lat="36.181729" lon="-5.996365">
        <ele>64.63</ele>
        <time>2015-06-19T09:38:50Z</time>
      </trkpt>
      <trkpt lat="36.181729" lon="-5.996366">
        <ele>64.61</ele>
        <time>2015-06-19T09:38:53Z</time>
      </trkpt>
      <trkpt lat="36.181748" lon="-5.996366">
        <ele>64.61</ele>
        <time>2015-06-19T09:39:01Z</time>
      </trkpt>
      <trkpt lat="36.181774" lon="-5.996368">
        <ele>64.66</ele>
        <time>2015-06-19T09:39:08Z</time>
      </trkpt>
      <trkpt lat="36.181800" lon="-5.996363">
        <ele>64.66</ele>
        <time>2015-06-19T09:39:15Z</time>
      </trkpt>
      <trkpt lat="36.181803" lon="-5.996370">
        <ele>65.09</ele>
        <time>2015-06-19T09:39:16Z</time>
      </trkpt>
      <trkpt lat="36.181805" lon="-5.996373">
        <ele>65.68</ele>
        <time>2015-06-19T09:39:17Z</time>
      </trkpt>
      <trkpt lat="36.181805" lon="-5.996373">
        <ele>66.08</ele>
        <time>2015-06-19T09:39:18Z</time>
      </trkpt>
      <trkpt lat="36.181805" lon="-5.996373">
        <ele>66.43</ele>
        <time>2015-06-19T09:39:19Z</time>
      </trkpt>
      <trkpt lat="36.181805" lon="-5.996373">
        <ele>66.86</ele>
        <time>2015-06-19T09:39:20Z</time>
      </trkpt>
      <trkpt lat="36.181805" lon="-5.996373">
        <ele>66.84</ele>
        <time>2015-06-19T09:39:22Z</time>
      </trkpt>
      <trkpt lat="36.181807" lon="-5.996312">
        <ele>66.89</ele>
        <time>2015-06-19T09:39:29Z</time>
      </trkpt>
      <trkpt lat="36.181795" lon="-5.996266">
        <ele>67.29</ele>
        <time>2015-06-19T09:39:38Z</time>
      </trkpt>
      <trkpt lat="36.181790" lon="-5.996262">
        <ele>67.62</ele>
        <time>2015-06-19T09:39:39Z</time>
      </trkpt>
      <trkpt lat="36.181785" lon="-5.996258">
        <ele>68.01</ele>
        <time>2015-06-19T09:39:40Z</time>
      </trkpt>
      <trkpt lat="36.181779" lon="-5.996255">
        <ele>68.48</ele>
        <time>2015-06-19T09:39:41Z</time>
      </trkpt>
      <trkpt lat="36.181771" lon="-5.996255">
        <ele>68.89</ele>
        <time>2015-06-19T09:39:42Z</time>
      </trkpt>
      <trkpt lat="36.181771" lon="-5.996255">
        <ele>68.83</ele>
        <time>2015-06-19T09:39:45Z</time>
      </trkpt>
      <trkpt lat="36.181761" lon="-5.996176">
        <ele>68.82</ele>
        <time>2015-06-19T09:39:53Z</time>
      </trkpt>
      <trkpt lat="36.181757" lon="-5.996124">
        <ele>69.28</ele>
        <time>2015-06-19T09:39:58Z</time>
      </trkpt>
      <trkpt lat="36.181753" lon="-5.996117">
        <ele>70.04</ele>
        <time>2015-06-19T09:39:59Z</time>
      </trkpt>
      <trkpt lat="36.181760" lon="-5.996103">
        <ele>70.50</ele>
        <time>2015-06-19T09:40:00Z</time>
      </trkpt>
      <trkpt lat="36.181755" lon="-5.996098">
        <ele>70.87</ele>
        <time>2015-06-19T09:40:01Z</time>
      </trkpt>
      <trkpt lat="36.181751" lon="-5.996078">
        <ele>70.89</ele>
        <time>2015-06-19T09:40:07Z</time>
      </trkpt>
      <trkpt lat="36.181751" lon="-5.996078">
        <ele>70.82</ele>
        <time>2015-06-19T09:40:20Z</time>
      </trkpt>
      <trkpt lat="36.181751" lon="-5.996078">
        <ele>70.83</ele>
        <time>2015-06-19T09:40:27Z</time>
      </trkpt>
      <trkpt lat="36.181751" lon="-5.996078">
        <ele>70.81</ele>
        <time>2015-06-19T09:40:33Z</time>
      </trkpt>
      <trkpt lat="36.181751" lon="-5.996078">
        <ele>70.87</ele>
        <time>2015-06-19T09:40:45Z</time>
      </trkpt>
      <trkpt lat="36.181749" lon="-5.996078">
        <ele>70.86</ele>
        <time>2015-06-19T09:40:46Z</time>
      </trkpt>
      <trkpt lat="36.181749" lon="-5.996078">
        <ele>70.87</ele>
        <time>2015-06-19T09:40:52Z</time>
      </trkpt>
      <trkpt lat="36.181749" lon="-5.996078">
        <ele>70.82</ele>
        <time>2015-06-19T09:40:57Z</time>
      </trkpt>
      <trkpt lat="36.181749" lon="-5.996078">
        <ele>70.88</ele>
        <time>2015-06-19T09:40:59Z</time>
      </trkpt>
      <trkpt lat="36.181749" lon="-5.996078">
        <ele>70.81</ele>
        <time>2015-06-19T09:41:07Z</time>
      </trkpt>
      <trkpt lat="36.181749" lon="-5.996078">
        <ele>70.89</ele>
        <time>2015-06-19T09:41:13Z</time>
      </trkpt>
      <trkpt lat="36.181746" lon="-5.996077">
        <ele>70.84</ele>
        <time>2015-06-19T09:41:26Z</time>
      </trkpt>
      <trkpt lat="36.181746" lon="-5.996077">
        <ele>70.86</ele>
        <time>2015-06-19T09:41:38Z</time>
      </trkpt>
      <trkpt lat="36.181746" lon="-5.996077">
        <ele>70.86</ele>
        <time>2015-06-19T09:41:52Z</time>
      </trkpt>
      <trkpt lat="36.181746" lon="-5.996077">
        <ele>70.81</ele>
        <time>2015-06-19T09:42:00Z</time>
      </trkpt>
      <trkpt lat="36.181746" lon="-5.996077">
        <ele>70.81</ele>
        <time>2015-06-19T09:42:03Z</time>
      </trkpt>
      <trkpt lat="36.181743" lon="-5.996078">
        <ele>70.82</ele>
        <time>2015-06-19T09:42:15Z</time>
      </trkpt>
      <trkpt lat="36.181743" lon="-5.996078">
        <ele>70.88</ele>
        <time>2015-06-19T09:42:20Z</time>
      </trkpt>
      <trkpt lat="36.181741" lon="-5.996058">
        <ele>70.90</ele>
        <time>2015-06-19T09:42:28Z</time>
      </trkpt>
      <trkpt lat="36.181742" lon="-5.996025">
        <ele>70.83</ele>
        <time>2015-06-19T09:42:31Z</time>
      </trkpt>
      <trkpt lat="36.181738" lon="-5.996021">
        <ele>70.90</ele>
        <time>2015-06-19T09:42:32Z</time>
      </trkpt>
      <trkpt lat="36.181719" lon="-5.996009">
        <ele>70.84</ele>
        <time>2015-06-19T09:42:35Z</time>
      </trkpt>
      <trkpt lat="36.181667" lon="-5.995950">
        <ele>70.89</ele>
        <time>2015-06-19T09:42:41Z</time>
      </trkpt>
      <trkpt lat="36.181660" lon="-5.995927">
        <ele>70.87</ele>
        <time>2015-06-19T09:42:43Z</time>
      </trkpt>
      <trkpt lat="36.181641" lon="-5.995864">
        <ele>70.88</ele>
        <time>2015-06-19T09:42:51Z</time>
      </trkpt>
      <trkpt lat="36.181626" lon="-5.995837">
        <ele>70.83</ele>
        <time>2015-06-19T09:42:57Z</time>
      </trkpt>
      <trkpt lat="36.181620" lon="-5.995822">
        <ele>70.82</ele>
        <time>2015-06-19T09:43:04Z</time>
      </trkpt>
      <trkpt lat="36.181620" lon="-5.995822">
        <ele>70.81</ele>
        <time>2015-06-19T09:43:11Z</time>
      </trkpt>
      <trkpt lat="36.181620" lon="-5.995822">
        <ele>70.88</ele>
        <time>2015-06-19T09:43:17Z</time>
      </trkpt>
      <trkpt lat="36.181620" lon="-5.995822">
        <ele>70.86</ele>
        <time>2015-06-19T09:43:31Z</time>
      </trkpt>
      <trkpt lat="36.181619" lon="-5.995822">
        <ele>70.86</ele>
        <time>2015-06-19T09:43:41Z</time>
      </trkpt>
      <trkpt lat="36.181615" lon="-5.995795">
        <ele>70.84</ele>
        <time>2015-06-19T09:43:44Z</time>
      </trkpt>
      <trkpt lat="36.181603" lon="-5.995748">
        <ele>70.81</ele>
        <time>2015-06-19T09:43:48Z</time>
      </trkpt>
      <trkpt lat="36.181598" lon="-5.995738">
        <ele>70.88</ele>
        <time>2015-06-19T09:43:49Z</time>
      </trkpt>
      <trkpt lat="36.181596" lon="-5.995723">
        <ele>70.83</ele>
        <time>2015-06-19T09:43:51Z</time>
      </trkpt>
      <trkpt lat="36.181597" lon="-5.995708">
        <ele>70.87</ele>
        <time>2015-06-19T09:43:53Z</time>
      </trkpt>
      <trkpt lat="36.181614" lon="-5.995664">
        <ele>71.24</ele>
        <time>2015-06-19T09:43:58Z</time>
      </trkpt>
      <trkpt lat="36.181617" lon="-5.995662">
        <ele>71.68</ele>
        <time>2015-06-19T09:43:59Z</time>
      </trkpt>
      <trkpt lat="36.181616" lon="-5.995662">
        <ele>72.01</ele>
        <time>2015-06-19T09:44:00Z</time>
      </trkpt>
      <trkpt lat="36.181616" lon="-5.995662">
        <ele>72.41</ele>
        <time>2015-06-19T09:44:01Z</time>
      </trkpt>
      <trkpt lat="36.181615" lon="-5.995658">
        <ele>72.81</ele>
        <time>2015-06-19T09:44:02Z</time>
      </trkpt>
      <trkpt lat="36.181614" lon="-5.995655">
        <ele>72.89</ele>
        <time>2015-06-19T09:44:05Z</time>
      </trkpt>
      <trkpt lat="36.181614" lon="-5.995644">
        <ele>72.89</ele>
        <time>2015-06-19T09:44:07Z</time>
      </trkpt>
      <trkpt lat="36.181614" lon="-5.995636">
        <ele>72.87</ele>
        <time>2015-06-19T09:44:10Z</time>
      </trkpt>
      <trkpt lat="36.181614" lon="-5.995606">
        <ele>72.86</ele>
        <time>2015-06-19T09:44:13Z</time>
      </trkpt>
      <trkpt lat="36.181616" lon="-5.995558">
        <ele>72.86</ele>
        <time>2015-06-19T09:44:20Z</time>
      </trkpt>
      <trkpt lat="36.181619" lon="-5.995552">
        <ele>72.87</ele>
        <time>2015-06-19T09:44:21Z</time>
      </trkpt>
      <trkpt lat="36.181619" lon="-5.995552">
        <ele>73.29</ele>
        <time>2015-06-19T09:44:30Z</time>
      </trkpt>
      <trkpt lat="36.181619" lon="-5.995552">
        <ele>74.22</ele>
        <time>2015-06-19T09:44:31Z</time>
      </trkpt>
      <trkpt lat="36.181619" lon="-5.995552">
        <ele>74.63</ele>
        <time>2015-06-19T09:44:32Z</time>
      </trkpt>
      <trkpt lat="36.181619" lon="-5.995552">
        <ele>75.01</ele>
        <time>2015-06-19T09:44:33Z</time>
      </trkpt>
      <trkpt lat="36.181618" lon="-5.995533">
        <ele>75.01</ele>
        <time>2015-06-19T09:44:37Z</time>
      </trkpt>
      <trkpt lat="36.181622" lon="-5.995494">
        <ele>75.07</ele>
        <time>2015-06-19T09:44:41Z</time>
      </trkpt>
      <trkpt lat="36.181621" lon="-5.995468">
        <ele>75.06</ele>
        <time>2015-06-19T09:44:46Z</time>
      </trkpt>
      <trkpt lat="36.181624" lon="-5.995447">
        <ele>75.07</ele>
        <time>2015-06-19T09:44:48Z</time>
      </trkpt>
      <trkpt lat="36.181609" lon="-5.995395">
        <ele>75.05</ele>
        <time>2015-06-19T09:44:52Z</time>
      </trkpt>
      <trkpt lat="36.181595" lon="-5.995367">
        <ele>75.02</ele>
        <time>2015-06-19T09:44:54Z</time>
      </trkpt>
      <trkpt lat="36.181592" lon="-5.995351">
        <ele>75.09</ele>
        <time>2015-06-19T09:44:59Z</time>
      </trkpt>
      <trkpt lat="36.181534" lon="-5.995292">
        <ele>75.08</ele>
        <time>2015-06-19T09:45:06Z</time>
      </trkpt>
      <trkpt lat="36.181509" lon="-5.995236">
        <ele>75.08</ele>
        <time>2015-06-19T09:45:13Z</time>
      </trkpt>
      <trkpt lat="36.181509" lon="-5.995236">
        <ele>75.10</ele>
        <time>2015-06-19T09:45:20Z</time>
      </trkpt>
      <trkpt lat="36.181509" lon="-5.995236">
        <ele>75.03</ele>
        <time>2015-06-19T09:45:25Z</time>
      </trkpt>
      <trkpt lat="36.181505" lon="-5.995224">
        <ele>75.02</ele>
        <time>2015-06-19T09:45:30Z</time>
      </trkpt>
      <trkpt lat="36.181501" lon="-5.995217">
        <ele>75.01</ele>
        <time>2015-06-19T09:45:33Z</time>
      </trkpt>
      <trkpt lat="36.181496" lon="-5.995210">
        <ele>75.07</ele>
        <time>2015-06-19T09:45:36Z</time>
      </trkpt>
      <trkpt lat="36.181476" lon="-5.995171">
        <ele>75.10</ele>
        <time>2015-06-19T09:45:39Z</time>
      </trkpt>
      <trkpt lat="36.181471" lon="-5.995163">
        <ele>75.07</ele>
        <time>2015-06-19T09:45:40Z</time>
      </trkpt>
      <trkpt lat="36.181471" lon="-5.995163">
        <ele>75.07</ele>
        <time>2015-06-19T09:45:53Z</time>
      </trkpt>
      <trkpt lat="36.181465" lon="-5.995159">
        <ele>75.04</ele>
        <time>2015-06-19T09:46:07Z</time>
      </trkpt>
      <trkpt lat="36.181443" lon="-5.995145">
        <ele>75.02</ele>
        <time>2015-06-19T09:46:10Z</time>
      </trkpt>
      <trkpt lat="36.181430" lon="-5.995139">
        <ele>75.05</ele>
        <time>2015-06-19T09:46:11Z</time>
      </trkpt>
      <trkpt lat="36.181407" lon="-5.995114">
        <ele>75.02</ele>
        <time>2015-06-19T09:46:14Z</time>
      </trkpt>
      <trkpt lat="36.181391" lon="-5.995097">
        <ele>75.03</ele>
        <time>2015-06-19T09:46:16Z</time>
      </trkpt>
      <trkpt lat="36.181386" lon="-5.995086">
        <ele>75.02</ele>
        <time>2015-06-19T09:46:18Z</time>
      </trkpt>
      <trkpt lat="36.181386" lon="-5.995076">
        <ele>75.02</ele>
        <time>2015-06-19T09:46:24Z</time>
      </trkpt>
      <trkpt lat="36.181344" lon="-5.995035">
        <ele>75.01</ele>
        <time>2015-06-19T09:46:28Z</time>
      </trkpt>
      <trkpt lat="36.181338" lon="-5.995031">
        <ele>75.03</ele>
        <time>2015-06-19T09:46:31Z</time>
      </trkpt>
      <trkpt lat="36.181338" lon="-5.995031">
        <ele>75.86</ele>
        <time>2015-06-19T09:46:34Z</time>
      </trkpt>
      <trkpt lat="36.181338" lon="-5.995031">
        <ele>76.29</ele>
        <time>2015-06-19T09:46:35Z</time>
      </trkpt>
      <trkpt lat="36.181338" lon="-5.995031">
        <ele>76.63</ele>
        <time>2015-06-19T09:46:36Z</time>
      </trkpt>
      <trkpt lat="36.181338" lon="-5.995031">
        <ele>77.05</ele>
        <time>2015-06-19T09:46:37Z</time>
      </trkpt>
      <trkpt lat="36.181338" lon="-5.995031">
        <ele>77.02</ele>
        <time>2015-06-19T09:46:40Z</time>
      </trkpt>
      <trkpt lat="36.181338" lon="-5.995031">
        <ele>77.08</ele>
        <time>2015-06-19T09:46:43Z</time>
      </trkpt>
      <trkpt lat="36.181338" lon="-5.995031">
        <ele>77.05</ele>
        <time>2015-06-19T09:46:48Z</time>
      </trkpt>
      <trkpt lat="36.181339" lon="-5.995030">
        <ele>77.04</ele>
        <time>2015-06-19T09:46:52Z</time>
      </trkpt>
      <trkpt lat="36.181339" lon="-5.995030">
        <ele>77.05</ele>
        <time>2015-06-19T09:46:55Z</time>
      </trkpt>
      <trkpt lat="36.181340" lon="-5.995026">
        <ele>77.01</ele>
        <time>2015-06-19T09:47:06Z</time>
      </trkpt>
      <trkpt lat="36.181340" lon="-5.995026">
        <ele>77.01</ele>
        <time>2015-06-19T09:47:09Z</time>
      </trkpt>
      <trkpt lat="36.181340" lon="-5.995026">
        <ele>77.08</ele>
        <time>2015-06-19T09:47:13Z</time>
      </trkpt>
      <trkpt lat="36.181340" lon="-5.995026">
        <ele>77.05</ele>
        <time>2015-06-19T09:47:22Z</time>
      </trkpt>
      <trkpt lat="36.181340" lon="-5.995026">
        <ele>77.05</ele>
        <time>2015-06-19T09:47:26Z</time>
      </trkpt>
      <trkpt lat="36.181343" lon="-5.995024">
        <ele>77.07</ele>
        <time>2015-06-19T09:47:44Z</time>
      </trkpt>
      <trkpt lat="36.181343" lon="-5.995024">
        <ele>77.08</ele>
        <time>2015-06-19T09:48:00Z</time>
      </trkpt>
      <trkpt lat="36.181343" lon="-5.995024">
        <ele>77.07</ele>
        <time>2015-06-19T09:48:14Z</time>
      </trkpt>
      <trkpt lat="36.181344" lon="-5.995024">
        <ele>77.06</ele>
        <time>2015-06-19T09:48:27Z</time>
      </trkpt>
      <trkpt lat="36.181350" lon="-5.994965">
        <ele>77.04</ele>
        <time>2015-06-19T09:48:40Z</time>
      </trkpt>
      <trkpt lat="36.181350" lon="-5.994965">
        <ele>77.07</ele>
        <time>2015-06-19T09:48:50Z</time>
      </trkpt>
      <trkpt lat="36.181350" lon="-5.994965">
        <ele>77.08</ele>
        <time>2015-06-19T09:48:52Z</time>
      </trkpt>
      <trkpt lat="36.181350" lon="-5.994965">
        <ele>77.01</ele>
        <time>2015-06-19T09:49:10Z</time>
      </trkpt>
      <trkpt lat="36.181349" lon="-5.994968">
        <ele>77.01</ele>
        <time>2015-06-19T09:49:27Z</time>
      </trkpt>
      <trkpt lat="36.181349" lon="-5.994968">
        <ele>77.10</ele>
        <time>2015-06-19T09:49:39Z</time>
      </trkpt>
      <trkpt lat="36.181349" lon="-5.994968">
        <ele>77.07</ele>
        <time>2015-06-19T09:49:53Z</time>
      </trkpt>
      <trkpt lat="36.181348" lon="-5.994969">
        <ele>77.04</ele>
        <time>2015-06-19T09:50:07Z</time>
      </trkpt>
      <trkpt lat="36.181348" lon="-5.994969">
        <ele>77.03</ele>
        <time>2015-06-19T09:50:23Z</time>
      </trkpt>
      <trkpt lat="36.181348" lon="-5.994969">
        <ele>77.07</ele>
        <time>2015-06-19T09:50:34Z</time>
      </trkpt>
      <trkpt lat="36.181348" lon="-5.994969">
        <ele>77.03</ele>
        <time>2015-06-19T09:50:37Z</time>
      </trkpt>
      <trkpt lat="36.181335" lon="-5.994967">
        <ele>77.10</ele>
        <time>2015-06-19T09:50:46Z</time>
      </trkpt>
      <trkpt lat="36.181335" lon="-5.994947">
        <ele>77.06</ele>
        <time>2015-06-19T09:50:49Z</time>
      </trkpt>
      <trkpt lat="36.181322" lon="-5.994913">
        <ele>77.05</ele>
        <time>2015-06-19T09:50:55Z</time>
      </trkpt>
      <trkpt lat="36.181313" lon="-5.994876">
        <ele>77.05</ele>
        <time>2015-06-19T09:50:59Z</time>
      </trkpt>
      <trkpt lat="36.181311" lon="-5.994848">
        <ele>77.41</ele>
        <time>2015-06-19T09:51:02Z</time>
      </trkpt>
      <trkpt lat="36.181311" lon="-5.994842">
        <ele>77.81</ele>
        <time>2015-06-19T09:51:03Z</time>
      </trkpt>
      <trkpt lat="36.181312" lon="-5.994833">
        <ele>78.26</ele>
        <time>2015-06-19T09:51:04Z</time>
      </trkpt>
      <trkpt lat="36.181310" lon="-5.994829">
        <ele>78.64</ele>
        <time>2015-06-19T09:51:05Z</time>
      </trkpt>
      <trkpt lat="36.181309" lon="-5.994825">
        <ele>79.08</ele>
        <time>2015-06-19T09:51:06Z</time>
      </trkpt>
      <trkpt lat="36.181305" lon="-5.994814">
        <ele>79.03</ele>
        <time>2015-06-19T09:51:10Z</time>
      </trkpt>
      <trkpt lat="36.181290" lon="-5.994776">
        <ele>79.10</ele>
        <time>2015-06-19T09:51:17Z</time>
      </trkpt>
      <trkpt lat="36.181290" lon="-5.994776">
        <ele>79.06</ele>
        <time>2015-06-19T09:51:18Z</time>
      </trkpt>
      <trkpt lat="36.181275" lon="-5.994736">
        <ele>79.06</ele>
        <time>2015-06-19T09:51:24Z</time>
      </trkpt>
      <trkpt lat="36.181272" lon="-5.994673">
        <ele>79.45</ele>
        <time>2015-06-19T09:51:28Z</time>
      </trkpt>
      <trkpt lat="36.181270" lon="-5.994659">
        <ele>79.81</ele>
        <time>2015-06-19T09:51:29Z</time>
      </trkpt>
      <trkpt lat="36.181266" lon="-5.994645">
        <ele>80.23</ele>
        <time>2015-06-19T09:51:30Z</time>
      </trkpt>
      <trkpt lat="36.181263" lon="-5.994633">
        <ele>80.61</ele>
        <time>2015-06-19T09:51:31Z</time>
      </trkpt>
      <trkpt lat="36.181264" lon="-5.994623">
        <ele>81.01</ele>
        <time>2015-06-19T09:51:32Z</time>
      </trkpt>
      <trkpt lat="36.181256" lon="-5.994581">
        <ele>81.05</ele>
        <time>2015-06-19T09:51:38Z</time>
      </trkpt>
      <trkpt lat="36.181223" lon="-5.994527">
        <ele>81.10</ele>
        <time>2015-06-19T09:51:44Z</time>
      </trkpt>
      <trkpt lat="36.181214" lon="-5.994490">
        <ele>81.07</ele>
        <time>2015-06-19T09:51:48Z</time>
      </trkpt>
      <trkpt lat="36.181210" lon="-5.994480">
        <ele>81.49</ele>
        <time>2015-06-19T09:51:49Z</time>
      </trkpt>
      <trkpt lat="36.181207" lon="-5.994475">
        <ele>81.83</ele>
        <time>2015-06-19T09:51:50Z</time>
      </trkpt>
      <trkpt lat="36.181207" lon="-5.994475">
        <ele>82.23</ele>
        <time>2015-06-19T09:51:51Z</time>
      </trkpt>
      <trkpt lat="36.181207" lon="-5.994475">
        <ele>82.65</ele>
        <time>2015-06-19T09:51:52Z</time>
      </trkpt>
      <trkpt lat="36.181207" lon="-5.994475">
        <ele>83.03</ele>
        <time>2015-06-19T09:51:53Z</time>
      </trkpt>
      <trkpt lat="36.181205" lon="-5.994424">
        <ele>83.05</ele>
        <time>2015-06-19T09:51:57Z</time>
      </trkpt>
      <trkpt lat="36.181189" lon="-5.994384">
        <ele>83.06</ele>
        <time>2015-06-19T09:52:00Z</time>
      </trkpt>
      <trkpt lat="36.181184" lon="-5.994365">
        <ele>83.02</ele>
        <time>2015-06-19T09:52:02Z</time>
      </trkpt>
      <trkpt lat="36.181163" lon="-5.994347">
        <ele>83.01</ele>
        <time>2015-06-19T09:52:09Z</time>
      </trkpt>
      <trkpt lat="36.181135" lon="-5.994319">
        <ele>83.03</ele>
        <time>2015-06-19T09:52:14Z</time>
      </trkpt>
      <trkpt lat="36.181101" lon="-5.994309">
        <ele>83.06</ele>
        <time>2015-06-19T09:52:16Z</time>
      </trkpt>
      <trkpt lat="36.181044" lon="-5.994200">
        <ele>83.08</ele>
        <time>2015-06-19T09:52:24Z</time>
      </trkpt>
      <trkpt lat="36.181019" lon="-5.994103">
        <ele>83.06</ele>
        <time>2015-06-19T09:52:29Z</time>
      </trkpt>
      <trkpt lat="36.181005" lon="-5.994081">
        <ele>83.10</ele>
        <time>2015-06-19T09:52:34Z</time>
      </trkpt>
      <trkpt lat="36.180986" lon="-5.994036">
        <ele>83.03</ele>
        <time>2015-06-19T09:52:38Z</time>
      </trkpt>
      <trkpt lat="36.180981" lon="-5.994015">
        <ele>83.09</ele>
        <time>2015-06-19T09:52:41Z</time>
      </trkpt>
      <trkpt lat="36.180947" lon="-5.993967">
        <ele>83.10</ele>
        <time>2015-06-19T09:52:46Z</time>
      </trkpt>
      <trkpt lat="36.180934" lon="-5.993946">
        <ele>83.07</ele>
        <time>2015-06-19T09:52:48Z</time>
      </trkpt>
      <trkpt lat="36.180929" lon="-5.993861">
        <ele>83.01</ele>
        <time>2015-06-19T09:52:56Z</time>
      </trkpt>
      <trkpt lat="36.180944" lon="-5.993796">
        <ele>83.01</ele>
        <time>2015-06-19T09:53:03Z</time>
      </trkpt>
      <trkpt lat="36.180945" lon="-5.993776">
        <ele>83.61</ele>
        <time>2015-06-19T09:53:06Z</time>
      </trkpt>
      <trkpt lat="36.180942" lon="-5.993770">
        <ele>84.08</ele>
        <time>2015-06-19T09:53:07Z</time>
      </trkpt>
      <trkpt lat="36.180939" lon="-5.993764">
        <ele>84.44</ele>
        <time>2015-06-19T09:53:08Z</time>
      </trkpt>
      <trkpt lat="36.180938" lon="-5.993758">
        <ele>84.83</ele>
        <time>2015-06-19T09:53:09Z</time>
      </trkpt>
      <trkpt lat="36.180940" lon="-5.993750">
        <ele>85.28</ele>
        <time>2015-06-19T09:53:10Z</time>
      </trkpt>
      <trkpt lat="36.180973" lon="-5.993673">
        <ele>85.22</ele>
        <time>2015-06-19T09:53:18Z</time>
      </trkpt>
      <trkpt lat="36.180983" lon="-5.993619">
        <ele>85.21</ele>
        <time>2015-06-19T09:53:26Z</time>
      </trkpt>
      <trkpt lat="36.181000" lon="-5.993542">
        <ele>85.25</ele>
        <time>2015-06-19T09:53:33Z</time>
      </trkpt>
      <trkpt lat="36.181000" lon="-5.993539">
        <ele>85.28</ele>
        <time>2015-06-19T09:53:34Z</time>
      </trkpt>
      <trkpt lat="36.180996" lon="-5.993518">
        <ele>85.26</ele>
        <time>2015-06-19T09:53:35Z</time>
      </trkpt>
      <trkpt lat="36.180985" lon="-5.993489">
        <ele>85.61</ele>
        <time>2015-06-19T09:53:37Z</time>
      </trkpt>
      <trkpt lat="36.180989" lon="-5.993477">
        <ele>86.02</ele>
        <time>2015-06-19T09:53:38Z</time>
      </trkpt>
      <trkpt lat="36.180990" lon="-5.993462">
        <ele>86.41</ele>
        <time>2015-06-19T09:53:39Z</time>
      </trkpt>
      <trkpt lat="36.180987" lon="-5.993445">
        <ele>86.85</ele>
        <time>2015-06-19T09:53:40Z</time>
      </trkpt>
      <trkpt lat="36.180982" lon="-5.993429">
        <ele>87.29</ele>
        <time>2015-06-19T09:53:41Z</time>
      </trkpt>
      <trkpt lat="36.180993" lon="-5.993404">
        <ele>87.26</ele>
        <time>2015-06-19T09:53:42Z</time>
      </trkpt>
      <trkpt lat="36.181004" lon="-5.993370">
        <ele>87.22</ele>
        <time>2015-06-19T09:53:44Z</time>
      </trkpt>
      <trkpt lat="36.180983" lon="-5.993351">
        <ele>87.29</ele>
        <time>2015-06-19T09:53:46Z</time>
      </trkpt>
      <trkpt lat="36.180945" lon="-5.993306">
        <ele>87.29</ele>
        <time>2015-06-19T09:53:49Z</time>
      </trkpt>
      <trkpt lat="36.180897" lon="-5.993219">
        <ele>87.28</ele>
        <time>2015-06-19T09:53:54Z</time>
      </trkpt>
      <trkpt lat="36.180866" lon="-5.993157">
        <ele>87.24</ele>
        <time>2015-06-19T09:53:57Z</time>
      </trkpt>
      <trkpt lat="36.180828" lon="-5.993037">
        <ele>87.24</ele>
        <time>2015-06-19T09:54:03Z</time>
      </trkpt>
      <trkpt lat="36.180814" lon="-5.992954">
        <ele>87.20</ele>
        <time>2015-06-19T09:54:07Z</time>
      </trkpt>
      <trkpt lat="36.180825" lon="-5.992937">
        <ele>87.22</ele>
        <time>2015-06-19T09:54:09Z</time>
      </trkpt>
      <trkpt lat="36.180834" lon="-5.992885">
        <ele>87.21</ele>
        <time>2015-06-19T09:54:14Z</time>
      </trkpt>
      <trkpt lat="36.180838" lon="-5.992868">
        <ele>87.27</ele>
        <time>2015-06-19T09:54:15Z</time>
      </trkpt>
      <trkpt lat="36.180830" lon="-5.992816">
        <ele>87.23</ele>
        <time>2015-06-19T09:54:18Z</time>
      </trkpt>
      <trkpt lat="36.180823" lon="-5.992762">
        <ele>87.27</ele>
        <time>2015-06-19T09:54:21Z</time>
      </trkpt>
      <trkpt lat="36.180806" lon="-5.992674">
        <ele>87.67</ele>
        <time>2015-06-19T09:54:26Z</time>
      </trkpt>
      <trkpt lat="36.180800" lon="-5.992656">
        <ele>88.05</ele>
        <time>2015-06-19T09:54:27Z</time>
      </trkpt>
      <trkpt lat="36.180793" lon="-5.992637">
        <ele>88.49</ele>
        <time>2015-06-19T09:54:28Z</time>
      </trkpt>
      <trkpt lat="36.180790" lon="-5.992623">
        <ele>88.85</ele>
        <time>2015-06-19T09:54:29Z</time>
      </trkpt>
      <trkpt lat="36.180790" lon="-5.992605">
        <ele>89.47</ele>
        <time>2015-06-19T09:54:30Z</time>
      </trkpt>
      <trkpt lat="36.180787" lon="-5.992577">
        <ele>89.44</ele>
        <time>2015-06-19T09:54:35Z</time>
      </trkpt>
      <trkpt lat="36.180777" lon="-5.992573">
        <ele>89.46</ele>
        <time>2015-06-19T09:54:41Z</time>
      </trkpt>
      <trkpt lat="36.180750" lon="-5.992519">
        <ele>89.41</ele>
        <time>2015-06-19T09:54:47Z</time>
      </trkpt>
      <trkpt lat="36.180737" lon="-5.992467">
        <ele>89.41</ele>
        <time>2015-06-19T09:54:53Z</time>
      </trkpt>
      <trkpt lat="36.180717" lon="-5.992361">
        <ele>89.47</ele>
        <time>2015-06-19T09:55:02Z</time>
      </trkpt>
      <trkpt lat="36.180697" lon="-5.992310">
        <ele>89.88</ele>
        <time>2015-06-19T09:55:07Z</time>
      </trkpt>
      <trkpt lat="36.180696" lon="-5.992299">
        <ele>90.27</ele>
        <time>2015-06-19T09:55:08Z</time>
      </trkpt>
      <trkpt lat="36.180698" lon="-5.992299">
        <ele>90.66</ele>
        <time>2015-06-19T09:55:09Z</time>
      </trkpt>
      <trkpt lat="36.180698" lon="-5.992299">
        <ele>91.05</ele>
        <time>2015-06-19T09:55:10Z</time>
      </trkpt>
      <trkpt lat="36.180698" lon="-5.992299">
        <ele>91.48</ele>
        <time>2015-06-19T09:55:11Z</time>
      </trkpt>
      <trkpt lat="36.180692" lon="-5.992233">
        <ele>91.41</ele>
        <time>2015-06-19T09:55:16Z</time>
      </trkpt>
      <trkpt lat="36.180708" lon="-5.992145">
        <ele>91.47</ele>
        <time>2015-06-19T09:55:23Z</time>
      </trkpt>
      <trkpt lat="36.180705" lon="-5.992070">
        <ele>91.45</ele>
        <time>2015-06-19T09:55:30Z</time>
      </trkpt>
      <trkpt lat="36.180694" lon="-5.992007">
        <ele>91.49</ele>
        <time>2015-06-19T09:55:35Z</time>
      </trkpt>
      <trkpt lat="36.180672" lon="-5.991972">
        <ele>91.42</ele>
        <time>2015-06-19T09:55:38Z</time>
      </trkpt>
      <trkpt lat="36.180651" lon="-5.991881">
        <ele>91.41</ele>
        <time>2015-06-19T09:55:46Z</time>
      </trkpt>
      <trkpt lat="36.180633" lon="-5.991812">
        <ele>91.45</ele>
        <time>2015-06-19T09:55:52Z</time>
      </trkpt>
      <trkpt lat="36.180630" lon="-5.991800">
        <ele>92.26</ele>
        <time>2015-06-19T09:55:53Z</time>
      </trkpt>
      <trkpt lat="36.180628" lon="-5.991788">
        <ele>92.64</ele>
        <time>2015-06-19T09:55:54Z</time>
      </trkpt>
      <trkpt lat="36.180627" lon="-5.991775">
        <ele>93.07</ele>
        <time>2015-06-19T09:55:55Z</time>
      </trkpt>
      <trkpt lat="36.180627" lon="-5.991767">
        <ele>93.46</ele>
        <time>2015-06-19T09:55:56Z</time>
      </trkpt>
      <trkpt lat="36.180621" lon="-5.991726">
        <ele>93.48</ele>
        <time>2015-06-19T09:55:59Z</time>
      </trkpt>
      <trkpt lat="36.180579" lon="-5.991657">
        <ele>93.46</ele>
        <time>2015-06-19T09:56:07Z</time>
      </trkpt>
      <trkpt lat="36.180581" lon="-5.991609">
        <ele>93.50</ele>
        <time>2015-06-19T09:56:13Z</time>
      </trkpt>
      <trkpt lat="36.180578" lon="-5.991598">
        <ele>93.89</ele>
        <time>2015-06-19T09:56:14Z</time>
      </trkpt>
      <trkpt lat="36.180574" lon="-5.991592">
        <ele>94.24</ele>
        <time>2015-06-19T09:56:15Z</time>
      </trkpt>
      <trkpt lat="36.180568" lon="-5.991583">
        <ele>94.83</ele>
        <time>2015-06-19T09:56:16Z</time>
      </trkpt>
      <trkpt lat="36.180563" lon="-5.991576">
        <ele>95.21</ele>
        <time>2015-06-19T09:56:17Z</time>
      </trkpt>
      <trkpt lat="36.180558" lon="-5.991570">
        <ele>95.65</ele>
        <time>2015-06-19T09:56:18Z</time>
      </trkpt>
      <trkpt lat="36.180547" lon="-5.991555">
        <ele>95.61</ele>
        <time>2015-06-19T09:56:20Z</time>
      </trkpt>
      <trkpt lat="36.180544" lon="-5.991551">
        <ele>95.65</ele>
        <time>2015-06-19T09:56:27Z</time>
      </trkpt>
      <trkpt lat="36.180527" lon="-5.991539">
        <ele>95.62</ele>
        <time>2015-06-19T09:56:28Z</time>
      </trkpt>
      <trkpt lat="36.180488" lon="-5.991461">
        <ele>95.68</ele>
        <time>2015-06-19T09:56:33Z</time>
      </trkpt>
      <trkpt lat="36.180470" lon="-5.991400">
        <ele>95.65</ele>
        <time>2015-06-19T09:56:36Z</time>
      </trkpt>
      <trkpt lat="36.180449" lon="-5.991344">
        <ele>95.67</ele>
        <time>2015-06-19T09:56:39Z</time>
      </trkpt>
      <trkpt lat="36.180415" lon="-5.991269">
        <ele>95.61</ele>
        <time>2015-06-19T09:56:43Z</time>
      </trkpt>
      <trkpt lat="36.180392" lon="-5.991197">
        <ele>95.62</ele>
        <time>2015-06-19T09:56:47Z</time>
      </trkpt>
      <trkpt lat="36.180391" lon="-5.991118">
        <ele>95.66</ele>
        <time>2015-06-19T09:56:50Z</time>
      </trkpt>
      <trkpt lat="36.180374" lon="-5.991062">
        <ele>95.61</ele>
        <time>2015-06-19T09:56:52Z</time>
      </trkpt>
      <trkpt lat="36.180327" lon="-5.990871">
        <ele>95.61</ele>
        <time>2015-06-19T09:56:58Z</time>
      </trkpt>
      <trkpt lat="36.180296" lon="-5.990644">
        <ele>95.63</ele>
        <time>2015-06-19T09:57:05Z</time>
      </trkpt>
      <trkpt lat="36.180280" lon="-5.990478">
        <ele>95.67</ele>
        <time>2015-06-19T09:57:10Z</time>
      </trkpt>
      <trkpt lat="36.180237" lon="-5.990296">
        <ele>95.67</ele>
        <time>2015-06-19T09:57:16Z</time>
      </trkpt>
      <trkpt lat="36.180210" lon="-5.990230">
        <ele>95.63</ele>
        <time>2015-06-19T09:57:21Z</time>
      </trkpt>
      <trkpt lat="36.180205" lon="-5.990205">
        <ele>95.65</ele>
        <time>2015-06-19T09:57:22Z</time>
      </trkpt>
      <trkpt lat="36.180150" lon="-5.990070">
        <ele>95.69</ele>
        <time>2015-06-19T09:57:27Z</time>
      </trkpt>
      <trkpt lat="36.180105" lon="-5.989908">
        <ele>95.67</ele>
        <time>2015-06-19T09:57:33Z</time>
      </trkpt>
      <trkpt lat="36.180110" lon="-5.989881">
        <ele>95.69</ele>
        <time>2015-06-19T09:57:37Z</time>
      </trkpt>
      <trkpt lat="36.180103" lon="-5.989883">
        <ele>95.66</ele>
        <time>2015-06-19T09:57:42Z</time>
      </trkpt>
      <trkpt lat="36.180082" lon="-5.989888">
        <ele>95.60</ele>
        <time>2015-06-19T09:57:44Z</time>
      </trkpt>
      <trkpt lat="36.180074" lon="-5.989884">
        <ele>95.62</ele>
        <time>2015-06-19T09:57:45Z</time>
      </trkpt>
      <trkpt lat="36.180006" lon="-5.989871">
        <ele>95.61</ele>
        <time>2015-06-19T09:57:50Z</time>
      </trkpt>
      <trkpt lat="36.179946" lon="-5.989811">
        <ele>95.66</ele>
        <time>2015-06-19T09:57:54Z</time>
      </trkpt>
      <trkpt lat="36.179933" lon="-5.989775">
        <ele>95.63</ele>
        <time>2015-06-19T09:57:56Z</time>
      </trkpt>
      <trkpt lat="36.179920" lon="-5.989689">
        <ele>95.64</ele>
        <time>2015-06-19T09:58:00Z</time>
      </trkpt>
      <trkpt lat="36.179905" lon="-5.989666">
        <ele>95.69</ele>
        <time>2015-06-19T09:58:01Z</time>
      </trkpt>
      <trkpt lat="36.179872" lon="-5.989623">
        <ele>95.66</ele>
        <time>2015-06-19T09:58:03Z</time>
      </trkpt>
      <trkpt lat="36.179854" lon="-5.989554">
        <ele>95.68</ele>
        <time>2015-06-19T09:58:06Z</time>
      </trkpt>
      <trkpt lat="36.179884" lon="-5.989434">
        <ele>95.61</ele>
        <time>2015-06-19T09:58:11Z</time>
      </trkpt>
      <trkpt lat="36.179889" lon="-5.989370">
        <ele>95.62</ele>
        <time>2015-06-19T09:58:14Z</time>
      </trkpt>
      <trkpt lat="36.179880" lon="-5.989337">
        <ele>95.62</ele>
        <time>2015-06-19T09:58:15Z</time>
      </trkpt>
      <trkpt lat="36.179807" lon="-5.989164">
        <ele>95.66</ele>
        <time>2015-06-19T09:58:21Z</time>
      </trkpt>
      <trkpt lat="36.179805" lon="-5.989137">
        <ele>95.61</ele>
        <time>2015-06-19T09:58:22Z</time>
      </trkpt>
      <trkpt lat="36.179772" lon="-5.989070">
        <ele>95.61</ele>
        <time>2015-06-19T09:58:25Z</time>
      </trkpt>
      <trkpt lat="36.179757" lon="-5.989049">
        <ele>95.66</ele>
        <time>2015-06-19T09:58:26Z</time>
      </trkpt>
      <trkpt lat="36.179764" lon="-5.989027">
        <ele>95.70</ele>
        <time>2015-06-19T09:58:27Z</time>
      </trkpt>
      <trkpt lat="36.179771" lon="-5.988994">
        <ele>95.67</ele>
        <time>2015-06-19T09:58:29Z</time>
      </trkpt>
      <trkpt lat="36.179769" lon="-5.988950">
        <ele>95.66</ele>
        <time>2015-06-19T09:58:32Z</time>
      </trkpt>
      <trkpt lat="36.179770" lon="-5.988940">
        <ele>95.69</ele>
        <time>2015-06-19T09:58:34Z</time>
      </trkpt>
      <trkpt lat="36.179772" lon="-5.988929">
        <ele>95.26</ele>
        <time>2015-06-19T09:58:37Z</time>
      </trkpt>
      <trkpt lat="36.179772" lon="-5.988929">
        <ele>94.89</ele>
        <time>2015-06-19T09:58:38Z</time>
      </trkpt>
      <trkpt lat="36.179775" lon="-5.988922">
        <ele>94.45</ele>
        <time>2015-06-19T09:58:39Z</time>
      </trkpt>
      <trkpt lat="36.179776" lon="-5.988912">
        <ele>94.08</ele>
        <time>2015-06-19T09:58:40Z</time>
      </trkpt>
      <trkpt lat="36.179778" lon="-5.988904">
        <ele>93.66</ele>
        <time>2015-06-19T09:58:41Z</time>
      </trkpt>
      <trkpt lat="36.179777" lon="-5.988862">
        <ele>93.62</ele>
        <time>2015-06-19T09:58:44Z</time>
      </trkpt>
      <trkpt lat="36.179789" lon="-5.988811">
        <ele>93.61</ele>
        <time>2015-06-19T09:58:48Z</time>
      </trkpt>
      <trkpt lat="36.179802" lon="-5.988757">
        <ele>93.69</ele>
        <time>2015-06-19T09:58:51Z</time>
      </trkpt>
      <trkpt lat="36.179806" lon="-5.988697">
        <ele>93.64</ele>
        <time>2015-06-19T09:58:54Z</time>
      </trkpt>
      <trkpt lat="36.179819" lon="-5.988672">
        <ele>93.66</ele>
        <time>2015-06-19T09:58:55Z</time>
      </trkpt>
      <trkpt lat="36.179830" lon="-5.988596">
        <ele>93.29</ele>
        <time>2015-06-19T09:58:59Z</time>
      </trkpt>
      <trkpt lat="36.179823" lon="-5.988569">
        <ele>92.84</ele>
        <time>2015-06-19T09:59:00Z</time>
      </trkpt>
      <trkpt lat="36.179823" lon="-5.988539">
        <ele>92.43</ele>
        <time>2015-06-19T09:59:01Z</time>
      </trkpt>
      <trkpt lat="36.179826" lon="-5.988511">
        <ele>91.83</ele>
        <time>2015-06-19T09:59:02Z</time>
      </trkpt>
      <trkpt lat="36.179825" lon="-5.988482">
        <ele>91.41</ele>
        <time>2015-06-19T09:59:03Z</time>
      </trkpt>
      <trkpt lat="36.179818" lon="-5.988454">
        <ele>91.47</ele>
        <time>2015-06-19T09:59:04Z</time>
      </trkpt>
      <trkpt lat="36.179812" lon="-5.988426">
        <ele>91.00</ele>
        <time>2015-06-19T09:59:05Z</time>
      </trkpt>
      <trkpt lat="36.179805" lon="-5.988395">
        <ele>90.62</ele>
        <time>2015-06-19T09:59:06Z</time>
      </trkpt>
      <trkpt lat="36.179791" lon="-5.988369">
        <ele>90.21</ele>
        <time>2015-06-19T09:59:07Z</time>
      </trkpt>
      <trkpt lat="36.179786" lon="-5.988347">
        <ele>89.63</ele>
        <time>2015-06-19T09:59:08Z</time>
      </trkpt>
      <trkpt lat="36.179783" lon="-5.988328">
        <ele>89.23</ele>
        <time>2015-06-19T09:59:09Z</time>
      </trkpt>
      <trkpt lat="36.179788" lon="-5.988325">
        <ele>89.26</ele>
        <time>2015-06-19T09:59:10Z</time>
      </trkpt>
      <trkpt lat="36.179791" lon="-5.988319">
        <ele>89.26</ele>
        <time>2015-06-19T09:59:14Z</time>
      </trkpt>
      <trkpt lat="36.179791" lon="-5.988319">
        <ele>89.24</ele>
        <time>2015-06-19T09:59:16Z</time>
      </trkpt>
      <trkpt lat="36.179801" lon="-5.988283">
        <ele>89.24</ele>
        <time>2015-06-19T09:59:21Z</time>
      </trkpt>
      <trkpt lat="36.179818" lon="-5.988255">
        <ele>89.22</ele>
        <time>2015-06-19T09:59:23Z</time>
      </trkpt>
      <trkpt lat="36.179870" lon="-5.988181">
        <ele>89.26</ele>
        <time>2015-06-19T09:59:31Z</time>
      </trkpt>
      <trkpt lat="36.179884" lon="-5.988136">
        <ele>89.25</ele>
        <time>2015-06-19T09:59:35Z</time>
      </trkpt>
      <trkpt lat="36.179894" lon="-5.988094">
        <ele>89.25</ele>
        <time>2015-06-19T09:59:38Z</time>
      </trkpt>
      <trkpt lat="36.179902" lon="-5.988081">
        <ele>89.21</ele>
        <time>2015-06-19T09:59:39Z</time>
      </trkpt>
      <trkpt lat="36.179899" lon="-5.988029">
        <ele>89.21</ele>
        <time>2015-06-19T09:59:44Z</time>
      </trkpt>
      <trkpt lat="36.179899" lon="-5.988015">
        <ele>89.25</ele>
        <time>2015-06-19T09:59:45Z</time>
      </trkpt>
      <trkpt lat="36.179906" lon="-5.987992">
        <ele>89.29</ele>
        <time>2015-06-19T09:59:47Z</time>
      </trkpt>
      <trkpt lat="36.179922" lon="-5.987961">
        <ele>89.28</ele>
        <time>2015-06-19T09:59:50Z</time>
      </trkpt>
      <trkpt lat="36.179932" lon="-5.987898">
        <ele>89.27</ele>
        <time>2015-06-19T09:59:56Z</time>
      </trkpt>
      <trkpt lat="36.179930" lon="-5.987882">
        <ele>89.24</ele>
        <time>2015-06-19T09:59:57Z</time>
      </trkpt>
      <trkpt lat="36.179939" lon="-5.987841">
        <ele>89.23</ele>
        <time>2015-06-19T10:00:02Z</time>
      </trkpt>
      <trkpt lat="36.179943" lon="-5.987828">
        <ele>89.24</ele>
        <time>2015-06-19T10:00:03Z</time>
      </trkpt>
      <trkpt lat="36.179953" lon="-5.987795">
        <ele>89.27</ele>
        <time>2015-06-19T10:00:09Z</time>
      </trkpt>
      <trkpt lat="36.179947" lon="-5.987740">
        <ele>89.64</ele>
        <time>2015-06-19T10:00:16Z</time>
      </trkpt>
      <trkpt lat="36.179945" lon="-5.987724">
        <ele>90.06</ele>
        <time>2015-06-19T10:00:17Z</time>
      </trkpt>
      <trkpt lat="36.179946" lon="-5.987723">
        <ele>90.41</ele>
        <time>2015-06-19T10:00:18Z</time>
      </trkpt>
      <trkpt lat="36.179948" lon="-5.987706">
        <ele>90.81</ele>
        <time>2015-06-19T10:00:19Z</time>
      </trkpt>
      <trkpt lat="36.179951" lon="-5.987695">
        <ele>91.30</ele>
        <time>2015-06-19T10:00:20Z</time>
      </trkpt>
      <trkpt lat="36.179947" lon="-5.987682">
        <ele>91.23</ele>
        <time>2015-06-19T10:00:21Z</time>
      </trkpt>
      <trkpt lat="36.179946" lon="-5.987640">
        <ele>91.25</ele>
        <time>2015-06-19T10:00:25Z</time>
      </trkpt>
      <trkpt lat="36.179925" lon="-5.987550">
        <ele>91.24</ele>
        <time>2015-06-19T10:00:30Z</time>
      </trkpt>
      <trkpt lat="36.179912" lon="-5.987494">
        <ele>91.24</ele>
        <time>2015-06-19T10:00:34Z</time>
      </trkpt>
      <trkpt lat="36.179892" lon="-5.987465">
        <ele>91.29</ele>
        <time>2015-06-19T10:00:36Z</time>
      </trkpt>
      <trkpt lat="36.179887" lon="-5.987426">
        <ele>91.26</ele>
        <time>2015-06-19T10:00:41Z</time>
      </trkpt>
      <trkpt lat="36.179890" lon="-5.987428">
        <ele>91.27</ele>
        <time>2015-06-19T10:00:46Z</time>
      </trkpt>
      <trkpt lat="36.179882" lon="-5.987407">
        <ele>91.23</ele>
        <time>2015-06-19T10:00:49Z</time>
      </trkpt>
      <trkpt lat="36.179877" lon="-5.987374">
        <ele>91.26</ele>
        <time>2015-06-19T10:00:52Z</time>
      </trkpt>
      <trkpt lat="36.179860" lon="-5.987322">
        <ele>91.21</ele>
        <time>2015-06-19T10:00:59Z</time>
      </trkpt>
      <trkpt lat="36.179865" lon="-5.987248">
        <ele>91.21</ele>
        <time>2015-06-19T10:01:06Z</time>
      </trkpt>
      <trkpt lat="36.179826" lon="-5.987165">
        <ele>91.27</ele>
        <time>2015-06-19T10:01:14Z</time>
      </trkpt>
      <trkpt lat="36.179809" lon="-5.987109">
        <ele>91.29</ele>
        <time>2015-06-19T10:01:19Z</time>
      </trkpt>
      <trkpt lat="36.179756" lon="-5.987057">
        <ele>91.26</ele>
        <time>2015-06-19T10:01:25Z</time>
      </trkpt>
      <trkpt lat="36.179727" lon="-5.986987">
        <ele>91.26</ele>
        <time>2015-06-19T10:01:28Z</time>
      </trkpt>
      <trkpt lat="36.179704" lon="-5.986934">
        <ele>91.28</ele>
        <time>2015-06-19T10:01:30Z</time>
      </trkpt>
      <trkpt lat="36.179657" lon="-5.986766">
        <ele>91.27</ele>
        <time>2015-06-19T10:01:36Z</time>
      </trkpt>
      <trkpt lat="36.179642" lon="-5.986735">
        <ele>91.21</ele>
        <time>2015-06-19T10:01:38Z</time>
      </trkpt>
      <trkpt lat="36.179616" lon="-5.986639">
        <ele>91.24</ele>
        <time>2015-06-19T10:01:42Z</time>
      </trkpt>
      <trkpt lat="36.179594" lon="-5.986510">
        <ele>91.23</ele>
        <time>2015-06-19T10:01:47Z</time>
      </trkpt>
      <trkpt lat="36.179592" lon="-5.986467">
        <ele>91.29</ele>
        <time>2015-06-19T10:01:49Z</time>
      </trkpt>
      <trkpt lat="36.179576" lon="-5.986384">
        <ele>91.21</ele>
        <time>2015-06-19T10:01:53Z</time>
      </trkpt>
      <trkpt lat="36.179556" lon="-5.986321">
        <ele>91.21</ele>
        <time>2015-06-19T10:01:56Z</time>
      </trkpt>
      <trkpt lat="36.179567" lon="-5.986147">
        <ele>91.28</ele>
        <time>2015-06-19T10:02:03Z</time>
      </trkpt>
      <trkpt lat="36.179553" lon="-5.986021">
        <ele>91.29</ele>
        <time>2015-06-19T10:02:10Z</time>
      </trkpt>
      <trkpt lat="36.179517" lon="-5.985851">
        <ele>91.21</ele>
        <time>2015-06-19T10:02:18Z</time>
      </trkpt>
      <trkpt lat="36.179497" lon="-5.985780">
        <ele>91.25</ele>
        <time>2015-06-19T10:02:22Z</time>
      </trkpt>
      <trkpt lat="36.179464" lon="-5.985722">
        <ele>91.24</ele>
        <time>2015-06-19T10:02:25Z</time>
      </trkpt>
      <trkpt lat="36.179442" lon="-5.985656">
        <ele>91.30</ele>
        <time>2015-06-19T10:02:28Z</time>
      </trkpt>
      <trkpt lat="36.179422" lon="-5.985610">
        <ele>91.26</ele>
        <time>2015-06-19T10:02:30Z</time>
      </trkpt>
      <trkpt lat="36.179423" lon="-5.985580">
        <ele>91.27</ele>
        <time>2015-06-19T10:02:31Z</time>
      </trkpt>
      <trkpt lat="36.179407" lon="-5.985517">
        <ele>91.23</ele>
        <time>2015-06-19T10:02:35Z</time>
      </trkpt>
      <trkpt lat="36.179411" lon="-5.985475">
        <ele>91.26</ele>
        <time>2015-06-19T10:02:37Z</time>
      </trkpt>
      <trkpt lat="36.179407" lon="-5.985396">
        <ele>91.21</ele>
        <time>2015-06-19T10:02:40Z</time>
      </trkpt>
      <trkpt lat="36.179387" lon="-5.985277">
        <ele>91.21</ele>
        <time>2015-06-19T10:02:46Z</time>
      </trkpt>
      <trkpt lat="36.179388" lon="-5.985255">
        <ele>91.66</ele>
        <time>2015-06-19T10:02:47Z</time>
      </trkpt>
      <trkpt lat="36.179380" lon="-5.985235">
        <ele>92.03</ele>
        <time>2015-06-19T10:02:48Z</time>
      </trkpt>
      <trkpt lat="36.179379" lon="-5.985220">
        <ele>92.45</ele>
        <time>2015-06-19T10:02:49Z</time>
      </trkpt>
      <trkpt lat="36.179376" lon="-5.985207">
        <ele>92.85</ele>
        <time>2015-06-19T10:02:50Z</time>
      </trkpt>
      <trkpt lat="36.179379" lon="-5.985190">
        <ele>93.22</ele>
        <time>2015-06-19T10:02:51Z</time>
      </trkpt>
      <trkpt lat="36.179373" lon="-5.985165">
        <ele>93.24</ele>
        <time>2015-06-19T10:02:52Z</time>
      </trkpt>
      <trkpt lat="36.179365" lon="-5.985038">
        <ele>93.23</ele>
        <time>2015-06-19T10:02:56Z</time>
      </trkpt>
      <trkpt lat="36.179361" lon="-5.984888">
        <ele>93.28</ele>
        <time>2015-06-19T10:03:01Z</time>
      </trkpt>
      <trkpt lat="36.179374" lon="-5.984863">
        <ele>93.25</ele>
        <time>2015-06-19T10:03:05Z</time>
      </trkpt>
      <trkpt lat="36.179394" lon="-5.984786">
        <ele>93.25</ele>
        <time>2015-06-19T10:03:10Z</time>
      </trkpt>
      <trkpt lat="36.179388" lon="-5.984769">
        <ele>93.21</ele>
        <time>2015-06-19T10:03:16Z</time>
      </trkpt>
      <trkpt lat="36.179379" lon="-5.984762">
        <ele>93.21</ele>
        <time>2015-06-19T10:03:19Z</time>
      </trkpt>
      <trkpt lat="36.179366" lon="-5.984713">
        <ele>93.30</ele>
        <time>2015-06-19T10:03:21Z</time>
      </trkpt>
      <trkpt lat="36.179314" lon="-5.984620">
        <ele>93.26</ele>
        <time>2015-06-19T10:03:25Z</time>
      </trkpt>
      <trkpt lat="36.179281" lon="-5.984565">
        <ele>93.26</ele>
        <time>2015-06-19T10:03:27Z</time>
      </trkpt>
      <trkpt lat="36.179220" lon="-5.984447">
        <ele>93.25</ele>
        <time>2015-06-19T10:03:31Z</time>
      </trkpt>
      <trkpt lat="36.179170" lon="-5.984368">
        <ele>93.29</ele>
        <time>2015-06-19T10:03:34Z</time>
      </trkpt>
      <trkpt lat="36.179104" lon="-5.984159">
        <ele>93.24</ele>
        <time>2015-06-19T10:03:40Z</time>
      </trkpt>
      <trkpt lat="36.179036" lon="-5.983994">
        <ele>93.28</ele>
        <time>2015-06-19T10:03:46Z</time>
      </trkpt>
      <trkpt lat="36.178998" lon="-5.983851">
        <ele>93.29</ele>
        <time>2015-06-19T10:03:52Z</time>
      </trkpt>
      <trkpt lat="36.178963" lon="-5.983702">
        <ele>93.27</ele>
        <time>2015-06-19T10:03:58Z</time>
      </trkpt>
      <trkpt lat="36.178931" lon="-5.983498">
        <ele>93.24</ele>
        <time>2015-06-19T10:04:05Z</time>
      </trkpt>
      <trkpt lat="36.178882" lon="-5.983368">
        <ele>93.23</ele>
        <time>2015-06-19T10:04:11Z</time>
      </trkpt>
      <trkpt lat="36.178841" lon="-5.983143">
        <ele>93.21</ele>
        <time>2015-06-19T10:04:17Z</time>
      </trkpt>
      <trkpt lat="36.178832" lon="-5.982849">
        <ele>93.29</ele>
        <time>2015-06-19T10:04:23Z</time>
      </trkpt>
      <trkpt lat="36.178761" lon="-5.982632">
        <ele>93.23</ele>
        <time>2015-06-19T10:04:29Z</time>
      </trkpt>
      <trkpt lat="36.178748" lon="-5.982491">
        <ele>93.24</ele>
        <time>2015-06-19T10:04:33Z</time>
      </trkpt>
      <trkpt lat="36.178766" lon="-5.982357">
        <ele>93.26</ele>
        <time>2015-06-19T10:04:38Z</time>
      </trkpt>
      <trkpt lat="36.178759" lon="-5.982213">
        <ele>93.27</ele>
        <time>2015-06-19T10:04:43Z</time>
      </trkpt>
      <trkpt lat="36.178761" lon="-5.982174">
        <ele>93.29</ele>
        <time>2015-06-19T10:04:46Z</time>
      </trkpt>
      <trkpt lat="36.178761" lon="-5.982174">
        <ele>93.25</ele>
        <time>2015-06-19T10:04:47Z</time>
      </trkpt>
      <trkpt lat="36.178745" lon="-5.982155">
        <ele>93.23</ele>
        <time>2015-06-19T10:04:51Z</time>
      </trkpt>
      <trkpt lat="36.178733" lon="-5.982138">
        <ele>93.25</ele>
        <time>2015-06-19T10:04:53Z</time>
      </trkpt>
      <trkpt lat="36.178706" lon="-5.982113">
        <ele>93.29</ele>
        <time>2015-06-19T10:04:56Z</time>
      </trkpt>
      <trkpt lat="36.178682" lon="-5.982094">
        <ele>93.22</ele>
        <time>2015-06-19T10:04:59Z</time>
      </trkpt>
      <trkpt lat="36.178597" lon="-5.982093">
        <ele>93.21</ele>
        <time>2015-06-19T10:05:08Z</time>
      </trkpt>
      <trkpt lat="36.178498" lon="-5.982105">
        <ele>93.28</ele>
        <time>2015-06-19T10:05:14Z</time>
      </trkpt>
      <trkpt lat="36.178362" lon="-5.982086">
        <ele>93.27</ele>
        <time>2015-06-19T10:05:20Z</time>
      </trkpt>
      <trkpt lat="36.178252" lon="-5.982113">
        <ele>93.23</ele>
        <time>2015-06-19T10:05:24Z</time>
      </trkpt>
      <trkpt lat="36.178183" lon="-5.982127">
        <ele>93.23</ele>
        <time>2015-06-19T10:05:26Z</time>
      </trkpt>
      <trkpt lat="36.178053" lon="-5.982144">
        <ele>93.29</ele>
        <time>2015-06-19T10:05:29Z</time>
      </trkpt>
      <trkpt lat="36.177961" lon="-5.982137">
        <ele>93.24</ele>
        <time>2015-06-19T10:05:31Z</time>
      </trkpt>
      <trkpt lat="36.177716" lon="-5.982165">
        <ele>93.25</ele>
        <time>2015-06-19T10:05:37Z</time>
      </trkpt>
      <trkpt lat="36.177586" lon="-5.982085">
        <ele>93.25</ele>
        <time>2015-06-19T10:05:42Z</time>
      </trkpt>
      <trkpt lat="36.177509" lon="-5.981997">
        <ele>93.27</ele>
        <time>2015-06-19T10:05:48Z</time>
      </trkpt>
      <trkpt lat="36.177508" lon="-5.981995">
        <ele>93.67</ele>
        <time>2015-06-19T10:05:49Z</time>
      </trkpt>
      <trkpt lat="36.177508" lon="-5.981995">
        <ele>94.01</ele>
        <time>2015-06-19T10:05:50Z</time>
      </trkpt>
      <trkpt lat="36.177508" lon="-5.981999">
        <ele>94.41</ele>
        <time>2015-06-19T10:05:51Z</time>
      </trkpt>
      <trkpt lat="36.177506" lon="-5.982001">
        <ele>94.82</ele>
        <time>2015-06-19T10:05:52Z</time>
      </trkpt>
      <trkpt lat="36.177504" lon="-5.982004">
        <ele>95.25</ele>
        <time>2015-06-19T10:05:53Z</time>
      </trkpt>
      <trkpt lat="36.177466" lon="-5.982017">
        <ele>95.29</ele>
        <time>2015-06-19T10:05:57Z</time>
      </trkpt>
      <trkpt lat="36.177454" lon="-5.982026">
        <ele>95.30</ele>
        <time>2015-06-19T10:05:59Z</time>
      </trkpt>
      <trkpt lat="36.177449" lon="-5.982023">
        <ele>95.28</ele>
        <time>2015-06-19T10:06:04Z</time>
      </trkpt>
      <trkpt lat="36.177449" lon="-5.982023">
        <ele>95.22</ele>
        <time>2015-06-19T10:06:12Z</time>
      </trkpt>
      <trkpt lat="36.177449" lon="-5.982023">
        <ele>95.23</ele>
        <time>2015-06-19T10:06:22Z</time>
      </trkpt>
      <trkpt lat="36.177449" lon="-5.982023">
        <ele>95.27</ele>
        <time>2015-06-19T10:06:33Z</time>
      </trkpt>
      <trkpt lat="36.177448" lon="-5.982022">
        <ele>95.28</ele>
        <time>2015-06-19T10:06:48Z</time>
      </trkpt>
      <trkpt lat="36.177448" lon="-5.982022">
        <ele>95.26</ele>
        <time>2015-06-19T10:07:00Z</time>
      </trkpt>
      <trkpt lat="36.177448" lon="-5.982022">
        <ele>95.22</ele>
        <time>2015-06-19T10:07:06Z</time>
      </trkpt>
      <trkpt lat="36.177448" lon="-5.982022">
        <ele>95.21</ele>
        <time>2015-06-19T10:07:12Z</time>
      </trkpt>
      <trkpt lat="36.177450" lon="-5.982019">
        <ele>95.30</ele>
        <time>2015-06-19T10:07:23Z</time>
      </trkpt>
      <trkpt lat="36.177450" lon="-5.982019">
        <ele>95.28</ele>
        <time>2015-06-19T10:07:35Z</time>
      </trkpt>
      <trkpt lat="36.177450" lon="-5.982019">
        <ele>95.24</ele>
        <time>2015-06-19T10:07:47Z</time>
      </trkpt>
      <trkpt lat="36.177452" lon="-5.982016">
        <ele>95.30</ele>
        <time>2015-06-19T10:08:02Z</time>
      </trkpt>
      <trkpt lat="36.177452" lon="-5.982016">
        <ele>95.28</ele>
        <time>2015-06-19T10:08:12Z</time>
      </trkpt>
      <trkpt lat="36.177452" lon="-5.982016">
        <ele>95.27</ele>
        <time>2015-06-19T10:08:24Z</time>
      </trkpt>
      <trkpt lat="36.177452" lon="-5.982016">
        <ele>95.22</ele>
        <time>2015-06-19T10:08:37Z</time>
      </trkpt>
      <trkpt lat="36.177454" lon="-5.982016">
        <ele>95.28</ele>
        <time>2015-06-19T10:08:49Z</time>
      </trkpt>
      <trkpt lat="36.177454" lon="-5.982016">
        <ele>95.26</ele>
        <time>2015-06-19T10:09:04Z</time>
      </trkpt>
      <trkpt lat="36.177454" lon="-5.982016">
        <ele>95.20</ele>
        <time>2015-06-19T10:09:09Z</time>
      </trkpt>
      <trkpt lat="36.177454" lon="-5.982016">
        <ele>95.22</ele>
        <time>2015-06-19T10:09:11Z</time>
      </trkpt>
      <trkpt lat="36.177454" lon="-5.982016">
        <ele>95.21</ele>
        <time>2015-06-19T10:09:16Z</time>
      </trkpt>
      <trkpt lat="36.177453" lon="-5.982016">
        <ele>95.26</ele>
        <time>2015-06-19T10:09:29Z</time>
      </trkpt>
      <trkpt lat="36.177453" lon="-5.982016">
        <ele>95.21</ele>
        <time>2015-06-19T10:09:30Z</time>
      </trkpt>
      <trkpt lat="36.177453" lon="-5.982016">
        <ele>95.29</ele>
        <time>2015-06-19T10:09:36Z</time>
      </trkpt>
      <trkpt lat="36.177453" lon="-5.982016">
        <ele>95.22</ele>
        <time>2015-06-19T10:09:42Z</time>
      </trkpt>
      <trkpt lat="36.177453" lon="-5.982016">
        <ele>95.26</ele>
        <time>2015-06-19T10:09:45Z</time>
      </trkpt>
      <trkpt lat="36.177453" lon="-5.982016">
        <ele>95.23</ele>
        <time>2015-06-19T10:09:56Z</time>
      </trkpt>
      <trkpt lat="36.177454" lon="-5.982016">
        <ele>95.30</ele>
        <time>2015-06-19T10:10:11Z</time>
      </trkpt>
      <trkpt lat="36.177454" lon="-5.982016">
        <ele>95.24</ele>
        <time>2015-06-19T10:10:23Z</time>
      </trkpt>
      <trkpt lat="36.177454" lon="-5.982016">
        <ele>95.28</ele>
        <time>2015-06-19T10:10:29Z</time>
      </trkpt>
      <trkpt lat="36.177454" lon="-5.982016">
        <ele>95.21</ele>
        <time>2015-06-19T10:10:35Z</time>
      </trkpt>
      <trkpt lat="36.177456" lon="-5.982017">
        <ele>95.22</ele>
        <time>2015-06-19T10:10:49Z</time>
      </trkpt>
      <trkpt lat="36.177456" lon="-5.982017">
        <ele>95.21</ele>
        <time>2015-06-19T10:11:03Z</time>
      </trkpt>
      <trkpt lat="36.177456" lon="-5.982017">
        <ele>95.24</ele>
        <time>2015-06-19T10:11:12Z</time>
      </trkpt>
      <trkpt lat="36.177456" lon="-5.982017">
        <ele>95.22</ele>
        <time>2015-06-19T10:11:18Z</time>
      </trkpt>
      <trkpt lat="36.177455" lon="-5.982017">
        <ele>95.23</ele>
        <time>2015-06-19T10:11:33Z</time>
      </trkpt>
      <trkpt lat="36.177455" lon="-5.982017">
        <ele>95.24</ele>
        <time>2015-06-19T10:11:45Z</time>
      </trkpt>
      <trkpt lat="36.177455" lon="-5.982017">
        <ele>95.28</ele>
        <time>2015-06-19T10:11:58Z</time>
      </trkpt>
      <trkpt lat="36.177456" lon="-5.982019">
        <ele>95.29</ele>
        <time>2015-06-19T10:12:01Z</time>
      </trkpt>
      <trkpt lat="36.177456" lon="-5.982019">
        <ele>95.23</ele>
        <time>2015-06-19T10:12:05Z</time>
      </trkpt>
      <trkpt lat="36.177456" lon="-5.982019">
        <ele>95.21</ele>
        <time>2015-06-19T10:12:13Z</time>
      </trkpt>
      <trkpt lat="36.177456" lon="-5.982019">
        <ele>95.26</ele>
        <time>2015-06-19T10:12:18Z</time>
      </trkpt>
      <trkpt lat="36.177456" lon="-5.982019">
        <ele>95.20</ele>
        <time>2015-06-19T10:12:26Z</time>
      </trkpt>
      <trkpt lat="36.177456" lon="-5.982019">
        <ele>95.22</ele>
        <time>2015-06-19T10:12:28Z</time>
      </trkpt>
      <trkpt lat="36.177456" lon="-5.982019">
        <ele>95.21</ele>
        <time>2015-06-19T10:12:32Z</time>
      </trkpt>
      <trkpt lat="36.177456" lon="-5.982019">
        <ele>95.25</ele>
        <time>2015-06-19T10:12:40Z</time>
      </trkpt>
      <trkpt lat="36.177457" lon="-5.982018">
        <ele>95.27</ele>
        <time>2015-06-19T10:12:43Z</time>
      </trkpt>
      <trkpt lat="36.177457" lon="-5.982018">
        <ele>95.25</ele>
        <time>2015-06-19T10:12:48Z</time>
      </trkpt>
      <trkpt lat="36.177457" lon="-5.982018">
        <ele>95.23</ele>
        <time>2015-06-19T10:12:49Z</time>
      </trkpt>
      <trkpt lat="36.177457" lon="-5.982018">
        <ele>95.24</ele>
        <time>2015-06-19T10:12:52Z</time>
      </trkpt>
      <trkpt lat="36.177457" lon="-5.982018">
        <ele>95.27</ele>
        <time>2015-06-19T10:12:54Z</time>
      </trkpt>
      <trkpt lat="36.177469" lon="-5.982020">
        <ele>95.25</ele>
        <time>2015-06-19T10:12:57Z</time>
      </trkpt>
      <trkpt lat="36.177475" lon="-5.982021">
        <ele>95.27</ele>
        <time>2015-06-19T10:12:58Z</time>
      </trkpt>
      <trkpt lat="36.177503" lon="-5.982003">
        <ele>95.30</ele>
        <time>2015-06-19T10:13:01Z</time>
      </trkpt>
      <trkpt lat="36.177528" lon="-5.982002">
        <ele>95.21</ele>
        <time>2015-06-19T10:13:04Z</time>
      </trkpt>
      <trkpt lat="36.177549" lon="-5.981993">
        <ele>95.23</ele>
        <time>2015-06-19T10:13:07Z</time>
      </trkpt>
      <trkpt lat="36.177553" lon="-5.982005">
        <ele>95.21</ele>
        <time>2015-06-19T10:13:10Z</time>
      </trkpt>
      <trkpt lat="36.177562" lon="-5.982017">
        <ele>95.21</ele>
        <time>2015-06-19T10:13:11Z</time>
      </trkpt>
      <trkpt lat="36.177575" lon="-5.982022">
        <ele>95.30</ele>
        <time>2015-06-19T10:13:12Z</time>
      </trkpt>
      <trkpt lat="36.177617" lon="-5.982068">
        <ele>95.28</ele>
        <time>2015-06-19T10:13:15Z</time>
      </trkpt>
      <trkpt lat="36.177631" lon="-5.982094">
        <ele>95.23</ele>
        <time>2015-06-19T10:13:16Z</time>
      </trkpt>
      <trkpt lat="36.177648" lon="-5.982119">
        <ele>95.27</ele>
        <time>2015-06-19T10:13:17Z</time>
      </trkpt>
      <trkpt lat="36.177776" lon="-5.982190">
        <ele>95.27</ele>
        <time>2015-06-19T10:13:21Z</time>
      </trkpt>
      <trkpt lat="36.177925" lon="-5.982161">
        <ele>95.23</ele>
        <time>2015-06-19T10:13:25Z</time>
      </trkpt>
      <trkpt lat="36.177962" lon="-5.982152">
        <ele>95.24</ele>
        <time>2015-06-19T10:13:26Z</time>
      </trkpt>
      <trkpt lat="36.178119" lon="-5.982141">
        <ele>95.27</ele>
        <time>2015-06-19T10:13:30Z</time>
      </trkpt>
      <trkpt lat="36.178189" lon="-5.982151">
        <ele>95.24</ele>
        <time>2015-06-19T10:13:32Z</time>
      </trkpt>
      <trkpt lat="36.178361" lon="-5.982113">
        <ele>95.22</ele>
        <time>2015-06-19T10:13:37Z</time>
      </trkpt>
      <trkpt lat="36.178463" lon="-5.982075">
        <ele>95.21</ele>
        <time>2015-06-19T10:13:41Z</time>
      </trkpt>
      <trkpt lat="36.178538" lon="-5.982077">
        <ele>95.23</ele>
        <time>2015-06-19T10:13:43Z</time>
      </trkpt>
      <trkpt lat="36.178653" lon="-5.982065">
        <ele>95.21</ele>
        <time>2015-06-19T10:13:48Z</time>
      </trkpt>
      <trkpt lat="36.178674" lon="-5.982018">
        <ele>95.23</ele>
        <time>2015-06-19T10:13:52Z</time>
      </trkpt>
      <trkpt lat="36.178673" lon="-5.981990">
        <ele>95.28</ele>
        <time>2015-06-19T10:13:53Z</time>
      </trkpt>
      <trkpt lat="36.178665" lon="-5.981859">
        <ele>95.23</ele>
        <time>2015-06-19T10:13:59Z</time>
      </trkpt>
      <trkpt lat="36.178662" lon="-5.981807">
        <ele>95.21</ele>
        <time>2015-06-19T10:14:03Z</time>
      </trkpt>
      <trkpt lat="36.178643" lon="-5.981761">
        <ele>95.25</ele>
        <time>2015-06-19T10:14:06Z</time>
      </trkpt>
      <trkpt lat="36.178641" lon="-5.981669">
        <ele>95.24</ele>
        <time>2015-06-19T10:14:10Z</time>
      </trkpt>
      <trkpt lat="36.178636" lon="-5.981647">
        <ele>95.28</ele>
        <time>2015-06-19T10:14:11Z</time>
      </trkpt>
      <trkpt lat="36.178623" lon="-5.981555">
        <ele>95.24</ele>
        <time>2015-06-19T10:14:15Z</time>
      </trkpt>
      <trkpt lat="36.178616" lon="-5.981462">
        <ele>95.22</ele>
        <time>2015-06-19T10:14:18Z</time>
      </trkpt>
      <trkpt lat="36.178611" lon="-5.981262">
        <ele>95.21</ele>
        <time>2015-06-19T10:14:24Z</time>
      </trkpt>
      <trkpt lat="36.178700" lon="-5.981090">
        <ele>95.22</ele>
        <time>2015-06-19T10:14:30Z</time>
      </trkpt>
      <trkpt lat="36.178745" lon="-5.980927">
        <ele>95.25</ele>
        <time>2015-06-19T10:14:35Z</time>
      </trkpt>
      <trkpt lat="36.178795" lon="-5.980760">
        <ele>95.25</ele>
        <time>2015-06-19T10:14:40Z</time>
      </trkpt>
      <trkpt lat="36.178811" lon="-5.980555">
        <ele>95.27</ele>
        <time>2015-06-19T10:14:46Z</time>
      </trkpt>
      <trkpt lat="36.178825" lon="-5.980308">
        <ele>95.25</ele>
        <time>2015-06-19T10:14:54Z</time>
      </trkpt>
      <trkpt lat="36.178829" lon="-5.980165">
        <ele>95.21</ele>
        <time>2015-06-19T10:14:59Z</time>
      </trkpt>
      <trkpt lat="36.178853" lon="-5.980014">
        <ele>95.24</ele>
        <time>2015-06-19T10:15:04Z</time>
      </trkpt>
      <trkpt lat="36.178843" lon="-5.979837">
        <ele>95.21</ele>
        <time>2015-06-19T10:15:09Z</time>
      </trkpt>
      <trkpt lat="36.178830" lon="-5.979574">
        <ele>95.23</ele>
        <time>2015-06-19T10:15:17Z</time>
      </trkpt>
      <trkpt lat="36.178807" lon="-5.979443">
        <ele>95.20</ele>
        <time>2015-06-19T10:15:22Z</time>
      </trkpt>
      <trkpt lat="36.178793" lon="-5.979412">
        <ele>95.62</ele>
        <time>2015-06-19T10:15:23Z</time>
      </trkpt>
      <trkpt lat="36.178781" lon="-5.979384">
        <ele>96.01</ele>
        <time>2015-06-19T10:15:24Z</time>
      </trkpt>
      <trkpt lat="36.178770" lon="-5.979355">
        <ele>96.45</ele>
        <time>2015-06-19T10:15:25Z</time>
      </trkpt>
      <trkpt lat="36.178759" lon="-5.979328">
        <ele>96.84</ele>
        <time>2015-06-19T10:15:26Z</time>
      </trkpt>
      <trkpt lat="36.178756" lon="-5.979297">
        <ele>97.22</ele>
        <time>2015-06-19T10:15:27Z</time>
      </trkpt>
      <trkpt lat="36.178752" lon="-5.979233">
        <ele>97.28</ele>
        <time>2015-06-19T10:15:29Z</time>
      </trkpt>
      <trkpt lat="36.178753" lon="-5.978981">
        <ele>97.27</ele>
        <time>2015-06-19T10:15:36Z</time>
      </trkpt>
      <trkpt lat="36.178700" lon="-5.978744">
        <ele>97.23</ele>
        <time>2015-06-19T10:15:42Z</time>
      </trkpt>
      <trkpt lat="36.178693" lon="-5.978518">
        <ele>97.29</ele>
        <time>2015-06-19T10:15:47Z</time>
      </trkpt>
      <trkpt lat="36.178729" lon="-5.978289">
        <ele>97.27</ele>
        <time>2015-06-19T10:15:53Z</time>
      </trkpt>
      <trkpt lat="36.178716" lon="-5.978258">
        <ele>97.21</ele>
        <time>2015-06-19T10:15:54Z</time>
      </trkpt>
      <trkpt lat="36.178676" lon="-5.978161">
        <ele>97.25</ele>
        <time>2015-06-19T10:15:57Z</time>
      </trkpt>
      <trkpt lat="36.178622" lon="-5.977941">
        <ele>97.21</ele>
        <time>2015-06-19T10:16:02Z</time>
      </trkpt>
      <trkpt lat="36.178590" lon="-5.977667">
        <ele>97.21</ele>
        <time>2015-06-19T10:16:08Z</time>
      </trkpt>
      <trkpt lat="36.178581" lon="-5.977492">
        <ele>97.29</ele>
        <time>2015-06-19T10:16:13Z</time>
      </trkpt>
      <trkpt lat="36.178615" lon="-5.977265">
        <ele>97.28</ele>
        <time>2015-06-19T10:16:19Z</time>
      </trkpt>
      <trkpt lat="36.178609" lon="-5.977125">
        <ele>97.24</ele>
        <time>2015-06-19T10:16:23Z</time>
      </trkpt>
      <trkpt lat="36.178604" lon="-5.976931">
        <ele>97.26</ele>
        <time>2015-06-19T10:16:28Z</time>
      </trkpt>
      <trkpt lat="36.178613" lon="-5.976901">
        <ele>97.22</ele>
        <time>2015-06-19T10:16:29Z</time>
      </trkpt>
      <trkpt lat="36.178623" lon="-5.976823">
        <ele>97.24</ele>
        <time>2015-06-19T10:16:32Z</time>
      </trkpt>
      <trkpt lat="36.178654" lon="-5.976776">
        <ele>97.28</ele>
        <time>2015-06-19T10:16:38Z</time>
      </trkpt>
      <trkpt lat="36.178654" lon="-5.976776">
        <ele>97.21</ele>
        <time>2015-06-19T10:16:47Z</time>
      </trkpt>
      <trkpt lat="36.178654" lon="-5.976776">
        <ele>97.23</ele>
        <time>2015-06-19T10:16:51Z</time>
      </trkpt>
      <trkpt lat="36.178654" lon="-5.976776">
        <ele>97.27</ele>
        <time>2015-06-19T10:16:53Z</time>
      </trkpt>
      <trkpt lat="36.178654" lon="-5.976776">
        <ele>97.21</ele>
        <time>2015-06-19T10:17:00Z</time>
      </trkpt>
      <trkpt lat="36.178654" lon="-5.976776">
        <ele>97.21</ele>
        <time>2015-06-19T10:17:03Z</time>
      </trkpt>
      <trkpt lat="36.178654" lon="-5.976776">
        <ele>97.25</ele>
        <time>2015-06-19T10:17:06Z</time>
      </trkpt>
      <trkpt lat="36.178646" lon="-5.976752">
        <ele>97.22</ele>
        <time>2015-06-19T10:17:09Z</time>
      </trkpt>
      <trkpt lat="36.178641" lon="-5.976732">
        <ele>97.24</ele>
        <time>2015-06-19T10:17:10Z</time>
      </trkpt>
      <trkpt lat="36.178639" lon="-5.976708">
        <ele>97.29</ele>
        <time>2015-06-19T10:17:11Z</time>
      </trkpt>
      <trkpt lat="36.178615" lon="-5.976551">
        <ele>97.24</ele>
        <time>2015-06-19T10:17:15Z</time>
      </trkpt>
      <trkpt lat="36.178635" lon="-5.976440">
        <ele>97.23</ele>
        <time>2015-06-19T10:17:18Z</time>
      </trkpt>
      <trkpt lat="36.178638" lon="-5.976400">
        <ele>97.28</ele>
        <time>2015-06-19T10:17:19Z</time>
      </trkpt>
      <trkpt lat="36.178612" lon="-5.976152">
        <ele>97.27</ele>
        <time>2015-06-19T10:17:25Z</time>
      </trkpt>
      <trkpt lat="36.178578" lon="-5.976021">
        <ele>97.28</ele>
        <time>2015-06-19T10:17:30Z</time>
      </trkpt>
      <trkpt lat="36.178546" lon="-5.975895">
        <ele>97.26</ele>
        <time>2015-06-19T10:17:34Z</time>
      </trkpt>
      <trkpt lat="36.178546" lon="-5.975865">
        <ele>97.22</ele>
        <time>2015-06-19T10:17:35Z</time>
      </trkpt>
      <trkpt lat="36.178576" lon="-5.975726">
        <ele>97.21</ele>
        <time>2015-06-19T10:17:39Z</time>
      </trkpt>
      <trkpt lat="36.178577" lon="-5.975681">
        <ele>97.30</ele>
        <time>2015-06-19T10:17:40Z</time>
      </trkpt>
      <trkpt lat="36.178582" lon="-5.975486">
        <ele>97.25</ele>
        <time>2015-06-19T10:17:44Z</time>
      </trkpt>
      <trkpt lat="36.178556" lon="-5.975240">
        <ele>97.22</ele>
        <time>2015-06-19T10:17:50Z</time>
      </trkpt>
      <trkpt lat="36.178571" lon="-5.975016">
        <ele>97.23</ele>
        <time>2015-06-19T10:17:56Z</time>
      </trkpt>
      <trkpt lat="36.178630" lon="-5.974781">
        <ele>97.27</ele>
        <time>2015-06-19T10:18:02Z</time>
      </trkpt>
      <trkpt lat="36.178608" lon="-5.974636">
        <ele>97.24</ele>
        <time>2015-06-19T10:18:06Z</time>
      </trkpt>
      <trkpt lat="36.178576" lon="-5.974461">
        <ele>97.22</ele>
        <time>2015-06-19T10:18:11Z</time>
      </trkpt>
      <trkpt lat="36.178603" lon="-5.974250">
        <ele>97.21</ele>
        <time>2015-06-19T10:18:18Z</time>
      </trkpt>
      <trkpt lat="36.178651" lon="-5.974086">
        <ele>97.24</ele>
        <time>2015-06-19T10:18:24Z</time>
      </trkpt>
      <trkpt lat="36.178650" lon="-5.974045">
        <ele>97.61</ele>
        <time>2015-06-19T10:18:26Z</time>
      </trkpt>
      <trkpt lat="36.178655" lon="-5.974025">
        <ele>98.02</ele>
        <time>2015-06-19T10:18:27Z</time>
      </trkpt>
      <trkpt lat="36.178660" lon="-5.973998">
        <ele>98.41</ele>
        <time>2015-06-19T10:18:28Z</time>
      </trkpt>
      <trkpt lat="36.178657" lon="-5.973974">
        <ele>98.83</ele>
        <time>2015-06-19T10:18:29Z</time>
      </trkpt>
      <trkpt lat="36.178659" lon="-5.973951">
        <ele>99.25</ele>
        <time>2015-06-19T10:18:30Z</time>
      </trkpt>
      <trkpt lat="36.178664" lon="-5.973905">
        <ele>99.25</ele>
        <time>2015-06-19T10:18:33Z</time>
      </trkpt>
      <trkpt lat="36.178656" lon="-5.973863">
        <ele>99.23</ele>
        <time>2015-06-19T10:18:35Z</time>
      </trkpt>
      <trkpt lat="36.178666" lon="-5.973817">
        <ele>99.30</ele>
        <time>2015-06-19T10:18:37Z</time>
      </trkpt>
      <trkpt lat="36.178668" lon="-5.973753">
        <ele>99.23</ele>
        <time>2015-06-19T10:18:41Z</time>
      </trkpt>
      <trkpt lat="36.178659" lon="-5.973727">
        <ele>99.85</ele>
        <time>2015-06-19T10:18:42Z</time>
      </trkpt>
      <trkpt lat="36.178665" lon="-5.973711">
        <ele>100.28</ele>
        <time>2015-06-19T10:18:43Z</time>
      </trkpt>
      <trkpt lat="36.178667" lon="-5.973693">
        <ele>100.69</ele>
        <time>2015-06-19T10:18:44Z</time>
      </trkpt>
      <trkpt lat="36.178665" lon="-5.973681">
        <ele>101.46</ele>
        <time>2015-06-19T10:18:45Z</time>
      </trkpt>
      <trkpt lat="36.178652" lon="-5.973641">
        <ele>101.43</ele>
        <time>2015-06-19T10:18:47Z</time>
      </trkpt>
      <trkpt lat="36.178654" lon="-5.973565">
        <ele>101.41</ele>
        <time>2015-06-19T10:18:50Z</time>
      </trkpt>
      <trkpt lat="36.178716" lon="-5.973494">
        <ele>101.45</ele>
        <time>2015-06-19T10:18:55Z</time>
      </trkpt>
      <trkpt lat="36.178768" lon="-5.973440">
        <ele>101.83</ele>
        <time>2015-06-19T10:19:00Z</time>
      </trkpt>
      <trkpt lat="36.178778" lon="-5.973428">
        <ele>102.44</ele>
        <time>2015-06-19T10:19:01Z</time>
      </trkpt>
      <trkpt lat="36.178788" lon="-5.973418">
        <ele>102.82</ele>
        <time>2015-06-19T10:19:02Z</time>
      </trkpt>
      <trkpt lat="36.178796" lon="-5.973408">
        <ele>102.49</ele>
        <time>2015-06-19T10:19:03Z</time>
      </trkpt>
      <trkpt lat="36.178805" lon="-5.973392">
        <ele>102.43</ele>
        <time>2015-06-19T10:19:04Z</time>
      </trkpt>
      <trkpt lat="36.178813" lon="-5.973378">
        <ele>102.82</ele>
        <time>2015-06-19T10:19:05Z</time>
      </trkpt>
      <trkpt lat="36.178813" lon="-5.973363">
        <ele>104.03</ele>
        <time>2015-06-19T10:19:06Z</time>
      </trkpt>
      <trkpt lat="36.178820" lon="-5.973343">
        <ele>105.05</ele>
        <time>2015-06-19T10:19:07Z</time>
      </trkpt>
      <trkpt lat="36.178833" lon="-5.973323">
        <ele>105.20</ele>
        <time>2015-06-19T10:19:08Z</time>
      </trkpt>
      <trkpt lat="36.178848" lon="-5.973308">
        <ele>105.42</ele>
        <time>2015-06-19T10:19:09Z</time>
      </trkpt>
      <trkpt lat="36.178863" lon="-5.973297">
        <ele>105.61</ele>
        <time>2015-06-19T10:19:10Z</time>
      </trkpt>
      <trkpt lat="36.178876" lon="-5.973284">
        <ele>105.83</ele>
        <time>2015-06-19T10:19:11Z</time>
      </trkpt>
      <trkpt lat="36.178917" lon="-5.973247">
        <ele>105.83</ele>
        <time>2015-06-19T10:19:14Z</time>
      </trkpt>
      <trkpt lat="36.179001" lon="-5.973113">
        <ele>105.82</ele>
        <time>2015-06-19T10:19:20Z</time>
      </trkpt>
      <trkpt lat="36.179010" lon="-5.973026">
        <ele>105.83</ele>
        <time>2015-06-19T10:19:24Z</time>
      </trkpt>
      <trkpt lat="36.179010" lon="-5.973006">
        <ele>105.90</ele>
        <time>2015-06-19T10:19:25Z</time>
      </trkpt>
      <trkpt lat="36.179023" lon="-5.972888">
        <ele>105.81</ele>
        <time>2015-06-19T10:19:30Z</time>
      </trkpt>
      <trkpt lat="36.179031" lon="-5.972836">
        <ele>105.87</ele>
        <time>2015-06-19T10:19:34Z</time>
      </trkpt>
      <trkpt lat="36.179028" lon="-5.972829">
        <ele>105.84</ele>
        <time>2015-06-19T10:19:35Z</time>
      </trkpt>
      <trkpt lat="36.179029" lon="-5.972833">
        <ele>105.84</ele>
        <time>2015-06-19T10:19:41Z</time>
      </trkpt>
      <trkpt lat="36.179026" lon="-5.972832">
        <ele>105.81</ele>
        <time>2015-06-19T10:19:48Z</time>
      </trkpt>
      <trkpt lat="36.179026" lon="-5.972832">
        <ele>105.82</ele>
        <time>2015-06-19T10:19:50Z</time>
      </trkpt>
      <trkpt lat="36.179008" lon="-5.972835">
        <ele>105.81</ele>
        <time>2015-06-19T10:19:57Z</time>
      </trkpt>
      <trkpt lat="36.178988" lon="-5.972836">
        <ele>105.86</ele>
        <time>2015-06-19T10:19:59Z</time>
      </trkpt>
      <trkpt lat="36.178954" lon="-5.972820">
        <ele>105.86</ele>
        <time>2015-06-19T10:20:01Z</time>
      </trkpt>
      <trkpt lat="36.178898" lon="-5.972774">
        <ele>105.82</ele>
        <time>2015-06-19T10:20:04Z</time>
      </trkpt>
      <trkpt lat="36.178881" lon="-5.972719">
        <ele>105.85</ele>
        <time>2015-06-19T10:20:07Z</time>
      </trkpt>
      <trkpt lat="36.178874" lon="-5.972679">
        <ele>105.90</ele>
        <time>2015-06-19T10:20:09Z</time>
      </trkpt>
      <trkpt lat="36.178808" lon="-5.972636">
        <ele>105.85</ele>
        <time>2015-06-19T10:20:14Z</time>
      </trkpt>
      <trkpt lat="36.178789" lon="-5.972638">
        <ele>105.86</ele>
        <time>2015-06-19T10:20:16Z</time>
      </trkpt>
      <trkpt lat="36.178782" lon="-5.972631">
        <ele>105.83</ele>
        <time>2015-06-19T10:20:17Z</time>
      </trkpt>
      <trkpt lat="36.178760" lon="-5.972644">
        <ele>105.86</ele>
        <time>2015-06-19T10:20:19Z</time>
      </trkpt>
      <trkpt lat="36.178683" lon="-5.972707">
        <ele>105.84</ele>
        <time>2015-06-19T10:20:23Z</time>
      </trkpt>
      <trkpt lat="36.178681" lon="-5.972729">
        <ele>105.82</ele>
        <time>2015-06-19T10:20:24Z</time>
      </trkpt>
      <trkpt lat="36.178694" lon="-5.972780">
        <ele>105.81</ele>
        <time>2015-06-19T10:20:26Z</time>
      </trkpt>
      <trkpt lat="36.178694" lon="-5.972829">
        <ele>105.89</ele>
        <time>2015-06-19T10:20:30Z</time>
      </trkpt>
      <trkpt lat="36.178693" lon="-5.972834">
        <ele>105.88</ele>
        <time>2015-06-19T10:20:31Z</time>
      </trkpt>
      <trkpt lat="36.178692" lon="-5.972831">
        <ele>105.85</ele>
        <time>2015-06-19T10:20:38Z</time>
      </trkpt>
      <trkpt lat="36.178692" lon="-5.972831">
        <ele>105.89</ele>
        <time>2015-06-19T10:20:49Z</time>
      </trkpt>
      <trkpt lat="36.178692" lon="-5.972831">
        <ele>105.82</ele>
        <time>2015-06-19T10:20:53Z</time>
      </trkpt>
      <trkpt lat="36.178688" lon="-5.972822">
        <ele>105.82</ele>
        <time>2015-06-19T10:20:59Z</time>
      </trkpt>
      <trkpt lat="36.178690" lon="-5.972731">
        <ele>105.89</ele>
        <time>2015-06-19T10:21:05Z</time>
      </trkpt>
      <trkpt lat="36.178693" lon="-5.972711">
        <ele>105.83</ele>
        <time>2015-06-19T10:21:09Z</time>
      </trkpt>
      <trkpt lat="36.178693" lon="-5.972711">
        <ele>105.84</ele>
        <time>2015-06-19T10:21:11Z</time>
      </trkpt>
      <trkpt lat="36.178693" lon="-5.972711">
        <ele>105.86</ele>
        <time>2015-06-19T10:21:16Z</time>
      </trkpt>
      <trkpt lat="36.178698" lon="-5.972704">
        <ele>105.81</ele>
        <time>2015-06-19T10:21:17Z</time>
      </trkpt>
      <trkpt lat="36.178740" lon="-5.972677">
        <ele>105.81</ele>
        <time>2015-06-19T10:21:20Z</time>
      </trkpt>
      <trkpt lat="36.178748" lon="-5.972670">
        <ele>105.85</ele>
        <time>2015-06-19T10:21:21Z</time>
      </trkpt>
      <trkpt lat="36.178770" lon="-5.972658">
        <ele>105.84</ele>
        <time>2015-06-19T10:21:26Z</time>
      </trkpt>
      <trkpt lat="36.178779" lon="-5.972659">
        <ele>105.83</ele>
        <time>2015-06-19T10:21:28Z</time>
      </trkpt>
      <trkpt lat="36.178800" lon="-5.972644">
        <ele>105.81</ele>
        <time>2015-06-19T10:21:32Z</time>
      </trkpt>
      <trkpt lat="36.178837" lon="-5.972633">
        <ele>105.83</ele>
        <time>2015-06-19T10:21:37Z</time>
      </trkpt>
      <trkpt lat="36.178855" lon="-5.972635">
        <ele>105.87</ele>
        <time>2015-06-19T10:21:38Z</time>
      </trkpt>
      <trkpt lat="36.178919" lon="-5.972669">
        <ele>105.85</ele>
        <time>2015-06-19T10:21:42Z</time>
      </trkpt>
      <trkpt lat="36.178976" lon="-5.972749">
        <ele>105.82</ele>
        <time>2015-06-19T10:21:46Z</time>
      </trkpt>
      <trkpt lat="36.179014" lon="-5.972831">
        <ele>105.87</ele>
        <time>2015-06-19T10:21:49Z</time>
      </trkpt>
      <trkpt lat="36.178999" lon="-5.972874">
        <ele>105.84</ele>
        <time>2015-06-19T10:21:51Z</time>
      </trkpt>
      <trkpt lat="36.179004" lon="-5.972918">
        <ele>105.82</ele>
        <time>2015-06-19T10:21:54Z</time>
      </trkpt>
      <trkpt lat="36.179051" lon="-5.972908">
        <ele>105.81</ele>
        <time>2015-06-19T10:21:56Z</time>
      </trkpt>
      <trkpt lat="36.179091" lon="-5.972830">
        <ele>105.87</ele>
        <time>2015-06-19T10:22:00Z</time>
      </trkpt>
      <trkpt lat="36.179105" lon="-5.972803">
        <ele>105.81</ele>
        <time>2015-06-19T10:22:01Z</time>
      </trkpt>
      <trkpt lat="36.179186" lon="-5.972624">
        <ele>105.83</ele>
        <time>2015-06-19T10:22:06Z</time>
      </trkpt>
      <trkpt lat="36.179339" lon="-5.972249">
        <ele>105.88</ele>
        <time>2015-06-19T10:22:15Z</time>
      </trkpt>
      <trkpt lat="36.179401" lon="-5.972078">
        <ele>105.82</ele>
        <time>2015-06-19T10:22:20Z</time>
      </trkpt>
      <trkpt lat="36.179469" lon="-5.971800">
        <ele>105.83</ele>
        <time>2015-06-19T10:22:26Z</time>
      </trkpt>
      <trkpt lat="36.179571" lon="-5.971412">
        <ele>105.89</ele>
        <time>2015-06-19T10:22:34Z</time>
      </trkpt>
      <trkpt lat="36.179639" lon="-5.971153">
        <ele>105.81</ele>
        <time>2015-06-19T10:22:39Z</time>
      </trkpt>
      <trkpt lat="36.179655" lon="-5.971100">
        <ele>105.89</ele>
        <time>2015-06-19T10:22:40Z</time>
      </trkpt>
      <trkpt lat="36.179772" lon="-5.970695">
        <ele>105.86</ele>
        <time>2015-06-19T10:22:47Z</time>
      </trkpt>
      <trkpt lat="36.179893" lon="-5.970286">
        <ele>105.82</ele>
        <time>2015-06-19T10:22:54Z</time>
      </trkpt>
      <trkpt lat="36.179999" lon="-5.969956">
        <ele>105.81</ele>
        <time>2015-06-19T10:23:00Z</time>
      </trkpt>
      <trkpt lat="36.180034" lon="-5.969859">
        <ele>105.89</ele>
        <time>2015-06-19T10:23:02Z</time>
      </trkpt>
      <trkpt lat="36.180071" lon="-5.969768">
        <ele>105.85</ele>
        <time>2015-06-19T10:23:04Z</time>
      </trkpt>
      <trkpt lat="36.180122" lon="-5.969616">
        <ele>105.85</ele>
        <time>2015-06-19T10:23:07Z</time>
      </trkpt>
      <trkpt lat="36.180124" lon="-5.969563">
        <ele>105.90</ele>
        <time>2015-06-19T10:23:08Z</time>
      </trkpt>
      <trkpt lat="36.180158" lon="-5.969418">
        <ele>105.89</ele>
        <time>2015-06-19T10:23:11Z</time>
      </trkpt>
      <trkpt lat="36.180202" lon="-5.969221">
        <ele>105.88</ele>
        <time>2015-06-19T10:23:15Z</time>
      </trkpt>
      <trkpt lat="36.180263" lon="-5.968919">
        <ele>105.83</ele>
        <time>2015-06-19T10:23:21Z</time>
      </trkpt>
      <trkpt lat="36.180275" lon="-5.968871">
        <ele>105.81</ele>
        <time>2015-06-19T10:23:22Z</time>
      </trkpt>
      <trkpt lat="36.180360" lon="-5.968547">
        <ele>105.83</ele>
        <time>2015-06-19T10:23:28Z</time>
      </trkpt>
      <trkpt lat="36.180385" lon="-5.968439">
        <ele>105.87</ele>
        <time>2015-06-19T10:23:30Z</time>
      </trkpt>
      <trkpt lat="36.180487" lon="-5.968043">
        <ele>105.81</ele>
        <time>2015-06-19T10:23:36Z</time>
      </trkpt>
      <trkpt lat="36.180518" lon="-5.967904">
        <ele>105.41</ele>
        <time>2015-06-19T10:23:38Z</time>
      </trkpt>
      <trkpt lat="36.180541" lon="-5.967824">
        <ele>105.01</ele>
        <time>2015-06-19T10:23:39Z</time>
      </trkpt>
      <trkpt lat="36.180562" lon="-5.967743">
        <ele>104.68</ele>
        <time>2015-06-19T10:23:40Z</time>
      </trkpt>
      <trkpt lat="36.180587" lon="-5.967656">
        <ele>104.27</ele>
        <time>2015-06-19T10:23:41Z</time>
      </trkpt>
      <trkpt lat="36.180608" lon="-5.967571">
        <ele>103.86</ele>
        <time>2015-06-19T10:23:42Z</time>
      </trkpt>
      <trkpt lat="36.180663" lon="-5.967390">
        <ele>103.90</ele>
        <time>2015-06-19T10:23:44Z</time>
      </trkpt>
      <trkpt lat="36.180688" lon="-5.967313">
        <ele>103.46</ele>
        <time>2015-06-19T10:23:45Z</time>
      </trkpt>
      <trkpt lat="36.180705" lon="-5.967251">
        <ele>103.05</ele>
        <time>2015-06-19T10:23:46Z</time>
      </trkpt>
      <trkpt lat="36.180728" lon="-5.967181">
        <ele>102.67</ele>
        <time>2015-06-19T10:23:47Z</time>
      </trkpt>
      <trkpt lat="36.180753" lon="-5.967113">
        <ele>102.08</ele>
        <time>2015-06-19T10:23:48Z</time>
      </trkpt>
      <trkpt lat="36.180774" lon="-5.967045">
        <ele>101.64</ele>
        <time>2015-06-19T10:23:49Z</time>
      </trkpt>
      <trkpt lat="36.180830" lon="-5.966832">
        <ele>101.62</ele>
        <time>2015-06-19T10:23:52Z</time>
      </trkpt>
      <trkpt lat="36.180854" lon="-5.966698">
        <ele>101.61</ele>
        <time>2015-06-19T10:23:54Z</time>
      </trkpt>
      <trkpt lat="36.180875" lon="-5.966630">
        <ele>101.63</ele>
        <time>2015-06-19T10:23:55Z</time>
      </trkpt>
      <trkpt lat="36.180929" lon="-5.966494">
        <ele>101.69</ele>
        <time>2015-06-19T10:23:57Z</time>
      </trkpt>
      <trkpt lat="36.180989" lon="-5.966357">
        <ele>101.69</ele>
        <time>2015-06-19T10:23:59Z</time>
      </trkpt>
      <trkpt lat="36.181082" lon="-5.966070">
        <ele>101.26</ele>
        <time>2015-06-19T10:24:03Z</time>
      </trkpt>
      <trkpt lat="36.181102" lon="-5.965999">
        <ele>100.82</ele>
        <time>2015-06-19T10:24:04Z</time>
      </trkpt>
      <trkpt lat="36.181112" lon="-5.965926">
        <ele>100.48</ele>
        <time>2015-06-19T10:24:05Z</time>
      </trkpt>
      <trkpt lat="36.181123" lon="-5.965865">
        <ele>99.67</ele>
        <time>2015-06-19T10:24:06Z</time>
      </trkpt>
      <trkpt lat="36.181180" lon="-5.965565">
        <ele>99.03</ele>
        <time>2015-06-19T10:24:11Z</time>
      </trkpt>
      <trkpt lat="36.181181" lon="-5.965501">
        <ele>98.66</ele>
        <time>2015-06-19T10:24:12Z</time>
      </trkpt>
      <trkpt lat="36.181191" lon="-5.965456">
        <ele>98.25</ele>
        <time>2015-06-19T10:24:13Z</time>
      </trkpt>
      <trkpt lat="36.181199" lon="-5.965418">
        <ele>97.82</ele>
        <time>2015-06-19T10:24:14Z</time>
      </trkpt>
      <trkpt lat="36.181208" lon="-5.965387">
        <ele>97.41</ele>
        <time>2015-06-19T10:24:15Z</time>
      </trkpt>
      <trkpt lat="36.181216" lon="-5.965363">
        <ele>97.44</ele>
        <time>2015-06-19T10:24:16Z</time>
      </trkpt>
      <trkpt lat="36.181238" lon="-5.965284">
        <ele>97.47</ele>
        <time>2015-06-19T10:24:20Z</time>
      </trkpt>
      <trkpt lat="36.181244" lon="-5.965265">
        <ele>97.02</ele>
        <time>2015-06-19T10:24:21Z</time>
      </trkpt>
      <trkpt lat="36.181248" lon="-5.965250">
        <ele>96.63</ele>
        <time>2015-06-19T10:24:22Z</time>
      </trkpt>
      <trkpt lat="36.181248" lon="-5.965235">
        <ele>96.22</ele>
        <time>2015-06-19T10:24:23Z</time>
      </trkpt>
      <trkpt lat="36.181251" lon="-5.965221">
        <ele>95.85</ele>
        <time>2015-06-19T10:24:24Z</time>
      </trkpt>
      <trkpt lat="36.181255" lon="-5.965209">
        <ele>95.47</ele>
        <time>2015-06-19T10:24:25Z</time>
      </trkpt>
      <trkpt lat="36.181262" lon="-5.965157">
        <ele>95.46</ele>
        <time>2015-06-19T10:24:29Z</time>
      </trkpt>
      <trkpt lat="36.181267" lon="-5.965106">
        <ele>94.86</ele>
        <time>2015-06-19T10:24:32Z</time>
      </trkpt>
      <trkpt lat="36.181268" lon="-5.965093">
        <ele>94.48</ele>
        <time>2015-06-19T10:24:33Z</time>
      </trkpt>
      <trkpt lat="36.181271" lon="-5.965075">
        <ele>94.01</ele>
        <time>2015-06-19T10:24:34Z</time>
      </trkpt>
      <trkpt lat="36.181275" lon="-5.965056">
        <ele>93.61</ele>
        <time>2015-06-19T10:24:35Z</time>
      </trkpt>
      <trkpt lat="36.181279" lon="-5.965035">
        <ele>93.26</ele>
        <time>2015-06-19T10:24:36Z</time>
      </trkpt>
      <trkpt lat="36.181292" lon="-5.964866">
        <ele>93.24</ele>
        <time>2015-06-19T10:24:41Z</time>
      </trkpt>
      <trkpt lat="36.181300" lon="-5.964815">
        <ele>92.89</ele>
        <time>2015-06-19T10:24:42Z</time>
      </trkpt>
      <trkpt lat="36.181323" lon="-5.964754">
        <ele>92.42</ele>
        <time>2015-06-19T10:24:43Z</time>
      </trkpt>
      <trkpt lat="36.181348" lon="-5.964684">
        <ele>92.09</ele>
        <time>2015-06-19T10:24:44Z</time>
      </trkpt>
      <trkpt lat="36.181374" lon="-5.964609">
        <ele>91.67</ele>
        <time>2015-06-19T10:24:45Z</time>
      </trkpt>
      <trkpt lat="36.181405" lon="-5.964530">
        <ele>91.28</ele>
        <time>2015-06-19T10:24:46Z</time>
      </trkpt>
      <trkpt lat="36.181436" lon="-5.964449">
        <ele>90.66</ele>
        <time>2015-06-19T10:24:47Z</time>
      </trkpt>
      <trkpt lat="36.181464" lon="-5.964376">
        <ele>90.27</ele>
        <time>2015-06-19T10:24:48Z</time>
      </trkpt>
      <trkpt lat="36.181480" lon="-5.964296">
        <ele>89.80</ele>
        <time>2015-06-19T10:24:49Z</time>
      </trkpt>
      <trkpt lat="36.181496" lon="-5.964216">
        <ele>89.22</ele>
        <time>2015-06-19T10:24:50Z</time>
      </trkpt>
      <trkpt lat="36.181508" lon="-5.964145">
        <ele>88.81</ele>
        <time>2015-06-19T10:24:51Z</time>
      </trkpt>
      <trkpt lat="36.181515" lon="-5.964083">
        <ele>88.42</ele>
        <time>2015-06-19T10:24:52Z</time>
      </trkpt>
      <trkpt lat="36.181522" lon="-5.964023">
        <ele>87.87</ele>
        <time>2015-06-19T10:24:53Z</time>
      </trkpt>
      <trkpt lat="36.181534" lon="-5.963962">
        <ele>87.50</ele>
        <time>2015-06-19T10:24:54Z</time>
      </trkpt>
      <trkpt lat="36.181548" lon="-5.963899">
        <ele>86.43</ele>
        <time>2015-06-19T10:24:55Z</time>
      </trkpt>
      <trkpt lat="36.181561" lon="-5.963833">
        <ele>85.86</ele>
        <time>2015-06-19T10:24:56Z</time>
      </trkpt>
      <trkpt lat="36.181572" lon="-5.963770">
        <ele>85.49</ele>
        <time>2015-06-19T10:24:57Z</time>
      </trkpt>
      <trkpt lat="36.181581" lon="-5.963685">
        <ele>84.85</ele>
        <time>2015-06-19T10:24:58Z</time>
      </trkpt>
      <trkpt lat="36.181596" lon="-5.963539">
        <ele>84.48</ele>
        <time>2015-06-19T10:25:00Z</time>
      </trkpt>
      <trkpt lat="36.181606" lon="-5.963467">
        <ele>83.84</ele>
        <time>2015-06-19T10:25:01Z</time>
      </trkpt>
      <trkpt lat="36.181621" lon="-5.963391">
        <ele>83.46</ele>
        <time>2015-06-19T10:25:02Z</time>
      </trkpt>
      <trkpt lat="36.181639" lon="-5.963310">
        <ele>83.01</ele>
        <time>2015-06-19T10:25:03Z</time>
      </trkpt>
      <trkpt lat="36.181660" lon="-5.963228">
        <ele>82.41</ele>
        <time>2015-06-19T10:25:04Z</time>
      </trkpt>
      <trkpt lat="36.181680" lon="-5.963155">
        <ele>81.86</ele>
        <time>2015-06-19T10:25:05Z</time>
      </trkpt>
      <trkpt lat="36.181699" lon="-5.963091">
        <ele>81.46</ele>
        <time>2015-06-19T10:25:06Z</time>
      </trkpt>
      <trkpt lat="36.181716" lon="-5.963028">
        <ele>80.88</ele>
        <time>2015-06-19T10:25:07Z</time>
      </trkpt>
      <trkpt lat="36.181729" lon="-5.962966">
        <ele>80.23</ele>
        <time>2015-06-19T10:25:08Z</time>
      </trkpt>
      <trkpt lat="36.181739" lon="-5.962902">
        <ele>79.64</ele>
        <time>2015-06-19T10:25:09Z</time>
      </trkpt>
      <trkpt lat="36.181746" lon="-5.962836">
        <ele>78.83</ele>
        <time>2015-06-19T10:25:10Z</time>
      </trkpt>
      <trkpt lat="36.181751" lon="-5.962769">
        <ele>78.29</ele>
        <time>2015-06-19T10:25:11Z</time>
      </trkpt>
      <trkpt lat="36.181754" lon="-5.962699">
        <ele>77.64</ele>
        <time>2015-06-19T10:25:12Z</time>
      </trkpt>
      <trkpt lat="36.181763" lon="-5.962548">
        <ele>77.27</ele>
        <time>2015-06-19T10:25:14Z</time>
      </trkpt>
      <trkpt lat="36.181771" lon="-5.962470">
        <ele>76.88</ele>
        <time>2015-06-19T10:25:15Z</time>
      </trkpt>
      <trkpt lat="36.181780" lon="-5.962393">
        <ele>76.42</ele>
        <time>2015-06-19T10:25:16Z</time>
      </trkpt>
      <trkpt lat="36.181794" lon="-5.962315">
        <ele>75.81</ele>
        <time>2015-06-19T10:25:17Z</time>
      </trkpt>
      <trkpt lat="36.181813" lon="-5.962235">
        <ele>75.42</ele>
        <time>2015-06-19T10:25:18Z</time>
      </trkpt>
      <trkpt lat="36.181865" lon="-5.962073">
        <ele>75.41</ele>
        <time>2015-06-19T10:25:20Z</time>
      </trkpt>
      <trkpt lat="36.181912" lon="-5.961929">
        <ele>75.05</ele>
        <time>2015-06-19T10:25:22Z</time>
      </trkpt>
      <trkpt lat="36.181934" lon="-5.961863">
        <ele>74.64</ele>
        <time>2015-06-19T10:25:23Z</time>
      </trkpt>
      <trkpt lat="36.181954" lon="-5.961800">
        <ele>74.29</ele>
        <time>2015-06-19T10:25:24Z</time>
      </trkpt>
      <trkpt lat="36.181973" lon="-5.961736">
        <ele>73.64</ele>
        <time>2015-06-19T10:25:25Z</time>
      </trkpt>
      <trkpt lat="36.181991" lon="-5.961673">
        <ele>73.25</ele>
        <time>2015-06-19T10:25:26Z</time>
      </trkpt>
      <trkpt lat="36.182074" lon="-5.961363">
        <ele>73.29</ele>
        <time>2015-06-19T10:25:31Z</time>
      </trkpt>
      <trkpt lat="36.182164" lon="-5.961118">
        <ele>73.29</ele>
        <time>2015-06-19T10:25:35Z</time>
      </trkpt>
      <trkpt lat="36.182263" lon="-5.960889">
        <ele>73.22</ele>
        <time>2015-06-19T10:25:39Z</time>
      </trkpt>
      <trkpt lat="36.182349" lon="-5.960725">
        <ele>73.23</ele>
        <time>2015-06-19T10:25:42Z</time>
      </trkpt>
      <trkpt lat="36.182379" lon="-5.960667">
        <ele>73.21</ele>
        <time>2015-06-19T10:25:43Z</time>
      </trkpt>
      <trkpt lat="36.182498" lon="-5.960384">
        <ele>73.25</ele>
        <time>2015-06-19T10:25:48Z</time>
      </trkpt>
      <trkpt lat="36.182546" lon="-5.960272">
        <ele>73.28</ele>
        <time>2015-06-19T10:25:50Z</time>
      </trkpt>
      <trkpt lat="36.182593" lon="-5.960151">
        <ele>73.27</ele>
        <time>2015-06-19T10:25:52Z</time>
      </trkpt>
      <trkpt lat="36.182610" lon="-5.960090">
        <ele>72.83</ele>
        <time>2015-06-19T10:25:53Z</time>
      </trkpt>
      <trkpt lat="36.182626" lon="-5.960030">
        <ele>72.45</ele>
        <time>2015-06-19T10:25:54Z</time>
      </trkpt>
      <trkpt lat="36.182638" lon="-5.959972">
        <ele>71.85</ele>
        <time>2015-06-19T10:25:55Z</time>
      </trkpt>
      <trkpt lat="36.182643" lon="-5.959913">
        <ele>71.47</ele>
        <time>2015-06-19T10:25:56Z</time>
      </trkpt>
      <trkpt lat="36.182647" lon="-5.959851">
        <ele>71.01</ele>
        <time>2015-06-19T10:25:57Z</time>
      </trkpt>
      <trkpt lat="36.182655" lon="-5.959725">
        <ele>71.06</ele>
        <time>2015-06-19T10:25:59Z</time>
      </trkpt>
      <trkpt lat="36.182693" lon="-5.959481">
        <ele>70.65</ele>
        <time>2015-06-19T10:26:03Z</time>
      </trkpt>
      <trkpt lat="36.182705" lon="-5.959422">
        <ele>70.22</ele>
        <time>2015-06-19T10:26:04Z</time>
      </trkpt>
      <trkpt lat="36.182716" lon="-5.959360">
        <ele>69.81</ele>
        <time>2015-06-19T10:26:05Z</time>
      </trkpt>
      <trkpt lat="36.182725" lon="-5.959300">
        <ele>69.48</ele>
        <time>2015-06-19T10:26:06Z</time>
      </trkpt>
      <trkpt lat="36.182734" lon="-5.959239">
        <ele>69.04</ele>
        <time>2015-06-19T10:26:07Z</time>
      </trkpt>
      <trkpt lat="36.182740" lon="-5.959175">
        <ele>69.05</ele>
        <time>2015-06-19T10:26:08Z</time>
      </trkpt>
      <trkpt lat="36.182742" lon="-5.959110">
        <ele>68.47</ele>
        <time>2015-06-19T10:26:09Z</time>
      </trkpt>
      <trkpt lat="36.182743" lon="-5.959041">
        <ele>67.68</ele>
        <time>2015-06-19T10:26:10Z</time>
      </trkpt>
      <trkpt lat="36.182750" lon="-5.958967">
        <ele>67.02</ele>
        <time>2015-06-19T10:26:11Z</time>
      </trkpt>
      <trkpt lat="36.182765" lon="-5.958891">
        <ele>66.64</ele>
        <time>2015-06-19T10:26:12Z</time>
      </trkpt>
      <trkpt lat="36.182797" lon="-5.958732">
        <ele>66.63</ele>
        <time>2015-06-19T10:26:14Z</time>
      </trkpt>
      <trkpt lat="36.182800" lon="-5.958654">
        <ele>66.22</ele>
        <time>2015-06-19T10:26:15Z</time>
      </trkpt>
      <trkpt lat="36.182806" lon="-5.958576">
        <ele>65.80</ele>
        <time>2015-06-19T10:26:16Z</time>
      </trkpt>
      <trkpt lat="36.182824" lon="-5.958501">
        <ele>65.21</ele>
        <time>2015-06-19T10:26:17Z</time>
      </trkpt>
      <trkpt lat="36.182855" lon="-5.958430">
        <ele>64.81</ele>
        <time>2015-06-19T10:26:18Z</time>
      </trkpt>
      <trkpt lat="36.182892" lon="-5.958361">
        <ele>64.46</ele>
        <time>2015-06-19T10:26:19Z</time>
      </trkpt>
      <trkpt lat="36.182932" lon="-5.958292">
        <ele>64.45</ele>
        <time>2015-06-19T10:26:20Z</time>
      </trkpt>
      <trkpt lat="36.182970" lon="-5.958231">
        <ele>64.08</ele>
        <time>2015-06-19T10:26:21Z</time>
      </trkpt>
      <trkpt lat="36.183008" lon="-5.958168">
        <ele>63.66</ele>
        <time>2015-06-19T10:26:22Z</time>
      </trkpt>
      <trkpt lat="36.183043" lon="-5.958102">
        <ele>63.28</ele>
        <time>2015-06-19T10:26:23Z</time>
      </trkpt>
      <trkpt lat="36.183076" lon="-5.958032">
        <ele>62.86</ele>
        <time>2015-06-19T10:26:24Z</time>
      </trkpt>
      <trkpt lat="36.183109" lon="-5.957962">
        <ele>62.44</ele>
        <time>2015-06-19T10:26:25Z</time>
      </trkpt>
      <trkpt lat="36.183316" lon="-5.957486">
        <ele>62.48</ele>
        <time>2015-06-19T10:26:32Z</time>
      </trkpt>
      <trkpt lat="36.183490" lon="-5.957119">
        <ele>62.47</ele>
        <time>2015-06-19T10:26:39Z</time>
      </trkpt>
      <trkpt lat="36.183554" lon="-5.956996">
        <ele>62.41</ele>
        <time>2015-06-19T10:26:42Z</time>
      </trkpt>
      <trkpt lat="36.183663" lon="-5.956805">
        <ele>62.41</ele>
        <time>2015-06-19T10:26:47Z</time>
      </trkpt>
      <trkpt lat="36.183709" lon="-5.956701">
        <ele>62.41</ele>
        <time>2015-06-19T10:26:50Z</time>
      </trkpt>
      <trkpt lat="36.183765" lon="-5.956583">
        <ele>62.45</ele>
        <time>2015-06-19T10:26:54Z</time>
      </trkpt>
      <trkpt lat="36.183778" lon="-5.956552">
        <ele>62.42</ele>
        <time>2015-06-19T10:26:55Z</time>
      </trkpt>
      <trkpt lat="36.183800" lon="-5.956486">
        <ele>62.50</ele>
        <time>2015-06-19T10:26:57Z</time>
      </trkpt>
      <trkpt lat="36.183860" lon="-5.956298">
        <ele>62.47</ele>
        <time>2015-06-19T10:27:02Z</time>
      </trkpt>
      <trkpt lat="36.183893" lon="-5.956134">
        <ele>62.43</ele>
        <time>2015-06-19T10:27:06Z</time>
      </trkpt>
      <trkpt lat="36.183905" lon="-5.956014">
        <ele>62.43</ele>
        <time>2015-06-19T10:27:09Z</time>
      </trkpt>
      <trkpt lat="36.183909" lon="-5.955896">
        <ele>62.50</ele>
        <time>2015-06-19T10:27:12Z</time>
      </trkpt>
      <trkpt lat="36.183933" lon="-5.955724">
        <ele>62.47</ele>
        <time>2015-06-19T10:27:16Z</time>
      </trkpt>
      <trkpt lat="36.183992" lon="-5.955421">
        <ele>62.42</ele>
        <time>2015-06-19T10:27:21Z</time>
      </trkpt>
      <trkpt lat="36.184037" lon="-5.955181">
        <ele>62.04</ele>
        <time>2015-06-19T10:27:24Z</time>
      </trkpt>
      <trkpt lat="36.184050" lon="-5.955092">
        <ele>61.60</ele>
        <time>2015-06-19T10:27:25Z</time>
      </trkpt>
      <trkpt lat="36.184065" lon="-5.954998">
        <ele>61.21</ele>
        <time>2015-06-19T10:27:26Z</time>
      </trkpt>
      <trkpt lat="36.184083" lon="-5.954901">
        <ele>60.62</ele>
        <time>2015-06-19T10:27:27Z</time>
      </trkpt>
      <trkpt lat="36.184101" lon="-5.954801">
        <ele>60.29</ele>
        <time>2015-06-19T10:27:28Z</time>
      </trkpt>
      <trkpt lat="36.184121" lon="-5.954699">
        <ele>59.88</ele>
        <time>2015-06-19T10:27:29Z</time>
      </trkpt>
      <trkpt lat="36.184142" lon="-5.954590">
        <ele>59.47</ele>
        <time>2015-06-19T10:27:30Z</time>
      </trkpt>
      <trkpt lat="36.184164" lon="-5.954485">
        <ele>58.84</ele>
        <time>2015-06-19T10:27:31Z</time>
      </trkpt>
      <trkpt lat="36.184186" lon="-5.954387">
        <ele>58.47</ele>
        <time>2015-06-19T10:27:32Z</time>
      </trkpt>
      <trkpt lat="36.184208" lon="-5.954296">
        <ele>57.83</ele>
        <time>2015-06-19T10:27:33Z</time>
      </trkpt>
      <trkpt lat="36.184227" lon="-5.954207">
        <ele>57.42</ele>
        <time>2015-06-19T10:27:34Z</time>
      </trkpt>
      <trkpt lat="36.184246" lon="-5.954117">
        <ele>56.83</ele>
        <time>2015-06-19T10:27:35Z</time>
      </trkpt>
      <trkpt lat="36.184265" lon="-5.954026">
        <ele>56.22</ele>
        <time>2015-06-19T10:27:36Z</time>
      </trkpt>
      <trkpt lat="36.184282" lon="-5.953926">
        <ele>55.62</ele>
        <time>2015-06-19T10:27:37Z</time>
      </trkpt>
      <trkpt lat="36.184292" lon="-5.953831">
        <ele>55.01</ele>
        <time>2015-06-19T10:27:38Z</time>
      </trkpt>
      <trkpt lat="36.184303" lon="-5.953737">
        <ele>54.41</ele>
        <time>2015-06-19T10:27:39Z</time>
      </trkpt>
      <trkpt lat="36.184317" lon="-5.953641">
        <ele>54.02</ele>
        <time>2015-06-19T10:27:40Z</time>
      </trkpt>
      <trkpt lat="36.184336" lon="-5.953546">
        <ele>53.42</ele>
        <time>2015-06-19T10:27:41Z</time>
      </trkpt>
      <trkpt lat="36.184393" lon="-5.953360">
        <ele>52.88</ele>
        <time>2015-06-19T10:27:43Z</time>
      </trkpt>
      <trkpt lat="36.184418" lon="-5.953273">
        <ele>52.45</ele>
        <time>2015-06-19T10:27:44Z</time>
      </trkpt>
      <trkpt lat="36.184451" lon="-5.953204">
        <ele>52.03</ele>
        <time>2015-06-19T10:27:45Z</time>
      </trkpt>
      <trkpt lat="36.184479" lon="-5.953157">
        <ele>51.62</ele>
        <time>2015-06-19T10:27:46Z</time>
      </trkpt>
      <trkpt lat="36.184501" lon="-5.953122">
        <ele>51.09</ele>
        <time>2015-06-19T10:27:47Z</time>
      </trkpt>
      <trkpt lat="36.184523" lon="-5.953093">
        <ele>50.68</ele>
        <time>2015-06-19T10:27:48Z</time>
      </trkpt>
      <trkpt lat="36.184542" lon="-5.953068">
        <ele>49.63</ele>
        <time>2015-06-19T10:27:49Z</time>
      </trkpt>
      <trkpt lat="36.184561" lon="-5.953041">
        <ele>49.22</ele>
        <time>2015-06-19T10:27:50Z</time>
      </trkpt>
      <trkpt lat="36.184581" lon="-5.953012">
        <ele>48.81</ele>
        <time>2015-06-19T10:27:51Z</time>
      </trkpt>
      <trkpt lat="36.184646" lon="-5.952921">
        <ele>48.82</ele>
        <time>2015-06-19T10:27:54Z</time>
      </trkpt>
      <trkpt lat="36.184717" lon="-5.952829">
        <ele>48.85</ele>
        <time>2015-06-19T10:27:57Z</time>
      </trkpt>
      <trkpt lat="36.184823" lon="-5.952697">
        <ele>48.88</ele>
        <time>2015-06-19T10:28:01Z</time>
      </trkpt>
      <trkpt lat="36.184873" lon="-5.952630">
        <ele>48.87</ele>
        <time>2015-06-19T10:28:03Z</time>
      </trkpt>
      <trkpt lat="36.184939" lon="-5.952527">
        <ele>48.87</ele>
        <time>2015-06-19T10:28:06Z</time>
      </trkpt>
      <trkpt lat="36.185024" lon="-5.952358">
        <ele>48.85</ele>
        <time>2015-06-19T10:28:10Z</time>
      </trkpt>
      <trkpt lat="36.185233" lon="-5.951977">
        <ele>48.88</ele>
        <time>2015-06-19T10:28:18Z</time>
      </trkpt>
      <trkpt lat="36.185288" lon="-5.951883">
        <ele>48.88</ele>
        <time>2015-06-19T10:28:20Z</time>
      </trkpt>
      <trkpt lat="36.185350" lon="-5.951717">
        <ele>48.89</ele>
        <time>2015-06-19T10:28:23Z</time>
      </trkpt>
      <trkpt lat="36.185518" lon="-5.951287">
        <ele>48.81</ele>
        <time>2015-06-19T10:28:30Z</time>
      </trkpt>
      <trkpt lat="36.185599" lon="-5.950946">
        <ele>48.83</ele>
        <time>2015-06-19T10:28:36Z</time>
      </trkpt>
      <trkpt lat="36.185609" lon="-5.950895">
        <ele>48.81</ele>
        <time>2015-06-19T10:28:37Z</time>
      </trkpt>
      <trkpt lat="36.185710" lon="-5.950539">
        <ele>48.86</ele>
        <time>2015-06-19T10:28:44Z</time>
      </trkpt>
      <trkpt lat="36.185810" lon="-5.950312">
        <ele>48.84</ele>
        <time>2015-06-19T10:28:48Z</time>
      </trkpt>
      <trkpt lat="36.185841" lon="-5.950261">
        <ele>48.49</ele>
        <time>2015-06-19T10:28:49Z</time>
      </trkpt>
      <trkpt lat="36.185872" lon="-5.950211">
        <ele>48.04</ele>
        <time>2015-06-19T10:28:50Z</time>
      </trkpt>
      <trkpt lat="36.185900" lon="-5.950158">
        <ele>47.64</ele>
        <time>2015-06-19T10:28:51Z</time>
      </trkpt>
      <trkpt lat="36.185926" lon="-5.950105">
        <ele>47.27</ele>
        <time>2015-06-19T10:28:52Z</time>
      </trkpt>
      <trkpt lat="36.185951" lon="-5.950056">
        <ele>46.89</ele>
        <time>2015-06-19T10:28:53Z</time>
      </trkpt>
      <trkpt lat="36.186019" lon="-5.949924">
        <ele>46.83</ele>
        <time>2015-06-19T10:28:56Z</time>
      </trkpt>
      <trkpt lat="36.186058" lon="-5.949846">
        <ele>46.07</ele>
        <time>2015-06-19T10:28:58Z</time>
      </trkpt>
      <trkpt lat="36.186080" lon="-5.949809">
        <ele>45.24</ele>
        <time>2015-06-19T10:28:59Z</time>
      </trkpt>
      <trkpt lat="36.186103" lon="-5.949775">
        <ele>44.43</ele>
        <time>2015-06-19T10:29:00Z</time>
      </trkpt>
      <trkpt lat="36.186127" lon="-5.949741">
        <ele>45.01</ele>
        <time>2015-06-19T10:29:01Z</time>
      </trkpt>
      <trkpt lat="36.186152" lon="-5.949704">
        <ele>45.44</ele>
        <time>2015-06-19T10:29:02Z</time>
      </trkpt>
      <trkpt lat="36.186177" lon="-5.949670">
        <ele>46.44</ele>
        <time>2015-06-19T10:29:03Z</time>
      </trkpt>
      <trkpt lat="36.186203" lon="-5.949636">
        <ele>47.04</ele>
        <time>2015-06-19T10:29:04Z</time>
      </trkpt>
      <trkpt lat="36.186446" lon="-5.949348">
        <ele>47.02</ele>
        <time>2015-06-19T10:29:12Z</time>
      </trkpt>
      <trkpt lat="36.186584" lon="-5.949192">
        <ele>47.08</ele>
        <time>2015-06-19T10:29:18Z</time>
      </trkpt>
      <trkpt lat="36.186724" lon="-5.949073">
        <ele>47.04</ele>
        <time>2015-06-19T10:29:24Z</time>
      </trkpt>
      <trkpt lat="36.186784" lon="-5.949018">
        <ele>47.04</ele>
        <time>2015-06-19T10:29:27Z</time>
      </trkpt>
      <trkpt lat="36.186823" lon="-5.948941">
        <ele>47.07</ele>
        <time>2015-06-19T10:29:31Z</time>
      </trkpt>
      <trkpt lat="36.186835" lon="-5.948903">
        <ele>47.01</ele>
        <time>2015-06-19T10:29:33Z</time>
      </trkpt>
      <trkpt lat="36.186844" lon="-5.948885">
        <ele>47.42</ele>
        <time>2015-06-19T10:29:34Z</time>
      </trkpt>
      <trkpt lat="36.186853" lon="-5.948873">
        <ele>47.80</ele>
        <time>2015-06-19T10:29:35Z</time>
      </trkpt>
      <trkpt lat="36.186862" lon="-5.948863">
        <ele>48.21</ele>
        <time>2015-06-19T10:29:36Z</time>
      </trkpt>
      <trkpt lat="36.186872" lon="-5.948856">
        <ele>48.67</ele>
        <time>2015-06-19T10:29:37Z</time>
      </trkpt>
      <trkpt lat="36.186879" lon="-5.948851">
        <ele>49.09</ele>
        <time>2015-06-19T10:29:38Z</time>
      </trkpt>
      <trkpt lat="36.186886" lon="-5.948847">
        <ele>49.09</ele>
        <time>2015-06-19T10:29:40Z</time>
      </trkpt>
      <trkpt lat="36.186886" lon="-5.948847">
        <ele>49.03</ele>
        <time>2015-06-19T10:29:48Z</time>
      </trkpt>
      <trkpt lat="36.186886" lon="-5.948847">
        <ele>49.03</ele>
        <time>2015-06-19T10:29:51Z</time>
      </trkpt>
      <trkpt lat="36.186886" lon="-5.948847">
        <ele>49.07</ele>
        <time>2015-06-19T10:30:05Z</time>
      </trkpt>
      <trkpt lat="36.186886" lon="-5.948847">
        <ele>49.03</ele>
        <time>2015-06-19T10:30:14Z</time>
      </trkpt>
      <trkpt lat="36.186891" lon="-5.948851">
        <ele>49.09</ele>
        <time>2015-06-19T10:30:19Z</time>
      </trkpt>
      <trkpt lat="36.186891" lon="-5.948851">
        <ele>49.02</ele>
        <time>2015-06-19T10:30:24Z</time>
      </trkpt>
      <trkpt lat="36.186891" lon="-5.948851">
        <ele>49.04</ele>
        <time>2015-06-19T10:30:28Z</time>
      </trkpt>
      <trkpt lat="36.186891" lon="-5.948851">
        <ele>49.01</ele>
        <time>2015-06-19T10:30:29Z</time>
      </trkpt>
      <trkpt lat="36.186891" lon="-5.948851">
        <ele>49.01</ele>
        <time>2015-06-19T10:30:35Z</time>
      </trkpt>
      <trkpt lat="36.186891" lon="-5.948851">
        <ele>49.08</ele>
        <time>2015-06-19T10:30:44Z</time>
      </trkpt>
      <trkpt lat="36.186891" lon="-5.948851">
        <ele>49.02</ele>
        <time>2015-06-19T10:30:47Z</time>
      </trkpt>
      <trkpt lat="36.186897" lon="-5.948851">
        <ele>49.05</ele>
        <time>2015-06-19T10:31:01Z</time>
      </trkpt>
      <trkpt lat="36.186897" lon="-5.948851">
        <ele>49.04</ele>
        <time>2015-06-19T10:31:04Z</time>
      </trkpt>
      <trkpt lat="36.186914" lon="-5.948821">
        <ele>49.03</ele>
        <time>2015-06-19T10:31:12Z</time>
      </trkpt>
      <trkpt lat="36.186960" lon="-5.948765">
        <ele>49.04</ele>
        <time>2015-06-19T10:31:15Z</time>
      </trkpt>
      <trkpt lat="36.187002" lon="-5.948730">
        <ele>49.02</ele>
        <time>2015-06-19T10:31:17Z</time>
      </trkpt>
      <trkpt lat="36.187098" lon="-5.948630">
        <ele>49.06</ele>
        <time>2015-06-19T10:31:21Z</time>
      </trkpt>
      <trkpt lat="36.187122" lon="-5.948596">
        <ele>49.03</ele>
        <time>2015-06-19T10:31:22Z</time>
      </trkpt>
      <trkpt lat="36.187213" lon="-5.948454">
        <ele>49.07</ele>
        <time>2015-06-19T10:31:26Z</time>
      </trkpt>
      <trkpt lat="36.187303" lon="-5.948325">
        <ele>49.01</ele>
        <time>2015-06-19T10:31:30Z</time>
      </trkpt>
      <trkpt lat="36.187322" lon="-5.948291">
        <ele>49.01</ele>
        <time>2015-06-19T10:31:31Z</time>
      </trkpt>
      <trkpt lat="36.187401" lon="-5.948150">
        <ele>49.09</ele>
        <time>2015-06-19T10:31:35Z</time>
      </trkpt>
      <trkpt lat="36.187478" lon="-5.948017">
        <ele>49.02</ele>
        <time>2015-06-19T10:31:39Z</time>
      </trkpt>
      <trkpt lat="36.187497" lon="-5.947985">
        <ele>49.01</ele>
        <time>2015-06-19T10:31:40Z</time>
      </trkpt>
      <trkpt lat="36.187617" lon="-5.947782">
        <ele>49.09</ele>
        <time>2015-06-19T10:31:46Z</time>
      </trkpt>
      <trkpt lat="36.187644" lon="-5.947740">
        <ele>49.06</ele>
        <time>2015-06-19T10:31:47Z</time>
      </trkpt>
      <trkpt lat="36.187740" lon="-5.947596">
        <ele>49.44</ele>
        <time>2015-06-19T10:31:51Z</time>
      </trkpt>
      <trkpt lat="36.187762" lon="-5.947564">
        <ele>49.89</ele>
        <time>2015-06-19T10:31:52Z</time>
      </trkpt>
      <trkpt lat="36.187784" lon="-5.947531">
        <ele>50.23</ele>
        <time>2015-06-19T10:31:53Z</time>
      </trkpt>
      <trkpt lat="36.187806" lon="-5.947503">
        <ele>50.87</ele>
        <time>2015-06-19T10:31:54Z</time>
      </trkpt>
      <trkpt lat="36.187831" lon="-5.947477">
        <ele>51.27</ele>
        <time>2015-06-19T10:31:55Z</time>
      </trkpt>
      <trkpt lat="36.187992" lon="-5.947312">
        <ele>51.21</ele>
        <time>2015-06-19T10:32:01Z</time>
      </trkpt>
      <trkpt lat="36.188216" lon="-5.947095">
        <ele>51.21</ele>
        <time>2015-06-19T10:32:08Z</time>
      </trkpt>
      <trkpt lat="36.188358" lon="-5.946958">
        <ele>51.24</ele>
        <time>2015-06-19T10:32:12Z</time>
      </trkpt>
      <trkpt lat="36.188448" lon="-5.946838">
        <ele>51.29</ele>
        <time>2015-06-19T10:32:15Z</time>
      </trkpt>
      <trkpt lat="36.188523" lon="-5.946680">
        <ele>51.30</ele>
        <time>2015-06-19T10:32:19Z</time>
      </trkpt>
      <trkpt lat="36.188698" lon="-5.946453">
        <ele>51.70</ele>
        <time>2015-06-19T10:32:27Z</time>
      </trkpt>
      <trkpt lat="36.188724" lon="-5.946430">
        <ele>52.01</ele>
        <time>2015-06-19T10:32:28Z</time>
      </trkpt>
      <trkpt lat="36.188750" lon="-5.946408">
        <ele>52.49</ele>
        <time>2015-06-19T10:32:29Z</time>
      </trkpt>
      <trkpt lat="36.188774" lon="-5.946384">
        <ele>52.86</ele>
        <time>2015-06-19T10:32:30Z</time>
      </trkpt>
      <trkpt lat="36.188796" lon="-5.946362">
        <ele>53.28</ele>
        <time>2015-06-19T10:32:31Z</time>
      </trkpt>
      <trkpt lat="36.188892" lon="-5.946262">
        <ele>53.29</ele>
        <time>2015-06-19T10:32:35Z</time>
      </trkpt>
      <trkpt lat="36.189053" lon="-5.946101">
        <ele>53.26</ele>
        <time>2015-06-19T10:32:42Z</time>
      </trkpt>
      <trkpt lat="36.189114" lon="-5.946034">
        <ele>53.62</ele>
        <time>2015-06-19T10:32:45Z</time>
      </trkpt>
      <trkpt lat="36.189138" lon="-5.946017">
        <ele>54.41</ele>
        <time>2015-06-19T10:32:46Z</time>
      </trkpt>
      <trkpt lat="36.189162" lon="-5.946001">
        <ele>54.81</ele>
        <time>2015-06-19T10:32:47Z</time>
      </trkpt>
      <trkpt lat="36.189186" lon="-5.945985">
        <ele>55.49</ele>
        <time>2015-06-19T10:32:48Z</time>
      </trkpt>
      <trkpt lat="36.189253" lon="-5.945933">
        <ele>55.41</ele>
        <time>2015-06-19T10:32:51Z</time>
      </trkpt>
      <trkpt lat="36.189345" lon="-5.945832">
        <ele>55.87</ele>
        <time>2015-06-19T10:32:56Z</time>
      </trkpt>
      <trkpt lat="36.189358" lon="-5.945803">
        <ele>56.23</ele>
        <time>2015-06-19T10:32:57Z</time>
      </trkpt>
      <trkpt lat="36.189371" lon="-5.945775">
        <ele>56.66</ele>
        <time>2015-06-19T10:32:58Z</time>
      </trkpt>
      <trkpt lat="36.189384" lon="-5.945747">
        <ele>57.05</ele>
        <time>2015-06-19T10:32:59Z</time>
      </trkpt>
      <trkpt lat="36.189397" lon="-5.945719">
        <ele>57.42</ele>
        <time>2015-06-19T10:33:00Z</time>
      </trkpt>
      <trkpt lat="36.189440" lon="-5.945563">
        <ele>57.49</ele>
        <time>2015-06-19T10:33:05Z</time>
      </trkpt>
      <trkpt lat="36.189464" lon="-5.945466">
        <ele>57.88</ele>
        <time>2015-06-19T10:33:08Z</time>
      </trkpt>
      <trkpt lat="36.189471" lon="-5.945433">
        <ele>58.22</ele>
        <time>2015-06-19T10:33:09Z</time>
      </trkpt>
      <trkpt lat="36.189477" lon="-5.945399">
        <ele>58.61</ele>
        <time>2015-06-19T10:33:10Z</time>
      </trkpt>
      <trkpt lat="36.189481" lon="-5.945365">
        <ele>59.66</ele>
        <time>2015-06-19T10:33:11Z</time>
      </trkpt>
      <trkpt lat="36.189489" lon="-5.945331">
        <ele>59.63</ele>
        <time>2015-06-19T10:33:12Z</time>
      </trkpt>
      <trkpt lat="36.189546" lon="-5.945088">
        <ele>59.69</ele>
        <time>2015-06-19T10:33:19Z</time>
      </trkpt>
      <trkpt lat="36.189632" lon="-5.944855">
        <ele>59.69</ele>
        <time>2015-06-19T10:33:25Z</time>
      </trkpt>
      <trkpt lat="36.189736" lon="-5.944607">
        <ele>59.61</ele>
        <time>2015-06-19T10:33:31Z</time>
      </trkpt>
      <trkpt lat="36.189811" lon="-5.944471">
        <ele>59.65</ele>
        <time>2015-06-19T10:33:35Z</time>
      </trkpt>
      <trkpt lat="36.189833" lon="-5.944444">
        <ele>59.68</ele>
        <time>2015-06-19T10:33:36Z</time>
      </trkpt>
      <trkpt lat="36.190033" lon="-5.944195">
        <ele>59.64</ele>
        <time>2015-06-19T10:33:44Z</time>
      </trkpt>
      <trkpt lat="36.190100" lon="-5.944109">
        <ele>60.09</ele>
        <time>2015-06-19T10:33:47Z</time>
      </trkpt>
      <trkpt lat="36.190117" lon="-5.944083">
        <ele>60.44</ele>
        <time>2015-06-19T10:33:48Z</time>
      </trkpt>
      <trkpt lat="36.190132" lon="-5.944056">
        <ele>60.83</ele>
        <time>2015-06-19T10:33:49Z</time>
      </trkpt>
      <trkpt lat="36.190144" lon="-5.944033">
        <ele>61.21</ele>
        <time>2015-06-19T10:33:50Z</time>
      </trkpt>
      <trkpt lat="36.190158" lon="-5.944007">
        <ele>61.68</ele>
        <time>2015-06-19T10:33:51Z</time>
      </trkpt>
      <trkpt lat="36.190240" lon="-5.943845">
        <ele>61.66</ele>
        <time>2015-06-19T10:33:57Z</time>
      </trkpt>
      <trkpt lat="36.190300" lon="-5.943727">
        <ele>62.04</ele>
        <time>2015-06-19T10:34:01Z</time>
      </trkpt>
      <trkpt lat="36.190313" lon="-5.943703">
        <ele>62.43</ele>
        <time>2015-06-19T10:34:02Z</time>
      </trkpt>
      <trkpt lat="36.190320" lon="-5.943679">
        <ele>62.87</ele>
        <time>2015-06-19T10:34:03Z</time>
      </trkpt>
      <trkpt lat="36.190329" lon="-5.943653">
        <ele>63.48</ele>
        <time>2015-06-19T10:34:04Z</time>
      </trkpt>
      <trkpt lat="36.190346" lon="-5.943633">
        <ele>63.90</ele>
        <time>2015-06-19T10:34:05Z</time>
      </trkpt>
      <trkpt lat="36.190418" lon="-5.943606">
        <ele>63.89</ele>
        <time>2015-06-19T10:34:08Z</time>
      </trkpt>
      <trkpt lat="36.190576" lon="-5.943516">
        <ele>63.83</ele>
        <time>2015-06-19T10:34:16Z</time>
      </trkpt>
      <trkpt lat="36.190549" lon="-5.943432">
        <ele>63.85</ele>
        <time>2015-06-19T10:34:19Z</time>
      </trkpt>
      <trkpt lat="36.190526" lon="-5.943389">
        <ele>63.81</ele>
        <time>2015-06-19T10:34:20Z</time>
      </trkpt>
      <trkpt lat="36.190436" lon="-5.943233">
        <ele>63.81</ele>
        <time>2015-06-19T10:34:23Z</time>
      </trkpt>
      <trkpt lat="36.190334" lon="-5.943029">
        <ele>63.86</ele>
        <time>2015-06-19T10:34:26Z</time>
      </trkpt>
      <trkpt lat="36.190269" lon="-5.942858">
        <ele>63.89</ele>
        <time>2015-06-19T10:34:28Z</time>
      </trkpt>
      <trkpt lat="36.190161" lon="-5.942586">
        <ele>63.24</ele>
        <time>2015-06-19T10:34:31Z</time>
      </trkpt>
      <trkpt lat="36.190121" lon="-5.942492">
        <ele>62.86</ele>
        <time>2015-06-19T10:34:32Z</time>
      </trkpt>
      <trkpt lat="36.190080" lon="-5.942396">
        <ele>62.44</ele>
        <time>2015-06-19T10:34:33Z</time>
      </trkpt>
      <trkpt lat="36.190033" lon="-5.942301">
        <ele>62.10</ele>
        <time>2015-06-19T10:34:34Z</time>
      </trkpt>
      <trkpt lat="36.189981" lon="-5.942203">
        <ele>61.44</ele>
        <time>2015-06-19T10:34:35Z</time>
      </trkpt>
      <trkpt lat="36.189917" lon="-5.942101">
        <ele>61.09</ele>
        <time>2015-06-19T10:34:36Z</time>
      </trkpt>
      <trkpt lat="36.189845" lon="-5.942012">
        <ele>60.68</ele>
        <time>2015-06-19T10:34:37Z</time>
      </trkpt>
      <trkpt lat="36.189768" lon="-5.941925">
        <ele>60.20</ele>
        <time>2015-06-19T10:34:38Z</time>
      </trkpt>
      <trkpt lat="36.189688" lon="-5.941837">
        <ele>59.63</ele>
        <time>2015-06-19T10:34:39Z</time>
      </trkpt>
      <trkpt lat="36.189603" lon="-5.941751">
        <ele>59.01</ele>
        <time>2015-06-19T10:34:40Z</time>
      </trkpt>
      <trkpt lat="36.189515" lon="-5.941665">
        <ele>58.42</ele>
        <time>2015-06-19T10:34:41Z</time>
      </trkpt>
      <trkpt lat="36.189423" lon="-5.941579">
        <ele>57.86</ele>
        <time>2015-06-19T10:34:42Z</time>
      </trkpt>
      <trkpt lat="36.189333" lon="-5.941492">
        <ele>57.09</ele>
        <time>2015-06-19T10:34:43Z</time>
      </trkpt>
      <trkpt lat="36.189244" lon="-5.941391">
        <ele>56.28</ele>
        <time>2015-06-19T10:34:44Z</time>
      </trkpt>
      <trkpt lat="36.189166" lon="-5.941282">
        <ele>55.48</ele>
        <time>2015-06-19T10:34:45Z</time>
      </trkpt>
      <trkpt lat="36.189093" lon="-5.941165">
        <ele>54.86</ele>
        <time>2015-06-19T10:34:46Z</time>
      </trkpt>
      <trkpt lat="36.189026" lon="-5.941040">
        <ele>54.10</ele>
        <time>2015-06-19T10:34:47Z</time>
      </trkpt>
      <trkpt lat="36.188966" lon="-5.940907">
        <ele>53.42</ele>
        <time>2015-06-19T10:34:48Z</time>
      </trkpt>
      <trkpt lat="36.188908" lon="-5.940773">
        <ele>52.88</ele>
        <time>2015-06-19T10:34:49Z</time>
      </trkpt>
      <trkpt lat="36.188850" lon="-5.940636">
        <ele>51.66</ele>
        <time>2015-06-19T10:34:50Z</time>
      </trkpt>
      <trkpt lat="36.188787" lon="-5.940495">
        <ele>50.82</ele>
        <time>2015-06-19T10:34:51Z</time>
      </trkpt>
      <trkpt lat="36.188720" lon="-5.940348">
        <ele>50.01</ele>
        <time>2015-06-19T10:34:52Z</time>
      </trkpt>
      <trkpt lat="36.188656" lon="-5.940207">
        <ele>49.04</ele>
        <time>2015-06-19T10:34:53Z</time>
      </trkpt>
      <trkpt lat="36.188590" lon="-5.940064">
        <ele>48.30</ele>
        <time>2015-06-19T10:34:54Z</time>
      </trkpt>
      <trkpt lat="36.188524" lon="-5.939918">
        <ele>47.49</ele>
        <time>2015-06-19T10:34:55Z</time>
      </trkpt>
      <trkpt lat="36.188461" lon="-5.939771">
        <ele>46.67</ele>
        <time>2015-06-19T10:34:56Z</time>
      </trkpt>
      <trkpt lat="36.188398" lon="-5.939624">
        <ele>45.82</ele>
        <time>2015-06-19T10:34:57Z</time>
      </trkpt>
      <trkpt lat="36.188334" lon="-5.939478">
        <ele>44.88</ele>
        <time>2015-06-19T10:34:58Z</time>
      </trkpt>
      <trkpt lat="36.188271" lon="-5.939332">
        <ele>44.02</ele>
        <time>2015-06-19T10:34:59Z</time>
      </trkpt>
      <trkpt lat="36.188205" lon="-5.939179">
        <ele>43.02</ele>
        <time>2015-06-19T10:35:00Z</time>
      </trkpt>
      <trkpt lat="36.188142" lon="-5.939034">
        <ele>41.83</ele>
        <time>2015-06-19T10:35:01Z</time>
      </trkpt>
      <trkpt lat="36.188079" lon="-5.938893">
        <ele>40.80</ele>
        <time>2015-06-19T10:35:02Z</time>
      </trkpt>
      <trkpt lat="36.188012" lon="-5.938756">
        <ele>39.82</ele>
        <time>2015-06-19T10:35:03Z</time>
      </trkpt>
      <trkpt lat="36.187941" lon="-5.938626">
        <ele>38.61</ele>
        <time>2015-06-19T10:35:04Z</time>
      </trkpt>
      <trkpt lat="36.187864" lon="-5.938503">
        <ele>37.63</ele>
        <time>2015-06-19T10:35:05Z</time>
      </trkpt>
      <trkpt lat="36.187779" lon="-5.938377">
        <ele>36.63</ele>
        <time>2015-06-19T10:35:06Z</time>
      </trkpt>
      <trkpt lat="36.187689" lon="-5.938266">
        <ele>35.81</ele>
        <time>2015-06-19T10:35:07Z</time>
      </trkpt>
      <trkpt lat="36.187596" lon="-5.938163">
        <ele>34.83</ele>
        <time>2015-06-19T10:35:08Z</time>
      </trkpt>
      <trkpt lat="36.187496" lon="-5.938072">
        <ele>33.87</ele>
        <time>2015-06-19T10:35:09Z</time>
      </trkpt>
      <trkpt lat="36.187393" lon="-5.937988">
        <ele>32.89</ele>
        <time>2015-06-19T10:35:10Z</time>
      </trkpt>
      <trkpt lat="36.187288" lon="-5.937910">
        <ele>31.82</ele>
        <time>2015-06-19T10:35:11Z</time>
      </trkpt>
      <trkpt lat="36.187181" lon="-5.937839">
        <ele>30.86</ele>
        <time>2015-06-19T10:35:12Z</time>
      </trkpt>
      <trkpt lat="36.187074" lon="-5.937771">
        <ele>30.05</ele>
        <time>2015-06-19T10:35:13Z</time>
      </trkpt>
      <trkpt lat="36.186972" lon="-5.937703">
        <ele>29.03</ele>
        <time>2015-06-19T10:35:14Z</time>
      </trkpt>
      <trkpt lat="36.186869" lon="-5.937622">
        <ele>27.42</ele>
        <time>2015-06-19T10:35:15Z</time>
      </trkpt>
      <trkpt lat="36.186776" lon="-5.937539">
        <ele>26.41</ele>
        <time>2015-06-19T10:35:16Z</time>
      </trkpt>
      <trkpt lat="36.186688" lon="-5.937450">
        <ele>25.68</ele>
        <time>2015-06-19T10:35:17Z</time>
      </trkpt>
      <trkpt lat="36.186602" lon="-5.937358">
        <ele>25.26</ele>
        <time>2015-06-19T10:35:18Z</time>
      </trkpt>
      <trkpt lat="36.186520" lon="-5.937262">
        <ele>24.89</ele>
        <time>2015-06-19T10:35:19Z</time>
      </trkpt>
      <trkpt lat="36.186442" lon="-5.937158">
        <ele>24.23</ele>
        <time>2015-06-19T10:35:20Z</time>
      </trkpt>
      <trkpt lat="36.186376" lon="-5.937051">
        <ele>23.65</ele>
        <time>2015-06-19T10:35:21Z</time>
      </trkpt>
      <trkpt lat="36.186318" lon="-5.936940">
        <ele>22.88</ele>
        <time>2015-06-19T10:35:22Z</time>
      </trkpt>
      <trkpt lat="36.186272" lon="-5.936822">
        <ele>22.26</ele>
        <time>2015-06-19T10:35:23Z</time>
      </trkpt>
      <trkpt lat="36.186234" lon="-5.936703">
        <ele>21.49</ele>
        <time>2015-06-19T10:35:24Z</time>
      </trkpt>
      <trkpt lat="36.186202" lon="-5.936585">
        <ele>20.69</ele>
        <time>2015-06-19T10:35:25Z</time>
      </trkpt>
      <trkpt lat="36.186158" lon="-5.936359">
        <ele>20.68</ele>
        <time>2015-06-19T10:35:27Z</time>
      </trkpt>
      <trkpt lat="36.186152" lon="-5.936246">
        <ele>20.22</ele>
        <time>2015-06-19T10:35:28Z</time>
      </trkpt>
      <trkpt lat="36.186157" lon="-5.936134">
        <ele>19.81</ele>
        <time>2015-06-19T10:35:29Z</time>
      </trkpt>
      <trkpt lat="36.186172" lon="-5.936015">
        <ele>19.46</ele>
        <time>2015-06-19T10:35:30Z</time>
      </trkpt>
      <trkpt lat="36.186192" lon="-5.935910">
        <ele>19.09</ele>
        <time>2015-06-19T10:35:31Z</time>
      </trkpt>
      <trkpt lat="36.186217" lon="-5.935812">
        <ele>18.62</ele>
        <time>2015-06-19T10:35:32Z</time>
      </trkpt>
      <trkpt lat="36.186243" lon="-5.935720">
        <ele>18.10</ele>
        <time>2015-06-19T10:35:33Z</time>
      </trkpt>
      <trkpt lat="36.186269" lon="-5.935631">
        <ele>17.62</ele>
        <time>2015-06-19T10:35:34Z</time>
      </trkpt>
      <trkpt lat="36.186293" lon="-5.935544">
        <ele>17.09</ele>
        <time>2015-06-19T10:35:35Z</time>
      </trkpt>
      <trkpt lat="36.186312" lon="-5.935464">
        <ele>16.49</ele>
        <time>2015-06-19T10:35:36Z</time>
      </trkpt>
      <trkpt lat="36.186332" lon="-5.935388">
        <ele>16.03</ele>
        <time>2015-06-19T10:35:37Z</time>
      </trkpt>
      <trkpt lat="36.186354" lon="-5.935316">
        <ele>15.70</ele>
        <time>2015-06-19T10:35:38Z</time>
      </trkpt>
      <trkpt lat="36.186376" lon="-5.935248">
        <ele>14.83</ele>
        <time>2015-06-19T10:35:39Z</time>
      </trkpt>
      <trkpt lat="36.186395" lon="-5.935185">
        <ele>14.42</ele>
        <time>2015-06-19T10:35:40Z</time>
      </trkpt>
      <trkpt lat="36.186455" lon="-5.934969">
        <ele>14.41</ele>
        <time>2015-06-19T10:35:44Z</time>
      </trkpt>
      <trkpt lat="36.186492" lon="-5.934822">
        <ele>14.45</ele>
        <time>2015-06-19T10:35:47Z</time>
      </trkpt>
      <trkpt lat="36.186508" lon="-5.934776">
        <ele>14.07</ele>
        <time>2015-06-19T10:35:48Z</time>
      </trkpt>
      <trkpt lat="36.186525" lon="-5.934730">
        <ele>13.64</ele>
        <time>2015-06-19T10:35:49Z</time>
      </trkpt>
      <trkpt lat="36.186541" lon="-5.934682">
        <ele>13.24</ele>
        <time>2015-06-19T10:35:50Z</time>
      </trkpt>
      <trkpt lat="36.186554" lon="-5.934634">
        <ele>12.84</ele>
        <time>2015-06-19T10:35:51Z</time>
      </trkpt>
      <trkpt lat="36.186566" lon="-5.934587">
        <ele>12.41</ele>
        <time>2015-06-19T10:35:52Z</time>
      </trkpt>
      <trkpt lat="36.186598" lon="-5.934447">
        <ele>12.49</ele>
        <time>2015-06-19T10:35:55Z</time>
      </trkpt>
      <trkpt lat="36.186618" lon="-5.934358">
        <ele>12.47</ele>
        <time>2015-06-19T10:35:57Z</time>
      </trkpt>
      <trkpt lat="36.186666" lon="-5.934147">
        <ele>12.45</ele>
        <time>2015-06-19T10:36:02Z</time>
      </trkpt>
      <trkpt lat="36.186694" lon="-5.934021">
        <ele>12.49</ele>
        <time>2015-06-19T10:36:05Z</time>
      </trkpt>
      <trkpt lat="36.186724" lon="-5.933849">
        <ele>12.42</ele>
        <time>2015-06-19T10:36:09Z</time>
      </trkpt>
      <trkpt lat="36.186760" lon="-5.933673">
        <ele>12.41</ele>
        <time>2015-06-19T10:36:13Z</time>
      </trkpt>
      <trkpt lat="36.186767" lon="-5.933628">
        <ele>12.48</ele>
        <time>2015-06-19T10:36:14Z</time>
      </trkpt>
      <trkpt lat="36.186812" lon="-5.933358">
        <ele>12.46</ele>
        <time>2015-06-19T10:36:20Z</time>
      </trkpt>
      <trkpt lat="36.186819" lon="-5.933309">
        <ele>12.47</ele>
        <time>2015-06-19T10:36:21Z</time>
      </trkpt>
      <trkpt lat="36.186836" lon="-5.933207">
        <ele>12.85</ele>
        <time>2015-06-19T10:36:23Z</time>
      </trkpt>
      <trkpt lat="36.186845" lon="-5.933157">
        <ele>13.30</ele>
        <time>2015-06-19T10:36:24Z</time>
      </trkpt>
      <trkpt lat="36.186851" lon="-5.933107">
        <ele>13.69</ele>
        <time>2015-06-19T10:36:25Z</time>
      </trkpt>
      <trkpt lat="36.186858" lon="-5.933055">
        <ele>14.09</ele>
        <time>2015-06-19T10:36:26Z</time>
      </trkpt>
      <trkpt lat="36.186865" lon="-5.933004">
        <ele>14.43</ele>
        <time>2015-06-19T10:36:27Z</time>
      </trkpt>
      <trkpt lat="36.186883" lon="-5.932846">
        <ele>14.47</ele>
        <time>2015-06-19T10:36:30Z</time>
      </trkpt>
      <trkpt lat="36.186927" lon="-5.932355">
        <ele>14.47</ele>
        <time>2015-06-19T10:36:39Z</time>
      </trkpt>
      <trkpt lat="36.186958" lon="-5.931887">
        <ele>14.41</ele>
        <time>2015-06-19T10:36:47Z</time>
      </trkpt>
      <trkpt lat="36.186971" lon="-5.931611">
        <ele>14.41</ele>
        <time>2015-06-19T10:36:52Z</time>
      </trkpt>
      <trkpt lat="36.186987" lon="-5.931451">
        <ele>14.43</ele>
        <time>2015-06-19T10:36:55Z</time>
      </trkpt>
      <trkpt lat="36.186995" lon="-5.931080">
        <ele>14.45</ele>
        <time>2015-06-19T10:37:02Z</time>
      </trkpt>
      <trkpt lat="36.187002" lon="-5.930973">
        <ele>14.49</ele>
        <time>2015-06-19T10:37:04Z</time>
      </trkpt>
      <trkpt lat="36.187018" lon="-5.930713">
        <ele>14.47</ele>
        <time>2015-06-19T10:37:09Z</time>
      </trkpt>
      <trkpt lat="36.187023" lon="-5.930564">
        <ele>14.07</ele>
        <time>2015-06-19T10:37:12Z</time>
      </trkpt>
      <trkpt lat="36.187025" lon="-5.930513">
        <ele>13.67</ele>
        <time>2015-06-19T10:37:13Z</time>
      </trkpt>
      <trkpt lat="36.187024" lon="-5.930462">
        <ele>13.22</ele>
        <time>2015-06-19T10:37:14Z</time>
      </trkpt>
      <trkpt lat="36.187023" lon="-5.930411">
        <ele>12.88</ele>
        <time>2015-06-19T10:37:15Z</time>
      </trkpt>
      <trkpt lat="36.187024" lon="-5.930361">
        <ele>12.46</ele>
        <time>2015-06-19T10:37:16Z</time>
      </trkpt>
      <trkpt lat="36.187036" lon="-5.930060">
        <ele>12.40</ele>
        <time>2015-06-19T10:37:22Z</time>
      </trkpt>
      <trkpt lat="36.187033" lon="-5.930009">
        <ele>12.42</ele>
        <time>2015-06-19T10:37:23Z</time>
      </trkpt>
      <trkpt lat="36.187012" lon="-5.929645">
        <ele>12.41</ele>
        <time>2015-06-19T10:37:30Z</time>
      </trkpt>
      <trkpt lat="36.187002" lon="-5.929591">
        <ele>12.49</ele>
        <time>2015-06-19T10:37:31Z</time>
      </trkpt>
      <trkpt lat="36.186964" lon="-5.929442">
        <ele>12.42</ele>
        <time>2015-06-19T10:37:34Z</time>
      </trkpt>
      <trkpt lat="36.186955" lon="-5.929392">
        <ele>12.50</ele>
        <time>2015-06-19T10:37:35Z</time>
      </trkpt>
      <trkpt lat="36.186933" lon="-5.929029">
        <ele>12.48</ele>
        <time>2015-06-19T10:37:42Z</time>
      </trkpt>
      <trkpt lat="36.186892" lon="-5.928562">
        <ele>12.45</ele>
        <time>2015-06-19T10:37:51Z</time>
      </trkpt>
      <trkpt lat="36.186872" lon="-5.928339">
        <ele>12.44</ele>
        <time>2015-06-19T10:37:56Z</time>
      </trkpt>
      <trkpt lat="36.186856" lon="-5.928226">
        <ele>11.86</ele>
        <time>2015-06-19T10:37:59Z</time>
      </trkpt>
      <trkpt lat="36.186852" lon="-5.928187">
        <ele>11.45</ele>
        <time>2015-06-19T10:38:00Z</time>
      </trkpt>
      <trkpt lat="36.186848" lon="-5.928150">
        <ele>11.06</ele>
        <time>2015-06-19T10:38:01Z</time>
      </trkpt>
      <trkpt lat="36.186845" lon="-5.928115">
        <ele>10.42</ele>
        <time>2015-06-19T10:38:02Z</time>
      </trkpt>
      <trkpt lat="36.186842" lon="-5.928081">
        <ele>5.01</ele>
        <time>2015-06-19T10:38:03Z</time>
      </trkpt>
      <trkpt lat="36.186836" lon="-5.927978">
        <ele>5.81</ele>
        <time>2015-06-19T10:38:06Z</time>
      </trkpt>
      <trkpt lat="36.186799" lon="-5.927655">
        <ele>5.83</ele>
        <time>2015-06-19T10:38:14Z</time>
      </trkpt>
      <trkpt lat="36.186788" lon="-5.927335">
        <ele>5.88</ele>
        <time>2015-06-19T10:38:21Z</time>
      </trkpt>
      <trkpt lat="36.186780" lon="-5.926957">
        <ele>5.86</ele>
        <time>2015-06-19T10:38:29Z</time>
      </trkpt>
      <trkpt lat="36.186730" lon="-5.926593">
        <ele>5.86</ele>
        <time>2015-06-19T10:38:37Z</time>
      </trkpt>
      <trkpt lat="36.186689" lon="-5.926123">
        <ele>5.86</ele>
        <time>2015-06-19T10:38:47Z</time>
      </trkpt>
      <trkpt lat="36.186674" lon="-5.925801">
        <ele>5.89</ele>
        <time>2015-06-19T10:38:54Z</time>
      </trkpt>
      <trkpt lat="36.186679" lon="-5.925708">
        <ele>5.87</ele>
        <time>2015-06-19T10:38:56Z</time>
      </trkpt>
      <trkpt lat="36.186695" lon="-5.925391">
        <ele>5.83</ele>
        <time>2015-06-19T10:39:03Z</time>
      </trkpt>
      <trkpt lat="36.186698" lon="-5.925063">
        <ele>5.89</ele>
        <time>2015-06-19T10:39:10Z</time>
      </trkpt>
      <trkpt lat="36.186740" lon="-5.924808">
        <ele>5.86</ele>
        <time>2015-06-19T10:39:16Z</time>
      </trkpt>
      <trkpt lat="36.186838" lon="-5.924524">
        <ele>5.83</ele>
        <time>2015-06-19T10:39:23Z</time>
      </trkpt>
      <trkpt lat="36.187013" lon="-5.924221">
        <ele>5.81</ele>
        <time>2015-06-19T10:39:31Z</time>
      </trkpt>
      <trkpt lat="36.187138" lon="-5.924066">
        <ele>6.30</ele>
        <time>2015-06-19T10:39:36Z</time>
      </trkpt>
      <trkpt lat="36.187168" lon="-5.924039">
        <ele>6.88</ele>
        <time>2015-06-19T10:39:37Z</time>
      </trkpt>
      <trkpt lat="36.187198" lon="-5.924011">
        <ele>7.28</ele>
        <time>2015-06-19T10:39:38Z</time>
      </trkpt>
      <trkpt lat="36.187226" lon="-5.923979">
        <ele>7.82</ele>
        <time>2015-06-19T10:39:39Z</time>
      </trkpt>
      <trkpt lat="36.187252" lon="-5.923947">
        <ele>8.29</ele>
        <time>2015-06-19T10:39:40Z</time>
      </trkpt>
      <trkpt lat="36.187359" lon="-5.923833">
        <ele>8.21</ele>
        <time>2015-06-19T10:39:44Z</time>
      </trkpt>
      <trkpt lat="36.187546" lon="-5.923628">
        <ele>8.22</ele>
        <time>2015-06-19T10:39:51Z</time>
      </trkpt>
      <trkpt lat="36.187708" lon="-5.923503">
        <ele>8.26</ele>
        <time>2015-06-19T10:39:57Z</time>
      </trkpt>
      <trkpt lat="36.187915" lon="-5.923334">
        <ele>8.29</ele>
        <time>2015-06-19T10:40:04Z</time>
      </trkpt>
      <trkpt lat="36.188115" lon="-5.923105">
        <ele>8.24</ele>
        <time>2015-06-19T10:40:11Z</time>
      </trkpt>
      <trkpt lat="36.188312" lon="-5.922902">
        <ele>8.23</ele>
        <time>2015-06-19T10:40:17Z</time>
      </trkpt>
      <trkpt lat="36.188392" lon="-5.922851">
        <ele>8.21</ele>
        <time>2015-06-19T10:40:19Z</time>
      </trkpt>
      <trkpt lat="36.188667" lon="-5.922626">
        <ele>8.26</ele>
        <time>2015-06-19T10:40:27Z</time>
      </trkpt>
      <trkpt lat="36.188916" lon="-5.922353">
        <ele>8.24</ele>
        <time>2015-06-19T10:40:35Z</time>
      </trkpt>
      <trkpt lat="36.188997" lon="-5.922259">
        <ele>8.88</ele>
        <time>2015-06-19T10:40:38Z</time>
      </trkpt>
      <trkpt lat="36.189021" lon="-5.922233">
        <ele>9.29</ele>
        <time>2015-06-19T10:40:39Z</time>
      </trkpt>
      <trkpt lat="36.189042" lon="-5.922207">
        <ele>9.65</ele>
        <time>2015-06-19T10:40:40Z</time>
      </trkpt>
      <trkpt lat="36.189065" lon="-5.922181">
        <ele>10.07</ele>
        <time>2015-06-19T10:40:41Z</time>
      </trkpt>
      <trkpt lat="36.189090" lon="-5.922153">
        <ele>10.50</ele>
        <time>2015-06-19T10:40:42Z</time>
      </trkpt>
      <trkpt lat="36.189237" lon="-5.922013">
        <ele>10.43</ele>
        <time>2015-06-19T10:40:47Z</time>
      </trkpt>
      <trkpt lat="36.189470" lon="-5.921829">
        <ele>10.46</ele>
        <time>2015-06-19T10:40:54Z</time>
      </trkpt>
      <trkpt lat="36.189756" lon="-5.921644">
        <ele>10.48</ele>
        <time>2015-06-19T10:41:02Z</time>
      </trkpt>
      <trkpt lat="36.189995" lon="-5.921463">
        <ele>10.41</ele>
        <time>2015-06-19T10:41:09Z</time>
      </trkpt>
      <trkpt lat="36.190155" lon="-5.921342">
        <ele>10.41</ele>
        <time>2015-06-19T10:41:14Z</time>
      </trkpt>
      <trkpt lat="36.190231" lon="-5.921277">
        <ele>10.50</ele>
        <time>2015-06-19T10:41:18Z</time>
      </trkpt>
      <trkpt lat="36.190243" lon="-5.921265">
        <ele>10.44</ele>
        <time>2015-06-19T10:41:19Z</time>
      </trkpt>
      <trkpt lat="36.190326" lon="-5.921228">
        <ele>10.45</ele>
        <time>2015-06-19T10:41:25Z</time>
      </trkpt>
      <trkpt lat="36.190435" lon="-5.921096">
        <ele>10.48</ele>
        <time>2015-06-19T10:41:30Z</time>
      </trkpt>
      <trkpt lat="36.190497" lon="-5.921040">
        <ele>10.41</ele>
        <time>2015-06-19T10:41:32Z</time>
      </trkpt>
      <trkpt lat="36.190582" lon="-5.920947">
        <ele>10.44</ele>
        <time>2015-06-19T10:41:35Z</time>
      </trkpt>
      <trkpt lat="36.190591" lon="-5.920920">
        <ele>10.47</ele>
        <time>2015-06-19T10:41:36Z</time>
      </trkpt>
      <trkpt lat="36.190594" lon="-5.920844">
        <ele>10.49</ele>
        <time>2015-06-19T10:41:39Z</time>
      </trkpt>
      <trkpt lat="36.190583" lon="-5.920778">
        <ele>10.42</ele>
        <time>2015-06-19T10:41:42Z</time>
      </trkpt>
      <trkpt lat="36.190528" lon="-5.920671">
        <ele>10.48</ele>
        <time>2015-06-19T10:41:46Z</time>
      </trkpt>
      <trkpt lat="36.190445" lon="-5.920483">
        <ele>10.41</ele>
        <time>2015-06-19T10:41:53Z</time>
      </trkpt>
      <trkpt lat="36.190423" lon="-5.920310">
        <ele>10.41</ele>
        <time>2015-06-19T10:41:58Z</time>
      </trkpt>
      <trkpt lat="36.190365" lon="-5.920101">
        <ele>10.46</ele>
        <time>2015-06-19T10:42:02Z</time>
      </trkpt>
      <trkpt lat="36.190350" lon="-5.920040">
        <ele>10.43</ele>
        <time>2015-06-19T10:42:03Z</time>
      </trkpt>
      <trkpt lat="36.190324" lon="-5.919705">
        <ele>10.47</ele>
        <time>2015-06-19T10:42:09Z</time>
      </trkpt>
      <trkpt lat="36.190319" lon="-5.919650">
        <ele>10.45</ele>
        <time>2015-06-19T10:42:10Z</time>
      </trkpt>
      <trkpt lat="36.190308" lon="-5.919544">
        <ele>10.86</ele>
        <time>2015-06-19T10:42:12Z</time>
      </trkpt>
      <trkpt lat="36.190300" lon="-5.919496">
        <ele>11.22</ele>
        <time>2015-06-19T10:42:13Z</time>
      </trkpt>
      <trkpt lat="36.190288" lon="-5.919443">
        <ele>11.64</ele>
        <time>2015-06-19T10:42:14Z</time>
      </trkpt>
      <trkpt lat="36.190272" lon="-5.919386">
        <ele>12.02</ele>
        <time>2015-06-19T10:42:15Z</time>
      </trkpt>
      <trkpt lat="36.190261" lon="-5.919339">
        <ele>12.44</ele>
        <time>2015-06-19T10:42:16Z</time>
      </trkpt>
      <trkpt lat="36.190138" lon="-5.919029">
        <ele>12.42</ele>
        <time>2015-06-19T10:42:21Z</time>
      </trkpt>
      <trkpt lat="36.190124" lon="-5.918972">
        <ele>12.42</ele>
        <time>2015-06-19T10:42:22Z</time>
      </trkpt>
      <trkpt lat="36.190078" lon="-5.918816">
        <ele>12.41</ele>
        <time>2015-06-19T10:42:25Z</time>
      </trkpt>
      <trkpt lat="36.190031" lon="-5.918662">
        <ele>12.47</ele>
        <time>2015-06-19T10:42:28Z</time>
      </trkpt>
      <trkpt lat="36.189899" lon="-5.918260">
        <ele>12.47</ele>
        <time>2015-06-19T10:42:36Z</time>
      </trkpt>
      <trkpt lat="36.189851" lon="-5.918186">
        <ele>12.46</ele>
        <time>2015-06-19T10:42:38Z</time>
      </trkpt>
      <trkpt lat="36.189776" lon="-5.917978">
        <ele>12.49</ele>
        <time>2015-06-19T10:42:43Z</time>
      </trkpt>
      <trkpt lat="36.189687" lon="-5.917750">
        <ele>12.04</ele>
        <time>2015-06-19T10:42:47Z</time>
      </trkpt>
      <trkpt lat="36.189647" lon="-5.917672">
        <ele>11.68</ele>
        <time>2015-06-19T10:42:48Z</time>
      </trkpt>
      <trkpt lat="36.189620" lon="-5.917597">
        <ele>11.26</ele>
        <time>2015-06-19T10:42:49Z</time>
      </trkpt>
      <trkpt lat="36.189619" lon="-5.917565">
        <ele>10.66</ele>
        <time>2015-06-19T10:42:50Z</time>
      </trkpt>
      <trkpt lat="36.189626" lon="-5.917533">
        <ele>10.23</ele>
        <time>2015-06-19T10:42:51Z</time>
      </trkpt>
      <trkpt lat="36.189715" lon="-5.917425">
        <ele>10.23</ele>
        <time>2015-06-19T10:42:54Z</time>
      </trkpt>
      <trkpt lat="36.189931" lon="-5.917268">
        <ele>10.21</ele>
        <time>2015-06-19T10:42:59Z</time>
      </trkpt>
      <trkpt lat="36.190216" lon="-5.917060">
        <ele>10.21</ele>
        <time>2015-06-19T10:43:06Z</time>
      </trkpt>
      <trkpt lat="36.190494" lon="-5.916920">
        <ele>9.86</ele>
        <time>2015-06-19T10:43:12Z</time>
      </trkpt>
      <trkpt lat="36.190537" lon="-5.916896">
        <ele>9.50</ele>
        <time>2015-06-19T10:43:13Z</time>
      </trkpt>
      <trkpt lat="36.190577" lon="-5.916869">
        <ele>9.04</ele>
        <time>2015-06-19T10:43:14Z</time>
      </trkpt>
      <trkpt lat="36.190619" lon="-5.916842">
        <ele>8.66</ele>
        <time>2015-06-19T10:43:16Z</time>
      </trkpt>
      <trkpt lat="36.190664" lon="-5.916824">
        <ele>8.24</ele>
        <time>2015-06-19T10:43:17Z</time>
      </trkpt>
      <trkpt lat="36.190752" lon="-5.916793">
        <ele>8.23</ele>
        <time>2015-06-19T10:43:19Z</time>
      </trkpt>
      <trkpt lat="36.191021" lon="-5.916728">
        <ele>8.25</ele>
        <time>2015-06-19T10:43:25Z</time>
      </trkpt>
      <trkpt lat="36.191066" lon="-5.916726">
        <ele>8.26</ele>
        <time>2015-06-19T10:43:26Z</time>
      </trkpt>
      <trkpt lat="36.191221" lon="-5.916710">
        <ele>7.88</ele>
        <time>2015-06-19T10:43:30Z</time>
      </trkpt>
      <trkpt lat="36.191245" lon="-5.916680">
        <ele>7.23</ele>
        <time>2015-06-19T10:43:31Z</time>
      </trkpt>
      <trkpt lat="36.191264" lon="-5.916655">
        <ele>6.82</ele>
        <time>2015-06-19T10:43:32Z</time>
      </trkpt>
      <trkpt lat="36.191254" lon="-5.916629">
        <ele>6.41</ele>
        <time>2015-06-19T10:43:33Z</time>
      </trkpt>
      <trkpt lat="36.191227" lon="-5.916608">
        <ele>5.90</ele>
        <time>2015-06-19T10:43:34Z</time>
      </trkpt>
      <trkpt lat="36.191157" lon="-5.916593">
        <ele>5.82</ele>
        <time>2015-06-19T10:43:36Z</time>
      </trkpt>
      <trkpt lat="36.191117" lon="-5.916589">
        <ele>5.87</ele>
        <time>2015-06-19T10:43:37Z</time>
      </trkpt>
      <trkpt lat="36.190985" lon="-5.916561">
        <ele>5.82</ele>
        <time>2015-06-19T10:43:41Z</time>
      </trkpt>
      <trkpt lat="36.190925" lon="-5.916490">
        <ele>5.82</ele>
        <time>2015-06-19T10:43:44Z</time>
      </trkpt>
      <trkpt lat="36.190920" lon="-5.916452">
        <ele>5.82</ele>
        <time>2015-06-19T10:43:45Z</time>
      </trkpt>
      <trkpt lat="36.190956" lon="-5.916264">
        <ele>5.82</ele>
        <time>2015-06-19T10:43:49Z</time>
      </trkpt>
      <trkpt lat="36.190989" lon="-5.916222">
        <ele>5.85</ele>
        <time>2015-06-19T10:43:50Z</time>
      </trkpt>
      <trkpt lat="36.191074" lon="-5.916177">
        <ele>5.89</ele>
        <time>2015-06-19T10:43:52Z</time>
      </trkpt>
      <trkpt lat="36.191200" lon="-5.916164">
        <ele>5.87</ele>
        <time>2015-06-19T10:43:55Z</time>
      </trkpt>
      <trkpt lat="36.191285" lon="-5.916133">
        <ele>5.82</ele>
        <time>2015-06-19T10:43:57Z</time>
      </trkpt>
      <trkpt lat="36.191375" lon="-5.916094">
        <ele>5.41</ele>
        <time>2015-06-19T10:43:59Z</time>
      </trkpt>
      <trkpt lat="36.191423" lon="-5.916067">
        <ele>5.07</ele>
        <time>2015-06-19T10:44:00Z</time>
      </trkpt>
      <trkpt lat="36.191472" lon="-5.916052">
        <ele>4.69</ele>
        <time>2015-06-19T10:44:01Z</time>
      </trkpt>
      <trkpt lat="36.191520" lon="-5.916044">
        <ele>3.87</ele>
        <time>2015-06-19T10:44:02Z</time>
      </trkpt>
      <trkpt lat="36.191568" lon="-5.916028">
        <ele>3.04</ele>
        <time>2015-06-19T10:44:03Z</time>
      </trkpt>
      <trkpt lat="36.191614" lon="-5.916008">
        <ele>2.25</ele>
        <time>2015-06-19T10:44:04Z</time>
      </trkpt>
      <trkpt lat="36.191659" lon="-5.915989">
        <ele>1.45</ele>
        <time>2015-06-19T10:44:05Z</time>
      </trkpt>
      <trkpt lat="36.191704" lon="-5.915972">
        <ele>0.89</ele>
        <time>2015-06-19T10:44:06Z</time>
      </trkpt>
      <trkpt lat="36.191849" lon="-5.915901">
        <ele>1.26</ele>
        <time>2015-06-19T10:44:10Z</time>
      </trkpt>
      <trkpt lat="36.191883" lon="-5.915880">
        <ele>1.63</ele>
        <time>2015-06-19T10:44:11Z</time>
      </trkpt>
      <trkpt lat="36.191910" lon="-5.915862">
        <ele>2.06</ele>
        <time>2015-06-19T10:44:12Z</time>
      </trkpt>
      <trkpt lat="36.191949" lon="-5.915834">
        <ele>2.41</ele>
        <time>2015-06-19T10:44:13Z</time>
      </trkpt>
      <trkpt lat="36.191979" lon="-5.915812">
        <ele>3.01</ele>
        <time>2015-06-19T10:44:14Z</time>
      </trkpt>
      <trkpt lat="36.192011" lon="-5.915793">
        <ele>3.44</ele>
        <time>2015-06-19T10:44:15Z</time>
      </trkpt>
      <trkpt lat="36.192042" lon="-5.915772">
        <ele>4.04</ele>
        <time>2015-06-19T10:44:16Z</time>
      </trkpt>
      <trkpt lat="36.192076" lon="-5.915753">
        <ele>4.42</ele>
        <time>2015-06-19T10:44:17Z</time>
      </trkpt>
      <trkpt lat="36.192111" lon="-5.915734">
        <ele>5.04</ele>
        <time>2015-06-19T10:44:18Z</time>
      </trkpt>
      <trkpt lat="36.192144" lon="-5.915713">
        <ele>5.02</ele>
        <time>2015-06-19T10:44:19Z</time>
      </trkpt>
      <trkpt lat="36.192292" lon="-5.915629">
        <ele>5.08</ele>
        <time>2015-06-19T10:44:23Z</time>
      </trkpt>
      <trkpt lat="36.192333" lon="-5.915619">
        <ele>4.67</ele>
        <time>2015-06-19T10:44:24Z</time>
      </trkpt>
      <trkpt lat="36.192375" lon="-5.915603">
        <ele>4.27</ele>
        <time>2015-06-19T10:44:25Z</time>
      </trkpt>
      <trkpt lat="36.192420" lon="-5.915590">
        <ele>3.84</ele>
        <time>2015-06-19T10:44:26Z</time>
      </trkpt>
      <trkpt lat="36.192463" lon="-5.915578">
        <ele>3.42</ele>
        <time>2015-06-19T10:44:27Z</time>
      </trkpt>
      <trkpt lat="36.192506" lon="-5.915563">
        <ele>3.02</ele>
        <time>2015-06-19T10:44:28Z</time>
      </trkpt>
      <trkpt lat="36.192617" lon="-5.915508">
        <ele>3.01</ele>
        <time>2015-06-19T10:44:31Z</time>
      </trkpt>
      <trkpt lat="36.192855" lon="-5.915412">
        <ele>3.02</ele>
        <time>2015-06-19T10:44:38Z</time>
      </trkpt>
      <trkpt lat="36.193113" lon="-5.915301">
        <ele>3.02</ele>
        <time>2015-06-19T10:44:45Z</time>
      </trkpt>
      <trkpt lat="36.193188" lon="-5.915274">
        <ele>3.06</ele>
        <time>2015-06-19T10:44:49Z</time>
      </trkpt>
      <trkpt lat="36.193218" lon="-5.915274">
        <ele>3.04</ele>
        <time>2015-06-19T10:44:52Z</time>
      </trkpt>
      <trkpt lat="36.193208" lon="-5.915286">
        <ele>3.07</ele>
        <time>2015-06-19T10:44:54Z</time>
      </trkpt>
      <trkpt lat="36.193137" lon="-5.915302">
        <ele>3.06</ele>
        <time>2015-06-19T10:44:59Z</time>
      </trkpt>
      <trkpt lat="36.193120" lon="-5.915305">
        <ele>3.04</ele>
        <time>2015-06-19T10:45:00Z</time>
      </trkpt>
      <trkpt lat="36.193084" lon="-5.915312">
        <ele>3.07</ele>
        <time>2015-06-19T10:45:02Z</time>
      </trkpt>
      <trkpt lat="36.193059" lon="-5.915333">
        <ele>3.09</ele>
        <time>2015-06-19T10:45:06Z</time>
      </trkpt>
      <trkpt lat="36.193072" lon="-5.915331">
        <ele>3.04</ele>
        <time>2015-06-19T10:45:09Z</time>
      </trkpt>
      <trkpt lat="36.193076" lon="-5.915330">
        <ele>3.03</ele>
        <time>2015-06-19T10:45:10Z</time>
      </trkpt>
      <trkpt lat="36.193076" lon="-5.915330">
        <ele>3.01</ele>
        <time>2015-06-19T10:45:12Z</time>
      </trkpt>
      <trkpt lat="36.193076" lon="-5.915330">
        <ele>3.04</ele>
        <time>2015-06-19T10:45:14Z</time>
      </trkpt>
      <trkpt lat="36.193076" lon="-5.915330">
        <ele>3.06</ele>
        <time>2015-06-19T10:45:18Z</time>
      </trkpt>
      <trkpt lat="36.193076" lon="-5.915330">
        <ele>3.10</ele>
        <time>2015-06-19T10:45:26Z</time>
      </trkpt>
      <trkpt lat="36.193076" lon="-5.915330">
        <ele>3.05</ele>
        <time>2015-06-19T10:45:33Z</time>
      </trkpt>
      <trkpt lat="36.193076" lon="-5.915330">
        <ele>3.04</ele>
        <time>2015-06-19T10:45:46Z</time>
      </trkpt>
      <trkpt lat="36.193076" lon="-5.915330">
        <ele>3.06</ele>
        <time>2015-06-19T10:46:02Z</time>
      </trkpt>
      <trkpt lat="36.193076" lon="-5.915330">
        <ele>3.06</ele>
        <time>2015-06-19T10:46:15Z</time>
      </trkpt>
      <trkpt lat="36.193074" lon="-5.915335">
        <ele>3.07</ele>
        <time>2015-06-19T10:46:31Z</time>
      </trkpt>
      <trkpt lat="36.193074" lon="-5.915335">
        <ele>3.05</ele>
        <time>2015-06-19T10:46:44Z</time>
      </trkpt>
      <trkpt lat="36.193074" lon="-5.915335">
        <ele>3.09</ele>
        <time>2015-06-19T10:46:56Z</time>
      </trkpt>
      <trkpt lat="36.193074" lon="-5.915335">
        <ele>3.02</ele>
        <time>2015-06-19T10:47:11Z</time>
      </trkpt>
      <trkpt lat="36.193074" lon="-5.915335">
        <ele>3.01</ele>
        <time>2015-06-19T10:47:22Z</time>
      </trkpt>
      <trkpt lat="36.193074" lon="-5.915335">
        <ele>3.06</ele>
        <time>2015-06-19T10:47:26Z</time>
      </trkpt>
      <trkpt lat="36.193074" lon="-5.915335">
        <ele>3.02</ele>
        <time>2015-06-19T10:47:40Z</time>
      </trkpt>
      <trkpt lat="36.193075" lon="-5.915336">
        <ele>3.08</ele>
        <time>2015-06-19T10:47:54Z</time>
      </trkpt>
      <trkpt lat="36.193075" lon="-5.915336">
        <ele>3.02</ele>
        <time>2015-06-19T10:48:08Z</time>
      </trkpt>
      <trkpt lat="36.193075" lon="-5.915336">
        <ele>3.05</ele>
        <time>2015-06-19T10:48:22Z</time>
      </trkpt>
      <trkpt lat="36.193077" lon="-5.915332">
        <ele>3.07</ele>
        <time>2015-06-19T10:48:37Z</time>
      </trkpt>
      <trkpt lat="36.193077" lon="-5.915332">
        <ele>3.02</ele>
        <time>2015-06-19T10:48:57Z</time>
      </trkpt>
      <trkpt lat="36.193079" lon="-5.915324">
        <ele>3.02</ele>
        <time>2015-06-19T10:49:11Z</time>
      </trkpt>
      <trkpt lat="36.193079" lon="-5.915324">
        <ele>3.06</ele>
        <time>2015-06-19T10:49:18Z</time>
      </trkpt>
      <trkpt lat="36.193079" lon="-5.915324">
        <ele>3.01</ele>
        <time>2015-06-19T10:49:22Z</time>
      </trkpt>
      <trkpt lat="36.193079" lon="-5.915324">
        <ele>3.02</ele>
        <time>2015-06-19T10:49:24Z</time>
      </trkpt>
      <trkpt lat="36.193079" lon="-5.915324">
        <ele>3.01</ele>
        <time>2015-06-19T10:49:28Z</time>
      </trkpt>
      <trkpt lat="36.193079" lon="-5.915324">
        <ele>3.08</ele>
        <time>2015-06-19T10:49:31Z</time>
      </trkpt>
      <trkpt lat="36.193079" lon="-5.915324">
        <ele>3.03</ele>
        <time>2015-06-19T10:49:37Z</time>
      </trkpt>
      <trkpt lat="36.193079" lon="-5.915324">
        <ele>3.03</ele>
        <time>2015-06-19T10:49:45Z</time>
      </trkpt>
      <trkpt lat="36.193079" lon="-5.915324">
        <ele>3.04</ele>
        <time>2015-06-19T10:49:46Z</time>
      </trkpt>
      <trkpt lat="36.193079" lon="-5.915324">
        <ele>3.03</ele>
        <time>2015-06-19T10:49:48Z</time>
      </trkpt>
      <trkpt lat="36.193079" lon="-5.915324">
        <ele>3.08</ele>
        <time>2015-06-19T10:49:50Z</time>
      </trkpt>
      <trkpt lat="36.193079" lon="-5.915324">
        <ele>3.07</ele>
        <time>2015-06-19T10:49:51Z</time>
      </trkpt>
      <trkpt lat="36.193079" lon="-5.915324">
        <ele>3.10</ele>
        <time>2015-06-19T10:50:00Z</time>
      </trkpt>
      <trkpt lat="36.193079" lon="-5.915324">
        <ele>3.06</ele>
        <time>2015-06-19T10:50:03Z</time>
      </trkpt>
      <trkpt lat="36.193079" lon="-5.915324">
        <ele>3.08</ele>
        <time>2015-06-19T10:50:05Z</time>
      </trkpt>
      <trkpt lat="36.193079" lon="-5.915324">
        <ele>3.01</ele>
        <time>2015-06-19T10:50:07Z</time>
      </trkpt>
      <trkpt lat="36.193079" lon="-5.915324">
        <ele>3.01</ele>
        <time>2015-06-19T10:50:16Z</time>
      </trkpt>
      <trkpt lat="36.193079" lon="-5.915324">
        <ele>3.07</ele>
        <time>2015-06-19T10:50:18Z</time>
      </trkpt>
      <trkpt lat="36.193079" lon="-5.915324">
        <ele>3.02</ele>
        <time>2015-06-19T10:50:24Z</time>
      </trkpt>
      <trkpt lat="36.193079" lon="-5.915324">
        <ele>3.05</ele>
        <time>2015-06-19T10:50:27Z</time>
      </trkpt>
      <trkpt lat="36.193081" lon="-5.915325">
        <ele>3.02</ele>
        <time>2015-06-19T10:50:34Z</time>
      </trkpt>
      <trkpt lat="36.193081" lon="-5.915325">
        <ele>3.08</ele>
        <time>2015-06-19T10:50:41Z</time>
      </trkpt>
      <trkpt lat="36.193081" lon="-5.915325">
        <ele>3.06</ele>
        <time>2015-06-19T10:50:47Z</time>
      </trkpt>
      <trkpt lat="36.193081" lon="-5.915325">
        <ele>3.05</ele>
        <time>2015-06-19T10:51:01Z</time>
      </trkpt>
      <trkpt lat="36.193081" lon="-5.915325">
        <ele>3.06</ele>
        <time>2015-06-19T10:51:03Z</time>
      </trkpt>
      <trkpt lat="36.193081" lon="-5.915325">
        <ele>3.01</ele>
        <time>2015-06-19T10:51:07Z</time>
      </trkpt>
      <trkpt lat="36.193083" lon="-5.915324">
        <ele>3.04</ele>
        <time>2015-06-19T10:51:14Z</time>
      </trkpt>
      <trkpt lat="36.193083" lon="-5.915324">
        <ele>3.01</ele>
        <time>2015-06-19T10:51:17Z</time>
      </trkpt>
      <trkpt lat="36.193083" lon="-5.915324">
        <ele>3.01</ele>
        <time>2015-06-19T10:51:20Z</time>
      </trkpt>
      <trkpt lat="36.193083" lon="-5.915324">
        <ele>3.06</ele>
        <time>2015-06-19T10:51:28Z</time>
      </trkpt>
      <trkpt lat="36.193083" lon="-5.915324">
        <ele>3.08</ele>
        <time>2015-06-19T10:51:40Z</time>
      </trkpt>
      <trkpt lat="36.193083" lon="-5.915324">
        <ele>3.03</ele>
        <time>2015-06-19T10:51:46Z</time>
      </trkpt>
      <trkpt lat="36.193082" lon="-5.915328">
        <ele>3.04</ele>
        <time>2015-06-19T10:51:51Z</time>
      </trkpt>
      <trkpt lat="36.193082" lon="-5.915328">
        <ele>3.06</ele>
        <time>2015-06-19T10:51:53Z</time>
      </trkpt>
      <trkpt lat="36.193082" lon="-5.915328">
        <ele>3.03</ele>
        <time>2015-06-19T10:51:55Z</time>
      </trkpt>
      <trkpt lat="36.193082" lon="-5.915328">
        <ele>3.09</ele>
        <time>2015-06-19T10:51:56Z</time>
      </trkpt>
      <trkpt lat="36.193082" lon="-5.915328">
        <ele>3.01</ele>
        <time>2015-06-19T10:51:57Z</time>
      </trkpt>
      <trkpt lat="36.193082" lon="-5.915328">
        <ele>3.04</ele>
        <time>2015-06-19T10:52:02Z</time>
      </trkpt>
      <trkpt lat="36.193082" lon="-5.915328">
        <ele>3.02</ele>
        <time>2015-06-19T10:52:04Z</time>
      </trkpt>
      <trkpt lat="36.193082" lon="-5.915328">
        <ele>3.02</ele>
        <time>2015-06-19T10:52:07Z</time>
      </trkpt>
      <trkpt lat="36.193082" lon="-5.915328">
        <ele>3.01</ele>
        <time>2015-06-19T10:52:13Z</time>
      </trkpt>
      <trkpt lat="36.193082" lon="-5.915328">
        <ele>3.04</ele>
        <time>2015-06-19T10:52:26Z</time>
      </trkpt>
      <trkpt lat="36.193082" lon="-5.915328">
        <ele>3.06</ele>
        <time>2015-06-19T10:52:27Z</time>
      </trkpt>
      <trkpt lat="36.193081" lon="-5.915327">
        <ele>3.03</ele>
        <time>2015-06-19T10:52:40Z</time>
      </trkpt>
      <trkpt lat="36.193081" lon="-5.915327">
        <ele>3.09</ele>
        <time>2015-06-19T10:52:45Z</time>
      </trkpt>
      <trkpt lat="36.193081" lon="-5.915327">
        <ele>3.10</ele>
        <time>2015-06-19T10:52:47Z</time>
      </trkpt>
      <trkpt lat="36.193081" lon="-5.915327">
        <ele>3.02</ele>
        <time>2015-06-19T10:52:50Z</time>
      </trkpt>
      <trkpt lat="36.193081" lon="-5.915327">
        <ele>3.06</ele>
        <time>2015-06-19T10:52:58Z</time>
      </trkpt>
      <trkpt lat="36.193085" lon="-5.915327">
        <ele>3.05</ele>
        <time>2015-06-19T10:53:15Z</time>
      </trkpt>
      <trkpt lat="36.193085" lon="-5.915327">
        <ele>3.04</ele>
        <time>2015-06-19T10:53:24Z</time>
      </trkpt>
      <trkpt lat="36.193085" lon="-5.915327">
        <ele>3.07</ele>
        <time>2015-06-19T10:53:27Z</time>
      </trkpt>
      <trkpt lat="36.193085" lon="-5.915327">
        <ele>3.02</ele>
        <time>2015-06-19T10:53:28Z</time>
      </trkpt>
      <trkpt lat="36.193085" lon="-5.915327">
        <ele>3.01</ele>
        <time>2015-06-19T10:53:41Z</time>
      </trkpt>
      <trkpt lat="36.193088" lon="-5.915333">
        <ele>3.01</ele>
        <time>2015-06-19T10:53:52Z</time>
      </trkpt>
      <trkpt lat="36.193088" lon="-5.915333">
        <ele>3.09</ele>
        <time>2015-06-19T10:53:55Z</time>
      </trkpt>
      <trkpt lat="36.193088" lon="-5.915333">
        <ele>3.02</ele>
        <time>2015-06-19T10:54:03Z</time>
      </trkpt>
      <trkpt lat="36.193088" lon="-5.915333">
        <ele>3.09</ele>
        <time>2015-06-19T10:54:13Z</time>
      </trkpt>
      <trkpt lat="36.193088" lon="-5.915333">
        <ele>3.05</ele>
        <time>2015-06-19T10:54:19Z</time>
      </trkpt>
      <trkpt lat="36.193091" lon="-5.915341">
        <ele>3.02</ele>
        <time>2015-06-19T10:54:35Z</time>
      </trkpt>
      <trkpt lat="36.193091" lon="-5.915341">
        <ele>3.06</ele>
        <time>2015-06-19T10:54:38Z</time>
      </trkpt>
      <trkpt lat="36.193091" lon="-5.915341">
        <ele>3.09</ele>
        <time>2015-06-19T10:54:46Z</time>
      </trkpt>
      <trkpt lat="36.193091" lon="-5.915341">
        <ele>3.08</ele>
        <time>2015-06-19T10:54:47Z</time>
      </trkpt>
      <trkpt lat="36.193091" lon="-5.915341">
        <ele>3.09</ele>
        <time>2015-06-19T10:54:59Z</time>
      </trkpt>
      <trkpt lat="36.193091" lon="-5.915341">
        <ele>3.02</ele>
        <time>2015-06-19T10:55:03Z</time>
      </trkpt>
      <trkpt lat="36.193092" lon="-5.915342">
        <ele>3.01</ele>
        <time>2015-06-19T10:55:11Z</time>
      </trkpt>
      <trkpt lat="36.193092" lon="-5.915342">
        <ele>3.02</ele>
        <time>2015-06-19T10:55:13Z</time>
      </trkpt>
      <trkpt lat="36.193092" lon="-5.915342">
        <ele>3.04</ele>
        <time>2015-06-19T10:55:20Z</time>
      </trkpt>
      <trkpt lat="36.193092" lon="-5.915342">
        <ele>3.08</ele>
        <time>2015-06-19T10:55:30Z</time>
      </trkpt>
      <trkpt lat="36.193092" lon="-5.915342">
        <ele>3.04</ele>
        <time>2015-06-19T10:55:40Z</time>
      </trkpt>
      <trkpt lat="36.193092" lon="-5.915342">
        <ele>3.06</ele>
        <time>2015-06-19T10:55:44Z</time>
      </trkpt>
      <trkpt lat="36.193095" lon="-5.915347">
        <ele>3.09</ele>
        <time>2015-06-19T10:55:51Z</time>
      </trkpt>
      <trkpt lat="36.193095" lon="-5.915347">
        <ele>3.10</ele>
        <time>2015-06-19T10:55:58Z</time>
      </trkpt>
      <trkpt lat="36.193095" lon="-5.915347">
        <ele>3.09</ele>
        <time>2015-06-19T10:55:59Z</time>
      </trkpt>
      <trkpt lat="36.193095" lon="-5.915347">
        <ele>3.08</ele>
        <time>2015-06-19T10:56:04Z</time>
      </trkpt>
      <trkpt lat="36.193095" lon="-5.915347">
        <ele>3.03</ele>
        <time>2015-06-19T10:56:16Z</time>
      </trkpt>
      <trkpt lat="36.193095" lon="-5.915347">
        <ele>3.02</ele>
        <time>2015-06-19T10:56:20Z</time>
      </trkpt>
      <trkpt lat="36.193095" lon="-5.915347">
        <ele>3.01</ele>
        <time>2015-06-19T10:56:21Z</time>
      </trkpt>
      <trkpt lat="36.193098" lon="-5.915379">
        <ele>3.09</ele>
        <time>2015-06-19T10:56:27Z</time>
      </trkpt>
      <trkpt lat="36.193118" lon="-5.915369">
        <ele>3.06</ele>
        <time>2015-06-19T10:56:28Z</time>
      </trkpt>
      <trkpt lat="36.193183" lon="-5.915371">
        <ele>3.05</ele>
        <time>2015-06-19T10:56:32Z</time>
      </trkpt>
      <trkpt lat="36.193225" lon="-5.915420">
        <ele>3.03</ele>
        <time>2015-06-19T10:56:36Z</time>
      </trkpt>
      <trkpt lat="36.193245" lon="-5.915432">
        <ele>3.04</ele>
        <time>2015-06-19T10:56:37Z</time>
      </trkpt>
      <trkpt lat="36.193264" lon="-5.915400">
        <ele>3.03</ele>
        <time>2015-06-19T10:56:38Z</time>
      </trkpt>
      <trkpt lat="36.193289" lon="-5.915352">
        <ele>3.08</ele>
        <time>2015-06-19T10:56:40Z</time>
      </trkpt>
      <trkpt lat="36.193348" lon="-5.915230">
        <ele>3.03</ele>
        <time>2015-06-19T10:56:45Z</time>
      </trkpt>
      <trkpt lat="36.193376" lon="-5.915218">
        <ele>3.06</ele>
        <time>2015-06-19T10:56:46Z</time>
      </trkpt>
      <trkpt lat="36.193558" lon="-5.915137">
        <ele>3.02</ele>
        <time>2015-06-19T10:56:52Z</time>
      </trkpt>
      <trkpt lat="36.193682" lon="-5.915073">
        <ele>3.41</ele>
        <time>2015-06-19T10:56:56Z</time>
      </trkpt>
      <trkpt lat="36.193710" lon="-5.915057">
        <ele>3.81</ele>
        <time>2015-06-19T10:56:57Z</time>
      </trkpt>
      <trkpt lat="36.193739" lon="-5.915043">
        <ele>4.28</ele>
        <time>2015-06-19T10:56:58Z</time>
      </trkpt>
      <trkpt lat="36.193772" lon="-5.915028">
        <ele>4.62</ele>
        <time>2015-06-19T10:56:59Z</time>
      </trkpt>
      <trkpt lat="36.193803" lon="-5.915015">
        <ele>5.05</ele>
        <time>2015-06-19T10:57:00Z</time>
      </trkpt>
      <trkpt lat="36.194019" lon="-5.914944">
        <ele>5.08</ele>
        <time>2015-06-19T10:57:06Z</time>
      </trkpt>
      <trkpt lat="36.194218" lon="-5.914866">
        <ele>5.05</ele>
        <time>2015-06-19T10:57:13Z</time>
      </trkpt>
      <trkpt lat="36.194223" lon="-5.914830">
        <ele>5.04</ele>
        <time>2015-06-19T10:57:14Z</time>
      </trkpt>
      <trkpt lat="36.194208" lon="-5.914756">
        <ele>5.08</ele>
        <time>2015-06-19T10:57:16Z</time>
      </trkpt>
      <trkpt lat="36.194144" lon="-5.914433">
        <ele>5.04</ele>
        <time>2015-06-19T10:57:23Z</time>
      </trkpt>
      <trkpt lat="36.194113" lon="-5.914260">
        <ele>5.05</ele>
        <time>2015-06-19T10:57:27Z</time>
      </trkpt>
      <trkpt lat="36.194102" lon="-5.914218">
        <ele>5.01</ele>
        <time>2015-06-19T10:57:28Z</time>
      </trkpt>
      <trkpt lat="36.194109" lon="-5.914035">
        <ele>5.02</ele>
        <time>2015-06-19T10:57:33Z</time>
      </trkpt>
      <trkpt lat="36.194158" lon="-5.913888">
        <ele>5.01</ele>
        <time>2015-06-19T10:57:39Z</time>
      </trkpt>
      <trkpt lat="36.194172" lon="-5.913862">
        <ele>5.05</ele>
        <time>2015-06-19T10:57:40Z</time>
      </trkpt>
      <trkpt lat="36.194238" lon="-5.913787">
        <ele>5.02</ele>
        <time>2015-06-19T10:57:43Z</time>
      </trkpt>
      <trkpt lat="36.194334" lon="-5.913718">
        <ele>5.09</ele>
        <time>2015-06-19T10:57:47Z</time>
      </trkpt>
      <trkpt lat="36.194361" lon="-5.913689">
        <ele>5.03</ele>
        <time>2015-06-19T10:57:48Z</time>
      </trkpt>
      <trkpt lat="36.194384" lon="-5.913616">
        <ele>5.04</ele>
        <time>2015-06-19T10:57:50Z</time>
      </trkpt>
      <trkpt lat="36.194365" lon="-5.913578">
        <ele>5.02</ele>
        <time>2015-06-19T10:57:51Z</time>
      </trkpt>
      <trkpt lat="36.194259" lon="-5.913489">
        <ele>5.05</ele>
        <time>2015-06-19T10:57:54Z</time>
      </trkpt>
      <trkpt lat="36.194192" lon="-5.913449">
        <ele>5.03</ele>
        <time>2015-06-19T10:57:56Z</time>
      </trkpt>
      <trkpt lat="36.194129" lon="-5.913415">
        <ele>5.09</ele>
        <time>2015-06-19T10:57:58Z</time>
      </trkpt>
      <trkpt lat="36.194036" lon="-5.913373">
        <ele>5.07</ele>
        <time>2015-06-19T10:58:01Z</time>
      </trkpt>
      <trkpt lat="36.193901" lon="-5.913334">
        <ele>5.02</ele>
        <time>2015-06-19T10:58:05Z</time>
      </trkpt>
      <trkpt lat="36.193765" lon="-5.913287">
        <ele>5.01</ele>
        <time>2015-06-19T10:58:09Z</time>
      </trkpt>
      <trkpt lat="36.193699" lon="-5.913266">
        <ele>5.46</ele>
        <time>2015-06-19T10:58:11Z</time>
      </trkpt>
      <trkpt lat="36.193664" lon="-5.913257">
        <ele>5.90</ele>
        <time>2015-06-19T10:58:12Z</time>
      </trkpt>
      <trkpt lat="36.193630" lon="-5.913244">
        <ele>6.23</ele>
        <time>2015-06-19T10:58:13Z</time>
      </trkpt>
      <trkpt lat="36.193593" lon="-5.913233">
        <ele>6.62</ele>
        <time>2015-06-19T10:58:14Z</time>
      </trkpt>
      <trkpt lat="36.193557" lon="-5.913225">
        <ele>7.09</ele>
        <time>2015-06-19T10:58:15Z</time>
      </trkpt>
      <trkpt lat="36.193420" lon="-5.913191">
        <ele>7.08</ele>
        <time>2015-06-19T10:58:19Z</time>
      </trkpt>
      <trkpt lat="36.193323" lon="-5.913158">
        <ele>7.06</ele>
        <time>2015-06-19T10:58:22Z</time>
      </trkpt>
      <trkpt lat="36.193085" lon="-5.913082">
        <ele>7.06</ele>
        <time>2015-06-19T10:58:29Z</time>
      </trkpt>
      <trkpt lat="36.192825" lon="-5.913000">
        <ele>7.10</ele>
        <time>2015-06-19T10:58:36Z</time>
      </trkpt>
      <trkpt lat="36.192746" lon="-5.912981">
        <ele>7.61</ele>
        <time>2015-06-19T10:58:38Z</time>
      </trkpt>
      <trkpt lat="36.192708" lon="-5.912974">
        <ele>8.03</ele>
        <time>2015-06-19T10:58:39Z</time>
      </trkpt>
      <trkpt lat="36.192669" lon="-5.912964">
        <ele>8.41</ele>
        <time>2015-06-19T10:58:40Z</time>
      </trkpt>
      <trkpt lat="36.192630" lon="-5.912951">
        <ele>8.87</ele>
        <time>2015-06-19T10:58:41Z</time>
      </trkpt>
      <trkpt lat="36.192591" lon="-5.912938">
        <ele>9.27</ele>
        <time>2015-06-19T10:58:42Z</time>
      </trkpt>
      <trkpt lat="36.192507" lon="-5.912911">
        <ele>9.28</ele>
        <time>2015-06-19T10:58:44Z</time>
      </trkpt>
      <trkpt lat="36.192254" lon="-5.912833">
        <ele>9.26</ele>
        <time>2015-06-19T10:58:50Z</time>
      </trkpt>
      <trkpt lat="36.192168" lon="-5.912807">
        <ele>9.27</ele>
        <time>2015-06-19T10:58:52Z</time>
      </trkpt>
      <trkpt lat="36.192080" lon="-5.912777">
        <ele>9.26</ele>
        <time>2015-06-19T10:58:54Z</time>
      </trkpt>
      <trkpt lat="36.191910" lon="-5.912721">
        <ele>9.25</ele>
        <time>2015-06-19T10:58:58Z</time>
      </trkpt>
      <trkpt lat="36.191828" lon="-5.912700">
        <ele>9.23</ele>
        <time>2015-06-19T10:59:00Z</time>
      </trkpt>
      <trkpt lat="36.191624" lon="-5.912635">
        <ele>9.27</ele>
        <time>2015-06-19T10:59:05Z</time>
      </trkpt>
      <trkpt lat="36.191508" lon="-5.912595">
        <ele>9.23</ele>
        <time>2015-06-19T10:59:08Z</time>
      </trkpt>
      <trkpt lat="36.191185" lon="-5.912492">
        <ele>9.22</ele>
        <time>2015-06-19T10:59:16Z</time>
      </trkpt>
      <trkpt lat="36.190851" lon="-5.912388">
        <ele>9.21</ele>
        <time>2015-06-19T10:59:24Z</time>
      </trkpt>
      <trkpt lat="36.190543" lon="-5.912285">
        <ele>9.22</ele>
        <time>2015-06-19T10:59:31Z</time>
      </trkpt>
      <trkpt lat="36.190209" lon="-5.912178">
        <ele>9.26</ele>
        <time>2015-06-19T10:59:38Z</time>
      </trkpt>
      <trkpt lat="36.190160" lon="-5.912162">
        <ele>9.25</ele>
        <time>2015-06-19T10:59:39Z</time>
      </trkpt>
      <trkpt lat="36.189707" lon="-5.912021">
        <ele>9.28</ele>
        <time>2015-06-19T10:59:48Z</time>
      </trkpt>
      <trkpt lat="36.189314" lon="-5.911889">
        <ele>9.27</ele>
        <time>2015-06-19T10:59:56Z</time>
      </trkpt>
      <trkpt lat="36.188884" lon="-5.911731">
        <ele>9.24</ele>
        <time>2015-06-19T11:00:05Z</time>
      </trkpt>
      <trkpt lat="36.188419" lon="-5.911526">
        <ele>9.27</ele>
        <time>2015-06-19T11:00:15Z</time>
      </trkpt>
      <trkpt lat="36.188280" lon="-5.911454">
        <ele>8.83</ele>
        <time>2015-06-19T11:00:18Z</time>
      </trkpt>
      <trkpt lat="36.188233" lon="-5.911434">
        <ele>8.28</ele>
        <time>2015-06-19T11:00:19Z</time>
      </trkpt>
      <trkpt lat="36.188187" lon="-5.911411">
        <ele>7.86</ele>
        <time>2015-06-19T11:00:20Z</time>
      </trkpt>
      <trkpt lat="36.188142" lon="-5.911384">
        <ele>7.42</ele>
        <time>2015-06-19T11:00:21Z</time>
      </trkpt>
      <trkpt lat="36.188097" lon="-5.911360">
        <ele>6.81</ele>
        <time>2015-06-19T11:00:22Z</time>
      </trkpt>
      <trkpt lat="36.188052" lon="-5.911333">
        <ele>6.90</ele>
        <time>2015-06-19T11:00:23Z</time>
      </trkpt>
      <trkpt lat="36.187705" lon="-5.911122">
        <ele>6.84</ele>
        <time>2015-06-19T11:00:31Z</time>
      </trkpt>
      <trkpt lat="36.187319" lon="-5.910869">
        <ele>6.87</ele>
        <time>2015-06-19T11:00:40Z</time>
      </trkpt>
      <trkpt lat="36.186987" lon="-5.910625">
        <ele>6.90</ele>
        <time>2015-06-19T11:00:48Z</time>
      </trkpt>
      <trkpt lat="36.186702" lon="-5.910398">
        <ele>6.85</ele>
        <time>2015-06-19T11:00:55Z</time>
      </trkpt>
      <trkpt lat="36.186588" lon="-5.910298">
        <ele>6.87</ele>
        <time>2015-06-19T11:00:58Z</time>
      </trkpt>
      <trkpt lat="36.186315" lon="-5.910056">
        <ele>6.85</ele>
        <time>2015-06-19T11:01:05Z</time>
      </trkpt>
      <trkpt lat="36.185985" lon="-5.909734">
        <ele>6.87</ele>
        <time>2015-06-19T11:01:14Z</time>
      </trkpt>
      <trkpt lat="36.185703" lon="-5.909424">
        <ele>6.90</ele>
        <time>2015-06-19T11:01:22Z</time>
      </trkpt>
      <trkpt lat="36.185457" lon="-5.909141">
        <ele>6.81</ele>
        <time>2015-06-19T11:01:29Z</time>
      </trkpt>
      <trkpt lat="36.185180" lon="-5.908819">
        <ele>6.83</ele>
        <time>2015-06-19T11:01:37Z</time>
      </trkpt>
      <trkpt lat="36.184893" lon="-5.908487">
        <ele>6.81</ele>
        <time>2015-06-19T11:01:45Z</time>
      </trkpt>
      <trkpt lat="36.184551" lon="-5.908084">
        <ele>6.87</ele>
        <time>2015-06-19T11:01:55Z</time>
      </trkpt>
      <trkpt lat="36.184411" lon="-5.907925">
        <ele>6.83</ele>
        <time>2015-06-19T11:01:59Z</time>
      </trkpt>
      <trkpt lat="36.184310" lon="-5.907815">
        <ele>6.86</ele>
        <time>2015-06-19T11:02:02Z</time>
      </trkpt>
      <trkpt lat="36.184059" lon="-5.907513">
        <ele>6.89</ele>
        <time>2015-06-19T11:02:10Z</time>
      </trkpt>
      <trkpt lat="36.183998" lon="-5.907436">
        <ele>6.41</ele>
        <time>2015-06-19T11:02:12Z</time>
      </trkpt>
      <trkpt lat="36.183967" lon="-5.907397">
        <ele>6.07</ele>
        <time>2015-06-19T11:02:13Z</time>
      </trkpt>
      <trkpt lat="36.183931" lon="-5.907356">
        <ele>5.70</ele>
        <time>2015-06-19T11:02:14Z</time>
      </trkpt>
      <trkpt lat="36.183898" lon="-5.907318">
        <ele>5.28</ele>
        <time>2015-06-19T11:02:15Z</time>
      </trkpt>
      <trkpt lat="36.183867" lon="-5.907280">
        <ele>4.62</ele>
        <time>2015-06-19T11:02:16Z</time>
      </trkpt>
      <trkpt lat="36.183773" lon="-5.907172">
        <ele>4.64</ele>
        <time>2015-06-19T11:02:19Z</time>
      </trkpt>
      <trkpt lat="36.183417" lon="-5.906757">
        <ele>4.61</ele>
        <time>2015-06-19T11:02:30Z</time>
      </trkpt>
      <trkpt lat="36.183033" lon="-5.906304">
        <ele>4.61</ele>
        <time>2015-06-19T11:02:42Z</time>
      </trkpt>
      <trkpt lat="36.182756" lon="-5.905973">
        <ele>4.61</ele>
        <time>2015-06-19T11:02:51Z</time>
      </trkpt>
      <trkpt lat="36.182610" lon="-5.905810">
        <ele>5.28</ele>
        <time>2015-06-19T11:02:56Z</time>
      </trkpt>
      <trkpt lat="36.182586" lon="-5.905775">
        <ele>5.63</ele>
        <time>2015-06-19T11:02:57Z</time>
      </trkpt>
      <trkpt lat="36.182558" lon="-5.905746">
        <ele>6.09</ele>
        <time>2015-06-19T11:02:58Z</time>
      </trkpt>
      <trkpt lat="36.182531" lon="-5.905712">
        <ele>6.44</ele>
        <time>2015-06-19T11:02:59Z</time>
      </trkpt>
      <trkpt lat="36.182504" lon="-5.905681">
        <ele>6.87</ele>
        <time>2015-06-19T11:03:00Z</time>
      </trkpt>
      <trkpt lat="36.182356" lon="-5.905509">
        <ele>6.85</ele>
        <time>2015-06-19T11:03:05Z</time>
      </trkpt>
      <trkpt lat="36.182121" lon="-5.905234">
        <ele>6.82</ele>
        <time>2015-06-19T11:03:13Z</time>
      </trkpt>
      <trkpt lat="36.181813" lon="-5.904873">
        <ele>6.84</ele>
        <time>2015-06-19T11:03:23Z</time>
      </trkpt>
      <trkpt lat="36.181747" lon="-5.904801">
        <ele>6.42</ele>
        <time>2015-06-19T11:03:25Z</time>
      </trkpt>
      <trkpt lat="36.181716" lon="-5.904763">
        <ele>6.01</ele>
        <time>2015-06-19T11:03:26Z</time>
      </trkpt>
      <trkpt lat="36.181683" lon="-5.904724">
        <ele>5.61</ele>
        <time>2015-06-19T11:03:27Z</time>
      </trkpt>
      <trkpt lat="36.181650" lon="-5.904685">
        <ele>5.26</ele>
        <time>2015-06-19T11:03:28Z</time>
      </trkpt>
      <trkpt lat="36.181615" lon="-5.904647">
        <ele>4.82</ele>
        <time>2015-06-19T11:03:29Z</time>
      </trkpt>
      <trkpt lat="36.181546" lon="-5.904574">
        <ele>4.86</ele>
        <time>2015-06-19T11:03:31Z</time>
      </trkpt>
      <trkpt lat="36.181252" lon="-5.904232">
        <ele>4.89</ele>
        <time>2015-06-19T11:03:40Z</time>
      </trkpt>
      <trkpt lat="36.181022" lon="-5.903972">
        <ele>4.86</ele>
        <time>2015-06-19T11:03:47Z</time>
      </trkpt>
      <trkpt lat="36.180863" lon="-5.903787">
        <ele>4.89</ele>
        <time>2015-06-19T11:03:52Z</time>
      </trkpt>
      <trkpt lat="36.180763" lon="-5.903672">
        <ele>4.82</ele>
        <time>2015-06-19T11:03:55Z</time>
      </trkpt>
      <trkpt lat="36.180532" lon="-5.903399">
        <ele>4.83</ele>
        <time>2015-06-19T11:04:02Z</time>
      </trkpt>
      <trkpt lat="36.180468" lon="-5.903324">
        <ele>5.29</ele>
        <time>2015-06-19T11:04:04Z</time>
      </trkpt>
      <trkpt lat="36.180439" lon="-5.903291">
        <ele>5.62</ele>
        <time>2015-06-19T11:04:05Z</time>
      </trkpt>
      <trkpt lat="36.180408" lon="-5.903257">
        <ele>6.03</ele>
        <time>2015-06-19T11:04:06Z</time>
      </trkpt>
      <trkpt lat="36.180377" lon="-5.903220">
        <ele>6.41</ele>
        <time>2015-06-19T11:04:07Z</time>
      </trkpt>
      <trkpt lat="36.180345" lon="-5.903182">
        <ele>7.04</ele>
        <time>2015-06-19T11:04:08Z</time>
      </trkpt>
      <trkpt lat="36.180315" lon="-5.903150">
        <ele>7.09</ele>
        <time>2015-06-19T11:04:09Z</time>
      </trkpt>
      <trkpt lat="36.180092" lon="-5.902902">
        <ele>7.04</ele>
        <time>2015-06-19T11:04:16Z</time>
      </trkpt>
      <trkpt lat="36.179990" lon="-5.902788">
        <ele>6.49</ele>
        <time>2015-06-19T11:04:19Z</time>
      </trkpt>
      <trkpt lat="36.179955" lon="-5.902750">
        <ele>6.09</ele>
        <time>2015-06-19T11:04:20Z</time>
      </trkpt>
      <trkpt lat="36.179921" lon="-5.902710">
        <ele>5.66</ele>
        <time>2015-06-19T11:04:21Z</time>
      </trkpt>
      <trkpt lat="36.179888" lon="-5.902671">
        <ele>5.29</ele>
        <time>2015-06-19T11:04:22Z</time>
      </trkpt>
      <trkpt lat="36.179855" lon="-5.902630">
        <ele>4.82</ele>
        <time>2015-06-19T11:04:23Z</time>
      </trkpt>
      <trkpt lat="36.179785" lon="-5.902550">
        <ele>4.88</ele>
        <time>2015-06-19T11:04:25Z</time>
      </trkpt>
      <trkpt lat="36.179474" lon="-5.902196">
        <ele>4.83</ele>
        <time>2015-06-19T11:04:34Z</time>
      </trkpt>
      <trkpt lat="36.179239" lon="-5.901935">
        <ele>4.83</ele>
        <time>2015-06-19T11:04:41Z</time>
      </trkpt>
      <trkpt lat="36.178938" lon="-5.901592">
        <ele>4.81</ele>
        <time>2015-06-19T11:04:50Z</time>
      </trkpt>
      <trkpt lat="36.178591" lon="-5.901197">
        <ele>4.82</ele>
        <time>2015-06-19T11:05:00Z</time>
      </trkpt>
      <trkpt lat="36.178276" lon="-5.900830">
        <ele>4.85</ele>
        <time>2015-06-19T11:05:09Z</time>
      </trkpt>
      <trkpt lat="36.177984" lon="-5.900495">
        <ele>4.88</ele>
        <time>2015-06-19T11:05:17Z</time>
      </trkpt>
      <trkpt lat="36.177912" lon="-5.900411">
        <ele>5.27</ele>
        <time>2015-06-19T11:05:19Z</time>
      </trkpt>
      <trkpt lat="36.177877" lon="-5.900368">
        <ele>5.85</ele>
        <time>2015-06-19T11:05:20Z</time>
      </trkpt>
      <trkpt lat="36.177841" lon="-5.900327">
        <ele>6.27</ele>
        <time>2015-06-19T11:05:21Z</time>
      </trkpt>
      <trkpt lat="36.177804" lon="-5.900287">
        <ele>7.04</ele>
        <time>2015-06-19T11:05:22Z</time>
      </trkpt>
      <trkpt lat="36.177658" lon="-5.900120">
        <ele>7.06</ele>
        <time>2015-06-19T11:05:26Z</time>
      </trkpt>
      <trkpt lat="36.177584" lon="-5.900041">
        <ele>7.09</ele>
        <time>2015-06-19T11:05:28Z</time>
      </trkpt>
      <trkpt lat="36.177408" lon="-5.899828">
        <ele>7.01</ele>
        <time>2015-06-19T11:05:33Z</time>
      </trkpt>
      <trkpt lat="36.177130" lon="-5.899482">
        <ele>7.03</ele>
        <time>2015-06-19T11:05:41Z</time>
      </trkpt>
      <trkpt lat="36.177063" lon="-5.899395">
        <ele>7.61</ele>
        <time>2015-06-19T11:05:43Z</time>
      </trkpt>
      <trkpt lat="36.177029" lon="-5.899355">
        <ele>8.05</ele>
        <time>2015-06-19T11:05:44Z</time>
      </trkpt>
      <trkpt lat="36.176995" lon="-5.899316">
        <ele>8.66</ele>
        <time>2015-06-19T11:05:45Z</time>
      </trkpt>
      <trkpt lat="36.176961" lon="-5.899274">
        <ele>9.49</ele>
        <time>2015-06-19T11:05:46Z</time>
      </trkpt>
      <trkpt lat="36.176931" lon="-5.899236">
        <ele>9.06</ele>
        <time>2015-06-19T11:05:47Z</time>
      </trkpt>
      <trkpt lat="36.176900" lon="-5.899196">
        <ele>8.69</ele>
        <time>2015-06-19T11:05:48Z</time>
      </trkpt>
      <trkpt lat="36.176869" lon="-5.899156">
        <ele>8.23</ele>
        <time>2015-06-19T11:05:49Z</time>
      </trkpt>
      <trkpt lat="36.176836" lon="-5.899118">
        <ele>7.82</ele>
        <time>2015-06-19T11:05:50Z</time>
      </trkpt>
      <trkpt lat="36.176802" lon="-5.899081">
        <ele>7.48</ele>
        <time>2015-06-19T11:05:51Z</time>
      </trkpt>
      <trkpt lat="36.176606" lon="-5.898846">
        <ele>7.49</ele>
        <time>2015-06-19T11:05:57Z</time>
      </trkpt>
      <trkpt lat="36.176464" lon="-5.898675">
        <ele>7.44</ele>
        <time>2015-06-19T11:06:02Z</time>
      </trkpt>
      <trkpt lat="36.176410" lon="-5.898610">
        <ele>7.43</ele>
        <time>2015-06-19T11:06:04Z</time>
      </trkpt>
      <trkpt lat="36.176237" lon="-5.898397">
        <ele>7.41</ele>
        <time>2015-06-19T11:06:10Z</time>
      </trkpt>
      <trkpt lat="36.176088" lon="-5.898208">
        <ele>7.49</ele>
        <time>2015-06-19T11:06:15Z</time>
      </trkpt>
      <trkpt lat="36.176025" lon="-5.898130">
        <ele>7.47</ele>
        <time>2015-06-19T11:06:17Z</time>
      </trkpt>
      <trkpt lat="36.175728" lon="-5.897772">
        <ele>7.46</ele>
        <time>2015-06-19T11:06:26Z</time>
      </trkpt>
      <trkpt lat="36.175439" lon="-5.897415">
        <ele>7.44</ele>
        <time>2015-06-19T11:06:35Z</time>
      </trkpt>
      <trkpt lat="36.175167" lon="-5.897097">
        <ele>7.42</ele>
        <time>2015-06-19T11:06:43Z</time>
      </trkpt>
      <trkpt lat="36.174864" lon="-5.896732">
        <ele>7.43</ele>
        <time>2015-06-19T11:06:52Z</time>
      </trkpt>
      <trkpt lat="36.174599" lon="-5.896410">
        <ele>7.50</ele>
        <time>2015-06-19T11:07:00Z</time>
      </trkpt>
      <trkpt lat="36.174299" lon="-5.896045">
        <ele>7.46</ele>
        <time>2015-06-19T11:07:09Z</time>
      </trkpt>
      <trkpt lat="36.174105" lon="-5.895815">
        <ele>7.43</ele>
        <time>2015-06-19T11:07:15Z</time>
      </trkpt>
      <trkpt lat="36.173848" lon="-5.895497">
        <ele>7.46</ele>
        <time>2015-06-19T11:07:24Z</time>
      </trkpt>
      <trkpt lat="36.173608" lon="-5.895201">
        <ele>7.41</ele>
        <time>2015-06-19T11:07:32Z</time>
      </trkpt>
      <trkpt lat="36.173390" lon="-5.894936">
        <ele>7.41</ele>
        <time>2015-06-19T11:07:39Z</time>
      </trkpt>
      <trkpt lat="36.173170" lon="-5.894664">
        <ele>7.41</ele>
        <time>2015-06-19T11:07:46Z</time>
      </trkpt>
      <trkpt lat="36.172888" lon="-5.894320">
        <ele>7.49</ele>
        <time>2015-06-19T11:07:55Z</time>
      </trkpt>
      <trkpt lat="36.172595" lon="-5.893966">
        <ele>7.41</ele>
        <time>2015-06-19T11:08:04Z</time>
      </trkpt>
      <trkpt lat="36.172470" lon="-5.893820">
        <ele>7.48</ele>
        <time>2015-06-19T11:08:08Z</time>
      </trkpt>
      <trkpt lat="36.172376" lon="-5.893713">
        <ele>7.48</ele>
        <time>2015-06-19T11:08:11Z</time>
      </trkpt>
      <trkpt lat="36.172142" lon="-5.893446">
        <ele>7.89</ele>
        <time>2015-06-19T11:08:19Z</time>
      </trkpt>
      <trkpt lat="36.172116" lon="-5.893415">
        <ele>8.24</ele>
        <time>2015-06-19T11:08:20Z</time>
      </trkpt>
      <trkpt lat="36.172090" lon="-5.893384">
        <ele>8.66</ele>
        <time>2015-06-19T11:08:21Z</time>
      </trkpt>
      <trkpt lat="36.172062" lon="-5.893352">
        <ele>9.24</ele>
        <time>2015-06-19T11:08:22Z</time>
      </trkpt>
      <trkpt lat="36.172034" lon="-5.893320">
        <ele>9.61</ele>
        <time>2015-06-19T11:08:23Z</time>
      </trkpt>
      <trkpt lat="36.171889" lon="-5.893155">
        <ele>9.62</ele>
        <time>2015-06-19T11:08:28Z</time>
      </trkpt>
      <trkpt lat="36.171667" lon="-5.892917">
        <ele>9.61</ele>
        <time>2015-06-19T11:08:36Z</time>
      </trkpt>
      <trkpt lat="36.171424" lon="-5.892649">
        <ele>9.66</ele>
        <time>2015-06-19T11:08:45Z</time>
      </trkpt>
      <trkpt lat="36.171167" lon="-5.892366">
        <ele>9.66</ele>
        <time>2015-06-19T11:08:54Z</time>
      </trkpt>
      <trkpt lat="36.170910" lon="-5.892079">
        <ele>9.64</ele>
        <time>2015-06-19T11:09:03Z</time>
      </trkpt>
      <trkpt lat="36.170690" lon="-5.891834">
        <ele>9.68</ele>
        <time>2015-06-19T11:09:11Z</time>
      </trkpt>
      <trkpt lat="36.170462" lon="-5.891576">
        <ele>9.66</ele>
        <time>2015-06-19T11:09:19Z</time>
      </trkpt>
      <trkpt lat="36.170184" lon="-5.891248">
        <ele>9.62</ele>
        <time>2015-06-19T11:09:29Z</time>
      </trkpt>
      <trkpt lat="36.169937" lon="-5.890953">
        <ele>9.62</ele>
        <time>2015-06-19T11:09:38Z</time>
      </trkpt>
      <trkpt lat="36.169719" lon="-5.890675">
        <ele>9.63</ele>
        <time>2015-06-19T11:09:46Z</time>
      </trkpt>
      <trkpt lat="36.169621" lon="-5.890550">
        <ele>10.04</ele>
        <time>2015-06-19T11:09:50Z</time>
      </trkpt>
      <trkpt lat="36.169598" lon="-5.890521">
        <ele>10.47</ele>
        <time>2015-06-19T11:09:51Z</time>
      </trkpt>
      <trkpt lat="36.169575" lon="-5.890493">
        <ele>11.22</ele>
        <time>2015-06-19T11:09:52Z</time>
      </trkpt>
      <trkpt lat="36.169553" lon="-5.890464">
        <ele>11.61</ele>
        <time>2015-06-19T11:09:53Z</time>
      </trkpt>
      <trkpt lat="36.169402" lon="-5.890269">
        <ele>11.66</ele>
        <time>2015-06-19T11:10:00Z</time>
      </trkpt>
      <trkpt lat="36.169178" lon="-5.889977">
        <ele>11.62</ele>
        <time>2015-06-19T11:10:10Z</time>
      </trkpt>
      <trkpt lat="36.168999" lon="-5.889728">
        <ele>11.66</ele>
        <time>2015-06-19T11:10:18Z</time>
      </trkpt>
      <trkpt lat="36.168849" lon="-5.889516">
        <ele>11.63</ele>
        <time>2015-06-19T11:10:25Z</time>
      </trkpt>
      <trkpt lat="36.168756" lon="-5.889379">
        <ele>11.70</ele>
        <time>2015-06-19T11:10:30Z</time>
      </trkpt>
      <trkpt lat="36.168602" lon="-5.889158">
        <ele>11.64</ele>
        <time>2015-06-19T11:10:37Z</time>
      </trkpt>
      <trkpt lat="36.168512" lon="-5.889028">
        <ele>11.63</ele>
        <time>2015-06-19T11:10:41Z</time>
      </trkpt>
      <trkpt lat="36.168465" lon="-5.888963">
        <ele>12.03</ele>
        <time>2015-06-19T11:10:43Z</time>
      </trkpt>
      <trkpt lat="36.168444" lon="-5.888931">
        <ele>12.43</ele>
        <time>2015-06-19T11:10:44Z</time>
      </trkpt>
      <trkpt lat="36.168420" lon="-5.888898">
        <ele>12.82</ele>
        <time>2015-06-19T11:10:45Z</time>
      </trkpt>
      <trkpt lat="36.168396" lon="-5.888864">
        <ele>13.22</ele>
        <time>2015-06-19T11:10:46Z</time>
      </trkpt>
      <trkpt lat="36.168372" lon="-5.888827">
        <ele>13.61</ele>
        <time>2015-06-19T11:10:47Z</time>
      </trkpt>
      <trkpt lat="36.168301" lon="-5.888725">
        <ele>13.67</ele>
        <time>2015-06-19T11:10:50Z</time>
      </trkpt>
      <trkpt lat="36.168233" lon="-5.888620">
        <ele>13.61</ele>
        <time>2015-06-19T11:10:53Z</time>
      </trkpt>
      <trkpt lat="36.168046" lon="-5.888345">
        <ele>13.63</ele>
        <time>2015-06-19T11:11:01Z</time>
      </trkpt>
      <trkpt lat="36.167831" lon="-5.888022">
        <ele>13.65</ele>
        <time>2015-06-19T11:11:11Z</time>
      </trkpt>
      <trkpt lat="36.167652" lon="-5.887750">
        <ele>13.68</ele>
        <time>2015-06-19T11:11:20Z</time>
      </trkpt>
      <trkpt lat="36.167553" lon="-5.887610">
        <ele>13.62</ele>
        <time>2015-06-19T11:11:25Z</time>
      </trkpt>
      <trkpt lat="36.167392" lon="-5.887372">
        <ele>13.68</ele>
        <time>2015-06-19T11:11:33Z</time>
      </trkpt>
      <trkpt lat="36.167205" lon="-5.887095">
        <ele>13.70</ele>
        <time>2015-06-19T11:11:42Z</time>
      </trkpt>
      <trkpt lat="36.167036" lon="-5.886851">
        <ele>13.62</ele>
        <time>2015-06-19T11:11:50Z</time>
      </trkpt>
      <trkpt lat="36.166863" lon="-5.886601">
        <ele>13.68</ele>
        <time>2015-06-19T11:11:58Z</time>
      </trkpt>
      <trkpt lat="36.166720" lon="-5.886382">
        <ele>13.61</ele>
        <time>2015-06-19T11:12:05Z</time>
      </trkpt>
      <trkpt lat="36.166662" lon="-5.886299">
        <ele>14.01</ele>
        <time>2015-06-19T11:12:09Z</time>
      </trkpt>
      <trkpt lat="36.166648" lon="-5.886277">
        <ele>14.42</ele>
        <time>2015-06-19T11:12:10Z</time>
      </trkpt>
      <trkpt lat="36.166632" lon="-5.886251">
        <ele>14.85</ele>
        <time>2015-06-19T11:12:11Z</time>
      </trkpt>
      <trkpt lat="36.166614" lon="-5.886224">
        <ele>15.25</ele>
        <time>2015-06-19T11:12:12Z</time>
      </trkpt>
      <trkpt lat="36.166598" lon="-5.886194">
        <ele>15.65</ele>
        <time>2015-06-19T11:12:13Z</time>
      </trkpt>
      <trkpt lat="36.166537" lon="-5.886066">
        <ele>15.65</ele>
        <time>2015-06-19T11:12:17Z</time>
      </trkpt>
      <trkpt lat="36.166437" lon="-5.885822">
        <ele>15.62</ele>
        <time>2015-06-19T11:12:24Z</time>
      </trkpt>
      <trkpt lat="36.166337" lon="-5.885487">
        <ele>15.62</ele>
        <time>2015-06-19T11:12:33Z</time>
      </trkpt>
      <trkpt lat="36.166261" lon="-5.885225">
        <ele>15.67</ele>
        <time>2015-06-19T11:12:40Z</time>
      </trkpt>
      <trkpt lat="36.166191" lon="-5.884997">
        <ele>15.70</ele>
        <time>2015-06-19T11:12:46Z</time>
      </trkpt>
      <trkpt lat="36.166078" lon="-5.884585">
        <ele>15.63</ele>
        <time>2015-06-19T11:12:57Z</time>
      </trkpt>
      <trkpt lat="36.166007" lon="-5.884371">
        <ele>15.62</ele>
        <time>2015-06-19T11:13:03Z</time>
      </trkpt>
      <trkpt lat="36.165916" lon="-5.884048">
        <ele>15.61</ele>
        <time>2015-06-19T11:13:12Z</time>
      </trkpt>
      <trkpt lat="36.165821" lon="-5.883707">
        <ele>15.69</ele>
        <time>2015-06-19T11:13:21Z</time>
      </trkpt>
      <trkpt lat="36.165743" lon="-5.883445">
        <ele>15.69</ele>
        <time>2015-06-19T11:13:28Z</time>
      </trkpt>
      <trkpt lat="36.165726" lon="-5.883372">
        <ele>16.02</ele>
        <time>2015-06-19T11:13:30Z</time>
      </trkpt>
      <trkpt lat="36.165717" lon="-5.883336">
        <ele>16.68</ele>
        <time>2015-06-19T11:13:31Z</time>
      </trkpt>
      <trkpt lat="36.165709" lon="-5.883299">
        <ele>17.03</ele>
        <time>2015-06-19T11:13:32Z</time>
      </trkpt>
      <trkpt lat="36.165700" lon="-5.883261">
        <ele>17.45</ele>
        <time>2015-06-19T11:13:33Z</time>
      </trkpt>
      <trkpt lat="36.165691" lon="-5.883220">
        <ele>17.82</ele>
        <time>2015-06-19T11:13:34Z</time>
      </trkpt>
      <trkpt lat="36.165684" lon="-5.883183">
        <ele>17.88</ele>
        <time>2015-06-19T11:13:35Z</time>
      </trkpt>
      <trkpt lat="36.165659" lon="-5.882921">
        <ele>17.81</ele>
        <time>2015-06-19T11:13:42Z</time>
      </trkpt>
      <trkpt lat="36.165650" lon="-5.882774">
        <ele>17.83</ele>
        <time>2015-06-19T11:13:48Z</time>
      </trkpt>
      <trkpt lat="36.165649" lon="-5.882775">
        <ele>17.81</ele>
        <time>2015-06-19T11:13:54Z</time>
      </trkpt>
      <trkpt lat="36.165649" lon="-5.882775">
        <ele>17.81</ele>
        <time>2015-06-19T11:14:00Z</time>
      </trkpt>
      <trkpt lat="36.165649" lon="-5.882775">
        <ele>17.81</ele>
        <time>2015-06-19T11:14:04Z</time>
      </trkpt>
      <trkpt lat="36.165645" lon="-5.882776">
        <ele>17.90</ele>
        <time>2015-06-19T11:14:13Z</time>
      </trkpt>
      <trkpt lat="36.165639" lon="-5.882777">
        <ele>17.83</ele>
        <time>2015-06-19T11:14:16Z</time>
      </trkpt>
      <trkpt lat="36.165628" lon="-5.882778">
        <ele>17.86</ele>
        <time>2015-06-19T11:14:23Z</time>
      </trkpt>
      <trkpt lat="36.165614" lon="-5.882792">
        <ele>17.86</ele>
        <time>2015-06-19T11:14:25Z</time>
      </trkpt>
      <trkpt lat="36.165607" lon="-5.882850">
        <ele>17.85</ele>
        <time>2015-06-19T11:14:28Z</time>
      </trkpt>
      <trkpt lat="36.165530" lon="-5.882872">
        <ele>17.85</ele>
        <time>2015-06-19T11:14:31Z</time>
      </trkpt>
      <trkpt lat="36.165493" lon="-5.882870">
        <ele>17.87</ele>
        <time>2015-06-19T11:14:32Z</time>
      </trkpt>
      <trkpt lat="36.165380" lon="-5.882847">
        <ele>17.89</ele>
        <time>2015-06-19T11:14:35Z</time>
      </trkpt>
      <trkpt lat="36.165344" lon="-5.882831">
        <ele>17.84</ele>
        <time>2015-06-19T11:14:36Z</time>
      </trkpt>
      <trkpt lat="36.165194" lon="-5.882765">
        <ele>17.83</ele>
        <time>2015-06-19T11:14:40Z</time>
      </trkpt>
      <trkpt lat="36.165115" lon="-5.882757">
        <ele>17.41</ele>
        <time>2015-06-19T11:14:42Z</time>
      </trkpt>
      <trkpt lat="36.165083" lon="-5.882754">
        <ele>17.02</ele>
        <time>2015-06-19T11:14:43Z</time>
      </trkpt>
      <trkpt lat="36.165057" lon="-5.882764">
        <ele>16.70</ele>
        <time>2015-06-19T11:14:44Z</time>
      </trkpt>
      <trkpt lat="36.165033" lon="-5.882778">
        <ele>16.27</ele>
        <time>2015-06-19T11:14:45Z</time>
      </trkpt>
      <trkpt lat="36.165009" lon="-5.882785">
        <ele>15.88</ele>
        <time>2015-06-19T11:14:46Z</time>
      </trkpt>
      <trkpt lat="36.164865" lon="-5.882771">
        <ele>15.86</ele>
        <time>2015-06-19T11:14:52Z</time>
      </trkpt>
      <trkpt lat="36.164752" lon="-5.882763">
        <ele>15.85</ele>
        <time>2015-06-19T11:14:57Z</time>
      </trkpt>
      <trkpt lat="36.164734" lon="-5.882758">
        <ele>15.84</ele>
        <time>2015-06-19T11:14:58Z</time>
      </trkpt>
      <trkpt lat="36.164603" lon="-5.882676">
        <ele>15.85</ele>
        <time>2015-06-19T11:15:04Z</time>
      </trkpt>
      <trkpt lat="36.164547" lon="-5.882535">
        <ele>15.88</ele>
        <time>2015-06-19T11:15:09Z</time>
      </trkpt>
      <trkpt lat="36.164502" lon="-5.882434">
        <ele>15.86</ele>
        <time>2015-06-19T11:15:12Z</time>
      </trkpt>
      <trkpt lat="36.164435" lon="-5.882328">
        <ele>15.82</ele>
        <time>2015-06-19T11:15:16Z</time>
      </trkpt>
      <trkpt lat="36.164282" lon="-5.882196">
        <ele>15.81</ele>
        <time>2015-06-19T11:15:23Z</time>
      </trkpt>
      <trkpt lat="36.164258" lon="-5.882173">
        <ele>15.82</ele>
        <time>2015-06-19T11:15:24Z</time>
      </trkpt>
      <trkpt lat="36.164150" lon="-5.882011">
        <ele>15.86</ele>
        <time>2015-06-19T11:15:31Z</time>
      </trkpt>
      <trkpt lat="36.164061" lon="-5.881813">
        <ele>15.87</ele>
        <time>2015-06-19T11:15:38Z</time>
      </trkpt>
      <trkpt lat="36.164021" lon="-5.881714">
        <ele>15.42</ele>
        <time>2015-06-19T11:15:42Z</time>
      </trkpt>
      <trkpt lat="36.164007" lon="-5.881685">
        <ele>15.06</ele>
        <time>2015-06-19T11:15:43Z</time>
      </trkpt>
      <trkpt lat="36.163990" lon="-5.881652">
        <ele>14.47</ele>
        <time>2015-06-19T11:15:44Z</time>
      </trkpt>
      <trkpt lat="36.163968" lon="-5.881614">
        <ele>14.09</ele>
        <time>2015-06-19T11:15:45Z</time>
      </trkpt>
      <trkpt lat="36.163946" lon="-5.881579">
        <ele>13.61</ele>
        <time>2015-06-19T11:15:46Z</time>
      </trkpt>
      <trkpt lat="36.163889" lon="-5.881443">
        <ele>13.29</ele>
        <time>2015-06-19T11:15:50Z</time>
      </trkpt>
      <trkpt lat="36.163872" lon="-5.881413">
        <ele>12.82</ele>
        <time>2015-06-19T11:15:51Z</time>
      </trkpt>
      <trkpt lat="36.163852" lon="-5.881380">
        <ele>12.43</ele>
        <time>2015-06-19T11:15:52Z</time>
      </trkpt>
      <trkpt lat="36.163834" lon="-5.881348">
        <ele>12.01</ele>
        <time>2015-06-19T11:15:53Z</time>
      </trkpt>
      <trkpt lat="36.163814" lon="-5.881313">
        <ele>11.70</ele>
        <time>2015-06-19T11:15:54Z</time>
      </trkpt>
      <trkpt lat="36.163685" lon="-5.881109">
        <ele>11.66</ele>
        <time>2015-06-19T11:16:01Z</time>
      </trkpt>
      <trkpt lat="36.163598" lon="-5.880977">
        <ele>11.70</ele>
        <time>2015-06-19T11:16:08Z</time>
      </trkpt>
      <trkpt lat="36.163541" lon="-5.880875">
        <ele>11.68</ele>
        <time>2015-06-19T11:16:13Z</time>
      </trkpt>
      <trkpt lat="36.163491" lon="-5.880743">
        <ele>11.66</ele>
        <time>2015-06-19T11:16:18Z</time>
      </trkpt>
      <trkpt lat="36.163442" lon="-5.880536">
        <ele>11.62</ele>
        <time>2015-06-19T11:16:25Z</time>
      </trkpt>
      <trkpt lat="36.163404" lon="-5.880422">
        <ele>11.23</ele>
        <time>2015-06-19T11:16:29Z</time>
      </trkpt>
      <trkpt lat="36.163392" lon="-5.880394">
        <ele>10.81</ele>
        <time>2015-06-19T11:16:30Z</time>
      </trkpt>
      <trkpt lat="36.163382" lon="-5.880363">
        <ele>10.44</ele>
        <time>2015-06-19T11:16:31Z</time>
      </trkpt>
      <trkpt lat="36.163371" lon="-5.880332">
        <ele>10.05</ele>
        <time>2015-06-19T11:16:32Z</time>
      </trkpt>
      <trkpt lat="36.163361" lon="-5.880303">
        <ele>9.41</ele>
        <time>2015-06-19T11:16:33Z</time>
      </trkpt>
      <trkpt lat="36.163287" lon="-5.880076">
        <ele>9.41</ele>
        <time>2015-06-19T11:16:40Z</time>
      </trkpt>
      <trkpt lat="36.163239" lon="-5.879939">
        <ele>9.41</ele>
        <time>2015-06-19T11:16:44Z</time>
      </trkpt>
      <trkpt lat="36.163149" lon="-5.879799">
        <ele>9.44</ele>
        <time>2015-06-19T11:16:49Z</time>
      </trkpt>
      <trkpt lat="36.163050" lon="-5.879653">
        <ele>9.47</ele>
        <time>2015-06-19T11:16:55Z</time>
      </trkpt>
      <trkpt lat="36.162948" lon="-5.879561">
        <ele>9.43</ele>
        <time>2015-06-19T11:17:00Z</time>
      </trkpt>
      <trkpt lat="36.162931" lon="-5.879539">
        <ele>10.10</ele>
        <time>2015-06-19T11:17:01Z</time>
      </trkpt>
      <trkpt lat="36.162914" lon="-5.879517">
        <ele>10.50</ele>
        <time>2015-06-19T11:17:02Z</time>
      </trkpt>
      <trkpt lat="36.162896" lon="-5.879494">
        <ele>10.85</ele>
        <time>2015-06-19T11:17:03Z</time>
      </trkpt>
      <trkpt lat="36.162875" lon="-5.879474">
        <ele>11.28</ele>
        <time>2015-06-19T11:17:04Z</time>
      </trkpt>
      <trkpt lat="36.162854" lon="-5.879456">
        <ele>11.68</ele>
        <time>2015-06-19T11:17:05Z</time>
      </trkpt>
      <trkpt lat="36.162837" lon="-5.879434">
        <ele>11.63</ele>
        <time>2015-06-19T11:17:06Z</time>
      </trkpt>
      <trkpt lat="36.162774" lon="-5.879329">
        <ele>11.22</ele>
        <time>2015-06-19T11:17:10Z</time>
      </trkpt>
      <trkpt lat="36.162756" lon="-5.879306">
        <ele>10.81</ele>
        <time>2015-06-19T11:17:11Z</time>
      </trkpt>
      <trkpt lat="36.162739" lon="-5.879285">
        <ele>10.46</ele>
        <time>2015-06-19T11:17:12Z</time>
      </trkpt>
      <trkpt lat="36.162719" lon="-5.879268">
        <ele>10.10</ele>
        <time>2015-06-19T11:17:13Z</time>
      </trkpt>
      <trkpt lat="36.162698" lon="-5.879248">
        <ele>9.68</ele>
        <time>2015-06-19T11:17:14Z</time>
      </trkpt>
      <trkpt lat="36.162628" lon="-5.879193">
        <ele>9.65</ele>
        <time>2015-06-19T11:17:17Z</time>
      </trkpt>
      <trkpt lat="36.162606" lon="-5.879178">
        <ele>9.64</ele>
        <time>2015-06-19T11:17:18Z</time>
      </trkpt>
      <trkpt lat="36.162462" lon="-5.879069">
        <ele>9.64</ele>
        <time>2015-06-19T11:17:24Z</time>
      </trkpt>
      <trkpt lat="36.162365" lon="-5.878902">
        <ele>9.66</ele>
        <time>2015-06-19T11:17:30Z</time>
      </trkpt>
      <trkpt lat="36.162237" lon="-5.878763">
        <ele>9.63</ele>
        <time>2015-06-19T11:17:36Z</time>
      </trkpt>
      <trkpt lat="36.162086" lon="-5.878593">
        <ele>9.63</ele>
        <time>2015-06-19T11:17:43Z</time>
      </trkpt>
      <trkpt lat="36.161979" lon="-5.878477">
        <ele>9.62</ele>
        <time>2015-06-19T11:17:48Z</time>
      </trkpt>
      <trkpt lat="36.161860" lon="-5.878371">
        <ele>10.02</ele>
        <time>2015-06-19T11:17:54Z</time>
      </trkpt>
      <trkpt lat="36.161839" lon="-5.878352">
        <ele>10.41</ele>
        <time>2015-06-19T11:17:55Z</time>
      </trkpt>
      <trkpt lat="36.161816" lon="-5.878332">
        <ele>10.84</ele>
        <time>2015-06-19T11:17:56Z</time>
      </trkpt>
      <trkpt lat="36.161790" lon="-5.878310">
        <ele>11.27</ele>
        <time>2015-06-19T11:17:57Z</time>
      </trkpt>
      <trkpt lat="36.161766" lon="-5.878288">
        <ele>11.63</ele>
        <time>2015-06-19T11:17:58Z</time>
      </trkpt>
      <trkpt lat="36.161744" lon="-5.878265">
        <ele>11.21</ele>
        <time>2015-06-19T11:17:59Z</time>
      </trkpt>
      <trkpt lat="36.161725" lon="-5.878246">
        <ele>10.64</ele>
        <time>2015-06-19T11:18:00Z</time>
      </trkpt>
      <trkpt lat="36.161707" lon="-5.878223">
        <ele>10.29</ele>
        <time>2015-06-19T11:18:01Z</time>
      </trkpt>
      <trkpt lat="36.161687" lon="-5.878203">
        <ele>9.85</ele>
        <time>2015-06-19T11:18:02Z</time>
      </trkpt>
      <trkpt lat="36.161662" lon="-5.878180">
        <ele>9.45</ele>
        <time>2015-06-19T11:18:03Z</time>
      </trkpt>
      <trkpt lat="36.161596" lon="-5.878086">
        <ele>9.44</ele>
        <time>2015-06-19T11:18:06Z</time>
      </trkpt>
      <trkpt lat="36.161440" lon="-5.877844">
        <ele>9.47</ele>
        <time>2015-06-19T11:18:14Z</time>
      </trkpt>
      <trkpt lat="36.161370" lon="-5.877701">
        <ele>9.42</ele>
        <time>2015-06-19T11:18:19Z</time>
      </trkpt>
      <trkpt lat="36.161284" lon="-5.877494">
        <ele>9.41</ele>
        <time>2015-06-19T11:18:26Z</time>
      </trkpt>
      <trkpt lat="36.161189" lon="-5.877246">
        <ele>9.45</ele>
        <time>2015-06-19T11:18:34Z</time>
      </trkpt>
      <trkpt lat="36.161061" lon="-5.876994">
        <ele>9.47</ele>
        <time>2015-06-19T11:18:42Z</time>
      </trkpt>
      <trkpt lat="36.160967" lon="-5.876858">
        <ele>8.81</ele>
        <time>2015-06-19T11:18:47Z</time>
      </trkpt>
      <trkpt lat="36.160945" lon="-5.876827">
        <ele>8.47</ele>
        <time>2015-06-19T11:18:48Z</time>
      </trkpt>
      <trkpt lat="36.160925" lon="-5.876797">
        <ele>8.10</ele>
        <time>2015-06-19T11:18:49Z</time>
      </trkpt>
      <trkpt lat="36.160905" lon="-5.876771">
        <ele>7.63</ele>
        <time>2015-06-19T11:18:50Z</time>
      </trkpt>
      <trkpt lat="36.160890" lon="-5.876757">
        <ele>7.26</ele>
        <time>2015-06-19T11:18:51Z</time>
      </trkpt>
      <trkpt lat="36.160888" lon="-5.876757">
        <ele>7.26</ele>
        <time>2015-06-19T11:18:52Z</time>
      </trkpt>
      <trkpt lat="36.160878" lon="-5.876754">
        <ele>7.27</ele>
        <time>2015-06-19T11:18:59Z</time>
      </trkpt>
      <trkpt lat="36.160860" lon="-5.876743">
        <ele>7.26</ele>
        <time>2015-06-19T11:19:01Z</time>
      </trkpt>
      <trkpt lat="36.160839" lon="-5.876712">
        <ele>7.22</ele>
        <time>2015-06-19T11:19:05Z</time>
      </trkpt>
      <trkpt lat="36.160788" lon="-5.876642">
        <ele>7.21</ele>
        <time>2015-06-19T11:19:12Z</time>
      </trkpt>
      <trkpt lat="36.160760" lon="-5.876609">
        <ele>7.30</ele>
        <time>2015-06-19T11:19:16Z</time>
      </trkpt>
      <trkpt lat="36.160743" lon="-5.876577">
        <ele>7.27</ele>
        <time>2015-06-19T11:19:21Z</time>
      </trkpt>
      <trkpt lat="36.160736" lon="-5.876558">
        <ele>7.29</ele>
        <time>2015-06-19T11:19:23Z</time>
      </trkpt>
      <trkpt lat="36.160696" lon="-5.876516">
        <ele>7.28</ele>
        <time>2015-06-19T11:19:28Z</time>
      </trkpt>
      <trkpt lat="36.160669" lon="-5.876485">
        <ele>7.23</ele>
        <time>2015-06-19T11:19:32Z</time>
      </trkpt>
      <trkpt lat="36.160666" lon="-5.876472">
        <ele>7.22</ele>
        <time>2015-06-19T11:19:33Z</time>
      </trkpt>
      <trkpt lat="36.160660" lon="-5.876449">
        <ele>7.22</ele>
        <time>2015-06-19T11:19:39Z</time>
      </trkpt>
      <trkpt lat="36.160638" lon="-5.876424">
        <ele>7.26</ele>
        <time>2015-06-19T11:19:47Z</time>
      </trkpt>
      <trkpt lat="36.160594" lon="-5.876365">
        <ele>7.26</ele>
        <time>2015-06-19T11:19:50Z</time>
      </trkpt>
      <trkpt lat="36.160578" lon="-5.876349">
        <ele>7.20</ele>
        <time>2015-06-19T11:19:51Z</time>
      </trkpt>
      <trkpt lat="36.160486" lon="-5.876271">
        <ele>7.22</ele>
        <time>2015-06-19T11:19:57Z</time>
      </trkpt>
      <trkpt lat="36.160477" lon="-5.876250">
        <ele>7.21</ele>
        <time>2015-06-19T11:19:58Z</time>
      </trkpt>
      <trkpt lat="36.160440" lon="-5.876186">
        <ele>7.29</ele>
        <time>2015-06-19T11:20:02Z</time>
      </trkpt>
      <trkpt lat="36.160386" lon="-5.876078">
        <ele>7.28</ele>
        <time>2015-06-19T11:20:07Z</time>
      </trkpt>
      <trkpt lat="36.160360" lon="-5.876029">
        <ele>7.27</ele>
        <time>2015-06-19T11:20:09Z</time>
      </trkpt>
      <trkpt lat="36.160283" lon="-5.875944">
        <ele>7.89</ele>
        <time>2015-06-19T11:20:14Z</time>
      </trkpt>
      <trkpt lat="36.160269" lon="-5.875927">
        <ele>8.22</ele>
        <time>2015-06-19T11:20:15Z</time>
      </trkpt>
      <trkpt lat="36.160250" lon="-5.875910">
        <ele>8.61</ele>
        <time>2015-06-19T11:20:16Z</time>
      </trkpt>
      <trkpt lat="36.160232" lon="-5.875894">
        <ele>9.09</ele>
        <time>2015-06-19T11:20:17Z</time>
      </trkpt>
      <trkpt lat="36.160213" lon="-5.875881">
        <ele>9.42</ele>
        <time>2015-06-19T11:20:18Z</time>
      </trkpt>
      <trkpt lat="36.160175" lon="-5.875853">
        <ele>9.47</ele>
        <time>2015-06-19T11:20:20Z</time>
      </trkpt>
      <trkpt lat="36.160109" lon="-5.875797">
        <ele>9.44</ele>
        <time>2015-06-19T11:20:24Z</time>
      </trkpt>
      <trkpt lat="36.160087" lon="-5.875752">
        <ele>9.43</ele>
        <time>2015-06-19T11:20:26Z</time>
      </trkpt>
      <trkpt lat="36.160021" lon="-5.875652">
        <ele>9.41</ele>
        <time>2015-06-19T11:20:31Z</time>
      </trkpt>
      <trkpt lat="36.159995" lon="-5.875612">
        <ele>9.47</ele>
        <time>2015-06-19T11:20:33Z</time>
      </trkpt>
      <trkpt lat="36.159946" lon="-5.875550">
        <ele>8.63</ele>
        <time>2015-06-19T11:20:36Z</time>
      </trkpt>
      <trkpt lat="36.159928" lon="-5.875535">
        <ele>8.27</ele>
        <time>2015-06-19T11:20:37Z</time>
      </trkpt>
      <trkpt lat="36.159912" lon="-5.875520">
        <ele>7.85</ele>
        <time>2015-06-19T11:20:38Z</time>
      </trkpt>
      <trkpt lat="36.159896" lon="-5.875503">
        <ele>7.41</ele>
        <time>2015-06-19T11:20:39Z</time>
      </trkpt>
      <trkpt lat="36.159869" lon="-5.875472">
        <ele>7.48</ele>
        <time>2015-06-19T11:20:41Z</time>
      </trkpt>
      <trkpt lat="36.159753" lon="-5.875320">
        <ele>7.45</ele>
        <time>2015-06-19T11:20:49Z</time>
      </trkpt>
      <trkpt lat="36.159672" lon="-5.875207">
        <ele>7.48</ele>
        <time>2015-06-19T11:20:55Z</time>
      </trkpt>
      <trkpt lat="36.159536" lon="-5.875064">
        <ele>7.42</ele>
        <time>2015-06-19T11:21:03Z</time>
      </trkpt>
      <trkpt lat="36.159423" lon="-5.874961">
        <ele>7.48</ele>
        <time>2015-06-19T11:21:10Z</time>
      </trkpt>
      <trkpt lat="36.159344" lon="-5.874883">
        <ele>7.81</ele>
        <time>2015-06-19T11:21:15Z</time>
      </trkpt>
      <trkpt lat="36.159328" lon="-5.874869">
        <ele>8.21</ele>
        <time>2015-06-19T11:21:16Z</time>
      </trkpt>
      <trkpt lat="36.159314" lon="-5.874854">
        <ele>8.69</ele>
        <time>2015-06-19T11:21:17Z</time>
      </trkpt>
      <trkpt lat="36.159298" lon="-5.874840">
        <ele>9.09</ele>
        <time>2015-06-19T11:21:18Z</time>
      </trkpt>
      <trkpt lat="36.159283" lon="-5.874825">
        <ele>9.49</ele>
        <time>2015-06-19T11:21:19Z</time>
      </trkpt>
      <trkpt lat="36.159271" lon="-5.874806">
        <ele>9.48</ele>
        <time>2015-06-19T11:21:20Z</time>
      </trkpt>
      <trkpt lat="36.159255" lon="-5.874788">
        <ele>9.82</ele>
        <time>2015-06-19T11:21:21Z</time>
      </trkpt>
      <trkpt lat="36.159240" lon="-5.874772">
        <ele>10.44</ele>
        <time>2015-06-19T11:21:22Z</time>
      </trkpt>
      <trkpt lat="36.159225" lon="-5.874755">
        <ele>10.82</ele>
        <time>2015-06-19T11:21:23Z</time>
      </trkpt>
      <trkpt lat="36.159211" lon="-5.874739">
        <ele>11.65</ele>
        <time>2015-06-19T11:21:24Z</time>
      </trkpt>
      <trkpt lat="36.159172" lon="-5.874688">
        <ele>11.67</ele>
        <time>2015-06-19T11:21:27Z</time>
      </trkpt>
      <trkpt lat="36.159102" lon="-5.874560">
        <ele>11.66</ele>
        <time>2015-06-19T11:21:33Z</time>
      </trkpt>
      <trkpt lat="36.159023" lon="-5.874396">
        <ele>11.62</ele>
        <time>2015-06-19T11:21:41Z</time>
      </trkpt>
      <trkpt lat="36.158967" lon="-5.874279">
        <ele>11.61</ele>
        <time>2015-06-19T11:21:46Z</time>
      </trkpt>
      <trkpt lat="36.158851" lon="-5.874098">
        <ele>12.09</ele>
        <time>2015-06-19T11:21:54Z</time>
      </trkpt>
      <trkpt lat="36.158835" lon="-5.874073">
        <ele>12.49</ele>
        <time>2015-06-19T11:21:55Z</time>
      </trkpt>
      <trkpt lat="36.158820" lon="-5.874048">
        <ele>12.88</ele>
        <time>2015-06-19T11:21:56Z</time>
      </trkpt>
      <trkpt lat="36.158802" lon="-5.874027">
        <ele>13.25</ele>
        <time>2015-06-19T11:21:57Z</time>
      </trkpt>
      <trkpt lat="36.158786" lon="-5.874006">
        <ele>13.89</ele>
        <time>2015-06-19T11:21:58Z</time>
      </trkpt>
      <trkpt lat="36.158739" lon="-5.873938">
        <ele>13.86</ele>
        <time>2015-06-19T11:22:01Z</time>
      </trkpt>
      <trkpt lat="36.158672" lon="-5.873806">
        <ele>13.89</ele>
        <time>2015-06-19T11:22:07Z</time>
      </trkpt>
      <trkpt lat="36.158597" lon="-5.873684">
        <ele>13.21</ele>
        <time>2015-06-19T11:22:12Z</time>
      </trkpt>
      <trkpt lat="36.158579" lon="-5.873667">
        <ele>12.85</ele>
        <time>2015-06-19T11:22:13Z</time>
      </trkpt>
      <trkpt lat="36.158563" lon="-5.873649">
        <ele>12.40</ele>
        <time>2015-06-19T11:22:14Z</time>
      </trkpt>
      <trkpt lat="36.158546" lon="-5.873628">
        <ele>11.61</ele>
        <time>2015-06-19T11:22:15Z</time>
      </trkpt>
      <trkpt lat="36.158478" lon="-5.873520">
        <ele>11.61</ele>
        <time>2015-06-19T11:22:20Z</time>
      </trkpt>
      <trkpt lat="36.158394" lon="-5.873407">
        <ele>11.63</ele>
        <time>2015-06-19T11:22:26Z</time>
      </trkpt>
      <trkpt lat="36.158269" lon="-5.873281">
        <ele>11.62</ele>
        <time>2015-06-19T11:22:33Z</time>
      </trkpt>
      <trkpt lat="36.158162" lon="-5.873166">
        <ele>11.69</ele>
        <time>2015-06-19T11:22:39Z</time>
      </trkpt>
      <trkpt lat="36.158037" lon="-5.873051">
        <ele>11.68</ele>
        <time>2015-06-19T11:22:46Z</time>
      </trkpt>
      <trkpt lat="36.157902" lon="-5.872907">
        <ele>11.65</ele>
        <time>2015-06-19T11:22:53Z</time>
      </trkpt>
      <trkpt lat="36.157804" lon="-5.872788">
        <ele>11.68</ele>
        <time>2015-06-19T11:22:59Z</time>
      </trkpt>
      <trkpt lat="36.157704" lon="-5.872639">
        <ele>11.69</ele>
        <time>2015-06-19T11:23:06Z</time>
      </trkpt>
      <trkpt lat="36.157567" lon="-5.872446">
        <ele>11.66</ele>
        <time>2015-06-19T11:23:15Z</time>
      </trkpt>
      <trkpt lat="36.157459" lon="-5.872318">
        <ele>11.69</ele>
        <time>2015-06-19T11:23:21Z</time>
      </trkpt>
      <trkpt lat="36.157401" lon="-5.872252">
        <ele>4.08</ele>
        <time>2015-06-19T11:23:25Z</time>
      </trkpt>
      <trkpt lat="36.157343" lon="-5.872175">
        <ele>3.62</ele>
        <time>2015-06-19T11:23:29Z</time>
      </trkpt>
      <trkpt lat="36.157256" lon="-5.872044">
        <ele>3.21</ele>
        <time>2015-06-19T11:23:34Z</time>
      </trkpt>
      <trkpt lat="36.157238" lon="-5.872016">
        <ele>2.68</ele>
        <time>2015-06-19T11:23:35Z</time>
      </trkpt>
      <trkpt lat="36.157220" lon="-5.871987">
        <ele>2.30</ele>
        <time>2015-06-19T11:23:36Z</time>
      </trkpt>
      <trkpt lat="36.157204" lon="-5.871959">
        <ele>1.85</ele>
        <time>2015-06-19T11:23:37Z</time>
      </trkpt>
      <trkpt lat="36.157190" lon="-5.871928">
        <ele>1.44</ele>
        <time>2015-06-19T11:23:38Z</time>
      </trkpt>
      <trkpt lat="36.157155" lon="-5.871873">
        <ele>1.46</ele>
        <time>2015-06-19T11:23:40Z</time>
      </trkpt>
      <trkpt lat="36.157100" lon="-5.871787">
        <ele>1.01</ele>
        <time>2015-06-19T11:23:43Z</time>
      </trkpt>
      <trkpt lat="36.157082" lon="-5.871758">
        <ele>0.44</ele>
        <time>2015-06-19T11:23:44Z</time>
      </trkpt>
      <trkpt lat="36.157063" lon="-5.871729">
        <ele>0.06</ele>
        <time>2015-06-19T11:23:45Z</time>
      </trkpt>
      <trkpt lat="36.157045" lon="-5.871701">
        <ele>-0.48</ele>
        <time>2015-06-19T11:23:46Z</time>
      </trkpt>
      <trkpt lat="36.157026" lon="-5.871671">
        <ele>-0.86</ele>
        <time>2015-06-19T11:23:47Z</time>
      </trkpt>
      <trkpt lat="36.156994" lon="-5.871617">
        <ele>-1.42</ele>
        <time>2015-06-19T11:23:49Z</time>
      </trkpt>
      <trkpt lat="36.156980" lon="-5.871594">
        <ele>-1.81</ele>
        <time>2015-06-19T11:23:50Z</time>
      </trkpt>
      <trkpt lat="36.156966" lon="-5.871574">
        <ele>-2.42</ele>
        <time>2015-06-19T11:23:51Z</time>
      </trkpt>
      <trkpt lat="36.156952" lon="-5.871555">
        <ele>-3.04</ele>
        <time>2015-06-19T11:23:52Z</time>
      </trkpt>
      <trkpt lat="36.156940" lon="-5.871535">
        <ele>-2.70</ele>
        <time>2015-06-19T11:23:53Z</time>
      </trkpt>
      <trkpt lat="36.156929" lon="-5.871520">
        <ele>-2.23</ele>
        <time>2015-06-19T11:23:54Z</time>
      </trkpt>
      <trkpt lat="36.156918" lon="-5.871504">
        <ele>4.03</ele>
        <time>2015-06-19T11:23:55Z</time>
      </trkpt>
      <trkpt lat="36.156903" lon="-5.871488">
        <ele>4.06</ele>
        <time>2015-06-19T11:23:56Z</time>
      </trkpt>
      <trkpt lat="36.156855" lon="-5.871421">
        <ele>2.83</ele>
        <time>2015-06-19T11:23:59Z</time>
      </trkpt>
      <trkpt lat="36.156837" lon="-5.871397">
        <ele>3.22</ele>
        <time>2015-06-19T11:24:00Z</time>
      </trkpt>
      <trkpt lat="36.156816" lon="-5.871374">
        <ele>3.27</ele>
        <time>2015-06-19T11:24:01Z</time>
      </trkpt>
      <trkpt lat="36.156713" lon="-5.871232">
        <ele>3.29</ele>
        <time>2015-06-19T11:24:07Z</time>
      </trkpt>
      <trkpt lat="36.156587" lon="-5.871094">
        <ele>3.21</ele>
        <time>2015-06-19T11:24:14Z</time>
      </trkpt>
      <trkpt lat="36.156454" lon="-5.870988">
        <ele>3.21</ele>
        <time>2015-06-19T11:24:20Z</time>
      </trkpt>
      <trkpt lat="36.156323" lon="-5.870875">
        <ele>3.28</ele>
        <time>2015-06-19T11:24:26Z</time>
      </trkpt>
      <trkpt lat="36.156204" lon="-5.870754">
        <ele>3.21</ele>
        <time>2015-06-19T11:24:32Z</time>
      </trkpt>
      <trkpt lat="36.156063" lon="-5.870608">
        <ele>3.27</ele>
        <time>2015-06-19T11:24:39Z</time>
      </trkpt>
      <trkpt lat="36.156056" lon="-5.870593">
        <ele>3.29</ele>
        <time>2015-06-19T11:24:42Z</time>
      </trkpt>
      <trkpt lat="36.156056" lon="-5.870593">
        <ele>2.67</ele>
        <time>2015-06-19T11:24:47Z</time>
      </trkpt>
      <trkpt lat="36.156056" lon="-5.870593">
        <ele>2.21</ele>
        <time>2015-06-19T11:24:48Z</time>
      </trkpt>
      <trkpt lat="36.156056" lon="-5.870593">
        <ele>1.69</ele>
        <time>2015-06-19T11:24:49Z</time>
      </trkpt>
      <trkpt lat="36.156056" lon="-5.870593">
        <ele>1.01</ele>
        <time>2015-06-19T11:24:50Z</time>
      </trkpt>
      <trkpt lat="36.156056" lon="-5.870593">
        <ele>0.41</ele>
        <time>2015-06-19T11:24:51Z</time>
      </trkpt>
      <trkpt lat="36.156056" lon="-5.870593">
        <ele>0.42</ele>
        <time>2015-06-19T11:24:55Z</time>
      </trkpt>
      <trkpt lat="36.156056" lon="-5.870593">
        <ele>0.40</ele>
        <time>2015-06-19T11:24:58Z</time>
      </trkpt>
      <trkpt lat="36.156056" lon="-5.870593">
        <ele>0.41</ele>
        <time>2015-06-19T11:25:02Z</time>
      </trkpt>
      <trkpt lat="36.156056" lon="-5.870593">
        <ele>0.44</ele>
        <time>2015-06-19T11:25:04Z</time>
      </trkpt>
      <trkpt lat="36.156057" lon="-5.870593">
        <ele>0.47</ele>
        <time>2015-06-19T11:25:22Z</time>
      </trkpt>
      <trkpt lat="36.156057" lon="-5.870593">
        <ele>0.41</ele>
        <time>2015-06-19T11:25:36Z</time>
      </trkpt>
      <trkpt lat="36.156057" lon="-5.870593">
        <ele>0.44</ele>
        <time>2015-06-19T11:25:39Z</time>
      </trkpt>
      <trkpt lat="36.156057" lon="-5.870593">
        <ele>0.44</ele>
        <time>2015-06-19T11:25:42Z</time>
      </trkpt>
      <trkpt lat="36.156057" lon="-5.870593">
        <ele>0.46</ele>
        <time>2015-06-19T11:25:45Z</time>
      </trkpt>
      <trkpt lat="36.156057" lon="-5.870593">
        <ele>0.43</ele>
        <time>2015-06-19T11:25:49Z</time>
      </trkpt>
      <trkpt lat="36.156057" lon="-5.870593">
        <ele>0.47</ele>
        <time>2015-06-19T11:25:51Z</time>
      </trkpt>
      <trkpt lat="36.156057" lon="-5.870593">
        <ele>0.44</ele>
        <time>2015-06-19T11:25:52Z</time>
      </trkpt>
      <trkpt lat="36.156057" lon="-5.870593">
        <ele>0.42</ele>
        <time>2015-06-19T11:25:55Z</time>
      </trkpt>
      <trkpt lat="36.156057" lon="-5.870592">
        <ele>0.42</ele>
        <time>2015-06-19T11:26:06Z</time>
      </trkpt>
      <trkpt lat="36.156057" lon="-5.870592">
        <ele>0.41</ele>
        <time>2015-06-19T11:26:10Z</time>
      </trkpt>
      <trkpt lat="36.156057" lon="-5.870592">
        <ele>0.48</ele>
        <time>2015-06-19T11:26:11Z</time>
      </trkpt>
      <trkpt lat="36.156057" lon="-5.870592">
        <ele>0.42</ele>
        <time>2015-06-19T11:26:16Z</time>
      </trkpt>
      <trkpt lat="36.156057" lon="-5.870592">
        <ele>0.48</ele>
        <time>2015-06-19T11:26:25Z</time>
      </trkpt>
      <trkpt lat="36.156057" lon="-5.870592">
        <ele>0.41</ele>
        <time>2015-06-19T11:26:28Z</time>
      </trkpt>
      <trkpt lat="36.156058" lon="-5.870590">
        <ele>0.49</ele>
        <time>2015-06-19T11:26:45Z</time>
      </trkpt>
      <trkpt lat="36.156058" lon="-5.870590">
        <ele>0.44</ele>
        <time>2015-06-19T11:26:56Z</time>
      </trkpt>
      <trkpt lat="36.156058" lon="-5.870590">
        <ele>0.42</ele>
        <time>2015-06-19T11:26:59Z</time>
      </trkpt>
      <trkpt lat="36.156058" lon="-5.870590">
        <ele>0.49</ele>
        <time>2015-06-19T11:27:05Z</time>
      </trkpt>
      <trkpt lat="36.156058" lon="-5.870590">
        <ele>0.49</ele>
        <time>2015-06-19T11:27:07Z</time>
      </trkpt>
      <trkpt lat="36.156058" lon="-5.870590">
        <ele>0.41</ele>
        <time>2015-06-19T11:27:12Z</time>
      </trkpt>
      <trkpt lat="36.156058" lon="-5.870590">
        <ele>0.43</ele>
        <time>2015-06-19T11:27:14Z</time>
      </trkpt>
      <trkpt lat="36.156058" lon="-5.870590">
        <ele>0.41</ele>
        <time>2015-06-19T11:27:16Z</time>
      </trkpt>
      <trkpt lat="36.156060" lon="-5.870591">
        <ele>0.47</ele>
        <time>2015-06-19T11:27:24Z</time>
      </trkpt>
      <trkpt lat="36.156060" lon="-5.870591">
        <ele>0.50</ele>
        <time>2015-06-19T11:27:32Z</time>
      </trkpt>
      <trkpt lat="36.156060" lon="-5.870591">
        <ele>0.47</ele>
        <time>2015-06-19T11:27:33Z</time>
      </trkpt>
      <trkpt lat="36.156060" lon="-5.870591">
        <ele>0.42</ele>
        <time>2015-06-19T11:27:39Z</time>
      </trkpt>
      <trkpt lat="36.156060" lon="-5.870591">
        <ele>0.46</ele>
        <time>2015-06-19T11:27:53Z</time>
      </trkpt>
      <trkpt lat="36.156060" lon="-5.870591">
        <ele>0.49</ele>
        <time>2015-06-19T11:27:55Z</time>
      </trkpt>
      <trkpt lat="36.156060" lon="-5.870591">
        <ele>0.49</ele>
        <time>2015-06-19T11:27:58Z</time>
      </trkpt>
      <trkpt lat="36.156061" lon="-5.870590">
        <ele>0.41</ele>
        <time>2015-06-19T11:28:03Z</time>
      </trkpt>
      <trkpt lat="36.156061" lon="-5.870590">
        <ele>0.42</ele>
        <time>2015-06-19T11:28:06Z</time>
      </trkpt>
      <trkpt lat="36.156061" lon="-5.870590">
        <ele>0.48</ele>
        <time>2015-06-19T11:28:08Z</time>
      </trkpt>
      <trkpt lat="36.156061" lon="-5.870590">
        <ele>0.41</ele>
        <time>2015-06-19T11:28:12Z</time>
      </trkpt>
      <trkpt lat="36.156061" lon="-5.870590">
        <ele>0.41</ele>
        <time>2015-06-19T11:28:18Z</time>
      </trkpt>
      <trkpt lat="36.156061" lon="-5.870590">
        <ele>0.45</ele>
        <time>2015-06-19T11:28:21Z</time>
      </trkpt>
      <trkpt lat="36.156061" lon="-5.870590">
        <ele>0.50</ele>
        <time>2015-06-19T11:28:27Z</time>
      </trkpt>
      <trkpt lat="36.156061" lon="-5.870590">
        <ele>0.49</ele>
        <time>2015-06-19T11:28:28Z</time>
      </trkpt>
      <trkpt lat="36.156061" lon="-5.870590">
        <ele>0.47</ele>
        <time>2015-06-19T11:28:33Z</time>
      </trkpt>
      <trkpt lat="36.156060" lon="-5.870589">
        <ele>0.50</ele>
        <time>2015-06-19T11:28:42Z</time>
      </trkpt>
      <trkpt lat="36.156060" lon="-5.870589">
        <ele>0.48</ele>
        <time>2015-06-19T11:28:46Z</time>
      </trkpt>
      <trkpt lat="36.156060" lon="-5.870589">
        <ele>0.44</ele>
        <time>2015-06-19T11:28:54Z</time>
      </trkpt>
      <trkpt lat="36.156046" lon="-5.870580">
        <ele>0.46</ele>
        <time>2015-06-19T11:28:57Z</time>
      </trkpt>
      <trkpt lat="36.156022" lon="-5.870556">
        <ele>0.89</ele>
        <time>2015-06-19T11:28:59Z</time>
      </trkpt>
      <trkpt lat="36.156001" lon="-5.870543">
        <ele>1.26</ele>
        <time>2015-06-19T11:29:00Z</time>
      </trkpt>
      <trkpt lat="36.155986" lon="-5.870524">
        <ele>1.62</ele>
        <time>2015-06-19T11:29:01Z</time>
      </trkpt>
      <trkpt lat="36.155967" lon="-5.870504">
        <ele>2.01</ele>
        <time>2015-06-19T11:29:02Z</time>
      </trkpt>
      <trkpt lat="36.155951" lon="-5.870489">
        <ele>2.49</ele>
        <time>2015-06-19T11:29:03Z</time>
      </trkpt>
      <trkpt lat="36.155859" lon="-5.870421">
        <ele>2.44</ele>
        <time>2015-06-19T11:29:08Z</time>
      </trkpt>
      <trkpt lat="36.155825" lon="-5.870389">
        <ele>2.44</ele>
        <time>2015-06-19T11:29:10Z</time>
      </trkpt>
      <trkpt lat="36.155741" lon="-5.870305">
        <ele>2.46</ele>
        <time>2015-06-19T11:29:15Z</time>
      </trkpt>
      <trkpt lat="36.155722" lon="-5.870292">
        <ele>2.47</ele>
        <time>2015-06-19T11:29:16Z</time>
      </trkpt>
      <trkpt lat="36.155622" lon="-5.870200">
        <ele>2.46</ele>
        <time>2015-06-19T11:29:22Z</time>
      </trkpt>
      <trkpt lat="36.155599" lon="-5.870192">
        <ele>2.42</ele>
        <time>2015-06-19T11:29:23Z</time>
      </trkpt>
      <trkpt lat="36.155498" lon="-5.870128">
        <ele>2.46</ele>
        <time>2015-06-19T11:29:28Z</time>
      </trkpt>
      <trkpt lat="36.155404" lon="-5.870071">
        <ele>2.49</ele>
        <time>2015-06-19T11:29:33Z</time>
      </trkpt>
      <trkpt lat="36.155333" lon="-5.870026">
        <ele>2.44</ele>
        <time>2015-06-19T11:29:37Z</time>
      </trkpt>
      <trkpt lat="36.155251" lon="-5.869983">
        <ele>2.43</ele>
        <time>2015-06-19T11:29:41Z</time>
      </trkpt>
      <trkpt lat="36.155154" lon="-5.869915">
        <ele>2.41</ele>
        <time>2015-06-19T11:29:46Z</time>
      </trkpt>
      <trkpt lat="36.155006" lon="-5.869809">
        <ele>2.49</ele>
        <time>2015-06-19T11:29:54Z</time>
      </trkpt>
      <trkpt lat="36.154877" lon="-5.869706">
        <ele>2.48</ele>
        <time>2015-06-19T11:30:01Z</time>
      </trkpt>
      <trkpt lat="36.154756" lon="-5.869590">
        <ele>2.89</ele>
        <time>2015-06-19T11:30:08Z</time>
      </trkpt>
      <trkpt lat="36.154737" lon="-5.869575">
        <ele>3.48</ele>
        <time>2015-06-19T11:30:09Z</time>
      </trkpt>
      <trkpt lat="36.154721" lon="-5.869560">
        <ele>3.81</ele>
        <time>2015-06-19T11:30:10Z</time>
      </trkpt>
      <trkpt lat="36.154701" lon="-5.869547">
        <ele>4.22</ele>
        <time>2015-06-19T11:30:11Z</time>
      </trkpt>
      <trkpt lat="36.154683" lon="-5.869528">
        <ele>4.69</ele>
        <time>2015-06-19T11:30:12Z</time>
      </trkpt>
      <trkpt lat="36.154652" lon="-5.869492">
        <ele>4.66</ele>
        <time>2015-06-19T11:30:14Z</time>
      </trkpt>
      <trkpt lat="36.154543" lon="-5.869339">
        <ele>4.63</ele>
        <time>2015-06-19T11:30:21Z</time>
      </trkpt>
      <trkpt lat="36.154459" lon="-5.869216">
        <ele>4.60</ele>
        <time>2015-06-19T11:30:27Z</time>
      </trkpt>
      <trkpt lat="36.154359" lon="-5.869068">
        <ele>4.62</ele>
        <time>2015-06-19T11:30:34Z</time>
      </trkpt>
      <trkpt lat="36.154238" lon="-5.868899">
        <ele>4.61</ele>
        <time>2015-06-19T11:30:42Z</time>
      </trkpt>
      <trkpt lat="36.154116" lon="-5.868749">
        <ele>4.62</ele>
        <time>2015-06-19T11:30:49Z</time>
      </trkpt>
      <trkpt lat="36.154028" lon="-5.868649">
        <ele>4.62</ele>
        <time>2015-06-19T11:30:55Z</time>
      </trkpt>
      <trkpt lat="36.153935" lon="-5.868527">
        <ele>5.02</ele>
        <time>2015-06-19T11:31:01Z</time>
      </trkpt>
      <trkpt lat="36.153919" lon="-5.868509">
        <ele>5.44</ele>
        <time>2015-06-19T11:31:02Z</time>
      </trkpt>
      <trkpt lat="36.153902" lon="-5.868494">
        <ele>5.86</ele>
        <time>2015-06-19T11:31:03Z</time>
      </trkpt>
      <trkpt lat="36.153883" lon="-5.868479">
        <ele>6.26</ele>
        <time>2015-06-19T11:31:04Z</time>
      </trkpt>
      <trkpt lat="36.153868" lon="-5.868459">
        <ele>6.68</ele>
        <time>2015-06-19T11:31:05Z</time>
      </trkpt>
      <trkpt lat="36.153848" lon="-5.868439">
        <ele>7.05</ele>
        <time>2015-06-19T11:31:06Z</time>
      </trkpt>
      <trkpt lat="36.153831" lon="-5.868420">
        <ele>7.48</ele>
        <time>2015-06-19T11:31:07Z</time>
      </trkpt>
      <trkpt lat="36.153811" lon="-5.868399">
        <ele>7.83</ele>
        <time>2015-06-19T11:31:08Z</time>
      </trkpt>
      <trkpt lat="36.153793" lon="-5.868383">
        <ele>8.22</ele>
        <time>2015-06-19T11:31:09Z</time>
      </trkpt>
      <trkpt lat="36.153774" lon="-5.868371">
        <ele>8.61</ele>
        <time>2015-06-19T11:31:10Z</time>
      </trkpt>
      <trkpt lat="36.153698" lon="-5.868289">
        <ele>8.66</ele>
        <time>2015-06-19T11:31:14Z</time>
      </trkpt>
      <trkpt lat="36.153556" lon="-5.868128">
        <ele>8.68</ele>
        <time>2015-06-19T11:31:22Z</time>
      </trkpt>
      <trkpt lat="36.153493" lon="-5.868037">
        <ele>8.22</ele>
        <time>2015-06-19T11:31:26Z</time>
      </trkpt>
      <trkpt lat="36.153474" lon="-5.868017">
        <ele>7.87</ele>
        <time>2015-06-19T11:31:27Z</time>
      </trkpt>
      <trkpt lat="36.153453" lon="-5.867996">
        <ele>7.47</ele>
        <time>2015-06-19T11:31:28Z</time>
      </trkpt>
      <trkpt lat="36.153435" lon="-5.867975">
        <ele>7.08</ele>
        <time>2015-06-19T11:31:29Z</time>
      </trkpt>
      <trkpt lat="36.153420" lon="-5.867959">
        <ele>6.66</ele>
        <time>2015-06-19T11:31:30Z</time>
      </trkpt>
      <trkpt lat="36.153364" lon="-5.867898">
        <ele>6.64</ele>
        <time>2015-06-19T11:31:33Z</time>
      </trkpt>
      <trkpt lat="36.153224" lon="-5.867777">
        <ele>6.63</ele>
        <time>2015-06-19T11:31:40Z</time>
      </trkpt>
      <trkpt lat="36.153171" lon="-5.867715">
        <ele>7.25</ele>
        <time>2015-06-19T11:31:43Z</time>
      </trkpt>
      <trkpt lat="36.153152" lon="-5.867696">
        <ele>7.61</ele>
        <time>2015-06-19T11:31:44Z</time>
      </trkpt>
      <trkpt lat="36.153131" lon="-5.867676">
        <ele>8.61</ele>
        <time>2015-06-19T11:31:45Z</time>
      </trkpt>
      <trkpt lat="36.153109" lon="-5.867654">
        <ele>9.03</ele>
        <time>2015-06-19T11:31:46Z</time>
      </trkpt>
      <trkpt lat="36.152994" lon="-5.867568">
        <ele>9.05</ele>
        <time>2015-06-19T11:31:51Z</time>
      </trkpt>
      <trkpt lat="36.152830" lon="-5.867408">
        <ele>8.63</ele>
        <time>2015-06-19T11:31:58Z</time>
      </trkpt>
      <trkpt lat="36.152808" lon="-5.867384">
        <ele>8.25</ele>
        <time>2015-06-19T11:31:59Z</time>
      </trkpt>
      <trkpt lat="36.152786" lon="-5.867361">
        <ele>7.90</ele>
        <time>2015-06-19T11:32:00Z</time>
      </trkpt>
      <trkpt lat="36.152765" lon="-5.867338">
        <ele>7.22</ele>
        <time>2015-06-19T11:32:01Z</time>
      </trkpt>
      <trkpt lat="36.152744" lon="-5.867317">
        <ele>6.88</ele>
        <time>2015-06-19T11:32:02Z</time>
      </trkpt>
      <trkpt lat="36.152656" lon="-5.867220">
        <ele>6.83</ele>
        <time>2015-06-19T11:32:06Z</time>
      </trkpt>
      <trkpt lat="36.152473" lon="-5.867020">
        <ele>6.85</ele>
        <time>2015-06-19T11:32:15Z</time>
      </trkpt>
      <trkpt lat="36.152452" lon="-5.867010">
        <ele>6.86</ele>
        <time>2015-06-19T11:32:16Z</time>
      </trkpt>
      <trkpt lat="36.152389" lon="-5.866932">
        <ele>6.81</ele>
        <time>2015-06-19T11:32:20Z</time>
      </trkpt>
      <trkpt lat="36.152297" lon="-5.866805">
        <ele>6.81</ele>
        <time>2015-06-19T11:32:26Z</time>
      </trkpt>
      <trkpt lat="36.152252" lon="-5.866706">
        <ele>6.87</ele>
        <time>2015-06-19T11:32:31Z</time>
      </trkpt>
      <trkpt lat="36.152170" lon="-5.866567">
        <ele>6.87</ele>
        <time>2015-06-19T11:32:38Z</time>
      </trkpt>
      <trkpt lat="36.152075" lon="-5.866487">
        <ele>6.84</ele>
        <time>2015-06-19T11:32:43Z</time>
      </trkpt>
      <trkpt lat="36.152053" lon="-5.866480">
        <ele>6.88</ele>
        <time>2015-06-19T11:32:44Z</time>
      </trkpt>
      <trkpt lat="36.152033" lon="-5.866464">
        <ele>7.25</ele>
        <time>2015-06-19T11:32:45Z</time>
      </trkpt>
      <trkpt lat="36.152010" lon="-5.866452">
        <ele>7.69</ele>
        <time>2015-06-19T11:32:46Z</time>
      </trkpt>
      <trkpt lat="36.151987" lon="-5.866440">
        <ele>8.09</ele>
        <time>2015-06-19T11:32:47Z</time>
      </trkpt>
      <trkpt lat="36.151967" lon="-5.866426">
        <ele>8.48</ele>
        <time>2015-06-19T11:32:48Z</time>
      </trkpt>
      <trkpt lat="36.151953" lon="-5.866412">
        <ele>8.82</ele>
        <time>2015-06-19T11:32:49Z</time>
      </trkpt>
      <trkpt lat="36.151937" lon="-5.866401">
        <ele>8.81</ele>
        <time>2015-06-19T11:32:50Z</time>
      </trkpt>
      <trkpt lat="36.151808" lon="-5.866295">
        <ele>8.82</ele>
        <time>2015-06-19T11:32:57Z</time>
      </trkpt>
      <trkpt lat="36.151631" lon="-5.866112">
        <ele>8.81</ele>
        <time>2015-06-19T11:33:05Z</time>
      </trkpt>
      <trkpt lat="36.151470" lon="-5.865953">
        <ele>8.82</ele>
        <time>2015-06-19T11:33:12Z</time>
      </trkpt>
      <trkpt lat="36.151350" lon="-5.865794">
        <ele>8.86</ele>
        <time>2015-06-19T11:33:18Z</time>
      </trkpt>
      <trkpt lat="36.151275" lon="-5.865655">
        <ele>8.84</ele>
        <time>2015-06-19T11:33:23Z</time>
      </trkpt>
      <trkpt lat="36.151193" lon="-5.865530">
        <ele>8.41</ele>
        <time>2015-06-19T11:33:28Z</time>
      </trkpt>
      <trkpt lat="36.151176" lon="-5.865503">
        <ele>8.05</ele>
        <time>2015-06-19T11:33:29Z</time>
      </trkpt>
      <trkpt lat="36.151159" lon="-5.865476">
        <ele>7.68</ele>
        <time>2015-06-19T11:33:30Z</time>
      </trkpt>
      <trkpt lat="36.151142" lon="-5.865453">
        <ele>7.21</ele>
        <time>2015-06-19T11:33:31Z</time>
      </trkpt>
      <trkpt lat="36.151130" lon="-5.865424">
        <ele>6.85</ele>
        <time>2015-06-19T11:33:32Z</time>
      </trkpt>
      <trkpt lat="36.151049" lon="-5.865282">
        <ele>6.83</ele>
        <time>2015-06-19T11:33:37Z</time>
      </trkpt>
      <trkpt lat="36.150965" lon="-5.865117">
        <ele>6.42</ele>
        <time>2015-06-19T11:33:41Z</time>
      </trkpt>
      <trkpt lat="36.150940" lon="-5.865062">
        <ele>6.01</ele>
        <time>2015-06-19T11:33:42Z</time>
      </trkpt>
      <trkpt lat="36.150911" lon="-5.865017">
        <ele>5.61</ele>
        <time>2015-06-19T11:33:43Z</time>
      </trkpt>
      <trkpt lat="36.150877" lon="-5.864976">
        <ele>5.23</ele>
        <time>2015-06-19T11:33:44Z</time>
      </trkpt>
      <trkpt lat="36.150850" lon="-5.864929">
        <ele>4.82</ele>
        <time>2015-06-19T11:33:45Z</time>
      </trkpt>
      <trkpt lat="36.150823" lon="-5.864889">
        <ele>4.82</ele>
        <time>2015-06-19T11:33:46Z</time>
      </trkpt>
      <trkpt lat="36.150779" lon="-5.864835">
        <ele>4.28</ele>
        <time>2015-06-19T11:33:48Z</time>
      </trkpt>
      <trkpt lat="36.150759" lon="-5.864815">
        <ele>3.46</ele>
        <time>2015-06-19T11:33:49Z</time>
      </trkpt>
      <trkpt lat="36.150745" lon="-5.864795">
        <ele>3.02</ele>
        <time>2015-06-19T11:33:50Z</time>
      </trkpt>
      <trkpt lat="36.150734" lon="-5.864770">
        <ele>2.69</ele>
        <time>2015-06-19T11:33:51Z</time>
      </trkpt>
      <trkpt lat="36.150716" lon="-5.864715">
        <ele>2.62</ele>
        <time>2015-06-19T11:33:53Z</time>
      </trkpt>
      <trkpt lat="36.150677" lon="-5.864568">
        <ele>2.69</ele>
        <time>2015-06-19T11:33:58Z</time>
      </trkpt>
      <trkpt lat="36.150667" lon="-5.864535">
        <ele>2.64</ele>
        <time>2015-06-19T11:33:59Z</time>
      </trkpt>
      <trkpt lat="36.150614" lon="-5.864436">
        <ele>2.63</ele>
        <time>2015-06-19T11:34:03Z</time>
      </trkpt>
      <trkpt lat="36.150582" lon="-5.864387">
        <ele>2.61</ele>
        <time>2015-06-19T11:34:05Z</time>
      </trkpt>
      <trkpt lat="36.150466" lon="-5.864263">
        <ele>2.68</ele>
        <time>2015-06-19T11:34:11Z</time>
      </trkpt>
      <trkpt lat="36.150446" lon="-5.864250">
        <ele>2.63</ele>
        <time>2015-06-19T11:34:12Z</time>
      </trkpt>
      <trkpt lat="36.150317" lon="-5.864159">
        <ele>2.66</ele>
        <time>2015-06-19T11:34:18Z</time>
      </trkpt>
      <trkpt lat="36.150289" lon="-5.864154">
        <ele>2.65</ele>
        <time>2015-06-19T11:34:19Z</time>
      </trkpt>
      <trkpt lat="36.150157" lon="-5.864110">
        <ele>2.61</ele>
        <time>2015-06-19T11:34:24Z</time>
      </trkpt>
      <trkpt lat="36.150057" lon="-5.864063">
        <ele>2.62</ele>
        <time>2015-06-19T11:34:28Z</time>
      </trkpt>
      <trkpt lat="36.149868" lon="-5.863921">
        <ele>2.63</ele>
        <time>2015-06-19T11:34:36Z</time>
      </trkpt>
      <trkpt lat="36.149781" lon="-5.863836">
        <ele>3.08</ele>
        <time>2015-06-19T11:34:40Z</time>
      </trkpt>
      <trkpt lat="36.149762" lon="-5.863814">
        <ele>3.46</ele>
        <time>2015-06-19T11:34:41Z</time>
      </trkpt>
      <trkpt lat="36.149744" lon="-5.863796">
        <ele>3.80</ele>
        <time>2015-06-19T11:34:42Z</time>
      </trkpt>
      <trkpt lat="36.149727" lon="-5.863777">
        <ele>4.22</ele>
        <time>2015-06-19T11:34:43Z</time>
      </trkpt>
      <trkpt lat="36.149711" lon="-5.863759">
        <ele>4.61</ele>
        <time>2015-06-19T11:34:44Z</time>
      </trkpt>
      <trkpt lat="36.149620" lon="-5.863644">
        <ele>4.66</ele>
        <time>2015-06-19T11:34:50Z</time>
      </trkpt>
      <trkpt lat="36.149541" lon="-5.863549">
        <ele>5.05</ele>
        <time>2015-06-19T11:34:55Z</time>
      </trkpt>
      <trkpt lat="36.149527" lon="-5.863529">
        <ele>5.45</ele>
        <time>2015-06-19T11:34:56Z</time>
      </trkpt>
      <trkpt lat="36.149514" lon="-5.863509">
        <ele>5.84</ele>
        <time>2015-06-19T11:34:57Z</time>
      </trkpt>
      <trkpt lat="36.149496" lon="-5.863493">
        <ele>6.24</ele>
        <time>2015-06-19T11:34:58Z</time>
      </trkpt>
      <trkpt lat="36.149485" lon="-5.863472">
        <ele>6.62</ele>
        <time>2015-06-19T11:34:59Z</time>
      </trkpt>
      <trkpt lat="36.149420" lon="-5.863385">
        <ele>6.67</ele>
        <time>2015-06-19T11:35:03Z</time>
      </trkpt>
      <trkpt lat="36.149403" lon="-5.863366">
        <ele>6.68</ele>
        <time>2015-06-19T11:35:04Z</time>
      </trkpt>
      <trkpt lat="36.149293" lon="-5.863238">
        <ele>6.62</ele>
        <time>2015-06-19T11:35:10Z</time>
      </trkpt>
      <trkpt lat="36.149171" lon="-5.863090">
        <ele>6.60</ele>
        <time>2015-06-19T11:35:17Z</time>
      </trkpt>
      <trkpt lat="36.149044" lon="-5.862932">
        <ele>6.61</ele>
        <time>2015-06-19T11:35:24Z</time>
      </trkpt>
      <trkpt lat="36.148939" lon="-5.862815">
        <ele>6.61</ele>
        <time>2015-06-19T11:35:30Z</time>
      </trkpt>
      <trkpt lat="36.148901" lon="-5.862779">
        <ele>6.66</ele>
        <time>2015-06-19T11:35:32Z</time>
      </trkpt>
      <trkpt lat="36.148818" lon="-5.862691">
        <ele>6.69</ele>
        <time>2015-06-19T11:35:36Z</time>
      </trkpt>
      <trkpt lat="36.148800" lon="-5.862667">
        <ele>6.66</ele>
        <time>2015-06-19T11:35:37Z</time>
      </trkpt>
      <trkpt lat="36.148723" lon="-5.862591">
        <ele>6.62</ele>
        <time>2015-06-19T11:35:41Z</time>
      </trkpt>
      <trkpt lat="36.148706" lon="-5.862586">
        <ele>6.67</ele>
        <time>2015-06-19T11:35:42Z</time>
      </trkpt>
      <trkpt lat="36.148661" lon="-5.862504">
        <ele>6.62</ele>
        <time>2015-06-19T11:35:46Z</time>
      </trkpt>
      <trkpt lat="36.148643" lon="-5.862482">
        <ele>6.69</ele>
        <time>2015-06-19T11:35:47Z</time>
      </trkpt>
      <trkpt lat="36.148551" lon="-5.862353">
        <ele>6.66</ele>
        <time>2015-06-19T11:35:52Z</time>
      </trkpt>
      <trkpt lat="36.148447" lon="-5.862213">
        <ele>6.24</ele>
        <time>2015-06-19T11:35:57Z</time>
      </trkpt>
      <trkpt lat="36.148422" lon="-5.862183">
        <ele>5.80</ele>
        <time>2015-06-19T11:35:58Z</time>
      </trkpt>
      <trkpt lat="36.148396" lon="-5.862156">
        <ele>5.42</ele>
        <time>2015-06-19T11:35:59Z</time>
      </trkpt>
      <trkpt lat="36.148371" lon="-5.862132">
        <ele>5.01</ele>
        <time>2015-06-19T11:36:00Z</time>
      </trkpt>
      <trkpt lat="36.148347" lon="-5.862106">
        <ele>4.70</ele>
        <time>2015-06-19T11:36:01Z</time>
      </trkpt>
      <trkpt lat="36.148225" lon="-5.861943">
        <ele>4.67</ele>
        <time>2015-06-19T11:36:06Z</time>
      </trkpt>
      <trkpt lat="36.148120" lon="-5.861815">
        <ele>4.62</ele>
        <time>2015-06-19T11:36:11Z</time>
      </trkpt>
      <trkpt lat="36.148099" lon="-5.861789">
        <ele>4.68</ele>
        <time>2015-06-19T11:36:12Z</time>
      </trkpt>
      <trkpt lat="36.147965" lon="-5.861634">
        <ele>4.69</ele>
        <time>2015-06-19T11:36:18Z</time>
      </trkpt>
      <trkpt lat="36.147805" lon="-5.861425">
        <ele>4.66</ele>
        <time>2015-06-19T11:36:25Z</time>
      </trkpt>
      <trkpt lat="36.147670" lon="-5.861253">
        <ele>4.66</ele>
        <time>2015-06-19T11:36:31Z</time>
      </trkpt>
      <trkpt lat="36.147625" lon="-5.861204">
        <ele>4.27</ele>
        <time>2015-06-19T11:36:33Z</time>
      </trkpt>
      <trkpt lat="36.147606" lon="-5.861191">
        <ele>3.88</ele>
        <time>2015-06-19T11:36:34Z</time>
      </trkpt>
      <trkpt lat="36.147586" lon="-5.861171">
        <ele>3.41</ele>
        <time>2015-06-19T11:36:35Z</time>
      </trkpt>
      <trkpt lat="36.147558" lon="-5.861150">
        <ele>2.82</ele>
        <time>2015-06-19T11:36:36Z</time>
      </trkpt>
      <trkpt lat="36.147532" lon="-5.861136">
        <ele>2.41</ele>
        <time>2015-06-19T11:36:37Z</time>
      </trkpt>
      <trkpt lat="36.147393" lon="-5.861046">
        <ele>2.50</ele>
        <time>2015-06-19T11:36:42Z</time>
      </trkpt>
      <trkpt lat="36.147285" lon="-5.860999">
        <ele>2.46</ele>
        <time>2015-06-19T11:36:47Z</time>
      </trkpt>
      <trkpt lat="36.147221" lon="-5.860928">
        <ele>2.50</ele>
        <time>2015-06-19T11:36:51Z</time>
      </trkpt>
      <trkpt lat="36.147141" lon="-5.860782">
        <ele>2.45</ele>
        <time>2015-06-19T11:36:57Z</time>
      </trkpt>
      <trkpt lat="36.147054" lon="-5.860676">
        <ele>2.49</ele>
        <time>2015-06-19T11:37:03Z</time>
      </trkpt>
      <trkpt lat="36.147031" lon="-5.860641">
        <ele>2.48</ele>
        <time>2015-06-19T11:37:08Z</time>
      </trkpt>
      <trkpt lat="36.147006" lon="-5.860605">
        <ele>2.50</ele>
        <time>2015-06-19T11:37:14Z</time>
      </trkpt>
      <trkpt lat="36.146962" lon="-5.860563">
        <ele>2.42</ele>
        <time>2015-06-19T11:37:18Z</time>
      </trkpt>
      <trkpt lat="36.146942" lon="-5.860545">
        <ele>2.48</ele>
        <time>2015-06-19T11:37:19Z</time>
      </trkpt>
      <trkpt lat="36.146861" lon="-5.860474">
        <ele>2.41</ele>
        <time>2015-06-19T11:37:23Z</time>
      </trkpt>
      <trkpt lat="36.146827" lon="-5.860425">
        <ele>2.42</ele>
        <time>2015-06-19T11:37:25Z</time>
      </trkpt>
      <trkpt lat="36.146698" lon="-5.860296">
        <ele>2.41</ele>
        <time>2015-06-19T11:37:31Z</time>
      </trkpt>
      <trkpt lat="36.146573" lon="-5.860161">
        <ele>2.45</ele>
        <time>2015-06-19T11:37:38Z</time>
      </trkpt>
      <trkpt lat="36.146561" lon="-5.860157">
        <ele>2.46</ele>
        <time>2015-06-19T11:37:42Z</time>
      </trkpt>
      <trkpt lat="36.146557" lon="-5.860154">
        <ele>2.43</ele>
        <time>2015-06-19T11:37:49Z</time>
      </trkpt>
      <trkpt lat="36.146516" lon="-5.860130">
        <ele>2.43</ele>
        <time>2015-06-19T11:37:54Z</time>
      </trkpt>
      <trkpt lat="36.146508" lon="-5.860129">
        <ele>2.48</ele>
        <time>2015-06-19T11:37:55Z</time>
      </trkpt>
      <trkpt lat="36.146511" lon="-5.860130">
        <ele>2.44</ele>
        <time>2015-06-19T11:38:00Z</time>
      </trkpt>
      <trkpt lat="36.146511" lon="-5.860130">
        <ele>2.87</ele>
        <time>2015-06-19T11:38:07Z</time>
      </trkpt>
      <trkpt lat="36.146511" lon="-5.860130">
        <ele>3.42</ele>
        <time>2015-06-19T11:38:08Z</time>
      </trkpt>
      <trkpt lat="36.146511" lon="-5.860130">
        <ele>3.90</ele>
        <time>2015-06-19T11:38:09Z</time>
      </trkpt>
      <trkpt lat="36.146511" lon="-5.860130">
        <ele>4.21</ele>
        <time>2015-06-19T11:38:10Z</time>
      </trkpt>
      <trkpt lat="36.146511" lon="-5.860130">
        <ele>4.63</ele>
        <time>2015-06-19T11:38:11Z</time>
      </trkpt>
      <trkpt lat="36.146502" lon="-5.860123">
        <ele>4.61</ele>
        <time>2015-06-19T11:38:16Z</time>
      </trkpt>
      <trkpt lat="36.146432" lon="-5.860081">
        <ele>4.66</ele>
        <time>2015-06-19T11:38:23Z</time>
      </trkpt>
      <trkpt lat="36.146422" lon="-5.860077">
        <ele>4.67</ele>
        <time>2015-06-19T11:38:24Z</time>
      </trkpt>
      <trkpt lat="36.146400" lon="-5.860069">
        <ele>4.68</ele>
        <time>2015-06-19T11:38:26Z</time>
      </trkpt>
      <trkpt lat="36.146367" lon="-5.860056">
        <ele>4.66</ele>
        <time>2015-06-19T11:38:29Z</time>
      </trkpt>
      <trkpt lat="36.146341" lon="-5.860038">
        <ele>4.67</ele>
        <time>2015-06-19T11:38:32Z</time>
      </trkpt>
      <trkpt lat="36.146322" lon="-5.860026">
        <ele>4.62</ele>
        <time>2015-06-19T11:38:34Z</time>
      </trkpt>
      <trkpt lat="36.146273" lon="-5.859988">
        <ele>4.65</ele>
        <time>2015-06-19T11:38:40Z</time>
      </trkpt>
      <trkpt lat="36.146276" lon="-5.859990">
        <ele>4.68</ele>
        <time>2015-06-19T11:38:42Z</time>
      </trkpt>
      <trkpt lat="36.146276" lon="-5.859990">
        <ele>4.69</ele>
        <time>2015-06-19T11:38:44Z</time>
      </trkpt>
      <trkpt lat="36.146276" lon="-5.859990">
        <ele>4.61</ele>
        <time>2015-06-19T11:38:50Z</time>
      </trkpt>
      <trkpt lat="36.146276" lon="-5.859990">
        <ele>4.63</ele>
        <time>2015-06-19T11:39:02Z</time>
      </trkpt>
      <trkpt lat="36.146276" lon="-5.859990">
        <ele>4.61</ele>
        <time>2015-06-19T11:39:03Z</time>
      </trkpt>
      <trkpt lat="36.146251" lon="-5.859969">
        <ele>4.70</ele>
        <time>2015-06-19T11:39:08Z</time>
      </trkpt>
      <trkpt lat="36.146233" lon="-5.859956">
        <ele>4.68</ele>
        <time>2015-06-19T11:39:10Z</time>
      </trkpt>
      <trkpt lat="36.146203" lon="-5.859931">
        <ele>5.08</ele>
        <time>2015-06-19T11:39:14Z</time>
      </trkpt>
      <trkpt lat="36.146197" lon="-5.859927">
        <ele>5.46</ele>
        <time>2015-06-19T11:39:15Z</time>
      </trkpt>
      <trkpt lat="36.146200" lon="-5.859927">
        <ele>5.85</ele>
        <time>2015-06-19T11:39:16Z</time>
      </trkpt>
      <trkpt lat="36.146200" lon="-5.859927">
        <ele>6.28</ele>
        <time>2015-06-19T11:39:17Z</time>
      </trkpt>
      <trkpt lat="36.146200" lon="-5.859927">
        <ele>6.65</ele>
        <time>2015-06-19T11:39:18Z</time>
      </trkpt>
      <trkpt lat="36.146200" lon="-5.859927">
        <ele>6.68</ele>
        <time>2015-06-19T11:39:25Z</time>
      </trkpt>
      <trkpt lat="36.146200" lon="-5.859927">
        <ele>6.61</ele>
        <time>2015-06-19T11:39:31Z</time>
      </trkpt>
      <trkpt lat="36.146195" lon="-5.859922">
        <ele>6.64</ele>
        <time>2015-06-19T11:39:46Z</time>
      </trkpt>
      <trkpt lat="36.146162" lon="-5.859896">
        <ele>6.61</ele>
        <time>2015-06-19T11:39:50Z</time>
      </trkpt>
      <trkpt lat="36.146152" lon="-5.859887">
        <ele>6.61</ele>
        <time>2015-06-19T11:39:51Z</time>
      </trkpt>
      <trkpt lat="36.146130" lon="-5.859870">
        <ele>6.62</ele>
        <time>2015-06-19T11:39:53Z</time>
      </trkpt>
      <trkpt lat="36.146125" lon="-5.859863">
        <ele>6.64</ele>
        <time>2015-06-19T11:39:56Z</time>
      </trkpt>
      <trkpt lat="36.146125" lon="-5.859863">
        <ele>6.64</ele>
        <time>2015-06-19T11:39:57Z</time>
      </trkpt>
      <trkpt lat="36.146125" lon="-5.859863">
        <ele>7.03</ele>
        <time>2015-06-19T11:39:59Z</time>
      </trkpt>
      <trkpt lat="36.146125" lon="-5.859863">
        <ele>8.03</ele>
        <time>2015-06-19T11:40:00Z</time>
      </trkpt>
      <trkpt lat="36.146122" lon="-5.859859">
        <ele>8.49</ele>
        <time>2015-06-19T11:40:01Z</time>
      </trkpt>
      <trkpt lat="36.146117" lon="-5.859855">
        <ele>8.84</ele>
        <time>2015-06-19T11:40:02Z</time>
      </trkpt>
      <trkpt lat="36.146087" lon="-5.859823">
        <ele>8.87</ele>
        <time>2015-06-19T11:40:05Z</time>
      </trkpt>
      <trkpt lat="36.146070" lon="-5.859807">
        <ele>8.83</ele>
        <time>2015-06-19T11:40:07Z</time>
      </trkpt>
      <trkpt lat="36.146042" lon="-5.859784">
        <ele>8.80</ele>
        <time>2015-06-19T11:40:10Z</time>
      </trkpt>
      <trkpt lat="36.146006" lon="-5.859752">
        <ele>8.82</ele>
        <time>2015-06-19T11:40:14Z</time>
      </trkpt>
      <trkpt lat="36.145987" lon="-5.859745">
        <ele>8.81</ele>
        <time>2015-06-19T11:40:16Z</time>
      </trkpt>
      <trkpt lat="36.145975" lon="-5.859733">
        <ele>8.87</ele>
        <time>2015-06-19T11:40:21Z</time>
      </trkpt>
      <trkpt lat="36.145975" lon="-5.859733">
        <ele>8.88</ele>
        <time>2015-06-19T11:40:24Z</time>
      </trkpt>
      <trkpt lat="36.145975" lon="-5.859733">
        <ele>8.83</ele>
        <time>2015-06-19T11:40:29Z</time>
      </trkpt>
      <trkpt lat="36.145975" lon="-5.859733">
        <ele>8.87</ele>
        <time>2015-06-19T11:40:36Z</time>
      </trkpt>
      <trkpt lat="36.145975" lon="-5.859733">
        <ele>8.89</ele>
        <time>2015-06-19T11:40:40Z</time>
      </trkpt>
      <trkpt lat="36.145975" lon="-5.859733">
        <ele>8.84</ele>
        <time>2015-06-19T11:40:42Z</time>
      </trkpt>
      <trkpt lat="36.145975" lon="-5.859733">
        <ele>8.83</ele>
        <time>2015-06-19T11:40:47Z</time>
      </trkpt>
      <trkpt lat="36.145975" lon="-5.859733">
        <ele>8.88</ele>
        <time>2015-06-19T11:40:51Z</time>
      </trkpt>
      <trkpt lat="36.145975" lon="-5.859733">
        <ele>8.82</ele>
        <time>2015-06-19T11:40:52Z</time>
      </trkpt>
      <trkpt lat="36.145950" lon="-5.859722">
        <ele>8.83</ele>
        <time>2015-06-19T11:40:55Z</time>
      </trkpt>
      <trkpt lat="36.145920" lon="-5.859698">
        <ele>8.81</ele>
        <time>2015-06-19T11:40:57Z</time>
      </trkpt>
      <trkpt lat="36.145859" lon="-5.859648">
        <ele>8.81</ele>
        <time>2015-06-19T11:41:00Z</time>
      </trkpt>
      <trkpt lat="36.145814" lon="-5.859616">
        <ele>8.89</ele>
        <time>2015-06-19T11:41:02Z</time>
      </trkpt>
      <trkpt lat="36.145795" lon="-5.859599">
        <ele>8.88</ele>
        <time>2015-06-19T11:41:03Z</time>
      </trkpt>
      <trkpt lat="36.145748" lon="-5.859551">
        <ele>8.84</ele>
        <time>2015-06-19T11:41:05Z</time>
      </trkpt>
      <trkpt lat="36.145625" lon="-5.859448">
        <ele>8.83</ele>
        <time>2015-06-19T11:41:10Z</time>
      </trkpt>
      <trkpt lat="36.145523" lon="-5.859360">
        <ele>8.90</ele>
        <time>2015-06-19T11:41:15Z</time>
      </trkpt>
      <trkpt lat="36.145445" lon="-5.859291">
        <ele>8.89</ele>
        <time>2015-06-19T11:41:18Z</time>
      </trkpt>
      <trkpt lat="36.145362" lon="-5.859218">
        <ele>8.89</ele>
        <time>2015-06-19T11:41:21Z</time>
      </trkpt>
      <trkpt lat="36.145221" lon="-5.859063">
        <ele>8.89</ele>
        <time>2015-06-19T11:41:27Z</time>
      </trkpt>
      <trkpt lat="36.145172" lon="-5.859008">
        <ele>8.87</ele>
        <time>2015-06-19T11:41:29Z</time>
      </trkpt>
      <trkpt lat="36.145002" lon="-5.858812">
        <ele>8.44</ele>
        <time>2015-06-19T11:41:36Z</time>
      </trkpt>
      <trkpt lat="36.144981" lon="-5.858783">
        <ele>7.42</ele>
        <time>2015-06-19T11:41:37Z</time>
      </trkpt>
      <trkpt lat="36.144960" lon="-5.858755">
        <ele>7.01</ele>
        <time>2015-06-19T11:41:38Z</time>
      </trkpt>
      <trkpt lat="36.144939" lon="-5.858728">
        <ele>6.63</ele>
        <time>2015-06-19T11:41:39Z</time>
      </trkpt>
      <trkpt lat="36.144824" lon="-5.858537">
        <ele>6.68</ele>
        <time>2015-06-19T11:41:45Z</time>
      </trkpt>
      <trkpt lat="36.144747" lon="-5.858398">
        <ele>6.64</ele>
        <time>2015-06-19T11:41:50Z</time>
      </trkpt>
      <trkpt lat="36.144724" lon="-5.858347">
        <ele>6.63</ele>
        <time>2015-06-19T11:41:52Z</time>
      </trkpt>
      <trkpt lat="36.144695" lon="-5.858297">
        <ele>6.65</ele>
        <time>2015-06-19T11:41:54Z</time>
      </trkpt>
      <trkpt lat="36.144622" lon="-5.858170">
        <ele>6.64</ele>
        <time>2015-06-19T11:41:59Z</time>
      </trkpt>
      <trkpt lat="36.144591" lon="-5.858119">
        <ele>6.69</ele>
        <time>2015-06-19T11:42:01Z</time>
      </trkpt>
      <trkpt lat="36.144508" lon="-5.857999">
        <ele>6.61</ele>
        <time>2015-06-19T11:42:06Z</time>
      </trkpt>
      <trkpt lat="36.144456" lon="-5.857939">
        <ele>6.70</ele>
        <time>2015-06-19T11:42:09Z</time>
      </trkpt>
      <trkpt lat="36.144308" lon="-5.857783">
        <ele>6.62</ele>
        <time>2015-06-19T11:42:17Z</time>
      </trkpt>
      <trkpt lat="36.144149" lon="-5.857616">
        <ele>6.63</ele>
        <time>2015-06-19T11:42:26Z</time>
      </trkpt>
      <trkpt lat="36.144014" lon="-5.857457">
        <ele>6.61</ele>
        <time>2015-06-19T11:42:34Z</time>
      </trkpt>
      <trkpt lat="36.143836" lon="-5.857275">
        <ele>6.68</ele>
        <time>2015-06-19T11:42:44Z</time>
      </trkpt>
      <trkpt lat="36.143702" lon="-5.857119">
        <ele>6.69</ele>
        <time>2015-06-19T11:42:51Z</time>
      </trkpt>
      <trkpt lat="36.143647" lon="-5.857040">
        <ele>6.69</ele>
        <time>2015-06-19T11:42:56Z</time>
      </trkpt>
      <trkpt lat="36.143648" lon="-5.857029">
        <ele>6.62</ele>
        <time>2015-06-19T11:43:01Z</time>
      </trkpt>
      <trkpt lat="36.143624" lon="-5.856984">
        <ele>6.63</ele>
        <time>2015-06-19T11:43:06Z</time>
      </trkpt>
      <trkpt lat="36.143624" lon="-5.856984">
        <ele>6.63</ele>
        <time>2015-06-19T11:43:08Z</time>
      </trkpt>
      <trkpt lat="36.143624" lon="-5.856984">
        <ele>6.66</ele>
        <time>2015-06-19T11:43:13Z</time>
      </trkpt>
      <trkpt lat="36.143624" lon="-5.856984">
        <ele>6.61</ele>
        <time>2015-06-19T11:43:20Z</time>
      </trkpt>
      <trkpt lat="36.143624" lon="-5.856984">
        <ele>6.68</ele>
        <time>2015-06-19T11:43:35Z</time>
      </trkpt>
      <trkpt lat="36.143624" lon="-5.856984">
        <ele>6.64</ele>
        <time>2015-06-19T11:43:43Z</time>
      </trkpt>
      <trkpt lat="36.143623" lon="-5.856984">
        <ele>6.62</ele>
        <time>2015-06-19T11:43:51Z</time>
      </trkpt>
      <trkpt lat="36.143623" lon="-5.856984">
        <ele>6.61</ele>
        <time>2015-06-19T11:43:52Z</time>
      </trkpt>
      <trkpt lat="36.143623" lon="-5.856984">
        <ele>6.68</ele>
        <time>2015-06-19T11:43:58Z</time>
      </trkpt>
      <trkpt lat="36.143617" lon="-5.856971">
        <ele>6.63</ele>
        <time>2015-06-19T11:44:07Z</time>
      </trkpt>
      <trkpt lat="36.143599" lon="-5.856930">
        <ele>6.67</ele>
        <time>2015-06-19T11:44:10Z</time>
      </trkpt>
      <trkpt lat="36.143595" lon="-5.856924">
        <ele>6.62</ele>
        <time>2015-06-19T11:44:12Z</time>
      </trkpt>
      <trkpt lat="36.143595" lon="-5.856924">
        <ele>6.65</ele>
        <time>2015-06-19T11:44:13Z</time>
      </trkpt>
      <trkpt lat="36.143595" lon="-5.856923">
        <ele>6.69</ele>
        <time>2015-06-19T11:44:15Z</time>
      </trkpt>
      <trkpt lat="36.143563" lon="-5.856863">
        <ele>6.65</ele>
        <time>2015-06-19T11:44:19Z</time>
      </trkpt>
      <trkpt lat="36.143531" lon="-5.856755">
        <ele>6.67</ele>
        <time>2015-06-19T11:44:23Z</time>
      </trkpt>
      <trkpt lat="36.143452" lon="-5.856620">
        <ele>6.61</ele>
        <time>2015-06-19T11:44:29Z</time>
      </trkpt>
      <trkpt lat="36.143359" lon="-5.856487">
        <ele>6.63</ele>
        <time>2015-06-19T11:44:34Z</time>
      </trkpt>
      <trkpt lat="36.143236" lon="-5.856316">
        <ele>6.61</ele>
        <time>2015-06-19T11:44:40Z</time>
      </trkpt>
      <trkpt lat="36.143143" lon="-5.856189">
        <ele>6.61</ele>
        <time>2015-06-19T11:44:45Z</time>
      </trkpt>
      <trkpt lat="36.143040" lon="-5.856092">
        <ele>6.68</ele>
        <time>2015-06-19T11:44:49Z</time>
      </trkpt>
      <trkpt lat="36.143009" lon="-5.856059">
        <ele>6.27</ele>
        <time>2015-06-19T11:44:50Z</time>
      </trkpt>
      <trkpt lat="36.142981" lon="-5.856014">
        <ele>5.83</ele>
        <time>2015-06-19T11:44:51Z</time>
      </trkpt>
      <trkpt lat="36.142954" lon="-5.855961">
        <ele>5.46</ele>
        <time>2015-06-19T11:44:52Z</time>
      </trkpt>
      <trkpt lat="36.142931" lon="-5.855917">
        <ele>5.08</ele>
        <time>2015-06-19T11:44:53Z</time>
      </trkpt>
      <trkpt lat="36.142907" lon="-5.855880">
        <ele>4.66</ele>
        <time>2015-06-19T11:44:54Z</time>
      </trkpt>
      <trkpt lat="36.142883" lon="-5.855848">
        <ele>4.65</ele>
        <time>2015-06-19T11:44:55Z</time>
      </trkpt>
      <trkpt lat="36.142809" lon="-5.855766">
        <ele>4.62</ele>
        <time>2015-06-19T11:44:58Z</time>
      </trkpt>
      <trkpt lat="36.142723" lon="-5.855643">
        <ele>4.68</ele>
        <time>2015-06-19T11:45:03Z</time>
      </trkpt>
      <trkpt lat="36.142696" lon="-5.855534">
        <ele>4.64</ele>
        <time>2015-06-19T11:45:07Z</time>
      </trkpt>
      <trkpt lat="36.142675" lon="-5.855453">
        <ele>4.62</ele>
        <time>2015-06-19T11:45:10Z</time>
      </trkpt>
      <trkpt lat="36.142603" lon="-5.855335">
        <ele>4.61</ele>
        <time>2015-06-19T11:45:15Z</time>
      </trkpt>
      <trkpt lat="36.142527" lon="-5.855241">
        <ele>4.62</ele>
        <time>2015-06-19T11:45:19Z</time>
      </trkpt>
      <trkpt lat="36.142513" lon="-5.855215">
        <ele>4.67</ele>
        <time>2015-06-19T11:45:20Z</time>
      </trkpt>
      <trkpt lat="36.142489" lon="-5.855161">
        <ele>5.06</ele>
        <time>2015-06-19T11:45:22Z</time>
      </trkpt>
      <trkpt lat="36.142474" lon="-5.855135">
        <ele>5.49</ele>
        <time>2015-06-19T11:45:23Z</time>
      </trkpt>
      <trkpt lat="36.142458" lon="-5.855109">
        <ele>5.87</ele>
        <time>2015-06-19T11:45:24Z</time>
      </trkpt>
      <trkpt lat="36.142443" lon="-5.855082">
        <ele>6.46</ele>
        <time>2015-06-19T11:45:25Z</time>
      </trkpt>
      <trkpt lat="36.142427" lon="-5.855052">
        <ele>6.84</ele>
        <time>2015-06-19T11:45:26Z</time>
      </trkpt>
      <trkpt lat="36.142286" lon="-5.854823">
        <ele>6.85</ele>
        <time>2015-06-19T11:45:33Z</time>
      </trkpt>
      <trkpt lat="36.142170" lon="-5.854653">
        <ele>6.85</ele>
        <time>2015-06-19T11:45:39Z</time>
      </trkpt>
      <trkpt lat="36.142105" lon="-5.854562">
        <ele>6.40</ele>
        <time>2015-06-19T11:45:42Z</time>
      </trkpt>
      <trkpt lat="36.142084" lon="-5.854529">
        <ele>6.01</ele>
        <time>2015-06-19T11:45:43Z</time>
      </trkpt>
      <trkpt lat="36.142064" lon="-5.854494">
        <ele>5.21</ele>
        <time>2015-06-19T11:45:44Z</time>
      </trkpt>
      <trkpt lat="36.142044" lon="-5.854464">
        <ele>4.65</ele>
        <time>2015-06-19T11:45:45Z</time>
      </trkpt>
      <trkpt lat="36.141944" lon="-5.854320">
        <ele>4.66</ele>
        <time>2015-06-19T11:45:50Z</time>
      </trkpt>
      <trkpt lat="36.141925" lon="-5.854284">
        <ele>4.64</ele>
        <time>2015-06-19T11:45:51Z</time>
      </trkpt>
      <trkpt lat="36.141850" lon="-5.854180">
        <ele>4.63</ele>
        <time>2015-06-19T11:45:55Z</time>
      </trkpt>
      <trkpt lat="36.141784" lon="-5.854094">
        <ele>4.29</ele>
        <time>2015-06-19T11:45:58Z</time>
      </trkpt>
      <trkpt lat="36.141764" lon="-5.854065">
        <ele>3.89</ele>
        <time>2015-06-19T11:45:59Z</time>
      </trkpt>
      <trkpt lat="36.141743" lon="-5.854038">
        <ele>3.48</ele>
        <time>2015-06-19T11:46:00Z</time>
      </trkpt>
      <trkpt lat="36.141723" lon="-5.854020">
        <ele>3.07</ele>
        <time>2015-06-19T11:46:01Z</time>
      </trkpt>
      <trkpt lat="36.141707" lon="-5.854001">
        <ele>2.69</ele>
        <time>2015-06-19T11:46:02Z</time>
      </trkpt>
      <trkpt lat="36.141644" lon="-5.853855">
        <ele>2.66</ele>
        <time>2015-06-19T11:46:06Z</time>
      </trkpt>
      <trkpt lat="36.141468" lon="-5.853670">
        <ele>2.63</ele>
        <time>2015-06-19T11:46:12Z</time>
      </trkpt>
      <trkpt lat="36.141375" lon="-5.853551">
        <ele>2.61</ele>
        <time>2015-06-19T11:46:16Z</time>
      </trkpt>
      <trkpt lat="36.141270" lon="-5.853375">
        <ele>2.66</ele>
        <time>2015-06-19T11:46:22Z</time>
      </trkpt>
      <trkpt lat="36.141253" lon="-5.853334">
        <ele>2.69</ele>
        <time>2015-06-19T11:46:54Z</time>
      </trkpt>
      <trkpt lat="36.141228" lon="-5.853365">
        <ele>2.67</ele>
        <time>2015-06-19T11:46:56Z</time>
      </trkpt>
      <trkpt lat="36.141216" lon="-5.853371">
        <ele>2.68</ele>
        <time>2015-06-19T11:46:57Z</time>
      </trkpt>
      <trkpt lat="36.141218" lon="-5.853384">
        <ele>2.61</ele>
        <time>2015-06-19T11:47:21Z</time>
      </trkpt>
      <trkpt lat="36.141231" lon="-5.853444">
        <ele>2.67</ele>
        <time>2015-06-19T11:47:23Z</time>
      </trkpt>
      <trkpt lat="36.141196" lon="-5.853492">
        <ele>2.64</ele>
        <time>2015-06-19T11:47:25Z</time>
      </trkpt>
      <trkpt lat="36.141100" lon="-5.853507">
        <ele>2.63</ele>
        <time>2015-06-19T11:47:28Z</time>
      </trkpt>
      <trkpt lat="36.141071" lon="-5.853506">
        <ele>2.66</ele>
        <time>2015-06-19T11:47:29Z</time>
      </trkpt>
      <trkpt lat="36.140989" lon="-5.853485">
        <ele>2.60</ele>
        <time>2015-06-19T11:47:33Z</time>
      </trkpt>
      <trkpt lat="36.140982" lon="-5.853478">
        <ele>2.62</ele>
        <time>2015-06-19T11:47:34Z</time>
      </trkpt>
      <trkpt lat="36.140944" lon="-5.853398">
        <ele>2.61</ele>
        <time>2015-06-19T11:47:38Z</time>
      </trkpt>
      <trkpt lat="36.140895" lon="-5.853292">
        <ele>2.69</ele>
        <time>2015-06-19T11:47:43Z</time>
      </trkpt>
      <trkpt lat="36.140890" lon="-5.853280">
        <ele>2.69</ele>
        <time>2015-06-19T11:47:47Z</time>
      </trkpt>
      <trkpt lat="36.140906" lon="-5.853239">
        <ele>2.62</ele>
        <time>2015-06-19T11:47:52Z</time>
      </trkpt>
      <trkpt lat="36.140929" lon="-5.853208">
        <ele>2.21</ele>
        <time>2015-06-19T11:47:55Z</time>
      </trkpt>
      <trkpt lat="36.140935" lon="-5.853196">
        <ele>1.68</ele>
        <time>2015-06-19T11:47:56Z</time>
      </trkpt>
      <trkpt lat="36.140938" lon="-5.853183">
        <ele>1.22</ele>
        <time>2015-06-19T11:47:57Z</time>
      </trkpt>
      <trkpt lat="36.140943" lon="-5.853169">
        <ele>0.85</ele>
        <time>2015-06-19T11:47:58Z</time>
      </trkpt>
      <trkpt lat="36.140948" lon="-5.853156">
        <ele>0.42</ele>
        <time>2015-06-19T11:47:59Z</time>
      </trkpt>
      <trkpt lat="36.140964" lon="-5.853088">
        <ele>0.44</ele>
        <time>2015-06-19T11:48:05Z</time>
      </trkpt>
      <trkpt lat="36.140963" lon="-5.853087">
        <ele>0.48</ele>
        <time>2015-06-19T11:48:09Z</time>
      </trkpt>
      <trkpt lat="36.140967" lon="-5.853035">
        <ele>0.81</ele>
        <time>2015-06-19T11:48:12Z</time>
      </trkpt>
      <trkpt lat="36.140974" lon="-5.853013">
        <ele>1.21</ele>
        <time>2015-06-19T11:48:13Z</time>
      </trkpt>
      <trkpt lat="36.140982" lon="-5.852992">
        <ele>2.09</ele>
        <time>2015-06-19T11:48:14Z</time>
      </trkpt>
      <trkpt lat="36.140999" lon="-5.852969">
        <ele>2.48</ele>
        <time>2015-06-19T11:48:15Z</time>
      </trkpt>
      <trkpt lat="36.141030" lon="-5.852900">
        <ele>2.48</ele>
        <time>2015-06-19T11:48:17Z</time>
      </trkpt>
      <trkpt lat="36.141033" lon="-5.852714">
        <ele>2.42</ele>
        <time>2015-06-19T11:48:22Z</time>
      </trkpt>
      <trkpt lat="36.141021" lon="-5.852692">
        <ele>2.43</ele>
        <time>2015-06-19T11:48:23Z</time>
      </trkpt>
      <trkpt lat="36.140958" lon="-5.852641">
        <ele>2.41</ele>
        <time>2015-06-19T11:48:26Z</time>
      </trkpt>
      <trkpt lat="36.140814" lon="-5.852514">
        <ele>2.47</ele>
        <time>2015-06-19T11:48:31Z</time>
      </trkpt>
      <trkpt lat="36.140783" lon="-5.852482">
        <ele>2.50</ele>
        <time>2015-06-19T11:48:32Z</time>
      </trkpt>
      <trkpt lat="36.140631" lon="-5.852326">
        <ele>2.50</ele>
        <time>2015-06-19T11:48:37Z</time>
      </trkpt>
      <trkpt lat="36.140599" lon="-5.852295">
        <ele>2.41</ele>
        <time>2015-06-19T11:48:38Z</time>
      </trkpt>
      <trkpt lat="36.140456" lon="-5.852173">
        <ele>2.43</ele>
        <time>2015-06-19T11:48:42Z</time>
      </trkpt>
      <trkpt lat="36.140196" lon="-5.851955">
        <ele>2.41</ele>
        <time>2015-06-19T11:48:49Z</time>
      </trkpt>
      <trkpt lat="36.139853" lon="-5.851668">
        <ele>2.49</ele>
        <time>2015-06-19T11:48:58Z</time>
      </trkpt>
      <trkpt lat="36.139784" lon="-5.851605">
        <ele>2.85</ele>
        <time>2015-06-19T11:49:00Z</time>
      </trkpt>
      <trkpt lat="36.139749" lon="-5.851574">
        <ele>3.29</ele>
        <time>2015-06-19T11:49:01Z</time>
      </trkpt>
      <trkpt lat="36.139713" lon="-5.851540">
        <ele>3.62</ele>
        <time>2015-06-19T11:49:02Z</time>
      </trkpt>
      <trkpt lat="36.139678" lon="-5.851506">
        <ele>4.44</ele>
        <time>2015-06-19T11:49:03Z</time>
      </trkpt>
      <trkpt lat="36.139576" lon="-5.851401">
        <ele>4.45</ele>
        <time>2015-06-19T11:49:06Z</time>
      </trkpt>
      <trkpt lat="36.139339" lon="-5.851088">
        <ele>4.49</ele>
        <time>2015-06-19T11:49:14Z</time>
      </trkpt>
      <trkpt lat="36.139168" lon="-5.850756">
        <ele>4.41</ele>
        <time>2015-06-19T11:49:21Z</time>
      </trkpt>
      <trkpt lat="36.139049" lon="-5.850368">
        <ele>4.47</ele>
        <time>2015-06-19T11:49:28Z</time>
      </trkpt>
      <trkpt lat="36.138960" lon="-5.849975">
        <ele>4.40</ele>
        <time>2015-06-19T11:49:35Z</time>
      </trkpt>
      <trkpt lat="36.138862" lon="-5.849530">
        <ele>4.42</ele>
        <time>2015-06-19T11:49:43Z</time>
      </trkpt>
      <trkpt lat="36.138754" lon="-5.849086">
        <ele>4.41</ele>
        <time>2015-06-19T11:49:51Z</time>
      </trkpt>
      <trkpt lat="36.138606" lon="-5.848647">
        <ele>4.47</ele>
        <time>2015-06-19T11:49:59Z</time>
      </trkpt>
      <trkpt lat="36.138443" lon="-5.848137">
        <ele>4.41</ele>
        <time>2015-06-19T11:50:09Z</time>
      </trkpt>
      <trkpt lat="36.138375" lon="-5.847879">
        <ele>4.45</ele>
        <time>2015-06-19T11:50:15Z</time>
      </trkpt>
      <trkpt lat="36.138349" lon="-5.847748">
        <ele>4.42</ele>
        <time>2015-06-19T11:50:20Z</time>
      </trkpt>
      <trkpt lat="36.138319" lon="-5.847557">
        <ele>4.49</ele>
        <time>2015-06-19T11:50:25Z</time>
      </trkpt>
      <trkpt lat="36.138300" lon="-5.847428">
        <ele>4.49</ele>
        <time>2015-06-19T11:50:28Z</time>
      </trkpt>
      <trkpt lat="36.138247" lon="-5.847063">
        <ele>4.44</ele>
        <time>2015-06-19T11:50:36Z</time>
      </trkpt>
      <trkpt lat="36.138242" lon="-5.847011">
        <ele>4.44</ele>
        <time>2015-06-19T11:50:37Z</time>
      </trkpt>
      <trkpt lat="36.138172" lon="-5.846627">
        <ele>4.45</ele>
        <time>2015-06-19T11:50:45Z</time>
      </trkpt>
      <trkpt lat="36.138154" lon="-5.846580">
        <ele>4.43</ele>
        <time>2015-06-19T11:50:46Z</time>
      </trkpt>
      <trkpt lat="36.138046" lon="-5.846432">
        <ele>4.42</ele>
        <time>2015-06-19T11:50:50Z</time>
      </trkpt>
      <trkpt lat="36.137879" lon="-5.846432">
        <ele>4.41</ele>
        <time>2015-06-19T11:50:54Z</time>
      </trkpt>
      <trkpt lat="36.137488" lon="-5.846439">
        <ele>4.46</ele>
        <time>2015-06-19T11:51:03Z</time>
      </trkpt>
      <trkpt lat="36.137204" lon="-5.846477">
        <ele>4.46</ele>
        <time>2015-06-19T11:51:09Z</time>
      </trkpt>
      <trkpt lat="36.137159" lon="-5.846480">
        <ele>4.46</ele>
        <time>2015-06-19T11:51:10Z</time>
      </trkpt>
      <trkpt lat="36.137040" lon="-5.846479">
        <ele>4.42</ele>
        <time>2015-06-19T11:51:13Z</time>
      </trkpt>
      <trkpt lat="36.136960" lon="-5.846465">
        <ele>4.49</ele>
        <time>2015-06-19T11:51:15Z</time>
      </trkpt>
      <trkpt lat="36.136782" lon="-5.846466">
        <ele>4.42</ele>
        <time>2015-06-19T11:51:20Z</time>
      </trkpt>
      <trkpt lat="36.136749" lon="-5.846468">
        <ele>4.41</ele>
        <time>2015-06-19T11:51:21Z</time>
      </trkpt>
      <trkpt lat="36.136594" lon="-5.846493">
        <ele>4.45</ele>
        <time>2015-06-19T11:51:26Z</time>
      </trkpt>
      <trkpt lat="36.136571" lon="-5.846508">
        <ele>4.42</ele>
        <time>2015-06-19T11:51:27Z</time>
      </trkpt>
      <trkpt lat="36.136510" lon="-5.846537">
        <ele>4.03</ele>
        <time>2015-06-19T11:51:30Z</time>
      </trkpt>
      <trkpt lat="36.136486" lon="-5.846558">
        <ele>3.21</ele>
        <time>2015-06-19T11:51:31Z</time>
      </trkpt>
      <trkpt lat="36.136468" lon="-5.846580">
        <ele>2.81</ele>
        <time>2015-06-19T11:51:32Z</time>
      </trkpt>
      <trkpt lat="36.136450" lon="-5.846600">
        <ele>2.28</ele>
        <time>2015-06-19T11:51:33Z</time>
      </trkpt>
      <trkpt lat="36.136402" lon="-5.846645">
        <ele>2.25</ele>
        <time>2015-06-19T11:51:35Z</time>
      </trkpt>
      <trkpt lat="36.136348" lon="-5.846707">
        <ele>2.21</ele>
        <time>2015-06-19T11:51:39Z</time>
      </trkpt>
      <trkpt lat="36.136327" lon="-5.846704">
        <ele>2.27</ele>
        <time>2015-06-19T11:51:46Z</time>
      </trkpt>
      <trkpt lat="36.136327" lon="-5.846704">
        <ele>2.24</ele>
        <time>2015-06-19T11:51:48Z</time>
      </trkpt>
      <trkpt lat="36.136327" lon="-5.846704">
        <ele>2.23</ele>
        <time>2015-06-19T11:51:51Z</time>
      </trkpt>
      <trkpt lat="36.136327" lon="-5.846704">
        <ele>2.29</ele>
        <time>2015-06-19T11:51:53Z</time>
      </trkpt>
      <trkpt lat="36.136327" lon="-5.846704">
        <ele>2.23</ele>
        <time>2015-06-19T11:52:01Z</time>
      </trkpt>
      <trkpt lat="36.136327" lon="-5.846704">
        <ele>2.25</ele>
        <time>2015-06-19T11:52:12Z</time>
      </trkpt>
      <trkpt lat="36.136327" lon="-5.846704">
        <ele>2.26</ele>
        <time>2015-06-19T11:52:15Z</time>
      </trkpt>
      <trkpt lat="36.136330" lon="-5.846701">
        <ele>2.21</ele>
        <time>2015-06-19T11:52:28Z</time>
      </trkpt>
      <trkpt lat="36.136330" lon="-5.846701">
        <ele>2.21</ele>
        <time>2015-06-19T11:52:36Z</time>
      </trkpt>
      <trkpt lat="36.136330" lon="-5.846701">
        <ele>2.27</ele>
        <time>2015-06-19T11:52:45Z</time>
      </trkpt>
      <trkpt lat="36.136317" lon="-5.846720">
        <ele>2.27</ele>
        <time>2015-06-19T11:52:55Z</time>
      </trkpt>
      <trkpt lat="36.136292" lon="-5.846753">
        <ele>2.27</ele>
        <time>2015-06-19T11:52:57Z</time>
      </trkpt>
      <trkpt lat="36.136261" lon="-5.846794">
        <ele>2.21</ele>
        <time>2015-06-19T11:52:59Z</time>
      </trkpt>
      <trkpt lat="36.136240" lon="-5.846846">
        <ele>2.29</ele>
        <time>2015-06-19T11:53:01Z</time>
      </trkpt>
      <trkpt lat="36.136148" lon="-5.846968">
        <ele>2.27</ele>
        <time>2015-06-19T11:53:06Z</time>
      </trkpt>
      <trkpt lat="36.136025" lon="-5.847132">
        <ele>2.27</ele>
        <time>2015-06-19T11:53:13Z</time>
      </trkpt>
      <trkpt lat="36.135952" lon="-5.847240">
        <ele>2.25</ele>
        <time>2015-06-19T11:53:17Z</time>
      </trkpt>
      <trkpt lat="36.135921" lon="-5.847285">
        <ele>2.22</ele>
        <time>2015-06-19T11:53:19Z</time>
      </trkpt>
      <trkpt lat="36.135827" lon="-5.847437">
        <ele>2.28</ele>
        <time>2015-06-19T11:53:24Z</time>
      </trkpt>
      <trkpt lat="36.135716" lon="-5.847617">
        <ele>2.21</ele>
        <time>2015-06-19T11:53:30Z</time>
      </trkpt>
      <trkpt lat="36.135699" lon="-5.847645">
        <ele>2.21</ele>
        <time>2015-06-19T11:53:31Z</time>
      </trkpt>
      <trkpt lat="36.135663" lon="-5.847698">
        <ele>2.29</ele>
        <time>2015-06-19T11:53:34Z</time>
      </trkpt>
      <trkpt lat="36.135627" lon="-5.847712">
        <ele>2.26</ele>
        <time>2015-06-19T11:53:36Z</time>
      </trkpt>
      <trkpt lat="36.135521" lon="-5.847698">
        <ele>2.24</ele>
        <time>2015-06-19T11:53:41Z</time>
      </trkpt>
      <trkpt lat="36.135491" lon="-5.847743">
        <ele>2.26</ele>
        <time>2015-06-19T11:53:45Z</time>
      </trkpt>
      <trkpt lat="36.135450" lon="-5.847802">
        <ele>2.29</ele>
        <time>2015-06-19T11:53:50Z</time>
      </trkpt>
      <trkpt lat="36.135450" lon="-5.847802">
        <ele>2.30</ele>
        <time>2015-06-19T11:53:54Z</time>
      </trkpt>
      <trkpt lat="36.135450" lon="-5.847802">
        <ele>2.21</ele>
        <time>2015-06-19T11:53:56Z</time>
      </trkpt>
      <trkpt lat="36.135450" lon="-5.847802">
        <ele>2.26</ele>
        <time>2015-06-19T11:53:58Z</time>
      </trkpt>
      <trkpt lat="36.135450" lon="-5.847802">
        <ele>2.26</ele>
        <time>2015-06-19T11:54:13Z</time>
      </trkpt>
      <trkpt lat="36.135450" lon="-5.847802">
        <ele>2.22</ele>
        <time>2015-06-19T11:54:23Z</time>
      </trkpt>
      <trkpt lat="36.135450" lon="-5.847802">
        <ele>2.21</ele>
        <time>2015-06-19T11:54:28Z</time>
      </trkpt>
      <trkpt lat="36.135451" lon="-5.847803">
        <ele>2.21</ele>
        <time>2015-06-19T11:54:40Z</time>
      </trkpt>
      <trkpt lat="36.135451" lon="-5.847803">
        <ele>2.28</ele>
        <time>2015-06-19T11:54:47Z</time>
      </trkpt>
      <trkpt lat="36.135451" lon="-5.847803">
        <ele>2.28</ele>
        <time>2015-06-19T11:54:51Z</time>
      </trkpt>
      <trkpt lat="36.135451" lon="-5.847803">
        <ele>2.29</ele>
        <time>2015-06-19T11:54:56Z</time>
      </trkpt>
      <trkpt lat="36.135451" lon="-5.847803">
        <ele>2.24</ele>
        <time>2015-06-19T11:55:00Z</time>
      </trkpt>
      <trkpt lat="36.135451" lon="-5.847803">
        <ele>2.23</ele>
        <time>2015-06-19T11:55:07Z</time>
      </trkpt>
      <trkpt lat="36.135451" lon="-5.847805">
        <ele>2.25</ele>
        <time>2015-06-19T11:55:11Z</time>
      </trkpt>
      <trkpt lat="36.135451" lon="-5.847805">
        <ele>2.24</ele>
        <time>2015-06-19T11:55:16Z</time>
      </trkpt>
      <trkpt lat="36.135451" lon="-5.847805">
        <ele>2.26</ele>
        <time>2015-06-19T11:55:25Z</time>
      </trkpt>
      <trkpt lat="36.135451" lon="-5.847805">
        <ele>2.28</ele>
        <time>2015-06-19T11:55:32Z</time>
      </trkpt>
      <trkpt lat="36.135451" lon="-5.847805">
        <ele>2.24</ele>
        <time>2015-06-19T11:55:43Z</time>
      </trkpt>
      <trkpt lat="36.135451" lon="-5.847805">
        <ele>2.22</ele>
        <time>2015-06-19T11:55:45Z</time>
      </trkpt>
      <trkpt lat="36.135451" lon="-5.847805">
        <ele>2.21</ele>
        <time>2015-06-19T11:55:49Z</time>
      </trkpt>
      <trkpt lat="36.135451" lon="-5.847804">
        <ele>2.27</ele>
        <time>2015-06-19T11:55:55Z</time>
      </trkpt>
      <trkpt lat="36.135451" lon="-5.847804">
        <ele>2.27</ele>
        <time>2015-06-19T11:56:00Z</time>
      </trkpt>
      <trkpt lat="36.135463" lon="-5.847765">
        <ele>2.29</ele>
        <time>2015-06-19T11:56:09Z</time>
      </trkpt>
      <trkpt lat="36.135469" lon="-5.847751">
        <ele>2.22</ele>
        <time>2015-06-19T11:56:11Z</time>
      </trkpt>
      <trkpt lat="36.135471" lon="-5.847747">
        <ele>2.22</ele>
        <time>2015-06-19T11:56:16Z</time>
      </trkpt>
      <trkpt lat="36.135471" lon="-5.847747">
        <ele>2.22</ele>
        <time>2015-06-19T11:56:27Z</time>
      </trkpt>
      <trkpt lat="36.135471" lon="-5.847747">
        <ele>2.23</ele>
        <time>2015-06-19T11:56:28Z</time>
      </trkpt>
      <trkpt lat="36.135469" lon="-5.847741">
        <ele>2.23</ele>
        <time>2015-06-19T11:56:36Z</time>
      </trkpt>
      <trkpt lat="36.135432" lon="-5.847657">
        <ele>2.22</ele>
        <time>2015-06-19T11:56:40Z</time>
      </trkpt>
      <trkpt lat="36.135372" lon="-5.847535">
        <ele>2.20</ele>
        <time>2015-06-19T11:56:45Z</time>
      </trkpt>
      <trkpt lat="36.135357" lon="-5.847511">
        <ele>2.21</ele>
        <time>2015-06-19T11:56:46Z</time>
      </trkpt>
      <trkpt lat="36.135240" lon="-5.847378">
        <ele>2.21</ele>
        <time>2015-06-19T11:56:52Z</time>
      </trkpt>
      <trkpt lat="36.135206" lon="-5.847291">
        <ele>2.24</ele>
        <time>2015-06-19T11:56:55Z</time>
      </trkpt>
      <trkpt lat="36.135207" lon="-5.847254">
        <ele>2.29</ele>
        <time>2015-06-19T11:56:56Z</time>
      </trkpt>
      <trkpt lat="36.135228" lon="-5.847100">
        <ele>2.26</ele>
        <time>2015-06-19T11:57:00Z</time>
      </trkpt>
      <trkpt lat="36.135217" lon="-5.847066">
        <ele>2.26</ele>
        <time>2015-06-19T11:57:01Z</time>
      </trkpt>
      <trkpt lat="36.135173" lon="-5.847011">
        <ele>2.22</ele>
        <time>2015-06-19T11:57:03Z</time>
      </trkpt>
      <trkpt lat="36.135122" lon="-5.846966">
        <ele>2.26</ele>
        <time>2015-06-19T11:57:05Z</time>
      </trkpt>
      <trkpt lat="36.135029" lon="-5.846887">
        <ele>2.88</ele>
        <time>2015-06-19T11:57:09Z</time>
      </trkpt>
      <trkpt lat="36.135010" lon="-5.846860">
        <ele>3.42</ele>
        <time>2015-06-19T11:57:10Z</time>
      </trkpt>
      <trkpt lat="36.135007" lon="-5.846831">
        <ele>3.87</ele>
        <time>2015-06-19T11:57:11Z</time>
      </trkpt>
      <trkpt lat="36.134938" lon="-5.846837">
        <ele>2.48</ele>
        <time>2015-06-19T11:57:26Z</time>
      </trkpt>
      <trkpt lat="36.134845" lon="-5.846794">
        <ele>2.41</ele>
        <time>2015-06-19T11:57:30Z</time>
      </trkpt>
      <trkpt lat="36.134739" lon="-5.846775">
        <ele>2.41</ele>
        <time>2015-06-19T11:57:34Z</time>
      </trkpt>
      <trkpt lat="36.134713" lon="-5.846772">
        <ele>2.46</ele>
        <time>2015-06-19T11:57:35Z</time>
      </trkpt>
      <trkpt lat="36.134670" lon="-5.846742">
        <ele>2.49</ele>
        <time>2015-06-19T11:57:37Z</time>
      </trkpt>
      <trkpt lat="36.134633" lon="-5.846697">
        <ele>2.49</ele>
        <time>2015-06-19T11:57:39Z</time>
      </trkpt>
      <trkpt lat="36.134595" lon="-5.846620">
        <ele>2.45</ele>
        <time>2015-06-19T11:57:42Z</time>
      </trkpt>
      <trkpt lat="36.134580" lon="-5.846568">
        <ele>2.48</ele>
        <time>2015-06-19T11:57:44Z</time>
      </trkpt>
      <trkpt lat="36.134565" lon="-5.846486">
        <ele>2.85</ele>
        <time>2015-06-19T11:57:47Z</time>
      </trkpt>
      <trkpt lat="36.134559" lon="-5.846453">
        <ele>3.29</ele>
        <time>2015-06-19T11:57:48Z</time>
      </trkpt>
      <trkpt lat="36.134550" lon="-5.846418">
        <ele>3.68</ele>
        <time>2015-06-19T11:57:49Z</time>
      </trkpt>
      <trkpt lat="36.134544" lon="-5.846383">
        <ele>4.10</ele>
        <time>2015-06-19T11:57:50Z</time>
      </trkpt>
      <trkpt lat="36.134540" lon="-5.846347">
        <ele>4.43</ele>
        <time>2015-06-19T11:57:51Z</time>
      </trkpt>
      <trkpt lat="36.134496" lon="-5.846055">
        <ele>4.42</ele>
        <time>2015-06-19T11:57:58Z</time>
      </trkpt>
      <trkpt lat="36.134431" lon="-5.845794">
        <ele>4.41</ele>
        <time>2015-06-19T11:58:03Z</time>
      </trkpt>
      <trkpt lat="36.134404" lon="-5.845755">
        <ele>4.42</ele>
        <time>2015-06-19T11:58:04Z</time>
      </trkpt>
      <trkpt lat="36.134308" lon="-5.845660">
        <ele>4.43</ele>
        <time>2015-06-19T11:58:07Z</time>
      </trkpt>
      <trkpt lat="36.134200" lon="-5.845559">
        <ele>4.41</ele>
        <time>2015-06-19T11:58:10Z</time>
      </trkpt>
      <trkpt lat="36.134047" lon="-5.845414">
        <ele>4.48</ele>
        <time>2015-06-19T11:58:14Z</time>
      </trkpt>
      <trkpt lat="36.133936" lon="-5.845311">
        <ele>4.47</ele>
        <time>2015-06-19T11:58:17Z</time>
      </trkpt>
      <trkpt lat="36.133684" lon="-5.845060">
        <ele>4.43</ele>
        <time>2015-06-19T11:58:24Z</time>
      </trkpt>
      <trkpt lat="36.133650" lon="-5.845026">
        <ele>4.47</ele>
        <time>2015-06-19T11:58:25Z</time>
      </trkpt>
      <trkpt lat="36.133512" lon="-5.844896">
        <ele>4.47</ele>
        <time>2015-06-19T11:58:29Z</time>
      </trkpt>
      <trkpt lat="36.133437" lon="-5.844827">
        <ele>4.44</ele>
        <time>2015-06-19T11:58:31Z</time>
      </trkpt>
      <trkpt lat="36.133230" lon="-5.844586">
        <ele>4.41</ele>
        <time>2015-06-19T11:58:37Z</time>
      </trkpt>
      <trkpt lat="36.133198" lon="-5.844547">
        <ele>4.42</ele>
        <time>2015-06-19T11:58:38Z</time>
      </trkpt>
      <trkpt lat="36.132958" lon="-5.844219">
        <ele>4.41</ele>
        <time>2015-06-19T11:58:46Z</time>
      </trkpt>
      <trkpt lat="36.132683" lon="-5.843832">
        <ele>4.50</ele>
        <time>2015-06-19T11:58:55Z</time>
      </trkpt>
      <trkpt lat="36.132478" lon="-5.843581">
        <ele>4.43</ele>
        <time>2015-06-19T11:59:01Z</time>
      </trkpt>
      <trkpt lat="36.132204" lon="-5.843319">
        <ele>4.46</ele>
        <time>2015-06-19T11:59:08Z</time>
      </trkpt>
      <trkpt lat="36.131832" lon="-5.842974">
        <ele>4.48</ele>
        <time>2015-06-19T11:59:17Z</time>
      </trkpt>
      <trkpt lat="36.131529" lon="-5.842688">
        <ele>4.47</ele>
        <time>2015-06-19T11:59:25Z</time>
      </trkpt>
      <trkpt lat="36.131314" lon="-5.842487">
        <ele>4.47</ele>
        <time>2015-06-19T11:59:31Z</time>
      </trkpt>
      <trkpt lat="36.131237" lon="-5.842423">
        <ele>4.49</ele>
        <time>2015-06-19T11:59:33Z</time>
      </trkpt>
      <trkpt lat="36.130924" lon="-5.842174">
        <ele>4.49</ele>
        <time>2015-06-19T11:59:41Z</time>
      </trkpt>
      <trkpt lat="36.130665" lon="-5.841963">
        <ele>4.46</ele>
        <time>2015-06-19T11:59:48Z</time>
      </trkpt>
      <trkpt lat="36.130344" lon="-5.841697">
        <ele>4.41</ele>
        <time>2015-06-19T11:59:56Z</time>
      </trkpt>
      <trkpt lat="36.130132" lon="-5.841529">
        <ele>4.42</ele>
        <time>2015-06-19T12:00:02Z</time>
      </trkpt>
      <trkpt lat="36.130071" lon="-5.841475">
        <ele>4.41</ele>
        <time>2015-06-19T12:00:04Z</time>
      </trkpt>
      <trkpt lat="36.129824" lon="-5.841337">
        <ele>4.48</ele>
        <time>2015-06-19T12:00:11Z</time>
      </trkpt>
      <trkpt lat="36.129575" lon="-5.841292">
        <ele>4.43</ele>
        <time>2015-06-19T12:00:18Z</time>
      </trkpt>
      <trkpt lat="36.129481" lon="-5.841283">
        <ele>4.45</ele>
        <time>2015-06-19T12:00:24Z</time>
      </trkpt>
      <trkpt lat="36.129478" lon="-5.841265">
        <ele>4.42</ele>
        <time>2015-06-19T12:00:25Z</time>
      </trkpt>
      <trkpt lat="36.129475" lon="-5.841222">
        <ele>4.49</ele>
        <time>2015-06-19T12:00:27Z</time>
      </trkpt>
      <trkpt lat="36.129478" lon="-5.841194">
        <ele>4.48</ele>
        <time>2015-06-19T12:00:28Z</time>
      </trkpt>
      <trkpt lat="36.129494" lon="-5.840969">
        <ele>4.47</ele>
        <time>2015-06-19T12:00:34Z</time>
      </trkpt>
      <trkpt lat="36.129502" lon="-5.840935">
        <ele>5.03</ele>
        <time>2015-06-19T12:00:35Z</time>
      </trkpt>
      <trkpt lat="36.129512" lon="-5.840907">
        <ele>5.45</ele>
        <time>2015-06-19T12:00:36Z</time>
      </trkpt>
      <trkpt lat="36.129528" lon="-5.840881">
        <ele>5.80</ele>
        <time>2015-06-19T12:00:37Z</time>
      </trkpt>
      <trkpt lat="36.129543" lon="-5.840856">
        <ele>6.81</ele>
        <time>2015-06-19T12:00:38Z</time>
      </trkpt>
      <trkpt lat="36.129559" lon="-5.840831">
        <ele>6.81</ele>
        <time>2015-06-19T12:00:39Z</time>
      </trkpt>
      <trkpt lat="36.129616" lon="-5.840675">
        <ele>6.89</ele>
        <time>2015-06-19T12:00:44Z</time>
      </trkpt>
      <trkpt lat="36.129631" lon="-5.840644">
        <ele>6.88</ele>
        <time>2015-06-19T12:00:45Z</time>
      </trkpt>
      <trkpt lat="36.129736" lon="-5.840423">
        <ele>6.88</ele>
        <time>2015-06-19T12:00:52Z</time>
      </trkpt>
      <trkpt lat="36.129740" lon="-5.840389">
        <ele>7.25</ele>
        <time>2015-06-19T12:00:53Z</time>
      </trkpt>
      <trkpt lat="36.129739" lon="-5.840353">
        <ele>7.66</ele>
        <time>2015-06-19T12:00:54Z</time>
      </trkpt>
      <trkpt lat="36.129742" lon="-5.840316">
        <ele>8.07</ele>
        <time>2015-06-19T12:00:55Z</time>
      </trkpt>
      <trkpt lat="36.129755" lon="-5.840290">
        <ele>8.49</ele>
        <time>2015-06-19T12:00:56Z</time>
      </trkpt>
      <trkpt lat="36.129767" lon="-5.840256">
        <ele>8.86</ele>
        <time>2015-06-19T12:00:57Z</time>
      </trkpt>
      <trkpt lat="36.129727" lon="-5.840207">
        <ele>8.81</ele>
        <time>2015-06-19T12:00:59Z</time>
      </trkpt>
      <trkpt lat="36.129600" lon="-5.840163">
        <ele>8.82</ele>
        <time>2015-06-19T12:01:03Z</time>
      </trkpt>
      <trkpt lat="36.129544" lon="-5.840132">
        <ele>8.80</ele>
        <time>2015-06-19T12:01:05Z</time>
      </trkpt>
      <trkpt lat="36.129321" lon="-5.840002">
        <ele>8.81</ele>
        <time>2015-06-19T12:01:12Z</time>
      </trkpt>
      <trkpt lat="36.129284" lon="-5.839985">
        <ele>8.88</ele>
        <time>2015-06-19T12:01:13Z</time>
      </trkpt>
      <trkpt lat="36.129151" lon="-5.839873">
        <ele>8.85</ele>
        <time>2015-06-19T12:01:17Z</time>
      </trkpt>
      <trkpt lat="36.129118" lon="-5.839841">
        <ele>8.82</ele>
        <time>2015-06-19T12:01:18Z</time>
      </trkpt>
      <trkpt lat="36.128950" lon="-5.839709">
        <ele>8.85</ele>
        <time>2015-06-19T12:01:24Z</time>
      </trkpt>
      <trkpt lat="36.128790" lon="-5.839588">
        <ele>8.81</ele>
        <time>2015-06-19T12:01:31Z</time>
      </trkpt>
      <trkpt lat="36.128584" lon="-5.839472">
        <ele>8.83</ele>
        <time>2015-06-19T12:01:37Z</time>
      </trkpt>
      <trkpt lat="36.128548" lon="-5.839445">
        <ele>8.89</ele>
        <time>2015-06-19T12:01:38Z</time>
      </trkpt>
      <trkpt lat="36.128436" lon="-5.839358">
        <ele>8.84</ele>
        <time>2015-06-19T12:01:41Z</time>
      </trkpt>
      <trkpt lat="36.128417" lon="-5.839307">
        <ele>8.87</ele>
        <time>2015-06-19T12:01:42Z</time>
      </trkpt>
      <trkpt lat="36.128363" lon="-5.839234">
        <ele>9.29</ele>
        <time>2015-06-19T12:01:44Z</time>
      </trkpt>
      <trkpt lat="36.128340" lon="-5.839201">
        <ele>9.81</ele>
        <time>2015-06-19T12:01:45Z</time>
      </trkpt>
      <trkpt lat="36.128320" lon="-5.839162">
        <ele>10.21</ele>
        <time>2015-06-19T12:01:46Z</time>
      </trkpt>
      <trkpt lat="36.128291" lon="-5.839133">
        <ele>10.63</ele>
        <time>2015-06-19T12:01:47Z</time>
      </trkpt>
      <trkpt lat="36.128259" lon="-5.839111">
        <ele>11.07</ele>
        <time>2015-06-19T12:01:48Z</time>
      </trkpt>
      <trkpt lat="36.128225" lon="-5.839096">
        <ele>11.08</ele>
        <time>2015-06-19T12:01:49Z</time>
      </trkpt>
      <trkpt lat="36.128151" lon="-5.839066">
        <ele>11.05</ele>
        <time>2015-06-19T12:01:51Z</time>
      </trkpt>
      <trkpt lat="36.128007" lon="-5.838988">
        <ele>11.06</ele>
        <time>2015-06-19T12:01:55Z</time>
      </trkpt>
      <trkpt lat="36.127753" lon="-5.838870">
        <ele>11.07</ele>
        <time>2015-06-19T12:02:01Z</time>
      </trkpt>
      <trkpt lat="36.127422" lon="-5.838696">
        <ele>11.05</ele>
        <time>2015-06-19T12:02:08Z</time>
      </trkpt>
      <trkpt lat="36.127369" lon="-5.838672">
        <ele>11.01</ele>
        <time>2015-06-19T12:02:09Z</time>
      </trkpt>
      <trkpt lat="36.126978" lon="-5.838468">
        <ele>11.05</ele>
        <time>2015-06-19T12:02:16Z</time>
      </trkpt>
      <trkpt lat="36.126691" lon="-5.838317">
        <ele>11.05</ele>
        <time>2015-06-19T12:02:21Z</time>
      </trkpt>
      <trkpt lat="36.126636" lon="-5.838285">
        <ele>11.01</ele>
        <time>2015-06-19T12:02:22Z</time>
      </trkpt>
      <trkpt lat="36.126252" lon="-5.838035">
        <ele>11.01</ele>
        <time>2015-06-19T12:02:29Z</time>
      </trkpt>
      <trkpt lat="36.126143" lon="-5.837959">
        <ele>11.09</ele>
        <time>2015-06-19T12:02:31Z</time>
      </trkpt>
      <trkpt lat="36.126036" lon="-5.837888">
        <ele>11.05</ele>
        <time>2015-06-19T12:02:33Z</time>
      </trkpt>
      <trkpt lat="36.125933" lon="-5.837804">
        <ele>11.05</ele>
        <time>2015-06-19T12:02:35Z</time>
      </trkpt>
      <trkpt lat="36.125882" lon="-5.837764">
        <ele>11.06</ele>
        <time>2015-06-19T12:02:36Z</time>
      </trkpt>
      <trkpt lat="36.125729" lon="-5.837644">
        <ele>11.03</ele>
        <time>2015-06-19T12:02:39Z</time>
      </trkpt>
      <trkpt lat="36.125525" lon="-5.837471">
        <ele>11.02</ele>
        <time>2015-06-19T12:02:43Z</time>
      </trkpt>
      <trkpt lat="36.125378" lon="-5.837352">
        <ele>11.09</ele>
        <time>2015-06-19T12:02:46Z</time>
      </trkpt>
      <trkpt lat="36.125239" lon="-5.837231">
        <ele>11.07</ele>
        <time>2015-06-19T12:02:49Z</time>
      </trkpt>
      <trkpt lat="36.125143" lon="-5.837148">
        <ele>11.08</ele>
        <time>2015-06-19T12:02:51Z</time>
      </trkpt>
      <trkpt lat="36.125014" lon="-5.837041">
        <ele>10.64</ele>
        <time>2015-06-19T12:02:54Z</time>
      </trkpt>
      <trkpt lat="36.124970" lon="-5.837008">
        <ele>10.22</ele>
        <time>2015-06-19T12:02:55Z</time>
      </trkpt>
      <trkpt lat="36.124928" lon="-5.836973">
        <ele>9.81</ele>
        <time>2015-06-19T12:02:56Z</time>
      </trkpt>
      <trkpt lat="36.124887" lon="-5.836939">
        <ele>9.50</ele>
        <time>2015-06-19T12:02:57Z</time>
      </trkpt>
      <trkpt lat="36.124843" lon="-5.836906">
        <ele>9.07</ele>
        <time>2015-06-19T12:02:58Z</time>
      </trkpt>
      <trkpt lat="36.124595" lon="-5.836690">
        <ele>9.08</ele>
        <time>2015-06-19T12:03:04Z</time>
      </trkpt>
      <trkpt lat="36.124380" lon="-5.836515">
        <ele>9.02</ele>
        <time>2015-06-19T12:03:09Z</time>
      </trkpt>
      <trkpt lat="36.124302" lon="-5.836448">
        <ele>9.06</ele>
        <time>2015-06-19T12:03:11Z</time>
      </trkpt>
      <trkpt lat="36.124091" lon="-5.836276">
        <ele>9.01</ele>
        <time>2015-06-19T12:03:16Z</time>
      </trkpt>
      <trkpt lat="36.123877" lon="-5.836105">
        <ele>9.09</ele>
        <time>2015-06-19T12:03:21Z</time>
      </trkpt>
      <trkpt lat="36.123651" lon="-5.835906">
        <ele>9.09</ele>
        <time>2015-06-19T12:03:27Z</time>
      </trkpt>
      <trkpt lat="36.123610" lon="-5.835879">
        <ele>9.02</ele>
        <time>2015-06-19T12:03:28Z</time>
      </trkpt>
      <trkpt lat="36.123395" lon="-5.835711">
        <ele>9.06</ele>
        <time>2015-06-19T12:03:33Z</time>
      </trkpt>
      <trkpt lat="36.123222" lon="-5.835586">
        <ele>9.01</ele>
        <time>2015-06-19T12:03:37Z</time>
      </trkpt>
      <trkpt lat="36.123137" lon="-5.835531">
        <ele>9.01</ele>
        <time>2015-06-19T12:03:39Z</time>
      </trkpt>
      <trkpt lat="36.122775" lon="-5.835288">
        <ele>9.02</ele>
        <time>2015-06-19T12:03:47Z</time>
      </trkpt>
      <trkpt lat="36.122393" lon="-5.835043">
        <ele>9.07</ele>
        <time>2015-06-19T12:03:54Z</time>
      </trkpt>
      <trkpt lat="36.122041" lon="-5.834769">
        <ele>9.07</ele>
        <time>2015-06-19T12:04:01Z</time>
      </trkpt>
      <trkpt lat="36.121736" lon="-5.834484">
        <ele>9.02</ele>
        <time>2015-06-19T12:04:08Z</time>
      </trkpt>
      <trkpt lat="36.121444" lon="-5.834210">
        <ele>9.03</ele>
        <time>2015-06-19T12:04:15Z</time>
      </trkpt>
      <trkpt lat="36.121360" lon="-5.834144">
        <ele>9.10</ele>
        <time>2015-06-19T12:04:17Z</time>
      </trkpt>
      <trkpt lat="36.121148" lon="-5.833993">
        <ele>9.08</ele>
        <time>2015-06-19T12:04:22Z</time>
      </trkpt>
      <trkpt lat="36.120832" lon="-5.833788">
        <ele>9.04</ele>
        <time>2015-06-19T12:04:29Z</time>
      </trkpt>
      <trkpt lat="36.120475" lon="-5.833544">
        <ele>9.02</ele>
        <time>2015-06-19T12:04:37Z</time>
      </trkpt>
      <trkpt lat="36.120266" lon="-5.833372">
        <ele>9.01</ele>
        <time>2015-06-19T12:04:43Z</time>
      </trkpt>
      <trkpt lat="36.119987" lon="-5.833082">
        <ele>9.02</ele>
        <time>2015-06-19T12:04:51Z</time>
      </trkpt>
      <trkpt lat="36.119955" lon="-5.833037">
        <ele>9.01</ele>
        <time>2015-06-19T12:04:52Z</time>
      </trkpt>
      <trkpt lat="36.119825" lon="-5.832898">
        <ele>9.02</ele>
        <time>2015-06-19T12:04:56Z</time>
      </trkpt>
      <trkpt lat="36.119724" lon="-5.832801">
        <ele>9.04</ele>
        <time>2015-06-19T12:05:00Z</time>
      </trkpt>
      <trkpt lat="36.119704" lon="-5.832812">
        <ele>9.04</ele>
        <time>2015-06-19T12:05:01Z</time>
      </trkpt>
      <trkpt lat="36.119637" lon="-5.832934">
        <ele>9.07</ele>
        <time>2015-06-19T12:05:05Z</time>
      </trkpt>
      <trkpt lat="36.119576" lon="-5.833039">
        <ele>8.66</ele>
        <time>2015-06-19T12:05:08Z</time>
      </trkpt>
      <trkpt lat="36.119554" lon="-5.833064">
        <ele>8.26</ele>
        <time>2015-06-19T12:05:09Z</time>
      </trkpt>
      <trkpt lat="36.119538" lon="-5.833071">
        <ele>7.26</ele>
        <time>2015-06-19T12:05:10Z</time>
      </trkpt>
      <trkpt lat="36.119534" lon="-5.833071">
        <ele>6.88</ele>
        <time>2015-06-19T12:05:11Z</time>
      </trkpt>
      <trkpt lat="36.119527" lon="-5.833073">
        <ele>6.84</ele>
        <time>2015-06-19T12:05:16Z</time>
      </trkpt>
      <trkpt lat="36.119526" lon="-5.833071">
        <ele>6.86</ele>
        <time>2015-06-19T12:05:19Z</time>
      </trkpt>
      <trkpt lat="36.119520" lon="-5.833069">
        <ele>6.81</ele>
        <time>2015-06-19T12:05:20Z</time>
      </trkpt>
      <trkpt lat="36.119509" lon="-5.833058">
        <ele>6.81</ele>
        <time>2015-06-19T12:05:21Z</time>
      </trkpt>
      <trkpt lat="36.119432" lon="-5.833006">
        <ele>6.82</ele>
        <time>2015-06-19T12:05:25Z</time>
      </trkpt>
      <trkpt lat="36.119390" lon="-5.832955">
        <ele>6.86</ele>
        <time>2015-06-19T12:05:27Z</time>
      </trkpt>
      <trkpt lat="36.119327" lon="-5.832874">
        <ele>6.84</ele>
        <time>2015-06-19T12:05:30Z</time>
      </trkpt>
      <trkpt lat="36.119118" lon="-5.832637">
        <ele>6.89</ele>
        <time>2015-06-19T12:05:38Z</time>
      </trkpt>
      <trkpt lat="36.118922" lon="-5.832381">
        <ele>6.82</ele>
        <time>2015-06-19T12:05:46Z</time>
      </trkpt>
      <trkpt lat="36.118733" lon="-5.832279">
        <ele>6.88</ele>
        <time>2015-06-19T12:05:52Z</time>
      </trkpt>
      <trkpt lat="36.118565" lon="-5.832230">
        <ele>6.83</ele>
        <time>2015-06-19T12:05:58Z</time>
      </trkpt>
      <trkpt lat="36.118413" lon="-5.832158">
        <ele>6.83</ele>
        <time>2015-06-19T12:06:05Z</time>
      </trkpt>
      <trkpt lat="36.118393" lon="-5.832148">
        <ele>6.83</ele>
        <time>2015-06-19T12:06:06Z</time>
      </trkpt>
      <trkpt lat="36.118338" lon="-5.832127">
        <ele>6.89</ele>
        <time>2015-06-19T12:06:09Z</time>
      </trkpt>
      <trkpt lat="36.118265" lon="-5.832105">
        <ele>6.81</ele>
        <time>2015-06-19T12:06:13Z</time>
      </trkpt>
      <trkpt lat="36.118116" lon="-5.832042">
        <ele>6.81</ele>
        <time>2015-06-19T12:06:19Z</time>
      </trkpt>
      <trkpt lat="36.117913" lon="-5.831928">
        <ele>6.88</ele>
        <time>2015-06-19T12:06:25Z</time>
      </trkpt>
      <trkpt lat="36.117750" lon="-5.831810">
        <ele>6.88</ele>
        <time>2015-06-19T12:06:31Z</time>
      </trkpt>
      <trkpt lat="36.117593" lon="-5.831691">
        <ele>6.82</ele>
        <time>2015-06-19T12:06:37Z</time>
      </trkpt>
      <trkpt lat="36.117502" lon="-5.831630">
        <ele>6.81</ele>
        <time>2015-06-19T12:06:40Z</time>
      </trkpt>
      <trkpt lat="36.117383" lon="-5.831550">
        <ele>6.83</ele>
        <time>2015-06-19T12:06:43Z</time>
      </trkpt>
      <trkpt lat="36.117248" lon="-5.831448">
        <ele>6.89</ele>
        <time>2015-06-19T12:06:46Z</time>
      </trkpt>
      <trkpt lat="36.117207" lon="-5.831408">
        <ele>6.89</ele>
        <time>2015-06-19T12:06:47Z</time>
      </trkpt>
      <trkpt lat="36.117123" lon="-5.831341">
        <ele>6.83</ele>
        <time>2015-06-19T12:06:49Z</time>
      </trkpt>
      <trkpt lat="36.116885" lon="-5.831183">
        <ele>6.84</ele>
        <time>2015-06-19T12:06:55Z</time>
      </trkpt>
      <trkpt lat="36.116702" lon="-5.831046">
        <ele>6.85</ele>
        <time>2015-06-19T12:07:01Z</time>
      </trkpt>
      <trkpt lat="36.116513" lon="-5.830907">
        <ele>6.81</ele>
        <time>2015-06-19T12:07:07Z</time>
      </trkpt>
      <trkpt lat="36.116407" lon="-5.830826">
        <ele>6.81</ele>
        <time>2015-06-19T12:07:10Z</time>
      </trkpt>
      <trkpt lat="36.116287" lon="-5.830739">
        <ele>6.82</ele>
        <time>2015-06-19T12:07:13Z</time>
      </trkpt>
      <trkpt lat="36.116163" lon="-5.830640">
        <ele>7.46</ele>
        <time>2015-06-19T12:07:16Z</time>
      </trkpt>
      <trkpt lat="36.116121" lon="-5.830607">
        <ele>7.82</ele>
        <time>2015-06-19T12:07:17Z</time>
      </trkpt>
      <trkpt lat="36.116079" lon="-5.830577">
        <ele>8.23</ele>
        <time>2015-06-19T12:07:18Z</time>
      </trkpt>
      <trkpt lat="36.116037" lon="-5.830544">
        <ele>8.64</ele>
        <time>2015-06-19T12:07:19Z</time>
      </trkpt>
      <trkpt lat="36.115996" lon="-5.830511">
        <ele>9.27</ele>
        <time>2015-06-19T12:07:20Z</time>
      </trkpt>
      <trkpt lat="36.115951" lon="-5.830483">
        <ele>9.24</ele>
        <time>2015-06-19T12:07:21Z</time>
      </trkpt>
      <trkpt lat="36.115661" lon="-5.830248">
        <ele>9.28</ele>
        <time>2015-06-19T12:07:28Z</time>
      </trkpt>
      <trkpt lat="36.115410" lon="-5.830057">
        <ele>9.25</ele>
        <time>2015-06-19T12:07:34Z</time>
      </trkpt>
      <trkpt lat="36.115169" lon="-5.829857">
        <ele>9.26</ele>
        <time>2015-06-19T12:07:40Z</time>
      </trkpt>
      <trkpt lat="36.115090" lon="-5.829795">
        <ele>9.22</ele>
        <time>2015-06-19T12:07:42Z</time>
      </trkpt>
      <trkpt lat="36.115006" lon="-5.829742">
        <ele>9.21</ele>
        <time>2015-06-19T12:07:44Z</time>
      </trkpt>
      <trkpt lat="36.114960" lon="-5.829721">
        <ele>9.28</ele>
        <time>2015-06-19T12:07:45Z</time>
      </trkpt>
      <trkpt lat="36.114858" lon="-5.829703">
        <ele>9.27</ele>
        <time>2015-06-19T12:07:47Z</time>
      </trkpt>
      <trkpt lat="36.114666" lon="-5.829656">
        <ele>9.23</ele>
        <time>2015-06-19T12:07:51Z</time>
      </trkpt>
      <trkpt lat="36.114523" lon="-5.829625">
        <ele>9.24</ele>
        <time>2015-06-19T12:07:54Z</time>
      </trkpt>
      <trkpt lat="36.114187" lon="-5.829549">
        <ele>9.27</ele>
        <time>2015-06-19T12:08:01Z</time>
      </trkpt>
      <trkpt lat="36.114143" lon="-5.829544">
        <ele>8.85</ele>
        <time>2015-06-19T12:08:02Z</time>
      </trkpt>
      <trkpt lat="36.114099" lon="-5.829537">
        <ele>8.04</ele>
        <time>2015-06-19T12:08:03Z</time>
      </trkpt>
      <trkpt lat="36.114060" lon="-5.829527">
        <ele>7.66</ele>
        <time>2015-06-19T12:08:04Z</time>
      </trkpt>
      <trkpt lat="36.114024" lon="-5.829521">
        <ele>7.30</ele>
        <time>2015-06-19T12:08:05Z</time>
      </trkpt>
      <trkpt lat="36.113989" lon="-5.829510">
        <ele>7.23</ele>
        <time>2015-06-19T12:08:06Z</time>
      </trkpt>
      <trkpt lat="36.113876" lon="-5.829388">
        <ele>7.22</ele>
        <time>2015-06-19T12:08:11Z</time>
      </trkpt>
      <trkpt lat="36.113853" lon="-5.829285">
        <ele>7.21</ele>
        <time>2015-06-19T12:08:14Z</time>
      </trkpt>
      <trkpt lat="36.113881" lon="-5.829224">
        <ele>7.29</ele>
        <time>2015-06-19T12:08:16Z</time>
      </trkpt>
      <trkpt lat="36.113941" lon="-5.829160">
        <ele>7.22</ele>
        <time>2015-06-19T12:08:19Z</time>
      </trkpt>
      <trkpt lat="36.114001" lon="-5.829085">
        <ele>7.22</ele>
        <time>2015-06-19T12:08:22Z</time>
      </trkpt>
      <trkpt lat="36.114132" lon="-5.828919">
        <ele>7.27</ele>
        <time>2015-06-19T12:08:28Z</time>
      </trkpt>
      <trkpt lat="36.114175" lon="-5.828861">
        <ele>7.25</ele>
        <time>2015-06-19T12:08:30Z</time>
      </trkpt>
      <trkpt lat="36.114318" lon="-5.828666">
        <ele>7.24</ele>
        <time>2015-06-19T12:08:37Z</time>
      </trkpt>
      <trkpt lat="36.114373" lon="-5.828585">
        <ele>7.64</ele>
        <time>2015-06-19T12:08:40Z</time>
      </trkpt>
      <trkpt lat="36.114394" lon="-5.828554">
        <ele>8.06</ele>
        <time>2015-06-19T12:08:41Z</time>
      </trkpt>
      <trkpt lat="36.114414" lon="-5.828523">
        <ele>8.46</ele>
        <time>2015-06-19T12:08:42Z</time>
      </trkpt>
      <trkpt lat="36.114436" lon="-5.828495">
        <ele>8.82</ele>
        <time>2015-06-19T12:08:43Z</time>
      </trkpt>
      <trkpt lat="36.114459" lon="-5.828465">
        <ele>9.21</ele>
        <time>2015-06-19T12:08:44Z</time>
      </trkpt>
      <trkpt lat="36.114546" lon="-5.828343">
        <ele>9.21</ele>
        <time>2015-06-19T12:08:48Z</time>
      </trkpt>
      <trkpt lat="36.114589" lon="-5.828278">
        <ele>9.23</ele>
        <time>2015-06-19T12:08:50Z</time>
      </trkpt>
      <trkpt lat="36.114660" lon="-5.828192">
        <ele>9.66</ele>
        <time>2015-06-19T12:08:53Z</time>
      </trkpt>
      <trkpt lat="36.114684" lon="-5.828162">
        <ele>10.04</ele>
        <time>2015-06-19T12:08:54Z</time>
      </trkpt>
      <trkpt lat="36.114706" lon="-5.828130">
        <ele>10.46</ele>
        <time>2015-06-19T12:08:55Z</time>
      </trkpt>
      <trkpt lat="36.114729" lon="-5.828093">
        <ele>10.88</ele>
        <time>2015-06-19T12:08:56Z</time>
      </trkpt>
      <trkpt lat="36.114753" lon="-5.828058">
        <ele>11.21</ele>
        <time>2015-06-19T12:08:57Z</time>
      </trkpt>
      <trkpt lat="36.114779" lon="-5.828024">
        <ele>11.24</ele>
        <time>2015-06-19T12:08:58Z</time>
      </trkpt>
      <trkpt lat="36.114953" lon="-5.827802">
        <ele>11.26</ele>
        <time>2015-06-19T12:09:05Z</time>
      </trkpt>
      <trkpt lat="36.115101" lon="-5.827606">
        <ele>11.24</ele>
        <time>2015-06-19T12:09:11Z</time>
      </trkpt>
      <trkpt lat="36.115296" lon="-5.827350">
        <ele>11.62</ele>
        <time>2015-06-19T12:09:19Z</time>
      </trkpt>
      <trkpt lat="36.115321" lon="-5.827322">
        <ele>12.01</ele>
        <time>2015-06-19T12:09:20Z</time>
      </trkpt>
      <trkpt lat="36.115344" lon="-5.827291">
        <ele>12.41</ele>
        <time>2015-06-19T12:09:21Z</time>
      </trkpt>
      <trkpt lat="36.115369" lon="-5.827266">
        <ele>12.88</ele>
        <time>2015-06-19T12:09:22Z</time>
      </trkpt>
      <trkpt lat="36.115393" lon="-5.827237">
        <ele>13.22</ele>
        <time>2015-06-19T12:09:23Z</time>
      </trkpt>
      <trkpt lat="36.115463" lon="-5.827150">
        <ele>13.30</ele>
        <time>2015-06-19T12:09:26Z</time>
      </trkpt>
      <trkpt lat="36.115649" lon="-5.826929">
        <ele>13.24</ele>
        <time>2015-06-19T12:09:34Z</time>
      </trkpt>
      <trkpt lat="36.115895" lon="-5.826740">
        <ele>13.29</ele>
        <time>2015-06-19T12:11:54Z</time>
      </trkpt>
      <trkpt lat="36.115860" lon="-5.826643">
        <ele>13.23</ele>
        <time>2015-06-19T12:11:57Z</time>
      </trkpt>
      <trkpt lat="36.115824" lon="-5.826595">
        <ele>13.28</ele>
        <time>2015-06-19T12:11:59Z</time>
      </trkpt>
      <trkpt lat="36.115682" lon="-5.826523">
        <ele>13.27</ele>
        <time>2015-06-19T12:12:05Z</time>
      </trkpt>
      <trkpt lat="36.115666" lon="-5.826498">
        <ele>13.29</ele>
        <time>2015-06-19T12:12:07Z</time>
      </trkpt>
      <trkpt lat="36.115666" lon="-5.826498">
        <ele>13.28</ele>
        <time>2015-06-19T12:12:09Z</time>
      </trkpt>
      <trkpt lat="36.115666" lon="-5.826498">
        <ele>13.22</ele>
        <time>2015-06-19T12:12:12Z</time>
      </trkpt>
      <trkpt lat="36.115666" lon="-5.826499">
        <ele>13.21</ele>
        <time>2015-06-19T12:12:16Z</time>
      </trkpt>
      <trkpt lat="36.115666" lon="-5.826499">
        <ele>13.25</ele>
        <time>2015-06-19T12:12:17Z</time>
      </trkpt>
      <trkpt lat="36.115666" lon="-5.826499">
        <ele>13.24</ele>
        <time>2015-06-19T12:12:20Z</time>
      </trkpt>
      <trkpt lat="36.115666" lon="-5.826499">
        <ele>13.25</ele>
        <time>2015-06-19T12:12:23Z</time>
      </trkpt>
      <trkpt lat="36.115666" lon="-5.826499">
        <ele>13.30</ele>
        <time>2015-06-19T12:12:29Z</time>
      </trkpt>
      <trkpt lat="36.115666" lon="-5.826499">
        <ele>13.21</ele>
        <time>2015-06-19T12:12:33Z</time>
      </trkpt>
      <trkpt lat="36.115666" lon="-5.826499">
        <ele>13.23</ele>
        <time>2015-06-19T12:12:42Z</time>
      </trkpt>
      <trkpt lat="36.115661" lon="-5.826495">
        <ele>13.22</ele>
        <time>2015-06-19T12:12:46Z</time>
      </trkpt>
      <trkpt lat="36.115623" lon="-5.826462">
        <ele>13.22</ele>
        <time>2015-06-19T12:12:49Z</time>
      </trkpt>
      <trkpt lat="36.115600" lon="-5.826441">
        <ele>13.25</ele>
        <time>2015-06-19T12:12:51Z</time>
      </trkpt>
      <trkpt lat="36.115570" lon="-5.826418">
        <ele>13.20</ele>
        <time>2015-06-19T12:12:53Z</time>
      </trkpt>
      <trkpt lat="36.115542" lon="-5.826402">
        <ele>13.22</ele>
        <time>2015-06-19T12:12:55Z</time>
      </trkpt>
      <trkpt lat="36.115515" lon="-5.826391">
        <ele>13.21</ele>
        <time>2015-06-19T12:12:57Z</time>
      </trkpt>
      <trkpt lat="36.115505" lon="-5.826376">
        <ele>13.23</ele>
        <time>2015-06-19T12:12:58Z</time>
      </trkpt>
      <trkpt lat="36.115489" lon="-5.826350">
        <ele>13.27</ele>
        <time>2015-06-19T12:13:00Z</time>
      </trkpt>
      <trkpt lat="36.115479" lon="-5.826337">
        <ele>13.28</ele>
        <time>2015-06-19T12:13:01Z</time>
      </trkpt>
      <trkpt lat="36.115468" lon="-5.826325">
        <ele>13.21</ele>
        <time>2015-06-19T12:13:02Z</time>
      </trkpt>
      <trkpt lat="36.115393" lon="-5.826249">
        <ele>13.24</ele>
        <time>2015-06-19T12:13:09Z</time>
      </trkpt>
      <trkpt lat="36.115307" lon="-5.826175">
        <ele>13.24</ele>
        <time>2015-06-19T12:13:16Z</time>
      </trkpt>
      <trkpt lat="36.115230" lon="-5.826115">
        <ele>13.29</ele>
        <time>2015-06-19T12:13:23Z</time>
      </trkpt>
      <trkpt lat="36.115205" lon="-5.826097">
        <ele>13.87</ele>
        <time>2015-06-19T12:13:25Z</time>
      </trkpt>
      <trkpt lat="36.115188" lon="-5.826084">
        <ele>14.21</ele>
        <time>2015-06-19T12:13:26Z</time>
      </trkpt>
      <trkpt lat="36.115172" lon="-5.826074">
        <ele>14.63</ele>
        <time>2015-06-19T12:13:27Z</time>
      </trkpt>
      <trkpt lat="36.115153" lon="-5.826068">
        <ele>15.01</ele>
        <time>2015-06-19T12:13:28Z</time>
      </trkpt>
      <trkpt lat="36.115139" lon="-5.826059">
        <ele>15.41</ele>
        <time>2015-06-19T12:13:29Z</time>
      </trkpt>
      <trkpt lat="36.115126" lon="-5.826051">
        <ele>15.48</ele>
        <time>2015-06-19T12:13:30Z</time>
      </trkpt>
      <trkpt lat="36.115044" lon="-5.826018">
        <ele>15.50</ele>
        <time>2015-06-19T12:13:36Z</time>
      </trkpt>
      <trkpt lat="36.114957" lon="-5.825964">
        <ele>15.43</ele>
        <time>2015-06-19T12:13:42Z</time>
      </trkpt>
      <trkpt lat="36.114856" lon="-5.825924">
        <ele>15.47</ele>
        <time>2015-06-19T12:13:49Z</time>
      </trkpt>
      <trkpt lat="36.114761" lon="-5.825901">
        <ele>15.49</ele>
        <time>2015-06-19T12:13:55Z</time>
      </trkpt>
      <trkpt lat="36.114650" lon="-5.825888">
        <ele>15.48</ele>
        <time>2015-06-19T12:14:02Z</time>
      </trkpt>
      <trkpt lat="36.114540" lon="-5.825870">
        <ele>15.41</ele>
        <time>2015-06-19T12:14:08Z</time>
      </trkpt>
      <trkpt lat="36.114449" lon="-5.825896">
        <ele>15.07</ele>
        <time>2015-06-19T12:14:14Z</time>
      </trkpt>
      <trkpt lat="36.114434" lon="-5.825897">
        <ele>14.62</ele>
        <time>2015-06-19T12:14:15Z</time>
      </trkpt>
      <trkpt lat="36.114421" lon="-5.825891">
        <ele>14.29</ele>
        <time>2015-06-19T12:14:16Z</time>
      </trkpt>
      <trkpt lat="36.114406" lon="-5.825896">
        <ele>13.62</ele>
        <time>2015-06-19T12:14:17Z</time>
      </trkpt>
      <trkpt lat="36.114393" lon="-5.825904">
        <ele>13.21</ele>
        <time>2015-06-19T12:14:18Z</time>
      </trkpt>
      <trkpt lat="36.114361" lon="-5.825915">
        <ele>13.21</ele>
        <time>2015-06-19T12:14:21Z</time>
      </trkpt>
      <trkpt lat="36.114257" lon="-5.825910">
        <ele>13.22</ele>
        <time>2015-06-19T12:14:29Z</time>
      </trkpt>
      <trkpt lat="36.114217" lon="-5.825914">
        <ele>13.21</ele>
        <time>2015-06-19T12:14:32Z</time>
      </trkpt>
      <trkpt lat="36.114143" lon="-5.825916">
        <ele>13.28</ele>
        <time>2015-06-19T12:14:37Z</time>
      </trkpt>
      <trkpt lat="36.114045" lon="-5.825948">
        <ele>13.30</ele>
        <time>2015-06-19T12:14:44Z</time>
      </trkpt>
      <trkpt lat="36.114029" lon="-5.825952">
        <ele>13.22</ele>
        <time>2015-06-19T12:14:45Z</time>
      </trkpt>
      <trkpt lat="36.113966" lon="-5.825949">
        <ele>13.28</ele>
        <time>2015-06-19T12:14:49Z</time>
      </trkpt>
      <trkpt lat="36.113863" lon="-5.825947">
        <ele>13.27</ele>
        <time>2015-06-19T12:14:56Z</time>
      </trkpt>
      <trkpt lat="36.113752" lon="-5.825949">
        <ele>13.27</ele>
        <time>2015-06-19T12:15:03Z</time>
      </trkpt>
      <trkpt lat="36.113738" lon="-5.825938">
        <ele>13.21</ele>
        <time>2015-06-19T12:15:04Z</time>
      </trkpt>
      <trkpt lat="36.113690" lon="-5.825944">
        <ele>13.21</ele>
        <time>2015-06-19T12:15:07Z</time>
      </trkpt>
      <trkpt lat="36.113672" lon="-5.825945">
        <ele>13.21</ele>
        <time>2015-06-19T12:15:08Z</time>
      </trkpt>
      <trkpt lat="36.113606" lon="-5.825922">
        <ele>13.29</ele>
        <time>2015-06-19T12:15:13Z</time>
      </trkpt>
      <trkpt lat="36.113587" lon="-5.825896">
        <ele>13.22</ele>
        <time>2015-06-19T12:15:15Z</time>
      </trkpt>
      <trkpt lat="36.113586" lon="-5.825845">
        <ele>13.24</ele>
        <time>2015-06-19T12:15:18Z</time>
      </trkpt>
      <trkpt lat="36.113575" lon="-5.825791">
        <ele>13.30</ele>
        <time>2015-06-19T12:15:21Z</time>
      </trkpt>
      <trkpt lat="36.113559" lon="-5.825760">
        <ele>13.21</ele>
        <time>2015-06-19T12:15:23Z</time>
      </trkpt>
      <trkpt lat="36.113537" lon="-5.825725">
        <ele>13.29</ele>
        <time>2015-06-19T12:15:24Z</time>
      </trkpt>
      <trkpt lat="36.113434" lon="-5.825649">
        <ele>13.27</ele>
        <time>2015-06-19T12:15:33Z</time>
      </trkpt>
      <trkpt lat="36.113414" lon="-5.825643">
        <ele>13.26</ele>
        <time>2015-06-19T12:15:35Z</time>
      </trkpt>
      <trkpt lat="36.113365" lon="-5.825609">
        <ele>13.29</ele>
        <time>2015-06-19T12:15:39Z</time>
      </trkpt>
      <trkpt lat="36.113270" lon="-5.825533">
        <ele>13.29</ele>
        <time>2015-06-19T12:15:47Z</time>
      </trkpt>
      <trkpt lat="36.113140" lon="-5.825450">
        <ele>13.22</ele>
        <time>2015-06-19T12:15:56Z</time>
      </trkpt>
      <trkpt lat="36.113050" lon="-5.825391">
        <ele>13.21</ele>
        <time>2015-06-19T12:16:03Z</time>
      </trkpt>
      <trkpt lat="36.113037" lon="-5.825377">
        <ele>13.29</ele>
        <time>2015-06-19T12:16:04Z</time>
      </trkpt>
      <trkpt lat="36.112947" lon="-5.825303">
        <ele>13.23</ele>
        <time>2015-06-19T12:16:11Z</time>
      </trkpt>
      <trkpt lat="36.112891" lon="-5.825265">
        <ele>13.23</ele>
        <time>2015-06-19T12:16:15Z</time>
      </trkpt>
      <trkpt lat="36.112866" lon="-5.825250">
        <ele>13.23</ele>
        <time>2015-06-19T12:16:17Z</time>
      </trkpt>
      <trkpt lat="36.112785" lon="-5.825202">
        <ele>13.26</ele>
        <time>2015-06-19T12:16:23Z</time>
      </trkpt>
      <trkpt lat="36.112770" lon="-5.825200">
        <ele>13.27</ele>
        <time>2015-06-19T12:16:24Z</time>
      </trkpt>
      <trkpt lat="36.112722" lon="-5.825191">
        <ele>13.22</ele>
        <time>2015-06-19T12:16:28Z</time>
      </trkpt>
      <trkpt lat="36.112707" lon="-5.825195">
        <ele>13.27</ele>
        <time>2015-06-19T12:16:29Z</time>
      </trkpt>
      <trkpt lat="36.112693" lon="-5.825192">
        <ele>13.24</ele>
        <time>2015-06-19T12:16:30Z</time>
      </trkpt>
      <trkpt lat="36.112649" lon="-5.825179">
        <ele>13.25</ele>
        <time>2015-06-19T12:16:33Z</time>
      </trkpt>
      <trkpt lat="36.112602" lon="-5.825154">
        <ele>13.21</ele>
        <time>2015-06-19T12:16:37Z</time>
      </trkpt>
      <trkpt lat="36.112579" lon="-5.825131">
        <ele>13.21</ele>
        <time>2015-06-19T12:16:39Z</time>
      </trkpt>
      <trkpt lat="36.112518" lon="-5.825102">
        <ele>13.26</ele>
        <time>2015-06-19T12:16:43Z</time>
      </trkpt>
      <trkpt lat="36.112452" lon="-5.825066">
        <ele>13.21</ele>
        <time>2015-06-19T12:16:48Z</time>
      </trkpt>
      <trkpt lat="36.112429" lon="-5.825075">
        <ele>13.27</ele>
        <time>2015-06-19T12:16:50Z</time>
      </trkpt>
      <trkpt lat="36.112413" lon="-5.825082">
        <ele>13.23</ele>
        <time>2015-06-19T12:16:52Z</time>
      </trkpt>
      <trkpt lat="36.112414" lon="-5.825081">
        <ele>13.23</ele>
        <time>2015-06-19T12:16:55Z</time>
      </trkpt>
      <trkpt lat="36.112414" lon="-5.825082">
        <ele>13.22</ele>
        <time>2015-06-19T12:16:58Z</time>
      </trkpt>
      <trkpt lat="36.112414" lon="-5.825082">
        <ele>13.28</ele>
        <time>2015-06-19T12:17:00Z</time>
      </trkpt>
      <trkpt lat="36.112421" lon="-5.825081">
        <ele>13.28</ele>
        <time>2015-06-19T12:17:02Z</time>
      </trkpt>
      <trkpt lat="36.112435" lon="-5.825075">
        <ele>13.26</ele>
        <time>2015-06-19T12:17:08Z</time>
      </trkpt>
      <trkpt lat="36.112435" lon="-5.825075">
        <ele>13.25</ele>
        <time>2015-06-19T12:17:11Z</time>
      </trkpt>
      <trkpt lat="36.112435" lon="-5.825075">
        <ele>13.22</ele>
        <time>2015-06-19T12:17:23Z</time>
      </trkpt>
      <trkpt lat="36.112435" lon="-5.825075">
        <ele>13.21</ele>
        <time>2015-06-19T12:17:26Z</time>
      </trkpt>
      <trkpt lat="36.112435" lon="-5.825075">
        <ele>13.27</ele>
        <time>2015-06-19T12:17:29Z</time>
      </trkpt>
      <trkpt lat="36.112435" lon="-5.825075">
        <ele>13.28</ele>
        <time>2015-06-19T12:17:32Z</time>
      </trkpt>
      <trkpt lat="36.112435" lon="-5.825075">
        <ele>13.22</ele>
        <time>2015-06-19T12:17:34Z</time>
      </trkpt>
      <trkpt lat="36.112435" lon="-5.825075">
        <ele>13.23</ele>
        <time>2015-06-19T12:17:43Z</time>
      </trkpt>
      <trkpt lat="36.112435" lon="-5.825075">
        <ele>13.28</ele>
        <time>2015-06-19T12:17:45Z</time>
      </trkpt>
      <trkpt lat="36.112437" lon="-5.825075">
        <ele>13.21</ele>
        <time>2015-06-19T12:17:54Z</time>
      </trkpt>
      <trkpt lat="36.112437" lon="-5.825075">
        <ele>13.27</ele>
        <time>2015-06-19T12:17:57Z</time>
      </trkpt>
      <trkpt lat="36.112437" lon="-5.825075">
        <ele>13.30</ele>
        <time>2015-06-19T12:18:00Z</time>
      </trkpt>
      <trkpt lat="36.112437" lon="-5.825075">
        <ele>13.30</ele>
        <time>2015-06-19T12:18:07Z</time>
      </trkpt>
      <trkpt lat="36.112437" lon="-5.825075">
        <ele>13.22</ele>
        <time>2015-06-19T12:18:15Z</time>
      </trkpt>
      <trkpt lat="36.112437" lon="-5.825075">
        <ele>13.23</ele>
        <time>2015-06-19T12:18:18Z</time>
      </trkpt>
      <trkpt lat="36.112437" lon="-5.825075">
        <ele>13.21</ele>
        <time>2015-06-19T12:18:26Z</time>
      </trkpt>
      <trkpt lat="36.112439" lon="-5.825076">
        <ele>13.26</ele>
        <time>2015-06-19T12:18:34Z</time>
      </trkpt>
      <trkpt lat="36.112439" lon="-5.825076">
        <ele>13.24</ele>
        <time>2015-06-19T12:18:39Z</time>
      </trkpt>
      <trkpt lat="36.112439" lon="-5.825076">
        <ele>13.22</ele>
        <time>2015-06-19T12:18:40Z</time>
      </trkpt>
      <trkpt lat="36.112439" lon="-5.825076">
        <ele>13.24</ele>
        <time>2015-06-19T12:18:44Z</time>
      </trkpt>
      <trkpt lat="36.112439" lon="-5.825076">
        <ele>13.24</ele>
        <time>2015-06-19T12:18:48Z</time>
      </trkpt>
      <trkpt lat="36.112439" lon="-5.825076">
        <ele>13.23</ele>
        <time>2015-06-19T12:18:52Z</time>
      </trkpt>
      <trkpt lat="36.112439" lon="-5.825076">
        <ele>13.23</ele>
        <time>2015-06-19T12:18:55Z</time>
      </trkpt>
      <trkpt lat="36.112439" lon="-5.825076">
        <ele>13.21</ele>
        <time>2015-06-19T12:18:59Z</time>
      </trkpt>
      <trkpt lat="36.112439" lon="-5.825076">
        <ele>13.23</ele>
        <time>2015-06-19T12:19:02Z</time>
      </trkpt>
      <trkpt lat="36.112438" lon="-5.825077">
        <ele>13.29</ele>
        <time>2015-06-19T12:19:09Z</time>
      </trkpt>
      <trkpt lat="36.112438" lon="-5.825077">
        <ele>13.22</ele>
        <time>2015-06-19T12:19:15Z</time>
      </trkpt>
      <trkpt lat="36.112438" lon="-5.825077">
        <ele>13.21</ele>
        <time>2015-06-19T12:19:22Z</time>
      </trkpt>
      <trkpt lat="36.112438" lon="-5.825077">
        <ele>13.27</ele>
        <time>2015-06-19T12:19:31Z</time>
      </trkpt>
      <trkpt lat="36.112438" lon="-5.825077">
        <ele>13.30</ele>
        <time>2015-06-19T12:19:33Z</time>
      </trkpt>
      <trkpt lat="36.112438" lon="-5.825077">
        <ele>13.25</ele>
        <time>2015-06-19T12:19:44Z</time>
      </trkpt>
      <trkpt lat="36.112440" lon="-5.825081">
        <ele>13.21</ele>
        <time>2015-06-19T12:19:55Z</time>
      </trkpt>
      <trkpt lat="36.112440" lon="-5.825081">
        <ele>13.26</ele>
        <time>2015-06-19T12:20:05Z</time>
      </trkpt>
      <trkpt lat="36.112440" lon="-5.825081">
        <ele>13.26</ele>
        <time>2015-06-19T12:20:07Z</time>
      </trkpt>
      <trkpt lat="36.112440" lon="-5.825081">
        <ele>13.21</ele>
        <time>2015-06-19T12:20:11Z</time>
      </trkpt>
      <trkpt lat="36.112440" lon="-5.825081">
        <ele>13.30</ele>
        <time>2015-06-19T12:20:16Z</time>
      </trkpt>
      <trkpt lat="36.112440" lon="-5.825081">
        <ele>13.21</ele>
        <time>2015-06-19T12:20:17Z</time>
      </trkpt>
      <trkpt lat="36.112440" lon="-5.825081">
        <ele>13.23</ele>
        <time>2015-06-19T12:20:19Z</time>
      </trkpt>
      <trkpt lat="36.112440" lon="-5.825081">
        <ele>13.21</ele>
        <time>2015-06-19T12:20:25Z</time>
      </trkpt>
      <trkpt lat="36.112426" lon="-5.825080">
        <ele>13.21</ele>
        <time>2015-06-19T12:20:28Z</time>
      </trkpt>
      <trkpt lat="36.112423" lon="-5.825081">
        <ele>13.26</ele>
        <time>2015-06-19T12:20:33Z</time>
      </trkpt>
      <trkpt lat="36.112423" lon="-5.825081">
        <ele>13.26</ele>
        <time>2015-06-19T12:20:42Z</time>
      </trkpt>
      <trkpt lat="36.112426" lon="-5.825081">
        <ele>13.28</ele>
        <time>2015-06-19T12:20:54Z</time>
      </trkpt>
      <trkpt lat="36.112426" lon="-5.825081">
        <ele>13.27</ele>
        <time>2015-06-19T12:21:01Z</time>
      </trkpt>
      <trkpt lat="36.112426" lon="-5.825081">
        <ele>13.30</ele>
        <time>2015-06-19T12:21:05Z</time>
      </trkpt>
      <trkpt lat="36.112426" lon="-5.825081">
        <ele>13.22</ele>
        <time>2015-06-19T12:21:07Z</time>
      </trkpt>
      <trkpt lat="36.112426" lon="-5.825081">
        <ele>13.25</ele>
        <time>2015-06-19T12:21:09Z</time>
      </trkpt>
      <trkpt lat="36.112426" lon="-5.825081">
        <ele>12.87</ele>
        <time>2015-06-19T12:21:14Z</time>
      </trkpt>
      <trkpt lat="36.112426" lon="-5.825081">
        <ele>12.45</ele>
        <time>2015-06-19T12:21:15Z</time>
      </trkpt>
      <trkpt lat="36.112426" lon="-5.825081">
        <ele>12.05</ele>
        <time>2015-06-19T12:21:16Z</time>
      </trkpt>
      <trkpt lat="36.112426" lon="-5.825081">
        <ele>11.61</ele>
        <time>2015-06-19T12:21:17Z</time>
      </trkpt>
      <trkpt lat="36.112426" lon="-5.825081">
        <ele>11.21</ele>
        <time>2015-06-19T12:21:18Z</time>
      </trkpt>
      <trkpt lat="36.112426" lon="-5.825081">
        <ele>11.28</ele>
        <time>2015-06-19T12:21:26Z</time>
      </trkpt>
      <trkpt lat="36.112426" lon="-5.825081">
        <ele>11.29</ele>
        <time>2015-06-19T12:21:28Z</time>
      </trkpt>
      <trkpt lat="36.112428" lon="-5.825080">
        <ele>11.27</ele>
        <time>2015-06-19T12:21:34Z</time>
      </trkpt>
      <trkpt lat="36.112428" lon="-5.825080">
        <ele>11.28</ele>
        <time>2015-06-19T12:21:49Z</time>
      </trkpt>
      <trkpt lat="36.112430" lon="-5.825080">
        <ele>11.22</ele>
        <time>2015-06-19T12:22:03Z</time>
      </trkpt>
      <trkpt lat="36.112430" lon="-5.825080">
        <ele>11.24</ele>
        <time>2015-06-19T12:22:10Z</time>
      </trkpt>
      <trkpt lat="36.112430" lon="-5.825080">
        <ele>11.23</ele>
        <time>2015-06-19T12:22:15Z</time>
      </trkpt>
      <trkpt lat="36.112430" lon="-5.825080">
        <ele>11.23</ele>
        <time>2015-06-19T12:22:25Z</time>
      </trkpt>
      <trkpt lat="36.112430" lon="-5.825080">
        <ele>11.28</ele>
        <time>2015-06-19T12:22:27Z</time>
      </trkpt>
      <trkpt lat="36.112430" lon="-5.825080">
        <ele>11.23</ele>
        <time>2015-06-19T12:22:29Z</time>
      </trkpt>
      <trkpt lat="36.112430" lon="-5.825080">
        <ele>11.22</ele>
        <time>2015-06-19T12:22:32Z</time>
      </trkpt>
      <trkpt lat="36.112430" lon="-5.825079">
        <ele>11.21</ele>
        <time>2015-06-19T12:22:43Z</time>
      </trkpt>
      <trkpt lat="36.112430" lon="-5.825079">
        <ele>11.30</ele>
        <time>2015-06-19T12:22:46Z</time>
      </trkpt>
      <trkpt lat="36.112430" lon="-5.825079">
        <ele>11.25</ele>
        <time>2015-06-19T12:22:47Z</time>
      </trkpt>
      <trkpt lat="36.108768" lon="-5.822034">
        <ele>22.06</ele>
        <time>2015-06-19T13:19:13Z</time>
      </trkpt>
      <trkpt lat="36.108769" lon="-5.822035">
        <ele>22.05</ele>
        <time>2015-06-19T13:19:14Z</time>
      </trkpt>
      <trkpt lat="36.108769" lon="-5.822034">
        <ele>24.07</ele>
        <time>2015-06-19T13:19:15Z</time>
      </trkpt>
      <trkpt lat="36.108751" lon="-5.822039">
        <ele>24.07</ele>
        <time>2015-06-19T13:19:19Z</time>
      </trkpt>
      <trkpt lat="36.108736" lon="-5.822032">
        <ele>24.08</ele>
        <time>2015-06-19T13:19:20Z</time>
      </trkpt>
      <trkpt lat="36.108718" lon="-5.822032">
        <ele>23.65</ele>
        <time>2015-06-19T13:19:21Z</time>
      </trkpt>
      <trkpt lat="36.108705" lon="-5.822042">
        <ele>22.64</ele>
        <time>2015-06-19T13:19:22Z</time>
      </trkpt>
      <trkpt lat="36.108692" lon="-5.822049">
        <ele>22.22</ele>
        <time>2015-06-19T13:19:23Z</time>
      </trkpt>
      <trkpt lat="36.108678" lon="-5.822039">
        <ele>21.81</ele>
        <time>2015-06-19T13:19:24Z</time>
      </trkpt>
      <trkpt lat="36.108666" lon="-5.822018">
        <ele>21.81</ele>
        <time>2015-06-19T13:19:25Z</time>
      </trkpt>
      <trkpt lat="36.108628" lon="-5.821989">
        <ele>21.84</ele>
        <time>2015-06-19T13:19:28Z</time>
      </trkpt>
      <trkpt lat="36.108614" lon="-5.821996">
        <ele>21.89</ele>
        <time>2015-06-19T13:19:29Z</time>
      </trkpt>
      <trkpt lat="36.108600" lon="-5.822004">
        <ele>21.89</ele>
        <time>2015-06-19T13:19:30Z</time>
      </trkpt>
      <trkpt lat="36.108554" lon="-5.822016">
        <ele>21.85</ele>
        <time>2015-06-19T13:19:33Z</time>
      </trkpt>
      <trkpt lat="36.108512" lon="-5.822021">
        <ele>21.85</ele>
        <time>2015-06-19T13:19:36Z</time>
      </trkpt>
      <trkpt lat="36.108480" lon="-5.822022">
        <ele>21.89</ele>
        <time>2015-06-19T13:19:38Z</time>
      </trkpt>
      <trkpt lat="36.108466" lon="-5.822022">
        <ele>22.29</ele>
        <time>2015-06-19T13:19:39Z</time>
      </trkpt>
      <trkpt lat="36.108451" lon="-5.822022">
        <ele>22.70</ele>
        <time>2015-06-19T13:19:40Z</time>
      </trkpt>
      <trkpt lat="36.108440" lon="-5.822025">
        <ele>23.07</ele>
        <time>2015-06-19T13:19:41Z</time>
      </trkpt>
      <trkpt lat="36.108429" lon="-5.822030">
        <ele>23.41</ele>
        <time>2015-06-19T13:19:42Z</time>
      </trkpt>
      <trkpt lat="36.108420" lon="-5.822031">
        <ele>23.81</ele>
        <time>2015-06-19T13:19:43Z</time>
      </trkpt>
      <trkpt lat="36.108406" lon="-5.822032">
        <ele>23.81</ele>
        <time>2015-06-19T13:19:44Z</time>
      </trkpt>
      <trkpt lat="36.108383" lon="-5.822039">
        <ele>23.86</ele>
        <time>2015-06-19T13:19:46Z</time>
      </trkpt>
      <trkpt lat="36.108372" lon="-5.822044">
        <ele>24.41</ele>
        <time>2015-06-19T13:19:47Z</time>
      </trkpt>
      <trkpt lat="36.108359" lon="-5.822045">
        <ele>25.42</ele>
        <time>2015-06-19T13:19:48Z</time>
      </trkpt>
      <trkpt lat="36.108346" lon="-5.822044">
        <ele>25.85</ele>
        <time>2015-06-19T13:19:49Z</time>
      </trkpt>
      <trkpt lat="36.108334" lon="-5.822045">
        <ele>26.46</ele>
        <time>2015-06-19T13:19:50Z</time>
      </trkpt>
      <trkpt lat="36.108325" lon="-5.822051">
        <ele>26.49</ele>
        <time>2015-06-19T13:19:51Z</time>
      </trkpt>
      <trkpt lat="36.108287" lon="-5.822055">
        <ele>26.48</ele>
        <time>2015-06-19T13:19:54Z</time>
      </trkpt>
      <trkpt lat="36.108258" lon="-5.822058">
        <ele>26.42</ele>
        <time>2015-06-19T13:19:56Z</time>
      </trkpt>
      <trkpt lat="36.108212" lon="-5.822069">
        <ele>26.48</ele>
        <time>2015-06-19T13:19:59Z</time>
      </trkpt>
      <trkpt lat="36.108126" lon="-5.822091">
        <ele>26.41</ele>
        <time>2015-06-19T13:20:04Z</time>
      </trkpt>
      <trkpt lat="36.108027" lon="-5.822119">
        <ele>26.82</ele>
        <time>2015-06-19T13:20:10Z</time>
      </trkpt>
      <trkpt lat="36.108012" lon="-5.822124">
        <ele>27.21</ele>
        <time>2015-06-19T13:20:11Z</time>
      </trkpt>
      <trkpt lat="36.107996" lon="-5.822131">
        <ele>27.70</ele>
        <time>2015-06-19T13:20:12Z</time>
      </trkpt>
      <trkpt lat="36.107978" lon="-5.822138">
        <ele>28.03</ele>
        <time>2015-06-19T13:20:13Z</time>
      </trkpt>
      <trkpt lat="36.107957" lon="-5.822143">
        <ele>28.49</ele>
        <time>2015-06-19T13:20:14Z</time>
      </trkpt>
      <trkpt lat="36.107849" lon="-5.822189">
        <ele>28.49</ele>
        <time>2015-06-19T13:20:19Z</time>
      </trkpt>
      <trkpt lat="36.107675" lon="-5.822271">
        <ele>28.47</ele>
        <time>2015-06-19T13:20:26Z</time>
      </trkpt>
      <trkpt lat="36.107566" lon="-5.822350">
        <ele>28.44</ele>
        <time>2015-06-19T13:20:30Z</time>
      </trkpt>
      <trkpt lat="36.107477" lon="-5.822425">
        <ele>28.50</ele>
        <time>2015-06-19T13:20:33Z</time>
      </trkpt>
      <trkpt lat="36.107346" lon="-5.822557">
        <ele>28.42</ele>
        <time>2015-06-19T13:20:37Z</time>
      </trkpt>
      <trkpt lat="36.107275" lon="-5.822628">
        <ele>28.49</ele>
        <time>2015-06-19T13:20:39Z</time>
      </trkpt>
      <trkpt lat="36.107178" lon="-5.822738">
        <ele>28.47</ele>
        <time>2015-06-19T13:20:42Z</time>
      </trkpt>
      <trkpt lat="36.107113" lon="-5.822804">
        <ele>28.42</ele>
        <time>2015-06-19T13:20:44Z</time>
      </trkpt>
      <trkpt lat="36.107081" lon="-5.822833">
        <ele>28.41</ele>
        <time>2015-06-19T13:20:45Z</time>
      </trkpt>
      <trkpt lat="36.107023" lon="-5.822890">
        <ele>27.86</ele>
        <time>2015-06-19T13:20:47Z</time>
      </trkpt>
      <trkpt lat="36.106994" lon="-5.822925">
        <ele>27.44</ele>
        <time>2015-06-19T13:20:48Z</time>
      </trkpt>
      <trkpt lat="36.106969" lon="-5.822958">
        <ele>26.86</ele>
        <time>2015-06-19T13:20:49Z</time>
      </trkpt>
      <trkpt lat="36.106940" lon="-5.822986">
        <ele>26.29</ele>
        <time>2015-06-19T13:20:50Z</time>
      </trkpt>
      <trkpt lat="36.106915" lon="-5.823012">
        <ele>25.85</ele>
        <time>2015-06-19T13:20:51Z</time>
      </trkpt>
      <trkpt lat="36.106889" lon="-5.823036">
        <ele>25.86</ele>
        <time>2015-06-19T13:20:52Z</time>
      </trkpt>
      <trkpt lat="36.106740" lon="-5.823190">
        <ele>25.82</ele>
        <time>2015-06-19T13:20:58Z</time>
      </trkpt>
      <trkpt lat="36.106664" lon="-5.823281">
        <ele>25.83</ele>
        <time>2015-06-19T13:21:01Z</time>
      </trkpt>
      <trkpt lat="36.106430" lon="-5.823551">
        <ele>25.83</ele>
        <time>2015-06-19T13:21:09Z</time>
      </trkpt>
      <trkpt lat="36.106244" lon="-5.823808">
        <ele>25.86</ele>
        <time>2015-06-19T13:21:15Z</time>
      </trkpt>
      <trkpt lat="36.106179" lon="-5.823903">
        <ele>25.81</ele>
        <time>2015-06-19T13:21:17Z</time>
      </trkpt>
      <trkpt lat="36.106072" lon="-5.824052">
        <ele>25.81</ele>
        <time>2015-06-19T13:21:20Z</time>
      </trkpt>
      <trkpt lat="36.105985" lon="-5.824143">
        <ele>25.83</ele>
        <time>2015-06-19T13:21:22Z</time>
      </trkpt>
      <trkpt lat="36.105811" lon="-5.824220">
        <ele>25.27</ele>
        <time>2015-06-19T13:21:25Z</time>
      </trkpt>
      <trkpt lat="36.105743" lon="-5.824232">
        <ele>24.88</ele>
        <time>2015-06-19T13:21:26Z</time>
      </trkpt>
      <trkpt lat="36.105674" lon="-5.824240">
        <ele>24.46</ele>
        <time>2015-06-19T13:21:27Z</time>
      </trkpt>
      <trkpt lat="36.105604" lon="-5.824245">
        <ele>23.82</ele>
        <time>2015-06-19T13:21:28Z</time>
      </trkpt>
      <trkpt lat="36.105534" lon="-5.824240">
        <ele>23.42</ele>
        <time>2015-06-19T13:21:29Z</time>
      </trkpt>
      <trkpt lat="36.105397" lon="-5.824211">
        <ele>23.41</ele>
        <time>2015-06-19T13:21:31Z</time>
      </trkpt>
      <trkpt lat="36.105191" lon="-5.824160">
        <ele>23.02</ele>
        <time>2015-06-19T13:21:34Z</time>
      </trkpt>
      <trkpt lat="36.105124" lon="-5.824143">
        <ele>22.65</ele>
        <time>2015-06-19T13:21:35Z</time>
      </trkpt>
      <trkpt lat="36.105058" lon="-5.824129">
        <ele>22.29</ele>
        <time>2015-06-19T13:21:36Z</time>
      </trkpt>
      <trkpt lat="36.104992" lon="-5.824112">
        <ele>21.82</ele>
        <time>2015-06-19T13:21:37Z</time>
      </trkpt>
      <trkpt lat="36.104931" lon="-5.824100">
        <ele>21.41</ele>
        <time>2015-06-19T13:21:38Z</time>
      </trkpt>
      <trkpt lat="36.104867" lon="-5.824094">
        <ele>21.41</ele>
        <time>2015-06-19T13:21:39Z</time>
      </trkpt>
      <trkpt lat="36.104757" lon="-5.824086">
        <ele>21.42</ele>
        <time>2015-06-19T13:21:41Z</time>
      </trkpt>
      <trkpt lat="36.104661" lon="-5.824078">
        <ele>21.47</ele>
        <time>2015-06-19T13:21:43Z</time>
      </trkpt>
      <trkpt lat="36.104537" lon="-5.824081">
        <ele>21.83</ele>
        <time>2015-06-19T13:21:46Z</time>
      </trkpt>
      <trkpt lat="36.104496" lon="-5.824083">
        <ele>22.26</ele>
        <time>2015-06-19T13:21:47Z</time>
      </trkpt>
      <trkpt lat="36.104460" lon="-5.824080">
        <ele>22.69</ele>
        <time>2015-06-19T13:21:48Z</time>
      </trkpt>
      <trkpt lat="36.104424" lon="-5.824077">
        <ele>23.01</ele>
        <time>2015-06-19T13:21:49Z</time>
      </trkpt>
      <trkpt lat="36.104389" lon="-5.824077">
        <ele>23.62</ele>
        <time>2015-06-19T13:21:50Z</time>
      </trkpt>
      <trkpt lat="36.104294" lon="-5.824078">
        <ele>23.67</ele>
        <time>2015-06-19T13:21:52Z</time>
      </trkpt>
      <trkpt lat="36.104207" lon="-5.824083">
        <ele>23.66</ele>
        <time>2015-06-19T13:21:56Z</time>
      </trkpt>
      <trkpt lat="36.104156" lon="-5.824084">
        <ele>23.62</ele>
        <time>2015-06-19T13:21:58Z</time>
      </trkpt>
      <trkpt lat="36.104079" lon="-5.824060">
        <ele>23.61</ele>
        <time>2015-06-19T13:22:01Z</time>
      </trkpt>
      <trkpt lat="36.104002" lon="-5.824023">
        <ele>23.70</ele>
        <time>2015-06-19T13:22:04Z</time>
      </trkpt>
      <trkpt lat="36.103976" lon="-5.824013">
        <ele>24.01</ele>
        <time>2015-06-19T13:22:05Z</time>
      </trkpt>
      <trkpt lat="36.103948" lon="-5.824005">
        <ele>24.48</ele>
        <time>2015-06-19T13:22:06Z</time>
      </trkpt>
      <trkpt lat="36.103919" lon="-5.823999">
        <ele>24.84</ele>
        <time>2015-06-19T13:22:07Z</time>
      </trkpt>
      <trkpt lat="36.103890" lon="-5.823993">
        <ele>25.47</ele>
        <time>2015-06-19T13:22:08Z</time>
      </trkpt>
      <trkpt lat="36.103861" lon="-5.823983">
        <ele>25.82</ele>
        <time>2015-06-19T13:22:09Z</time>
      </trkpt>
      <trkpt lat="36.103778" lon="-5.823960">
        <ele>25.88</ele>
        <time>2015-06-19T13:22:12Z</time>
      </trkpt>
      <trkpt lat="36.103638" lon="-5.823924">
        <ele>25.88</ele>
        <time>2015-06-19T13:22:17Z</time>
      </trkpt>
      <trkpt lat="36.103611" lon="-5.823919">
        <ele>25.88</ele>
        <time>2015-06-19T13:22:18Z</time>
      </trkpt>
      <trkpt lat="36.103523" lon="-5.823916">
        <ele>25.83</ele>
        <time>2015-06-19T13:22:21Z</time>
      </trkpt>
      <trkpt lat="36.103494" lon="-5.823913">
        <ele>26.23</ele>
        <time>2015-06-19T13:22:22Z</time>
      </trkpt>
      <trkpt lat="36.103465" lon="-5.823910">
        <ele>26.61</ele>
        <time>2015-06-19T13:22:23Z</time>
      </trkpt>
      <trkpt lat="36.103432" lon="-5.823906">
        <ele>27.10</ele>
        <time>2015-06-19T13:22:24Z</time>
      </trkpt>
      <trkpt lat="36.103400" lon="-5.823901">
        <ele>27.45</ele>
        <time>2015-06-19T13:22:25Z</time>
      </trkpt>
      <trkpt lat="36.103367" lon="-5.823899">
        <ele>27.87</ele>
        <time>2015-06-19T13:22:26Z</time>
      </trkpt>
      <trkpt lat="36.103193" lon="-5.823917">
        <ele>27.87</ele>
        <time>2015-06-19T13:22:31Z</time>
      </trkpt>
      <trkpt lat="36.103038" lon="-5.823842">
        <ele>27.83</ele>
        <time>2015-06-19T13:22:36Z</time>
      </trkpt>
      <trkpt lat="36.102985" lon="-5.823682">
        <ele>27.81</ele>
        <time>2015-06-19T13:22:40Z</time>
      </trkpt>
      <trkpt lat="36.102975" lon="-5.823594">
        <ele>28.30</ele>
        <time>2015-06-19T13:22:42Z</time>
      </trkpt>
      <trkpt lat="36.102974" lon="-5.823550">
        <ele>28.63</ele>
        <time>2015-06-19T13:22:43Z</time>
      </trkpt>
      <trkpt lat="36.102976" lon="-5.823505">
        <ele>29.06</ele>
        <time>2015-06-19T13:22:44Z</time>
      </trkpt>
      <trkpt lat="36.102979" lon="-5.823460">
        <ele>30.00</ele>
        <time>2015-06-19T13:22:45Z</time>
      </trkpt>
      <trkpt lat="36.102987" lon="-5.823364">
        <ele>30.02</ele>
        <time>2015-06-19T13:22:47Z</time>
      </trkpt>
      <trkpt lat="36.102996" lon="-5.822955">
        <ele>30.01</ele>
        <time>2015-06-19T13:22:55Z</time>
      </trkpt>
      <trkpt lat="36.103025" lon="-5.822703">
        <ele>30.10</ele>
        <time>2015-06-19T13:23:00Z</time>
      </trkpt>
      <trkpt lat="36.103031" lon="-5.822654">
        <ele>30.02</ele>
        <time>2015-06-19T13:23:02Z</time>
      </trkpt>
      <trkpt lat="36.103022" lon="-5.822639">
        <ele>30.04</ele>
        <time>2015-06-19T13:23:07Z</time>
      </trkpt>
      <trkpt lat="36.103019" lon="-5.822638">
        <ele>30.02</ele>
        <time>2015-06-19T13:23:09Z</time>
      </trkpt>
      <trkpt lat="36.103019" lon="-5.822638">
        <ele>30.03</ele>
        <time>2015-06-19T13:23:11Z</time>
      </trkpt>
      <trkpt lat="36.103019" lon="-5.822638">
        <ele>30.07</ele>
        <time>2015-06-19T13:23:13Z</time>
      </trkpt>
      <trkpt lat="36.103019" lon="-5.822638">
        <ele>29.47</ele>
        <time>2015-06-19T13:23:20Z</time>
      </trkpt>
      <trkpt lat="36.103019" lon="-5.822638">
        <ele>29.09</ele>
        <time>2015-06-19T13:23:21Z</time>
      </trkpt>
      <trkpt lat="36.103019" lon="-5.822638">
        <ele>28.70</ele>
        <time>2015-06-19T13:23:22Z</time>
      </trkpt>
      <trkpt lat="36.103019" lon="-5.822638">
        <ele>28.25</ele>
        <time>2015-06-19T13:23:23Z</time>
      </trkpt>
      <trkpt lat="36.103019" lon="-5.822638">
        <ele>27.82</ele>
        <time>2015-06-19T13:23:24Z</time>
      </trkpt>
      <trkpt lat="36.103020" lon="-5.822618">
        <ele>27.81</ele>
        <time>2015-06-19T13:23:27Z</time>
      </trkpt>
      <trkpt lat="36.103052" lon="-5.822532">
        <ele>27.82</ele>
        <time>2015-06-19T13:23:32Z</time>
      </trkpt>
      <trkpt lat="36.103055" lon="-5.822519">
        <ele>27.84</ele>
        <time>2015-06-19T13:23:33Z</time>
      </trkpt>
      <trkpt lat="36.103059" lon="-5.822471">
        <ele>27.81</ele>
        <time>2015-06-19T13:23:35Z</time>
      </trkpt>
      <trkpt lat="36.103062" lon="-5.822439">
        <ele>27.89</ele>
        <time>2015-06-19T13:23:36Z</time>
      </trkpt>
      <trkpt lat="36.103069" lon="-5.822321">
        <ele>27.87</ele>
        <time>2015-06-19T13:23:39Z</time>
      </trkpt>
      <trkpt lat="36.103070" lon="-5.822221">
        <ele>27.90</ele>
        <time>2015-06-19T13:23:41Z</time>
      </trkpt>
      <trkpt lat="36.103034" lon="-5.821958">
        <ele>27.85</ele>
        <time>2015-06-19T13:23:46Z</time>
      </trkpt>
      <trkpt lat="36.103015" lon="-5.821907">
        <ele>27.85</ele>
        <time>2015-06-19T13:23:47Z</time>
      </trkpt>
      <trkpt lat="36.102977" lon="-5.821802">
        <ele>27.89</ele>
        <time>2015-06-19T13:23:49Z</time>
      </trkpt>
      <trkpt lat="36.102941" lon="-5.821692">
        <ele>27.41</ele>
        <time>2015-06-19T13:23:51Z</time>
      </trkpt>
      <trkpt lat="36.102919" lon="-5.821637">
        <ele>27.03</ele>
        <time>2015-06-19T13:23:52Z</time>
      </trkpt>
      <trkpt lat="36.102900" lon="-5.821581">
        <ele>26.41</ele>
        <time>2015-06-19T13:23:53Z</time>
      </trkpt>
      <trkpt lat="36.102880" lon="-5.821523">
        <ele>26.07</ele>
        <time>2015-06-19T13:23:54Z</time>
      </trkpt>
      <trkpt lat="36.102859" lon="-5.821458">
        <ele>25.66</ele>
        <time>2015-06-19T13:23:55Z</time>
      </trkpt>
      <trkpt lat="36.102817" lon="-5.821323">
        <ele>25.65</ele>
        <time>2015-06-19T13:23:57Z</time>
      </trkpt>
      <trkpt lat="36.102771" lon="-5.821186">
        <ele>25.23</ele>
        <time>2015-06-19T13:23:59Z</time>
      </trkpt>
      <trkpt lat="36.102757" lon="-5.821113">
        <ele>24.87</ele>
        <time>2015-06-19T13:24:00Z</time>
      </trkpt>
      <trkpt lat="36.102745" lon="-5.821038">
        <ele>24.21</ele>
        <time>2015-06-19T13:24:01Z</time>
      </trkpt>
      <trkpt lat="36.102729" lon="-5.820959">
        <ele>23.84</ele>
        <time>2015-06-19T13:24:02Z</time>
      </trkpt>
      <trkpt lat="36.102717" lon="-5.820882">
        <ele>23.29</ele>
        <time>2015-06-19T13:24:03Z</time>
      </trkpt>
      <trkpt lat="36.102707" lon="-5.820805">
        <ele>22.86</ele>
        <time>2015-06-19T13:24:04Z</time>
      </trkpt>
      <trkpt lat="36.102695" lon="-5.820726">
        <ele>22.42</ele>
        <time>2015-06-19T13:24:05Z</time>
      </trkpt>
      <trkpt lat="36.102685" lon="-5.820644">
        <ele>21.81</ele>
        <time>2015-06-19T13:24:06Z</time>
      </trkpt>
      <trkpt lat="36.102675" lon="-5.820564">
        <ele>21.41</ele>
        <time>2015-06-19T13:24:07Z</time>
      </trkpt>
      <trkpt lat="36.102663" lon="-5.820486">
        <ele>21.06</ele>
        <time>2015-06-19T13:24:08Z</time>
      </trkpt>
      <trkpt lat="36.102628" lon="-5.820260">
        <ele>21.02</ele>
        <time>2015-06-19T13:24:11Z</time>
      </trkpt>
      <trkpt lat="36.102608" lon="-5.820131">
        <ele>20.69</ele>
        <time>2015-06-19T13:24:13Z</time>
      </trkpt>
      <trkpt lat="36.102603" lon="-5.820071">
        <ele>20.05</ele>
        <time>2015-06-19T13:24:14Z</time>
      </trkpt>
      <trkpt lat="36.102598" lon="-5.820017">
        <ele>19.67</ele>
        <time>2015-06-19T13:24:15Z</time>
      </trkpt>
      <trkpt lat="36.102594" lon="-5.819966">
        <ele>19.22</ele>
        <time>2015-06-19T13:24:16Z</time>
      </trkpt>
      <trkpt lat="36.102590" lon="-5.819913">
        <ele>18.62</ele>
        <time>2015-06-19T13:24:17Z</time>
      </trkpt>
      <trkpt lat="36.102574" lon="-5.819776">
        <ele>18.68</ele>
        <time>2015-06-19T13:24:20Z</time>
      </trkpt>
      <trkpt lat="36.102570" lon="-5.819694">
        <ele>18.70</ele>
        <time>2015-06-19T13:24:22Z</time>
      </trkpt>
      <trkpt lat="36.102567" lon="-5.819544">
        <ele>18.62</ele>
        <time>2015-06-19T13:24:26Z</time>
      </trkpt>
      <trkpt lat="36.102578" lon="-5.819403">
        <ele>18.63</ele>
        <time>2015-06-19T13:24:30Z</time>
      </trkpt>
      <trkpt lat="36.102588" lon="-5.819309">
        <ele>18.61</ele>
        <time>2015-06-19T13:24:33Z</time>
      </trkpt>
      <trkpt lat="36.102589" lon="-5.819279">
        <ele>19.22</ele>
        <time>2015-06-19T13:24:34Z</time>
      </trkpt>
      <trkpt lat="36.102592" lon="-5.819252">
        <ele>19.69</ele>
        <time>2015-06-19T13:24:35Z</time>
      </trkpt>
      <trkpt lat="36.102599" lon="-5.819226">
        <ele>20.08</ele>
        <time>2015-06-19T13:24:36Z</time>
      </trkpt>
      <trkpt lat="36.102605" lon="-5.819199">
        <ele>20.67</ele>
        <time>2015-06-19T13:24:37Z</time>
      </trkpt>
      <trkpt lat="36.102612" lon="-5.819172">
        <ele>21.05</ele>
        <time>2015-06-19T13:24:38Z</time>
      </trkpt>
      <trkpt lat="36.102634" lon="-5.819097">
        <ele>21.09</ele>
        <time>2015-06-19T13:24:41Z</time>
      </trkpt>
      <trkpt lat="36.102646" lon="-5.819041">
        <ele>21.04</ele>
        <time>2015-06-19T13:24:43Z</time>
      </trkpt>
      <trkpt lat="36.102652" lon="-5.819010">
        <ele>21.09</ele>
        <time>2015-06-19T13:24:44Z</time>
      </trkpt>
      <trkpt lat="36.102657" lon="-5.818982">
        <ele>21.45</ele>
        <time>2015-06-19T13:24:45Z</time>
      </trkpt>
      <trkpt lat="36.102667" lon="-5.818957">
        <ele>21.89</ele>
        <time>2015-06-19T13:24:46Z</time>
      </trkpt>
      <trkpt lat="36.102676" lon="-5.818934">
        <ele>22.22</ele>
        <time>2015-06-19T13:24:47Z</time>
      </trkpt>
      <trkpt lat="36.102688" lon="-5.818907">
        <ele>22.61</ele>
        <time>2015-06-19T13:24:48Z</time>
      </trkpt>
      <trkpt lat="36.102695" lon="-5.818884">
        <ele>23.02</ele>
        <time>2015-06-19T13:24:49Z</time>
      </trkpt>
      <trkpt lat="36.102701" lon="-5.818857">
        <ele>23.02</ele>
        <time>2015-06-19T13:24:50Z</time>
      </trkpt>
      <trkpt lat="36.102732" lon="-5.818781">
        <ele>23.04</ele>
        <time>2015-06-19T13:24:53Z</time>
      </trkpt>
      <trkpt lat="36.102745" lon="-5.818724">
        <ele>23.44</ele>
        <time>2015-06-19T13:24:55Z</time>
      </trkpt>
      <trkpt lat="36.102750" lon="-5.818694">
        <ele>24.02</ele>
        <time>2015-06-19T13:24:56Z</time>
      </trkpt>
      <trkpt lat="36.102757" lon="-5.818668">
        <ele>24.45</ele>
        <time>2015-06-19T13:24:57Z</time>
      </trkpt>
      <trkpt lat="36.102762" lon="-5.818639">
        <ele>24.88</ele>
        <time>2015-06-19T13:24:58Z</time>
      </trkpt>
      <trkpt lat="36.102766" lon="-5.818610">
        <ele>25.29</ele>
        <time>2015-06-19T13:24:59Z</time>
      </trkpt>
      <trkpt lat="36.102782" lon="-5.818485">
        <ele>25.22</ele>
        <time>2015-06-19T13:25:03Z</time>
      </trkpt>
      <trkpt lat="36.102773" lon="-5.818328">
        <ele>25.26</ele>
        <time>2015-06-19T13:25:08Z</time>
      </trkpt>
      <trkpt lat="36.102771" lon="-5.818297">
        <ele>25.21</ele>
        <time>2015-06-19T13:25:09Z</time>
      </trkpt>
      <trkpt lat="36.102758" lon="-5.818233">
        <ele>25.61</ele>
        <time>2015-06-19T13:25:11Z</time>
      </trkpt>
      <trkpt lat="36.102751" lon="-5.818203">
        <ele>26.28</ele>
        <time>2015-06-19T13:25:12Z</time>
      </trkpt>
      <trkpt lat="36.102745" lon="-5.818173">
        <ele>27.05</ele>
        <time>2015-06-19T13:25:13Z</time>
      </trkpt>
      <trkpt lat="36.102735" lon="-5.818147">
        <ele>27.46</ele>
        <time>2015-06-19T13:25:14Z</time>
      </trkpt>
      <trkpt lat="36.102720" lon="-5.818124">
        <ele>27.44</ele>
        <time>2015-06-19T13:25:15Z</time>
      </trkpt>
      <trkpt lat="36.102579" lon="-5.817976">
        <ele>27.44</ele>
        <time>2015-06-19T13:25:22Z</time>
      </trkpt>
      <trkpt lat="36.102406" lon="-5.817859">
        <ele>27.50</ele>
        <time>2015-06-19T13:25:29Z</time>
      </trkpt>
      <trkpt lat="36.102360" lon="-5.817834">
        <ele>27.86</ele>
        <time>2015-06-19T13:25:31Z</time>
      </trkpt>
      <trkpt lat="36.102340" lon="-5.817813">
        <ele>28.25</ele>
        <time>2015-06-19T13:25:32Z</time>
      </trkpt>
      <trkpt lat="36.102321" lon="-5.817791">
        <ele>28.66</ele>
        <time>2015-06-19T13:25:33Z</time>
      </trkpt>
      <trkpt lat="36.102299" lon="-5.817769">
        <ele>29.00</ele>
        <time>2015-06-19T13:25:34Z</time>
      </trkpt>
      <trkpt lat="36.102278" lon="-5.817749">
        <ele>29.42</ele>
        <time>2015-06-19T13:25:35Z</time>
      </trkpt>
      <trkpt lat="36.102256" lon="-5.817727">
        <ele>29.41</ele>
        <time>2015-06-19T13:25:36Z</time>
      </trkpt>
      <trkpt lat="36.102146" lon="-5.817540">
        <ele>29.46</ele>
        <time>2015-06-19T13:25:42Z</time>
      </trkpt>
      <trkpt lat="36.102051" lon="-5.817307">
        <ele>29.46</ele>
        <time>2015-06-19T13:25:48Z</time>
      </trkpt>
      <trkpt lat="36.102017" lon="-5.817205">
        <ele>29.44</ele>
        <time>2015-06-19T13:25:50Z</time>
      </trkpt>
      <trkpt lat="36.101975" lon="-5.817047">
        <ele>29.41</ele>
        <time>2015-06-19T13:25:53Z</time>
      </trkpt>
      <trkpt lat="36.101951" lon="-5.816926">
        <ele>29.46</ele>
        <time>2015-06-19T13:25:55Z</time>
      </trkpt>
      <trkpt lat="36.101935" lon="-5.816867">
        <ele>29.47</ele>
        <time>2015-06-19T13:25:56Z</time>
      </trkpt>
      <trkpt lat="36.101828" lon="-5.816464">
        <ele>29.09</ele>
        <time>2015-06-19T13:26:01Z</time>
      </trkpt>
      <trkpt lat="36.101807" lon="-5.816378">
        <ele>28.66</ele>
        <time>2015-06-19T13:26:02Z</time>
      </trkpt>
      <trkpt lat="36.101785" lon="-5.816296">
        <ele>28.02</ele>
        <time>2015-06-19T13:26:03Z</time>
      </trkpt>
      <trkpt lat="36.101761" lon="-5.816217">
        <ele>27.23</ele>
        <time>2015-06-19T13:26:04Z</time>
      </trkpt>
      <trkpt lat="36.101720" lon="-5.816076">
        <ele>27.21</ele>
        <time>2015-06-19T13:26:06Z</time>
      </trkpt>
      <trkpt lat="36.101703" lon="-5.816011">
        <ele>27.21</ele>
        <time>2015-06-19T13:26:07Z</time>
      </trkpt>
      <trkpt lat="36.101634" lon="-5.815767">
        <ele>27.27</ele>
        <time>2015-06-19T13:26:11Z</time>
      </trkpt>
      <trkpt lat="36.101600" lon="-5.815678">
        <ele>27.28</ele>
        <time>2015-06-19T13:26:13Z</time>
      </trkpt>
      <trkpt lat="36.101504" lon="-5.815463">
        <ele>27.23</ele>
        <time>2015-06-19T13:26:20Z</time>
      </trkpt>
      <trkpt lat="36.101464" lon="-5.815324">
        <ele>27.28</ele>
        <time>2015-06-19T13:26:25Z</time>
      </trkpt>
      <trkpt lat="36.101458" lon="-5.815272">
        <ele>27.28</ele>
        <time>2015-06-19T13:26:27Z</time>
      </trkpt>
      <trkpt lat="36.101455" lon="-5.815198">
        <ele>27.30</ele>
        <time>2015-06-19T13:26:30Z</time>
      </trkpt>
      <trkpt lat="36.101449" lon="-5.815096">
        <ele>27.21</ele>
        <time>2015-06-19T13:26:34Z</time>
      </trkpt>
      <trkpt lat="36.101448" lon="-5.815020">
        <ele>27.61</ele>
        <time>2015-06-19T13:26:37Z</time>
      </trkpt>
      <trkpt lat="36.101448" lon="-5.814997">
        <ele>28.04</ele>
        <time>2015-06-19T13:26:38Z</time>
      </trkpt>
      <trkpt lat="36.101449" lon="-5.814976">
        <ele>28.47</ele>
        <time>2015-06-19T13:26:39Z</time>
      </trkpt>
      <trkpt lat="36.101446" lon="-5.814952">
        <ele>29.02</ele>
        <time>2015-06-19T13:26:40Z</time>
      </trkpt>
      <trkpt lat="36.101445" lon="-5.814927">
        <ele>29.41</ele>
        <time>2015-06-19T13:26:41Z</time>
      </trkpt>
      <trkpt lat="36.101446" lon="-5.814851">
        <ele>29.45</ele>
        <time>2015-06-19T13:26:44Z</time>
      </trkpt>
      <trkpt lat="36.101442" lon="-5.814801">
        <ele>29.85</ele>
        <time>2015-06-19T13:26:46Z</time>
      </trkpt>
      <trkpt lat="36.101440" lon="-5.814774">
        <ele>30.26</ele>
        <time>2015-06-19T13:26:47Z</time>
      </trkpt>
      <trkpt lat="36.101440" lon="-5.814748">
        <ele>30.61</ele>
        <time>2015-06-19T13:26:48Z</time>
      </trkpt>
      <trkpt lat="36.101439" lon="-5.814722">
        <ele>31.07</ele>
        <time>2015-06-19T13:26:49Z</time>
      </trkpt>
      <trkpt lat="36.101436" lon="-5.814695">
        <ele>31.42</ele>
        <time>2015-06-19T13:26:50Z</time>
      </trkpt>
      <trkpt lat="36.101427" lon="-5.814583">
        <ele>31.42</ele>
        <time>2015-06-19T13:26:55Z</time>
      </trkpt>
      <trkpt lat="36.101426" lon="-5.814560">
        <ele>31.90</ele>
        <time>2015-06-19T13:26:56Z</time>
      </trkpt>
      <trkpt lat="36.101431" lon="-5.814527">
        <ele>32.25</ele>
        <time>2015-06-19T13:26:57Z</time>
      </trkpt>
      <trkpt lat="36.101431" lon="-5.814499">
        <ele>32.66</ele>
        <time>2015-06-19T13:26:58Z</time>
      </trkpt>
      <trkpt lat="36.101432" lon="-5.814475">
        <ele>33.01</ele>
        <time>2015-06-19T13:26:59Z</time>
      </trkpt>
      <trkpt lat="36.101434" lon="-5.814451">
        <ele>33.41</ele>
        <time>2015-06-19T13:27:00Z</time>
      </trkpt>
      <trkpt lat="36.101422" lon="-5.814265">
        <ele>33.48</ele>
        <time>2015-06-19T13:27:07Z</time>
      </trkpt>
      <trkpt lat="36.101424" lon="-5.814050">
        <ele>33.49</ele>
        <time>2015-06-19T13:27:14Z</time>
      </trkpt>
      <trkpt lat="36.101437" lon="-5.813899">
        <ele>33.88</ele>
        <time>2015-06-19T13:27:19Z</time>
      </trkpt>
      <trkpt lat="36.101442" lon="-5.813872">
        <ele>34.23</ele>
        <time>2015-06-19T13:27:20Z</time>
      </trkpt>
      <trkpt lat="36.101442" lon="-5.813843">
        <ele>34.69</ele>
        <time>2015-06-19T13:27:21Z</time>
      </trkpt>
      <trkpt lat="36.101447" lon="-5.813815">
        <ele>35.28</ele>
        <time>2015-06-19T13:27:22Z</time>
      </trkpt>
      <trkpt lat="36.101450" lon="-5.813787">
        <ele>35.67</ele>
        <time>2015-06-19T13:27:23Z</time>
      </trkpt>
      <trkpt lat="36.101469" lon="-5.813692">
        <ele>35.68</ele>
        <time>2015-06-19T13:27:27Z</time>
      </trkpt>
      <trkpt lat="36.101506" lon="-5.813573">
        <ele>36.02</ele>
        <time>2015-06-19T13:27:32Z</time>
      </trkpt>
      <trkpt lat="36.101511" lon="-5.813547">
        <ele>36.41</ele>
        <time>2015-06-19T13:27:33Z</time>
      </trkpt>
      <trkpt lat="36.101514" lon="-5.813522">
        <ele>36.82</ele>
        <time>2015-06-19T13:27:34Z</time>
      </trkpt>
      <trkpt lat="36.101517" lon="-5.813500">
        <ele>37.21</ele>
        <time>2015-06-19T13:27:35Z</time>
      </trkpt>
      <trkpt lat="36.101522" lon="-5.813477">
        <ele>37.62</ele>
        <time>2015-06-19T13:27:36Z</time>
      </trkpt>
      <trkpt lat="36.101546" lon="-5.813348">
        <ele>37.70</ele>
        <time>2015-06-19T13:27:42Z</time>
      </trkpt>
      <trkpt lat="36.101562" lon="-5.813264">
        <ele>37.66</ele>
        <time>2015-06-19T13:27:48Z</time>
      </trkpt>
      <trkpt lat="36.101575" lon="-5.813234">
        <ele>37.69</ele>
        <time>2015-06-19T13:27:51Z</time>
      </trkpt>
      <trkpt lat="36.101557" lon="-5.813198">
        <ele>37.63</ele>
        <time>2015-06-19T13:27:54Z</time>
      </trkpt>
      <trkpt lat="36.101555" lon="-5.813185">
        <ele>37.69</ele>
        <time>2015-06-19T13:27:55Z</time>
      </trkpt>
      <trkpt lat="36.101557" lon="-5.813174">
        <ele>37.65</ele>
        <time>2015-06-19T13:27:59Z</time>
      </trkpt>
      <trkpt lat="36.101533" lon="-5.813174">
        <ele>37.67</ele>
        <time>2015-06-19T13:28:02Z</time>
      </trkpt>
      <trkpt lat="36.101503" lon="-5.813175">
        <ele>37.63</ele>
        <time>2015-06-19T13:28:04Z</time>
      </trkpt>
      <trkpt lat="36.101393" lon="-5.813146">
        <ele>37.69</ele>
        <time>2015-06-19T13:28:07Z</time>
      </trkpt>
      <trkpt lat="36.101346" lon="-5.813117">
        <ele>37.61</ele>
        <time>2015-06-19T13:28:08Z</time>
      </trkpt>
      <trkpt lat="36.101164" lon="-5.813025">
        <ele>37.61</ele>
        <time>2015-06-19T13:28:11Z</time>
      </trkpt>
      <trkpt lat="36.100940" lon="-5.812867">
        <ele>37.09</ele>
        <time>2015-06-19T13:28:14Z</time>
      </trkpt>
      <trkpt lat="36.100864" lon="-5.812815">
        <ele>36.49</ele>
        <time>2015-06-19T13:28:15Z</time>
      </trkpt>
      <trkpt lat="36.100780" lon="-5.812767">
        <ele>35.64</ele>
        <time>2015-06-19T13:28:16Z</time>
      </trkpt>
      <trkpt lat="36.100681" lon="-5.812745">
        <ele>34.88</ele>
        <time>2015-06-19T13:28:17Z</time>
      </trkpt>
      <trkpt lat="36.100580" lon="-5.812748">
        <ele>33.69</ele>
        <time>2015-06-19T13:28:18Z</time>
      </trkpt>
      <trkpt lat="36.100476" lon="-5.812765">
        <ele>32.62</ele>
        <time>2015-06-19T13:28:19Z</time>
      </trkpt>
      <trkpt lat="36.100372" lon="-5.812793">
        <ele>31.44</ele>
        <time>2015-06-19T13:28:20Z</time>
      </trkpt>
      <trkpt lat="36.100274" lon="-5.812830">
        <ele>30.42</ele>
        <time>2015-06-19T13:28:21Z</time>
      </trkpt>
      <trkpt lat="36.100192" lon="-5.812880">
        <ele>29.23</ele>
        <time>2015-06-19T13:28:22Z</time>
      </trkpt>
      <trkpt lat="36.100120" lon="-5.812930">
        <ele>28.26</ele>
        <time>2015-06-19T13:28:23Z</time>
      </trkpt>
      <trkpt lat="36.100047" lon="-5.812972">
        <ele>27.01</ele>
        <time>2015-06-19T13:28:24Z</time>
      </trkpt>
      <trkpt lat="36.099860" lon="-5.813093">
        <ele>26.61</ele>
        <time>2015-06-19T13:28:27Z</time>
      </trkpt>
      <trkpt lat="36.099805" lon="-5.813129">
        <ele>26.28</ele>
        <time>2015-06-19T13:28:28Z</time>
      </trkpt>
      <trkpt lat="36.099752" lon="-5.813148">
        <ele>25.89</ele>
        <time>2015-06-19T13:28:29Z</time>
      </trkpt>
      <trkpt lat="36.099700" lon="-5.813155">
        <ele>25.47</ele>
        <time>2015-06-19T13:28:30Z</time>
      </trkpt>
      <trkpt lat="36.099659" lon="-5.813150">
        <ele>25.08</ele>
        <time>2015-06-19T13:28:31Z</time>
      </trkpt>
      <trkpt lat="36.099552" lon="-5.813129">
        <ele>25.02</ele>
        <time>2015-06-19T13:28:35Z</time>
      </trkpt>
      <trkpt lat="36.099516" lon="-5.813094">
        <ele>25.03</ele>
        <time>2015-06-19T13:28:37Z</time>
      </trkpt>
      <trkpt lat="36.099445" lon="-5.813055">
        <ele>25.03</ele>
        <time>2015-06-19T13:28:41Z</time>
      </trkpt>
      <trkpt lat="36.099412" lon="-5.813043">
        <ele>25.08</ele>
        <time>2015-06-19T13:28:43Z</time>
      </trkpt>
      <trkpt lat="36.099394" lon="-5.813034">
        <ele>25.61</ele>
        <time>2015-06-19T13:28:44Z</time>
      </trkpt>
      <trkpt lat="36.099376" lon="-5.813023">
        <ele>26.02</ele>
        <time>2015-06-19T13:28:45Z</time>
      </trkpt>
      <trkpt lat="36.099361" lon="-5.813011">
        <ele>26.40</ele>
        <time>2015-06-19T13:28:46Z</time>
      </trkpt>
      <trkpt lat="36.099346" lon="-5.813001">
        <ele>26.81</ele>
        <time>2015-06-19T13:28:47Z</time>
      </trkpt>
      <trkpt lat="36.099330" lon="-5.812992">
        <ele>27.24</ele>
        <time>2015-06-19T13:28:48Z</time>
      </trkpt>
      <trkpt lat="36.099283" lon="-5.812952">
        <ele>27.29</ele>
        <time>2015-06-19T13:28:51Z</time>
      </trkpt>
      <trkpt lat="36.099249" lon="-5.812927">
        <ele>27.23</ele>
        <time>2015-06-19T13:28:53Z</time>
      </trkpt>
      <trkpt lat="36.099232" lon="-5.812914">
        <ele>27.69</ele>
        <time>2015-06-19T13:28:54Z</time>
      </trkpt>
      <trkpt lat="36.099218" lon="-5.812903">
        <ele>28.68</ele>
        <time>2015-06-19T13:28:55Z</time>
      </trkpt>
      <trkpt lat="36.099200" lon="-5.812894">
        <ele>29.03</ele>
        <time>2015-06-19T13:28:56Z</time>
      </trkpt>
      <trkpt lat="36.099181" lon="-5.812888">
        <ele>29.46</ele>
        <time>2015-06-19T13:28:57Z</time>
      </trkpt>
      <trkpt lat="36.099117" lon="-5.812839">
        <ele>29.42</ele>
        <time>2015-06-19T13:29:01Z</time>
      </trkpt>
      <trkpt lat="36.099101" lon="-5.812822">
        <ele>29.46</ele>
        <time>2015-06-19T13:29:02Z</time>
      </trkpt>
      <trkpt lat="36.099050" lon="-5.812791">
        <ele>29.40</ele>
        <time>2015-06-19T13:29:05Z</time>
      </trkpt>
      <trkpt lat="36.099032" lon="-5.812779">
        <ele>29.82</ele>
        <time>2015-06-19T13:29:06Z</time>
      </trkpt>
      <trkpt lat="36.099015" lon="-5.812769">
        <ele>30.21</ele>
        <time>2015-06-19T13:29:07Z</time>
      </trkpt>
      <trkpt lat="36.099000" lon="-5.812762">
        <ele>30.70</ele>
        <time>2015-06-19T13:29:08Z</time>
      </trkpt>
      <trkpt lat="36.098984" lon="-5.812753">
        <ele>31.05</ele>
        <time>2015-06-19T13:29:09Z</time>
      </trkpt>
      <trkpt lat="36.098967" lon="-5.812742">
        <ele>31.47</ele>
        <time>2015-06-19T13:29:10Z</time>
      </trkpt>
      <trkpt lat="36.098886" lon="-5.812674">
        <ele>31.48</ele>
        <time>2015-06-19T13:29:15Z</time>
      </trkpt>
      <trkpt lat="36.098867" lon="-5.812666">
        <ele>31.42</ele>
        <time>2015-06-19T13:29:16Z</time>
      </trkpt>
      <trkpt lat="36.098801" lon="-5.812613">
        <ele>31.84</ele>
        <time>2015-06-19T13:29:20Z</time>
      </trkpt>
      <trkpt lat="36.098784" lon="-5.812601">
        <ele>32.27</ele>
        <time>2015-06-19T13:29:21Z</time>
      </trkpt>
      <trkpt lat="36.098768" lon="-5.812591">
        <ele>32.66</ele>
        <time>2015-06-19T13:29:22Z</time>
      </trkpt>
      <trkpt lat="36.098752" lon="-5.812580">
        <ele>33.09</ele>
        <time>2015-06-19T13:29:23Z</time>
      </trkpt>
      <trkpt lat="36.098736" lon="-5.812568">
        <ele>33.48</ele>
        <time>2015-06-19T13:29:24Z</time>
      </trkpt>
      <trkpt lat="36.098668" lon="-5.812520">
        <ele>33.82</ele>
        <time>2015-06-19T13:29:28Z</time>
      </trkpt>
      <trkpt lat="36.098653" lon="-5.812507">
        <ele>34.41</ele>
        <time>2015-06-19T13:29:29Z</time>
      </trkpt>
      <trkpt lat="36.098635" lon="-5.812491">
        <ele>34.84</ele>
        <time>2015-06-19T13:29:30Z</time>
      </trkpt>
      <trkpt lat="36.098616" lon="-5.812483">
        <ele>35.24</ele>
        <time>2015-06-19T13:29:31Z</time>
      </trkpt>
      <trkpt lat="36.098599" lon="-5.812471">
        <ele>35.66</ele>
        <time>2015-06-19T13:29:32Z</time>
      </trkpt>
      <trkpt lat="36.098460" lon="-5.812400">
        <ele>36.05</ele>
        <time>2015-06-19T13:29:39Z</time>
      </trkpt>
      <trkpt lat="36.098437" lon="-5.812394">
        <ele>36.49</ele>
        <time>2015-06-19T13:29:40Z</time>
      </trkpt>
      <trkpt lat="36.098419" lon="-5.812381">
        <ele>36.88</ele>
        <time>2015-06-19T13:29:41Z</time>
      </trkpt>
      <trkpt lat="36.098401" lon="-5.812377">
        <ele>37.30</ele>
        <time>2015-06-19T13:29:42Z</time>
      </trkpt>
      <trkpt lat="36.098381" lon="-5.812370">
        <ele>37.63</ele>
        <time>2015-06-19T13:29:43Z</time>
      </trkpt>
      <trkpt lat="36.098341" lon="-5.812354">
        <ele>37.63</ele>
        <time>2015-06-19T13:29:45Z</time>
      </trkpt>
      <trkpt lat="36.098188" lon="-5.812275">
        <ele>37.60</ele>
        <time>2015-06-19T13:29:52Z</time>
      </trkpt>
      <trkpt lat="36.098053" lon="-5.812211">
        <ele>38.02</ele>
        <time>2015-06-19T13:29:58Z</time>
      </trkpt>
      <trkpt lat="36.098030" lon="-5.812196">
        <ele>38.41</ele>
        <time>2015-06-19T13:29:59Z</time>
      </trkpt>
      <trkpt lat="36.098008" lon="-5.812184">
        <ele>38.85</ele>
        <time>2015-06-19T13:30:00Z</time>
      </trkpt>
      <trkpt lat="36.097985" lon="-5.812169">
        <ele>39.22</ele>
        <time>2015-06-19T13:30:01Z</time>
      </trkpt>
      <trkpt lat="36.097961" lon="-5.812150">
        <ele>39.66</ele>
        <time>2015-06-19T13:30:02Z</time>
      </trkpt>
      <trkpt lat="36.097851" lon="-5.812111">
        <ele>39.62</ele>
        <time>2015-06-19T13:30:06Z</time>
      </trkpt>
      <trkpt lat="36.097716" lon="-5.812023">
        <ele>39.67</ele>
        <time>2015-06-19T13:30:11Z</time>
      </trkpt>
      <trkpt lat="36.097564" lon="-5.811930">
        <ele>39.62</ele>
        <time>2015-06-19T13:30:16Z</time>
      </trkpt>
      <trkpt lat="36.097534" lon="-5.811914">
        <ele>39.63</ele>
        <time>2015-06-19T13:30:17Z</time>
      </trkpt>
      <trkpt lat="36.097424" lon="-5.811831">
        <ele>39.70</ele>
        <time>2015-06-19T13:30:21Z</time>
      </trkpt>
      <trkpt lat="36.097365" lon="-5.811803">
        <ele>39.67</ele>
        <time>2015-06-19T13:30:23Z</time>
      </trkpt>
      <trkpt lat="36.097278" lon="-5.811765">
        <ele>39.63</ele>
        <time>2015-06-19T13:30:26Z</time>
      </trkpt>
      <trkpt lat="36.097192" lon="-5.811704">
        <ele>39.62</ele>
        <time>2015-06-19T13:30:29Z</time>
      </trkpt>
      <trkpt lat="36.097125" lon="-5.811669">
        <ele>39.61</ele>
        <time>2015-06-19T13:30:31Z</time>
      </trkpt>
      <trkpt lat="36.096981" lon="-5.811582">
        <ele>39.67</ele>
        <time>2015-06-19T13:30:35Z</time>
      </trkpt>
      <trkpt lat="36.096940" lon="-5.811564">
        <ele>39.65</ele>
        <time>2015-06-19T13:30:36Z</time>
      </trkpt>
      <trkpt lat="36.096852" lon="-5.811522">
        <ele>39.67</ele>
        <time>2015-06-19T13:30:38Z</time>
      </trkpt>
      <trkpt lat="36.096612" lon="-5.811377">
        <ele>39.64</ele>
        <time>2015-06-19T13:30:44Z</time>
      </trkpt>
      <trkpt lat="36.096450" lon="-5.811289">
        <ele>39.65</ele>
        <time>2015-06-19T13:30:48Z</time>
      </trkpt>
      <trkpt lat="36.096377" lon="-5.811248">
        <ele>39.22</ele>
        <time>2015-06-19T13:30:50Z</time>
      </trkpt>
      <trkpt lat="36.096340" lon="-5.811225">
        <ele>38.87</ele>
        <time>2015-06-19T13:30:51Z</time>
      </trkpt>
      <trkpt lat="36.096303" lon="-5.811203">
        <ele>38.42</ele>
        <time>2015-06-19T13:30:52Z</time>
      </trkpt>
      <trkpt lat="36.096269" lon="-5.811179">
        <ele>38.06</ele>
        <time>2015-06-19T13:30:53Z</time>
      </trkpt>
      <trkpt lat="36.096234" lon="-5.811157">
        <ele>37.61</ele>
        <time>2015-06-19T13:30:54Z</time>
      </trkpt>
      <trkpt lat="36.096197" lon="-5.811136">
        <ele>37.62</ele>
        <time>2015-06-19T13:30:55Z</time>
      </trkpt>
      <trkpt lat="36.096126" lon="-5.811090">
        <ele>37.61</ele>
        <time>2015-06-19T13:30:57Z</time>
      </trkpt>
      <trkpt lat="36.096057" lon="-5.811046">
        <ele>37.62</ele>
        <time>2015-06-19T13:30:59Z</time>
      </trkpt>
      <trkpt lat="36.095926" lon="-5.810980">
        <ele>37.65</ele>
        <time>2015-06-19T13:31:03Z</time>
      </trkpt>
      <trkpt lat="36.095751" lon="-5.810884">
        <ele>37.70</ele>
        <time>2015-06-19T13:31:09Z</time>
      </trkpt>
      <trkpt lat="36.095723" lon="-5.810872">
        <ele>37.70</ele>
        <time>2015-06-19T13:31:10Z</time>
      </trkpt>
      <trkpt lat="36.095612" lon="-5.810804">
        <ele>37.22</ele>
        <time>2015-06-19T13:31:15Z</time>
      </trkpt>
      <trkpt lat="36.095588" lon="-5.810791">
        <ele>36.62</ele>
        <time>2015-06-19T13:31:16Z</time>
      </trkpt>
      <trkpt lat="36.095564" lon="-5.810773">
        <ele>36.23</ele>
        <time>2015-06-19T13:31:17Z</time>
      </trkpt>
      <trkpt lat="36.095540" lon="-5.810755">
        <ele>35.86</ele>
        <time>2015-06-19T13:31:18Z</time>
      </trkpt>
      <trkpt lat="36.095520" lon="-5.810736">
        <ele>35.27</ele>
        <time>2015-06-19T13:31:19Z</time>
      </trkpt>
      <trkpt lat="36.095409" lon="-5.810666">
        <ele>35.24</ele>
        <time>2015-06-19T13:31:23Z</time>
      </trkpt>
      <trkpt lat="36.095291" lon="-5.810593">
        <ele>35.22</ele>
        <time>2015-06-19T13:31:27Z</time>
      </trkpt>
      <trkpt lat="36.095199" lon="-5.810533">
        <ele>35.21</ele>
        <time>2015-06-19T13:31:30Z</time>
      </trkpt>
      <trkpt lat="36.094982" lon="-5.810373">
        <ele>35.29</ele>
        <time>2015-06-19T13:31:37Z</time>
      </trkpt>
      <trkpt lat="36.094950" lon="-5.810356">
        <ele>35.28</ele>
        <time>2015-06-19T13:31:38Z</time>
      </trkpt>
      <trkpt lat="36.094811" lon="-5.810276">
        <ele>35.29</ele>
        <time>2015-06-19T13:31:43Z</time>
      </trkpt>
      <trkpt lat="36.094755" lon="-5.810251">
        <ele>35.23</ele>
        <time>2015-06-19T13:31:45Z</time>
      </trkpt>
      <trkpt lat="36.094641" lon="-5.810168">
        <ele>35.23</ele>
        <time>2015-06-19T13:31:50Z</time>
      </trkpt>
      <trkpt lat="36.094616" lon="-5.810151">
        <ele>35.27</ele>
        <time>2015-06-19T13:31:51Z</time>
      </trkpt>
      <trkpt lat="36.094469" lon="-5.810066">
        <ele>35.22</ele>
        <time>2015-06-19T13:31:57Z</time>
      </trkpt>
      <trkpt lat="36.094422" lon="-5.810037">
        <ele>35.29</ele>
        <time>2015-06-19T13:31:59Z</time>
      </trkpt>
      <trkpt lat="36.094256" lon="-5.809929">
        <ele>35.29</ele>
        <time>2015-06-19T13:32:06Z</time>
      </trkpt>
      <trkpt lat="36.094059" lon="-5.809797">
        <ele>35.27</ele>
        <time>2015-06-19T13:32:14Z</time>
      </trkpt>
      <trkpt lat="36.093852" lon="-5.809658">
        <ele>35.22</ele>
        <time>2015-06-19T13:32:22Z</time>
      </trkpt>
      <trkpt lat="36.093675" lon="-5.809549">
        <ele>35.21</ele>
        <time>2015-06-19T13:32:28Z</time>
      </trkpt>
      <trkpt lat="36.093616" lon="-5.809430">
        <ele>35.22</ele>
        <time>2015-06-19T13:32:32Z</time>
      </trkpt>
      <trkpt lat="36.093627" lon="-5.809334">
        <ele>35.24</ele>
        <time>2015-06-19T13:32:37Z</time>
      </trkpt>
      <trkpt lat="36.093593" lon="-5.809303">
        <ele>35.29</ele>
        <time>2015-06-19T13:32:41Z</time>
      </trkpt>
      <trkpt lat="36.093592" lon="-5.809303">
        <ele>35.26</ele>
        <time>2015-06-19T13:32:42Z</time>
      </trkpt>
      <trkpt lat="36.093567" lon="-5.809289">
        <ele>35.26</ele>
        <time>2015-06-19T13:32:45Z</time>
      </trkpt>
      <trkpt lat="36.093556" lon="-5.809269">
        <ele>35.23</ele>
        <time>2015-06-19T13:32:46Z</time>
      </trkpt>
      <trkpt lat="36.093515" lon="-5.809170">
        <ele>35.25</ele>
        <time>2015-06-19T13:32:52Z</time>
      </trkpt>
      <trkpt lat="36.093508" lon="-5.809152">
        <ele>35.61</ele>
        <time>2015-06-19T13:32:53Z</time>
      </trkpt>
      <trkpt lat="36.093502" lon="-5.809135">
        <ele>36.23</ele>
        <time>2015-06-19T13:32:54Z</time>
      </trkpt>
      <trkpt lat="36.093495" lon="-5.809119">
        <ele>36.69</ele>
        <time>2015-06-19T13:32:55Z</time>
      </trkpt>
      <trkpt lat="36.093490" lon="-5.809101">
        <ele>37.01</ele>
        <time>2015-06-19T13:32:56Z</time>
      </trkpt>
      <trkpt lat="36.093480" lon="-5.809088">
        <ele>37.41</ele>
        <time>2015-06-19T13:32:57Z</time>
      </trkpt>
      <trkpt lat="36.093440" lon="-5.809024">
        <ele>37.42</ele>
        <time>2015-06-19T13:33:01Z</time>
      </trkpt>
      <trkpt lat="36.093356" lon="-5.808953">
        <ele>37.88</ele>
        <time>2015-06-19T13:33:07Z</time>
      </trkpt>
      <trkpt lat="36.093340" lon="-5.808946">
        <ele>38.25</ele>
        <time>2015-06-19T13:33:08Z</time>
      </trkpt>
      <trkpt lat="36.093325" lon="-5.808942">
        <ele>38.62</ele>
        <time>2015-06-19T13:33:09Z</time>
      </trkpt>
      <trkpt lat="36.093309" lon="-5.808938">
        <ele>39.10</ele>
        <time>2015-06-19T13:33:10Z</time>
      </trkpt>
      <trkpt lat="36.093293" lon="-5.808935">
        <ele>39.48</ele>
        <time>2015-06-19T13:33:11Z</time>
      </trkpt>
      <trkpt lat="36.093257" lon="-5.808931">
        <ele>39.46</ele>
        <time>2015-06-19T13:33:13Z</time>
      </trkpt>
      <trkpt lat="36.093103" lon="-5.808892">
        <ele>39.43</ele>
        <time>2015-06-19T13:33:21Z</time>
      </trkpt>
      <trkpt lat="36.093038" lon="-5.808876">
        <ele>39.83</ele>
        <time>2015-06-19T13:33:25Z</time>
      </trkpt>
      <trkpt lat="36.093018" lon="-5.808876">
        <ele>40.20</ele>
        <time>2015-06-19T13:33:26Z</time>
      </trkpt>
      <trkpt lat="36.092999" lon="-5.808878">
        <ele>40.62</ele>
        <time>2015-06-19T13:33:27Z</time>
      </trkpt>
      <trkpt lat="36.092980" lon="-5.808881">
        <ele>41.41</ele>
        <time>2015-06-19T13:33:28Z</time>
      </trkpt>
      <trkpt lat="36.092887" lon="-5.808887">
        <ele>41.44</ele>
        <time>2015-06-19T13:33:33Z</time>
      </trkpt>
      <trkpt lat="36.092804" lon="-5.808914">
        <ele>42.09</ele>
        <time>2015-06-19T13:33:38Z</time>
      </trkpt>
      <trkpt lat="36.092788" lon="-5.808917">
        <ele>42.42</ele>
        <time>2015-06-19T13:33:39Z</time>
      </trkpt>
      <trkpt lat="36.092771" lon="-5.808918">
        <ele>42.84</ele>
        <time>2015-06-19T13:33:40Z</time>
      </trkpt>
      <trkpt lat="36.092753" lon="-5.808920">
        <ele>43.26</ele>
        <time>2015-06-19T13:33:41Z</time>
      </trkpt>
      <trkpt lat="36.092736" lon="-5.808925">
        <ele>43.65</ele>
        <time>2015-06-19T13:33:42Z</time>
      </trkpt>
      <trkpt lat="36.092690" lon="-5.808945">
        <ele>43.69</ele>
        <time>2015-06-19T13:33:45Z</time>
      </trkpt>
      <trkpt lat="36.092623" lon="-5.808961">
        <ele>43.66</ele>
        <time>2015-06-19T13:33:49Z</time>
      </trkpt>
      <trkpt lat="36.092547" lon="-5.809001">
        <ele>44.02</ele>
        <time>2015-06-19T13:33:53Z</time>
      </trkpt>
      <trkpt lat="36.092534" lon="-5.809019">
        <ele>44.44</ele>
        <time>2015-06-19T13:33:54Z</time>
      </trkpt>
      <trkpt lat="36.092522" lon="-5.809036">
        <ele>44.81</ele>
        <time>2015-06-19T13:33:55Z</time>
      </trkpt>
      <trkpt lat="36.092509" lon="-5.809049">
        <ele>45.21</ele>
        <time>2015-06-19T13:33:56Z</time>
      </trkpt>
      <trkpt lat="36.092495" lon="-5.809056">
        <ele>45.69</ele>
        <time>2015-06-19T13:33:57Z</time>
      </trkpt>
      <trkpt lat="36.092430" lon="-5.809093">
        <ele>45.65</ele>
        <time>2015-06-19T13:34:01Z</time>
      </trkpt>
      <trkpt lat="36.092399" lon="-5.809106">
        <ele>45.61</ele>
        <time>2015-06-19T13:34:03Z</time>
      </trkpt>
      <trkpt lat="36.092325" lon="-5.809113">
        <ele>46.08</ele>
        <time>2015-06-19T13:34:07Z</time>
      </trkpt>
      <trkpt lat="36.092306" lon="-5.809110">
        <ele>46.47</ele>
        <time>2015-06-19T13:34:08Z</time>
      </trkpt>
      <trkpt lat="36.092290" lon="-5.809111">
        <ele>46.86</ele>
        <time>2015-06-19T13:34:09Z</time>
      </trkpt>
      <trkpt lat="36.092276" lon="-5.809116">
        <ele>47.21</ele>
        <time>2015-06-19T13:34:10Z</time>
      </trkpt>
      <trkpt lat="36.092263" lon="-5.809127">
        <ele>47.63</ele>
        <time>2015-06-19T13:34:11Z</time>
      </trkpt>
      <trkpt lat="36.092218" lon="-5.809142">
        <ele>47.66</ele>
        <time>2015-06-19T13:34:14Z</time>
      </trkpt>
      <trkpt lat="36.092201" lon="-5.809143">
        <ele>47.68</ele>
        <time>2015-06-19T13:34:15Z</time>
      </trkpt>
      <trkpt lat="36.092140" lon="-5.809154">
        <ele>48.01</ele>
        <time>2015-06-19T13:34:19Z</time>
      </trkpt>
      <trkpt lat="36.092124" lon="-5.809159">
        <ele>48.41</ele>
        <time>2015-06-19T13:34:20Z</time>
      </trkpt>
      <trkpt lat="36.092110" lon="-5.809166">
        <ele>48.86</ele>
        <time>2015-06-19T13:34:21Z</time>
      </trkpt>
      <trkpt lat="36.092095" lon="-5.809170">
        <ele>49.25</ele>
        <time>2015-06-19T13:34:22Z</time>
      </trkpt>
      <trkpt lat="36.092080" lon="-5.809174">
        <ele>49.70</ele>
        <time>2015-06-19T13:34:23Z</time>
      </trkpt>
      <trkpt lat="36.092063" lon="-5.809179">
        <ele>49.62</ele>
        <time>2015-06-19T13:34:24Z</time>
      </trkpt>
      <trkpt lat="36.091980" lon="-5.809182">
        <ele>50.29</ele>
        <time>2015-06-19T13:34:29Z</time>
      </trkpt>
      <trkpt lat="36.091966" lon="-5.809178">
        <ele>50.64</ele>
        <time>2015-06-19T13:34:30Z</time>
      </trkpt>
      <trkpt lat="36.091956" lon="-5.809182">
        <ele>51.03</ele>
        <time>2015-06-19T13:34:31Z</time>
      </trkpt>
      <trkpt lat="36.091936" lon="-5.809182">
        <ele>51.43</ele>
        <time>2015-06-19T13:34:32Z</time>
      </trkpt>
      <trkpt lat="36.091922" lon="-5.809193">
        <ele>52.02</ele>
        <time>2015-06-19T13:34:33Z</time>
      </trkpt>
      <trkpt lat="36.091895" lon="-5.809209">
        <ele>52.09</ele>
        <time>2015-06-19T13:34:35Z</time>
      </trkpt>
      <trkpt lat="36.091882" lon="-5.809215">
        <ele>52.02</ele>
        <time>2015-06-19T13:34:36Z</time>
      </trkpt>
      <trkpt lat="36.091814" lon="-5.809208">
        <ele>52.41</ele>
        <time>2015-06-19T13:34:40Z</time>
      </trkpt>
      <trkpt lat="36.091797" lon="-5.809208">
        <ele>52.89</ele>
        <time>2015-06-19T13:34:41Z</time>
      </trkpt>
      <trkpt lat="36.091778" lon="-5.809202">
        <ele>53.64</ele>
        <time>2015-06-19T13:34:42Z</time>
      </trkpt>
      <trkpt lat="36.091762" lon="-5.809197">
        <ele>54.01</ele>
        <time>2015-06-19T13:34:43Z</time>
      </trkpt>
      <trkpt lat="36.091729" lon="-5.809201">
        <ele>54.05</ele>
        <time>2015-06-19T13:34:45Z</time>
      </trkpt>
      <trkpt lat="36.091692" lon="-5.809228">
        <ele>54.09</ele>
        <time>2015-06-19T13:34:48Z</time>
      </trkpt>
      <trkpt lat="36.091679" lon="-5.809232">
        <ele>54.42</ele>
        <time>2015-06-19T13:34:49Z</time>
      </trkpt>
      <trkpt lat="36.091666" lon="-5.809234">
        <ele>55.01</ele>
        <time>2015-06-19T13:34:50Z</time>
      </trkpt>
      <trkpt lat="36.091650" lon="-5.809237">
        <ele>55.43</ele>
        <time>2015-06-19T13:34:51Z</time>
      </trkpt>
      <trkpt lat="36.091633" lon="-5.809237">
        <ele>55.86</ele>
        <time>2015-06-19T13:34:52Z</time>
      </trkpt>
      <trkpt lat="36.091617" lon="-5.809236">
        <ele>56.25</ele>
        <time>2015-06-19T13:34:53Z</time>
      </trkpt>
      <trkpt lat="36.091583" lon="-5.809237">
        <ele>56.22</ele>
        <time>2015-06-19T13:34:55Z</time>
      </trkpt>
      <trkpt lat="36.091481" lon="-5.809236">
        <ele>56.21</ele>
        <time>2015-06-19T13:35:01Z</time>
      </trkpt>
      <trkpt lat="36.091464" lon="-5.809236">
        <ele>56.69</ele>
        <time>2015-06-19T13:35:02Z</time>
      </trkpt>
      <trkpt lat="36.091447" lon="-5.809232">
        <ele>57.25</ele>
        <time>2015-06-19T13:35:03Z</time>
      </trkpt>
      <trkpt lat="36.091430" lon="-5.809228">
        <ele>57.70</ele>
        <time>2015-06-19T13:35:04Z</time>
      </trkpt>
      <trkpt lat="36.091414" lon="-5.809227">
        <ele>58.03</ele>
        <time>2015-06-19T13:35:05Z</time>
      </trkpt>
      <trkpt lat="36.091397" lon="-5.809230">
        <ele>58.44</ele>
        <time>2015-06-19T13:35:06Z</time>
      </trkpt>
      <trkpt lat="36.091347" lon="-5.809232">
        <ele>58.47</ele>
        <time>2015-06-19T13:35:09Z</time>
      </trkpt>
      <trkpt lat="36.091330" lon="-5.809235">
        <ele>58.88</ele>
        <time>2015-06-19T13:35:10Z</time>
      </trkpt>
      <trkpt lat="36.091314" lon="-5.809235">
        <ele>59.29</ele>
        <time>2015-06-19T13:35:11Z</time>
      </trkpt>
      <trkpt lat="36.091300" lon="-5.809239">
        <ele>59.63</ele>
        <time>2015-06-19T13:35:12Z</time>
      </trkpt>
      <trkpt lat="36.091283" lon="-5.809243">
        <ele>60.05</ele>
        <time>2015-06-19T13:35:13Z</time>
      </trkpt>
      <trkpt lat="36.091268" lon="-5.809247">
        <ele>60.61</ele>
        <time>2015-06-19T13:35:14Z</time>
      </trkpt>
      <trkpt lat="36.091234" lon="-5.809252">
        <ele>60.61</ele>
        <time>2015-06-19T13:35:16Z</time>
      </trkpt>
      <trkpt lat="36.091121" lon="-5.809282">
        <ele>60.63</ele>
        <time>2015-06-19T13:35:22Z</time>
      </trkpt>
      <trkpt lat="36.091107" lon="-5.809300">
        <ele>60.66</ele>
        <time>2015-06-19T13:35:23Z</time>
      </trkpt>
      <trkpt lat="36.091089" lon="-5.809312">
        <ele>61.01</ele>
        <time>2015-06-19T13:35:24Z</time>
      </trkpt>
      <trkpt lat="36.091071" lon="-5.809326">
        <ele>61.45</ele>
        <time>2015-06-19T13:35:25Z</time>
      </trkpt>
      <trkpt lat="36.091051" lon="-5.809332">
        <ele>61.90</ele>
        <time>2015-06-19T13:35:26Z</time>
      </trkpt>
      <trkpt lat="36.091032" lon="-5.809340">
        <ele>62.43</ele>
        <time>2015-06-19T13:35:27Z</time>
      </trkpt>
      <trkpt lat="36.091013" lon="-5.809347">
        <ele>62.87</ele>
        <time>2015-06-19T13:35:28Z</time>
      </trkpt>
      <trkpt lat="36.090976" lon="-5.809377">
        <ele>62.88</ele>
        <time>2015-06-19T13:35:30Z</time>
      </trkpt>
      <trkpt lat="36.090883" lon="-5.809450">
        <ele>63.25</ele>
        <time>2015-06-19T13:35:35Z</time>
      </trkpt>
      <trkpt lat="36.090867" lon="-5.809462">
        <ele>63.60</ele>
        <time>2015-06-19T13:35:36Z</time>
      </trkpt>
      <trkpt lat="36.090853" lon="-5.809471">
        <ele>64.01</ele>
        <time>2015-06-19T13:35:37Z</time>
      </trkpt>
      <trkpt lat="36.090838" lon="-5.809483">
        <ele>64.41</ele>
        <time>2015-06-19T13:35:38Z</time>
      </trkpt>
      <trkpt lat="36.090824" lon="-5.809502">
        <ele>64.86</ele>
        <time>2015-06-19T13:35:39Z</time>
      </trkpt>
      <trkpt lat="36.090753" lon="-5.809578">
        <ele>64.84</ele>
        <time>2015-06-19T13:35:43Z</time>
      </trkpt>
      <trkpt lat="36.090703" lon="-5.809637">
        <ele>64.87</ele>
        <time>2015-06-19T13:35:46Z</time>
      </trkpt>
      <trkpt lat="36.090675" lon="-5.809696">
        <ele>64.81</ele>
        <time>2015-06-19T13:35:48Z</time>
      </trkpt>
      <trkpt lat="36.090577" lon="-5.809810">
        <ele>64.87</ele>
        <time>2015-06-19T13:35:52Z</time>
      </trkpt>
      <trkpt lat="36.090553" lon="-5.809840">
        <ele>64.87</ele>
        <time>2015-06-19T13:35:53Z</time>
      </trkpt>
      <trkpt lat="36.090485" lon="-5.809928">
        <ele>64.81</ele>
        <time>2015-06-19T13:35:56Z</time>
      </trkpt>
      <trkpt lat="36.090459" lon="-5.809983">
        <ele>64.84</ele>
        <time>2015-06-19T13:35:58Z</time>
      </trkpt>
      <trkpt lat="36.090435" lon="-5.810054">
        <ele>64.86</ele>
        <time>2015-06-19T13:36:00Z</time>
      </trkpt>
      <trkpt lat="36.090403" lon="-5.810114">
        <ele>64.48</ele>
        <time>2015-06-19T13:36:02Z</time>
      </trkpt>
      <trkpt lat="36.090385" lon="-5.810142">
        <ele>63.81</ele>
        <time>2015-06-19T13:36:03Z</time>
      </trkpt>
      <trkpt lat="36.090366" lon="-5.810176">
        <ele>63.41</ele>
        <time>2015-06-19T13:36:04Z</time>
      </trkpt>
      <trkpt lat="36.090351" lon="-5.810210">
        <ele>63.03</ele>
        <time>2015-06-19T13:36:05Z</time>
      </trkpt>
      <trkpt lat="36.090342" lon="-5.810244">
        <ele>62.68</ele>
        <time>2015-06-19T13:36:06Z</time>
      </trkpt>
      <trkpt lat="36.090310" lon="-5.810323">
        <ele>62.65</ele>
        <time>2015-06-19T13:36:09Z</time>
      </trkpt>
      <trkpt lat="36.090307" lon="-5.810355">
        <ele>62.63</ele>
        <time>2015-06-19T13:36:10Z</time>
      </trkpt>
      <trkpt lat="36.090308" lon="-5.810456">
        <ele>62.21</ele>
        <time>2015-06-19T13:36:13Z</time>
      </trkpt>
      <trkpt lat="36.090302" lon="-5.810487">
        <ele>61.69</ele>
        <time>2015-06-19T13:36:14Z</time>
      </trkpt>
      <trkpt lat="36.090298" lon="-5.810516">
        <ele>61.22</ele>
        <time>2015-06-19T13:36:15Z</time>
      </trkpt>
      <trkpt lat="36.090298" lon="-5.810543">
        <ele>60.89</ele>
        <time>2015-06-19T13:36:16Z</time>
      </trkpt>
      <trkpt lat="36.090296" lon="-5.810563">
        <ele>60.24</ele>
        <time>2015-06-19T13:36:17Z</time>
      </trkpt>
      <trkpt lat="36.090298" lon="-5.810580">
        <ele>59.82</ele>
        <time>2015-06-19T13:36:18Z</time>
      </trkpt>
      <trkpt lat="36.090297" lon="-5.810578">
        <ele>59.22</ele>
        <time>2015-06-19T13:36:19Z</time>
      </trkpt>
      <trkpt lat="36.090296" lon="-5.810578">
        <ele>58.81</ele>
        <time>2015-06-19T13:36:20Z</time>
      </trkpt>
      <trkpt lat="36.090296" lon="-5.810578">
        <ele>58.22</ele>
        <time>2015-06-19T13:36:21Z</time>
      </trkpt>
      <trkpt lat="36.090296" lon="-5.810578">
        <ele>58.22</ele>
        <time>2015-06-19T13:36:24Z</time>
      </trkpt>
      <trkpt lat="36.090296" lon="-5.810578">
        <ele>58.25</ele>
        <time>2015-06-19T13:36:26Z</time>
      </trkpt>
      <trkpt lat="36.090296" lon="-5.810578">
        <ele>58.29</ele>
        <time>2015-06-19T13:36:28Z</time>
      </trkpt>
      <trkpt lat="36.090296" lon="-5.810578">
        <ele>58.27</ele>
        <time>2015-06-19T13:36:30Z</time>
      </trkpt>
      <trkpt lat="36.090296" lon="-5.810578">
        <ele>58.25</ele>
        <time>2015-06-19T13:36:36Z</time>
      </trkpt>
      <trkpt lat="36.090296" lon="-5.810578">
        <ele>58.29</ele>
        <time>2015-06-19T13:36:39Z</time>
      </trkpt>
      <trkpt lat="36.090294" lon="-5.810579">
        <ele>58.30</ele>
        <time>2015-06-19T13:36:41Z</time>
      </trkpt>
      <trkpt lat="36.090297" lon="-5.810560">
        <ele>58.27</ele>
        <time>2015-06-19T13:36:43Z</time>
      </trkpt>
      <trkpt lat="36.090294" lon="-5.810533">
        <ele>58.28</ele>
        <time>2015-06-19T13:36:46Z</time>
      </trkpt>
      <trkpt lat="36.090305" lon="-5.810501">
        <ele>58.22</ele>
        <time>2015-06-19T13:36:52Z</time>
      </trkpt>
      <trkpt lat="36.090302" lon="-5.810478">
        <ele>58.21</ele>
        <time>2015-06-19T13:36:55Z</time>
      </trkpt>
      <trkpt lat="36.090314" lon="-5.810440">
        <ele>58.26</ele>
        <time>2015-06-19T13:36:59Z</time>
      </trkpt>
      <trkpt lat="36.090316" lon="-5.810434">
        <ele>58.21</ele>
        <time>2015-06-19T13:37:00Z</time>
      </trkpt>
      <trkpt lat="36.090329" lon="-5.810414">
        <ele>58.26</ele>
        <time>2015-06-19T13:37:07Z</time>
      </trkpt>
      <trkpt lat="36.090329" lon="-5.810414">
        <ele>58.27</ele>
        <time>2015-06-19T13:37:14Z</time>
      </trkpt>
      <trkpt lat="36.090329" lon="-5.810414">
        <ele>58.26</ele>
        <time>2015-06-19T13:37:17Z</time>
      </trkpt>
      <trkpt lat="36.090329" lon="-5.810414">
        <ele>58.21</ele>
        <time>2015-06-19T13:37:19Z</time>
      </trkpt>
      <trkpt lat="36.090329" lon="-5.810414">
        <ele>58.22</ele>
        <time>2015-06-19T13:37:22Z</time>
      </trkpt>
      <trkpt lat="36.090323" lon="-5.810405">
        <ele>58.28</ele>
        <time>2015-06-19T13:37:25Z</time>
      </trkpt>
      <trkpt lat="36.090322" lon="-5.810403">
        <ele>58.25</ele>
        <time>2015-06-19T13:37:26Z</time>
      </trkpt>
      <trkpt lat="36.090314" lon="-5.810403">
        <ele>58.26</ele>
        <time>2015-06-19T13:37:31Z</time>
      </trkpt>
      <trkpt lat="36.090292" lon="-5.810402">
        <ele>58.22</ele>
        <time>2015-06-19T13:37:33Z</time>
      </trkpt>
      <trkpt lat="36.090252" lon="-5.810374">
        <ele>58.21</ele>
        <time>2015-06-19T13:37:37Z</time>
      </trkpt>
      <trkpt lat="36.090242" lon="-5.810337">
        <ele>58.22</ele>
        <time>2015-06-19T13:37:39Z</time>
      </trkpt>
      <trkpt lat="36.090253" lon="-5.810306">
        <ele>58.27</ele>
        <time>2015-06-19T13:37:41Z</time>
      </trkpt>
      <trkpt lat="36.090280" lon="-5.810275">
        <ele>58.67</ele>
        <time>2015-06-19T13:37:43Z</time>
      </trkpt>
      <trkpt lat="36.090294" lon="-5.810262">
        <ele>59.01</ele>
        <time>2015-06-19T13:37:44Z</time>
      </trkpt>
      <trkpt lat="36.090310" lon="-5.810252">
        <ele>59.45</ele>
        <time>2015-06-19T13:37:45Z</time>
      </trkpt>
      <trkpt lat="36.090326" lon="-5.810243">
        <ele>59.86</ele>
        <time>2015-06-19T13:37:46Z</time>
      </trkpt>
      <trkpt lat="36.090342" lon="-5.810227">
        <ele>60.22</ele>
        <time>2015-06-19T13:37:47Z</time>
      </trkpt>
      <trkpt lat="36.090370" lon="-5.810169">
        <ele>60.27</ele>
        <time>2015-06-19T13:37:50Z</time>
      </trkpt>
      <trkpt lat="36.090397" lon="-5.810095">
        <ele>60.23</ele>
        <time>2015-06-19T13:37:54Z</time>
      </trkpt>
      <trkpt lat="36.090407" lon="-5.810077">
        <ele>60.85</ele>
        <time>2015-06-19T13:37:55Z</time>
      </trkpt>
      <trkpt lat="36.090420" lon="-5.810061">
        <ele>61.21</ele>
        <time>2015-06-19T13:37:56Z</time>
      </trkpt>
      <trkpt lat="36.090431" lon="-5.810041">
        <ele>61.61</ele>
        <time>2015-06-19T13:37:57Z</time>
      </trkpt>
      <trkpt lat="36.090439" lon="-5.810019">
        <ele>62.06</ele>
        <time>2015-06-19T13:37:58Z</time>
      </trkpt>
      <trkpt lat="36.090449" lon="-5.810000">
        <ele>62.46</ele>
        <time>2015-06-19T13:37:59Z</time>
      </trkpt>
      <trkpt lat="36.090461" lon="-5.809938">
        <ele>62.45</ele>
        <time>2015-06-19T13:38:02Z</time>
      </trkpt>
      <trkpt lat="36.090455" lon="-5.809916">
        <ele>62.42</ele>
        <time>2015-06-19T13:38:03Z</time>
      </trkpt>
      <trkpt lat="36.090421" lon="-5.809858">
        <ele>62.49</ele>
        <time>2015-06-19T13:38:06Z</time>
      </trkpt>
      <trkpt lat="36.090418" lon="-5.809832">
        <ele>62.48</ele>
        <time>2015-06-19T13:38:07Z</time>
      </trkpt>
      <trkpt lat="36.090411" lon="-5.809809">
        <ele>62.43</ele>
        <time>2015-06-19T13:38:08Z</time>
      </trkpt>
      <trkpt lat="36.090409" lon="-5.809785">
        <ele>63.09</ele>
        <time>2015-06-19T13:38:09Z</time>
      </trkpt>
      <trkpt lat="36.090411" lon="-5.809761">
        <ele>63.42</ele>
        <time>2015-06-19T13:38:10Z</time>
      </trkpt>
      <trkpt lat="36.090416" lon="-5.809743">
        <ele>63.81</ele>
        <time>2015-06-19T13:38:11Z</time>
      </trkpt>
      <trkpt lat="36.090425" lon="-5.809724">
        <ele>64.22</ele>
        <time>2015-06-19T13:38:12Z</time>
      </trkpt>
      <trkpt lat="36.090435" lon="-5.809702">
        <ele>64.81</ele>
        <time>2015-06-19T13:38:13Z</time>
      </trkpt>
      <trkpt lat="36.090453" lon="-5.809661">
        <ele>65.23</ele>
        <time>2015-06-19T13:38:15Z</time>
      </trkpt>
      <trkpt lat="36.090466" lon="-5.809640">
        <ele>65.68</ele>
        <time>2015-06-19T13:38:16Z</time>
      </trkpt>
      <trkpt lat="36.090479" lon="-5.809616">
        <ele>66.08</ele>
        <time>2015-06-19T13:38:17Z</time>
      </trkpt>
      <trkpt lat="36.090487" lon="-5.809595">
        <ele>66.48</ele>
        <time>2015-06-19T13:38:18Z</time>
      </trkpt>
      <trkpt lat="36.090490" lon="-5.809572">
        <ele>66.89</ele>
        <time>2015-06-19T13:38:19Z</time>
      </trkpt>
      <trkpt lat="36.090495" lon="-5.809551">
        <ele>66.84</ele>
        <time>2015-06-19T13:38:20Z</time>
      </trkpt>
      <trkpt lat="36.090554" lon="-5.809387">
        <ele>66.85</ele>
        <time>2015-06-19T13:38:26Z</time>
      </trkpt>
      <trkpt lat="36.090646" lon="-5.809209">
        <ele>66.87</ele>
        <time>2015-06-19T13:38:34Z</time>
      </trkpt>
      <trkpt lat="36.090726" lon="-5.809076">
        <ele>67.23</ele>
        <time>2015-06-19T13:38:40Z</time>
      </trkpt>
      <trkpt lat="36.090741" lon="-5.809049">
        <ele>67.65</ele>
        <time>2015-06-19T13:38:41Z</time>
      </trkpt>
      <trkpt lat="36.090755" lon="-5.809025">
        <ele>68.01</ele>
        <time>2015-06-19T13:38:42Z</time>
      </trkpt>
      <trkpt lat="36.090771" lon="-5.808995">
        <ele>68.41</ele>
        <time>2015-06-19T13:38:43Z</time>
      </trkpt>
      <trkpt lat="36.090789" lon="-5.808968">
        <ele>68.88</ele>
        <time>2015-06-19T13:38:44Z</time>
      </trkpt>
      <trkpt lat="36.090835" lon="-5.808873">
        <ele>68.84</ele>
        <time>2015-06-19T13:38:47Z</time>
      </trkpt>
      <trkpt lat="36.090944" lon="-5.808689">
        <ele>68.87</ele>
        <time>2015-06-19T13:38:54Z</time>
      </trkpt>
      <trkpt lat="36.091041" lon="-5.808591">
        <ele>68.81</ele>
        <time>2015-06-19T13:39:00Z</time>
      </trkpt>
      <trkpt lat="36.091129" lon="-5.808551">
        <ele>68.90</ele>
        <time>2015-06-19T13:39:06Z</time>
      </trkpt>
      <trkpt lat="36.091141" lon="-5.808543">
        <ele>69.30</ele>
        <time>2015-06-19T13:39:07Z</time>
      </trkpt>
      <trkpt lat="36.091159" lon="-5.808532">
        <ele>69.69</ele>
        <time>2015-06-19T13:39:08Z</time>
      </trkpt>
      <trkpt lat="36.091178" lon="-5.808522">
        <ele>70.03</ele>
        <time>2015-06-19T13:39:09Z</time>
      </trkpt>
      <trkpt lat="36.091195" lon="-5.808508">
        <ele>70.50</ele>
        <time>2015-06-19T13:39:10Z</time>
      </trkpt>
      <trkpt lat="36.091212" lon="-5.808499">
        <ele>70.83</ele>
        <time>2015-06-19T13:39:11Z</time>
      </trkpt>
      <trkpt lat="36.091230" lon="-5.808489">
        <ele>70.82</ele>
        <time>2015-06-19T13:39:12Z</time>
      </trkpt>
      <trkpt lat="36.091295" lon="-5.808446">
        <ele>71.41</ele>
        <time>2015-06-19T13:39:16Z</time>
      </trkpt>
      <trkpt lat="36.091310" lon="-5.808436">
        <ele>71.83</ele>
        <time>2015-06-19T13:39:17Z</time>
      </trkpt>
      <trkpt lat="36.091327" lon="-5.808424">
        <ele>72.23</ele>
        <time>2015-06-19T13:39:18Z</time>
      </trkpt>
      <trkpt lat="36.091346" lon="-5.808411">
        <ele>72.66</ele>
        <time>2015-06-19T13:39:19Z</time>
      </trkpt>
      <trkpt lat="36.091361" lon="-5.808397">
        <ele>73.06</ele>
        <time>2015-06-19T13:39:20Z</time>
      </trkpt>
      <trkpt lat="36.091404" lon="-5.808316">
        <ele>73.48</ele>
        <time>2015-06-19T13:39:24Z</time>
      </trkpt>
      <trkpt lat="36.091414" lon="-5.808297">
        <ele>73.83</ele>
        <time>2015-06-19T13:39:25Z</time>
      </trkpt>
      <trkpt lat="36.091421" lon="-5.808278">
        <ele>74.23</ele>
        <time>2015-06-19T13:39:26Z</time>
      </trkpt>
      <trkpt lat="36.091430" lon="-5.808260">
        <ele>74.62</ele>
        <time>2015-06-19T13:39:27Z</time>
      </trkpt>
      <trkpt lat="36.091435" lon="-5.808242">
        <ele>75.02</ele>
        <time>2015-06-19T13:39:28Z</time>
      </trkpt>
      <trkpt lat="36.091466" lon="-5.808161">
        <ele>75.48</ele>
        <time>2015-06-19T13:39:32Z</time>
      </trkpt>
      <trkpt lat="36.091471" lon="-5.808140">
        <ele>75.81</ele>
        <time>2015-06-19T13:39:33Z</time>
      </trkpt>
      <trkpt lat="36.091477" lon="-5.808119">
        <ele>76.21</ele>
        <time>2015-06-19T13:39:34Z</time>
      </trkpt>
      <trkpt lat="36.091483" lon="-5.808096">
        <ele>76.62</ele>
        <time>2015-06-19T13:39:35Z</time>
      </trkpt>
      <trkpt lat="36.091490" lon="-5.808078">
        <ele>77.03</ele>
        <time>2015-06-19T13:39:36Z</time>
      </trkpt>
      <trkpt lat="36.091524" lon="-5.807954">
        <ele>77.05</ele>
        <time>2015-06-19T13:39:42Z</time>
      </trkpt>
      <trkpt lat="36.091528" lon="-5.807909">
        <ele>77.46</ele>
        <time>2015-06-19T13:39:44Z</time>
      </trkpt>
      <trkpt lat="36.091526" lon="-5.807885">
        <ele>77.85</ele>
        <time>2015-06-19T13:39:45Z</time>
      </trkpt>
      <trkpt lat="36.091527" lon="-5.807862">
        <ele>78.27</ele>
        <time>2015-06-19T13:39:46Z</time>
      </trkpt>
      <trkpt lat="36.091527" lon="-5.807840">
        <ele>78.68</ele>
        <time>2015-06-19T13:39:47Z</time>
      </trkpt>
      <trkpt lat="36.091530" lon="-5.807812">
        <ele>79.06</ele>
        <time>2015-06-19T13:39:48Z</time>
      </trkpt>
      <trkpt lat="36.091534" lon="-5.807785">
        <ele>79.08</ele>
        <time>2015-06-19T13:39:49Z</time>
      </trkpt>
      <trkpt lat="36.091567" lon="-5.807650">
        <ele>79.49</ele>
        <time>2015-06-19T13:39:55Z</time>
      </trkpt>
      <trkpt lat="36.091567" lon="-5.807627">
        <ele>79.82</ele>
        <time>2015-06-19T13:39:56Z</time>
      </trkpt>
      <trkpt lat="36.091572" lon="-5.807605">
        <ele>80.41</ele>
        <time>2015-06-19T13:39:57Z</time>
      </trkpt>
      <trkpt lat="36.091572" lon="-5.807578">
        <ele>80.82</ele>
        <time>2015-06-19T13:39:58Z</time>
      </trkpt>
      <trkpt lat="36.091577" lon="-5.807556">
        <ele>81.30</ele>
        <time>2015-06-19T13:39:59Z</time>
      </trkpt>
      <trkpt lat="36.091587" lon="-5.807465">
        <ele>81.27</ele>
        <time>2015-06-19T13:40:03Z</time>
      </trkpt>
      <trkpt lat="36.091618" lon="-5.807266">
        <ele>81.63</ele>
        <time>2015-06-19T13:40:11Z</time>
      </trkpt>
      <trkpt lat="36.091618" lon="-5.807241">
        <ele>82.05</ele>
        <time>2015-06-19T13:40:12Z</time>
      </trkpt>
      <trkpt lat="36.091618" lon="-5.807219">
        <ele>82.49</ele>
        <time>2015-06-19T13:40:13Z</time>
      </trkpt>
      <trkpt lat="36.091620" lon="-5.807198">
        <ele>82.90</ele>
        <time>2015-06-19T13:40:14Z</time>
      </trkpt>
      <trkpt lat="36.091626" lon="-5.807176">
        <ele>83.26</ele>
        <time>2015-06-19T13:40:15Z</time>
      </trkpt>
      <trkpt lat="36.091638" lon="-5.807125">
        <ele>83.27</ele>
        <time>2015-06-19T13:40:17Z</time>
      </trkpt>
      <trkpt lat="36.091696" lon="-5.807010">
        <ele>83.27</ele>
        <time>2015-06-19T13:40:22Z</time>
      </trkpt>
      <trkpt lat="36.091805" lon="-5.806900">
        <ele>83.21</ele>
        <time>2015-06-19T13:40:29Z</time>
      </trkpt>
      <trkpt lat="36.091818" lon="-5.806888">
        <ele>83.61</ele>
        <time>2015-06-19T13:40:30Z</time>
      </trkpt>
      <trkpt lat="36.091837" lon="-5.806876">
        <ele>84.03</ele>
        <time>2015-06-19T13:40:31Z</time>
      </trkpt>
      <trkpt lat="36.091854" lon="-5.806866">
        <ele>84.44</ele>
        <time>2015-06-19T13:40:32Z</time>
      </trkpt>
      <trkpt lat="36.091870" lon="-5.806854">
        <ele>85.02</ele>
        <time>2015-06-19T13:40:33Z</time>
      </trkpt>
      <trkpt lat="36.091887" lon="-5.806839">
        <ele>85.45</ele>
        <time>2015-06-19T13:40:34Z</time>
      </trkpt>
      <trkpt lat="36.091906" lon="-5.806832">
        <ele>85.48</ele>
        <time>2015-06-19T13:40:35Z</time>
      </trkpt>
      <trkpt lat="36.091964" lon="-5.806763">
        <ele>85.83</ele>
        <time>2015-06-19T13:40:39Z</time>
      </trkpt>
      <trkpt lat="36.091978" lon="-5.806742">
        <ele>86.22</ele>
        <time>2015-06-19T13:40:40Z</time>
      </trkpt>
      <trkpt lat="36.091995" lon="-5.806723">
        <ele>86.90</ele>
        <time>2015-06-19T13:40:41Z</time>
      </trkpt>
      <trkpt lat="36.092011" lon="-5.806701">
        <ele>87.26</ele>
        <time>2015-06-19T13:40:42Z</time>
      </trkpt>
      <trkpt lat="36.092025" lon="-5.806679">
        <ele>87.82</ele>
        <time>2015-06-19T13:40:43Z</time>
      </trkpt>
      <trkpt lat="36.092098" lon="-5.806583">
        <ele>87.81</ele>
        <time>2015-06-19T13:40:48Z</time>
      </trkpt>
      <trkpt lat="36.092183" lon="-5.806462">
        <ele>88.61</ele>
        <time>2015-06-19T13:40:54Z</time>
      </trkpt>
      <trkpt lat="36.092193" lon="-5.806440">
        <ele>89.03</ele>
        <time>2015-06-19T13:40:55Z</time>
      </trkpt>
      <trkpt lat="36.092200" lon="-5.806414">
        <ele>89.49</ele>
        <time>2015-06-19T13:40:56Z</time>
      </trkpt>
      <trkpt lat="36.092207" lon="-5.806389">
        <ele>89.83</ele>
        <time>2015-06-19T13:40:57Z</time>
      </trkpt>
      <trkpt lat="36.092235" lon="-5.806266">
        <ele>89.82</ele>
        <time>2015-06-19T13:41:02Z</time>
      </trkpt>
      <trkpt lat="36.092237" lon="-5.806238">
        <ele>89.85</ele>
        <time>2015-06-19T13:41:03Z</time>
      </trkpt>
      <trkpt lat="36.092266" lon="-5.806079">
        <ele>89.85</ele>
        <time>2015-06-19T13:41:09Z</time>
      </trkpt>
      <trkpt lat="36.092276" lon="-5.806055">
        <ele>90.27</ele>
        <time>2015-06-19T13:41:10Z</time>
      </trkpt>
      <trkpt lat="36.092285" lon="-5.806030">
        <ele>90.70</ele>
        <time>2015-06-19T13:41:11Z</time>
      </trkpt>
      <trkpt lat="36.092294" lon="-5.806001">
        <ele>91.27</ele>
        <time>2015-06-19T13:41:12Z</time>
      </trkpt>
      <trkpt lat="36.092305" lon="-5.805977">
        <ele>91.64</ele>
        <time>2015-06-19T13:41:13Z</time>
      </trkpt>
      <trkpt lat="36.092316" lon="-5.805953">
        <ele>92.02</ele>
        <time>2015-06-19T13:41:14Z</time>
      </trkpt>
      <trkpt lat="36.092351" lon="-5.805880">
        <ele>92.01</ele>
        <time>2015-06-19T13:41:17Z</time>
      </trkpt>
      <trkpt lat="36.092438" lon="-5.805715">
        <ele>92.05</ele>
        <time>2015-06-19T13:41:25Z</time>
      </trkpt>
      <trkpt lat="36.092493" lon="-5.805584">
        <ele>92.03</ele>
        <time>2015-06-19T13:41:31Z</time>
      </trkpt>
      <trkpt lat="36.092557" lon="-5.805416">
        <ele>92.07</ele>
        <time>2015-06-19T13:41:39Z</time>
      </trkpt>
      <trkpt lat="36.092565" lon="-5.805396">
        <ele>92.43</ele>
        <time>2015-06-19T13:41:40Z</time>
      </trkpt>
      <trkpt lat="36.092572" lon="-5.805384">
        <ele>93.01</ele>
        <time>2015-06-19T13:41:41Z</time>
      </trkpt>
      <trkpt lat="36.092580" lon="-5.805371">
        <ele>93.42</ele>
        <time>2015-06-19T13:41:42Z</time>
      </trkpt>
      <trkpt lat="36.092593" lon="-5.805364">
        <ele>94.45</ele>
        <time>2015-06-19T13:41:43Z</time>
      </trkpt>
      <trkpt lat="36.092615" lon="-5.805336">
        <ele>94.42</ele>
        <time>2015-06-19T13:41:45Z</time>
      </trkpt>
      <trkpt lat="36.092688" lon="-5.805260">
        <ele>94.47</ele>
        <time>2015-06-19T13:41:51Z</time>
      </trkpt>
      <trkpt lat="36.092702" lon="-5.805253">
        <ele>94.80</ele>
        <time>2015-06-19T13:41:52Z</time>
      </trkpt>
      <trkpt lat="36.092711" lon="-5.805242">
        <ele>95.22</ele>
        <time>2015-06-19T13:41:53Z</time>
      </trkpt>
      <trkpt lat="36.092723" lon="-5.805230">
        <ele>95.61</ele>
        <time>2015-06-19T13:41:54Z</time>
      </trkpt>
      <trkpt lat="36.092736" lon="-5.805218">
        <ele>96.08</ele>
        <time>2015-06-19T13:41:55Z</time>
      </trkpt>
      <trkpt lat="36.092748" lon="-5.805208">
        <ele>96.41</ele>
        <time>2015-06-19T13:41:56Z</time>
      </trkpt>
      <trkpt lat="36.092789" lon="-5.805162">
        <ele>96.46</ele>
        <time>2015-06-19T13:41:59Z</time>
      </trkpt>
      <trkpt lat="36.092816" lon="-5.805141">
        <ele>96.84</ele>
        <time>2015-06-19T13:42:01Z</time>
      </trkpt>
      <trkpt lat="36.092826" lon="-5.805126">
        <ele>97.24</ele>
        <time>2015-06-19T13:42:02Z</time>
      </trkpt>
      <trkpt lat="36.092841" lon="-5.805111">
        <ele>97.81</ele>
        <time>2015-06-19T13:42:03Z</time>
      </trkpt>
      <trkpt lat="36.092854" lon="-5.805099">
        <ele>98.28</ele>
        <time>2015-06-19T13:42:04Z</time>
      </trkpt>
      <trkpt lat="36.092862" lon="-5.805089">
        <ele>98.70</ele>
        <time>2015-06-19T13:42:05Z</time>
      </trkpt>
      <trkpt lat="36.092907" lon="-5.805028">
        <ele>98.63</ele>
        <time>2015-06-19T13:42:10Z</time>
      </trkpt>
      <trkpt lat="36.092919" lon="-5.805013">
        <ele>99.07</ele>
        <time>2015-06-19T13:42:11Z</time>
      </trkpt>
      <trkpt lat="36.092932" lon="-5.804997">
        <ele>99.41</ele>
        <time>2015-06-19T13:42:12Z</time>
      </trkpt>
      <trkpt lat="36.092942" lon="-5.804980">
        <ele>99.81</ele>
        <time>2015-06-19T13:42:13Z</time>
      </trkpt>
      <trkpt lat="36.092949" lon="-5.804965">
        <ele>100.21</ele>
        <time>2015-06-19T13:42:14Z</time>
      </trkpt>
      <trkpt lat="36.092956" lon="-5.804951">
        <ele>100.62</ele>
        <time>2015-06-19T13:42:15Z</time>
      </trkpt>
      <trkpt lat="36.092969" lon="-5.804918">
        <ele>100.62</ele>
        <time>2015-06-19T13:42:17Z</time>
      </trkpt>
      <trkpt lat="36.093013" lon="-5.804839">
        <ele>101.04</ele>
        <time>2015-06-19T13:42:22Z</time>
      </trkpt>
      <trkpt lat="36.093020" lon="-5.804824">
        <ele>101.67</ele>
        <time>2015-06-19T13:42:23Z</time>
      </trkpt>
      <trkpt lat="36.093027" lon="-5.804807">
        <ele>102.05</ele>
        <time>2015-06-19T13:42:24Z</time>
      </trkpt>
      <trkpt lat="36.093035" lon="-5.804791">
        <ele>102.43</ele>
        <time>2015-06-19T13:42:25Z</time>
      </trkpt>
      <trkpt lat="36.093044" lon="-5.804778">
        <ele>103.06</ele>
        <time>2015-06-19T13:42:26Z</time>
      </trkpt>
      <trkpt lat="36.093113" lon="-5.804678">
        <ele>103.08</ele>
        <time>2015-06-19T13:42:33Z</time>
      </trkpt>
      <trkpt lat="36.093127" lon="-5.804659">
        <ele>103.46</ele>
        <time>2015-06-19T13:42:34Z</time>
      </trkpt>
      <trkpt lat="36.093139" lon="-5.804643">
        <ele>103.82</ele>
        <time>2015-06-19T13:42:35Z</time>
      </trkpt>
      <trkpt lat="36.093153" lon="-5.804630">
        <ele>104.21</ele>
        <time>2015-06-19T13:42:36Z</time>
      </trkpt>
      <trkpt lat="36.093162" lon="-5.804614">
        <ele>104.64</ele>
        <time>2015-06-19T13:42:37Z</time>
      </trkpt>
      <trkpt lat="36.093171" lon="-5.804604">
        <ele>105.08</ele>
        <time>2015-06-19T13:42:38Z</time>
      </trkpt>
      <trkpt lat="36.093180" lon="-5.804594">
        <ele>105.09</ele>
        <time>2015-06-19T13:42:39Z</time>
      </trkpt>
      <trkpt lat="36.093230" lon="-5.804507">
        <ele>105.09</ele>
        <time>2015-06-19T13:42:45Z</time>
      </trkpt>
      <trkpt lat="36.093238" lon="-5.804478">
        <ele>105.43</ele>
        <time>2015-06-19T13:42:47Z</time>
      </trkpt>
      <trkpt lat="36.093242" lon="-5.804464">
        <ele>105.85</ele>
        <time>2015-06-19T13:42:48Z</time>
      </trkpt>
      <trkpt lat="36.093241" lon="-5.804443">
        <ele>106.24</ele>
        <time>2015-06-19T13:42:49Z</time>
      </trkpt>
      <trkpt lat="36.093241" lon="-5.804415">
        <ele>106.68</ele>
        <time>2015-06-19T13:42:50Z</time>
      </trkpt>
      <trkpt lat="36.093244" lon="-5.804385">
        <ele>107.03</ele>
        <time>2015-06-19T13:42:51Z</time>
      </trkpt>
      <trkpt lat="36.093287" lon="-5.804243">
        <ele>107.00</ele>
        <time>2015-06-19T13:42:57Z</time>
      </trkpt>
      <trkpt lat="36.093370" lon="-5.804113">
        <ele>107.02</ele>
        <time>2015-06-19T13:43:05Z</time>
      </trkpt>
      <trkpt lat="36.093408" lon="-5.804063">
        <ele>107.41</ele>
        <time>2015-06-19T13:43:08Z</time>
      </trkpt>
      <trkpt lat="36.093420" lon="-5.804047">
        <ele>107.87</ele>
        <time>2015-06-19T13:43:09Z</time>
      </trkpt>
      <trkpt lat="36.093431" lon="-5.804033">
        <ele>108.29</ele>
        <time>2015-06-19T13:43:10Z</time>
      </trkpt>
      <trkpt lat="36.093443" lon="-5.804019">
        <ele>108.68</ele>
        <time>2015-06-19T13:43:11Z</time>
      </trkpt>
      <trkpt lat="36.093455" lon="-5.804005">
        <ele>109.05</ele>
        <time>2015-06-19T13:43:12Z</time>
      </trkpt>
      <trkpt lat="36.093476" lon="-5.803981">
        <ele>109.08</ele>
        <time>2015-06-19T13:43:14Z</time>
      </trkpt>
      <trkpt lat="36.093568" lon="-5.803901">
        <ele>109.05</ele>
        <time>2015-06-19T13:43:21Z</time>
      </trkpt>
      <trkpt lat="36.093695" lon="-5.803820">
        <ele>109.04</ele>
        <time>2015-06-19T13:43:28Z</time>
      </trkpt>
      <trkpt lat="36.093711" lon="-5.803806">
        <ele>109.47</ele>
        <time>2015-06-19T13:43:29Z</time>
      </trkpt>
      <trkpt lat="36.093721" lon="-5.803786">
        <ele>109.84</ele>
        <time>2015-06-19T13:43:30Z</time>
      </trkpt>
      <trkpt lat="36.093728" lon="-5.803765">
        <ele>110.22</ele>
        <time>2015-06-19T13:43:31Z</time>
      </trkpt>
      <trkpt lat="36.093735" lon="-5.803744">
        <ele>110.62</ele>
        <time>2015-06-19T13:43:32Z</time>
      </trkpt>
      <trkpt lat="36.093744" lon="-5.803721">
        <ele>111.21</ele>
        <time>2015-06-19T13:43:33Z</time>
      </trkpt>
      <trkpt lat="36.093753" lon="-5.803699">
        <ele>111.29</ele>
        <time>2015-06-19T13:43:34Z</time>
      </trkpt>
      <trkpt lat="36.093808" lon="-5.803577">
        <ele>111.25</ele>
        <time>2015-06-19T13:43:40Z</time>
      </trkpt>
      <trkpt lat="36.093817" lon="-5.803554">
        <ele>111.63</ele>
        <time>2015-06-19T13:43:41Z</time>
      </trkpt>
      <trkpt lat="36.093829" lon="-5.803532">
        <ele>112.03</ele>
        <time>2015-06-19T13:43:42Z</time>
      </trkpt>
      <trkpt lat="36.093839" lon="-5.803511">
        <ele>112.46</ele>
        <time>2015-06-19T13:43:43Z</time>
      </trkpt>
      <trkpt lat="36.093851" lon="-5.803491">
        <ele>113.04</ele>
        <time>2015-06-19T13:43:44Z</time>
      </trkpt>
      <trkpt lat="36.093861" lon="-5.803472">
        <ele>113.41</ele>
        <time>2015-06-19T13:43:45Z</time>
      </trkpt>
      <trkpt lat="36.093878" lon="-5.803404">
        <ele>113.47</ele>
        <time>2015-06-19T13:43:48Z</time>
      </trkpt>
      <trkpt lat="36.093917" lon="-5.803338">
        <ele>113.47</ele>
        <time>2015-06-19T13:43:53Z</time>
      </trkpt>
      <trkpt lat="36.093969" lon="-5.803268">
        <ele>113.83</ele>
        <time>2015-06-19T13:43:57Z</time>
      </trkpt>
      <trkpt lat="36.093977" lon="-5.803240">
        <ele>114.42</ele>
        <time>2015-06-19T13:43:58Z</time>
      </trkpt>
      <trkpt lat="36.093989" lon="-5.803217">
        <ele>114.81</ele>
        <time>2015-06-19T13:43:59Z</time>
      </trkpt>
      <trkpt lat="36.094001" lon="-5.803196">
        <ele>115.23</ele>
        <time>2015-06-19T13:44:00Z</time>
      </trkpt>
      <trkpt lat="36.094008" lon="-5.803173">
        <ele>115.84</ele>
        <time>2015-06-19T13:44:01Z</time>
      </trkpt>
      <trkpt lat="36.094050" lon="-5.803023">
        <ele>115.87</ele>
        <time>2015-06-19T13:44:07Z</time>
      </trkpt>
      <trkpt lat="36.094053" lon="-5.802857">
        <ele>115.82</ele>
        <time>2015-06-19T13:44:12Z</time>
      </trkpt>
      <trkpt lat="36.094079" lon="-5.802621">
        <ele>115.89</ele>
        <time>2015-06-19T13:44:18Z</time>
      </trkpt>
      <trkpt lat="36.094141" lon="-5.802354">
        <ele>115.89</ele>
        <time>2015-06-19T13:44:25Z</time>
      </trkpt>
      <trkpt lat="36.094148" lon="-5.802324">
        <ele>115.82</ele>
        <time>2015-06-19T13:44:26Z</time>
      </trkpt>
      <trkpt lat="36.094216" lon="-5.802054">
        <ele>115.84</ele>
        <time>2015-06-19T13:44:33Z</time>
      </trkpt>
      <trkpt lat="36.094228" lon="-5.802014">
        <ele>115.81</ele>
        <time>2015-06-19T13:44:34Z</time>
      </trkpt>
      <trkpt lat="36.094272" lon="-5.801846">
        <ele>115.84</ele>
        <time>2015-06-19T13:44:38Z</time>
      </trkpt>
      <trkpt lat="36.094298" lon="-5.801716">
        <ele>115.81</ele>
        <time>2015-06-19T13:44:41Z</time>
      </trkpt>
      <trkpt lat="36.094341" lon="-5.801537">
        <ele>115.81</ele>
        <time>2015-06-19T13:44:46Z</time>
      </trkpt>
      <trkpt lat="36.094358" lon="-5.801468">
        <ele>115.82</ele>
        <time>2015-06-19T13:44:48Z</time>
      </trkpt>
      <trkpt lat="36.094442" lon="-5.801158">
        <ele>115.82</ele>
        <time>2015-06-19T13:44:56Z</time>
      </trkpt>
      <trkpt lat="36.094514" lon="-5.800886">
        <ele>115.86</ele>
        <time>2015-06-19T13:45:03Z</time>
      </trkpt>
      <trkpt lat="36.094554" lon="-5.800710">
        <ele>115.89</ele>
        <time>2015-06-19T13:45:07Z</time>
      </trkpt>
      <trkpt lat="36.094572" lon="-5.800625">
        <ele>115.82</ele>
        <time>2015-06-19T13:45:09Z</time>
      </trkpt>
      <trkpt lat="36.094613" lon="-5.800487">
        <ele>115.86</ele>
        <time>2015-06-19T13:45:13Z</time>
      </trkpt>
      <trkpt lat="36.094629" lon="-5.800427">
        <ele>115.86</ele>
        <time>2015-06-19T13:45:15Z</time>
      </trkpt>
      <trkpt lat="36.094667" lon="-5.800321">
        <ele>115.86</ele>
        <time>2015-06-19T13:45:19Z</time>
      </trkpt>
      <trkpt lat="36.094677" lon="-5.800273">
        <ele>115.87</ele>
        <time>2015-06-19T13:45:21Z</time>
      </trkpt>
      <trkpt lat="36.094708" lon="-5.800139">
        <ele>115.89</ele>
        <time>2015-06-19T13:45:26Z</time>
      </trkpt>
      <trkpt lat="36.094715" lon="-5.800111">
        <ele>116.21</ele>
        <time>2015-06-19T13:45:27Z</time>
      </trkpt>
      <trkpt lat="36.094721" lon="-5.800081">
        <ele>116.61</ele>
        <time>2015-06-19T13:45:28Z</time>
      </trkpt>
      <trkpt lat="36.094726" lon="-5.800055">
        <ele>117.05</ele>
        <time>2015-06-19T13:45:29Z</time>
      </trkpt>
      <trkpt lat="36.094729" lon="-5.800028">
        <ele>117.45</ele>
        <time>2015-06-19T13:45:30Z</time>
      </trkpt>
      <trkpt lat="36.094733" lon="-5.800002">
        <ele>117.87</ele>
        <time>2015-06-19T13:45:31Z</time>
      </trkpt>
      <trkpt lat="36.094759" lon="-5.799868">
        <ele>117.85</ele>
        <time>2015-06-19T13:45:36Z</time>
      </trkpt>
      <trkpt lat="36.094769" lon="-5.799815">
        <ele>118.21</ele>
        <time>2015-06-19T13:45:38Z</time>
      </trkpt>
      <trkpt lat="36.094775" lon="-5.799786">
        <ele>118.66</ele>
        <time>2015-06-19T13:45:39Z</time>
      </trkpt>
      <trkpt lat="36.094780" lon="-5.799759">
        <ele>119.09</ele>
        <time>2015-06-19T13:45:40Z</time>
      </trkpt>
      <trkpt lat="36.094785" lon="-5.799735">
        <ele>119.45</ele>
        <time>2015-06-19T13:45:41Z</time>
      </trkpt>
      <trkpt lat="36.094790" lon="-5.799715">
        <ele>119.86</ele>
        <time>2015-06-19T13:45:42Z</time>
      </trkpt>
      <trkpt lat="36.094802" lon="-5.799647">
        <ele>119.84</ele>
        <time>2015-06-19T13:45:45Z</time>
      </trkpt>
      <trkpt lat="36.094826" lon="-5.799552">
        <ele>120.22</ele>
        <time>2015-06-19T13:45:49Z</time>
      </trkpt>
      <trkpt lat="36.094835" lon="-5.799527">
        <ele>121.21</ele>
        <time>2015-06-19T13:45:50Z</time>
      </trkpt>
      <trkpt lat="36.094842" lon="-5.799496">
        <ele>121.64</ele>
        <time>2015-06-19T13:45:51Z</time>
      </trkpt>
      <trkpt lat="36.094851" lon="-5.799473">
        <ele>122.09</ele>
        <time>2015-06-19T13:45:52Z</time>
      </trkpt>
      <trkpt lat="36.094860" lon="-5.799427">
        <ele>122.07</ele>
        <time>2015-06-19T13:45:54Z</time>
      </trkpt>
      <trkpt lat="36.094879" lon="-5.799325">
        <ele>122.48</ele>
        <time>2015-06-19T13:45:58Z</time>
      </trkpt>
      <trkpt lat="36.094885" lon="-5.799295">
        <ele>123.08</ele>
        <time>2015-06-19T13:45:59Z</time>
      </trkpt>
      <trkpt lat="36.094888" lon="-5.799266">
        <ele>123.46</ele>
        <time>2015-06-19T13:46:00Z</time>
      </trkpt>
      <trkpt lat="36.094891" lon="-5.799242">
        <ele>123.84</ele>
        <time>2015-06-19T13:46:01Z</time>
      </trkpt>
      <trkpt lat="36.094891" lon="-5.799211">
        <ele>124.47</ele>
        <time>2015-06-19T13:46:02Z</time>
      </trkpt>
      <trkpt lat="36.094918" lon="-5.799036">
        <ele>124.46</ele>
        <time>2015-06-19T13:46:08Z</time>
      </trkpt>
      <trkpt lat="36.094932" lon="-5.798984">
        <ele>124.85</ele>
        <time>2015-06-19T13:46:10Z</time>
      </trkpt>
      <trkpt lat="36.094937" lon="-5.798956">
        <ele>125.22</ele>
        <time>2015-06-19T13:46:11Z</time>
      </trkpt>
      <trkpt lat="36.094944" lon="-5.798926">
        <ele>125.61</ele>
        <time>2015-06-19T13:46:12Z</time>
      </trkpt>
      <trkpt lat="36.094951" lon="-5.798899">
        <ele>126.30</ele>
        <time>2015-06-19T13:46:13Z</time>
      </trkpt>
      <trkpt lat="36.094960" lon="-5.798873">
        <ele>126.62</ele>
        <time>2015-06-19T13:46:14Z</time>
      </trkpt>
      <trkpt lat="36.094969" lon="-5.798824">
        <ele>126.67</ele>
        <time>2015-06-19T13:46:16Z</time>
      </trkpt>
      <trkpt lat="36.095005" lon="-5.798698">
        <ele>126.61</ele>
        <time>2015-06-19T13:46:22Z</time>
      </trkpt>
      <trkpt lat="36.095049" lon="-5.798534">
        <ele>126.69</ele>
        <time>2015-06-19T13:46:29Z</time>
      </trkpt>
      <trkpt lat="36.095056" lon="-5.798511">
        <ele>127.04</ele>
        <time>2015-06-19T13:46:30Z</time>
      </trkpt>
      <trkpt lat="36.095061" lon="-5.798483">
        <ele>127.47</ele>
        <time>2015-06-19T13:46:31Z</time>
      </trkpt>
      <trkpt lat="36.095067" lon="-5.798463">
        <ele>127.87</ele>
        <time>2015-06-19T13:46:32Z</time>
      </trkpt>
      <trkpt lat="36.095073" lon="-5.798443">
        <ele>128.22</ele>
        <time>2015-06-19T13:46:33Z</time>
      </trkpt>
      <trkpt lat="36.095077" lon="-5.798420">
        <ele>128.68</ele>
        <time>2015-06-19T13:46:34Z</time>
      </trkpt>
      <trkpt lat="36.095081" lon="-5.798365">
        <ele>128.61</ele>
        <time>2015-06-19T13:46:36Z</time>
      </trkpt>
      <trkpt lat="36.095104" lon="-5.798190">
        <ele>128.61</ele>
        <time>2015-06-19T13:46:43Z</time>
      </trkpt>
      <trkpt lat="36.095112" lon="-5.798162">
        <ele>129.06</ele>
        <time>2015-06-19T13:46:44Z</time>
      </trkpt>
      <trkpt lat="36.095117" lon="-5.798137">
        <ele>129.48</ele>
        <time>2015-06-19T13:46:45Z</time>
      </trkpt>
      <trkpt lat="36.095120" lon="-5.798112">
        <ele>129.88</ele>
        <time>2015-06-19T13:46:46Z</time>
      </trkpt>
      <trkpt lat="36.095117" lon="-5.798085">
        <ele>130.28</ele>
        <time>2015-06-19T13:46:47Z</time>
      </trkpt>
      <trkpt lat="36.095124" lon="-5.798058">
        <ele>130.68</ele>
        <time>2015-06-19T13:46:48Z</time>
      </trkpt>
      <trkpt lat="36.095139" lon="-5.798005">
        <ele>130.68</ele>
        <time>2015-06-19T13:46:50Z</time>
      </trkpt>
      <trkpt lat="36.095203" lon="-5.797769">
        <ele>130.64</ele>
        <time>2015-06-19T13:46:58Z</time>
      </trkpt>
      <trkpt lat="36.095283" lon="-5.797531">
        <ele>130.63</ele>
        <time>2015-06-19T13:47:05Z</time>
      </trkpt>
      <trkpt lat="36.095320" lon="-5.797423">
        <ele>131.23</ele>
        <time>2015-06-19T13:47:08Z</time>
      </trkpt>
      <trkpt lat="36.095339" lon="-5.797383">
        <ele>131.60</ele>
        <time>2015-06-19T13:47:09Z</time>
      </trkpt>
      <trkpt lat="36.095358" lon="-5.797348">
        <ele>132.02</ele>
        <time>2015-06-19T13:47:10Z</time>
      </trkpt>
      <trkpt lat="36.095378" lon="-5.797310">
        <ele>132.41</ele>
        <time>2015-06-19T13:47:11Z</time>
      </trkpt>
      <trkpt lat="36.095398" lon="-5.797274">
        <ele>133.04</ele>
        <time>2015-06-19T13:47:12Z</time>
      </trkpt>
      <trkpt lat="36.095570" lon="-5.797034">
        <ele>133.06</ele>
        <time>2015-06-19T13:47:19Z</time>
      </trkpt>
      <trkpt lat="36.095663" lon="-5.796901">
        <ele>133.08</ele>
        <time>2015-06-19T13:47:23Z</time>
      </trkpt>
      <trkpt lat="36.095732" lon="-5.796806">
        <ele>133.05</ele>
        <time>2015-06-19T13:47:26Z</time>
      </trkpt>
      <trkpt lat="36.095849" lon="-5.796624">
        <ele>133.04</ele>
        <time>2015-06-19T13:47:32Z</time>
      </trkpt>
      <trkpt lat="36.095905" lon="-5.796451">
        <ele>133.07</ele>
        <time>2015-06-19T13:47:37Z</time>
      </trkpt>
      <trkpt lat="36.095972" lon="-5.796235">
        <ele>133.07</ele>
        <time>2015-06-19T13:47:42Z</time>
      </trkpt>
      <trkpt lat="36.095991" lon="-5.796126">
        <ele>133.06</ele>
        <time>2015-06-19T13:47:44Z</time>
      </trkpt>
      <trkpt lat="36.095985" lon="-5.795979">
        <ele>133.03</ele>
        <time>2015-06-19T13:47:46Z</time>
      </trkpt>
      <trkpt lat="36.095939" lon="-5.795814">
        <ele>133.06</ele>
        <time>2015-06-19T13:47:48Z</time>
      </trkpt>
      <trkpt lat="36.095919" lon="-5.795722">
        <ele>133.01</ele>
        <time>2015-06-19T13:47:49Z</time>
      </trkpt>
      <trkpt lat="36.095876" lon="-5.795527">
        <ele>132.41</ele>
        <time>2015-06-19T13:47:51Z</time>
      </trkpt>
      <trkpt lat="36.095853" lon="-5.795421">
        <ele>132.09</ele>
        <time>2015-06-19T13:47:52Z</time>
      </trkpt>
      <trkpt lat="36.095828" lon="-5.795309">
        <ele>131.22</ele>
        <time>2015-06-19T13:47:53Z</time>
      </trkpt>
      <trkpt lat="36.095807" lon="-5.795199">
        <ele>130.82</ele>
        <time>2015-06-19T13:47:54Z</time>
      </trkpt>
      <trkpt lat="36.095784" lon="-5.795083">
        <ele>130.84</ele>
        <time>2015-06-19T13:47:55Z</time>
      </trkpt>
      <trkpt lat="36.095759" lon="-5.794975">
        <ele>130.44</ele>
        <time>2015-06-19T13:47:56Z</time>
      </trkpt>
      <trkpt lat="36.095735" lon="-5.794878">
        <ele>129.83</ele>
        <time>2015-06-19T13:47:57Z</time>
      </trkpt>
      <trkpt lat="36.095713" lon="-5.794788">
        <ele>129.27</ele>
        <time>2015-06-19T13:47:58Z</time>
      </trkpt>
      <trkpt lat="36.095692" lon="-5.794696">
        <ele>128.50</ele>
        <time>2015-06-19T13:47:59Z</time>
      </trkpt>
      <trkpt lat="36.095677" lon="-5.794595">
        <ele>127.67</ele>
        <time>2015-06-19T13:48:00Z</time>
      </trkpt>
      <trkpt lat="36.095664" lon="-5.794492">
        <ele>126.64</ele>
        <time>2015-06-19T13:48:01Z</time>
      </trkpt>
      <trkpt lat="36.095646" lon="-5.794386">
        <ele>125.82</ele>
        <time>2015-06-19T13:48:02Z</time>
      </trkpt>
      <trkpt lat="36.095629" lon="-5.794277">
        <ele>125.01</ele>
        <time>2015-06-19T13:48:03Z</time>
      </trkpt>
      <trkpt lat="36.095616" lon="-5.794163">
        <ele>124.46</ele>
        <time>2015-06-19T13:48:04Z</time>
      </trkpt>
      <trkpt lat="36.095600" lon="-5.794045">
        <ele>123.62</ele>
        <time>2015-06-19T13:48:05Z</time>
      </trkpt>
      <trkpt lat="36.095590" lon="-5.793923">
        <ele>122.88</ele>
        <time>2015-06-19T13:48:06Z</time>
      </trkpt>
      <trkpt lat="36.095585" lon="-5.793796">
        <ele>121.82</ele>
        <time>2015-06-19T13:48:07Z</time>
      </trkpt>
      <trkpt lat="36.095578" lon="-5.793660">
        <ele>121.01</ele>
        <time>2015-06-19T13:48:08Z</time>
      </trkpt>
      <trkpt lat="36.095569" lon="-5.793528">
        <ele>120.06</ele>
        <time>2015-06-19T13:48:09Z</time>
      </trkpt>
      <trkpt lat="36.095565" lon="-5.793408">
        <ele>119.07</ele>
        <time>2015-06-19T13:48:10Z</time>
      </trkpt>
      <trkpt lat="36.095563" lon="-5.793295">
        <ele>118.23</ele>
        <time>2015-06-19T13:48:11Z</time>
      </trkpt>
      <trkpt lat="36.095565" lon="-5.793188">
        <ele>117.26</ele>
        <time>2015-06-19T13:48:12Z</time>
      </trkpt>
      <trkpt lat="36.095571" lon="-5.793076">
        <ele>116.46</ele>
        <time>2015-06-19T13:48:13Z</time>
      </trkpt>
      <trkpt lat="36.095582" lon="-5.792971">
        <ele>115.41</ele>
        <time>2015-06-19T13:48:14Z</time>
      </trkpt>
      <trkpt lat="36.095596" lon="-5.792879">
        <ele>114.41</ele>
        <time>2015-06-19T13:48:15Z</time>
      </trkpt>
      <trkpt lat="36.095605" lon="-5.792773">
        <ele>112.22</ele>
        <time>2015-06-19T13:48:16Z</time>
      </trkpt>
      <trkpt lat="36.095615" lon="-5.792668">
        <ele>111.07</ele>
        <time>2015-06-19T13:48:17Z</time>
      </trkpt>
      <trkpt lat="36.095632" lon="-5.792558">
        <ele>109.85</ele>
        <time>2015-06-19T13:48:18Z</time>
      </trkpt>
      <trkpt lat="36.095653" lon="-5.792445">
        <ele>108.89</ele>
        <time>2015-06-19T13:48:19Z</time>
      </trkpt>
      <trkpt lat="36.095668" lon="-5.792327">
        <ele>107.68</ele>
        <time>2015-06-19T13:48:20Z</time>
      </trkpt>
      <trkpt lat="36.095684" lon="-5.792205">
        <ele>106.45</ele>
        <time>2015-06-19T13:48:21Z</time>
      </trkpt>
      <trkpt lat="36.095696" lon="-5.792079">
        <ele>105.42</ele>
        <time>2015-06-19T13:48:22Z</time>
      </trkpt>
      <trkpt lat="36.095709" lon="-5.791951">
        <ele>104.25</ele>
        <time>2015-06-19T13:48:23Z</time>
      </trkpt>
      <trkpt lat="36.095717" lon="-5.791823">
        <ele>103.07</ele>
        <time>2015-06-19T13:48:24Z</time>
      </trkpt>
      <trkpt lat="36.095729" lon="-5.791553">
        <ele>102.69</ele>
        <time>2015-06-19T13:48:26Z</time>
      </trkpt>
      <trkpt lat="36.095729" lon="-5.791415">
        <ele>102.01</ele>
        <time>2015-06-19T13:48:27Z</time>
      </trkpt>
      <trkpt lat="36.095725" lon="-5.791279">
        <ele>101.21</ele>
        <time>2015-06-19T13:48:28Z</time>
      </trkpt>
      <trkpt lat="36.095708" lon="-5.791143">
        <ele>100.64</ele>
        <time>2015-06-19T13:48:29Z</time>
      </trkpt>
      <trkpt lat="36.095696" lon="-5.791001">
        <ele>99.86</ele>
        <time>2015-06-19T13:48:30Z</time>
      </trkpt>
      <trkpt lat="36.095685" lon="-5.790847">
        <ele>98.90</ele>
        <time>2015-06-19T13:48:31Z</time>
      </trkpt>
      <trkpt lat="36.095675" lon="-5.790709">
        <ele>97.88</ele>
        <time>2015-06-19T13:48:32Z</time>
      </trkpt>
      <trkpt lat="36.095664" lon="-5.790562">
        <ele>96.67</ele>
        <time>2015-06-19T13:48:33Z</time>
      </trkpt>
      <trkpt lat="36.095650" lon="-5.790419">
        <ele>95.61</ele>
        <time>2015-06-19T13:48:34Z</time>
      </trkpt>
      <trkpt lat="36.095637" lon="-5.790268">
        <ele>94.43</ele>
        <time>2015-06-19T13:48:35Z</time>
      </trkpt>
      <trkpt lat="36.095618" lon="-5.790114">
        <ele>93.44</ele>
        <time>2015-06-19T13:48:36Z</time>
      </trkpt>
      <trkpt lat="36.095598" lon="-5.789964">
        <ele>92.43</ele>
        <time>2015-06-19T13:48:37Z</time>
      </trkpt>
      <trkpt lat="36.095589" lon="-5.789822">
        <ele>91.29</ele>
        <time>2015-06-19T13:48:38Z</time>
      </trkpt>
      <trkpt lat="36.095583" lon="-5.789670">
        <ele>90.21</ele>
        <time>2015-06-19T13:48:39Z</time>
      </trkpt>
      <trkpt lat="36.095578" lon="-5.789538">
        <ele>88.81</ele>
        <time>2015-06-19T13:48:40Z</time>
      </trkpt>
      <trkpt lat="36.095555" lon="-5.789412">
        <ele>86.28</ele>
        <time>2015-06-19T13:48:41Z</time>
      </trkpt>
      <trkpt lat="36.095545" lon="-5.789286">
        <ele>84.89</ele>
        <time>2015-06-19T13:48:42Z</time>
      </trkpt>
      <trkpt lat="36.095541" lon="-5.789166">
        <ele>84.08</ele>
        <time>2015-06-19T13:48:43Z</time>
      </trkpt>
      <trkpt lat="36.095543" lon="-5.789057">
        <ele>83.24</ele>
        <time>2015-06-19T13:48:44Z</time>
      </trkpt>
      <trkpt lat="36.095538" lon="-5.788949">
        <ele>82.27</ele>
        <time>2015-06-19T13:48:45Z</time>
      </trkpt>
      <trkpt lat="36.095526" lon="-5.788833">
        <ele>81.25</ele>
        <time>2015-06-19T13:48:46Z</time>
      </trkpt>
      <trkpt lat="36.095517" lon="-5.788736">
        <ele>80.24</ele>
        <time>2015-06-19T13:48:47Z</time>
      </trkpt>
      <trkpt lat="36.095509" lon="-5.788636">
        <ele>79.28</ele>
        <time>2015-06-19T13:48:48Z</time>
      </trkpt>
      <trkpt lat="36.095501" lon="-5.788541">
        <ele>78.29</ele>
        <time>2015-06-19T13:48:49Z</time>
      </trkpt>
      <trkpt lat="36.095472" lon="-5.788189">
        <ele>78.22</ele>
        <time>2015-06-19T13:48:53Z</time>
      </trkpt>
      <trkpt lat="36.095442" lon="-5.787947">
        <ele>77.83</ele>
        <time>2015-06-19T13:48:56Z</time>
      </trkpt>
      <trkpt lat="36.095433" lon="-5.787872">
        <ele>77.41</ele>
        <time>2015-06-19T13:48:57Z</time>
      </trkpt>
      <trkpt lat="36.095428" lon="-5.787797">
        <ele>77.02</ele>
        <time>2015-06-19T13:48:58Z</time>
      </trkpt>
      <trkpt lat="36.095431" lon="-5.787727">
        <ele>76.67</ele>
        <time>2015-06-19T13:48:59Z</time>
      </trkpt>
      <trkpt lat="36.095434" lon="-5.787656">
        <ele>76.24</ele>
        <time>2015-06-19T13:49:00Z</time>
      </trkpt>
      <trkpt lat="36.095419" lon="-5.787585">
        <ele>76.24</ele>
        <time>2015-06-19T13:49:01Z</time>
      </trkpt>
      <trkpt lat="36.095409" lon="-5.787517">
        <ele>75.69</ele>
        <time>2015-06-19T13:49:02Z</time>
      </trkpt>
      <trkpt lat="36.095402" lon="-5.787452">
        <ele>75.29</ele>
        <time>2015-06-19T13:49:03Z</time>
      </trkpt>
      <trkpt lat="36.095394" lon="-5.787383">
        <ele>74.82</ele>
        <time>2015-06-19T13:49:04Z</time>
      </trkpt>
      <trkpt lat="36.095383" lon="-5.787314">
        <ele>74.45</ele>
        <time>2015-06-19T13:49:05Z</time>
      </trkpt>
      <trkpt lat="36.095353" lon="-5.787247">
        <ele>73.47</ele>
        <time>2015-06-19T13:49:06Z</time>
      </trkpt>
      <trkpt lat="36.095335" lon="-5.787173">
        <ele>73.00</ele>
        <time>2015-06-19T13:49:07Z</time>
      </trkpt>
      <trkpt lat="36.095298" lon="-5.787095">
        <ele>72.42</ele>
        <time>2015-06-19T13:49:08Z</time>
      </trkpt>
      <trkpt lat="36.095263" lon="-5.787021">
        <ele>72.01</ele>
        <time>2015-06-19T13:49:09Z</time>
      </trkpt>
      <trkpt lat="36.095226" lon="-5.786948">
        <ele>71.65</ele>
        <time>2015-06-19T13:49:10Z</time>
      </trkpt>
      <trkpt lat="36.095184" lon="-5.786876">
        <ele>71.63</ele>
        <time>2015-06-19T13:49:11Z</time>
      </trkpt>
      <trkpt lat="36.095134" lon="-5.786811">
        <ele>71.27</ele>
        <time>2015-06-19T13:49:12Z</time>
      </trkpt>
      <trkpt lat="36.095084" lon="-5.786753">
        <ele>70.69</ele>
        <time>2015-06-19T13:49:13Z</time>
      </trkpt>
      <trkpt lat="36.095019" lon="-5.786709">
        <ele>70.26</ele>
        <time>2015-06-19T13:49:14Z</time>
      </trkpt>
      <trkpt lat="36.094956" lon="-5.786665">
        <ele>69.87</ele>
        <time>2015-06-19T13:49:15Z</time>
      </trkpt>
      <trkpt lat="36.094884" lon="-5.786623">
        <ele>69.48</ele>
        <time>2015-06-19T13:49:16Z</time>
      </trkpt>
      <trkpt lat="36.094814" lon="-5.786595">
        <ele>68.82</ele>
        <time>2015-06-19T13:49:17Z</time>
      </trkpt>
      <trkpt lat="36.094742" lon="-5.786574">
        <ele>68.46</ele>
        <time>2015-06-19T13:49:18Z</time>
      </trkpt>
      <trkpt lat="36.094670" lon="-5.786553">
        <ele>67.62</ele>
        <time>2015-06-19T13:49:19Z</time>
      </trkpt>
      <trkpt lat="36.094591" lon="-5.786536">
        <ele>67.01</ele>
        <time>2015-06-19T13:49:20Z</time>
      </trkpt>
      <trkpt lat="36.094504" lon="-5.786529">
        <ele>66.41</ele>
        <time>2015-06-19T13:49:21Z</time>
      </trkpt>
      <trkpt lat="36.094414" lon="-5.786527">
        <ele>65.67</ele>
        <time>2015-06-19T13:49:22Z</time>
      </trkpt>
      <trkpt lat="36.094321" lon="-5.786521">
        <ele>64.88</ele>
        <time>2015-06-19T13:49:23Z</time>
      </trkpt>
      <trkpt lat="36.094210" lon="-5.786525">
        <ele>64.09</ele>
        <time>2015-06-19T13:49:24Z</time>
      </trkpt>
      <trkpt lat="36.094110" lon="-5.786523">
        <ele>63.28</ele>
        <time>2015-06-19T13:49:25Z</time>
      </trkpt>
      <trkpt lat="36.094006" lon="-5.786521">
        <ele>62.65</ele>
        <time>2015-06-19T13:49:26Z</time>
      </trkpt>
      <trkpt lat="36.093911" lon="-5.786519">
        <ele>62.07</ele>
        <time>2015-06-19T13:49:27Z</time>
      </trkpt>
      <trkpt lat="36.093805" lon="-5.786526">
        <ele>61.50</ele>
        <time>2015-06-19T13:49:28Z</time>
      </trkpt>
      <trkpt lat="36.093693" lon="-5.786523">
        <ele>61.02</ele>
        <time>2015-06-19T13:49:29Z</time>
      </trkpt>
      <trkpt lat="36.093586" lon="-5.786517">
        <ele>60.44</ele>
        <time>2015-06-19T13:49:30Z</time>
      </trkpt>
      <trkpt lat="36.093474" lon="-5.786510">
        <ele>59.88</ele>
        <time>2015-06-19T13:49:31Z</time>
      </trkpt>
      <trkpt lat="36.093353" lon="-5.786514">
        <ele>59.41</ele>
        <time>2015-06-19T13:49:32Z</time>
      </trkpt>
      <trkpt lat="36.093245" lon="-5.786516">
        <ele>59.01</ele>
        <time>2015-06-19T13:49:33Z</time>
      </trkpt>
      <trkpt lat="36.093141" lon="-5.786513">
        <ele>58.48</ele>
        <time>2015-06-19T13:49:34Z</time>
      </trkpt>
      <trkpt lat="36.093044" lon="-5.786512">
        <ele>57.84</ele>
        <time>2015-06-19T13:49:35Z</time>
      </trkpt>
      <trkpt lat="36.092953" lon="-5.786509">
        <ele>57.22</ele>
        <time>2015-06-19T13:49:36Z</time>
      </trkpt>
      <trkpt lat="36.092864" lon="-5.786506">
        <ele>56.63</ele>
        <time>2015-06-19T13:49:37Z</time>
      </trkpt>
      <trkpt lat="36.092781" lon="-5.786497">
        <ele>55.90</ele>
        <time>2015-06-19T13:49:38Z</time>
      </trkpt>
      <trkpt lat="36.092697" lon="-5.786466">
        <ele>55.89</ele>
        <time>2015-06-19T13:49:39Z</time>
      </trkpt>
      <trkpt lat="36.092627" lon="-5.786424">
        <ele>55.47</ele>
        <time>2015-06-19T13:49:40Z</time>
      </trkpt>
      <trkpt lat="36.092566" lon="-5.786367">
        <ele>55.06</ele>
        <time>2015-06-19T13:49:41Z</time>
      </trkpt>
      <trkpt lat="36.092518" lon="-5.786295">
        <ele>54.67</ele>
        <time>2015-06-19T13:49:42Z</time>
      </trkpt>
      <trkpt lat="36.092483" lon="-5.786226">
        <ele>54.26</ele>
        <time>2015-06-19T13:49:43Z</time>
      </trkpt>
      <trkpt lat="36.092466" lon="-5.786142">
        <ele>53.82</ele>
        <time>2015-06-19T13:49:44Z</time>
      </trkpt>
      <trkpt lat="36.092449" lon="-5.785983">
        <ele>53.81</ele>
        <time>2015-06-19T13:49:46Z</time>
      </trkpt>
      <trkpt lat="36.092443" lon="-5.785906">
        <ele>53.90</ele>
        <time>2015-06-19T13:49:47Z</time>
      </trkpt>
      <trkpt lat="36.092445" lon="-5.785708">
        <ele>53.86</ele>
        <time>2015-06-19T13:49:50Z</time>
      </trkpt>
      <trkpt lat="36.092461" lon="-5.785649">
        <ele>53.87</ele>
        <time>2015-06-19T13:49:51Z</time>
      </trkpt>
      <trkpt lat="36.092516" lon="-5.785425">
        <ele>53.85</ele>
        <time>2015-06-19T13:49:55Z</time>
      </trkpt>
      <trkpt lat="36.092547" lon="-5.785272">
        <ele>53.86</ele>
        <time>2015-06-19T13:49:58Z</time>
      </trkpt>
      <trkpt lat="36.092570" lon="-5.785173">
        <ele>53.84</ele>
        <time>2015-06-19T13:50:00Z</time>
      </trkpt>
      <trkpt lat="36.092597" lon="-5.785060">
        <ele>53.85</ele>
        <time>2015-06-19T13:50:02Z</time>
      </trkpt>
      <trkpt lat="36.092623" lon="-5.784894">
        <ele>53.81</ele>
        <time>2015-06-19T13:50:05Z</time>
      </trkpt>
      <trkpt lat="36.092637" lon="-5.784718">
        <ele>53.49</ele>
        <time>2015-06-19T13:50:08Z</time>
      </trkpt>
      <trkpt lat="36.092642" lon="-5.784653">
        <ele>53.04</ele>
        <time>2015-06-19T13:50:09Z</time>
      </trkpt>
      <trkpt lat="36.092649" lon="-5.784588">
        <ele>52.63</ele>
        <time>2015-06-19T13:50:10Z</time>
      </trkpt>
      <trkpt lat="36.092657" lon="-5.784524">
        <ele>52.21</ele>
        <time>2015-06-19T13:50:11Z</time>
      </trkpt>
      <trkpt lat="36.092665" lon="-5.784463">
        <ele>51.83</ele>
        <time>2015-06-19T13:50:12Z</time>
      </trkpt>
      <trkpt lat="36.092667" lon="-5.784328">
        <ele>51.85</ele>
        <time>2015-06-19T13:50:14Z</time>
      </trkpt>
      <trkpt lat="36.092667" lon="-5.784260">
        <ele>51.22</ele>
        <time>2015-06-19T13:50:15Z</time>
      </trkpt>
      <trkpt lat="36.092657" lon="-5.784188">
        <ele>50.88</ele>
        <time>2015-06-19T13:50:16Z</time>
      </trkpt>
      <trkpt lat="36.092645" lon="-5.784107">
        <ele>50.48</ele>
        <time>2015-06-19T13:50:17Z</time>
      </trkpt>
      <trkpt lat="36.092637" lon="-5.784033">
        <ele>49.63</ele>
        <time>2015-06-19T13:50:18Z</time>
      </trkpt>
      <trkpt lat="36.092618" lon="-5.783877">
        <ele>49.27</ele>
        <time>2015-06-19T13:50:20Z</time>
      </trkpt>
      <trkpt lat="36.092609" lon="-5.783795">
        <ele>48.81</ele>
        <time>2015-06-19T13:50:21Z</time>
      </trkpt>
      <trkpt lat="36.092604" lon="-5.783715">
        <ele>48.23</ele>
        <time>2015-06-19T13:50:22Z</time>
      </trkpt>
      <trkpt lat="36.092593" lon="-5.783628">
        <ele>47.85</ele>
        <time>2015-06-19T13:50:23Z</time>
      </trkpt>
      <trkpt lat="36.092585" lon="-5.783542">
        <ele>47.41</ele>
        <time>2015-06-19T13:50:24Z</time>
      </trkpt>
      <trkpt lat="36.092572" lon="-5.783297">
        <ele>47.41</ele>
        <time>2015-06-19T13:50:27Z</time>
      </trkpt>
      <trkpt lat="36.092583" lon="-5.782900">
        <ele>47.08</ele>
        <time>2015-06-19T13:50:33Z</time>
      </trkpt>
      <trkpt lat="36.092598" lon="-5.782845">
        <ele>46.69</ele>
        <time>2015-06-19T13:50:34Z</time>
      </trkpt>
      <trkpt lat="36.092616" lon="-5.782790">
        <ele>46.25</ele>
        <time>2015-06-19T13:50:35Z</time>
      </trkpt>
      <trkpt lat="36.092640" lon="-5.782734">
        <ele>45.65</ele>
        <time>2015-06-19T13:50:36Z</time>
      </trkpt>
      <trkpt lat="36.092669" lon="-5.782677">
        <ele>45.23</ele>
        <time>2015-06-19T13:50:37Z</time>
      </trkpt>
      <trkpt lat="36.092700" lon="-5.782616">
        <ele>45.23</ele>
        <time>2015-06-19T13:50:38Z</time>
      </trkpt>
      <trkpt lat="36.092803" lon="-5.782432">
        <ele>44.83</ele>
        <time>2015-06-19T13:50:41Z</time>
      </trkpt>
      <trkpt lat="36.092842" lon="-5.782368">
        <ele>44.47</ele>
        <time>2015-06-19T13:50:42Z</time>
      </trkpt>
      <trkpt lat="36.092885" lon="-5.782303">
        <ele>43.48</ele>
        <time>2015-06-19T13:50:43Z</time>
      </trkpt>
      <trkpt lat="36.092926" lon="-5.782239">
        <ele>42.86</ele>
        <time>2015-06-19T13:50:44Z</time>
      </trkpt>
      <trkpt lat="36.093142" lon="-5.781893">
        <ele>42.42</ele>
        <time>2015-06-19T13:50:49Z</time>
      </trkpt>
      <trkpt lat="36.093187" lon="-5.781817">
        <ele>42.01</ele>
        <time>2015-06-19T13:50:50Z</time>
      </trkpt>
      <trkpt lat="36.093233" lon="-5.781741">
        <ele>41.67</ele>
        <time>2015-06-19T13:50:51Z</time>
      </trkpt>
      <trkpt lat="36.093279" lon="-5.781663">
        <ele>41.23</ele>
        <time>2015-06-19T13:50:52Z</time>
      </trkpt>
      <trkpt lat="36.093324" lon="-5.781585">
        <ele>40.85</ele>
        <time>2015-06-19T13:50:53Z</time>
      </trkpt>
      <trkpt lat="36.093418" lon="-5.781425">
        <ele>40.48</ele>
        <time>2015-06-19T13:50:55Z</time>
      </trkpt>
      <trkpt lat="36.093462" lon="-5.781343">
        <ele>39.86</ele>
        <time>2015-06-19T13:50:56Z</time>
      </trkpt>
      <trkpt lat="36.093502" lon="-5.781261">
        <ele>39.48</ele>
        <time>2015-06-19T13:50:57Z</time>
      </trkpt>
      <trkpt lat="36.093539" lon="-5.781177">
        <ele>38.88</ele>
        <time>2015-06-19T13:50:58Z</time>
      </trkpt>
      <trkpt lat="36.093570" lon="-5.781096">
        <ele>38.26</ele>
        <time>2015-06-19T13:50:59Z</time>
      </trkpt>
      <trkpt lat="36.093594" lon="-5.781022">
        <ele>37.85</ele>
        <time>2015-06-19T13:51:00Z</time>
      </trkpt>
      <trkpt lat="36.093610" lon="-5.780956">
        <ele>37.26</ele>
        <time>2015-06-19T13:51:01Z</time>
      </trkpt>
      <trkpt lat="36.093624" lon="-5.780890">
        <ele>36.22</ele>
        <time>2015-06-19T13:51:02Z</time>
      </trkpt>
      <trkpt lat="36.093638" lon="-5.780822">
        <ele>35.41</ele>
        <time>2015-06-19T13:51:03Z</time>
      </trkpt>
      <trkpt lat="36.093656" lon="-5.780752">
        <ele>34.67</ele>
        <time>2015-06-19T13:51:04Z</time>
      </trkpt>
      <trkpt lat="36.093673" lon="-5.780680">
        <ele>33.67</ele>
        <time>2015-06-19T13:51:05Z</time>
      </trkpt>
      <trkpt lat="36.093692" lon="-5.780607">
        <ele>32.85</ele>
        <time>2015-06-19T13:51:06Z</time>
      </trkpt>
      <trkpt lat="36.093731" lon="-5.780461">
        <ele>32.01</ele>
        <time>2015-06-19T13:51:08Z</time>
      </trkpt>
      <trkpt lat="36.093747" lon="-5.780389">
        <ele>31.68</ele>
        <time>2015-06-19T13:51:09Z</time>
      </trkpt>
      <trkpt lat="36.093762" lon="-5.780321">
        <ele>31.27</ele>
        <time>2015-06-19T13:51:10Z</time>
      </trkpt>
      <trkpt lat="36.093771" lon="-5.780259">
        <ele>30.65</ele>
        <time>2015-06-19T13:51:11Z</time>
      </trkpt>
      <trkpt lat="36.093772" lon="-5.780195">
        <ele>30.28</ele>
        <time>2015-06-19T13:51:12Z</time>
      </trkpt>
      <trkpt lat="36.093767" lon="-5.780132">
        <ele>29.88</ele>
        <time>2015-06-19T13:51:13Z</time>
      </trkpt>
      <trkpt lat="36.093756" lon="-5.780071">
        <ele>29.44</ele>
        <time>2015-06-19T13:51:14Z</time>
      </trkpt>
      <trkpt lat="36.093738" lon="-5.780010">
        <ele>29.02</ele>
        <time>2015-06-19T13:51:15Z</time>
      </trkpt>
      <trkpt lat="36.093710" lon="-5.779954">
        <ele>28.61</ele>
        <time>2015-06-19T13:51:16Z</time>
      </trkpt>
      <trkpt lat="36.093502" lon="-5.779579">
        <ele>28.07</ele>
        <time>2015-06-19T13:51:22Z</time>
      </trkpt>
      <trkpt lat="36.093475" lon="-5.779502">
        <ele>27.66</ele>
        <time>2015-06-19T13:51:23Z</time>
      </trkpt>
      <trkpt lat="36.093452" lon="-5.779416">
        <ele>27.05</ele>
        <time>2015-06-19T13:51:24Z</time>
      </trkpt>
      <trkpt lat="36.093433" lon="-5.779323">
        <ele>26.64</ele>
        <time>2015-06-19T13:51:25Z</time>
      </trkpt>
      <trkpt lat="36.093422" lon="-5.779223">
        <ele>26.02</ele>
        <time>2015-06-19T13:51:26Z</time>
      </trkpt>
      <trkpt lat="36.093418" lon="-5.779121">
        <ele>25.44</ele>
        <time>2015-06-19T13:51:27Z</time>
      </trkpt>
      <trkpt lat="36.093419" lon="-5.779018">
        <ele>24.88</ele>
        <time>2015-06-19T13:51:28Z</time>
      </trkpt>
      <trkpt lat="36.093424" lon="-5.778915">
        <ele>24.02</ele>
        <time>2015-06-19T13:51:29Z</time>
      </trkpt>
      <trkpt lat="36.093435" lon="-5.778812">
        <ele>23.23</ele>
        <time>2015-06-19T13:51:30Z</time>
      </trkpt>
      <trkpt lat="36.093448" lon="-5.778713">
        <ele>22.60</ele>
        <time>2015-06-19T13:51:31Z</time>
      </trkpt>
      <trkpt lat="36.093464" lon="-5.778621">
        <ele>22.02</ele>
        <time>2015-06-19T13:51:32Z</time>
      </trkpt>
      <trkpt lat="36.093488" lon="-5.778533">
        <ele>20.81</ele>
        <time>2015-06-19T13:51:33Z</time>
      </trkpt>
      <trkpt lat="36.093513" lon="-5.778457">
        <ele>20.25</ele>
        <time>2015-06-19T13:51:34Z</time>
      </trkpt>
      <trkpt lat="36.093538" lon="-5.778389">
        <ele>19.65</ele>
        <time>2015-06-19T13:51:35Z</time>
      </trkpt>
      <trkpt lat="36.093641" lon="-5.778122">
        <ele>19.61</ele>
        <time>2015-06-19T13:51:40Z</time>
      </trkpt>
      <trkpt lat="36.093654" lon="-5.778089">
        <ele>19.69</ele>
        <time>2015-06-19T13:51:41Z</time>
      </trkpt>
      <trkpt lat="36.093675" lon="-5.778044">
        <ele>19.68</ele>
        <time>2015-06-19T13:51:43Z</time>
      </trkpt>
      <trkpt lat="36.093697" lon="-5.778011">
        <ele>19.67</ele>
        <time>2015-06-19T13:51:45Z</time>
      </trkpt>
      <trkpt lat="36.093706" lon="-5.777993">
        <ele>19.64</ele>
        <time>2015-06-19T13:51:46Z</time>
      </trkpt>
      <trkpt lat="36.093741" lon="-5.777913">
        <ele>19.68</ele>
        <time>2015-06-19T13:51:50Z</time>
      </trkpt>
      <trkpt lat="36.093790" lon="-5.777808">
        <ele>19.69</ele>
        <time>2015-06-19T13:51:56Z</time>
      </trkpt>
      <trkpt lat="36.093798" lon="-5.777790">
        <ele>19.68</ele>
        <time>2015-06-19T13:51:57Z</time>
      </trkpt>
      <trkpt lat="36.093847" lon="-5.777683">
        <ele>20.02</ele>
        <time>2015-06-19T13:52:03Z</time>
      </trkpt>
      <trkpt lat="36.093855" lon="-5.777667">
        <ele>20.41</ele>
        <time>2015-06-19T13:52:04Z</time>
      </trkpt>
      <trkpt lat="36.093863" lon="-5.777652">
        <ele>20.83</ele>
        <time>2015-06-19T13:52:05Z</time>
      </trkpt>
      <trkpt lat="36.093872" lon="-5.777637">
        <ele>21.25</ele>
        <time>2015-06-19T13:52:06Z</time>
      </trkpt>
      <trkpt lat="36.093879" lon="-5.777621">
        <ele>21.88</ele>
        <time>2015-06-19T13:52:07Z</time>
      </trkpt>
      <trkpt lat="36.093914" lon="-5.777557">
        <ele>21.86</ele>
        <time>2015-06-19T13:52:11Z</time>
      </trkpt>
      <trkpt lat="36.093928" lon="-5.777531">
        <ele>21.85</ele>
        <time>2015-06-19T13:52:13Z</time>
      </trkpt>
      <trkpt lat="36.093935" lon="-5.777521">
        <ele>22.22</ele>
        <time>2015-06-19T13:52:14Z</time>
      </trkpt>
      <trkpt lat="36.093942" lon="-5.777508">
        <ele>22.84</ele>
        <time>2015-06-19T13:52:15Z</time>
      </trkpt>
      <trkpt lat="36.093947" lon="-5.777497">
        <ele>23.47</ele>
        <time>2015-06-19T13:52:16Z</time>
      </trkpt>
      <trkpt lat="36.093953" lon="-5.777485">
        <ele>24.09</ele>
        <time>2015-06-19T13:52:17Z</time>
      </trkpt>
      <trkpt lat="36.093957" lon="-5.777471">
        <ele>24.66</ele>
        <time>2015-06-19T13:52:18Z</time>
      </trkpt>
      <trkpt lat="36.093967" lon="-5.777441">
        <ele>24.63</ele>
        <time>2015-06-19T13:52:20Z</time>
      </trkpt>
      <trkpt lat="36.094012" lon="-5.777355">
        <ele>24.61</ele>
        <time>2015-06-19T13:52:26Z</time>
      </trkpt>
      <trkpt lat="36.094016" lon="-5.777339">
        <ele>25.05</ele>
        <time>2015-06-19T13:52:27Z</time>
      </trkpt>
      <trkpt lat="36.094024" lon="-5.777326">
        <ele>25.45</ele>
        <time>2015-06-19T13:52:28Z</time>
      </trkpt>
      <trkpt lat="36.094032" lon="-5.777312">
        <ele>25.83</ele>
        <time>2015-06-19T13:52:29Z</time>
      </trkpt>
      <trkpt lat="36.094039" lon="-5.777297">
        <ele>26.27</ele>
        <time>2015-06-19T13:52:30Z</time>
      </trkpt>
      <trkpt lat="36.094048" lon="-5.777283">
        <ele>26.61</ele>
        <time>2015-06-19T13:52:31Z</time>
      </trkpt>
      <trkpt lat="36.094065" lon="-5.777257">
        <ele>26.62</ele>
        <time>2015-06-19T13:52:33Z</time>
      </trkpt>
      <trkpt lat="36.094093" lon="-5.777197">
        <ele>27.07</ele>
        <time>2015-06-19T13:52:37Z</time>
      </trkpt>
      <trkpt lat="36.094099" lon="-5.777181">
        <ele>27.46</ele>
        <time>2015-06-19T13:52:38Z</time>
      </trkpt>
      <trkpt lat="36.094106" lon="-5.777168">
        <ele>27.89</ele>
        <time>2015-06-19T13:52:39Z</time>
      </trkpt>
      <trkpt lat="36.094115" lon="-5.777154">
        <ele>28.26</ele>
        <time>2015-06-19T13:52:40Z</time>
      </trkpt>
      <trkpt lat="36.094124" lon="-5.777143">
        <ele>28.63</ele>
        <time>2015-06-19T13:52:41Z</time>
      </trkpt>
      <trkpt lat="36.094143" lon="-5.777111">
        <ele>28.61</ele>
        <time>2015-06-19T13:52:44Z</time>
      </trkpt>
      <trkpt lat="36.094151" lon="-5.777080">
        <ele>28.64</ele>
        <time>2015-06-19T13:52:46Z</time>
      </trkpt>
      <trkpt lat="36.094157" lon="-5.777064">
        <ele>29.07</ele>
        <time>2015-06-19T13:52:47Z</time>
      </trkpt>
      <trkpt lat="36.094165" lon="-5.777050">
        <ele>29.67</ele>
        <time>2015-06-19T13:52:48Z</time>
      </trkpt>
      <trkpt lat="36.094173" lon="-5.777036">
        <ele>30.04</ele>
        <time>2015-06-19T13:52:49Z</time>
      </trkpt>
      <trkpt lat="36.094181" lon="-5.777024">
        <ele>30.44</ele>
        <time>2015-06-19T13:52:50Z</time>
      </trkpt>
      <trkpt lat="36.094188" lon="-5.777012">
        <ele>30.84</ele>
        <time>2015-06-19T13:52:51Z</time>
      </trkpt>
      <trkpt lat="36.094214" lon="-5.776971">
        <ele>30.87</ele>
        <time>2015-06-19T13:52:54Z</time>
      </trkpt>
      <trkpt lat="36.094241" lon="-5.776907">
        <ele>31.23</ele>
        <time>2015-06-19T13:52:59Z</time>
      </trkpt>
      <trkpt lat="36.094249" lon="-5.776893">
        <ele>31.64</ele>
        <time>2015-06-19T13:53:00Z</time>
      </trkpt>
      <trkpt lat="36.094257" lon="-5.776878">
        <ele>32.00</ele>
        <time>2015-06-19T13:53:01Z</time>
      </trkpt>
      <trkpt lat="36.094264" lon="-5.776865">
        <ele>32.42</ele>
        <time>2015-06-19T13:53:02Z</time>
      </trkpt>
      <trkpt lat="36.094270" lon="-5.776850">
        <ele>32.81</ele>
        <time>2015-06-19T13:53:03Z</time>
      </trkpt>
      <trkpt lat="36.094304" lon="-5.776791">
        <ele>32.82</ele>
        <time>2015-06-19T13:53:08Z</time>
      </trkpt>
      <trkpt lat="36.094323" lon="-5.776764">
        <ele>33.45</ele>
        <time>2015-06-19T13:53:10Z</time>
      </trkpt>
      <trkpt lat="36.094333" lon="-5.776751">
        <ele>34.26</ele>
        <time>2015-06-19T13:53:11Z</time>
      </trkpt>
      <trkpt lat="36.094340" lon="-5.776736">
        <ele>34.69</ele>
        <time>2015-06-19T13:53:12Z</time>
      </trkpt>
      <trkpt lat="36.094344" lon="-5.776722">
        <ele>35.08</ele>
        <time>2015-06-19T13:53:13Z</time>
      </trkpt>
      <trkpt lat="36.094349" lon="-5.776708">
        <ele>35.03</ele>
        <time>2015-06-19T13:53:14Z</time>
      </trkpt>
      <trkpt lat="36.094393" lon="-5.776612">
        <ele>35.41</ele>
        <time>2015-06-19T13:53:21Z</time>
      </trkpt>
      <trkpt lat="36.094399" lon="-5.776598">
        <ele>35.83</ele>
        <time>2015-06-19T13:53:22Z</time>
      </trkpt>
      <trkpt lat="36.094408" lon="-5.776588">
        <ele>36.24</ele>
        <time>2015-06-19T13:53:23Z</time>
      </trkpt>
      <trkpt lat="36.094417" lon="-5.776577">
        <ele>36.65</ele>
        <time>2015-06-19T13:53:24Z</time>
      </trkpt>
      <trkpt lat="36.094424" lon="-5.776564">
        <ele>37.01</ele>
        <time>2015-06-19T13:53:25Z</time>
      </trkpt>
      <trkpt lat="36.094450" lon="-5.776491">
        <ele>37.01</ele>
        <time>2015-06-19T13:53:30Z</time>
      </trkpt>
      <trkpt lat="36.094455" lon="-5.776478">
        <ele>37.41</ele>
        <time>2015-06-19T13:53:31Z</time>
      </trkpt>
      <trkpt lat="36.094462" lon="-5.776466">
        <ele>37.84</ele>
        <time>2015-06-19T13:53:32Z</time>
      </trkpt>
      <trkpt lat="36.094468" lon="-5.776454">
        <ele>38.28</ele>
        <time>2015-06-19T13:53:33Z</time>
      </trkpt>
      <trkpt lat="36.094476" lon="-5.776440">
        <ele>38.68</ele>
        <time>2015-06-19T13:53:34Z</time>
      </trkpt>
      <trkpt lat="36.094484" lon="-5.776429">
        <ele>39.03</ele>
        <time>2015-06-19T13:53:35Z</time>
      </trkpt>
      <trkpt lat="36.094501" lon="-5.776405">
        <ele>39.05</ele>
        <time>2015-06-19T13:53:37Z</time>
      </trkpt>
      <trkpt lat="36.094555" lon="-5.776307">
        <ele>39.03</ele>
        <time>2015-06-19T13:53:44Z</time>
      </trkpt>
      <trkpt lat="36.094573" lon="-5.776279">
        <ele>39.49</ele>
        <time>2015-06-19T13:53:46Z</time>
      </trkpt>
      <trkpt lat="36.094581" lon="-5.776264">
        <ele>39.83</ele>
        <time>2015-06-19T13:53:47Z</time>
      </trkpt>
      <trkpt lat="36.094588" lon="-5.776251">
        <ele>40.27</ele>
        <time>2015-06-19T13:53:48Z</time>
      </trkpt>
      <trkpt lat="36.094595" lon="-5.776236">
        <ele>40.61</ele>
        <time>2015-06-19T13:53:49Z</time>
      </trkpt>
      <trkpt lat="36.094604" lon="-5.776220">
        <ele>41.01</ele>
        <time>2015-06-19T13:53:50Z</time>
      </trkpt>
      <trkpt lat="36.094621" lon="-5.776176">
        <ele>41.43</ele>
        <time>2015-06-19T13:53:53Z</time>
      </trkpt>
      <trkpt lat="36.094626" lon="-5.776161">
        <ele>41.88</ele>
        <time>2015-06-19T13:53:54Z</time>
      </trkpt>
      <trkpt lat="36.094632" lon="-5.776147">
        <ele>42.23</ele>
        <time>2015-06-19T13:53:55Z</time>
      </trkpt>
      <trkpt lat="36.094639" lon="-5.776134">
        <ele>42.61</ele>
        <time>2015-06-19T13:53:56Z</time>
      </trkpt>
      <trkpt lat="36.094647" lon="-5.776121">
        <ele>43.09</ele>
        <time>2015-06-19T13:53:57Z</time>
      </trkpt>
      <trkpt lat="36.094662" lon="-5.776097">
        <ele>43.10</ele>
        <time>2015-06-19T13:53:59Z</time>
      </trkpt>
      <trkpt lat="36.094704" lon="-5.775999">
        <ele>43.67</ele>
        <time>2015-06-19T13:54:06Z</time>
      </trkpt>
      <trkpt lat="36.094712" lon="-5.775984">
        <ele>44.02</ele>
        <time>2015-06-19T13:54:07Z</time>
      </trkpt>
      <trkpt lat="36.094718" lon="-5.775973">
        <ele>44.48</ele>
        <time>2015-06-19T13:54:08Z</time>
      </trkpt>
      <trkpt lat="36.094728" lon="-5.775968">
        <ele>44.89</ele>
        <time>2015-06-19T13:54:09Z</time>
      </trkpt>
      <trkpt lat="36.094738" lon="-5.775965">
        <ele>45.42</ele>
        <time>2015-06-19T13:54:10Z</time>
      </trkpt>
      <trkpt lat="36.094754" lon="-5.775948">
        <ele>45.41</ele>
        <time>2015-06-19T13:54:12Z</time>
      </trkpt>
      <trkpt lat="36.094765" lon="-5.775892">
        <ele>45.50</ele>
        <time>2015-06-19T13:54:16Z</time>
      </trkpt>
      <trkpt lat="36.094776" lon="-5.775863">
        <ele>45.41</ele>
        <time>2015-06-19T13:54:18Z</time>
      </trkpt>
      <trkpt lat="36.094791" lon="-5.775819">
        <ele>45.89</ele>
        <time>2015-06-19T13:54:21Z</time>
      </trkpt>
      <trkpt lat="36.094797" lon="-5.775805">
        <ele>46.28</ele>
        <time>2015-06-19T13:54:22Z</time>
      </trkpt>
      <trkpt lat="36.094805" lon="-5.775792">
        <ele>46.68</ele>
        <time>2015-06-19T13:54:23Z</time>
      </trkpt>
      <trkpt lat="36.094812" lon="-5.775777">
        <ele>47.01</ele>
        <time>2015-06-19T13:54:24Z</time>
      </trkpt>
      <trkpt lat="36.094819" lon="-5.775762">
        <ele>47.42</ele>
        <time>2015-06-19T13:54:25Z</time>
      </trkpt>
      <trkpt lat="36.094863" lon="-5.775659">
        <ele>47.85</ele>
        <time>2015-06-19T13:54:32Z</time>
      </trkpt>
      <trkpt lat="36.094869" lon="-5.775646">
        <ele>48.47</ele>
        <time>2015-06-19T13:54:33Z</time>
      </trkpt>
      <trkpt lat="36.094875" lon="-5.775632">
        <ele>48.86</ele>
        <time>2015-06-19T13:54:34Z</time>
      </trkpt>
      <trkpt lat="36.094884" lon="-5.775618">
        <ele>49.22</ele>
        <time>2015-06-19T13:54:35Z</time>
      </trkpt>
      <trkpt lat="36.094889" lon="-5.775603">
        <ele>49.61</ele>
        <time>2015-06-19T13:54:36Z</time>
      </trkpt>
      <trkpt lat="36.094898" lon="-5.775574">
        <ele>49.63</ele>
        <time>2015-06-19T13:54:38Z</time>
      </trkpt>
      <trkpt lat="36.094902" lon="-5.775560">
        <ele>49.65</ele>
        <time>2015-06-19T13:54:39Z</time>
      </trkpt>
      <trkpt lat="36.094923" lon="-5.775504">
        <ele>50.02</ele>
        <time>2015-06-19T13:54:43Z</time>
      </trkpt>
      <trkpt lat="36.094928" lon="-5.775488">
        <ele>50.47</ele>
        <time>2015-06-19T13:54:44Z</time>
      </trkpt>
      <trkpt lat="36.094931" lon="-5.775473">
        <ele>50.85</ele>
        <time>2015-06-19T13:54:45Z</time>
      </trkpt>
      <trkpt lat="36.094935" lon="-5.775459">
        <ele>51.29</ele>
        <time>2015-06-19T13:54:46Z</time>
      </trkpt>
      <trkpt lat="36.094939" lon="-5.775444">
        <ele>51.65</ele>
        <time>2015-06-19T13:54:47Z</time>
      </trkpt>
      <trkpt lat="36.094960" lon="-5.775380">
        <ele>52.23</ele>
        <time>2015-06-19T13:54:51Z</time>
      </trkpt>
      <trkpt lat="36.094966" lon="-5.775363">
        <ele>52.64</ele>
        <time>2015-06-19T13:54:52Z</time>
      </trkpt>
      <trkpt lat="36.094970" lon="-5.775347">
        <ele>53.00</ele>
        <time>2015-06-19T13:54:53Z</time>
      </trkpt>
      <trkpt lat="36.094975" lon="-5.775335">
        <ele>53.42</ele>
        <time>2015-06-19T13:54:54Z</time>
      </trkpt>
      <trkpt lat="36.094978" lon="-5.775322">
        <ele>54.01</ele>
        <time>2015-06-19T13:54:55Z</time>
      </trkpt>
      <trkpt lat="36.094998" lon="-5.775242">
        <ele>54.07</ele>
        <time>2015-06-19T13:55:00Z</time>
      </trkpt>
      <trkpt lat="36.095005" lon="-5.775209">
        <ele>54.41</ele>
        <time>2015-06-19T13:55:02Z</time>
      </trkpt>
      <trkpt lat="36.095006" lon="-5.775193">
        <ele>54.82</ele>
        <time>2015-06-19T13:55:03Z</time>
      </trkpt>
      <trkpt lat="36.095009" lon="-5.775179">
        <ele>55.21</ele>
        <time>2015-06-19T13:55:04Z</time>
      </trkpt>
      <trkpt lat="36.095013" lon="-5.775164">
        <ele>55.68</ele>
        <time>2015-06-19T13:55:05Z</time>
      </trkpt>
      <trkpt lat="36.095016" lon="-5.775149">
        <ele>56.08</ele>
        <time>2015-06-19T13:55:06Z</time>
      </trkpt>
      <trkpt lat="36.095038" lon="-5.775054">
        <ele>56.46</ele>
        <time>2015-06-19T13:55:12Z</time>
      </trkpt>
      <trkpt lat="36.095041" lon="-5.775035">
        <ele>56.87</ele>
        <time>2015-06-19T13:55:13Z</time>
      </trkpt>
      <trkpt lat="36.095045" lon="-5.775020">
        <ele>57.24</ele>
        <time>2015-06-19T13:55:14Z</time>
      </trkpt>
      <trkpt lat="36.095047" lon="-5.775003">
        <ele>58.02</ele>
        <time>2015-06-19T13:55:15Z</time>
      </trkpt>
      <trkpt lat="36.095060" lon="-5.774935">
        <ele>58.01</ele>
        <time>2015-06-19T13:55:19Z</time>
      </trkpt>
      <trkpt lat="36.095062" lon="-5.774916">
        <ele>58.01</ele>
        <time>2015-06-19T13:55:20Z</time>
      </trkpt>
      <trkpt lat="36.095078" lon="-5.774774">
        <ele>58.05</ele>
        <time>2015-06-19T13:55:27Z</time>
      </trkpt>
      <trkpt lat="36.095090" lon="-5.774710">
        <ele>58.66</ele>
        <time>2015-06-19T13:55:30Z</time>
      </trkpt>
      <trkpt lat="36.095093" lon="-5.774688">
        <ele>59.02</ele>
        <time>2015-06-19T13:55:31Z</time>
      </trkpt>
      <trkpt lat="36.095097" lon="-5.774666">
        <ele>59.43</ele>
        <time>2015-06-19T13:55:32Z</time>
      </trkpt>
      <trkpt lat="36.095098" lon="-5.774645">
        <ele>60.03</ele>
        <time>2015-06-19T13:55:33Z</time>
      </trkpt>
      <trkpt lat="36.095100" lon="-5.774625">
        <ele>60.47</ele>
        <time>2015-06-19T13:55:34Z</time>
      </trkpt>
      <trkpt lat="36.095116" lon="-5.774523">
        <ele>60.42</ele>
        <time>2015-06-19T13:55:39Z</time>
      </trkpt>
      <trkpt lat="36.095123" lon="-5.774430">
        <ele>60.89</ele>
        <time>2015-06-19T13:55:43Z</time>
      </trkpt>
      <trkpt lat="36.095123" lon="-5.774407">
        <ele>61.48</ele>
        <time>2015-06-19T13:55:44Z</time>
      </trkpt>
      <trkpt lat="36.095123" lon="-5.774386">
        <ele>61.89</ele>
        <time>2015-06-19T13:55:45Z</time>
      </trkpt>
      <trkpt lat="36.095122" lon="-5.774364">
        <ele>62.22</ele>
        <time>2015-06-19T13:55:46Z</time>
      </trkpt>
      <trkpt lat="36.095124" lon="-5.774344">
        <ele>62.81</ele>
        <time>2015-06-19T13:55:47Z</time>
      </trkpt>
      <trkpt lat="36.095130" lon="-5.774208">
        <ele>62.87</ele>
        <time>2015-06-19T13:55:53Z</time>
      </trkpt>
      <trkpt lat="36.095132" lon="-5.774184">
        <ele>62.89</ele>
        <time>2015-06-19T13:55:54Z</time>
      </trkpt>
      <trkpt lat="36.095112" lon="-5.774006">
        <ele>62.83</ele>
        <time>2015-06-19T13:56:01Z</time>
      </trkpt>
      <trkpt lat="36.095100" lon="-5.773937">
        <ele>63.28</ele>
        <time>2015-06-19T13:56:04Z</time>
      </trkpt>
      <trkpt lat="36.095097" lon="-5.773913">
        <ele>63.61</ele>
        <time>2015-06-19T13:56:05Z</time>
      </trkpt>
      <trkpt lat="36.095093" lon="-5.773890">
        <ele>64.05</ele>
        <time>2015-06-19T13:56:06Z</time>
      </trkpt>
      <trkpt lat="36.095090" lon="-5.773868">
        <ele>63.90</ele>
        <time>2015-06-19T13:56:07Z</time>
      </trkpt>
      <trkpt lat="36.095086" lon="-5.773844">
        <ele>63.47</ele>
        <time>2015-06-19T13:56:08Z</time>
      </trkpt>
      <trkpt lat="36.095083" lon="-5.773819">
        <ele>63.03</ele>
        <time>2015-06-19T13:56:09Z</time>
      </trkpt>
      <trkpt lat="36.095081" lon="-5.773792">
        <ele>63.49</ele>
        <time>2015-06-19T13:56:10Z</time>
      </trkpt>
      <trkpt lat="36.095079" lon="-5.773765">
        <ele>63.81</ele>
        <time>2015-06-19T13:56:11Z</time>
      </trkpt>
      <trkpt lat="36.095077" lon="-5.773738">
        <ele>64.21</ele>
        <time>2015-06-19T13:56:12Z</time>
      </trkpt>
      <trkpt lat="36.095072" lon="-5.773712">
        <ele>64.61</ele>
        <time>2015-06-19T13:56:13Z</time>
      </trkpt>
      <trkpt lat="36.095065" lon="-5.773681">
        <ele>65.04</ele>
        <time>2015-06-19T13:56:14Z</time>
      </trkpt>
      <trkpt lat="36.095054" lon="-5.773617">
        <ele>65.08</ele>
        <time>2015-06-19T13:56:16Z</time>
      </trkpt>
      <trkpt lat="36.095032" lon="-5.773463">
        <ele>65.04</ele>
        <time>2015-06-19T13:56:21Z</time>
      </trkpt>
      <trkpt lat="36.095026" lon="-5.773431">
        <ele>65.04</ele>
        <time>2015-06-19T13:56:22Z</time>
      </trkpt>
      <trkpt lat="36.095003" lon="-5.773290">
        <ele>65.07</ele>
        <time>2015-06-19T13:56:26Z</time>
      </trkpt>
      <trkpt lat="36.094993" lon="-5.773219">
        <ele>65.07</ele>
        <time>2015-06-19T13:56:28Z</time>
      </trkpt>
      <trkpt lat="36.094985" lon="-5.773149">
        <ele>64.70</ele>
        <time>2015-06-19T13:56:30Z</time>
      </trkpt>
      <trkpt lat="36.094981" lon="-5.773115">
        <ele>64.21</ele>
        <time>2015-06-19T13:56:31Z</time>
      </trkpt>
      <trkpt lat="36.094975" lon="-5.773081">
        <ele>63.83</ele>
        <time>2015-06-19T13:56:32Z</time>
      </trkpt>
      <trkpt lat="36.094969" lon="-5.773047">
        <ele>64.00</ele>
        <time>2015-06-19T13:56:33Z</time>
      </trkpt>
      <trkpt lat="36.094964" lon="-5.773011">
        <ele>64.41</ele>
        <time>2015-06-19T13:56:34Z</time>
      </trkpt>
      <trkpt lat="36.094961" lon="-5.772979">
        <ele>64.67</ele>
        <time>2015-06-19T13:56:35Z</time>
      </trkpt>
      <trkpt lat="36.094959" lon="-5.772948">
        <ele>65.06</ele>
        <time>2015-06-19T13:56:36Z</time>
      </trkpt>
      <trkpt lat="36.094954" lon="-5.772916">
        <ele>65.27</ele>
        <time>2015-06-19T13:56:37Z</time>
      </trkpt>
      <trkpt lat="36.094935" lon="-5.772780">
        <ele>64.88</ele>
        <time>2015-06-19T13:56:41Z</time>
      </trkpt>
      <trkpt lat="36.094932" lon="-5.772750">
        <ele>64.45</ele>
        <time>2015-06-19T13:56:42Z</time>
      </trkpt>
      <trkpt lat="36.094927" lon="-5.772719">
        <ele>64.06</ele>
        <time>2015-06-19T13:56:43Z</time>
      </trkpt>
      <trkpt lat="36.094919" lon="-5.772687">
        <ele>63.67</ele>
        <time>2015-06-19T13:56:44Z</time>
      </trkpt>
      <trkpt lat="36.094914" lon="-5.772656">
        <ele>63.22</ele>
        <time>2015-06-19T13:56:45Z</time>
      </trkpt>
      <trkpt lat="36.094875" lon="-5.772482">
        <ele>63.30</ele>
        <time>2015-06-19T13:56:50Z</time>
      </trkpt>
      <trkpt lat="36.094865" lon="-5.772443">
        <ele>63.23</ele>
        <time>2015-06-19T13:56:51Z</time>
      </trkpt>
      <trkpt lat="36.094772" lon="-5.772148">
        <ele>63.22</ele>
        <time>2015-06-19T13:56:58Z</time>
      </trkpt>
      <trkpt lat="36.094726" lon="-5.772054">
        <ele>63.21</ele>
        <time>2015-06-19T13:57:00Z</time>
      </trkpt>
      <trkpt lat="36.094639" lon="-5.771914">
        <ele>63.21</ele>
        <time>2015-06-19T13:57:03Z</time>
      </trkpt>
      <trkpt lat="36.094568" lon="-5.771823">
        <ele>63.23</ele>
        <time>2015-06-19T13:57:05Z</time>
      </trkpt>
      <trkpt lat="36.094528" lon="-5.771780">
        <ele>63.27</ele>
        <time>2015-06-19T13:57:06Z</time>
      </trkpt>
      <trkpt lat="36.094442" lon="-5.771683">
        <ele>63.30</ele>
        <time>2015-06-19T13:57:08Z</time>
      </trkpt>
      <trkpt lat="36.094343" lon="-5.771583">
        <ele>62.65</ele>
        <time>2015-06-19T13:57:10Z</time>
      </trkpt>
      <trkpt lat="36.094289" lon="-5.771531">
        <ele>62.23</ele>
        <time>2015-06-19T13:57:11Z</time>
      </trkpt>
      <trkpt lat="36.094234" lon="-5.771476">
        <ele>61.84</ele>
        <time>2015-06-19T13:57:12Z</time>
      </trkpt>
      <trkpt lat="36.094177" lon="-5.771418">
        <ele>61.29</ele>
        <time>2015-06-19T13:57:13Z</time>
      </trkpt>
      <trkpt lat="36.094117" lon="-5.771360">
        <ele>60.87</ele>
        <time>2015-06-19T13:57:14Z</time>
      </trkpt>
      <trkpt lat="36.093990" lon="-5.771235">
        <ele>60.28</ele>
        <time>2015-06-19T13:57:16Z</time>
      </trkpt>
      <trkpt lat="36.093924" lon="-5.771171">
        <ele>59.81</ele>
        <time>2015-06-19T13:57:17Z</time>
      </trkpt>
      <trkpt lat="36.093861" lon="-5.771102">
        <ele>59.21</ele>
        <time>2015-06-19T13:57:18Z</time>
      </trkpt>
      <trkpt lat="36.093795" lon="-5.771033">
        <ele>58.26</ele>
        <time>2015-06-19T13:57:19Z</time>
      </trkpt>
      <trkpt lat="36.093731" lon="-5.770968">
        <ele>57.82</ele>
        <time>2015-06-19T13:57:20Z</time>
      </trkpt>
      <trkpt lat="36.093672" lon="-5.770911">
        <ele>57.24</ele>
        <time>2015-06-19T13:57:21Z</time>
      </trkpt>
      <trkpt lat="36.093609" lon="-5.770853">
        <ele>56.85</ele>
        <time>2015-06-19T13:57:22Z</time>
      </trkpt>
      <trkpt lat="36.093549" lon="-5.770798">
        <ele>56.25</ele>
        <time>2015-06-19T13:57:23Z</time>
      </trkpt>
      <trkpt lat="36.093487" lon="-5.770744">
        <ele>55.85</ele>
        <time>2015-06-19T13:57:24Z</time>
      </trkpt>
      <trkpt lat="36.093428" lon="-5.770696">
        <ele>55.27</ele>
        <time>2015-06-19T13:57:25Z</time>
      </trkpt>
      <trkpt lat="36.093369" lon="-5.770653">
        <ele>54.81</ele>
        <time>2015-06-19T13:57:26Z</time>
      </trkpt>
      <trkpt lat="36.093307" lon="-5.770612">
        <ele>54.07</ele>
        <time>2015-06-19T13:57:27Z</time>
      </trkpt>
      <trkpt lat="36.093238" lon="-5.770574">
        <ele>53.44</ele>
        <time>2015-06-19T13:57:28Z</time>
      </trkpt>
      <trkpt lat="36.093162" lon="-5.770543">
        <ele>52.81</ele>
        <time>2015-06-19T13:57:29Z</time>
      </trkpt>
      <trkpt lat="36.093079" lon="-5.770517">
        <ele>52.01</ele>
        <time>2015-06-19T13:57:30Z</time>
      </trkpt>
      <trkpt lat="36.092997" lon="-5.770499">
        <ele>51.26</ele>
        <time>2015-06-19T13:57:31Z</time>
      </trkpt>
      <trkpt lat="36.092917" lon="-5.770484">
        <ele>50.43</ele>
        <time>2015-06-19T13:57:32Z</time>
      </trkpt>
      <trkpt lat="36.092847" lon="-5.770471">
        <ele>49.70</ele>
        <time>2015-06-19T13:57:33Z</time>
      </trkpt>
      <trkpt lat="36.092785" lon="-5.770456">
        <ele>48.84</ele>
        <time>2015-06-19T13:57:34Z</time>
      </trkpt>
      <trkpt lat="36.092724" lon="-5.770441">
        <ele>48.83</ele>
        <time>2015-06-19T13:57:35Z</time>
      </trkpt>
      <trkpt lat="36.092659" lon="-5.770424">
        <ele>48.04</ele>
        <time>2015-06-19T13:57:36Z</time>
      </trkpt>
      <trkpt lat="36.092583" lon="-5.770400">
        <ele>47.47</ele>
        <time>2015-06-19T13:57:37Z</time>
      </trkpt>
      <trkpt lat="36.092508" lon="-5.770370">
        <ele>46.65</ele>
        <time>2015-06-19T13:57:38Z</time>
      </trkpt>
      <trkpt lat="36.092433" lon="-5.770331">
        <ele>45.88</ele>
        <time>2015-06-19T13:57:39Z</time>
      </trkpt>
      <trkpt lat="36.092352" lon="-5.770284">
        <ele>44.84</ele>
        <time>2015-06-19T13:57:40Z</time>
      </trkpt>
      <trkpt lat="36.092266" lon="-5.770233">
        <ele>44.02</ele>
        <time>2015-06-19T13:57:41Z</time>
      </trkpt>
      <trkpt lat="36.092172" lon="-5.770180">
        <ele>43.01</ele>
        <time>2015-06-19T13:57:42Z</time>
      </trkpt>
      <trkpt lat="36.092076" lon="-5.770127">
        <ele>42.09</ele>
        <time>2015-06-19T13:57:43Z</time>
      </trkpt>
      <trkpt lat="36.091981" lon="-5.770075">
        <ele>40.05</ele>
        <time>2015-06-19T13:57:44Z</time>
      </trkpt>
      <trkpt lat="36.091884" lon="-5.770023">
        <ele>39.07</ele>
        <time>2015-06-19T13:57:45Z</time>
      </trkpt>
      <trkpt lat="36.091794" lon="-5.769974">
        <ele>37.84</ele>
        <time>2015-06-19T13:57:46Z</time>
      </trkpt>
      <trkpt lat="36.091706" lon="-5.769925">
        <ele>36.85</ele>
        <time>2015-06-19T13:57:47Z</time>
      </trkpt>
      <trkpt lat="36.091623" lon="-5.769873">
        <ele>36.03</ele>
        <time>2015-06-19T13:57:48Z</time>
      </trkpt>
      <trkpt lat="36.091541" lon="-5.769819">
        <ele>35.25</ele>
        <time>2015-06-19T13:57:49Z</time>
      </trkpt>
      <trkpt lat="36.091457" lon="-5.769765">
        <ele>34.25</ele>
        <time>2015-06-19T13:57:50Z</time>
      </trkpt>
      <trkpt lat="36.091371" lon="-5.769717">
        <ele>33.05</ele>
        <time>2015-06-19T13:57:51Z</time>
      </trkpt>
      <trkpt lat="36.091281" lon="-5.769666">
        <ele>31.80</ele>
        <time>2015-06-19T13:57:52Z</time>
      </trkpt>
      <trkpt lat="36.091197" lon="-5.769612">
        <ele>30.82</ele>
        <time>2015-06-19T13:57:53Z</time>
      </trkpt>
      <trkpt lat="36.091112" lon="-5.769557">
        <ele>29.61</ele>
        <time>2015-06-19T13:57:54Z</time>
      </trkpt>
      <trkpt lat="36.091028" lon="-5.769499">
        <ele>28.41</ele>
        <time>2015-06-19T13:57:55Z</time>
      </trkpt>
      <trkpt lat="36.090943" lon="-5.769443">
        <ele>27.45</ele>
        <time>2015-06-19T13:57:56Z</time>
      </trkpt>
      <trkpt lat="36.090857" lon="-5.769386">
        <ele>26.50</ele>
        <time>2015-06-19T13:57:57Z</time>
      </trkpt>
      <trkpt lat="36.090769" lon="-5.769330">
        <ele>25.47</ele>
        <time>2015-06-19T13:57:58Z</time>
      </trkpt>
      <trkpt lat="36.090679" lon="-5.769277">
        <ele>24.47</ele>
        <time>2015-06-19T13:57:59Z</time>
      </trkpt>
      <trkpt lat="36.090584" lon="-5.769223">
        <ele>23.63</ele>
        <time>2015-06-19T13:58:00Z</time>
      </trkpt>
      <trkpt lat="36.090492" lon="-5.769171">
        <ele>22.67</ele>
        <time>2015-06-19T13:58:01Z</time>
      </trkpt>
      <trkpt lat="36.090400" lon="-5.769121">
        <ele>22.06</ele>
        <time>2015-06-19T13:58:02Z</time>
      </trkpt>
      <trkpt lat="36.090306" lon="-5.769072">
        <ele>21.22</ele>
        <time>2015-06-19T13:58:03Z</time>
      </trkpt>
      <trkpt lat="36.090212" lon="-5.769027">
        <ele>20.70</ele>
        <time>2015-06-19T13:58:04Z</time>
      </trkpt>
      <trkpt lat="36.090119" lon="-5.768987">
        <ele>19.82</ele>
        <time>2015-06-19T13:58:05Z</time>
      </trkpt>
      <trkpt lat="36.090023" lon="-5.768947">
        <ele>19.01</ele>
        <time>2015-06-19T13:58:06Z</time>
      </trkpt>
      <trkpt lat="36.089928" lon="-5.768906">
        <ele>18.48</ele>
        <time>2015-06-19T13:58:07Z</time>
      </trkpt>
      <trkpt lat="36.089826" lon="-5.768862">
        <ele>16.88</ele>
        <time>2015-06-19T13:58:08Z</time>
      </trkpt>
      <trkpt lat="36.089732" lon="-5.768819">
        <ele>16.06</ele>
        <time>2015-06-19T13:58:09Z</time>
      </trkpt>
      <trkpt lat="36.089638" lon="-5.768779">
        <ele>15.24</ele>
        <time>2015-06-19T13:58:10Z</time>
      </trkpt>
      <trkpt lat="36.089545" lon="-5.768742">
        <ele>14.48</ele>
        <time>2015-06-19T13:58:11Z</time>
      </trkpt>
      <trkpt lat="36.089451" lon="-5.768706">
        <ele>14.50</ele>
        <time>2015-06-19T13:58:12Z</time>
      </trkpt>
      <trkpt lat="36.089110" lon="-5.768551">
        <ele>14.04</ele>
        <time>2015-06-19T13:58:16Z</time>
      </trkpt>
      <trkpt lat="36.089030" lon="-5.768517">
        <ele>13.68</ele>
        <time>2015-06-19T13:58:17Z</time>
      </trkpt>
      <trkpt lat="36.088953" lon="-5.768483">
        <ele>13.29</ele>
        <time>2015-06-19T13:58:18Z</time>
      </trkpt>
      <trkpt lat="36.088880" lon="-5.768447">
        <ele>12.66</ele>
        <time>2015-06-19T13:58:19Z</time>
      </trkpt>
      <trkpt lat="36.088810" lon="-5.768414">
        <ele>12.22</ele>
        <time>2015-06-19T13:58:20Z</time>
      </trkpt>
      <trkpt lat="36.088677" lon="-5.768349">
        <ele>12.21</ele>
        <time>2015-06-19T13:58:22Z</time>
      </trkpt>
      <trkpt lat="36.088349" lon="-5.768196">
        <ele>11.89</ele>
        <time>2015-06-19T13:58:28Z</time>
      </trkpt>
      <trkpt lat="36.088303" lon="-5.768174">
        <ele>11.45</ele>
        <time>2015-06-19T13:58:29Z</time>
      </trkpt>
      <trkpt lat="36.088261" lon="-5.768148">
        <ele>11.08</ele>
        <time>2015-06-19T13:58:30Z</time>
      </trkpt>
      <trkpt lat="36.088221" lon="-5.768126">
        <ele>10.63</ele>
        <time>2015-06-19T13:58:31Z</time>
      </trkpt>
      <trkpt lat="36.088182" lon="-5.768104">
        <ele>10.28</ele>
        <time>2015-06-19T13:58:32Z</time>
      </trkpt>
      <trkpt lat="36.088143" lon="-5.768087">
        <ele>10.22</ele>
        <time>2015-06-19T13:58:33Z</time>
      </trkpt>
      <trkpt lat="36.088070" lon="-5.768051">
        <ele>9.90</ele>
        <time>2015-06-19T13:58:35Z</time>
      </trkpt>
      <trkpt lat="36.088035" lon="-5.768033">
        <ele>9.45</ele>
        <time>2015-06-19T13:58:36Z</time>
      </trkpt>
      <trkpt lat="36.088000" lon="-5.768017">
        <ele>9.07</ele>
        <time>2015-06-19T13:58:37Z</time>
      </trkpt>
      <trkpt lat="36.087964" lon="-5.768001">
        <ele>8.60</ele>
        <time>2015-06-19T13:58:38Z</time>
      </trkpt>
      <trkpt lat="36.087934" lon="-5.767984">
        <ele>8.22</ele>
        <time>2015-06-19T13:58:39Z</time>
      </trkpt>
      <trkpt lat="36.087877" lon="-5.767953">
        <ele>8.21</ele>
        <time>2015-06-19T13:58:41Z</time>
      </trkpt>
      <trkpt lat="36.087831" lon="-5.767915">
        <ele>8.24</ele>
        <time>2015-06-19T13:58:43Z</time>
      </trkpt>
      <trkpt lat="36.087810" lon="-5.767902">
        <ele>8.24</ele>
        <time>2015-06-19T13:58:44Z</time>
      </trkpt>
      <trkpt lat="36.087790" lon="-5.767889">
        <ele>8.22</ele>
        <time>2015-06-19T13:58:45Z</time>
      </trkpt>
      <trkpt lat="36.087761" lon="-5.767856">
        <ele>8.28</ele>
        <time>2015-06-19T13:58:47Z</time>
      </trkpt>
      <trkpt lat="36.087720" lon="-5.767803">
        <ele>8.27</ele>
        <time>2015-06-19T13:58:50Z</time>
      </trkpt>
      <trkpt lat="36.087696" lon="-5.767768">
        <ele>8.28</ele>
        <time>2015-06-19T13:58:52Z</time>
      </trkpt>
      <trkpt lat="36.087682" lon="-5.767702">
        <ele>8.24</ele>
        <time>2015-06-19T13:58:55Z</time>
      </trkpt>
      <trkpt lat="36.087679" lon="-5.767650">
        <ele>8.62</ele>
        <time>2015-06-19T13:58:57Z</time>
      </trkpt>
      <trkpt lat="36.087678" lon="-5.767625">
        <ele>9.46</ele>
        <time>2015-06-19T13:58:58Z</time>
      </trkpt>
      <trkpt lat="36.087679" lon="-5.767598">
        <ele>10.06</ele>
        <time>2015-06-19T13:58:59Z</time>
      </trkpt>
      <trkpt lat="36.087681" lon="-5.767572">
        <ele>10.41</ele>
        <time>2015-06-19T13:59:00Z</time>
      </trkpt>
      <trkpt lat="36.087685" lon="-5.767548">
        <ele>10.41</ele>
        <time>2015-06-19T13:59:01Z</time>
      </trkpt>
      <trkpt lat="36.087693" lon="-5.767500">
        <ele>10.45</ele>
        <time>2015-06-19T13:59:03Z</time>
      </trkpt>
      <trkpt lat="36.087700" lon="-5.767433">
        <ele>10.46</ele>
        <time>2015-06-19T13:59:06Z</time>
      </trkpt>
      <trkpt lat="36.087712" lon="-5.767388">
        <ele>10.46</ele>
        <time>2015-06-19T13:59:08Z</time>
      </trkpt>
      <trkpt lat="36.087734" lon="-5.767324">
        <ele>10.85</ele>
        <time>2015-06-19T13:59:11Z</time>
      </trkpt>
      <trkpt lat="36.087741" lon="-5.767301">
        <ele>11.23</ele>
        <time>2015-06-19T13:59:12Z</time>
      </trkpt>
      <trkpt lat="36.087747" lon="-5.767276">
        <ele>11.63</ele>
        <time>2015-06-19T13:59:13Z</time>
      </trkpt>
      <trkpt lat="36.087756" lon="-5.767247">
        <ele>12.10</ele>
        <time>2015-06-19T13:59:14Z</time>
      </trkpt>
      <trkpt lat="36.087766" lon="-5.767211">
        <ele>12.48</ele>
        <time>2015-06-19T13:59:15Z</time>
      </trkpt>
      <trkpt lat="36.087801" lon="-5.767098">
        <ele>12.49</ele>
        <time>2015-06-19T13:59:18Z</time>
      </trkpt>
      <trkpt lat="36.087811" lon="-5.767063">
        <ele>12.86</ele>
        <time>2015-06-19T13:59:19Z</time>
      </trkpt>
      <trkpt lat="36.087821" lon="-5.767030">
        <ele>13.42</ele>
        <time>2015-06-19T13:59:20Z</time>
      </trkpt>
      <trkpt lat="36.087829" lon="-5.766995">
        <ele>13.81</ele>
        <time>2015-06-19T13:59:21Z</time>
      </trkpt>
      <trkpt lat="36.087836" lon="-5.766957">
        <ele>14.83</ele>
        <time>2015-06-19T13:59:22Z</time>
      </trkpt>
      <trkpt lat="36.087844" lon="-5.766879">
        <ele>14.84</ele>
        <time>2015-06-19T13:59:24Z</time>
      </trkpt>
      <trkpt lat="36.087844" lon="-5.766772">
        <ele>14.86</ele>
        <time>2015-06-19T13:59:27Z</time>
      </trkpt>
      <trkpt lat="36.087837" lon="-5.766623">
        <ele>14.87</ele>
        <time>2015-06-19T13:59:31Z</time>
      </trkpt>
      <trkpt lat="36.087845" lon="-5.766512">
        <ele>14.88</ele>
        <time>2015-06-19T13:59:34Z</time>
      </trkpt>
      <trkpt lat="36.087820" lon="-5.766350">
        <ele>14.90</ele>
        <time>2015-06-19T13:59:38Z</time>
      </trkpt>
      <trkpt lat="36.087812" lon="-5.766166">
        <ele>14.84</ele>
        <time>2015-06-19T13:59:43Z</time>
      </trkpt>
      <trkpt lat="36.087785" lon="-5.766062">
        <ele>15.28</ele>
        <time>2015-06-19T13:59:46Z</time>
      </trkpt>
      <trkpt lat="36.087774" lon="-5.766034">
        <ele>16.06</ele>
        <time>2015-06-19T13:59:47Z</time>
      </trkpt>
      <trkpt lat="36.087768" lon="-5.766007">
        <ele>16.45</ele>
        <time>2015-06-19T13:59:48Z</time>
      </trkpt>
      <trkpt lat="36.087762" lon="-5.765978">
        <ele>16.82</ele>
        <time>2015-06-19T13:59:49Z</time>
      </trkpt>
      <trkpt lat="36.087760" lon="-5.765918">
        <ele>16.81</ele>
        <time>2015-06-19T13:59:51Z</time>
      </trkpt>
      <trkpt lat="36.087730" lon="-5.765687">
        <ele>16.85</ele>
        <time>2015-06-19T13:59:58Z</time>
      </trkpt>
      <trkpt lat="36.087726" lon="-5.765650">
        <ele>16.86</ele>
        <time>2015-06-19T13:59:59Z</time>
      </trkpt>
      <trkpt lat="36.087703" lon="-5.765334">
        <ele>16.90</ele>
        <time>2015-06-19T14:00:07Z</time>
      </trkpt>
      <trkpt lat="36.087679" lon="-5.765004">
        <ele>16.84</ele>
        <time>2015-06-19T14:00:15Z</time>
      </trkpt>
      <trkpt lat="36.087669" lon="-5.764872">
        <ele>16.86</ele>
        <time>2015-06-19T14:00:19Z</time>
      </trkpt>
      <trkpt lat="36.087669" lon="-5.764760">
        <ele>16.84</ele>
        <time>2015-06-19T14:00:22Z</time>
      </trkpt>
      <trkpt lat="36.087666" lon="-5.764720">
        <ele>17.29</ele>
        <time>2015-06-19T14:00:23Z</time>
      </trkpt>
      <trkpt lat="36.087662" lon="-5.764682">
        <ele>17.68</ele>
        <time>2015-06-19T14:00:24Z</time>
      </trkpt>
      <trkpt lat="36.087658" lon="-5.764643">
        <ele>18.02</ele>
        <time>2015-06-19T14:00:25Z</time>
      </trkpt>
      <trkpt lat="36.087654" lon="-5.764603">
        <ele>18.40</ele>
        <time>2015-06-19T14:00:26Z</time>
      </trkpt>
      <trkpt lat="36.087649" lon="-5.764564">
        <ele>18.81</ele>
        <time>2015-06-19T14:00:27Z</time>
      </trkpt>
      <trkpt lat="36.087643" lon="-5.764485">
        <ele>18.81</ele>
        <time>2015-06-19T14:00:29Z</time>
      </trkpt>
      <trkpt lat="36.087665" lon="-5.764156">
        <ele>18.85</ele>
        <time>2015-06-19T14:00:37Z</time>
      </trkpt>
      <trkpt lat="36.087748" lon="-5.763891">
        <ele>18.83</ele>
        <time>2015-06-19T14:00:43Z</time>
      </trkpt>
      <trkpt lat="36.087881" lon="-5.763564">
        <ele>18.87</ele>
        <time>2015-06-19T14:00:51Z</time>
      </trkpt>
      <trkpt lat="36.087939" lon="-5.763442">
        <ele>18.89</ele>
        <time>2015-06-19T14:00:54Z</time>
      </trkpt>
      <trkpt lat="36.088005" lon="-5.763282">
        <ele>18.85</ele>
        <time>2015-06-19T14:00:58Z</time>
      </trkpt>
      <trkpt lat="36.088109" lon="-5.762907">
        <ele>18.87</ele>
        <time>2015-06-19T14:01:06Z</time>
      </trkpt>
      <trkpt lat="36.088124" lon="-5.762811">
        <ele>18.85</ele>
        <time>2015-06-19T14:01:08Z</time>
      </trkpt>
      <trkpt lat="36.088146" lon="-5.762563">
        <ele>18.82</ele>
        <time>2015-06-19T14:01:13Z</time>
      </trkpt>
      <trkpt lat="36.088154" lon="-5.762086">
        <ele>18.83</ele>
        <time>2015-06-19T14:01:23Z</time>
      </trkpt>
      <trkpt lat="36.088136" lon="-5.761863">
        <ele>18.87</ele>
        <time>2015-06-19T14:01:29Z</time>
      </trkpt>
      <trkpt lat="36.088128" lon="-5.761686">
        <ele>18.81</ele>
        <time>2015-06-19T14:01:34Z</time>
      </trkpt>
      <trkpt lat="36.088129" lon="-5.761619">
        <ele>18.81</ele>
        <time>2015-06-19T14:01:36Z</time>
      </trkpt>
      <trkpt lat="36.088188" lon="-5.761395">
        <ele>18.89</ele>
        <time>2015-06-19T14:01:43Z</time>
      </trkpt>
      <trkpt lat="36.088288" lon="-5.761249">
        <ele>18.82</ele>
        <time>2015-06-19T14:01:49Z</time>
      </trkpt>
      <trkpt lat="36.088308" lon="-5.761229">
        <ele>18.88</ele>
        <time>2015-06-19T14:01:50Z</time>
      </trkpt>
      <trkpt lat="36.088403" lon="-5.761130">
        <ele>18.86</ele>
        <time>2015-06-19T14:01:55Z</time>
      </trkpt>
      <trkpt lat="36.088552" lon="-5.760996">
        <ele>18.83</ele>
        <time>2015-06-19T14:02:02Z</time>
      </trkpt>
      <trkpt lat="36.088644" lon="-5.760902">
        <ele>18.84</ele>
        <time>2015-06-19T14:02:07Z</time>
      </trkpt>
      <trkpt lat="36.088781" lon="-5.760777">
        <ele>18.88</ele>
        <time>2015-06-19T14:02:14Z</time>
      </trkpt>
      <trkpt lat="36.088803" lon="-5.760762">
        <ele>19.29</ele>
        <time>2015-06-19T14:02:15Z</time>
      </trkpt>
      <trkpt lat="36.088824" lon="-5.760746">
        <ele>19.69</ele>
        <time>2015-06-19T14:02:16Z</time>
      </trkpt>
      <trkpt lat="36.088844" lon="-5.760727">
        <ele>20.06</ele>
        <time>2015-06-19T14:02:17Z</time>
      </trkpt>
      <trkpt lat="36.088862" lon="-5.760706">
        <ele>20.43</ele>
        <time>2015-06-19T14:02:18Z</time>
      </trkpt>
      <trkpt lat="36.088878" lon="-5.760685">
        <ele>21.01</ele>
        <time>2015-06-19T14:02:19Z</time>
      </trkpt>
      <trkpt lat="36.088962" lon="-5.760579">
        <ele>21.02</ele>
        <time>2015-06-19T14:02:24Z</time>
      </trkpt>
      <trkpt lat="36.089013" lon="-5.760513">
        <ele>21.47</ele>
        <time>2015-06-19T14:02:27Z</time>
      </trkpt>
      <trkpt lat="36.089030" lon="-5.760488">
        <ele>21.85</ele>
        <time>2015-06-19T14:02:28Z</time>
      </trkpt>
      <trkpt lat="36.089046" lon="-5.760465">
        <ele>22.22</ele>
        <time>2015-06-19T14:02:29Z</time>
      </trkpt>
      <trkpt lat="36.089061" lon="-5.760444">
        <ele>22.61</ele>
        <time>2015-06-19T14:02:30Z</time>
      </trkpt>
      <trkpt lat="36.089078" lon="-5.760422">
        <ele>23.04</ele>
        <time>2015-06-19T14:02:31Z</time>
      </trkpt>
      <trkpt lat="36.089183" lon="-5.760259">
        <ele>23.02</ele>
        <time>2015-06-19T14:02:38Z</time>
      </trkpt>
      <trkpt lat="36.089194" lon="-5.760231">
        <ele>23.43</ele>
        <time>2015-06-19T14:02:39Z</time>
      </trkpt>
      <trkpt lat="36.089205" lon="-5.760203">
        <ele>24.21</ele>
        <time>2015-06-19T14:02:40Z</time>
      </trkpt>
      <trkpt lat="36.089217" lon="-5.760176">
        <ele>24.82</ele>
        <time>2015-06-19T14:02:41Z</time>
      </trkpt>
      <trkpt lat="36.089230" lon="-5.760149">
        <ele>25.20</ele>
        <time>2015-06-19T14:02:42Z</time>
      </trkpt>
      <trkpt lat="36.089278" lon="-5.760046">
        <ele>25.21</ele>
        <time>2015-06-19T14:02:46Z</time>
      </trkpt>
      <trkpt lat="36.089362" lon="-5.759858">
        <ele>25.28</ele>
        <time>2015-06-19T14:02:53Z</time>
      </trkpt>
      <trkpt lat="36.089448" lon="-5.759668">
        <ele>25.26</ele>
        <time>2015-06-19T14:03:00Z</time>
      </trkpt>
      <trkpt lat="36.089489" lon="-5.759561">
        <ele>25.64</ele>
        <time>2015-06-19T14:03:04Z</time>
      </trkpt>
      <trkpt lat="36.089496" lon="-5.759535">
        <ele>26.66</ele>
        <time>2015-06-19T14:03:05Z</time>
      </trkpt>
      <trkpt lat="36.089505" lon="-5.759509">
        <ele>27.07</ele>
        <time>2015-06-19T14:03:06Z</time>
      </trkpt>
      <trkpt lat="36.089514" lon="-5.759482">
        <ele>27.47</ele>
        <time>2015-06-19T14:03:07Z</time>
      </trkpt>
      <trkpt lat="36.089522" lon="-5.759456">
        <ele>27.44</ele>
        <time>2015-06-19T14:03:08Z</time>
      </trkpt>
      <trkpt lat="36.089594" lon="-5.759282">
        <ele>27.42</ele>
        <time>2015-06-19T14:03:15Z</time>
      </trkpt>
      <trkpt lat="36.089682" lon="-5.759043">
        <ele>27.46</ele>
        <time>2015-06-19T14:03:24Z</time>
      </trkpt>
      <trkpt lat="36.089771" lon="-5.758836">
        <ele>27.48</ele>
        <time>2015-06-19T14:03:32Z</time>
      </trkpt>
      <trkpt lat="36.089805" lon="-5.758748">
        <ele>28.01</ele>
        <time>2015-06-19T14:03:36Z</time>
      </trkpt>
      <trkpt lat="36.089812" lon="-5.758728">
        <ele>28.41</ele>
        <time>2015-06-19T14:03:37Z</time>
      </trkpt>
      <trkpt lat="36.089818" lon="-5.758704">
        <ele>29.04</ele>
        <time>2015-06-19T14:03:38Z</time>
      </trkpt>
      <trkpt lat="36.089823" lon="-5.758679">
        <ele>29.43</ele>
        <time>2015-06-19T14:03:39Z</time>
      </trkpt>
      <trkpt lat="36.089835" lon="-5.758653">
        <ele>29.90</ele>
        <time>2015-06-19T14:03:40Z</time>
      </trkpt>
      <trkpt lat="36.089872" lon="-5.758565">
        <ele>29.89</ele>
        <time>2015-06-19T14:03:44Z</time>
      </trkpt>
      <trkpt lat="36.089923" lon="-5.758435">
        <ele>29.87</ele>
        <time>2015-06-19T14:03:50Z</time>
      </trkpt>
      <trkpt lat="36.089963" lon="-5.758338">
        <ele>29.84</ele>
        <time>2015-06-19T14:03:55Z</time>
      </trkpt>
      <trkpt lat="36.089972" lon="-5.758293">
        <ele>30.43</ele>
        <time>2015-06-19T14:03:57Z</time>
      </trkpt>
      <trkpt lat="36.089980" lon="-5.758272">
        <ele>30.84</ele>
        <time>2015-06-19T14:03:58Z</time>
      </trkpt>
      <trkpt lat="36.089987" lon="-5.758253">
        <ele>31.28</ele>
        <time>2015-06-19T14:03:59Z</time>
      </trkpt>
      <trkpt lat="36.089995" lon="-5.758235">
        <ele>31.61</ele>
        <time>2015-06-19T14:04:00Z</time>
      </trkpt>
      <trkpt lat="36.090003" lon="-5.758215">
        <ele>32.02</ele>
        <time>2015-06-19T14:04:01Z</time>
      </trkpt>
      <trkpt lat="36.090011" lon="-5.758195">
        <ele>32.01</ele>
        <time>2015-06-19T14:04:02Z</time>
      </trkpt>
      <trkpt lat="36.090036" lon="-5.758092">
        <ele>32.02</ele>
        <time>2015-06-19T14:04:07Z</time>
      </trkpt>
      <trkpt lat="36.090041" lon="-5.758074">
        <ele>32.05</ele>
        <time>2015-06-19T14:04:08Z</time>
      </trkpt>
      <trkpt lat="36.090072" lon="-5.757924">
        <ele>32.08</ele>
        <time>2015-06-19T14:04:15Z</time>
      </trkpt>
      <trkpt lat="36.090078" lon="-5.757901">
        <ele>32.64</ele>
        <time>2015-06-19T14:04:16Z</time>
      </trkpt>
      <trkpt lat="36.090083" lon="-5.757878">
        <ele>33.04</ele>
        <time>2015-06-19T14:04:17Z</time>
      </trkpt>
      <trkpt lat="36.090089" lon="-5.757854">
        <ele>33.42</ele>
        <time>2015-06-19T14:04:18Z</time>
      </trkpt>
      <trkpt lat="36.090094" lon="-5.757832">
        <ele>34.30</ele>
        <time>2015-06-19T14:04:19Z</time>
      </trkpt>
      <trkpt lat="36.090113" lon="-5.757739">
        <ele>34.21</ele>
        <time>2015-06-19T14:04:23Z</time>
      </trkpt>
      <trkpt lat="36.090147" lon="-5.757596">
        <ele>34.63</ele>
        <time>2015-06-19T14:04:29Z</time>
      </trkpt>
      <trkpt lat="36.090153" lon="-5.757570">
        <ele>35.06</ele>
        <time>2015-06-19T14:04:30Z</time>
      </trkpt>
      <trkpt lat="36.090160" lon="-5.757545">
        <ele>35.61</ele>
        <time>2015-06-19T14:04:31Z</time>
      </trkpt>
      <trkpt lat="36.090166" lon="-5.757520">
        <ele>36.01</ele>
        <time>2015-06-19T14:04:32Z</time>
      </trkpt>
      <trkpt lat="36.090171" lon="-5.757498">
        <ele>36.42</ele>
        <time>2015-06-19T14:04:33Z</time>
      </trkpt>
      <trkpt lat="36.090196" lon="-5.757399">
        <ele>36.41</ele>
        <time>2015-06-19T14:04:37Z</time>
      </trkpt>
      <trkpt lat="36.090247" lon="-5.757173">
        <ele>36.46</ele>
        <time>2015-06-19T14:04:46Z</time>
      </trkpt>
      <trkpt lat="36.090254" lon="-5.757150">
        <ele>36.84</ele>
        <time>2015-06-19T14:04:47Z</time>
      </trkpt>
      <trkpt lat="36.090259" lon="-5.757125">
        <ele>37.30</ele>
        <time>2015-06-19T14:04:48Z</time>
      </trkpt>
      <trkpt lat="36.090263" lon="-5.757100">
        <ele>37.87</ele>
        <time>2015-06-19T14:04:49Z</time>
      </trkpt>
      <trkpt lat="36.090267" lon="-5.757073">
        <ele>38.22</ele>
        <time>2015-06-19T14:04:50Z</time>
      </trkpt>
      <trkpt lat="36.090273" lon="-5.757047">
        <ele>38.66</ele>
        <time>2015-06-19T14:04:51Z</time>
      </trkpt>
      <trkpt lat="36.090294" lon="-5.756939">
        <ele>38.63</ele>
        <time>2015-06-19T14:04:55Z</time>
      </trkpt>
      <trkpt lat="36.090313" lon="-5.756785">
        <ele>38.69</ele>
        <time>2015-06-19T14:05:01Z</time>
      </trkpt>
      <trkpt lat="36.090322" lon="-5.756704">
        <ele>38.61</ele>
        <time>2015-06-19T14:05:04Z</time>
      </trkpt>
      <trkpt lat="36.090326" lon="-5.756676">
        <ele>39.01</ele>
        <time>2015-06-19T14:05:05Z</time>
      </trkpt>
      <trkpt lat="36.090330" lon="-5.756648">
        <ele>39.49</ele>
        <time>2015-06-19T14:05:06Z</time>
      </trkpt>
      <trkpt lat="36.090332" lon="-5.756621">
        <ele>39.87</ele>
        <time>2015-06-19T14:05:07Z</time>
      </trkpt>
      <trkpt lat="36.090334" lon="-5.756595">
        <ele>40.22</ele>
        <time>2015-06-19T14:05:08Z</time>
      </trkpt>
      <trkpt lat="36.090336" lon="-5.756568">
        <ele>40.62</ele>
        <time>2015-06-19T14:05:09Z</time>
      </trkpt>
      <trkpt lat="36.090338" lon="-5.756545">
        <ele>40.62</ele>
        <time>2015-06-19T14:05:10Z</time>
      </trkpt>
      <trkpt lat="36.090343" lon="-5.756350">
        <ele>40.63</ele>
        <time>2015-06-19T14:05:18Z</time>
      </trkpt>
      <trkpt lat="36.090341" lon="-5.756183">
        <ele>40.66</ele>
        <time>2015-06-19T14:05:25Z</time>
      </trkpt>
      <trkpt lat="36.090353" lon="-5.755981">
        <ele>40.69</ele>
        <time>2015-06-19T14:05:33Z</time>
      </trkpt>
      <trkpt lat="36.090353" lon="-5.755957">
        <ele>41.46</ele>
        <time>2015-06-19T14:05:34Z</time>
      </trkpt>
      <trkpt lat="36.090352" lon="-5.755931">
        <ele>42.04</ele>
        <time>2015-06-19T14:05:35Z</time>
      </trkpt>
      <trkpt lat="36.090349" lon="-5.755907">
        <ele>42.42</ele>
        <time>2015-06-19T14:05:36Z</time>
      </trkpt>
      <trkpt lat="36.090347" lon="-5.755882">
        <ele>42.81</ele>
        <time>2015-06-19T14:05:37Z</time>
      </trkpt>
      <trkpt lat="36.090350" lon="-5.755777">
        <ele>42.85</ele>
        <time>2015-06-19T14:05:41Z</time>
      </trkpt>
      <trkpt lat="36.090355" lon="-5.755568">
        <ele>42.89</ele>
        <time>2015-06-19T14:05:48Z</time>
      </trkpt>
      <trkpt lat="36.090363" lon="-5.755479">
        <ele>43.29</ele>
        <time>2015-06-19T14:05:51Z</time>
      </trkpt>
      <trkpt lat="36.090363" lon="-5.755448">
        <ele>43.63</ele>
        <time>2015-06-19T14:05:52Z</time>
      </trkpt>
      <trkpt lat="36.090365" lon="-5.755419">
        <ele>44.25</ele>
        <time>2015-06-19T14:05:53Z</time>
      </trkpt>
      <trkpt lat="36.090368" lon="-5.755389">
        <ele>44.68</ele>
        <time>2015-06-19T14:05:54Z</time>
      </trkpt>
      <trkpt lat="36.090370" lon="-5.755359">
        <ele>45.07</ele>
        <time>2015-06-19T14:05:55Z</time>
      </trkpt>
      <trkpt lat="36.090372" lon="-5.755329">
        <ele>45.04</ele>
        <time>2015-06-19T14:05:56Z</time>
      </trkpt>
      <trkpt lat="36.090397" lon="-5.755094">
        <ele>45.04</ele>
        <time>2015-06-19T14:06:04Z</time>
      </trkpt>
      <trkpt lat="36.090502" lon="-5.754844">
        <ele>45.02</ele>
        <time>2015-06-19T14:06:13Z</time>
      </trkpt>
      <trkpt lat="36.090530" lon="-5.754802">
        <ele>45.41</ele>
        <time>2015-06-19T14:06:15Z</time>
      </trkpt>
      <trkpt lat="36.090545" lon="-5.754779">
        <ele>45.81</ele>
        <time>2015-06-19T14:06:16Z</time>
      </trkpt>
      <trkpt lat="36.090560" lon="-5.754759">
        <ele>46.26</ele>
        <time>2015-06-19T14:06:17Z</time>
      </trkpt>
      <trkpt lat="36.090577" lon="-5.754740">
        <ele>46.69</ele>
        <time>2015-06-19T14:06:18Z</time>
      </trkpt>
      <trkpt lat="36.090594" lon="-5.754723">
        <ele>47.09</ele>
        <time>2015-06-19T14:06:19Z</time>
      </trkpt>
      <trkpt lat="36.090645" lon="-5.754666">
        <ele>47.05</ele>
        <time>2015-06-19T14:06:22Z</time>
      </trkpt>
      <trkpt lat="36.090747" lon="-5.754562">
        <ele>46.69</ele>
        <time>2015-06-19T14:06:28Z</time>
      </trkpt>
      <trkpt lat="36.090766" lon="-5.754544">
        <ele>46.22</ele>
        <time>2015-06-19T14:06:29Z</time>
      </trkpt>
      <trkpt lat="36.090783" lon="-5.754528">
        <ele>45.65</ele>
        <time>2015-06-19T14:06:30Z</time>
      </trkpt>
      <trkpt lat="36.090803" lon="-5.754513">
        <ele>45.22</ele>
        <time>2015-06-19T14:06:31Z</time>
      </trkpt>
      <trkpt lat="36.090823" lon="-5.754494">
        <ele>44.84</ele>
        <time>2015-06-19T14:06:32Z</time>
      </trkpt>
      <trkpt lat="36.090897" lon="-5.754426">
        <ele>44.85</ele>
        <time>2015-06-19T14:06:36Z</time>
      </trkpt>
      <trkpt lat="36.091016" lon="-5.754307">
        <ele>44.81</ele>
        <time>2015-06-19T14:06:43Z</time>
      </trkpt>
      <trkpt lat="36.091152" lon="-5.754150">
        <ele>44.81</ele>
        <time>2015-06-19T14:06:51Z</time>
      </trkpt>
      <trkpt lat="36.091186" lon="-5.754109">
        <ele>45.23</ele>
        <time>2015-06-19T14:06:53Z</time>
      </trkpt>
      <trkpt lat="36.091203" lon="-5.754090">
        <ele>45.62</ele>
        <time>2015-06-19T14:06:54Z</time>
      </trkpt>
      <trkpt lat="36.091220" lon="-5.754072">
        <ele>46.07</ele>
        <time>2015-06-19T14:06:55Z</time>
      </trkpt>
      <trkpt lat="36.091236" lon="-5.754054">
        <ele>46.41</ele>
        <time>2015-06-19T14:06:56Z</time>
      </trkpt>
      <trkpt lat="36.091254" lon="-5.754035">
        <ele>46.86</ele>
        <time>2015-06-19T14:06:57Z</time>
      </trkpt>
      <trkpt lat="36.091270" lon="-5.754006">
        <ele>46.88</ele>
        <time>2015-06-19T14:06:59Z</time>
      </trkpt>
      <trkpt lat="36.091276" lon="-5.753988">
        <ele>47.22</ele>
        <time>2015-06-19T14:07:04Z</time>
      </trkpt>
      <trkpt lat="36.091277" lon="-5.753989">
        <ele>47.84</ele>
        <time>2015-06-19T14:07:05Z</time>
      </trkpt>
      <trkpt lat="36.091277" lon="-5.753989">
        <ele>48.22</ele>
        <time>2015-06-19T14:07:06Z</time>
      </trkpt>
      <trkpt lat="36.091277" lon="-5.753989">
        <ele>48.70</ele>
        <time>2015-06-19T14:07:07Z</time>
      </trkpt>
      <trkpt lat="36.091277" lon="-5.753989">
        <ele>49.02</ele>
        <time>2015-06-19T14:07:08Z</time>
      </trkpt>
      <trkpt lat="36.091277" lon="-5.753989">
        <ele>49.01</ele>
        <time>2015-06-19T14:07:10Z</time>
      </trkpt>
      <trkpt lat="36.091277" lon="-5.753989">
        <ele>49.08</ele>
        <time>2015-06-19T14:07:16Z</time>
      </trkpt>
      <trkpt lat="36.091277" lon="-5.753989">
        <ele>49.08</ele>
        <time>2015-06-19T14:07:20Z</time>
      </trkpt>
      <trkpt lat="36.091277" lon="-5.753989">
        <ele>49.01</ele>
        <time>2015-06-19T14:07:32Z</time>
      </trkpt>
      <trkpt lat="36.091277" lon="-5.753989">
        <ele>49.05</ele>
        <time>2015-06-19T14:07:34Z</time>
      </trkpt>
      <trkpt lat="36.091277" lon="-5.753989">
        <ele>49.05</ele>
        <time>2015-06-19T14:07:41Z</time>
      </trkpt>
      <trkpt lat="36.091276" lon="-5.753989">
        <ele>49.04</ele>
        <time>2015-06-19T14:07:48Z</time>
      </trkpt>
      <trkpt lat="36.091286" lon="-5.753983">
        <ele>49.08</ele>
        <time>2015-06-19T14:07:54Z</time>
      </trkpt>
      <trkpt lat="36.091342" lon="-5.753896">
        <ele>49.08</ele>
        <time>2015-06-19T14:08:01Z</time>
      </trkpt>
      <trkpt lat="36.091380" lon="-5.753843">
        <ele>49.10</ele>
        <time>2015-06-19T14:08:04Z</time>
      </trkpt>
      <trkpt lat="36.091420" lon="-5.753788">
        <ele>49.02</ele>
        <time>2015-06-19T14:08:07Z</time>
      </trkpt>
      <trkpt lat="36.091514" lon="-5.753653">
        <ele>49.02</ele>
        <time>2015-06-19T14:08:14Z</time>
      </trkpt>
      <trkpt lat="36.091581" lon="-5.753565">
        <ele>49.01</ele>
        <time>2015-06-19T14:08:19Z</time>
      </trkpt>
      <trkpt lat="36.091622" lon="-5.753519">
        <ele>49.07</ele>
        <time>2015-06-19T14:08:22Z</time>
      </trkpt>
      <trkpt lat="36.091711" lon="-5.753397">
        <ele>49.02</ele>
        <time>2015-06-19T14:08:29Z</time>
      </trkpt>
      <trkpt lat="36.091840" lon="-5.753276">
        <ele>49.03</ele>
        <time>2015-06-19T14:08:37Z</time>
      </trkpt>
      <trkpt lat="36.091915" lon="-5.753200">
        <ele>49.46</ele>
        <time>2015-06-19T14:08:42Z</time>
      </trkpt>
      <trkpt lat="36.091937" lon="-5.753190">
        <ele>49.83</ele>
        <time>2015-06-19T14:08:43Z</time>
      </trkpt>
      <trkpt lat="36.091955" lon="-5.753176">
        <ele>50.30</ele>
        <time>2015-06-19T14:08:44Z</time>
      </trkpt>
      <trkpt lat="36.091973" lon="-5.753160">
        <ele>50.65</ele>
        <time>2015-06-19T14:08:45Z</time>
      </trkpt>
      <trkpt lat="36.091987" lon="-5.753147">
        <ele>51.01</ele>
        <time>2015-06-19T14:08:46Z</time>
      </trkpt>
      <trkpt lat="36.092053" lon="-5.753088">
        <ele>51.02</ele>
        <time>2015-06-19T14:08:50Z</time>
      </trkpt>
      <trkpt lat="36.092139" lon="-5.753024">
        <ele>51.49</ele>
        <time>2015-06-19T14:08:55Z</time>
      </trkpt>
      <trkpt lat="36.092154" lon="-5.753011">
        <ele>52.02</ele>
        <time>2015-06-19T14:08:56Z</time>
      </trkpt>
      <trkpt lat="36.092171" lon="-5.752997">
        <ele>52.41</ele>
        <time>2015-06-19T14:08:57Z</time>
      </trkpt>
      <trkpt lat="36.092188" lon="-5.752984">
        <ele>52.83</ele>
        <time>2015-06-19T14:08:58Z</time>
      </trkpt>
      <trkpt lat="36.092203" lon="-5.752973">
        <ele>53.28</ele>
        <time>2015-06-19T14:08:59Z</time>
      </trkpt>
      <trkpt lat="36.092285" lon="-5.752903">
        <ele>53.28</ele>
        <time>2015-06-19T14:09:04Z</time>
      </trkpt>
      <trkpt lat="36.092404" lon="-5.752817">
        <ele>53.22</ele>
        <time>2015-06-19T14:09:11Z</time>
      </trkpt>
      <trkpt lat="36.092424" lon="-5.752806">
        <ele>53.27</ele>
        <time>2015-06-19T14:09:12Z</time>
      </trkpt>
      <trkpt lat="36.092459" lon="-5.752774">
        <ele>53.27</ele>
        <time>2015-06-19T14:09:15Z</time>
      </trkpt>
      <trkpt lat="36.092542" lon="-5.752706">
        <ele>53.65</ele>
        <time>2015-06-19T14:09:20Z</time>
      </trkpt>
      <trkpt lat="36.092560" lon="-5.752694">
        <ele>54.05</ele>
        <time>2015-06-19T14:09:21Z</time>
      </trkpt>
      <trkpt lat="36.092579" lon="-5.752683">
        <ele>54.41</ele>
        <time>2015-06-19T14:09:22Z</time>
      </trkpt>
      <trkpt lat="36.092601" lon="-5.752673">
        <ele>54.82</ele>
        <time>2015-06-19T14:09:23Z</time>
      </trkpt>
      <trkpt lat="36.092625" lon="-5.752660">
        <ele>55.20</ele>
        <time>2015-06-19T14:09:24Z</time>
      </trkpt>
      <trkpt lat="36.092686" lon="-5.752613">
        <ele>55.21</ele>
        <time>2015-06-19T14:09:27Z</time>
      </trkpt>
      <trkpt lat="36.092703" lon="-5.752593">
        <ele>55.69</ele>
        <time>2015-06-19T14:09:28Z</time>
      </trkpt>
      <trkpt lat="36.092719" lon="-5.752576">
        <ele>56.08</ele>
        <time>2015-06-19T14:09:29Z</time>
      </trkpt>
      <trkpt lat="36.092734" lon="-5.752561">
        <ele>56.41</ele>
        <time>2015-06-19T14:09:30Z</time>
      </trkpt>
      <trkpt lat="36.092752" lon="-5.752543">
        <ele>56.85</ele>
        <time>2015-06-19T14:09:31Z</time>
      </trkpt>
      <trkpt lat="36.092770" lon="-5.752526">
        <ele>57.23</ele>
        <time>2015-06-19T14:09:32Z</time>
      </trkpt>
      <trkpt lat="36.092807" lon="-5.752496">
        <ele>57.30</ele>
        <time>2015-06-19T14:09:34Z</time>
      </trkpt>
      <trkpt lat="36.092980" lon="-5.752354">
        <ele>57.25</ele>
        <time>2015-06-19T14:09:44Z</time>
      </trkpt>
      <trkpt lat="36.093013" lon="-5.752323">
        <ele>57.67</ele>
        <time>2015-06-19T14:09:46Z</time>
      </trkpt>
      <trkpt lat="36.093030" lon="-5.752309">
        <ele>58.28</ele>
        <time>2015-06-19T14:09:47Z</time>
      </trkpt>
      <trkpt lat="36.093048" lon="-5.752295">
        <ele>58.60</ele>
        <time>2015-06-19T14:09:48Z</time>
      </trkpt>
      <trkpt lat="36.093067" lon="-5.752282">
        <ele>59.02</ele>
        <time>2015-06-19T14:09:49Z</time>
      </trkpt>
      <trkpt lat="36.093086" lon="-5.752269">
        <ele>59.61</ele>
        <time>2015-06-19T14:09:50Z</time>
      </trkpt>
      <trkpt lat="36.093125" lon="-5.752240">
        <ele>59.67</ele>
        <time>2015-06-19T14:09:52Z</time>
      </trkpt>
      <trkpt lat="36.093230" lon="-5.752154">
        <ele>59.67</ele>
        <time>2015-06-19T14:09:58Z</time>
      </trkpt>
      <trkpt lat="36.093396" lon="-5.752019">
        <ele>60.04</ele>
        <time>2015-06-19T14:10:07Z</time>
      </trkpt>
      <trkpt lat="36.093415" lon="-5.752002">
        <ele>60.44</ele>
        <time>2015-06-19T14:10:08Z</time>
      </trkpt>
      <trkpt lat="36.093436" lon="-5.751989">
        <ele>60.87</ele>
        <time>2015-06-19T14:10:09Z</time>
      </trkpt>
      <trkpt lat="36.093458" lon="-5.751974">
        <ele>61.27</ele>
        <time>2015-06-19T14:10:10Z</time>
      </trkpt>
      <trkpt lat="36.093478" lon="-5.751959">
        <ele>61.62</ele>
        <time>2015-06-19T14:10:11Z</time>
      </trkpt>
      <trkpt lat="36.093577" lon="-5.751880">
        <ele>61.63</ele>
        <time>2015-06-19T14:10:16Z</time>
      </trkpt>
      <trkpt lat="36.093731" lon="-5.751758">
        <ele>61.68</ele>
        <time>2015-06-19T14:10:24Z</time>
      </trkpt>
      <trkpt lat="36.093749" lon="-5.751741">
        <ele>61.63</ele>
        <time>2015-06-19T14:10:25Z</time>
      </trkpt>
      <trkpt lat="36.093846" lon="-5.751665">
        <ele>62.43</ele>
        <time>2015-06-19T14:10:30Z</time>
      </trkpt>
      <trkpt lat="36.093867" lon="-5.751655">
        <ele>62.81</ele>
        <time>2015-06-19T14:10:31Z</time>
      </trkpt>
      <trkpt lat="36.093887" lon="-5.751634">
        <ele>63.29</ele>
        <time>2015-06-19T14:10:32Z</time>
      </trkpt>
      <trkpt lat="36.093908" lon="-5.751619">
        <ele>63.64</ele>
        <time>2015-06-19T14:10:33Z</time>
      </trkpt>
      <trkpt lat="36.093932" lon="-5.751607">
        <ele>63.62</ele>
        <time>2015-06-19T14:10:34Z</time>
      </trkpt>
      <trkpt lat="36.094084" lon="-5.751499">
        <ele>63.68</ele>
        <time>2015-06-19T14:10:41Z</time>
      </trkpt>
      <trkpt lat="36.094278" lon="-5.751375">
        <ele>63.65</ele>
        <time>2015-06-19T14:10:50Z</time>
      </trkpt>
      <trkpt lat="36.094446" lon="-5.751259">
        <ele>63.67</ele>
        <time>2015-06-19T14:10:58Z</time>
      </trkpt>
      <trkpt lat="36.094623" lon="-5.751143">
        <ele>63.68</ele>
        <time>2015-06-19T14:11:06Z</time>
      </trkpt>
      <trkpt lat="36.094817" lon="-5.751001">
        <ele>63.61</ele>
        <time>2015-06-19T14:11:15Z</time>
      </trkpt>
      <trkpt lat="36.094964" lon="-5.750911">
        <ele>63.63</ele>
        <time>2015-06-19T14:11:22Z</time>
      </trkpt>
      <trkpt lat="36.095061" lon="-5.750842">
        <ele>64.06</ele>
        <time>2015-06-19T14:11:27Z</time>
      </trkpt>
      <trkpt lat="36.095081" lon="-5.750830">
        <ele>64.41</ele>
        <time>2015-06-19T14:11:28Z</time>
      </trkpt>
      <trkpt lat="36.095102" lon="-5.750817">
        <ele>65.01</ele>
        <time>2015-06-19T14:11:29Z</time>
      </trkpt>
      <trkpt lat="36.095122" lon="-5.750805">
        <ele>65.46</ele>
        <time>2015-06-19T14:11:30Z</time>
      </trkpt>
      <trkpt lat="36.095142" lon="-5.750791">
        <ele>65.81</ele>
        <time>2015-06-19T14:11:31Z</time>
      </trkpt>
      <trkpt lat="36.095228" lon="-5.750726">
        <ele>64.82</ele>
        <time>2015-06-19T14:11:36Z</time>
      </trkpt>
      <trkpt lat="36.095245" lon="-5.750715">
        <ele>65.05</ele>
        <time>2015-06-19T14:11:37Z</time>
      </trkpt>
      <trkpt lat="36.095261" lon="-5.750705">
        <ele>65.03</ele>
        <time>2015-06-19T14:11:38Z</time>
      </trkpt>
      <trkpt lat="36.095274" lon="-5.750693">
        <ele>66.45</ele>
        <time>2015-06-19T14:11:39Z</time>
      </trkpt>
      <trkpt lat="36.095287" lon="-5.750683">
        <ele>67.67</ele>
        <time>2015-06-19T14:11:40Z</time>
      </trkpt>
      <trkpt lat="36.095299" lon="-5.750677">
        <ele>68.90</ele>
        <time>2015-06-19T14:11:41Z</time>
      </trkpt>
      <trkpt lat="36.095313" lon="-5.750670">
        <ele>68.82</ele>
        <time>2015-06-19T14:11:42Z</time>
      </trkpt>
      <trkpt lat="36.095327" lon="-5.750661">
        <ele>72.01</ele>
        <time>2015-06-19T14:11:43Z</time>
      </trkpt>
      <trkpt lat="36.095352" lon="-5.750638">
        <ele>72.02</ele>
        <time>2015-06-19T14:11:45Z</time>
      </trkpt>
      <trkpt lat="36.095381" lon="-5.750618">
        <ele>71.41</ele>
        <time>2015-06-19T14:11:47Z</time>
      </trkpt>
      <trkpt lat="36.095392" lon="-5.750606">
        <ele>71.42</ele>
        <time>2015-06-19T14:11:48Z</time>
      </trkpt>
      <trkpt lat="36.095409" lon="-5.750597">
        <ele>71.45</ele>
        <time>2015-06-19T14:11:49Z</time>
      </trkpt>
      <trkpt lat="36.095442" lon="-5.750582">
        <ele>71.47</ele>
        <time>2015-06-19T14:11:51Z</time>
      </trkpt>
      <trkpt lat="36.095539" lon="-5.750521">
        <ele>71.43</ele>
        <time>2015-06-19T14:11:57Z</time>
      </trkpt>
      <trkpt lat="36.095630" lon="-5.750436">
        <ele>71.50</ele>
        <time>2015-06-19T14:12:04Z</time>
      </trkpt>
      <trkpt lat="36.095677" lon="-5.750403">
        <ele>71.84</ele>
        <time>2015-06-19T14:12:07Z</time>
      </trkpt>
      <trkpt lat="36.095695" lon="-5.750392">
        <ele>72.26</ele>
        <time>2015-06-19T14:12:08Z</time>
      </trkpt>
      <trkpt lat="36.095711" lon="-5.750383">
        <ele>72.69</ele>
        <time>2015-06-19T14:12:09Z</time>
      </trkpt>
      <trkpt lat="36.095726" lon="-5.750368">
        <ele>73.02</ele>
        <time>2015-06-19T14:12:10Z</time>
      </trkpt>
      <trkpt lat="36.095745" lon="-5.750356">
        <ele>73.48</ele>
        <time>2015-06-19T14:12:11Z</time>
      </trkpt>
      <trkpt lat="36.095842" lon="-5.750296">
        <ele>73.41</ele>
        <time>2015-06-19T14:12:17Z</time>
      </trkpt>
      <trkpt lat="36.095936" lon="-5.750224">
        <ele>73.41</ele>
        <time>2015-06-19T14:12:23Z</time>
      </trkpt>
      <trkpt lat="36.096072" lon="-5.750139">
        <ele>73.83</ele>
        <time>2015-06-19T14:12:31Z</time>
      </trkpt>
      <trkpt lat="36.096090" lon="-5.750125">
        <ele>74.50</ele>
        <time>2015-06-19T14:12:32Z</time>
      </trkpt>
      <trkpt lat="36.096107" lon="-5.750114">
        <ele>74.84</ele>
        <time>2015-06-19T14:12:33Z</time>
      </trkpt>
      <trkpt lat="36.096126" lon="-5.750101">
        <ele>75.26</ele>
        <time>2015-06-19T14:12:34Z</time>
      </trkpt>
      <trkpt lat="36.096144" lon="-5.750087">
        <ele>75.64</ele>
        <time>2015-06-19T14:12:35Z</time>
      </trkpt>
      <trkpt lat="36.096177" lon="-5.750067">
        <ele>75.69</ele>
        <time>2015-06-19T14:12:37Z</time>
      </trkpt>
      <trkpt lat="36.096283" lon="-5.749994">
        <ele>75.67</ele>
        <time>2015-06-19T14:12:43Z</time>
      </trkpt>
      <trkpt lat="36.096368" lon="-5.749942">
        <ele>76.05</ele>
        <time>2015-06-19T14:12:48Z</time>
      </trkpt>
      <trkpt lat="36.096387" lon="-5.749928">
        <ele>76.45</ele>
        <time>2015-06-19T14:12:49Z</time>
      </trkpt>
      <trkpt lat="36.096403" lon="-5.749913">
        <ele>76.80</ele>
        <time>2015-06-19T14:12:50Z</time>
      </trkpt>
      <trkpt lat="36.096417" lon="-5.749903">
        <ele>77.21</ele>
        <time>2015-06-19T14:12:51Z</time>
      </trkpt>
      <trkpt lat="36.096432" lon="-5.749890">
        <ele>77.61</ele>
        <time>2015-06-19T14:12:52Z</time>
      </trkpt>
      <trkpt lat="36.096556" lon="-5.749798">
        <ele>77.66</ele>
        <time>2015-06-19T14:13:00Z</time>
      </trkpt>
      <trkpt lat="36.096701" lon="-5.749700">
        <ele>77.68</ele>
        <time>2015-06-19T14:13:09Z</time>
      </trkpt>
      <trkpt lat="36.096734" lon="-5.749674">
        <ele>78.06</ele>
        <time>2015-06-19T14:13:11Z</time>
      </trkpt>
      <trkpt lat="36.096750" lon="-5.749661">
        <ele>78.63</ele>
        <time>2015-06-19T14:13:12Z</time>
      </trkpt>
      <trkpt lat="36.096768" lon="-5.749650">
        <ele>79.02</ele>
        <time>2015-06-19T14:13:13Z</time>
      </trkpt>
      <trkpt lat="36.096785" lon="-5.749638">
        <ele>79.42</ele>
        <time>2015-06-19T14:13:14Z</time>
      </trkpt>
      <trkpt lat="36.096802" lon="-5.749626">
        <ele>79.83</ele>
        <time>2015-06-19T14:13:15Z</time>
      </trkpt>
      <trkpt lat="36.096867" lon="-5.749582">
        <ele>79.87</ele>
        <time>2015-06-19T14:13:19Z</time>
      </trkpt>
      <trkpt lat="36.096915" lon="-5.749550">
        <ele>80.23</ele>
        <time>2015-06-19T14:13:22Z</time>
      </trkpt>
      <trkpt lat="36.096931" lon="-5.749535">
        <ele>80.67</ele>
        <time>2015-06-19T14:13:23Z</time>
      </trkpt>
      <trkpt lat="36.096947" lon="-5.749526">
        <ele>81.21</ele>
        <time>2015-06-19T14:13:24Z</time>
      </trkpt>
      <trkpt lat="36.096962" lon="-5.749513">
        <ele>82.01</ele>
        <time>2015-06-19T14:13:25Z</time>
      </trkpt>
      <trkpt lat="36.096980" lon="-5.749501">
        <ele>82.06</ele>
        <time>2015-06-19T14:13:26Z</time>
      </trkpt>
      <trkpt lat="36.097112" lon="-5.749410">
        <ele>82.02</ele>
        <time>2015-06-19T14:13:34Z</time>
      </trkpt>
      <trkpt lat="36.097237" lon="-5.749318">
        <ele>82.03</ele>
        <time>2015-06-19T14:13:41Z</time>
      </trkpt>
      <trkpt lat="36.097367" lon="-5.749224">
        <ele>82.07</ele>
        <time>2015-06-19T14:13:49Z</time>
      </trkpt>
      <trkpt lat="36.097440" lon="-5.749182">
        <ele>82.50</ele>
        <time>2015-06-19T14:13:53Z</time>
      </trkpt>
      <trkpt lat="36.097459" lon="-5.749173">
        <ele>82.86</ele>
        <time>2015-06-19T14:13:54Z</time>
      </trkpt>
      <trkpt lat="36.097477" lon="-5.749162">
        <ele>83.23</ele>
        <time>2015-06-19T14:13:55Z</time>
      </trkpt>
      <trkpt lat="36.097496" lon="-5.749149">
        <ele>83.64</ele>
        <time>2015-06-19T14:13:56Z</time>
      </trkpt>
      <trkpt lat="36.097511" lon="-5.749140">
        <ele>84.09</ele>
        <time>2015-06-19T14:13:57Z</time>
      </trkpt>
      <trkpt lat="36.097634" lon="-5.749055">
        <ele>84.01</ele>
        <time>2015-06-19T14:14:04Z</time>
      </trkpt>
      <trkpt lat="36.097687" lon="-5.749023">
        <ele>84.43</ele>
        <time>2015-06-19T14:14:07Z</time>
      </trkpt>
      <trkpt lat="36.097701" lon="-5.749007">
        <ele>85.01</ele>
        <time>2015-06-19T14:14:08Z</time>
      </trkpt>
      <trkpt lat="36.097715" lon="-5.748995">
        <ele>85.48</ele>
        <time>2015-06-19T14:14:09Z</time>
      </trkpt>
      <trkpt lat="36.097731" lon="-5.748979">
        <ele>85.84</ele>
        <time>2015-06-19T14:14:10Z</time>
      </trkpt>
      <trkpt lat="36.097751" lon="-5.748963">
        <ele>86.24</ele>
        <time>2015-06-19T14:14:11Z</time>
      </trkpt>
      <trkpt lat="36.097858" lon="-5.748892">
        <ele>86.30</ele>
        <time>2015-06-19T14:14:17Z</time>
      </trkpt>
      <trkpt lat="36.097983" lon="-5.748810">
        <ele>86.25</ele>
        <time>2015-06-19T14:14:24Z</time>
      </trkpt>
      <trkpt lat="36.098080" lon="-5.748735">
        <ele>86.26</ele>
        <time>2015-06-19T14:14:30Z</time>
      </trkpt>
      <trkpt lat="36.098167" lon="-5.748659">
        <ele>86.29</ele>
        <time>2015-06-19T14:14:36Z</time>
      </trkpt>
      <trkpt lat="36.098217" lon="-5.748628">
        <ele>86.63</ele>
        <time>2015-06-19T14:14:39Z</time>
      </trkpt>
      <trkpt lat="36.098232" lon="-5.748610">
        <ele>87.42</ele>
        <time>2015-06-19T14:14:40Z</time>
      </trkpt>
      <trkpt lat="36.098249" lon="-5.748597">
        <ele>87.83</ele>
        <time>2015-06-19T14:14:41Z</time>
      </trkpt>
      <trkpt lat="36.098266" lon="-5.748586">
        <ele>88.41</ele>
        <time>2015-06-19T14:14:42Z</time>
      </trkpt>
      <trkpt lat="36.098349" lon="-5.748529">
        <ele>88.41</ele>
        <time>2015-06-19T14:14:47Z</time>
      </trkpt>
      <trkpt lat="36.098362" lon="-5.748514">
        <ele>88.42</ele>
        <time>2015-06-19T14:14:48Z</time>
      </trkpt>
      <trkpt lat="36.098472" lon="-5.748422">
        <ele>88.86</ele>
        <time>2015-06-19T14:14:55Z</time>
      </trkpt>
      <trkpt lat="36.098487" lon="-5.748408">
        <ele>89.29</ele>
        <time>2015-06-19T14:14:56Z</time>
      </trkpt>
      <trkpt lat="36.098505" lon="-5.748399">
        <ele>89.66</ele>
        <time>2015-06-19T14:14:57Z</time>
      </trkpt>
      <trkpt lat="36.098520" lon="-5.748381">
        <ele>90.02</ele>
        <time>2015-06-19T14:14:58Z</time>
      </trkpt>
      <trkpt lat="36.098537" lon="-5.748366">
        <ele>90.46</ele>
        <time>2015-06-19T14:14:59Z</time>
      </trkpt>
      <trkpt lat="36.098537" lon="-5.748354">
        <ele>90.45</ele>
        <time>2015-06-19T14:15:00Z</time>
      </trkpt>
      <trkpt lat="36.098609" lon="-5.748300">
        <ele>90.47</ele>
        <time>2015-06-19T14:15:05Z</time>
      </trkpt>
      <trkpt lat="36.098711" lon="-5.748200">
        <ele>90.45</ele>
        <time>2015-06-19T14:15:12Z</time>
      </trkpt>
      <trkpt lat="36.098775" lon="-5.748118">
        <ele>90.85</ele>
        <time>2015-06-19T14:15:17Z</time>
      </trkpt>
      <trkpt lat="36.098789" lon="-5.748106">
        <ele>91.21</ele>
        <time>2015-06-19T14:15:18Z</time>
      </trkpt>
      <trkpt lat="36.098803" lon="-5.748092">
        <ele>91.81</ele>
        <time>2015-06-19T14:15:19Z</time>
      </trkpt>
      <trkpt lat="36.098816" lon="-5.748074">
        <ele>92.23</ele>
        <time>2015-06-19T14:15:20Z</time>
      </trkpt>
      <trkpt lat="36.098828" lon="-5.748058">
        <ele>92.67</ele>
        <time>2015-06-19T14:15:21Z</time>
      </trkpt>
      <trkpt lat="36.098895" lon="-5.747982">
        <ele>92.65</ele>
        <time>2015-06-19T14:15:26Z</time>
      </trkpt>
      <trkpt lat="36.098983" lon="-5.747874">
        <ele>92.64</ele>
        <time>2015-06-19T14:15:33Z</time>
      </trkpt>
      <trkpt lat="36.099082" lon="-5.747775">
        <ele>93.04</ele>
        <time>2015-06-19T14:15:40Z</time>
      </trkpt>
      <trkpt lat="36.099097" lon="-5.747761">
        <ele>93.45</ele>
        <time>2015-06-19T14:15:41Z</time>
      </trkpt>
      <trkpt lat="36.099110" lon="-5.747743">
        <ele>93.83</ele>
        <time>2015-06-19T14:15:42Z</time>
      </trkpt>
      <trkpt lat="36.099119" lon="-5.747724">
        <ele>94.23</ele>
        <time>2015-06-19T14:15:43Z</time>
      </trkpt>
      <trkpt lat="36.099129" lon="-5.747707">
        <ele>94.67</ele>
        <time>2015-06-19T14:15:44Z</time>
      </trkpt>
      <trkpt lat="36.099162" lon="-5.747663">
        <ele>94.66</ele>
        <time>2015-06-19T14:15:47Z</time>
      </trkpt>
      <trkpt lat="36.099242" lon="-5.747589">
        <ele>95.42</ele>
        <time>2015-06-19T14:15:54Z</time>
      </trkpt>
      <trkpt lat="36.099254" lon="-5.747572">
        <ele>95.81</ele>
        <time>2015-06-19T14:15:55Z</time>
      </trkpt>
      <trkpt lat="36.099269" lon="-5.747557">
        <ele>96.50</ele>
        <time>2015-06-19T14:15:56Z</time>
      </trkpt>
      <trkpt lat="36.099282" lon="-5.747540">
        <ele>96.84</ele>
        <time>2015-06-19T14:15:57Z</time>
      </trkpt>
      <trkpt lat="36.099333" lon="-5.747479">
        <ele>96.83</ele>
        <time>2015-06-19T14:16:01Z</time>
      </trkpt>
      <trkpt lat="36.099437" lon="-5.747377">
        <ele>96.89</ele>
        <time>2015-06-19T14:16:08Z</time>
      </trkpt>
      <trkpt lat="36.099467" lon="-5.747345">
        <ele>97.24</ele>
        <time>2015-06-19T14:16:10Z</time>
      </trkpt>
      <trkpt lat="36.099483" lon="-5.747342">
        <ele>97.64</ele>
        <time>2015-06-19T14:16:11Z</time>
      </trkpt>
      <trkpt lat="36.099503" lon="-5.747332">
        <ele>98.02</ele>
        <time>2015-06-19T14:16:12Z</time>
      </trkpt>
      <trkpt lat="36.099518" lon="-5.747315">
        <ele>98.45</ele>
        <time>2015-06-19T14:16:13Z</time>
      </trkpt>
      <trkpt lat="36.099534" lon="-5.747295">
        <ele>98.87</ele>
        <time>2015-06-19T14:16:14Z</time>
      </trkpt>
      <trkpt lat="36.099566" lon="-5.747262">
        <ele>98.84</ele>
        <time>2015-06-19T14:16:16Z</time>
      </trkpt>
      <trkpt lat="36.099651" lon="-5.747191">
        <ele>98.81</ele>
        <time>2015-06-19T14:16:21Z</time>
      </trkpt>
      <trkpt lat="36.099795" lon="-5.747083">
        <ele>98.81</ele>
        <time>2015-06-19T14:16:29Z</time>
      </trkpt>
      <trkpt lat="36.099833" lon="-5.747056">
        <ele>99.28</ele>
        <time>2015-06-19T14:16:31Z</time>
      </trkpt>
      <trkpt lat="36.099851" lon="-5.747038">
        <ele>99.69</ele>
        <time>2015-06-19T14:16:32Z</time>
      </trkpt>
      <trkpt lat="36.099870" lon="-5.747023">
        <ele>100.06</ele>
        <time>2015-06-19T14:16:33Z</time>
      </trkpt>
      <trkpt lat="36.099887" lon="-5.747007">
        <ele>100.47</ele>
        <time>2015-06-19T14:16:34Z</time>
      </trkpt>
      <trkpt lat="36.099903" lon="-5.746992">
        <ele>100.89</ele>
        <time>2015-06-19T14:16:35Z</time>
      </trkpt>
      <trkpt lat="36.099936" lon="-5.746959">
        <ele>100.81</ele>
        <time>2015-06-19T14:16:37Z</time>
      </trkpt>
      <trkpt lat="36.100031" lon="-5.746900">
        <ele>101.50</ele>
        <time>2015-06-19T14:16:42Z</time>
      </trkpt>
      <trkpt lat="36.100047" lon="-5.746879">
        <ele>102.02</ele>
        <time>2015-06-19T14:16:43Z</time>
      </trkpt>
      <trkpt lat="36.100062" lon="-5.746864">
        <ele>102.42</ele>
        <time>2015-06-19T14:16:44Z</time>
      </trkpt>
      <trkpt lat="36.100080" lon="-5.746850">
        <ele>103.01</ele>
        <time>2015-06-19T14:16:45Z</time>
      </trkpt>
      <trkpt lat="36.100095" lon="-5.746837">
        <ele>103.62</ele>
        <time>2015-06-19T14:16:46Z</time>
      </trkpt>
      <trkpt lat="36.100178" lon="-5.746778">
        <ele>103.61</ele>
        <time>2015-06-19T14:16:51Z</time>
      </trkpt>
      <trkpt lat="36.100290" lon="-5.746672">
        <ele>103.63</ele>
        <time>2015-06-19T14:16:58Z</time>
      </trkpt>
      <trkpt lat="36.100414" lon="-5.746533">
        <ele>103.66</ele>
        <time>2015-06-19T14:17:06Z</time>
      </trkpt>
      <trkpt lat="36.100526" lon="-5.746348">
        <ele>103.67</ele>
        <time>2015-06-19T14:17:15Z</time>
      </trkpt>
      <trkpt lat="36.100590" lon="-5.746200">
        <ele>104.06</ele>
        <time>2015-06-19T14:17:22Z</time>
      </trkpt>
      <trkpt lat="36.100600" lon="-5.746179">
        <ele>104.49</ele>
        <time>2015-06-19T14:17:23Z</time>
      </trkpt>
      <trkpt lat="36.100610" lon="-5.746159">
        <ele>104.84</ele>
        <time>2015-06-19T14:17:24Z</time>
      </trkpt>
      <trkpt lat="36.100618" lon="-5.746140">
        <ele>105.22</ele>
        <time>2015-06-19T14:17:25Z</time>
      </trkpt>
      <trkpt lat="36.100624" lon="-5.746115">
        <ele>105.81</ele>
        <time>2015-06-19T14:17:26Z</time>
      </trkpt>
      <trkpt lat="36.100645" lon="-5.746050">
        <ele>105.85</ele>
        <time>2015-06-19T14:17:29Z</time>
      </trkpt>
      <trkpt lat="36.100676" lon="-5.745964">
        <ele>106.20</ele>
        <time>2015-06-19T14:17:33Z</time>
      </trkpt>
      <trkpt lat="36.100682" lon="-5.745937">
        <ele>106.61</ele>
        <time>2015-06-19T14:17:34Z</time>
      </trkpt>
      <trkpt lat="36.100691" lon="-5.745914">
        <ele>107.01</ele>
        <time>2015-06-19T14:17:35Z</time>
      </trkpt>
      <trkpt lat="36.100698" lon="-5.745891">
        <ele>107.43</ele>
        <time>2015-06-19T14:17:36Z</time>
      </trkpt>
      <trkpt lat="36.100706" lon="-5.745871">
        <ele>107.84</ele>
        <time>2015-06-19T14:17:37Z</time>
      </trkpt>
      <trkpt lat="36.100756" lon="-5.745733">
        <ele>107.84</ele>
        <time>2015-06-19T14:17:44Z</time>
      </trkpt>
      <trkpt lat="36.100779" lon="-5.745653">
        <ele>108.25</ele>
        <time>2015-06-19T14:17:48Z</time>
      </trkpt>
      <trkpt lat="36.100787" lon="-5.745634">
        <ele>108.63</ele>
        <time>2015-06-19T14:17:49Z</time>
      </trkpt>
      <trkpt lat="36.100794" lon="-5.745615">
        <ele>109.06</ele>
        <time>2015-06-19T14:17:50Z</time>
      </trkpt>
      <trkpt lat="36.100797" lon="-5.745594">
        <ele>109.47</ele>
        <time>2015-06-19T14:17:51Z</time>
      </trkpt>
      <trkpt lat="36.100803" lon="-5.745577">
        <ele>109.83</ele>
        <time>2015-06-19T14:17:52Z</time>
      </trkpt>
      <trkpt lat="36.100850" lon="-5.745425">
        <ele>110.45</ele>
        <time>2015-06-19T14:18:00Z</time>
      </trkpt>
      <trkpt lat="36.100857" lon="-5.745410">
        <ele>110.80</ele>
        <time>2015-06-19T14:18:01Z</time>
      </trkpt>
      <trkpt lat="36.100864" lon="-5.745390">
        <ele>111.22</ele>
        <time>2015-06-19T14:18:02Z</time>
      </trkpt>
      <trkpt lat="36.100868" lon="-5.745369">
        <ele>111.61</ele>
        <time>2015-06-19T14:18:03Z</time>
      </trkpt>
      <trkpt lat="36.100874" lon="-5.745350">
        <ele>112.06</ele>
        <time>2015-06-19T14:18:04Z</time>
      </trkpt>
      <trkpt lat="36.100889" lon="-5.745295">
        <ele>112.05</ele>
        <time>2015-06-19T14:18:07Z</time>
      </trkpt>
      <trkpt lat="36.100922" lon="-5.745192">
        <ele>112.49</ele>
        <time>2015-06-19T14:18:12Z</time>
      </trkpt>
      <trkpt lat="36.100927" lon="-5.745171">
        <ele>112.86</ele>
        <time>2015-06-19T14:18:13Z</time>
      </trkpt>
      <trkpt lat="36.100927" lon="-5.745153">
        <ele>113.25</ele>
        <time>2015-06-19T14:18:14Z</time>
      </trkpt>
      <trkpt lat="36.100936" lon="-5.745136">
        <ele>113.87</ele>
        <time>2015-06-19T14:18:15Z</time>
      </trkpt>
      <trkpt lat="36.100946" lon="-5.745116">
        <ele>114.23</ele>
        <time>2015-06-19T14:18:16Z</time>
      </trkpt>
      <trkpt lat="36.100996" lon="-5.744960">
        <ele>114.24</ele>
        <time>2015-06-19T14:18:24Z</time>
      </trkpt>
      <trkpt lat="36.101023" lon="-5.744850">
        <ele>114.68</ele>
        <time>2015-06-19T14:18:30Z</time>
      </trkpt>
      <trkpt lat="36.101028" lon="-5.744828">
        <ele>115.06</ele>
        <time>2015-06-19T14:18:31Z</time>
      </trkpt>
      <trkpt lat="36.101034" lon="-5.744809">
        <ele>115.43</ele>
        <time>2015-06-19T14:18:32Z</time>
      </trkpt>
      <trkpt lat="36.101040" lon="-5.744789">
        <ele>115.81</ele>
        <time>2015-06-19T14:18:33Z</time>
      </trkpt>
      <trkpt lat="36.101045" lon="-5.744769">
        <ele>116.22</ele>
        <time>2015-06-19T14:18:34Z</time>
      </trkpt>
      <trkpt lat="36.101079" lon="-5.744685">
        <ele>116.25</ele>
        <time>2015-06-19T14:18:39Z</time>
      </trkpt>
      <trkpt lat="36.101087" lon="-5.744664">
        <ele>116.22</ele>
        <time>2015-06-19T14:18:40Z</time>
      </trkpt>
      <trkpt lat="36.101118" lon="-5.744565">
        <ele>116.68</ele>
        <time>2015-06-19T14:18:45Z</time>
      </trkpt>
      <trkpt lat="36.101126" lon="-5.744548">
        <ele>117.42</ele>
        <time>2015-06-19T14:18:46Z</time>
      </trkpt>
      <trkpt lat="36.101133" lon="-5.744525">
        <ele>117.87</ele>
        <time>2015-06-19T14:18:47Z</time>
      </trkpt>
      <trkpt lat="36.101137" lon="-5.744506">
        <ele>118.25</ele>
        <time>2015-06-19T14:18:48Z</time>
      </trkpt>
      <trkpt lat="36.101169" lon="-5.744418">
        <ele>118.23</ele>
        <time>2015-06-19T14:18:53Z</time>
      </trkpt>
      <trkpt lat="36.101229" lon="-5.744291">
        <ele>118.24</ele>
        <time>2015-06-19T14:19:00Z</time>
      </trkpt>
      <trkpt lat="36.101262" lon="-5.744225">
        <ele>118.69</ele>
        <time>2015-06-19T14:19:04Z</time>
      </trkpt>
      <trkpt lat="36.101272" lon="-5.744208">
        <ele>119.01</ele>
        <time>2015-06-19T14:19:05Z</time>
      </trkpt>
      <trkpt lat="36.101282" lon="-5.744189">
        <ele>119.41</ele>
        <time>2015-06-19T14:19:06Z</time>
      </trkpt>
      <trkpt lat="36.101292" lon="-5.744173">
        <ele>119.82</ele>
        <time>2015-06-19T14:19:07Z</time>
      </trkpt>
      <trkpt lat="36.101306" lon="-5.744158">
        <ele>120.28</ele>
        <time>2015-06-19T14:19:08Z</time>
      </trkpt>
      <trkpt lat="36.101378" lon="-5.744026">
        <ele>120.23</ele>
        <time>2015-06-19T14:19:16Z</time>
      </trkpt>
      <trkpt lat="36.101398" lon="-5.743998">
        <ele>120.68</ele>
        <time>2015-06-19T14:19:18Z</time>
      </trkpt>
      <trkpt lat="36.101411" lon="-5.743988">
        <ele>121.09</ele>
        <time>2015-06-19T14:19:19Z</time>
      </trkpt>
      <trkpt lat="36.101421" lon="-5.743975">
        <ele>121.47</ele>
        <time>2015-06-19T14:19:20Z</time>
      </trkpt>
      <trkpt lat="36.101430" lon="-5.743961">
        <ele>121.83</ele>
        <time>2015-06-19T14:19:21Z</time>
      </trkpt>
      <trkpt lat="36.101437" lon="-5.743944">
        <ele>122.44</ele>
        <time>2015-06-19T14:19:22Z</time>
      </trkpt>
      <trkpt lat="36.101504" lon="-5.743859">
        <ele>122.49</ele>
        <time>2015-06-19T14:19:28Z</time>
      </trkpt>
      <trkpt lat="36.101572" lon="-5.743780">
        <ele>122.87</ele>
        <time>2015-06-19T14:19:34Z</time>
      </trkpt>
      <trkpt lat="36.101587" lon="-5.743770">
        <ele>123.62</ele>
        <time>2015-06-19T14:19:35Z</time>
      </trkpt>
      <trkpt lat="36.101601" lon="-5.743758">
        <ele>124.01</ele>
        <time>2015-06-19T14:19:36Z</time>
      </trkpt>
      <trkpt lat="36.101615" lon="-5.743743">
        <ele>124.48</ele>
        <time>2015-06-19T14:19:37Z</time>
      </trkpt>
      <trkpt lat="36.101690" lon="-5.743656">
        <ele>124.50</ele>
        <time>2015-06-19T14:19:43Z</time>
      </trkpt>
      <trkpt lat="36.101786" lon="-5.743560">
        <ele>124.41</ele>
        <time>2015-06-19T14:19:50Z</time>
      </trkpt>
      <trkpt lat="36.101812" lon="-5.743533">
        <ele>124.90</ele>
        <time>2015-06-19T14:19:52Z</time>
      </trkpt>
      <trkpt lat="36.101828" lon="-5.743521">
        <ele>125.21</ele>
        <time>2015-06-19T14:19:53Z</time>
      </trkpt>
      <trkpt lat="36.101839" lon="-5.743503">
        <ele>125.86</ele>
        <time>2015-06-19T14:19:54Z</time>
      </trkpt>
      <trkpt lat="36.101855" lon="-5.743488">
        <ele>126.22</ele>
        <time>2015-06-19T14:19:55Z</time>
      </trkpt>
      <trkpt lat="36.101871" lon="-5.743477">
        <ele>126.62</ele>
        <time>2015-06-19T14:19:56Z</time>
      </trkpt>
      <trkpt lat="36.101886" lon="-5.743461">
        <ele>126.68</ele>
        <time>2015-06-19T14:19:57Z</time>
      </trkpt>
      <trkpt lat="36.101974" lon="-5.743336">
        <ele>126.61</ele>
        <time>2015-06-19T14:20:04Z</time>
      </trkpt>
      <trkpt lat="36.101988" lon="-5.743313">
        <ele>127.02</ele>
        <time>2015-06-19T14:20:05Z</time>
      </trkpt>
      <trkpt lat="36.101999" lon="-5.743290">
        <ele>127.41</ele>
        <time>2015-06-19T14:20:06Z</time>
      </trkpt>
      <trkpt lat="36.102010" lon="-5.743269">
        <ele>127.82</ele>
        <time>2015-06-19T14:20:07Z</time>
      </trkpt>
      <trkpt lat="36.102019" lon="-5.743246">
        <ele>128.29</ele>
        <time>2015-06-19T14:20:08Z</time>
      </trkpt>
      <trkpt lat="36.102029" lon="-5.743223">
        <ele>128.63</ele>
        <time>2015-06-19T14:20:09Z</time>
      </trkpt>
      <trkpt lat="36.102040" lon="-5.743199">
        <ele>128.63</ele>
        <time>2015-06-19T14:20:10Z</time>
      </trkpt>
      <trkpt lat="36.102093" lon="-5.743075">
        <ele>128.68</ele>
        <time>2015-06-19T14:20:16Z</time>
      </trkpt>
      <trkpt lat="36.102110" lon="-5.743026">
        <ele>129.21</ele>
        <time>2015-06-19T14:20:18Z</time>
      </trkpt>
      <trkpt lat="36.102115" lon="-5.743002">
        <ele>129.65</ele>
        <time>2015-06-19T14:20:19Z</time>
      </trkpt>
      <trkpt lat="36.102122" lon="-5.742976">
        <ele>130.03</ele>
        <time>2015-06-19T14:20:20Z</time>
      </trkpt>
      <trkpt lat="36.102131" lon="-5.742952">
        <ele>130.44</ele>
        <time>2015-06-19T14:20:21Z</time>
      </trkpt>
      <trkpt lat="36.102138" lon="-5.742930">
        <ele>130.89</ele>
        <time>2015-06-19T14:20:22Z</time>
      </trkpt>
      <trkpt lat="36.102157" lon="-5.742863">
        <ele>130.81</ele>
        <time>2015-06-19T14:20:25Z</time>
      </trkpt>
      <trkpt lat="36.102208" lon="-5.742708">
        <ele>130.81</ele>
        <time>2015-06-19T14:20:32Z</time>
      </trkpt>
      <trkpt lat="36.102221" lon="-5.742670">
        <ele>130.87</ele>
        <time>2015-06-19T14:20:34Z</time>
      </trkpt>
      <trkpt lat="36.102234" lon="-5.742631">
        <ele>130.82</ele>
        <time>2015-06-19T14:20:36Z</time>
      </trkpt>
      <trkpt lat="36.102242" lon="-5.742613">
        <ele>131.23</ele>
        <time>2015-06-19T14:20:37Z</time>
      </trkpt>
      <trkpt lat="36.102246" lon="-5.742593">
        <ele>131.61</ele>
        <time>2015-06-19T14:20:38Z</time>
      </trkpt>
      <trkpt lat="36.102253" lon="-5.742573">
        <ele>132.10</ele>
        <time>2015-06-19T14:20:39Z</time>
      </trkpt>
      <trkpt lat="36.102254" lon="-5.742551">
        <ele>132.42</ele>
        <time>2015-06-19T14:20:40Z</time>
      </trkpt>
      <trkpt lat="36.102263" lon="-5.742533">
        <ele>132.84</ele>
        <time>2015-06-19T14:20:41Z</time>
      </trkpt>
      <trkpt lat="36.102283" lon="-5.742499">
        <ele>132.90</ele>
        <time>2015-06-19T14:20:43Z</time>
      </trkpt>
      <trkpt lat="36.102285" lon="-5.742482">
        <ele>132.83</ele>
        <time>2015-06-19T14:20:44Z</time>
      </trkpt>
      <trkpt lat="36.102316" lon="-5.742384">
        <ele>132.85</ele>
        <time>2015-06-19T14:20:49Z</time>
      </trkpt>
      <trkpt lat="36.102337" lon="-5.742290">
        <ele>133.21</ele>
        <time>2015-06-19T14:20:54Z</time>
      </trkpt>
      <trkpt lat="36.102345" lon="-5.742269">
        <ele>133.61</ele>
        <time>2015-06-19T14:20:55Z</time>
      </trkpt>
      <trkpt lat="36.102355" lon="-5.742250">
        <ele>134.28</ele>
        <time>2015-06-19T14:20:56Z</time>
      </trkpt>
      <trkpt lat="36.102363" lon="-5.742227">
        <ele>134.65</ele>
        <time>2015-06-19T14:20:57Z</time>
      </trkpt>
      <trkpt lat="36.102369" lon="-5.742206">
        <ele>135.01</ele>
        <time>2015-06-19T14:20:58Z</time>
      </trkpt>
      <trkpt lat="36.102400" lon="-5.742108">
        <ele>135.07</ele>
        <time>2015-06-19T14:21:03Z</time>
      </trkpt>
      <trkpt lat="36.102414" lon="-5.742062">
        <ele>135.50</ele>
        <time>2015-06-19T14:21:05Z</time>
      </trkpt>
      <trkpt lat="36.102422" lon="-5.742040">
        <ele>135.86</ele>
        <time>2015-06-19T14:21:06Z</time>
      </trkpt>
      <trkpt lat="36.102429" lon="-5.742018">
        <ele>136.27</ele>
        <time>2015-06-19T14:21:07Z</time>
      </trkpt>
      <trkpt lat="36.102438" lon="-5.741999">
        <ele>136.68</ele>
        <time>2015-06-19T14:21:08Z</time>
      </trkpt>
      <trkpt lat="36.102446" lon="-5.741978">
        <ele>137.08</ele>
        <time>2015-06-19T14:21:09Z</time>
      </trkpt>
      <trkpt lat="36.102463" lon="-5.741925">
        <ele>137.03</ele>
        <time>2015-06-19T14:21:12Z</time>
      </trkpt>
      <trkpt lat="36.102494" lon="-5.741804">
        <ele>137.42</ele>
        <time>2015-06-19T14:21:18Z</time>
      </trkpt>
      <trkpt lat="36.102500" lon="-5.741783">
        <ele>138.01</ele>
        <time>2015-06-19T14:21:19Z</time>
      </trkpt>
      <trkpt lat="36.102508" lon="-5.741767">
        <ele>138.45</ele>
        <time>2015-06-19T14:21:20Z</time>
      </trkpt>
      <trkpt lat="36.102514" lon="-5.741748">
        <ele>138.85</ele>
        <time>2015-06-19T14:21:21Z</time>
      </trkpt>
      <trkpt lat="36.102519" lon="-5.741730">
        <ele>139.26</ele>
        <time>2015-06-19T14:21:22Z</time>
      </trkpt>
      <trkpt lat="36.102552" lon="-5.741635">
        <ele>139.23</ele>
        <time>2015-06-19T14:21:27Z</time>
      </trkpt>
      <trkpt lat="36.102556" lon="-5.741615">
        <ele>139.61</ele>
        <time>2015-06-19T14:21:28Z</time>
      </trkpt>
      <trkpt lat="36.102560" lon="-5.741599">
        <ele>140.05</ele>
        <time>2015-06-19T14:21:29Z</time>
      </trkpt>
      <trkpt lat="36.102565" lon="-5.741583">
        <ele>140.50</ele>
        <time>2015-06-19T14:21:30Z</time>
      </trkpt>
      <trkpt lat="36.102570" lon="-5.741568">
        <ele>140.85</ele>
        <time>2015-06-19T14:21:31Z</time>
      </trkpt>
      <trkpt lat="36.102573" lon="-5.741553">
        <ele>141.27</ele>
        <time>2015-06-19T14:21:32Z</time>
      </trkpt>
      <trkpt lat="36.102603" lon="-5.741474">
        <ele>141.28</ele>
        <time>2015-06-19T14:21:37Z</time>
      </trkpt>
      <trkpt lat="36.102629" lon="-5.741397">
        <ele>141.62</ele>
        <time>2015-06-19T14:21:42Z</time>
      </trkpt>
      <trkpt lat="36.102629" lon="-5.741380">
        <ele>142.01</ele>
        <time>2015-06-19T14:21:43Z</time>
      </trkpt>
      <trkpt lat="36.102633" lon="-5.741363">
        <ele>142.44</ele>
        <time>2015-06-19T14:21:44Z</time>
      </trkpt>
      <trkpt lat="36.102638" lon="-5.741346">
        <ele>142.84</ele>
        <time>2015-06-19T14:21:45Z</time>
      </trkpt>
      <trkpt lat="36.102644" lon="-5.741322">
        <ele>143.30</ele>
        <time>2015-06-19T14:21:46Z</time>
      </trkpt>
      <trkpt lat="36.102680" lon="-5.741268">
        <ele>143.28</ele>
        <time>2015-06-19T14:21:50Z</time>
      </trkpt>
      <trkpt lat="36.102708" lon="-5.741163">
        <ele>143.29</ele>
        <time>2015-06-19T14:21:55Z</time>
      </trkpt>
      <trkpt lat="36.102757" lon="-5.741035">
        <ele>143.23</ele>
        <time>2015-06-19T14:22:01Z</time>
      </trkpt>
      <trkpt lat="36.102772" lon="-5.740984">
        <ele>143.27</ele>
        <time>2015-06-19T14:22:03Z</time>
      </trkpt>
      <trkpt lat="36.102775" lon="-5.740957">
        <ele>144.02</ele>
        <time>2015-06-19T14:22:04Z</time>
      </trkpt>
      <trkpt lat="36.102779" lon="-5.740936">
        <ele>144.49</ele>
        <time>2015-06-19T14:22:05Z</time>
      </trkpt>
      <trkpt lat="36.102788" lon="-5.740912">
        <ele>144.81</ele>
        <time>2015-06-19T14:22:06Z</time>
      </trkpt>
      <trkpt lat="36.102795" lon="-5.740890">
        <ele>145.23</ele>
        <time>2015-06-19T14:22:07Z</time>
      </trkpt>
      <trkpt lat="36.102820" lon="-5.740832">
        <ele>145.21</ele>
        <time>2015-06-19T14:22:10Z</time>
      </trkpt>
      <trkpt lat="36.102849" lon="-5.740735">
        <ele>145.28</ele>
        <time>2015-06-19T14:22:16Z</time>
      </trkpt>
      <trkpt lat="36.102912" lon="-5.740557">
        <ele>145.62</ele>
        <time>2015-06-19T14:22:24Z</time>
      </trkpt>
      <trkpt lat="36.102921" lon="-5.740536">
        <ele>146.03</ele>
        <time>2015-06-19T14:22:25Z</time>
      </trkpt>
      <trkpt lat="36.102929" lon="-5.740513">
        <ele>146.45</ele>
        <time>2015-06-19T14:22:26Z</time>
      </trkpt>
      <trkpt lat="36.102933" lon="-5.740492">
        <ele>146.81</ele>
        <time>2015-06-19T14:22:27Z</time>
      </trkpt>
      <trkpt lat="36.102940" lon="-5.740471">
        <ele>147.28</ele>
        <time>2015-06-19T14:22:28Z</time>
      </trkpt>
      <trkpt lat="36.102957" lon="-5.740387">
        <ele>147.29</ele>
        <time>2015-06-19T14:22:32Z</time>
      </trkpt>
      <trkpt lat="36.102999" lon="-5.740226">
        <ele>147.25</ele>
        <time>2015-06-19T14:22:39Z</time>
      </trkpt>
      <trkpt lat="36.103013" lon="-5.740033">
        <ele>147.23</ele>
        <time>2015-06-19T14:22:47Z</time>
      </trkpt>
      <trkpt lat="36.103011" lon="-5.740006">
        <ele>147.85</ele>
        <time>2015-06-19T14:22:48Z</time>
      </trkpt>
      <trkpt lat="36.103008" lon="-5.739977">
        <ele>148.21</ele>
        <time>2015-06-19T14:22:49Z</time>
      </trkpt>
      <trkpt lat="36.103006" lon="-5.739946">
        <ele>148.61</ele>
        <time>2015-06-19T14:22:50Z</time>
      </trkpt>
      <trkpt lat="36.102996" lon="-5.739920">
        <ele>149.01</ele>
        <time>2015-06-19T14:22:51Z</time>
      </trkpt>
      <trkpt lat="36.102991" lon="-5.739890">
        <ele>149.42</ele>
        <time>2015-06-19T14:22:52Z</time>
      </trkpt>
      <trkpt lat="36.102984" lon="-5.739863">
        <ele>149.43</ele>
        <time>2015-06-19T14:22:53Z</time>
      </trkpt>
      <trkpt lat="36.102933" lon="-5.739706">
        <ele>149.43</ele>
        <time>2015-06-19T14:22:59Z</time>
      </trkpt>
      <trkpt lat="36.102817" lon="-5.739516">
        <ele>149.47</ele>
        <time>2015-06-19T14:23:07Z</time>
      </trkpt>
      <trkpt lat="36.102773" lon="-5.739474">
        <ele>149.82</ele>
        <time>2015-06-19T14:23:09Z</time>
      </trkpt>
      <trkpt lat="36.102756" lon="-5.739444">
        <ele>150.25</ele>
        <time>2015-06-19T14:23:10Z</time>
      </trkpt>
      <trkpt lat="36.102725" lon="-5.739437">
        <ele>150.90</ele>
        <time>2015-06-19T14:23:11Z</time>
      </trkpt>
      <trkpt lat="36.102695" lon="-5.739424">
        <ele>151.27</ele>
        <time>2015-06-19T14:23:12Z</time>
      </trkpt>
      <trkpt lat="36.102664" lon="-5.739408">
        <ele>151.64</ele>
        <time>2015-06-19T14:23:13Z</time>
      </trkpt>
      <trkpt lat="36.102460" lon="-5.739339">
        <ele>151.63</ele>
        <time>2015-06-19T14:23:19Z</time>
      </trkpt>
      <trkpt lat="36.102263" lon="-5.739265">
        <ele>151.61</ele>
        <time>2015-06-19T14:23:25Z</time>
      </trkpt>
      <trkpt lat="36.102032" lon="-5.739119">
        <ele>151.27</ele>
        <time>2015-06-19T14:23:32Z</time>
      </trkpt>
      <trkpt lat="36.101997" lon="-5.739098">
        <ele>150.88</ele>
        <time>2015-06-19T14:23:33Z</time>
      </trkpt>
      <trkpt lat="36.101964" lon="-5.739074">
        <ele>150.47</ele>
        <time>2015-06-19T14:23:34Z</time>
      </trkpt>
      <trkpt lat="36.101931" lon="-5.739053">
        <ele>150.10</ele>
        <time>2015-06-19T14:23:35Z</time>
      </trkpt>
      <trkpt lat="36.101902" lon="-5.739021">
        <ele>149.64</ele>
        <time>2015-06-19T14:23:36Z</time>
      </trkpt>
      <trkpt lat="36.101843" lon="-5.738964">
        <ele>149.61</ele>
        <time>2015-06-19T14:23:38Z</time>
      </trkpt>
      <trkpt lat="36.101744" lon="-5.738850">
        <ele>149.70</ele>
        <time>2015-06-19T14:23:42Z</time>
      </trkpt>
      <trkpt lat="36.101706" lon="-5.738801">
        <ele>149.63</ele>
        <time>2015-06-19T14:23:44Z</time>
      </trkpt>
      <trkpt lat="36.101596" lon="-5.738584">
        <ele>149.66</ele>
        <time>2015-06-19T14:23:52Z</time>
      </trkpt>
      <trkpt lat="36.101570" lon="-5.738436">
        <ele>149.67</ele>
        <time>2015-06-19T14:23:57Z</time>
      </trkpt>
      <trkpt lat="36.101570" lon="-5.738385">
        <ele>149.61</ele>
        <time>2015-06-19T14:23:59Z</time>
      </trkpt>
      <trkpt lat="36.101585" lon="-5.738157">
        <ele>149.61</ele>
        <time>2015-06-19T14:24:07Z</time>
      </trkpt>
      <trkpt lat="36.101643" lon="-5.737921">
        <ele>149.68</ele>
        <time>2015-06-19T14:24:16Z</time>
      </trkpt>
      <trkpt lat="36.101689" lon="-5.737770">
        <ele>149.62</ele>
        <time>2015-06-19T14:24:22Z</time>
      </trkpt>
      <trkpt lat="36.101747" lon="-5.737593">
        <ele>149.68</ele>
        <time>2015-06-19T14:24:29Z</time>
      </trkpt>
      <trkpt lat="36.101783" lon="-5.737514">
        <ele>150.06</ele>
        <time>2015-06-19T14:24:32Z</time>
      </trkpt>
      <trkpt lat="36.101795" lon="-5.737490">
        <ele>150.41</ele>
        <time>2015-06-19T14:24:33Z</time>
      </trkpt>
      <trkpt lat="36.101803" lon="-5.737465">
        <ele>150.87</ele>
        <time>2015-06-19T14:24:34Z</time>
      </trkpt>
      <trkpt lat="36.101811" lon="-5.737440">
        <ele>151.26</ele>
        <time>2015-06-19T14:24:35Z</time>
      </trkpt>
      <trkpt lat="36.101822" lon="-5.737417">
        <ele>151.66</ele>
        <time>2015-06-19T14:24:36Z</time>
      </trkpt>
      <trkpt lat="36.101834" lon="-5.737394">
        <ele>151.61</ele>
        <time>2015-06-19T14:24:37Z</time>
      </trkpt>
      <trkpt lat="36.101895" lon="-5.737226">
        <ele>151.62</ele>
        <time>2015-06-19T14:24:44Z</time>
      </trkpt>
      <trkpt lat="36.101966" lon="-5.737033">
        <ele>151.60</ele>
        <time>2015-06-19T14:24:53Z</time>
      </trkpt>
      <trkpt lat="36.101996" lon="-5.736957">
        <ele>152.41</ele>
        <time>2015-06-19T14:24:57Z</time>
      </trkpt>
      <trkpt lat="36.102005" lon="-5.736937">
        <ele>152.81</ele>
        <time>2015-06-19T14:24:58Z</time>
      </trkpt>
      <trkpt lat="36.102010" lon="-5.736920">
        <ele>153.45</ele>
        <time>2015-06-19T14:24:59Z</time>
      </trkpt>
      <trkpt lat="36.102015" lon="-5.736899">
        <ele>153.89</ele>
        <time>2015-06-19T14:25:00Z</time>
      </trkpt>
      <trkpt lat="36.102024" lon="-5.736856">
        <ele>153.85</ele>
        <time>2015-06-19T14:25:02Z</time>
      </trkpt>
      <trkpt lat="36.102058" lon="-5.736703">
        <ele>153.82</ele>
        <time>2015-06-19T14:25:09Z</time>
      </trkpt>
      <trkpt lat="36.102073" lon="-5.736635">
        <ele>154.30</ele>
        <time>2015-06-19T14:25:12Z</time>
      </trkpt>
      <trkpt lat="36.102079" lon="-5.736610">
        <ele>154.67</ele>
        <time>2015-06-19T14:25:13Z</time>
      </trkpt>
      <trkpt lat="36.102084" lon="-5.736587">
        <ele>155.08</ele>
        <time>2015-06-19T14:25:14Z</time>
      </trkpt>
      <trkpt lat="36.102088" lon="-5.736564">
        <ele>155.44</ele>
        <time>2015-06-19T14:25:15Z</time>
      </trkpt>
      <trkpt lat="36.102093" lon="-5.736542">
        <ele>156.05</ele>
        <time>2015-06-19T14:25:16Z</time>
      </trkpt>
      <trkpt lat="36.102096" lon="-5.736495">
        <ele>156.01</ele>
        <time>2015-06-19T14:25:18Z</time>
      </trkpt>
      <trkpt lat="36.102123" lon="-5.736253">
        <ele>156.01</ele>
        <time>2015-06-19T14:25:28Z</time>
      </trkpt>
      <trkpt lat="36.102125" lon="-5.736231">
        <ele>156.47</ele>
        <time>2015-06-19T14:25:29Z</time>
      </trkpt>
      <trkpt lat="36.102125" lon="-5.736206">
        <ele>156.85</ele>
        <time>2015-06-19T14:25:30Z</time>
      </trkpt>
      <trkpt lat="36.102124" lon="-5.736180">
        <ele>157.25</ele>
        <time>2015-06-19T14:25:31Z</time>
      </trkpt>
      <trkpt lat="36.102125" lon="-5.736156">
        <ele>157.69</ele>
        <time>2015-06-19T14:25:32Z</time>
      </trkpt>
      <trkpt lat="36.102129" lon="-5.736131">
        <ele>158.07</ele>
        <time>2015-06-19T14:25:33Z</time>
      </trkpt>
      <trkpt lat="36.102140" lon="-5.736027">
        <ele>158.03</ele>
        <time>2015-06-19T14:25:37Z</time>
      </trkpt>
      <trkpt lat="36.102148" lon="-5.735813">
        <ele>158.01</ele>
        <time>2015-06-19T14:25:46Z</time>
      </trkpt>
      <trkpt lat="36.102156" lon="-5.735691">
        <ele>158.50</ele>
        <time>2015-06-19T14:25:51Z</time>
      </trkpt>
      <trkpt lat="36.102158" lon="-5.735668">
        <ele>158.85</ele>
        <time>2015-06-19T14:25:52Z</time>
      </trkpt>
      <trkpt lat="36.102156" lon="-5.735642">
        <ele>159.21</ele>
        <time>2015-06-19T14:25:53Z</time>
      </trkpt>
      <trkpt lat="36.102154" lon="-5.735617">
        <ele>159.62</ele>
        <time>2015-06-19T14:25:54Z</time>
      </trkpt>
      <trkpt lat="36.102153" lon="-5.735593">
        <ele>160.01</ele>
        <time>2015-06-19T14:25:55Z</time>
      </trkpt>
      <trkpt lat="36.102168" lon="-5.735426">
        <ele>160.07</ele>
        <time>2015-06-19T14:26:02Z</time>
      </trkpt>
      <trkpt lat="36.102180" lon="-5.735241">
        <ele>160.49</ele>
        <time>2015-06-19T14:26:10Z</time>
      </trkpt>
      <trkpt lat="36.102183" lon="-5.735219">
        <ele>161.23</ele>
        <time>2015-06-19T14:26:11Z</time>
      </trkpt>
      <trkpt lat="36.102181" lon="-5.735196">
        <ele>161.69</ele>
        <time>2015-06-19T14:26:12Z</time>
      </trkpt>
      <trkpt lat="36.102180" lon="-5.735174">
        <ele>162.04</ele>
        <time>2015-06-19T14:26:13Z</time>
      </trkpt>
      <trkpt lat="36.102193" lon="-5.735034">
        <ele>162.03</ele>
        <time>2015-06-19T14:26:19Z</time>
      </trkpt>
      <trkpt lat="36.102197" lon="-5.734985">
        <ele>162.50</ele>
        <time>2015-06-19T14:26:21Z</time>
      </trkpt>
      <trkpt lat="36.102196" lon="-5.734961">
        <ele>162.86</ele>
        <time>2015-06-19T14:26:22Z</time>
      </trkpt>
      <trkpt lat="36.102202" lon="-5.734937">
        <ele>163.49</ele>
        <time>2015-06-19T14:26:23Z</time>
      </trkpt>
      <trkpt lat="36.102199" lon="-5.734912">
        <ele>163.81</ele>
        <time>2015-06-19T14:26:24Z</time>
      </trkpt>
      <trkpt lat="36.102199" lon="-5.734889">
        <ele>164.23</ele>
        <time>2015-06-19T14:26:25Z</time>
      </trkpt>
      <trkpt lat="36.102202" lon="-5.734865">
        <ele>164.21</ele>
        <time>2015-06-19T14:26:26Z</time>
      </trkpt>
      <trkpt lat="36.102209" lon="-5.734694">
        <ele>164.22</ele>
        <time>2015-06-19T14:26:33Z</time>
      </trkpt>
      <trkpt lat="36.102210" lon="-5.734573">
        <ele>164.63</ele>
        <time>2015-06-19T14:26:38Z</time>
      </trkpt>
      <trkpt lat="36.102212" lon="-5.734545">
        <ele>165.02</ele>
        <time>2015-06-19T14:26:39Z</time>
      </trkpt>
      <trkpt lat="36.102211" lon="-5.734516">
        <ele>165.50</ele>
        <time>2015-06-19T14:26:40Z</time>
      </trkpt>
      <trkpt lat="36.102206" lon="-5.734488">
        <ele>166.08</ele>
        <time>2015-06-19T14:26:41Z</time>
      </trkpt>
      <trkpt lat="36.102202" lon="-5.734459">
        <ele>166.43</ele>
        <time>2015-06-19T14:26:42Z</time>
      </trkpt>
      <trkpt lat="36.102150" lon="-5.734262">
        <ele>166.44</ele>
        <time>2015-06-19T14:26:49Z</time>
      </trkpt>
      <trkpt lat="36.102136" lon="-5.734237">
        <ele>166.46</ele>
        <time>2015-06-19T14:26:50Z</time>
      </trkpt>
      <trkpt lat="36.102015" lon="-5.734081">
        <ele>166.43</ele>
        <time>2015-06-19T14:26:57Z</time>
      </trkpt>
      <trkpt lat="36.101914" lon="-5.733993">
        <ele>166.82</ele>
        <time>2015-06-19T14:27:02Z</time>
      </trkpt>
      <trkpt lat="36.101896" lon="-5.733974">
        <ele>167.22</ele>
        <time>2015-06-19T14:27:03Z</time>
      </trkpt>
      <trkpt lat="36.101875" lon="-5.733956">
        <ele>167.61</ele>
        <time>2015-06-19T14:27:04Z</time>
      </trkpt>
      <trkpt lat="36.101856" lon="-5.733935">
        <ele>168.04</ele>
        <time>2015-06-19T14:27:05Z</time>
      </trkpt>
      <trkpt lat="36.101838" lon="-5.733919">
        <ele>168.44</ele>
        <time>2015-06-19T14:27:06Z</time>
      </trkpt>
      <trkpt lat="36.101736" lon="-5.733838">
        <ele>168.46</ele>
        <time>2015-06-19T14:27:11Z</time>
      </trkpt>
      <trkpt lat="36.101682" lon="-5.733788">
        <ele>168.86</ele>
        <time>2015-06-19T14:27:14Z</time>
      </trkpt>
      <trkpt lat="36.101662" lon="-5.733772">
        <ele>169.25</ele>
        <time>2015-06-19T14:27:15Z</time>
      </trkpt>
      <trkpt lat="36.101644" lon="-5.733753">
        <ele>169.65</ele>
        <time>2015-06-19T14:27:16Z</time>
      </trkpt>
      <trkpt lat="36.101628" lon="-5.733739">
        <ele>170.08</ele>
        <time>2015-06-19T14:27:17Z</time>
      </trkpt>
      <trkpt lat="36.101607" lon="-5.733725">
        <ele>170.65</ele>
        <time>2015-06-19T14:27:18Z</time>
      </trkpt>
      <trkpt lat="36.101432" lon="-5.733584">
        <ele>170.64</ele>
        <time>2015-06-19T14:27:27Z</time>
      </trkpt>
      <trkpt lat="36.101274" lon="-5.733464">
        <ele>170.62</ele>
        <time>2015-06-19T14:27:35Z</time>
      </trkpt>
      <trkpt lat="36.101156" lon="-5.733368">
        <ele>171.02</ele>
        <time>2015-06-19T14:27:41Z</time>
      </trkpt>
      <trkpt lat="36.101132" lon="-5.733352">
        <ele>171.41</ele>
        <time>2015-06-19T14:27:42Z</time>
      </trkpt>
      <trkpt lat="36.101114" lon="-5.733338">
        <ele>171.82</ele>
        <time>2015-06-19T14:27:43Z</time>
      </trkpt>
      <trkpt lat="36.101095" lon="-5.733325">
        <ele>172.27</ele>
        <time>2015-06-19T14:27:44Z</time>
      </trkpt>
      <trkpt lat="36.101075" lon="-5.733310">
        <ele>172.65</ele>
        <time>2015-06-19T14:27:45Z</time>
      </trkpt>
      <trkpt lat="36.100985" lon="-5.733244">
        <ele>174.05</ele>
        <time>2015-06-19T14:27:50Z</time>
      </trkpt>
      <trkpt lat="36.100968" lon="-5.733230">
        <ele>174.67</ele>
        <time>2015-06-19T14:27:51Z</time>
      </trkpt>
      <trkpt lat="36.100947" lon="-5.733220">
        <ele>175.30</ele>
        <time>2015-06-19T14:27:52Z</time>
      </trkpt>
      <trkpt lat="36.100927" lon="-5.733202">
        <ele>175.88</ele>
        <time>2015-06-19T14:27:53Z</time>
      </trkpt>
      <trkpt lat="36.100872" lon="-5.733158">
        <ele>175.90</ele>
        <time>2015-06-19T14:27:56Z</time>
      </trkpt>
      <trkpt lat="36.100741" lon="-5.733024">
        <ele>175.85</ele>
        <time>2015-06-19T14:28:04Z</time>
      </trkpt>
      <trkpt lat="36.100641" lon="-5.732926">
        <ele>175.81</ele>
        <time>2015-06-19T14:28:09Z</time>
      </trkpt>
      <trkpt lat="36.100624" lon="-5.732907">
        <ele>175.82</ele>
        <time>2015-06-19T14:28:10Z</time>
      </trkpt>
      <trkpt lat="36.100508" lon="-5.732708">
        <ele>176.21</ele>
        <time>2015-06-19T14:28:18Z</time>
      </trkpt>
      <trkpt lat="36.100491" lon="-5.732681">
        <ele>176.63</ele>
        <time>2015-06-19T14:28:19Z</time>
      </trkpt>
      <trkpt lat="36.100481" lon="-5.732650">
        <ele>177.06</ele>
        <time>2015-06-19T14:28:20Z</time>
      </trkpt>
      <trkpt lat="36.100475" lon="-5.732616">
        <ele>177.66</ele>
        <time>2015-06-19T14:28:21Z</time>
      </trkpt>
      <trkpt lat="36.100470" lon="-5.732581">
        <ele>178.04</ele>
        <time>2015-06-19T14:28:22Z</time>
      </trkpt>
      <trkpt lat="36.100469" lon="-5.732518">
        <ele>178.04</ele>
        <time>2015-06-19T14:28:24Z</time>
      </trkpt>
      <trkpt lat="36.100446" lon="-5.732336">
        <ele>178.06</ele>
        <time>2015-06-19T14:28:29Z</time>
      </trkpt>
      <trkpt lat="36.100426" lon="-5.732247">
        <ele>178.03</ele>
        <time>2015-06-19T14:28:31Z</time>
      </trkpt>
      <trkpt lat="36.100408" lon="-5.732089">
        <ele>177.68</ele>
        <time>2015-06-19T14:28:34Z</time>
      </trkpt>
      <trkpt lat="36.100401" lon="-5.732036">
        <ele>177.23</ele>
        <time>2015-06-19T14:28:35Z</time>
      </trkpt>
      <trkpt lat="36.100397" lon="-5.731984">
        <ele>176.87</ele>
        <time>2015-06-19T14:28:36Z</time>
      </trkpt>
      <trkpt lat="36.100387" lon="-5.731926">
        <ele>176.41</ele>
        <time>2015-06-19T14:28:37Z</time>
      </trkpt>
      <trkpt lat="36.100374" lon="-5.731870">
        <ele>176.01</ele>
        <time>2015-06-19T14:28:38Z</time>
      </trkpt>
      <trkpt lat="36.100358" lon="-5.731738">
        <ele>175.02</ele>
        <time>2015-06-19T14:28:40Z</time>
      </trkpt>
      <trkpt lat="36.100351" lon="-5.731673">
        <ele>174.64</ele>
        <time>2015-06-19T14:28:41Z</time>
      </trkpt>
      <trkpt lat="36.100346" lon="-5.731606">
        <ele>174.03</ele>
        <time>2015-06-19T14:28:42Z</time>
      </trkpt>
      <trkpt lat="36.100343" lon="-5.731537">
        <ele>173.62</ele>
        <time>2015-06-19T14:28:43Z</time>
      </trkpt>
      <trkpt lat="36.100344" lon="-5.731400">
        <ele>173.65</ele>
        <time>2015-06-19T14:28:45Z</time>
      </trkpt>
      <trkpt lat="36.100370" lon="-5.731251">
        <ele>173.04</ele>
        <time>2015-06-19T14:28:47Z</time>
      </trkpt>
      <trkpt lat="36.100382" lon="-5.731167">
        <ele>172.65</ele>
        <time>2015-06-19T14:28:48Z</time>
      </trkpt>
      <trkpt lat="36.100391" lon="-5.731086">
        <ele>172.07</ele>
        <time>2015-06-19T14:28:49Z</time>
      </trkpt>
      <trkpt lat="36.100389" lon="-5.731004">
        <ele>171.67</ele>
        <time>2015-06-19T14:28:50Z</time>
      </trkpt>
      <trkpt lat="36.100377" lon="-5.730923">
        <ele>171.04</ele>
        <time>2015-06-19T14:28:51Z</time>
      </trkpt>
      <trkpt lat="36.100362" lon="-5.730847">
        <ele>170.43</ele>
        <time>2015-06-19T14:28:52Z</time>
      </trkpt>
      <trkpt lat="36.100325" lon="-5.730798">
        <ele>169.81</ele>
        <time>2015-06-19T14:28:53Z</time>
      </trkpt>
      <trkpt lat="36.100289" lon="-5.730761">
        <ele>169.28</ele>
        <time>2015-06-19T14:28:54Z</time>
      </trkpt>
      <trkpt lat="36.100261" lon="-5.730736">
        <ele>168.67</ele>
        <time>2015-06-19T14:28:55Z</time>
      </trkpt>
      <trkpt lat="36.100214" lon="-5.730633">
        <ele>168.70</ele>
        <time>2015-06-19T14:28:59Z</time>
      </trkpt>
      <trkpt lat="36.100192" lon="-5.730585">
        <ele>168.66</ele>
        <time>2015-06-19T14:29:01Z</time>
      </trkpt>
      <trkpt lat="36.100123" lon="-5.730448">
        <ele>168.65</ele>
        <time>2015-06-19T14:29:07Z</time>
      </trkpt>
      <trkpt lat="36.100054" lon="-5.730295">
        <ele>168.64</ele>
        <time>2015-06-19T14:29:13Z</time>
      </trkpt>
      <trkpt lat="36.100039" lon="-5.730269">
        <ele>169.26</ele>
        <time>2015-06-19T14:29:14Z</time>
      </trkpt>
      <trkpt lat="36.100024" lon="-5.730245">
        <ele>169.68</ele>
        <time>2015-06-19T14:29:15Z</time>
      </trkpt>
      <trkpt lat="36.100013" lon="-5.730215">
        <ele>170.05</ele>
        <time>2015-06-19T14:29:16Z</time>
      </trkpt>
      <trkpt lat="36.100007" lon="-5.730179">
        <ele>170.43</ele>
        <time>2015-06-19T14:29:17Z</time>
      </trkpt>
      <trkpt lat="36.100004" lon="-5.730137">
        <ele>170.82</ele>
        <time>2015-06-19T14:29:18Z</time>
      </trkpt>
      <trkpt lat="36.100003" lon="-5.730100">
        <ele>170.81</ele>
        <time>2015-06-19T14:29:19Z</time>
      </trkpt>
      <trkpt lat="36.100021" lon="-5.729889">
        <ele>170.88</ele>
        <time>2015-06-19T14:29:26Z</time>
      </trkpt>
      <trkpt lat="36.100009" lon="-5.729667">
        <ele>170.81</ele>
        <time>2015-06-19T14:29:33Z</time>
      </trkpt>
      <trkpt lat="36.099934" lon="-5.729447">
        <ele>170.82</ele>
        <time>2015-06-19T14:29:40Z</time>
      </trkpt>
      <trkpt lat="36.099834" lon="-5.729317">
        <ele>170.85</ele>
        <time>2015-06-19T14:29:46Z</time>
      </trkpt>
      <trkpt lat="36.099792" lon="-5.729263">
        <ele>171.27</ele>
        <time>2015-06-19T14:29:49Z</time>
      </trkpt>
      <trkpt lat="36.099776" lon="-5.729243">
        <ele>171.68</ele>
        <time>2015-06-19T14:29:50Z</time>
      </trkpt>
      <trkpt lat="36.099763" lon="-5.729221">
        <ele>172.04</ele>
        <time>2015-06-19T14:29:51Z</time>
      </trkpt>
      <trkpt lat="36.099752" lon="-5.729198">
        <ele>172.49</ele>
        <time>2015-06-19T14:29:52Z</time>
      </trkpt>
      <trkpt lat="36.099739" lon="-5.729175">
        <ele>172.83</ele>
        <time>2015-06-19T14:29:53Z</time>
      </trkpt>
      <trkpt lat="36.099667" lon="-5.728985">
        <ele>172.87</ele>
        <time>2015-06-19T14:30:00Z</time>
      </trkpt>
      <trkpt lat="36.099592" lon="-5.728781">
        <ele>172.81</ele>
        <time>2015-06-19T14:30:08Z</time>
      </trkpt>
      <trkpt lat="36.099580" lon="-5.728676">
        <ele>173.21</ele>
        <time>2015-06-19T14:30:12Z</time>
      </trkpt>
      <trkpt lat="36.099582" lon="-5.728650">
        <ele>173.85</ele>
        <time>2015-06-19T14:30:13Z</time>
      </trkpt>
      <trkpt lat="36.099583" lon="-5.728623">
        <ele>174.22</ele>
        <time>2015-06-19T14:30:14Z</time>
      </trkpt>
      <trkpt lat="36.099584" lon="-5.728596">
        <ele>174.68</ele>
        <time>2015-06-19T14:30:15Z</time>
      </trkpt>
      <trkpt lat="36.099585" lon="-5.728569">
        <ele>175.09</ele>
        <time>2015-06-19T14:30:16Z</time>
      </trkpt>
      <trkpt lat="36.099564" lon="-5.728380">
        <ele>175.02</ele>
        <time>2015-06-19T14:30:23Z</time>
      </trkpt>
      <trkpt lat="36.099545" lon="-5.728298">
        <ele>175.50</ele>
        <time>2015-06-19T14:30:26Z</time>
      </trkpt>
      <trkpt lat="36.099539" lon="-5.728269">
        <ele>175.88</ele>
        <time>2015-06-19T14:30:27Z</time>
      </trkpt>
      <trkpt lat="36.099533" lon="-5.728241">
        <ele>176.49</ele>
        <time>2015-06-19T14:30:28Z</time>
      </trkpt>
      <trkpt lat="36.099527" lon="-5.728212">
        <ele>176.82</ele>
        <time>2015-06-19T14:30:29Z</time>
      </trkpt>
      <trkpt lat="36.099520" lon="-5.728184">
        <ele>177.26</ele>
        <time>2015-06-19T14:30:30Z</time>
      </trkpt>
      <trkpt lat="36.099514" lon="-5.728155">
        <ele>177.21</ele>
        <time>2015-06-19T14:30:31Z</time>
      </trkpt>
      <trkpt lat="36.099510" lon="-5.728006">
        <ele>177.21</ele>
        <time>2015-06-19T14:30:37Z</time>
      </trkpt>
      <trkpt lat="36.099510" lon="-5.727905">
        <ele>177.28</ele>
        <time>2015-06-19T14:30:42Z</time>
      </trkpt>
      <trkpt lat="36.099519" lon="-5.727827">
        <ele>177.30</ele>
        <time>2015-06-19T14:30:47Z</time>
      </trkpt>
      <trkpt lat="36.099515" lon="-5.727781">
        <ele>177.67</ele>
        <time>2015-06-19T14:30:50Z</time>
      </trkpt>
      <trkpt lat="36.099510" lon="-5.727761">
        <ele>178.07</ele>
        <time>2015-06-19T14:30:51Z</time>
      </trkpt>
      <trkpt lat="36.099511" lon="-5.727740">
        <ele>178.47</ele>
        <time>2015-06-19T14:30:52Z</time>
      </trkpt>
      <trkpt lat="36.099514" lon="-5.727718">
        <ele>178.90</ele>
        <time>2015-06-19T14:30:53Z</time>
      </trkpt>
      <trkpt lat="36.099517" lon="-5.727699">
        <ele>179.24</ele>
        <time>2015-06-19T14:30:54Z</time>
      </trkpt>
      <trkpt lat="36.099520" lon="-5.727578">
        <ele>179.29</ele>
        <time>2015-06-19T14:31:00Z</time>
      </trkpt>
      <trkpt lat="36.099528" lon="-5.727507">
        <ele>179.23</ele>
        <time>2015-06-19T14:31:03Z</time>
      </trkpt>
      <trkpt lat="36.099521" lon="-5.727426">
        <ele>179.27</ele>
        <time>2015-06-19T14:31:06Z</time>
      </trkpt>
      <trkpt lat="36.099514" lon="-5.727350">
        <ele>179.81</ele>
        <time>2015-06-19T14:31:09Z</time>
      </trkpt>
      <trkpt lat="36.099512" lon="-5.727324">
        <ele>180.21</ele>
        <time>2015-06-19T14:31:10Z</time>
      </trkpt>
      <trkpt lat="36.099509" lon="-5.727299">
        <ele>180.68</ele>
        <time>2015-06-19T14:31:11Z</time>
      </trkpt>
      <trkpt lat="36.099506" lon="-5.727274">
        <ele>181.02</ele>
        <time>2015-06-19T14:31:12Z</time>
      </trkpt>
      <trkpt lat="36.099503" lon="-5.727248">
        <ele>181.49</ele>
        <time>2015-06-19T14:31:13Z</time>
      </trkpt>
      <trkpt lat="36.099501" lon="-5.727224">
        <ele>181.47</ele>
        <time>2015-06-19T14:31:14Z</time>
      </trkpt>
      <trkpt lat="36.099513" lon="-5.727050">
        <ele>181.47</ele>
        <time>2015-06-19T14:31:21Z</time>
      </trkpt>
      <trkpt lat="36.099511" lon="-5.727025">
        <ele>181.47</ele>
        <time>2015-06-19T14:31:22Z</time>
      </trkpt>
      <trkpt lat="36.099515" lon="-5.726845">
        <ele>181.86</ele>
        <time>2015-06-19T14:31:29Z</time>
      </trkpt>
      <trkpt lat="36.099511" lon="-5.726819">
        <ele>182.24</ele>
        <time>2015-06-19T14:31:30Z</time>
      </trkpt>
      <trkpt lat="36.099504" lon="-5.726791">
        <ele>182.69</ele>
        <time>2015-06-19T14:31:31Z</time>
      </trkpt>
      <trkpt lat="36.099497" lon="-5.726764">
        <ele>183.46</ele>
        <time>2015-06-19T14:31:32Z</time>
      </trkpt>
      <trkpt lat="36.099449" lon="-5.726634">
        <ele>183.43</ele>
        <time>2015-06-19T14:31:37Z</time>
      </trkpt>
      <trkpt lat="36.099350" lon="-5.726415">
        <ele>183.41</ele>
        <time>2015-06-19T14:31:45Z</time>
      </trkpt>
      <trkpt lat="36.099247" lon="-5.726255">
        <ele>183.43</ele>
        <time>2015-06-19T14:31:51Z</time>
      </trkpt>
      <trkpt lat="36.099157" lon="-5.726180">
        <ele>183.50</ele>
        <time>2015-06-19T14:31:55Z</time>
      </trkpt>
      <trkpt lat="36.098976" lon="-5.726125">
        <ele>183.50</ele>
        <time>2015-06-19T14:32:02Z</time>
      </trkpt>
      <trkpt lat="36.098793" lon="-5.726183">
        <ele>183.48</ele>
        <time>2015-06-19T14:32:07Z</time>
      </trkpt>
      <trkpt lat="36.098661" lon="-5.726194">
        <ele>183.44</ele>
        <time>2015-06-19T14:32:10Z</time>
      </trkpt>
      <trkpt lat="36.098535" lon="-5.726165">
        <ele>183.42</ele>
        <time>2015-06-19T14:32:13Z</time>
      </trkpt>
      <trkpt lat="36.098365" lon="-5.726055">
        <ele>183.42</ele>
        <time>2015-06-19T14:32:18Z</time>
      </trkpt>
      <trkpt lat="36.098324" lon="-5.725965">
        <ele>183.49</ele>
        <time>2015-06-19T14:32:22Z</time>
      </trkpt>
      <trkpt lat="36.098298" lon="-5.725806">
        <ele>183.47</ele>
        <time>2015-06-19T14:32:29Z</time>
      </trkpt>
      <trkpt lat="36.098258" lon="-5.725668">
        <ele>183.41</ele>
        <time>2015-06-19T14:32:35Z</time>
      </trkpt>
      <trkpt lat="36.098207" lon="-5.725555">
        <ele>184.01</ele>
        <time>2015-06-19T14:32:40Z</time>
      </trkpt>
      <trkpt lat="36.098196" lon="-5.725536">
        <ele>184.41</ele>
        <time>2015-06-19T14:32:41Z</time>
      </trkpt>
      <trkpt lat="36.098185" lon="-5.725518">
        <ele>184.86</ele>
        <time>2015-06-19T14:32:42Z</time>
      </trkpt>
      <trkpt lat="36.098173" lon="-5.725499">
        <ele>185.26</ele>
        <time>2015-06-19T14:32:43Z</time>
      </trkpt>
      <trkpt lat="36.098160" lon="-5.725482">
        <ele>185.62</ele>
        <time>2015-06-19T14:32:44Z</time>
      </trkpt>
      <trkpt lat="36.098103" lon="-5.725422">
        <ele>185.65</ele>
        <time>2015-06-19T14:32:48Z</time>
      </trkpt>
      <trkpt lat="36.098057" lon="-5.725379">
        <ele>185.67</ele>
        <time>2015-06-19T14:32:51Z</time>
      </trkpt>
      <trkpt lat="36.098041" lon="-5.725367">
        <ele>186.09</ele>
        <time>2015-06-19T14:32:52Z</time>
      </trkpt>
      <trkpt lat="36.098022" lon="-5.725356">
        <ele>186.44</ele>
        <time>2015-06-19T14:32:53Z</time>
      </trkpt>
      <trkpt lat="36.098005" lon="-5.725343">
        <ele>186.84</ele>
        <time>2015-06-19T14:32:54Z</time>
      </trkpt>
      <trkpt lat="36.097991" lon="-5.725331">
        <ele>187.23</ele>
        <time>2015-06-19T14:32:55Z</time>
      </trkpt>
      <trkpt lat="36.097977" lon="-5.725321">
        <ele>187.60</ele>
        <time>2015-06-19T14:32:56Z</time>
      </trkpt>
      <trkpt lat="36.097915" lon="-5.725290">
        <ele>187.62</ele>
        <time>2015-06-19T14:33:00Z</time>
      </trkpt>
      <trkpt lat="36.097858" lon="-5.725270">
        <ele>188.01</ele>
        <time>2015-06-19T14:33:03Z</time>
      </trkpt>
      <trkpt lat="36.097837" lon="-5.725266">
        <ele>188.48</ele>
        <time>2015-06-19T14:33:04Z</time>
      </trkpt>
      <trkpt lat="36.097817" lon="-5.725260">
        <ele>188.87</ele>
        <time>2015-06-19T14:33:05Z</time>
      </trkpt>
      <trkpt lat="36.097797" lon="-5.725253">
        <ele>189.21</ele>
        <time>2015-06-19T14:33:06Z</time>
      </trkpt>
      <trkpt lat="36.097778" lon="-5.725247">
        <ele>189.66</ele>
        <time>2015-06-19T14:33:07Z</time>
      </trkpt>
      <trkpt lat="36.097757" lon="-5.725244">
        <ele>189.68</ele>
        <time>2015-06-19T14:33:08Z</time>
      </trkpt>
      <trkpt lat="36.097662" lon="-5.725216">
        <ele>190.03</ele>
        <time>2015-06-19T14:33:13Z</time>
      </trkpt>
      <trkpt lat="36.097643" lon="-5.725211">
        <ele>190.49</ele>
        <time>2015-06-19T14:33:14Z</time>
      </trkpt>
      <trkpt lat="36.097623" lon="-5.725203">
        <ele>190.87</ele>
        <time>2015-06-19T14:33:15Z</time>
      </trkpt>
      <trkpt lat="36.097602" lon="-5.725197">
        <ele>191.23</ele>
        <time>2015-06-19T14:33:16Z</time>
      </trkpt>
      <trkpt lat="36.097582" lon="-5.725192">
        <ele>191.67</ele>
        <time>2015-06-19T14:33:17Z</time>
      </trkpt>
      <trkpt lat="36.097467" lon="-5.725172">
        <ele>192.21</ele>
        <time>2015-06-19T14:33:23Z</time>
      </trkpt>
      <trkpt lat="36.097450" lon="-5.725167">
        <ele>192.61</ele>
        <time>2015-06-19T14:33:24Z</time>
      </trkpt>
      <trkpt lat="36.097434" lon="-5.725162">
        <ele>193.06</ele>
        <time>2015-06-19T14:33:25Z</time>
      </trkpt>
      <trkpt lat="36.097418" lon="-5.725158">
        <ele>193.42</ele>
        <time>2015-06-19T14:33:26Z</time>
      </trkpt>
      <trkpt lat="36.097401" lon="-5.725155">
        <ele>193.88</ele>
        <time>2015-06-19T14:33:27Z</time>
      </trkpt>
      <trkpt lat="36.097326" lon="-5.725146">
        <ele>193.84</ele>
        <time>2015-06-19T14:33:31Z</time>
      </trkpt>
      <trkpt lat="36.097162" lon="-5.725129">
        <ele>193.82</ele>
        <time>2015-06-19T14:33:39Z</time>
      </trkpt>
      <trkpt lat="36.097003" lon="-5.725090">
        <ele>193.89</ele>
        <time>2015-06-19T14:33:46Z</time>
      </trkpt>
      <trkpt lat="36.096940" lon="-5.725050">
        <ele>194.22</ele>
        <time>2015-06-19T14:33:49Z</time>
      </trkpt>
      <trkpt lat="36.096919" lon="-5.725035">
        <ele>194.63</ele>
        <time>2015-06-19T14:33:50Z</time>
      </trkpt>
      <trkpt lat="36.096900" lon="-5.725022">
        <ele>195.05</ele>
        <time>2015-06-19T14:33:51Z</time>
      </trkpt>
      <trkpt lat="36.096884" lon="-5.725004">
        <ele>195.45</ele>
        <time>2015-06-19T14:33:52Z</time>
      </trkpt>
      <trkpt lat="36.096870" lon="-5.724983">
        <ele>195.81</ele>
        <time>2015-06-19T14:33:53Z</time>
      </trkpt>
      <trkpt lat="36.096852" lon="-5.724963">
        <ele>195.81</ele>
        <time>2015-06-19T14:33:54Z</time>
      </trkpt>
      <trkpt lat="36.096779" lon="-5.724901">
        <ele>195.85</ele>
        <time>2015-06-19T14:33:58Z</time>
      </trkpt>
      <trkpt lat="36.096719" lon="-5.724842">
        <ele>195.83</ele>
        <time>2015-06-19T14:34:02Z</time>
      </trkpt>
      <trkpt lat="36.096608" lon="-5.724731">
        <ele>196.42</ele>
        <time>2015-06-19T14:34:10Z</time>
      </trkpt>
      <trkpt lat="36.096596" lon="-5.724716">
        <ele>196.84</ele>
        <time>2015-06-19T14:34:11Z</time>
      </trkpt>
      <trkpt lat="36.096586" lon="-5.724703">
        <ele>197.30</ele>
        <time>2015-06-19T14:34:12Z</time>
      </trkpt>
      <trkpt lat="36.096574" lon="-5.724690">
        <ele>197.66</ele>
        <time>2015-06-19T14:34:13Z</time>
      </trkpt>
      <trkpt lat="36.096561" lon="-5.724678">
        <ele>198.03</ele>
        <time>2015-06-19T14:34:14Z</time>
      </trkpt>
      <trkpt lat="36.096525" lon="-5.724636">
        <ele>198.06</ele>
        <time>2015-06-19T14:34:17Z</time>
      </trkpt>
      <trkpt lat="36.096457" lon="-5.724582">
        <ele>198.49</ele>
        <time>2015-06-19T14:34:22Z</time>
      </trkpt>
      <trkpt lat="36.096445" lon="-5.724570">
        <ele>198.87</ele>
        <time>2015-06-19T14:34:23Z</time>
      </trkpt>
      <trkpt lat="36.096435" lon="-5.724555">
        <ele>199.42</ele>
        <time>2015-06-19T14:34:24Z</time>
      </trkpt>
      <trkpt lat="36.096424" lon="-5.724539">
        <ele>200.21</ele>
        <time>2015-06-19T14:34:25Z</time>
      </trkpt>
      <trkpt lat="36.096419" lon="-5.724521">
        <ele>200.27</ele>
        <time>2015-06-19T14:34:26Z</time>
      </trkpt>
      <trkpt lat="36.096377" lon="-5.724458">
        <ele>200.29</ele>
        <time>2015-06-19T14:34:30Z</time>
      </trkpt>
      <trkpt lat="36.096365" lon="-5.724442">
        <ele>200.63</ele>
        <time>2015-06-19T14:34:31Z</time>
      </trkpt>
      <trkpt lat="36.096351" lon="-5.724427">
        <ele>201.03</ele>
        <time>2015-06-19T14:34:32Z</time>
      </trkpt>
      <trkpt lat="36.096336" lon="-5.724411">
        <ele>201.47</ele>
        <time>2015-06-19T14:34:33Z</time>
      </trkpt>
      <trkpt lat="36.096321" lon="-5.724393">
        <ele>201.82</ele>
        <time>2015-06-19T14:34:34Z</time>
      </trkpt>
      <trkpt lat="36.096306" lon="-5.724378">
        <ele>202.23</ele>
        <time>2015-06-19T14:34:35Z</time>
      </trkpt>
      <trkpt lat="36.096290" lon="-5.724364">
        <ele>202.24</ele>
        <time>2015-06-19T14:34:36Z</time>
      </trkpt>
      <trkpt lat="36.096167" lon="-5.724242">
        <ele>202.24</ele>
        <time>2015-06-19T14:34:43Z</time>
      </trkpt>
      <trkpt lat="36.096074" lon="-5.724138">
        <ele>202.25</ele>
        <time>2015-06-19T14:34:48Z</time>
      </trkpt>
      <trkpt lat="36.096006" lon="-5.724056">
        <ele>202.21</ele>
        <time>2015-06-19T14:34:52Z</time>
      </trkpt>
      <trkpt lat="36.095914" lon="-5.723964">
        <ele>202.21</ele>
        <time>2015-06-19T14:34:58Z</time>
      </trkpt>
      <trkpt lat="36.095898" lon="-5.723950">
        <ele>202.23</ele>
        <time>2015-06-19T14:34:59Z</time>
      </trkpt>
      <trkpt lat="36.095837" lon="-5.723889">
        <ele>202.27</ele>
        <time>2015-06-19T14:35:03Z</time>
      </trkpt>
      <trkpt lat="36.095802" lon="-5.723861">
        <ele>202.29</ele>
        <time>2015-06-19T14:35:05Z</time>
      </trkpt>
      <trkpt lat="36.095753" lon="-5.723811">
        <ele>202.63</ele>
        <time>2015-06-19T14:35:08Z</time>
      </trkpt>
      <trkpt lat="36.095736" lon="-5.723795">
        <ele>203.06</ele>
        <time>2015-06-19T14:35:09Z</time>
      </trkpt>
      <trkpt lat="36.095719" lon="-5.723778">
        <ele>203.49</ele>
        <time>2015-06-19T14:35:10Z</time>
      </trkpt>
      <trkpt lat="36.095699" lon="-5.723762">
        <ele>203.83</ele>
        <time>2015-06-19T14:35:11Z</time>
      </trkpt>
      <trkpt lat="36.095683" lon="-5.723747">
        <ele>204.28</ele>
        <time>2015-06-19T14:35:12Z</time>
      </trkpt>
      <trkpt lat="36.095578" lon="-5.723609">
        <ele>204.26</ele>
        <time>2015-06-19T14:35:19Z</time>
      </trkpt>
      <trkpt lat="36.095518" lon="-5.723475">
        <ele>204.25</ele>
        <time>2015-06-19T14:35:25Z</time>
      </trkpt>
      <trkpt lat="36.095507" lon="-5.723458">
        <ele>204.62</ele>
        <time>2015-06-19T14:35:26Z</time>
      </trkpt>
      <trkpt lat="36.095499" lon="-5.723440">
        <ele>205.01</ele>
        <time>2015-06-19T14:35:27Z</time>
      </trkpt>
      <trkpt lat="36.095491" lon="-5.723421">
        <ele>205.45</ele>
        <time>2015-06-19T14:35:28Z</time>
      </trkpt>
      <trkpt lat="36.095480" lon="-5.723406">
        <ele>205.82</ele>
        <time>2015-06-19T14:35:29Z</time>
      </trkpt>
      <trkpt lat="36.095470" lon="-5.723389">
        <ele>206.42</ele>
        <time>2015-06-19T14:35:30Z</time>
      </trkpt>
      <trkpt lat="36.095461" lon="-5.723373">
        <ele>206.50</ele>
        <time>2015-06-19T14:35:31Z</time>
      </trkpt>
      <trkpt lat="36.095404" lon="-5.723287">
        <ele>206.87</ele>
        <time>2015-06-19T14:35:36Z</time>
      </trkpt>
      <trkpt lat="36.095390" lon="-5.723270">
        <ele>207.22</ele>
        <time>2015-06-19T14:35:37Z</time>
      </trkpt>
      <trkpt lat="36.095378" lon="-5.723255">
        <ele>207.66</ele>
        <time>2015-06-19T14:35:38Z</time>
      </trkpt>
      <trkpt lat="36.095365" lon="-5.723240">
        <ele>208.42</ele>
        <time>2015-06-19T14:35:39Z</time>
      </trkpt>
      <trkpt lat="36.095283" lon="-5.723150">
        <ele>208.43</ele>
        <time>2015-06-19T14:35:46Z</time>
      </trkpt>
      <trkpt lat="36.095272" lon="-5.723138">
        <ele>208.43</ele>
        <time>2015-06-19T14:35:47Z</time>
      </trkpt>
      <trkpt lat="36.095222" lon="-5.723082">
        <ele>208.41</ele>
        <time>2015-06-19T14:35:50Z</time>
      </trkpt>
      <trkpt lat="36.095186" lon="-5.723038">
        <ele>208.41</ele>
        <time>2015-06-19T14:35:52Z</time>
      </trkpt>
      <trkpt lat="36.095081" lon="-5.722903">
        <ele>208.47</ele>
        <time>2015-06-19T14:35:58Z</time>
      </trkpt>
      <trkpt lat="36.095034" lon="-5.722840">
        <ele>208.87</ele>
        <time>2015-06-19T14:36:01Z</time>
      </trkpt>
      <trkpt lat="36.095019" lon="-5.722816">
        <ele>209.27</ele>
        <time>2015-06-19T14:36:02Z</time>
      </trkpt>
      <trkpt lat="36.095005" lon="-5.722792">
        <ele>209.67</ele>
        <time>2015-06-19T14:36:03Z</time>
      </trkpt>
      <trkpt lat="36.094990" lon="-5.722768">
        <ele>210.42</ele>
        <time>2015-06-19T14:36:04Z</time>
      </trkpt>
      <trkpt lat="36.094975" lon="-5.722743">
        <ele>210.42</ele>
        <time>2015-06-19T14:36:05Z</time>
      </trkpt>
      <trkpt lat="36.094893" lon="-5.722589">
        <ele>210.42</ele>
        <time>2015-06-19T14:36:11Z</time>
      </trkpt>
      <trkpt lat="36.094875" lon="-5.722543">
        <ele>210.44</ele>
        <time>2015-06-19T14:36:13Z</time>
      </trkpt>
      <trkpt lat="36.094794" lon="-5.722408">
        <ele>210.41</ele>
        <time>2015-06-19T14:36:20Z</time>
      </trkpt>
      <trkpt lat="36.094782" lon="-5.722393">
        <ele>210.82</ele>
        <time>2015-06-19T14:36:21Z</time>
      </trkpt>
      <trkpt lat="36.094770" lon="-5.722378">
        <ele>211.20</ele>
        <time>2015-06-19T14:36:22Z</time>
      </trkpt>
      <trkpt lat="36.094755" lon="-5.722364">
        <ele>211.81</ele>
        <time>2015-06-19T14:36:23Z</time>
      </trkpt>
      <trkpt lat="36.094740" lon="-5.722350">
        <ele>212.22</ele>
        <time>2015-06-19T14:36:24Z</time>
      </trkpt>
      <trkpt lat="36.094727" lon="-5.722334">
        <ele>212.64</ele>
        <time>2015-06-19T14:36:25Z</time>
      </trkpt>
      <trkpt lat="36.094675" lon="-5.722269">
        <ele>212.61</ele>
        <time>2015-06-19T14:36:29Z</time>
      </trkpt>
      <trkpt lat="36.094627" lon="-5.722220">
        <ele>212.68</ele>
        <time>2015-06-19T14:36:32Z</time>
      </trkpt>
      <trkpt lat="36.094584" lon="-5.722167">
        <ele>212.66</ele>
        <time>2015-06-19T14:36:34Z</time>
      </trkpt>
      <trkpt lat="36.094431" lon="-5.722028">
        <ele>212.67</ele>
        <time>2015-06-19T14:36:38Z</time>
      </trkpt>
      <trkpt lat="36.094391" lon="-5.721975">
        <ele>212.64</ele>
        <time>2015-06-19T14:36:39Z</time>
      </trkpt>
      <trkpt lat="36.094332" lon="-5.721856">
        <ele>212.61</ele>
        <time>2015-06-19T14:36:41Z</time>
      </trkpt>
      <trkpt lat="36.094235" lon="-5.721698">
        <ele>212.63</ele>
        <time>2015-06-19T14:36:45Z</time>
      </trkpt>
      <trkpt lat="36.094185" lon="-5.721631">
        <ele>212.69</ele>
        <time>2015-06-19T14:36:47Z</time>
      </trkpt>
      <trkpt lat="36.094066" lon="-5.721508">
        <ele>212.62</ele>
        <time>2015-06-19T14:36:50Z</time>
      </trkpt>
      <trkpt lat="36.093967" lon="-5.721391">
        <ele>211.61</ele>
        <time>2015-06-19T14:36:52Z</time>
      </trkpt>
      <trkpt lat="36.093909" lon="-5.721325">
        <ele>211.08</ele>
        <time>2015-06-19T14:36:53Z</time>
      </trkpt>
      <trkpt lat="36.093849" lon="-5.721259">
        <ele>210.70</ele>
        <time>2015-06-19T14:36:54Z</time>
      </trkpt>
      <trkpt lat="36.093794" lon="-5.721188">
        <ele>210.07</ele>
        <time>2015-06-19T14:36:55Z</time>
      </trkpt>
      <trkpt lat="36.093756" lon="-5.721110">
        <ele>209.66</ele>
        <time>2015-06-19T14:36:56Z</time>
      </trkpt>
      <trkpt lat="36.093738" lon="-5.721028">
        <ele>209.09</ele>
        <time>2015-06-19T14:36:57Z</time>
      </trkpt>
      <trkpt lat="36.093734" lon="-5.720944">
        <ele>208.64</ele>
        <time>2015-06-19T14:36:58Z</time>
      </trkpt>
      <trkpt lat="36.093735" lon="-5.720856">
        <ele>208.05</ele>
        <time>2015-06-19T14:36:59Z</time>
      </trkpt>
      <trkpt lat="36.093738" lon="-5.720772">
        <ele>207.68</ele>
        <time>2015-06-19T14:37:00Z</time>
      </trkpt>
      <trkpt lat="36.093742" lon="-5.720681">
        <ele>207.05</ele>
        <time>2015-06-19T14:37:01Z</time>
      </trkpt>
      <trkpt lat="36.093743" lon="-5.720588">
        <ele>206.69</ele>
        <time>2015-06-19T14:37:02Z</time>
      </trkpt>
      <trkpt lat="36.093735" lon="-5.720500">
        <ele>206.02</ele>
        <time>2015-06-19T14:37:03Z</time>
      </trkpt>
      <trkpt lat="36.093714" lon="-5.720412">
        <ele>205.21</ele>
        <time>2015-06-19T14:37:04Z</time>
      </trkpt>
      <trkpt lat="36.093680" lon="-5.720330">
        <ele>204.66</ele>
        <time>2015-06-19T14:37:05Z</time>
      </trkpt>
      <trkpt lat="36.093647" lon="-5.720260">
        <ele>203.87</ele>
        <time>2015-06-19T14:37:06Z</time>
      </trkpt>
      <trkpt lat="36.093623" lon="-5.720206">
        <ele>203.07</ele>
        <time>2015-06-19T14:37:07Z</time>
      </trkpt>
      <trkpt lat="36.093601" lon="-5.720154">
        <ele>202.28</ele>
        <time>2015-06-19T14:37:08Z</time>
      </trkpt>
      <trkpt lat="36.093576" lon="-5.720100">
        <ele>201.42</ele>
        <time>2015-06-19T14:37:09Z</time>
      </trkpt>
      <trkpt lat="36.093547" lon="-5.720045">
        <ele>200.65</ele>
        <time>2015-06-19T14:37:10Z</time>
      </trkpt>
      <trkpt lat="36.093511" lon="-5.719991">
        <ele>200.09</ele>
        <time>2015-06-19T14:37:11Z</time>
      </trkpt>
      <trkpt lat="36.093473" lon="-5.719935">
        <ele>199.65</ele>
        <time>2015-06-19T14:37:12Z</time>
      </trkpt>
      <trkpt lat="36.093433" lon="-5.719875">
        <ele>199.22</ele>
        <time>2015-06-19T14:37:13Z</time>
      </trkpt>
      <trkpt lat="36.093387" lon="-5.719808">
        <ele>198.69</ele>
        <time>2015-06-19T14:37:14Z</time>
      </trkpt>
      <trkpt lat="36.093337" lon="-5.719740">
        <ele>198.22</ele>
        <time>2015-06-19T14:37:15Z</time>
      </trkpt>
      <trkpt lat="36.093283" lon="-5.719668">
        <ele>197.61</ele>
        <time>2015-06-19T14:37:16Z</time>
      </trkpt>
      <trkpt lat="36.093224" lon="-5.719592">
        <ele>196.41</ele>
        <time>2015-06-19T14:37:17Z</time>
      </trkpt>
      <trkpt lat="36.093161" lon="-5.719513">
        <ele>195.87</ele>
        <time>2015-06-19T14:37:18Z</time>
      </trkpt>
      <trkpt lat="36.093095" lon="-5.719435">
        <ele>195.29</ele>
        <time>2015-06-19T14:37:19Z</time>
      </trkpt>
      <trkpt lat="36.093028" lon="-5.719355">
        <ele>194.62</ele>
        <time>2015-06-19T14:37:20Z</time>
      </trkpt>
      <trkpt lat="36.092961" lon="-5.719269">
        <ele>194.10</ele>
        <time>2015-06-19T14:37:21Z</time>
      </trkpt>
      <trkpt lat="36.092893" lon="-5.719180">
        <ele>193.42</ele>
        <time>2015-06-19T14:37:22Z</time>
      </trkpt>
      <trkpt lat="36.092820" lon="-5.719095">
        <ele>192.89</ele>
        <time>2015-06-19T14:37:23Z</time>
      </trkpt>
      <trkpt lat="36.092746" lon="-5.719009">
        <ele>192.27</ele>
        <time>2015-06-19T14:37:24Z</time>
      </trkpt>
      <trkpt lat="36.092673" lon="-5.718924">
        <ele>191.41</ele>
        <time>2015-06-19T14:37:25Z</time>
      </trkpt>
      <trkpt lat="36.092601" lon="-5.718839">
        <ele>190.63</ele>
        <time>2015-06-19T14:37:26Z</time>
      </trkpt>
      <trkpt lat="36.092527" lon="-5.718754">
        <ele>190.01</ele>
        <time>2015-06-19T14:37:27Z</time>
      </trkpt>
      <trkpt lat="36.092457" lon="-5.718673">
        <ele>189.21</ele>
        <time>2015-06-19T14:37:28Z</time>
      </trkpt>
      <trkpt lat="36.092387" lon="-5.718586">
        <ele>188.64</ele>
        <time>2015-06-19T14:37:29Z</time>
      </trkpt>
      <trkpt lat="36.092324" lon="-5.718507">
        <ele>187.87</ele>
        <time>2015-06-19T14:37:30Z</time>
      </trkpt>
      <trkpt lat="36.092260" lon="-5.718439">
        <ele>187.24</ele>
        <time>2015-06-19T14:37:31Z</time>
      </trkpt>
      <trkpt lat="36.092195" lon="-5.718375">
        <ele>186.68</ele>
        <time>2015-06-19T14:37:32Z</time>
      </trkpt>
      <trkpt lat="36.092136" lon="-5.718319">
        <ele>185.85</ele>
        <time>2015-06-19T14:37:33Z</time>
      </trkpt>
      <trkpt lat="36.092077" lon="-5.718271">
        <ele>185.88</ele>
        <time>2015-06-19T14:37:34Z</time>
      </trkpt>
      <trkpt lat="36.092018" lon="-5.718233">
        <ele>185.89</ele>
        <time>2015-06-19T14:37:35Z</time>
      </trkpt>
      <trkpt lat="36.091960" lon="-5.718198">
        <ele>185.49</ele>
        <time>2015-06-19T14:37:36Z</time>
      </trkpt>
      <trkpt lat="36.091907" lon="-5.718166">
        <ele>185.08</ele>
        <time>2015-06-19T14:37:37Z</time>
      </trkpt>
      <trkpt lat="36.091860" lon="-5.718134">
        <ele>184.41</ele>
        <time>2015-06-19T14:37:38Z</time>
      </trkpt>
      <trkpt lat="36.091822" lon="-5.718107">
        <ele>184.03</ele>
        <time>2015-06-19T14:37:39Z</time>
      </trkpt>
      <trkpt lat="36.091786" lon="-5.718086">
        <ele>183.61</ele>
        <time>2015-06-19T14:37:40Z</time>
      </trkpt>
      <trkpt lat="36.091668" lon="-5.718048">
        <ele>183.68</ele>
        <time>2015-06-19T14:37:44Z</time>
      </trkpt>
      <trkpt lat="36.091513" lon="-5.717977">
        <ele>183.62</ele>
        <time>2015-06-19T14:37:51Z</time>
      </trkpt>
      <trkpt lat="36.091352" lon="-5.717897">
        <ele>184.04</ele>
        <time>2015-06-19T14:37:58Z</time>
      </trkpt>
      <trkpt lat="36.091328" lon="-5.717886">
        <ele>184.46</ele>
        <time>2015-06-19T14:37:59Z</time>
      </trkpt>
      <trkpt lat="36.091304" lon="-5.717880">
        <ele>184.85</ele>
        <time>2015-06-19T14:38:00Z</time>
      </trkpt>
      <trkpt lat="36.091278" lon="-5.717873">
        <ele>185.23</ele>
        <time>2015-06-19T14:38:01Z</time>
      </trkpt>
      <trkpt lat="36.091251" lon="-5.717864">
        <ele>185.70</ele>
        <time>2015-06-19T14:38:02Z</time>
      </trkpt>
      <trkpt lat="36.091126" lon="-5.717791">
        <ele>185.65</ele>
        <time>2015-06-19T14:38:07Z</time>
      </trkpt>
      <trkpt lat="36.091054" lon="-5.717731">
        <ele>185.69</ele>
        <time>2015-06-19T14:38:10Z</time>
      </trkpt>
      <trkpt lat="36.090958" lon="-5.717650">
        <ele>185.66</ele>
        <time>2015-06-19T14:38:14Z</time>
      </trkpt>
      <trkpt lat="36.090914" lon="-5.717612">
        <ele>186.22</ele>
        <time>2015-06-19T14:38:16Z</time>
      </trkpt>
      <trkpt lat="36.090891" lon="-5.717592">
        <ele>186.61</ele>
        <time>2015-06-19T14:38:17Z</time>
      </trkpt>
      <trkpt lat="36.090869" lon="-5.717570">
        <ele>187.07</ele>
        <time>2015-06-19T14:38:18Z</time>
      </trkpt>
      <trkpt lat="36.090848" lon="-5.717549">
        <ele>187.45</ele>
        <time>2015-06-19T14:38:19Z</time>
      </trkpt>
      <trkpt lat="36.090826" lon="-5.717526">
        <ele>187.87</ele>
        <time>2015-06-19T14:38:20Z</time>
      </trkpt>
      <trkpt lat="36.090780" lon="-5.717486">
        <ele>187.90</ele>
        <time>2015-06-19T14:38:22Z</time>
      </trkpt>
      <trkpt lat="36.090636" lon="-5.717359">
        <ele>187.88</ele>
        <time>2015-06-19T14:38:29Z</time>
      </trkpt>
      <trkpt lat="36.090527" lon="-5.717236">
        <ele>188.25</ele>
        <time>2015-06-19T14:38:35Z</time>
      </trkpt>
      <trkpt lat="36.090506" lon="-5.717222">
        <ele>188.62</ele>
        <time>2015-06-19T14:38:36Z</time>
      </trkpt>
      <trkpt lat="36.090484" lon="-5.717207">
        <ele>189.09</ele>
        <time>2015-06-19T14:38:37Z</time>
      </trkpt>
      <trkpt lat="36.090466" lon="-5.717190">
        <ele>189.41</ele>
        <time>2015-06-19T14:38:38Z</time>
      </trkpt>
      <trkpt lat="36.090448" lon="-5.717170">
        <ele>189.82</ele>
        <time>2015-06-19T14:38:39Z</time>
      </trkpt>
      <trkpt lat="36.090392" lon="-5.717105">
        <ele>189.80</ele>
        <time>2015-06-19T14:38:42Z</time>
      </trkpt>
      <trkpt lat="36.090270" lon="-5.717005">
        <ele>189.81</ele>
        <time>2015-06-19T14:38:48Z</time>
      </trkpt>
      <trkpt lat="36.090249" lon="-5.716994">
        <ele>190.27</ele>
        <time>2015-06-19T14:38:49Z</time>
      </trkpt>
      <trkpt lat="36.090226" lon="-5.716979">
        <ele>190.87</ele>
        <time>2015-06-19T14:38:50Z</time>
      </trkpt>
      <trkpt lat="36.090203" lon="-5.716962">
        <ele>191.28</ele>
        <time>2015-06-19T14:38:51Z</time>
      </trkpt>
      <trkpt lat="36.090180" lon="-5.716937">
        <ele>191.65</ele>
        <time>2015-06-19T14:38:52Z</time>
      </trkpt>
      <trkpt lat="36.090160" lon="-5.716913">
        <ele>192.10</ele>
        <time>2015-06-19T14:38:53Z</time>
      </trkpt>
      <trkpt lat="36.090122" lon="-5.716861">
        <ele>192.09</ele>
        <time>2015-06-19T14:38:55Z</time>
      </trkpt>
      <trkpt lat="36.089986" lon="-5.716747">
        <ele>192.02</ele>
        <time>2015-06-19T14:39:01Z</time>
      </trkpt>
      <trkpt lat="36.089823" lon="-5.716616">
        <ele>192.04</ele>
        <time>2015-06-19T14:39:08Z</time>
      </trkpt>
      <trkpt lat="36.089659" lon="-5.716490">
        <ele>192.08</ele>
        <time>2015-06-19T14:39:15Z</time>
      </trkpt>
      <trkpt lat="36.089514" lon="-5.716381">
        <ele>192.01</ele>
        <time>2015-06-19T14:39:21Z</time>
      </trkpt>
      <trkpt lat="36.089372" lon="-5.716259">
        <ele>192.02</ele>
        <time>2015-06-19T14:39:27Z</time>
      </trkpt>
      <trkpt lat="36.089300" lon="-5.716206">
        <ele>192.41</ele>
        <time>2015-06-19T14:39:30Z</time>
      </trkpt>
      <trkpt lat="36.089279" lon="-5.716189">
        <ele>192.86</ele>
        <time>2015-06-19T14:39:31Z</time>
      </trkpt>
      <trkpt lat="36.089258" lon="-5.716171">
        <ele>193.26</ele>
        <time>2015-06-19T14:39:32Z</time>
      </trkpt>
      <trkpt lat="36.089236" lon="-5.716153">
        <ele>193.68</ele>
        <time>2015-06-19T14:39:33Z</time>
      </trkpt>
      <trkpt lat="36.089214" lon="-5.716132">
        <ele>194.08</ele>
        <time>2015-06-19T14:39:34Z</time>
      </trkpt>
      <trkpt lat="36.089080" lon="-5.716008">
        <ele>194.07</ele>
        <time>2015-06-19T14:39:41Z</time>
      </trkpt>
      <trkpt lat="36.088958" lon="-5.715917">
        <ele>194.45</ele>
        <time>2015-06-19T14:39:47Z</time>
      </trkpt>
      <trkpt lat="36.088940" lon="-5.715900">
        <ele>194.90</ele>
        <time>2015-06-19T14:39:48Z</time>
      </trkpt>
      <trkpt lat="36.088925" lon="-5.715878">
        <ele>195.26</ele>
        <time>2015-06-19T14:39:49Z</time>
      </trkpt>
      <trkpt lat="36.088907" lon="-5.715855">
        <ele>195.64</ele>
        <time>2015-06-19T14:39:50Z</time>
      </trkpt>
      <trkpt lat="36.088890" lon="-5.715834">
        <ele>196.08</ele>
        <time>2015-06-19T14:39:51Z</time>
      </trkpt>
      <trkpt lat="36.088814" lon="-5.715777">
        <ele>196.01</ele>
        <time>2015-06-19T14:39:54Z</time>
      </trkpt>
      <trkpt lat="36.088654" lon="-5.715644">
        <ele>196.01</ele>
        <time>2015-06-19T14:40:01Z</time>
      </trkpt>
      <trkpt lat="36.088571" lon="-5.715591">
        <ele>196.68</ele>
        <time>2015-06-19T14:40:06Z</time>
      </trkpt>
      <trkpt lat="36.088553" lon="-5.715573">
        <ele>197.05</ele>
        <time>2015-06-19T14:40:07Z</time>
      </trkpt>
      <trkpt lat="36.088532" lon="-5.715561">
        <ele>197.65</ele>
        <time>2015-06-19T14:40:08Z</time>
      </trkpt>
      <trkpt lat="36.088509" lon="-5.715545">
        <ele>198.27</ele>
        <time>2015-06-19T14:40:09Z</time>
      </trkpt>
      <trkpt lat="36.088487" lon="-5.715528">
        <ele>198.62</ele>
        <time>2015-06-19T14:40:10Z</time>
      </trkpt>
      <trkpt lat="36.088350" lon="-5.715376">
        <ele>198.66</ele>
        <time>2015-06-19T14:40:16Z</time>
      </trkpt>
      <trkpt lat="36.088246" lon="-5.715219">
        <ele>198.63</ele>
        <time>2015-06-19T14:40:21Z</time>
      </trkpt>
      <trkpt lat="36.088215" lon="-5.715114">
        <ele>198.67</ele>
        <time>2015-06-19T14:40:23Z</time>
      </trkpt>
      <trkpt lat="36.088201" lon="-5.714992">
        <ele>198.64</ele>
        <time>2015-06-19T14:40:25Z</time>
      </trkpt>
      <trkpt lat="36.088200" lon="-5.714625">
        <ele>198.60</ele>
        <time>2015-06-19T14:40:30Z</time>
      </trkpt>
      <trkpt lat="36.088211" lon="-5.714541">
        <ele>198.22</ele>
        <time>2015-06-19T14:40:31Z</time>
      </trkpt>
      <trkpt lat="36.088230" lon="-5.714457">
        <ele>197.81</ele>
        <time>2015-06-19T14:40:32Z</time>
      </trkpt>
      <trkpt lat="36.088255" lon="-5.714370">
        <ele>197.45</ele>
        <time>2015-06-19T14:40:33Z</time>
      </trkpt>
      <trkpt lat="36.088279" lon="-5.714279">
        <ele>197.09</ele>
        <time>2015-06-19T14:40:34Z</time>
      </trkpt>
      <trkpt lat="36.088305" lon="-5.714182">
        <ele>196.62</ele>
        <time>2015-06-19T14:40:35Z</time>
      </trkpt>
      <trkpt lat="36.088329" lon="-5.714082">
        <ele>196.24</ele>
        <time>2015-06-19T14:40:36Z</time>
      </trkpt>
      <trkpt lat="36.088358" lon="-5.713973">
        <ele>195.63</ele>
        <time>2015-06-19T14:40:37Z</time>
      </trkpt>
      <trkpt lat="36.088387" lon="-5.713864">
        <ele>195.27</ele>
        <time>2015-06-19T14:40:38Z</time>
      </trkpt>
      <trkpt lat="36.088417" lon="-5.713749">
        <ele>194.67</ele>
        <time>2015-06-19T14:40:39Z</time>
      </trkpt>
      <trkpt lat="36.088447" lon="-5.713628">
        <ele>194.04</ele>
        <time>2015-06-19T14:40:40Z</time>
      </trkpt>
      <trkpt lat="36.088478" lon="-5.713504">
        <ele>193.49</ele>
        <time>2015-06-19T14:40:41Z</time>
      </trkpt>
      <trkpt lat="36.088508" lon="-5.713384">
        <ele>192.86</ele>
        <time>2015-06-19T14:40:42Z</time>
      </trkpt>
      <trkpt lat="36.088532" lon="-5.713260">
        <ele>192.23</ele>
        <time>2015-06-19T14:40:43Z</time>
      </trkpt>
      <trkpt lat="36.088542" lon="-5.713146">
        <ele>191.41</ele>
        <time>2015-06-19T14:40:44Z</time>
      </trkpt>
      <trkpt lat="36.088541" lon="-5.713042">
        <ele>190.68</ele>
        <time>2015-06-19T14:40:45Z</time>
      </trkpt>
      <trkpt lat="36.088531" lon="-5.712952">
        <ele>189.88</ele>
        <time>2015-06-19T14:40:46Z</time>
      </trkpt>
      <trkpt lat="36.088512" lon="-5.712862">
        <ele>188.82</ele>
        <time>2015-06-19T14:40:47Z</time>
      </trkpt>
      <trkpt lat="36.088479" lon="-5.712775">
        <ele>187.85</ele>
        <time>2015-06-19T14:40:48Z</time>
      </trkpt>
      <trkpt lat="36.088445" lon="-5.712684">
        <ele>186.86</ele>
        <time>2015-06-19T14:40:49Z</time>
      </trkpt>
      <trkpt lat="36.088405" lon="-5.712592">
        <ele>186.02</ele>
        <time>2015-06-19T14:40:50Z</time>
      </trkpt>
      <trkpt lat="36.088362" lon="-5.712496">
        <ele>185.10</ele>
        <time>2015-06-19T14:40:51Z</time>
      </trkpt>
      <trkpt lat="36.088318" lon="-5.712394">
        <ele>184.28</ele>
        <time>2015-06-19T14:40:52Z</time>
      </trkpt>
      <trkpt lat="36.088280" lon="-5.712307">
        <ele>182.43</ele>
        <time>2015-06-19T14:40:53Z</time>
      </trkpt>
      <trkpt lat="36.088250" lon="-5.712226">
        <ele>181.66</ele>
        <time>2015-06-19T14:40:54Z</time>
      </trkpt>
      <trkpt lat="36.088228" lon="-5.712155">
        <ele>180.61</ele>
        <time>2015-06-19T14:40:55Z</time>
      </trkpt>
      <trkpt lat="36.088216" lon="-5.712092">
        <ele>179.81</ele>
        <time>2015-06-19T14:40:56Z</time>
      </trkpt>
      <trkpt lat="36.088198" lon="-5.712042">
        <ele>178.86</ele>
        <time>2015-06-19T14:40:57Z</time>
      </trkpt>
      <trkpt lat="36.088182" lon="-5.712008">
        <ele>178.02</ele>
        <time>2015-06-19T14:40:58Z</time>
      </trkpt>
      <trkpt lat="36.088172" lon="-5.711990">
        <ele>177.02</ele>
        <time>2015-06-19T14:40:59Z</time>
      </trkpt>
      <trkpt lat="36.088173" lon="-5.711986">
        <ele>176.25</ele>
        <time>2015-06-19T14:41:00Z</time>
      </trkpt>
      <trkpt lat="36.088173" lon="-5.711988">
        <ele>175.42</ele>
        <time>2015-06-19T14:41:01Z</time>
      </trkpt>
      <trkpt lat="36.088173" lon="-5.711988">
        <ele>174.45</ele>
        <time>2015-06-19T14:41:02Z</time>
      </trkpt>
      <trkpt lat="36.088173" lon="-5.711988">
        <ele>173.64</ele>
        <time>2015-06-19T14:41:03Z</time>
      </trkpt>
      <trkpt lat="36.088173" lon="-5.711988">
        <ele>172.84</ele>
        <time>2015-06-19T14:41:04Z</time>
      </trkpt>
      <trkpt lat="36.088173" lon="-5.711988">
        <ele>172.87</ele>
        <time>2015-06-19T14:41:07Z</time>
      </trkpt>
      <trkpt lat="36.088173" lon="-5.711988">
        <ele>172.80</ele>
        <time>2015-06-19T14:41:20Z</time>
      </trkpt>
      <trkpt lat="36.088173" lon="-5.711988">
        <ele>172.42</ele>
        <time>2015-06-19T14:41:24Z</time>
      </trkpt>
      <trkpt lat="36.088173" lon="-5.711988">
        <ele>172.01</ele>
        <time>2015-06-19T14:41:25Z</time>
      </trkpt>
      <trkpt lat="36.088173" lon="-5.711988">
        <ele>171.70</ele>
        <time>2015-06-19T14:41:26Z</time>
      </trkpt>
      <trkpt lat="36.088173" lon="-5.711988">
        <ele>171.27</ele>
        <time>2015-06-19T14:41:27Z</time>
      </trkpt>
      <trkpt lat="36.088173" lon="-5.711988">
        <ele>170.83</ele>
        <time>2015-06-19T14:41:28Z</time>
      </trkpt>
      <trkpt lat="36.088173" lon="-5.711988">
        <ele>170.82</ele>
        <time>2015-06-19T14:41:32Z</time>
      </trkpt>
      <trkpt lat="36.088168" lon="-5.711985">
        <ele>170.86</ele>
        <time>2015-06-19T14:41:34Z</time>
      </trkpt>
      <trkpt lat="36.088083" lon="-5.711871">
        <ele>170.86</ele>
        <time>2015-06-19T14:41:38Z</time>
      </trkpt>
      <trkpt lat="36.087935" lon="-5.711647">
        <ele>170.84</ele>
        <time>2015-06-19T14:41:42Z</time>
      </trkpt>
      <trkpt lat="36.087841" lon="-5.711515">
        <ele>170.43</ele>
        <time>2015-06-19T14:41:44Z</time>
      </trkpt>
      <trkpt lat="36.087794" lon="-5.711448">
        <ele>169.82</ele>
        <time>2015-06-19T14:41:45Z</time>
      </trkpt>
      <trkpt lat="36.087743" lon="-5.711388">
        <ele>169.48</ele>
        <time>2015-06-19T14:41:46Z</time>
      </trkpt>
      <trkpt lat="36.087695" lon="-5.711341">
        <ele>168.61</ele>
        <time>2015-06-19T14:41:47Z</time>
      </trkpt>
      <trkpt lat="36.087654" lon="-5.711305">
        <ele>168.01</ele>
        <time>2015-06-19T14:41:48Z</time>
      </trkpt>
      <trkpt lat="36.087609" lon="-5.711281">
        <ele>167.42</ele>
        <time>2015-06-19T14:41:49Z</time>
      </trkpt>
      <trkpt lat="36.087556" lon="-5.711267">
        <ele>166.65</ele>
        <time>2015-06-19T14:41:50Z</time>
      </trkpt>
      <trkpt lat="36.087489" lon="-5.711265">
        <ele>165.89</ele>
        <time>2015-06-19T14:41:51Z</time>
      </trkpt>
      <trkpt lat="36.087411" lon="-5.711290">
        <ele>165.27</ele>
        <time>2015-06-19T14:41:52Z</time>
      </trkpt>
      <trkpt lat="36.087334" lon="-5.711335">
        <ele>164.49</ele>
        <time>2015-06-19T14:41:53Z</time>
      </trkpt>
      <trkpt lat="36.087258" lon="-5.711392">
        <ele>163.65</ele>
        <time>2015-06-19T14:41:54Z</time>
      </trkpt>
      <trkpt lat="36.087179" lon="-5.711457">
        <ele>162.87</ele>
        <time>2015-06-19T14:41:55Z</time>
      </trkpt>
      <trkpt lat="36.087099" lon="-5.711527">
        <ele>162.01</ele>
        <time>2015-06-19T14:41:56Z</time>
      </trkpt>
      <trkpt lat="36.087022" lon="-5.711601">
        <ele>161.44</ele>
        <time>2015-06-19T14:41:57Z</time>
      </trkpt>
      <trkpt lat="36.086954" lon="-5.711685">
        <ele>160.62</ele>
        <time>2015-06-19T14:41:58Z</time>
      </trkpt>
      <trkpt lat="36.086903" lon="-5.711759">
        <ele>159.82</ele>
        <time>2015-06-19T14:41:59Z</time>
      </trkpt>
      <trkpt lat="36.086865" lon="-5.711836">
        <ele>159.21</ele>
        <time>2015-06-19T14:42:00Z</time>
      </trkpt>
      <trkpt lat="36.086840" lon="-5.711903">
        <ele>158.68</ele>
        <time>2015-06-19T14:42:01Z</time>
      </trkpt>
      <trkpt lat="36.086823" lon="-5.711948">
        <ele>158.04</ele>
        <time>2015-06-19T14:42:02Z</time>
      </trkpt>
      <trkpt lat="36.086807" lon="-5.711985">
        <ele>157.61</ele>
        <time>2015-06-19T14:42:03Z</time>
      </trkpt>
      <trkpt lat="36.086789" lon="-5.712016">
        <ele>157.04</ele>
        <time>2015-06-19T14:42:04Z</time>
      </trkpt>
      <trkpt lat="36.086775" lon="-5.712035">
        <ele>156.43</ele>
        <time>2015-06-19T14:42:05Z</time>
      </trkpt>
      <trkpt lat="36.086762" lon="-5.712049">
        <ele>156.07</ele>
        <time>2015-06-19T14:42:06Z</time>
      </trkpt>
      <trkpt lat="36.086756" lon="-5.712055">
        <ele>155.47</ele>
        <time>2015-06-19T14:42:07Z</time>
      </trkpt>
      <trkpt lat="36.086756" lon="-5.712053">
        <ele>154.30</ele>
        <time>2015-06-19T14:42:08Z</time>
      </trkpt>
      <trkpt lat="36.086756" lon="-5.712053">
        <ele>154.26</ele>
        <time>2015-06-19T14:42:14Z</time>
      </trkpt>
      <trkpt lat="36.086756" lon="-5.712053">
        <ele>154.26</ele>
        <time>2015-06-19T14:42:25Z</time>
      </trkpt>
      <trkpt lat="36.086756" lon="-5.712053">
        <ele>154.21</ele>
        <time>2015-06-19T14:42:27Z</time>
      </trkpt>
      <trkpt lat="36.086728" lon="-5.712061">
        <ele>154.21</ele>
        <time>2015-06-19T14:42:29Z</time>
      </trkpt>
      <trkpt lat="36.086690" lon="-5.712026">
        <ele>154.25</ele>
        <time>2015-06-19T14:42:31Z</time>
      </trkpt>
      <trkpt lat="36.086692" lon="-5.711881">
        <ele>154.28</ele>
        <time>2015-06-19T14:42:34Z</time>
      </trkpt>
      <trkpt lat="36.086700" lon="-5.711820">
        <ele>154.27</ele>
        <time>2015-06-19T14:42:35Z</time>
      </trkpt>
      <trkpt lat="36.086714" lon="-5.711594">
        <ele>153.85</ele>
        <time>2015-06-19T14:42:38Z</time>
      </trkpt>
      <trkpt lat="36.086721" lon="-5.711508">
        <ele>153.49</ele>
        <time>2015-06-19T14:42:39Z</time>
      </trkpt>
      <trkpt lat="36.086728" lon="-5.711416">
        <ele>153.04</ele>
        <time>2015-06-19T14:42:40Z</time>
      </trkpt>
      <trkpt lat="36.086737" lon="-5.711320">
        <ele>152.65</ele>
        <time>2015-06-19T14:42:41Z</time>
      </trkpt>
      <trkpt lat="36.086750" lon="-5.711220">
        <ele>152.04</ele>
        <time>2015-06-19T14:42:42Z</time>
      </trkpt>
      <trkpt lat="36.086770" lon="-5.711007">
        <ele>152.04</ele>
        <time>2015-06-19T14:42:44Z</time>
      </trkpt>
      <trkpt lat="36.086779" lon="-5.710896">
        <ele>151.68</ele>
        <time>2015-06-19T14:42:45Z</time>
      </trkpt>
      <trkpt lat="36.086784" lon="-5.710782">
        <ele>151.21</ele>
        <time>2015-06-19T14:42:46Z</time>
      </trkpt>
      <trkpt lat="36.086779" lon="-5.710658">
        <ele>150.81</ele>
        <time>2015-06-19T14:42:47Z</time>
      </trkpt>
      <trkpt lat="36.086758" lon="-5.710540">
        <ele>150.41</ele>
        <time>2015-06-19T14:42:48Z</time>
      </trkpt>
      <trkpt lat="36.086733" lon="-5.710424">
        <ele>149.82</ele>
        <time>2015-06-19T14:42:49Z</time>
      </trkpt>
      <trkpt lat="36.086707" lon="-5.710305">
        <ele>149.26</ele>
        <time>2015-06-19T14:42:50Z</time>
      </trkpt>
      <trkpt lat="36.086679" lon="-5.710182">
        <ele>148.64</ele>
        <time>2015-06-19T14:42:51Z</time>
      </trkpt>
      <trkpt lat="36.086654" lon="-5.710064">
        <ele>148.08</ele>
        <time>2015-06-19T14:42:52Z</time>
      </trkpt>
      <trkpt lat="36.086632" lon="-5.709960">
        <ele>147.45</ele>
        <time>2015-06-19T14:42:53Z</time>
      </trkpt>
      <trkpt lat="36.086609" lon="-5.709862">
        <ele>146.66</ele>
        <time>2015-06-19T14:42:54Z</time>
      </trkpt>
      <trkpt lat="36.086589" lon="-5.709770">
        <ele>145.89</ele>
        <time>2015-06-19T14:42:55Z</time>
      </trkpt>
      <trkpt lat="36.086572" lon="-5.709681">
        <ele>144.04</ele>
        <time>2015-06-19T14:42:56Z</time>
      </trkpt>
      <trkpt lat="36.086557" lon="-5.709590">
        <ele>143.09</ele>
        <time>2015-06-19T14:42:57Z</time>
      </trkpt>
      <trkpt lat="36.086557" lon="-5.709505">
        <ele>142.01</ele>
        <time>2015-06-19T14:42:58Z</time>
      </trkpt>
      <trkpt lat="36.086574" lon="-5.709414">
        <ele>141.01</ele>
        <time>2015-06-19T14:42:59Z</time>
      </trkpt>
      <trkpt lat="36.086608" lon="-5.709327">
        <ele>139.83</ele>
        <time>2015-06-19T14:43:00Z</time>
      </trkpt>
      <trkpt lat="36.086640" lon="-5.709233">
        <ele>138.84</ele>
        <time>2015-06-19T14:43:01Z</time>
      </trkpt>
      <trkpt lat="36.086671" lon="-5.709131">
        <ele>138.25</ele>
        <time>2015-06-19T14:43:02Z</time>
      </trkpt>
      <trkpt lat="36.086690" lon="-5.709025">
        <ele>137.43</ele>
        <time>2015-06-19T14:43:03Z</time>
      </trkpt>
      <trkpt lat="36.086697" lon="-5.708926">
        <ele>136.85</ele>
        <time>2015-06-19T14:43:04Z</time>
      </trkpt>
      <trkpt lat="36.086694" lon="-5.708835">
        <ele>136.27</ele>
        <time>2015-06-19T14:43:05Z</time>
      </trkpt>
      <trkpt lat="36.086687" lon="-5.708749">
        <ele>135.68</ele>
        <time>2015-06-19T14:43:06Z</time>
      </trkpt>
      <trkpt lat="36.086672" lon="-5.708673">
        <ele>135.04</ele>
        <time>2015-06-19T14:43:07Z</time>
      </trkpt>
      <trkpt lat="36.086637" lon="-5.708600">
        <ele>134.46</ele>
        <time>2015-06-19T14:43:08Z</time>
      </trkpt>
      <trkpt lat="36.086591" lon="-5.708529">
        <ele>133.64</ele>
        <time>2015-06-19T14:43:09Z</time>
      </trkpt>
      <trkpt lat="36.086532" lon="-5.708456">
        <ele>132.82</ele>
        <time>2015-06-19T14:43:10Z</time>
      </trkpt>
      <trkpt lat="36.086470" lon="-5.708387">
        <ele>132.01</ele>
        <time>2015-06-19T14:43:11Z</time>
      </trkpt>
      <trkpt lat="36.086398" lon="-5.708330">
        <ele>131.50</ele>
        <time>2015-06-19T14:43:12Z</time>
      </trkpt>
      <trkpt lat="36.086325" lon="-5.708275">
        <ele>130.61</ele>
        <time>2015-06-19T14:43:13Z</time>
      </trkpt>
      <trkpt lat="36.086253" lon="-5.708217">
        <ele>129.85</ele>
        <time>2015-06-19T14:43:14Z</time>
      </trkpt>
      <trkpt lat="36.086182" lon="-5.708155">
        <ele>129.08</ele>
        <time>2015-06-19T14:43:15Z</time>
      </trkpt>
      <trkpt lat="36.086107" lon="-5.708090">
        <ele>128.44</ele>
        <time>2015-06-19T14:43:16Z</time>
      </trkpt>
      <trkpt lat="36.086029" lon="-5.708030">
        <ele>127.84</ele>
        <time>2015-06-19T14:43:17Z</time>
      </trkpt>
      <trkpt lat="36.085946" lon="-5.707963">
        <ele>127.43</ele>
        <time>2015-06-19T14:43:18Z</time>
      </trkpt>
      <trkpt lat="36.085869" lon="-5.707898">
        <ele>127.06</ele>
        <time>2015-06-19T14:43:19Z</time>
      </trkpt>
      <trkpt lat="36.085795" lon="-5.707827">
        <ele>126.63</ele>
        <time>2015-06-19T14:43:20Z</time>
      </trkpt>
      <trkpt lat="36.085728" lon="-5.707745">
        <ele>126.22</ele>
        <time>2015-06-19T14:43:21Z</time>
      </trkpt>
      <trkpt lat="36.085672" lon="-5.707651">
        <ele>125.82</ele>
        <time>2015-06-19T14:43:22Z</time>
      </trkpt>
      <trkpt lat="36.085624" lon="-5.707550">
        <ele>125.21</ele>
        <time>2015-06-19T14:43:23Z</time>
      </trkpt>
      <trkpt lat="36.085581" lon="-5.707442">
        <ele>124.64</ele>
        <time>2015-06-19T14:43:24Z</time>
      </trkpt>
      <trkpt lat="36.085544" lon="-5.707332">
        <ele>124.06</ele>
        <time>2015-06-19T14:43:25Z</time>
      </trkpt>
      <trkpt lat="36.085507" lon="-5.707211">
        <ele>123.49</ele>
        <time>2015-06-19T14:43:26Z</time>
      </trkpt>
      <trkpt lat="36.085470" lon="-5.707093">
        <ele>122.85</ele>
        <time>2015-06-19T14:43:27Z</time>
      </trkpt>
      <trkpt lat="36.085432" lon="-5.706975">
        <ele>122.03</ele>
        <time>2015-06-19T14:43:28Z</time>
      </trkpt>
      <trkpt lat="36.085397" lon="-5.706853">
        <ele>121.43</ele>
        <time>2015-06-19T14:43:29Z</time>
      </trkpt>
      <trkpt lat="36.085363" lon="-5.706739">
        <ele>120.87</ele>
        <time>2015-06-19T14:43:30Z</time>
      </trkpt>
      <trkpt lat="36.085332" lon="-5.706627">
        <ele>120.03</ele>
        <time>2015-06-19T14:43:31Z</time>
      </trkpt>
      <trkpt lat="36.085300" lon="-5.706520">
        <ele>119.25</ele>
        <time>2015-06-19T14:43:32Z</time>
      </trkpt>
      <trkpt lat="36.085271" lon="-5.706424">
        <ele>118.45</ele>
        <time>2015-06-19T14:43:33Z</time>
      </trkpt>
      <trkpt lat="36.085241" lon="-5.706323">
        <ele>117.61</ele>
        <time>2015-06-19T14:43:34Z</time>
      </trkpt>
      <trkpt lat="36.085218" lon="-5.706224">
        <ele>116.81</ele>
        <time>2015-06-19T14:43:35Z</time>
      </trkpt>
      <trkpt lat="36.085208" lon="-5.706121">
        <ele>116.08</ele>
        <time>2015-06-19T14:43:36Z</time>
      </trkpt>
      <trkpt lat="36.085210" lon="-5.706027">
        <ele>115.28</ele>
        <time>2015-06-19T14:43:37Z</time>
      </trkpt>
      <trkpt lat="36.085222" lon="-5.705929">
        <ele>114.42</ele>
        <time>2015-06-19T14:43:38Z</time>
      </trkpt>
      <trkpt lat="36.085248" lon="-5.705836">
        <ele>114.43</ele>
        <time>2015-06-19T14:43:39Z</time>
      </trkpt>
      <trkpt lat="36.085278" lon="-5.705747">
        <ele>114.09</ele>
        <time>2015-06-19T14:43:40Z</time>
      </trkpt>
      <trkpt lat="36.085311" lon="-5.705656">
        <ele>113.43</ele>
        <time>2015-06-19T14:43:41Z</time>
      </trkpt>
      <trkpt lat="36.085344" lon="-5.705558">
        <ele>113.02</ele>
        <time>2015-06-19T14:43:42Z</time>
      </trkpt>
      <trkpt lat="36.085375" lon="-5.705464">
        <ele>112.49</ele>
        <time>2015-06-19T14:43:43Z</time>
      </trkpt>
      <trkpt lat="36.085407" lon="-5.705369">
        <ele>111.62</ele>
        <time>2015-06-19T14:43:44Z</time>
      </trkpt>
      <trkpt lat="36.085439" lon="-5.705269">
        <ele>110.20</ele>
        <time>2015-06-19T14:43:45Z</time>
      </trkpt>
      <trkpt lat="36.085467" lon="-5.705167">
        <ele>109.41</ele>
        <time>2015-06-19T14:43:46Z</time>
      </trkpt>
      <trkpt lat="36.085483" lon="-5.705065">
        <ele>109.41</ele>
        <time>2015-06-19T14:43:47Z</time>
      </trkpt>
      <trkpt lat="36.085483" lon="-5.704964">
        <ele>109.05</ele>
        <time>2015-06-19T14:43:48Z</time>
      </trkpt>
      <trkpt lat="36.085464" lon="-5.704865">
        <ele>108.64</ele>
        <time>2015-06-19T14:43:49Z</time>
      </trkpt>
      <trkpt lat="36.085432" lon="-5.704756">
        <ele>108.29</ele>
        <time>2015-06-19T14:43:50Z</time>
      </trkpt>
      <trkpt lat="36.085407" lon="-5.704646">
        <ele>107.84</ele>
        <time>2015-06-19T14:43:51Z</time>
      </trkpt>
      <trkpt lat="36.085381" lon="-5.704537">
        <ele>107.22</ele>
        <time>2015-06-19T14:43:52Z</time>
      </trkpt>
      <trkpt lat="36.085350" lon="-5.704424">
        <ele>106.63</ele>
        <time>2015-06-19T14:43:53Z</time>
      </trkpt>
      <trkpt lat="36.085323" lon="-5.704308">
        <ele>105.83</ele>
        <time>2015-06-19T14:43:54Z</time>
      </trkpt>
      <trkpt lat="36.085308" lon="-5.704189">
        <ele>105.26</ele>
        <time>2015-06-19T14:43:55Z</time>
      </trkpt>
      <trkpt lat="36.085283" lon="-5.704067">
        <ele>104.63</ele>
        <time>2015-06-19T14:43:56Z</time>
      </trkpt>
      <trkpt lat="36.085254" lon="-5.703942">
        <ele>104.09</ele>
        <time>2015-06-19T14:43:57Z</time>
      </trkpt>
      <trkpt lat="36.085219" lon="-5.703810">
        <ele>103.02</ele>
        <time>2015-06-19T14:43:58Z</time>
      </trkpt>
      <trkpt lat="36.085172" lon="-5.703690">
        <ele>102.21</ele>
        <time>2015-06-19T14:43:59Z</time>
      </trkpt>
      <trkpt lat="36.085123" lon="-5.703569">
        <ele>101.01</ele>
        <time>2015-06-19T14:44:00Z</time>
      </trkpt>
      <trkpt lat="36.085068" lon="-5.703454">
        <ele>100.09</ele>
        <time>2015-06-19T14:44:01Z</time>
      </trkpt>
      <trkpt lat="36.085017" lon="-5.703355">
        <ele>98.68</ele>
        <time>2015-06-19T14:44:02Z</time>
      </trkpt>
      <trkpt lat="36.084970" lon="-5.703267">
        <ele>97.45</ele>
        <time>2015-06-19T14:44:03Z</time>
      </trkpt>
      <trkpt lat="36.084925" lon="-5.703179">
        <ele>96.23</ele>
        <time>2015-06-19T14:44:04Z</time>
      </trkpt>
      <trkpt lat="36.084879" lon="-5.703094">
        <ele>95.29</ele>
        <time>2015-06-19T14:44:05Z</time>
      </trkpt>
      <trkpt lat="36.084840" lon="-5.703009">
        <ele>94.47</ele>
        <time>2015-06-19T14:44:06Z</time>
      </trkpt>
      <trkpt lat="36.084801" lon="-5.702924">
        <ele>93.48</ele>
        <time>2015-06-19T14:44:07Z</time>
      </trkpt>
      <trkpt lat="36.084766" lon="-5.702836">
        <ele>92.42</ele>
        <time>2015-06-19T14:44:08Z</time>
      </trkpt>
      <trkpt lat="36.084736" lon="-5.702741">
        <ele>91.40</ele>
        <time>2015-06-19T14:44:09Z</time>
      </trkpt>
      <trkpt lat="36.084716" lon="-5.702655">
        <ele>90.61</ele>
        <time>2015-06-19T14:44:10Z</time>
      </trkpt>
      <trkpt lat="36.084695" lon="-5.702571">
        <ele>90.21</ele>
        <time>2015-06-19T14:44:11Z</time>
      </trkpt>
      <trkpt lat="36.084670" lon="-5.702481">
        <ele>89.87</ele>
        <time>2015-06-19T14:44:12Z</time>
      </trkpt>
      <trkpt lat="36.084634" lon="-5.702383">
        <ele>89.23</ele>
        <time>2015-06-19T14:44:13Z</time>
      </trkpt>
      <trkpt lat="36.084589" lon="-5.702296">
        <ele>88.67</ele>
        <time>2015-06-19T14:44:14Z</time>
      </trkpt>
      <trkpt lat="36.084532" lon="-5.702220">
        <ele>88.01</ele>
        <time>2015-06-19T14:44:15Z</time>
      </trkpt>
      <trkpt lat="36.084474" lon="-5.702147">
        <ele>87.50</ele>
        <time>2015-06-19T14:44:16Z</time>
      </trkpt>
      <trkpt lat="36.084429" lon="-5.702069">
        <ele>87.09</ele>
        <time>2015-06-19T14:44:17Z</time>
      </trkpt>
      <trkpt lat="36.084383" lon="-5.701996">
        <ele>86.48</ele>
        <time>2015-06-19T14:44:18Z</time>
      </trkpt>
      <trkpt lat="36.084353" lon="-5.701910">
        <ele>85.86</ele>
        <time>2015-06-19T14:44:19Z</time>
      </trkpt>
      <trkpt lat="36.084342" lon="-5.701809">
        <ele>85.46</ele>
        <time>2015-06-19T14:44:20Z</time>
      </trkpt>
      <trkpt lat="36.084335" lon="-5.701716">
        <ele>84.86</ele>
        <time>2015-06-19T14:44:21Z</time>
      </trkpt>
      <trkpt lat="36.084339" lon="-5.701619">
        <ele>84.41</ele>
        <time>2015-06-19T14:44:22Z</time>
      </trkpt>
      <trkpt lat="36.084337" lon="-5.701522">
        <ele>84.01</ele>
        <time>2015-06-19T14:44:23Z</time>
      </trkpt>
      <trkpt lat="36.084333" lon="-5.701423">
        <ele>83.47</ele>
        <time>2015-06-19T14:44:24Z</time>
      </trkpt>
      <trkpt lat="36.084327" lon="-5.701323">
        <ele>83.07</ele>
        <time>2015-06-19T14:44:25Z</time>
      </trkpt>
      <trkpt lat="36.084308" lon="-5.701224">
        <ele>82.44</ele>
        <time>2015-06-19T14:44:26Z</time>
      </trkpt>
      <trkpt lat="36.084283" lon="-5.701125">
        <ele>81.83</ele>
        <time>2015-06-19T14:44:27Z</time>
      </trkpt>
      <trkpt lat="36.084250" lon="-5.701028">
        <ele>81.22</ele>
        <time>2015-06-19T14:44:28Z</time>
      </trkpt>
      <trkpt lat="36.084210" lon="-5.700943">
        <ele>80.64</ele>
        <time>2015-06-19T14:44:29Z</time>
      </trkpt>
      <trkpt lat="36.084160" lon="-5.700862">
        <ele>80.03</ele>
        <time>2015-06-19T14:44:30Z</time>
      </trkpt>
      <trkpt lat="36.084115" lon="-5.700778">
        <ele>79.23</ele>
        <time>2015-06-19T14:44:31Z</time>
      </trkpt>
      <trkpt lat="36.084066" lon="-5.700696">
        <ele>78.68</ele>
        <time>2015-06-19T14:44:32Z</time>
      </trkpt>
      <trkpt lat="36.084014" lon="-5.700616">
        <ele>78.03</ele>
        <time>2015-06-19T14:44:33Z</time>
      </trkpt>
      <trkpt lat="36.083960" lon="-5.700535">
        <ele>77.43</ele>
        <time>2015-06-19T14:44:34Z</time>
      </trkpt>
      <trkpt lat="36.083793" lon="-5.700281">
        <ele>77.41</ele>
        <time>2015-06-19T14:44:37Z</time>
      </trkpt>
      <trkpt lat="36.083732" lon="-5.700196">
        <ele>76.83</ele>
        <time>2015-06-19T14:44:38Z</time>
      </trkpt>
      <trkpt lat="36.083670" lon="-5.700112">
        <ele>76.26</ele>
        <time>2015-06-19T14:44:39Z</time>
      </trkpt>
      <trkpt lat="36.083609" lon="-5.700021">
        <ele>75.87</ele>
        <time>2015-06-19T14:44:40Z</time>
      </trkpt>
      <trkpt lat="36.083548" lon="-5.699926">
        <ele>75.09</ele>
        <time>2015-06-19T14:44:41Z</time>
      </trkpt>
      <trkpt lat="36.083489" lon="-5.699826">
        <ele>74.47</ele>
        <time>2015-06-19T14:44:42Z</time>
      </trkpt>
      <trkpt lat="36.083421" lon="-5.699732">
        <ele>73.44</ele>
        <time>2015-06-19T14:44:43Z</time>
      </trkpt>
      <trkpt lat="36.083357" lon="-5.699660">
        <ele>72.66</ele>
        <time>2015-06-19T14:44:44Z</time>
      </trkpt>
      <trkpt lat="36.083289" lon="-5.699605">
        <ele>71.88</ele>
        <time>2015-06-19T14:44:45Z</time>
      </trkpt>
      <trkpt lat="36.083208" lon="-5.699553">
        <ele>71.06</ele>
        <time>2015-06-19T14:44:46Z</time>
      </trkpt>
      <trkpt lat="36.083132" lon="-5.699494">
        <ele>70.20</ele>
        <time>2015-06-19T14:44:47Z</time>
      </trkpt>
      <trkpt lat="36.083062" lon="-5.699424">
        <ele>69.22</ele>
        <time>2015-06-19T14:44:48Z</time>
      </trkpt>
      <trkpt lat="36.083011" lon="-5.699359">
        <ele>68.41</ele>
        <time>2015-06-19T14:44:49Z</time>
      </trkpt>
      <trkpt lat="36.082960" lon="-5.699290">
        <ele>67.68</ele>
        <time>2015-06-19T14:44:50Z</time>
      </trkpt>
      <trkpt lat="36.082910" lon="-5.699217">
        <ele>67.28</ele>
        <time>2015-06-19T14:44:51Z</time>
      </trkpt>
      <trkpt lat="36.082862" lon="-5.699143">
        <ele>66.84</ele>
        <time>2015-06-19T14:44:52Z</time>
      </trkpt>
      <trkpt lat="36.082807" lon="-5.699067">
        <ele>66.22</ele>
        <time>2015-06-19T14:44:53Z</time>
      </trkpt>
      <trkpt lat="36.082751" lon="-5.698987">
        <ele>65.46</ele>
        <time>2015-06-19T14:44:54Z</time>
      </trkpt>
      <trkpt lat="36.082694" lon="-5.698907">
        <ele>64.81</ele>
        <time>2015-06-19T14:44:55Z</time>
      </trkpt>
      <trkpt lat="36.082634" lon="-5.698824">
        <ele>64.06</ele>
        <time>2015-06-19T14:44:56Z</time>
      </trkpt>
      <trkpt lat="36.082574" lon="-5.698738">
        <ele>63.10</ele>
        <time>2015-06-19T14:44:57Z</time>
      </trkpt>
      <trkpt lat="36.082507" lon="-5.698652">
        <ele>62.24</ele>
        <time>2015-06-19T14:44:58Z</time>
      </trkpt>
      <trkpt lat="36.082449" lon="-5.698569">
        <ele>60.48</ele>
        <time>2015-06-19T14:44:59Z</time>
      </trkpt>
      <trkpt lat="36.082392" lon="-5.698485">
        <ele>59.41</ele>
        <time>2015-06-19T14:45:00Z</time>
      </trkpt>
      <trkpt lat="36.082338" lon="-5.698411">
        <ele>58.41</ele>
        <time>2015-06-19T14:45:01Z</time>
      </trkpt>
      <trkpt lat="36.082289" lon="-5.698338">
        <ele>57.69</ele>
        <time>2015-06-19T14:45:02Z</time>
      </trkpt>
      <trkpt lat="36.082251" lon="-5.698253">
        <ele>56.66</ele>
        <time>2015-06-19T14:45:03Z</time>
      </trkpt>
      <trkpt lat="36.082223" lon="-5.698163">
        <ele>55.69</ele>
        <time>2015-06-19T14:45:04Z</time>
      </trkpt>
      <trkpt lat="36.082203" lon="-5.697964">
        <ele>55.22</ele>
        <time>2015-06-19T14:45:06Z</time>
      </trkpt>
      <trkpt lat="36.082198" lon="-5.697865">
        <ele>54.88</ele>
        <time>2015-06-19T14:45:07Z</time>
      </trkpt>
      <trkpt lat="36.082193" lon="-5.697766">
        <ele>54.22</ele>
        <time>2015-06-19T14:45:08Z</time>
      </trkpt>
      <trkpt lat="36.082194" lon="-5.697665">
        <ele>53.69</ele>
        <time>2015-06-19T14:45:09Z</time>
      </trkpt>
      <trkpt lat="36.082203" lon="-5.697561">
        <ele>53.05</ele>
        <time>2015-06-19T14:45:10Z</time>
      </trkpt>
      <trkpt lat="36.082217" lon="-5.697463">
        <ele>52.47</ele>
        <time>2015-06-19T14:45:11Z</time>
      </trkpt>
      <trkpt lat="36.082244" lon="-5.697369">
        <ele>51.69</ele>
        <time>2015-06-19T14:45:12Z</time>
      </trkpt>
      <trkpt lat="36.082278" lon="-5.697277">
        <ele>50.81</ele>
        <time>2015-06-19T14:45:13Z</time>
      </trkpt>
      <trkpt lat="36.082322" lon="-5.697196">
        <ele>49.81</ele>
        <time>2015-06-19T14:45:14Z</time>
      </trkpt>
      <trkpt lat="36.082370" lon="-5.697112">
        <ele>48.90</ele>
        <time>2015-06-19T14:45:15Z</time>
      </trkpt>
      <trkpt lat="36.082419" lon="-5.697025">
        <ele>47.84</ele>
        <time>2015-06-19T14:45:16Z</time>
      </trkpt>
      <trkpt lat="36.082468" lon="-5.696936">
        <ele>47.02</ele>
        <time>2015-06-19T14:45:17Z</time>
      </trkpt>
      <trkpt lat="36.082515" lon="-5.696842">
        <ele>46.09</ele>
        <time>2015-06-19T14:45:18Z</time>
      </trkpt>
      <trkpt lat="36.082568" lon="-5.696744">
        <ele>45.22</ele>
        <time>2015-06-19T14:45:19Z</time>
      </trkpt>
      <trkpt lat="36.082619" lon="-5.696656">
        <ele>44.48</ele>
        <time>2015-06-19T14:45:20Z</time>
      </trkpt>
      <trkpt lat="36.082669" lon="-5.696567">
        <ele>43.86</ele>
        <time>2015-06-19T14:45:21Z</time>
      </trkpt>
      <trkpt lat="36.082724" lon="-5.696477">
        <ele>43.05</ele>
        <time>2015-06-19T14:45:22Z</time>
      </trkpt>
      <trkpt lat="36.082779" lon="-5.696383">
        <ele>41.67</ele>
        <time>2015-06-19T14:45:23Z</time>
      </trkpt>
      <trkpt lat="36.082834" lon="-5.696285">
        <ele>40.84</ele>
        <time>2015-06-19T14:45:24Z</time>
      </trkpt>
      <trkpt lat="36.082883" lon="-5.696198">
        <ele>40.22</ele>
        <time>2015-06-19T14:45:25Z</time>
      </trkpt>
      <trkpt lat="36.082932" lon="-5.696120">
        <ele>39.61</ele>
        <time>2015-06-19T14:45:26Z</time>
      </trkpt>
      <trkpt lat="36.082977" lon="-5.696047">
        <ele>39.07</ele>
        <time>2015-06-19T14:45:27Z</time>
      </trkpt>
      <trkpt lat="36.083023" lon="-5.695985">
        <ele>38.43</ele>
        <time>2015-06-19T14:45:28Z</time>
      </trkpt>
      <trkpt lat="36.083086" lon="-5.695940">
        <ele>37.62</ele>
        <time>2015-06-19T14:45:29Z</time>
      </trkpt>
      <trkpt lat="36.083156" lon="-5.695911">
        <ele>36.84</ele>
        <time>2015-06-19T14:45:30Z</time>
      </trkpt>
      <trkpt lat="36.083230" lon="-5.695889">
        <ele>36.08</ele>
        <time>2015-06-19T14:45:31Z</time>
      </trkpt>
      <trkpt lat="36.083306" lon="-5.695865">
        <ele>35.29</ele>
        <time>2015-06-19T14:45:32Z</time>
      </trkpt>
      <trkpt lat="36.083385" lon="-5.695833">
        <ele>34.43</ele>
        <time>2015-06-19T14:45:33Z</time>
      </trkpt>
      <trkpt lat="36.083463" lon="-5.695801">
        <ele>33.61</ele>
        <time>2015-06-19T14:45:34Z</time>
      </trkpt>
      <trkpt lat="36.083545" lon="-5.695777">
        <ele>32.89</ele>
        <time>2015-06-19T14:45:35Z</time>
      </trkpt>
      <trkpt lat="36.083629" lon="-5.695752">
        <ele>32.08</ele>
        <time>2015-06-19T14:45:36Z</time>
      </trkpt>
      <trkpt lat="36.083719" lon="-5.695723">
        <ele>31.62</ele>
        <time>2015-06-19T14:45:37Z</time>
      </trkpt>
      <trkpt lat="36.083800" lon="-5.695687">
        <ele>31.21</ele>
        <time>2015-06-19T14:45:38Z</time>
      </trkpt>
      <trkpt lat="36.083874" lon="-5.695636">
        <ele>30.87</ele>
        <time>2015-06-19T14:45:39Z</time>
      </trkpt>
      <trkpt lat="36.083945" lon="-5.695576">
        <ele>30.45</ele>
        <time>2015-06-19T14:45:40Z</time>
      </trkpt>
      <trkpt lat="36.084002" lon="-5.695508">
        <ele>30.02</ele>
        <time>2015-06-19T14:45:41Z</time>
      </trkpt>
      <trkpt lat="36.084038" lon="-5.695443">
        <ele>29.67</ele>
        <time>2015-06-19T14:45:42Z</time>
      </trkpt>
      <trkpt lat="36.084052" lon="-5.695365">
        <ele>29.22</ele>
        <time>2015-06-19T14:45:43Z</time>
      </trkpt>
      <trkpt lat="36.084035" lon="-5.695281">
        <ele>28.89</ele>
        <time>2015-06-19T14:45:44Z</time>
      </trkpt>
      <trkpt lat="36.083998" lon="-5.695212">
        <ele>28.49</ele>
        <time>2015-06-19T14:45:45Z</time>
      </trkpt>
      <trkpt lat="36.083956" lon="-5.695150">
        <ele>28.02</ele>
        <time>2015-06-19T14:45:46Z</time>
      </trkpt>
      <trkpt lat="36.083908" lon="-5.695090">
        <ele>28.08</ele>
        <time>2015-06-19T14:45:47Z</time>
      </trkpt>
      <trkpt lat="36.083855" lon="-5.695027">
        <ele>27.41</ele>
        <time>2015-06-19T14:45:48Z</time>
      </trkpt>
      <trkpt lat="36.083804" lon="-5.694964">
        <ele>27.02</ele>
        <time>2015-06-19T14:45:49Z</time>
      </trkpt>
      <trkpt lat="36.083754" lon="-5.694897">
        <ele>26.41</ele>
        <time>2015-06-19T14:45:50Z</time>
      </trkpt>
      <trkpt lat="36.083698" lon="-5.694824">
        <ele>26.06</ele>
        <time>2015-06-19T14:45:51Z</time>
      </trkpt>
      <trkpt lat="36.083644" lon="-5.694754">
        <ele>25.41</ele>
        <time>2015-06-19T14:45:52Z</time>
      </trkpt>
      <trkpt lat="36.083596" lon="-5.694695">
        <ele>25.48</ele>
        <time>2015-06-19T14:45:53Z</time>
      </trkpt>
      <trkpt lat="36.083556" lon="-5.694634">
        <ele>25.42</ele>
        <time>2015-06-19T14:45:54Z</time>
      </trkpt>
      <trkpt lat="36.083519" lon="-5.694486">
        <ele>25.47</ele>
        <time>2015-06-19T14:45:56Z</time>
      </trkpt>
      <trkpt lat="36.083591" lon="-5.694280">
        <ele>25.43</ele>
        <time>2015-06-19T14:45:59Z</time>
      </trkpt>
      <trkpt lat="36.083642" lon="-5.694235">
        <ele>25.02</ele>
        <time>2015-06-19T14:46:00Z</time>
      </trkpt>
      <trkpt lat="36.083692" lon="-5.694200">
        <ele>24.64</ele>
        <time>2015-06-19T14:46:01Z</time>
      </trkpt>
      <trkpt lat="36.083745" lon="-5.694167">
        <ele>24.29</ele>
        <time>2015-06-19T14:46:02Z</time>
      </trkpt>
      <trkpt lat="36.083797" lon="-5.694139">
        <ele>23.81</ele>
        <time>2015-06-19T14:46:03Z</time>
      </trkpt>
      <trkpt lat="36.083852" lon="-5.694123">
        <ele>23.23</ele>
        <time>2015-06-19T14:46:04Z</time>
      </trkpt>
      <trkpt lat="36.083908" lon="-5.694103">
        <ele>22.61</ele>
        <time>2015-06-19T14:46:05Z</time>
      </trkpt>
      <trkpt lat="36.083966" lon="-5.694077">
        <ele>22.26</ele>
        <time>2015-06-19T14:46:06Z</time>
      </trkpt>
      <trkpt lat="36.084019" lon="-5.694056">
        <ele>21.66</ele>
        <time>2015-06-19T14:46:07Z</time>
      </trkpt>
      <trkpt lat="36.084073" lon="-5.694040">
        <ele>21.27</ele>
        <time>2015-06-19T14:46:08Z</time>
      </trkpt>
      <trkpt lat="36.084177" lon="-5.693993">
        <ele>20.90</ele>
        <time>2015-06-19T14:46:10Z</time>
      </trkpt>
      <trkpt lat="36.084232" lon="-5.693971">
        <ele>20.42</ele>
        <time>2015-06-19T14:46:11Z</time>
      </trkpt>
      <trkpt lat="36.084290" lon="-5.693951">
        <ele>19.82</ele>
        <time>2015-06-19T14:46:12Z</time>
      </trkpt>
      <trkpt lat="36.084347" lon="-5.693924">
        <ele>19.06</ele>
        <time>2015-06-19T14:46:13Z</time>
      </trkpt>
      <trkpt lat="36.084404" lon="-5.693883">
        <ele>19.07</ele>
        <time>2015-06-19T14:46:14Z</time>
      </trkpt>
      <trkpt lat="36.084501" lon="-5.693777">
        <ele>19.09</ele>
        <time>2015-06-19T14:46:16Z</time>
      </trkpt>
      <trkpt lat="36.084528" lon="-5.693706">
        <ele>19.06</ele>
        <time>2015-06-19T14:46:17Z</time>
      </trkpt>
      <trkpt lat="36.084531" lon="-5.693473">
        <ele>19.02</ele>
        <time>2015-06-19T14:46:20Z</time>
      </trkpt>
      <trkpt lat="36.084507" lon="-5.693327">
        <ele>19.01</ele>
        <time>2015-06-19T14:46:22Z</time>
      </trkpt>
      <trkpt lat="36.084466" lon="-5.693061">
        <ele>19.06</ele>
        <time>2015-06-19T14:46:26Z</time>
      </trkpt>
      <trkpt lat="36.084445" lon="-5.692892">
        <ele>19.07</ele>
        <time>2015-06-19T14:46:29Z</time>
      </trkpt>
      <trkpt lat="36.084422" lon="-5.692739">
        <ele>19.04</ele>
        <time>2015-06-19T14:46:32Z</time>
      </trkpt>
      <trkpt lat="36.084378" lon="-5.692453">
        <ele>19.04</ele>
        <time>2015-06-19T14:46:39Z</time>
      </trkpt>
      <trkpt lat="36.084373" lon="-5.692388">
        <ele>19.09</ele>
        <time>2015-06-19T14:46:41Z</time>
      </trkpt>
      <trkpt lat="36.084363" lon="-5.692317">
        <ele>19.07</ele>
        <time>2015-06-19T14:46:43Z</time>
      </trkpt>
      <trkpt lat="36.084343" lon="-5.692256">
        <ele>19.07</ele>
        <time>2015-06-19T14:46:45Z</time>
      </trkpt>
      <trkpt lat="36.084332" lon="-5.692188">
        <ele>19.02</ele>
        <time>2015-06-19T14:46:47Z</time>
      </trkpt>
      <trkpt lat="36.084304" lon="-5.692113">
        <ele>19.07</ele>
        <time>2015-06-19T14:46:50Z</time>
      </trkpt>
      <trkpt lat="36.084283" lon="-5.692098">
        <ele>19.46</ele>
        <time>2015-06-19T14:46:51Z</time>
      </trkpt>
      <trkpt lat="36.084261" lon="-5.692083">
        <ele>19.82</ele>
        <time>2015-06-19T14:46:52Z</time>
      </trkpt>
      <trkpt lat="36.084237" lon="-5.692069">
        <ele>20.41</ele>
        <time>2015-06-19T14:46:53Z</time>
      </trkpt>
      <trkpt lat="36.084211" lon="-5.692061">
        <ele>20.86</ele>
        <time>2015-06-19T14:46:54Z</time>
      </trkpt>
      <trkpt lat="36.084185" lon="-5.692054">
        <ele>21.23</ele>
        <time>2015-06-19T14:46:55Z</time>
      </trkpt>
      <trkpt lat="36.084095" lon="-5.692044">
        <ele>21.27</ele>
        <time>2015-06-19T14:46:58Z</time>
      </trkpt>
      <trkpt lat="36.083813" lon="-5.691993">
        <ele>21.22</ele>
        <time>2015-06-19T14:47:06Z</time>
      </trkpt>
      <trkpt lat="36.083542" lon="-5.691952">
        <ele>21.25</ele>
        <time>2015-06-19T14:47:13Z</time>
      </trkpt>
      <trkpt lat="36.083206" lon="-5.691908">
        <ele>21.27</ele>
        <time>2015-06-19T14:47:21Z</time>
      </trkpt>
      <trkpt lat="36.083010" lon="-5.691883">
        <ele>21.27</ele>
        <time>2015-06-19T14:47:26Z</time>
      </trkpt>
      <trkpt lat="36.082891" lon="-5.691865">
        <ele>21.25</ele>
        <time>2015-06-19T14:47:29Z</time>
      </trkpt>
      <trkpt lat="36.082747" lon="-5.691840">
        <ele>21.26</ele>
        <time>2015-06-19T14:47:33Z</time>
      </trkpt>
      <trkpt lat="36.082640" lon="-5.691793">
        <ele>21.20</ele>
        <time>2015-06-19T14:47:37Z</time>
      </trkpt>
      <trkpt lat="36.082585" lon="-5.691688">
        <ele>21.22</ele>
        <time>2015-06-19T14:47:40Z</time>
      </trkpt>
      <trkpt lat="36.082517" lon="-5.691632">
        <ele>21.21</ele>
        <time>2015-06-19T14:47:42Z</time>
      </trkpt>
      <trkpt lat="36.082489" lon="-5.691593">
        <ele>21.28</ele>
        <time>2015-06-19T14:47:43Z</time>
      </trkpt>
      <trkpt lat="36.082425" lon="-5.691519">
        <ele>21.29</ele>
        <time>2015-06-19T14:47:45Z</time>
      </trkpt>
      <trkpt lat="36.082325" lon="-5.691413">
        <ele>20.82</ele>
        <time>2015-06-19T14:47:48Z</time>
      </trkpt>
      <trkpt lat="36.082298" lon="-5.691387">
        <ele>20.43</ele>
        <time>2015-06-19T14:47:49Z</time>
      </trkpt>
      <trkpt lat="36.082272" lon="-5.691368">
        <ele>20.08</ele>
        <time>2015-06-19T14:47:50Z</time>
      </trkpt>
      <trkpt lat="36.082247" lon="-5.691344">
        <ele>19.25</ele>
        <time>2015-06-19T14:47:51Z</time>
      </trkpt>
      <trkpt lat="36.082159" lon="-5.691249">
        <ele>19.22</ele>
        <time>2015-06-19T14:47:55Z</time>
      </trkpt>
      <trkpt lat="36.082104" lon="-5.691186">
        <ele>19.26</ele>
        <time>2015-06-19T14:47:58Z</time>
      </trkpt>
      <trkpt lat="36.081990" lon="-5.691095">
        <ele>19.29</ele>
        <time>2015-06-19T14:48:04Z</time>
      </trkpt>
      <trkpt lat="36.081880" lon="-5.690993">
        <ele>19.22</ele>
        <time>2015-06-19T14:48:10Z</time>
      </trkpt>
      <trkpt lat="36.081729" lon="-5.690926">
        <ele>19.23</ele>
        <time>2015-06-19T14:48:15Z</time>
      </trkpt>
      <trkpt lat="36.081503" lon="-5.690826">
        <ele>19.21</ele>
        <time>2015-06-19T14:48:21Z</time>
      </trkpt>
      <trkpt lat="36.081294" lon="-5.690729">
        <ele>19.26</ele>
        <time>2015-06-19T14:48:26Z</time>
      </trkpt>
      <trkpt lat="36.081173" lon="-5.690666">
        <ele>19.29</ele>
        <time>2015-06-19T14:48:29Z</time>
      </trkpt>
      <trkpt lat="36.081007" lon="-5.690569">
        <ele>18.86</ele>
        <time>2015-06-19T14:48:33Z</time>
      </trkpt>
      <trkpt lat="36.080968" lon="-5.690543">
        <ele>18.29</ele>
        <time>2015-06-19T14:48:34Z</time>
      </trkpt>
      <trkpt lat="36.080925" lon="-5.690518">
        <ele>17.87</ele>
        <time>2015-06-19T14:48:35Z</time>
      </trkpt>
      <trkpt lat="36.080877" lon="-5.690502">
        <ele>17.42</ele>
        <time>2015-06-19T14:48:36Z</time>
      </trkpt>
      <trkpt lat="36.080833" lon="-5.690481">
        <ele>17.09</ele>
        <time>2015-06-19T14:48:37Z</time>
      </trkpt>
      <trkpt lat="36.080717" lon="-5.690420">
        <ele>17.07</ele>
        <time>2015-06-19T14:48:40Z</time>
      </trkpt>
      <trkpt lat="36.080652" lon="-5.690388">
        <ele>17.04</ele>
        <time>2015-06-19T14:48:42Z</time>
      </trkpt>
      <trkpt lat="36.080563" lon="-5.690365">
        <ele>16.66</ele>
        <time>2015-06-19T14:48:45Z</time>
      </trkpt>
      <trkpt lat="36.080537" lon="-5.690351">
        <ele>16.21</ele>
        <time>2015-06-19T14:48:46Z</time>
      </trkpt>
      <trkpt lat="36.080512" lon="-5.690331">
        <ele>15.81</ele>
        <time>2015-06-19T14:48:47Z</time>
      </trkpt>
      <trkpt lat="36.080486" lon="-5.690309">
        <ele>15.41</ele>
        <time>2015-06-19T14:48:48Z</time>
      </trkpt>
      <trkpt lat="36.080457" lon="-5.690295">
        <ele>15.09</ele>
        <time>2015-06-19T14:48:49Z</time>
      </trkpt>
      <trkpt lat="36.080339" lon="-5.690238">
        <ele>15.05</ele>
        <time>2015-06-19T14:48:53Z</time>
      </trkpt>
      <trkpt lat="36.080086" lon="-5.690123">
        <ele>15.01</ele>
        <time>2015-06-19T14:49:01Z</time>
      </trkpt>
      <trkpt lat="36.080057" lon="-5.690109">
        <ele>15.09</ele>
        <time>2015-06-19T14:49:02Z</time>
      </trkpt>
      <trkpt lat="36.079841" lon="-5.690061">
        <ele>15.07</ele>
        <time>2015-06-19T14:49:09Z</time>
      </trkpt>
      <trkpt lat="36.079679" lon="-5.689984">
        <ele>15.08</ele>
        <time>2015-06-19T14:49:15Z</time>
      </trkpt>
      <trkpt lat="36.079652" lon="-5.689962">
        <ele>15.05</ele>
        <time>2015-06-19T14:49:16Z</time>
      </trkpt>
      <trkpt lat="36.079512" lon="-5.689841">
        <ele>15.10</ele>
        <time>2015-06-19T14:49:22Z</time>
      </trkpt>
      <trkpt lat="36.079351" lon="-5.689754">
        <ele>15.03</ele>
        <time>2015-06-19T14:49:29Z</time>
      </trkpt>
      <trkpt lat="36.079194" lon="-5.689701">
        <ele>15.02</ele>
        <time>2015-06-19T14:49:35Z</time>
      </trkpt>
      <trkpt lat="36.078951" lon="-5.689610">
        <ele>15.01</ele>
        <time>2015-06-19T14:49:43Z</time>
      </trkpt>
      <trkpt lat="36.078812" lon="-5.689529">
        <ele>15.03</ele>
        <time>2015-06-19T14:49:49Z</time>
      </trkpt>
      <trkpt lat="36.078668" lon="-5.689459">
        <ele>15.07</ele>
        <time>2015-06-19T14:49:55Z</time>
      </trkpt>
      <trkpt lat="36.078485" lon="-5.689429">
        <ele>15.07</ele>
        <time>2015-06-19T14:50:01Z</time>
      </trkpt>
      <trkpt lat="36.078324" lon="-5.689521">
        <ele>15.04</ele>
        <time>2015-06-19T14:50:06Z</time>
      </trkpt>
      <trkpt lat="36.078106" lon="-5.689663">
        <ele>15.09</ele>
        <time>2015-06-19T14:50:13Z</time>
      </trkpt>
      <trkpt lat="36.078076" lon="-5.689674">
        <ele>14.44</ele>
        <time>2015-06-19T14:50:14Z</time>
      </trkpt>
      <trkpt lat="36.078046" lon="-5.689688">
        <ele>14.05</ele>
        <time>2015-06-19T14:50:15Z</time>
      </trkpt>
      <trkpt lat="36.078017" lon="-5.689698">
        <ele>13.69</ele>
        <time>2015-06-19T14:50:16Z</time>
      </trkpt>
      <trkpt lat="36.077995" lon="-5.689711">
        <ele>13.27</ele>
        <time>2015-06-19T14:50:17Z</time>
      </trkpt>
      <trkpt lat="36.077971" lon="-5.689722">
        <ele>12.81</ele>
        <time>2015-06-19T14:50:18Z</time>
      </trkpt>
      <trkpt lat="36.077922" lon="-5.689756">
        <ele>12.81</ele>
        <time>2015-06-19T14:50:20Z</time>
      </trkpt>
      <trkpt lat="36.077776" lon="-5.689875">
        <ele>12.81</ele>
        <time>2015-06-19T14:50:27Z</time>
      </trkpt>
      <trkpt lat="36.077668" lon="-5.689860">
        <ele>12.89</ele>
        <time>2015-06-19T14:50:32Z</time>
      </trkpt>
      <trkpt lat="36.077570" lon="-5.689809">
        <ele>12.84</ele>
        <time>2015-06-19T14:50:38Z</time>
      </trkpt>
      <trkpt lat="36.077551" lon="-5.689809">
        <ele>12.87</ele>
        <time>2015-06-19T14:50:43Z</time>
      </trkpt>
      <trkpt lat="36.077551" lon="-5.689809">
        <ele>12.89</ele>
        <time>2015-06-19T14:50:51Z</time>
      </trkpt>
      <trkpt lat="36.077559" lon="-5.689824">
        <ele>12.87</ele>
        <time>2015-06-19T14:50:56Z</time>
      </trkpt>
      <trkpt lat="36.077573" lon="-5.689852">
        <ele>12.87</ele>
        <time>2015-06-19T14:51:00Z</time>
      </trkpt>
      <trkpt lat="36.077580" lon="-5.689861">
        <ele>12.89</ele>
        <time>2015-06-19T14:51:02Z</time>
      </trkpt>
      <trkpt lat="36.077594" lon="-5.689874">
        <ele>12.86</ele>
        <time>2015-06-19T14:51:11Z</time>
      </trkpt>
      <trkpt lat="36.077565" lon="-5.689848">
        <ele>12.86</ele>
        <time>2015-06-19T14:51:15Z</time>
      </trkpt>
      <trkpt lat="36.077565" lon="-5.689848">
        <ele>12.82</ele>
        <time>2015-06-19T14:51:21Z</time>
      </trkpt>
      <trkpt lat="36.077565" lon="-5.689848">
        <ele>12.81</ele>
        <time>2015-06-19T14:51:24Z</time>
      </trkpt>
      <trkpt lat="36.077565" lon="-5.689848">
        <ele>12.81</ele>
        <time>2015-06-19T14:51:30Z</time>
      </trkpt>
      <trkpt lat="36.077542" lon="-5.689824">
        <ele>12.89</ele>
        <time>2015-06-19T14:51:37Z</time>
      </trkpt>
      <trkpt lat="36.077508" lon="-5.689797">
        <ele>12.85</ele>
        <time>2015-06-19T14:51:39Z</time>
      </trkpt>
      <trkpt lat="36.077463" lon="-5.689771">
        <ele>12.87</ele>
        <time>2015-06-19T14:51:44Z</time>
      </trkpt>
      <trkpt lat="36.077462" lon="-5.689771">
        <ele>12.82</ele>
        <time>2015-06-19T14:51:46Z</time>
      </trkpt>
      <trkpt lat="36.077417" lon="-5.689730">
        <ele>13.24</ele>
        <time>2015-06-19T14:51:52Z</time>
      </trkpt>
      <trkpt lat="36.077409" lon="-5.689725">
        <ele>13.67</ele>
        <time>2015-06-19T14:51:53Z</time>
      </trkpt>
      <trkpt lat="36.077401" lon="-5.689722">
        <ele>14.04</ele>
        <time>2015-06-19T14:51:54Z</time>
      </trkpt>
      <trkpt lat="36.077402" lon="-5.689723">
        <ele>14.42</ele>
        <time>2015-06-19T14:51:55Z</time>
      </trkpt>
      <trkpt lat="36.077402" lon="-5.689723">
        <ele>14.88</ele>
        <time>2015-06-19T14:51:56Z</time>
      </trkpt>
      <trkpt lat="36.077388" lon="-5.689712">
        <ele>14.83</ele>
        <time>2015-06-19T14:51:58Z</time>
      </trkpt>
      <trkpt lat="36.077355" lon="-5.689698">
        <ele>14.83</ele>
        <time>2015-06-19T14:52:04Z</time>
      </trkpt>
      <trkpt lat="36.077345" lon="-5.689698">
        <ele>14.81</ele>
        <time>2015-06-19T14:52:06Z</time>
      </trkpt>
      <trkpt lat="36.077296" lon="-5.689669">
        <ele>14.84</ele>
        <time>2015-06-19T14:52:13Z</time>
      </trkpt>
      <trkpt lat="36.077266" lon="-5.689666">
        <ele>15.24</ele>
        <time>2015-06-19T14:52:17Z</time>
      </trkpt>
      <trkpt lat="36.077262" lon="-5.689661">
        <ele>15.65</ele>
        <time>2015-06-19T14:52:18Z</time>
      </trkpt>
      <trkpt lat="36.077257" lon="-5.689658">
        <ele>16.03</ele>
        <time>2015-06-19T14:52:19Z</time>
      </trkpt>
      <trkpt lat="36.077253" lon="-5.689654">
        <ele>16.49</ele>
        <time>2015-06-19T14:52:20Z</time>
      </trkpt>
      <trkpt lat="36.077248" lon="-5.689649">
        <ele>16.85</ele>
        <time>2015-06-19T14:52:21Z</time>
      </trkpt>
      <trkpt lat="36.077219" lon="-5.689609">
        <ele>16.87</ele>
        <time>2015-06-19T14:52:27Z</time>
      </trkpt>
      <trkpt lat="36.077194" lon="-5.689578">
        <ele>16.89</ele>
        <time>2015-06-19T14:52:32Z</time>
      </trkpt>
      <trkpt lat="36.077183" lon="-5.689565">
        <ele>16.89</ele>
        <time>2015-06-19T14:52:34Z</time>
      </trkpt>
      <trkpt lat="36.077107" lon="-5.689512">
        <ele>16.86</ele>
        <time>2015-06-19T14:52:40Z</time>
      </trkpt>
      <trkpt lat="36.077074" lon="-5.689469">
        <ele>16.82</ele>
        <time>2015-06-19T14:52:42Z</time>
      </trkpt>
      <trkpt lat="36.077024" lon="-5.689406">
        <ele>16.81</ele>
        <time>2015-06-19T14:52:44Z</time>
      </trkpt>
      <trkpt lat="36.076969" lon="-5.689356">
        <ele>16.81</ele>
        <time>2015-06-19T14:52:46Z</time>
      </trkpt>
      <trkpt lat="36.076944" lon="-5.689331">
        <ele>16.84</ele>
        <time>2015-06-19T14:52:47Z</time>
      </trkpt>
      <trkpt lat="36.076903" lon="-5.689278">
        <ele>16.84</ele>
        <time>2015-06-19T14:52:49Z</time>
      </trkpt>
      <trkpt lat="36.076881" lon="-5.689262">
        <ele>16.82</ele>
        <time>2015-06-19T14:52:50Z</time>
      </trkpt>
      <trkpt lat="36.076792" lon="-5.689202">
        <ele>16.81</ele>
        <time>2015-06-19T14:52:55Z</time>
      </trkpt>
      <trkpt lat="36.076743" lon="-5.689160">
        <ele>16.86</ele>
        <time>2015-06-19T14:53:00Z</time>
      </trkpt>
      <trkpt lat="36.076730" lon="-5.689152">
        <ele>16.84</ele>
        <time>2015-06-19T14:53:01Z</time>
      </trkpt>
      <trkpt lat="36.076667" lon="-5.689071">
        <ele>16.82</ele>
        <time>2015-06-19T14:53:05Z</time>
      </trkpt>
      <trkpt lat="36.076645" lon="-5.689048">
        <ele>16.82</ele>
        <time>2015-06-19T14:53:06Z</time>
      </trkpt>
      <trkpt lat="36.076497" lon="-5.688909">
        <ele>16.80</ele>
        <time>2015-06-19T14:53:13Z</time>
      </trkpt>
      <trkpt lat="36.076415" lon="-5.688839">
        <ele>16.81</ele>
        <time>2015-06-19T14:53:19Z</time>
      </trkpt>
      <trkpt lat="36.076372" lon="-5.688805">
        <ele>16.81</ele>
        <time>2015-06-19T14:53:22Z</time>
      </trkpt>
      <trkpt lat="36.076329" lon="-5.688767">
        <ele>16.88</ele>
        <time>2015-06-19T14:53:25Z</time>
      </trkpt>
      <trkpt lat="36.076256" lon="-5.688722">
        <ele>17.27</ele>
        <time>2015-06-19T14:53:29Z</time>
      </trkpt>
      <trkpt lat="36.076235" lon="-5.688710">
        <ele>17.68</ele>
        <time>2015-06-19T14:53:30Z</time>
      </trkpt>
      <trkpt lat="36.076218" lon="-5.688691">
        <ele>18.02</ele>
        <time>2015-06-19T14:53:31Z</time>
      </trkpt>
      <trkpt lat="36.076201" lon="-5.688675">
        <ele>18.64</ele>
        <time>2015-06-19T14:53:32Z</time>
      </trkpt>
      <trkpt lat="36.076185" lon="-5.688660">
        <ele>19.03</ele>
        <time>2015-06-19T14:53:33Z</time>
      </trkpt>
      <trkpt lat="36.076077" lon="-5.688568">
        <ele>19.02</ele>
        <time>2015-06-19T14:53:39Z</time>
      </trkpt>
      <trkpt lat="36.076003" lon="-5.688464">
        <ele>19.04</ele>
        <time>2015-06-19T14:53:45Z</time>
      </trkpt>
      <trkpt lat="36.075989" lon="-5.688452">
        <ele>19.07</ele>
        <time>2015-06-19T14:53:46Z</time>
      </trkpt>
      <trkpt lat="36.075964" lon="-5.688455">
        <ele>19.06</ele>
        <time>2015-06-19T14:53:49Z</time>
      </trkpt>
      <trkpt lat="36.075913" lon="-5.688407">
        <ele>19.02</ele>
        <time>2015-06-19T14:53:53Z</time>
      </trkpt>
      <trkpt lat="36.075909" lon="-5.688391">
        <ele>19.01</ele>
        <time>2015-06-19T14:53:54Z</time>
      </trkpt>
      <trkpt lat="36.075859" lon="-5.688334">
        <ele>19.02</ele>
        <time>2015-06-19T14:53:58Z</time>
      </trkpt>
      <trkpt lat="36.075822" lon="-5.688308">
        <ele>19.03</ele>
        <time>2015-06-19T14:54:00Z</time>
      </trkpt>
      <trkpt lat="36.075743" lon="-5.688236">
        <ele>19.07</ele>
        <time>2015-06-19T14:54:04Z</time>
      </trkpt>
      <trkpt lat="36.075722" lon="-5.688214">
        <ele>19.04</ele>
        <time>2015-06-19T14:54:05Z</time>
      </trkpt>
      <trkpt lat="36.075629" lon="-5.688134">
        <ele>19.05</ele>
        <time>2015-06-19T14:54:10Z</time>
      </trkpt>
      <trkpt lat="36.075625" lon="-5.688131">
        <ele>19.09</ele>
        <time>2015-06-19T14:54:11Z</time>
      </trkpt>
      <trkpt lat="36.075627" lon="-5.688130">
        <ele>19.10</ele>
        <time>2015-06-19T14:54:15Z</time>
      </trkpt>
      <trkpt lat="36.075627" lon="-5.688130">
        <ele>18.66</ele>
        <time>2015-06-19T14:54:16Z</time>
      </trkpt>
      <trkpt lat="36.075624" lon="-5.688133">
        <ele>18.22</ele>
        <time>2015-06-19T14:54:17Z</time>
      </trkpt>
      <trkpt lat="36.075612" lon="-5.688136">
        <ele>17.80</ele>
        <time>2015-06-19T14:54:18Z</time>
      </trkpt>
      <trkpt lat="36.075613" lon="-5.688140">
        <ele>17.21</ele>
        <time>2015-06-19T14:54:19Z</time>
      </trkpt>
      <trkpt lat="36.075610" lon="-5.688142">
        <ele>16.81</ele>
        <time>2015-06-19T14:54:20Z</time>
      </trkpt>
      <trkpt lat="36.075610" lon="-5.688142">
        <ele>16.88</ele>
        <time>2015-06-19T14:54:21Z</time>
      </trkpt>
      <trkpt lat="36.075588" lon="-5.688111">
        <ele>16.85</ele>
        <time>2015-06-19T14:54:27Z</time>
      </trkpt>
      <trkpt lat="36.075539" lon="-5.688051">
        <ele>16.89</ele>
        <time>2015-06-19T14:54:35Z</time>
      </trkpt>
      <trkpt lat="36.075532" lon="-5.688043">
        <ele>16.85</ele>
        <time>2015-06-19T14:54:36Z</time>
      </trkpt>
      <trkpt lat="36.075485" lon="-5.687985">
        <ele>16.85</ele>
        <time>2015-06-19T14:54:40Z</time>
      </trkpt>
      <trkpt lat="36.075432" lon="-5.687936">
        <ele>16.83</ele>
        <time>2015-06-19T14:54:44Z</time>
      </trkpt>
      <trkpt lat="36.075395" lon="-5.687903">
        <ele>16.87</ele>
        <time>2015-06-19T14:54:46Z</time>
      </trkpt>
      <trkpt lat="36.075296" lon="-5.687836">
        <ele>16.82</ele>
        <time>2015-06-19T14:54:52Z</time>
      </trkpt>
      <trkpt lat="36.075223" lon="-5.687775">
        <ele>16.87</ele>
        <time>2015-06-19T14:54:57Z</time>
      </trkpt>
      <trkpt lat="36.075216" lon="-5.687771">
        <ele>16.86</ele>
        <time>2015-06-19T14:54:58Z</time>
      </trkpt>
      <trkpt lat="36.075160" lon="-5.687728">
        <ele>16.82</ele>
        <time>2015-06-19T14:55:02Z</time>
      </trkpt>
      <trkpt lat="36.075141" lon="-5.687705">
        <ele>16.81</ele>
        <time>2015-06-19T14:55:03Z</time>
      </trkpt>
      <trkpt lat="36.075054" lon="-5.687629">
        <ele>16.89</ele>
        <time>2015-06-19T14:55:08Z</time>
      </trkpt>
      <trkpt lat="36.074948" lon="-5.687537">
        <ele>16.88</ele>
        <time>2015-06-19T14:55:13Z</time>
      </trkpt>
      <trkpt lat="36.074864" lon="-5.687482">
        <ele>16.83</ele>
        <time>2015-06-19T14:55:16Z</time>
      </trkpt>
      <trkpt lat="36.074814" lon="-5.687443">
        <ele>16.84</ele>
        <time>2015-06-19T14:55:18Z</time>
      </trkpt>
      <trkpt lat="36.074717" lon="-5.687342">
        <ele>16.82</ele>
        <time>2015-06-19T14:55:23Z</time>
      </trkpt>
      <trkpt lat="36.074564" lon="-5.687192">
        <ele>16.82</ele>
        <time>2015-06-19T14:55:30Z</time>
      </trkpt>
      <trkpt lat="36.074425" lon="-5.687080">
        <ele>16.86</ele>
        <time>2015-06-19T14:55:35Z</time>
      </trkpt>
      <trkpt lat="36.074305" lon="-5.686967">
        <ele>16.89</ele>
        <time>2015-06-19T14:55:40Z</time>
      </trkpt>
      <trkpt lat="36.074212" lon="-5.686891">
        <ele>16.87</ele>
        <time>2015-06-19T14:55:44Z</time>
      </trkpt>
      <trkpt lat="36.074068" lon="-5.686754">
        <ele>16.86</ele>
        <time>2015-06-19T14:55:50Z</time>
      </trkpt>
      <trkpt lat="36.073885" lon="-5.686585">
        <ele>16.82</ele>
        <time>2015-06-19T14:55:57Z</time>
      </trkpt>
      <trkpt lat="36.073654" lon="-5.686371">
        <ele>16.81</ele>
        <time>2015-06-19T14:56:06Z</time>
      </trkpt>
      <trkpt lat="36.073569" lon="-5.686299">
        <ele>16.88</ele>
        <time>2015-06-19T14:56:10Z</time>
      </trkpt>
      <trkpt lat="36.073532" lon="-5.686261">
        <ele>16.85</ele>
        <time>2015-06-19T14:56:12Z</time>
      </trkpt>
      <trkpt lat="36.073417" lon="-5.686095">
        <ele>16.85</ele>
        <time>2015-06-19T14:56:19Z</time>
      </trkpt>
      <trkpt lat="36.073291" lon="-5.685983">
        <ele>16.83</ele>
        <time>2015-06-19T14:56:24Z</time>
      </trkpt>
      <trkpt lat="36.073256" lon="-5.685965">
        <ele>16.84</ele>
        <time>2015-06-19T14:56:25Z</time>
      </trkpt>
      <trkpt lat="36.073064" lon="-5.685849">
        <ele>16.82</ele>
        <time>2015-06-19T14:56:31Z</time>
      </trkpt>
      <trkpt lat="36.073008" lon="-5.685800">
        <ele>16.86</ele>
        <time>2015-06-19T14:56:33Z</time>
      </trkpt>
      <trkpt lat="36.072805" lon="-5.685597">
        <ele>16.88</ele>
        <time>2015-06-19T14:56:40Z</time>
      </trkpt>
      <trkpt lat="36.072683" lon="-5.685469">
        <ele>16.90</ele>
        <time>2015-06-19T14:56:45Z</time>
      </trkpt>
      <trkpt lat="36.072515" lon="-5.685321">
        <ele>16.85</ele>
        <time>2015-06-19T14:56:51Z</time>
      </trkpt>
      <trkpt lat="36.072330" lon="-5.685161">
        <ele>16.82</ele>
        <time>2015-06-19T14:56:58Z</time>
      </trkpt>
      <trkpt lat="36.072250" lon="-5.685096">
        <ele>16.81</ele>
        <time>2015-06-19T14:57:02Z</time>
      </trkpt>
      <trkpt lat="36.072229" lon="-5.685080">
        <ele>16.82</ele>
        <time>2015-06-19T14:57:03Z</time>
      </trkpt>
      <trkpt lat="36.072112" lon="-5.684976">
        <ele>16.85</ele>
        <time>2015-06-19T14:57:09Z</time>
      </trkpt>
      <trkpt lat="36.071961" lon="-5.684870">
        <ele>16.82</ele>
        <time>2015-06-19T14:57:15Z</time>
      </trkpt>
      <trkpt lat="36.071852" lon="-5.684749">
        <ele>16.89</ele>
        <time>2015-06-19T14:57:20Z</time>
      </trkpt>
      <trkpt lat="36.071806" lon="-5.684697">
        <ele>16.86</ele>
        <time>2015-06-19T14:57:22Z</time>
      </trkpt>
      <trkpt lat="36.071667" lon="-5.684582">
        <ele>16.82</ele>
        <time>2015-06-19T14:57:28Z</time>
      </trkpt>
      <trkpt lat="36.071548" lon="-5.684515">
        <ele>16.84</ele>
        <time>2015-06-19T14:57:34Z</time>
      </trkpt>
      <trkpt lat="36.071453" lon="-5.684420">
        <ele>16.82</ele>
        <time>2015-06-19T14:57:41Z</time>
      </trkpt>
      <trkpt lat="36.071437" lon="-5.684407">
        <ele>17.27</ele>
        <time>2015-06-19T14:57:42Z</time>
      </trkpt>
      <trkpt lat="36.071423" lon="-5.684390">
        <ele>17.64</ele>
        <time>2015-06-19T14:57:43Z</time>
      </trkpt>
      <trkpt lat="36.071408" lon="-5.684374">
        <ele>18.63</ele>
        <time>2015-06-19T14:57:44Z</time>
      </trkpt>
      <trkpt lat="36.071389" lon="-5.684362">
        <ele>19.01</ele>
        <time>2015-06-19T14:57:45Z</time>
      </trkpt>
      <trkpt lat="36.071359" lon="-5.684331">
        <ele>19.02</ele>
        <time>2015-06-19T14:57:47Z</time>
      </trkpt>
      <trkpt lat="36.071317" lon="-5.684282">
        <ele>19.45</ele>
        <time>2015-06-19T14:57:50Z</time>
      </trkpt>
      <trkpt lat="36.071307" lon="-5.684265">
        <ele>19.84</ele>
        <time>2015-06-19T14:57:51Z</time>
      </trkpt>
      <trkpt lat="36.071295" lon="-5.684245">
        <ele>20.29</ele>
        <time>2015-06-19T14:57:52Z</time>
      </trkpt>
      <trkpt lat="36.071280" lon="-5.684231">
        <ele>20.66</ele>
        <time>2015-06-19T14:57:53Z</time>
      </trkpt>
      <trkpt lat="36.071268" lon="-5.684215">
        <ele>21.09</ele>
        <time>2015-06-19T14:57:54Z</time>
      </trkpt>
      <trkpt lat="36.071184" lon="-5.684097">
        <ele>21.06</ele>
        <time>2015-06-19T14:58:00Z</time>
      </trkpt>
      <trkpt lat="36.071130" lon="-5.684036">
        <ele>21.10</ele>
        <time>2015-06-19T14:58:03Z</time>
      </trkpt>
      <trkpt lat="36.071064" lon="-5.683958">
        <ele>21.04</ele>
        <time>2015-06-19T14:58:06Z</time>
      </trkpt>
      <trkpt lat="36.070880" lon="-5.683770">
        <ele>21.07</ele>
        <time>2015-06-19T14:58:13Z</time>
      </trkpt>
      <trkpt lat="36.070742" lon="-5.683587">
        <ele>21.02</ele>
        <time>2015-06-19T14:58:19Z</time>
      </trkpt>
      <trkpt lat="36.070727" lon="-5.683551">
        <ele>21.01</ele>
        <time>2015-06-19T14:58:20Z</time>
      </trkpt>
      <trkpt lat="36.070699" lon="-5.683486">
        <ele>21.01</ele>
        <time>2015-06-19T14:58:22Z</time>
      </trkpt>
      <trkpt lat="36.070681" lon="-5.683420">
        <ele>21.02</ele>
        <time>2015-06-19T14:58:24Z</time>
      </trkpt>
      <trkpt lat="36.070667" lon="-5.683359">
        <ele>21.05</ele>
        <time>2015-06-19T14:58:26Z</time>
      </trkpt>
      <trkpt lat="36.070655" lon="-5.683333">
        <ele>21.01</ele>
        <time>2015-06-19T14:58:27Z</time>
      </trkpt>
      <trkpt lat="36.070612" lon="-5.683251">
        <ele>21.03</ele>
        <time>2015-06-19T14:58:31Z</time>
      </trkpt>
      <trkpt lat="36.070599" lon="-5.683223">
        <ele>21.10</ele>
        <time>2015-06-19T14:58:33Z</time>
      </trkpt>
      <trkpt lat="36.070571" lon="-5.683087">
        <ele>21.04</ele>
        <time>2015-06-19T14:58:38Z</time>
      </trkpt>
      <trkpt lat="36.070532" lon="-5.682894">
        <ele>21.05</ele>
        <time>2015-06-19T14:58:44Z</time>
      </trkpt>
      <trkpt lat="36.070416" lon="-5.682804">
        <ele>21.08</ele>
        <time>2015-06-19T14:58:49Z</time>
      </trkpt>
      <trkpt lat="36.070239" lon="-5.682748">
        <ele>20.61</ele>
        <time>2015-06-19T14:58:54Z</time>
      </trkpt>
      <trkpt lat="36.070207" lon="-5.682750">
        <ele>20.22</ele>
        <time>2015-06-19T14:58:55Z</time>
      </trkpt>
      <trkpt lat="36.070177" lon="-5.682754">
        <ele>19.81</ele>
        <time>2015-06-19T14:58:56Z</time>
      </trkpt>
      <trkpt lat="36.070149" lon="-5.682743">
        <ele>19.45</ele>
        <time>2015-06-19T14:58:57Z</time>
      </trkpt>
      <trkpt lat="36.070127" lon="-5.682724">
        <ele>19.09</ele>
        <time>2015-06-19T14:58:58Z</time>
      </trkpt>
      <trkpt lat="36.070100" lon="-5.682708">
        <ele>19.02</ele>
        <time>2015-06-19T14:58:59Z</time>
      </trkpt>
      <trkpt lat="36.069934" lon="-5.682565">
        <ele>19.10</ele>
        <time>2015-06-19T14:59:05Z</time>
      </trkpt>
      <trkpt lat="36.069866" lon="-5.682412">
        <ele>19.02</ele>
        <time>2015-06-19T14:59:10Z</time>
      </trkpt>
      <trkpt lat="36.069757" lon="-5.682245">
        <ele>19.02</ele>
        <time>2015-06-19T14:59:17Z</time>
      </trkpt>
      <trkpt lat="36.069689" lon="-5.682113">
        <ele>19.03</ele>
        <time>2015-06-19T14:59:23Z</time>
      </trkpt>
      <trkpt lat="36.069619" lon="-5.681989">
        <ele>19.09</ele>
        <time>2015-06-19T14:59:28Z</time>
      </trkpt>
      <trkpt lat="36.069583" lon="-5.681931">
        <ele>19.06</ele>
        <time>2015-06-19T14:59:30Z</time>
      </trkpt>
      <trkpt lat="36.069529" lon="-5.681845">
        <ele>19.01</ele>
        <time>2015-06-19T14:59:33Z</time>
      </trkpt>
      <trkpt lat="36.069442" lon="-5.681697">
        <ele>19.02</ele>
        <time>2015-06-19T14:59:38Z</time>
      </trkpt>
      <trkpt lat="36.069323" lon="-5.681472">
        <ele>19.01</ele>
        <time>2015-06-19T14:59:45Z</time>
      </trkpt>
      <trkpt lat="36.069305" lon="-5.681438">
        <ele>19.08</ele>
        <time>2015-06-19T14:59:46Z</time>
      </trkpt>
      <trkpt lat="36.069153" lon="-5.681168">
        <ele>19.02</ele>
        <time>2015-06-19T14:59:55Z</time>
      </trkpt>
      <trkpt lat="36.069087" lon="-5.681014">
        <ele>19.07</ele>
        <time>2015-06-19T15:00:01Z</time>
      </trkpt>
      <trkpt lat="36.068987" lon="-5.680810">
        <ele>19.05</ele>
        <time>2015-06-19T15:00:08Z</time>
      </trkpt>
      <trkpt lat="36.068833" lon="-5.680608">
        <ele>19.01</ele>
        <time>2015-06-19T15:00:16Z</time>
      </trkpt>
      <trkpt lat="36.068813" lon="-5.680549">
        <ele>19.05</ele>
        <time>2015-06-19T15:00:18Z</time>
      </trkpt>
      <trkpt lat="36.068833" lon="-5.680475">
        <ele>19.03</ele>
        <time>2015-06-19T15:00:20Z</time>
      </trkpt>
      <trkpt lat="36.068867" lon="-5.680319">
        <ele>19.04</ele>
        <time>2015-06-19T15:00:25Z</time>
      </trkpt>
      <trkpt lat="36.068858" lon="-5.680296">
        <ele>19.01</ele>
        <time>2015-06-19T15:00:26Z</time>
      </trkpt>
      <trkpt lat="36.068793" lon="-5.680156">
        <ele>19.05</ele>
        <time>2015-06-19T15:00:31Z</time>
      </trkpt>
      <trkpt lat="36.068778" lon="-5.680143">
        <ele>19.01</ele>
        <time>2015-06-19T15:00:32Z</time>
      </trkpt>
      <trkpt lat="36.068736" lon="-5.680096">
        <ele>19.41</ele>
        <time>2015-06-19T15:00:35Z</time>
      </trkpt>
      <trkpt lat="36.068728" lon="-5.680072">
        <ele>20.04</ele>
        <time>2015-06-19T15:00:36Z</time>
      </trkpt>
      <trkpt lat="36.068718" lon="-5.680052">
        <ele>21.02</ele>
        <time>2015-06-19T15:00:37Z</time>
      </trkpt>
      <trkpt lat="36.068708" lon="-5.680027">
        <ele>21.48</ele>
        <time>2015-06-19T15:00:38Z</time>
      </trkpt>
      <trkpt lat="36.068636" lon="-5.679881">
        <ele>21.43</ele>
        <time>2015-06-19T15:00:44Z</time>
      </trkpt>
      <trkpt lat="36.068600" lon="-5.679755">
        <ele>21.41</ele>
        <time>2015-06-19T15:00:48Z</time>
      </trkpt>
      <trkpt lat="36.068531" lon="-5.679567">
        <ele>21.45</ele>
        <time>2015-06-19T15:00:55Z</time>
      </trkpt>
      <trkpt lat="36.068420" lon="-5.679290">
        <ele>21.46</ele>
        <time>2015-06-19T15:01:05Z</time>
      </trkpt>
      <trkpt lat="36.068288" lon="-5.679050">
        <ele>21.44</ele>
        <time>2015-06-19T15:01:14Z</time>
      </trkpt>
      <trkpt lat="36.068194" lon="-5.678817">
        <ele>21.50</ele>
        <time>2015-06-19T15:01:23Z</time>
      </trkpt>
      <trkpt lat="36.068156" lon="-5.678751">
        <ele>22.22</ele>
        <time>2015-06-19T15:01:26Z</time>
      </trkpt>
      <trkpt lat="36.068145" lon="-5.678730">
        <ele>22.63</ele>
        <time>2015-06-19T15:01:27Z</time>
      </trkpt>
      <trkpt lat="36.068135" lon="-5.678708">
        <ele>23.21</ele>
        <time>2015-06-19T15:01:28Z</time>
      </trkpt>
      <trkpt lat="36.068126" lon="-5.678687">
        <ele>23.67</ele>
        <time>2015-06-19T15:01:29Z</time>
      </trkpt>
      <trkpt lat="36.068105" lon="-5.678645">
        <ele>23.64</ele>
        <time>2015-06-19T15:01:31Z</time>
      </trkpt>
      <trkpt lat="36.068023" lon="-5.678459">
        <ele>23.62</ele>
        <time>2015-06-19T15:01:38Z</time>
      </trkpt>
      <trkpt lat="36.067929" lon="-5.678238">
        <ele>23.63</ele>
        <time>2015-06-19T15:01:45Z</time>
      </trkpt>
      <trkpt lat="36.067836" lon="-5.678013">
        <ele>23.61</ele>
        <time>2015-06-19T15:01:52Z</time>
      </trkpt>
      <trkpt lat="36.067727" lon="-5.677865">
        <ele>23.66</ele>
        <time>2015-06-19T15:01:57Z</time>
      </trkpt>
      <trkpt lat="36.067595" lon="-5.677734">
        <ele>23.64</ele>
        <time>2015-06-19T15:02:03Z</time>
      </trkpt>
      <trkpt lat="36.067555" lon="-5.677698">
        <ele>23.68</ele>
        <time>2015-06-19T15:02:05Z</time>
      </trkpt>
      <trkpt lat="36.067459" lon="-5.677636">
        <ele>23.62</ele>
        <time>2015-06-19T15:02:09Z</time>
      </trkpt>
      <trkpt lat="36.067333" lon="-5.677509">
        <ele>23.66</ele>
        <time>2015-06-19T15:02:15Z</time>
      </trkpt>
      <trkpt lat="36.067211" lon="-5.677351">
        <ele>23.61</ele>
        <time>2015-06-19T15:02:22Z</time>
      </trkpt>
      <trkpt lat="36.067130" lon="-5.677238">
        <ele>23.61</ele>
        <time>2015-06-19T15:02:28Z</time>
      </trkpt>
      <trkpt lat="36.067049" lon="-5.677122">
        <ele>23.62</ele>
        <time>2015-06-19T15:02:35Z</time>
      </trkpt>
      <trkpt lat="36.066920" lon="-5.676935">
        <ele>23.69</ele>
        <time>2015-06-19T15:02:42Z</time>
      </trkpt>
      <trkpt lat="36.066787" lon="-5.676746">
        <ele>24.05</ele>
        <time>2015-06-19T15:02:48Z</time>
      </trkpt>
      <trkpt lat="36.066764" lon="-5.676715">
        <ele>24.47</ele>
        <time>2015-06-19T15:02:49Z</time>
      </trkpt>
      <trkpt lat="36.066741" lon="-5.676680">
        <ele>24.86</ele>
        <time>2015-06-19T15:02:50Z</time>
      </trkpt>
      <trkpt lat="36.066714" lon="-5.676646">
        <ele>25.27</ele>
        <time>2015-06-19T15:02:51Z</time>
      </trkpt>
      <trkpt lat="36.066688" lon="-5.676612">
        <ele>25.67</ele>
        <time>2015-06-19T15:02:52Z</time>
      </trkpt>
      <trkpt lat="36.066554" lon="-5.676450">
        <ele>25.70</ele>
        <time>2015-06-19T15:02:57Z</time>
      </trkpt>
      <trkpt lat="36.066418" lon="-5.676264">
        <ele>25.61</ele>
        <time>2015-06-19T15:03:03Z</time>
      </trkpt>
      <trkpt lat="36.066331" lon="-5.676146">
        <ele>25.66</ele>
        <time>2015-06-19T15:03:08Z</time>
      </trkpt>
      <trkpt lat="36.066315" lon="-5.676125">
        <ele>25.61</ele>
        <time>2015-06-19T15:03:09Z</time>
      </trkpt>
      <trkpt lat="36.066255" lon="-5.676058">
        <ele>25.61</ele>
        <time>2015-06-19T15:03:13Z</time>
      </trkpt>
      <trkpt lat="36.066239" lon="-5.676048">
        <ele>25.61</ele>
        <time>2015-06-19T15:03:14Z</time>
      </trkpt>
      <trkpt lat="36.066177" lon="-5.676006">
        <ele>25.66</ele>
        <time>2015-06-19T15:03:17Z</time>
      </trkpt>
      <trkpt lat="36.066147" lon="-5.675963">
        <ele>25.66</ele>
        <time>2015-06-19T15:03:19Z</time>
      </trkpt>
      <trkpt lat="36.066019" lon="-5.675802">
        <ele>25.64</ele>
        <time>2015-06-19T15:03:25Z</time>
      </trkpt>
      <trkpt lat="36.065950" lon="-5.675704">
        <ele>25.70</ele>
        <time>2015-06-19T15:03:28Z</time>
      </trkpt>
      <trkpt lat="36.065904" lon="-5.675643">
        <ele>25.62</ele>
        <time>2015-06-19T15:03:30Z</time>
      </trkpt>
      <trkpt lat="36.065876" lon="-5.675630">
        <ele>25.66</ele>
        <time>2015-06-19T15:03:31Z</time>
      </trkpt>
      <trkpt lat="36.065778" lon="-5.675632">
        <ele>25.65</ele>
        <time>2015-06-19T15:03:34Z</time>
      </trkpt>
      <trkpt lat="36.065715" lon="-5.675625">
        <ele>25.64</ele>
        <time>2015-06-19T15:03:36Z</time>
      </trkpt>
      <trkpt lat="36.065694" lon="-5.675599">
        <ele>25.69</ele>
        <time>2015-06-19T15:03:37Z</time>
      </trkpt>
      <trkpt lat="36.065655" lon="-5.675472">
        <ele>25.61</ele>
        <time>2015-06-19T15:03:41Z</time>
      </trkpt>
      <trkpt lat="36.065639" lon="-5.675440">
        <ele>25.61</ele>
        <time>2015-06-19T15:03:42Z</time>
      </trkpt>
      <trkpt lat="36.065556" lon="-5.675349">
        <ele>25.67</ele>
        <time>2015-06-19T15:03:46Z</time>
      </trkpt>
      <trkpt lat="36.065479" lon="-5.675235">
        <ele>25.65</ele>
        <time>2015-06-19T15:03:50Z</time>
      </trkpt>
      <trkpt lat="36.065339" lon="-5.675034">
        <ele>25.65</ele>
        <time>2015-06-19T15:03:57Z</time>
      </trkpt>
      <trkpt lat="36.065257" lon="-5.674917">
        <ele>25.08</ele>
        <time>2015-06-19T15:04:01Z</time>
      </trkpt>
      <trkpt lat="36.065237" lon="-5.674884">
        <ele>24.46</ele>
        <time>2015-06-19T15:04:02Z</time>
      </trkpt>
      <trkpt lat="36.065222" lon="-5.674851">
        <ele>23.90</ele>
        <time>2015-06-19T15:04:03Z</time>
      </trkpt>
      <trkpt lat="36.065206" lon="-5.674821">
        <ele>24.09</ele>
        <time>2015-06-19T15:04:04Z</time>
      </trkpt>
      <trkpt lat="36.065188" lon="-5.674793">
        <ele>24.46</ele>
        <time>2015-06-19T15:04:05Z</time>
      </trkpt>
      <trkpt lat="36.065166" lon="-5.674764">
        <ele>24.69</ele>
        <time>2015-06-19T15:04:06Z</time>
      </trkpt>
      <trkpt lat="36.065143" lon="-5.674738">
        <ele>25.02</ele>
        <time>2015-06-19T15:04:07Z</time>
      </trkpt>
      <trkpt lat="36.065117" lon="-5.674713">
        <ele>25.23</ele>
        <time>2015-06-19T15:04:08Z</time>
      </trkpt>
      <trkpt lat="36.065089" lon="-5.674691">
        <ele>25.21</ele>
        <time>2015-06-19T15:04:09Z</time>
      </trkpt>
      <trkpt lat="36.064963" lon="-5.674604">
        <ele>25.25</ele>
        <time>2015-06-19T15:04:14Z</time>
      </trkpt>
      <trkpt lat="36.064864" lon="-5.674487">
        <ele>25.27</ele>
        <time>2015-06-19T15:04:20Z</time>
      </trkpt>
      <trkpt lat="36.064777" lon="-5.674428">
        <ele>24.88</ele>
        <time>2015-06-19T15:04:23Z</time>
      </trkpt>
      <trkpt lat="36.064750" lon="-5.674409">
        <ele>24.50</ele>
        <time>2015-06-19T15:04:24Z</time>
      </trkpt>
      <trkpt lat="36.064728" lon="-5.674388">
        <ele>24.06</ele>
        <time>2015-06-19T15:04:25Z</time>
      </trkpt>
      <trkpt lat="36.064708" lon="-5.674367">
        <ele>23.63</ele>
        <time>2015-06-19T15:04:26Z</time>
      </trkpt>
      <trkpt lat="36.064688" lon="-5.674347">
        <ele>23.24</ele>
        <time>2015-06-19T15:04:27Z</time>
      </trkpt>
      <trkpt lat="36.064573" lon="-5.674223">
        <ele>23.25</ele>
        <time>2015-06-19T15:04:32Z</time>
      </trkpt>
      <trkpt lat="36.064430" lon="-5.674059">
        <ele>23.29</ele>
        <time>2015-06-19T15:04:38Z</time>
      </trkpt>
      <trkpt lat="36.064312" lon="-5.673959">
        <ele>23.27</ele>
        <time>2015-06-19T15:04:43Z</time>
      </trkpt>
      <trkpt lat="36.064255" lon="-5.673841">
        <ele>23.22</ele>
        <time>2015-06-19T15:04:48Z</time>
      </trkpt>
      <trkpt lat="36.064136" lon="-5.673739">
        <ele>23.21</ele>
        <time>2015-06-19T15:04:54Z</time>
      </trkpt>
      <trkpt lat="36.064053" lon="-5.673602">
        <ele>23.27</ele>
        <time>2015-06-19T15:05:00Z</time>
      </trkpt>
      <trkpt lat="36.063973" lon="-5.673476">
        <ele>23.27</ele>
        <time>2015-06-19T15:05:05Z</time>
      </trkpt>
      <trkpt lat="36.063864" lon="-5.673336">
        <ele>23.27</ele>
        <time>2015-06-19T15:05:11Z</time>
      </trkpt>
      <trkpt lat="36.063768" lon="-5.673171">
        <ele>23.23</ele>
        <time>2015-06-19T15:05:17Z</time>
      </trkpt>
      <trkpt lat="36.063704" lon="-5.672975">
        <ele>23.23</ele>
        <time>2015-06-19T15:05:24Z</time>
      </trkpt>
      <trkpt lat="36.063591" lon="-5.672831">
        <ele>23.27</ele>
        <time>2015-06-19T15:05:31Z</time>
      </trkpt>
      <trkpt lat="36.063438" lon="-5.672724">
        <ele>23.27</ele>
        <time>2015-06-19T15:05:37Z</time>
      </trkpt>
      <trkpt lat="36.063292" lon="-5.672720">
        <ele>23.25</ele>
        <time>2015-06-19T15:05:43Z</time>
      </trkpt>
      <trkpt lat="36.063273" lon="-5.672729">
        <ele>23.23</ele>
        <time>2015-06-19T15:05:44Z</time>
      </trkpt>
      <trkpt lat="36.063205" lon="-5.672809">
        <ele>23.22</ele>
        <time>2015-06-19T15:05:47Z</time>
      </trkpt>
      <trkpt lat="36.063116" lon="-5.672865">
        <ele>23.22</ele>
        <time>2015-06-19T15:05:50Z</time>
      </trkpt>
      <trkpt lat="36.063084" lon="-5.672857">
        <ele>23.21</ele>
        <time>2015-06-19T15:05:51Z</time>
      </trkpt>
      <trkpt lat="36.063013" lon="-5.672775">
        <ele>23.27</ele>
        <time>2015-06-19T15:05:54Z</time>
      </trkpt>
      <trkpt lat="36.062993" lon="-5.672743">
        <ele>23.27</ele>
        <time>2015-06-19T15:05:55Z</time>
      </trkpt>
      <trkpt lat="36.062820" lon="-5.672535">
        <ele>23.24</ele>
        <time>2015-06-19T15:06:02Z</time>
      </trkpt>
      <trkpt lat="36.062789" lon="-5.672528">
        <ele>23.25</ele>
        <time>2015-06-19T15:06:03Z</time>
      </trkpt>
      <trkpt lat="36.062677" lon="-5.672455">
        <ele>23.27</ele>
        <time>2015-06-19T15:06:07Z</time>
      </trkpt>
      <trkpt lat="36.062628" lon="-5.672388">
        <ele>23.28</ele>
        <time>2015-06-19T15:06:09Z</time>
      </trkpt>
      <trkpt lat="36.062522" lon="-5.672257">
        <ele>23.28</ele>
        <time>2015-06-19T15:06:13Z</time>
      </trkpt>
      <trkpt lat="36.062471" lon="-5.672193">
        <ele>23.82</ele>
        <time>2015-06-19T15:06:15Z</time>
      </trkpt>
      <trkpt lat="36.062449" lon="-5.672160">
        <ele>24.43</ele>
        <time>2015-06-19T15:06:16Z</time>
      </trkpt>
      <trkpt lat="36.062426" lon="-5.672127">
        <ele>25.05</ele>
        <time>2015-06-19T15:06:17Z</time>
      </trkpt>
      <trkpt lat="36.062402" lon="-5.672097">
        <ele>25.61</ele>
        <time>2015-06-19T15:06:18Z</time>
      </trkpt>
      <trkpt lat="36.062378" lon="-5.672065">
        <ele>26.41</ele>
        <time>2015-06-19T15:06:19Z</time>
      </trkpt>
      <trkpt lat="36.062355" lon="-5.672030">
        <ele>26.41</ele>
        <time>2015-06-19T15:06:20Z</time>
      </trkpt>
      <trkpt lat="36.062154" lon="-5.671753">
        <ele>26.50</ele>
        <time>2015-06-19T15:06:28Z</time>
      </trkpt>
      <trkpt lat="36.061969" lon="-5.671510">
        <ele>26.48</ele>
        <time>2015-06-19T15:06:35Z</time>
      </trkpt>
      <trkpt lat="36.061740" lon="-5.671202">
        <ele>26.43</ele>
        <time>2015-06-19T15:06:44Z</time>
      </trkpt>
      <trkpt lat="36.061535" lon="-5.670930">
        <ele>26.49</ele>
        <time>2015-06-19T15:06:52Z</time>
      </trkpt>
      <trkpt lat="36.061274" lon="-5.670535">
        <ele>26.47</ele>
        <time>2015-06-19T15:07:03Z</time>
      </trkpt>
      <trkpt lat="36.061210" lon="-5.670432">
        <ele>26.82</ele>
        <time>2015-06-19T15:07:06Z</time>
      </trkpt>
      <trkpt lat="36.061187" lon="-5.670396">
        <ele>27.29</ele>
        <time>2015-06-19T15:07:07Z</time>
      </trkpt>
      <trkpt lat="36.061163" lon="-5.670358">
        <ele>27.63</ele>
        <time>2015-06-19T15:07:08Z</time>
      </trkpt>
      <trkpt lat="36.061140" lon="-5.670320">
        <ele>28.09</ele>
        <time>2015-06-19T15:07:09Z</time>
      </trkpt>
      <trkpt lat="36.061118" lon="-5.670281">
        <ele>28.42</ele>
        <time>2015-06-19T15:07:10Z</time>
      </trkpt>
      <trkpt lat="36.061095" lon="-5.670242">
        <ele>28.41</ele>
        <time>2015-06-19T15:07:11Z</time>
      </trkpt>
      <trkpt lat="36.060914" lon="-5.669927">
        <ele>28.45</ele>
        <time>2015-06-19T15:07:19Z</time>
      </trkpt>
      <trkpt lat="36.060848" lon="-5.669818">
        <ele>28.07</ele>
        <time>2015-06-19T15:07:22Z</time>
      </trkpt>
      <trkpt lat="36.060829" lon="-5.669780">
        <ele>27.64</ele>
        <time>2015-06-19T15:07:23Z</time>
      </trkpt>
      <trkpt lat="36.060809" lon="-5.669741">
        <ele>27.24</ele>
        <time>2015-06-19T15:07:24Z</time>
      </trkpt>
      <trkpt lat="36.060787" lon="-5.669706">
        <ele>26.89</ele>
        <time>2015-06-19T15:07:25Z</time>
      </trkpt>
      <trkpt lat="36.060766" lon="-5.669673">
        <ele>26.23</ele>
        <time>2015-06-19T15:07:26Z</time>
      </trkpt>
      <trkpt lat="36.060597" lon="-5.669375">
        <ele>26.26</ele>
        <time>2015-06-19T15:07:34Z</time>
      </trkpt>
      <trkpt lat="36.060424" lon="-5.669074">
        <ele>26.25</ele>
        <time>2015-06-19T15:07:42Z</time>
      </trkpt>
      <trkpt lat="36.060257" lon="-5.668774">
        <ele>26.23</ele>
        <time>2015-06-19T15:07:50Z</time>
      </trkpt>
      <trkpt lat="36.060200" lon="-5.668633">
        <ele>26.20</ele>
        <time>2015-06-19T15:07:54Z</time>
      </trkpt>
      <trkpt lat="36.060164" lon="-5.668577">
        <ele>23.82</ele>
        <time>2015-06-19T15:24:18Z</time>
      </trkpt>
      <trkpt lat="36.060105" lon="-5.668556">
        <ele>23.81</ele>
        <time>2015-06-19T15:24:20Z</time>
      </trkpt>
      <trkpt lat="36.060082" lon="-5.668523">
        <ele>23.87</ele>
        <time>2015-06-19T15:24:21Z</time>
      </trkpt>
      <trkpt lat="36.060036" lon="-5.668428">
        <ele>23.86</ele>
        <time>2015-06-19T15:24:24Z</time>
      </trkpt>
      <trkpt lat="36.059981" lon="-5.668337">
        <ele>23.86</ele>
        <time>2015-06-19T15:24:27Z</time>
      </trkpt>
      <trkpt lat="36.059847" lon="-5.668090">
        <ele>23.88</ele>
        <time>2015-06-19T15:24:35Z</time>
      </trkpt>
      <trkpt lat="36.059681" lon="-5.667810">
        <ele>23.84</ele>
        <time>2015-06-19T15:24:43Z</time>
      </trkpt>
      <trkpt lat="36.059502" lon="-5.667487">
        <ele>23.88</ele>
        <time>2015-06-19T15:24:52Z</time>
      </trkpt>
      <trkpt lat="36.059353" lon="-5.667218">
        <ele>23.88</ele>
        <time>2015-06-19T15:25:00Z</time>
      </trkpt>
      <trkpt lat="36.059215" lon="-5.666982">
        <ele>23.86</ele>
        <time>2015-06-19T15:25:07Z</time>
      </trkpt>
      <trkpt lat="36.059176" lon="-5.666915">
        <ele>23.24</ele>
        <time>2015-06-19T15:25:09Z</time>
      </trkpt>
      <trkpt lat="36.059157" lon="-5.666880">
        <ele>22.61</ele>
        <time>2015-06-19T15:25:10Z</time>
      </trkpt>
      <trkpt lat="36.059137" lon="-5.666844">
        <ele>22.82</ele>
        <time>2015-06-19T15:25:11Z</time>
      </trkpt>
      <trkpt lat="36.059118" lon="-5.666811">
        <ele>22.81</ele>
        <time>2015-06-19T15:25:12Z</time>
      </trkpt>
      <trkpt lat="36.059096" lon="-5.666778">
        <ele>22.89</ele>
        <time>2015-06-19T15:25:13Z</time>
      </trkpt>
      <trkpt lat="36.059074" lon="-5.666744">
        <ele>23.07</ele>
        <time>2015-06-19T15:25:14Z</time>
      </trkpt>
      <trkpt lat="36.059051" lon="-5.666710">
        <ele>23.09</ele>
        <time>2015-06-19T15:25:15Z</time>
      </trkpt>
      <trkpt lat="36.059033" lon="-5.666675">
        <ele>23.09</ele>
        <time>2015-06-19T15:25:16Z</time>
      </trkpt>
      <trkpt lat="36.058872" lon="-5.666392">
        <ele>23.10</ele>
        <time>2015-06-19T15:25:24Z</time>
      </trkpt>
      <trkpt lat="36.058658" lon="-5.666020">
        <ele>23.05</ele>
        <time>2015-06-19T15:25:33Z</time>
      </trkpt>
      <trkpt lat="36.058476" lon="-5.665678">
        <ele>23.09</ele>
        <time>2015-06-19T15:25:41Z</time>
      </trkpt>
      <trkpt lat="36.058300" lon="-5.665383">
        <ele>23.04</ele>
        <time>2015-06-19T15:25:49Z</time>
      </trkpt>
      <trkpt lat="36.058088" lon="-5.665038">
        <ele>23.09</ele>
        <time>2015-06-19T15:25:59Z</time>
      </trkpt>
      <trkpt lat="36.057942" lon="-5.664765">
        <ele>23.05</ele>
        <time>2015-06-19T15:26:06Z</time>
      </trkpt>
      <trkpt lat="36.057748" lon="-5.664422">
        <ele>23.02</ele>
        <time>2015-06-19T15:26:15Z</time>
      </trkpt>
      <trkpt lat="36.057613" lon="-5.664192">
        <ele>23.01</ele>
        <time>2015-06-19T15:26:21Z</time>
      </trkpt>
      <trkpt lat="36.057426" lon="-5.663831">
        <ele>23.03</ele>
        <time>2015-06-19T15:26:30Z</time>
      </trkpt>
      <trkpt lat="36.057276" lon="-5.663484">
        <ele>23.07</ele>
        <time>2015-06-19T15:26:38Z</time>
      </trkpt>
      <trkpt lat="36.057167" lon="-5.663226">
        <ele>23.02</ele>
        <time>2015-06-19T15:26:44Z</time>
      </trkpt>
      <trkpt lat="36.057039" lon="-5.662830">
        <ele>23.02</ele>
        <time>2015-06-19T15:26:53Z</time>
      </trkpt>
      <trkpt lat="36.056949" lon="-5.662433">
        <ele>23.04</ele>
        <time>2015-06-19T15:27:01Z</time>
      </trkpt>
      <trkpt lat="36.056851" lon="-5.661958">
        <ele>23.09</ele>
        <time>2015-06-19T15:27:10Z</time>
      </trkpt>
      <trkpt lat="36.056760" lon="-5.661532">
        <ele>23.07</ele>
        <time>2015-06-19T15:27:18Z</time>
      </trkpt>
      <trkpt lat="36.056753" lon="-5.661480">
        <ele>23.06</ele>
        <time>2015-06-19T15:27:19Z</time>
      </trkpt>
      <trkpt lat="36.056693" lon="-5.661160">
        <ele>23.06</ele>
        <time>2015-06-19T15:27:25Z</time>
      </trkpt>
      <trkpt lat="36.056616" lon="-5.660773">
        <ele>23.00</ele>
        <time>2015-06-19T15:27:32Z</time>
      </trkpt>
      <trkpt lat="36.056606" lon="-5.660716">
        <ele>23.02</ele>
        <time>2015-06-19T15:27:33Z</time>
      </trkpt>
      <trkpt lat="36.056514" lon="-5.660223">
        <ele>23.01</ele>
        <time>2015-06-19T15:27:42Z</time>
      </trkpt>
      <trkpt lat="36.056496" lon="-5.659896">
        <ele>23.04</ele>
        <time>2015-06-19T15:27:48Z</time>
      </trkpt>
      <trkpt lat="36.056494" lon="-5.659843">
        <ele>23.02</ele>
        <time>2015-06-19T15:27:49Z</time>
      </trkpt>
      <trkpt lat="36.056470" lon="-5.659401">
        <ele>23.02</ele>
        <time>2015-06-19T15:27:57Z</time>
      </trkpt>
      <trkpt lat="36.056445" lon="-5.659040">
        <ele>23.07</ele>
        <time>2015-06-19T15:28:04Z</time>
      </trkpt>
      <trkpt lat="36.056432" lon="-5.658715">
        <ele>23.02</ele>
        <time>2015-06-19T15:28:11Z</time>
      </trkpt>
      <trkpt lat="36.056424" lon="-5.658425">
        <ele>23.07</ele>
        <time>2015-06-19T15:28:18Z</time>
      </trkpt>
      <trkpt lat="36.056424" lon="-5.658075">
        <ele>23.09</ele>
        <time>2015-06-19T15:28:27Z</time>
      </trkpt>
      <trkpt lat="36.056421" lon="-5.658034">
        <ele>23.03</ele>
        <time>2015-06-19T15:28:28Z</time>
      </trkpt>
      <trkpt lat="36.056390" lon="-5.657760">
        <ele>23.04</ele>
        <time>2015-06-19T15:28:35Z</time>
      </trkpt>
      <trkpt lat="36.056410" lon="-5.657490">
        <ele>23.06</ele>
        <time>2015-06-19T15:28:42Z</time>
      </trkpt>
      <trkpt lat="36.056408" lon="-5.657195">
        <ele>23.01</ele>
        <time>2015-06-19T15:28:49Z</time>
      </trkpt>
      <trkpt lat="36.056395" lon="-5.656764">
        <ele>23.01</ele>
        <time>2015-06-19T15:28:59Z</time>
      </trkpt>
      <trkpt lat="36.056381" lon="-5.656340">
        <ele>23.09</ele>
        <time>2015-06-19T15:29:08Z</time>
      </trkpt>
      <trkpt lat="36.056362" lon="-5.655851">
        <ele>23.01</ele>
        <time>2015-06-19T15:29:18Z</time>
      </trkpt>
      <trkpt lat="36.056345" lon="-5.655434">
        <ele>23.07</ele>
        <time>2015-06-19T15:29:26Z</time>
      </trkpt>
      <trkpt lat="36.056344" lon="-5.655331">
        <ele>23.04</ele>
        <time>2015-06-19T15:29:28Z</time>
      </trkpt>
      <trkpt lat="36.056341" lon="-5.655069">
        <ele>23.06</ele>
        <time>2015-06-19T15:29:33Z</time>
      </trkpt>
      <trkpt lat="36.056333" lon="-5.654700">
        <ele>23.02</ele>
        <time>2015-06-19T15:29:40Z</time>
      </trkpt>
      <trkpt lat="36.056331" lon="-5.654596">
        <ele>23.07</ele>
        <time>2015-06-19T15:29:42Z</time>
      </trkpt>
      <trkpt lat="36.056323" lon="-5.654137">
        <ele>23.09</ele>
        <time>2015-06-19T15:29:51Z</time>
      </trkpt>
      <trkpt lat="36.056319" lon="-5.654089">
        <ele>23.09</ele>
        <time>2015-06-19T15:29:52Z</time>
      </trkpt>
      <trkpt lat="36.056308" lon="-5.653828">
        <ele>23.05</ele>
        <time>2015-06-19T15:29:57Z</time>
      </trkpt>
      <trkpt lat="36.056304" lon="-5.653721">
        <ele>22.62</ele>
        <time>2015-06-19T15:29:59Z</time>
      </trkpt>
      <trkpt lat="36.056302" lon="-5.653669">
        <ele>22.01</ele>
        <time>2015-06-19T15:30:00Z</time>
      </trkpt>
      <trkpt lat="36.056303" lon="-5.653619">
        <ele>21.63</ele>
        <time>2015-06-19T15:30:01Z</time>
      </trkpt>
      <trkpt lat="36.056300" lon="-5.653565">
        <ele>21.27</ele>
        <time>2015-06-19T15:30:02Z</time>
      </trkpt>
      <trkpt lat="36.056297" lon="-5.653509">
        <ele>20.84</ele>
        <time>2015-06-19T15:30:03Z</time>
      </trkpt>
      <trkpt lat="36.056293" lon="-5.653394">
        <ele>20.88</ele>
        <time>2015-06-19T15:30:05Z</time>
      </trkpt>
      <trkpt lat="36.056287" lon="-5.653136">
        <ele>20.85</ele>
        <time>2015-06-19T15:30:10Z</time>
      </trkpt>
      <trkpt lat="36.056281" lon="-5.652992">
        <ele>20.90</ele>
        <time>2015-06-19T15:30:13Z</time>
      </trkpt>
      <trkpt lat="36.056232" lon="-5.652610">
        <ele>20.87</ele>
        <time>2015-06-19T15:30:21Z</time>
      </trkpt>
      <trkpt lat="36.056224" lon="-5.652464">
        <ele>20.82</ele>
        <time>2015-06-19T15:30:24Z</time>
      </trkpt>
      <trkpt lat="36.056192" lon="-5.652270">
        <ele>20.88</ele>
        <time>2015-06-19T15:30:28Z</time>
      </trkpt>
      <trkpt lat="36.056110" lon="-5.651887">
        <ele>20.89</ele>
        <time>2015-06-19T15:30:36Z</time>
      </trkpt>
      <trkpt lat="36.056004" lon="-5.651564">
        <ele>20.82</ele>
        <time>2015-06-19T15:30:43Z</time>
      </trkpt>
      <trkpt lat="36.055963" lon="-5.651474">
        <ele>20.81</ele>
        <time>2015-06-19T15:30:45Z</time>
      </trkpt>
      <trkpt lat="36.055946" lon="-5.651427">
        <ele>20.88</ele>
        <time>2015-06-19T15:30:46Z</time>
      </trkpt>
      <trkpt lat="36.055836" lon="-5.651205">
        <ele>20.86</ele>
        <time>2015-06-19T15:30:51Z</time>
      </trkpt>
      <trkpt lat="36.055705" lon="-5.650983">
        <ele>20.46</ele>
        <time>2015-06-19T15:30:56Z</time>
      </trkpt>
      <trkpt lat="36.055681" lon="-5.650938">
        <ele>20.06</ele>
        <time>2015-06-19T15:30:57Z</time>
      </trkpt>
      <trkpt lat="36.055654" lon="-5.650896">
        <ele>19.68</ele>
        <time>2015-06-19T15:30:58Z</time>
      </trkpt>
      <trkpt lat="36.055627" lon="-5.650854">
        <ele>19.22</ele>
        <time>2015-06-19T15:30:59Z</time>
      </trkpt>
      <trkpt lat="36.055601" lon="-5.650807">
        <ele>18.83</ele>
        <time>2015-06-19T15:31:00Z</time>
      </trkpt>
      <trkpt lat="36.055364" lon="-5.650437">
        <ele>18.82</ele>
        <time>2015-06-19T15:31:08Z</time>
      </trkpt>
      <trkpt lat="36.055098" lon="-5.650024">
        <ele>18.81</ele>
        <time>2015-06-19T15:31:17Z</time>
      </trkpt>
      <trkpt lat="36.055066" lon="-5.649981">
        <ele>18.82</ele>
        <time>2015-06-19T15:31:18Z</time>
      </trkpt>
      <trkpt lat="36.054951" lon="-5.649797">
        <ele>18.80</ele>
        <time>2015-06-19T15:31:22Z</time>
      </trkpt>
      <trkpt lat="36.054887" lon="-5.649702">
        <ele>18.81</ele>
        <time>2015-06-19T15:31:24Z</time>
      </trkpt>
      <trkpt lat="36.054616" lon="-5.649268">
        <ele>18.86</ele>
        <time>2015-06-19T15:31:33Z</time>
      </trkpt>
      <trkpt lat="36.054441" lon="-5.649000">
        <ele>18.84</ele>
        <time>2015-06-19T15:31:40Z</time>
      </trkpt>
      <trkpt lat="36.054281" lon="-5.648768">
        <ele>18.84</ele>
        <time>2015-06-19T15:31:46Z</time>
      </trkpt>
      <trkpt lat="36.054069" lon="-5.648422">
        <ele>18.81</ele>
        <time>2015-06-19T15:31:54Z</time>
      </trkpt>
      <trkpt lat="36.054018" lon="-5.648339">
        <ele>18.82</ele>
        <time>2015-06-19T15:31:56Z</time>
      </trkpt>
      <trkpt lat="36.053909" lon="-5.648169">
        <ele>18.86</ele>
        <time>2015-06-19T15:32:00Z</time>
      </trkpt>
      <trkpt lat="36.053672" lon="-5.647795">
        <ele>18.85</ele>
        <time>2015-06-19T15:32:09Z</time>
      </trkpt>
      <trkpt lat="36.053423" lon="-5.647396">
        <ele>18.87</ele>
        <time>2015-06-19T15:32:19Z</time>
      </trkpt>
      <trkpt lat="36.053231" lon="-5.647099">
        <ele>18.86</ele>
        <time>2015-06-19T15:32:27Z</time>
      </trkpt>
      <trkpt lat="36.053150" lon="-5.646982">
        <ele>18.81</ele>
        <time>2015-06-19T15:32:30Z</time>
      </trkpt>
      <trkpt lat="36.053045" lon="-5.646815">
        <ele>18.82</ele>
        <time>2015-06-19T15:32:34Z</time>
      </trkpt>
      <trkpt lat="36.052806" lon="-5.646423">
        <ele>18.81</ele>
        <time>2015-06-19T15:32:43Z</time>
      </trkpt>
      <trkpt lat="36.052647" lon="-5.646174">
        <ele>18.90</ele>
        <time>2015-06-19T15:32:49Z</time>
      </trkpt>
      <trkpt lat="36.052568" lon="-5.646052">
        <ele>18.85</ele>
        <time>2015-06-19T15:32:52Z</time>
      </trkpt>
      <trkpt lat="36.052359" lon="-5.645714">
        <ele>18.84</ele>
        <time>2015-06-19T15:33:00Z</time>
      </trkpt>
      <trkpt lat="36.052113" lon="-5.645327">
        <ele>18.86</ele>
        <time>2015-06-19T15:33:09Z</time>
      </trkpt>
      <trkpt lat="36.051889" lon="-5.644983">
        <ele>18.89</ele>
        <time>2015-06-19T15:33:17Z</time>
      </trkpt>
      <trkpt lat="36.051580" lon="-5.644494">
        <ele>18.81</ele>
        <time>2015-06-19T15:33:28Z</time>
      </trkpt>
      <trkpt lat="36.051345" lon="-5.644114">
        <ele>18.84</ele>
        <time>2015-06-19T15:33:37Z</time>
      </trkpt>
      <trkpt lat="36.051134" lon="-5.643801">
        <ele>18.84</ele>
        <time>2015-06-19T15:33:44Z</time>
      </trkpt>
      <trkpt lat="36.051035" lon="-5.643625">
        <ele>18.27</ele>
        <time>2015-06-19T15:33:48Z</time>
      </trkpt>
      <trkpt lat="36.051012" lon="-5.643590">
        <ele>17.81</ele>
        <time>2015-06-19T15:33:49Z</time>
      </trkpt>
      <trkpt lat="36.050986" lon="-5.643560">
        <ele>17.41</ele>
        <time>2015-06-19T15:33:50Z</time>
      </trkpt>
      <trkpt lat="36.050962" lon="-5.643529">
        <ele>17.01</ele>
        <time>2015-06-19T15:33:51Z</time>
      </trkpt>
      <trkpt lat="36.050939" lon="-5.643492">
        <ele>16.62</ele>
        <time>2015-06-19T15:33:52Z</time>
      </trkpt>
      <trkpt lat="36.050819" lon="-5.643292">
        <ele>16.63</ele>
        <time>2015-06-19T15:33:57Z</time>
      </trkpt>
      <trkpt lat="36.050734" lon="-5.643173">
        <ele>16.67</ele>
        <time>2015-06-19T15:34:00Z</time>
      </trkpt>
      <trkpt lat="36.050598" lon="-5.642960">
        <ele>16.64</ele>
        <time>2015-06-19T15:34:05Z</time>
      </trkpt>
      <trkpt lat="36.050340" lon="-5.642549">
        <ele>16.63</ele>
        <time>2015-06-19T15:34:14Z</time>
      </trkpt>
      <trkpt lat="36.050049" lon="-5.642085">
        <ele>16.28</ele>
        <time>2015-06-19T15:34:24Z</time>
      </trkpt>
      <trkpt lat="36.050018" lon="-5.642038">
        <ele>15.70</ele>
        <time>2015-06-19T15:34:25Z</time>
      </trkpt>
      <trkpt lat="36.049989" lon="-5.641989">
        <ele>15.25</ele>
        <time>2015-06-19T15:34:26Z</time>
      </trkpt>
      <trkpt lat="36.049961" lon="-5.641940">
        <ele>14.82</ele>
        <time>2015-06-19T15:34:27Z</time>
      </trkpt>
      <trkpt lat="36.049931" lon="-5.641891">
        <ele>14.47</ele>
        <time>2015-06-19T15:34:28Z</time>
      </trkpt>
      <trkpt lat="36.049743" lon="-5.641600">
        <ele>14.41</ele>
        <time>2015-06-19T15:34:34Z</time>
      </trkpt>
      <trkpt lat="36.049610" lon="-5.641377">
        <ele>14.41</ele>
        <time>2015-06-19T15:34:39Z</time>
      </trkpt>
      <trkpt lat="36.049558" lon="-5.641298">
        <ele>14.44</ele>
        <time>2015-06-19T15:34:41Z</time>
      </trkpt>
      <trkpt lat="36.049337" lon="-5.640994">
        <ele>14.44</ele>
        <time>2015-06-19T15:34:49Z</time>
      </trkpt>
      <trkpt lat="36.049152" lon="-5.640733">
        <ele>14.46</ele>
        <time>2015-06-19T15:34:56Z</time>
      </trkpt>
      <trkpt lat="36.049043" lon="-5.640558">
        <ele>14.03</ele>
        <time>2015-06-19T15:35:01Z</time>
      </trkpt>
      <trkpt lat="36.049018" lon="-5.640522">
        <ele>13.66</ele>
        <time>2015-06-19T15:35:02Z</time>
      </trkpt>
      <trkpt lat="36.048996" lon="-5.640486">
        <ele>13.26</ele>
        <time>2015-06-19T15:35:03Z</time>
      </trkpt>
      <trkpt lat="36.048982" lon="-5.640449">
        <ele>12.64</ele>
        <time>2015-06-19T15:35:04Z</time>
      </trkpt>
      <trkpt lat="36.048960" lon="-5.640416">
        <ele>12.28</ele>
        <time>2015-06-19T15:35:05Z</time>
      </trkpt>
      <trkpt lat="36.048852" lon="-5.640190">
        <ele>12.30</ele>
        <time>2015-06-19T15:35:11Z</time>
      </trkpt>
      <trkpt lat="36.048737" lon="-5.640021">
        <ele>12.22</ele>
        <time>2015-06-19T15:35:16Z</time>
      </trkpt>
      <trkpt lat="36.048582" lon="-5.639778">
        <ele>12.23</ele>
        <time>2015-06-19T15:35:23Z</time>
      </trkpt>
      <trkpt lat="36.048563" lon="-5.639745">
        <ele>12.21</ele>
        <time>2015-06-19T15:35:24Z</time>
      </trkpt>
      <trkpt lat="36.048339" lon="-5.639411">
        <ele>12.24</ele>
        <time>2015-06-19T15:35:34Z</time>
      </trkpt>
      <trkpt lat="36.048154" lon="-5.639122">
        <ele>12.22</ele>
        <time>2015-06-19T15:35:43Z</time>
      </trkpt>
      <trkpt lat="36.047984" lon="-5.638843">
        <ele>12.24</ele>
        <time>2015-06-19T15:35:51Z</time>
      </trkpt>
      <trkpt lat="36.047815" lon="-5.638569">
        <ele>12.22</ele>
        <time>2015-06-19T15:35:59Z</time>
      </trkpt>
      <trkpt lat="36.047613" lon="-5.638244">
        <ele>12.26</ele>
        <time>2015-06-19T15:36:08Z</time>
      </trkpt>
      <trkpt lat="36.047416" lon="-5.637939">
        <ele>12.30</ele>
        <time>2015-06-19T15:36:17Z</time>
      </trkpt>
      <trkpt lat="36.047248" lon="-5.637685">
        <ele>12.25</ele>
        <time>2015-06-19T15:36:25Z</time>
      </trkpt>
      <trkpt lat="36.047015" lon="-5.637309">
        <ele>12.27</ele>
        <time>2015-06-19T15:36:36Z</time>
      </trkpt>
      <trkpt lat="36.046806" lon="-5.636999">
        <ele>12.28</ele>
        <time>2015-06-19T15:36:45Z</time>
      </trkpt>
      <trkpt lat="36.046644" lon="-5.636739">
        <ele>12.23</ele>
        <time>2015-06-19T15:36:53Z</time>
      </trkpt>
      <trkpt lat="36.046627" lon="-5.636711">
        <ele>12.23</ele>
        <time>2015-06-19T15:36:54Z</time>
      </trkpt>
      <trkpt lat="36.046485" lon="-5.636490">
        <ele>12.21</ele>
        <time>2015-06-19T15:37:02Z</time>
      </trkpt>
      <trkpt lat="36.046322" lon="-5.636237">
        <ele>12.30</ele>
        <time>2015-06-19T15:37:11Z</time>
      </trkpt>
      <trkpt lat="36.046148" lon="-5.635963">
        <ele>12.24</ele>
        <time>2015-06-19T15:37:20Z</time>
      </trkpt>
      <trkpt lat="36.045987" lon="-5.635713">
        <ele>12.26</ele>
        <time>2015-06-19T15:37:28Z</time>
      </trkpt>
      <trkpt lat="36.045818" lon="-5.635443">
        <ele>12.25</ele>
        <time>2015-06-19T15:37:37Z</time>
      </trkpt>
      <trkpt lat="36.045675" lon="-5.635219">
        <ele>12.21</ele>
        <time>2015-06-19T15:37:44Z</time>
      </trkpt>
      <trkpt lat="36.045500" lon="-5.634955">
        <ele>12.25</ele>
        <time>2015-06-19T15:37:53Z</time>
      </trkpt>
      <trkpt lat="36.045346" lon="-5.634700">
        <ele>12.24</ele>
        <time>2015-06-19T15:38:02Z</time>
      </trkpt>
      <trkpt lat="36.045164" lon="-5.634380">
        <ele>12.29</ele>
        <time>2015-06-19T15:38:13Z</time>
      </trkpt>
      <trkpt lat="36.045095" lon="-5.634269">
        <ele>12.65</ele>
        <time>2015-06-19T15:38:17Z</time>
      </trkpt>
      <trkpt lat="36.045081" lon="-5.634242">
        <ele>13.26</ele>
        <time>2015-06-19T15:38:18Z</time>
      </trkpt>
      <trkpt lat="36.045067" lon="-5.634212">
        <ele>13.61</ele>
        <time>2015-06-19T15:38:19Z</time>
      </trkpt>
      <trkpt lat="36.045053" lon="-5.634185">
        <ele>14.01</ele>
        <time>2015-06-19T15:38:20Z</time>
      </trkpt>
      <trkpt lat="36.045038" lon="-5.634157">
        <ele>14.42</ele>
        <time>2015-06-19T15:38:21Z</time>
      </trkpt>
      <trkpt lat="36.044912" lon="-5.633879">
        <ele>14.44</ele>
        <time>2015-06-19T15:38:30Z</time>
      </trkpt>
      <trkpt lat="36.044815" lon="-5.633615">
        <ele>14.47</ele>
        <time>2015-06-19T15:38:38Z</time>
      </trkpt>
      <trkpt lat="36.044699" lon="-5.633333">
        <ele>14.44</ele>
        <time>2015-06-19T15:38:46Z</time>
      </trkpt>
      <trkpt lat="36.044580" lon="-5.633004">
        <ele>14.48</ele>
        <time>2015-06-19T15:38:54Z</time>
      </trkpt>
      <trkpt lat="36.044462" lon="-5.632692">
        <ele>14.83</ele>
        <time>2015-06-19T15:39:02Z</time>
      </trkpt>
      <trkpt lat="36.044449" lon="-5.632652">
        <ele>15.23</ele>
        <time>2015-06-19T15:39:03Z</time>
      </trkpt>
      <trkpt lat="36.044433" lon="-5.632613">
        <ele>15.68</ele>
        <time>2015-06-19T15:39:04Z</time>
      </trkpt>
      <trkpt lat="36.044419" lon="-5.632574">
        <ele>16.03</ele>
        <time>2015-06-19T15:39:05Z</time>
      </trkpt>
      <trkpt lat="36.044404" lon="-5.632534">
        <ele>16.46</ele>
        <time>2015-06-19T15:39:06Z</time>
      </trkpt>
      <trkpt lat="36.044349" lon="-5.632389">
        <ele>16.41</ele>
        <time>2015-06-19T15:39:10Z</time>
      </trkpt>
      <trkpt lat="36.044226" lon="-5.632056">
        <ele>16.41</ele>
        <time>2015-06-19T15:39:19Z</time>
      </trkpt>
      <trkpt lat="36.044113" lon="-5.631741">
        <ele>16.49</ele>
        <time>2015-06-19T15:39:27Z</time>
      </trkpt>
      <trkpt lat="36.043990" lon="-5.631428">
        <ele>16.49</ele>
        <time>2015-06-19T15:39:35Z</time>
      </trkpt>
      <trkpt lat="36.043847" lon="-5.631042">
        <ele>16.48</ele>
        <time>2015-06-19T15:39:44Z</time>
      </trkpt>
      <trkpt lat="36.043777" lon="-5.630826">
        <ele>16.03</ele>
        <time>2015-06-19T15:39:50Z</time>
      </trkpt>
      <trkpt lat="36.043767" lon="-5.630792">
        <ele>15.69</ele>
        <time>2015-06-19T15:39:51Z</time>
      </trkpt>
      <trkpt lat="36.043757" lon="-5.630761">
        <ele>15.29</ele>
        <time>2015-06-19T15:39:52Z</time>
      </trkpt>
      <trkpt lat="36.043745" lon="-5.630720">
        <ele>14.85</ele>
        <time>2015-06-19T15:39:53Z</time>
      </trkpt>
      <trkpt lat="36.043733" lon="-5.630683">
        <ele>14.47</ele>
        <time>2015-06-19T15:39:54Z</time>
      </trkpt>
      <trkpt lat="36.043675" lon="-5.630517">
        <ele>14.45</ele>
        <time>2015-06-19T15:39:58Z</time>
      </trkpt>
      <trkpt lat="36.043619" lon="-5.630327">
        <ele>14.40</ele>
        <time>2015-06-19T15:40:02Z</time>
      </trkpt>
      <trkpt lat="36.043554" lon="-5.630106">
        <ele>14.41</ele>
        <time>2015-06-19T15:40:07Z</time>
      </trkpt>
      <trkpt lat="36.043453" lon="-5.629739">
        <ele>14.41</ele>
        <time>2015-06-19T15:40:16Z</time>
      </trkpt>
      <trkpt lat="36.043336" lon="-5.629354">
        <ele>14.50</ele>
        <time>2015-06-19T15:40:26Z</time>
      </trkpt>
      <trkpt lat="36.043248" lon="-5.629085">
        <ele>14.49</ele>
        <time>2015-06-19T15:40:33Z</time>
      </trkpt>
      <trkpt lat="36.043156" lon="-5.628829">
        <ele>14.46</ele>
        <time>2015-06-19T15:40:40Z</time>
      </trkpt>
      <trkpt lat="36.043044" lon="-5.628563">
        <ele>14.43</ele>
        <time>2015-06-19T15:40:48Z</time>
      </trkpt>
      <trkpt lat="36.042981" lon="-5.628416">
        <ele>14.05</ele>
        <time>2015-06-19T15:40:52Z</time>
      </trkpt>
      <trkpt lat="36.042963" lon="-5.628384">
        <ele>13.69</ele>
        <time>2015-06-19T15:40:53Z</time>
      </trkpt>
      <trkpt lat="36.042946" lon="-5.628350">
        <ele>13.24</ele>
        <time>2015-06-19T15:40:54Z</time>
      </trkpt>
      <trkpt lat="36.042930" lon="-5.628316">
        <ele>12.88</ele>
        <time>2015-06-19T15:40:55Z</time>
      </trkpt>
      <trkpt lat="36.042914" lon="-5.628283">
        <ele>12.47</ele>
        <time>2015-06-19T15:40:56Z</time>
      </trkpt>
      <trkpt lat="36.042788" lon="-5.628029">
        <ele>12.48</ele>
        <time>2015-06-19T15:41:03Z</time>
      </trkpt>
      <trkpt lat="36.042769" lon="-5.627996">
        <ele>12.42</ele>
        <time>2015-06-19T15:41:04Z</time>
      </trkpt>
      <trkpt lat="36.042543" lon="-5.627591">
        <ele>12.41</ele>
        <time>2015-06-19T15:41:16Z</time>
      </trkpt>
      <trkpt lat="36.042373" lon="-5.627300">
        <ele>12.47</ele>
        <time>2015-06-19T15:41:24Z</time>
      </trkpt>
      <trkpt lat="36.042249" lon="-5.627088">
        <ele>12.48</ele>
        <time>2015-06-19T15:41:30Z</time>
      </trkpt>
      <trkpt lat="36.042082" lon="-5.626797">
        <ele>12.42</ele>
        <time>2015-06-19T15:41:39Z</time>
      </trkpt>
      <trkpt lat="36.041936" lon="-5.626537">
        <ele>12.49</ele>
        <time>2015-06-19T15:41:47Z</time>
      </trkpt>
      <trkpt lat="36.041774" lon="-5.626268">
        <ele>12.49</ele>
        <time>2015-06-19T15:41:55Z</time>
      </trkpt>
      <trkpt lat="36.041573" lon="-5.625925">
        <ele>12.46</ele>
        <time>2015-06-19T15:42:05Z</time>
      </trkpt>
      <trkpt lat="36.041394" lon="-5.625634">
        <ele>12.46</ele>
        <time>2015-06-19T15:42:14Z</time>
      </trkpt>
      <trkpt lat="36.041244" lon="-5.625371">
        <ele>12.44</ele>
        <time>2015-06-19T15:42:22Z</time>
      </trkpt>
      <trkpt lat="36.041098" lon="-5.625118">
        <ele>12.41</ele>
        <time>2015-06-19T15:42:30Z</time>
      </trkpt>
      <trkpt lat="36.040908" lon="-5.624794">
        <ele>12.47</ele>
        <time>2015-06-19T15:42:40Z</time>
      </trkpt>
      <trkpt lat="36.040750" lon="-5.624521">
        <ele>12.41</ele>
        <time>2015-06-19T15:42:48Z</time>
      </trkpt>
      <trkpt lat="36.040730" lon="-5.624487">
        <ele>12.41</ele>
        <time>2015-06-19T15:42:49Z</time>
      </trkpt>
      <trkpt lat="36.040522" lon="-5.624125">
        <ele>12.44</ele>
        <time>2015-06-19T15:42:59Z</time>
      </trkpt>
      <trkpt lat="36.040352" lon="-5.623836">
        <ele>12.45</ele>
        <time>2015-06-19T15:43:07Z</time>
      </trkpt>
      <trkpt lat="36.040178" lon="-5.623536">
        <ele>12.46</ele>
        <time>2015-06-19T15:43:16Z</time>
      </trkpt>
      <trkpt lat="36.040004" lon="-5.623226">
        <ele>12.48</ele>
        <time>2015-06-19T15:43:25Z</time>
      </trkpt>
      <trkpt lat="36.039854" lon="-5.622977">
        <ele>12.43</ele>
        <time>2015-06-19T15:43:32Z</time>
      </trkpt>
      <trkpt lat="36.039653" lon="-5.622671">
        <ele>12.50</ele>
        <time>2015-06-19T15:43:41Z</time>
      </trkpt>
      <trkpt lat="36.039398" lon="-5.622351">
        <ele>12.46</ele>
        <time>2015-06-19T15:43:51Z</time>
      </trkpt>
      <trkpt lat="36.039219" lon="-5.622183">
        <ele>12.88</ele>
        <time>2015-06-19T15:43:57Z</time>
      </trkpt>
      <trkpt lat="36.039191" lon="-5.622157">
        <ele>13.22</ele>
        <time>2015-06-19T15:43:58Z</time>
      </trkpt>
      <trkpt lat="36.039162" lon="-5.622132">
        <ele>13.64</ele>
        <time>2015-06-19T15:43:59Z</time>
      </trkpt>
      <trkpt lat="36.039131" lon="-5.622107">
        <ele>14.01</ele>
        <time>2015-06-19T15:44:00Z</time>
      </trkpt>
      <trkpt lat="36.039100" lon="-5.622082">
        <ele>14.41</ele>
        <time>2015-06-19T15:44:01Z</time>
      </trkpt>
      <trkpt lat="36.038945" lon="-5.621959">
        <ele>14.47</ele>
        <time>2015-06-19T15:44:06Z</time>
      </trkpt>
      <trkpt lat="36.038713" lon="-5.621789">
        <ele>14.47</ele>
        <time>2015-06-19T15:44:13Z</time>
      </trkpt>
      <trkpt lat="36.038519" lon="-5.621644">
        <ele>14.42</ele>
        <time>2015-06-19T15:44:19Z</time>
      </trkpt>
      <trkpt lat="36.038241" lon="-5.621438">
        <ele>14.45</ele>
        <time>2015-06-19T15:44:27Z</time>
      </trkpt>
      <trkpt lat="36.038063" lon="-5.621312">
        <ele>14.49</ele>
        <time>2015-06-19T15:44:32Z</time>
      </trkpt>
      <trkpt lat="36.037958" lon="-5.621233">
        <ele>14.47</ele>
        <time>2015-06-19T15:44:35Z</time>
      </trkpt>
      <trkpt lat="36.037922" lon="-5.621208">
        <ele>14.45</ele>
        <time>2015-06-19T15:44:36Z</time>
      </trkpt>
      <trkpt lat="36.037695" lon="-5.621022">
        <ele>14.48</ele>
        <time>2015-06-19T15:44:43Z</time>
      </trkpt>
      <trkpt lat="36.037445" lon="-5.620793">
        <ele>14.48</ele>
        <time>2015-06-19T15:44:51Z</time>
      </trkpt>
      <trkpt lat="36.037354" lon="-5.620702">
        <ele>14.01</ele>
        <time>2015-06-19T15:44:54Z</time>
      </trkpt>
      <trkpt lat="36.037321" lon="-5.620669">
        <ele>13.63</ele>
        <time>2015-06-19T15:44:55Z</time>
      </trkpt>
      <trkpt lat="36.037289" lon="-5.620637">
        <ele>13.21</ele>
        <time>2015-06-19T15:44:56Z</time>
      </trkpt>
      <trkpt lat="36.037258" lon="-5.620606">
        <ele>12.89</ele>
        <time>2015-06-19T15:44:57Z</time>
      </trkpt>
      <trkpt lat="36.037228" lon="-5.620574">
        <ele>12.49</ele>
        <time>2015-06-19T15:44:58Z</time>
      </trkpt>
      <trkpt lat="36.037201" lon="-5.620541">
        <ele>12.49</ele>
        <time>2015-06-19T15:44:59Z</time>
      </trkpt>
      <trkpt lat="36.037050" lon="-5.620373">
        <ele>12.43</ele>
        <time>2015-06-19T15:45:04Z</time>
      </trkpt>
      <trkpt lat="36.036990" lon="-5.620308">
        <ele>12.44</ele>
        <time>2015-06-19T15:45:06Z</time>
      </trkpt>
      <trkpt lat="36.036843" lon="-5.620140">
        <ele>12.48</ele>
        <time>2015-06-19T15:45:11Z</time>
      </trkpt>
      <trkpt lat="36.036782" lon="-5.620073">
        <ele>12.42</ele>
        <time>2015-06-19T15:45:13Z</time>
      </trkpt>
      <trkpt lat="36.036754" lon="-5.620040">
        <ele>12.88</ele>
        <time>2015-06-19T15:45:14Z</time>
      </trkpt>
      <trkpt lat="36.036725" lon="-5.620007">
        <ele>13.45</ele>
        <time>2015-06-19T15:45:15Z</time>
      </trkpt>
      <trkpt lat="36.036697" lon="-5.619973">
        <ele>13.89</ele>
        <time>2015-06-19T15:45:16Z</time>
      </trkpt>
      <trkpt lat="36.036668" lon="-5.619942">
        <ele>14.42</ele>
        <time>2015-06-19T15:45:17Z</time>
      </trkpt>
      <trkpt lat="36.036637" lon="-5.619911">
        <ele>14.81</ele>
        <time>2015-06-19T15:45:18Z</time>
      </trkpt>
      <trkpt lat="36.036584" lon="-5.619850">
        <ele>14.85</ele>
        <time>2015-06-19T15:45:20Z</time>
      </trkpt>
      <trkpt lat="36.036346" lon="-5.619588">
        <ele>14.86</ele>
        <time>2015-06-19T15:45:29Z</time>
      </trkpt>
      <trkpt lat="36.036146" lon="-5.619365">
        <ele>14.90</ele>
        <time>2015-06-19T15:45:37Z</time>
      </trkpt>
      <trkpt lat="36.035969" lon="-5.619174">
        <ele>14.88</ele>
        <time>2015-06-19T15:45:44Z</time>
      </trkpt>
      <trkpt lat="36.035924" lon="-5.619126">
        <ele>15.24</ele>
        <time>2015-06-19T15:45:46Z</time>
      </trkpt>
      <trkpt lat="36.035904" lon="-5.619103">
        <ele>15.64</ele>
        <time>2015-06-19T15:45:47Z</time>
      </trkpt>
      <trkpt lat="36.035884" lon="-5.619078">
        <ele>16.02</ele>
        <time>2015-06-19T15:45:48Z</time>
      </trkpt>
      <trkpt lat="36.035866" lon="-5.619056">
        <ele>16.66</ele>
        <time>2015-06-19T15:45:49Z</time>
      </trkpt>
      <trkpt lat="36.035847" lon="-5.619034">
        <ele>17.06</ele>
        <time>2015-06-19T15:45:50Z</time>
      </trkpt>
      <trkpt lat="36.035789" lon="-5.618970">
        <ele>17.08</ele>
        <time>2015-06-19T15:45:53Z</time>
      </trkpt>
      <trkpt lat="36.035645" lon="-5.618800">
        <ele>17.01</ele>
        <time>2015-06-19T15:46:00Z</time>
      </trkpt>
      <trkpt lat="36.035574" lon="-5.618723">
        <ele>16.41</ele>
        <time>2015-06-19T15:46:03Z</time>
      </trkpt>
      <trkpt lat="36.035552" lon="-5.618697">
        <ele>16.09</ele>
        <time>2015-06-19T15:46:04Z</time>
      </trkpt>
      <trkpt lat="36.035527" lon="-5.618670">
        <ele>15.64</ele>
        <time>2015-06-19T15:46:05Z</time>
      </trkpt>
      <trkpt lat="36.035502" lon="-5.618643">
        <ele>15.07</ele>
        <time>2015-06-19T15:46:06Z</time>
      </trkpt>
      <trkpt lat="36.035480" lon="-5.618615">
        <ele>14.65</ele>
        <time>2015-06-19T15:46:07Z</time>
      </trkpt>
      <trkpt lat="36.035457" lon="-5.618587">
        <ele>14.62</ele>
        <time>2015-06-19T15:46:08Z</time>
      </trkpt>
      <trkpt lat="36.035207" lon="-5.618314">
        <ele>14.67</ele>
        <time>2015-06-19T15:46:18Z</time>
      </trkpt>
      <trkpt lat="36.035026" lon="-5.618120">
        <ele>14.66</ele>
        <time>2015-06-19T15:46:25Z</time>
      </trkpt>
      <trkpt lat="36.034832" lon="-5.617910">
        <ele>14.62</ele>
        <time>2015-06-19T15:46:33Z</time>
      </trkpt>
      <trkpt lat="36.034636" lon="-5.617676">
        <ele>14.69</ele>
        <time>2015-06-19T15:46:41Z</time>
      </trkpt>
      <trkpt lat="36.034404" lon="-5.617417">
        <ele>14.68</ele>
        <time>2015-06-19T15:46:50Z</time>
      </trkpt>
      <trkpt lat="36.034173" lon="-5.617156">
        <ele>14.62</ele>
        <time>2015-06-19T15:46:59Z</time>
      </trkpt>
      <trkpt lat="36.033941" lon="-5.616895">
        <ele>14.61</ele>
        <time>2015-06-19T15:47:08Z</time>
      </trkpt>
      <trkpt lat="36.033729" lon="-5.616666">
        <ele>14.62</ele>
        <time>2015-06-19T15:47:16Z</time>
      </trkpt>
      <trkpt lat="36.033604" lon="-5.616533">
        <ele>15.08</ele>
        <time>2015-06-19T15:47:21Z</time>
      </trkpt>
      <trkpt lat="36.033581" lon="-5.616507">
        <ele>15.45</ele>
        <time>2015-06-19T15:47:22Z</time>
      </trkpt>
      <trkpt lat="36.033558" lon="-5.616481">
        <ele>16.04</ele>
        <time>2015-06-19T15:47:23Z</time>
      </trkpt>
      <trkpt lat="36.033536" lon="-5.616453">
        <ele>16.43</ele>
        <time>2015-06-19T15:47:24Z</time>
      </trkpt>
      <trkpt lat="36.033515" lon="-5.616423">
        <ele>16.86</ele>
        <time>2015-06-19T15:47:25Z</time>
      </trkpt>
      <trkpt lat="36.033368" lon="-5.616263">
        <ele>16.89</ele>
        <time>2015-06-19T15:47:31Z</time>
      </trkpt>
      <trkpt lat="36.033235" lon="-5.616103">
        <ele>16.89</ele>
        <time>2015-06-19T15:47:37Z</time>
      </trkpt>
      <trkpt lat="36.032981" lon="-5.615827">
        <ele>16.88</ele>
        <time>2015-06-19T15:47:47Z</time>
      </trkpt>
      <trkpt lat="36.032896" lon="-5.615744">
        <ele>16.43</ele>
        <time>2015-06-19T15:47:50Z</time>
      </trkpt>
      <trkpt lat="36.032870" lon="-5.615716">
        <ele>16.03</ele>
        <time>2015-06-19T15:47:51Z</time>
      </trkpt>
      <trkpt lat="36.032845" lon="-5.615688">
        <ele>15.41</ele>
        <time>2015-06-19T15:47:52Z</time>
      </trkpt>
      <trkpt lat="36.032819" lon="-5.615658">
        <ele>15.06</ele>
        <time>2015-06-19T15:47:53Z</time>
      </trkpt>
      <trkpt lat="36.032793" lon="-5.615629">
        <ele>14.68</ele>
        <time>2015-06-19T15:47:54Z</time>
      </trkpt>
      <trkpt lat="36.032767" lon="-5.615598">
        <ele>14.62</ele>
        <time>2015-06-19T15:47:55Z</time>
      </trkpt>
      <trkpt lat="36.032563" lon="-5.615367">
        <ele>14.62</ele>
        <time>2015-06-19T15:48:03Z</time>
      </trkpt>
      <trkpt lat="36.032357" lon="-5.615146">
        <ele>14.63</ele>
        <time>2015-06-19T15:48:11Z</time>
      </trkpt>
      <trkpt lat="36.032332" lon="-5.615118">
        <ele>15.04</ele>
        <time>2015-06-19T15:48:12Z</time>
      </trkpt>
      <trkpt lat="36.032309" lon="-5.615089">
        <ele>15.67</ele>
        <time>2015-06-19T15:48:13Z</time>
      </trkpt>
      <trkpt lat="36.032283" lon="-5.615059">
        <ele>16.05</ele>
        <time>2015-06-19T15:48:14Z</time>
      </trkpt>
      <trkpt lat="36.032256" lon="-5.615030">
        <ele>16.42</ele>
        <time>2015-06-19T15:48:15Z</time>
      </trkpt>
      <trkpt lat="36.032230" lon="-5.615001">
        <ele>16.89</ele>
        <time>2015-06-19T15:48:16Z</time>
      </trkpt>
      <trkpt lat="36.032202" lon="-5.614971">
        <ele>16.82</ele>
        <time>2015-06-19T15:48:17Z</time>
      </trkpt>
      <trkpt lat="36.032049" lon="-5.614793">
        <ele>16.81</ele>
        <time>2015-06-19T15:48:23Z</time>
      </trkpt>
      <trkpt lat="36.031867" lon="-5.614587">
        <ele>16.41</ele>
        <time>2015-06-19T15:48:30Z</time>
      </trkpt>
      <trkpt lat="36.031840" lon="-5.614557">
        <ele>16.09</ele>
        <time>2015-06-19T15:48:31Z</time>
      </trkpt>
      <trkpt lat="36.031810" lon="-5.614526">
        <ele>15.61</ele>
        <time>2015-06-19T15:48:32Z</time>
      </trkpt>
      <trkpt lat="36.031782" lon="-5.614496">
        <ele>15.25</ele>
        <time>2015-06-19T15:48:33Z</time>
      </trkpt>
      <trkpt lat="36.031754" lon="-5.614466">
        <ele>14.82</ele>
        <time>2015-06-19T15:48:34Z</time>
      </trkpt>
      <trkpt lat="36.031597" lon="-5.614294">
        <ele>14.84</ele>
        <time>2015-06-19T15:48:40Z</time>
      </trkpt>
      <trkpt lat="36.031423" lon="-5.614100">
        <ele>14.88</ele>
        <time>2015-06-19T15:48:47Z</time>
      </trkpt>
      <trkpt lat="36.031202" lon="-5.613854">
        <ele>14.88</ele>
        <time>2015-06-19T15:48:56Z</time>
      </trkpt>
      <trkpt lat="36.030953" lon="-5.613576">
        <ele>14.83</ele>
        <time>2015-06-19T15:49:06Z</time>
      </trkpt>
      <trkpt lat="36.030763" lon="-5.613385">
        <ele>14.86</ele>
        <time>2015-06-19T15:49:13Z</time>
      </trkpt>
      <trkpt lat="36.030678" lon="-5.613298">
        <ele>15.21</ele>
        <time>2015-06-19T15:49:16Z</time>
      </trkpt>
      <trkpt lat="36.030650" lon="-5.613268">
        <ele>15.61</ele>
        <time>2015-06-19T15:49:17Z</time>
      </trkpt>
      <trkpt lat="36.030618" lon="-5.613236">
        <ele>16.03</ele>
        <time>2015-06-19T15:49:18Z</time>
      </trkpt>
      <trkpt lat="36.030588" lon="-5.613209">
        <ele>15.86</ele>
        <time>2015-06-19T15:49:19Z</time>
      </trkpt>
      <trkpt lat="36.030562" lon="-5.613180">
        <ele>15.43</ele>
        <time>2015-06-19T15:49:20Z</time>
      </trkpt>
      <trkpt lat="36.030537" lon="-5.613149">
        <ele>15.24</ele>
        <time>2015-06-19T15:49:21Z</time>
      </trkpt>
      <trkpt lat="36.030515" lon="-5.613117">
        <ele>14.84</ele>
        <time>2015-06-19T15:49:22Z</time>
      </trkpt>
      <trkpt lat="36.030493" lon="-5.613087">
        <ele>14.64</ele>
        <time>2015-06-19T15:49:23Z</time>
      </trkpt>
      <trkpt lat="36.030473" lon="-5.613064">
        <ele>14.62</ele>
        <time>2015-06-19T15:49:24Z</time>
      </trkpt>
      <trkpt lat="36.030276" lon="-5.612849">
        <ele>14.63</ele>
        <time>2015-06-19T15:49:33Z</time>
      </trkpt>
      <trkpt lat="36.030100" lon="-5.612658">
        <ele>14.62</ele>
        <time>2015-06-19T15:49:41Z</time>
      </trkpt>
      <trkpt lat="36.030078" lon="-5.612633">
        <ele>14.20</ele>
        <time>2015-06-19T15:49:42Z</time>
      </trkpt>
      <trkpt lat="36.030056" lon="-5.612607">
        <ele>13.81</ele>
        <time>2015-06-19T15:49:43Z</time>
      </trkpt>
      <trkpt lat="36.030035" lon="-5.612584">
        <ele>13.41</ele>
        <time>2015-06-19T15:49:44Z</time>
      </trkpt>
      <trkpt lat="36.030013" lon="-5.612561">
        <ele>13.82</ele>
        <time>2015-06-19T15:49:45Z</time>
      </trkpt>
      <trkpt lat="36.029992" lon="-5.612537">
        <ele>14.07</ele>
        <time>2015-06-19T15:49:46Z</time>
      </trkpt>
      <trkpt lat="36.029971" lon="-5.612512">
        <ele>14.47</ele>
        <time>2015-06-19T15:49:47Z</time>
      </trkpt>
      <trkpt lat="36.029948" lon="-5.612487">
        <ele>14.86</ele>
        <time>2015-06-19T15:49:48Z</time>
      </trkpt>
      <trkpt lat="36.029926" lon="-5.612463">
        <ele>15.28</ele>
        <time>2015-06-19T15:49:49Z</time>
      </trkpt>
      <trkpt lat="36.029903" lon="-5.612438">
        <ele>15.30</ele>
        <time>2015-06-19T15:49:50Z</time>
      </trkpt>
      <trkpt lat="36.029768" lon="-5.612287">
        <ele>15.21</ele>
        <time>2015-06-19T15:49:56Z</time>
      </trkpt>
      <trkpt lat="36.029748" lon="-5.612262">
        <ele>15.28</ele>
        <time>2015-06-19T15:49:57Z</time>
      </trkpt>
      <trkpt lat="36.029669" lon="-5.612177">
        <ele>15.24</ele>
        <time>2015-06-19T15:50:01Z</time>
      </trkpt>
      <trkpt lat="36.029611" lon="-5.612113">
        <ele>15.25</ele>
        <time>2015-06-19T15:50:04Z</time>
      </trkpt>
      <trkpt lat="36.029430" lon="-5.611942">
        <ele>15.21</ele>
        <time>2015-06-19T15:50:12Z</time>
      </trkpt>
      <trkpt lat="36.029213" lon="-5.611818">
        <ele>15.21</ele>
        <time>2015-06-19T15:50:20Z</time>
      </trkpt>
      <trkpt lat="36.029036" lon="-5.611770">
        <ele>15.30</ele>
        <time>2015-06-19T15:50:26Z</time>
      </trkpt>
      <trkpt lat="36.029006" lon="-5.611768">
        <ele>15.22</ele>
        <time>2015-06-19T15:50:27Z</time>
      </trkpt>
      <trkpt lat="36.028859" lon="-5.611757">
        <ele>15.28</ele>
        <time>2015-06-19T15:50:32Z</time>
      </trkpt>
      <trkpt lat="36.028599" lon="-5.611785">
        <ele>15.28</ele>
        <time>2015-06-19T15:50:40Z</time>
      </trkpt>
      <trkpt lat="36.028300" lon="-5.611840">
        <ele>15.27</ele>
        <time>2015-06-19T15:50:48Z</time>
      </trkpt>
      <trkpt lat="36.028042" lon="-5.611879">
        <ele>15.21</ele>
        <time>2015-06-19T15:50:55Z</time>
      </trkpt>
      <trkpt lat="36.027841" lon="-5.611912">
        <ele>15.28</ele>
        <time>2015-06-19T15:51:01Z</time>
      </trkpt>
      <trkpt lat="36.027570" lon="-5.611937">
        <ele>15.23</ele>
        <time>2015-06-19T15:51:08Z</time>
      </trkpt>
      <trkpt lat="36.027437" lon="-5.611932">
        <ele>15.24</ele>
        <time>2015-06-19T15:51:11Z</time>
      </trkpt>
      <trkpt lat="36.027222" lon="-5.611917">
        <ele>15.27</ele>
        <time>2015-06-19T15:51:16Z</time>
      </trkpt>
      <trkpt lat="36.026884" lon="-5.611866">
        <ele>15.22</ele>
        <time>2015-06-19T15:51:24Z</time>
      </trkpt>
      <trkpt lat="36.026577" lon="-5.611843">
        <ele>15.21</ele>
        <time>2015-06-19T15:51:32Z</time>
      </trkpt>
      <trkpt lat="36.026539" lon="-5.611840">
        <ele>14.81</ele>
        <time>2015-06-19T15:51:33Z</time>
      </trkpt>
      <trkpt lat="36.026501" lon="-5.611838">
        <ele>14.45</ele>
        <time>2015-06-19T15:51:34Z</time>
      </trkpt>
      <trkpt lat="36.026464" lon="-5.611836">
        <ele>14.03</ele>
        <time>2015-06-19T15:51:35Z</time>
      </trkpt>
      <trkpt lat="36.026427" lon="-5.611833">
        <ele>13.43</ele>
        <time>2015-06-19T15:51:36Z</time>
      </trkpt>
      <trkpt lat="36.026390" lon="-5.611831">
        <ele>13.06</ele>
        <time>2015-06-19T15:51:37Z</time>
      </trkpt>
      <trkpt lat="36.026318" lon="-5.611835">
        <ele>13.06</ele>
        <time>2015-06-19T15:51:39Z</time>
      </trkpt>
      <trkpt lat="36.026108" lon="-5.611817">
        <ele>13.07</ele>
        <time>2015-06-19T15:51:45Z</time>
      </trkpt>
      <trkpt lat="36.025882" lon="-5.611745">
        <ele>13.04</ele>
        <time>2015-06-19T15:51:51Z</time>
      </trkpt>
      <trkpt lat="36.025838" lon="-5.611737">
        <ele>13.03</ele>
        <time>2015-06-19T15:51:52Z</time>
      </trkpt>
      <trkpt lat="36.025623" lon="-5.611693">
        <ele>13.05</ele>
        <time>2015-06-19T15:51:57Z</time>
      </trkpt>
      <trkpt lat="36.025370" lon="-5.611652">
        <ele>13.01</ele>
        <time>2015-06-19T15:52:04Z</time>
      </trkpt>
      <trkpt lat="36.025105" lon="-5.611619">
        <ele>13.01</ele>
        <time>2015-06-19T15:52:12Z</time>
      </trkpt>
      <trkpt lat="36.024894" lon="-5.611649">
        <ele>13.08</ele>
        <time>2015-06-19T15:52:18Z</time>
      </trkpt>
      <trkpt lat="36.024634" lon="-5.611679">
        <ele>13.02</ele>
        <time>2015-06-19T15:52:25Z</time>
      </trkpt>
      <trkpt lat="36.024464" lon="-5.611664">
        <ele>13.06</ele>
        <time>2015-06-19T15:52:30Z</time>
      </trkpt>
      <trkpt lat="36.024247" lon="-5.611670">
        <ele>13.01</ele>
        <time>2015-06-19T15:52:37Z</time>
      </trkpt>
      <trkpt lat="36.023996" lon="-5.611681">
        <ele>13.02</ele>
        <time>2015-06-19T15:52:45Z</time>
      </trkpt>
      <trkpt lat="36.023902" lon="-5.611686">
        <ele>13.07</ele>
        <time>2015-06-19T15:52:48Z</time>
      </trkpt>
      <trkpt lat="36.023785" lon="-5.611693">
        <ele>13.65</ele>
        <time>2015-06-19T15:52:52Z</time>
      </trkpt>
      <trkpt lat="36.023758" lon="-5.611697">
        <ele>14.09</ele>
        <time>2015-06-19T15:52:53Z</time>
      </trkpt>
      <trkpt lat="36.023730" lon="-5.611700">
        <ele>14.48</ele>
        <time>2015-06-19T15:52:54Z</time>
      </trkpt>
      <trkpt lat="36.023700" lon="-5.611706">
        <ele>15.23</ele>
        <time>2015-06-19T15:52:55Z</time>
      </trkpt>
      <trkpt lat="36.023587" lon="-5.611736">
        <ele>15.22</ele>
        <time>2015-06-19T15:52:59Z</time>
      </trkpt>
      <trkpt lat="36.023560" lon="-5.611736">
        <ele>15.61</ele>
        <time>2015-06-19T15:53:00Z</time>
      </trkpt>
      <trkpt lat="36.023531" lon="-5.611731">
        <ele>16.09</ele>
        <time>2015-06-19T15:53:01Z</time>
      </trkpt>
      <trkpt lat="36.023503" lon="-5.611729">
        <ele>16.43</ele>
        <time>2015-06-19T15:53:02Z</time>
      </trkpt>
      <trkpt lat="36.023472" lon="-5.611728">
        <ele>16.86</ele>
        <time>2015-06-19T15:53:03Z</time>
      </trkpt>
      <trkpt lat="36.023443" lon="-5.611730">
        <ele>17.29</ele>
        <time>2015-06-19T15:53:04Z</time>
      </trkpt>
      <trkpt lat="36.023412" lon="-5.611731">
        <ele>17.21</ele>
        <time>2015-06-19T15:53:05Z</time>
      </trkpt>
      <trkpt lat="36.023211" lon="-5.611752">
        <ele>17.29</ele>
        <time>2015-06-19T15:53:12Z</time>
      </trkpt>
      <trkpt lat="36.022986" lon="-5.611760">
        <ele>17.22</ele>
        <time>2015-06-19T15:53:20Z</time>
      </trkpt>
      <trkpt lat="36.022790" lon="-5.611755">
        <ele>17.21</ele>
        <time>2015-06-19T15:53:27Z</time>
      </trkpt>
      <trkpt lat="36.022699" lon="-5.611744">
        <ele>17.63</ele>
        <time>2015-06-19T15:53:31Z</time>
      </trkpt>
      <trkpt lat="36.022671" lon="-5.611731">
        <ele>18.09</ele>
        <time>2015-06-19T15:53:32Z</time>
      </trkpt>
      <trkpt lat="36.022646" lon="-5.611722">
        <ele>18.42</ele>
        <time>2015-06-19T15:53:33Z</time>
      </trkpt>
      <trkpt lat="36.022619" lon="-5.611710">
        <ele>18.81</ele>
        <time>2015-06-19T15:53:34Z</time>
      </trkpt>
      <trkpt lat="36.022591" lon="-5.611704">
        <ele>19.27</ele>
        <time>2015-06-19T15:53:35Z</time>
      </trkpt>
      <trkpt lat="36.022474" lon="-5.611671">
        <ele>19.24</ele>
        <time>2015-06-19T15:53:40Z</time>
      </trkpt>
      <trkpt lat="36.022312" lon="-5.611625">
        <ele>19.28</ele>
        <time>2015-06-19T15:53:47Z</time>
      </trkpt>
      <trkpt lat="36.022195" lon="-5.611572">
        <ele>19.28</ele>
        <time>2015-06-19T15:53:53Z</time>
      </trkpt>
      <trkpt lat="36.022087" lon="-5.611476">
        <ele>19.23</ele>
        <time>2015-06-19T15:53:59Z</time>
      </trkpt>
      <trkpt lat="36.022036" lon="-5.611437">
        <ele>19.69</ele>
        <time>2015-06-19T15:54:02Z</time>
      </trkpt>
      <trkpt lat="36.022021" lon="-5.611427">
        <ele>20.03</ele>
        <time>2015-06-19T15:54:03Z</time>
      </trkpt>
      <trkpt lat="36.022013" lon="-5.611405">
        <ele>20.50</ele>
        <time>2015-06-19T15:54:04Z</time>
      </trkpt>
      <trkpt lat="36.022007" lon="-5.611375">
        <ele>20.86</ele>
        <time>2015-06-19T15:54:05Z</time>
      </trkpt>
      <trkpt lat="36.021998" lon="-5.611347">
        <ele>21.41</ele>
        <time>2015-06-19T15:54:06Z</time>
      </trkpt>
      <trkpt lat="36.021910" lon="-5.611250">
        <ele>21.42</ele>
        <time>2015-06-19T15:54:10Z</time>
      </trkpt>
      <trkpt lat="36.021790" lon="-5.611163">
        <ele>21.41</ele>
        <time>2015-06-19T15:54:15Z</time>
      </trkpt>
      <trkpt lat="36.021720" lon="-5.611113">
        <ele>21.49</ele>
        <time>2015-06-19T15:54:18Z</time>
      </trkpt>
      <trkpt lat="36.021552" lon="-5.610979">
        <ele>21.46</ele>
        <time>2015-06-19T15:54:25Z</time>
      </trkpt>
      <trkpt lat="36.021503" lon="-5.610949">
        <ele>21.89</ele>
        <time>2015-06-19T15:54:27Z</time>
      </trkpt>
      <trkpt lat="36.021478" lon="-5.610930">
        <ele>22.25</ele>
        <time>2015-06-19T15:54:28Z</time>
      </trkpt>
      <trkpt lat="36.021449" lon="-5.610912">
        <ele>22.63</ele>
        <time>2015-06-19T15:54:29Z</time>
      </trkpt>
      <trkpt lat="36.021422" lon="-5.610891">
        <ele>23.09</ele>
        <time>2015-06-19T15:54:30Z</time>
      </trkpt>
      <trkpt lat="36.021395" lon="-5.610869">
        <ele>23.65</ele>
        <time>2015-06-19T15:54:31Z</time>
      </trkpt>
      <trkpt lat="36.021365" lon="-5.610849">
        <ele>23.62</ele>
        <time>2015-06-19T15:54:32Z</time>
      </trkpt>
      <trkpt lat="36.021189" lon="-5.610732">
        <ele>23.69</ele>
        <time>2015-06-19T15:54:38Z</time>
      </trkpt>
      <trkpt lat="36.020989" lon="-5.610576">
        <ele>23.66</ele>
        <time>2015-06-19T15:54:45Z</time>
      </trkpt>
      <trkpt lat="36.020868" lon="-5.610495">
        <ele>23.62</ele>
        <time>2015-06-19T15:54:49Z</time>
      </trkpt>
      <trkpt lat="36.020809" lon="-5.610449">
        <ele>23.61</ele>
        <time>2015-06-19T15:54:51Z</time>
      </trkpt>
      <trkpt lat="36.020595" lon="-5.610284">
        <ele>23.65</ele>
        <time>2015-06-19T15:54:58Z</time>
      </trkpt>
      <trkpt lat="36.020438" lon="-5.610165">
        <ele>23.68</ele>
        <time>2015-06-19T15:55:03Z</time>
      </trkpt>
      <trkpt lat="36.020349" lon="-5.610090">
        <ele>23.63</ele>
        <time>2015-06-19T15:55:06Z</time>
      </trkpt>
      <trkpt lat="36.020187" lon="-5.609978">
        <ele>23.69</ele>
        <time>2015-06-19T15:55:11Z</time>
      </trkpt>
      <trkpt lat="36.020154" lon="-5.609949">
        <ele>23.62</ele>
        <time>2015-06-19T15:55:12Z</time>
      </trkpt>
      <trkpt lat="36.020122" lon="-5.609923">
        <ele>23.68</ele>
        <time>2015-06-19T15:55:13Z</time>
      </trkpt>
      <trkpt lat="36.020067" lon="-5.609863">
        <ele>23.65</ele>
        <time>2015-06-19T15:55:15Z</time>
      </trkpt>
      <trkpt lat="36.019970" lon="-5.609779">
        <ele>23.68</ele>
        <time>2015-06-19T15:55:18Z</time>
      </trkpt>
      <trkpt lat="36.019939" lon="-5.609754">
        <ele>23.05</ele>
        <time>2015-06-19T15:55:19Z</time>
      </trkpt>
      <trkpt lat="36.019909" lon="-5.609729">
        <ele>22.60</ele>
        <time>2015-06-19T15:55:20Z</time>
      </trkpt>
      <trkpt lat="36.019878" lon="-5.609706">
        <ele>22.21</ele>
        <time>2015-06-19T15:55:21Z</time>
      </trkpt>
      <trkpt lat="36.019842" lon="-5.609684">
        <ele>21.81</ele>
        <time>2015-06-19T15:55:22Z</time>
      </trkpt>
      <trkpt lat="36.019811" lon="-5.609660">
        <ele>21.47</ele>
        <time>2015-06-19T15:55:23Z</time>
      </trkpt>
      <trkpt lat="36.019750" lon="-5.609616">
        <ele>21.44</ele>
        <time>2015-06-19T15:55:25Z</time>
      </trkpt>
      <trkpt lat="36.019589" lon="-5.609506">
        <ele>21.08</ele>
        <time>2015-06-19T15:55:30Z</time>
      </trkpt>
      <trkpt lat="36.019554" lon="-5.609481">
        <ele>20.65</ele>
        <time>2015-06-19T15:55:31Z</time>
      </trkpt>
      <trkpt lat="36.019519" lon="-5.609455">
        <ele>20.24</ele>
        <time>2015-06-19T15:55:32Z</time>
      </trkpt>
      <trkpt lat="36.019485" lon="-5.609430">
        <ele>19.87</ele>
        <time>2015-06-19T15:55:33Z</time>
      </trkpt>
      <trkpt lat="36.019451" lon="-5.609403">
        <ele>19.43</ele>
        <time>2015-06-19T15:55:34Z</time>
      </trkpt>
      <trkpt lat="36.019267" lon="-5.609263">
        <ele>19.46</ele>
        <time>2015-06-19T15:55:39Z</time>
      </trkpt>
      <trkpt lat="36.019000" lon="-5.609062">
        <ele>19.44</ele>
        <time>2015-06-19T15:55:46Z</time>
      </trkpt>
      <trkpt lat="36.018771" lon="-5.608873">
        <ele>19.42</ele>
        <time>2015-06-19T15:55:53Z</time>
      </trkpt>
      <trkpt lat="36.018563" lon="-5.608709">
        <ele>19.41</ele>
        <time>2015-06-19T15:56:00Z</time>
      </trkpt>
      <trkpt lat="36.018347" lon="-5.608549">
        <ele>19.41</ele>
        <time>2015-06-19T15:56:08Z</time>
      </trkpt>
      <trkpt lat="36.018205" lon="-5.608422">
        <ele>19.48</ele>
        <time>2015-06-19T15:56:14Z</time>
      </trkpt>
      <trkpt lat="36.018184" lon="-5.608401">
        <ele>19.48</ele>
        <time>2015-06-19T15:56:15Z</time>
      </trkpt>
      <trkpt lat="36.018085" lon="-5.608334">
        <ele>19.89</ele>
        <time>2015-06-19T15:56:19Z</time>
      </trkpt>
      <trkpt lat="36.018065" lon="-5.608311">
        <ele>20.25</ele>
        <time>2015-06-19T15:56:20Z</time>
      </trkpt>
      <trkpt lat="36.018043" lon="-5.608290">
        <ele>20.66</ele>
        <time>2015-06-19T15:56:21Z</time>
      </trkpt>
      <trkpt lat="36.018018" lon="-5.608273">
        <ele>21.01</ele>
        <time>2015-06-19T15:56:22Z</time>
      </trkpt>
      <trkpt lat="36.017992" lon="-5.608254">
        <ele>21.45</ele>
        <time>2015-06-19T15:56:23Z</time>
      </trkpt>
      <trkpt lat="36.017944" lon="-5.608211">
        <ele>21.49</ele>
        <time>2015-06-19T15:56:25Z</time>
      </trkpt>
      <trkpt lat="36.017851" lon="-5.608130">
        <ele>21.45</ele>
        <time>2015-06-19T15:56:29Z</time>
      </trkpt>
      <trkpt lat="36.017807" lon="-5.608091">
        <ele>21.49</ele>
        <time>2015-06-19T15:56:31Z</time>
      </trkpt>
      <trkpt lat="36.017679" lon="-5.607983">
        <ele>21.42</ele>
        <time>2015-06-19T15:56:37Z</time>
      </trkpt>
      <trkpt lat="36.017657" lon="-5.607962">
        <ele>21.81</ele>
        <time>2015-06-19T15:56:38Z</time>
      </trkpt>
      <trkpt lat="36.017641" lon="-5.607938">
        <ele>22.27</ele>
        <time>2015-06-19T15:56:39Z</time>
      </trkpt>
      <trkpt lat="36.017625" lon="-5.607914">
        <ele>22.63</ele>
        <time>2015-06-19T15:56:40Z</time>
      </trkpt>
      <trkpt lat="36.017605" lon="-5.607893">
        <ele>23.29</ele>
        <time>2015-06-19T15:56:41Z</time>
      </trkpt>
      <trkpt lat="36.017584" lon="-5.607872">
        <ele>23.62</ele>
        <time>2015-06-19T15:56:42Z</time>
      </trkpt>
      <trkpt lat="36.017561" lon="-5.607850">
        <ele>23.66</ele>
        <time>2015-06-19T15:56:43Z</time>
      </trkpt>
      <trkpt lat="36.017462" lon="-5.607741">
        <ele>23.61</ele>
        <time>2015-06-19T15:56:48Z</time>
      </trkpt>
      <trkpt lat="36.017417" lon="-5.607697">
        <ele>23.63</ele>
        <time>2015-06-19T15:56:50Z</time>
      </trkpt>
      <trkpt lat="36.017373" lon="-5.607655">
        <ele>23.64</ele>
        <time>2015-06-19T15:56:52Z</time>
      </trkpt>
      <trkpt lat="36.017323" lon="-5.607608">
        <ele>23.69</ele>
        <time>2015-06-19T15:56:54Z</time>
      </trkpt>
      <trkpt lat="36.017257" lon="-5.607535">
        <ele>23.66</ele>
        <time>2015-06-19T15:56:57Z</time>
      </trkpt>
      <trkpt lat="36.017166" lon="-5.607444">
        <ele>23.63</ele>
        <time>2015-06-19T15:57:01Z</time>
      </trkpt>
      <trkpt lat="36.017034" lon="-5.607326">
        <ele>23.61</ele>
        <time>2015-06-19T15:57:06Z</time>
      </trkpt>
      <trkpt lat="36.017015" lon="-5.607296">
        <ele>23.66</ele>
        <time>2015-06-19T15:57:07Z</time>
      </trkpt>
      <trkpt lat="36.016865" lon="-5.607150">
        <ele>24.07</ele>
        <time>2015-06-19T15:57:14Z</time>
      </trkpt>
      <trkpt lat="36.016840" lon="-5.607125">
        <ele>24.42</ele>
        <time>2015-06-19T15:57:15Z</time>
      </trkpt>
      <trkpt lat="36.016815" lon="-5.607101">
        <ele>24.86</ele>
        <time>2015-06-19T15:57:16Z</time>
      </trkpt>
      <trkpt lat="36.016790" lon="-5.607075">
        <ele>25.21</ele>
        <time>2015-06-19T15:57:17Z</time>
      </trkpt>
      <trkpt lat="36.016770" lon="-5.607050">
        <ele>25.83</ele>
        <time>2015-06-19T15:57:18Z</time>
      </trkpt>
      <trkpt lat="36.016689" lon="-5.606945">
        <ele>25.87</ele>
        <time>2015-06-19T15:57:22Z</time>
      </trkpt>
      <trkpt lat="36.016555" lon="-5.606817">
        <ele>26.26</ele>
        <time>2015-06-19T15:57:27Z</time>
      </trkpt>
      <trkpt lat="36.016532" lon="-5.606791">
        <ele>26.62</ele>
        <time>2015-06-19T15:57:28Z</time>
      </trkpt>
      <trkpt lat="36.016509" lon="-5.606767">
        <ele>27.08</ele>
        <time>2015-06-19T15:57:29Z</time>
      </trkpt>
      <trkpt lat="36.016478" lon="-5.606742">
        <ele>27.41</ele>
        <time>2015-06-19T15:57:30Z</time>
      </trkpt>
      <trkpt lat="36.016449" lon="-5.606716">
        <ele>27.81</ele>
        <time>2015-06-19T15:57:31Z</time>
      </trkpt>
      <trkpt lat="36.016384" lon="-5.606662">
        <ele>27.83</ele>
        <time>2015-06-19T15:57:33Z</time>
      </trkpt>
      <trkpt lat="36.016324" lon="-5.606609">
        <ele>27.82</ele>
        <time>2015-06-19T15:57:35Z</time>
      </trkpt>
      <trkpt lat="36.016215" lon="-5.606505">
        <ele>27.84</ele>
        <time>2015-06-19T15:57:39Z</time>
      </trkpt>
      <trkpt lat="36.016078" lon="-5.606364">
        <ele>27.89</ele>
        <time>2015-06-19T15:57:44Z</time>
      </trkpt>
      <trkpt lat="36.015878" lon="-5.606162">
        <ele>27.88</ele>
        <time>2015-06-19T15:57:52Z</time>
      </trkpt>
      <trkpt lat="36.015663" lon="-5.605949">
        <ele>27.85</ele>
        <time>2015-06-19T15:58:00Z</time>
      </trkpt>
      <trkpt lat="36.015428" lon="-5.605732">
        <ele>27.85</ele>
        <time>2015-06-19T15:58:08Z</time>
      </trkpt>
      <trkpt lat="36.015207" lon="-5.605511">
        <ele>27.90</ele>
        <time>2015-06-19T15:58:16Z</time>
      </trkpt>
      <trkpt lat="36.015016" lon="-5.605304">
        <ele>27.85</ele>
        <time>2015-06-19T15:58:23Z</time>
      </trkpt>
      <trkpt lat="36.014825" lon="-5.605130">
        <ele>27.80</ele>
        <time>2015-06-19T15:58:30Z</time>
      </trkpt>
      <trkpt lat="36.014688" lon="-5.604994">
        <ele>27.81</ele>
        <time>2015-06-19T15:58:36Z</time>
      </trkpt>
      <trkpt lat="36.014665" lon="-5.604971">
        <ele>27.81</ele>
        <time>2015-06-19T15:58:37Z</time>
      </trkpt>
      <trkpt lat="36.014619" lon="-5.604922">
        <ele>28.30</ele>
        <time>2015-06-19T15:58:39Z</time>
      </trkpt>
      <trkpt lat="36.014598" lon="-5.604893">
        <ele>29.21</ele>
        <time>2015-06-19T15:58:40Z</time>
      </trkpt>
      <trkpt lat="36.014577" lon="-5.604868">
        <ele>29.62</ele>
        <time>2015-06-19T15:58:41Z</time>
      </trkpt>
      <trkpt lat="36.014555" lon="-5.604845">
        <ele>30.02</ele>
        <time>2015-06-19T15:58:42Z</time>
      </trkpt>
      <trkpt lat="36.014515" lon="-5.604798">
        <ele>30.07</ele>
        <time>2015-06-19T15:58:44Z</time>
      </trkpt>
      <trkpt lat="36.014435" lon="-5.604658">
        <ele>30.05</ele>
        <time>2015-06-19T15:58:51Z</time>
      </trkpt>
      <trkpt lat="36.014426" lon="-5.604644">
        <ele>30.04</ele>
        <time>2015-06-19T15:58:55Z</time>
      </trkpt>
      <trkpt lat="36.014426" lon="-5.604644">
        <ele>30.08</ele>
        <time>2015-06-19T15:58:58Z</time>
      </trkpt>
      <trkpt lat="36.014426" lon="-5.604644">
        <ele>30.02</ele>
        <time>2015-06-19T15:59:06Z</time>
      </trkpt>
      <trkpt lat="36.014426" lon="-5.604644">
        <ele>30.09</ele>
        <time>2015-06-19T15:59:17Z</time>
      </trkpt>
      <trkpt lat="36.014426" lon="-5.604644">
        <ele>30.02</ele>
        <time>2015-06-19T15:59:22Z</time>
      </trkpt>
      <trkpt lat="36.014426" lon="-5.604644">
        <ele>30.01</ele>
        <time>2015-06-19T15:59:28Z</time>
      </trkpt>
      <trkpt lat="36.014426" lon="-5.604644">
        <ele>30.08</ele>
        <time>2015-06-19T15:59:34Z</time>
      </trkpt>
      <trkpt lat="36.014426" lon="-5.604644">
        <ele>30.04</ele>
        <time>2015-06-19T15:59:39Z</time>
      </trkpt>
      <trkpt lat="36.014426" lon="-5.604644">
        <ele>30.04</ele>
        <time>2015-06-19T15:59:41Z</time>
      </trkpt>
      <trkpt lat="36.014426" lon="-5.604644">
        <ele>30.03</ele>
        <time>2015-06-19T15:59:43Z</time>
      </trkpt>
      <trkpt lat="36.014421" lon="-5.604640">
        <ele>30.07</ele>
        <time>2015-06-19T15:59:54Z</time>
      </trkpt>
      <trkpt lat="36.014408" lon="-5.604627">
        <ele>30.06</ele>
        <time>2015-06-19T15:59:55Z</time>
      </trkpt>
      <trkpt lat="36.014333" lon="-5.604548">
        <ele>30.03</ele>
        <time>2015-06-19T15:59:58Z</time>
      </trkpt>
      <trkpt lat="36.014316" lon="-5.604507">
        <ele>30.07</ele>
        <time>2015-06-19T15:59:59Z</time>
      </trkpt>
      <trkpt lat="36.014344" lon="-5.604356">
        <ele>30.03</ele>
        <time>2015-06-19T16:00:03Z</time>
      </trkpt>
      <trkpt lat="36.014432" lon="-5.604214">
        <ele>30.06</ele>
        <time>2015-06-19T16:00:09Z</time>
      </trkpt>
      <trkpt lat="36.014452" lon="-5.604170">
        <ele>30.01</ele>
        <time>2015-06-19T16:00:11Z</time>
      </trkpt>
      <trkpt lat="36.014494" lon="-5.604108">
        <ele>30.41</ele>
        <time>2015-06-19T16:00:14Z</time>
      </trkpt>
      <trkpt lat="36.014505" lon="-5.604083">
        <ele>30.84</ele>
        <time>2015-06-19T16:00:15Z</time>
      </trkpt>
      <trkpt lat="36.014515" lon="-5.604059">
        <ele>31.24</ele>
        <time>2015-06-19T16:00:16Z</time>
      </trkpt>
      <trkpt lat="36.014529" lon="-5.604038">
        <ele>31.85</ele>
        <time>2015-06-19T16:00:17Z</time>
      </trkpt>
      <trkpt lat="36.014542" lon="-5.604015">
        <ele>32.24</ele>
        <time>2015-06-19T16:00:18Z</time>
      </trkpt>
      <trkpt lat="36.014626" lon="-5.603877">
        <ele>32.30</ele>
        <time>2015-06-19T16:00:24Z</time>
      </trkpt>
      <trkpt lat="36.014664" lon="-5.603812">
        <ele>32.23</ele>
        <time>2015-06-19T16:00:27Z</time>
      </trkpt>
      <trkpt lat="36.014701" lon="-5.603749">
        <ele>32.69</ele>
        <time>2015-06-19T16:00:30Z</time>
      </trkpt>
      <trkpt lat="36.014715" lon="-5.603731">
        <ele>33.09</ele>
        <time>2015-06-19T16:00:31Z</time>
      </trkpt>
      <trkpt lat="36.014729" lon="-5.603711">
        <ele>33.41</ele>
        <time>2015-06-19T16:00:32Z</time>
      </trkpt>
      <trkpt lat="36.014742" lon="-5.603688">
        <ele>33.84</ele>
        <time>2015-06-19T16:00:33Z</time>
      </trkpt>
      <trkpt lat="36.014754" lon="-5.603665">
        <ele>34.21</ele>
        <time>2015-06-19T16:00:34Z</time>
      </trkpt>
      <trkpt lat="36.014809" lon="-5.603581">
        <ele>34.21</ele>
        <time>2015-06-19T16:00:38Z</time>
      </trkpt>
      <trkpt lat="36.014822" lon="-5.603564">
        <ele>34.29</ele>
        <time>2015-06-19T16:00:39Z</time>
      </trkpt>
      <trkpt lat="36.014892" lon="-5.603456">
        <ele>35.04</ele>
        <time>2015-06-19T16:00:44Z</time>
      </trkpt>
      <trkpt lat="36.014902" lon="-5.603433">
        <ele>35.47</ele>
        <time>2015-06-19T16:00:45Z</time>
      </trkpt>
      <trkpt lat="36.014920" lon="-5.603412">
        <ele>36.03</ele>
        <time>2015-06-19T16:00:46Z</time>
      </trkpt>
      <trkpt lat="36.014934" lon="-5.603391">
        <ele>36.48</ele>
        <time>2015-06-19T16:00:47Z</time>
      </trkpt>
      <trkpt lat="36.014961" lon="-5.603326">
        <ele>36.44</ele>
        <time>2015-06-19T16:00:50Z</time>
      </trkpt>
      <trkpt lat="36.014956" lon="-5.603272">
        <ele>36.44</ele>
        <time>2015-06-19T16:00:53Z</time>
      </trkpt>
      <trkpt lat="36.014942" lon="-5.603262">
        <ele>36.41</ele>
        <time>2015-06-19T16:00:54Z</time>
      </trkpt>
      <trkpt lat="36.014892" lon="-5.603220">
        <ele>36.48</ele>
        <time>2015-06-19T16:00:57Z</time>
      </trkpt>
      <trkpt lat="36.014841" lon="-5.603168">
        <ele>36.49</ele>
        <time>2015-06-19T16:01:00Z</time>
      </trkpt>
      <trkpt lat="36.014822" lon="-5.603144">
        <ele>36.42</ele>
        <time>2015-06-19T16:01:01Z</time>
      </trkpt>
      <trkpt lat="36.014754" lon="-5.603077">
        <ele>36.01</ele>
        <time>2015-06-19T16:01:04Z</time>
      </trkpt>
      <trkpt lat="36.014732" lon="-5.603053">
        <ele>35.45</ele>
        <time>2015-06-19T16:01:05Z</time>
      </trkpt>
      <trkpt lat="36.014712" lon="-5.603036">
        <ele>35.02</ele>
        <time>2015-06-19T16:01:06Z</time>
      </trkpt>
      <trkpt lat="36.014691" lon="-5.603022">
        <ele>34.68</ele>
        <time>2015-06-19T16:01:07Z</time>
      </trkpt>
      <trkpt lat="36.014672" lon="-5.603001">
        <ele>34.29</ele>
        <time>2015-06-19T16:01:08Z</time>
      </trkpt>
      <trkpt lat="36.014633" lon="-5.602974">
        <ele>33.86</ele>
        <time>2015-06-19T16:01:10Z</time>
      </trkpt>
      <trkpt lat="36.014616" lon="-5.602963">
        <ele>33.48</ele>
        <time>2015-06-19T16:01:11Z</time>
      </trkpt>
      <trkpt lat="36.014593" lon="-5.602958">
        <ele>33.09</ele>
        <time>2015-06-19T16:01:12Z</time>
      </trkpt>
      <trkpt lat="36.014586" lon="-5.602948">
        <ele>32.46</ele>
        <time>2015-06-19T16:01:13Z</time>
      </trkpt>
      <trkpt lat="36.014583" lon="-5.602937">
        <ele>32.06</ele>
        <time>2015-06-19T16:01:14Z</time>
      </trkpt>
      <trkpt lat="36.014583" lon="-5.602937">
        <ele>32.01</ele>
        <time>2015-06-19T16:01:17Z</time>
      </trkpt>
      <trkpt lat="36.014583" lon="-5.602937">
        <ele>32.02</ele>
        <time>2015-06-19T16:01:26Z</time>
      </trkpt>
      <trkpt lat="36.014583" lon="-5.602937">
        <ele>32.01</ele>
        <time>2015-06-19T16:01:31Z</time>
      </trkpt>
      <trkpt lat="36.014578" lon="-5.602945">
        <ele>32.05</ele>
        <time>2015-06-19T16:01:33Z</time>
      </trkpt>
      <trkpt lat="36.014576" lon="-5.602946">
        <ele>32.02</ele>
        <time>2015-06-19T16:01:35Z</time>
      </trkpt>
      <trkpt lat="36.014576" lon="-5.602946">
        <ele>32.10</ele>
        <time>2015-06-19T16:01:40Z</time>
      </trkpt>
      <trkpt lat="36.014576" lon="-5.602946">
        <ele>32.03</ele>
        <time>2015-06-19T16:01:45Z</time>
      </trkpt>
      <trkpt lat="36.014576" lon="-5.602946">
        <ele>32.08</ele>
        <time>2015-06-19T16:01:54Z</time>
      </trkpt>
      <trkpt lat="36.014576" lon="-5.602946">
        <ele>32.08</ele>
        <time>2015-06-19T16:01:59Z</time>
      </trkpt>
      <trkpt lat="36.014576" lon="-5.602946">
        <ele>32.05</ele>
        <time>2015-06-19T16:02:11Z</time>
      </trkpt>
      <trkpt lat="36.014576" lon="-5.602947">
        <ele>32.06</ele>
        <time>2015-06-19T16:02:26Z</time>
      </trkpt>
      <trkpt lat="36.014570" lon="-5.602950">
        <ele>32.06</ele>
        <time>2015-06-19T16:02:35Z</time>
      </trkpt>
      <trkpt lat="36.014570" lon="-5.602950">
        <ele>32.08</ele>
        <time>2015-06-19T16:02:46Z</time>
      </trkpt>
      <trkpt lat="36.014570" lon="-5.602950">
        <ele>32.01</ele>
        <time>2015-06-19T16:02:47Z</time>
      </trkpt>
      <trkpt lat="36.014570" lon="-5.602950">
        <ele>32.01</ele>
        <time>2015-06-19T16:03:01Z</time>
      </trkpt>
      <trkpt lat="36.014570" lon="-5.602951">
        <ele>32.06</ele>
        <time>2015-06-19T16:03:13Z</time>
      </trkpt>
      <trkpt lat="36.014570" lon="-5.602951">
        <ele>32.03</ele>
        <time>2015-06-19T16:03:26Z</time>
      </trkpt>
      <trkpt lat="36.014570" lon="-5.602951">
        <ele>32.08</ele>
        <time>2015-06-19T16:03:43Z</time>
      </trkpt>
      <trkpt lat="36.014571" lon="-5.602953">
        <ele>32.07</ele>
        <time>2015-06-19T16:03:57Z</time>
      </trkpt>
      <trkpt lat="36.014571" lon="-5.602953">
        <ele>32.03</ele>
        <time>2015-06-19T16:04:09Z</time>
      </trkpt>
      <trkpt lat="36.014571" lon="-5.602953">
        <ele>32.04</ele>
        <time>2015-06-19T16:04:11Z</time>
      </trkpt>
      <trkpt lat="36.014571" lon="-5.602953">
        <ele>32.08</ele>
        <time>2015-06-19T16:04:12Z</time>
      </trkpt>
      <trkpt lat="36.014571" lon="-5.602953">
        <ele>32.06</ele>
        <time>2015-06-19T16:04:21Z</time>
      </trkpt>
      <trkpt lat="36.014571" lon="-5.602953">
        <ele>32.02</ele>
        <time>2015-06-19T16:04:26Z</time>
      </trkpt>
      <trkpt lat="36.014571" lon="-5.602953">
        <ele>32.00</ele>
        <time>2015-06-19T16:04:27Z</time>
      </trkpt>
      <trkpt lat="36.014547" lon="-5.602977">
        <ele>32.01</ele>
        <time>2015-06-19T16:04:30Z</time>
      </trkpt>
      <trkpt lat="36.014524" lon="-5.602996">
        <ele>32.01</ele>
        <time>2015-06-19T16:04:31Z</time>
      </trkpt>
      <trkpt lat="36.014494" lon="-5.603043">
        <ele>32.06</ele>
        <time>2015-06-19T16:04:33Z</time>
      </trkpt>
      <trkpt lat="36.014401" lon="-5.603238">
        <ele>32.09</ele>
        <time>2015-06-19T16:04:38Z</time>
      </trkpt>
      <trkpt lat="36.014374" lon="-5.603335">
        <ele>31.69</ele>
        <time>2015-06-19T16:04:40Z</time>
      </trkpt>
      <trkpt lat="36.014359" lon="-5.603388">
        <ele>31.23</ele>
        <time>2015-06-19T16:04:41Z</time>
      </trkpt>
      <trkpt lat="36.014343" lon="-5.603441">
        <ele>30.87</ele>
        <time>2015-06-19T16:04:42Z</time>
      </trkpt>
      <trkpt lat="36.014328" lon="-5.603493">
        <ele>30.44</ele>
        <time>2015-06-19T16:04:43Z</time>
      </trkpt>
      <trkpt lat="36.014312" lon="-5.603551">
        <ele>29.89</ele>
        <time>2015-06-19T16:04:44Z</time>
      </trkpt>
      <trkpt lat="36.014291" lon="-5.603653">
        <ele>29.90</ele>
        <time>2015-06-19T16:04:46Z</time>
      </trkpt>
      <trkpt lat="36.014244" lon="-5.603918">
        <ele>29.84</ele>
        <time>2015-06-19T16:04:51Z</time>
      </trkpt>
      <trkpt lat="36.014215" lon="-5.604074">
        <ele>29.48</ele>
        <time>2015-06-19T16:04:54Z</time>
      </trkpt>
      <trkpt lat="36.014199" lon="-5.604113">
        <ele>29.01</ele>
        <time>2015-06-19T16:04:55Z</time>
      </trkpt>
      <trkpt lat="36.014163" lon="-5.604147">
        <ele>28.61</ele>
        <time>2015-06-19T16:04:56Z</time>
      </trkpt>
      <trkpt lat="36.014145" lon="-5.604170">
        <ele>28.30</ele>
        <time>2015-06-19T16:04:57Z</time>
      </trkpt>
      <trkpt lat="36.014139" lon="-5.604181">
        <ele>27.85</ele>
        <time>2015-06-19T16:04:58Z</time>
      </trkpt>
      <trkpt lat="36.014117" lon="-5.604153">
        <ele>27.88</ele>
        <time>2015-06-19T16:05:00Z</time>
      </trkpt>
      <trkpt lat="36.014035" lon="-5.604050">
        <ele>27.47</ele>
        <time>2015-06-19T16:05:04Z</time>
      </trkpt>
      <trkpt lat="36.014005" lon="-5.604010">
        <ele>27.04</ele>
        <time>2015-06-19T16:05:05Z</time>
      </trkpt>
      <trkpt lat="36.013978" lon="-5.603976">
        <ele>26.63</ele>
        <time>2015-06-19T16:05:06Z</time>
      </trkpt>
      <trkpt lat="36.013957" lon="-5.603945">
        <ele>26.21</ele>
        <time>2015-06-19T16:05:07Z</time>
      </trkpt>
      <trkpt lat="36.013932" lon="-5.603909">
        <ele>25.82</ele>
        <time>2015-06-19T16:05:08Z</time>
      </trkpt>
      <trkpt lat="36.013840" lon="-5.603808">
        <ele>20.87</ele>
        <time>2015-06-19T16:11:00Z</time>
      </trkpt>
      <trkpt lat="36.013834" lon="-5.603829">
        <ele>21.24</ele>
        <time>2015-06-19T16:11:01Z</time>
      </trkpt>
      <trkpt lat="36.013827" lon="-5.603849">
        <ele>21.63</ele>
        <time>2015-06-19T16:11:02Z</time>
      </trkpt>
      <trkpt lat="36.013797" lon="-5.603904">
        <ele>21.61</ele>
        <time>2015-06-19T16:11:05Z</time>
      </trkpt>
      <trkpt lat="36.013757" lon="-5.603996">
        <ele>21.68</ele>
        <time>2015-06-19T16:11:08Z</time>
      </trkpt>
      <trkpt lat="36.013734" lon="-5.604020">
        <ele>21.63</ele>
        <time>2015-06-19T16:11:11Z</time>
      </trkpt>
      <trkpt lat="36.013701" lon="-5.604004">
        <ele>21.68</ele>
        <time>2015-06-19T16:11:13Z</time>
      </trkpt>
      <trkpt lat="36.013659" lon="-5.603967">
        <ele>21.69</ele>
        <time>2015-06-19T16:11:15Z</time>
      </trkpt>
      <trkpt lat="36.013643" lon="-5.603953">
        <ele>21.22</ele>
        <time>2015-06-19T16:11:16Z</time>
      </trkpt>
      <trkpt lat="36.013628" lon="-5.603941">
        <ele>20.83</ele>
        <time>2015-06-19T16:11:17Z</time>
      </trkpt>
      <trkpt lat="36.013611" lon="-5.603929">
        <ele>20.49</ele>
        <time>2015-06-19T16:11:18Z</time>
      </trkpt>
      <trkpt lat="36.013594" lon="-5.603913">
        <ele>20.07</ele>
        <time>2015-06-19T16:11:19Z</time>
      </trkpt>
      <trkpt lat="36.013577" lon="-5.603902">
        <ele>19.67</ele>
        <time>2015-06-19T16:11:20Z</time>
      </trkpt>
      <trkpt lat="36.013532" lon="-5.603841">
        <ele>19.68</ele>
        <time>2015-06-19T16:11:22Z</time>
      </trkpt>
      <trkpt lat="36.013490" lon="-5.603787">
        <ele>19.62</ele>
        <time>2015-06-19T16:11:24Z</time>
      </trkpt>
      <trkpt lat="36.013345" lon="-5.603727">
        <ele>19.01</ele>
        <time>2015-06-19T16:11:28Z</time>
      </trkpt>
      <trkpt lat="36.013303" lon="-5.603723">
        <ele>18.68</ele>
        <time>2015-06-19T16:11:29Z</time>
      </trkpt>
      <trkpt lat="36.013283" lon="-5.603714">
        <ele>18.28</ele>
        <time>2015-06-19T16:11:30Z</time>
      </trkpt>
      <trkpt lat="36.013266" lon="-5.603718">
        <ele>17.67</ele>
        <time>2015-06-19T16:11:31Z</time>
      </trkpt>
      <trkpt lat="36.013257" lon="-5.603715">
        <ele>17.29</ele>
        <time>2015-06-19T16:11:32Z</time>
      </trkpt>
      <trkpt lat="36.013235" lon="-5.603708">
        <ele>17.26</ele>
        <time>2015-06-19T16:11:34Z</time>
      </trkpt>
      <trkpt lat="36.013116" lon="-5.603680">
        <ele>17.22</ele>
        <time>2015-06-19T16:11:43Z</time>
      </trkpt>
      <trkpt lat="36.013116" lon="-5.603680">
        <ele>17.23</ele>
        <time>2015-06-19T16:11:46Z</time>
      </trkpt>
      <trkpt lat="36.013116" lon="-5.603680">
        <ele>17.25</ele>
        <time>2015-06-19T16:11:48Z</time>
      </trkpt>
      <trkpt lat="36.013116" lon="-5.603680">
        <ele>17.24</ele>
        <time>2015-06-19T16:11:51Z</time>
      </trkpt>
      <trkpt lat="36.013116" lon="-5.603680">
        <ele>17.22</ele>
        <time>2015-06-19T16:11:52Z</time>
      </trkpt>
      <trkpt lat="36.013116" lon="-5.603680">
        <ele>17.22</ele>
        <time>2015-06-19T16:12:02Z</time>
      </trkpt>
      <trkpt lat="36.013079" lon="-5.603685">
        <ele>17.21</ele>
        <time>2015-06-19T16:12:04Z</time>
      </trkpt>
      <trkpt lat="36.013019" lon="-5.603684">
        <ele>17.22</ele>
        <time>2015-06-19T16:12:08Z</time>
      </trkpt>
      <trkpt lat="36.013013" lon="-5.603682">
        <ele>17.25</ele>
        <time>2015-06-19T16:12:10Z</time>
      </trkpt>
      <trkpt lat="36.012997" lon="-5.603721">
        <ele>17.23</ele>
        <time>2015-06-19T16:12:14Z</time>
      </trkpt>
      <trkpt lat="36.012988" lon="-5.603731">
        <ele>17.29</ele>
        <time>2015-06-19T16:12:19Z</time>
      </trkpt>
      <trkpt lat="36.012986" lon="-5.603728">
        <ele>17.22</ele>
        <time>2015-06-19T16:12:20Z</time>
      </trkpt>
      <trkpt lat="36.012991" lon="-5.603739">
        <ele>17.27</ele>
        <time>2015-06-19T16:12:25Z</time>
      </trkpt>
      <trkpt lat="36.012993" lon="-5.603745">
        <ele>16.82</ele>
        <time>2015-06-19T16:12:28Z</time>
      </trkpt>
      <trkpt lat="36.012996" lon="-5.603755">
        <ele>16.42</ele>
        <time>2015-06-19T16:12:29Z</time>
      </trkpt>
      <trkpt lat="36.014394" lon="-5.604349">
        <ele>28.76</ele>
        <time>2015-06-20T05:29:54Z</time>
      </trkpt>
      <trkpt lat="36.014389" lon="-5.604366">
        <ele>28.62</ele>
        <time>2015-06-20T05:29:55Z</time>
      </trkpt>
      <trkpt lat="36.014383" lon="-5.604382">
        <ele>28.60</ele>
        <time>2015-06-20T05:29:56Z</time>
      </trkpt>
      <trkpt lat="36.014378" lon="-5.604393">
        <ele>28.48</ele>
        <time>2015-06-20T05:29:57Z</time>
      </trkpt>
      <trkpt lat="36.014365" lon="-5.604404">
        <ele>28.27</ele>
        <time>2015-06-20T05:29:58Z</time>
      </trkpt>
      <trkpt lat="36.014363" lon="-5.604415">
        <ele>28.24</ele>
        <time>2015-06-20T05:29:59Z</time>
      </trkpt>
      <trkpt lat="36.014313" lon="-5.604479">
        <ele>27.63</ele>
        <time>2015-06-20T05:30:03Z</time>
      </trkpt>
      <trkpt lat="36.014197" lon="-5.604665">
        <ele>26.91</ele>
        <time>2015-06-20T05:30:08Z</time>
      </trkpt>
      <trkpt lat="36.014179" lon="-5.604699">
        <ele>27.10</ele>
        <time>2015-06-20T05:30:09Z</time>
      </trkpt>
      <trkpt lat="36.014156" lon="-5.604738">
        <ele>26.85</ele>
        <time>2015-06-20T05:30:10Z</time>
      </trkpt>
      <trkpt lat="36.014136" lon="-5.604779">
        <ele>26.60</ele>
        <time>2015-06-20T05:30:11Z</time>
      </trkpt>
      <trkpt lat="36.014066" lon="-5.604897">
        <ele>25.52</ele>
        <time>2015-06-20T05:30:14Z</time>
      </trkpt>
      <trkpt lat="36.013908" lon="-5.605195">
        <ele>23.47</ele>
        <time>2015-06-20T05:30:21Z</time>
      </trkpt>
      <trkpt lat="36.013879" lon="-5.605241">
        <ele>23.14</ele>
        <time>2015-06-20T05:30:22Z</time>
      </trkpt>
      <trkpt lat="36.013743" lon="-5.605473">
        <ele>23.03</ele>
        <time>2015-06-20T05:30:27Z</time>
      </trkpt>
      <trkpt lat="36.013705" lon="-5.605514">
        <ele>23.11</ele>
        <time>2015-06-20T05:30:28Z</time>
      </trkpt>
      <trkpt lat="36.013670" lon="-5.605560">
        <ele>23.25</ele>
        <time>2015-06-20T05:30:29Z</time>
      </trkpt>
      <trkpt lat="36.013639" lon="-5.605600">
        <ele>23.16</ele>
        <time>2015-06-20T05:30:30Z</time>
      </trkpt>
      <trkpt lat="36.013604" lon="-5.605633">
        <ele>22.91</ele>
        <time>2015-06-20T05:30:31Z</time>
      </trkpt>
      <trkpt lat="36.013559" lon="-5.605641">
        <ele>22.31</ele>
        <time>2015-06-20T05:30:32Z</time>
      </trkpt>
      <trkpt lat="36.013358" lon="-5.605577">
        <ele>19.46</ele>
        <time>2015-06-20T05:30:36Z</time>
      </trkpt>
      <trkpt lat="36.013255" lon="-5.605511">
        <ele>17.75</ele>
        <time>2015-06-20T05:30:38Z</time>
      </trkpt>
      <trkpt lat="36.013200" lon="-5.605474">
        <ele>16.88</ele>
        <time>2015-06-20T05:30:39Z</time>
      </trkpt>
      <trkpt lat="36.013141" lon="-5.605435">
        <ele>15.89</ele>
        <time>2015-06-20T05:30:40Z</time>
      </trkpt>
      <trkpt lat="36.013090" lon="-5.605396">
        <ele>14.98</ele>
        <time>2015-06-20T05:30:41Z</time>
      </trkpt>
      <trkpt lat="36.013040" lon="-5.605362">
        <ele>14.19</ele>
        <time>2015-06-20T05:30:42Z</time>
      </trkpt>
      <trkpt lat="36.012980" lon="-5.605328">
        <ele>13.33</ele>
        <time>2015-06-20T05:30:43Z</time>
      </trkpt>
      <trkpt lat="36.012857" lon="-5.605253">
        <ele>11.92</ele>
        <time>2015-06-20T05:30:45Z</time>
      </trkpt>
      <trkpt lat="36.012793" lon="-5.605215">
        <ele>11.46</ele>
        <time>2015-06-20T05:30:46Z</time>
      </trkpt>
      <trkpt lat="36.012727" lon="-5.605172">
        <ele>11.04</ele>
        <time>2015-06-20T05:30:47Z</time>
      </trkpt>
      <trkpt lat="36.012658" lon="-5.605126">
        <ele>10.72</ele>
        <time>2015-06-20T05:30:48Z</time>
      </trkpt>
      <trkpt lat="36.012586" lon="-5.605078">
        <ele>10.31</ele>
        <time>2015-06-20T05:30:49Z</time>
      </trkpt>
      <trkpt lat="36.012510" lon="-5.605030">
        <ele>10.06</ele>
        <time>2015-06-20T05:30:50Z</time>
      </trkpt>
      <trkpt lat="36.012433" lon="-5.604981">
        <ele>9.66</ele>
        <time>2015-06-20T05:30:51Z</time>
      </trkpt>
      <trkpt lat="36.012350" lon="-5.604929">
        <ele>9.25</ele>
        <time>2015-06-20T05:30:52Z</time>
      </trkpt>
      <trkpt lat="36.012273" lon="-5.604883">
        <ele>8.89</ele>
        <time>2015-06-20T05:30:53Z</time>
      </trkpt>
      <trkpt lat="36.012199" lon="-5.604839">
        <ele>8.68</ele>
        <time>2015-06-20T05:30:54Z</time>
      </trkpt>
      <trkpt lat="36.012127" lon="-5.604799">
        <ele>8.77</ele>
        <time>2015-06-20T05:30:55Z</time>
      </trkpt>
      <trkpt lat="36.012054" lon="-5.604758">
        <ele>8.99</ele>
        <time>2015-06-20T05:30:56Z</time>
      </trkpt>
      <trkpt lat="36.011919" lon="-5.604676">
        <ele>8.99</ele>
        <time>2015-06-20T05:30:58Z</time>
      </trkpt>
      <trkpt lat="36.011675" lon="-5.604519">
        <ele>8.06</ele>
        <time>2015-06-20T05:31:02Z</time>
      </trkpt>
      <trkpt lat="36.011620" lon="-5.604484">
        <ele>7.80</ele>
        <time>2015-06-20T05:31:03Z</time>
      </trkpt>
      <trkpt lat="36.011570" lon="-5.604451">
        <ele>7.72</ele>
        <time>2015-06-20T05:31:04Z</time>
      </trkpt>
      <trkpt lat="36.011521" lon="-5.604423">
        <ele>7.41</ele>
        <time>2015-06-20T05:31:05Z</time>
      </trkpt>
      <trkpt lat="36.011478" lon="-5.604400">
        <ele>7.22</ele>
        <time>2015-06-20T05:31:06Z</time>
      </trkpt>
      <trkpt lat="36.011438" lon="-5.604365">
        <ele>6.96</ele>
        <time>2015-06-20T05:31:07Z</time>
      </trkpt>
      <trkpt lat="36.011410" lon="-5.604318">
        <ele>6.64</ele>
        <time>2015-06-20T05:31:08Z</time>
      </trkpt>
      <trkpt lat="36.011392" lon="-5.604265">
        <ele>6.47</ele>
        <time>2015-06-20T05:31:09Z</time>
      </trkpt>
      <trkpt lat="36.011392" lon="-5.604208">
        <ele>6.29</ele>
        <time>2015-06-20T05:31:10Z</time>
      </trkpt>
      <trkpt lat="36.011403" lon="-5.604156">
        <ele>6.08</ele>
        <time>2015-06-20T05:31:11Z</time>
      </trkpt>
      <trkpt lat="36.011433" lon="-5.604069">
        <ele>6.19</ele>
        <time>2015-06-20T05:31:13Z</time>
      </trkpt>
      <trkpt lat="36.011424" lon="-5.604030">
        <ele>6.17</ele>
        <time>2015-06-20T05:31:14Z</time>
      </trkpt>
      <trkpt lat="36.011395" lon="-5.603996">
        <ele>6.07</ele>
        <time>2015-06-20T05:31:15Z</time>
      </trkpt>
      <trkpt lat="36.011290" lon="-5.603947">
        <ele>4.98</ele>
        <time>2015-06-20T05:31:18Z</time>
      </trkpt>
      <trkpt lat="36.011250" lon="-5.603923">
        <ele>4.42</ele>
        <time>2015-06-20T05:31:19Z</time>
      </trkpt>
      <trkpt lat="36.011173" lon="-5.603868">
        <ele>3.91</ele>
        <time>2015-06-20T05:31:21Z</time>
      </trkpt>
      <trkpt lat="36.011104" lon="-5.603804">
        <ele>3.97</ele>
        <time>2015-06-20T05:31:23Z</time>
      </trkpt>
      <trkpt lat="36.011048" lon="-5.603658">
        <ele>4.84</ele>
        <time>2015-06-20T05:31:27Z</time>
      </trkpt>
      <trkpt lat="36.011060" lon="-5.603556">
        <ele>5.85</ele>
        <time>2015-06-20T05:31:31Z</time>
      </trkpt>
      <trkpt lat="36.011061" lon="-5.603541">
        <ele>6.05</ele>
        <time>2015-06-20T05:31:32Z</time>
      </trkpt>
      <trkpt lat="36.011066" lon="-5.603525">
        <ele>6.18</ele>
        <time>2015-06-20T05:31:33Z</time>
      </trkpt>
      <trkpt lat="36.011069" lon="-5.603507">
        <ele>6.40</ele>
        <time>2015-06-20T05:31:34Z</time>
      </trkpt>
      <trkpt lat="36.011072" lon="-5.603492">
        <ele>6.49</ele>
        <time>2015-06-20T05:31:35Z</time>
      </trkpt>
      <trkpt lat="36.011084" lon="-5.603434">
        <ele>7.05</ele>
        <time>2015-06-20T05:31:38Z</time>
      </trkpt>
      <trkpt lat="36.011097" lon="-5.603395">
        <ele>7.49</ele>
        <time>2015-06-20T05:31:40Z</time>
      </trkpt>
      <trkpt lat="36.011136" lon="-5.603236">
        <ele>8.22</ele>
        <time>2015-06-20T05:31:47Z</time>
      </trkpt>
      <trkpt lat="36.011137" lon="-5.603218">
        <ele>8.23</ele>
        <time>2015-06-20T05:31:48Z</time>
      </trkpt>
      <trkpt lat="36.011183" lon="-5.603055">
        <ele>8.81</ele>
        <time>2015-06-20T05:31:55Z</time>
      </trkpt>
      <trkpt lat="36.011249" lon="-5.602860">
        <ele>9.13</ele>
        <time>2015-06-20T05:32:02Z</time>
      </trkpt>
      <trkpt lat="36.011293" lon="-5.602704">
        <ele>9.66</ele>
        <time>2015-06-20T05:32:07Z</time>
      </trkpt>
      <trkpt lat="36.011309" lon="-5.602536">
        <ele>9.87</ele>
        <time>2015-06-20T05:32:12Z</time>
      </trkpt>
      <trkpt lat="36.011312" lon="-5.602500">
        <ele>9.93</ele>
        <time>2015-06-20T05:32:13Z</time>
      </trkpt>
      <trkpt lat="36.011300" lon="-5.602349">
        <ele>9.75</ele>
        <time>2015-06-20T05:32:17Z</time>
      </trkpt>
      <trkpt lat="36.011292" lon="-5.602313">
        <ele>9.70</ele>
        <time>2015-06-20T05:32:18Z</time>
      </trkpt>
      <trkpt lat="36.011279" lon="-5.602281">
        <ele>9.43</ele>
        <time>2015-06-20T05:32:19Z</time>
      </trkpt>
      <trkpt lat="36.011276" lon="-5.602244">
        <ele>9.48</ele>
        <time>2015-06-20T05:32:20Z</time>
      </trkpt>
      <trkpt lat="36.011275" lon="-5.602209">
        <ele>9.43</ele>
        <time>2015-06-20T05:32:21Z</time>
      </trkpt>
      <trkpt lat="36.011290" lon="-5.602096">
        <ele>9.76</ele>
        <time>2015-06-20T05:32:24Z</time>
      </trkpt>
      <trkpt lat="36.011359" lon="-5.601926">
        <ele>10.71</ele>
        <time>2015-06-20T05:32:30Z</time>
      </trkpt>
      <trkpt lat="36.011417" lon="-5.601808">
        <ele>11.71</ele>
        <time>2015-06-20T05:32:34Z</time>
      </trkpt>
      <trkpt lat="36.011459" lon="-5.601732">
        <ele>12.11</ele>
        <time>2015-06-20T05:32:37Z</time>
      </trkpt>
      <trkpt lat="36.011528" lon="-5.601584">
        <ele>12.28</ele>
        <time>2015-06-20T05:32:43Z</time>
      </trkpt>
      <trkpt lat="36.011537" lon="-5.601564">
        <ele>12.28</ele>
        <time>2015-06-20T05:32:44Z</time>
      </trkpt>
      <trkpt lat="36.011599" lon="-5.601406">
        <ele>12.34</ele>
        <time>2015-06-20T05:32:50Z</time>
      </trkpt>
      <trkpt lat="36.011627" lon="-5.601220">
        <ele>11.48</ele>
        <time>2015-06-20T05:32:57Z</time>
      </trkpt>
      <trkpt lat="36.011618" lon="-5.601201">
        <ele>11.14</ele>
        <time>2015-06-20T05:32:58Z</time>
      </trkpt>
      <trkpt lat="36.011582" lon="-5.601186">
        <ele>10.68</ele>
        <time>2015-06-20T05:33:01Z</time>
      </trkpt>
      <trkpt lat="36.011565" lon="-5.601163">
        <ele>10.38</ele>
        <time>2015-06-20T05:33:04Z</time>
      </trkpt>
      <trkpt lat="36.011564" lon="-5.601126">
        <ele>10.09</ele>
        <time>2015-06-20T05:33:06Z</time>
      </trkpt>
      <trkpt lat="36.011553" lon="-5.601043">
        <ele>9.22</ele>
        <time>2015-06-20T05:33:11Z</time>
      </trkpt>
      <trkpt lat="36.011542" lon="-5.600936">
        <ele>8.23</ele>
        <time>2015-06-20T05:33:16Z</time>
      </trkpt>
      <trkpt lat="36.011534" lon="-5.600928">
        <ele>8.01</ele>
        <time>2015-06-20T05:33:20Z</time>
      </trkpt>
      <trkpt lat="36.011534" lon="-5.600928">
        <ele>8.04</ele>
        <time>2015-06-20T05:33:28Z</time>
      </trkpt>
      <trkpt lat="36.011534" lon="-5.600928">
        <ele>8.10</ele>
        <time>2015-06-20T05:33:34Z</time>
      </trkpt>
      <trkpt lat="36.011534" lon="-5.600928">
        <ele>8.03</ele>
        <time>2015-06-20T05:33:38Z</time>
      </trkpt>
      <trkpt lat="36.011534" lon="-5.600928">
        <ele>8.06</ele>
        <time>2015-06-20T05:33:41Z</time>
      </trkpt>
      <trkpt lat="36.011534" lon="-5.600928">
        <ele>8.08</ele>
        <time>2015-06-20T05:33:44Z</time>
      </trkpt>
      <trkpt lat="36.011534" lon="-5.600928">
        <ele>8.08</ele>
        <time>2015-06-20T05:33:45Z</time>
      </trkpt>
      <trkpt lat="36.011534" lon="-5.600928">
        <ele>8.02</ele>
        <time>2015-06-20T05:33:50Z</time>
      </trkpt>
      <trkpt lat="36.011534" lon="-5.600928">
        <ele>8.06</ele>
        <time>2015-06-20T05:33:56Z</time>
      </trkpt>
      <trkpt lat="36.011534" lon="-5.600928">
        <ele>8.03</ele>
        <time>2015-06-20T05:33:57Z</time>
      </trkpt>
      <trkpt lat="36.011534" lon="-5.600928">
        <ele>8.05</ele>
        <time>2015-06-20T05:33:58Z</time>
      </trkpt>
      <trkpt lat="36.011533" lon="-5.600927">
        <ele>7.91</ele>
        <time>2015-06-20T05:33:59Z</time>
      </trkpt>
      <trkpt lat="36.011533" lon="-5.600927">
        <ele>7.91</ele>
        <time>2015-06-20T05:34:00Z</time>
      </trkpt>
      <trkpt lat="36.011533" lon="-5.600927">
        <ele>7.97</ele>
        <time>2015-06-20T05:34:15Z</time>
      </trkpt>
      <trkpt lat="36.011533" lon="-5.600927">
        <ele>7.94</ele>
        <time>2015-06-20T05:34:26Z</time>
      </trkpt>
      <trkpt lat="36.011533" lon="-5.600927">
        <ele>7.95</ele>
        <time>2015-06-20T05:34:32Z</time>
      </trkpt>
      <trkpt lat="36.011536" lon="-5.600930">
        <ele>8.05</ele>
        <time>2015-06-20T05:34:47Z</time>
      </trkpt>
      <trkpt lat="36.011536" lon="-5.600930">
        <ele>8.07</ele>
        <time>2015-06-20T05:35:01Z</time>
      </trkpt>
      <trkpt lat="36.011536" lon="-5.600930">
        <ele>8.09</ele>
        <time>2015-06-20T05:35:05Z</time>
      </trkpt>
      <trkpt lat="36.011537" lon="-5.600930">
        <ele>8.09</ele>
        <time>2015-06-20T05:35:20Z</time>
      </trkpt>
      <trkpt lat="36.011537" lon="-5.600930">
        <ele>8.04</ele>
        <time>2015-06-20T05:35:26Z</time>
      </trkpt>
      <trkpt lat="36.011537" lon="-5.600930">
        <ele>8.04</ele>
        <time>2015-06-20T05:35:29Z</time>
      </trkpt>
      <trkpt lat="36.011539" lon="-5.600918">
        <ele>8.02</ele>
        <time>2015-06-20T05:35:30Z</time>
      </trkpt>
      <trkpt lat="36.011543" lon="-5.600878">
        <ele>7.71</ele>
        <time>2015-06-20T05:35:32Z</time>
      </trkpt>
      <trkpt lat="36.011563" lon="-5.600796">
        <ele>7.51</ele>
        <time>2015-06-20T05:35:35Z</time>
      </trkpt>
      <trkpt lat="36.011577" lon="-5.600742">
        <ele>7.38</ele>
        <time>2015-06-20T05:35:37Z</time>
      </trkpt>
      <trkpt lat="36.011621" lon="-5.600622">
        <ele>7.06</ele>
        <time>2015-06-20T05:35:42Z</time>
      </trkpt>
      <trkpt lat="36.011645" lon="-5.600578">
        <ele>6.93</ele>
        <time>2015-06-20T05:35:44Z</time>
      </trkpt>
      <trkpt lat="36.011680" lon="-5.600491">
        <ele>6.86</ele>
        <time>2015-06-20T05:35:49Z</time>
      </trkpt>
      <trkpt lat="36.011680" lon="-5.600477">
        <ele>6.77</ele>
        <time>2015-06-20T05:35:50Z</time>
      </trkpt>
      <trkpt lat="36.011696" lon="-5.600421">
        <ele>6.59</ele>
        <time>2015-06-20T05:35:55Z</time>
      </trkpt>
      <trkpt lat="36.011727" lon="-5.600335">
        <ele>6.32</ele>
        <time>2015-06-20T05:35:59Z</time>
      </trkpt>
      <trkpt lat="36.011735" lon="-5.600312">
        <ele>6.35</ele>
        <time>2015-06-20T05:36:00Z</time>
      </trkpt>
      <trkpt lat="36.011740" lon="-5.600294">
        <ele>6.28</ele>
        <time>2015-06-20T05:36:01Z</time>
      </trkpt>
      <trkpt lat="36.011748" lon="-5.600273">
        <ele>6.14</ele>
        <time>2015-06-20T05:36:02Z</time>
      </trkpt>
      <trkpt lat="36.011786" lon="-5.600153">
        <ele>5.62</ele>
        <time>2015-06-20T05:36:07Z</time>
      </trkpt>
      <trkpt lat="36.011840" lon="-5.599987">
        <ele>4.81</ele>
        <time>2015-06-20T05:36:14Z</time>
      </trkpt>
      <trkpt lat="36.011933" lon="-5.599845">
        <ele>5.34</ele>
        <time>2015-06-20T05:36:21Z</time>
      </trkpt>
      <trkpt lat="36.012041" lon="-5.599736">
        <ele>6.89</ele>
        <time>2015-06-20T05:36:28Z</time>
      </trkpt>
      <trkpt lat="36.012054" lon="-5.599715">
        <ele>7.10</ele>
        <time>2015-06-20T05:36:29Z</time>
      </trkpt>
      <trkpt lat="36.012157" lon="-5.599570">
        <ele>8.83</ele>
        <time>2015-06-20T05:36:37Z</time>
      </trkpt>
      <trkpt lat="36.012163" lon="-5.599549">
        <ele>8.98</ele>
        <time>2015-06-20T05:36:38Z</time>
      </trkpt>
      <trkpt lat="36.012179" lon="-5.599530">
        <ele>9.25</ele>
        <time>2015-06-20T05:36:39Z</time>
      </trkpt>
      <trkpt lat="36.012315" lon="-5.599450">
        <ele>12.73</ele>
        <time>2015-06-20T05:44:49Z</time>
      </trkpt>
      <trkpt lat="36.012383" lon="-5.599513">
        <ele>14.59</ele>
        <time>2015-06-20T05:44:52Z</time>
      </trkpt>
      <trkpt lat="36.012453" lon="-5.599578">
        <ele>16.29</ele>
        <time>2015-06-20T05:44:57Z</time>
      </trkpt>
      <trkpt lat="36.012497" lon="-5.599611">
        <ele>17.37</ele>
        <time>2015-06-20T05:45:00Z</time>
      </trkpt>
      <trkpt lat="36.012530" lon="-5.599632">
        <ele>17.92</ele>
        <time>2015-06-20T05:45:02Z</time>
      </trkpt>
      <trkpt lat="36.012560" lon="-5.599656">
        <ele>18.41</ele>
        <time>2015-06-20T05:45:04Z</time>
      </trkpt>
      <trkpt lat="36.012586" lon="-5.599677">
        <ele>18.95</ele>
        <time>2015-06-20T05:45:06Z</time>
      </trkpt>
      <trkpt lat="36.012626" lon="-5.599708">
        <ele>19.72</ele>
        <time>2015-06-20T05:45:09Z</time>
      </trkpt>
      <trkpt lat="36.012650" lon="-5.599728">
        <ele>20.26</ele>
        <time>2015-06-20T05:45:11Z</time>
      </trkpt>
      <trkpt lat="36.012707" lon="-5.599748">
        <ele>21.52</ele>
        <time>2015-06-20T05:45:15Z</time>
      </trkpt>
      <trkpt lat="36.012740" lon="-5.599763">
        <ele>22.30</ele>
        <time>2015-06-20T05:45:17Z</time>
      </trkpt>
      <trkpt lat="36.012751" lon="-5.599781">
        <ele>22.42</ele>
        <time>2015-06-20T05:45:18Z</time>
      </trkpt>
      <trkpt lat="36.012762" lon="-5.599791">
        <ele>22.72</ele>
        <time>2015-06-20T05:45:19Z</time>
      </trkpt>
      <trkpt lat="36.012772" lon="-5.599800">
        <ele>22.97</ele>
        <time>2015-06-20T05:45:20Z</time>
      </trkpt>
      <trkpt lat="36.012783" lon="-5.599811">
        <ele>23.11</ele>
        <time>2015-06-20T05:45:21Z</time>
      </trkpt>
      <trkpt lat="36.012797" lon="-5.599815">
        <ele>23.33</ele>
        <time>2015-06-20T05:45:22Z</time>
      </trkpt>
      <trkpt lat="36.012825" lon="-5.599828">
        <ele>23.70</ele>
        <time>2015-06-20T05:45:24Z</time>
      </trkpt>
      <trkpt lat="36.012856" lon="-5.599843">
        <ele>24.11</ele>
        <time>2015-06-20T05:45:26Z</time>
      </trkpt>
      <trkpt lat="36.012871" lon="-5.599853">
        <ele>24.31</ele>
        <time>2015-06-20T05:45:27Z</time>
      </trkpt>
      <trkpt lat="36.012886" lon="-5.599860">
        <ele>24.70</ele>
        <time>2015-06-20T05:45:28Z</time>
      </trkpt>
      <trkpt lat="36.012901" lon="-5.599866">
        <ele>24.84</ele>
        <time>2015-06-20T05:45:29Z</time>
      </trkpt>
      <trkpt lat="36.012918" lon="-5.599869">
        <ele>25.03</ele>
        <time>2015-06-20T05:45:30Z</time>
      </trkpt>
      <trkpt lat="36.012934" lon="-5.599869">
        <ele>25.23</ele>
        <time>2015-06-20T05:45:31Z</time>
      </trkpt>
      <trkpt lat="36.013036" lon="-5.599888">
        <ele>26.72</ele>
        <time>2015-06-20T05:45:37Z</time>
      </trkpt>
      <trkpt lat="36.013054" lon="-5.599894">
        <ele>27.09</ele>
        <time>2015-06-20T05:45:38Z</time>
      </trkpt>
      <trkpt lat="36.013074" lon="-5.599900">
        <ele>27.06</ele>
        <time>2015-06-20T05:45:39Z</time>
      </trkpt>
      <trkpt lat="36.013094" lon="-5.599906">
        <ele>27.04</ele>
        <time>2015-06-20T05:45:40Z</time>
      </trkpt>
      <trkpt lat="36.013112" lon="-5.599906">
        <ele>27.00</ele>
        <time>2015-06-20T05:45:41Z</time>
      </trkpt>
      <trkpt lat="36.013145" lon="-5.599867">
        <ele>27.11</ele>
        <time>2015-06-20T05:45:59Z</time>
      </trkpt>
      <trkpt lat="36.013121" lon="-5.599831">
        <ele>27.21</ele>
        <time>2015-06-20T05:46:02Z</time>
      </trkpt>
      <trkpt lat="36.013095" lon="-5.599820">
        <ele>27.18</ele>
        <time>2015-06-20T05:46:04Z</time>
      </trkpt>
      <trkpt lat="36.013065" lon="-5.599786">
        <ele>27.09</ele>
        <time>2015-06-20T05:46:07Z</time>
      </trkpt>
      <trkpt lat="36.013032" lon="-5.599704">
        <ele>26.62</ele>
        <time>2015-06-20T05:46:12Z</time>
      </trkpt>
      <trkpt lat="36.013021" lon="-5.599685">
        <ele>26.44</ele>
        <time>2015-06-20T05:46:13Z</time>
      </trkpt>
      <trkpt lat="36.012999" lon="-5.599638">
        <ele>25.98</ele>
        <time>2015-06-20T05:46:16Z</time>
      </trkpt>
      <trkpt lat="36.012996" lon="-5.599622">
        <ele>25.84</ele>
        <time>2015-06-20T05:46:17Z</time>
      </trkpt>
      <trkpt lat="36.012994" lon="-5.599602">
        <ele>25.76</ele>
        <time>2015-06-20T05:46:18Z</time>
      </trkpt>
      <trkpt lat="36.012991" lon="-5.599582">
        <ele>25.63</ele>
        <time>2015-06-20T05:46:19Z</time>
      </trkpt>
      <trkpt lat="36.012987" lon="-5.599560">
        <ele>25.47</ele>
        <time>2015-06-20T05:46:20Z</time>
      </trkpt>
      <trkpt lat="36.012983" lon="-5.599538">
        <ele>25.34</ele>
        <time>2015-06-20T05:46:21Z</time>
      </trkpt>
      <trkpt lat="36.012948" lon="-5.599369">
        <ele>24.61</ele>
        <time>2015-06-20T05:46:28Z</time>
      </trkpt>
      <trkpt lat="36.012917" lon="-5.599180">
        <ele>24.51</ele>
        <time>2015-06-20T05:46:34Z</time>
      </trkpt>
      <trkpt lat="36.012910" lon="-5.599152">
        <ele>24.55</ele>
        <time>2015-06-20T05:46:35Z</time>
      </trkpt>
      <trkpt lat="36.012862" lon="-5.599016">
        <ele>24.69</ele>
        <time>2015-06-20T05:46:40Z</time>
      </trkpt>
      <trkpt lat="36.012799" lon="-5.598954">
        <ele>24.17</ele>
        <time>2015-06-20T05:46:43Z</time>
      </trkpt>
      <trkpt lat="36.012727" lon="-5.598864">
        <ele>23.45</ele>
        <time>2015-06-20T05:46:47Z</time>
      </trkpt>
      <trkpt lat="36.012718" lon="-5.598814">
        <ele>23.47</ele>
        <time>2015-06-20T05:46:49Z</time>
      </trkpt>
      <trkpt lat="36.012718" lon="-5.598771">
        <ele>23.70</ele>
        <time>2015-06-20T05:46:51Z</time>
      </trkpt>
      <trkpt lat="36.012723" lon="-5.598687">
        <ele>23.95</ele>
        <time>2015-06-20T05:46:55Z</time>
      </trkpt>
      <trkpt lat="36.012736" lon="-5.598599">
        <ele>24.47</ele>
        <time>2015-06-20T05:46:59Z</time>
      </trkpt>
      <trkpt lat="36.012748" lon="-5.598578">
        <ele>24.78</ele>
        <time>2015-06-20T05:47:00Z</time>
      </trkpt>
      <trkpt lat="36.012773" lon="-5.598544">
        <ele>25.20</ele>
        <time>2015-06-20T05:47:02Z</time>
      </trkpt>
      <trkpt lat="36.012827" lon="-5.598489">
        <ele>26.13</ele>
        <time>2015-06-20T05:47:06Z</time>
      </trkpt>
      <trkpt lat="36.012875" lon="-5.598434">
        <ele>26.81</ele>
        <time>2015-06-20T05:47:10Z</time>
      </trkpt>
      <trkpt lat="36.012888" lon="-5.598424">
        <ele>27.09</ele>
        <time>2015-06-20T05:47:11Z</time>
      </trkpt>
      <trkpt lat="36.012901" lon="-5.598409">
        <ele>27.28</ele>
        <time>2015-06-20T05:47:12Z</time>
      </trkpt>
      <trkpt lat="36.012916" lon="-5.598399">
        <ele>27.47</ele>
        <time>2015-06-20T05:47:13Z</time>
      </trkpt>
      <trkpt lat="36.012932" lon="-5.598388">
        <ele>27.70</ele>
        <time>2015-06-20T05:47:14Z</time>
      </trkpt>
      <trkpt lat="36.012971" lon="-5.598342">
        <ele>28.14</ele>
        <time>2015-06-20T05:47:17Z</time>
      </trkpt>
      <trkpt lat="36.013018" lon="-5.598297">
        <ele>28.80</ele>
        <time>2015-06-20T05:47:21Z</time>
      </trkpt>
      <trkpt lat="36.013030" lon="-5.598284">
        <ele>28.91</ele>
        <time>2015-06-20T05:47:22Z</time>
      </trkpt>
      <trkpt lat="36.013041" lon="-5.598270">
        <ele>29.15</ele>
        <time>2015-06-20T05:47:23Z</time>
      </trkpt>
      <trkpt lat="36.013052" lon="-5.598253">
        <ele>29.36</ele>
        <time>2015-06-20T05:47:24Z</time>
      </trkpt>
      <trkpt lat="36.013063" lon="-5.598234">
        <ele>29.58</ele>
        <time>2015-06-20T05:47:25Z</time>
      </trkpt>
      <trkpt lat="36.013100" lon="-5.598174">
        <ele>30.11</ele>
        <time>2015-06-20T05:47:29Z</time>
      </trkpt>
      <trkpt lat="36.013119" lon="-5.598145">
        <ele>30.41</ele>
        <time>2015-06-20T05:47:31Z</time>
      </trkpt>
      <trkpt lat="36.013131" lon="-5.598131">
        <ele>30.64</ele>
        <time>2015-06-20T05:47:32Z</time>
      </trkpt>
      <trkpt lat="36.013142" lon="-5.598115">
        <ele>30.82</ele>
        <time>2015-06-20T05:47:33Z</time>
      </trkpt>
      <trkpt lat="36.013154" lon="-5.598101">
        <ele>31.06</ele>
        <time>2015-06-20T05:47:34Z</time>
      </trkpt>
      <trkpt lat="36.013167" lon="-5.598090">
        <ele>31.11</ele>
        <time>2015-06-20T05:47:35Z</time>
      </trkpt>
      <trkpt lat="36.013187" lon="-5.598074">
        <ele>31.46</ele>
        <time>2015-06-20T05:47:37Z</time>
      </trkpt>
      <trkpt lat="36.013241" lon="-5.597982">
        <ele>32.49</ele>
        <time>2015-06-20T05:47:43Z</time>
      </trkpt>
      <trkpt lat="36.013245" lon="-5.597965">
        <ele>32.53</ele>
        <time>2015-06-20T05:47:44Z</time>
      </trkpt>
      <trkpt lat="36.013250" lon="-5.597948">
        <ele>32.67</ele>
        <time>2015-06-20T05:47:45Z</time>
      </trkpt>
      <trkpt lat="36.013256" lon="-5.597931">
        <ele>32.76</ele>
        <time>2015-06-20T05:47:46Z</time>
      </trkpt>
      <trkpt lat="36.013263" lon="-5.597912">
        <ele>32.96</ele>
        <time>2015-06-20T05:47:47Z</time>
      </trkpt>
      <trkpt lat="36.013286" lon="-5.597855">
        <ele>33.31</ele>
        <time>2015-06-20T05:47:50Z</time>
      </trkpt>
      <trkpt lat="36.013329" lon="-5.597756">
        <ele>34.11</ele>
        <time>2015-06-20T05:47:55Z</time>
      </trkpt>
      <trkpt lat="36.013336" lon="-5.597735">
        <ele>34.39</ele>
        <time>2015-06-20T05:47:56Z</time>
      </trkpt>
      <trkpt lat="36.013344" lon="-5.597714">
        <ele>34.57</ele>
        <time>2015-06-20T05:47:57Z</time>
      </trkpt>
      <trkpt lat="36.013351" lon="-5.597693">
        <ele>34.63</ele>
        <time>2015-06-20T05:47:58Z</time>
      </trkpt>
      <trkpt lat="36.013358" lon="-5.597677">
        <ele>34.77</ele>
        <time>2015-06-20T05:47:59Z</time>
      </trkpt>
      <trkpt lat="36.013403" lon="-5.597594">
        <ele>35.33</ele>
        <time>2015-06-20T05:48:04Z</time>
      </trkpt>
      <trkpt lat="36.013454" lon="-5.597502">
        <ele>36.03</ele>
        <time>2015-06-20T05:48:10Z</time>
      </trkpt>
      <trkpt lat="36.013478" lon="-5.597443">
        <ele>36.29</ele>
        <time>2015-06-20T05:48:14Z</time>
      </trkpt>
      <trkpt lat="36.013488" lon="-5.597429">
        <ele>36.35</ele>
        <time>2015-06-20T05:48:15Z</time>
      </trkpt>
      <trkpt lat="36.013498" lon="-5.597408">
        <ele>36.46</ele>
        <time>2015-06-20T05:48:16Z</time>
      </trkpt>
      <trkpt lat="36.013505" lon="-5.597386">
        <ele>36.50</ele>
        <time>2015-06-20T05:48:17Z</time>
      </trkpt>
      <trkpt lat="36.013527" lon="-5.597321">
        <ele>36.92</ele>
        <time>2015-06-20T05:48:20Z</time>
      </trkpt>
      <trkpt lat="36.013530" lon="-5.597300">
        <ele>37.01</ele>
        <time>2015-06-20T05:48:21Z</time>
      </trkpt>
      <trkpt lat="36.013555" lon="-5.597151">
        <ele>37.59</ele>
        <time>2015-06-20T05:48:28Z</time>
      </trkpt>
      <trkpt lat="36.013560" lon="-5.597111">
        <ele>37.68</ele>
        <time>2015-06-20T05:48:30Z</time>
      </trkpt>
      <trkpt lat="36.013568" lon="-5.597091">
        <ele>37.70</ele>
        <time>2015-06-20T05:48:31Z</time>
      </trkpt>
      <trkpt lat="36.013579" lon="-5.597075">
        <ele>37.78</ele>
        <time>2015-06-20T05:48:32Z</time>
      </trkpt>
      <trkpt lat="36.013586" lon="-5.597053">
        <ele>37.87</ele>
        <time>2015-06-20T05:48:33Z</time>
      </trkpt>
      <trkpt lat="36.013595" lon="-5.597029">
        <ele>37.87</ele>
        <time>2015-06-20T05:48:34Z</time>
      </trkpt>
      <trkpt lat="36.013612" lon="-5.596964">
        <ele>38.07</ele>
        <time>2015-06-20T05:48:37Z</time>
      </trkpt>
      <trkpt lat="36.013623" lon="-5.596921">
        <ele>38.17</ele>
        <time>2015-06-20T05:48:39Z</time>
      </trkpt>
      <trkpt lat="36.013631" lon="-5.596882">
        <ele>38.16</ele>
        <time>2015-06-20T05:48:41Z</time>
      </trkpt>
      <trkpt lat="36.013653" lon="-5.596814">
        <ele>38.37</ele>
        <time>2015-06-20T05:48:44Z</time>
      </trkpt>
      <trkpt lat="36.013687" lon="-5.596730">
        <ele>38.51</ele>
        <time>2015-06-20T05:48:49Z</time>
      </trkpt>
      <trkpt lat="36.013740" lon="-5.596579">
        <ele>38.81</ele>
        <time>2015-06-20T05:48:56Z</time>
      </trkpt>
      <trkpt lat="36.013791" lon="-5.596480">
        <ele>39.14</ele>
        <time>2015-06-20T05:49:01Z</time>
      </trkpt>
      <trkpt lat="36.013803" lon="-5.596461">
        <ele>39.28</ele>
        <time>2015-06-20T05:49:02Z</time>
      </trkpt>
      <trkpt lat="36.013905" lon="-5.596282">
        <ele>40.25</ele>
        <time>2015-06-20T05:49:11Z</time>
      </trkpt>
      <trkpt lat="36.013934" lon="-5.596222">
        <ele>40.53</ele>
        <time>2015-06-20T05:49:14Z</time>
      </trkpt>
      <trkpt lat="36.013949" lon="-5.596204">
        <ele>40.76</ele>
        <time>2015-06-20T05:49:15Z</time>
      </trkpt>
      <trkpt lat="36.013963" lon="-5.596187">
        <ele>40.96</ele>
        <time>2015-06-20T05:49:16Z</time>
      </trkpt>
      <trkpt lat="36.013977" lon="-5.596171">
        <ele>41.15</ele>
        <time>2015-06-20T05:49:17Z</time>
      </trkpt>
      <trkpt lat="36.013990" lon="-5.596157">
        <ele>41.31</ele>
        <time>2015-06-20T05:49:18Z</time>
      </trkpt>
      <trkpt lat="36.014020" lon="-5.596095">
        <ele>41.95</ele>
        <time>2015-06-20T05:49:22Z</time>
      </trkpt>
      <trkpt lat="36.014073" lon="-5.596015">
        <ele>42.85</ele>
        <time>2015-06-20T05:49:28Z</time>
      </trkpt>
      <trkpt lat="36.014129" lon="-5.595956">
        <ele>43.51</ele>
        <time>2015-06-20T05:49:33Z</time>
      </trkpt>
      <trkpt lat="36.014144" lon="-5.595941">
        <ele>43.71</ele>
        <time>2015-06-20T05:49:34Z</time>
      </trkpt>
      <trkpt lat="36.014155" lon="-5.595927">
        <ele>43.95</ele>
        <time>2015-06-20T05:49:35Z</time>
      </trkpt>
      <trkpt lat="36.014167" lon="-5.595916">
        <ele>44.02</ele>
        <time>2015-06-20T05:49:36Z</time>
      </trkpt>
      <trkpt lat="36.014178" lon="-5.595900">
        <ele>44.19</ele>
        <time>2015-06-20T05:49:37Z</time>
      </trkpt>
      <trkpt lat="36.014216" lon="-5.595848">
        <ele>44.49</ele>
        <time>2015-06-20T05:49:40Z</time>
      </trkpt>
      <trkpt lat="36.014277" lon="-5.595769">
        <ele>44.81</ele>
        <time>2015-06-20T05:49:45Z</time>
      </trkpt>
      <trkpt lat="36.014338" lon="-5.595709">
        <ele>45.23</ele>
        <time>2015-06-20T05:49:50Z</time>
      </trkpt>
      <trkpt lat="36.014398" lon="-5.595653">
        <ele>45.73</ele>
        <time>2015-06-20T05:49:55Z</time>
      </trkpt>
      <trkpt lat="36.014411" lon="-5.595637">
        <ele>45.82</ele>
        <time>2015-06-20T05:49:56Z</time>
      </trkpt>
      <trkpt lat="36.014420" lon="-5.595617">
        <ele>45.88</ele>
        <time>2015-06-20T05:49:57Z</time>
      </trkpt>
      <trkpt lat="36.014429" lon="-5.595598">
        <ele>45.99</ele>
        <time>2015-06-20T05:49:58Z</time>
      </trkpt>
      <trkpt lat="36.014453" lon="-5.595547">
        <ele>46.02</ele>
        <time>2015-06-20T05:50:01Z</time>
      </trkpt>
      <trkpt lat="36.014473" lon="-5.595458">
        <ele>45.51</ele>
        <time>2015-06-20T05:50:06Z</time>
      </trkpt>
      <trkpt lat="36.014487" lon="-5.595428">
        <ele>45.46</ele>
        <time>2015-06-20T05:50:11Z</time>
      </trkpt>
      <trkpt lat="36.014487" lon="-5.595428">
        <ele>45.48</ele>
        <time>2015-06-20T05:50:21Z</time>
      </trkpt>
      <trkpt lat="36.014487" lon="-5.595428">
        <ele>45.46</ele>
        <time>2015-06-20T05:50:28Z</time>
      </trkpt>
      <trkpt lat="36.014487" lon="-5.595428">
        <ele>45.44</ele>
        <time>2015-06-20T05:50:30Z</time>
      </trkpt>
      <trkpt lat="36.014487" lon="-5.595428">
        <ele>45.42</ele>
        <time>2015-06-20T05:50:32Z</time>
      </trkpt>
      <trkpt lat="36.014487" lon="-5.595428">
        <ele>45.48</ele>
        <time>2015-06-20T05:50:34Z</time>
      </trkpt>
      <trkpt lat="36.014487" lon="-5.595428">
        <ele>45.42</ele>
        <time>2015-06-20T05:50:38Z</time>
      </trkpt>
      <trkpt lat="36.014487" lon="-5.595428">
        <ele>45.49</ele>
        <time>2015-06-20T05:50:42Z</time>
      </trkpt>
      <trkpt lat="36.014491" lon="-5.595413">
        <ele>45.33</ele>
        <time>2015-06-20T05:50:47Z</time>
      </trkpt>
      <trkpt lat="36.014499" lon="-5.595387">
        <ele>45.29</ele>
        <time>2015-06-20T05:50:49Z</time>
      </trkpt>
      <trkpt lat="36.014528" lon="-5.595329">
        <ele>45.01</ele>
        <time>2015-06-20T05:50:52Z</time>
      </trkpt>
      <trkpt lat="36.014598" lon="-5.595207">
        <ele>44.61</ele>
        <time>2015-06-20T05:50:57Z</time>
      </trkpt>
      <trkpt lat="36.014631" lon="-5.595136">
        <ele>44.57</ele>
        <time>2015-06-20T05:50:59Z</time>
      </trkpt>
      <trkpt lat="36.014647" lon="-5.595101">
        <ele>44.56</ele>
        <time>2015-06-20T05:51:00Z</time>
      </trkpt>
      <trkpt lat="36.014667" lon="-5.595068">
        <ele>44.57</ele>
        <time>2015-06-20T05:51:01Z</time>
      </trkpt>
      <trkpt lat="36.014684" lon="-5.595040">
        <ele>44.69</ele>
        <time>2015-06-20T05:51:02Z</time>
      </trkpt>
      <trkpt lat="36.014697" lon="-5.595015">
        <ele>44.77</ele>
        <time>2015-06-20T05:51:03Z</time>
      </trkpt>
      <trkpt lat="36.014711" lon="-5.594995">
        <ele>44.88</ele>
        <time>2015-06-20T05:51:04Z</time>
      </trkpt>
      <trkpt lat="36.014720" lon="-5.594979">
        <ele>44.83</ele>
        <time>2015-06-20T05:51:05Z</time>
      </trkpt>
      <trkpt lat="36.014733" lon="-5.594937">
        <ele>44.66</ele>
        <time>2015-06-20T05:51:07Z</time>
      </trkpt>
      <trkpt lat="36.014739" lon="-5.594911">
        <ele>44.57</ele>
        <time>2015-06-20T05:51:08Z</time>
      </trkpt>
      <trkpt lat="36.014745" lon="-5.594883">
        <ele>44.44</ele>
        <time>2015-06-20T05:51:09Z</time>
      </trkpt>
      <trkpt lat="36.014749" lon="-5.594858">
        <ele>44.23</ele>
        <time>2015-06-20T05:51:10Z</time>
      </trkpt>
      <trkpt lat="36.014753" lon="-5.594833">
        <ele>44.11</ele>
        <time>2015-06-20T05:51:11Z</time>
      </trkpt>
      <trkpt lat="36.014762" lon="-5.594686">
        <ele>43.49</ele>
        <time>2015-06-20T05:51:18Z</time>
      </trkpt>
      <trkpt lat="36.014762" lon="-5.594686">
        <ele>43.41</ele>
        <time>2015-06-20T05:51:28Z</time>
      </trkpt>
      <trkpt lat="36.014762" lon="-5.594686">
        <ele>43.46</ele>
        <time>2015-06-20T05:51:38Z</time>
      </trkpt>
      <trkpt lat="36.014762" lon="-5.594686">
        <ele>43.43</ele>
        <time>2015-06-20T05:51:41Z</time>
      </trkpt>
      <trkpt lat="36.014762" lon="-5.594686">
        <ele>43.43</ele>
        <time>2015-06-20T05:51:47Z</time>
      </trkpt>
      <trkpt lat="36.014762" lon="-5.594686">
        <ele>43.44</ele>
        <time>2015-06-20T05:51:50Z</time>
      </trkpt>
      <trkpt lat="36.014761" lon="-5.594670">
        <ele>43.44</ele>
        <time>2015-06-20T05:51:56Z</time>
      </trkpt>
      <trkpt lat="36.014764" lon="-5.594660">
        <ele>43.48</ele>
        <time>2015-06-20T05:51:57Z</time>
      </trkpt>
      <trkpt lat="36.014770" lon="-5.594566">
        <ele>43.44</ele>
        <time>2015-06-20T05:52:01Z</time>
      </trkpt>
      <trkpt lat="36.014795" lon="-5.594399">
        <ele>43.09</ele>
        <time>2015-06-20T05:52:07Z</time>
      </trkpt>
      <trkpt lat="36.014827" lon="-5.594311">
        <ele>42.31</ele>
        <time>2015-06-20T05:52:11Z</time>
      </trkpt>
      <trkpt lat="36.014886" lon="-5.594188">
        <ele>41.41</ele>
        <time>2015-06-20T05:52:15Z</time>
      </trkpt>
      <trkpt lat="36.014991" lon="-5.593977">
        <ele>40.64</ele>
        <time>2015-06-20T05:52:20Z</time>
      </trkpt>
      <trkpt lat="36.015009" lon="-5.593898">
        <ele>40.15</ele>
        <time>2015-06-20T05:52:22Z</time>
      </trkpt>
      <trkpt lat="36.015001" lon="-5.593739">
        <ele>39.59</ele>
        <time>2015-06-20T05:52:27Z</time>
      </trkpt>
      <trkpt lat="36.014962" lon="-5.593647">
        <ele>39.04</ele>
        <time>2015-06-20T05:52:31Z</time>
      </trkpt>
      <trkpt lat="36.014954" lon="-5.593627">
        <ele>38.93</ele>
        <time>2015-06-20T05:52:32Z</time>
      </trkpt>
      <trkpt lat="36.014946" lon="-5.593608">
        <ele>38.86</ele>
        <time>2015-06-20T05:52:33Z</time>
      </trkpt>
      <trkpt lat="36.014939" lon="-5.593582">
        <ele>38.94</ele>
        <time>2015-06-20T05:52:34Z</time>
      </trkpt>
      <trkpt lat="36.014935" lon="-5.593550">
        <ele>38.91</ele>
        <time>2015-06-20T05:52:35Z</time>
      </trkpt>
      <trkpt lat="36.014933" lon="-5.593472">
        <ele>39.19</ele>
        <time>2015-06-20T05:52:37Z</time>
      </trkpt>
      <trkpt lat="36.014978" lon="-5.593282">
        <ele>39.71</ele>
        <time>2015-06-20T05:52:42Z</time>
      </trkpt>
      <trkpt lat="36.014990" lon="-5.593249">
        <ele>39.63</ele>
        <time>2015-06-20T05:52:43Z</time>
      </trkpt>
      <trkpt lat="36.015001" lon="-5.593215">
        <ele>39.61</ele>
        <time>2015-06-20T05:52:44Z</time>
      </trkpt>
      <trkpt lat="36.015012" lon="-5.593179">
        <ele>39.67</ele>
        <time>2015-06-20T05:52:45Z</time>
      </trkpt>
      <trkpt lat="36.015025" lon="-5.593144">
        <ele>39.66</ele>
        <time>2015-06-20T05:52:46Z</time>
      </trkpt>
      <trkpt lat="36.015042" lon="-5.593113">
        <ele>39.79</ele>
        <time>2015-06-20T05:52:47Z</time>
      </trkpt>
      <trkpt lat="36.015075" lon="-5.593052">
        <ele>40.15</ele>
        <time>2015-06-20T05:52:49Z</time>
      </trkpt>
      <trkpt lat="36.015161" lon="-5.592929">
        <ele>41.22</ele>
        <time>2015-06-20T05:52:55Z</time>
      </trkpt>
      <trkpt lat="36.015241" lon="-5.592777">
        <ele>41.75</ele>
        <time>2015-06-20T05:53:00Z</time>
      </trkpt>
      <trkpt lat="36.015265" lon="-5.592742">
        <ele>41.98</ele>
        <time>2015-06-20T05:53:01Z</time>
      </trkpt>
      <trkpt lat="36.015291" lon="-5.592711">
        <ele>42.23</ele>
        <time>2015-06-20T05:53:02Z</time>
      </trkpt>
      <trkpt lat="36.015314" lon="-5.592679">
        <ele>42.43</ele>
        <time>2015-06-20T05:53:03Z</time>
      </trkpt>
      <trkpt lat="36.015327" lon="-5.592646">
        <ele>42.52</ele>
        <time>2015-06-20T05:53:04Z</time>
      </trkpt>
      <trkpt lat="36.015337" lon="-5.592613">
        <ele>42.62</ele>
        <time>2015-06-20T05:53:05Z</time>
      </trkpt>
      <trkpt lat="36.015339" lon="-5.592577">
        <ele>42.61</ele>
        <time>2015-06-20T05:53:06Z</time>
      </trkpt>
      <trkpt lat="36.015313" lon="-5.592384">
        <ele>43.02</ele>
        <time>2015-06-20T05:53:12Z</time>
      </trkpt>
      <trkpt lat="36.015255" lon="-5.592298">
        <ele>43.68</ele>
        <time>2015-06-20T05:53:17Z</time>
      </trkpt>
      <trkpt lat="36.015208" lon="-5.592271">
        <ele>44.13</ele>
        <time>2015-06-20T05:53:20Z</time>
      </trkpt>
      <trkpt lat="36.015164" lon="-5.592258">
        <ele>44.51</ele>
        <time>2015-06-20T05:53:23Z</time>
      </trkpt>
      <trkpt lat="36.015147" lon="-5.592254">
        <ele>44.64</ele>
        <time>2015-06-20T05:53:24Z</time>
      </trkpt>
      <trkpt lat="36.015133" lon="-5.592251">
        <ele>44.71</ele>
        <time>2015-06-20T05:53:25Z</time>
      </trkpt>
      <trkpt lat="36.015115" lon="-5.592251">
        <ele>44.86</ele>
        <time>2015-06-20T05:53:26Z</time>
      </trkpt>
      <trkpt lat="36.015092" lon="-5.592246">
        <ele>45.18</ele>
        <time>2015-06-20T05:53:27Z</time>
      </trkpt>
      <trkpt lat="36.015029" lon="-5.592248">
        <ele>45.49</ele>
        <time>2015-06-20T05:53:30Z</time>
      </trkpt>
      <trkpt lat="36.014910" lon="-5.592270">
        <ele>45.47</ele>
        <time>2015-06-20T05:53:36Z</time>
      </trkpt>
      <trkpt lat="36.014890" lon="-5.592276">
        <ele>45.32</ele>
        <time>2015-06-20T05:53:37Z</time>
      </trkpt>
      <trkpt lat="36.014868" lon="-5.592284">
        <ele>45.21</ele>
        <time>2015-06-20T05:53:38Z</time>
      </trkpt>
      <trkpt lat="36.014848" lon="-5.592292">
        <ele>45.19</ele>
        <time>2015-06-20T05:53:39Z</time>
      </trkpt>
      <trkpt lat="36.014828" lon="-5.592299">
        <ele>45.18</ele>
        <time>2015-06-20T05:53:40Z</time>
      </trkpt>
      <trkpt lat="36.014810" lon="-5.592306">
        <ele>45.04</ele>
        <time>2015-06-20T05:53:41Z</time>
      </trkpt>
      <trkpt lat="36.014792" lon="-5.592311">
        <ele>45.09</ele>
        <time>2015-06-20T05:53:42Z</time>
      </trkpt>
      <trkpt lat="36.014742" lon="-5.592335">
        <ele>44.84</ele>
        <time>2015-06-20T05:53:45Z</time>
      </trkpt>
      <trkpt lat="36.014664" lon="-5.592364">
        <ele>44.87</ele>
        <time>2015-06-20T05:53:50Z</time>
      </trkpt>
      <trkpt lat="36.014627" lon="-5.592381">
        <ele>44.90</ele>
        <time>2015-06-20T05:53:52Z</time>
      </trkpt>
      <trkpt lat="36.014605" lon="-5.592386">
        <ele>44.96</ele>
        <time>2015-06-20T05:53:53Z</time>
      </trkpt>
      <trkpt lat="36.014583" lon="-5.592387">
        <ele>45.02</ele>
        <time>2015-06-20T05:53:54Z</time>
      </trkpt>
      <trkpt lat="36.014563" lon="-5.592387">
        <ele>45.16</ele>
        <time>2015-06-20T05:53:55Z</time>
      </trkpt>
      <trkpt lat="36.014541" lon="-5.592381">
        <ele>45.31</ele>
        <time>2015-06-20T05:53:56Z</time>
      </trkpt>
      <trkpt lat="36.014439" lon="-5.592285">
        <ele>46.51</ele>
        <time>2015-06-20T05:54:01Z</time>
      </trkpt>
      <trkpt lat="36.014365" lon="-5.592137">
        <ele>47.76</ele>
        <time>2015-06-20T05:54:06Z</time>
      </trkpt>
      <trkpt lat="36.014259" lon="-5.591991">
        <ele>49.23</ele>
        <time>2015-06-20T05:54:12Z</time>
      </trkpt>
      <trkpt lat="36.014125" lon="-5.591888">
        <ele>49.57</ele>
        <time>2015-06-20T05:54:19Z</time>
      </trkpt>
      <trkpt lat="36.014100" lon="-5.591869">
        <ele>49.17</ele>
        <time>2015-06-20T05:54:20Z</time>
      </trkpt>
      <trkpt lat="36.014076" lon="-5.591857">
        <ele>48.72</ele>
        <time>2015-06-20T05:54:21Z</time>
      </trkpt>
      <trkpt lat="36.014050" lon="-5.591842">
        <ele>48.38</ele>
        <time>2015-06-20T05:54:22Z</time>
      </trkpt>
      <trkpt lat="36.014024" lon="-5.591826">
        <ele>47.97</ele>
        <time>2015-06-20T05:54:23Z</time>
      </trkpt>
      <trkpt lat="36.013948" lon="-5.591778">
        <ele>46.73</ele>
        <time>2015-06-20T05:54:26Z</time>
      </trkpt>
      <trkpt lat="36.013885" lon="-5.591720">
        <ele>45.78</ele>
        <time>2015-06-20T05:54:29Z</time>
      </trkpt>
      <trkpt lat="36.013873" lon="-5.591694">
        <ele>45.71</ele>
        <time>2015-06-20T05:54:30Z</time>
      </trkpt>
      <trkpt lat="36.013859" lon="-5.591668">
        <ele>45.62</ele>
        <time>2015-06-20T05:54:31Z</time>
      </trkpt>
      <trkpt lat="36.013846" lon="-5.591641">
        <ele>45.21</ele>
        <time>2015-06-20T05:54:32Z</time>
      </trkpt>
      <trkpt lat="36.013838" lon="-5.591610">
        <ele>44.89</ele>
        <time>2015-06-20T05:54:33Z</time>
      </trkpt>
      <trkpt lat="36.013831" lon="-5.591578">
        <ele>44.45</ele>
        <time>2015-06-20T05:54:34Z</time>
      </trkpt>
      <trkpt lat="36.013836" lon="-5.591502">
        <ele>43.84</ele>
        <time>2015-06-20T05:54:36Z</time>
      </trkpt>
      <trkpt lat="36.013871" lon="-5.591337">
        <ele>43.24</ele>
        <time>2015-06-20T05:54:40Z</time>
      </trkpt>
      <trkpt lat="36.013887" lon="-5.591296">
        <ele>43.40</ele>
        <time>2015-06-20T05:54:41Z</time>
      </trkpt>
      <trkpt lat="36.013906" lon="-5.591256">
        <ele>43.44</ele>
        <time>2015-06-20T05:54:42Z</time>
      </trkpt>
      <trkpt lat="36.013922" lon="-5.591214">
        <ele>43.47</ele>
        <time>2015-06-20T05:54:43Z</time>
      </trkpt>
      <trkpt lat="36.013933" lon="-5.591174">
        <ele>43.39</ele>
        <time>2015-06-20T05:54:44Z</time>
      </trkpt>
      <trkpt lat="36.013948" lon="-5.591136">
        <ele>43.34</ele>
        <time>2015-06-20T05:54:45Z</time>
      </trkpt>
      <trkpt lat="36.013962" lon="-5.591100">
        <ele>43.17</ele>
        <time>2015-06-20T05:54:46Z</time>
      </trkpt>
      <trkpt lat="36.013980" lon="-5.591064">
        <ele>42.82</ele>
        <time>2015-06-20T05:54:47Z</time>
      </trkpt>
      <trkpt lat="36.013996" lon="-5.591024">
        <ele>42.41</ele>
        <time>2015-06-20T05:54:48Z</time>
      </trkpt>
      <trkpt lat="36.014012" lon="-5.590981">
        <ele>41.97</ele>
        <time>2015-06-20T05:54:49Z</time>
      </trkpt>
      <trkpt lat="36.014026" lon="-5.590933">
        <ele>41.35</ele>
        <time>2015-06-20T05:54:50Z</time>
      </trkpt>
      <trkpt lat="36.014040" lon="-5.590882">
        <ele>40.67</ele>
        <time>2015-06-20T05:54:51Z</time>
      </trkpt>
      <trkpt lat="36.014055" lon="-5.590830">
        <ele>39.94</ele>
        <time>2015-06-20T05:54:52Z</time>
      </trkpt>
      <trkpt lat="36.014069" lon="-5.590779">
        <ele>39.13</ele>
        <time>2015-06-20T05:54:53Z</time>
      </trkpt>
      <trkpt lat="36.014083" lon="-5.590732">
        <ele>38.31</ele>
        <time>2015-06-20T05:54:54Z</time>
      </trkpt>
      <trkpt lat="36.014100" lon="-5.590691">
        <ele>37.76</ele>
        <time>2015-06-20T05:54:55Z</time>
      </trkpt>
      <trkpt lat="36.014124" lon="-5.590657">
        <ele>37.46</ele>
        <time>2015-06-20T05:54:56Z</time>
      </trkpt>
      <trkpt lat="36.014149" lon="-5.590623">
        <ele>37.15</ele>
        <time>2015-06-20T05:54:57Z</time>
      </trkpt>
      <trkpt lat="36.014181" lon="-5.590588">
        <ele>37.00</ele>
        <time>2015-06-20T05:54:58Z</time>
      </trkpt>
      <trkpt lat="36.014218" lon="-5.590561">
        <ele>37.41</ele>
        <time>2015-06-20T05:54:59Z</time>
      </trkpt>
      <trkpt lat="36.014261" lon="-5.590530">
        <ele>37.91</ele>
        <time>2015-06-20T05:55:00Z</time>
      </trkpt>
      <trkpt lat="36.014304" lon="-5.590502">
        <ele>38.45</ele>
        <time>2015-06-20T05:55:01Z</time>
      </trkpt>
      <trkpt lat="36.014345" lon="-5.590484">
        <ele>39.09</ele>
        <time>2015-06-20T05:55:02Z</time>
      </trkpt>
      <trkpt lat="36.014386" lon="-5.590461">
        <ele>39.66</ele>
        <time>2015-06-20T05:55:03Z</time>
      </trkpt>
      <trkpt lat="36.014461" lon="-5.590395">
        <ele>40.03</ele>
        <time>2015-06-20T05:55:05Z</time>
      </trkpt>
      <trkpt lat="36.014489" lon="-5.590350">
        <ele>39.90</ele>
        <time>2015-06-20T05:55:06Z</time>
      </trkpt>
      <trkpt lat="36.014511" lon="-5.590300">
        <ele>39.46</ele>
        <time>2015-06-20T05:55:07Z</time>
      </trkpt>
      <trkpt lat="36.014524" lon="-5.590244">
        <ele>38.84</ele>
        <time>2015-06-20T05:55:08Z</time>
      </trkpt>
      <trkpt lat="36.014536" lon="-5.590192">
        <ele>38.46</ele>
        <time>2015-06-20T05:55:09Z</time>
      </trkpt>
      <trkpt lat="36.014555" lon="-5.590088">
        <ele>37.57</ele>
        <time>2015-06-20T05:55:11Z</time>
      </trkpt>
      <trkpt lat="36.014584" lon="-5.589992">
        <ele>36.91</ele>
        <time>2015-06-20T05:55:13Z</time>
      </trkpt>
      <trkpt lat="36.014656" lon="-5.589808">
        <ele>36.71</ele>
        <time>2015-06-20T05:55:17Z</time>
      </trkpt>
      <trkpt lat="36.014710" lon="-5.589670">
        <ele>36.41</ele>
        <time>2015-06-20T05:55:20Z</time>
      </trkpt>
      <trkpt lat="36.014729" lon="-5.589624">
        <ele>36.57</ele>
        <time>2015-06-20T05:55:21Z</time>
      </trkpt>
      <trkpt lat="36.014745" lon="-5.589576">
        <ele>36.58</ele>
        <time>2015-06-20T05:55:22Z</time>
      </trkpt>
      <trkpt lat="36.014761" lon="-5.589528">
        <ele>36.69</ele>
        <time>2015-06-20T05:55:23Z</time>
      </trkpt>
      <trkpt lat="36.014774" lon="-5.589482">
        <ele>36.62</ele>
        <time>2015-06-20T05:55:24Z</time>
      </trkpt>
      <trkpt lat="36.014829" lon="-5.589341">
        <ele>36.74</ele>
        <time>2015-06-20T05:55:29Z</time>
      </trkpt>
      <trkpt lat="36.014825" lon="-5.589309">
        <ele>36.36</ele>
        <time>2015-06-20T05:55:30Z</time>
      </trkpt>
      <trkpt lat="36.014836" lon="-5.589207">
        <ele>35.71</ele>
        <time>2015-06-20T05:55:33Z</time>
      </trkpt>
      <trkpt lat="36.014875" lon="-5.589076">
        <ele>35.63</ele>
        <time>2015-06-20T05:55:37Z</time>
      </trkpt>
      <trkpt lat="36.014898" lon="-5.589015">
        <ele>35.69</ele>
        <time>2015-06-20T05:55:39Z</time>
      </trkpt>
      <trkpt lat="36.014923" lon="-5.588952">
        <ele>35.72</ele>
        <time>2015-06-20T05:55:41Z</time>
      </trkpt>
      <trkpt lat="36.014961" lon="-5.588815">
        <ele>35.43</ele>
        <time>2015-06-20T05:55:45Z</time>
      </trkpt>
      <trkpt lat="36.014971" lon="-5.588783">
        <ele>35.31</ele>
        <time>2015-06-20T05:55:46Z</time>
      </trkpt>
      <trkpt lat="36.015033" lon="-5.588586">
        <ele>34.99</ele>
        <time>2015-06-20T05:55:52Z</time>
      </trkpt>
      <trkpt lat="36.015047" lon="-5.588556">
        <ele>35.28</ele>
        <time>2015-06-20T05:55:53Z</time>
      </trkpt>
      <trkpt lat="36.015087" lon="-5.588463">
        <ele>35.86</ele>
        <time>2015-06-20T05:55:56Z</time>
      </trkpt>
      <trkpt lat="36.015203" lon="-5.588322">
        <ele>37.34</ele>
        <time>2015-06-20T05:56:01Z</time>
      </trkpt>
      <trkpt lat="36.015346" lon="-5.588260">
        <ele>39.67</ele>
        <time>2015-06-20T05:56:06Z</time>
      </trkpt>
      <trkpt lat="36.015503" lon="-5.588170">
        <ele>41.20</ele>
        <time>2015-06-20T05:56:12Z</time>
      </trkpt>
      <trkpt lat="36.015695" lon="-5.588055">
        <ele>42.59</ele>
        <time>2015-06-20T05:56:19Z</time>
      </trkpt>
      <trkpt lat="36.015840" lon="-5.587970">
        <ele>44.55</ele>
        <time>2015-06-20T05:56:25Z</time>
      </trkpt>
      <trkpt lat="36.015884" lon="-5.587941">
        <ele>44.98</ele>
        <time>2015-06-20T05:56:27Z</time>
      </trkpt>
      <trkpt lat="36.015975" lon="-5.587882">
        <ele>45.89</ele>
        <time>2015-06-20T05:56:32Z</time>
      </trkpt>
      <trkpt lat="36.016096" lon="-5.587861">
        <ele>47.42</ele>
        <time>2015-06-20T05:56:39Z</time>
      </trkpt>
      <trkpt lat="36.016140" lon="-5.587842">
        <ele>47.61</ele>
        <time>2015-06-20T05:56:42Z</time>
      </trkpt>
      <trkpt lat="36.016167" lon="-5.587844">
        <ele>47.79</ele>
        <time>2015-06-20T05:56:44Z</time>
      </trkpt>
      <trkpt lat="36.016185" lon="-5.587848">
        <ele>47.88</ele>
        <time>2015-06-20T05:56:45Z</time>
      </trkpt>
      <trkpt lat="36.016200" lon="-5.587859">
        <ele>47.97</ele>
        <time>2015-06-20T05:56:46Z</time>
      </trkpt>
      <trkpt lat="36.016222" lon="-5.587867">
        <ele>48.06</ele>
        <time>2015-06-20T05:56:47Z</time>
      </trkpt>
      <trkpt lat="36.016239" lon="-5.587878">
        <ele>48.23</ele>
        <time>2015-06-20T05:56:48Z</time>
      </trkpt>
      <trkpt lat="36.016283" lon="-5.587883">
        <ele>48.47</ele>
        <time>2015-06-20T05:56:51Z</time>
      </trkpt>
      <trkpt lat="36.016366" lon="-5.587887">
        <ele>48.72</ele>
        <time>2015-06-20T05:56:56Z</time>
      </trkpt>
      <trkpt lat="36.016433" lon="-5.587872">
        <ele>49.38</ele>
        <time>2015-06-20T05:57:00Z</time>
      </trkpt>
      <trkpt lat="36.016501" lon="-5.587816">
        <ele>49.87</ele>
        <time>2015-06-20T05:57:04Z</time>
      </trkpt>
      <trkpt lat="36.016512" lon="-5.587810">
        <ele>50.01</ele>
        <time>2015-06-20T05:57:05Z</time>
      </trkpt>
      <trkpt lat="36.016520" lon="-5.587804">
        <ele>50.01</ele>
        <time>2015-06-20T05:57:06Z</time>
      </trkpt>
      <trkpt lat="36.016530" lon="-5.587800">
        <ele>50.21</ele>
        <time>2015-06-20T05:57:07Z</time>
      </trkpt>
      <trkpt lat="36.016538" lon="-5.587794">
        <ele>50.27</ele>
        <time>2015-06-20T05:57:08Z</time>
      </trkpt>
      <trkpt lat="36.016555" lon="-5.587748">
        <ele>50.39</ele>
        <time>2015-06-20T05:57:11Z</time>
      </trkpt>
      <trkpt lat="36.016548" lon="-5.587660">
        <ele>50.04</ele>
        <time>2015-06-20T05:57:16Z</time>
      </trkpt>
      <trkpt lat="36.016546" lon="-5.587635">
        <ele>50.05</ele>
        <time>2015-06-20T05:57:17Z</time>
      </trkpt>
      <trkpt lat="36.016481" lon="-5.587486">
        <ele>49.14</ele>
        <time>2015-06-20T05:57:23Z</time>
      </trkpt>
      <trkpt lat="36.016381" lon="-5.587414">
        <ele>48.98</ele>
        <time>2015-06-20T05:57:28Z</time>
      </trkpt>
      <trkpt lat="36.016358" lon="-5.587411">
        <ele>49.07</ele>
        <time>2015-06-20T05:57:29Z</time>
      </trkpt>
      <trkpt lat="36.016335" lon="-5.587412">
        <ele>49.19</ele>
        <time>2015-06-20T05:57:30Z</time>
      </trkpt>
      <trkpt lat="36.016312" lon="-5.587412">
        <ele>49.17</ele>
        <time>2015-06-20T05:57:31Z</time>
      </trkpt>
      <trkpt lat="36.016295" lon="-5.587409">
        <ele>49.23</ele>
        <time>2015-06-20T05:57:32Z</time>
      </trkpt>
      <trkpt lat="36.016255" lon="-5.587409">
        <ele>49.32</ele>
        <time>2015-06-20T05:57:34Z</time>
      </trkpt>
      <trkpt lat="36.016145" lon="-5.587385">
        <ele>50.01</ele>
        <time>2015-06-20T05:57:39Z</time>
      </trkpt>
      <trkpt lat="36.016123" lon="-5.587375">
        <ele>50.25</ele>
        <time>2015-06-20T05:57:40Z</time>
      </trkpt>
      <trkpt lat="36.016100" lon="-5.587369">
        <ele>50.45</ele>
        <time>2015-06-20T05:57:41Z</time>
      </trkpt>
      <trkpt lat="36.016079" lon="-5.587364">
        <ele>50.64</ele>
        <time>2015-06-20T05:57:42Z</time>
      </trkpt>
      <trkpt lat="36.016062" lon="-5.587359">
        <ele>50.78</ele>
        <time>2015-06-20T05:57:43Z</time>
      </trkpt>
      <trkpt lat="36.016045" lon="-5.587352">
        <ele>50.92</ele>
        <time>2015-06-20T05:57:44Z</time>
      </trkpt>
      <trkpt lat="36.016006" lon="-5.587343">
        <ele>51.30</ele>
        <time>2015-06-20T05:57:46Z</time>
      </trkpt>
      <trkpt lat="36.015870" lon="-5.587315">
        <ele>52.24</ele>
        <time>2015-06-20T05:57:52Z</time>
      </trkpt>
      <trkpt lat="36.015848" lon="-5.587311">
        <ele>52.39</ele>
        <time>2015-06-20T05:57:53Z</time>
      </trkpt>
      <trkpt lat="36.015829" lon="-5.587310">
        <ele>52.49</ele>
        <time>2015-06-20T05:57:54Z</time>
      </trkpt>
      <trkpt lat="36.015814" lon="-5.587310">
        <ele>52.28</ele>
        <time>2015-06-20T05:57:55Z</time>
      </trkpt>
      <trkpt lat="36.015799" lon="-5.587312">
        <ele>52.12</ele>
        <time>2015-06-20T05:57:56Z</time>
      </trkpt>
      <trkpt lat="36.015741" lon="-5.587300">
        <ele>51.71</ele>
        <time>2015-06-20T05:57:59Z</time>
      </trkpt>
      <trkpt lat="36.015638" lon="-5.587251">
        <ele>51.99</ele>
        <time>2015-06-20T05:58:03Z</time>
      </trkpt>
      <trkpt lat="36.015597" lon="-5.587216">
        <ele>52.50</ele>
        <time>2015-06-20T05:58:05Z</time>
      </trkpt>
      <trkpt lat="36.015558" lon="-5.587186">
        <ele>52.87</ele>
        <time>2015-06-20T05:58:07Z</time>
      </trkpt>
      <trkpt lat="36.015536" lon="-5.587171">
        <ele>53.02</ele>
        <time>2015-06-20T05:58:08Z</time>
      </trkpt>
      <trkpt lat="36.015518" lon="-5.587158">
        <ele>53.29</ele>
        <time>2015-06-20T05:58:09Z</time>
      </trkpt>
      <trkpt lat="36.015498" lon="-5.587144">
        <ele>53.44</ele>
        <time>2015-06-20T05:58:10Z</time>
      </trkpt>
      <trkpt lat="36.015467" lon="-5.587119">
        <ele>53.84</ele>
        <time>2015-06-20T05:58:12Z</time>
      </trkpt>
      <trkpt lat="36.015385" lon="-5.587066">
        <ele>54.45</ele>
        <time>2015-06-20T05:58:17Z</time>
      </trkpt>
      <trkpt lat="36.015371" lon="-5.587058">
        <ele>54.53</ele>
        <time>2015-06-20T05:58:18Z</time>
      </trkpt>
      <trkpt lat="36.015352" lon="-5.587051">
        <ele>54.57</ele>
        <time>2015-06-20T05:58:19Z</time>
      </trkpt>
      <trkpt lat="36.015336" lon="-5.587041">
        <ele>54.61</ele>
        <time>2015-06-20T05:58:20Z</time>
      </trkpt>
      <trkpt lat="36.015320" lon="-5.587033">
        <ele>54.71</ele>
        <time>2015-06-20T05:58:21Z</time>
      </trkpt>
      <trkpt lat="36.015252" lon="-5.587013">
        <ele>54.89</ele>
        <time>2015-06-20T05:58:25Z</time>
      </trkpt>
      <trkpt lat="36.015235" lon="-5.587004">
        <ele>55.04</ele>
        <time>2015-06-20T05:58:26Z</time>
      </trkpt>
      <trkpt lat="36.015217" lon="-5.587001">
        <ele>55.06</ele>
        <time>2015-06-20T05:58:27Z</time>
      </trkpt>
      <trkpt lat="36.015198" lon="-5.587003">
        <ele>55.06</ele>
        <time>2015-06-20T05:58:28Z</time>
      </trkpt>
      <trkpt lat="36.015179" lon="-5.587007">
        <ele>55.06</ele>
        <time>2015-06-20T05:58:29Z</time>
      </trkpt>
      <trkpt lat="36.015135" lon="-5.587009">
        <ele>55.02</ele>
        <time>2015-06-20T05:58:32Z</time>
      </trkpt>
      <trkpt lat="36.015082" lon="-5.587021">
        <ele>54.87</ele>
        <time>2015-06-20T05:58:35Z</time>
      </trkpt>
      <trkpt lat="36.015065" lon="-5.587031">
        <ele>54.79</ele>
        <time>2015-06-20T05:58:36Z</time>
      </trkpt>
      <trkpt lat="36.015057" lon="-5.587031">
        <ele>54.78</ele>
        <time>2015-06-20T05:58:37Z</time>
      </trkpt>
      <trkpt lat="36.015045" lon="-5.587032">
        <ele>54.73</ele>
        <time>2015-06-20T05:58:38Z</time>
      </trkpt>
      <trkpt lat="36.015030" lon="-5.587034">
        <ele>54.73</ele>
        <time>2015-06-20T05:58:39Z</time>
      </trkpt>
      <trkpt lat="36.015014" lon="-5.587037">
        <ele>54.61</ele>
        <time>2015-06-20T05:58:40Z</time>
      </trkpt>
      <trkpt lat="36.014943" lon="-5.587043">
        <ele>54.83</ele>
        <time>2015-06-20T05:58:44Z</time>
      </trkpt>
      <trkpt lat="36.014936" lon="-5.587054">
        <ele>54.76</ele>
        <time>2015-06-20T05:58:45Z</time>
      </trkpt>
      <trkpt lat="36.014927" lon="-5.587069">
        <ele>54.55</ele>
        <time>2015-06-20T05:58:46Z</time>
      </trkpt>
      <trkpt lat="36.014914" lon="-5.587073">
        <ele>54.55</ele>
        <time>2015-06-20T05:58:47Z</time>
      </trkpt>
      <trkpt lat="36.014896" lon="-5.587073">
        <ele>54.52</ele>
        <time>2015-06-20T05:58:48Z</time>
      </trkpt>
      <trkpt lat="36.014844" lon="-5.587065">
        <ele>54.87</ele>
        <time>2015-06-20T05:58:51Z</time>
      </trkpt>
      <trkpt lat="36.014778" lon="-5.587044">
        <ele>55.44</ele>
        <time>2015-06-20T05:58:55Z</time>
      </trkpt>
      <trkpt lat="36.014729" lon="-5.587014">
        <ele>56.06</ele>
        <time>2015-06-20T05:58:58Z</time>
      </trkpt>
      <trkpt lat="36.014719" lon="-5.586995">
        <ele>56.38</ele>
        <time>2015-06-20T05:58:59Z</time>
      </trkpt>
      <trkpt lat="36.014709" lon="-5.586977">
        <ele>56.51</ele>
        <time>2015-06-20T05:59:00Z</time>
      </trkpt>
      <trkpt lat="36.014702" lon="-5.586959">
        <ele>56.72</ele>
        <time>2015-06-20T05:59:01Z</time>
      </trkpt>
      <trkpt lat="36.014692" lon="-5.586888">
        <ele>57.01</ele>
        <time>2015-06-20T05:59:05Z</time>
      </trkpt>
      <trkpt lat="36.014694" lon="-5.586873">
        <ele>57.14</ele>
        <time>2015-06-20T05:59:06Z</time>
      </trkpt>
      <trkpt lat="36.014705" lon="-5.586841">
        <ele>57.33</ele>
        <time>2015-06-20T05:59:09Z</time>
      </trkpt>
      <trkpt lat="36.014699" lon="-5.586831">
        <ele>57.33</ele>
        <time>2015-06-20T05:59:10Z</time>
      </trkpt>
      <trkpt lat="36.014671" lon="-5.586818">
        <ele>57.20</ele>
        <time>2015-06-20T05:59:12Z</time>
      </trkpt>
      <trkpt lat="36.014662" lon="-5.586813">
        <ele>57.19</ele>
        <time>2015-06-20T05:59:13Z</time>
      </trkpt>
      <trkpt lat="36.014660" lon="-5.586798">
        <ele>57.12</ele>
        <time>2015-06-20T05:59:14Z</time>
      </trkpt>
      <trkpt lat="36.014668" lon="-5.586787">
        <ele>57.23</ele>
        <time>2015-06-20T05:59:15Z</time>
      </trkpt>
      <trkpt lat="36.014665" lon="-5.586770">
        <ele>57.27</ele>
        <time>2015-06-20T05:59:16Z</time>
      </trkpt>
      <trkpt lat="36.014668" lon="-5.586750">
        <ele>57.27</ele>
        <time>2015-06-20T05:59:17Z</time>
      </trkpt>
      <trkpt lat="36.014668" lon="-5.586729">
        <ele>57.30</ele>
        <time>2015-06-20T05:59:18Z</time>
      </trkpt>
      <trkpt lat="36.014669" lon="-5.586705">
        <ele>57.32</ele>
        <time>2015-06-20T05:59:19Z</time>
      </trkpt>
      <trkpt lat="36.014677" lon="-5.586688">
        <ele>57.51</ele>
        <time>2015-06-20T05:59:20Z</time>
      </trkpt>
      <trkpt lat="36.014685" lon="-5.586675">
        <ele>57.68</ele>
        <time>2015-06-20T05:59:21Z</time>
      </trkpt>
      <trkpt lat="36.014690" lon="-5.586661">
        <ele>57.66</ele>
        <time>2015-06-20T05:59:22Z</time>
      </trkpt>
      <trkpt lat="36.014698" lon="-5.586641">
        <ele>57.53</ele>
        <time>2015-06-20T05:59:26Z</time>
      </trkpt>
      <trkpt lat="36.014698" lon="-5.586641">
        <ele>57.59</ele>
        <time>2015-06-20T05:59:27Z</time>
      </trkpt>
      <trkpt lat="36.014698" lon="-5.586641">
        <ele>57.52</ele>
        <time>2015-06-20T05:59:30Z</time>
      </trkpt>
      <trkpt lat="36.014698" lon="-5.586641">
        <ele>57.52</ele>
        <time>2015-06-20T05:59:32Z</time>
      </trkpt>
      <trkpt lat="36.014698" lon="-5.586641">
        <ele>57.54</ele>
        <time>2015-06-20T05:59:34Z</time>
      </trkpt>
      <trkpt lat="36.014698" lon="-5.586641">
        <ele>57.55</ele>
        <time>2015-06-20T05:59:36Z</time>
      </trkpt>
      <trkpt lat="36.014698" lon="-5.586641">
        <ele>57.60</ele>
        <time>2015-06-20T05:59:39Z</time>
      </trkpt>
      <trkpt lat="36.014729" lon="-5.586608">
        <ele>57.41</ele>
        <time>2015-06-20T05:59:44Z</time>
      </trkpt>
      <trkpt lat="36.014745" lon="-5.586586">
        <ele>57.23</ele>
        <time>2015-06-20T05:59:45Z</time>
      </trkpt>
      <trkpt lat="36.014763" lon="-5.586564">
        <ele>57.01</ele>
        <time>2015-06-20T05:59:46Z</time>
      </trkpt>
      <trkpt lat="36.014781" lon="-5.586540">
        <ele>56.87</ele>
        <time>2015-06-20T05:59:47Z</time>
      </trkpt>
      <trkpt lat="36.014800" lon="-5.586513">
        <ele>56.65</ele>
        <time>2015-06-20T05:59:48Z</time>
      </trkpt>
      <trkpt lat="36.014842" lon="-5.586429">
        <ele>56.27</ele>
        <time>2015-06-20T05:59:51Z</time>
      </trkpt>
      <trkpt lat="36.014844" lon="-5.586403">
        <ele>56.04</ele>
        <time>2015-06-20T05:59:52Z</time>
      </trkpt>
      <trkpt lat="36.014842" lon="-5.586382">
        <ele>55.85</ele>
        <time>2015-06-20T05:59:53Z</time>
      </trkpt>
      <trkpt lat="36.014840" lon="-5.586365">
        <ele>55.61</ele>
        <time>2015-06-20T05:59:54Z</time>
      </trkpt>
      <trkpt lat="36.014847" lon="-5.586352">
        <ele>55.53</ele>
        <time>2015-06-20T05:59:55Z</time>
      </trkpt>
      <trkpt lat="36.014859" lon="-5.586341">
        <ele>55.55</ele>
        <time>2015-06-20T05:59:56Z</time>
      </trkpt>
      <trkpt lat="36.014868" lon="-5.586286">
        <ele>55.08</ele>
        <time>2015-06-20T06:00:01Z</time>
      </trkpt>
      <trkpt lat="36.014863" lon="-5.586274">
        <ele>54.84</ele>
        <time>2015-06-20T06:00:05Z</time>
      </trkpt>
      <trkpt lat="36.014863" lon="-5.586274">
        <ele>54.82</ele>
        <time>2015-06-20T06:00:11Z</time>
      </trkpt>
      <trkpt lat="36.014885" lon="-5.586196">
        <ele>54.31</ele>
        <time>2015-06-20T06:00:16Z</time>
      </trkpt>
      <trkpt lat="36.014904" lon="-5.586099">
        <ele>53.82</ele>
        <time>2015-06-20T06:00:21Z</time>
      </trkpt>
      <trkpt lat="36.014910" lon="-5.586078">
        <ele>53.66</ele>
        <time>2015-06-20T06:00:22Z</time>
      </trkpt>
      <trkpt lat="36.014916" lon="-5.586060">
        <ele>53.56</ele>
        <time>2015-06-20T06:00:23Z</time>
      </trkpt>
      <trkpt lat="36.014919" lon="-5.586048">
        <ele>53.44</ele>
        <time>2015-06-20T06:00:24Z</time>
      </trkpt>
      <trkpt lat="36.014924" lon="-5.586036">
        <ele>53.46</ele>
        <time>2015-06-20T06:00:25Z</time>
      </trkpt>
      <trkpt lat="36.014932" lon="-5.586024">
        <ele>53.49</ele>
        <time>2015-06-20T06:00:26Z</time>
      </trkpt>
      <trkpt lat="36.014952" lon="-5.585962">
        <ele>53.30</ele>
        <time>2015-06-20T06:00:59Z</time>
      </trkpt>
      <trkpt lat="36.014952" lon="-5.585962">
        <ele>53.30</ele>
        <time>2015-06-20T06:01:08Z</time>
      </trkpt>
      <trkpt lat="36.014952" lon="-5.585962">
        <ele>53.23</ele>
        <time>2015-06-20T06:01:09Z</time>
      </trkpt>
      <trkpt lat="36.014952" lon="-5.585962">
        <ele>53.27</ele>
        <time>2015-06-20T06:01:15Z</time>
      </trkpt>
      <trkpt lat="36.014962" lon="-5.585966">
        <ele>53.51</ele>
        <time>2015-06-20T06:01:16Z</time>
      </trkpt>
      <trkpt lat="36.014971" lon="-5.585938">
        <ele>53.41</ele>
        <time>2015-06-20T06:01:18Z</time>
      </trkpt>
      <trkpt lat="36.014985" lon="-5.585923">
        <ele>53.67</ele>
        <time>2015-06-20T06:01:19Z</time>
      </trkpt>
      <trkpt lat="36.014998" lon="-5.585908">
        <ele>53.90</ele>
        <time>2015-06-20T06:01:20Z</time>
      </trkpt>
      <trkpt lat="36.015008" lon="-5.585881">
        <ele>53.72</ele>
        <time>2015-06-20T06:01:21Z</time>
      </trkpt>
      <trkpt lat="36.015016" lon="-5.585853">
        <ele>53.63</ele>
        <time>2015-06-20T06:01:22Z</time>
      </trkpt>
      <trkpt lat="36.015021" lon="-5.585826">
        <ele>53.46</ele>
        <time>2015-06-20T06:01:23Z</time>
      </trkpt>
      <trkpt lat="36.015070" lon="-5.585654">
        <ele>52.52</ele>
        <time>2015-06-20T06:01:29Z</time>
      </trkpt>
      <trkpt lat="36.015070" lon="-5.585623">
        <ele>52.18</ele>
        <time>2015-06-20T06:01:30Z</time>
      </trkpt>
      <trkpt lat="36.015076" lon="-5.585562">
        <ele>51.54</ele>
        <time>2015-06-20T06:01:32Z</time>
      </trkpt>
      <trkpt lat="36.015082" lon="-5.585517">
        <ele>51.13</ele>
        <time>2015-06-20T06:01:34Z</time>
      </trkpt>
      <trkpt lat="36.015092" lon="-5.585350">
        <ele>49.09</ele>
        <time>2015-06-20T06:01:39Z</time>
      </trkpt>
      <trkpt lat="36.015148" lon="-5.585170">
        <ele>48.21</ele>
        <time>2015-06-20T06:01:44Z</time>
      </trkpt>
      <trkpt lat="36.015250" lon="-5.585049">
        <ele>49.11</ele>
        <time>2015-06-20T06:01:49Z</time>
      </trkpt>
      <trkpt lat="36.015267" lon="-5.585032">
        <ele>49.33</ele>
        <time>2015-06-20T06:01:50Z</time>
      </trkpt>
      <trkpt lat="36.015284" lon="-5.585024">
        <ele>49.65</ele>
        <time>2015-06-20T06:01:51Z</time>
      </trkpt>
      <trkpt lat="36.015299" lon="-5.585019">
        <ele>49.99</ele>
        <time>2015-06-20T06:01:52Z</time>
      </trkpt>
      <trkpt lat="36.015318" lon="-5.585021">
        <ele>50.41</ele>
        <time>2015-06-20T06:01:53Z</time>
      </trkpt>
      <trkpt lat="36.015336" lon="-5.585010">
        <ele>50.64</ele>
        <time>2015-06-20T06:01:54Z</time>
      </trkpt>
      <trkpt lat="36.015356" lon="-5.585006">
        <ele>51.11</ele>
        <time>2015-06-20T06:01:55Z</time>
      </trkpt>
      <trkpt lat="36.015376" lon="-5.585009">
        <ele>51.61</ele>
        <time>2015-06-20T06:01:56Z</time>
      </trkpt>
      <trkpt lat="36.015448" lon="-5.585014">
        <ele>53.51</ele>
        <time>2015-06-20T06:02:00Z</time>
      </trkpt>
      <trkpt lat="36.015462" lon="-5.585012">
        <ele>53.95</ele>
        <time>2015-06-20T06:02:01Z</time>
      </trkpt>
      <trkpt lat="36.015564" lon="-5.584991">
        <ele>56.10</ele>
        <time>2015-06-20T06:02:07Z</time>
      </trkpt>
      <trkpt lat="36.015695" lon="-5.584956">
        <ele>58.72</ele>
        <time>2015-06-20T06:02:14Z</time>
      </trkpt>
      <trkpt lat="36.015726" lon="-5.584860">
        <ele>58.71</ele>
        <time>2015-06-20T06:02:18Z</time>
      </trkpt>
      <trkpt lat="36.015709" lon="-5.584720">
        <ele>57.34</ele>
        <time>2015-06-20T06:02:23Z</time>
      </trkpt>
      <trkpt lat="36.015696" lon="-5.584605">
        <ele>56.61</ele>
        <time>2015-06-20T06:02:27Z</time>
      </trkpt>
      <trkpt lat="36.015696" lon="-5.584554">
        <ele>56.44</ele>
        <time>2015-06-20T06:02:29Z</time>
      </trkpt>
      <trkpt lat="36.015697" lon="-5.584523">
        <ele>56.35</ele>
        <time>2015-06-20T06:02:30Z</time>
      </trkpt>
      <trkpt lat="36.015705" lon="-5.584494">
        <ele>56.44</ele>
        <time>2015-06-20T06:02:31Z</time>
      </trkpt>
      <trkpt lat="36.015712" lon="-5.584463">
        <ele>56.41</ele>
        <time>2015-06-20T06:02:32Z</time>
      </trkpt>
      <trkpt lat="36.015717" lon="-5.584436">
        <ele>56.56</ele>
        <time>2015-06-20T06:02:33Z</time>
      </trkpt>
      <trkpt lat="36.015724" lon="-5.584406">
        <ele>56.64</ele>
        <time>2015-06-20T06:02:34Z</time>
      </trkpt>
      <trkpt lat="36.015731" lon="-5.584376">
        <ele>56.69</ele>
        <time>2015-06-20T06:02:35Z</time>
      </trkpt>
      <trkpt lat="36.015806" lon="-5.584219">
        <ele>57.77</ele>
        <time>2015-06-20T06:02:41Z</time>
      </trkpt>
      <trkpt lat="36.015887" lon="-5.584059">
        <ele>58.12</ele>
        <time>2015-06-20T06:02:47Z</time>
      </trkpt>
      <trkpt lat="36.015899" lon="-5.583844">
        <ele>56.71</ele>
        <time>2015-06-20T06:02:53Z</time>
      </trkpt>
      <trkpt lat="36.015872" lon="-5.583669">
        <ele>55.12</ele>
        <time>2015-06-20T06:02:59Z</time>
      </trkpt>
      <trkpt lat="36.015871" lon="-5.583641">
        <ele>54.96</ele>
        <time>2015-06-20T06:03:00Z</time>
      </trkpt>
      <trkpt lat="36.015870" lon="-5.583615">
        <ele>54.75</ele>
        <time>2015-06-20T06:03:01Z</time>
      </trkpt>
      <trkpt lat="36.015871" lon="-5.583586">
        <ele>54.76</ele>
        <time>2015-06-20T06:03:02Z</time>
      </trkpt>
      <trkpt lat="36.015875" lon="-5.583560">
        <ele>54.88</ele>
        <time>2015-06-20T06:03:03Z</time>
      </trkpt>
      <trkpt lat="36.015873" lon="-5.583498">
        <ele>54.75</ele>
        <time>2015-06-20T06:03:06Z</time>
      </trkpt>
      <trkpt lat="36.015875" lon="-5.583474">
        <ele>54.84</ele>
        <time>2015-06-20T06:03:07Z</time>
      </trkpt>
      <trkpt lat="36.015873" lon="-5.583448">
        <ele>54.72</ele>
        <time>2015-06-20T06:03:08Z</time>
      </trkpt>
      <trkpt lat="36.015875" lon="-5.583419">
        <ele>54.87</ele>
        <time>2015-06-20T06:03:09Z</time>
      </trkpt>
      <trkpt lat="36.015884" lon="-5.583364">
        <ele>54.90</ele>
        <time>2015-06-20T06:03:11Z</time>
      </trkpt>
      <trkpt lat="36.015946" lon="-5.583174">
        <ele>55.72</ele>
        <time>2015-06-20T06:03:16Z</time>
      </trkpt>
      <trkpt lat="36.015961" lon="-5.583127">
        <ele>55.91</ele>
        <time>2015-06-20T06:03:17Z</time>
      </trkpt>
      <trkpt lat="36.015971" lon="-5.583079">
        <ele>56.09</ele>
        <time>2015-06-20T06:03:18Z</time>
      </trkpt>
      <trkpt lat="36.015987" lon="-5.583040">
        <ele>56.34</ele>
        <time>2015-06-20T06:03:19Z</time>
      </trkpt>
      <trkpt lat="36.016005" lon="-5.583000">
        <ele>56.58</ele>
        <time>2015-06-20T06:03:20Z</time>
      </trkpt>
      <trkpt lat="36.016017" lon="-5.582960">
        <ele>56.62</ele>
        <time>2015-06-20T06:03:21Z</time>
      </trkpt>
      <trkpt lat="36.016028" lon="-5.582920">
        <ele>56.80</ele>
        <time>2015-06-20T06:03:22Z</time>
      </trkpt>
      <trkpt lat="36.016040" lon="-5.582880">
        <ele>56.82</ele>
        <time>2015-06-20T06:03:23Z</time>
      </trkpt>
      <trkpt lat="36.016047" lon="-5.582829">
        <ele>56.87</ele>
        <time>2015-06-20T06:03:24Z</time>
      </trkpt>
      <trkpt lat="36.016057" lon="-5.582773">
        <ele>56.87</ele>
        <time>2015-06-20T06:03:25Z</time>
      </trkpt>
      <trkpt lat="36.016070" lon="-5.582712">
        <ele>56.67</ele>
        <time>2015-06-20T06:03:26Z</time>
      </trkpt>
      <trkpt lat="36.016066" lon="-5.582648">
        <ele>56.14</ele>
        <time>2015-06-20T06:03:27Z</time>
      </trkpt>
      <trkpt lat="36.016012" lon="-5.582521">
        <ele>54.02</ele>
        <time>2015-06-20T06:03:29Z</time>
      </trkpt>
      <trkpt lat="36.015954" lon="-5.582431">
        <ele>52.61</ele>
        <time>2015-06-20T06:03:31Z</time>
      </trkpt>
      <trkpt lat="36.015919" lon="-5.582398">
        <ele>51.90</ele>
        <time>2015-06-20T06:03:32Z</time>
      </trkpt>
      <trkpt lat="36.015876" lon="-5.582369">
        <ele>50.93</ele>
        <time>2015-06-20T06:03:33Z</time>
      </trkpt>
      <trkpt lat="36.015819" lon="-5.582352">
        <ele>49.78</ele>
        <time>2015-06-20T06:03:34Z</time>
      </trkpt>
      <trkpt lat="36.015769" lon="-5.582342">
        <ele>48.74</ele>
        <time>2015-06-20T06:03:35Z</time>
      </trkpt>
      <trkpt lat="36.015724" lon="-5.582342">
        <ele>47.95</ele>
        <time>2015-06-20T06:03:36Z</time>
      </trkpt>
      <trkpt lat="36.015684" lon="-5.582346">
        <ele>47.20</ele>
        <time>2015-06-20T06:03:37Z</time>
      </trkpt>
      <trkpt lat="36.015642" lon="-5.582363">
        <ele>46.24</ele>
        <time>2015-06-20T06:03:38Z</time>
      </trkpt>
      <trkpt lat="36.015592" lon="-5.582371">
        <ele>45.23</ele>
        <time>2015-06-20T06:03:39Z</time>
      </trkpt>
      <trkpt lat="36.015467" lon="-5.582272">
        <ele>42.98</ele>
        <time>2015-06-20T06:03:42Z</time>
      </trkpt>
      <trkpt lat="36.015426" lon="-5.582102">
        <ele>42.66</ele>
        <time>2015-06-20T06:03:45Z</time>
      </trkpt>
      <trkpt lat="36.015421" lon="-5.581953">
        <ele>43.13</ele>
        <time>2015-06-20T06:03:48Z</time>
      </trkpt>
      <trkpt lat="36.015424" lon="-5.581915">
        <ele>43.21</ele>
        <time>2015-06-20T06:03:49Z</time>
      </trkpt>
      <trkpt lat="36.015426" lon="-5.581880">
        <ele>43.33</ele>
        <time>2015-06-20T06:03:50Z</time>
      </trkpt>
      <trkpt lat="36.015429" lon="-5.581849">
        <ele>43.49</ele>
        <time>2015-06-20T06:03:51Z</time>
      </trkpt>
      <trkpt lat="36.015432" lon="-5.581817">
        <ele>43.55</ele>
        <time>2015-06-20T06:03:52Z</time>
      </trkpt>
      <trkpt lat="36.015450" lon="-5.581723">
        <ele>44.06</ele>
        <time>2015-06-20T06:03:55Z</time>
      </trkpt>
      <trkpt lat="36.015489" lon="-5.581618">
        <ele>44.65</ele>
        <time>2015-06-20T06:03:58Z</time>
      </trkpt>
      <trkpt lat="36.015531" lon="-5.581512">
        <ele>45.09</ele>
        <time>2015-06-20T06:04:01Z</time>
      </trkpt>
      <trkpt lat="36.015580" lon="-5.581364">
        <ele>45.34</ele>
        <time>2015-06-20T06:04:05Z</time>
      </trkpt>
      <trkpt lat="36.015590" lon="-5.581329">
        <ele>45.40</ele>
        <time>2015-06-20T06:04:06Z</time>
      </trkpt>
      <trkpt lat="36.015600" lon="-5.581296">
        <ele>45.27</ele>
        <time>2015-06-20T06:04:07Z</time>
      </trkpt>
      <trkpt lat="36.015609" lon="-5.581260">
        <ele>45.19</ele>
        <time>2015-06-20T06:04:08Z</time>
      </trkpt>
      <trkpt lat="36.015611" lon="-5.581227">
        <ele>44.91</ele>
        <time>2015-06-20T06:04:09Z</time>
      </trkpt>
      <trkpt lat="36.015622" lon="-5.581124">
        <ele>44.31</ele>
        <time>2015-06-20T06:04:12Z</time>
      </trkpt>
      <trkpt lat="36.015630" lon="-5.581046">
        <ele>43.63</ele>
        <time>2015-06-20T06:04:14Z</time>
      </trkpt>
      <trkpt lat="36.015636" lon="-5.581009">
        <ele>43.33</ele>
        <time>2015-06-20T06:04:15Z</time>
      </trkpt>
      <trkpt lat="36.015645" lon="-5.580971">
        <ele>43.18</ele>
        <time>2015-06-20T06:04:16Z</time>
      </trkpt>
      <trkpt lat="36.015646" lon="-5.580931">
        <ele>42.77</ele>
        <time>2015-06-20T06:04:17Z</time>
      </trkpt>
      <trkpt lat="36.015654" lon="-5.580889">
        <ele>42.46</ele>
        <time>2015-06-20T06:04:18Z</time>
      </trkpt>
      <trkpt lat="36.015644" lon="-5.580852">
        <ele>41.85</ele>
        <time>2015-06-20T06:04:19Z</time>
      </trkpt>
      <trkpt lat="36.015653" lon="-5.580780">
        <ele>41.35</ele>
        <time>2015-06-20T06:04:21Z</time>
      </trkpt>
      <trkpt lat="36.015688" lon="-5.580634">
        <ele>40.63</ele>
        <time>2015-06-20T06:04:25Z</time>
      </trkpt>
      <trkpt lat="36.015700" lon="-5.580601">
        <ele>40.55</ele>
        <time>2015-06-20T06:04:26Z</time>
      </trkpt>
      <trkpt lat="36.015711" lon="-5.580569">
        <ele>40.46</ele>
        <time>2015-06-20T06:04:27Z</time>
      </trkpt>
      <trkpt lat="36.015723" lon="-5.580536">
        <ele>40.12</ele>
        <time>2015-06-20T06:04:28Z</time>
      </trkpt>
      <trkpt lat="36.015731" lon="-5.580510">
        <ele>39.81</ele>
        <time>2015-06-20T06:04:29Z</time>
      </trkpt>
      <trkpt lat="36.015744" lon="-5.580485">
        <ele>39.53</ele>
        <time>2015-06-20T06:04:30Z</time>
      </trkpt>
      <trkpt lat="36.015775" lon="-5.580440">
        <ele>39.23</ele>
        <time>2015-06-20T06:04:32Z</time>
      </trkpt>
      <trkpt lat="36.015798" lon="-5.580418">
        <ele>39.16</ele>
        <time>2015-06-20T06:04:33Z</time>
      </trkpt>
      <trkpt lat="36.015827" lon="-5.580399">
        <ele>39.11</ele>
        <time>2015-06-20T06:04:34Z</time>
      </trkpt>
      <trkpt lat="36.015856" lon="-5.580378">
        <ele>39.08</ele>
        <time>2015-06-20T06:04:35Z</time>
      </trkpt>
      <trkpt lat="36.015884" lon="-5.580356">
        <ele>39.09</ele>
        <time>2015-06-20T06:04:36Z</time>
      </trkpt>
      <trkpt lat="36.015907" lon="-5.580331">
        <ele>38.86</ele>
        <time>2015-06-20T06:04:37Z</time>
      </trkpt>
      <trkpt lat="36.015929" lon="-5.580311">
        <ele>38.66</ele>
        <time>2015-06-20T06:04:38Z</time>
      </trkpt>
      <trkpt lat="36.015956" lon="-5.580294">
        <ele>38.62</ele>
        <time>2015-06-20T06:04:39Z</time>
      </trkpt>
      <trkpt lat="36.015986" lon="-5.580281">
        <ele>38.74</ele>
        <time>2015-06-20T06:04:40Z</time>
      </trkpt>
      <trkpt lat="36.016060" lon="-5.580252">
        <ele>39.10</ele>
        <time>2015-06-20T06:04:42Z</time>
      </trkpt>
      <trkpt lat="36.016196" lon="-5.580214">
        <ele>40.01</ele>
        <time>2015-06-20T06:04:45Z</time>
      </trkpt>
      <trkpt lat="36.016235" lon="-5.580177">
        <ele>39.96</ele>
        <time>2015-06-20T06:04:46Z</time>
      </trkpt>
      <trkpt lat="36.016278" lon="-5.580150">
        <ele>40.02</ele>
        <time>2015-06-20T06:04:47Z</time>
      </trkpt>
      <trkpt lat="36.016322" lon="-5.580124">
        <ele>40.13</ele>
        <time>2015-06-20T06:04:48Z</time>
      </trkpt>
      <trkpt lat="36.016389" lon="-5.580042">
        <ele>39.62</ele>
        <time>2015-06-20T06:04:50Z</time>
      </trkpt>
      <trkpt lat="36.016414" lon="-5.579996">
        <ele>39.44</ele>
        <time>2015-06-20T06:04:51Z</time>
      </trkpt>
      <trkpt lat="36.016435" lon="-5.579942">
        <ele>39.72</ele>
        <time>2015-06-20T06:04:52Z</time>
      </trkpt>
      <trkpt lat="36.016472" lon="-5.579835">
        <ele>40.14</ele>
        <time>2015-06-20T06:04:54Z</time>
      </trkpt>
      <trkpt lat="36.016461" lon="-5.579776">
        <ele>39.76</ele>
        <time>2015-06-20T06:04:55Z</time>
      </trkpt>
      <trkpt lat="36.016359" lon="-5.579712">
        <ele>37.64</ele>
        <time>2015-06-20T06:04:58Z</time>
      </trkpt>
      <trkpt lat="36.016195" lon="-5.579631">
        <ele>35.52</ele>
        <time>2015-06-20T06:05:02Z</time>
      </trkpt>
      <trkpt lat="36.016157" lon="-5.579594">
        <ele>35.21</ele>
        <time>2015-06-20T06:05:03Z</time>
      </trkpt>
      <trkpt lat="36.016107" lon="-5.579561">
        <ele>34.71</ele>
        <time>2015-06-20T06:05:04Z</time>
      </trkpt>
      <trkpt lat="36.016049" lon="-5.579531">
        <ele>34.30</ele>
        <time>2015-06-20T06:05:05Z</time>
      </trkpt>
      <trkpt lat="36.015989" lon="-5.579509">
        <ele>33.69</ele>
        <time>2015-06-20T06:05:06Z</time>
      </trkpt>
      <trkpt lat="36.015933" lon="-5.579473">
        <ele>33.21</ele>
        <time>2015-06-20T06:05:07Z</time>
      </trkpt>
      <trkpt lat="36.015877" lon="-5.579440">
        <ele>32.77</ele>
        <time>2015-06-20T06:05:08Z</time>
      </trkpt>
      <trkpt lat="36.015828" lon="-5.579393">
        <ele>32.55</ele>
        <time>2015-06-20T06:05:09Z</time>
      </trkpt>
      <trkpt lat="36.015777" lon="-5.579362">
        <ele>32.42</ele>
        <time>2015-06-20T06:05:10Z</time>
      </trkpt>
      <trkpt lat="36.015722" lon="-5.579349">
        <ele>32.04</ele>
        <time>2015-06-20T06:05:11Z</time>
      </trkpt>
      <trkpt lat="36.015670" lon="-5.579342">
        <ele>31.53</ele>
        <time>2015-06-20T06:05:12Z</time>
      </trkpt>
      <trkpt lat="36.015629" lon="-5.579328">
        <ele>31.27</ele>
        <time>2015-06-20T06:05:13Z</time>
      </trkpt>
      <trkpt lat="36.015596" lon="-5.579322">
        <ele>30.91</ele>
        <time>2015-06-20T06:05:14Z</time>
      </trkpt>
      <trkpt lat="36.015561" lon="-5.579293">
        <ele>30.61</ele>
        <time>2015-06-20T06:05:16Z</time>
      </trkpt>
      <trkpt lat="36.015518" lon="-5.579244">
        <ele>30.01</ele>
        <time>2015-06-20T06:05:19Z</time>
      </trkpt>
      <trkpt lat="36.015513" lon="-5.579223">
        <ele>30.10</ele>
        <time>2015-06-20T06:05:20Z</time>
      </trkpt>
      <trkpt lat="36.015501" lon="-5.579217">
        <ele>29.87</ele>
        <time>2015-06-20T06:05:22Z</time>
      </trkpt>
      <trkpt lat="36.015500" lon="-5.579217">
        <ele>29.82</ele>
        <time>2015-06-20T06:05:25Z</time>
      </trkpt>
      <trkpt lat="36.015500" lon="-5.579217">
        <ele>29.86</ele>
        <time>2015-06-20T06:05:26Z</time>
      </trkpt>
      <trkpt lat="36.015500" lon="-5.579217">
        <ele>29.89</ele>
        <time>2015-06-20T06:05:27Z</time>
      </trkpt>
      <trkpt lat="36.015500" lon="-5.579217">
        <ele>29.84</ele>
        <time>2015-06-20T06:05:28Z</time>
      </trkpt>
      <trkpt lat="36.015500" lon="-5.579217">
        <ele>29.85</ele>
        <time>2015-06-20T06:05:29Z</time>
      </trkpt>
      <trkpt lat="36.015500" lon="-5.579217">
        <ele>29.84</ele>
        <time>2015-06-20T06:05:33Z</time>
      </trkpt>
      <trkpt lat="36.015500" lon="-5.579217">
        <ele>29.84</ele>
        <time>2015-06-20T06:05:39Z</time>
      </trkpt>
      <trkpt lat="36.015500" lon="-5.579217">
        <ele>29.85</ele>
        <time>2015-06-20T06:05:42Z</time>
      </trkpt>
      <trkpt lat="36.015500" lon="-5.579217">
        <ele>29.81</ele>
        <time>2015-06-20T06:05:43Z</time>
      </trkpt>
      <trkpt lat="36.015500" lon="-5.579217">
        <ele>29.81</ele>
        <time>2015-06-20T06:05:50Z</time>
      </trkpt>
      <trkpt lat="36.015500" lon="-5.579217">
        <ele>29.82</ele>
        <time>2015-06-20T06:05:55Z</time>
      </trkpt>
      <trkpt lat="36.015500" lon="-5.579217">
        <ele>29.87</ele>
        <time>2015-06-20T06:05:57Z</time>
      </trkpt>
      <trkpt lat="36.015502" lon="-5.579215">
        <ele>29.94</ele>
        <time>2015-06-20T06:06:09Z</time>
      </trkpt>
      <trkpt lat="36.015502" lon="-5.579215">
        <ele>29.92</ele>
        <time>2015-06-20T06:06:11Z</time>
      </trkpt>
      <trkpt lat="36.015502" lon="-5.579215">
        <ele>29.92</ele>
        <time>2015-06-20T06:06:18Z</time>
      </trkpt>
      <trkpt lat="36.015502" lon="-5.579215">
        <ele>29.95</ele>
        <time>2015-06-20T06:06:27Z</time>
      </trkpt>
      <trkpt lat="36.015502" lon="-5.579215">
        <ele>29.94</ele>
        <time>2015-06-20T06:06:38Z</time>
      </trkpt>
      <trkpt lat="36.015502" lon="-5.579215">
        <ele>29.99</ele>
        <time>2015-06-20T06:06:41Z</time>
      </trkpt>
      <trkpt lat="36.015501" lon="-5.579215">
        <ele>29.84</ele>
        <time>2015-06-20T06:06:44Z</time>
      </trkpt>
      <trkpt lat="36.015501" lon="-5.579215">
        <ele>29.82</ele>
        <time>2015-06-20T06:06:54Z</time>
      </trkpt>
      <trkpt lat="36.015492" lon="-5.579160">
        <ele>29.92</ele>
        <time>2015-06-20T06:06:59Z</time>
      </trkpt>
      <trkpt lat="36.015494" lon="-5.579001">
        <ele>30.51</ele>
        <time>2015-06-20T06:07:04Z</time>
      </trkpt>
      <trkpt lat="36.015514" lon="-5.578811">
        <ele>31.23</ele>
        <time>2015-06-20T06:07:10Z</time>
      </trkpt>
      <trkpt lat="36.015529" lon="-5.578722">
        <ele>31.54</ele>
        <time>2015-06-20T06:07:13Z</time>
      </trkpt>
      <trkpt lat="36.015536" lon="-5.578689">
        <ele>31.65</ele>
        <time>2015-06-20T06:07:14Z</time>
      </trkpt>
      <trkpt lat="36.015534" lon="-5.578652">
        <ele>31.53</ele>
        <time>2015-06-20T06:07:15Z</time>
      </trkpt>
      <trkpt lat="36.015535" lon="-5.578615">
        <ele>31.69</ele>
        <time>2015-06-20T06:07:16Z</time>
      </trkpt>
      <trkpt lat="36.015553" lon="-5.578469">
        <ele>30.44</ele>
        <time>2015-06-20T06:07:21Z</time>
      </trkpt>
      <trkpt lat="36.015568" lon="-5.578401">
        <ele>29.91</ele>
        <time>2015-06-20T06:07:23Z</time>
      </trkpt>
      <trkpt lat="36.015569" lon="-5.578357">
        <ele>29.43</ele>
        <time>2015-06-20T06:07:24Z</time>
      </trkpt>
      <trkpt lat="36.015570" lon="-5.578306">
        <ele>29.02</ele>
        <time>2015-06-20T06:07:25Z</time>
      </trkpt>
      <trkpt lat="36.015577" lon="-5.578251">
        <ele>28.69</ele>
        <time>2015-06-20T06:07:26Z</time>
      </trkpt>
      <trkpt lat="36.015576" lon="-5.578189">
        <ele>28.22</ele>
        <time>2015-06-20T06:07:27Z</time>
      </trkpt>
      <trkpt lat="36.015576" lon="-5.578125">
        <ele>27.71</ele>
        <time>2015-06-20T06:07:28Z</time>
      </trkpt>
      <trkpt lat="36.015583" lon="-5.578056">
        <ele>27.39</ele>
        <time>2015-06-20T06:07:29Z</time>
      </trkpt>
      <trkpt lat="36.015586" lon="-5.577988">
        <ele>27.17</ele>
        <time>2015-06-20T06:07:30Z</time>
      </trkpt>
      <trkpt lat="36.015588" lon="-5.577923">
        <ele>26.92</ele>
        <time>2015-06-20T06:07:31Z</time>
      </trkpt>
      <trkpt lat="36.015592" lon="-5.577859">
        <ele>26.76</ele>
        <time>2015-06-20T06:07:32Z</time>
      </trkpt>
      <trkpt lat="36.015606" lon="-5.577798">
        <ele>26.65</ele>
        <time>2015-06-20T06:07:33Z</time>
      </trkpt>
      <trkpt lat="36.015616" lon="-5.577746">
        <ele>26.59</ele>
        <time>2015-06-20T06:07:34Z</time>
      </trkpt>
      <trkpt lat="36.015627" lon="-5.577696">
        <ele>26.39</ele>
        <time>2015-06-20T06:07:35Z</time>
      </trkpt>
      <trkpt lat="36.015629" lon="-5.577645">
        <ele>26.16</ele>
        <time>2015-06-20T06:07:36Z</time>
      </trkpt>
      <trkpt lat="36.015632" lon="-5.577595">
        <ele>25.95</ele>
        <time>2015-06-20T06:07:37Z</time>
      </trkpt>
      <trkpt lat="36.015632" lon="-5.577544">
        <ele>25.65</ele>
        <time>2015-06-20T06:07:38Z</time>
      </trkpt>
      <trkpt lat="36.015635" lon="-5.577486">
        <ele>25.31</ele>
        <time>2015-06-20T06:07:39Z</time>
      </trkpt>
      <trkpt lat="36.015639" lon="-5.577426">
        <ele>25.01</ele>
        <time>2015-06-20T06:07:40Z</time>
      </trkpt>
      <trkpt lat="36.015632" lon="-5.577364">
        <ele>24.45</ele>
        <time>2015-06-20T06:07:41Z</time>
      </trkpt>
      <trkpt lat="36.015629" lon="-5.577307">
        <ele>23.95</ele>
        <time>2015-06-20T06:07:42Z</time>
      </trkpt>
      <trkpt lat="36.015632" lon="-5.577254">
        <ele>23.68</ele>
        <time>2015-06-20T06:07:43Z</time>
      </trkpt>
      <trkpt lat="36.015641" lon="-5.577112">
        <ele>23.12</ele>
        <time>2015-06-20T06:07:46Z</time>
      </trkpt>
      <trkpt lat="36.015642" lon="-5.577069">
        <ele>23.04</ele>
        <time>2015-06-20T06:07:47Z</time>
      </trkpt>
      <trkpt lat="36.015645" lon="-5.577031">
        <ele>22.93</ele>
        <time>2015-06-20T06:07:48Z</time>
      </trkpt>
      <trkpt lat="36.015646" lon="-5.576995">
        <ele>22.81</ele>
        <time>2015-06-20T06:07:49Z</time>
      </trkpt>
      <trkpt lat="36.015651" lon="-5.576957">
        <ele>22.89</ele>
        <time>2015-06-20T06:07:50Z</time>
      </trkpt>
      <trkpt lat="36.015657" lon="-5.576840">
        <ele>22.15</ele>
        <time>2015-06-20T06:07:53Z</time>
      </trkpt>
      <trkpt lat="36.015662" lon="-5.576734">
        <ele>21.40</ele>
        <time>2015-06-20T06:07:56Z</time>
      </trkpt>
      <trkpt lat="36.015673" lon="-5.576633">
        <ele>20.92</ele>
        <time>2015-06-20T06:07:59Z</time>
      </trkpt>
      <trkpt lat="36.015740" lon="-5.576393">
        <ele>21.01</ele>
        <time>2015-06-20T06:08:06Z</time>
      </trkpt>
      <trkpt lat="36.015803" lon="-5.576274">
        <ele>21.68</ele>
        <time>2015-06-20T06:08:09Z</time>
      </trkpt>
      <trkpt lat="36.015826" lon="-5.576234">
        <ele>21.76</ele>
        <time>2015-06-20T06:08:10Z</time>
      </trkpt>
      <trkpt lat="36.015848" lon="-5.576199">
        <ele>21.81</ele>
        <time>2015-06-20T06:08:11Z</time>
      </trkpt>
      <trkpt lat="36.015869" lon="-5.576165">
        <ele>21.95</ele>
        <time>2015-06-20T06:08:12Z</time>
      </trkpt>
      <trkpt lat="36.015889" lon="-5.576129">
        <ele>21.94</ele>
        <time>2015-06-20T06:08:13Z</time>
      </trkpt>
      <trkpt lat="36.015939" lon="-5.575964">
        <ele>21.75</ele>
        <time>2015-06-20T06:08:18Z</time>
      </trkpt>
      <trkpt lat="36.015973" lon="-5.575883">
        <ele>21.84</ele>
        <time>2015-06-20T06:08:21Z</time>
      </trkpt>
      <trkpt lat="36.016015" lon="-5.575802">
        <ele>22.06</ele>
        <time>2015-06-20T06:08:24Z</time>
      </trkpt>
      <trkpt lat="36.016059" lon="-5.575698">
        <ele>21.76</ele>
        <time>2015-06-20T06:08:28Z</time>
      </trkpt>
      <trkpt lat="36.016066" lon="-5.575672">
        <ele>21.55</ele>
        <time>2015-06-20T06:08:29Z</time>
      </trkpt>
      <trkpt lat="36.016131" lon="-5.575530">
        <ele>21.42</ele>
        <time>2015-06-20T06:08:35Z</time>
      </trkpt>
      <trkpt lat="36.016215" lon="-5.575374">
        <ele>22.71</ele>
        <time>2015-06-20T06:08:41Z</time>
      </trkpt>
      <trkpt lat="36.016260" lon="-5.575246">
        <ele>23.07</ele>
        <time>2015-06-20T06:08:46Z</time>
      </trkpt>
      <trkpt lat="36.016289" lon="-5.575157">
        <ele>23.01</ele>
        <time>2015-06-20T06:08:50Z</time>
      </trkpt>
      <trkpt lat="36.016309" lon="-5.575088">
        <ele>22.88</ele>
        <time>2015-06-20T06:08:53Z</time>
      </trkpt>
      <trkpt lat="36.016313" lon="-5.575066">
        <ele>22.72</ele>
        <time>2015-06-20T06:08:54Z</time>
      </trkpt>
      <trkpt lat="36.016317" lon="-5.575042">
        <ele>22.66</ele>
        <time>2015-06-20T06:08:55Z</time>
      </trkpt>
      <trkpt lat="36.016328" lon="-5.575021">
        <ele>22.56</ele>
        <time>2015-06-20T06:08:56Z</time>
      </trkpt>
      <trkpt lat="36.016339" lon="-5.574999">
        <ele>22.52</ele>
        <time>2015-06-20T06:08:57Z</time>
      </trkpt>
      <trkpt lat="36.016356" lon="-5.574955">
        <ele>22.52</ele>
        <time>2015-06-20T06:08:59Z</time>
      </trkpt>
      <trkpt lat="36.016388" lon="-5.574849">
        <ele>22.45</ele>
        <time>2015-06-20T06:09:04Z</time>
      </trkpt>
      <trkpt lat="36.016461" lon="-5.574675">
        <ele>22.90</ele>
        <time>2015-06-20T06:09:11Z</time>
      </trkpt>
      <trkpt lat="36.016478" lon="-5.574644">
        <ele>23.11</ele>
        <time>2015-06-20T06:09:12Z</time>
      </trkpt>
      <trkpt lat="36.016569" lon="-5.574461">
        <ele>24.31</ele>
        <time>2015-06-20T06:09:18Z</time>
      </trkpt>
      <trkpt lat="36.016613" lon="-5.574339">
        <ele>24.70</ele>
        <time>2015-06-20T06:09:23Z</time>
      </trkpt>
      <trkpt lat="36.016669" lon="-5.574186">
        <ele>25.17</ele>
        <time>2015-06-20T06:09:30Z</time>
      </trkpt>
      <trkpt lat="36.016686" lon="-5.574121">
        <ele>25.22</ele>
        <time>2015-06-20T06:09:33Z</time>
      </trkpt>
      <trkpt lat="36.016717" lon="-5.574080">
        <ele>25.66</ele>
        <time>2015-06-20T06:09:36Z</time>
      </trkpt>
      <trkpt lat="36.016725" lon="-5.574068">
        <ele>25.77</ele>
        <time>2015-06-20T06:09:37Z</time>
      </trkpt>
      <trkpt lat="36.016723" lon="-5.574051">
        <ele>25.65</ele>
        <time>2015-06-20T06:09:38Z</time>
      </trkpt>
      <trkpt lat="36.016733" lon="-5.574007">
        <ele>25.63</ele>
        <time>2015-06-20T06:09:40Z</time>
      </trkpt>
      <trkpt lat="36.016741" lon="-5.573987">
        <ele>25.75</ele>
        <time>2015-06-20T06:09:41Z</time>
      </trkpt>
      <trkpt lat="36.016747" lon="-5.573969">
        <ele>25.74</ele>
        <time>2015-06-20T06:09:42Z</time>
      </trkpt>
      <trkpt lat="36.016752" lon="-5.573945">
        <ele>25.75</ele>
        <time>2015-06-20T06:09:43Z</time>
      </trkpt>
      <trkpt lat="36.016773" lon="-5.573911">
        <ele>26.01</ele>
        <time>2015-06-20T06:09:45Z</time>
      </trkpt>
      <trkpt lat="36.016783" lon="-5.573887">
        <ele>26.11</ele>
        <time>2015-06-20T06:09:46Z</time>
      </trkpt>
      <trkpt lat="36.016793" lon="-5.573874">
        <ele>26.25</ele>
        <time>2015-06-20T06:09:47Z</time>
      </trkpt>
      <trkpt lat="36.016796" lon="-5.573862">
        <ele>26.26</ele>
        <time>2015-06-20T06:09:48Z</time>
      </trkpt>
      <trkpt lat="36.016799" lon="-5.573848">
        <ele>26.26</ele>
        <time>2015-06-20T06:09:49Z</time>
      </trkpt>
      <trkpt lat="36.016808" lon="-5.573831">
        <ele>26.39</ele>
        <time>2015-06-20T06:09:50Z</time>
      </trkpt>
      <trkpt lat="36.016830" lon="-5.573775">
        <ele>26.51</ele>
        <time>2015-06-20T06:09:53Z</time>
      </trkpt>
      <trkpt lat="36.016858" lon="-5.573672">
        <ele>26.77</ele>
        <time>2015-06-20T06:09:59Z</time>
      </trkpt>
      <trkpt lat="36.016879" lon="-5.573612">
        <ele>26.87</ele>
        <time>2015-06-20T06:10:02Z</time>
      </trkpt>
      <trkpt lat="36.016895" lon="-5.573563">
        <ele>26.94</ele>
        <time>2015-06-20T06:10:04Z</time>
      </trkpt>
      <trkpt lat="36.016951" lon="-5.573423">
        <ele>27.49</ele>
        <time>2015-06-20T06:10:11Z</time>
      </trkpt>
      <trkpt lat="36.017005" lon="-5.573295">
        <ele>27.56</ele>
        <time>2015-06-20T06:10:16Z</time>
      </trkpt>
      <trkpt lat="36.017034" lon="-5.573204">
        <ele>26.83</ele>
        <time>2015-06-20T06:10:19Z</time>
      </trkpt>
      <trkpt lat="36.017095" lon="-5.573099">
        <ele>26.31</ele>
        <time>2015-06-20T06:10:23Z</time>
      </trkpt>
      <trkpt lat="36.017117" lon="-5.573025">
        <ele>25.72</ele>
        <time>2015-06-20T06:10:25Z</time>
      </trkpt>
      <trkpt lat="36.017155" lon="-5.572926">
        <ele>25.07</ele>
        <time>2015-06-20T06:10:28Z</time>
      </trkpt>
      <trkpt lat="36.017182" lon="-5.572875">
        <ele>24.87</ele>
        <time>2015-06-20T06:10:30Z</time>
      </trkpt>
      <trkpt lat="36.017193" lon="-5.572856">
        <ele>24.74</ele>
        <time>2015-06-20T06:10:31Z</time>
      </trkpt>
      <trkpt lat="36.017203" lon="-5.572835">
        <ele>24.52</ele>
        <time>2015-06-20T06:10:32Z</time>
      </trkpt>
      <trkpt lat="36.017212" lon="-5.572810">
        <ele>24.32</ele>
        <time>2015-06-20T06:10:33Z</time>
      </trkpt>
      <trkpt lat="36.017221" lon="-5.572782">
        <ele>24.07</ele>
        <time>2015-06-20T06:10:34Z</time>
      </trkpt>
      <trkpt lat="36.017259" lon="-5.572678">
        <ele>23.59</ele>
        <time>2015-06-20T06:10:38Z</time>
      </trkpt>
      <trkpt lat="36.017308" lon="-5.572548">
        <ele>22.82</ele>
        <time>2015-06-20T06:10:44Z</time>
      </trkpt>
      <trkpt lat="36.017316" lon="-5.572498">
        <ele>22.31</ele>
        <time>2015-06-20T06:10:46Z</time>
      </trkpt>
      <trkpt lat="36.017318" lon="-5.572463">
        <ele>21.82</ele>
        <time>2015-06-20T06:10:47Z</time>
      </trkpt>
      <trkpt lat="36.017330" lon="-5.572436">
        <ele>21.61</ele>
        <time>2015-06-20T06:10:48Z</time>
      </trkpt>
      <trkpt lat="36.017332" lon="-5.572417">
        <ele>21.41</ele>
        <time>2015-06-20T06:10:49Z</time>
      </trkpt>
      <trkpt lat="36.017333" lon="-5.572408">
        <ele>21.33</ele>
        <time>2015-06-20T06:10:50Z</time>
      </trkpt>
      <trkpt lat="36.017331" lon="-5.572414">
        <ele>21.34</ele>
        <time>2015-06-20T06:10:51Z</time>
      </trkpt>
      <trkpt lat="36.017331" lon="-5.572414">
        <ele>21.33</ele>
        <time>2015-06-20T06:10:52Z</time>
      </trkpt>
      <trkpt lat="36.017331" lon="-5.572414">
        <ele>21.39</ele>
        <time>2015-06-20T06:10:53Z</time>
      </trkpt>
      <trkpt lat="36.017331" lon="-5.572414">
        <ele>21.32</ele>
        <time>2015-06-20T06:10:54Z</time>
      </trkpt>
      <trkpt lat="36.017331" lon="-5.572414">
        <ele>21.39</ele>
        <time>2015-06-20T06:10:55Z</time>
      </trkpt>
      <trkpt lat="36.017331" lon="-5.572414">
        <ele>21.35</ele>
        <time>2015-06-20T06:11:02Z</time>
      </trkpt>
      <trkpt lat="36.017331" lon="-5.572414">
        <ele>21.39</ele>
        <time>2015-06-20T06:11:04Z</time>
      </trkpt>
      <trkpt lat="36.017331" lon="-5.572414">
        <ele>21.34</ele>
        <time>2015-06-20T06:11:08Z</time>
      </trkpt>
      <trkpt lat="36.017328" lon="-5.572404">
        <ele>21.13</ele>
        <time>2015-06-20T06:11:12Z</time>
      </trkpt>
      <trkpt lat="36.017329" lon="-5.572328">
        <ele>20.11</ele>
        <time>2015-06-20T06:11:14Z</time>
      </trkpt>
      <trkpt lat="36.017329" lon="-5.572181">
        <ele>18.08</ele>
        <time>2015-06-20T06:11:17Z</time>
      </trkpt>
      <trkpt lat="36.017322" lon="-5.572117">
        <ele>17.27</ele>
        <time>2015-06-20T06:11:18Z</time>
      </trkpt>
      <trkpt lat="36.017310" lon="-5.572060">
        <ele>16.38</ele>
        <time>2015-06-20T06:11:19Z</time>
      </trkpt>
      <trkpt lat="36.017310" lon="-5.571920">
        <ele>14.74</ele>
        <time>2015-06-20T06:11:22Z</time>
      </trkpt>
      <trkpt lat="36.017319" lon="-5.571877">
        <ele>14.55</ele>
        <time>2015-06-20T06:11:23Z</time>
      </trkpt>
      <trkpt lat="36.017326" lon="-5.571831">
        <ele>14.22</ele>
        <time>2015-06-20T06:11:24Z</time>
      </trkpt>
      <trkpt lat="36.017343" lon="-5.571791">
        <ele>14.05</ele>
        <time>2015-06-20T06:11:25Z</time>
      </trkpt>
      <trkpt lat="36.017355" lon="-5.571761">
        <ele>13.87</ele>
        <time>2015-06-20T06:11:26Z</time>
      </trkpt>
      <trkpt lat="36.017371" lon="-5.571740">
        <ele>13.73</ele>
        <time>2015-06-20T06:11:27Z</time>
      </trkpt>
      <trkpt lat="36.017397" lon="-5.571730">
        <ele>13.93</ele>
        <time>2015-06-20T06:11:28Z</time>
      </trkpt>
      <trkpt lat="36.017422" lon="-5.571715">
        <ele>13.91</ele>
        <time>2015-06-20T06:11:29Z</time>
      </trkpt>
      <trkpt lat="36.017450" lon="-5.571698">
        <ele>14.01</ele>
        <time>2015-06-20T06:11:30Z</time>
      </trkpt>
      <trkpt lat="36.017481" lon="-5.571678">
        <ele>14.01</ele>
        <time>2015-06-20T06:11:31Z</time>
      </trkpt>
      <trkpt lat="36.017517" lon="-5.571681">
        <ele>14.29</ele>
        <time>2015-06-20T06:11:32Z</time>
      </trkpt>
      <trkpt lat="36.017550" lon="-5.571674">
        <ele>14.37</ele>
        <time>2015-06-20T06:11:33Z</time>
      </trkpt>
      <trkpt lat="36.017582" lon="-5.571675">
        <ele>14.41</ele>
        <time>2015-06-20T06:11:34Z</time>
      </trkpt>
      <trkpt lat="36.017621" lon="-5.571666">
        <ele>14.41</ele>
        <time>2015-06-20T06:11:35Z</time>
      </trkpt>
      <trkpt lat="36.017660" lon="-5.571667">
        <ele>14.67</ele>
        <time>2015-06-20T06:11:36Z</time>
      </trkpt>
      <trkpt lat="36.017700" lon="-5.571660">
        <ele>14.80</ele>
        <time>2015-06-20T06:11:37Z</time>
      </trkpt>
      <trkpt lat="36.017741" lon="-5.571660">
        <ele>14.84</ele>
        <time>2015-06-20T06:11:38Z</time>
      </trkpt>
      <trkpt lat="36.017784" lon="-5.571658">
        <ele>15.02</ele>
        <time>2015-06-20T06:11:39Z</time>
      </trkpt>
      <trkpt lat="36.017919" lon="-5.571663">
        <ele>16.54</ele>
        <time>2015-06-20T06:11:42Z</time>
      </trkpt>
      <trkpt lat="36.018004" lon="-5.571675">
        <ele>17.50</ele>
        <time>2015-06-20T06:11:44Z</time>
      </trkpt>
      <trkpt lat="36.018033" lon="-5.571670">
        <ele>17.81</ele>
        <time>2015-06-20T06:11:45Z</time>
      </trkpt>
      <trkpt lat="36.018054" lon="-5.571675">
        <ele>18.03</ele>
        <time>2015-06-20T06:11:46Z</time>
      </trkpt>
      <trkpt lat="36.018069" lon="-5.571682">
        <ele>18.23</ele>
        <time>2015-06-20T06:11:47Z</time>
      </trkpt>
      <trkpt lat="36.018088" lon="-5.571681">
        <ele>18.43</ele>
        <time>2015-06-20T06:11:48Z</time>
      </trkpt>
      <trkpt lat="36.018128" lon="-5.571675">
        <ele>18.87</ele>
        <time>2015-06-20T06:11:50Z</time>
      </trkpt>
      <trkpt lat="36.018139" lon="-5.571674">
        <ele>18.99</ele>
        <time>2015-06-20T06:11:51Z</time>
      </trkpt>
      <trkpt lat="36.018174" lon="-5.571668">
        <ele>19.34</ele>
        <time>2015-06-20T06:11:53Z</time>
      </trkpt>
      <trkpt lat="36.018205" lon="-5.571666">
        <ele>19.68</ele>
        <time>2015-06-20T06:11:55Z</time>
      </trkpt>
      <trkpt lat="36.018218" lon="-5.571674">
        <ele>19.74</ele>
        <time>2015-06-20T06:11:56Z</time>
      </trkpt>
      <trkpt lat="36.018233" lon="-5.571673">
        <ele>19.98</ele>
        <time>2015-06-20T06:11:57Z</time>
      </trkpt>
      <trkpt lat="36.018249" lon="-5.571673">
        <ele>20.13</ele>
        <time>2015-06-20T06:11:58Z</time>
      </trkpt>
      <trkpt lat="36.018264" lon="-5.571671">
        <ele>20.22</ele>
        <time>2015-06-20T06:11:59Z</time>
      </trkpt>
      <trkpt lat="36.018280" lon="-5.571673">
        <ele>20.41</ele>
        <time>2015-06-20T06:12:00Z</time>
      </trkpt>
      <trkpt lat="36.018316" lon="-5.571687">
        <ele>20.74</ele>
        <time>2015-06-20T06:12:02Z</time>
      </trkpt>
      <trkpt lat="36.018326" lon="-5.571680">
        <ele>20.82</ele>
        <time>2015-06-20T06:12:03Z</time>
      </trkpt>
      <trkpt lat="36.018346" lon="-5.571668">
        <ele>20.98</ele>
        <time>2015-06-20T06:12:05Z</time>
      </trkpt>
      <trkpt lat="36.018362" lon="-5.571662">
        <ele>20.98</ele>
        <time>2015-06-20T06:12:09Z</time>
      </trkpt>
      <trkpt lat="36.018362" lon="-5.571662">
        <ele>20.96</ele>
        <time>2015-06-20T06:12:10Z</time>
      </trkpt>
      <trkpt lat="36.018362" lon="-5.571662">
        <ele>20.99</ele>
        <time>2015-06-20T06:12:11Z</time>
      </trkpt>
      <trkpt lat="36.018362" lon="-5.571662">
        <ele>20.93</ele>
        <time>2015-06-20T06:12:12Z</time>
      </trkpt>
      <trkpt lat="36.018375" lon="-5.571650">
        <ele>21.10</ele>
        <time>2015-06-20T06:12:16Z</time>
      </trkpt>
      <trkpt lat="36.018397" lon="-5.571614">
        <ele>21.32</ele>
        <time>2015-06-20T06:12:18Z</time>
      </trkpt>
      <trkpt lat="36.018391" lon="-5.571511">
        <ele>22.43</ele>
        <time>2015-06-20T06:12:23Z</time>
      </trkpt>
      <trkpt lat="36.018343" lon="-5.571450">
        <ele>22.61</ele>
        <time>2015-06-20T06:12:27Z</time>
      </trkpt>
      <trkpt lat="36.018328" lon="-5.571435">
        <ele>22.61</ele>
        <time>2015-06-20T06:12:28Z</time>
      </trkpt>
      <trkpt lat="36.018309" lon="-5.571423">
        <ele>22.43</ele>
        <time>2015-06-20T06:12:29Z</time>
      </trkpt>
      <trkpt lat="36.018289" lon="-5.571415">
        <ele>22.26</ele>
        <time>2015-06-20T06:12:30Z</time>
      </trkpt>
      <trkpt lat="36.018266" lon="-5.571410">
        <ele>21.93</ele>
        <time>2015-06-20T06:12:31Z</time>
      </trkpt>
      <trkpt lat="36.018248" lon="-5.571403">
        <ele>21.79</ele>
        <time>2015-06-20T06:12:32Z</time>
      </trkpt>
      <trkpt lat="36.018228" lon="-5.571390">
        <ele>21.51</ele>
        <time>2015-06-20T06:12:33Z</time>
      </trkpt>
      <trkpt lat="36.018189" lon="-5.571354">
        <ele>21.21</ele>
        <time>2015-06-20T06:12:35Z</time>
      </trkpt>
      <trkpt lat="36.018076" lon="-5.571248">
        <ele>20.00</ele>
        <time>2015-06-20T06:12:42Z</time>
      </trkpt>
      <trkpt lat="36.018039" lon="-5.571166">
        <ele>19.35</ele>
        <time>2015-06-20T06:12:46Z</time>
      </trkpt>
      <trkpt lat="36.018026" lon="-5.571147">
        <ele>19.09</ele>
        <time>2015-06-20T06:12:47Z</time>
      </trkpt>
      <trkpt lat="36.018023" lon="-5.571121">
        <ele>19.01</ele>
        <time>2015-06-20T06:12:48Z</time>
      </trkpt>
      <trkpt lat="36.018023" lon="-5.571097">
        <ele>19.13</ele>
        <time>2015-06-20T06:12:49Z</time>
      </trkpt>
      <trkpt lat="36.018022" lon="-5.571072">
        <ele>19.01</ele>
        <time>2015-06-20T06:12:50Z</time>
      </trkpt>
      <trkpt lat="36.018024" lon="-5.571012">
        <ele>19.17</ele>
        <time>2015-06-20T06:12:53Z</time>
      </trkpt>
      <trkpt lat="36.018024" lon="-5.570993">
        <ele>19.09</ele>
        <time>2015-06-20T06:12:54Z</time>
      </trkpt>
      <trkpt lat="36.018029" lon="-5.570976">
        <ele>19.24</ele>
        <time>2015-06-20T06:12:55Z</time>
      </trkpt>
      <trkpt lat="36.018032" lon="-5.570952">
        <ele>19.33</ele>
        <time>2015-06-20T06:12:56Z</time>
      </trkpt>
      <trkpt lat="36.018035" lon="-5.570936">
        <ele>19.49</ele>
        <time>2015-06-20T06:12:57Z</time>
      </trkpt>
      <trkpt lat="36.018049" lon="-5.570876">
        <ele>19.86</ele>
        <time>2015-06-20T06:13:00Z</time>
      </trkpt>
      <trkpt lat="36.018062" lon="-5.570861">
        <ele>20.29</ele>
        <time>2015-06-20T06:13:01Z</time>
      </trkpt>
      <trkpt lat="36.018100" lon="-5.570776">
        <ele>21.67</ele>
        <time>2015-06-20T06:13:06Z</time>
      </trkpt>
      <trkpt lat="36.018104" lon="-5.570753">
        <ele>21.72</ele>
        <time>2015-06-20T06:13:07Z</time>
      </trkpt>
      <trkpt lat="36.018114" lon="-5.570732">
        <ele>22.16</ele>
        <time>2015-06-20T06:13:08Z</time>
      </trkpt>
      <trkpt lat="36.018121" lon="-5.570715">
        <ele>22.41</ele>
        <time>2015-06-20T06:13:09Z</time>
      </trkpt>
      <trkpt lat="36.018129" lon="-5.570701">
        <ele>22.61</ele>
        <time>2015-06-20T06:13:10Z</time>
      </trkpt>
      <trkpt lat="36.018135" lon="-5.570687">
        <ele>22.95</ele>
        <time>2015-06-20T06:13:11Z</time>
      </trkpt>
      <trkpt lat="36.018143" lon="-5.570670">
        <ele>23.15</ele>
        <time>2015-06-20T06:13:12Z</time>
      </trkpt>
      <trkpt lat="36.018156" lon="-5.570666">
        <ele>23.65</ele>
        <time>2015-06-20T06:13:13Z</time>
      </trkpt>
      <trkpt lat="36.018190" lon="-5.570626">
        <ele>24.90</ele>
        <time>2015-06-20T06:13:17Z</time>
      </trkpt>
      <trkpt lat="36.018203" lon="-5.570584">
        <ele>25.37</ele>
        <time>2015-06-20T06:13:20Z</time>
      </trkpt>
      <trkpt lat="36.018206" lon="-5.570566">
        <ele>25.41</ele>
        <time>2015-06-20T06:13:21Z</time>
      </trkpt>
      <trkpt lat="36.018215" lon="-5.570549">
        <ele>25.77</ele>
        <time>2015-06-20T06:13:22Z</time>
      </trkpt>
      <trkpt lat="36.018224" lon="-5.570533">
        <ele>26.02</ele>
        <time>2015-06-20T06:13:23Z</time>
      </trkpt>
      <trkpt lat="36.018233" lon="-5.570511">
        <ele>26.26</ele>
        <time>2015-06-20T06:13:24Z</time>
      </trkpt>
      <trkpt lat="36.018230" lon="-5.570494">
        <ele>26.14</ele>
        <time>2015-06-20T06:13:25Z</time>
      </trkpt>
      <trkpt lat="36.018245" lon="-5.570457">
        <ele>26.52</ele>
        <time>2015-06-20T06:13:27Z</time>
      </trkpt>
      <trkpt lat="36.018259" lon="-5.570442">
        <ele>26.91</ele>
        <time>2015-06-20T06:13:28Z</time>
      </trkpt>
      <trkpt lat="36.018303" lon="-5.570330">
        <ele>28.13</ele>
        <time>2015-06-20T06:13:34Z</time>
      </trkpt>
      <trkpt lat="36.018358" lon="-5.570194">
        <ele>29.03</ele>
        <time>2015-06-20T06:13:40Z</time>
      </trkpt>
      <trkpt lat="36.018373" lon="-5.570152">
        <ele>29.17</ele>
        <time>2015-06-20T06:13:42Z</time>
      </trkpt>
      <trkpt lat="36.018401" lon="-5.570073">
        <ele>29.45</ele>
        <time>2015-06-20T06:13:47Z</time>
      </trkpt>
      <trkpt lat="36.018405" lon="-5.570057">
        <ele>29.46</ele>
        <time>2015-06-20T06:13:48Z</time>
      </trkpt>
      <trkpt lat="36.018423" lon="-5.569992">
        <ele>29.60</ele>
        <time>2015-06-20T06:13:51Z</time>
      </trkpt>
      <trkpt lat="36.018451" lon="-5.569929">
        <ele>29.81</ele>
        <time>2015-06-20T06:13:54Z</time>
      </trkpt>
      <trkpt lat="36.018481" lon="-5.569836">
        <ele>29.86</ele>
        <time>2015-06-20T06:13:58Z</time>
      </trkpt>
      <trkpt lat="36.018492" lon="-5.569813">
        <ele>29.93</ele>
        <time>2015-06-20T06:13:59Z</time>
      </trkpt>
      <trkpt lat="36.018499" lon="-5.569785">
        <ele>29.82</ele>
        <time>2015-06-20T06:14:00Z</time>
      </trkpt>
      <trkpt lat="36.018510" lon="-5.569759">
        <ele>29.82</ele>
        <time>2015-06-20T06:14:01Z</time>
      </trkpt>
      <trkpt lat="36.018520" lon="-5.569734">
        <ele>29.91</ele>
        <time>2015-06-20T06:14:02Z</time>
      </trkpt>
      <trkpt lat="36.018551" lon="-5.569642">
        <ele>30.12</ele>
        <time>2015-06-20T06:14:05Z</time>
      </trkpt>
      <trkpt lat="36.018561" lon="-5.569612">
        <ele>30.19</ele>
        <time>2015-06-20T06:14:06Z</time>
      </trkpt>
      <trkpt lat="36.018649" lon="-5.569356">
        <ele>29.74</ele>
        <time>2015-06-20T06:14:14Z</time>
      </trkpt>
      <trkpt lat="36.018668" lon="-5.569295">
        <ele>29.38</ele>
        <time>2015-06-20T06:14:16Z</time>
      </trkpt>
      <trkpt lat="36.018697" lon="-5.569252">
        <ele>29.49</ele>
        <time>2015-06-20T06:14:18Z</time>
      </trkpt>
      <trkpt lat="36.018726" lon="-5.569204">
        <ele>29.49</ele>
        <time>2015-06-20T06:14:20Z</time>
      </trkpt>
      <trkpt lat="36.018738" lon="-5.569180">
        <ele>29.46</ele>
        <time>2015-06-20T06:14:21Z</time>
      </trkpt>
      <trkpt lat="36.018749" lon="-5.569150">
        <ele>29.27</ele>
        <time>2015-06-20T06:14:22Z</time>
      </trkpt>
      <trkpt lat="36.018759" lon="-5.569121">
        <ele>29.13</ele>
        <time>2015-06-20T06:14:23Z</time>
      </trkpt>
      <trkpt lat="36.018773" lon="-5.569090">
        <ele>28.99</ele>
        <time>2015-06-20T06:14:24Z</time>
      </trkpt>
      <trkpt lat="36.018806" lon="-5.569036">
        <ele>28.82</ele>
        <time>2015-06-20T06:14:26Z</time>
      </trkpt>
      <trkpt lat="36.018868" lon="-5.568857">
        <ele>27.31</ele>
        <time>2015-06-20T06:14:32Z</time>
      </trkpt>
      <trkpt lat="36.018876" lon="-5.568797">
        <ele>26.89</ele>
        <time>2015-06-20T06:14:34Z</time>
      </trkpt>
      <trkpt lat="36.018881" lon="-5.568767">
        <ele>26.70</ele>
        <time>2015-06-20T06:14:35Z</time>
      </trkpt>
      <trkpt lat="36.018887" lon="-5.568738">
        <ele>26.37</ele>
        <time>2015-06-20T06:14:36Z</time>
      </trkpt>
      <trkpt lat="36.018893" lon="-5.568709">
        <ele>26.26</ele>
        <time>2015-06-20T06:14:37Z</time>
      </trkpt>
      <trkpt lat="36.018897" lon="-5.568678">
        <ele>25.91</ele>
        <time>2015-06-20T06:14:38Z</time>
      </trkpt>
      <trkpt lat="36.018899" lon="-5.568491">
        <ele>24.89</ele>
        <time>2015-06-20T06:14:45Z</time>
      </trkpt>
      <trkpt lat="36.018897" lon="-5.568469">
        <ele>24.77</ele>
        <time>2015-06-20T06:14:46Z</time>
      </trkpt>
      <trkpt lat="36.018896" lon="-5.568449">
        <ele>24.69</ele>
        <time>2015-06-20T06:14:47Z</time>
      </trkpt>
      <trkpt lat="36.018900" lon="-5.568436">
        <ele>24.67</ele>
        <time>2015-06-20T06:14:48Z</time>
      </trkpt>
      <trkpt lat="36.018899" lon="-5.568406">
        <ele>24.54</ele>
        <time>2015-06-20T06:14:49Z</time>
      </trkpt>
      <trkpt lat="36.018903" lon="-5.568353">
        <ele>24.41</ele>
        <time>2015-06-20T06:14:51Z</time>
      </trkpt>
      <trkpt lat="36.018947" lon="-5.568181">
        <ele>25.51</ele>
        <time>2015-06-20T06:14:57Z</time>
      </trkpt>
      <trkpt lat="36.018990" lon="-5.568072">
        <ele>26.18</ele>
        <time>2015-06-20T06:15:01Z</time>
      </trkpt>
      <trkpt lat="36.019009" lon="-5.568021">
        <ele>26.18</ele>
        <time>2015-06-20T06:15:03Z</time>
      </trkpt>
      <trkpt lat="36.019063" lon="-5.567859">
        <ele>25.99</ele>
        <time>2015-06-20T06:15:09Z</time>
      </trkpt>
      <trkpt lat="36.019138" lon="-5.567737">
        <ele>26.20</ele>
        <time>2015-06-20T06:15:14Z</time>
      </trkpt>
      <trkpt lat="36.019220" lon="-5.567643">
        <ele>26.32</ele>
        <time>2015-06-20T06:15:19Z</time>
      </trkpt>
      <trkpt lat="36.019319" lon="-5.567562">
        <ele>26.98</ele>
        <time>2015-06-20T06:15:24Z</time>
      </trkpt>
      <trkpt lat="36.019418" lon="-5.567489">
        <ele>27.68</ele>
        <time>2015-06-20T06:15:29Z</time>
      </trkpt>
      <trkpt lat="36.019493" lon="-5.567438">
        <ele>28.93</ele>
        <time>2015-06-20T06:15:32Z</time>
      </trkpt>
      <trkpt lat="36.019517" lon="-5.567412">
        <ele>29.35</ele>
        <time>2015-06-20T06:15:33Z</time>
      </trkpt>
      <trkpt lat="36.019540" lon="-5.567384">
        <ele>29.70</ele>
        <time>2015-06-20T06:15:34Z</time>
      </trkpt>
      <trkpt lat="36.019561" lon="-5.567355">
        <ele>30.11</ele>
        <time>2015-06-20T06:15:35Z</time>
      </trkpt>
      <trkpt lat="36.019578" lon="-5.567320">
        <ele>30.41</ele>
        <time>2015-06-20T06:15:36Z</time>
      </trkpt>
      <trkpt lat="36.019584" lon="-5.567280">
        <ele>30.53</ele>
        <time>2015-06-20T06:15:37Z</time>
      </trkpt>
      <trkpt lat="36.019583" lon="-5.567242">
        <ele>30.57</ele>
        <time>2015-06-20T06:15:38Z</time>
      </trkpt>
      <trkpt lat="36.019575" lon="-5.567103">
        <ele>30.18</ele>
        <time>2015-06-20T06:15:43Z</time>
      </trkpt>
      <trkpt lat="36.019576" lon="-5.567081">
        <ele>30.15</ele>
        <time>2015-06-20T06:15:44Z</time>
      </trkpt>
      <trkpt lat="36.019578" lon="-5.567057">
        <ele>30.16</ele>
        <time>2015-06-20T06:15:45Z</time>
      </trkpt>
      <trkpt lat="36.019580" lon="-5.567035">
        <ele>30.13</ele>
        <time>2015-06-20T06:15:46Z</time>
      </trkpt>
      <trkpt lat="36.019585" lon="-5.567012">
        <ele>30.21</ele>
        <time>2015-06-20T06:15:47Z</time>
      </trkpt>
      <trkpt lat="36.019598" lon="-5.566949">
        <ele>30.31</ele>
        <time>2015-06-20T06:15:50Z</time>
      </trkpt>
      <trkpt lat="36.019650" lon="-5.566833">
        <ele>30.72</ele>
        <time>2015-06-20T06:15:56Z</time>
      </trkpt>
      <trkpt lat="36.019712" lon="-5.566705">
        <ele>31.88</ele>
        <time>2015-06-20T06:16:02Z</time>
      </trkpt>
      <trkpt lat="36.019721" lon="-5.566688">
        <ele>32.01</ele>
        <time>2015-06-20T06:16:03Z</time>
      </trkpt>
      <trkpt lat="36.019755" lon="-5.566646">
        <ele>32.41</ele>
        <time>2015-06-20T06:16:06Z</time>
      </trkpt>
      <trkpt lat="36.019810" lon="-5.566562">
        <ele>32.21</ele>
        <time>2015-06-20T06:16:11Z</time>
      </trkpt>
      <trkpt lat="36.019817" lon="-5.566542">
        <ele>32.13</ele>
        <time>2015-06-20T06:16:12Z</time>
      </trkpt>
      <trkpt lat="36.019827" lon="-5.566520">
        <ele>32.04</ele>
        <time>2015-06-20T06:16:13Z</time>
      </trkpt>
      <trkpt lat="36.019836" lon="-5.566498">
        <ele>31.96</ele>
        <time>2015-06-20T06:16:14Z</time>
      </trkpt>
      <trkpt lat="36.019845" lon="-5.566474">
        <ele>31.88</ele>
        <time>2015-06-20T06:16:15Z</time>
      </trkpt>
      <trkpt lat="36.019856" lon="-5.566452">
        <ele>31.82</ele>
        <time>2015-06-20T06:16:16Z</time>
      </trkpt>
      <trkpt lat="36.019868" lon="-5.566430">
        <ele>31.87</ele>
        <time>2015-06-20T06:16:17Z</time>
      </trkpt>
      <trkpt lat="36.019942" lon="-5.566282">
        <ele>30.84</ele>
        <time>2015-06-20T06:16:23Z</time>
      </trkpt>
      <trkpt lat="36.020015" lon="-5.566146">
        <ele>29.23</ele>
        <time>2015-06-20T06:16:29Z</time>
      </trkpt>
      <trkpt lat="36.020054" lon="-5.566077">
        <ele>29.09</ele>
        <time>2015-06-20T06:16:32Z</time>
      </trkpt>
      <trkpt lat="36.020084" lon="-5.566027">
        <ele>29.22</ele>
        <time>2015-06-20T06:16:34Z</time>
      </trkpt>
      <trkpt lat="36.020101" lon="-5.565967">
        <ele>29.01</ele>
        <time>2015-06-20T06:16:36Z</time>
      </trkpt>
      <trkpt lat="36.020126" lon="-5.565909">
        <ele>29.04</ele>
        <time>2015-06-20T06:16:38Z</time>
      </trkpt>
      <trkpt lat="36.020144" lon="-5.565876">
        <ele>29.16</ele>
        <time>2015-06-20T06:16:39Z</time>
      </trkpt>
      <trkpt lat="36.020162" lon="-5.565840">
        <ele>29.26</ele>
        <time>2015-06-20T06:16:40Z</time>
      </trkpt>
      <trkpt lat="36.020175" lon="-5.565801">
        <ele>29.26</ele>
        <time>2015-06-20T06:16:41Z</time>
      </trkpt>
      <trkpt lat="36.020184" lon="-5.565758">
        <ele>29.12</ele>
        <time>2015-06-20T06:16:42Z</time>
      </trkpt>
      <trkpt lat="36.020193" lon="-5.565718">
        <ele>29.04</ele>
        <time>2015-06-20T06:16:43Z</time>
      </trkpt>
      <trkpt lat="36.020203" lon="-5.565680">
        <ele>29.05</ele>
        <time>2015-06-20T06:16:44Z</time>
      </trkpt>
      <trkpt lat="36.020212" lon="-5.565644">
        <ele>29.01</ele>
        <time>2015-06-20T06:16:45Z</time>
      </trkpt>
      <trkpt lat="36.020227" lon="-5.565524">
        <ele>28.56</ele>
        <time>2015-06-20T06:16:49Z</time>
      </trkpt>
      <trkpt lat="36.020240" lon="-5.565322">
        <ele>27.51</ele>
        <time>2015-06-20T06:16:55Z</time>
      </trkpt>
      <trkpt lat="36.020239" lon="-5.565289">
        <ele>27.22</ele>
        <time>2015-06-20T06:16:56Z</time>
      </trkpt>
      <trkpt lat="36.020248" lon="-5.565098">
        <ele>24.91</ele>
        <time>2015-06-20T06:17:02Z</time>
      </trkpt>
      <trkpt lat="36.020249" lon="-5.565037">
        <ele>24.20</ele>
        <time>2015-06-20T06:17:04Z</time>
      </trkpt>
      <trkpt lat="36.020233" lon="-5.564790">
        <ele>21.11</ele>
        <time>2015-06-20T06:17:11Z</time>
      </trkpt>
      <trkpt lat="36.020245" lon="-5.564593">
        <ele>19.29</ele>
        <time>2015-06-20T06:17:16Z</time>
      </trkpt>
      <trkpt lat="36.020247" lon="-5.564552">
        <ele>18.86</ele>
        <time>2015-06-20T06:17:17Z</time>
      </trkpt>
      <trkpt lat="36.020283" lon="-5.564436">
        <ele>18.05</ele>
        <time>2015-06-20T06:17:21Z</time>
      </trkpt>
      <trkpt lat="36.020299" lon="-5.564412">
        <ele>18.18</ele>
        <time>2015-06-20T06:17:22Z</time>
      </trkpt>
      <trkpt lat="36.020316" lon="-5.564384">
        <ele>18.22</ele>
        <time>2015-06-20T06:17:23Z</time>
      </trkpt>
      <trkpt lat="36.020333" lon="-5.564353">
        <ele>18.18</ele>
        <time>2015-06-20T06:17:24Z</time>
      </trkpt>
      <trkpt lat="36.020352" lon="-5.564318">
        <ele>18.16</ele>
        <time>2015-06-20T06:17:25Z</time>
      </trkpt>
      <trkpt lat="36.020372" lon="-5.564279">
        <ele>17.91</ele>
        <time>2015-06-20T06:17:26Z</time>
      </trkpt>
      <trkpt lat="36.020390" lon="-5.564237">
        <ele>17.62</ele>
        <time>2015-06-20T06:17:27Z</time>
      </trkpt>
      <trkpt lat="36.020410" lon="-5.564192">
        <ele>17.31</ele>
        <time>2015-06-20T06:17:28Z</time>
      </trkpt>
      <trkpt lat="36.020432" lon="-5.564147">
        <ele>16.95</ele>
        <time>2015-06-20T06:17:29Z</time>
      </trkpt>
      <trkpt lat="36.020475" lon="-5.564058">
        <ele>15.88</ele>
        <time>2015-06-20T06:17:31Z</time>
      </trkpt>
      <trkpt lat="36.020496" lon="-5.564012">
        <ele>15.12</ele>
        <time>2015-06-20T06:17:32Z</time>
      </trkpt>
      <trkpt lat="36.020517" lon="-5.563966">
        <ele>14.42</ele>
        <time>2015-06-20T06:17:33Z</time>
      </trkpt>
      <trkpt lat="36.020539" lon="-5.563925">
        <ele>13.80</ele>
        <time>2015-06-20T06:17:34Z</time>
      </trkpt>
      <trkpt lat="36.020558" lon="-5.563889">
        <ele>13.03</ele>
        <time>2015-06-20T06:17:35Z</time>
      </trkpt>
      <trkpt lat="36.020579" lon="-5.563853">
        <ele>13.21</ele>
        <time>2015-06-20T06:17:36Z</time>
      </trkpt>
      <trkpt lat="36.020596" lon="-5.563813">
        <ele>13.47</ele>
        <time>2015-06-20T06:17:37Z</time>
      </trkpt>
      <trkpt lat="36.020610" lon="-5.563770">
        <ele>13.52</ele>
        <time>2015-06-20T06:17:38Z</time>
      </trkpt>
      <trkpt lat="36.020625" lon="-5.563727">
        <ele>13.66</ele>
        <time>2015-06-20T06:17:39Z</time>
      </trkpt>
      <trkpt lat="36.020675" lon="-5.563612">
        <ele>13.91</ele>
        <time>2015-06-20T06:17:42Z</time>
      </trkpt>
      <trkpt lat="36.020670" lon="-5.563572">
        <ele>14.11</ele>
        <time>2015-06-20T06:17:43Z</time>
      </trkpt>
      <trkpt lat="36.020666" lon="-5.563537">
        <ele>14.39</ele>
        <time>2015-06-20T06:17:44Z</time>
      </trkpt>
      <trkpt lat="36.020659" lon="-5.563507">
        <ele>14.47</ele>
        <time>2015-06-20T06:17:45Z</time>
      </trkpt>
      <trkpt lat="36.020643" lon="-5.563481">
        <ele>14.46</ele>
        <time>2015-06-20T06:17:46Z</time>
      </trkpt>
      <trkpt lat="36.020588" lon="-5.563407">
        <ele>14.17</ele>
        <time>2015-06-20T06:17:49Z</time>
      </trkpt>
      <trkpt lat="36.020511" lon="-5.563320">
        <ele>13.03</ele>
        <time>2015-06-20T06:17:53Z</time>
      </trkpt>
      <trkpt lat="36.020500" lon="-5.563291">
        <ele>12.69</ele>
        <time>2015-06-20T06:17:57Z</time>
      </trkpt>
      <trkpt lat="36.020500" lon="-5.563291">
        <ele>12.67</ele>
        <time>2015-06-20T06:17:59Z</time>
      </trkpt>
      <trkpt lat="36.020500" lon="-5.563291">
        <ele>12.67</ele>
        <time>2015-06-20T06:18:00Z</time>
      </trkpt>
      <trkpt lat="36.020500" lon="-5.563291">
        <ele>12.63</ele>
        <time>2015-06-20T06:18:01Z</time>
      </trkpt>
      <trkpt lat="36.020500" lon="-5.563291">
        <ele>12.66</ele>
        <time>2015-06-20T06:18:02Z</time>
      </trkpt>
      <trkpt lat="36.020500" lon="-5.563291">
        <ele>12.61</ele>
        <time>2015-06-20T06:18:03Z</time>
      </trkpt>
      <trkpt lat="36.020500" lon="-5.563291">
        <ele>12.61</ele>
        <time>2015-06-20T06:18:09Z</time>
      </trkpt>
      <trkpt lat="36.020500" lon="-5.563291">
        <ele>12.64</ele>
        <time>2015-06-20T06:18:10Z</time>
      </trkpt>
      <trkpt lat="36.020500" lon="-5.563291">
        <ele>12.61</ele>
        <time>2015-06-20T06:18:20Z</time>
      </trkpt>
      <trkpt lat="36.020500" lon="-5.563291">
        <ele>12.61</ele>
        <time>2015-06-20T06:18:28Z</time>
      </trkpt>
      <trkpt lat="36.020500" lon="-5.563291">
        <ele>12.68</ele>
        <time>2015-06-20T06:18:35Z</time>
      </trkpt>
      <trkpt lat="36.020501" lon="-5.563290">
        <ele>12.66</ele>
        <time>2015-06-20T06:18:40Z</time>
      </trkpt>
      <trkpt lat="36.020485" lon="-5.563246">
        <ele>12.18</ele>
        <time>2015-06-20T06:18:46Z</time>
      </trkpt>
      <trkpt lat="36.020483" lon="-5.563200">
        <ele>11.84</ele>
        <time>2015-06-20T06:18:48Z</time>
      </trkpt>
      <trkpt lat="36.020499" lon="-5.563147">
        <ele>12.01</ele>
        <time>2015-06-20T06:18:50Z</time>
      </trkpt>
      <trkpt lat="36.020510" lon="-5.563122">
        <ele>12.15</ele>
        <time>2015-06-20T06:18:51Z</time>
      </trkpt>
      <trkpt lat="36.020562" lon="-5.562974">
        <ele>12.60</ele>
        <time>2015-06-20T06:18:56Z</time>
      </trkpt>
      <trkpt lat="36.020570" lon="-5.562945">
        <ele>12.51</ele>
        <time>2015-06-20T06:18:57Z</time>
      </trkpt>
      <trkpt lat="36.020591" lon="-5.562859">
        <ele>12.41</ele>
        <time>2015-06-20T06:19:01Z</time>
      </trkpt>
      <trkpt lat="36.020597" lon="-5.562835">
        <ele>12.33</ele>
        <time>2015-06-20T06:19:02Z</time>
      </trkpt>
      <trkpt lat="36.020617" lon="-5.562759">
        <ele>12.15</ele>
        <time>2015-06-20T06:19:05Z</time>
      </trkpt>
      <trkpt lat="36.020627" lon="-5.562694">
        <ele>11.44</ele>
        <time>2015-06-20T06:19:08Z</time>
      </trkpt>
      <trkpt lat="36.020621" lon="-5.562678">
        <ele>11.17</ele>
        <time>2015-06-20T06:19:09Z</time>
      </trkpt>
      <trkpt lat="36.020615" lon="-5.562632">
        <ele>10.36</ele>
        <time>2015-06-20T06:19:12Z</time>
      </trkpt>
      <trkpt lat="36.020622" lon="-5.562608">
        <ele>10.13</ele>
        <time>2015-06-20T06:19:13Z</time>
      </trkpt>
      <trkpt lat="36.020629" lon="-5.562584">
        <ele>10.05</ele>
        <time>2015-06-20T06:19:14Z</time>
      </trkpt>
      <trkpt lat="36.020638" lon="-5.562560">
        <ele>9.94</ele>
        <time>2015-06-20T06:19:15Z</time>
      </trkpt>
      <trkpt lat="36.020646" lon="-5.562538">
        <ele>9.86</ele>
        <time>2015-06-20T06:19:16Z</time>
      </trkpt>
      <trkpt lat="36.020676" lon="-5.562466">
        <ele>9.86</ele>
        <time>2015-06-20T06:19:19Z</time>
      </trkpt>
      <trkpt lat="36.020704" lon="-5.562351">
        <ele>9.71</ele>
        <time>2015-06-20T06:19:23Z</time>
      </trkpt>
      <trkpt lat="36.020724" lon="-5.562299">
        <ele>9.81</ele>
        <time>2015-06-20T06:19:25Z</time>
      </trkpt>
      <trkpt lat="36.020779" lon="-5.562168">
        <ele>10.39</ele>
        <time>2015-06-20T06:19:30Z</time>
      </trkpt>
      <trkpt lat="36.020825" lon="-5.562064">
        <ele>10.76</ele>
        <time>2015-06-20T06:19:35Z</time>
      </trkpt>
      <trkpt lat="36.020832" lon="-5.562049">
        <ele>10.76</ele>
        <time>2015-06-20T06:19:36Z</time>
      </trkpt>
      <trkpt lat="36.020879" lon="-5.561978">
        <ele>11.12</ele>
        <time>2015-06-20T06:19:40Z</time>
      </trkpt>
      <trkpt lat="36.020951" lon="-5.561874">
        <ele>11.78</ele>
        <time>2015-06-20T06:19:45Z</time>
      </trkpt>
      <trkpt lat="36.020968" lon="-5.561849">
        <ele>11.94</ele>
        <time>2015-06-20T06:19:46Z</time>
      </trkpt>
      <trkpt lat="36.020986" lon="-5.561825">
        <ele>12.15</ele>
        <time>2015-06-20T06:19:47Z</time>
      </trkpt>
      <trkpt lat="36.021001" lon="-5.561802">
        <ele>12.34</ele>
        <time>2015-06-20T06:19:48Z</time>
      </trkpt>
      <trkpt lat="36.021017" lon="-5.561777">
        <ele>12.54</ele>
        <time>2015-06-20T06:19:49Z</time>
      </trkpt>
      <trkpt lat="36.021052" lon="-5.561729">
        <ele>13.02</ele>
        <time>2015-06-20T06:19:51Z</time>
      </trkpt>
      <trkpt lat="36.021139" lon="-5.561622">
        <ele>14.12</ele>
        <time>2015-06-20T06:19:56Z</time>
      </trkpt>
      <trkpt lat="36.021198" lon="-5.561502">
        <ele>14.21</ele>
        <time>2015-06-20T06:20:00Z</time>
      </trkpt>
      <trkpt lat="36.021208" lon="-5.561445">
        <ele>13.99</ele>
        <time>2015-06-20T06:20:02Z</time>
      </trkpt>
      <trkpt lat="36.021230" lon="-5.561322">
        <ele>13.63</ele>
        <time>2015-06-20T06:20:07Z</time>
      </trkpt>
      <trkpt lat="36.021240" lon="-5.561215">
        <ele>13.36</ele>
        <time>2015-06-20T06:20:12Z</time>
      </trkpt>
      <trkpt lat="36.021245" lon="-5.561190">
        <ele>13.35</ele>
        <time>2015-06-20T06:20:13Z</time>
      </trkpt>
      <trkpt lat="36.021277" lon="-5.560997">
        <ele>13.44</ele>
        <time>2015-06-20T06:20:20Z</time>
      </trkpt>
      <trkpt lat="36.021281" lon="-5.560970">
        <ele>13.49</ele>
        <time>2015-06-20T06:20:21Z</time>
      </trkpt>
      <trkpt lat="36.021283" lon="-5.560943">
        <ele>13.36</ele>
        <time>2015-06-20T06:20:22Z</time>
      </trkpt>
      <trkpt lat="36.021288" lon="-5.560918">
        <ele>13.43</ele>
        <time>2015-06-20T06:20:23Z</time>
      </trkpt>
      <trkpt lat="36.021291" lon="-5.560893">
        <ele>13.50</ele>
        <time>2015-06-20T06:20:24Z</time>
      </trkpt>
      <trkpt lat="36.021311" lon="-5.560827">
        <ele>13.71</ele>
        <time>2015-06-20T06:20:27Z</time>
      </trkpt>
      <trkpt lat="36.021325" lon="-5.560741">
        <ele>13.93</ele>
        <time>2015-06-20T06:20:31Z</time>
      </trkpt>
      <trkpt lat="36.021330" lon="-5.560716">
        <ele>14.01</ele>
        <time>2015-06-20T06:20:32Z</time>
      </trkpt>
      <trkpt lat="36.021334" lon="-5.560692">
        <ele>14.03</ele>
        <time>2015-06-20T06:20:33Z</time>
      </trkpt>
      <trkpt lat="36.021337" lon="-5.560666">
        <ele>14.03</ele>
        <time>2015-06-20T06:20:34Z</time>
      </trkpt>
      <trkpt lat="36.021343" lon="-5.560639">
        <ele>14.12</ele>
        <time>2015-06-20T06:20:35Z</time>
      </trkpt>
      <trkpt lat="36.021363" lon="-5.560543">
        <ele>14.40</ele>
        <time>2015-06-20T06:20:39Z</time>
      </trkpt>
      <trkpt lat="36.021418" lon="-5.560451">
        <ele>15.36</ele>
        <time>2015-06-20T06:20:44Z</time>
      </trkpt>
      <trkpt lat="36.021446" lon="-5.560340">
        <ele>15.55</ele>
        <time>2015-06-20T06:20:48Z</time>
      </trkpt>
      <trkpt lat="36.021448" lon="-5.560314">
        <ele>15.44</ele>
        <time>2015-06-20T06:20:49Z</time>
      </trkpt>
      <trkpt lat="36.021461" lon="-5.560246">
        <ele>15.49</ele>
        <time>2015-06-20T06:20:52Z</time>
      </trkpt>
      <trkpt lat="36.021492" lon="-5.560099">
        <ele>15.68</ele>
        <time>2015-06-20T06:20:58Z</time>
      </trkpt>
      <trkpt lat="36.021527" lon="-5.559954">
        <ele>15.76</ele>
        <time>2015-06-20T06:21:04Z</time>
      </trkpt>
      <trkpt lat="36.021531" lon="-5.559935">
        <ele>15.63</ele>
        <time>2015-06-20T06:21:05Z</time>
      </trkpt>
      <trkpt lat="36.021536" lon="-5.559916">
        <ele>15.61</ele>
        <time>2015-06-20T06:21:06Z</time>
      </trkpt>
      <trkpt lat="36.021543" lon="-5.559894">
        <ele>15.67</ele>
        <time>2015-06-20T06:21:07Z</time>
      </trkpt>
      <trkpt lat="36.021549" lon="-5.559871">
        <ele>15.55</ele>
        <time>2015-06-20T06:21:08Z</time>
      </trkpt>
      <trkpt lat="36.021569" lon="-5.559823">
        <ele>15.69</ele>
        <time>2015-06-20T06:21:10Z</time>
      </trkpt>
      <trkpt lat="36.021660" lon="-5.559655">
        <ele>16.16</ele>
        <time>2015-06-20T06:21:16Z</time>
      </trkpt>
      <trkpt lat="36.021678" lon="-5.559625">
        <ele>16.25</ele>
        <time>2015-06-20T06:21:17Z</time>
      </trkpt>
      <trkpt lat="36.021702" lon="-5.559599">
        <ele>16.38</ele>
        <time>2015-06-20T06:21:18Z</time>
      </trkpt>
      <trkpt lat="36.021726" lon="-5.559571">
        <ele>16.41</ele>
        <time>2015-06-20T06:21:19Z</time>
      </trkpt>
      <trkpt lat="36.021753" lon="-5.559542">
        <ele>16.67</ele>
        <time>2015-06-20T06:21:20Z</time>
      </trkpt>
      <trkpt lat="36.021777" lon="-5.559517">
        <ele>16.90</ele>
        <time>2015-06-20T06:21:21Z</time>
      </trkpt>
      <trkpt lat="36.021802" lon="-5.559493">
        <ele>17.02</ele>
        <time>2015-06-20T06:21:22Z</time>
      </trkpt>
      <trkpt lat="36.021825" lon="-5.559468">
        <ele>17.13</ele>
        <time>2015-06-20T06:21:23Z</time>
      </trkpt>
      <trkpt lat="36.021845" lon="-5.559445">
        <ele>17.21</ele>
        <time>2015-06-20T06:21:24Z</time>
      </trkpt>
      <trkpt lat="36.021868" lon="-5.559424">
        <ele>17.45</ele>
        <time>2015-06-20T06:21:25Z</time>
      </trkpt>
      <trkpt lat="36.021890" lon="-5.559405">
        <ele>17.63</ele>
        <time>2015-06-20T06:21:26Z</time>
      </trkpt>
      <trkpt lat="36.021913" lon="-5.559386">
        <ele>17.87</ele>
        <time>2015-06-20T06:21:27Z</time>
      </trkpt>
      <trkpt lat="36.021932" lon="-5.559366">
        <ele>17.96</ele>
        <time>2015-06-20T06:21:28Z</time>
      </trkpt>
      <trkpt lat="36.022008" lon="-5.559253">
        <ele>17.47</ele>
        <time>2015-06-20T06:21:33Z</time>
      </trkpt>
      <trkpt lat="36.022156" lon="-5.559149">
        <ele>17.48</ele>
        <time>2015-06-20T06:21:39Z</time>
      </trkpt>
      <trkpt lat="36.022267" lon="-5.559143">
        <ele>18.10</ele>
        <time>2015-06-20T06:21:43Z</time>
      </trkpt>
      <trkpt lat="36.022324" lon="-5.559124">
        <ele>18.05</ele>
        <time>2015-06-20T06:21:46Z</time>
      </trkpt>
      <trkpt lat="36.022337" lon="-5.559115">
        <ele>18.07</ele>
        <time>2015-06-20T06:21:47Z</time>
      </trkpt>
      <trkpt lat="36.022366" lon="-5.559020">
        <ele>18.39</ele>
        <time>2015-06-20T06:21:52Z</time>
      </trkpt>
      <trkpt lat="36.022347" lon="-5.558947">
        <ele>18.31</ele>
        <time>2015-06-20T06:21:55Z</time>
      </trkpt>
      <trkpt lat="36.022337" lon="-5.558907">
        <ele>18.21</ele>
        <time>2015-06-20T06:21:57Z</time>
      </trkpt>
      <trkpt lat="36.022329" lon="-5.558888">
        <ele>18.24</ele>
        <time>2015-06-20T06:21:58Z</time>
      </trkpt>
      <trkpt lat="36.022300" lon="-5.558838">
        <ele>18.17</ele>
        <time>2015-06-20T06:22:01Z</time>
      </trkpt>
      <trkpt lat="36.022278" lon="-5.558809">
        <ele>17.97</ele>
        <time>2015-06-20T06:22:03Z</time>
      </trkpt>
      <trkpt lat="36.022256" lon="-5.558783">
        <ele>17.88</ele>
        <time>2015-06-20T06:22:05Z</time>
      </trkpt>
      <trkpt lat="36.022249" lon="-5.558770">
        <ele>17.83</ele>
        <time>2015-06-20T06:22:06Z</time>
      </trkpt>
      <trkpt lat="36.022224" lon="-5.558718">
        <ele>17.69</ele>
        <time>2015-06-20T06:22:09Z</time>
      </trkpt>
      <trkpt lat="36.022210" lon="-5.558680">
        <ele>17.52</ele>
        <time>2015-06-20T06:22:11Z</time>
      </trkpt>
      <trkpt lat="36.022184" lon="-5.558578">
        <ele>16.97</ele>
        <time>2015-06-20T06:22:16Z</time>
      </trkpt>
      <trkpt lat="36.022180" lon="-5.558556">
        <ele>16.76</ele>
        <time>2015-06-20T06:22:17Z</time>
      </trkpt>
      <trkpt lat="36.022179" lon="-5.558533">
        <ele>16.64</ele>
        <time>2015-06-20T06:22:18Z</time>
      </trkpt>
      <trkpt lat="36.022179" lon="-5.558511">
        <ele>16.62</ele>
        <time>2015-06-20T06:22:19Z</time>
      </trkpt>
      <trkpt lat="36.022179" lon="-5.558488">
        <ele>16.51</ele>
        <time>2015-06-20T06:22:20Z</time>
      </trkpt>
      <trkpt lat="36.022183" lon="-5.558468">
        <ele>16.54</ele>
        <time>2015-06-20T06:22:21Z</time>
      </trkpt>
      <trkpt lat="36.022189" lon="-5.558447">
        <ele>16.69</ele>
        <time>2015-06-20T06:22:22Z</time>
      </trkpt>
      <trkpt lat="36.022198" lon="-5.558428">
        <ele>16.72</ele>
        <time>2015-06-20T06:22:23Z</time>
      </trkpt>
      <trkpt lat="36.022204" lon="-5.558410">
        <ele>16.87</ele>
        <time>2015-06-20T06:22:24Z</time>
      </trkpt>
      <trkpt lat="36.022219" lon="-5.558343">
        <ele>17.02</ele>
        <time>2015-06-20T06:22:28Z</time>
      </trkpt>
      <trkpt lat="36.022239" lon="-5.558314">
        <ele>17.40</ele>
        <time>2015-06-20T06:22:30Z</time>
      </trkpt>
      <trkpt lat="36.022243" lon="-5.558300">
        <ele>17.37</ele>
        <time>2015-06-20T06:22:31Z</time>
      </trkpt>
      <trkpt lat="36.022246" lon="-5.558281">
        <ele>17.39</ele>
        <time>2015-06-20T06:22:33Z</time>
      </trkpt>
      <trkpt lat="36.022245" lon="-5.558280">
        <ele>17.35</ele>
        <time>2015-06-20T06:22:34Z</time>
      </trkpt>
      <trkpt lat="36.022245" lon="-5.558280">
        <ele>17.30</ele>
        <time>2015-06-20T06:22:35Z</time>
      </trkpt>
      <trkpt lat="36.022245" lon="-5.558280">
        <ele>17.32</ele>
        <time>2015-06-20T06:22:36Z</time>
      </trkpt>
      <trkpt lat="36.022245" lon="-5.558280">
        <ele>17.31</ele>
        <time>2015-06-20T06:22:37Z</time>
      </trkpt>
      <trkpt lat="36.022245" lon="-5.558280">
        <ele>17.40</ele>
        <time>2015-06-20T06:22:49Z</time>
      </trkpt>
      <trkpt lat="36.022245" lon="-5.558280">
        <ele>17.38</ele>
        <time>2015-06-20T06:22:50Z</time>
      </trkpt>
      <trkpt lat="36.022245" lon="-5.558280">
        <ele>17.38</ele>
        <time>2015-06-20T06:22:53Z</time>
      </trkpt>
      <trkpt lat="36.022245" lon="-5.558280">
        <ele>17.36</ele>
        <time>2015-06-20T06:22:54Z</time>
      </trkpt>
      <trkpt lat="36.022245" lon="-5.558280">
        <ele>17.38</ele>
        <time>2015-06-20T06:22:55Z</time>
      </trkpt>
      <trkpt lat="36.022245" lon="-5.558280">
        <ele>17.40</ele>
        <time>2015-06-20T06:22:56Z</time>
      </trkpt>
      <trkpt lat="36.022245" lon="-5.558280">
        <ele>17.38</ele>
        <time>2015-06-20T06:22:57Z</time>
      </trkpt>
      <trkpt lat="36.022245" lon="-5.558280">
        <ele>17.39</ele>
        <time>2015-06-20T06:22:59Z</time>
      </trkpt>
      <trkpt lat="36.022245" lon="-5.558280">
        <ele>17.33</ele>
        <time>2015-06-20T06:23:02Z</time>
      </trkpt>
      <trkpt lat="36.022245" lon="-5.558280">
        <ele>17.36</ele>
        <time>2015-06-20T06:23:04Z</time>
      </trkpt>
      <trkpt lat="36.022245" lon="-5.558280">
        <ele>17.31</ele>
        <time>2015-06-20T06:23:05Z</time>
      </trkpt>
      <trkpt lat="36.022245" lon="-5.558280">
        <ele>17.31</ele>
        <time>2015-06-20T06:23:08Z</time>
      </trkpt>
      <trkpt lat="36.022252" lon="-5.558272">
        <ele>17.43</ele>
        <time>2015-06-20T06:23:18Z</time>
      </trkpt>
      <trkpt lat="36.022335" lon="-5.558209">
        <ele>19.26</ele>
        <time>2015-06-20T06:23:24Z</time>
      </trkpt>
      <trkpt lat="36.022347" lon="-5.558191">
        <ele>19.49</ele>
        <time>2015-06-20T06:23:25Z</time>
      </trkpt>
      <trkpt lat="36.022387" lon="-5.558160">
        <ele>20.32</ele>
        <time>2015-06-20T06:23:28Z</time>
      </trkpt>
      <trkpt lat="36.022428" lon="-5.558127">
        <ele>21.31</ele>
        <time>2015-06-20T06:23:31Z</time>
      </trkpt>
      <trkpt lat="36.022454" lon="-5.558099">
        <ele>21.96</ele>
        <time>2015-06-20T06:23:33Z</time>
      </trkpt>
      <trkpt lat="36.022504" lon="-5.558058">
        <ele>23.18</ele>
        <time>2015-06-20T06:23:36Z</time>
      </trkpt>
      <trkpt lat="36.022557" lon="-5.558015">
        <ele>23.26</ele>
        <time>2015-06-20T06:23:39Z</time>
      </trkpt>
      <trkpt lat="36.022630" lon="-5.557941">
        <ele>23.29</ele>
        <time>2015-06-20T06:23:44Z</time>
      </trkpt>
      <trkpt lat="36.022642" lon="-5.557927">
        <ele>23.29</ele>
        <time>2015-06-20T06:23:45Z</time>
      </trkpt>
      <trkpt lat="36.022653" lon="-5.557913">
        <ele>23.22</ele>
        <time>2015-06-20T06:23:46Z</time>
      </trkpt>
      <trkpt lat="36.022664" lon="-5.557899">
        <ele>23.11</ele>
        <time>2015-06-20T06:23:47Z</time>
      </trkpt>
      <trkpt lat="36.022673" lon="-5.557885">
        <ele>23.05</ele>
        <time>2015-06-20T06:23:48Z</time>
      </trkpt>
      <trkpt lat="36.022696" lon="-5.557835">
        <ele>22.61</ele>
        <time>2015-06-20T06:23:51Z</time>
      </trkpt>
      <trkpt lat="36.022706" lon="-5.557821">
        <ele>22.68</ele>
        <time>2015-06-20T06:23:52Z</time>
      </trkpt>
      <trkpt lat="36.022724" lon="-5.557798">
        <ele>22.57</ele>
        <time>2015-06-20T06:23:54Z</time>
      </trkpt>
      <trkpt lat="36.022734" lon="-5.557788">
        <ele>22.59</ele>
        <time>2015-06-20T06:23:55Z</time>
      </trkpt>
      <trkpt lat="36.022747" lon="-5.557775">
        <ele>22.56</ele>
        <time>2015-06-20T06:23:56Z</time>
      </trkpt>
      <trkpt lat="36.022757" lon="-5.557767">
        <ele>22.55</ele>
        <time>2015-06-20T06:23:57Z</time>
      </trkpt>
      <trkpt lat="36.022761" lon="-5.557763">
        <ele>22.55</ele>
        <time>2015-06-20T06:23:58Z</time>
      </trkpt>
      <trkpt lat="36.022767" lon="-5.557756">
        <ele>22.49</ele>
        <time>2015-06-20T06:23:59Z</time>
      </trkpt>
      <trkpt lat="36.022776" lon="-5.557750">
        <ele>22.57</ele>
        <time>2015-06-20T06:24:00Z</time>
      </trkpt>
      <trkpt lat="36.022790" lon="-5.557732">
        <ele>22.42</ele>
        <time>2015-06-20T06:24:02Z</time>
      </trkpt>
      <trkpt lat="36.022866" lon="-5.557635">
        <ele>22.31</ele>
        <time>2015-06-20T06:24:08Z</time>
      </trkpt>
      <trkpt lat="36.022961" lon="-5.557513">
        <ele>22.21</ele>
        <time>2015-06-20T06:24:15Z</time>
      </trkpt>
      <trkpt lat="36.023043" lon="-5.557462">
        <ele>23.22</ele>
        <time>2015-06-20T06:24:20Z</time>
      </trkpt>
      <trkpt lat="36.023129" lon="-5.557407">
        <ele>24.30</ele>
        <time>2015-06-20T06:24:24Z</time>
      </trkpt>
      <trkpt lat="36.023240" lon="-5.557342">
        <ele>25.74</ele>
        <time>2015-06-20T06:24:29Z</time>
      </trkpt>
      <trkpt lat="36.023298" lon="-5.557296">
        <ele>26.38</ele>
        <time>2015-06-20T06:24:31Z</time>
      </trkpt>
      <trkpt lat="36.023338" lon="-5.557189">
        <ele>25.92</ele>
        <time>2015-06-20T06:24:34Z</time>
      </trkpt>
      <trkpt lat="36.023323" lon="-5.557070">
        <ele>24.68</ele>
        <time>2015-06-20T06:24:38Z</time>
      </trkpt>
      <trkpt lat="36.023322" lon="-5.557042">
        <ele>24.47</ele>
        <time>2015-06-20T06:24:39Z</time>
      </trkpt>
      <trkpt lat="36.023319" lon="-5.556897">
        <ele>23.25</ele>
        <time>2015-06-20T06:24:45Z</time>
      </trkpt>
      <trkpt lat="36.023337" lon="-5.556754">
        <ele>22.70</ele>
        <time>2015-06-20T06:24:51Z</time>
      </trkpt>
      <trkpt lat="36.023341" lon="-5.556731">
        <ele>22.71</ele>
        <time>2015-06-20T06:24:52Z</time>
      </trkpt>
      <trkpt lat="36.023345" lon="-5.556710">
        <ele>22.61</ele>
        <time>2015-06-20T06:24:53Z</time>
      </trkpt>
      <trkpt lat="36.023351" lon="-5.556688">
        <ele>22.75</ele>
        <time>2015-06-20T06:24:54Z</time>
      </trkpt>
      <trkpt lat="36.023355" lon="-5.556666">
        <ele>22.62</ele>
        <time>2015-06-20T06:24:55Z</time>
      </trkpt>
      <trkpt lat="36.023359" lon="-5.556645">
        <ele>22.73</ele>
        <time>2015-06-20T06:24:56Z</time>
      </trkpt>
      <trkpt lat="36.023367" lon="-5.556606">
        <ele>22.87</ele>
        <time>2015-06-20T06:24:58Z</time>
      </trkpt>
      <trkpt lat="36.023374" lon="-5.556562">
        <ele>22.86</ele>
        <time>2015-06-20T06:25:00Z</time>
      </trkpt>
      <trkpt lat="36.023381" lon="-5.556538">
        <ele>22.96</ele>
        <time>2015-06-20T06:25:01Z</time>
      </trkpt>
      <trkpt lat="36.023391" lon="-5.556511">
        <ele>23.15</ele>
        <time>2015-06-20T06:25:02Z</time>
      </trkpt>
      <trkpt lat="36.023401" lon="-5.556481">
        <ele>23.33</ele>
        <time>2015-06-20T06:25:03Z</time>
      </trkpt>
      <trkpt lat="36.023413" lon="-5.556451">
        <ele>23.54</ele>
        <time>2015-06-20T06:25:04Z</time>
      </trkpt>
      <trkpt lat="36.023458" lon="-5.556385">
        <ele>24.55</ele>
        <time>2015-06-20T06:25:07Z</time>
      </trkpt>
      <trkpt lat="36.023471" lon="-5.556365">
        <ele>24.61</ele>
        <time>2015-06-20T06:25:08Z</time>
      </trkpt>
      <trkpt lat="36.023484" lon="-5.556346">
        <ele>24.71</ele>
        <time>2015-06-20T06:25:09Z</time>
      </trkpt>
      <trkpt lat="36.023499" lon="-5.556326">
        <ele>24.85</ele>
        <time>2015-06-20T06:25:10Z</time>
      </trkpt>
      <trkpt lat="36.023510" lon="-5.556302">
        <ele>24.74</ele>
        <time>2015-06-20T06:25:11Z</time>
      </trkpt>
      <trkpt lat="36.023555" lon="-5.556212">
        <ele>24.73</ele>
        <time>2015-06-20T06:25:15Z</time>
      </trkpt>
      <trkpt lat="36.023600" lon="-5.556113">
        <ele>24.78</ele>
        <time>2015-06-20T06:25:20Z</time>
      </trkpt>
      <trkpt lat="36.023634" lon="-5.556051">
        <ele>24.58</ele>
        <time>2015-06-20T06:25:23Z</time>
      </trkpt>
      <trkpt lat="36.023696" lon="-5.555962">
        <ele>24.36</ele>
        <time>2015-06-20T06:25:27Z</time>
      </trkpt>
      <trkpt lat="36.023797" lon="-5.555909">
        <ele>25.69</ele>
        <time>2015-06-20T06:25:31Z</time>
      </trkpt>
      <trkpt lat="36.023875" lon="-5.555859">
        <ele>26.22</ele>
        <time>2015-06-20T06:25:34Z</time>
      </trkpt>
      <trkpt lat="36.023927" lon="-5.555827">
        <ele>26.62</ele>
        <time>2015-06-20T06:25:36Z</time>
      </trkpt>
      <trkpt lat="36.023988" lon="-5.555774">
        <ele>27.48</ele>
        <time>2015-06-20T06:25:39Z</time>
      </trkpt>
      <trkpt lat="36.024008" lon="-5.555746">
        <ele>27.61</ele>
        <time>2015-06-20T06:25:40Z</time>
      </trkpt>
      <trkpt lat="36.024023" lon="-5.555713">
        <ele>27.81</ele>
        <time>2015-06-20T06:25:41Z</time>
      </trkpt>
      <trkpt lat="36.024032" lon="-5.555678">
        <ele>27.79</ele>
        <time>2015-06-20T06:25:42Z</time>
      </trkpt>
      <trkpt lat="36.024034" lon="-5.555648">
        <ele>27.67</ele>
        <time>2015-06-20T06:25:43Z</time>
      </trkpt>
      <trkpt lat="36.024028" lon="-5.555555">
        <ele>27.08</ele>
        <time>2015-06-20T06:25:46Z</time>
      </trkpt>
      <trkpt lat="36.024014" lon="-5.555342">
        <ele>26.24</ele>
        <time>2015-06-20T06:25:53Z</time>
      </trkpt>
      <trkpt lat="36.024015" lon="-5.555318">
        <ele>26.21</ele>
        <time>2015-06-20T06:25:54Z</time>
      </trkpt>
      <trkpt lat="36.024016" lon="-5.555291">
        <ele>26.11</ele>
        <time>2015-06-20T06:25:55Z</time>
      </trkpt>
      <trkpt lat="36.024014" lon="-5.555262">
        <ele>26.06</ele>
        <time>2015-06-20T06:25:56Z</time>
      </trkpt>
      <trkpt lat="36.024014" lon="-5.555231">
        <ele>25.81</ele>
        <time>2015-06-20T06:25:57Z</time>
      </trkpt>
      <trkpt lat="36.024024" lon="-5.555173">
        <ele>25.84</ele>
        <time>2015-06-20T06:25:59Z</time>
      </trkpt>
      <trkpt lat="36.024096" lon="-5.555023">
        <ele>27.10</ele>
        <time>2015-06-20T06:26:05Z</time>
      </trkpt>
      <trkpt lat="36.024201" lon="-5.554896">
        <ele>28.62</ele>
        <time>2015-06-20T06:26:12Z</time>
      </trkpt>
      <trkpt lat="36.024289" lon="-5.554759">
        <ele>29.01</ele>
        <time>2015-06-20T06:26:17Z</time>
      </trkpt>
      <trkpt lat="36.024306" lon="-5.554732">
        <ele>29.15</ele>
        <time>2015-06-20T06:26:18Z</time>
      </trkpt>
      <trkpt lat="36.024320" lon="-5.554709">
        <ele>29.13</ele>
        <time>2015-06-20T06:26:19Z</time>
      </trkpt>
      <trkpt lat="36.024336" lon="-5.554686">
        <ele>29.22</ele>
        <time>2015-06-20T06:26:20Z</time>
      </trkpt>
      <trkpt lat="36.024351" lon="-5.554668">
        <ele>29.36</ele>
        <time>2015-06-20T06:26:21Z</time>
      </trkpt>
      <trkpt lat="36.024376" lon="-5.554625">
        <ele>29.33</ele>
        <time>2015-06-20T06:26:23Z</time>
      </trkpt>
      <trkpt lat="36.024410" lon="-5.554560">
        <ele>29.47</ele>
        <time>2015-06-20T06:26:26Z</time>
      </trkpt>
      <trkpt lat="36.024424" lon="-5.554544">
        <ele>29.58</ele>
        <time>2015-06-20T06:26:27Z</time>
      </trkpt>
      <trkpt lat="36.024441" lon="-5.554517">
        <ele>29.79</ele>
        <time>2015-06-20T06:26:29Z</time>
      </trkpt>
      <trkpt lat="36.024457" lon="-5.554437">
        <ele>29.13</ele>
        <time>2015-06-20T06:26:33Z</time>
      </trkpt>
      <trkpt lat="36.024462" lon="-5.554416">
        <ele>28.80</ele>
        <time>2015-06-20T06:26:34Z</time>
      </trkpt>
      <trkpt lat="36.024468" lon="-5.554395">
        <ele>28.52</ele>
        <time>2015-06-20T06:26:35Z</time>
      </trkpt>
      <trkpt lat="36.024478" lon="-5.554379">
        <ele>28.41</ele>
        <time>2015-06-20T06:26:36Z</time>
      </trkpt>
      <trkpt lat="36.024522" lon="-5.554312">
        <ele>28.03</ele>
        <time>2015-06-20T06:26:40Z</time>
      </trkpt>
      <trkpt lat="36.024533" lon="-5.554297">
        <ele>27.92</ele>
        <time>2015-06-20T06:26:41Z</time>
      </trkpt>
      <trkpt lat="36.024576" lon="-5.554236">
        <ele>27.68</ele>
        <time>2015-06-20T06:26:45Z</time>
      </trkpt>
      <trkpt lat="36.024593" lon="-5.554222">
        <ele>27.75</ele>
        <time>2015-06-20T06:26:46Z</time>
      </trkpt>
      <trkpt lat="36.024607" lon="-5.554207">
        <ele>27.74</ele>
        <time>2015-06-20T06:26:47Z</time>
      </trkpt>
      <trkpt lat="36.024624" lon="-5.554193">
        <ele>27.72</ele>
        <time>2015-06-20T06:26:48Z</time>
      </trkpt>
      <trkpt lat="36.024642" lon="-5.554181">
        <ele>27.82</ele>
        <time>2015-06-20T06:26:49Z</time>
      </trkpt>
      <trkpt lat="36.024742" lon="-5.554125">
        <ele>28.14</ele>
        <time>2015-06-20T06:26:54Z</time>
      </trkpt>
      <trkpt lat="36.024804" lon="-5.554119">
        <ele>28.15</ele>
        <time>2015-06-20T06:26:57Z</time>
      </trkpt>
      <trkpt lat="36.024825" lon="-5.554123">
        <ele>28.20</ele>
        <time>2015-06-20T06:26:58Z</time>
      </trkpt>
      <trkpt lat="36.024848" lon="-5.554135">
        <ele>28.41</ele>
        <time>2015-06-20T06:26:59Z</time>
      </trkpt>
      <trkpt lat="36.024872" lon="-5.554146">
        <ele>28.61</ele>
        <time>2015-06-20T06:27:00Z</time>
      </trkpt>
      <trkpt lat="36.024904" lon="-5.554157">
        <ele>28.83</ele>
        <time>2015-06-20T06:27:01Z</time>
      </trkpt>
      <trkpt lat="36.024932" lon="-5.554174">
        <ele>29.18</ele>
        <time>2015-06-20T06:27:02Z</time>
      </trkpt>
      <trkpt lat="36.024953" lon="-5.554198">
        <ele>29.59</ele>
        <time>2015-06-20T06:27:03Z</time>
      </trkpt>
      <trkpt lat="36.024976" lon="-5.554218">
        <ele>29.88</ele>
        <time>2015-06-20T06:27:04Z</time>
      </trkpt>
      <trkpt lat="36.024996" lon="-5.554236">
        <ele>30.07</ele>
        <time>2015-06-20T06:27:05Z</time>
      </trkpt>
      <trkpt lat="36.025022" lon="-5.554254">
        <ele>30.08</ele>
        <time>2015-06-20T06:27:06Z</time>
      </trkpt>
      <trkpt lat="36.025113" lon="-5.554307">
        <ele>29.68</ele>
        <time>2015-06-20T06:27:09Z</time>
      </trkpt>
      <trkpt lat="36.025144" lon="-5.554318">
        <ele>29.33</ele>
        <time>2015-06-20T06:27:10Z</time>
      </trkpt>
      <trkpt lat="36.025177" lon="-5.554336">
        <ele>29.17</ele>
        <time>2015-06-20T06:27:11Z</time>
      </trkpt>
      <trkpt lat="36.025217" lon="-5.554357">
        <ele>28.91</ele>
        <time>2015-06-20T06:27:12Z</time>
      </trkpt>
      <trkpt lat="36.025256" lon="-5.554375">
        <ele>28.51</ele>
        <time>2015-06-20T06:27:13Z</time>
      </trkpt>
      <trkpt lat="36.025296" lon="-5.554391">
        <ele>28.41</ele>
        <time>2015-06-20T06:27:14Z</time>
      </trkpt>
      <trkpt lat="36.025336" lon="-5.554402">
        <ele>28.67</ele>
        <time>2015-06-20T06:27:15Z</time>
      </trkpt>
      <trkpt lat="36.025455" lon="-5.554455">
        <ele>29.27</ele>
        <time>2015-06-20T06:27:19Z</time>
      </trkpt>
      <trkpt lat="36.025619" lon="-5.554523">
        <ele>31.49</ele>
        <time>2015-06-20T06:27:25Z</time>
      </trkpt>
      <trkpt lat="36.025722" lon="-5.554486">
        <ele>31.91</ele>
        <time>2015-06-20T06:27:29Z</time>
      </trkpt>
      <trkpt lat="36.025759" lon="-5.554371">
        <ele>32.17</ele>
        <time>2015-06-20T06:27:33Z</time>
      </trkpt>
      <trkpt lat="36.025756" lon="-5.554342">
        <ele>32.02</ele>
        <time>2015-06-20T06:27:34Z</time>
      </trkpt>
      <trkpt lat="36.025712" lon="-5.554259">
        <ele>31.39</ele>
        <time>2015-06-20T06:27:37Z</time>
      </trkpt>
      <trkpt lat="36.025674" lon="-5.554203">
        <ele>30.65</ele>
        <time>2015-06-20T06:27:39Z</time>
      </trkpt>
      <trkpt lat="36.025601" lon="-5.554084">
        <ele>29.93</ele>
        <time>2015-06-20T06:27:44Z</time>
      </trkpt>
      <trkpt lat="36.025590" lon="-5.554061">
        <ele>29.99</ele>
        <time>2015-06-20T06:27:45Z</time>
      </trkpt>
      <trkpt lat="36.025577" lon="-5.554039">
        <ele>29.91</ele>
        <time>2015-06-20T06:27:46Z</time>
      </trkpt>
      <trkpt lat="36.025566" lon="-5.554018">
        <ele>29.91</ele>
        <time>2015-06-20T06:27:47Z</time>
      </trkpt>
      <trkpt lat="36.025553" lon="-5.553997">
        <ele>29.81</ele>
        <time>2015-06-20T06:27:48Z</time>
      </trkpt>
      <trkpt lat="36.025503" lon="-5.553905">
        <ele>29.96</ele>
        <time>2015-06-20T06:27:52Z</time>
      </trkpt>
      <trkpt lat="36.025414" lon="-5.553748">
        <ele>29.74</ele>
        <time>2015-06-20T06:27:58Z</time>
      </trkpt>
      <trkpt lat="36.025310" lon="-5.553535">
        <ele>29.08</ele>
        <time>2015-06-20T06:28:03Z</time>
      </trkpt>
      <trkpt lat="36.025250" lon="-5.553445">
        <ele>28.07</ele>
        <time>2015-06-20T06:28:05Z</time>
      </trkpt>
      <trkpt lat="36.025186" lon="-5.553358">
        <ele>26.73</ele>
        <time>2015-06-20T06:28:08Z</time>
      </trkpt>
      <trkpt lat="36.025150" lon="-5.553281">
        <ele>25.81</ele>
        <time>2015-06-20T06:28:12Z</time>
      </trkpt>
      <trkpt lat="36.025144" lon="-5.553258">
        <ele>25.69</ele>
        <time>2015-06-20T06:28:13Z</time>
      </trkpt>
      <trkpt lat="36.025120" lon="-5.553197">
        <ele>25.07</ele>
        <time>2015-06-20T06:28:16Z</time>
      </trkpt>
      <trkpt lat="36.025118" lon="-5.553175">
        <ele>24.90</ele>
        <time>2015-06-20T06:28:17Z</time>
      </trkpt>
      <trkpt lat="36.025117" lon="-5.553153">
        <ele>24.82</ele>
        <time>2015-06-20T06:28:18Z</time>
      </trkpt>
      <trkpt lat="36.025119" lon="-5.553134">
        <ele>24.91</ele>
        <time>2015-06-20T06:28:19Z</time>
      </trkpt>
      <trkpt lat="36.025121" lon="-5.553114">
        <ele>24.92</ele>
        <time>2015-06-20T06:28:20Z</time>
      </trkpt>
      <trkpt lat="36.025124" lon="-5.553097">
        <ele>25.07</ele>
        <time>2015-06-20T06:28:21Z</time>
      </trkpt>
      <trkpt lat="36.025128" lon="-5.553080">
        <ele>25.24</ele>
        <time>2015-06-20T06:28:22Z</time>
      </trkpt>
      <trkpt lat="36.025138" lon="-5.553063">
        <ele>25.57</ele>
        <time>2015-06-20T06:28:23Z</time>
      </trkpt>
      <trkpt lat="36.025148" lon="-5.553043">
        <ele>25.73</ele>
        <time>2015-06-20T06:28:24Z</time>
      </trkpt>
      <trkpt lat="36.025156" lon="-5.553021">
        <ele>25.94</ele>
        <time>2015-06-20T06:28:25Z</time>
      </trkpt>
      <trkpt lat="36.025165" lon="-5.552999">
        <ele>26.13</ele>
        <time>2015-06-20T06:28:26Z</time>
      </trkpt>
      <trkpt lat="36.025204" lon="-5.552945">
        <ele>27.39</ele>
        <time>2015-06-20T06:28:29Z</time>
      </trkpt>
      <trkpt lat="36.025240" lon="-5.552880">
        <ele>28.52</ele>
        <time>2015-06-20T06:28:32Z</time>
      </trkpt>
      <trkpt lat="36.025277" lon="-5.552821">
        <ele>30.00</ele>
        <time>2015-06-20T06:28:35Z</time>
      </trkpt>
      <trkpt lat="36.025286" lon="-5.552805">
        <ele>30.21</ele>
        <time>2015-06-20T06:28:36Z</time>
      </trkpt>
      <trkpt lat="36.025297" lon="-5.552791">
        <ele>30.41</ele>
        <time>2015-06-20T06:28:37Z</time>
      </trkpt>
      <trkpt lat="36.025310" lon="-5.552774">
        <ele>30.61</ele>
        <time>2015-06-20T06:28:38Z</time>
      </trkpt>
      <trkpt lat="36.025321" lon="-5.552752">
        <ele>30.53</ele>
        <time>2015-06-20T06:28:39Z</time>
      </trkpt>
      <trkpt lat="36.025394" lon="-5.552654">
        <ele>30.75</ele>
        <time>2015-06-20T06:28:44Z</time>
      </trkpt>
      <trkpt lat="36.025409" lon="-5.552634">
        <ele>30.78</ele>
        <time>2015-06-20T06:28:45Z</time>
      </trkpt>
      <trkpt lat="36.025514" lon="-5.552460">
        <ele>30.86</ele>
        <time>2015-06-20T06:28:51Z</time>
      </trkpt>
      <trkpt lat="36.025574" lon="-5.552365">
        <ele>29.91</ele>
        <time>2015-06-20T06:28:54Z</time>
      </trkpt>
      <trkpt lat="36.025597" lon="-5.552326">
        <ele>29.46</ele>
        <time>2015-06-20T06:28:55Z</time>
      </trkpt>
      <trkpt lat="36.025625" lon="-5.552283">
        <ele>28.92</ele>
        <time>2015-06-20T06:28:56Z</time>
      </trkpt>
      <trkpt lat="36.025645" lon="-5.552237">
        <ele>28.38</ele>
        <time>2015-06-20T06:28:57Z</time>
      </trkpt>
      <trkpt lat="36.025665" lon="-5.552196">
        <ele>27.76</ele>
        <time>2015-06-20T06:28:58Z</time>
      </trkpt>
      <trkpt lat="36.025702" lon="-5.552130">
        <ele>26.83</ele>
        <time>2015-06-20T06:29:00Z</time>
      </trkpt>
      <trkpt lat="36.025718" lon="-5.552100">
        <ele>26.41</ele>
        <time>2015-06-20T06:29:01Z</time>
      </trkpt>
      <trkpt lat="36.025737" lon="-5.552066">
        <ele>25.82</ele>
        <time>2015-06-20T06:29:02Z</time>
      </trkpt>
      <trkpt lat="36.025754" lon="-5.552029">
        <ele>25.12</ele>
        <time>2015-06-20T06:29:03Z</time>
      </trkpt>
      <trkpt lat="36.025784" lon="-5.551998">
        <ele>24.83</ele>
        <time>2015-06-20T06:29:04Z</time>
      </trkpt>
      <trkpt lat="36.025851" lon="-5.551944">
        <ele>24.25</ele>
        <time>2015-06-20T06:29:06Z</time>
      </trkpt>
      <trkpt lat="36.025891" lon="-5.551923">
        <ele>24.23</ele>
        <time>2015-06-20T06:29:07Z</time>
      </trkpt>
      <trkpt lat="36.025933" lon="-5.551905">
        <ele>24.43</ele>
        <time>2015-06-20T06:29:08Z</time>
      </trkpt>
      <trkpt lat="36.025976" lon="-5.551893">
        <ele>24.67</ele>
        <time>2015-06-20T06:29:09Z</time>
      </trkpt>
      <trkpt lat="36.026018" lon="-5.551882">
        <ele>24.95</ele>
        <time>2015-06-20T06:29:10Z</time>
      </trkpt>
      <trkpt lat="36.026062" lon="-5.551877">
        <ele>25.33</ele>
        <time>2015-06-20T06:29:11Z</time>
      </trkpt>
      <trkpt lat="36.026102" lon="-5.551877">
        <ele>25.75</ele>
        <time>2015-06-20T06:29:12Z</time>
      </trkpt>
      <trkpt lat="36.026144" lon="-5.551880">
        <ele>26.11</ele>
        <time>2015-06-20T06:29:13Z</time>
      </trkpt>
      <trkpt lat="36.026231" lon="-5.551906">
        <ele>27.01</ele>
        <time>2015-06-20T06:29:15Z</time>
      </trkpt>
      <trkpt lat="36.026276" lon="-5.551920">
        <ele>27.44</ele>
        <time>2015-06-20T06:29:16Z</time>
      </trkpt>
      <trkpt lat="36.026384" lon="-5.551942">
        <ele>28.05</ele>
        <time>2015-06-20T06:29:19Z</time>
      </trkpt>
      <trkpt lat="36.026417" lon="-5.551926">
        <ele>28.14</ele>
        <time>2015-06-20T06:29:20Z</time>
      </trkpt>
      <trkpt lat="36.026448" lon="-5.551903">
        <ele>28.33</ele>
        <time>2015-06-20T06:29:21Z</time>
      </trkpt>
      <trkpt lat="36.026481" lon="-5.551874">
        <ele>28.67</ele>
        <time>2015-06-20T06:29:22Z</time>
      </trkpt>
      <trkpt lat="36.026491" lon="-5.551833">
        <ele>28.63</ele>
        <time>2015-06-20T06:29:23Z</time>
      </trkpt>
      <trkpt lat="36.026487" lon="-5.551791">
        <ele>28.59</ele>
        <time>2015-06-20T06:29:24Z</time>
      </trkpt>
      <trkpt lat="36.026441" lon="-5.551663">
        <ele>27.86</ele>
        <time>2015-06-20T06:29:28Z</time>
      </trkpt>
      <trkpt lat="36.026424" lon="-5.551638">
        <ele>27.67</ele>
        <time>2015-06-20T06:29:29Z</time>
      </trkpt>
      <trkpt lat="36.026392" lon="-5.551579">
        <ele>27.44</ele>
        <time>2015-06-20T06:29:31Z</time>
      </trkpt>
      <trkpt lat="36.026355" lon="-5.551521">
        <ele>26.82</ele>
        <time>2015-06-20T06:29:33Z</time>
      </trkpt>
      <trkpt lat="36.026305" lon="-5.551431">
        <ele>25.81</ele>
        <time>2015-06-20T06:29:36Z</time>
      </trkpt>
      <trkpt lat="36.026235" lon="-5.551282">
        <ele>24.54</ele>
        <time>2015-06-20T06:29:42Z</time>
      </trkpt>
      <trkpt lat="36.026228" lon="-5.551208">
        <ele>24.71</ele>
        <time>2015-06-20T06:29:45Z</time>
      </trkpt>
      <trkpt lat="36.026224" lon="-5.551189">
        <ele>24.79</ele>
        <time>2015-06-20T06:29:46Z</time>
      </trkpt>
      <trkpt lat="36.026229" lon="-5.551180">
        <ele>24.88</ele>
        <time>2015-06-20T06:29:47Z</time>
      </trkpt>
      <trkpt lat="36.026237" lon="-5.551169">
        <ele>25.04</ele>
        <time>2015-06-20T06:29:48Z</time>
      </trkpt>
      <trkpt lat="36.026241" lon="-5.551155">
        <ele>25.23</ele>
        <time>2015-06-20T06:29:49Z</time>
      </trkpt>
      <trkpt lat="36.026246" lon="-5.551136">
        <ele>25.34</ele>
        <time>2015-06-20T06:29:50Z</time>
      </trkpt>
      <trkpt lat="36.026260" lon="-5.551107">
        <ele>25.74</ele>
        <time>2015-06-20T06:29:52Z</time>
      </trkpt>
      <trkpt lat="36.026263" lon="-5.551089">
        <ele>25.75</ele>
        <time>2015-06-20T06:29:53Z</time>
      </trkpt>
      <trkpt lat="36.026272" lon="-5.551075">
        <ele>25.85</ele>
        <time>2015-06-20T06:29:54Z</time>
      </trkpt>
      <trkpt lat="36.026283" lon="-5.551043">
        <ele>26.01</ele>
        <time>2015-06-20T06:29:56Z</time>
      </trkpt>
      <trkpt lat="36.026291" lon="-5.551026">
        <ele>26.11</ele>
        <time>2015-06-20T06:29:57Z</time>
      </trkpt>
      <trkpt lat="36.026298" lon="-5.551009">
        <ele>26.29</ele>
        <time>2015-06-20T06:29:58Z</time>
      </trkpt>
      <trkpt lat="36.026304" lon="-5.550990">
        <ele>26.32</ele>
        <time>2015-06-20T06:29:59Z</time>
      </trkpt>
      <trkpt lat="36.026311" lon="-5.550971">
        <ele>26.55</ele>
        <time>2015-06-20T06:30:00Z</time>
      </trkpt>
      <trkpt lat="36.026335" lon="-5.550929">
        <ele>26.99</ele>
        <time>2015-06-20T06:30:03Z</time>
      </trkpt>
      <trkpt lat="36.026345" lon="-5.550916">
        <ele>27.18</ele>
        <time>2015-06-20T06:30:04Z</time>
      </trkpt>
      <trkpt lat="36.026354" lon="-5.550903">
        <ele>27.34</ele>
        <time>2015-06-20T06:30:05Z</time>
      </trkpt>
      <trkpt lat="36.026361" lon="-5.550892">
        <ele>27.42</ele>
        <time>2015-06-20T06:30:06Z</time>
      </trkpt>
      <trkpt lat="36.026368" lon="-5.550877">
        <ele>27.64</ele>
        <time>2015-06-20T06:30:07Z</time>
      </trkpt>
      <trkpt lat="36.026375" lon="-5.550862">
        <ele>27.79</ele>
        <time>2015-06-20T06:30:08Z</time>
      </trkpt>
      <trkpt lat="36.026400" lon="-5.550812">
        <ele>28.06</ele>
        <time>2015-06-20T06:30:11Z</time>
      </trkpt>
      <trkpt lat="36.026401" lon="-5.550799">
        <ele>28.03</ele>
        <time>2015-06-20T06:30:12Z</time>
      </trkpt>
      <trkpt lat="36.026433" lon="-5.550761">
        <ele>28.31</ele>
        <time>2015-06-20T06:30:15Z</time>
      </trkpt>
      <trkpt lat="36.026450" lon="-5.550751">
        <ele>28.56</ele>
        <time>2015-06-20T06:30:16Z</time>
      </trkpt>
      <trkpt lat="36.026466" lon="-5.550740">
        <ele>28.72</ele>
        <time>2015-06-20T06:30:17Z</time>
      </trkpt>
      <trkpt lat="36.026480" lon="-5.550729">
        <ele>28.96</ele>
        <time>2015-06-20T06:30:18Z</time>
      </trkpt>
      <trkpt lat="36.026541" lon="-5.550684">
        <ele>29.79</ele>
        <time>2015-06-20T06:30:22Z</time>
      </trkpt>
      <trkpt lat="36.026636" lon="-5.550613">
        <ele>30.93</ele>
        <time>2015-06-20T06:30:29Z</time>
      </trkpt>
      <trkpt lat="36.026734" lon="-5.550534">
        <ele>31.36</ele>
        <time>2015-06-20T06:30:35Z</time>
      </trkpt>
      <trkpt lat="36.026873" lon="-5.550410">
        <ele>30.56</ele>
        <time>2015-06-20T06:30:43Z</time>
      </trkpt>
      <trkpt lat="36.026965" lon="-5.550341">
        <ele>30.44</ele>
        <time>2015-06-20T06:30:47Z</time>
      </trkpt>
      <trkpt lat="36.027014" lon="-5.550307">
        <ele>30.38</ele>
        <time>2015-06-20T06:30:49Z</time>
      </trkpt>
      <trkpt lat="36.027122" lon="-5.550214">
        <ele>29.82</ele>
        <time>2015-06-20T06:30:54Z</time>
      </trkpt>
      <trkpt lat="36.027138" lon="-5.550199">
        <ele>29.82</ele>
        <time>2015-06-20T06:30:55Z</time>
      </trkpt>
      <trkpt lat="36.027221" lon="-5.550106">
        <ele>29.51</ele>
        <time>2015-06-20T06:31:00Z</time>
      </trkpt>
      <trkpt lat="36.027243" lon="-5.550092">
        <ele>29.77</ele>
        <time>2015-06-20T06:31:01Z</time>
      </trkpt>
      <trkpt lat="36.027309" lon="-5.550060">
        <ele>30.45</ele>
        <time>2015-06-20T06:31:04Z</time>
      </trkpt>
      <trkpt lat="36.027374" lon="-5.550007">
        <ele>30.89</ele>
        <time>2015-06-20T06:31:08Z</time>
      </trkpt>
      <trkpt lat="36.027457" lon="-5.549897">
        <ele>30.46</ele>
        <time>2015-06-20T06:31:14Z</time>
      </trkpt>
      <trkpt lat="36.027507" lon="-5.549816">
        <ele>29.88</ele>
        <time>2015-06-20T06:31:20Z</time>
      </trkpt>
      <trkpt lat="36.027532" lon="-5.549763">
        <ele>29.15</ele>
        <time>2015-06-20T06:31:23Z</time>
      </trkpt>
      <trkpt lat="36.027545" lon="-5.549753">
        <ele>29.07</ele>
        <time>2015-06-20T06:31:24Z</time>
      </trkpt>
      <trkpt lat="36.027557" lon="-5.549744">
        <ele>29.08</ele>
        <time>2015-06-20T06:31:25Z</time>
      </trkpt>
      <trkpt lat="36.027572" lon="-5.549738">
        <ele>29.06</ele>
        <time>2015-06-20T06:31:26Z</time>
      </trkpt>
      <trkpt lat="36.027589" lon="-5.549734">
        <ele>29.22</ele>
        <time>2015-06-20T06:31:27Z</time>
      </trkpt>
      <trkpt lat="36.027620" lon="-5.549741">
        <ele>29.61</ele>
        <time>2015-06-20T06:31:29Z</time>
      </trkpt>
      <trkpt lat="36.027655" lon="-5.549737">
        <ele>29.91</ele>
        <time>2015-06-20T06:31:31Z</time>
      </trkpt>
      <trkpt lat="36.027744" lon="-5.549740">
        <ele>30.96</ele>
        <time>2015-06-20T06:31:37Z</time>
      </trkpt>
      <trkpt lat="36.027808" lon="-5.549756">
        <ele>31.96</ele>
        <time>2015-06-20T06:31:41Z</time>
      </trkpt>
      <trkpt lat="36.027837" lon="-5.549779">
        <ele>32.78</ele>
        <time>2015-06-20T06:31:43Z</time>
      </trkpt>
      <trkpt lat="36.027915" lon="-5.549815">
        <ele>34.39</ele>
        <time>2015-06-20T06:31:48Z</time>
      </trkpt>
      <trkpt lat="36.028069" lon="-5.549851">
        <ele>37.12</ele>
        <time>2015-06-20T06:31:56Z</time>
      </trkpt>
      <trkpt lat="36.028084" lon="-5.549863">
        <ele>37.62</ele>
        <time>2015-06-20T06:31:57Z</time>
      </trkpt>
      <trkpt lat="36.028099" lon="-5.549871">
        <ele>38.09</ele>
        <time>2015-06-20T06:31:58Z</time>
      </trkpt>
      <trkpt lat="36.028111" lon="-5.549877">
        <ele>38.34</ele>
        <time>2015-06-20T06:31:59Z</time>
      </trkpt>
      <trkpt lat="36.028125" lon="-5.549881">
        <ele>38.70</ele>
        <time>2015-06-20T06:32:00Z</time>
      </trkpt>
      <trkpt lat="36.028138" lon="-5.549884">
        <ele>38.95</ele>
        <time>2015-06-20T06:32:01Z</time>
      </trkpt>
      <trkpt lat="36.028226" lon="-5.549916">
        <ele>41.02</ele>
        <time>2015-06-20T06:32:08Z</time>
      </trkpt>
      <trkpt lat="36.028241" lon="-5.549911">
        <ele>41.31</ele>
        <time>2015-06-20T06:32:09Z</time>
      </trkpt>
      <trkpt lat="36.028253" lon="-5.549903">
        <ele>41.44</ele>
        <time>2015-06-20T06:32:10Z</time>
      </trkpt>
      <trkpt lat="36.028269" lon="-5.549896">
        <ele>41.64</ele>
        <time>2015-06-20T06:32:11Z</time>
      </trkpt>
      <trkpt lat="36.028286" lon="-5.549889">
        <ele>41.99</ele>
        <time>2015-06-20T06:32:12Z</time>
      </trkpt>
      <trkpt lat="36.028300" lon="-5.549885">
        <ele>42.19</ele>
        <time>2015-06-20T06:32:13Z</time>
      </trkpt>
      <trkpt lat="36.028312" lon="-5.549883">
        <ele>42.37</ele>
        <time>2015-06-20T06:32:14Z</time>
      </trkpt>
      <trkpt lat="36.028357" lon="-5.549871">
        <ele>43.12</ele>
        <time>2015-06-20T06:32:17Z</time>
      </trkpt>
      <trkpt lat="36.028387" lon="-5.549862">
        <ele>43.63</ele>
        <time>2015-06-20T06:32:19Z</time>
      </trkpt>
      <trkpt lat="36.028398" lon="-5.549860">
        <ele>43.88</ele>
        <time>2015-06-20T06:32:20Z</time>
      </trkpt>
      <trkpt lat="36.028410" lon="-5.549856">
        <ele>44.03</ele>
        <time>2015-06-20T06:32:21Z</time>
      </trkpt>
      <trkpt lat="36.028420" lon="-5.549849">
        <ele>44.12</ele>
        <time>2015-06-20T06:32:22Z</time>
      </trkpt>
      <trkpt lat="36.028431" lon="-5.549843">
        <ele>44.31</ele>
        <time>2015-06-20T06:32:23Z</time>
      </trkpt>
      <trkpt lat="36.028450" lon="-5.549842">
        <ele>44.61</ele>
        <time>2015-06-20T06:32:25Z</time>
      </trkpt>
      <trkpt lat="36.028522" lon="-5.549792">
        <ele>45.78</ele>
        <time>2015-06-20T06:32:31Z</time>
      </trkpt>
      <trkpt lat="36.028537" lon="-5.549788">
        <ele>45.99</ele>
        <time>2015-06-20T06:32:32Z</time>
      </trkpt>
      <trkpt lat="36.028551" lon="-5.549778">
        <ele>46.11</ele>
        <time>2015-06-20T06:32:33Z</time>
      </trkpt>
      <trkpt lat="36.028567" lon="-5.549762">
        <ele>46.42</ele>
        <time>2015-06-20T06:32:34Z</time>
      </trkpt>
      <trkpt lat="36.028579" lon="-5.549745">
        <ele>46.54</ele>
        <time>2015-06-20T06:32:35Z</time>
      </trkpt>
      <trkpt lat="36.028592" lon="-5.549728">
        <ele>46.68</ele>
        <time>2015-06-20T06:32:36Z</time>
      </trkpt>
      <trkpt lat="36.028622" lon="-5.549693">
        <ele>47.38</ele>
        <time>2015-06-20T06:32:38Z</time>
      </trkpt>
      <trkpt lat="36.028645" lon="-5.549622">
        <ele>47.97</ele>
        <time>2015-06-20T06:32:41Z</time>
      </trkpt>
      <trkpt lat="36.028645" lon="-5.549596">
        <ele>47.97</ele>
        <time>2015-06-20T06:32:42Z</time>
      </trkpt>
      <trkpt lat="36.028641" lon="-5.549570">
        <ele>47.87</ele>
        <time>2015-06-20T06:32:43Z</time>
      </trkpt>
      <trkpt lat="36.028635" lon="-5.549549">
        <ele>47.61</ele>
        <time>2015-06-20T06:32:44Z</time>
      </trkpt>
      <trkpt lat="36.028622" lon="-5.549532">
        <ele>47.31</ele>
        <time>2015-06-20T06:32:45Z</time>
      </trkpt>
      <trkpt lat="36.028604" lon="-5.549489">
        <ele>46.86</ele>
        <time>2015-06-20T06:32:47Z</time>
      </trkpt>
      <trkpt lat="36.028568" lon="-5.549437">
        <ele>45.99</ele>
        <time>2015-06-20T06:32:50Z</time>
      </trkpt>
      <trkpt lat="36.028559" lon="-5.549416">
        <ele>45.67</ele>
        <time>2015-06-20T06:32:51Z</time>
      </trkpt>
      <trkpt lat="36.028553" lon="-5.549393">
        <ele>45.46</ele>
        <time>2015-06-20T06:32:52Z</time>
      </trkpt>
      <trkpt lat="36.028548" lon="-5.549369">
        <ele>45.22</ele>
        <time>2015-06-20T06:32:53Z</time>
      </trkpt>
      <trkpt lat="36.028542" lon="-5.549345">
        <ele>45.08</ele>
        <time>2015-06-20T06:32:54Z</time>
      </trkpt>
      <trkpt lat="36.028520" lon="-5.549255">
        <ele>44.21</ele>
        <time>2015-06-20T06:32:58Z</time>
      </trkpt>
      <trkpt lat="36.028522" lon="-5.549235">
        <ele>44.28</ele>
        <time>2015-06-20T06:32:59Z</time>
      </trkpt>
      <trkpt lat="36.028518" lon="-5.549194">
        <ele>44.19</ele>
        <time>2015-06-20T06:33:01Z</time>
      </trkpt>
      <trkpt lat="36.028523" lon="-5.549173">
        <ele>44.16</ele>
        <time>2015-06-20T06:33:02Z</time>
      </trkpt>
      <trkpt lat="36.028525" lon="-5.549153">
        <ele>44.12</ele>
        <time>2015-06-20T06:33:03Z</time>
      </trkpt>
      <trkpt lat="36.028528" lon="-5.549129">
        <ele>44.01</ele>
        <time>2015-06-20T06:33:04Z</time>
      </trkpt>
      <trkpt lat="36.028532" lon="-5.549111">
        <ele>43.93</ele>
        <time>2015-06-20T06:33:05Z</time>
      </trkpt>
      <trkpt lat="36.028534" lon="-5.549090">
        <ele>43.98</ele>
        <time>2015-06-20T06:33:06Z</time>
      </trkpt>
      <trkpt lat="36.028562" lon="-5.549009">
        <ele>43.94</ele>
        <time>2015-06-20T06:33:10Z</time>
      </trkpt>
      <trkpt lat="36.028590" lon="-5.548919">
        <ele>43.83</ele>
        <time>2015-06-20T06:33:14Z</time>
      </trkpt>
      <trkpt lat="36.028612" lon="-5.548899">
        <ele>44.17</ele>
        <time>2015-06-20T06:33:16Z</time>
      </trkpt>
      <trkpt lat="36.028628" lon="-5.548888">
        <ele>44.33</ele>
        <time>2015-06-20T06:33:17Z</time>
      </trkpt>
      <trkpt lat="36.028658" lon="-5.548857">
        <ele>44.50</ele>
        <time>2015-06-20T06:33:19Z</time>
      </trkpt>
      <trkpt lat="36.028667" lon="-5.548848">
        <ele>44.44</ele>
        <time>2015-06-20T06:33:22Z</time>
      </trkpt>
      <trkpt lat="36.028667" lon="-5.548848">
        <ele>44.46</ele>
        <time>2015-06-20T06:33:26Z</time>
      </trkpt>
      <trkpt lat="36.028667" lon="-5.548848">
        <ele>44.48</ele>
        <time>2015-06-20T06:33:28Z</time>
      </trkpt>
      <trkpt lat="36.028667" lon="-5.548848">
        <ele>44.41</ele>
        <time>2015-06-20T06:33:29Z</time>
      </trkpt>
      <trkpt lat="36.028667" lon="-5.548848">
        <ele>44.41</ele>
        <time>2015-06-20T06:33:30Z</time>
      </trkpt>
      <trkpt lat="36.028667" lon="-5.548848">
        <ele>44.48</ele>
        <time>2015-06-20T06:33:31Z</time>
      </trkpt>
      <trkpt lat="36.028667" lon="-5.548848">
        <ele>44.41</ele>
        <time>2015-06-20T06:33:32Z</time>
      </trkpt>
      <trkpt lat="36.028667" lon="-5.548848">
        <ele>44.49</ele>
        <time>2015-06-20T06:33:35Z</time>
      </trkpt>
      <trkpt lat="36.028667" lon="-5.548848">
        <ele>44.42</ele>
        <time>2015-06-20T06:33:40Z</time>
      </trkpt>
      <trkpt lat="36.028667" lon="-5.548848">
        <ele>44.47</ele>
        <time>2015-06-20T06:33:46Z</time>
      </trkpt>
      <trkpt lat="36.028667" lon="-5.548848">
        <ele>44.43</ele>
        <time>2015-06-20T06:33:47Z</time>
      </trkpt>
      <trkpt lat="36.028667" lon="-5.548848">
        <ele>44.47</ele>
        <time>2015-06-20T06:33:49Z</time>
      </trkpt>
      <trkpt lat="36.028667" lon="-5.548848">
        <ele>44.45</ele>
        <time>2015-06-20T06:33:52Z</time>
      </trkpt>
      <trkpt lat="36.028667" lon="-5.548848">
        <ele>44.48</ele>
        <time>2015-06-20T06:33:56Z</time>
      </trkpt>
      <trkpt lat="36.028667" lon="-5.548848">
        <ele>44.41</ele>
        <time>2015-06-20T06:33:57Z</time>
      </trkpt>
      <trkpt lat="36.028666" lon="-5.548850">
        <ele>44.52</ele>
        <time>2015-06-20T06:34:11Z</time>
      </trkpt>
      <trkpt lat="36.028666" lon="-5.548850">
        <ele>44.51</ele>
        <time>2015-06-20T06:34:23Z</time>
      </trkpt>
      <trkpt lat="36.028666" lon="-5.548850">
        <ele>44.59</ele>
        <time>2015-06-20T06:34:28Z</time>
      </trkpt>
      <trkpt lat="36.028666" lon="-5.548850">
        <ele>44.52</ele>
        <time>2015-06-20T06:34:41Z</time>
      </trkpt>
      <trkpt lat="36.028664" lon="-5.548852">
        <ele>44.42</ele>
        <time>2015-06-20T06:34:54Z</time>
      </trkpt>
      <trkpt lat="36.028664" lon="-5.548852">
        <ele>44.47</ele>
        <time>2015-06-20T06:35:03Z</time>
      </trkpt>
      <trkpt lat="36.028664" lon="-5.548852">
        <ele>44.44</ele>
        <time>2015-06-20T06:35:06Z</time>
      </trkpt>
      <trkpt lat="36.028664" lon="-5.548852">
        <ele>44.43</ele>
        <time>2015-06-20T06:35:10Z</time>
      </trkpt>
      <trkpt lat="36.028664" lon="-5.548852">
        <ele>44.47</ele>
        <time>2015-06-20T06:35:13Z</time>
      </trkpt>
      <trkpt lat="36.028664" lon="-5.548852">
        <ele>44.46</ele>
        <time>2015-06-20T06:35:16Z</time>
      </trkpt>
      <trkpt lat="36.028664" lon="-5.548852">
        <ele>44.44</ele>
        <time>2015-06-20T06:35:18Z</time>
      </trkpt>
      <trkpt lat="36.028664" lon="-5.548853">
        <ele>44.52</ele>
        <time>2015-06-20T06:35:27Z</time>
      </trkpt>
      <trkpt lat="36.028664" lon="-5.548853">
        <ele>44.51</ele>
        <time>2015-06-20T06:35:40Z</time>
      </trkpt>
      <trkpt lat="36.028664" lon="-5.548853">
        <ele>44.51</ele>
        <time>2015-06-20T06:35:47Z</time>
      </trkpt>
      <trkpt lat="36.028664" lon="-5.548853">
        <ele>44.59</ele>
        <time>2015-06-20T06:35:55Z</time>
      </trkpt>
      <trkpt lat="36.028665" lon="-5.548849">
        <ele>44.48</ele>
        <time>2015-06-20T06:36:02Z</time>
      </trkpt>
      <trkpt lat="36.028670" lon="-5.548845">
        <ele>44.55</ele>
        <time>2015-06-20T06:36:03Z</time>
      </trkpt>
      <trkpt lat="36.028677" lon="-5.548836">
        <ele>44.55</ele>
        <time>2015-06-20T06:36:04Z</time>
      </trkpt>
      <trkpt lat="36.028706" lon="-5.548810">
        <ele>44.72</ele>
        <time>2015-06-20T06:36:06Z</time>
      </trkpt>
      <trkpt lat="36.028727" lon="-5.548789">
        <ele>44.84</ele>
        <time>2015-06-20T06:36:07Z</time>
      </trkpt>
      <trkpt lat="36.028751" lon="-5.548768">
        <ele>45.07</ele>
        <time>2015-06-20T06:36:08Z</time>
      </trkpt>
      <trkpt lat="36.028868" lon="-5.548562">
        <ele>44.89</ele>
        <time>2015-06-20T06:36:14Z</time>
      </trkpt>
      <trkpt lat="36.028863" lon="-5.548403">
        <ele>42.43</ele>
        <time>2015-06-20T06:36:18Z</time>
      </trkpt>
      <trkpt lat="36.028883" lon="-5.548270">
        <ele>41.29</ele>
        <time>2015-06-20T06:36:23Z</time>
      </trkpt>
      <trkpt lat="36.028887" lon="-5.548238">
        <ele>40.91</ele>
        <time>2015-06-20T06:36:25Z</time>
      </trkpt>
      <trkpt lat="36.028891" lon="-5.548182">
        <ele>40.41</ele>
        <time>2015-06-20T06:36:28Z</time>
      </trkpt>
      <trkpt lat="36.028931" lon="-5.548023">
        <ele>39.26</ele>
        <time>2015-06-20T06:36:35Z</time>
      </trkpt>
      <trkpt lat="36.028960" lon="-5.547972">
        <ele>39.01</ele>
        <time>2015-06-20T06:36:38Z</time>
      </trkpt>
      <trkpt lat="36.028981" lon="-5.547925">
        <ele>38.89</ele>
        <time>2015-06-20T06:36:40Z</time>
      </trkpt>
      <trkpt lat="36.028994" lon="-5.547905">
        <ele>38.77</ele>
        <time>2015-06-20T06:36:41Z</time>
      </trkpt>
      <trkpt lat="36.029008" lon="-5.547888">
        <ele>38.63</ele>
        <time>2015-06-20T06:36:42Z</time>
      </trkpt>
      <trkpt lat="36.029023" lon="-5.547870">
        <ele>38.63</ele>
        <time>2015-06-20T06:36:43Z</time>
      </trkpt>
      <trkpt lat="36.029040" lon="-5.547851">
        <ele>38.68</ele>
        <time>2015-06-20T06:36:44Z</time>
      </trkpt>
      <trkpt lat="36.029123" lon="-5.547756">
        <ele>38.11</ele>
        <time>2015-06-20T06:36:49Z</time>
      </trkpt>
      <trkpt lat="36.029264" lon="-5.547708">
        <ele>37.67</ele>
        <time>2015-06-20T06:36:54Z</time>
      </trkpt>
      <trkpt lat="36.029405" lon="-5.547779">
        <ele>38.28</ele>
        <time>2015-06-20T06:36:58Z</time>
      </trkpt>
      <trkpt lat="36.029442" lon="-5.547808">
        <ele>38.72</ele>
        <time>2015-06-20T06:36:59Z</time>
      </trkpt>
      <trkpt lat="36.029477" lon="-5.547846">
        <ele>39.41</ele>
        <time>2015-06-20T06:37:00Z</time>
      </trkpt>
      <trkpt lat="36.029514" lon="-5.547885">
        <ele>40.03</ele>
        <time>2015-06-20T06:37:01Z</time>
      </trkpt>
      <trkpt lat="36.029554" lon="-5.547926">
        <ele>40.67</ele>
        <time>2015-06-20T06:37:02Z</time>
      </trkpt>
      <trkpt lat="36.029593" lon="-5.547971">
        <ele>41.15</ele>
        <time>2015-06-20T06:37:03Z</time>
      </trkpt>
      <trkpt lat="36.029715" lon="-5.548114">
        <ele>42.16</ele>
        <time>2015-06-20T06:37:06Z</time>
      </trkpt>
      <trkpt lat="36.029888" lon="-5.548304">
        <ele>45.72</ele>
        <time>2015-06-20T06:37:11Z</time>
      </trkpt>
      <trkpt lat="36.030003" lon="-5.548391">
        <ele>47.20</ele>
        <time>2015-06-20T06:37:16Z</time>
      </trkpt>
      <trkpt lat="36.030050" lon="-5.548428">
        <ele>48.19</ele>
        <time>2015-06-20T06:37:18Z</time>
      </trkpt>
      <trkpt lat="36.030101" lon="-5.548460">
        <ele>48.94</ele>
        <time>2015-06-20T06:37:20Z</time>
      </trkpt>
      <trkpt lat="36.030125" lon="-5.548477">
        <ele>49.25</ele>
        <time>2015-06-20T06:37:21Z</time>
      </trkpt>
      <trkpt lat="36.030172" lon="-5.548487">
        <ele>49.60</ele>
        <time>2015-06-20T06:37:23Z</time>
      </trkpt>
      <trkpt lat="36.030217" lon="-5.548470">
        <ele>49.71</ele>
        <time>2015-06-20T06:37:25Z</time>
      </trkpt>
      <trkpt lat="36.030245" lon="-5.548420">
        <ele>49.41</ele>
        <time>2015-06-20T06:37:27Z</time>
      </trkpt>
      <trkpt lat="36.030236" lon="-5.548302">
        <ele>48.79</ele>
        <time>2015-06-20T06:37:31Z</time>
      </trkpt>
      <trkpt lat="36.030245" lon="-5.548272">
        <ele>49.02</ele>
        <time>2015-06-20T06:37:32Z</time>
      </trkpt>
      <trkpt lat="36.030209" lon="-5.548209">
        <ele>48.88</ele>
        <time>2015-06-20T06:37:35Z</time>
      </trkpt>
      <trkpt lat="36.030193" lon="-5.548185">
        <ele>48.71</ele>
        <time>2015-06-20T06:37:36Z</time>
      </trkpt>
      <trkpt lat="36.030177" lon="-5.548160">
        <ele>48.52</ele>
        <time>2015-06-20T06:37:37Z</time>
      </trkpt>
      <trkpt lat="36.030158" lon="-5.548134">
        <ele>48.29</ele>
        <time>2015-06-20T06:37:38Z</time>
      </trkpt>
      <trkpt lat="36.030140" lon="-5.548108">
        <ele>47.94</ele>
        <time>2015-06-20T06:37:39Z</time>
      </trkpt>
      <trkpt lat="36.030088" lon="-5.547983">
        <ele>47.13</ele>
        <time>2015-06-20T06:37:43Z</time>
      </trkpt>
      <trkpt lat="36.030046" lon="-5.547815">
        <ele>46.02</ele>
        <time>2015-06-20T06:37:48Z</time>
      </trkpt>
      <trkpt lat="36.030023" lon="-5.547706">
        <ele>45.59</ele>
        <time>2015-06-20T06:37:51Z</time>
      </trkpt>
      <trkpt lat="36.029985" lon="-5.547474">
        <ele>45.52</ele>
        <time>2015-06-20T06:37:58Z</time>
      </trkpt>
      <trkpt lat="36.029963" lon="-5.547346">
        <ele>44.61</ele>
        <time>2015-06-20T06:38:03Z</time>
      </trkpt>
      <trkpt lat="36.029963" lon="-5.547321">
        <ele>44.65</ele>
        <time>2015-06-20T06:38:04Z</time>
      </trkpt>
      <trkpt lat="36.029938" lon="-5.547173">
        <ele>42.94</ele>
        <time>2015-06-20T06:38:10Z</time>
      </trkpt>
      <trkpt lat="36.029930" lon="-5.547070">
        <ele>41.35</ele>
        <time>2015-06-20T06:38:14Z</time>
      </trkpt>
      <trkpt lat="36.029929" lon="-5.547046">
        <ele>41.07</ele>
        <time>2015-06-20T06:38:15Z</time>
      </trkpt>
      <trkpt lat="36.029932" lon="-5.547020">
        <ele>40.84</ele>
        <time>2015-06-20T06:38:16Z</time>
      </trkpt>
      <trkpt lat="36.029936" lon="-5.546995">
        <ele>40.68</ele>
        <time>2015-06-20T06:38:17Z</time>
      </trkpt>
      <trkpt lat="36.029944" lon="-5.546977">
        <ele>40.66</ele>
        <time>2015-06-20T06:38:18Z</time>
      </trkpt>
      <trkpt lat="36.030031" lon="-5.546907">
        <ele>42.13</ele>
        <time>2015-06-20T06:38:23Z</time>
      </trkpt>
      <trkpt lat="36.030112" lon="-5.546900">
        <ele>44.09</ele>
        <time>2015-06-20T06:38:27Z</time>
      </trkpt>
      <trkpt lat="36.030132" lon="-5.546909">
        <ele>44.66</ele>
        <time>2015-06-20T06:38:28Z</time>
      </trkpt>
      <trkpt lat="36.030150" lon="-5.546917">
        <ele>45.22</ele>
        <time>2015-06-20T06:38:29Z</time>
      </trkpt>
      <trkpt lat="36.030168" lon="-5.546926">
        <ele>45.91</ele>
        <time>2015-06-20T06:38:30Z</time>
      </trkpt>
      <trkpt lat="36.030188" lon="-5.546935">
        <ele>46.52</ele>
        <time>2015-06-20T06:38:31Z</time>
      </trkpt>
      <trkpt lat="36.030252" lon="-5.546956">
        <ele>48.74</ele>
        <time>2015-06-20T06:38:34Z</time>
      </trkpt>
      <trkpt lat="36.030275" lon="-5.546971">
        <ele>49.73</ele>
        <time>2015-06-20T06:38:35Z</time>
      </trkpt>
      <trkpt lat="36.030299" lon="-5.546982">
        <ele>50.40</ele>
        <time>2015-06-20T06:38:36Z</time>
      </trkpt>
      <trkpt lat="36.030323" lon="-5.546984">
        <ele>50.79</ele>
        <time>2015-06-20T06:38:37Z</time>
      </trkpt>
      <trkpt lat="36.030440" lon="-5.546981">
        <ele>52.03</ele>
        <time>2015-06-20T06:38:42Z</time>
      </trkpt>
      <trkpt lat="36.030571" lon="-5.546958">
        <ele>52.73</ele>
        <time>2015-06-20T06:38:48Z</time>
      </trkpt>
      <trkpt lat="36.030593" lon="-5.546958">
        <ele>52.98</ele>
        <time>2015-06-20T06:38:49Z</time>
      </trkpt>
      <trkpt lat="36.030617" lon="-5.546953">
        <ele>53.03</ele>
        <time>2015-06-20T06:38:50Z</time>
      </trkpt>
      <trkpt lat="36.030642" lon="-5.546951">
        <ele>53.27</ele>
        <time>2015-06-20T06:38:51Z</time>
      </trkpt>
      <trkpt lat="36.030665" lon="-5.546952">
        <ele>53.51</ele>
        <time>2015-06-20T06:38:52Z</time>
      </trkpt>
      <trkpt lat="36.030734" lon="-5.546936">
        <ele>53.81</ele>
        <time>2015-06-20T06:38:55Z</time>
      </trkpt>
      <trkpt lat="36.030756" lon="-5.546939">
        <ele>54.18</ele>
        <time>2015-06-20T06:38:56Z</time>
      </trkpt>
      <trkpt lat="36.030780" lon="-5.546941">
        <ele>54.48</ele>
        <time>2015-06-20T06:38:57Z</time>
      </trkpt>
      <trkpt lat="36.030803" lon="-5.546926">
        <ele>54.42</ele>
        <time>2015-06-20T06:38:58Z</time>
      </trkpt>
      <trkpt lat="36.030824" lon="-5.546906">
        <ele>54.51</ele>
        <time>2015-06-20T06:38:59Z</time>
      </trkpt>
      <trkpt lat="36.030847" lon="-5.546881">
        <ele>54.69</ele>
        <time>2015-06-20T06:39:00Z</time>
      </trkpt>
      <trkpt lat="36.030888" lon="-5.546785">
        <ele>54.67</ele>
        <time>2015-06-20T06:39:03Z</time>
      </trkpt>
      <trkpt lat="36.030902" lon="-5.546704">
        <ele>54.32</ele>
        <time>2015-06-20T06:39:05Z</time>
      </trkpt>
      <trkpt lat="36.030894" lon="-5.546519">
        <ele>55.09</ele>
        <time>2015-06-20T06:39:10Z</time>
      </trkpt>
      <trkpt lat="36.030889" lon="-5.546491">
        <ele>55.11</ele>
        <time>2015-06-20T06:39:11Z</time>
      </trkpt>
      <trkpt lat="36.030815" lon="-5.546316">
        <ele>54.74</ele>
        <time>2015-06-20T06:39:17Z</time>
      </trkpt>
      <trkpt lat="36.030757" lon="-5.546146">
        <ele>55.21</ele>
        <time>2015-06-20T06:39:22Z</time>
      </trkpt>
      <trkpt lat="36.030747" lon="-5.546112">
        <ele>55.31</ele>
        <time>2015-06-20T06:39:23Z</time>
      </trkpt>
      <trkpt lat="36.030734" lon="-5.546079">
        <ele>55.54</ele>
        <time>2015-06-20T06:39:24Z</time>
      </trkpt>
      <trkpt lat="36.030725" lon="-5.546045">
        <ele>55.96</ele>
        <time>2015-06-20T06:39:25Z</time>
      </trkpt>
      <trkpt lat="36.030630" lon="-5.545861">
        <ele>57.44</ele>
        <time>2015-06-20T06:39:31Z</time>
      </trkpt>
      <trkpt lat="36.030481" lon="-5.545800">
        <ele>54.64</ele>
        <time>2015-06-20T06:39:36Z</time>
      </trkpt>
      <trkpt lat="36.030284" lon="-5.545702">
        <ele>51.58</ele>
        <time>2015-06-20T06:39:43Z</time>
      </trkpt>
      <trkpt lat="36.030207" lon="-5.545585">
        <ele>52.35</ele>
        <time>2015-06-20T06:39:48Z</time>
      </trkpt>
      <trkpt lat="36.030193" lon="-5.545557">
        <ele>52.56</ele>
        <time>2015-06-20T06:39:49Z</time>
      </trkpt>
      <trkpt lat="36.030189" lon="-5.545525">
        <ele>52.52</ele>
        <time>2015-06-20T06:39:50Z</time>
      </trkpt>
      <trkpt lat="36.030185" lon="-5.545492">
        <ele>52.57</ele>
        <time>2015-06-20T06:39:51Z</time>
      </trkpt>
      <trkpt lat="36.030183" lon="-5.545464">
        <ele>52.54</ele>
        <time>2015-06-20T06:39:52Z</time>
      </trkpt>
      <trkpt lat="36.030185" lon="-5.545435">
        <ele>52.63</ele>
        <time>2015-06-20T06:39:53Z</time>
      </trkpt>
      <trkpt lat="36.030241" lon="-5.545289">
        <ele>54.81</ele>
        <time>2015-06-20T06:39:59Z</time>
      </trkpt>
      <trkpt lat="36.030333" lon="-5.545145">
        <ele>57.23</ele>
        <time>2015-06-20T06:40:05Z</time>
      </trkpt>
      <trkpt lat="36.030403" lon="-5.545034">
        <ele>58.81</ele>
        <time>2015-06-20T06:40:10Z</time>
      </trkpt>
      <trkpt lat="36.030424" lon="-5.544990">
        <ele>59.13</ele>
        <time>2015-06-20T06:40:12Z</time>
      </trkpt>
      <trkpt lat="36.030435" lon="-5.544974">
        <ele>59.21</ele>
        <time>2015-06-20T06:40:13Z</time>
      </trkpt>
      <trkpt lat="36.030442" lon="-5.544953">
        <ele>59.20</ele>
        <time>2015-06-20T06:40:14Z</time>
      </trkpt>
      <trkpt lat="36.030450" lon="-5.544934">
        <ele>59.02</ele>
        <time>2015-06-20T06:40:15Z</time>
      </trkpt>
      <trkpt lat="36.030455" lon="-5.544912">
        <ele>58.88</ele>
        <time>2015-06-20T06:40:16Z</time>
      </trkpt>
      <trkpt lat="36.030454" lon="-5.544894">
        <ele>58.53</ele>
        <time>2015-06-20T06:40:17Z</time>
      </trkpt>
      <trkpt lat="36.030447" lon="-5.544879">
        <ele>58.14</ele>
        <time>2015-06-20T06:40:18Z</time>
      </trkpt>
      <trkpt lat="36.030409" lon="-5.544812">
        <ele>56.18</ele>
        <time>2015-06-20T06:40:23Z</time>
      </trkpt>
      <trkpt lat="36.030396" lon="-5.544782">
        <ele>55.31</ele>
        <time>2015-06-20T06:40:24Z</time>
      </trkpt>
      <trkpt lat="36.030390" lon="-5.544746">
        <ele>54.61</ele>
        <time>2015-06-20T06:40:25Z</time>
      </trkpt>
      <trkpt lat="36.030392" lon="-5.544716">
        <ele>54.27</ele>
        <time>2015-06-20T06:40:26Z</time>
      </trkpt>
      <trkpt lat="36.030400" lon="-5.544681">
        <ele>53.78</ele>
        <time>2015-06-20T06:40:27Z</time>
      </trkpt>
      <trkpt lat="36.030410" lon="-5.544633">
        <ele>53.15</ele>
        <time>2015-06-20T06:40:28Z</time>
      </trkpt>
      <trkpt lat="36.030437" lon="-5.544507">
        <ele>51.23</ele>
        <time>2015-06-20T06:40:30Z</time>
      </trkpt>
      <trkpt lat="36.030460" lon="-5.544435">
        <ele>50.16</ele>
        <time>2015-06-20T06:40:31Z</time>
      </trkpt>
      <trkpt lat="36.030483" lon="-5.544367">
        <ele>49.63</ele>
        <time>2015-06-20T06:40:32Z</time>
      </trkpt>
      <trkpt lat="36.030506" lon="-5.544311">
        <ele>49.22</ele>
        <time>2015-06-20T06:40:33Z</time>
      </trkpt>
      <trkpt lat="36.030527" lon="-5.544261">
        <ele>48.83</ele>
        <time>2015-06-20T06:40:34Z</time>
      </trkpt>
      <trkpt lat="36.030551" lon="-5.544210">
        <ele>48.58</ele>
        <time>2015-06-20T06:40:35Z</time>
      </trkpt>
      <trkpt lat="36.030583" lon="-5.544165">
        <ele>48.51</ele>
        <time>2015-06-20T06:40:36Z</time>
      </trkpt>
      <trkpt lat="36.030622" lon="-5.544130">
        <ele>49.02</ele>
        <time>2015-06-20T06:40:37Z</time>
      </trkpt>
      <trkpt lat="36.030663" lon="-5.544105">
        <ele>49.61</ele>
        <time>2015-06-20T06:40:38Z</time>
      </trkpt>
      <trkpt lat="36.030706" lon="-5.544085">
        <ele>50.40</ele>
        <time>2015-06-20T06:40:39Z</time>
      </trkpt>
      <trkpt lat="36.030750" lon="-5.544063">
        <ele>51.02</ele>
        <time>2015-06-20T06:40:40Z</time>
      </trkpt>
      <trkpt lat="36.030798" lon="-5.544043">
        <ele>51.97</ele>
        <time>2015-06-20T06:40:41Z</time>
      </trkpt>
      <trkpt lat="36.030841" lon="-5.544029">
        <ele>52.77</ele>
        <time>2015-06-20T06:40:42Z</time>
      </trkpt>
      <trkpt lat="36.030882" lon="-5.544003">
        <ele>53.74</ele>
        <time>2015-06-20T06:40:43Z</time>
      </trkpt>
      <trkpt lat="36.030917" lon="-5.543970">
        <ele>54.46</ele>
        <time>2015-06-20T06:40:44Z</time>
      </trkpt>
      <trkpt lat="36.030945" lon="-5.543866">
        <ele>54.38</ele>
        <time>2015-06-20T06:40:47Z</time>
      </trkpt>
      <trkpt lat="36.030896" lon="-5.543782">
        <ele>53.06</ele>
        <time>2015-06-20T06:40:49Z</time>
      </trkpt>
      <trkpt lat="36.030852" lon="-5.543729">
        <ele>51.86</ele>
        <time>2015-06-20T06:40:50Z</time>
      </trkpt>
      <trkpt lat="36.030803" lon="-5.543668">
        <ele>50.52</ele>
        <time>2015-06-20T06:40:51Z</time>
      </trkpt>
      <trkpt lat="36.030759" lon="-5.543612">
        <ele>49.11</ele>
        <time>2015-06-20T06:40:52Z</time>
      </trkpt>
      <trkpt lat="36.030719" lon="-5.543557">
        <ele>48.01</ele>
        <time>2015-06-20T06:40:53Z</time>
      </trkpt>
      <trkpt lat="36.030688" lon="-5.543508">
        <ele>47.20</ele>
        <time>2015-06-20T06:40:54Z</time>
      </trkpt>
      <trkpt lat="36.030656" lon="-5.543461">
        <ele>46.29</ele>
        <time>2015-06-20T06:40:55Z</time>
      </trkpt>
      <trkpt lat="36.030611" lon="-5.543407">
        <ele>44.89</ele>
        <time>2015-06-20T06:40:56Z</time>
      </trkpt>
      <trkpt lat="36.030565" lon="-5.543340">
        <ele>43.39</ele>
        <time>2015-06-20T06:40:57Z</time>
      </trkpt>
      <trkpt lat="36.030520" lon="-5.543258">
        <ele>41.63</ele>
        <time>2015-06-20T06:40:58Z</time>
      </trkpt>
      <trkpt lat="36.030480" lon="-5.543169">
        <ele>40.19</ele>
        <time>2015-06-20T06:40:59Z</time>
      </trkpt>
      <trkpt lat="36.030450" lon="-5.543081">
        <ele>39.01</ele>
        <time>2015-06-20T06:41:00Z</time>
      </trkpt>
      <trkpt lat="36.030437" lon="-5.542984">
        <ele>38.13</ele>
        <time>2015-06-20T06:41:01Z</time>
      </trkpt>
      <trkpt lat="36.030420" lon="-5.542892">
        <ele>36.92</ele>
        <time>2015-06-20T06:41:02Z</time>
      </trkpt>
      <trkpt lat="36.030420" lon="-5.542799">
        <ele>36.20</ele>
        <time>2015-06-20T06:41:03Z</time>
      </trkpt>
      <trkpt lat="36.030420" lon="-5.542708">
        <ele>35.51</ele>
        <time>2015-06-20T06:41:04Z</time>
      </trkpt>
      <trkpt lat="36.030422" lon="-5.542620">
        <ele>34.71</ele>
        <time>2015-06-20T06:41:05Z</time>
      </trkpt>
      <trkpt lat="36.030431" lon="-5.542530">
        <ele>34.01</ele>
        <time>2015-06-20T06:41:06Z</time>
      </trkpt>
      <trkpt lat="36.030435" lon="-5.542433">
        <ele>33.28</ele>
        <time>2015-06-20T06:41:07Z</time>
      </trkpt>
      <trkpt lat="36.030439" lon="-5.542328">
        <ele>32.34</ele>
        <time>2015-06-20T06:41:08Z</time>
      </trkpt>
      <trkpt lat="36.030444" lon="-5.542228">
        <ele>31.41</ele>
        <time>2015-06-20T06:41:09Z</time>
      </trkpt>
      <trkpt lat="36.030451" lon="-5.542129">
        <ele>30.73</ele>
        <time>2015-06-20T06:41:10Z</time>
      </trkpt>
      <trkpt lat="36.030460" lon="-5.542029">
        <ele>30.06</ele>
        <time>2015-06-20T06:41:11Z</time>
      </trkpt>
      <trkpt lat="36.030475" lon="-5.541932">
        <ele>29.43</ele>
        <time>2015-06-20T06:41:12Z</time>
      </trkpt>
      <trkpt lat="36.030489" lon="-5.541836">
        <ele>28.32</ele>
        <time>2015-06-20T06:41:13Z</time>
      </trkpt>
      <trkpt lat="36.030501" lon="-5.541737">
        <ele>27.25</ele>
        <time>2015-06-20T06:41:14Z</time>
      </trkpt>
      <trkpt lat="36.030513" lon="-5.541643">
        <ele>26.13</ele>
        <time>2015-06-20T06:41:15Z</time>
      </trkpt>
      <trkpt lat="36.030523" lon="-5.541545">
        <ele>25.32</ele>
        <time>2015-06-20T06:41:16Z</time>
      </trkpt>
      <trkpt lat="36.030531" lon="-5.541456">
        <ele>24.41</ele>
        <time>2015-06-20T06:41:17Z</time>
      </trkpt>
      <trkpt lat="36.030539" lon="-5.541370">
        <ele>23.77</ele>
        <time>2015-06-20T06:41:18Z</time>
      </trkpt>
      <trkpt lat="36.030548" lon="-5.541288">
        <ele>23.23</ele>
        <time>2015-06-20T06:41:19Z</time>
      </trkpt>
      <trkpt lat="36.030563" lon="-5.541212">
        <ele>22.85</ele>
        <time>2015-06-20T06:41:20Z</time>
      </trkpt>
      <trkpt lat="36.030582" lon="-5.541137">
        <ele>22.67</ele>
        <time>2015-06-20T06:41:21Z</time>
      </trkpt>
      <trkpt lat="36.030600" lon="-5.541065">
        <ele>21.82</ele>
        <time>2015-06-20T06:41:22Z</time>
      </trkpt>
      <trkpt lat="36.030622" lon="-5.540997">
        <ele>20.98</ele>
        <time>2015-06-20T06:41:23Z</time>
      </trkpt>
      <trkpt lat="36.030655" lon="-5.540932">
        <ele>20.24</ele>
        <time>2015-06-20T06:41:24Z</time>
      </trkpt>
      <trkpt lat="36.030686" lon="-5.540873">
        <ele>19.69</ele>
        <time>2015-06-20T06:41:25Z</time>
      </trkpt>
      <trkpt lat="36.030718" lon="-5.540814">
        <ele>19.09</ele>
        <time>2015-06-20T06:41:26Z</time>
      </trkpt>
      <trkpt lat="36.030756" lon="-5.540763">
        <ele>18.47</ele>
        <time>2015-06-20T06:41:27Z</time>
      </trkpt>
      <trkpt lat="36.030798" lon="-5.540716">
        <ele>18.02</ele>
        <time>2015-06-20T06:41:28Z</time>
      </trkpt>
      <trkpt lat="36.030838" lon="-5.540666">
        <ele>17.41</ele>
        <time>2015-06-20T06:41:29Z</time>
      </trkpt>
      <trkpt lat="36.030880" lon="-5.540615">
        <ele>16.41</ele>
        <time>2015-06-20T06:41:30Z</time>
      </trkpt>
      <trkpt lat="36.030925" lon="-5.540564">
        <ele>15.52</ele>
        <time>2015-06-20T06:41:31Z</time>
      </trkpt>
      <trkpt lat="36.030974" lon="-5.540519">
        <ele>14.84</ele>
        <time>2015-06-20T06:41:32Z</time>
      </trkpt>
      <trkpt lat="36.031026" lon="-5.540474">
        <ele>14.29</ele>
        <time>2015-06-20T06:41:33Z</time>
      </trkpt>
      <trkpt lat="36.031081" lon="-5.540431">
        <ele>13.62</ele>
        <time>2015-06-20T06:41:34Z</time>
      </trkpt>
      <trkpt lat="36.031140" lon="-5.540383">
        <ele>13.29</ele>
        <time>2015-06-20T06:41:35Z</time>
      </trkpt>
      <trkpt lat="36.031204" lon="-5.540333">
        <ele>13.06</ele>
        <time>2015-06-20T06:41:36Z</time>
      </trkpt>
      <trkpt lat="36.031270" lon="-5.540278">
        <ele>12.77</ele>
        <time>2015-06-20T06:41:37Z</time>
      </trkpt>
      <trkpt lat="36.031343" lon="-5.540221">
        <ele>12.56</ele>
        <time>2015-06-20T06:41:38Z</time>
      </trkpt>
      <trkpt lat="36.031409" lon="-5.540172">
        <ele>12.38</ele>
        <time>2015-06-20T06:41:39Z</time>
      </trkpt>
      <trkpt lat="36.031459" lon="-5.540142">
        <ele>12.21</ele>
        <time>2015-06-20T06:41:40Z</time>
      </trkpt>
      <trkpt lat="36.031517" lon="-5.540133">
        <ele>12.51</ele>
        <time>2015-06-20T06:41:41Z</time>
      </trkpt>
      <trkpt lat="36.031580" lon="-5.540139">
        <ele>13.28</ele>
        <time>2015-06-20T06:41:42Z</time>
      </trkpt>
      <trkpt lat="36.031639" lon="-5.540135">
        <ele>13.78</ele>
        <time>2015-06-20T06:41:43Z</time>
      </trkpt>
      <trkpt lat="36.031700" lon="-5.540120">
        <ele>13.65</ele>
        <time>2015-06-20T06:41:44Z</time>
      </trkpt>
      <trkpt lat="36.031751" lon="-5.540084">
        <ele>12.94</ele>
        <time>2015-06-20T06:41:45Z</time>
      </trkpt>
      <trkpt lat="36.031803" lon="-5.540035">
        <ele>12.17</ele>
        <time>2015-06-20T06:41:46Z</time>
      </trkpt>
      <trkpt lat="36.031846" lon="-5.539977">
        <ele>11.49</ele>
        <time>2015-06-20T06:41:47Z</time>
      </trkpt>
      <trkpt lat="36.031870" lon="-5.539902">
        <ele>10.77</ele>
        <time>2015-06-20T06:41:48Z</time>
      </trkpt>
      <trkpt lat="36.031881" lon="-5.539825">
        <ele>9.91</ele>
        <time>2015-06-20T06:41:49Z</time>
      </trkpt>
      <trkpt lat="36.031882" lon="-5.539755">
        <ele>9.17</ele>
        <time>2015-06-20T06:41:50Z</time>
      </trkpt>
      <trkpt lat="36.031890" lon="-5.539682">
        <ele>8.74</ele>
        <time>2015-06-20T06:41:51Z</time>
      </trkpt>
      <trkpt lat="36.031899" lon="-5.539609">
        <ele>8.71</ele>
        <time>2015-06-20T06:41:52Z</time>
      </trkpt>
      <trkpt lat="36.031912" lon="-5.539530">
        <ele>8.71</ele>
        <time>2015-06-20T06:41:53Z</time>
      </trkpt>
      <trkpt lat="36.031942" lon="-5.539411">
        <ele>9.10</ele>
        <time>2015-06-20T06:41:55Z</time>
      </trkpt>
      <trkpt lat="36.031952" lon="-5.539366">
        <ele>9.14</ele>
        <time>2015-06-20T06:41:56Z</time>
      </trkpt>
      <trkpt lat="36.031952" lon="-5.539340">
        <ele>9.18</ele>
        <time>2015-06-20T06:41:57Z</time>
      </trkpt>
      <trkpt lat="36.031950" lon="-5.539325">
        <ele>9.20</ele>
        <time>2015-06-20T06:41:58Z</time>
      </trkpt>
      <trkpt lat="36.031949" lon="-5.539310">
        <ele>9.19</ele>
        <time>2015-06-20T06:41:59Z</time>
      </trkpt>
      <trkpt lat="36.031953" lon="-5.539282">
        <ele>9.19</ele>
        <time>2015-06-20T06:42:01Z</time>
      </trkpt>
      <trkpt lat="36.031968" lon="-5.539258">
        <ele>9.43</ele>
        <time>2015-06-20T06:42:03Z</time>
      </trkpt>
      <trkpt lat="36.031982" lon="-5.539231">
        <ele>9.66</ele>
        <time>2015-06-20T06:42:05Z</time>
      </trkpt>
      <trkpt lat="36.031990" lon="-5.539215">
        <ele>9.88</ele>
        <time>2015-06-20T06:42:07Z</time>
      </trkpt>
      <trkpt lat="36.031991" lon="-5.539190">
        <ele>9.89</ele>
        <time>2015-06-20T06:42:09Z</time>
      </trkpt>
      <trkpt lat="36.031993" lon="-5.539176">
        <ele>9.92</ele>
        <time>2015-06-20T06:42:10Z</time>
      </trkpt>
      <trkpt lat="36.031988" lon="-5.539160">
        <ele>9.81</ele>
        <time>2015-06-20T06:42:11Z</time>
      </trkpt>
      <trkpt lat="36.031987" lon="-5.539147">
        <ele>9.72</ele>
        <time>2015-06-20T06:42:12Z</time>
      </trkpt>
      <trkpt lat="36.031991" lon="-5.539134">
        <ele>9.83</ele>
        <time>2015-06-20T06:42:13Z</time>
      </trkpt>
      <trkpt lat="36.032031" lon="-5.539093">
        <ele>10.54</ele>
        <time>2015-06-20T06:42:17Z</time>
      </trkpt>
      <trkpt lat="36.032031" lon="-5.539077">
        <ele>10.45</ele>
        <time>2015-06-20T06:42:18Z</time>
      </trkpt>
      <trkpt lat="36.032027" lon="-5.539066">
        <ele>10.36</ele>
        <time>2015-06-20T06:42:19Z</time>
      </trkpt>
      <trkpt lat="36.032023" lon="-5.539055">
        <ele>10.26</ele>
        <time>2015-06-20T06:42:20Z</time>
      </trkpt>
      <trkpt lat="36.032026" lon="-5.539042">
        <ele>10.36</ele>
        <time>2015-06-20T06:42:21Z</time>
      </trkpt>
      <trkpt lat="36.032035" lon="-5.539034">
        <ele>10.60</ele>
        <time>2015-06-20T06:42:22Z</time>
      </trkpt>
      <trkpt lat="36.032062" lon="-5.538983">
        <ele>11.08</ele>
        <time>2015-06-20T06:42:26Z</time>
      </trkpt>
      <trkpt lat="36.032062" lon="-5.538969">
        <ele>11.01</ele>
        <time>2015-06-20T06:42:27Z</time>
      </trkpt>
      <trkpt lat="36.032062" lon="-5.538954">
        <ele>11.02</ele>
        <time>2015-06-20T06:42:28Z</time>
      </trkpt>
      <trkpt lat="36.032063" lon="-5.538941">
        <ele>11.01</ele>
        <time>2015-06-20T06:42:29Z</time>
      </trkpt>
      <trkpt lat="36.032065" lon="-5.538933">
        <ele>11.14</ele>
        <time>2015-06-20T06:42:30Z</time>
      </trkpt>
      <trkpt lat="36.032070" lon="-5.538921">
        <ele>11.28</ele>
        <time>2015-06-20T06:42:31Z</time>
      </trkpt>
      <trkpt lat="36.032078" lon="-5.538917">
        <ele>11.47</ele>
        <time>2015-06-20T06:42:32Z</time>
      </trkpt>
      <trkpt lat="36.032096" lon="-5.538901">
        <ele>11.88</ele>
        <time>2015-06-20T06:42:34Z</time>
      </trkpt>
      <trkpt lat="36.032098" lon="-5.538889">
        <ele>11.93</ele>
        <time>2015-06-20T06:42:35Z</time>
      </trkpt>
      <trkpt lat="36.032095" lon="-5.538867">
        <ele>11.77</ele>
        <time>2015-06-20T06:42:37Z</time>
      </trkpt>
      <trkpt lat="36.032094" lon="-5.538854">
        <ele>11.63</ele>
        <time>2015-06-20T06:42:38Z</time>
      </trkpt>
      <trkpt lat="36.032097" lon="-5.538841">
        <ele>11.70</ele>
        <time>2015-06-20T06:42:39Z</time>
      </trkpt>
      <trkpt lat="36.032104" lon="-5.538834">
        <ele>11.78</ele>
        <time>2015-06-20T06:42:40Z</time>
      </trkpt>
      <trkpt lat="36.032110" lon="-5.538829">
        <ele>11.96</ele>
        <time>2015-06-20T06:42:41Z</time>
      </trkpt>
      <trkpt lat="36.032114" lon="-5.538816">
        <ele>11.93</ele>
        <time>2015-06-20T06:42:42Z</time>
      </trkpt>
      <trkpt lat="36.032123" lon="-5.538777">
        <ele>12.01</ele>
        <time>2015-06-20T06:42:45Z</time>
      </trkpt>
      <trkpt lat="36.032165" lon="-5.538716">
        <ele>12.88</ele>
        <time>2015-06-20T06:42:50Z</time>
      </trkpt>
      <trkpt lat="36.032164" lon="-5.538701">
        <ele>12.75</ele>
        <time>2015-06-20T06:42:51Z</time>
      </trkpt>
      <trkpt lat="36.032164" lon="-5.538683">
        <ele>12.63</ele>
        <time>2015-06-20T06:42:52Z</time>
      </trkpt>
      <trkpt lat="36.032161" lon="-5.538666">
        <ele>12.57</ele>
        <time>2015-06-20T06:42:53Z</time>
      </trkpt>
      <trkpt lat="36.032161" lon="-5.538648">
        <ele>12.47</ele>
        <time>2015-06-20T06:42:54Z</time>
      </trkpt>
      <trkpt lat="36.032181" lon="-5.538570">
        <ele>12.66</ele>
        <time>2015-06-20T06:42:59Z</time>
      </trkpt>
      <trkpt lat="36.032196" lon="-5.538526">
        <ele>12.74</ele>
        <time>2015-06-20T06:43:02Z</time>
      </trkpt>
      <trkpt lat="36.032198" lon="-5.538513">
        <ele>12.78</ele>
        <time>2015-06-20T06:43:03Z</time>
      </trkpt>
      <trkpt lat="36.032200" lon="-5.538500">
        <ele>12.63</ele>
        <time>2015-06-20T06:43:04Z</time>
      </trkpt>
      <trkpt lat="36.032203" lon="-5.538488">
        <ele>12.65</ele>
        <time>2015-06-20T06:43:05Z</time>
      </trkpt>
      <trkpt lat="36.032214" lon="-5.538481">
        <ele>12.91</ele>
        <time>2015-06-20T06:43:06Z</time>
      </trkpt>
      <trkpt lat="36.032222" lon="-5.538458">
        <ele>12.91</ele>
        <time>2015-06-20T06:43:08Z</time>
      </trkpt>
      <trkpt lat="36.032239" lon="-5.538436">
        <ele>13.29</ele>
        <time>2015-06-20T06:43:10Z</time>
      </trkpt>
      <trkpt lat="36.032262" lon="-5.538394">
        <ele>13.44</ele>
        <time>2015-06-20T06:43:13Z</time>
      </trkpt>
      <trkpt lat="36.032276" lon="-5.538358">
        <ele>13.51</ele>
        <time>2015-06-20T06:43:15Z</time>
      </trkpt>
      <trkpt lat="36.032299" lon="-5.538267">
        <ele>13.53</ele>
        <time>2015-06-20T06:43:20Z</time>
      </trkpt>
      <trkpt lat="36.032316" lon="-5.538227">
        <ele>13.63</ele>
        <time>2015-06-20T06:43:22Z</time>
      </trkpt>
      <trkpt lat="36.032375" lon="-5.538094">
        <ele>14.16</ele>
        <time>2015-06-20T06:43:27Z</time>
      </trkpt>
      <trkpt lat="36.032462" lon="-5.537937">
        <ele>15.17</ele>
        <time>2015-06-20T06:43:33Z</time>
      </trkpt>
      <trkpt lat="36.032477" lon="-5.537911">
        <ele>15.36</ele>
        <time>2015-06-20T06:43:34Z</time>
      </trkpt>
      <trkpt lat="36.032533" lon="-5.537779">
        <ele>15.87</ele>
        <time>2015-06-20T06:43:39Z</time>
      </trkpt>
      <trkpt lat="36.032611" lon="-5.537642">
        <ele>16.89</ele>
        <time>2015-06-20T06:43:44Z</time>
      </trkpt>
      <trkpt lat="36.032624" lon="-5.537605">
        <ele>16.91</ele>
        <time>2015-06-20T06:43:45Z</time>
      </trkpt>
      <trkpt lat="36.032652" lon="-5.537510">
        <ele>16.91</ele>
        <time>2015-06-20T06:43:48Z</time>
      </trkpt>
      <trkpt lat="36.032658" lon="-5.537418">
        <ele>17.03</ele>
        <time>2015-06-20T06:43:51Z</time>
      </trkpt>
      <trkpt lat="36.032657" lon="-5.537212">
        <ele>17.05</ele>
        <time>2015-06-20T06:43:56Z</time>
      </trkpt>
      <trkpt lat="36.032633" lon="-5.536970">
        <ele>16.43</ele>
        <time>2015-06-20T06:44:02Z</time>
      </trkpt>
      <trkpt lat="36.032605" lon="-5.536847">
        <ele>15.63</ele>
        <time>2015-06-20T06:44:05Z</time>
      </trkpt>
      <trkpt lat="36.032600" lon="-5.536807">
        <ele>15.57</ele>
        <time>2015-06-20T06:44:06Z</time>
      </trkpt>
      <trkpt lat="36.032603" lon="-5.536765">
        <ele>15.67</ele>
        <time>2015-06-20T06:44:07Z</time>
      </trkpt>
      <trkpt lat="36.032604" lon="-5.536723">
        <ele>15.63</ele>
        <time>2015-06-20T06:44:08Z</time>
      </trkpt>
      <trkpt lat="36.032605" lon="-5.536682">
        <ele>15.69</ele>
        <time>2015-06-20T06:44:09Z</time>
      </trkpt>
      <trkpt lat="36.032634" lon="-5.536495">
        <ele>14.54</ele>
        <time>2015-06-20T06:44:14Z</time>
      </trkpt>
      <trkpt lat="36.032752" lon="-5.536229">
        <ele>13.86</ele>
        <time>2015-06-20T06:44:21Z</time>
      </trkpt>
      <trkpt lat="36.032843" lon="-5.536094">
        <ele>12.91</ele>
        <time>2015-06-20T06:44:24Z</time>
      </trkpt>
      <trkpt lat="36.032883" lon="-5.536048">
        <ele>12.81</ele>
        <time>2015-06-20T06:44:25Z</time>
      </trkpt>
      <trkpt lat="36.032928" lon="-5.536004">
        <ele>12.82</ele>
        <time>2015-06-20T06:44:26Z</time>
      </trkpt>
      <trkpt lat="36.032985" lon="-5.535964">
        <ele>13.11</ele>
        <time>2015-06-20T06:44:27Z</time>
      </trkpt>
      <trkpt lat="36.033044" lon="-5.535932">
        <ele>13.61</ele>
        <time>2015-06-20T06:44:28Z</time>
      </trkpt>
      <trkpt lat="36.033110" lon="-5.535902">
        <ele>13.77</ele>
        <time>2015-06-20T06:44:29Z</time>
      </trkpt>
      <trkpt lat="36.033172" lon="-5.535873">
        <ele>13.88</ele>
        <time>2015-06-20T06:44:30Z</time>
      </trkpt>
      <trkpt lat="36.033232" lon="-5.535851">
        <ele>14.12</ele>
        <time>2015-06-20T06:44:31Z</time>
      </trkpt>
      <trkpt lat="36.033284" lon="-5.535824">
        <ele>14.51</ele>
        <time>2015-06-20T06:44:32Z</time>
      </trkpt>
      <trkpt lat="36.033329" lon="-5.535777">
        <ele>14.93</ele>
        <time>2015-06-20T06:44:33Z</time>
      </trkpt>
      <trkpt lat="36.033368" lon="-5.535714">
        <ele>15.65</ele>
        <time>2015-06-20T06:44:34Z</time>
      </trkpt>
      <trkpt lat="36.033378" lon="-5.535659">
        <ele>15.86</ele>
        <time>2015-06-20T06:44:35Z</time>
      </trkpt>
      <trkpt lat="36.033378" lon="-5.535612">
        <ele>15.91</ele>
        <time>2015-06-20T06:44:36Z</time>
      </trkpt>
      <trkpt lat="36.033376" lon="-5.535578">
        <ele>15.91</ele>
        <time>2015-06-20T06:44:37Z</time>
      </trkpt>
      <trkpt lat="36.033370" lon="-5.535554">
        <ele>15.89</ele>
        <time>2015-06-20T06:44:38Z</time>
      </trkpt>
      <trkpt lat="36.033366" lon="-5.535520">
        <ele>15.63</ele>
        <time>2015-06-20T06:44:40Z</time>
      </trkpt>
      <trkpt lat="36.033362" lon="-5.535502">
        <ele>15.60</ele>
        <time>2015-06-20T06:44:41Z</time>
      </trkpt>
      <trkpt lat="36.033360" lon="-5.535481">
        <ele>15.43</ele>
        <time>2015-06-20T06:44:42Z</time>
      </trkpt>
      <trkpt lat="36.033349" lon="-5.535442">
        <ele>15.04</ele>
        <time>2015-06-20T06:44:44Z</time>
      </trkpt>
      <trkpt lat="36.033379" lon="-5.534912">
        <ele>13.76</ele>
        <time>2015-06-20T06:44:45Z</time>
      </trkpt>
      <trkpt lat="36.034148" lon="-5.533310">
        <ele>20.14</ele>
        <time>2015-06-20T06:45:05Z</time>
      </trkpt>
      <trkpt lat="36.034886" lon="-5.528924">
        <ele>15.65</ele>
        <time>2015-06-20T06:45:25Z</time>
      </trkpt>
      <trkpt lat="36.035230" lon="-5.528228">
        <ele>16.33</ele>
        <time>2015-06-20T06:45:45Z</time>
      </trkpt>
      <trkpt lat="36.035421" lon="-5.527255">
        <ele>5.82</ele>
        <time>2015-06-20T06:46:05Z</time>
      </trkpt>
      <trkpt lat="36.035705" lon="-5.526918">
        <ele>4.51</ele>
        <time>2015-06-20T06:46:25Z</time>
      </trkpt>
      <trkpt lat="36.035793" lon="-5.526401">
        <ele>5.50</ele>
        <time>2015-06-20T06:46:45Z</time>
      </trkpt>
      <trkpt lat="36.036244" lon="-5.525405">
        <ele>17.95</ele>
        <time>2015-06-20T06:47:05Z</time>
      </trkpt>
      <trkpt lat="36.036141" lon="-5.525073">
        <ele>17.16</ele>
        <time>2015-06-20T06:47:25Z</time>
      </trkpt>
      <trkpt lat="36.036261" lon="-5.523699">
        <ele>23.24</ele>
        <time>2015-06-20T06:47:45Z</time>
      </trkpt>
      <trkpt lat="36.036498" lon="-5.522621">
        <ele>24.52</ele>
        <time>2015-06-20T06:48:05Z</time>
      </trkpt>
      <trkpt lat="36.036740" lon="-5.522509">
        <ele>29.78</ele>
        <time>2015-06-20T06:48:25Z</time>
      </trkpt>
      <trkpt lat="36.036855" lon="-5.522252">
        <ele>24.97</ele>
        <time>2015-06-20T06:48:45Z</time>
      </trkpt>
      <trkpt lat="36.036544" lon="-5.521452">
        <ele>3.77</ele>
        <time>2015-06-20T06:49:05Z</time>
      </trkpt>
      <trkpt lat="36.036964" lon="-5.520961">
        <ele>1.59</ele>
        <time>2015-06-20T06:49:25Z</time>
      </trkpt>
      <trkpt lat="36.037325" lon="-5.520209">
        <ele>3.56</ele>
        <time>2015-06-20T06:49:45Z</time>
      </trkpt>
      <trkpt lat="36.037791" lon="-5.519835">
        <ele>8.93</ele>
        <time>2015-06-20T06:50:05Z</time>
      </trkpt>
      <trkpt lat="36.038120" lon="-5.519860">
        <ele>11.81</ele>
        <time>2015-06-20T06:50:25Z</time>
      </trkpt>
      <trkpt lat="36.039132" lon="-5.519457">
        <ele>19.99</ele>
        <time>2015-06-20T06:50:45Z</time>
      </trkpt>
      <trkpt lat="36.039723" lon="-5.519548">
        <ele>20.16</ele>
        <time>2015-06-20T06:51:05Z</time>
      </trkpt>
      <trkpt lat="36.040845" lon="-5.520539">
        <ele>16.37</ele>
        <time>2015-06-20T06:51:25Z</time>
      </trkpt>
      <trkpt lat="36.041468" lon="-5.521376">
        <ele>20.88</ele>
        <time>2015-06-20T06:51:45Z</time>
      </trkpt>
      <trkpt lat="36.042551" lon="-5.522016">
        <ele>30.35</ele>
        <time>2015-06-20T06:52:05Z</time>
      </trkpt>
      <trkpt lat="36.043080" lon="-5.522580">
        <ele>33.68</ele>
        <time>2015-06-20T06:52:25Z</time>
      </trkpt>
      <trkpt lat="36.044570" lon="-5.523340">
        <ele>24.48</ele>
        <time>2015-06-20T06:52:45Z</time>
      </trkpt>
      <trkpt lat="36.044690" lon="-5.523880">
        <ele>29.48</ele>
        <time>2015-06-20T06:53:05Z</time>
      </trkpt>
      <trkpt lat="36.044210" lon="-5.524410">
        <ele>31.57</ele>
        <time>2015-06-20T06:53:25Z</time>
      </trkpt>
      <trkpt lat="36.043820" lon="-5.525650">
        <ele>42.41</ele>
        <time>2015-06-20T06:53:45Z</time>
      </trkpt>
      <trkpt lat="36.042920" lon="-5.526330">
        <ele>51.41</ele>
        <time>2015-06-20T06:54:05Z</time>
      </trkpt>
      <trkpt lat="36.042470" lon="-5.526860">
        <ele>57.21</ele>
        <time>2015-06-20T06:54:25Z</time>
      </trkpt>
      <trkpt lat="36.042310" lon="-5.527350">
        <ele>56.77</ele>
        <time>2015-06-20T06:54:45Z</time>
      </trkpt>
      <trkpt lat="36.042370" lon="-5.527780">
        <ele>52.63</ele>
        <time>2015-06-20T06:55:05Z</time>
      </trkpt>
      <trkpt lat="36.042820" lon="-5.528300">
        <ele>54.46</ele>
        <time>2015-06-20T06:55:25Z</time>
      </trkpt>
      <trkpt lat="36.043600" lon="-5.528330">
        <ele>60.94</ele>
        <time>2015-06-20T06:55:45Z</time>
      </trkpt>
      <trkpt lat="36.043970" lon="-5.528510">
        <ele>60.42</ele>
        <time>2015-06-20T06:56:05Z</time>
      </trkpt>
      <trkpt lat="36.044870" lon="-5.529940">
        <ele>68.82</ele>
        <time>2015-06-20T06:56:25Z</time>
      </trkpt>
      <trkpt lat="36.046290" lon="-5.531260">
        <ele>69.97</ele>
        <time>2015-06-20T06:56:45Z</time>
      </trkpt>
      <trkpt lat="36.047310" lon="-5.532030">
        <ele>72.66</ele>
        <time>2015-06-20T06:57:05Z</time>
      </trkpt>
      <trkpt lat="36.047880" lon="-5.532260">
        <ele>74.86</ele>
        <time>2015-06-20T06:57:25Z</time>
      </trkpt>
      <trkpt lat="36.048140" lon="-5.532680">
        <ele>75.75</ele>
        <time>2015-06-20T06:57:45Z</time>
      </trkpt>
      <trkpt lat="36.048240" lon="-5.533320">
        <ele>70.12</ele>
        <time>2015-06-20T06:58:05Z</time>
      </trkpt>
      <trkpt lat="36.048780" lon="-5.533440">
        <ele>74.91</ele>
        <time>2015-06-20T06:58:25Z</time>
      </trkpt>
      <trkpt lat="36.049140" lon="-5.533890">
        <ele>75.60</ele>
        <time>2015-06-20T06:58:45Z</time>
      </trkpt>
      <trkpt lat="36.049510" lon="-5.534100">
        <ele>84.37</ele>
        <time>2015-06-20T06:59:05Z</time>
      </trkpt>
      <trkpt lat="36.049540" lon="-5.534420">
        <ele>84.66</ele>
        <time>2015-06-20T06:59:25Z</time>
      </trkpt>
      <trkpt lat="36.049350" lon="-5.534680">
        <ele>86.27</ele>
        <time>2015-06-20T06:59:45Z</time>
      </trkpt>
      <trkpt lat="36.048340" lon="-5.534750">
        <ele>75.97</ele>
        <time>2015-06-20T07:00:05Z</time>
      </trkpt>
      <trkpt lat="36.047770" lon="-5.535020">
        <ele>86.69</ele>
        <time>2015-06-20T07:00:25Z</time>
      </trkpt>
      <trkpt lat="36.047110" lon="-5.534650">
        <ele>82.25</ele>
        <time>2015-06-20T07:00:45Z</time>
      </trkpt>
      <trkpt lat="36.046460" lon="-5.534680">
        <ele>90.98</ele>
        <time>2015-06-20T07:01:05Z</time>
      </trkpt>
      <trkpt lat="36.045840" lon="-5.535320">
        <ele>101.83</ele>
        <time>2015-06-20T07:01:25Z</time>
      </trkpt>
      <trkpt lat="36.045140" lon="-5.535130">
        <ele>100.49</ele>
        <time>2015-06-20T07:01:45Z</time>
      </trkpt>
      <trkpt lat="36.044600" lon="-5.535440">
        <ele>104.51</ele>
        <time>2015-06-20T07:02:05Z</time>
      </trkpt>
      <trkpt lat="36.044220" lon="-5.535490">
        <ele>106.21</ele>
        <time>2015-06-20T07:02:25Z</time>
      </trkpt>
      <trkpt lat="36.043590" lon="-5.536000">
        <ele>114.74</ele>
        <time>2015-06-20T07:02:45Z</time>
      </trkpt>
      <trkpt lat="36.043240" lon="-5.535970">
        <ele>116.86</ele>
        <time>2015-06-20T07:03:05Z</time>
      </trkpt>
      <trkpt lat="36.043040" lon="-5.535380">
        <ele>113.96</ele>
        <time>2015-06-20T07:03:25Z</time>
      </trkpt>
      <trkpt lat="36.042780" lon="-5.535290">
        <ele>115.14</ele>
        <time>2015-06-20T07:03:45Z</time>
      </trkpt>
      <trkpt lat="36.042090" lon="-5.535860">
        <ele>126.97</ele>
        <time>2015-06-20T07:04:05Z</time>
      </trkpt>
      <trkpt lat="36.042030" lon="-5.536550">
        <ele>130.86</ele>
        <time>2015-06-20T07:04:25Z</time>
      </trkpt>
      <trkpt lat="36.042290" lon="-5.536960">
        <ele>136.98</ele>
        <time>2015-06-20T07:04:45Z</time>
      </trkpt>
      <trkpt lat="36.043410" lon="-5.537820">
        <ele>147.15</ele>
        <time>2015-06-20T07:05:05Z</time>
      </trkpt>
      <trkpt lat="36.044220" lon="-5.538750">
        <ele>155.29</ele>
        <time>2015-06-20T07:05:25Z</time>
      </trkpt>
      <trkpt lat="36.045030" lon="-5.539080">
        <ele>160.56</ele>
        <time>2015-06-20T07:05:45Z</time>
      </trkpt>
      <trkpt lat="36.045550" lon="-5.539920">
        <ele>150.52</ele>
        <time>2015-06-20T07:06:05Z</time>
      </trkpt>
      <trkpt lat="36.045770" lon="-5.540030">
        <ele>148.51</ele>
        <time>2015-06-20T07:06:25Z</time>
      </trkpt>
      <trkpt lat="36.046600" lon="-5.539950">
        <ele>147.65</ele>
        <time>2015-06-20T07:06:45Z</time>
      </trkpt>
      <trkpt lat="36.046710" lon="-5.540850">
        <ele>132.47</ele>
        <time>2015-06-20T07:07:05Z</time>
      </trkpt>
      <trkpt lat="36.047120" lon="-5.541150">
        <ele>132.16</ele>
        <time>2015-06-20T07:07:25Z</time>
      </trkpt>
      <trkpt lat="36.047620" lon="-5.541030">
        <ele>141.76</ele>
        <time>2015-06-20T07:07:45Z</time>
      </trkpt>
      <trkpt lat="36.048040" lon="-5.541190">
        <ele>142.71</ele>
        <time>2015-06-20T07:08:05Z</time>
      </trkpt>
      <trkpt lat="36.048250" lon="-5.541930">
        <ele>131.07</ele>
        <time>2015-06-20T07:08:25Z</time>
      </trkpt>
      <trkpt lat="36.048790" lon="-5.542390">
        <ele>133.35</ele>
        <time>2015-06-20T07:08:45Z</time>
      </trkpt>
      <trkpt lat="36.049180" lon="-5.543160">
        <ele>129.66</ele>
        <time>2015-06-20T07:09:05Z</time>
      </trkpt>
      <trkpt lat="36.049490" lon="-5.544410">
        <ele>121.26</ele>
        <time>2015-06-20T07:09:25Z</time>
      </trkpt>
      <trkpt lat="36.049400" lon="-5.544630">
        <ele>122.94</ele>
        <time>2015-06-20T07:09:45Z</time>
      </trkpt>
      <trkpt lat="36.048060" lon="-5.544580">
        <ele>115.42</ele>
        <time>2015-06-20T07:10:05Z</time>
      </trkpt>
      <trkpt lat="36.047320" lon="-5.545000">
        <ele>114.41</ele>
        <time>2015-06-20T07:10:25Z</time>
      </trkpt>
      <trkpt lat="36.047190" lon="-5.545840">
        <ele>119.35</ele>
        <time>2015-06-20T07:10:45Z</time>
      </trkpt>
      <trkpt lat="36.046850" lon="-5.546110">
        <ele>116.02</ele>
        <time>2015-06-20T07:11:05Z</time>
      </trkpt>
      <trkpt lat="36.046570" lon="-5.546620">
        <ele>115.35</ele>
        <time>2015-06-20T07:11:25Z</time>
      </trkpt>
      <trkpt lat="36.046210" lon="-5.546700">
        <ele>116.22</ele>
        <time>2015-06-20T07:11:45Z</time>
      </trkpt>
      <trkpt lat="36.045720" lon="-5.546540">
        <ele>110.71</ele>
        <time>2015-06-20T07:12:05Z</time>
      </trkpt>
      <trkpt lat="36.045410" lon="-5.546690">
        <ele>110.61</ele>
        <time>2015-06-20T07:12:25Z</time>
      </trkpt>
      <trkpt lat="36.045200" lon="-5.547190">
        <ele>108.69</ele>
        <time>2015-06-20T07:12:45Z</time>
      </trkpt>
      <trkpt lat="36.044970" lon="-5.548980">
        <ele>106.59</ele>
        <time>2015-06-20T07:13:05Z</time>
      </trkpt>
      <trkpt lat="36.044780" lon="-5.549340">
        <ele>109.84</ele>
        <time>2015-06-20T07:13:25Z</time>
      </trkpt>
      <trkpt lat="36.044520" lon="-5.549320">
        <ele>108.45</ele>
        <time>2015-06-20T07:13:45Z</time>
      </trkpt>
      <trkpt lat="36.043030" lon="-5.548540">
        <ele>112.91</ele>
        <time>2015-06-20T07:14:05Z</time>
      </trkpt>
      <trkpt lat="36.042550" lon="-5.548610">
        <ele>118.81</ele>
        <time>2015-06-20T07:14:25Z</time>
      </trkpt>
      <trkpt lat="36.041970" lon="-5.548130">
        <ele>114.75</ele>
        <time>2015-06-20T07:14:45Z</time>
      </trkpt>
      <trkpt lat="36.041460" lon="-5.548960">
        <ele>116.13</ele>
        <time>2015-06-20T07:15:05Z</time>
      </trkpt>
      <trkpt lat="36.041380" lon="-5.549920">
        <ele>120.39</ele>
        <time>2015-06-20T07:15:25Z</time>
      </trkpt>
      <trkpt lat="36.040980" lon="-5.550710">
        <ele>125.35</ele>
        <time>2015-06-20T07:15:45Z</time>
      </trkpt>
      <trkpt lat="36.040480" lon="-5.551120">
        <ele>126.13</ele>
        <time>2015-06-20T07:16:05Z</time>
      </trkpt>
      <trkpt lat="36.039490" lon="-5.550680">
        <ele>127.78</ele>
        <time>2015-06-20T07:16:25Z</time>
      </trkpt>
      <trkpt lat="36.039070" lon="-5.549980">
        <ele>121.89</ele>
        <time>2015-06-20T07:16:45Z</time>
      </trkpt>
      <trkpt lat="36.038590" lon="-5.550320">
        <ele>125.12</ele>
        <time>2015-06-20T07:17:05Z</time>
      </trkpt>
      <trkpt lat="36.038060" lon="-5.551490">
        <ele>147.91</ele>
        <time>2015-06-20T07:17:25Z</time>
      </trkpt>
      <trkpt lat="36.038120" lon="-5.551830">
        <ele>155.97</ele>
        <time>2015-06-20T07:17:45Z</time>
      </trkpt>
      <trkpt lat="36.036710" lon="-5.554870">
        <ele>185.21</ele>
        <time>2015-06-20T07:18:05Z</time>
      </trkpt>
      <trkpt lat="36.036620" lon="-5.555550">
        <ele>191.51</ele>
        <time>2015-06-20T07:18:25Z</time>
      </trkpt>
      <trkpt lat="36.036370" lon="-5.555940">
        <ele>189.21</ele>
        <time>2015-06-20T07:18:45Z</time>
      </trkpt>
      <trkpt lat="36.036490" lon="-5.557190">
        <ele>183.62</ele>
        <time>2015-06-20T07:19:05Z</time>
      </trkpt>
      <trkpt lat="36.036990" lon="-5.559080">
        <ele>182.33</ele>
        <time>2015-06-20T07:19:25Z</time>
      </trkpt>
      <trkpt lat="36.037440" lon="-5.559950">
        <ele>182.68</ele>
        <time>2015-06-20T07:19:45Z</time>
      </trkpt>
      <trkpt lat="36.038430" lon="-5.559390">
        <ele>181.84</ele>
        <time>2015-06-20T07:20:05Z</time>
      </trkpt>
      <trkpt lat="36.038470" lon="-5.558750">
        <ele>190.69</ele>
        <time>2015-06-20T07:20:25Z</time>
      </trkpt>
      <trkpt lat="36.038650" lon="-5.558360">
        <ele>191.17</ele>
        <time>2015-06-20T07:20:45Z</time>
      </trkpt>
      <trkpt lat="36.039160" lon="-5.557880">
        <ele>190.99</ele>
        <time>2015-06-20T07:21:05Z</time>
      </trkpt>
      <trkpt lat="36.039420" lon="-5.557910">
        <ele>191.05</ele>
        <time>2015-06-20T07:21:25Z</time>
      </trkpt>
      <trkpt lat="36.039650" lon="-5.558440">
        <ele>188.40</ele>
        <time>2015-06-20T07:21:45Z</time>
      </trkpt>
      <trkpt lat="36.040500" lon="-5.559150">
        <ele>191.12</ele>
        <time>2015-06-20T07:22:05Z</time>
      </trkpt>
      <trkpt lat="36.041240" lon="-5.558910">
        <ele>197.91</ele>
        <time>2015-06-20T07:22:25Z</time>
      </trkpt>
      <trkpt lat="36.042030" lon="-5.559180">
        <ele>192.79</ele>
        <time>2015-06-20T07:22:45Z</time>
      </trkpt>
      <trkpt lat="36.042900" lon="-5.558800">
        <ele>206.74</ele>
        <time>2015-06-20T07:23:05Z</time>
      </trkpt>
      <trkpt lat="36.043210" lon="-5.558190">
        <ele>212.82</ele>
        <time>2015-06-20T07:23:25Z</time>
      </trkpt>
      <trkpt lat="36.043860" lon="-5.557460">
        <ele>218.48</ele>
        <time>2015-06-20T07:23:45Z</time>
      </trkpt>
      <trkpt lat="36.044470" lon="-5.557220">
        <ele>217.89</ele>
        <time>2015-06-20T07:24:05Z</time>
      </trkpt>
      <trkpt lat="36.044780" lon="-5.556700">
        <ele>217.99</ele>
        <time>2015-06-20T07:24:25Z</time>
      </trkpt>
      <trkpt lat="36.045160" lon="-5.556560">
        <ele>221.63</ele>
        <time>2015-06-20T07:24:45Z</time>
      </trkpt>
      <trkpt lat="36.045460" lon="-5.556880">
        <ele>227.19</ele>
        <time>2015-06-20T07:25:05Z</time>
      </trkpt>
      <trkpt lat="36.045830" lon="-5.558050">
        <ele>233.98</ele>
        <time>2015-06-20T07:25:25Z</time>
      </trkpt>
      <trkpt lat="36.045880" lon="-5.558850">
        <ele>230.01</ele>
        <time>2015-06-20T07:25:45Z</time>
      </trkpt>
      <trkpt lat="36.045990" lon="-5.559060">
        <ele>232.22</ele>
        <time>2015-06-20T07:26:05Z</time>
      </trkpt>
      <trkpt lat="36.046160" lon="-5.559080">
        <ele>236.11</ele>
        <time>2015-06-20T07:26:25Z</time>
      </trkpt>
      <trkpt lat="36.046240" lon="-5.557850">
        <ele>242.75</ele>
        <time>2015-06-20T07:26:45Z</time>
      </trkpt>
      <trkpt lat="36.046660" lon="-5.557320">
        <ele>249.98</ele>
        <time>2015-06-20T07:27:05Z</time>
      </trkpt>
      <trkpt lat="36.047590" lon="-5.557050">
        <ele>261.43</ele>
        <time>2015-06-20T07:27:25Z</time>
      </trkpt>
      <trkpt lat="36.048190" lon="-5.556560">
        <ele>263.87</ele>
        <time>2015-06-20T07:27:45Z</time>
      </trkpt>
      <trkpt lat="36.048800" lon="-5.555520">
        <ele>268.27</ele>
        <time>2015-06-20T07:28:05Z</time>
      </trkpt>
      <trkpt lat="36.049720" lon="-5.555030">
        <ele>274.87</ele>
        <time>2015-06-20T07:28:25Z</time>
      </trkpt>
      <trkpt lat="36.050590" lon="-5.554120">
        <ele>276.11</ele>
        <time>2015-06-20T07:28:45Z</time>
      </trkpt>
      <trkpt lat="36.051860" lon="-5.554450">
        <ele>291.87</ele>
        <time>2015-06-20T07:29:05Z</time>
      </trkpt>
      <trkpt lat="36.053180" lon="-5.553740">
        <ele>304.46</ele>
        <time>2015-06-20T07:29:25Z</time>
      </trkpt>
      <trkpt lat="36.053930" lon="-5.552510">
        <ele>304.08</ele>
        <time>2015-06-20T07:29:45Z</time>
      </trkpt>
      <trkpt lat="36.054110" lon="-5.551950">
        <ele>307.41</ele>
        <time>2015-06-20T07:30:05Z</time>
      </trkpt>
      <trkpt lat="36.054240" lon="-5.552110">
        <ele>313.41</ele>
        <time>2015-06-20T07:30:25Z</time>
      </trkpt>
      <trkpt lat="36.054190" lon="-5.552550">
        <ele>315.47</ele>
        <time>2015-06-20T07:30:45Z</time>
      </trkpt>
      <trkpt lat="36.053720" lon="-5.553680">
        <ele>320.54</ele>
        <time>2015-06-20T07:31:05Z</time>
      </trkpt>
      <trkpt lat="36.053050" lon="-5.554750">
        <ele>320.55</ele>
        <time>2015-06-20T07:31:25Z</time>
      </trkpt>
      <trkpt lat="36.053290" lon="-5.555090">
        <ele>315.18</ele>
        <time>2015-06-20T07:31:45Z</time>
      </trkpt>
      <trkpt lat="36.054170" lon="-5.555150">
        <ele>318.37</ele>
        <time>2015-06-20T07:32:05Z</time>
      </trkpt>
      <trkpt lat="36.055290" lon="-5.555740">
        <ele>319.18</ele>
        <time>2015-06-20T07:32:25Z</time>
      </trkpt>
      <trkpt lat="36.055770" lon="-5.555470">
        <ele>325.96</ele>
        <time>2015-06-20T07:32:45Z</time>
      </trkpt>
      <trkpt lat="36.056850" lon="-5.555680">
        <ele>326.34</ele>
        <time>2015-06-20T07:33:05Z</time>
      </trkpt>
      <trkpt lat="36.058350" lon="-5.554850">
        <ele>336.57</ele>
        <time>2015-06-20T07:33:25Z</time>
      </trkpt>
      <trkpt lat="36.058650" lon="-5.554230">
        <ele>339.08</ele>
        <time>2015-06-20T07:33:45Z</time>
      </trkpt>
      <trkpt lat="36.059190" lon="-5.554770">
        <ele>337.91</ele>
        <time>2015-06-20T07:34:05Z</time>
      </trkpt>
      <trkpt lat="36.059550" lon="-5.554840">
        <ele>340.91</ele>
        <time>2015-06-20T07:34:25Z</time>
      </trkpt>
      <trkpt lat="36.060350" lon="-5.553860">
        <ele>350.84</ele>
        <time>2015-06-20T07:34:45Z</time>
      </trkpt>
      <trkpt lat="36.061240" lon="-5.553900">
        <ele>344.24</ele>
        <time>2015-06-20T07:35:05Z</time>
      </trkpt>
      <trkpt lat="36.061470" lon="-5.554020">
        <ele>345.12</ele>
        <time>2015-06-20T07:35:25Z</time>
      </trkpt>
      <trkpt lat="36.061910" lon="-5.554710">
        <ele>339.87</ele>
        <time>2015-06-20T07:35:45Z</time>
      </trkpt>
      <trkpt lat="36.062770" lon="-5.554940">
        <ele>342.74</ele>
        <time>2015-06-20T07:36:05Z</time>
      </trkpt>
      <trkpt lat="36.063300" lon="-5.555560">
        <ele>334.96</ele>
        <time>2015-06-20T07:36:25Z</time>
      </trkpt>
      <trkpt lat="36.063860" lon="-5.555740">
        <ele>334.78</ele>
        <time>2015-06-20T07:36:45Z</time>
      </trkpt>
      <trkpt lat="36.064490" lon="-5.556160">
        <ele>331.23</ele>
        <time>2015-06-20T07:37:05Z</time>
      </trkpt>
      <trkpt lat="36.065670" lon="-5.556270">
        <ele>333.42</ele>
        <time>2015-06-20T07:37:25Z</time>
      </trkpt>
      <trkpt lat="36.065960" lon="-5.556150">
        <ele>334.86</ele>
        <time>2015-06-20T07:37:45Z</time>
      </trkpt>
      <trkpt lat="36.066830" lon="-5.555450">
        <ele>341.51</ele>
        <time>2015-06-20T07:38:05Z</time>
      </trkpt>
      <trkpt lat="36.067350" lon="-5.554720">
        <ele>350.71</ele>
        <time>2015-06-20T07:38:25Z</time>
      </trkpt>
      <trkpt lat="36.067540" lon="-5.553580">
        <ele>358.51</ele>
        <time>2015-06-20T07:38:45Z</time>
      </trkpt>
      <trkpt lat="36.067880" lon="-5.552720">
        <ele>363.63</ele>
        <time>2015-06-20T07:39:05Z</time>
      </trkpt>
      <trkpt lat="36.067990" lon="-5.551840">
        <ele>368.15</ele>
        <time>2015-06-20T07:39:25Z</time>
      </trkpt>
      <trkpt lat="36.067880" lon="-5.550740">
        <ele>381.17</ele>
        <time>2015-06-20T07:39:45Z</time>
      </trkpt>
      <trkpt lat="36.068270" lon="-5.550140">
        <ele>378.77</ele>
        <time>2015-06-20T07:40:05Z</time>
      </trkpt>
      <trkpt lat="36.068430" lon="-5.549470">
        <ele>387.11</ele>
        <time>2015-06-20T07:40:25Z</time>
      </trkpt>
      <trkpt lat="36.068690" lon="-5.549290">
        <ele>387.06</ele>
        <time>2015-06-20T07:40:45Z</time>
      </trkpt>
      <trkpt lat="36.069760" lon="-5.549250">
        <ele>392.44</ele>
        <time>2015-06-20T07:41:05Z</time>
      </trkpt>
      <trkpt lat="36.070200" lon="-5.549050">
        <ele>397.95</ele>
        <time>2015-06-20T07:41:25Z</time>
      </trkpt>
      <trkpt lat="36.070980" lon="-5.548320">
        <ele>406.80</ele>
        <time>2015-06-20T07:41:45Z</time>
      </trkpt>
      <trkpt lat="36.071640" lon="-5.547920">
        <ele>410.51</ele>
        <time>2015-06-20T07:42:05Z</time>
      </trkpt>
      <trkpt lat="36.072150" lon="-5.546900">
        <ele>417.51</ele>
        <time>2015-06-20T07:42:25Z</time>
      </trkpt>
      <trkpt lat="36.072890" lon="-5.546590">
        <ele>419.56</ele>
        <time>2015-06-20T07:42:45Z</time>
      </trkpt>
      <trkpt lat="36.074390" lon="-5.545650">
        <ele>431.12</ele>
        <time>2015-06-20T07:43:05Z</time>
      </trkpt>
      <trkpt lat="36.074660" lon="-5.544560">
        <ele>442.26</ele>
        <time>2015-06-20T07:43:25Z</time>
      </trkpt>
      <trkpt lat="36.075060" lon="-5.544320">
        <ele>441.42</ele>
        <time>2015-06-20T07:43:45Z</time>
      </trkpt>
      <trkpt lat="36.075870" lon="-5.543260">
        <ele>446.29</ele>
        <time>2015-06-20T07:44:05Z</time>
      </trkpt>
      <trkpt lat="36.076450" lon="-5.543120">
        <ele>446.94</ele>
        <time>2015-06-20T07:44:25Z</time>
      </trkpt>
      <trkpt lat="36.076820" lon="-5.542840">
        <ele>452.83</ele>
        <time>2015-06-20T07:44:45Z</time>
      </trkpt>
      <trkpt lat="36.077140" lon="-5.542410">
        <ele>458.84</ele>
        <time>2015-06-20T07:45:05Z</time>
      </trkpt>
      <trkpt lat="36.077540" lon="-5.541340">
        <ele>464.06</ele>
        <time>2015-06-20T07:45:25Z</time>
      </trkpt>
      <trkpt lat="36.078920" lon="-5.540380">
        <ele>452.70</ele>
        <time>2015-06-20T07:45:45Z</time>
      </trkpt>
      <trkpt lat="36.080230" lon="-5.540040">
        <ele>449.82</ele>
        <time>2015-06-20T07:46:05Z</time>
      </trkpt>
      <trkpt lat="36.081010" lon="-5.539250">
        <ele>445.81</ele>
        <time>2015-06-20T07:46:25Z</time>
      </trkpt>
      <trkpt lat="36.080700" lon="-5.538240">
        <ele>436.30</ele>
        <time>2015-06-20T07:46:45Z</time>
      </trkpt>
      <trkpt lat="36.080880" lon="-5.537880">
        <ele>435.39</ele>
        <time>2015-06-20T07:47:05Z</time>
      </trkpt>
      <trkpt lat="36.081720" lon="-5.537700">
        <ele>437.48</ele>
        <time>2015-06-20T07:47:25Z</time>
      </trkpt>
      <trkpt lat="36.082480" lon="-5.537120">
        <ele>431.04</ele>
        <time>2015-06-20T07:47:45Z</time>
      </trkpt>
      <trkpt lat="36.083060" lon="-5.536970">
        <ele>429.67</ele>
        <time>2015-06-20T07:48:05Z</time>
      </trkpt>
      <trkpt lat="36.083950" lon="-5.536090">
        <ele>427.66</ele>
        <time>2015-06-20T07:48:25Z</time>
      </trkpt>
      <trkpt lat="36.084380" lon="-5.535030">
        <ele>422.86</ele>
        <time>2015-06-20T07:48:45Z</time>
      </trkpt>
      <trkpt lat="36.085000" lon="-5.534690">
        <ele>423.75</ele>
        <time>2015-06-20T07:49:05Z</time>
      </trkpt>
      <trkpt lat="36.085730" lon="-5.534610">
        <ele>423.56</ele>
        <time>2015-06-20T07:49:25Z</time>
      </trkpt>
      <trkpt lat="36.086170" lon="-5.534360">
        <ele>423.40</ele>
        <time>2015-06-20T07:49:45Z</time>
      </trkpt>
      <trkpt lat="36.086450" lon="-5.533950">
        <ele>422.22</ele>
        <time>2015-06-20T07:50:05Z</time>
      </trkpt>
      <trkpt lat="36.086460" lon="-5.533690">
        <ele>423.11</ele>
        <time>2015-06-20T07:50:25Z</time>
      </trkpt>
      <trkpt lat="36.085970" lon="-5.532970">
        <ele>419.67</ele>
        <time>2015-06-20T07:50:45Z</time>
      </trkpt>
      <trkpt lat="36.085520" lon="-5.532700">
        <ele>411.39</ele>
        <time>2015-06-20T07:51:05Z</time>
      </trkpt>
      <trkpt lat="36.085410" lon="-5.532330">
        <ele>415.33</ele>
        <time>2015-06-20T07:51:25Z</time>
      </trkpt>
      <trkpt lat="36.084700" lon="-5.531650">
        <ele>411.57</ele>
        <time>2015-06-20T07:51:45Z</time>
      </trkpt>
      <trkpt lat="36.084540" lon="-5.530530">
        <ele>409.75</ele>
        <time>2015-06-20T07:52:05Z</time>
      </trkpt>
      <trkpt lat="36.084270" lon="-5.530440">
        <ele>408.31</ele>
        <time>2015-06-20T07:52:25Z</time>
      </trkpt>
      <trkpt lat="36.083590" lon="-5.530770">
        <ele>403.19</ele>
        <time>2015-06-20T07:52:45Z</time>
      </trkpt>
      <trkpt lat="36.083030" lon="-5.530660">
        <ele>398.77</ele>
        <time>2015-06-20T07:53:05Z</time>
      </trkpt>
      <trkpt lat="36.082710" lon="-5.530160">
        <ele>392.32</ele>
        <time>2015-06-20T07:53:25Z</time>
      </trkpt>
      <trkpt lat="36.082670" lon="-5.529210">
        <ele>395.60</ele>
        <time>2015-06-20T07:53:45Z</time>
      </trkpt>
      <trkpt lat="36.082560" lon="-5.529100">
        <ele>397.52</ele>
        <time>2015-06-20T07:54:05Z</time>
      </trkpt>
      <trkpt lat="36.081770" lon="-5.530050">
        <ele>390.81</ele>
        <time>2015-06-20T07:54:25Z</time>
      </trkpt>
      <trkpt lat="36.081120" lon="-5.530260">
        <ele>387.66</ele>
        <time>2015-06-20T07:54:45Z</time>
      </trkpt>
      <trkpt lat="36.080480" lon="-5.530740">
        <ele>378.26</ele>
        <time>2015-06-20T07:55:05Z</time>
      </trkpt>
      <trkpt lat="36.079980" lon="-5.530710">
        <ele>375.29</ele>
        <time>2015-06-20T07:55:25Z</time>
      </trkpt>
      <trkpt lat="36.079630" lon="-5.530870">
        <ele>367.92</ele>
        <time>2015-06-20T07:55:45Z</time>
      </trkpt>
      <trkpt lat="36.079370" lon="-5.530400">
        <ele>385.99</ele>
        <time>2015-06-20T07:56:05Z</time>
      </trkpt>
      <trkpt lat="36.078470" lon="-5.530600">
        <ele>365.38</ele>
        <time>2015-06-20T07:56:25Z</time>
      </trkpt>
      <trkpt lat="36.077830" lon="-5.530350">
        <ele>377.29</ele>
        <time>2015-06-20T07:56:45Z</time>
      </trkpt>
      <trkpt lat="36.077270" lon="-5.530660">
        <ele>369.39</ele>
        <time>2015-06-20T07:57:05Z</time>
      </trkpt>
      <trkpt lat="36.076250" lon="-5.530600">
        <ele>384.37</ele>
        <time>2015-06-20T07:57:25Z</time>
      </trkpt>
      <trkpt lat="36.075880" lon="-5.531350">
        <ele>375.66</ele>
        <time>2015-06-20T07:57:45Z</time>
      </trkpt>
      <trkpt lat="36.075510" lon="-5.531460">
        <ele>369.32</ele>
        <time>2015-06-20T07:58:05Z</time>
      </trkpt>
      <trkpt lat="36.074640" lon="-5.530920">
        <ele>377.61</ele>
        <time>2015-06-20T07:58:25Z</time>
      </trkpt>
      <trkpt lat="36.073600" lon="-5.530640">
        <ele>368.83</ele>
        <time>2015-06-20T07:58:45Z</time>
      </trkpt>
      <trkpt lat="36.072880" lon="-5.530260">
        <ele>364.13</ele>
        <time>2015-06-20T07:59:05Z</time>
      </trkpt>
      <trkpt lat="36.072300" lon="-5.530240">
        <ele>348.98</ele>
        <time>2015-06-20T07:59:25Z</time>
      </trkpt>
      <trkpt lat="36.071530" lon="-5.529730">
        <ele>347.98</ele>
        <time>2015-06-20T07:59:45Z</time>
      </trkpt>
      <trkpt lat="36.071500" lon="-5.528930">
        <ele>349.48</ele>
        <time>2015-06-20T08:00:05Z</time>
      </trkpt>
      <trkpt lat="36.072240" lon="-5.527420">
        <ele>347.37</ele>
        <time>2015-06-20T08:00:25Z</time>
      </trkpt>
      <trkpt lat="36.072060" lon="-5.526010">
        <ele>327.84</ele>
        <time>2015-06-20T08:00:45Z</time>
      </trkpt>
      <trkpt lat="36.072100" lon="-5.523570">
        <ele>321.94</ele>
        <time>2015-06-20T08:01:05Z</time>
      </trkpt>
      <trkpt lat="36.072590" lon="-5.523000">
        <ele>327.95</ele>
        <time>2015-06-20T08:01:25Z</time>
      </trkpt>
      <trkpt lat="36.072110" lon="-5.522200">
        <ele>318.33</ele>
        <time>2015-06-20T08:01:45Z</time>
      </trkpt>
      <trkpt lat="36.073010" lon="-5.519450">
        <ele>325.02</ele>
        <time>2015-06-20T08:02:05Z</time>
      </trkpt>
      <trkpt lat="36.072930" lon="-5.518730">
        <ele>321.71</ele>
        <time>2015-06-20T08:02:25Z</time>
      </trkpt>
      <trkpt lat="36.073050" lon="-5.518040">
        <ele>323.87</ele>
        <time>2015-06-20T08:02:45Z</time>
      </trkpt>
      <trkpt lat="36.072350" lon="-5.516490">
        <ele>318.56</ele>
        <time>2015-06-20T08:03:05Z</time>
      </trkpt>
      <trkpt lat="36.072979" lon="-5.517134">
        <ele>324.11</ele>
        <time>2015-06-20T08:03:25Z</time>
      </trkpt>
      <trkpt lat="36.073275" lon="-5.517173">
        <ele>328.22</ele>
        <time>2015-06-20T08:03:45Z</time>
      </trkpt>
      <trkpt lat="36.074132" lon="-5.514510">
        <ele>342.64</ele>
        <time>2015-06-20T08:04:05Z</time>
      </trkpt>
      <trkpt lat="36.074724" lon="-5.513669">
        <ele>349.76</ele>
        <time>2015-06-20T08:04:25Z</time>
      </trkpt>
      <trkpt lat="36.074956" lon="-5.513619">
        <ele>352.54</ele>
        <time>2015-06-20T08:04:45Z</time>
      </trkpt>
      <trkpt lat="36.074820" lon="-5.514889">
        <ele>357.34</ele>
        <time>2015-06-20T08:05:05Z</time>
      </trkpt>
      <trkpt lat="36.075337" lon="-5.514071">
        <ele>361.37</ele>
        <time>2015-06-20T08:05:25Z</time>
      </trkpt>
      <trkpt lat="36.075766" lon="-5.514340">
        <ele>366.71</ele>
        <time>2015-06-20T08:05:45Z</time>
      </trkpt>
      <trkpt lat="36.076308" lon="-5.514350">
        <ele>368.61</ele>
        <time>2015-06-20T08:06:05Z</time>
      </trkpt>
      <trkpt lat="36.077168" lon="-5.513884">
        <ele>373.31</ele>
        <time>2015-06-20T08:06:25Z</time>
      </trkpt>
      <trkpt lat="36.077919" lon="-5.513859">
        <ele>376.48</ele>
        <time>2015-06-20T08:06:45Z</time>
      </trkpt>
      <trkpt lat="36.078588" lon="-5.514046">
        <ele>387.37</ele>
        <time>2015-06-20T08:07:05Z</time>
      </trkpt>
      <trkpt lat="36.079705" lon="-5.512941">
        <ele>391.85</ele>
        <time>2015-06-20T08:07:25Z</time>
      </trkpt>
      <trkpt lat="36.079915" lon="-5.512384">
        <ele>391.17</ele>
        <time>2015-06-20T08:07:45Z</time>
      </trkpt>
      <trkpt lat="36.080612" lon="-5.512057">
        <ele>398.01</ele>
        <time>2015-06-20T08:08:05Z</time>
      </trkpt>
      <trkpt lat="36.081238" lon="-5.512505">
        <ele>404.30</ele>
        <time>2015-06-20T08:08:25Z</time>
      </trkpt>
      <trkpt lat="36.081398" lon="-5.513133">
        <ele>415.12</ele>
        <time>2015-06-20T08:08:45Z</time>
      </trkpt>
      <trkpt lat="36.081546" lon="-5.513210">
        <ele>415.71</ele>
        <time>2015-06-20T08:09:05Z</time>
      </trkpt>
      <trkpt lat="36.082439" lon="-5.512980">
        <ele>416.68</ele>
        <time>2015-06-20T08:09:25Z</time>
      </trkpt>
      <trkpt lat="36.082681" lon="-5.512671">
        <ele>414.23</ele>
        <time>2015-06-20T08:09:45Z</time>
      </trkpt>
      <trkpt lat="36.082719" lon="-5.512365">
        <ele>408.92</ele>
        <time>2015-06-20T08:10:05Z</time>
      </trkpt>
      <trkpt lat="36.082881" lon="-5.512418">
        <ele>411.91</ele>
        <time>2015-06-20T08:10:25Z</time>
      </trkpt>
      <trkpt lat="36.082834" lon="-5.512954">
        <ele>423.26</ele>
        <time>2015-06-20T08:10:45Z</time>
      </trkpt>
      <trkpt lat="36.082686" lon="-5.513166">
        <ele>425.36</ele>
        <time>2015-06-20T08:11:05Z</time>
      </trkpt>
      <trkpt lat="36.081617" lon="-5.513756">
        <ele>430.38</ele>
        <time>2015-06-20T08:11:25Z</time>
      </trkpt>
      <trkpt lat="36.080798" lon="-5.513751">
        <ele>433.37</ele>
        <time>2015-06-20T08:11:45Z</time>
      </trkpt>
      <trkpt lat="36.080065" lon="-5.514247">
        <ele>437.94</ele>
        <time>2015-06-20T08:12:05Z</time>
      </trkpt>
      <trkpt lat="36.080126" lon="-5.514401">
        <ele>445.15</ele>
        <time>2015-06-20T08:12:25Z</time>
      </trkpt>
      <trkpt lat="36.080819" lon="-5.514047">
        <ele>445.71</ele>
        <time>2015-06-20T08:12:45Z</time>
      </trkpt>
      <trkpt lat="36.081697" lon="-5.514393">
        <ele>455.31</ele>
        <time>2015-06-20T08:13:05Z</time>
      </trkpt>
      <trkpt lat="36.082667" lon="-5.513987">
        <ele>457.77</ele>
        <time>2015-06-20T08:13:25Z</time>
      </trkpt>
      <trkpt lat="36.083747" lon="-5.514006">
        <ele>465.02</ele>
        <time>2015-06-20T08:13:36.04Z</time>
      </trkpt>
      <trkpt lat="36.083918" lon="-5.514009">
        <ele>466.17</ele>
        <time>2015-06-20T08:13:37.79Z</time>
      </trkpt>
      <trkpt lat="36.083914" lon="-5.513941">
        <ele>462.02</ele>
        <time>2015-06-20T08:36:37Z</time>
      </trkpt>
      <trkpt lat="36.084632" lon="-5.514006">
        <ele>470.46</ele>
        <time>2015-06-20T08:37:04Z</time>
      </trkpt>
      <trkpt lat="36.084758" lon="-5.513963">
        <ele>470.77</ele>
        <time>2015-06-20T08:37:09Z</time>
      </trkpt>
      <trkpt lat="36.085046" lon="-5.513766">
        <ele>473.04</ele>
        <time>2015-06-20T08:37:22Z</time>
      </trkpt>
      <trkpt lat="36.085190" lon="-5.513619">
        <ele>475.12</ele>
        <time>2015-06-20T08:37:29Z</time>
      </trkpt>
      <trkpt lat="36.085291" lon="-5.513364">
        <ele>472.51</ele>
        <time>2015-06-20T08:37:38Z</time>
      </trkpt>
      <trkpt lat="36.085494" lon="-5.513140">
        <ele>478.78</ele>
        <time>2015-06-20T08:37:49Z</time>
      </trkpt>
      <trkpt lat="36.085699" lon="-5.512241">
        <ele>474.46</ele>
        <time>2015-06-20T08:38:18Z</time>
      </trkpt>
      <trkpt lat="36.085873" lon="-5.512129">
        <ele>476.50</ele>
        <time>2015-06-20T08:38:25Z</time>
      </trkpt>
      <trkpt lat="36.086360" lon="-5.512126">
        <ele>486.37</ele>
        <time>2015-06-20T08:38:44Z</time>
      </trkpt>
      <trkpt lat="36.086695" lon="-5.512083">
        <ele>493.42</ele>
        <time>2015-06-20T08:38:57Z</time>
      </trkpt>
      <trkpt lat="36.086745" lon="-5.512067">
        <ele>494.80</ele>
        <time>2015-06-20T08:38:59Z</time>
      </trkpt>
      <trkpt lat="36.086853" lon="-5.511964">
        <ele>496.99</ele>
        <time>2015-06-20T08:39:04Z</time>
      </trkpt>
      <trkpt lat="36.086891" lon="-5.511554">
        <ele>489.56</ele>
        <time>2015-06-20T08:39:17Z</time>
      </trkpt>
      <trkpt lat="36.087135" lon="-5.511036">
        <ele>488.08</ele>
        <time>2015-06-20T08:39:36Z</time>
      </trkpt>
      <trkpt lat="36.087267" lon="-5.510949">
        <ele>491.23</ele>
        <time>2015-06-20T08:39:42Z</time>
      </trkpt>
      <trkpt lat="36.087323" lon="-5.511018">
        <ele>494.32</ele>
        <time>2015-06-20T08:39:44Z</time>
      </trkpt>
      <trkpt lat="36.087309" lon="-5.511093">
        <ele>495.71</ele>
        <time>2015-06-20T08:39:47Z</time>
      </trkpt>
      <trkpt lat="36.087126" lon="-5.511309">
        <ele>492.24</ele>
        <time>2015-06-20T08:39:57Z</time>
      </trkpt>
      <trkpt lat="36.087040" lon="-5.511568">
        <ele>495.25</ele>
        <time>2015-06-20T08:40:06Z</time>
      </trkpt>
      <trkpt lat="36.087104" lon="-5.511880">
        <ele>504.53</ele>
        <time>2015-06-20T08:40:16Z</time>
      </trkpt>
      <trkpt lat="36.087050" lon="-5.512402">
        <ele>508.43</ele>
        <time>2015-06-20T08:40:32Z</time>
      </trkpt>
      <trkpt lat="36.086894" lon="-5.512603">
        <ele>507.05</ele>
        <time>2015-06-20T08:40:41Z</time>
      </trkpt>
      <trkpt lat="36.086659" lon="-5.512716">
        <ele>503.60</ele>
        <time>2015-06-20T08:40:50Z</time>
      </trkpt>
      <trkpt lat="36.086635" lon="-5.512830">
        <ele>505.33</ele>
        <time>2015-06-20T08:40:54Z</time>
      </trkpt>
      <trkpt lat="36.086705" lon="-5.512919">
        <ele>508.63</ele>
        <time>2015-06-20T08:40:58Z</time>
      </trkpt>
      <trkpt lat="36.087119" lon="-5.512568">
        <ele>513.47</ele>
        <time>2015-06-20T08:41:17Z</time>
      </trkpt>
      <trkpt lat="36.087205" lon="-5.512226">
        <ele>511.49</ele>
        <time>2015-06-20T08:41:28Z</time>
      </trkpt>
      <trkpt lat="36.087389" lon="-5.511993">
        <ele>516.01</ele>
        <time>2015-06-20T08:41:38Z</time>
      </trkpt>
      <trkpt lat="36.087758" lon="-5.511537">
        <ele>519.21</ele>
        <time>2015-06-20T08:41:58Z</time>
      </trkpt>
      <trkpt lat="36.087960" lon="-5.511378">
        <ele>519.93</ele>
        <time>2015-06-20T08:42:08Z</time>
      </trkpt>
      <trkpt lat="36.088190" lon="-5.511455">
        <ele>522.12</ele>
        <time>2015-06-20T08:42:17Z</time>
      </trkpt>
      <trkpt lat="36.088715" lon="-5.511878">
        <ele>525.09</ele>
        <time>2015-06-20T08:42:41Z</time>
      </trkpt>
      <trkpt lat="36.089210" lon="-5.511959">
        <ele>520.18</ele>
        <time>2015-06-20T08:43:00Z</time>
      </trkpt>
      <trkpt lat="36.089495" lon="-5.512230">
        <ele>526.95</ele>
        <time>2015-06-20T08:43:14Z</time>
      </trkpt>
      <trkpt lat="36.089737" lon="-5.512334">
        <ele>523.83</ele>
        <time>2015-06-20T08:43:24Z</time>
      </trkpt>
      <trkpt lat="36.089996" lon="-5.512531">
        <ele>525.52</ele>
        <time>2015-06-20T08:43:36Z</time>
      </trkpt>
      <trkpt lat="36.090511" lon="-5.512747">
        <ele>525.77</ele>
        <time>2015-06-20T08:43:57Z</time>
      </trkpt>
      <trkpt lat="36.090750" lon="-5.513005">
        <ele>524.99</ele>
        <time>2015-06-20T08:44:09Z</time>
      </trkpt>
      <trkpt lat="36.091208" lon="-5.513495">
        <ele>532.52</ele>
        <time>2015-06-20T08:44:32Z</time>
      </trkpt>
      <trkpt lat="36.091666" lon="-5.513295">
        <ele>533.93</ele>
        <time>2015-06-20T08:44:51Z</time>
      </trkpt>
      <trkpt lat="36.092007" lon="-5.513222">
        <ele>538.01</ele>
        <time>2015-06-20T08:45:05Z</time>
      </trkpt>
      <trkpt lat="36.092314" lon="-5.513115">
        <ele>538.38</ele>
        <time>2015-06-20T08:45:17Z</time>
      </trkpt>
      <trkpt lat="36.092915" lon="-5.513050">
        <ele>539.91</ele>
        <time>2015-06-20T08:45:40Z</time>
      </trkpt>
      <trkpt lat="36.093612" lon="-5.513557">
        <ele>551.73</ele>
        <time>2015-06-20T08:46:11Z</time>
      </trkpt>
      <trkpt lat="36.093853" lon="-5.513694">
        <ele>555.34</ele>
        <time>2015-06-20T08:46:22Z</time>
      </trkpt>
      <trkpt lat="36.094141" lon="-5.513672">
        <ele>552.25</ele>
        <time>2015-06-20T08:46:33Z</time>
      </trkpt>
      <trkpt lat="36.094428" lon="-5.513823">
        <ele>557.88</ele>
        <time>2015-06-20T08:46:45Z</time>
      </trkpt>
      <trkpt lat="36.094647" lon="-5.513896">
        <ele>558.17</ele>
        <time>2015-06-20T08:46:54Z</time>
      </trkpt>
      <trkpt lat="36.094946" lon="-5.513982">
        <ele>559.66</ele>
        <time>2015-06-20T08:47:05Z</time>
      </trkpt>
      <trkpt lat="36.095229" lon="-5.513910">
        <ele>559.97</ele>
        <time>2015-06-20T08:47:17Z</time>
      </trkpt>
      <trkpt lat="36.095808" lon="-5.513938">
        <ele>561.99</ele>
        <time>2015-06-20T08:47:39Z</time>
      </trkpt>
      <trkpt lat="36.096042" lon="-5.514056">
        <ele>565.21</ele>
        <time>2015-06-20T08:47:49Z</time>
      </trkpt>
      <trkpt lat="36.096873" lon="-5.514118">
        <ele>568.31</ele>
        <time>2015-06-20T08:48:21Z</time>
      </trkpt>
      <trkpt lat="36.097131" lon="-5.514309">
        <ele>566.53</ele>
        <time>2015-06-20T08:48:32Z</time>
      </trkpt>
      <trkpt lat="36.097205" lon="-5.514732">
        <ele>564.22</ele>
        <time>2015-06-20T08:48:46Z</time>
      </trkpt>
      <trkpt lat="36.097176" lon="-5.515019">
        <ele>564.70</ele>
        <time>2015-06-20T08:48:55Z</time>
      </trkpt>
      <trkpt lat="36.097146" lon="-5.515591">
        <ele>561.12</ele>
        <time>2015-06-20T08:49:13Z</time>
      </trkpt>
      <trkpt lat="36.097060" lon="-5.516037">
        <ele>565.62</ele>
        <time>2015-06-20T08:49:27Z</time>
      </trkpt>
      <trkpt lat="36.097404" lon="-5.516286">
        <ele>560.55</ele>
        <time>2015-06-20T08:49:42Z</time>
      </trkpt>
      <trkpt lat="36.097822" lon="-5.516912">
        <ele>557.87</ele>
        <time>2015-06-20T08:50:08Z</time>
      </trkpt>
      <trkpt lat="36.097994" lon="-5.517132">
        <ele>556.70</ele>
        <time>2015-06-20T08:50:17Z</time>
      </trkpt>
      <trkpt lat="36.098061" lon="-5.517363">
        <ele>558.39</ele>
        <time>2015-06-20T08:50:25Z</time>
      </trkpt>
      <trkpt lat="36.098103" lon="-5.517680">
        <ele>559.01</ele>
        <time>2015-06-20T08:50:35Z</time>
      </trkpt>
      <trkpt lat="36.098325" lon="-5.517940">
        <ele>556.73</ele>
        <time>2015-06-20T08:50:47Z</time>
      </trkpt>
      <trkpt lat="36.098494" lon="-5.517986">
        <ele>553.91</ele>
        <time>2015-06-20T08:50:53Z</time>
      </trkpt>
      <trkpt lat="36.098674" lon="-5.518164">
        <ele>554.03</ele>
        <time>2015-06-20T08:51:02Z</time>
      </trkpt>
      <trkpt lat="36.098804" lon="-5.518460">
        <ele>556.91</ele>
        <time>2015-06-20T08:51:13Z</time>
      </trkpt>
      <trkpt lat="36.099231" lon="-5.518868">
        <ele>551.09</ele>
        <time>2015-06-20T08:51:33Z</time>
      </trkpt>
      <trkpt lat="36.099406" lon="-5.519208">
        <ele>548.18</ele>
        <time>2015-06-20T08:51:46Z</time>
      </trkpt>
      <trkpt lat="36.099462" lon="-5.519543">
        <ele>547.22</ele>
        <time>2015-06-20T08:51:57Z</time>
      </trkpt>
      <trkpt lat="36.099420" lon="-5.519979">
        <ele>549.90</ele>
        <time>2015-06-20T08:52:10Z</time>
      </trkpt>
      <trkpt lat="36.099532" lon="-5.520326">
        <ele>548.91</ele>
        <time>2015-06-20T08:52:22Z</time>
      </trkpt>
      <trkpt lat="36.099674" lon="-5.520492">
        <ele>545.20</ele>
        <time>2015-06-20T08:52:29Z</time>
      </trkpt>
      <trkpt lat="36.099825" lon="-5.520926">
        <ele>546.91</ele>
        <time>2015-06-20T08:52:44Z</time>
      </trkpt>
      <trkpt lat="36.100104" lon="-5.521131">
        <ele>543.65</ele>
        <time>2015-06-20T08:52:57Z</time>
      </trkpt>
      <trkpt lat="36.100327" lon="-5.521179">
        <ele>539.21</ele>
        <time>2015-06-20T08:53:05Z</time>
      </trkpt>
      <trkpt lat="36.100570" lon="-5.521375">
        <ele>539.31</ele>
        <time>2015-06-20T08:53:17Z</time>
      </trkpt>
      <trkpt lat="36.101111" lon="-5.521501">
        <ele>535.68</ele>
        <time>2015-06-20T08:53:38Z</time>
      </trkpt>
      <trkpt lat="36.101368" lon="-5.521520">
        <ele>531.67</ele>
        <time>2015-06-20T08:53:48Z</time>
      </trkpt>
      <trkpt lat="36.101601" lon="-5.521678">
        <ele>530.25</ele>
        <time>2015-06-20T08:53:58Z</time>
      </trkpt>
      <trkpt lat="36.101995" lon="-5.522405">
        <ele>532.28</ele>
        <time>2015-06-20T08:54:25Z</time>
      </trkpt>
      <trkpt lat="36.102125" lon="-5.522827">
        <ele>532.39</ele>
        <time>2015-06-20T08:54:40Z</time>
      </trkpt>
      <trkpt lat="36.102337" lon="-5.523375">
        <ele>535.58</ele>
        <time>2015-06-20T08:54:58Z</time>
      </trkpt>
      <trkpt lat="36.102395" lon="-5.523562">
        <ele>537.96</ele>
        <time>2015-06-20T08:55:05Z</time>
      </trkpt>
      <trkpt lat="36.102505" lon="-5.523676">
        <ele>538.37</ele>
        <time>2015-06-20T08:55:10Z</time>
      </trkpt>
      <trkpt lat="36.102653" lon="-5.523634">
        <ele>535.47</ele>
        <time>2015-06-20T08:55:16Z</time>
      </trkpt>
      <trkpt lat="36.102913" lon="-5.523332">
        <ele>524.09</ele>
        <time>2015-06-20T08:55:30Z</time>
      </trkpt>
      <trkpt lat="36.103210" lon="-5.523534">
        <ele>526.21</ele>
        <time>2015-06-20T08:55:43Z</time>
      </trkpt>
      <trkpt lat="36.103352" lon="-5.523732">
        <ele>529.01</ele>
        <time>2015-06-20T08:55:51Z</time>
      </trkpt>
      <trkpt lat="36.103520" lon="-5.523867">
        <ele>527.47</ele>
        <time>2015-06-20T08:55:59Z</time>
      </trkpt>
      <trkpt lat="36.103747" lon="-5.524123">
        <ele>524.98</ele>
        <time>2015-06-20T08:56:11Z</time>
      </trkpt>
      <trkpt lat="36.103857" lon="-5.524468">
        <ele>527.66</ele>
        <time>2015-06-20T08:56:22Z</time>
      </trkpt>
      <trkpt lat="36.104048" lon="-5.524580">
        <ele>530.59</ele>
        <time>2015-06-20T08:56:30Z</time>
      </trkpt>
      <trkpt lat="36.104432" lon="-5.524107">
        <ele>518.56</ele>
        <time>2015-06-20T08:56:52Z</time>
      </trkpt>
      <trkpt lat="36.104567" lon="-5.524123">
        <ele>518.19</ele>
        <time>2015-06-20T08:56:57Z</time>
      </trkpt>
      <trkpt lat="36.104952" lon="-5.524439">
        <ele>519.92</ele>
        <time>2015-06-20T08:57:14Z</time>
      </trkpt>
      <trkpt lat="36.105056" lon="-5.524568">
        <ele>519.53</ele>
        <time>2015-06-20T08:57:20Z</time>
      </trkpt>
      <trkpt lat="36.105160" lon="-5.525173">
        <ele>519.13</ele>
        <time>2015-06-20T08:57:39Z</time>
      </trkpt>
      <trkpt lat="36.105228" lon="-5.525960">
        <ele>517.85</ele>
        <time>2015-06-20T08:58:04Z</time>
      </trkpt>
      <trkpt lat="36.105109" lon="-5.526725">
        <ele>523.01</ele>
        <time>2015-06-20T08:58:28Z</time>
      </trkpt>
      <trkpt lat="36.105355" lon="-5.526941">
        <ele>522.21</ele>
        <time>2015-06-20T08:58:40Z</time>
      </trkpt>
      <trkpt lat="36.105518" lon="-5.526884">
        <ele>521.48</ele>
        <time>2015-06-20T08:58:46Z</time>
      </trkpt>
      <trkpt lat="36.106193" lon="-5.526668">
        <ele>512.83</ele>
        <time>2015-06-20T08:59:13Z</time>
      </trkpt>
      <trkpt lat="36.106422" lon="-5.526826">
        <ele>515.57</ele>
        <time>2015-06-20T08:59:23Z</time>
      </trkpt>
      <trkpt lat="36.106764" lon="-5.526997">
        <ele>513.93</ele>
        <time>2015-06-20T08:59:38Z</time>
      </trkpt>
      <trkpt lat="36.107098" lon="-5.526879">
        <ele>510.72</ele>
        <time>2015-06-20T08:59:51Z</time>
      </trkpt>
      <trkpt lat="36.107174" lon="-5.526668">
        <ele>506.03</ele>
        <time>2015-06-20T08:59:58Z</time>
      </trkpt>
      <trkpt lat="36.107472" lon="-5.526604">
        <ele>502.50</ele>
        <time>2015-06-20T09:00:10Z</time>
      </trkpt>
      <trkpt lat="36.107916" lon="-5.526898">
        <ele>500.61</ele>
        <time>2015-06-20T09:00:30Z</time>
      </trkpt>
      <trkpt lat="36.108147" lon="-5.527186">
        <ele>504.02</ele>
        <time>2015-06-20T09:00:42Z</time>
      </trkpt>
      <trkpt lat="36.108349" lon="-5.527467">
        <ele>506.20</ele>
        <time>2015-06-20T09:00:54Z</time>
      </trkpt>
      <trkpt lat="36.108562" lon="-5.527570">
        <ele>506.62</ele>
        <time>2015-06-20T09:01:02Z</time>
      </trkpt>
      <trkpt lat="36.108878" lon="-5.527330">
        <ele>498.51</ele>
        <time>2015-06-20T09:01:17Z</time>
      </trkpt>
      <trkpt lat="36.109157" lon="-5.527255">
        <ele>495.04</ele>
        <time>2015-06-20T09:01:28Z</time>
      </trkpt>
      <trkpt lat="36.109295" lon="-5.527268">
        <ele>493.20</ele>
        <time>2015-06-20T09:01:33Z</time>
      </trkpt>
      <trkpt lat="36.109662" lon="-5.527486">
        <ele>492.11</ele>
        <time>2015-06-20T09:01:49Z</time>
      </trkpt>
      <trkpt lat="36.109758" lon="-5.527574">
        <ele>492.30</ele>
        <time>2015-06-20T09:01:54Z</time>
      </trkpt>
      <trkpt lat="36.110074" lon="-5.527977">
        <ele>493.14</ele>
        <time>2015-06-20T09:02:11Z</time>
      </trkpt>
      <trkpt lat="36.110428" lon="-5.528287">
        <ele>494.83</ele>
        <time>2015-06-20T09:02:28Z</time>
      </trkpt>
      <trkpt lat="36.110779" lon="-5.528219">
        <ele>488.57</ele>
        <time>2015-06-20T09:02:41Z</time>
      </trkpt>
      <trkpt lat="36.111211" lon="-5.528379">
        <ele>486.89</ele>
        <time>2015-06-20T09:02:59Z</time>
      </trkpt>
      <trkpt lat="36.111627" lon="-5.529674">
        <ele>490.72</ele>
        <time>2015-06-20T09:03:42Z</time>
      </trkpt>
      <trkpt lat="36.111973" lon="-5.529701">
        <ele>489.10</ele>
        <time>2015-06-20T09:03:56Z</time>
      </trkpt>
      <trkpt lat="36.113005" lon="-5.529477">
        <ele>477.02</ele>
        <time>2015-06-20T09:04:36Z</time>
      </trkpt>
      <trkpt lat="36.113313" lon="-5.529415">
        <ele>476.41</ele>
        <time>2015-06-20T09:04:48Z</time>
      </trkpt>
      <trkpt lat="36.113599" lon="-5.529209">
        <ele>475.95</ele>
        <time>2015-06-20T09:05:01Z</time>
      </trkpt>
      <trkpt lat="36.113902" lon="-5.528721">
        <ele>471.85</ele>
        <time>2015-06-20T09:05:20Z</time>
      </trkpt>
      <trkpt lat="36.114246" lon="-5.528432">
        <ele>469.97</ele>
        <time>2015-06-20T09:05:36Z</time>
      </trkpt>
      <trkpt lat="36.114548" lon="-5.527975">
        <ele>466.67</ele>
        <time>2015-06-20T09:05:55Z</time>
      </trkpt>
      <trkpt lat="36.114636" lon="-5.527633">
        <ele>463.94</ele>
        <time>2015-06-20T09:06:06Z</time>
      </trkpt>
      <trkpt lat="36.114777" lon="-5.527390">
        <ele>463.26</ele>
        <time>2015-06-20T09:06:15Z</time>
      </trkpt>
      <trkpt lat="36.114992" lon="-5.526937">
        <ele>460.96</ele>
        <time>2015-06-20T09:06:31Z</time>
      </trkpt>
      <trkpt lat="36.115413" lon="-5.526424">
        <ele>459.94</ele>
        <time>2015-06-20T09:06:54Z</time>
      </trkpt>
      <trkpt lat="36.115495" lon="-5.526417">
        <ele>459.95</ele>
        <time>2015-06-20T09:06:57Z</time>
      </trkpt>
      <trkpt lat="36.115809" lon="-5.526807">
        <ele>458.29</ele>
        <time>2015-06-20T09:07:14Z</time>
      </trkpt>
      <trkpt lat="36.115827" lon="-5.527267">
        <ele>458.12</ele>
        <time>2015-06-20T09:07:29Z</time>
      </trkpt>
      <trkpt lat="36.115729" lon="-5.527728">
        <ele>460.31</ele>
        <time>2015-06-20T09:07:44Z</time>
      </trkpt>
      <trkpt lat="36.115903" lon="-5.528116">
        <ele>460.68</ele>
        <time>2015-06-20T09:07:58Z</time>
      </trkpt>
      <trkpt lat="36.116460" lon="-5.528266">
        <ele>455.92</ele>
        <time>2015-06-20T09:08:19Z</time>
      </trkpt>
      <trkpt lat="36.117018" lon="-5.528642">
        <ele>454.22</ele>
        <time>2015-06-20T09:08:44Z</time>
      </trkpt>
      <trkpt lat="36.117382" lon="-5.529170">
        <ele>452.42</ele>
        <time>2015-06-20T09:09:06Z</time>
      </trkpt>
      <trkpt lat="36.117463" lon="-5.529468">
        <ele>451.11</ele>
        <time>2015-06-20T09:09:15Z</time>
      </trkpt>
      <trkpt lat="36.117456" lon="-5.529927">
        <ele>452.57</ele>
        <time>2015-06-20T09:09:30Z</time>
      </trkpt>
      <trkpt lat="36.117697" lon="-5.530392">
        <ele>448.45</ele>
        <time>2015-06-20T09:09:47Z</time>
      </trkpt>
      <trkpt lat="36.117950" lon="-5.530582">
        <ele>445.11</ele>
        <time>2015-06-20T09:09:58Z</time>
      </trkpt>
      <trkpt lat="36.118214" lon="-5.530810">
        <ele>442.97</ele>
        <time>2015-06-20T09:10:11Z</time>
      </trkpt>
      <trkpt lat="36.118516" lon="-5.531458">
        <ele>445.40</ele>
        <time>2015-06-20T09:10:34Z</time>
      </trkpt>
      <trkpt lat="36.118643" lon="-5.531601">
        <ele>444.72</ele>
        <time>2015-06-20T09:10:41Z</time>
      </trkpt>
      <trkpt lat="36.118922" lon="-5.531739">
        <ele>446.21</ele>
        <time>2015-06-20T09:10:52Z</time>
      </trkpt>
      <trkpt lat="36.119350" lon="-5.531687">
        <ele>445.74</ele>
        <time>2015-06-20T09:11:09Z</time>
      </trkpt>
      <trkpt lat="36.119796" lon="-5.531499">
        <ele>435.66</ele>
        <time>2015-06-20T09:11:27Z</time>
      </trkpt>
      <trkpt lat="36.120303" lon="-5.531686">
        <ele>434.18</ele>
        <time>2015-06-20T09:11:47Z</time>
      </trkpt>
      <trkpt lat="36.120591" lon="-5.532014">
        <ele>436.54</ele>
        <time>2015-06-20T09:12:03Z</time>
      </trkpt>
      <trkpt lat="36.121317" lon="-5.532377">
        <ele>433.20</ele>
        <time>2015-06-20T09:12:33Z</time>
      </trkpt>
      <trkpt lat="36.121497" lon="-5.532610">
        <ele>430.48</ele>
        <time>2015-06-20T09:12:43Z</time>
      </trkpt>
      <trkpt lat="36.121756" lon="-5.533142">
        <ele>430.13</ele>
        <time>2015-06-20T09:13:02Z</time>
      </trkpt>
      <trkpt lat="36.122085" lon="-5.533339">
        <ele>430.12</ele>
        <time>2015-06-20T09:13:16Z</time>
      </trkpt>
      <trkpt lat="36.122529" lon="-5.533839">
        <ele>429.13</ele>
        <time>2015-06-20T09:13:40Z</time>
      </trkpt>
      <trkpt lat="36.122933" lon="-5.534055">
        <ele>429.15</ele>
        <time>2015-06-20T09:13:56Z</time>
      </trkpt>
      <trkpt lat="36.123104" lon="-5.533718">
        <ele>426.61</ele>
        <time>2015-06-20T09:14:09Z</time>
      </trkpt>
      <trkpt lat="36.123324" lon="-5.532294">
        <ele>418.91</ele>
        <time>2015-06-20T09:14:54Z</time>
      </trkpt>
      <trkpt lat="36.123517" lon="-5.532115">
        <ele>417.89</ele>
        <time>2015-06-20T09:15:03Z</time>
      </trkpt>
      <trkpt lat="36.123866" lon="-5.532120">
        <ele>420.43</ele>
        <time>2015-06-20T09:15:17Z</time>
      </trkpt>
      <trkpt lat="36.124051" lon="-5.532062">
        <ele>420.97</ele>
        <time>2015-06-20T09:15:24Z</time>
      </trkpt>
      <trkpt lat="36.124585" lon="-5.531759">
        <ele>417.28</ele>
        <time>2015-06-20T09:15:47Z</time>
      </trkpt>
      <trkpt lat="36.124897" lon="-5.531701">
        <ele>416.52</ele>
        <time>2015-06-20T09:15:59Z</time>
      </trkpt>
      <trkpt lat="36.125312" lon="-5.532036">
        <ele>413.61</ele>
        <time>2015-06-20T09:16:18Z</time>
      </trkpt>
      <trkpt lat="36.125677" lon="-5.532127">
        <ele>411.38</ele>
        <time>2015-06-20T09:16:32Z</time>
      </trkpt>
      <trkpt lat="36.126198" lon="-5.531742">
        <ele>406.12</ele>
        <time>2015-06-20T09:16:56Z</time>
      </trkpt>
      <trkpt lat="36.126320" lon="-5.531719">
        <ele>406.33</ele>
        <time>2015-06-20T09:17:00Z</time>
      </trkpt>
      <trkpt lat="36.127159" lon="-5.531941">
        <ele>408.49</ele>
        <time>2015-06-20T09:17:34Z</time>
      </trkpt>
      <trkpt lat="36.127948" lon="-5.531733">
        <ele>400.31</ele>
        <time>2015-06-20T09:18:05Z</time>
      </trkpt>
      <trkpt lat="36.128482" lon="-5.531658">
        <ele>400.49</ele>
        <time>2015-06-20T09:18:25Z</time>
      </trkpt>
      <trkpt lat="36.128914" lon="-5.531772">
        <ele>403.32</ele>
        <time>2015-06-20T09:18:42Z</time>
      </trkpt>
      <trkpt lat="36.129432" lon="-5.531548">
        <ele>401.86</ele>
        <time>2015-06-20T09:19:04Z</time>
      </trkpt>
      <trkpt lat="36.130293" lon="-5.531486">
        <ele>400.64</ele>
        <time>2015-06-20T09:19:37Z</time>
      </trkpt>
      <trkpt lat="36.130737" lon="-5.531457">
        <ele>404.44</ele>
        <time>2015-06-20T09:19:54Z</time>
      </trkpt>
      <trkpt lat="36.131095" lon="-5.531311">
        <ele>405.39</ele>
        <time>2015-06-20T09:20:08Z</time>
      </trkpt>
      <trkpt lat="36.131348" lon="-5.530968">
        <ele>406.59</ele>
        <time>2015-06-20T09:20:23Z</time>
      </trkpt>
      <trkpt lat="36.131507" lon="-5.530565">
        <ele>406.72</ele>
        <time>2015-06-20T09:20:37Z</time>
      </trkpt>
      <trkpt lat="36.131837" lon="-5.530233">
        <ele>411.58</ele>
        <time>2015-06-20T09:20:53Z</time>
      </trkpt>
      <trkpt lat="36.131891" lon="-5.529804">
        <ele>414.44</ele>
        <time>2015-06-20T09:21:07Z</time>
      </trkpt>
      <trkpt lat="36.131583" lon="-5.529170">
        <ele>412.02</ele>
        <time>2015-06-20T09:21:30Z</time>
      </trkpt>
      <trkpt lat="36.131402" lon="-5.528842">
        <ele>411.81</ele>
        <time>2015-06-20T09:21:42Z</time>
      </trkpt>
      <trkpt lat="36.131241" lon="-5.528551">
        <ele>411.89</ele>
        <time>2015-06-20T09:21:53Z</time>
      </trkpt>
      <trkpt lat="36.131114" lon="-5.528053">
        <ele>417.29</ele>
        <time>2015-06-20T09:22:09Z</time>
      </trkpt>
      <trkpt lat="36.131089" lon="-5.527533">
        <ele>417.64</ele>
        <time>2015-06-20T09:22:25Z</time>
      </trkpt>
      <trkpt lat="36.131087" lon="-5.527181">
        <ele>415.23</ele>
        <time>2015-06-20T09:22:36Z</time>
      </trkpt>
      <trkpt lat="36.131146" lon="-5.526958">
        <ele>414.69</ele>
        <time>2015-06-20T09:22:44Z</time>
      </trkpt>
      <trkpt lat="36.131185" lon="-5.526753">
        <ele>412.79</ele>
        <time>2015-06-20T09:22:50Z</time>
      </trkpt>
      <trkpt lat="36.131115" lon="-5.526426">
        <ele>406.52</ele>
        <time>2015-06-20T09:23:01Z</time>
      </trkpt>
      <trkpt lat="36.131011" lon="-5.526093">
        <ele>400.30</ele>
        <time>2015-06-20T09:23:12Z</time>
      </trkpt>
      <trkpt lat="36.131002" lon="-5.525881">
        <ele>398.65</ele>
        <time>2015-06-20T09:23:18Z</time>
      </trkpt>
      <trkpt lat="36.131095" lon="-5.525471">
        <ele>398.10</ele>
        <time>2015-06-20T09:23:31Z</time>
      </trkpt>
      <trkpt lat="36.131203" lon="-5.524982">
        <ele>398.11</ele>
        <time>2015-06-20T09:23:47Z</time>
      </trkpt>
      <trkpt lat="36.131225" lon="-5.524654">
        <ele>397.11</ele>
        <time>2015-06-20T09:23:58Z</time>
      </trkpt>
      <trkpt lat="36.131197" lon="-5.524530">
        <ele>394.92</ele>
        <time>2015-06-20T09:24:02Z</time>
      </trkpt>
      <trkpt lat="36.131189" lon="-5.524226">
        <ele>391.26</ele>
        <time>2015-06-20T09:24:11Z</time>
      </trkpt>
      <trkpt lat="36.131272" lon="-5.523939">
        <ele>390.21</ele>
        <time>2015-06-20T09:24:21Z</time>
      </trkpt>
      <trkpt lat="36.131301" lon="-5.523693">
        <ele>387.03</ele>
        <time>2015-06-20T09:24:28Z</time>
      </trkpt>
      <trkpt lat="36.131403" lon="-5.523476">
        <ele>388.19</ele>
        <time>2015-06-20T09:24:36Z</time>
      </trkpt>
      <trkpt lat="36.131589" lon="-5.523205">
        <ele>390.79</ele>
        <time>2015-06-20T09:24:47Z</time>
      </trkpt>
      <trkpt lat="36.131647" lon="-5.522902">
        <ele>388.29</ele>
        <time>2015-06-20T09:24:57Z</time>
      </trkpt>
      <trkpt lat="36.131643" lon="-5.522541">
        <ele>380.07</ele>
        <time>2015-06-20T09:25:08Z</time>
      </trkpt>
      <trkpt lat="36.131794" lon="-5.522276">
        <ele>377.87</ele>
        <time>2015-06-20T09:25:18Z</time>
      </trkpt>
      <trkpt lat="36.132089" lon="-5.522152">
        <ele>379.68</ele>
        <time>2015-06-20T09:25:30Z</time>
      </trkpt>
      <trkpt lat="36.132226" lon="-5.522107">
        <ele>381.02</ele>
        <time>2015-06-20T09:25:36Z</time>
      </trkpt>
      <trkpt lat="36.132590" lon="-5.521803">
        <ele>380.71</ele>
        <time>2015-06-20T09:25:53Z</time>
      </trkpt>
      <trkpt lat="36.132734" lon="-5.521561">
        <ele>376.96</ele>
        <time>2015-06-20T09:26:02Z</time>
      </trkpt>
      <trkpt lat="36.132897" lon="-5.521384">
        <ele>373.27</ele>
        <time>2015-06-20T09:26:10Z</time>
      </trkpt>
      <trkpt lat="36.133109" lon="-5.521290">
        <ele>372.63</ele>
        <time>2015-06-20T09:26:19Z</time>
      </trkpt>
      <trkpt lat="36.133499" lon="-5.521360">
        <ele>373.87</ele>
        <time>2015-06-20T09:26:34Z</time>
      </trkpt>
      <trkpt lat="36.133640" lon="-5.521477">
        <ele>378.40</ele>
        <time>2015-06-20T09:26:41Z</time>
      </trkpt>
      <trkpt lat="36.133776" lon="-5.521517">
        <ele>381.82</ele>
        <time>2015-06-20T09:26:46Z</time>
      </trkpt>
      <trkpt lat="36.133972" lon="-5.521185">
        <ele>378.65</ele>
        <time>2015-06-20T09:26:59Z</time>
      </trkpt>
      <trkpt lat="36.134019" lon="-5.520848">
        <ele>374.43</ele>
        <time>2015-06-20T09:27:10Z</time>
      </trkpt>
      <trkpt lat="36.134222" lon="-5.520152">
        <ele>368.38</ele>
        <time>2015-06-20T09:27:32Z</time>
      </trkpt>
      <trkpt lat="36.134523" lon="-5.519866">
        <ele>369.94</ele>
        <time>2015-06-20T09:27:47Z</time>
      </trkpt>
      <trkpt lat="36.134595" lon="-5.519762">
        <ele>367.52</ele>
        <time>2015-06-20T09:27:51Z</time>
      </trkpt>
      <trkpt lat="36.135256" lon="-5.519839">
        <ele>367.31</ele>
        <time>2015-06-20T09:28:17Z</time>
      </trkpt>
      <trkpt lat="36.135494" lon="-5.519981">
        <ele>369.30</ele>
        <time>2015-06-20T09:28:27Z</time>
      </trkpt>
      <trkpt lat="36.135975" lon="-5.520110">
        <ele>368.77</ele>
        <time>2015-06-20T09:28:46Z</time>
      </trkpt>
      <trkpt lat="36.136317" lon="-5.520212">
        <ele>370.56</ele>
        <time>2015-06-20T09:29:00Z</time>
      </trkpt>
      <trkpt lat="36.136493" lon="-5.520228">
        <ele>369.72</ele>
        <time>2015-06-20T09:29:07Z</time>
      </trkpt>
      <trkpt lat="36.136766" lon="-5.520199">
        <ele>365.09</ele>
        <time>2015-06-20T09:29:17Z</time>
      </trkpt>
      <trkpt lat="36.137674" lon="-5.520455">
        <ele>375.62</ele>
        <time>2015-06-20T09:29:53Z</time>
      </trkpt>
      <trkpt lat="36.137800" lon="-5.520412">
        <ele>375.10</ele>
        <time>2015-06-20T09:29:58Z</time>
      </trkpt>
      <trkpt lat="36.137960" lon="-5.520254">
        <ele>370.97</ele>
        <time>2015-06-20T09:30:06Z</time>
      </trkpt>
      <trkpt lat="36.138295" lon="-5.520106">
        <ele>369.38</ele>
        <time>2015-06-20T09:30:20Z</time>
      </trkpt>
      <trkpt lat="36.138966" lon="-5.520038">
        <ele>370.82</ele>
        <time>2015-06-20T09:30:46Z</time>
      </trkpt>
      <trkpt lat="36.139110" lon="-5.519966">
        <ele>371.42</ele>
        <time>2015-06-20T09:30:52Z</time>
      </trkpt>
      <trkpt lat="36.139442" lon="-5.519659">
        <ele>364.51</ele>
        <time>2015-06-20T09:31:08Z</time>
      </trkpt>
      <trkpt lat="36.139684" lon="-5.519740">
        <ele>365.09</ele>
        <time>2015-06-20T09:31:17Z</time>
      </trkpt>
      <trkpt lat="36.140107" lon="-5.519939">
        <ele>366.94</ele>
        <time>2015-06-20T09:31:35Z</time>
      </trkpt>
      <trkpt lat="36.140247" lon="-5.520041">
        <ele>366.92</ele>
        <time>2015-06-20T09:32:39Z</time>
      </trkpt>
      <trkpt lat="36.140519" lon="-5.520309">
        <ele>365.64</ele>
        <time>2015-06-20T09:32:53Z</time>
      </trkpt>
      <trkpt lat="36.140790" lon="-5.520560">
        <ele>361.90</ele>
        <time>2015-06-20T09:33:05Z</time>
      </trkpt>
      <trkpt lat="36.141208" lon="-5.521031">
        <ele>359.33</ele>
        <time>2015-06-20T09:33:27Z</time>
      </trkpt>
      <trkpt lat="36.141413" lon="-5.521346">
        <ele>356.48</ele>
        <time>2015-06-20T09:33:40Z</time>
      </trkpt>
      <trkpt lat="36.141371" lon="-5.521934">
        <ele>354.78</ele>
        <time>2015-06-20T09:33:58Z</time>
      </trkpt>
      <trkpt lat="36.141094" lon="-5.522766">
        <ele>355.69</ele>
        <time>2015-06-20T09:34:26Z</time>
      </trkpt>
      <trkpt lat="36.141070" lon="-5.522941">
        <ele>354.76</ele>
        <time>2015-06-20T09:34:32Z</time>
      </trkpt>
      <trkpt lat="36.141198" lon="-5.523504">
        <ele>351.53</ele>
        <time>2015-06-20T09:34:50Z</time>
      </trkpt>
      <trkpt lat="36.141152" lon="-5.524002">
        <ele>354.91</ele>
        <time>2015-06-20T09:35:06Z</time>
      </trkpt>
      <trkpt lat="36.141294" lon="-5.524505">
        <ele>348.76</ele>
        <time>2015-06-20T09:35:22Z</time>
      </trkpt>
      <trkpt lat="36.141264" lon="-5.524554">
        <ele>349.67</ele>
        <time>2015-06-20T09:35:24Z</time>
      </trkpt>
      <trkpt lat="36.141012" lon="-5.525362">
        <ele>340.82</ele>
        <time>2015-06-20T09:35:51Z</time>
      </trkpt>
      <trkpt lat="36.140520" lon="-5.525786">
        <ele>345.48</ele>
        <time>2015-06-20T09:36:14Z</time>
      </trkpt>
      <trkpt lat="36.140319" lon="-5.525900">
        <ele>345.76</ele>
        <time>2015-06-20T09:36:23Z</time>
      </trkpt>
      <trkpt lat="36.140001" lon="-5.526395">
        <ele>338.82</ele>
        <time>2015-06-20T09:36:42Z</time>
      </trkpt>
      <trkpt lat="36.139671" lon="-5.526766">
        <ele>339.39</ele>
        <time>2015-06-20T09:37:00Z</time>
      </trkpt>
      <trkpt lat="36.139358" lon="-5.527071">
        <ele>343.20</ele>
        <time>2015-06-20T09:37:15Z</time>
      </trkpt>
      <trkpt lat="36.139225" lon="-5.527561">
        <ele>344.86</ele>
        <time>2015-06-20T09:37:31Z</time>
      </trkpt>
      <trkpt lat="36.139499" lon="-5.528479">
        <ele>338.21</ele>
        <time>2015-06-20T09:38:02Z</time>
      </trkpt>
      <trkpt lat="36.139682" lon="-5.528667">
        <ele>331.92</ele>
        <time>2015-06-20T09:38:11Z</time>
      </trkpt>
      <trkpt lat="36.139753" lon="-5.528431">
        <ele>329.91</ele>
        <time>2015-06-20T09:38:19Z</time>
      </trkpt>
      <trkpt lat="36.139569" lon="-5.527976">
        <ele>333.23</ele>
        <time>2015-06-20T09:38:34Z</time>
      </trkpt>
      <trkpt lat="36.139522" lon="-5.527761">
        <ele>332.56</ele>
        <time>2015-06-20T09:38:41Z</time>
      </trkpt>
      <trkpt lat="36.139507" lon="-5.527573">
        <ele>332.90</ele>
        <time>2015-06-20T09:38:47Z</time>
      </trkpt>
      <trkpt lat="36.139819" lon="-5.527031">
        <ele>328.87</ele>
        <time>2015-06-20T09:39:08Z</time>
      </trkpt>
      <trkpt lat="36.140274" lon="-5.526783">
        <ele>319.59</ele>
        <time>2015-06-20T09:39:27Z</time>
      </trkpt>
      <trkpt lat="36.140591" lon="-5.526521">
        <ele>317.89</ele>
        <time>2015-06-20T09:39:42Z</time>
      </trkpt>
      <trkpt lat="36.140894" lon="-5.525963">
        <ele>326.51</ele>
        <time>2015-06-20T09:40:03Z</time>
      </trkpt>
      <trkpt lat="36.141282" lon="-5.525718">
        <ele>320.94</ele>
        <time>2015-06-20T09:40:19Z</time>
      </trkpt>
      <trkpt lat="36.141438" lon="-5.525590">
        <ele>320.46</ele>
        <time>2015-06-20T09:40:27Z</time>
      </trkpt>
      <trkpt lat="36.141896" lon="-5.525281">
        <ele>316.57</ele>
        <time>2015-06-20T09:40:47Z</time>
      </trkpt>
      <trkpt lat="36.142090" lon="-5.524985">
        <ele>315.41</ele>
        <time>2015-06-20T09:40:59Z</time>
      </trkpt>
      <trkpt lat="36.142256" lon="-5.524568">
        <ele>313.01</ele>
        <time>2015-06-20T09:41:13Z</time>
      </trkpt>
      <trkpt lat="36.142391" lon="-5.524377">
        <ele>309.96</ele>
        <time>2015-06-20T09:41:21Z</time>
      </trkpt>
      <trkpt lat="36.142777" lon="-5.523702">
        <ele>300.03</ele>
        <time>2015-06-20T09:41:47Z</time>
      </trkpt>
      <trkpt lat="36.142807" lon="-5.522980">
        <ele>301.90</ele>
        <time>2015-06-20T09:42:09Z</time>
      </trkpt>
      <trkpt lat="36.143051" lon="-5.522341">
        <ele>292.12</ele>
        <time>2015-06-20T09:42:31Z</time>
      </trkpt>
      <trkpt lat="36.143039" lon="-5.522233">
        <ele>292.18</ele>
        <time>2015-06-20T09:42:35Z</time>
      </trkpt>
      <trkpt lat="36.142976" lon="-5.522078">
        <ele>295.04</ele>
        <time>2015-06-20T09:42:40Z</time>
      </trkpt>
      <trkpt lat="36.142909" lon="-5.521891">
        <ele>297.88</ele>
        <time>2015-06-20T09:42:47Z</time>
      </trkpt>
      <trkpt lat="36.142879" lon="-5.521632">
        <ele>296.13</ele>
        <time>2015-06-20T09:42:55Z</time>
      </trkpt>
      <trkpt lat="36.142837" lon="-5.520934">
        <ele>291.54</ele>
        <time>2015-06-20T09:43:16Z</time>
      </trkpt>
      <trkpt lat="36.142708" lon="-5.520355">
        <ele>296.99</ele>
        <time>2015-06-20T09:43:35Z</time>
      </trkpt>
      <trkpt lat="36.142720" lon="-5.520056">
        <ele>296.51</ele>
        <time>2015-06-20T09:43:44Z</time>
      </trkpt>
      <trkpt lat="36.142761" lon="-5.519909">
        <ele>295.01</ele>
        <time>2015-06-20T09:43:49Z</time>
      </trkpt>
      <trkpt lat="36.142950" lon="-5.519693">
        <ele>291.71</ele>
        <time>2015-06-20T09:43:59Z</time>
      </trkpt>
      <trkpt lat="36.143512" lon="-5.519506">
        <ele>282.44</ele>
        <time>2015-06-20T09:44:21Z</time>
      </trkpt>
      <trkpt lat="36.143698" lon="-5.519304">
        <ele>277.63</ele>
        <time>2015-06-20T09:44:31Z</time>
      </trkpt>
      <trkpt lat="36.143716" lon="-5.519202">
        <ele>276.34</ele>
        <time>2015-06-20T09:44:34Z</time>
      </trkpt>
      <trkpt lat="36.143871" lon="-5.519358">
        <ele>271.48</ele>
        <time>2015-06-20T09:44:42Z</time>
      </trkpt>
      <trkpt lat="36.143756" lon="-5.519674">
        <ele>275.13</ele>
        <time>2015-06-20T09:44:53Z</time>
      </trkpt>
      <trkpt lat="36.143580" lon="-5.519851">
        <ele>276.84</ele>
        <time>2015-06-20T09:45:02Z</time>
      </trkpt>
      <trkpt lat="36.143180" lon="-5.520054">
        <ele>281.93</ele>
        <time>2015-06-20T09:45:18Z</time>
      </trkpt>
      <trkpt lat="36.143120" lon="-5.520323">
        <ele>279.67</ele>
        <time>2015-06-20T09:45:27Z</time>
      </trkpt>
      <trkpt lat="36.143322" lon="-5.520197">
        <ele>276.04</ele>
        <time>2015-06-20T09:45:35Z</time>
      </trkpt>
      <trkpt lat="36.143694" lon="-5.520156">
        <ele>268.12</ele>
        <time>2015-06-20T09:45:50Z</time>
      </trkpt>
      <trkpt lat="36.144111" lon="-5.519808">
        <ele>260.61</ele>
        <time>2015-06-20T09:46:09Z</time>
      </trkpt>
      <trkpt lat="36.144160" lon="-5.519652">
        <ele>259.87</ele>
        <time>2015-06-20T09:46:15Z</time>
      </trkpt>
      <trkpt lat="36.144141" lon="-5.519351">
        <ele>257.62</ele>
        <time>2015-06-20T09:46:24Z</time>
      </trkpt>
      <trkpt lat="36.144088" lon="-5.519133">
        <ele>256.84</ele>
        <time>2015-06-20T09:46:31Z</time>
      </trkpt>
      <trkpt lat="36.143913" lon="-5.518518">
        <ele>261.79</ele>
        <time>2015-06-20T09:46:51Z</time>
      </trkpt>
      <trkpt lat="36.143685" lon="-5.517867">
        <ele>261.15</ele>
        <time>2015-06-20T09:47:13Z</time>
      </trkpt>
      <trkpt lat="36.143600" lon="-5.517594">
        <ele>258.63</ele>
        <time>2015-06-20T09:47:22Z</time>
      </trkpt>
      <trkpt lat="36.143425" lon="-5.517234">
        <ele>257.05</ele>
        <time>2015-06-20T09:47:35Z</time>
      </trkpt>
      <trkpt lat="36.143137" lon="-5.516692">
        <ele>254.67</ele>
        <time>2015-06-20T09:47:56Z</time>
      </trkpt>
      <trkpt lat="36.143079" lon="-5.516454">
        <ele>253.13</ele>
        <time>2015-06-20T09:48:03Z</time>
      </trkpt>
      <trkpt lat="36.142953" lon="-5.515510">
        <ele>242.96</ele>
        <time>2015-06-20T09:48:33Z</time>
      </trkpt>
      <trkpt lat="36.142903" lon="-5.515320">
        <ele>243.01</ele>
        <time>2015-06-20T09:48:39Z</time>
      </trkpt>
      <trkpt lat="36.142326" lon="-5.514259">
        <ele>243.51</ele>
        <time>2015-06-20T09:49:19Z</time>
      </trkpt>
      <trkpt lat="36.142163" lon="-5.513382">
        <ele>236.06</ele>
        <time>2015-06-20T09:49:47Z</time>
      </trkpt>
      <trkpt lat="36.141991" lon="-5.512875">
        <ele>236.09</ele>
        <time>2015-06-20T09:50:04Z</time>
      </trkpt>
      <trkpt lat="36.141904" lon="-5.512702">
        <ele>236.74</ele>
        <time>2015-06-20T09:50:10Z</time>
      </trkpt>
      <trkpt lat="36.142010" lon="-5.512532">
        <ele>228.64</ele>
        <time>2015-06-20T09:50:17Z</time>
      </trkpt>
      <trkpt lat="36.142115" lon="-5.512741">
        <ele>228.26</ele>
        <time>2015-06-20T09:50:25Z</time>
      </trkpt>
      <trkpt lat="36.142375" lon="-5.513452">
        <ele>228.42</ele>
        <time>2015-06-20T09:50:49Z</time>
      </trkpt>
      <trkpt lat="36.142722" lon="-5.514079">
        <ele>223.54</ele>
        <time>2015-06-20T09:51:13Z</time>
      </trkpt>
      <trkpt lat="36.143541" lon="-5.515333">
        <ele>218.19</ele>
        <time>2015-06-20T09:52:03Z</time>
      </trkpt>
      <trkpt lat="36.143640" lon="-5.515432">
        <ele>215.70</ele>
        <time>2015-06-20T09:52:08Z</time>
      </trkpt>
      <trkpt lat="36.143741" lon="-5.515695">
        <ele>214.82</ele>
        <time>2015-06-20T09:52:17Z</time>
      </trkpt>
      <trkpt lat="36.143784" lon="-5.515954">
        <ele>216.82</ele>
        <time>2015-06-20T09:52:25Z</time>
      </trkpt>
      <trkpt lat="36.143979" lon="-5.516338">
        <ele>217.71</ele>
        <time>2015-06-20T09:52:39Z</time>
      </trkpt>
      <trkpt lat="36.144324" lon="-5.516692">
        <ele>211.81</ele>
        <time>2015-06-20T09:52:56Z</time>
      </trkpt>
      <trkpt lat="36.144471" lon="-5.516913">
        <ele>210.57</ele>
        <time>2015-06-20T09:53:05Z</time>
      </trkpt>
      <trkpt lat="36.144745" lon="-5.517695">
        <ele>212.33</ele>
        <time>2015-06-20T09:53:32Z</time>
      </trkpt>
      <trkpt lat="36.145035" lon="-5.518258">
        <ele>207.57</ele>
        <time>2015-06-20T09:53:53Z</time>
      </trkpt>
      <trkpt lat="36.145168" lon="-5.519232">
        <ele>205.32</ele>
        <time>2015-06-20T09:54:24Z</time>
      </trkpt>
      <trkpt lat="36.145169" lon="-5.519458">
        <ele>204.42</ele>
        <time>2015-06-20T09:54:31Z</time>
      </trkpt>
      <trkpt lat="36.145147" lon="-5.519906">
        <ele>201.13</ele>
        <time>2015-06-20T09:54:44Z</time>
      </trkpt>
      <trkpt lat="36.145078" lon="-5.520398">
        <ele>197.74</ele>
        <time>2015-06-20T09:55:00Z</time>
      </trkpt>
      <trkpt lat="36.145030" lon="-5.520571">
        <ele>197.52</ele>
        <time>2015-06-20T09:55:06Z</time>
      </trkpt>
      <trkpt lat="36.144762" lon="-5.520946">
        <ele>204.89</ele>
        <time>2015-06-20T09:55:22Z</time>
      </trkpt>
      <trkpt lat="36.144776" lon="-5.521160">
        <ele>205.12</ele>
        <time>2015-06-20T09:55:28Z</time>
      </trkpt>
      <trkpt lat="36.144906" lon="-5.521658">
        <ele>201.71</ele>
        <time>2015-06-20T09:55:44Z</time>
      </trkpt>
      <trkpt lat="36.145093" lon="-5.522526">
        <ele>200.69</ele>
        <time>2015-06-20T09:56:12Z</time>
      </trkpt>
      <trkpt lat="36.145326" lon="-5.522854">
        <ele>197.78</ele>
        <time>2015-06-20T09:56:26Z</time>
      </trkpt>
      <trkpt lat="36.145468" lon="-5.522933">
        <ele>194.43</ele>
        <time>2015-06-20T09:56:32Z</time>
      </trkpt>
      <trkpt lat="36.145637" lon="-5.522861">
        <ele>188.80</ele>
        <time>2015-06-20T09:56:39Z</time>
      </trkpt>
      <trkpt lat="36.145495" lon="-5.522756">
        <ele>191.59</ele>
        <time>2015-06-20T09:56:45Z</time>
      </trkpt>
      <trkpt lat="36.145249" lon="-5.522400">
        <ele>193.14</ele>
        <time>2015-06-20T09:57:00Z</time>
      </trkpt>
      <trkpt lat="36.145294" lon="-5.521002">
        <ele>183.36</ele>
        <time>2015-06-20T09:57:43Z</time>
      </trkpt>
      <trkpt lat="36.145352" lon="-5.520453">
        <ele>185.04</ele>
        <time>2015-06-20T09:58:01Z</time>
      </trkpt>
      <trkpt lat="36.145524" lon="-5.519939">
        <ele>181.22</ele>
        <time>2015-06-20T09:58:18Z</time>
      </trkpt>
      <trkpt lat="36.145570" lon="-5.519477">
        <ele>182.98</ele>
        <time>2015-06-20T09:58:33Z</time>
      </trkpt>
      <trkpt lat="36.145641" lon="-5.519093">
        <ele>178.71</ele>
        <time>2015-06-20T09:58:45Z</time>
      </trkpt>
      <trkpt lat="36.145555" lon="-5.518452">
        <ele>177.91</ele>
        <time>2015-06-20T09:59:05Z</time>
      </trkpt>
      <trkpt lat="36.145604" lon="-5.517910">
        <ele>171.32</ele>
        <time>2015-06-20T09:59:22Z</time>
      </trkpt>
      <trkpt lat="36.145556" lon="-5.517648">
        <ele>170.14</ele>
        <time>2015-06-20T09:59:30Z</time>
      </trkpt>
      <trkpt lat="36.145497" lon="-5.517536">
        <ele>171.97</ele>
        <time>2015-06-20T09:59:34Z</time>
      </trkpt>
      <trkpt lat="36.145467" lon="-5.517290">
        <ele>171.75</ele>
        <time>2015-06-20T09:59:42Z</time>
      </trkpt>
      <trkpt lat="36.145456" lon="-5.517027">
        <ele>170.98</ele>
        <time>2015-06-20T09:59:50Z</time>
      </trkpt>
      <trkpt lat="36.145423" lon="-5.516836">
        <ele>171.04</ele>
        <time>2015-06-20T09:59:56Z</time>
      </trkpt>
      <trkpt lat="36.145179" lon="-5.516026">
        <ele>166.82</ele>
        <time>2015-06-20T10:00:23Z</time>
      </trkpt>
      <trkpt lat="36.144828" lon="-5.515584">
        <ele>170.08</ele>
        <time>2015-06-20T10:00:42Z</time>
      </trkpt>
      <trkpt lat="36.144805" lon="-5.515331">
        <ele>166.84</ele>
        <time>2015-06-20T10:00:50Z</time>
      </trkpt>
      <trkpt lat="36.144701" lon="-5.514730">
        <ele>162.09</ele>
        <time>2015-06-20T10:01:09Z</time>
      </trkpt>
      <trkpt lat="36.144616" lon="-5.514490">
        <ele>161.21</ele>
        <time>2015-06-20T10:01:18Z</time>
      </trkpt>
      <trkpt lat="36.144561" lon="-5.514386">
        <ele>160.81</ele>
        <time>2015-06-20T10:01:22Z</time>
      </trkpt>
      <trkpt lat="36.144358" lon="-5.514142">
        <ele>161.04</ele>
        <time>2015-06-20T10:01:33Z</time>
      </trkpt>
      <trkpt lat="36.143869" lon="-5.513146">
        <ele>160.74</ele>
        <time>2015-06-20T10:02:09Z</time>
      </trkpt>
      <trkpt lat="36.143743" lon="-5.512550">
        <ele>157.12</ele>
        <time>2015-06-20T10:02:28Z</time>
      </trkpt>
      <trkpt lat="36.143658" lon="-5.512373">
        <ele>156.06</ele>
        <time>2015-06-20T10:02:34Z</time>
      </trkpt>
      <trkpt lat="36.143453" lon="-5.512075">
        <ele>156.05</ele>
        <time>2015-06-20T10:02:46Z</time>
      </trkpt>
      <trkpt lat="36.143124" lon="-5.511465">
        <ele>155.83</ele>
        <time>2015-06-20T10:03:09Z</time>
      </trkpt>
      <trkpt lat="36.143068" lon="-5.511231">
        <ele>153.72</ele>
        <time>2015-06-20T10:03:17Z</time>
      </trkpt>
      <trkpt lat="36.143065" lon="-5.510505">
        <ele>148.08</ele>
        <time>2015-06-20T10:03:39Z</time>
      </trkpt>
      <trkpt lat="36.142997" lon="-5.510233">
        <ele>146.07</ele>
        <time>2015-06-20T10:03:48Z</time>
      </trkpt>
      <trkpt lat="36.142821" lon="-5.509900">
        <ele>144.51</ele>
        <time>2015-06-20T10:04:00Z</time>
      </trkpt>
      <trkpt lat="36.142679" lon="-5.509842">
        <ele>143.91</ele>
        <time>2015-06-20T10:04:06Z</time>
      </trkpt>
      <trkpt lat="36.141900" lon="-5.510317">
        <ele>146.01</ele>
        <time>2015-06-20T10:04:40Z</time>
      </trkpt>
      <trkpt lat="36.141786" lon="-5.510356">
        <ele>146.12</ele>
        <time>2015-06-20T10:04:44Z</time>
      </trkpt>
      <trkpt lat="36.141510" lon="-5.510301">
        <ele>141.51</ele>
        <time>2015-06-20T10:04:55Z</time>
      </trkpt>
      <trkpt lat="36.141283" lon="-5.510202">
        <ele>139.20</ele>
        <time>2015-06-20T10:05:04Z</time>
      </trkpt>
      <trkpt lat="36.140895" lon="-5.510203">
        <ele>138.54</ele>
        <time>2015-06-20T10:05:19Z</time>
      </trkpt>
      <trkpt lat="36.140635" lon="-5.510229">
        <ele>138.74</ele>
        <time>2015-06-20T10:05:29Z</time>
      </trkpt>
      <trkpt lat="36.140456" lon="-5.510271">
        <ele>140.24</ele>
        <time>2015-06-20T10:05:36Z</time>
      </trkpt>
      <trkpt lat="36.140304" lon="-5.510126">
        <ele>136.07</ele>
        <time>2015-06-20T10:05:44Z</time>
      </trkpt>
      <trkpt lat="36.140581" lon="-5.509986">
        <ele>131.98</ele>
        <time>2015-06-20T10:05:55Z</time>
      </trkpt>
      <trkpt lat="36.140889" lon="-5.509730">
        <ele>131.73</ele>
        <time>2015-06-20T10:06:10Z</time>
      </trkpt>
      <trkpt lat="36.141092" lon="-5.509347">
        <ele>128.47</ele>
        <time>2015-06-20T10:06:24Z</time>
      </trkpt>
      <trkpt lat="36.141336" lon="-5.509113">
        <ele>124.81</ele>
        <time>2015-06-20T10:06:35Z</time>
      </trkpt>
      <trkpt lat="36.141523" lon="-5.509045">
        <ele>123.61</ele>
        <time>2015-06-20T10:06:43Z</time>
      </trkpt>
      <trkpt lat="36.141941" lon="-5.508591">
        <ele>119.78</ele>
        <time>2015-06-20T10:07:05Z</time>
      </trkpt>
      <trkpt lat="36.142521" lon="-5.508126">
        <ele>116.70</ele>
        <time>2015-06-20T10:07:31Z</time>
      </trkpt>
      <trkpt lat="36.142665" lon="-5.508026">
        <ele>115.09</ele>
        <time>2015-06-20T10:07:37Z</time>
      </trkpt>
      <trkpt lat="36.143048" lon="-5.507997">
        <ele>112.41</ele>
        <time>2015-06-20T10:07:52Z</time>
      </trkpt>
      <trkpt lat="36.143623" lon="-5.508242">
        <ele>108.58</ele>
        <time>2015-06-20T10:08:16Z</time>
      </trkpt>
      <trkpt lat="36.143980" lon="-5.508260">
        <ele>104.13</ele>
        <time>2015-06-20T10:08:29Z</time>
      </trkpt>
      <trkpt lat="36.143928" lon="-5.508098">
        <ele>103.65</ele>
        <time>2015-06-20T10:08:35Z</time>
      </trkpt>
      <trkpt lat="36.143743" lon="-5.507871">
        <ele>103.72</ele>
        <time>2015-06-20T10:08:45Z</time>
      </trkpt>
      <trkpt lat="36.143685" lon="-5.507660">
        <ele>103.01</ele>
        <time>2015-06-20T10:08:52Z</time>
      </trkpt>
      <trkpt lat="36.143739" lon="-5.507141">
        <ele>98.45</ele>
        <time>2015-06-20T10:09:08Z</time>
      </trkpt>
      <trkpt lat="36.143798" lon="-5.507009">
        <ele>96.61</ele>
        <time>2015-06-20T10:09:13Z</time>
      </trkpt>
      <trkpt lat="36.143980" lon="-5.506430">
        <ele>93.01</ele>
        <time>2015-06-20T10:09:32Z</time>
      </trkpt>
      <trkpt lat="36.144072" lon="-5.505314">
        <ele>91.16</ele>
        <time>2015-06-20T10:10:07Z</time>
      </trkpt>
      <trkpt lat="36.144316" lon="-5.504909">
        <ele>86.10</ele>
        <time>2015-06-20T10:10:23Z</time>
      </trkpt>
      <trkpt lat="36.144661" lon="-5.504314">
        <ele>82.44</ele>
        <time>2015-06-20T10:10:45Z</time>
      </trkpt>
      <trkpt lat="36.144729" lon="-5.503667">
        <ele>82.92</ele>
        <time>2015-06-20T10:11:06Z</time>
      </trkpt>
      <trkpt lat="36.144890" lon="-5.503143">
        <ele>82.57</ele>
        <time>2015-06-20T10:11:23Z</time>
      </trkpt>
      <trkpt lat="36.145003" lon="-5.502361">
        <ele>79.56</ele>
        <time>2015-06-20T10:11:48Z</time>
      </trkpt>
      <trkpt lat="36.145029" lon="-5.501559">
        <ele>77.18</ele>
        <time>2015-06-20T10:12:13Z</time>
      </trkpt>
      <trkpt lat="36.145050" lon="-5.500783">
        <ele>77.04</ele>
        <time>2015-06-20T10:12:37Z</time>
      </trkpt>
      <trkpt lat="36.144888" lon="-5.499729">
        <ele>72.67</ele>
        <time>2015-06-20T10:13:10Z</time>
      </trkpt>
      <trkpt lat="36.144688" lon="-5.498783">
        <ele>68.26</ele>
        <time>2015-06-20T10:13:41Z</time>
      </trkpt>
      <trkpt lat="36.144642" lon="-5.498061">
        <ele>66.52</ele>
        <time>2015-06-20T10:14:03Z</time>
      </trkpt>
      <trkpt lat="36.144747" lon="-5.497037">
        <ele>56.11</ele>
        <time>2015-06-20T10:14:36Z</time>
      </trkpt>
      <trkpt lat="36.144518" lon="-5.496102">
        <ele>45.03</ele>
        <time>2015-06-20T10:15:06Z</time>
      </trkpt>
      <trkpt lat="36.144559" lon="-5.495848">
        <ele>44.38</ele>
        <time>2015-06-20T10:15:14Z</time>
      </trkpt>
      <trkpt lat="36.144719" lon="-5.495475">
        <ele>44.78</ele>
        <time>2015-06-20T10:15:27Z</time>
      </trkpt>
      <trkpt lat="36.144645" lon="-5.494839">
        <ele>39.67</ele>
        <time>2015-06-20T10:15:47Z</time>
      </trkpt>
      <trkpt lat="36.144608" lon="-5.494307">
        <ele>36.25</ele>
        <time>2015-06-20T10:16:04Z</time>
      </trkpt>
      <trkpt lat="36.144069" lon="-5.493674">
        <ele>31.36</ele>
        <time>2015-06-20T10:16:32Z</time>
      </trkpt>
      <trkpt lat="36.143788" lon="-5.493120">
        <ele>30.46</ele>
        <time>2015-06-20T10:16:53Z</time>
      </trkpt>
      <trkpt lat="36.143558" lon="-5.492613">
        <ele>32.55</ele>
        <time>2015-06-20T10:17:11Z</time>
      </trkpt>
      <trkpt lat="36.143384" lon="-5.492067">
        <ele>32.73</ele>
        <time>2015-06-20T10:17:29Z</time>
      </trkpt>
      <trkpt lat="36.143437" lon="-5.491618">
        <ele>32.42</ele>
        <time>2015-06-20T10:17:43Z</time>
      </trkpt>
      <trkpt lat="36.143611" lon="-5.491249">
        <ele>30.52</ele>
        <time>2015-06-20T10:17:56Z</time>
      </trkpt>
      <trkpt lat="36.144305" lon="-5.490629">
        <ele>26.71</ele>
        <time>2015-06-20T10:18:29Z</time>
      </trkpt>
      <trkpt lat="36.144511" lon="-5.490555">
        <ele>25.57</ele>
        <time>2015-06-20T10:18:38Z</time>
      </trkpt>
      <trkpt lat="36.145174" lon="-5.490454">
        <ele>21.92</ele>
        <time>2015-06-20T10:19:04Z</time>
      </trkpt>
      <trkpt lat="36.145722" lon="-5.489752">
        <ele>19.65</ele>
        <time>2015-06-20T10:19:34Z</time>
      </trkpt>
      <trkpt lat="36.146143" lon="-5.489431">
        <ele>15.88</ele>
        <time>2015-06-20T10:19:53Z</time>
      </trkpt>
      <trkpt lat="36.146586" lon="-5.489320">
        <ele>13.59</ele>
        <time>2015-06-20T10:20:10Z</time>
      </trkpt>
      <trkpt lat="36.146987" lon="-5.489202">
        <ele>12.75</ele>
        <time>2015-06-20T10:20:26Z</time>
      </trkpt>
      <trkpt lat="36.147582" lon="-5.489234">
        <ele>11.52</ele>
        <time>2015-06-20T10:20:49Z</time>
      </trkpt>
      <trkpt lat="36.147538" lon="-5.488889">
        <ele>12.05</ele>
        <time>2015-06-20T10:21:00Z</time>
      </trkpt>
      <trkpt lat="36.147608" lon="-5.488796">
        <ele>12.03</ele>
        <time>2015-06-20T10:21:04Z</time>
      </trkpt>
      <trkpt lat="36.147868" lon="-5.488400">
        <ele>10.99</ele>
        <time>2015-06-20T10:21:20Z</time>
      </trkpt>
      <trkpt lat="36.148156" lon="-5.488112">
        <ele>10.01</ele>
        <time>2015-06-20T10:21:34Z</time>
      </trkpt>
      <trkpt lat="36.148328" lon="-5.487968">
        <ele>10.31</ele>
        <time>2015-06-20T10:21:42Z</time>
      </trkpt>
      <trkpt lat="36.148472" lon="-5.486955">
        <ele>12.02</ele>
        <time>2015-06-20T10:22:14Z</time>
      </trkpt>
      <trkpt lat="36.149193" lon="-5.487179">
        <ele>11.98</ele>
        <time>2015-06-20T10:22:43Z</time>
      </trkpt>
      <trkpt lat="36.149525" lon="-5.488297">
        <ele>9.07</ele>
        <time>2015-06-20T10:23:20Z</time>
      </trkpt>
      <trkpt lat="36.149479" lon="-5.488514">
        <ele>8.47</ele>
        <time>2015-06-20T10:23:27Z</time>
      </trkpt>
      <trkpt lat="36.149555" lon="-5.488719">
        <ele>8.45</ele>
        <time>2015-06-20T10:23:34Z</time>
      </trkpt>
      <trkpt lat="36.149710" lon="-5.488845">
        <ele>9.04</ele>
        <time>2015-06-20T10:23:41Z</time>
      </trkpt>
      <trkpt lat="36.149884" lon="-5.488947">
        <ele>9.72</ele>
        <time>2015-06-20T10:23:49Z</time>
      </trkpt>
      <trkpt lat="36.150038" lon="-5.489118">
        <ele>11.13</ele>
        <time>2015-06-20T10:23:57Z</time>
      </trkpt>
      <trkpt lat="36.150356" lon="-5.492028">
        <ele>26.68</ele>
        <time>2015-06-20T10:25:28Z</time>
      </trkpt>
      <trkpt lat="36.150788" lon="-5.493288">
        <ele>43.20</ele>
        <time>2015-06-20T10:26:11Z</time>
      </trkpt>
      <trkpt lat="36.151118" lon="-5.493492">
        <ele>49.73</ele>
        <time>2015-06-20T10:26:25Z</time>
      </trkpt>
      <trkpt lat="36.152320" lon="-5.495773">
        <ele>60.91</ele>
        <time>2015-06-20T10:27:50Z</time>
      </trkpt>
      <trkpt lat="36.154121" lon="-5.496708">
        <ele>32.95</ele>
        <time>2015-06-20T10:29:05Z</time>
      </trkpt>
      <trkpt lat="36.154210" lon="-5.497026">
        <ele>29.85</ele>
        <time>2015-06-20T10:29:15Z</time>
      </trkpt>
      <trkpt lat="36.153907" lon="-5.497619">
        <ele>29.95</ele>
        <time>2015-06-20T10:29:37Z</time>
      </trkpt>
      <trkpt lat="36.153811" lon="-5.498298">
        <ele>32.74</ele>
        <time>2015-06-20T10:29:59Z</time>
      </trkpt>
      <trkpt lat="36.153520" lon="-5.499007">
        <ele>38.93</ele>
        <time>2015-06-20T10:30:23Z</time>
      </trkpt>
      <trkpt lat="36.153938" lon="-5.499531">
        <ele>34.09</ele>
        <time>2015-06-20T10:30:46Z</time>
      </trkpt>
      <trkpt lat="36.155293" lon="-5.499160">
        <ele>35.33</ele>
        <time>2015-06-20T10:31:40Z</time>
      </trkpt>
      <trkpt lat="36.156928" lon="-5.501071">
        <ele>38.73</ele>
        <time>2015-06-20T10:33:06Z</time>
      </trkpt>
      <trkpt lat="36.158899" lon="-5.500892">
        <ele>23.63</ele>
        <time>2015-06-20T10:34:23Z</time>
      </trkpt>
      <trkpt lat="36.161131" lon="-5.499977">
        <ele>15.15</ele>
        <time>2015-06-20T10:35:53Z</time>
      </trkpt>
      <trkpt lat="36.162200" lon="-5.499474">
        <ele>10.31</ele>
        <time>2015-06-20T10:36:38Z</time>
      </trkpt>
      <trkpt lat="36.164392" lon="-5.498647">
        <ele>7.21</ele>
        <time>2015-06-20T10:38:06Z</time>
      </trkpt>
      <trkpt lat="36.165299" lon="-5.498251">
        <ele>7.02</ele>
        <time>2015-06-20T10:38:43Z</time>
      </trkpt>
      <trkpt lat="36.165517" lon="-5.497916">
        <ele>6.42</ele>
        <time>2015-06-20T10:38:56Z</time>
      </trkpt>
      <trkpt lat="36.165928" lon="-5.498053">
        <ele>8.33</ele>
        <time>2015-06-20T10:39:13Z</time>
      </trkpt>
      <trkpt lat="36.166309" lon="-5.498241">
        <ele>8.53</ele>
        <time>2015-06-20T10:39:29Z</time>
      </trkpt>
      <trkpt lat="36.166722" lon="-5.498094">
        <ele>8.22</ele>
        <time>2015-06-20T10:39:45Z</time>
      </trkpt>
      <trkpt lat="36.167772" lon="-5.496600">
        <ele>5.73</ele>
        <time>2015-06-20T10:40:47Z</time>
      </trkpt>
      <trkpt lat="36.168578" lon="-5.496051">
        <ele>5.26</ele>
        <time>2015-06-20T10:41:22Z</time>
      </trkpt>
      <trkpt lat="36.170336" lon="-5.494903">
        <ele>6.39</ele>
        <time>2015-06-20T10:42:39Z</time>
      </trkpt>
      <trkpt lat="36.171064" lon="-5.494469">
        <ele>4.92</ele>
        <time>2015-06-20T10:43:10Z</time>
      </trkpt>
      <trkpt lat="36.172334" lon="-5.494140">
        <ele>4.08</ele>
        <time>2015-06-20T10:44:00Z</time>
      </trkpt>
      <trkpt lat="36.173232" lon="-5.493916">
        <ele>6.81</ele>
        <time>2015-06-20T10:44:35Z</time>
      </trkpt>
      <trkpt lat="36.173467" lon="-5.493707">
        <ele>7.71</ele>
        <time>2015-06-20T10:44:46Z</time>
      </trkpt>
      <trkpt lat="36.173389" lon="-5.493763">
        <ele>7.54</ele>
        <time>2015-06-20T11:00:53Z</time>
      </trkpt>
      <trkpt lat="36.175822" lon="-5.496859">
        <ele>4.33</ele>
        <time>2015-06-20T11:03:08Z</time>
      </trkpt>
      <trkpt lat="36.176828" lon="-5.500653">
        <ele>5.12</ele>
        <time>2015-06-20T11:05:12Z</time>
      </trkpt>
      <trkpt lat="36.177379" lon="-5.500435">
        <ele>3.05</ele>
        <time>2015-06-20T11:05:34Z</time>
      </trkpt>
      <trkpt lat="36.178369" lon="-5.500477">
        <ele>3.88</ele>
        <time>2015-06-20T11:06:13Z</time>
      </trkpt>
      <trkpt lat="36.179059" lon="-5.501314">
        <ele>6.68</ele>
        <time>2015-06-20T11:06:50Z</time>
      </trkpt>
      <trkpt lat="36.179362" lon="-5.501362">
        <ele>11.82</ele>
        <time>2015-06-20T11:07:01Z</time>
      </trkpt>
      <trkpt lat="36.180185" lon="-5.500192">
        <ele>4.81</ele>
        <time>2015-06-20T11:07:50Z</time>
      </trkpt>
      <trkpt lat="36.180413" lon="-5.500322">
        <ele>6.05</ele>
        <time>2015-06-20T11:07:59Z</time>
      </trkpt>
      <trkpt lat="36.181648" lon="-5.501205">
        <ele>10.81</ele>
        <time>2015-06-20T11:08:54Z</time>
      </trkpt>
      <trkpt lat="36.181789" lon="-5.501262">
        <ele>10.42</ele>
        <time>2015-06-20T11:09:00Z</time>
      </trkpt>
      <trkpt lat="36.181941" lon="-5.501409">
        <ele>11.21</ele>
        <time>2015-06-20T11:09:07Z</time>
      </trkpt>
      <trkpt lat="36.182078" lon="-5.501554">
        <ele>11.76</ele>
        <time>2015-06-20T11:09:14Z</time>
      </trkpt>
      <trkpt lat="36.182229" lon="-5.501722">
        <ele>11.62</ele>
        <time>2015-06-20T11:09:22Z</time>
      </trkpt>
      <trkpt lat="36.182366" lon="-5.501867">
        <ele>10.06</ele>
        <time>2015-06-20T11:09:29Z</time>
      </trkpt>
      <trkpt lat="36.182519" lon="-5.502015">
        <ele>8.87</ele>
        <time>2015-06-20T11:09:37Z</time>
      </trkpt>
      <trkpt lat="36.182654" lon="-5.502181">
        <ele>9.19</ele>
        <time>2015-06-20T11:09:44Z</time>
      </trkpt>
      <trkpt lat="36.182788" lon="-5.502349">
        <ele>10.08</ele>
        <time>2015-06-20T11:09:52Z</time>
      </trkpt>
      <trkpt lat="36.182924" lon="-5.502493">
        <ele>10.06</ele>
        <time>2015-06-20T11:09:59Z</time>
      </trkpt>
      <trkpt lat="36.186579" lon="-5.502150">
        <ele>3.52</ele>
        <time>2015-06-20T11:12:20Z</time>
      </trkpt>
      <trkpt lat="36.186989" lon="-5.502829">
        <ele>2.05</ele>
        <time>2015-06-20T11:12:46Z</time>
      </trkpt>
      <trkpt lat="36.187432" lon="-5.504221">
        <ele>4.09</ele>
        <time>2015-06-20T11:13:33Z</time>
      </trkpt>
      <trkpt lat="36.188093" lon="-5.505876">
        <ele>5.02</ele>
        <time>2015-06-20T11:14:30Z</time>
      </trkpt>
      <trkpt lat="36.188738" lon="-5.507509">
        <ele>4.01</ele>
        <time>2015-06-20T11:15:27Z</time>
      </trkpt>
      <trkpt lat="36.188953" lon="-5.507838">
        <ele>4.84</ele>
        <time>2015-06-20T11:15:40Z</time>
      </trkpt>
      <trkpt lat="36.189158" lon="-5.508011">
        <ele>4.07</ele>
        <time>2015-06-20T11:15:50Z</time>
      </trkpt>
      <trkpt lat="36.189323" lon="-5.508912">
        <ele>6.01</ele>
        <time>2015-06-20T11:16:18Z</time>
      </trkpt>
      <trkpt lat="36.189500" lon="-5.509282">
        <ele>5.96</ele>
        <time>2015-06-20T11:16:32Z</time>
      </trkpt>
      <trkpt lat="36.189286" lon="-5.509863">
        <ele>5.55</ele>
        <time>2015-06-20T11:16:52Z</time>
      </trkpt>
      <trkpt lat="36.189073" lon="-5.510421">
        <ele>4.25</ele>
        <time>2015-06-20T11:17:11Z</time>
      </trkpt>
      <trkpt lat="36.187776" lon="-5.511994">
        <ele>2.83</ele>
        <time>2015-06-20T11:18:21Z</time>
      </trkpt>
      <trkpt lat="36.185131" lon="-5.515067">
        <ele>3.85</ele>
        <time>2015-06-20T11:20:40Z</time>
      </trkpt>
      <trkpt lat="36.183404" lon="-5.517535">
        <ele>5.49</ele>
        <time>2015-06-20T11:22:22Z</time>
      </trkpt>
      <trkpt lat="36.182612" lon="-5.518774">
        <ele>11.66</ele>
        <time>2015-06-20T11:23:11Z</time>
      </trkpt>
      <trkpt lat="36.182665" lon="-5.519733">
        <ele>10.02</ele>
        <time>2015-06-20T11:23:41Z</time>
      </trkpt>
      <trkpt lat="36.183677" lon="-5.521568">
        <ele>10.61</ele>
        <time>2015-06-20T11:24:50Z</time>
      </trkpt>
      <trkpt lat="36.184900" lon="-5.522829">
        <ele>10.94</ele>
        <time>2015-06-20T11:25:52Z</time>
      </trkpt>
      <trkpt lat="36.186110" lon="-5.523402">
        <ele>7.56</ele>
        <time>2015-06-20T11:26:41Z</time>
      </trkpt>
      <trkpt lat="36.187656" lon="-5.524108">
        <ele>10.98</ele>
        <time>2015-06-20T11:27:45Z</time>
      </trkpt>
      <trkpt lat="36.189459" lon="-5.525083">
        <ele>9.56</ele>
        <time>2015-06-20T11:29:01Z</time>
      </trkpt>
      <trkpt lat="36.190079" lon="-5.525580">
        <ele>11.13</ele>
        <time>2015-06-20T11:29:29Z</time>
      </trkpt>
      <trkpt lat="36.194526" lon="-5.523854">
        <ele>8.09</ele>
        <time>2015-06-20T11:32:29Z</time>
      </trkpt>
      <trkpt lat="36.195032" lon="-5.523490">
        <ele>11.53</ele>
        <time>2015-06-20T11:32:52Z</time>
      </trkpt>
      <trkpt lat="36.195409" lon="-5.522395">
        <ele>12.00</ele>
        <time>2015-06-20T11:33:29Z</time>
      </trkpt>
      <trkpt lat="36.196635" lon="-5.521731">
        <ele>14.95</ele>
        <time>2015-06-20T11:34:20Z</time>
      </trkpt>
      <trkpt lat="36.198494" lon="-5.521564">
        <ele>10.90</ele>
        <time>2015-06-20T11:35:32Z</time>
      </trkpt>
      <trkpt lat="36.199572" lon="-5.521764">
        <ele>12.01</ele>
        <time>2015-06-20T11:36:14Z</time>
      </trkpt>
      <trkpt lat="36.200219" lon="-5.522793">
        <ele>13.11</ele>
        <time>2015-06-20T11:36:55Z</time>
      </trkpt>
      <trkpt lat="36.201621" lon="-5.522594">
        <ele>17.13</ele>
        <time>2015-06-20T11:37:49Z</time>
      </trkpt>
      <trkpt lat="36.202632" lon="-5.522858">
        <ele>19.36</ele>
        <time>2015-06-20T11:38:29Z</time>
      </trkpt>
      <trkpt lat="36.203494" lon="-5.524121">
        <ele>16.32</ele>
        <time>2015-06-20T11:39:20Z</time>
      </trkpt>
      <trkpt lat="36.204113" lon="-5.524253">
        <ele>17.08</ele>
        <time>2015-06-20T11:39:44Z</time>
      </trkpt>
      <trkpt lat="36.207454" lon="-5.520854">
        <ele>7.92</ele>
        <time>2015-06-20T11:42:31Z</time>
      </trkpt>
      <trkpt lat="36.208039" lon="-5.519922">
        <ele>13.22</ele>
        <time>2015-06-20T11:43:08Z</time>
      </trkpt>
      <trkpt lat="36.206467" lon="-5.518572">
        <ele>11.62</ele>
        <time>2015-06-20T11:44:22Z</time>
      </trkpt>
      <trkpt lat="36.205658" lon="-5.516664">
        <ele>13.02</ele>
        <time>2015-06-20T11:45:29Z</time>
      </trkpt>
      <trkpt lat="36.204364" lon="-5.516763">
        <ele>14.65</ele>
        <time>2015-06-20T11:46:18Z</time>
      </trkpt>
      <trkpt lat="36.203744" lon="-5.517159">
        <ele>11.63</ele>
        <time>2015-06-20T11:46:45Z</time>
      </trkpt>
      <trkpt lat="36.201967" lon="-5.516401">
        <ele>13.82</ele>
        <time>2015-06-20T11:47:58Z</time>
      </trkpt>
      <trkpt lat="36.200943" lon="-5.515019">
        <ele>22.41</ele>
        <time>2015-06-20T11:48:56Z</time>
      </trkpt>
      <trkpt lat="36.200444" lon="-5.514587">
        <ele>21.05</ele>
        <time>2015-06-20T11:49:19Z</time>
      </trkpt>
      <trkpt lat="36.198504" lon="-5.512332">
        <ele>28.35</ele>
        <time>2015-06-20T11:51:02Z</time>
      </trkpt>
      <trkpt lat="36.198153" lon="-5.511197">
        <ele>27.64</ele>
        <time>2015-06-20T11:51:40Z</time>
      </trkpt>
      <trkpt lat="36.198408" lon="-5.509784">
        <ele>31.95</ele>
        <time>2015-06-20T11:52:25Z</time>
      </trkpt>
      <trkpt lat="36.197843" lon="-5.509042">
        <ele>31.71</ele>
        <time>2015-06-20T11:52:56Z</time>
      </trkpt>
      <trkpt lat="36.196833" lon="-5.509273">
        <ele>35.33</ele>
        <time>2015-06-20T11:53:36Z</time>
      </trkpt>
      <trkpt lat="36.196132" lon="-5.508927">
        <ele>43.53</ele>
        <time>2015-06-20T11:54:05Z</time>
      </trkpt>
      <trkpt lat="36.197035" lon="-5.508664">
        <ele>42.58</ele>
        <time>2015-06-20T11:54:41Z</time>
      </trkpt>
      <trkpt lat="36.197911" lon="-5.507909">
        <ele>45.16</ele>
        <time>2015-06-20T11:55:22Z</time>
      </trkpt>
      <trkpt lat="36.199230" lon="-5.508188">
        <ele>48.96</ele>
        <time>2015-06-20T11:56:14Z</time>
      </trkpt>
      <trkpt lat="36.200201" lon="-5.507695">
        <ele>53.01</ele>
        <time>2015-06-20T11:56:54Z</time>
      </trkpt>
      <trkpt lat="36.200660" lon="-5.508467">
        <ele>52.31</ele>
        <time>2015-06-20T11:57:24Z</time>
      </trkpt>
      <trkpt lat="36.202007" lon="-5.508220">
        <ele>52.27</ele>
        <time>2015-06-20T11:58:16Z</time>
      </trkpt>
      <trkpt lat="36.202573" lon="-5.507251">
        <ele>54.83</ele>
        <time>2015-06-20T11:58:54Z</time>
      </trkpt>
      <trkpt lat="36.203072" lon="-5.506608">
        <ele>58.23</ele>
        <time>2015-06-20T11:59:21Z</time>
      </trkpt>
      <trkpt lat="36.203340" lon="-5.506000">
        <ele>58.23</ele>
        <time>2015-06-20T11:59:43Z</time>
      </trkpt>
      <trkpt lat="36.204189" lon="-5.505770">
        <ele>54.05</ele>
        <time>2015-06-20T12:00:16Z</time>
      </trkpt>
      <trkpt lat="36.204432" lon="-5.504683">
        <ele>56.25</ele>
        <time>2015-06-20T12:00:51Z</time>
      </trkpt>
      <trkpt lat="36.203495" lon="-5.502665">
        <ele>68.52</ele>
        <time>2015-06-20T12:02:04Z</time>
      </trkpt>
      <trkpt lat="36.203608" lon="-5.502276">
        <ele>68.88</ele>
        <time>2015-06-20T12:02:17Z</time>
      </trkpt>
      <trkpt lat="36.203969" lon="-5.502262">
        <ele>68.59</ele>
        <time>2015-06-20T12:02:31Z</time>
      </trkpt>
      <trkpt lat="36.204216" lon="-5.501962">
        <ele>68.22</ele>
        <time>2015-06-20T12:02:44Z</time>
      </trkpt>
      <trkpt lat="36.204528" lon="-5.501338">
        <ele>69.13</ele>
        <time>2015-06-20T12:03:07Z</time>
      </trkpt>
      <trkpt lat="36.204589" lon="-5.500693">
        <ele>69.91</ele>
        <time>2015-06-20T12:03:27Z</time>
      </trkpt>
      <trkpt lat="36.204352" lon="-5.500103">
        <ele>72.73</ele>
        <time>2015-06-20T12:03:48Z</time>
      </trkpt>
      <trkpt lat="36.204311" lon="-5.499670">
        <ele>73.28</ele>
        <time>2015-06-20T12:04:01Z</time>
      </trkpt>
      <trkpt lat="36.204317" lon="-5.499176">
        <ele>74.90</ele>
        <time>2015-06-20T12:04:16Z</time>
      </trkpt>
      <trkpt lat="36.203963" lon="-5.498319">
        <ele>78.57</ele>
        <time>2015-06-20T12:04:46Z</time>
      </trkpt>
      <trkpt lat="36.204057" lon="-5.497920">
        <ele>80.87</ele>
        <time>2015-06-20T12:04:59Z</time>
      </trkpt>
      <trkpt lat="36.204284" lon="-5.497673">
        <ele>83.20</ele>
        <time>2015-06-20T12:05:11Z</time>
      </trkpt>
      <trkpt lat="36.204440" lon="-5.497396">
        <ele>83.81</ele>
        <time>2015-06-20T12:05:21Z</time>
      </trkpt>
      <trkpt lat="36.204483" lon="-5.496264">
        <ele>95.86</ele>
        <time>2015-06-20T12:05:57Z</time>
      </trkpt>
      <trkpt lat="36.204918" lon="-5.495844">
        <ele>96.44</ele>
        <time>2015-06-20T12:06:18Z</time>
      </trkpt>
      <trkpt lat="36.205048" lon="-5.495503">
        <ele>98.92</ele>
        <time>2015-06-20T12:06:30Z</time>
      </trkpt>
      <trkpt lat="36.205107" lon="-5.494694">
        <ele>104.02</ele>
        <time>2015-06-20T12:06:55Z</time>
      </trkpt>
      <trkpt lat="36.205048" lon="-5.493822">
        <ele>111.51</ele>
        <time>2015-06-20T12:07:22Z</time>
      </trkpt>
      <trkpt lat="36.205090" lon="-5.493509">
        <ele>112.13</ele>
        <time>2015-06-20T12:07:32Z</time>
      </trkpt>
      <trkpt lat="36.205182" lon="-5.493184">
        <ele>113.34</ele>
        <time>2015-06-20T12:07:43Z</time>
      </trkpt>
      <trkpt lat="36.205108" lon="-5.492545">
        <ele>119.67</ele>
        <time>2015-06-20T12:08:03Z</time>
      </trkpt>
      <trkpt lat="36.205401" lon="-5.491521">
        <ele>123.03</ele>
        <time>2015-06-20T12:08:37Z</time>
      </trkpt>
      <trkpt lat="36.205559" lon="-5.491042">
        <ele>128.01</ele>
        <time>2015-06-20T12:08:53Z</time>
      </trkpt>
      <trkpt lat="36.205720" lon="-5.490640">
        <ele>132.79</ele>
        <time>2015-06-20T12:09:06Z</time>
      </trkpt>
      <trkpt lat="36.206038" lon="-5.490497">
        <ele>134.37</ele>
        <time>2015-06-20T12:09:20Z</time>
      </trkpt>
      <trkpt lat="36.206469" lon="-5.490830">
        <ele>130.75</ele>
        <time>2015-06-20T12:09:39Z</time>
      </trkpt>
      <trkpt lat="36.206944" lon="-5.491003">
        <ele>128.85</ele>
        <time>2015-06-20T12:09:58Z</time>
      </trkpt>
      <trkpt lat="36.207217" lon="-5.490824">
        <ele>129.05</ele>
        <time>2015-06-20T12:10:10Z</time>
      </trkpt>
      <trkpt lat="36.207103" lon="-5.490384">
        <ele>129.31</ele>
        <time>2015-06-20T12:10:25Z</time>
      </trkpt>
      <trkpt lat="36.206721" lon="-5.489491">
        <ele>128.41</ele>
        <time>2015-06-20T12:10:56Z</time>
      </trkpt>
      <trkpt lat="36.206398" lon="-5.488920">
        <ele>125.34</ele>
        <time>2015-06-20T12:11:18Z</time>
      </trkpt>
      <trkpt lat="36.206297" lon="-5.488815">
        <ele>126.02</ele>
        <time>2015-06-20T12:11:23Z</time>
      </trkpt>
      <trkpt lat="36.206101" lon="-5.488524">
        <ele>126.58</ele>
        <time>2015-06-20T12:11:35Z</time>
      </trkpt>
      <trkpt lat="36.206002" lon="-5.487733">
        <ele>123.46</ele>
        <time>2015-06-20T12:11:59Z</time>
      </trkpt>
      <trkpt lat="36.205433" lon="-5.487005">
        <ele>124.06</ele>
        <time>2015-06-20T12:12:31Z</time>
      </trkpt>
      <trkpt lat="36.205353" lon="-5.486780">
        <ele>123.30</ele>
        <time>2015-06-20T12:12:39Z</time>
      </trkpt>
      <trkpt lat="36.205361" lon="-5.485994">
        <ele>121.23</ele>
        <time>2015-06-20T12:13:03Z</time>
      </trkpt>
      <trkpt lat="36.205312" lon="-5.485720">
        <ele>120.79</ele>
        <time>2015-06-20T12:13:11Z</time>
      </trkpt>
      <trkpt lat="36.205024" lon="-5.485053">
        <ele>120.86</ele>
        <time>2015-06-20T12:13:35Z</time>
      </trkpt>
      <trkpt lat="36.204947" lon="-5.484831">
        <ele>121.88</ele>
        <time>2015-06-20T12:13:43Z</time>
      </trkpt>
      <trkpt lat="36.205019" lon="-5.484343">
        <ele>120.81</ele>
        <time>2015-06-20T12:13:58Z</time>
      </trkpt>
      <trkpt lat="36.205360" lon="-5.483867">
        <ele>118.51</ele>
        <time>2015-06-20T12:14:18Z</time>
      </trkpt>
      <trkpt lat="36.205796" lon="-5.483633">
        <ele>111.53</ele>
        <time>2015-06-20T12:14:36Z</time>
      </trkpt>
      <trkpt lat="36.206155" lon="-5.483397">
        <ele>103.39</ele>
        <time>2015-06-20T12:14:52Z</time>
      </trkpt>
      <trkpt lat="36.206300" lon="-5.482889">
        <ele>101.44</ele>
        <time>2015-06-20T12:15:08Z</time>
      </trkpt>
      <trkpt lat="36.206653" lon="-5.481894">
        <ele>97.92</ele>
        <time>2015-06-20T12:15:42Z</time>
      </trkpt>
      <trkpt lat="36.206504" lon="-5.481309">
        <ele>93.93</ele>
        <time>2015-06-20T12:16:01Z</time>
      </trkpt>
      <trkpt lat="36.206246" lon="-5.481207">
        <ele>97.20</ele>
        <time>2015-06-20T12:16:12Z</time>
      </trkpt>
      <trkpt lat="36.204608" lon="-5.481315">
        <ele>128.46</ele>
        <time>2015-06-20T12:16:38Z</time>
      </trkpt>
      <trkpt lat="36.204608" lon="-5.480939">
        <ele>125.64</ele>
        <time>2015-06-20T12:17:21Z</time>
      </trkpt>
      <trkpt lat="36.205106" lon="-5.479282">
        <ele>100.58</ele>
        <time>2015-06-20T12:17:27Z</time>
      </trkpt>
      <trkpt lat="36.204827" lon="-5.478846">
        <ele>105.46</ele>
        <time>2015-06-20T12:17:44Z</time>
      </trkpt>
      <trkpt lat="36.204820" lon="-5.478632">
        <ele>106.82</ele>
        <time>2015-06-20T12:17:51Z</time>
      </trkpt>
      <trkpt lat="36.205108" lon="-5.478252">
        <ele>104.81</ele>
        <time>2015-06-20T12:18:07Z</time>
      </trkpt>
      <trkpt lat="36.205594" lon="-5.478171">
        <ele>96.42</ele>
        <time>2015-06-20T12:18:26Z</time>
      </trkpt>
      <trkpt lat="36.205806" lon="-5.478030">
        <ele>90.47</ele>
        <time>2015-06-20T12:18:35Z</time>
      </trkpt>
      <trkpt lat="36.205954" lon="-5.477581">
        <ele>89.44</ele>
        <time>2015-06-20T12:18:50Z</time>
      </trkpt>
      <trkpt lat="36.206002" lon="-5.477268">
        <ele>89.43</ele>
        <time>2015-06-20T12:19:00Z</time>
      </trkpt>
      <trkpt lat="36.206072" lon="-5.477068">
        <ele>87.15</ele>
        <time>2015-06-20T12:19:07Z</time>
      </trkpt>
      <trkpt lat="36.206198" lon="-5.476593">
        <ele>81.07</ele>
        <time>2015-06-20T12:19:23Z</time>
      </trkpt>
      <trkpt lat="36.205948" lon="-5.476179">
        <ele>81.17</ele>
        <time>2015-06-20T12:19:39Z</time>
      </trkpt>
      <trkpt lat="36.205551" lon="-5.476055">
        <ele>83.33</ele>
        <time>2015-06-20T12:19:54Z</time>
      </trkpt>
      <trkpt lat="36.205359" lon="-5.475689">
        <ele>82.39</ele>
        <time>2015-06-20T12:20:08Z</time>
      </trkpt>
      <trkpt lat="36.205579" lon="-5.475485">
        <ele>78.72</ele>
        <time>2015-06-20T12:20:19Z</time>
      </trkpt>
      <trkpt lat="36.205951" lon="-5.475201">
        <ele>72.23</ele>
        <time>2015-06-20T12:20:36Z</time>
      </trkpt>
      <trkpt lat="36.205882" lon="-5.474972">
        <ele>70.41</ele>
        <time>2015-06-20T12:20:43Z</time>
      </trkpt>
      <trkpt lat="36.205509" lon="-5.474473">
        <ele>68.67</ele>
        <time>2015-06-20T12:21:04Z</time>
      </trkpt>
      <trkpt lat="36.205436" lon="-5.474321">
        <ele>67.89</ele>
        <time>2015-06-20T12:21:10Z</time>
      </trkpt>
      <trkpt lat="36.205336" lon="-5.473783">
        <ele>63.75</ele>
        <time>2015-06-20T12:21:27Z</time>
      </trkpt>
      <trkpt lat="36.205238" lon="-5.473127">
        <ele>61.32</ele>
        <time>2015-06-20T12:21:48Z</time>
      </trkpt>
      <trkpt lat="36.205153" lon="-5.472617">
        <ele>56.28</ele>
        <time>2015-06-20T12:22:04Z</time>
      </trkpt>
      <trkpt lat="36.204714" lon="-5.471655">
        <ele>54.10</ele>
        <time>2015-06-20T12:22:38Z</time>
      </trkpt>
      <trkpt lat="36.204600" lon="-5.470728">
        <ele>45.77</ele>
        <time>2015-06-20T12:23:07Z</time>
      </trkpt>
      <trkpt lat="36.204449" lon="-5.470443">
        <ele>44.57</ele>
        <time>2015-06-20T12:23:18Z</time>
      </trkpt>
      <trkpt lat="36.204310" lon="-5.470434">
        <ele>44.08</ele>
        <time>2015-06-20T12:23:23Z</time>
      </trkpt>
      <trkpt lat="36.203969" lon="-5.470826">
        <ele>44.16</ele>
        <time>2015-06-20T12:23:41Z</time>
      </trkpt>
      <trkpt lat="36.203900" lon="-5.470887">
        <ele>43.72</ele>
        <time>2015-06-20T12:23:44Z</time>
      </trkpt>
      <trkpt lat="36.203597" lon="-5.471080">
        <ele>41.71</ele>
        <time>2015-06-20T12:23:57Z</time>
      </trkpt>
      <trkpt lat="36.203428" lon="-5.471132">
        <ele>42.25</ele>
        <time>2015-06-20T12:24:04Z</time>
      </trkpt>
      <trkpt lat="36.203092" lon="-5.470886">
        <ele>42.20</ele>
        <time>2015-06-20T12:24:19Z</time>
      </trkpt>
      <trkpt lat="36.203196" lon="-5.470450">
        <ele>38.55</ele>
        <time>2015-06-20T12:24:33Z</time>
      </trkpt>
      <trkpt lat="36.203583" lon="-5.469961">
        <ele>34.96</ele>
        <time>2015-06-20T12:24:55Z</time>
      </trkpt>
      <trkpt lat="36.203834" lon="-5.469075">
        <ele>31.90</ele>
        <time>2015-06-20T12:25:24Z</time>
      </trkpt>
      <trkpt lat="36.203859" lon="-5.467663">
        <ele>26.28</ele>
        <time>2015-06-20T12:26:08Z</time>
      </trkpt>
      <trkpt lat="36.203928" lon="-5.465850">
        <ele>21.77</ele>
        <time>2015-06-20T12:27:04Z</time>
      </trkpt>
      <trkpt lat="36.204146" lon="-5.465336">
        <ele>19.32</ele>
        <time>2015-06-20T12:27:22Z</time>
      </trkpt>
      <trkpt lat="36.204699" lon="-5.464731">
        <ele>20.91</ele>
        <time>2015-06-20T12:27:51Z</time>
      </trkpt>
      <trkpt lat="36.205168" lon="-5.464245">
        <ele>21.34</ele>
        <time>2015-06-20T12:28:14Z</time>
      </trkpt>
      <trkpt lat="36.205710" lon="-5.463851">
        <ele>23.21</ele>
        <time>2015-06-20T12:28:38Z</time>
      </trkpt>
      <trkpt lat="36.205868" lon="-5.463827">
        <ele>24.51</ele>
        <time>2015-06-20T12:28:45Z</time>
      </trkpt>
      <trkpt lat="36.206511" lon="-5.463446">
        <ele>28.94</ele>
        <time>2015-06-20T12:29:12Z</time>
      </trkpt>
      <trkpt lat="36.206687" lon="-5.463161">
        <ele>31.50</ele>
        <time>2015-06-20T12:29:23Z</time>
      </trkpt>
      <trkpt lat="36.206817" lon="-5.462803">
        <ele>36.56</ele>
        <time>2015-06-20T12:29:35Z</time>
      </trkpt>
      <trkpt lat="36.206989" lon="-5.462153">
        <ele>41.40</ele>
        <time>2015-06-20T12:29:57Z</time>
      </trkpt>
      <trkpt lat="36.207248" lon="-5.461446">
        <ele>45.49</ele>
        <time>2015-06-20T12:30:21Z</time>
      </trkpt>
      <trkpt lat="36.207455" lon="-5.461171">
        <ele>47.09</ele>
        <time>2015-06-20T12:30:32Z</time>
      </trkpt>
      <trkpt lat="36.207723" lon="-5.461232">
        <ele>48.52</ele>
        <time>2015-06-20T12:30:43Z</time>
      </trkpt>
      <trkpt lat="36.207849" lon="-5.461550">
        <ele>50.47</ele>
        <time>2015-06-20T12:30:54Z</time>
      </trkpt>
      <trkpt lat="36.207828" lon="-5.462011">
        <ele>50.76</ele>
        <time>2015-06-20T12:31:08Z</time>
      </trkpt>
      <trkpt lat="36.207936" lon="-5.462370">
        <ele>51.61</ele>
        <time>2015-06-20T12:31:20Z</time>
      </trkpt>
      <trkpt lat="36.208197" lon="-5.462568">
        <ele>54.72</ele>
        <time>2015-06-20T12:31:32Z</time>
      </trkpt>
      <trkpt lat="36.208482" lon="-5.462689">
        <ele>56.31</ele>
        <time>2015-06-20T12:31:44Z</time>
      </trkpt>
      <trkpt lat="36.208752" lon="-5.462569">
        <ele>58.53</ele>
        <time>2015-06-20T12:31:55Z</time>
      </trkpt>
      <trkpt lat="36.209673" lon="-5.461897">
        <ele>70.03</ele>
        <time>2015-06-20T12:32:36Z</time>
      </trkpt>
      <trkpt lat="36.209799" lon="-5.461697">
        <ele>74.19</ele>
        <time>2015-06-20T12:32:44Z</time>
      </trkpt>
      <trkpt lat="36.209561" lon="-5.461679">
        <ele>74.23</ele>
        <time>2015-06-20T12:32:53Z</time>
      </trkpt>
      <trkpt lat="36.209048" lon="-5.461795">
        <ele>72.97</ele>
        <time>2015-06-20T12:33:13Z</time>
      </trkpt>
      <trkpt lat="36.208835" lon="-5.461618">
        <ele>74.22</ele>
        <time>2015-06-20T12:33:23Z</time>
      </trkpt>
      <trkpt lat="36.208985" lon="-5.461387">
        <ele>77.42</ele>
        <time>2015-06-20T12:33:32Z</time>
      </trkpt>
      <trkpt lat="36.209517" lon="-5.461230">
        <ele>84.11</ele>
        <time>2015-06-20T12:33:53Z</time>
      </trkpt>
      <trkpt lat="36.209750" lon="-5.461051">
        <ele>88.28</ele>
        <time>2015-06-20T12:34:04Z</time>
      </trkpt>
      <trkpt lat="36.210069" lon="-5.460993">
        <ele>87.94</ele>
        <time>2015-06-20T12:34:16Z</time>
      </trkpt>
      <trkpt lat="36.210283" lon="-5.460860">
        <ele>89.52</ele>
        <time>2015-06-20T12:34:26Z</time>
      </trkpt>
      <trkpt lat="36.210385" lon="-5.460567">
        <ele>93.01</ele>
        <time>2015-06-20T12:34:35Z</time>
      </trkpt>
      <trkpt lat="36.210352" lon="-5.460285">
        <ele>97.66</ele>
        <time>2015-06-20T12:34:44Z</time>
      </trkpt>
      <trkpt lat="36.210314" lon="-5.459962">
        <ele>102.33</ele>
        <time>2015-06-20T12:34:54Z</time>
      </trkpt>
      <trkpt lat="36.210407" lon="-5.459643">
        <ele>105.92</ele>
        <time>2015-06-20T12:35:05Z</time>
      </trkpt>
      <trkpt lat="36.210611" lon="-5.459456">
        <ele>107.52</ele>
        <time>2015-06-20T12:35:15Z</time>
      </trkpt>
      <trkpt lat="36.210368" lon="-5.459161">
        <ele>110.50</ele>
        <time>2015-06-20T12:35:28Z</time>
      </trkpt>
      <trkpt lat="36.210326" lon="-5.458756">
        <ele>111.70</ele>
        <time>2015-06-20T12:35:40Z</time>
      </trkpt>
      <trkpt lat="36.210478" lon="-5.458172">
        <ele>110.47</ele>
        <time>2015-06-20T12:35:59Z</time>
      </trkpt>
      <trkpt lat="36.210737" lon="-5.457508">
        <ele>113.09</ele>
        <time>2015-06-20T12:36:23Z</time>
      </trkpt>
      <trkpt lat="36.211004" lon="-5.457484">
        <ele>111.03</ele>
        <time>2015-06-20T12:36:33Z</time>
      </trkpt>
      <trkpt lat="36.211472" lon="-5.457564">
        <ele>104.69</ele>
        <time>2015-06-20T12:36:51Z</time>
      </trkpt>
      <trkpt lat="36.212023" lon="-5.457553">
        <ele>97.71</ele>
        <time>2015-06-20T12:37:13Z</time>
      </trkpt>
      <trkpt lat="36.212295" lon="-5.457408">
        <ele>94.31</ele>
        <time>2015-06-20T12:37:24Z</time>
      </trkpt>
      <trkpt lat="36.212502" lon="-5.457162">
        <ele>89.58</ele>
        <time>2015-06-20T12:37:35Z</time>
      </trkpt>
      <trkpt lat="36.212711" lon="-5.457018">
        <ele>87.78</ele>
        <time>2015-06-20T12:37:44Z</time>
      </trkpt>
      <trkpt lat="36.212846" lon="-5.456988">
        <ele>88.79</ele>
        <time>2015-06-20T12:37:50Z</time>
      </trkpt>
      <trkpt lat="36.213040" lon="-5.456751">
        <ele>88.09</ele>
        <time>2015-06-20T12:38:00Z</time>
      </trkpt>
      <trkpt lat="36.213042" lon="-5.456191">
        <ele>77.51</ele>
        <time>2015-06-20T12:38:17Z</time>
      </trkpt>
      <trkpt lat="36.213161" lon="-5.455409">
        <ele>73.86</ele>
        <time>2015-06-20T12:38:42Z</time>
      </trkpt>
      <trkpt lat="36.213167" lon="-5.454178">
        <ele>62.98</ele>
        <time>2015-06-20T12:39:20Z</time>
      </trkpt>
      <trkpt lat="36.213001" lon="-5.452163">
        <ele>48.49</ele>
        <time>2015-06-20T12:40:23Z</time>
      </trkpt>
      <trkpt lat="36.213018" lon="-5.451767">
        <ele>45.98</ele>
        <time>2015-06-20T12:40:35Z</time>
      </trkpt>
      <trkpt lat="36.213058" lon="-5.451211">
        <ele>37.54</ele>
        <time>2015-06-20T12:40:53Z</time>
      </trkpt>
      <trkpt lat="36.213074" lon="-5.450960">
        <ele>35.62</ele>
        <time>2015-06-20T12:41:01Z</time>
      </trkpt>
      <trkpt lat="36.213029" lon="-5.450592">
        <ele>34.21</ele>
        <time>2015-06-20T12:41:12Z</time>
      </trkpt>
      <trkpt lat="36.212980" lon="-5.450494">
        <ele>33.98</ele>
        <time>2015-06-20T12:41:16Z</time>
      </trkpt>
      <trkpt lat="36.212500" lon="-5.449849">
        <ele>32.99</ele>
        <time>2015-06-20T12:41:43Z</time>
      </trkpt>
      <trkpt lat="36.212080" lon="-5.449542">
        <ele>31.79</ele>
        <time>2015-06-20T12:42:02Z</time>
      </trkpt>
      <trkpt lat="36.212129" lon="-5.449231">
        <ele>29.79</ele>
        <time>2015-06-20T12:42:12Z</time>
      </trkpt>
      <trkpt lat="36.215346" lon="-5.446316">
        <ele>14.77</ele>
        <time>2015-06-20T12:44:45Z</time>
      </trkpt>
      <trkpt lat="36.216271" lon="-5.445108">
        <ele>9.69</ele>
        <time>2015-06-20T12:45:37Z</time>
      </trkpt>
      <trkpt lat="36.219087" lon="-5.440131">
        <ele>4.05</ele>
        <time>2015-06-20T12:48:46Z</time>
      </trkpt>
      <trkpt lat="36.223882" lon="-5.440328">
        <ele>7.30</ele>
        <time>2015-06-20T12:51:51Z</time>
      </trkpt>
      <trkpt lat="36.224040" lon="-5.440292">
        <ele>6.54</ele>
        <time>2015-06-20T12:51:57Z</time>
      </trkpt>
      <trkpt lat="36.223986" lon="-5.440225">
        <ele>6.56</ele>
        <time>2015-06-20T12:52:00Z</time>
      </trkpt>
      <trkpt lat="36.223983" lon="-5.440146">
        <ele>6.21</ele>
        <time>2015-06-20T12:52:02Z</time>
      </trkpt>
      <trkpt lat="36.223947" lon="-5.439733">
        <ele>5.61</ele>
        <time>2015-06-20T12:52:15Z</time>
      </trkpt>
      <trkpt lat="36.224049" lon="-5.439003">
        <ele>6.49</ele>
        <time>2015-06-20T12:52:38Z</time>
      </trkpt>
      <trkpt lat="36.224472" lon="-5.437465">
        <ele>6.17</ele>
        <time>2015-06-20T12:53:29Z</time>
      </trkpt>
      <trkpt lat="36.224624" lon="-5.437069">
        <ele>6.63</ele>
        <time>2015-06-20T12:53:43Z</time>
      </trkpt>
      <trkpt lat="36.224765" lon="-5.437096">
        <ele>7.03</ele>
        <time>2015-06-20T12:53:48Z</time>
      </trkpt>
      <trkpt lat="36.224851" lon="-5.437056">
        <ele>7.04</ele>
        <time>2015-06-20T12:53:52Z</time>
      </trkpt>
      <trkpt lat="36.224965" lon="-5.437134">
        <ele>7.05</ele>
        <time>2015-06-20T12:53:57Z</time>
      </trkpt>
      <trkpt lat="36.225440" lon="-5.437290">
        <ele>6.05</ele>
        <time>2015-06-20T12:54:16Z</time>
      </trkpt>
      <trkpt lat="36.226243" lon="-5.437416">
        <ele>6.05</ele>
        <time>2015-06-20T12:54:47Z</time>
      </trkpt>
      <trkpt lat="36.227363" lon="-5.436431">
        <ele>3.92</ele>
        <time>2015-06-20T12:55:40Z</time>
      </trkpt>
      <trkpt lat="36.228589" lon="-5.437288">
        <ele>4.10</ele>
        <time>2015-06-20T12:56:34Z</time>
      </trkpt>
      <trkpt lat="36.230837" lon="-5.437277">
        <ele>6.42</ele>
        <time>2015-06-20T12:58:01Z</time>
      </trkpt>
      <trkpt lat="36.231265" lon="-5.437349">
        <ele>9.61</ele>
        <time>2015-06-20T12:58:17Z</time>
      </trkpt>
      <trkpt lat="36.231653" lon="-5.437318">
        <ele>11.04</ele>
        <time>2015-06-20T12:58:32Z</time>
      </trkpt>
      <trkpt lat="36.232347" lon="-5.437159">
        <ele>13.75</ele>
        <time>2015-06-20T12:59:00Z</time>
      </trkpt>
      <trkpt lat="36.232951" lon="-5.436959">
        <ele>9.56</ele>
        <time>2015-06-20T12:59:23Z</time>
      </trkpt>
      <trkpt lat="36.233876" lon="-5.436669">
        <ele>9.06</ele>
        <time>2015-06-20T13:00:01Z</time>
      </trkpt>
      <trkpt lat="36.236897" lon="-5.435650">
        <ele>9.84</ele>
        <time>2015-06-20T13:02:01Z</time>
      </trkpt>
      <trkpt lat="36.237905" lon="-5.435388">
        <ele>10.63</ele>
        <time>2015-06-20T13:02:41Z</time>
      </trkpt>
      <trkpt lat="36.238666" lon="-5.435216">
        <ele>9.50</ele>
        <time>2015-06-20T13:03:11Z</time>
      </trkpt>
      <trkpt lat="36.239575" lon="-5.435090">
        <ele>8.22</ele>
        <time>2015-06-20T13:03:46Z</time>
      </trkpt>
      <trkpt lat="36.240371" lon="-5.434974">
        <ele>6.86</ele>
        <time>2015-06-20T13:04:17Z</time>
      </trkpt>
      <trkpt lat="36.240615" lon="-5.435046">
        <ele>6.06</ele>
        <time>2015-06-20T13:04:26Z</time>
      </trkpt>
      <trkpt lat="36.241229" lon="-5.435580">
        <ele>6.61</ele>
        <time>2015-06-20T13:04:55Z</time>
      </trkpt>
      <trkpt lat="36.241993" lon="-5.435979">
        <ele>8.41</ele>
        <time>2015-06-20T13:05:27Z</time>
      </trkpt>
      <trkpt lat="36.242659" lon="-5.436277">
        <ele>5.06</ele>
        <time>2015-06-20T13:05:55Z</time>
      </trkpt>
      <trkpt lat="36.243445" lon="-5.436702">
        <ele>6.23</ele>
        <time>2015-06-20T13:06:28Z</time>
      </trkpt>
      <trkpt lat="36.244883" lon="-5.437504">
        <ele>10.07</ele>
        <time>2015-06-20T13:07:28Z</time>
      </trkpt>
      <trkpt lat="36.246538" lon="-5.438006">
        <ele>7.39</ele>
        <time>2015-06-20T13:08:34Z</time>
      </trkpt>
      <trkpt lat="36.247481" lon="-5.438227">
        <ele>9.64</ele>
        <time>2015-06-20T13:09:11Z</time>
      </trkpt>
      <trkpt lat="36.248569" lon="-5.438384">
        <ele>8.45</ele>
        <time>2015-06-20T13:09:53Z</time>
      </trkpt>
      <trkpt lat="36.249596" lon="-5.438444">
        <ele>9.71</ele>
        <time>2015-06-20T13:10:33Z</time>
      </trkpt>
      <trkpt lat="36.250544" lon="-5.438452">
        <ele>9.54</ele>
        <time>2015-06-20T13:11:10Z</time>
      </trkpt>
      <trkpt lat="36.251566" lon="-5.438467">
        <ele>9.68</ele>
        <time>2015-06-20T13:11:49Z</time>
      </trkpt>
      <trkpt lat="36.252480" lon="-5.438474">
        <ele>9.03</ele>
        <time>2015-06-20T13:12:24Z</time>
      </trkpt>
      <trkpt lat="36.253324" lon="-5.438425">
        <ele>10.02</ele>
        <time>2015-06-20T13:12:57Z</time>
      </trkpt>
      <trkpt lat="36.254089" lon="-5.438221">
        <ele>11.01</ele>
        <time>2015-06-20T13:13:27Z</time>
      </trkpt>
      <trkpt lat="36.255603" lon="-5.437692">
        <ele>10.36</ele>
        <time>2015-06-20T13:14:28Z</time>
      </trkpt>
      <trkpt lat="36.257209" lon="-5.437115">
        <ele>11.65</ele>
        <time>2015-06-20T13:15:32Z</time>
      </trkpt>
      <trkpt lat="36.258134" lon="-5.436880">
        <ele>11.90</ele>
        <time>2015-06-20T13:16:08Z</time>
      </trkpt>
      <trkpt lat="36.260913" lon="-5.436403">
        <ele>13.20</ele>
        <time>2015-06-20T13:17:57Z</time>
      </trkpt>
      <trkpt lat="36.261691" lon="-5.436282">
        <ele>13.92</ele>
        <time>2015-06-20T13:18:27Z</time>
      </trkpt>
      <trkpt lat="36.263202" lon="-5.435751">
        <ele>12.60</ele>
        <time>2015-06-20T13:19:27Z</time>
      </trkpt>
      <trkpt lat="36.264042" lon="-5.435610">
        <ele>14.28</ele>
        <time>2015-06-20T13:20:00Z</time>
      </trkpt>
      <trkpt lat="36.264878" lon="-5.435387">
        <ele>13.70</ele>
        <time>2015-06-20T13:20:33Z</time>
      </trkpt>
      <trkpt lat="36.265564" lon="-5.434974">
        <ele>13.12</ele>
        <time>2015-06-20T13:21:02Z</time>
      </trkpt>
      <trkpt lat="36.266192" lon="-5.434455">
        <ele>15.06</ele>
        <time>2015-06-20T13:21:31Z</time>
      </trkpt>
      <trkpt lat="36.266890" lon="-5.433920">
        <ele>15.01</ele>
        <time>2015-06-20T13:22:03Z</time>
      </trkpt>
      <trkpt lat="36.267401" lon="-5.433688">
        <ele>14.31</ele>
        <time>2015-06-20T13:22:24Z</time>
      </trkpt>
      <trkpt lat="36.269550" lon="-5.432661">
        <ele>15.41</ele>
        <time>2015-06-20T13:23:53Z</time>
      </trkpt>
      <trkpt lat="36.270156" lon="-5.432393">
        <ele>15.70</ele>
        <time>2015-06-20T13:24:18Z</time>
      </trkpt>
      <trkpt lat="36.270885" lon="-5.432243">
        <ele>16.02</ele>
        <time>2015-06-20T13:24:46Z</time>
      </trkpt>
      <trkpt lat="36.271677" lon="-5.432084">
        <ele>16.66</ele>
        <time>2015-06-20T13:25:17Z</time>
      </trkpt>
      <trkpt lat="36.274451" lon="-5.430902">
        <ele>14.02</ele>
        <time>2015-06-20T13:27:10Z</time>
      </trkpt>
      <trkpt lat="36.275703" lon="-5.430417">
        <ele>15.59</ele>
        <time>2015-06-20T13:28:01Z</time>
      </trkpt>
      <trkpt lat="36.276765" lon="-5.430199">
        <ele>16.07</ele>
        <time>2015-06-20T13:28:42Z</time>
      </trkpt>
      <trkpt lat="36.277126" lon="-5.430262">
        <ele>15.36</ele>
        <time>2015-06-20T13:28:56Z</time>
      </trkpt>
      <trkpt lat="36.277208" lon="-5.430127">
        <ele>15.20</ele>
        <time>2015-06-20T13:29:01Z</time>
      </trkpt>
      <trkpt lat="36.277333" lon="-5.430098">
        <ele>14.52</ele>
        <time>2015-06-20T13:29:07Z</time>
      </trkpt>
      <trkpt lat="36.277428" lon="-5.430334">
        <ele>13.73</ele>
        <time>2015-06-20T13:29:15Z</time>
      </trkpt>
      <trkpt lat="36.277604" lon="-5.430571">
        <ele>14.01</ele>
        <time>2015-06-20T13:29:25Z</time>
      </trkpt>
      <trkpt lat="36.278153" lon="-5.430731">
        <ele>14.69</ele>
        <time>2015-06-20T13:29:46Z</time>
      </trkpt>
      <trkpt lat="36.278670" lon="-5.431410">
        <ele>14.82</ele>
        <time>2015-06-20T13:30:15Z</time>
      </trkpt>
      <trkpt lat="36.279112" lon="-5.432042">
        <ele>16.48</ele>
        <time>2015-06-20T13:30:42Z</time>
      </trkpt>
      <trkpt lat="36.280106" lon="-5.432597">
        <ele>17.29</ele>
        <time>2015-06-20T13:31:24Z</time>
      </trkpt>
      <trkpt lat="36.280444" lon="-5.432431">
        <ele>19.26</ele>
        <time>2015-06-20T13:31:38Z</time>
      </trkpt>
      <trkpt lat="36.280422" lon="-5.432638">
        <ele>18.89</ele>
        <time>2015-06-20T13:31:44Z</time>
      </trkpt>
      <trkpt lat="36.280869" lon="-5.432879">
        <ele>19.14</ele>
        <time>2015-06-20T13:32:03Z</time>
      </trkpt>
      <trkpt lat="36.281366" lon="-5.433416">
        <ele>22.55</ele>
        <time>2015-06-20T13:32:28Z</time>
      </trkpt>
      <trkpt lat="36.281686" lon="-5.433636">
        <ele>25.01</ele>
        <time>2015-06-20T13:32:43Z</time>
      </trkpt>
      <trkpt lat="36.282525" lon="-5.433889">
        <ele>30.24</ele>
        <time>2015-06-20T13:33:16Z</time>
      </trkpt>
      <trkpt lat="36.282980" lon="-5.433789">
        <ele>32.31</ele>
        <time>2015-06-20T13:33:34Z</time>
      </trkpt>
      <trkpt lat="36.283232" lon="-5.433863">
        <ele>32.11</ele>
        <time>2015-06-20T13:33:43Z</time>
      </trkpt>
      <trkpt lat="36.283598" lon="-5.434237">
        <ele>34.87</ele>
        <time>2015-06-20T13:34:02Z</time>
      </trkpt>
      <trkpt lat="36.283914" lon="-5.434407">
        <ele>39.12</ele>
        <time>2015-06-20T13:34:15Z</time>
      </trkpt>
      <trkpt lat="36.284465" lon="-5.434208">
        <ele>44.81</ele>
        <time>2015-06-20T13:34:37Z</time>
      </trkpt>
      <trkpt lat="36.284753" lon="-5.434272">
        <ele>48.42</ele>
        <time>2015-06-20T13:34:49Z</time>
      </trkpt>
      <trkpt lat="36.285284" lon="-5.434373">
        <ele>51.09</ele>
        <time>2015-06-20T13:35:09Z</time>
      </trkpt>
      <trkpt lat="36.285717" lon="-5.434452">
        <ele>53.25</ele>
        <time>2015-06-20T13:35:26Z</time>
      </trkpt>
      <trkpt lat="36.286573" lon="-5.434438">
        <ele>56.34</ele>
        <time>2015-06-20T13:35:59Z</time>
      </trkpt>
      <trkpt lat="36.287074" lon="-5.434555">
        <ele>56.63</ele>
        <time>2015-06-20T13:36:19Z</time>
      </trkpt>
      <trkpt lat="36.287742" lon="-5.434698">
        <ele>57.98</ele>
        <time>2015-06-20T13:36:45Z</time>
      </trkpt>
      <trkpt lat="36.288301" lon="-5.434782">
        <ele>57.26</ele>
        <time>2015-06-20T13:37:07Z</time>
      </trkpt>
      <trkpt lat="36.289807" lon="-5.434732">
        <ele>58.03</ele>
        <time>2015-06-20T13:38:05Z</time>
      </trkpt>
      <trkpt lat="36.290549" lon="-5.434730">
        <ele>60.01</ele>
        <time>2015-06-20T13:38:34Z</time>
      </trkpt>
      <trkpt lat="36.290875" lon="-5.434733">
        <ele>60.16</ele>
        <time>2015-06-20T13:38:46Z</time>
      </trkpt>
      <trkpt lat="36.291703" lon="-5.434632">
        <ele>63.82</ele>
        <time>2015-06-20T13:39:18Z</time>
      </trkpt>
      <trkpt lat="36.293027" lon="-5.434379">
        <ele>64.75</ele>
        <time>2015-06-20T13:40:10Z</time>
      </trkpt>
      <trkpt lat="36.293751" lon="-5.434384">
        <ele>67.13</ele>
        <time>2015-06-20T13:40:38Z</time>
      </trkpt>
      <trkpt lat="36.294739" lon="-5.434467">
        <ele>70.13</ele>
        <time>2015-06-20T13:41:16Z</time>
      </trkpt>
      <trkpt lat="36.294820" lon="-5.434494">
        <ele>70.54</ele>
        <time>2015-06-20T13:41:19Z</time>
      </trkpt>
      <trkpt lat="36.295621" lon="-5.434989">
        <ele>73.31</ele>
        <time>2015-06-20T13:41:54Z</time>
      </trkpt>
      <trkpt lat="36.296179" lon="-5.435497">
        <ele>72.99</ele>
        <time>2015-06-20T13:42:20Z</time>
      </trkpt>
      <trkpt lat="36.296867" lon="-5.435984">
        <ele>73.96</ele>
        <time>2015-06-20T13:42:51Z</time>
      </trkpt>
      <trkpt lat="36.297294" lon="-5.436464">
        <ele>75.14</ele>
        <time>2015-06-20T13:43:13Z</time>
      </trkpt>
      <trkpt lat="36.297783" lon="-5.436728">
        <ele>78.32</ele>
        <time>2015-06-20T13:43:34Z</time>
      </trkpt>
      <trkpt lat="36.298524" lon="-5.436782">
        <ele>82.61</ele>
        <time>2015-06-20T13:44:02Z</time>
      </trkpt>
      <trkpt lat="36.299230" lon="-5.437017">
        <ele>87.90</ele>
        <time>2015-06-20T13:44:30Z</time>
      </trkpt>
      <trkpt lat="36.299469" lon="-5.436958">
        <ele>87.35</ele>
        <time>2015-06-20T13:44:40Z</time>
      </trkpt>
      <trkpt lat="36.299636" lon="-5.437012">
        <ele>88.68</ele>
        <time>2015-06-20T13:44:46Z</time>
      </trkpt>
      <trkpt lat="36.300864" lon="-5.437379">
        <ele>84.87</ele>
        <time>2015-06-20T13:45:35Z</time>
      </trkpt>
      <trkpt lat="36.301054" lon="-5.437505">
        <ele>84.37</ele>
        <time>2015-06-20T13:45:43Z</time>
      </trkpt>
      <trkpt lat="36.301719" lon="-5.438264">
        <ele>83.92</ele>
        <time>2015-06-20T13:46:18Z</time>
      </trkpt>
      <trkpt lat="36.302230" lon="-5.439186">
        <ele>82.99</ele>
        <time>2015-06-20T13:46:53Z</time>
      </trkpt>
      <trkpt lat="36.303142" lon="-5.440342">
        <ele>77.06</ele>
        <time>2015-06-20T13:47:43Z</time>
      </trkpt>
      <trkpt lat="36.304274" lon="-5.441183">
        <ele>71.87</ele>
        <time>2015-06-20T13:48:34Z</time>
      </trkpt>
      <trkpt lat="36.304859" lon="-5.441575">
        <ele>69.89</ele>
        <time>2015-06-20T13:49:00Z</time>
      </trkpt>
      <trkpt lat="36.305156" lon="-5.441545">
        <ele>68.91</ele>
        <time>2015-06-20T13:49:11Z</time>
      </trkpt>
      <trkpt lat="36.305787" lon="-5.441386">
        <ele>70.81</ele>
        <time>2015-06-20T13:49:36Z</time>
      </trkpt>
      <trkpt lat="36.306452" lon="-5.441334">
        <ele>71.27</ele>
        <time>2015-06-20T13:50:02Z</time>
      </trkpt>
      <trkpt lat="36.306901" lon="-5.441464">
        <ele>71.83</ele>
        <time>2015-06-20T13:50:20Z</time>
      </trkpt>
      <trkpt lat="36.307485" lon="-5.441671">
        <ele>71.93</ele>
        <time>2015-06-20T13:50:43Z</time>
      </trkpt>
      <trkpt lat="36.307465" lon="-5.441661">
        <ele>71.94</ele>
        <time>2015-06-20T13:50:44Z</time>
      </trkpt>
      <trkpt lat="36.307796" lon="-5.442035">
        <ele>69.35</ele>
        <time>2015-06-20T13:51:01Z</time>
      </trkpt>
      <trkpt lat="36.307986" lon="-5.442333">
        <ele>65.77</ele>
        <time>2015-06-20T13:51:13Z</time>
      </trkpt>
      <trkpt lat="36.308233" lon="-5.442412">
        <ele>62.79</ele>
        <time>2015-06-20T13:51:23Z</time>
      </trkpt>
      <trkpt lat="36.309321" lon="-5.441994">
        <ele>56.89</ele>
        <time>2015-06-20T13:52:07Z</time>
      </trkpt>
      <trkpt lat="36.309383" lon="-5.441690">
        <ele>57.25</ele>
        <time>2015-06-20T13:52:17Z</time>
      </trkpt>
      <trkpt lat="36.309542" lon="-5.441296">
        <ele>57.63</ele>
        <time>2015-06-20T13:52:30Z</time>
      </trkpt>
      <trkpt lat="36.309731" lon="-5.441442">
        <ele>57.12</ele>
        <time>2015-06-20T13:52:39Z</time>
      </trkpt>
      <trkpt lat="36.309820" lon="-5.441693">
        <ele>57.71</ele>
        <time>2015-06-20T13:52:47Z</time>
      </trkpt>
      <trkpt lat="36.309887" lon="-5.442699">
        <ele>50.72</ele>
        <time>2015-06-20T13:53:19Z</time>
      </trkpt>
      <trkpt lat="36.310458" lon="-5.443390">
        <ele>52.33</ele>
        <time>2015-06-20T13:53:49Z</time>
      </trkpt>
      <trkpt lat="36.310888" lon="-5.443818">
        <ele>53.32</ele>
        <time>2015-06-20T13:54:11Z</time>
      </trkpt>
      <trkpt lat="36.311204" lon="-5.444023">
        <ele>55.71</ele>
        <time>2015-06-20T13:54:24Z</time>
      </trkpt>
      <trkpt lat="36.311241" lon="-5.444321">
        <ele>53.77</ele>
        <time>2015-06-20T13:54:34Z</time>
      </trkpt>
      <trkpt lat="36.311279" lon="-5.444882">
        <ele>53.70</ele>
        <time>2015-06-20T13:54:51Z</time>
      </trkpt>
      <trkpt lat="36.311220" lon="-5.445456">
        <ele>50.17</ele>
        <time>2015-06-20T13:55:09Z</time>
      </trkpt>
      <trkpt lat="36.311086" lon="-5.446836">
        <ele>43.34</ele>
        <time>2015-06-20T13:55:53Z</time>
      </trkpt>
      <trkpt lat="36.311197" lon="-5.447139">
        <ele>41.94</ele>
        <time>2015-06-20T13:56:03Z</time>
      </trkpt>
      <trkpt lat="36.311370" lon="-5.447338">
        <ele>41.58</ele>
        <time>2015-06-20T13:56:12Z</time>
      </trkpt>
      <trkpt lat="36.311357" lon="-5.447956">
        <ele>40.11</ele>
        <time>2015-06-20T13:56:31Z</time>
      </trkpt>
      <trkpt lat="36.311003" lon="-5.448334">
        <ele>34.41</ele>
        <time>2015-06-20T13:56:49Z</time>
      </trkpt>
      <trkpt lat="36.310862" lon="-5.448942">
        <ele>30.88</ele>
        <time>2015-06-20T13:57:09Z</time>
      </trkpt>
      <trkpt lat="36.311247" lon="-5.449398">
        <ele>29.44</ele>
        <time>2015-06-20T13:57:29Z</time>
      </trkpt>
      <trkpt lat="36.311365" lon="-5.449436">
        <ele>29.91</ele>
        <time>2015-06-20T13:57:34Z</time>
      </trkpt>
      <trkpt lat="36.311556" lon="-5.449425">
        <ele>30.99</ele>
        <time>2015-06-20T13:57:41Z</time>
      </trkpt>
      <trkpt lat="36.312044" lon="-5.449177">
        <ele>37.25</ele>
        <time>2015-06-20T13:58:02Z</time>
      </trkpt>
      <trkpt lat="36.312378" lon="-5.449184">
        <ele>37.83</ele>
        <time>2015-06-20T13:58:15Z</time>
      </trkpt>
      <trkpt lat="36.312524" lon="-5.449585">
        <ele>36.34</ele>
        <time>2015-06-20T13:58:28Z</time>
      </trkpt>
      <trkpt lat="36.312455" lon="-5.449887">
        <ele>40.63</ele>
        <time>2015-06-20T13:58:38Z</time>
      </trkpt>
      <trkpt lat="36.311887" lon="-5.450277">
        <ele>43.98</ele>
        <time>2015-06-20T13:59:03Z</time>
      </trkpt>
      <trkpt lat="36.311552" lon="-5.450471">
        <ele>47.89</ele>
        <time>2015-06-20T13:59:18Z</time>
      </trkpt>
      <trkpt lat="36.310884" lon="-5.450490">
        <ele>44.12</ele>
        <time>2015-06-20T13:59:43Z</time>
      </trkpt>
      <trkpt lat="36.310772" lon="-5.450692">
        <ele>45.11</ele>
        <time>2015-06-20T13:59:51Z</time>
      </trkpt>
      <trkpt lat="36.311008" lon="-5.451816">
        <ele>61.04</ele>
        <time>2015-06-20T14:00:27Z</time>
      </trkpt>
      <trkpt lat="36.310888" lon="-5.452136">
        <ele>58.67</ele>
        <time>2015-06-20T14:00:38Z</time>
      </trkpt>
      <trkpt lat="36.310827" lon="-5.452821">
        <ele>63.83</ele>
        <time>2015-06-20T14:00:59Z</time>
      </trkpt>
      <trkpt lat="36.311024" lon="-5.453067">
        <ele>70.17</ele>
        <time>2015-06-20T14:01:10Z</time>
      </trkpt>
      <trkpt lat="36.311076" lon="-5.453476">
        <ele>67.99</ele>
        <time>2015-06-20T14:01:23Z</time>
      </trkpt>
      <trkpt lat="36.311316" lon="-5.453742">
        <ele>73.54</ele>
        <time>2015-06-20T14:01:35Z</time>
      </trkpt>
      <trkpt lat="36.311583" lon="-5.453988">
        <ele>78.66</ele>
        <time>2015-06-20T14:01:48Z</time>
      </trkpt>
      <trkpt lat="36.311625" lon="-5.454339">
        <ele>80.93</ele>
        <time>2015-06-20T14:01:59Z</time>
      </trkpt>
      <trkpt lat="36.311293" lon="-5.454839">
        <ele>82.42</ele>
        <time>2015-06-20T14:02:19Z</time>
      </trkpt>
      <trkpt lat="36.311210" lon="-5.455231">
        <ele>86.63</ele>
        <time>2015-06-20T14:02:32Z</time>
      </trkpt>
      <trkpt lat="36.311176" lon="-5.455615">
        <ele>88.31</ele>
        <time>2015-06-20T14:02:44Z</time>
      </trkpt>
      <trkpt lat="36.311239" lon="-5.455930">
        <ele>91.21</ele>
        <time>2015-06-20T14:02:54Z</time>
      </trkpt>
      <trkpt lat="36.311224" lon="-5.456269">
        <ele>92.71</ele>
        <time>2015-06-20T14:03:05Z</time>
      </trkpt>
      <trkpt lat="36.311211" lon="-5.456846">
        <ele>99.16</ele>
        <time>2015-06-20T14:03:23Z</time>
      </trkpt>
      <trkpt lat="36.311080" lon="-5.457107">
        <ele>101.75</ele>
        <time>2015-06-20T14:03:32Z</time>
      </trkpt>
      <trkpt lat="36.310796" lon="-5.457318">
        <ele>103.67</ele>
        <time>2015-06-20T14:03:45Z</time>
      </trkpt>
      <trkpt lat="36.310634" lon="-5.457571">
        <ele>105.32</ele>
        <time>2015-06-20T14:03:55Z</time>
      </trkpt>
      <trkpt lat="36.310546" lon="-5.458366">
        <ele>114.02</ele>
        <time>2015-06-20T14:04:20Z</time>
      </trkpt>
      <trkpt lat="36.310462" lon="-5.458813">
        <ele>116.56</ele>
        <time>2015-06-20T14:04:34Z</time>
      </trkpt>
      <trkpt lat="36.310194" lon="-5.459740">
        <ele>115.03</ele>
        <time>2015-06-20T14:05:05Z</time>
      </trkpt>
      <trkpt lat="36.310233" lon="-5.460052">
        <ele>116.15</ele>
        <time>2015-06-20T14:05:14Z</time>
      </trkpt>
      <trkpt lat="36.310766" lon="-5.459748">
        <ele>122.40</ele>
        <time>2015-06-20T14:05:37Z</time>
      </trkpt>
      <trkpt lat="36.311191" lon="-5.459689">
        <ele>123.92</ele>
        <time>2015-06-20T14:05:54Z</time>
      </trkpt>
      <trkpt lat="36.311544" lon="-5.459853">
        <ele>122.71</ele>
        <time>2015-06-20T14:06:08Z</time>
      </trkpt>
      <trkpt lat="36.311774" lon="-5.460099">
        <ele>122.55</ele>
        <time>2015-06-20T14:06:20Z</time>
      </trkpt>
      <trkpt lat="36.312058" lon="-5.460242">
        <ele>124.77</ele>
        <time>2015-06-20T14:06:32Z</time>
      </trkpt>
      <trkpt lat="36.312284" lon="-5.460155">
        <ele>127.84</ele>
        <time>2015-06-20T14:06:41Z</time>
      </trkpt>
      <trkpt lat="36.312907" lon="-5.459718">
        <ele>134.13</ele>
        <time>2015-06-20T14:07:08Z</time>
      </trkpt>
      <trkpt lat="36.313465" lon="-5.459161">
        <ele>140.26</ele>
        <time>2015-06-20T14:07:36Z</time>
      </trkpt>
      <trkpt lat="36.313694" lon="-5.458913">
        <ele>142.69</ele>
        <time>2015-06-20T14:07:48Z</time>
      </trkpt>
      <trkpt lat="36.313745" lon="-5.458729">
        <ele>146.05</ele>
        <time>2015-06-20T14:07:54Z</time>
      </trkpt>
      <trkpt lat="36.313430" lon="-5.458658">
        <ele>149.31</ele>
        <time>2015-06-20T14:08:06Z</time>
      </trkpt>
      <trkpt lat="36.313292" lon="-5.458444">
        <ele>151.07</ele>
        <time>2015-06-20T14:08:15Z</time>
      </trkpt>
      <trkpt lat="36.313434" lon="-5.457797">
        <ele>157.53</ele>
        <time>2015-06-20T14:08:36Z</time>
      </trkpt>
      <trkpt lat="36.313645" lon="-5.457651">
        <ele>161.32</ele>
        <time>2015-06-20T14:08:45Z</time>
      </trkpt>
      <trkpt lat="36.313954" lon="-5.457566">
        <ele>161.81</ele>
        <time>2015-06-20T14:08:57Z</time>
      </trkpt>
      <trkpt lat="36.314153" lon="-5.457366">
        <ele>163.52</ele>
        <time>2015-06-20T14:09:07Z</time>
      </trkpt>
      <trkpt lat="36.314546" lon="-5.456809">
        <ele>171.86</ele>
        <time>2015-06-20T14:09:30Z</time>
      </trkpt>
      <trkpt lat="36.315468" lon="-5.456404">
        <ele>174.02</ele>
        <time>2015-06-20T14:10:08Z</time>
      </trkpt>
      <trkpt lat="36.315728" lon="-5.456446">
        <ele>174.52</ele>
        <time>2015-06-20T14:10:18Z</time>
      </trkpt>
      <trkpt lat="36.315945" lon="-5.456531">
        <ele>176.73</ele>
        <time>2015-06-20T14:10:26Z</time>
      </trkpt>
      <trkpt lat="36.316152" lon="-5.456087">
        <ele>183.96</ele>
        <time>2015-06-20T14:10:42Z</time>
      </trkpt>
      <trkpt lat="36.316202" lon="-5.456090">
        <ele>184.75</ele>
        <time>2015-06-20T14:10:44Z</time>
      </trkpt>
      <trkpt lat="36.316305" lon="-5.456287">
        <ele>186.19</ele>
        <time>2015-06-20T14:10:52Z</time>
      </trkpt>
      <trkpt lat="36.316377" lon="-5.456629">
        <ele>184.38</ele>
        <time>2015-06-20T14:11:03Z</time>
      </trkpt>
      <trkpt lat="36.316487" lon="-5.456704">
        <ele>183.51</ele>
        <time>2015-06-20T14:11:08Z</time>
      </trkpt>
      <trkpt lat="36.316605" lon="-5.456349">
        <ele>192.02</ele>
        <time>2015-06-20T14:11:19Z</time>
      </trkpt>
      <trkpt lat="36.316735" lon="-5.455986">
        <ele>194.51</ele>
        <time>2015-06-20T14:11:32Z</time>
      </trkpt>
      <trkpt lat="36.316885" lon="-5.455595">
        <ele>198.48</ele>
        <time>2015-06-20T14:11:45Z</time>
      </trkpt>
      <trkpt lat="36.316740" lon="-5.455103">
        <ele>202.06</ele>
        <time>2015-06-20T14:12:02Z</time>
      </trkpt>
      <trkpt lat="36.316614" lon="-5.454970">
        <ele>203.54</ele>
        <time>2015-06-20T14:12:08Z</time>
      </trkpt>
      <trkpt lat="36.315831" lon="-5.455255">
        <ele>198.44</ele>
        <time>2015-06-20T14:12:39Z</time>
      </trkpt>
      <trkpt lat="36.315355" lon="-5.455432">
        <ele>200.50</ele>
        <time>2015-06-20T14:12:58Z</time>
      </trkpt>
      <trkpt lat="36.315041" lon="-5.455421">
        <ele>201.44</ele>
        <time>2015-06-20T14:13:10Z</time>
      </trkpt>
      <trkpt lat="36.314852" lon="-5.455278">
        <ele>202.47</ele>
        <time>2015-06-20T14:13:19Z</time>
      </trkpt>
      <trkpt lat="36.314961" lon="-5.454949">
        <ele>202.44</ele>
        <time>2015-06-20T14:13:30Z</time>
      </trkpt>
      <trkpt lat="36.316847" lon="-5.453917">
        <ele>218.42</ele>
        <time>2015-06-20T14:14:49Z</time>
      </trkpt>
      <trkpt lat="36.316936" lon="-5.453348">
        <ele>219.91</ele>
        <time>2015-06-20T14:15:07Z</time>
      </trkpt>
      <trkpt lat="36.317593" lon="-5.452623">
        <ele>222.22</ele>
        <time>2015-06-20T14:15:41Z</time>
      </trkpt>
      <trkpt lat="36.318527" lon="-5.452437">
        <ele>239.51</ele>
        <time>2015-06-20T14:16:18Z</time>
      </trkpt>
      <trkpt lat="36.318949" lon="-5.452393">
        <ele>238.79</ele>
        <time>2015-06-20T14:16:34Z</time>
      </trkpt>
      <trkpt lat="36.319009" lon="-5.452427">
        <ele>239.44</ele>
        <time>2015-06-20T14:16:37Z</time>
      </trkpt>
      <trkpt lat="36.319028" lon="-5.452404">
        <ele>237.89</ele>
        <time>2015-06-20T14:16:53Z</time>
      </trkpt>
      <trkpt lat="36.319217" lon="-5.452427">
        <ele>236.30</ele>
        <time>2015-06-20T14:17:00Z</time>
      </trkpt>
      <trkpt lat="36.319504" lon="-5.452579">
        <ele>241.16</ele>
        <time>2015-06-20T14:17:29Z</time>
      </trkpt>
      <trkpt lat="36.319844" lon="-5.452564">
        <ele>239.29</ele>
        <time>2015-06-20T14:17:43Z</time>
      </trkpt>
      <trkpt lat="36.319867" lon="-5.452600">
        <ele>238.92</ele>
        <time>2015-06-20T14:17:44Z</time>
      </trkpt>
      <trkpt lat="36.319995" lon="-5.452677">
        <ele>237.41</ele>
        <time>2015-06-20T14:17:49Z</time>
      </trkpt>
      <trkpt lat="36.320136" lon="-5.452653">
        <ele>235.74</ele>
        <time>2015-06-20T14:17:55Z</time>
      </trkpt>
      <trkpt lat="36.320338" lon="-5.452523">
        <ele>234.66</ele>
        <time>2015-06-20T14:18:04Z</time>
      </trkpt>
      <trkpt lat="36.320897" lon="-5.452303">
        <ele>235.11</ele>
        <time>2015-06-20T14:18:26Z</time>
      </trkpt>
      <trkpt lat="36.321401" lon="-5.452279">
        <ele>235.01</ele>
        <time>2015-06-20T14:18:46Z</time>
      </trkpt>
      <trkpt lat="36.322049" lon="-5.452279">
        <ele>234.40</ele>
        <time>2015-06-20T14:19:11Z</time>
      </trkpt>
      <trkpt lat="36.322619" lon="-5.452277">
        <ele>230.04</ele>
        <time>2015-06-20T14:19:33Z</time>
      </trkpt>
      <trkpt lat="36.323048" lon="-5.452059">
        <ele>223.99</ele>
        <time>2015-06-20T14:19:51Z</time>
      </trkpt>
      <trkpt lat="36.323293" lon="-5.451785">
        <ele>218.78</ele>
        <time>2015-06-20T14:20:03Z</time>
      </trkpt>
      <trkpt lat="36.323421" lon="-5.451657">
        <ele>217.37</ele>
        <time>2015-06-20T14:20:10Z</time>
      </trkpt>
      <trkpt lat="36.323776" lon="-5.451478">
        <ele>219.40</ele>
        <time>2015-06-20T14:20:25Z</time>
      </trkpt>
      <trkpt lat="36.324112" lon="-5.451544">
        <ele>219.68</ele>
        <time>2015-06-20T14:20:38Z</time>
      </trkpt>
      <trkpt lat="36.324924" lon="-5.452146">
        <ele>212.83</ele>
        <time>2015-06-20T14:21:14Z</time>
      </trkpt>
      <trkpt lat="36.325400" lon="-5.452401">
        <ele>212.92</ele>
        <time>2015-06-20T14:21:34Z</time>
      </trkpt>
      <trkpt lat="36.325792" lon="-5.452289">
        <ele>212.66</ele>
        <time>2015-06-20T14:21:50Z</time>
      </trkpt>
      <trkpt lat="36.326240" lon="-5.451780">
        <ele>209.51</ele>
        <time>2015-06-20T14:22:13Z</time>
      </trkpt>
      <trkpt lat="36.326852" lon="-5.451153">
        <ele>212.21</ele>
        <time>2015-06-20T14:22:44Z</time>
      </trkpt>
      <trkpt lat="36.327264" lon="-5.451118">
        <ele>207.33</ele>
        <time>2015-06-20T14:23:00Z</time>
      </trkpt>
      <trkpt lat="36.327895" lon="-5.451379">
        <ele>202.27</ele>
        <time>2015-06-20T14:23:25Z</time>
      </trkpt>
      <trkpt lat="36.328366" lon="-5.451409">
        <ele>196.63</ele>
        <time>2015-06-20T14:23:44Z</time>
      </trkpt>
      <trkpt lat="36.330064" lon="-5.450840">
        <ele>182.78</ele>
        <time>2015-06-20T14:24:51Z</time>
      </trkpt>
      <trkpt lat="36.330440" lon="-5.451064">
        <ele>183.34</ele>
        <time>2015-06-20T14:25:07Z</time>
      </trkpt>
      <trkpt lat="36.330830" lon="-5.451063">
        <ele>184.43</ele>
        <time>2015-06-20T14:25:23Z</time>
      </trkpt>
      <trkpt lat="36.331082" lon="-5.450926">
        <ele>182.46</ele>
        <time>2015-06-20T14:25:33Z</time>
      </trkpt>
      <trkpt lat="36.331300" lon="-5.450865">
        <ele>180.35</ele>
        <time>2015-06-20T14:25:42Z</time>
      </trkpt>
      <trkpt lat="36.331640" lon="-5.450578">
        <ele>175.35</ele>
        <time>2015-06-20T14:25:58Z</time>
      </trkpt>
      <trkpt lat="36.332019" lon="-5.450373">
        <ele>173.69</ele>
        <time>2015-06-20T14:26:13Z</time>
      </trkpt>
      <trkpt lat="36.332347" lon="-5.450759">
        <ele>182.82</ele>
        <time>2015-06-20T14:26:31Z</time>
      </trkpt>
      <trkpt lat="36.332533" lon="-5.450825">
        <ele>183.21</ele>
        <time>2015-06-20T14:26:38Z</time>
      </trkpt>
      <trkpt lat="36.332890" lon="-5.450897">
        <ele>179.97</ele>
        <time>2015-06-20T14:26:52Z</time>
      </trkpt>
      <trkpt lat="36.333136" lon="-5.450863">
        <ele>178.09</ele>
        <time>2015-06-20T14:27:02Z</time>
      </trkpt>
      <trkpt lat="36.333414" lon="-5.450766">
        <ele>174.04</ele>
        <time>2015-06-20T14:27:13Z</time>
      </trkpt>
      <trkpt lat="36.333601" lon="-5.450551">
        <ele>170.11</ele>
        <time>2015-06-20T14:27:23Z</time>
      </trkpt>
      <trkpt lat="36.333540" lon="-5.450434">
        <ele>171.27</ele>
        <time>2015-06-20T14:27:27Z</time>
      </trkpt>
      <trkpt lat="36.333287" lon="-5.450171">
        <ele>170.26</ele>
        <time>2015-06-20T14:27:40Z</time>
      </trkpt>
      <trkpt lat="36.332753" lon="-5.449599">
        <ele>159.54</ele>
        <time>2015-06-20T14:28:07Z</time>
      </trkpt>
      <trkpt lat="36.332643" lon="-5.449488">
        <ele>158.47</ele>
        <time>2015-06-20T14:28:12Z</time>
      </trkpt>
      <trkpt lat="36.332524" lon="-5.449254">
        <ele>157.24</ele>
        <time>2015-06-20T14:28:21Z</time>
      </trkpt>
      <trkpt lat="36.332422" lon="-5.448766">
        <ele>158.08</ele>
        <time>2015-06-20T14:28:36Z</time>
      </trkpt>
      <trkpt lat="36.332047" lon="-5.448583">
        <ele>150.71</ele>
        <time>2015-06-20T14:28:52Z</time>
      </trkpt>
      <trkpt lat="36.331698" lon="-5.448106">
        <ele>144.61</ele>
        <time>2015-06-20T14:29:12Z</time>
      </trkpt>
      <trkpt lat="36.331722" lon="-5.447884">
        <ele>143.69</ele>
        <time>2015-06-20T14:29:19Z</time>
      </trkpt>
      <trkpt lat="36.331893" lon="-5.447677">
        <ele>144.26</ele>
        <time>2015-06-20T14:29:28Z</time>
      </trkpt>
      <trkpt lat="36.332103" lon="-5.447580">
        <ele>146.39</ele>
        <time>2015-06-20T14:29:37Z</time>
      </trkpt>
      <trkpt lat="36.332003" lon="-5.447357">
        <ele>140.84</ele>
        <time>2015-06-20T14:29:45Z</time>
      </trkpt>
      <trkpt lat="36.331556" lon="-5.447427">
        <ele>135.33</ele>
        <time>2015-06-20T14:30:02Z</time>
      </trkpt>
      <trkpt lat="36.331385" lon="-5.447630">
        <ele>134.35</ele>
        <time>2015-06-20T14:30:11Z</time>
      </trkpt>
      <trkpt lat="36.331312" lon="-5.447877">
        <ele>135.06</ele>
        <time>2015-06-20T14:30:19Z</time>
      </trkpt>
      <trkpt lat="36.330794" lon="-5.447677">
        <ele>125.83</ele>
        <time>2015-06-20T14:30:40Z</time>
      </trkpt>
      <trkpt lat="36.330705" lon="-5.447498">
        <ele>123.67</ele>
        <time>2015-06-20T14:30:47Z</time>
      </trkpt>
      <trkpt lat="36.330730" lon="-5.446479">
        <ele>115.41</ele>
        <time>2015-06-20T14:31:18Z</time>
      </trkpt>
      <trkpt lat="36.330748" lon="-5.445269">
        <ele>110.51</ele>
        <time>2015-06-20T14:31:56Z</time>
      </trkpt>
      <trkpt lat="36.330756" lon="-5.444805">
        <ele>104.71</ele>
        <time>2015-06-20T14:32:10Z</time>
      </trkpt>
      <trkpt lat="36.330757" lon="-5.444405">
        <ele>100.29</ele>
        <time>2015-06-20T14:32:23Z</time>
      </trkpt>
      <trkpt lat="36.330895" lon="-5.443483">
        <ele>93.03</ele>
        <time>2015-06-20T14:32:52Z</time>
      </trkpt>
      <trkpt lat="36.331193" lon="-5.443401">
        <ele>91.72</ele>
        <time>2015-06-20T14:33:04Z</time>
      </trkpt>
      <trkpt lat="36.331473" lon="-5.444097">
        <ele>95.25</ele>
        <time>2015-06-20T14:33:28Z</time>
      </trkpt>
      <trkpt lat="36.331489" lon="-5.444096">
        <ele>95.38</ele>
        <time>2015-06-20T14:33:29Z</time>
      </trkpt>
      <trkpt lat="36.331773" lon="-5.443778">
        <ele>92.38</ele>
        <time>2015-06-20T14:33:43Z</time>
      </trkpt>
      <trkpt lat="36.332440" lon="-5.442712">
        <ele>79.97</ele>
        <time>2015-06-20T14:34:25Z</time>
      </trkpt>
      <trkpt lat="36.332663" lon="-5.441643">
        <ele>71.27</ele>
        <time>2015-06-20T14:34:59Z</time>
      </trkpt>
      <trkpt lat="36.333409" lon="-5.441316">
        <ele>66.79</ele>
        <time>2015-06-20T14:35:30Z</time>
      </trkpt>
      <trkpt lat="36.333561" lon="-5.440520">
        <ele>62.66</ele>
        <time>2015-06-20T14:35:55Z</time>
      </trkpt>
      <trkpt lat="36.333961" lon="-5.439890">
        <ele>58.72</ele>
        <time>2015-06-20T14:36:20Z</time>
      </trkpt>
      <trkpt lat="36.334182" lon="-5.439201">
        <ele>53.41</ele>
        <time>2015-06-20T14:36:43Z</time>
      </trkpt>
      <trkpt lat="36.334404" lon="-5.438940">
        <ele>51.59</ele>
        <time>2015-06-20T14:36:55Z</time>
      </trkpt>
      <trkpt lat="36.335054" lon="-5.438775">
        <ele>50.19</ele>
        <time>2015-06-20T14:37:20Z</time>
      </trkpt>
      <trkpt lat="36.335874" lon="-5.438242">
        <ele>50.29</ele>
        <time>2015-06-20T14:37:56Z</time>
      </trkpt>
      <trkpt lat="36.336122" lon="-5.437988">
        <ele>51.24</ele>
        <time>2015-06-20T14:38:09Z</time>
      </trkpt>
      <trkpt lat="36.336314" lon="-5.437609">
        <ele>48.29</ele>
        <time>2015-06-20T14:38:22Z</time>
      </trkpt>
      <trkpt lat="36.336564" lon="-5.437262">
        <ele>46.38</ele>
        <time>2015-06-20T14:38:37Z</time>
      </trkpt>
      <trkpt lat="36.336863" lon="-5.436870">
        <ele>46.72</ele>
        <time>2015-06-20T14:38:54Z</time>
      </trkpt>
      <trkpt lat="36.337180" lon="-5.436545">
        <ele>45.50</ele>
        <time>2015-06-20T14:39:10Z</time>
      </trkpt>
      <trkpt lat="36.337484" lon="-5.435862">
        <ele>38.55</ele>
        <time>2015-06-20T14:39:34Z</time>
      </trkpt>
      <trkpt lat="36.337787" lon="-5.435345">
        <ele>35.40</ele>
        <time>2015-06-20T14:39:54Z</time>
      </trkpt>
      <trkpt lat="36.338193" lon="-5.435083">
        <ele>30.52</ele>
        <time>2015-06-20T14:40:11Z</time>
      </trkpt>
      <trkpt lat="36.338157" lon="-5.434547">
        <ele>30.01</ele>
        <time>2015-06-20T14:40:28Z</time>
      </trkpt>
      <trkpt lat="36.338078" lon="-5.434191">
        <ele>30.86</ele>
        <time>2015-06-20T14:40:40Z</time>
      </trkpt>
      <trkpt lat="36.337915" lon="-5.433912">
        <ele>33.15</ele>
        <time>2015-06-20T14:40:50Z</time>
      </trkpt>
      <trkpt lat="36.337694" lon="-5.433681">
        <ele>33.95</ele>
        <time>2015-06-20T14:41:01Z</time>
      </trkpt>
      <trkpt lat="36.337133" lon="-5.433229">
        <ele>31.61</ele>
        <time>2015-06-20T14:41:27Z</time>
      </trkpt>
      <trkpt lat="36.336616" lon="-5.432801">
        <ele>29.46</ele>
        <time>2015-06-20T14:41:51Z</time>
      </trkpt>
      <trkpt lat="36.336552" lon="-5.432530">
        <ele>28.06</ele>
        <time>2015-06-20T14:42:00Z</time>
      </trkpt>
      <trkpt lat="36.336607" lon="-5.431910">
        <ele>27.29</ele>
        <time>2015-06-20T14:42:19Z</time>
      </trkpt>
      <trkpt lat="36.336681" lon="-5.430802">
        <ele>25.99</ele>
        <time>2015-06-20T14:42:53Z</time>
      </trkpt>
      <trkpt lat="36.336252" lon="-5.429518">
        <ele>26.07</ele>
        <time>2015-06-20T14:43:37Z</time>
      </trkpt>
      <trkpt lat="36.335945" lon="-5.428425">
        <ele>24.56</ele>
        <time>2015-06-20T14:44:13Z</time>
      </trkpt>
      <trkpt lat="36.336176" lon="-5.428045">
        <ele>25.02</ele>
        <time>2015-06-20T14:44:27Z</time>
      </trkpt>
      <trkpt lat="36.336448" lon="-5.427809">
        <ele>25.71</ele>
        <time>2015-06-20T14:44:40Z</time>
      </trkpt>
      <trkpt lat="36.337050" lon="-5.427190">
        <ele>26.75</ele>
        <time>2015-06-20T14:45:10Z</time>
      </trkpt>
      <trkpt lat="36.337297" lon="-5.426760">
        <ele>30.29</ele>
        <time>2015-06-20T14:45:27Z</time>
      </trkpt>
      <trkpt lat="36.337475" lon="-5.426297">
        <ele>29.10</ele>
        <time>2015-06-20T14:45:43Z</time>
      </trkpt>
      <trkpt lat="36.337659" lon="-5.425808">
        <ele>25.56</ele>
        <time>2015-06-20T14:45:59Z</time>
      </trkpt>
      <trkpt lat="36.337772" lon="-5.425404">
        <ele>23.58</ele>
        <time>2015-06-20T14:46:13Z</time>
      </trkpt>
      <trkpt lat="36.337801" lon="-5.424950">
        <ele>21.69</ele>
        <time>2015-06-20T14:46:27Z</time>
      </trkpt>
      <trkpt lat="36.337624" lon="-5.424447">
        <ele>23.16</ele>
        <time>2015-06-20T14:46:44Z</time>
      </trkpt>
      <trkpt lat="36.337455" lon="-5.423952">
        <ele>21.78</ele>
        <time>2015-06-20T14:47:01Z</time>
      </trkpt>
      <trkpt lat="36.337440" lon="-5.423540">
        <ele>21.66</ele>
        <time>2015-06-20T14:47:13Z</time>
      </trkpt>
      <trkpt lat="36.337442" lon="-5.422981">
        <ele>21.61</ele>
        <time>2015-06-20T14:47:31Z</time>
      </trkpt>
      <trkpt lat="36.337436" lon="-5.422493">
        <ele>21.32</ele>
        <time>2015-06-20T14:47:46Z</time>
      </trkpt>
      <trkpt lat="36.337456" lon="-5.421196">
        <ele>21.41</ele>
        <time>2015-06-20T14:48:26Z</time>
      </trkpt>
      <trkpt lat="36.337354" lon="-5.420664">
        <ele>20.49</ele>
        <time>2015-06-20T14:48:43Z</time>
      </trkpt>
      <trkpt lat="36.336494" lon="-5.420259">
        <ele>22.23</ele>
        <time>2015-06-20T14:49:18Z</time>
      </trkpt>
      <trkpt lat="36.335292" lon="-5.419761">
        <ele>21.43</ele>
        <time>2015-06-20T14:50:07Z</time>
      </trkpt>
      <trkpt lat="36.333697" lon="-5.419050">
        <ele>20.56</ele>
        <time>2015-06-20T14:51:13Z</time>
      </trkpt>
      <trkpt lat="36.332993" lon="-5.418769">
        <ele>20.77</ele>
        <time>2015-06-20T14:51:41Z</time>
      </trkpt>
      <trkpt lat="36.332105" lon="-5.418344">
        <ele>20.59</ele>
        <time>2015-06-20T14:52:18Z</time>
      </trkpt>
      <trkpt lat="36.331776" lon="-5.417932">
        <ele>18.46</ele>
        <time>2015-06-20T14:52:36Z</time>
      </trkpt>
      <trkpt lat="36.331172" lon="-5.417082">
        <ele>19.64</ele>
        <time>2015-06-20T14:53:11Z</time>
      </trkpt>
      <trkpt lat="36.330612" lon="-5.416407">
        <ele>20.74</ele>
        <time>2015-06-20T14:53:41Z</time>
      </trkpt>
      <trkpt lat="36.330439" lon="-5.416086">
        <ele>22.31</ele>
        <time>2015-06-20T14:53:53Z</time>
      </trkpt>
      <trkpt lat="36.330281" lon="-5.415435">
        <ele>22.11</ele>
        <time>2015-06-20T14:54:14Z</time>
      </trkpt>
      <trkpt lat="36.329622" lon="-5.412462">
        <ele>17.81</ele>
        <time>2015-06-20T14:55:50Z</time>
      </trkpt>
      <trkpt lat="36.329598" lon="-5.411829">
        <ele>18.11</ele>
        <time>2015-06-20T14:56:09Z</time>
      </trkpt>
      <trkpt lat="36.329905" lon="-5.410871">
        <ele>17.13</ele>
        <time>2015-06-20T14:56:41Z</time>
      </trkpt>
      <trkpt lat="36.330050" lon="-5.410437">
        <ele>16.02</ele>
        <time>2015-06-20T14:56:56Z</time>
      </trkpt>
      <trkpt lat="36.330869" lon="-5.409380">
        <ele>14.22</ele>
        <time>2015-06-20T14:57:41Z</time>
      </trkpt>
      <trkpt lat="36.331585" lon="-5.408359">
        <ele>16.02</ele>
        <time>2015-06-20T14:58:24Z</time>
      </trkpt>
      <trkpt lat="36.331786" lon="-5.408328">
        <ele>16.02</ele>
        <time>2015-06-20T14:58:31Z</time>
      </trkpt>
      <trkpt lat="36.332537" lon="-5.409570">
        <ele>17.56</ele>
        <time>2015-06-20T14:59:20Z</time>
      </trkpt>
      <trkpt lat="36.332839" lon="-5.409893">
        <ele>17.75</ele>
        <time>2015-06-20T14:59:35Z</time>
      </trkpt>
      <trkpt lat="36.333408" lon="-5.410382">
        <ele>17.86</ele>
        <time>2015-06-20T15:00:02Z</time>
      </trkpt>
      <trkpt lat="36.333801" lon="-5.410684">
        <ele>17.00</ele>
        <time>2015-06-20T15:00:20Z</time>
      </trkpt>
      <trkpt lat="36.334985" lon="-5.411601">
        <ele>17.02</ele>
        <time>2015-06-20T15:01:13Z</time>
      </trkpt>
      <trkpt lat="36.337531" lon="-5.413635">
        <ele>18.01</ele>
        <time>2015-06-20T15:03:10Z</time>
      </trkpt>
      <trkpt lat="36.338343" lon="-5.414264">
        <ele>17.03</ele>
        <time>2015-06-20T15:03:47Z</time>
      </trkpt>
      <trkpt lat="36.342725" lon="-5.418025">
        <ele>19.05</ele>
        <time>2015-06-20T15:04:26Z</time>
      </trkpt>
      <trkpt lat="36.343576" lon="-5.418553">
        <ele>18.18</ele>
        <time>2015-06-20T15:04:27Z</time>
      </trkpt>
      <trkpt lat="36.347589" lon="-5.421531">
        <ele>19.33</ele>
        <time>2015-06-20T15:04:47Z</time>
      </trkpt>
      <trkpt lat="36.347817" lon="-5.421886">
        <ele>20.59</ele>
        <time>2015-06-20T15:05:07Z</time>
      </trkpt>
      <trkpt lat="36.350813" lon="-5.424303">
        <ele>19.53</ele>
        <time>2015-06-20T15:05:27Z</time>
      </trkpt>
      <trkpt lat="36.352898" lon="-5.425702">
        <ele>20.02</ele>
        <time>2015-06-20T15:05:47Z</time>
      </trkpt>
      <trkpt lat="36.355622" lon="-5.426421">
        <ele>19.97</ele>
        <time>2015-06-20T15:06:07Z</time>
      </trkpt>
      <trkpt lat="36.355858" lon="-5.426239">
        <ele>18.42</ele>
        <time>2015-06-20T15:06:27Z</time>
      </trkpt>
      <trkpt lat="36.355889" lon="-5.425861">
        <ele>17.11</ele>
        <time>2015-06-20T15:06:47Z</time>
      </trkpt>
      <trkpt lat="36.356284" lon="-5.425623">
        <ele>16.52</ele>
        <time>2015-06-20T15:07:07Z</time>
      </trkpt>
      <trkpt lat="36.356627" lon="-5.425768">
        <ele>16.81</ele>
        <time>2015-06-20T15:07:27Z</time>
      </trkpt>
      <trkpt lat="36.356588" lon="-5.426227">
        <ele>18.67</ele>
        <time>2015-06-20T15:07:47Z</time>
      </trkpt>
      <trkpt lat="36.356928" lon="-5.426602">
        <ele>20.63</ele>
        <time>2015-06-20T15:08:07Z</time>
      </trkpt>
      <trkpt lat="36.358066" lon="-5.426736">
        <ele>22.05</ele>
        <time>2015-06-20T15:08:27Z</time>
      </trkpt>
      <trkpt lat="36.359895" lon="-5.426564">
        <ele>23.17</ele>
        <time>2015-06-20T15:08:47Z</time>
      </trkpt>
      <trkpt lat="36.361484" lon="-5.426187">
        <ele>19.34</ele>
        <time>2015-06-20T15:09:07Z</time>
      </trkpt>
      <trkpt lat="36.362136" lon="-5.425813">
        <ele>19.39</ele>
        <time>2015-06-20T15:09:27Z</time>
      </trkpt>
      <trkpt lat="36.362492" lon="-5.425914">
        <ele>19.35</ele>
        <time>2015-06-20T15:09:47Z</time>
      </trkpt>
      <trkpt lat="36.363440" lon="-5.425741">
        <ele>18.50</ele>
        <time>2015-06-20T15:10:07Z</time>
      </trkpt>
      <trkpt lat="36.370657" lon="-5.423935">
        <ele>19.22</ele>
        <time>2015-06-20T15:10:27Z</time>
      </trkpt>
      <trkpt lat="36.372486" lon="-5.423159">
        <ele>22.36</ele>
        <time>2015-06-20T15:10:47Z</time>
      </trkpt>
      <trkpt lat="36.372819" lon="-5.423284">
        <ele>24.41</ele>
        <time>2015-06-20T15:11:07Z</time>
      </trkpt>
      <trkpt lat="36.373458" lon="-5.424021">
        <ele>23.01</ele>
        <time>2015-06-20T15:11:27Z</time>
      </trkpt>
      <trkpt lat="36.373803" lon="-5.424167">
        <ele>21.69</ele>
        <time>2015-06-20T15:11:47Z</time>
      </trkpt>
      <trkpt lat="36.375682" lon="-5.424476">
        <ele>22.09</ele>
        <time>2015-06-20T15:12:07Z</time>
      </trkpt>
      <trkpt lat="36.376365" lon="-5.424757">
        <ele>22.93</ele>
        <time>2015-06-20T15:12:27Z</time>
      </trkpt>
      <trkpt lat="36.377214" lon="-5.425462">
        <ele>23.75</ele>
        <time>2015-06-20T15:12:47Z</time>
      </trkpt>
      <trkpt lat="36.377837" lon="-5.426224">
        <ele>22.79</ele>
        <time>2015-06-20T15:13:07Z</time>
      </trkpt>
      <trkpt lat="36.379704" lon="-5.430457">
        <ele>22.24</ele>
        <time>2015-06-20T15:13:27Z</time>
      </trkpt>
      <trkpt lat="36.379917" lon="-5.430444">
        <ele>21.02</ele>
        <time>2015-06-20T15:13:47Z</time>
      </trkpt>
      <trkpt lat="36.380209" lon="-5.429513">
        <ele>16.38</ele>
        <time>2015-06-20T15:14:07Z</time>
      </trkpt>
      <trkpt lat="36.380405" lon="-5.429657">
        <ele>16.54</ele>
        <time>2015-06-20T15:14:27Z</time>
      </trkpt>
      <trkpt lat="36.381069" lon="-5.431673">
        <ele>26.25</ele>
        <time>2015-06-20T15:14:47Z</time>
      </trkpt>
      <trkpt lat="36.380800" lon="-5.432660">
        <ele>25.91</ele>
        <time>2015-06-20T15:15:07Z</time>
      </trkpt>
      <trkpt lat="36.380939" lon="-5.433126">
        <ele>26.21</ele>
        <time>2015-06-20T15:15:27Z</time>
      </trkpt>
      <trkpt lat="36.382023" lon="-5.435693">
        <ele>27.06</ele>
        <time>2015-06-20T15:15:47Z</time>
      </trkpt>
      <trkpt lat="36.383351" lon="-5.437728">
        <ele>28.24</ele>
        <time>2015-06-20T15:16:07Z</time>
      </trkpt>
      <trkpt lat="36.385286" lon="-5.439529">
        <ele>26.79</ele>
        <time>2015-06-20T15:16:27Z</time>
      </trkpt>
      <trkpt lat="36.385450" lon="-5.439323">
        <ele>26.42</ele>
        <time>2015-06-20T15:16:47Z</time>
      </trkpt>
      <trkpt lat="36.386799" lon="-5.440597">
        <ele>25.44</ele>
        <time>2015-06-20T15:17:07Z</time>
      </trkpt>
      <trkpt lat="36.387591" lon="-5.441693">
        <ele>23.76</ele>
        <time>2015-06-20T15:17:27Z</time>
      </trkpt>
      <trkpt lat="36.391120" lon="-5.444439">
        <ele>22.08</ele>
        <time>2015-06-20T15:17:47Z</time>
      </trkpt>
      <trkpt lat="36.391787" lon="-5.444406">
        <ele>20.65</ele>
        <time>2015-06-20T15:18:07Z</time>
      </trkpt>
      <trkpt lat="36.392619" lon="-5.445367">
        <ele>21.98</ele>
        <time>2015-06-20T15:18:27Z</time>
      </trkpt>
      <trkpt lat="36.394239" lon="-5.445924">
        <ele>23.44</ele>
        <time>2015-06-20T15:18:47Z</time>
      </trkpt>
      <trkpt lat="36.394636" lon="-5.446248">
        <ele>25.52</ele>
        <time>2015-06-20T15:19:07Z</time>
      </trkpt>
      <trkpt lat="36.395963" lon="-5.445951">
        <ele>22.51</ele>
        <time>2015-06-20T15:19:27Z</time>
      </trkpt>
      <trkpt lat="36.397093" lon="-5.445349">
        <ele>25.36</ele>
        <time>2015-06-20T15:19:47Z</time>
      </trkpt>
      <trkpt lat="36.399085" lon="-5.443706">
        <ele>26.05</ele>
        <time>2015-06-20T15:20:07Z</time>
      </trkpt>
      <trkpt lat="36.400864" lon="-5.442763">
        <ele>30.29</ele>
        <time>2015-06-20T15:20:27Z</time>
      </trkpt>
      <trkpt lat="36.402622" lon="-5.442440">
        <ele>32.16</ele>
        <time>2015-06-20T15:20:47Z</time>
      </trkpt>
      <trkpt lat="36.404327" lon="-5.443136">
        <ele>26.81</ele>
        <time>2015-06-20T15:21:07Z</time>
      </trkpt>
      <trkpt lat="36.405702" lon="-5.443385">
        <ele>24.80</ele>
        <time>2015-06-20T15:21:27Z</time>
      </trkpt>
      <trkpt lat="36.406742" lon="-5.443077">
        <ele>27.32</ele>
        <time>2015-06-20T15:21:47Z</time>
      </trkpt>
      <trkpt lat="36.409901" lon="-5.441283">
        <ele>29.44</ele>
        <time>2015-06-20T15:22:07Z</time>
      </trkpt>
      <trkpt lat="36.410961" lon="-5.441121">
        <ele>28.60</ele>
        <time>2015-06-20T15:22:27Z</time>
      </trkpt>
      <trkpt lat="36.412236" lon="-5.441542">
        <ele>29.62</ele>
        <time>2015-06-20T15:22:47Z</time>
      </trkpt>
      <trkpt lat="36.414333" lon="-5.442868">
        <ele>32.73</ele>
        <time>2015-06-20T15:23:07Z</time>
      </trkpt>
      <trkpt lat="36.414848" lon="-5.442861">
        <ele>28.81</ele>
        <time>2015-06-20T15:23:27Z</time>
      </trkpt>
      <trkpt lat="36.415689" lon="-5.443881">
        <ele>28.03</ele>
        <time>2015-06-20T15:23:47Z</time>
      </trkpt>
      <trkpt lat="36.416557" lon="-5.444007">
        <ele>27.04</ele>
        <time>2015-06-20T15:24:07Z</time>
      </trkpt>
      <trkpt lat="36.417142" lon="-5.444494">
        <ele>21.64</ele>
        <time>2015-06-20T15:24:27Z</time>
      </trkpt>
      <trkpt lat="36.417249" lon="-5.445617">
        <ele>24.07</ele>
        <time>2015-06-20T15:24:47Z</time>
      </trkpt>
      <trkpt lat="36.417835" lon="-5.446929">
        <ele>26.73</ele>
        <time>2015-06-20T15:25:07Z</time>
      </trkpt>
      <trkpt lat="36.418460" lon="-5.447949">
        <ele>26.22</ele>
        <time>2015-06-20T15:25:27Z</time>
      </trkpt>
      <trkpt lat="36.419469" lon="-5.449057">
        <ele>24.52</ele>
        <time>2015-06-20T15:25:47Z</time>
      </trkpt>
      <trkpt lat="36.420304" lon="-5.449408">
        <ele>25.06</ele>
        <time>2015-06-20T15:26:07Z</time>
      </trkpt>
      <trkpt lat="36.421285" lon="-5.449508">
        <ele>31.36</ele>
        <time>2015-06-20T15:26:27Z</time>
      </trkpt>
      <trkpt lat="36.421881" lon="-5.449741">
        <ele>32.67</ele>
        <time>2015-06-20T15:26:47Z</time>
      </trkpt>
      <trkpt lat="36.423869" lon="-5.451356">
        <ele>37.81</ele>
        <time>2015-06-20T15:27:07Z</time>
      </trkpt>
      <trkpt lat="36.425098" lon="-5.452090">
        <ele>39.61</ele>
        <time>2015-06-20T15:27:27Z</time>
      </trkpt>
      <trkpt lat="36.425811" lon="-5.452796">
        <ele>34.19</ele>
        <time>2015-06-20T15:27:47Z</time>
      </trkpt>
      <trkpt lat="36.426132" lon="-5.452769">
        <ele>32.95</ele>
        <time>2015-06-20T15:28:07Z</time>
      </trkpt>
      <trkpt lat="36.426879" lon="-5.452133">
        <ele>29.75</ele>
        <time>2015-06-20T15:28:27Z</time>
      </trkpt>
      <trkpt lat="36.427864" lon="-5.452271">
        <ele>27.36</ele>
        <time>2015-06-20T15:28:47Z</time>
      </trkpt>
      <trkpt lat="36.428217" lon="-5.452122">
        <ele>31.29</ele>
        <time>2015-06-20T15:29:07Z</time>
      </trkpt>
      <trkpt lat="36.429220" lon="-5.451168">
        <ele>41.83</ele>
        <time>2015-06-20T15:29:27Z</time>
      </trkpt>
      <trkpt lat="36.429928" lon="-5.450845">
        <ele>49.16</ele>
        <time>2015-06-20T15:29:47Z</time>
      </trkpt>
      <trkpt lat="36.430155" lon="-5.450456">
        <ele>53.11</ele>
        <time>2015-06-20T15:30:07Z</time>
      </trkpt>
      <trkpt lat="36.429737" lon="-5.449882">
        <ele>43.82</ele>
        <time>2015-06-20T15:30:27Z</time>
      </trkpt>
      <trkpt lat="36.430000" lon="-5.449593">
        <ele>48.68</ele>
        <time>2015-06-20T15:30:47Z</time>
      </trkpt>
      <trkpt lat="36.430560" lon="-5.449559">
        <ele>54.71</ele>
        <time>2015-06-20T15:31:07Z</time>
      </trkpt>
      <trkpt lat="36.431442" lon="-5.449247">
        <ele>58.51</ele>
        <time>2015-06-20T15:31:27Z</time>
      </trkpt>
      <trkpt lat="36.432633" lon="-5.448320">
        <ele>57.97</ele>
        <time>2015-06-20T15:31:47Z</time>
      </trkpt>
      <trkpt lat="36.432635" lon="-5.448925">
        <ele>62.35</ele>
        <time>2015-06-20T15:32:07Z</time>
      </trkpt>
      <trkpt lat="36.432222" lon="-5.449854">
        <ele>67.46</ele>
        <time>2015-06-20T15:32:27Z</time>
      </trkpt>
      <trkpt lat="36.432035" lon="-5.450193">
        <ele>72.28</ele>
        <time>2015-06-20T15:32:47Z</time>
      </trkpt>
      <trkpt lat="36.431244" lon="-5.450458">
        <ele>76.39</ele>
        <time>2015-06-20T15:33:07Z</time>
      </trkpt>
      <trkpt lat="36.431136" lon="-5.450774">
        <ele>81.19</ele>
        <time>2015-06-20T15:33:27Z</time>
      </trkpt>
      <trkpt lat="36.431232" lon="-5.450905">
        <ele>84.90</ele>
        <time>2015-06-20T15:33:47Z</time>
      </trkpt>
      <trkpt lat="36.431705" lon="-5.450832">
        <ele>85.81</ele>
        <time>2015-06-20T15:34:07Z</time>
      </trkpt>
      <trkpt lat="36.432798" lon="-5.452149">
        <ele>102.69</ele>
        <time>2015-06-20T15:34:27Z</time>
      </trkpt>
      <trkpt lat="36.434018" lon="-5.453153">
        <ele>123.26</ele>
        <time>2015-06-20T15:34:47Z</time>
      </trkpt>
      <trkpt lat="36.435250" lon="-5.453727">
        <ele>135.32</ele>
        <time>2015-06-20T15:35:07Z</time>
      </trkpt>
      <trkpt lat="36.436313" lon="-5.454619">
        <ele>142.21</ele>
        <time>2015-06-20T15:35:27Z</time>
      </trkpt>
      <trkpt lat="36.438650" lon="-5.455842">
        <ele>129.26</ele>
        <time>2015-06-20T15:35:47Z</time>
      </trkpt>
      <trkpt lat="36.439466" lon="-5.456024">
        <ele>128.53</ele>
        <time>2015-06-20T15:36:07Z</time>
      </trkpt>
      <trkpt lat="36.440201" lon="-5.456672">
        <ele>124.30</ele>
        <time>2015-06-20T15:36:27Z</time>
      </trkpt>
      <trkpt lat="36.441019" lon="-5.456787">
        <ele>119.27</ele>
        <time>2015-06-20T15:36:47Z</time>
      </trkpt>
      <trkpt lat="36.441864" lon="-5.458174">
        <ele>112.22</ele>
        <time>2015-06-20T15:37:07Z</time>
      </trkpt>
      <trkpt lat="36.442083" lon="-5.458906">
        <ele>110.48</ele>
        <time>2015-06-20T15:37:27Z</time>
      </trkpt>
      <trkpt lat="36.444645" lon="-5.460995">
        <ele>125.97</ele>
        <time>2015-06-20T15:37:47Z</time>
      </trkpt>
      <trkpt lat="36.444578" lon="-5.461606">
        <ele>132.11</ele>
        <time>2015-06-20T15:38:07Z</time>
      </trkpt>
      <trkpt lat="36.448447" lon="-5.468077">
        <ele>161.36</ele>
        <time>2015-06-20T15:38:27Z</time>
      </trkpt>
      <trkpt lat="36.448150" lon="-5.470209">
        <ele>173.20</ele>
        <time>2015-06-20T15:38:47Z</time>
      </trkpt>
      <trkpt lat="36.447502" lon="-5.471025">
        <ele>176.22</ele>
        <time>2015-06-20T15:39:07Z</time>
      </trkpt>
      <trkpt lat="36.446769" lon="-5.474639">
        <ele>211.21</ele>
        <time>2015-06-20T15:39:27Z</time>
      </trkpt>
      <trkpt lat="36.447461" lon="-5.474761">
        <ele>207.66</ele>
        <time>2015-06-20T15:39:47Z</time>
      </trkpt>
      <trkpt lat="36.447996" lon="-5.475046">
        <ele>200.18</ele>
        <time>2015-06-20T15:40:07Z</time>
      </trkpt>
      <trkpt lat="36.448599" lon="-5.475054">
        <ele>205.94</ele>
        <time>2015-06-20T15:40:27Z</time>
      </trkpt>
      <trkpt lat="36.449247" lon="-5.475554">
        <ele>194.55</ele>
        <time>2015-06-20T15:40:47Z</time>
      </trkpt>
      <trkpt lat="36.449995" lon="-5.475578">
        <ele>187.47</ele>
        <time>2015-06-20T15:41:07Z</time>
      </trkpt>
      <trkpt lat="36.450484" lon="-5.475872">
        <ele>184.99</ele>
        <time>2015-06-20T15:41:27Z</time>
      </trkpt>
      <trkpt lat="36.451046" lon="-5.475745">
        <ele>188.05</ele>
        <time>2015-06-20T15:41:47Z</time>
      </trkpt>
      <trkpt lat="36.453349" lon="-5.475908">
        <ele>180.24</ele>
        <time>2015-06-20T15:42:07Z</time>
      </trkpt>
      <trkpt lat="36.454736" lon="-5.477291">
        <ele>169.77</ele>
        <time>2015-06-20T15:42:27Z</time>
      </trkpt>
      <trkpt lat="36.455211" lon="-5.477395">
        <ele>172.58</ele>
        <time>2015-06-20T15:42:47Z</time>
      </trkpt>
      <trkpt lat="36.455649" lon="-5.478023">
        <ele>167.02</ele>
        <time>2015-06-20T15:43:07Z</time>
      </trkpt>
      <trkpt lat="36.456631" lon="-5.478489">
        <ele>168.51</ele>
        <time>2015-06-20T15:43:27Z</time>
      </trkpt>
      <trkpt lat="36.456414" lon="-5.479821">
        <ele>165.48</ele>
        <time>2015-06-20T15:43:47Z</time>
      </trkpt>
      <trkpt lat="36.456598" lon="-5.481378">
        <ele>168.63</ele>
        <time>2015-06-20T15:44:07Z</time>
      </trkpt>
      <trkpt lat="36.456149" lon="-5.482580">
        <ele>167.06</ele>
        <time>2015-06-20T15:44:27Z</time>
      </trkpt>
      <trkpt lat="36.456711" lon="-5.484572">
        <ele>162.30</ele>
        <time>2015-06-20T15:44:47Z</time>
      </trkpt>
      <trkpt lat="36.456714" lon="-5.485331">
        <ele>155.71</ele>
        <time>2015-06-20T15:45:07Z</time>
      </trkpt>
      <trkpt lat="36.457762" lon="-5.486514">
        <ele>158.26</ele>
        <time>2015-06-20T15:45:27Z</time>
      </trkpt>
      <trkpt lat="36.458580" lon="-5.487042">
        <ele>158.36</ele>
        <time>2015-06-20T15:45:47Z</time>
      </trkpt>
      <trkpt lat="36.458948" lon="-5.487946">
        <ele>148.99</ele>
        <time>2015-06-20T15:46:07Z</time>
      </trkpt>
      <trkpt lat="36.460102" lon="-5.488396">
        <ele>154.58</ele>
        <time>2015-06-20T15:46:27Z</time>
      </trkpt>
      <trkpt lat="36.460435" lon="-5.488831">
        <ele>147.21</ele>
        <time>2015-06-20T15:46:47Z</time>
      </trkpt>
      <trkpt lat="36.461701" lon="-5.489061">
        <ele>142.92</ele>
        <time>2015-06-20T15:47:07Z</time>
      </trkpt>
      <trkpt lat="36.462218" lon="-5.488910">
        <ele>156.01</ele>
        <time>2015-06-20T15:47:27Z</time>
      </trkpt>
      <trkpt lat="36.462735" lon="-5.489194">
        <ele>142.42</ele>
        <time>2015-06-20T15:47:47Z</time>
      </trkpt>
      <trkpt lat="36.463879" lon="-5.489231">
        <ele>146.54</ele>
        <time>2015-06-20T15:48:07Z</time>
      </trkpt>
      <trkpt lat="36.464715" lon="-5.490195">
        <ele>137.24</ele>
        <time>2015-06-20T15:48:27Z</time>
      </trkpt>
      <trkpt lat="36.465562" lon="-5.490188">
        <ele>132.92</ele>
        <time>2015-06-20T15:48:47Z</time>
      </trkpt>
      <trkpt lat="36.466313" lon="-5.490480">
        <ele>127.17</ele>
        <time>2015-06-20T15:49:07Z</time>
      </trkpt>
      <trkpt lat="36.466849" lon="-5.489861">
        <ele>126.83</ele>
        <time>2015-06-20T15:49:27Z</time>
      </trkpt>
      <trkpt lat="36.467778" lon="-5.490226">
        <ele>125.22</ele>
        <time>2015-06-20T15:49:47Z</time>
      </trkpt>
      <trkpt lat="36.467512" lon="-5.492204">
        <ele>124.62</ele>
        <time>2015-06-20T15:50:07Z</time>
      </trkpt>
      <trkpt lat="36.470633" lon="-5.493777">
        <ele>143.09</ele>
        <time>2015-06-20T15:50:27Z</time>
      </trkpt>
      <trkpt lat="36.471716" lon="-5.493287">
        <ele>148.02</ele>
        <time>2015-06-20T15:50:47Z</time>
      </trkpt>
      <trkpt lat="36.472487" lon="-5.494372">
        <ele>155.33</ele>
        <time>2015-06-20T15:51:07Z</time>
      </trkpt>
      <trkpt lat="36.472567" lon="-5.495256">
        <ele>153.91</ele>
        <time>2015-06-20T15:51:27Z</time>
      </trkpt>
      <trkpt lat="36.472328" lon="-5.496364">
        <ele>155.87</ele>
        <time>2015-06-20T15:51:47Z</time>
      </trkpt>
      <trkpt lat="36.472834" lon="-5.497597">
        <ele>161.45</ele>
        <time>2015-06-20T15:52:07Z</time>
      </trkpt>
      <trkpt lat="36.473435" lon="-5.498141">
        <ele>168.13</ele>
        <time>2015-06-20T15:52:27Z</time>
      </trkpt>
      <trkpt lat="36.473219" lon="-5.499428">
        <ele>162.21</ele>
        <time>2015-06-20T15:52:47Z</time>
      </trkpt>
      <trkpt lat="36.472195" lon="-5.500109">
        <ele>157.66</ele>
        <time>2015-06-20T15:53:07Z</time>
      </trkpt>
      <trkpt lat="36.472167" lon="-5.501448">
        <ele>162.98</ele>
        <time>2015-06-20T15:53:27Z</time>
      </trkpt>
      <trkpt lat="36.472335" lon="-5.502044">
        <ele>172.75</ele>
        <time>2015-06-20T15:53:47Z</time>
      </trkpt>
      <trkpt lat="36.472031" lon="-5.503206">
        <ele>172.89</ele>
        <time>2015-06-20T15:54:07Z</time>
      </trkpt>
      <trkpt lat="36.471868" lon="-5.505411">
        <ele>180.90</ele>
        <time>2015-06-20T15:54:27Z</time>
      </trkpt>
      <trkpt lat="36.472051" lon="-5.505707">
        <ele>182.05</ele>
        <time>2015-06-20T15:54:47Z</time>
      </trkpt>
      <trkpt lat="36.473266" lon="-5.505344">
        <ele>190.02</ele>
        <time>2015-06-20T15:55:07Z</time>
      </trkpt>
      <trkpt lat="36.473746" lon="-5.504824">
        <ele>199.01</ele>
        <time>2015-06-20T15:55:27Z</time>
      </trkpt>
      <trkpt lat="36.475265" lon="-5.504996">
        <ele>209.03</ele>
        <time>2015-06-20T15:55:47Z</time>
      </trkpt>
      <trkpt lat="36.476365" lon="-5.504573">
        <ele>218.08</ele>
        <time>2015-06-20T15:56:07Z</time>
      </trkpt>
      <trkpt lat="36.476678" lon="-5.504662">
        <ele>220.58</ele>
        <time>2015-06-20T15:56:27Z</time>
      </trkpt>
      <trkpt lat="36.477300" lon="-5.505530">
        <ele>216.71</ele>
        <time>2015-06-20T15:56:47Z</time>
      </trkpt>
      <trkpt lat="36.477828" lon="-5.505692">
        <ele>220.74</ele>
        <time>2015-06-20T15:57:07Z</time>
      </trkpt>
      <trkpt lat="36.479000" lon="-5.504848">
        <ele>231.34</ele>
        <time>2015-06-20T15:57:27Z</time>
      </trkpt>
      <trkpt lat="36.480032" lon="-5.505875">
        <ele>229.76</ele>
        <time>2015-06-20T15:57:47Z</time>
      </trkpt>
      <trkpt lat="36.480887" lon="-5.505121">
        <ele>234.57</ele>
        <time>2015-06-20T15:58:07Z</time>
      </trkpt>
      <trkpt lat="36.482228" lon="-5.505164">
        <ele>231.52</ele>
        <time>2015-06-20T15:58:27Z</time>
      </trkpt>
      <trkpt lat="36.481247" lon="-5.505252">
        <ele>231.43</ele>
        <time>2015-06-20T15:58:28Z</time>
      </trkpt>
      <trkpt lat="36.481271" lon="-5.505259">
        <ele>231.31</ele>
        <time>2015-06-20T15:58:29Z</time>
      </trkpt>
      <trkpt lat="36.481325" lon="-5.505275">
        <ele>231.06</ele>
        <time>2015-06-20T15:58:31Z</time>
      </trkpt>
      <trkpt lat="36.481356" lon="-5.505282">
        <ele>230.98</ele>
        <time>2015-06-20T15:58:32Z</time>
      </trkpt>
      <trkpt lat="36.481386" lon="-5.505284">
        <ele>230.96</ele>
        <time>2015-06-20T15:58:33Z</time>
      </trkpt>
      <trkpt lat="36.481418" lon="-5.505286">
        <ele>231.10</ele>
        <time>2015-06-20T15:58:34Z</time>
      </trkpt>
      <trkpt lat="36.481451" lon="-5.505285">
        <ele>231.12</ele>
        <time>2015-06-20T15:58:35Z</time>
      </trkpt>
      <trkpt lat="36.481483" lon="-5.505284">
        <ele>231.28</ele>
        <time>2015-06-20T15:58:36Z</time>
      </trkpt>
      <trkpt lat="36.481517" lon="-5.505283">
        <ele>231.46</ele>
        <time>2015-06-20T15:58:37Z</time>
      </trkpt>
      <trkpt lat="36.481549" lon="-5.505279">
        <ele>231.54</ele>
        <time>2015-06-20T15:58:38Z</time>
      </trkpt>
      <trkpt lat="36.481583" lon="-5.505271">
        <ele>231.83</ele>
        <time>2015-06-20T15:58:39Z</time>
      </trkpt>
      <trkpt lat="36.481693" lon="-5.505248">
        <ele>231.96</ele>
        <time>2015-06-20T15:58:42Z</time>
      </trkpt>
      <trkpt lat="36.482024" lon="-5.505191">
        <ele>229.71</ele>
        <time>2015-06-20T15:58:50Z</time>
      </trkpt>
      <trkpt lat="36.482071" lon="-5.505198">
        <ele>229.81</ele>
        <time>2015-06-20T15:58:51Z</time>
      </trkpt>
      <trkpt lat="36.482121" lon="-5.505212">
        <ele>229.82</ele>
        <time>2015-06-20T15:58:52Z</time>
      </trkpt>
      <trkpt lat="36.482170" lon="-5.505237">
        <ele>229.57</ele>
        <time>2015-06-20T15:58:53Z</time>
      </trkpt>
      <trkpt lat="36.482218" lon="-5.505273">
        <ele>229.11</ele>
        <time>2015-06-20T15:58:54Z</time>
      </trkpt>
      <trkpt lat="36.482269" lon="-5.505314">
        <ele>228.57</ele>
        <time>2015-06-20T15:58:55Z</time>
      </trkpt>
      <trkpt lat="36.482474" lon="-5.505494">
        <ele>226.31</ele>
        <time>2015-06-20T15:58:59Z</time>
      </trkpt>
      <trkpt lat="36.482528" lon="-5.505536">
        <ele>225.92</ele>
        <time>2015-06-20T15:59:00Z</time>
      </trkpt>
      <trkpt lat="36.482589" lon="-5.505565">
        <ele>225.67</ele>
        <time>2015-06-20T15:59:01Z</time>
      </trkpt>
      <trkpt lat="36.482650" lon="-5.505582">
        <ele>225.83</ele>
        <time>2015-06-20T15:59:02Z</time>
      </trkpt>
      <trkpt lat="36.482715" lon="-5.505597">
        <ele>226.14</ele>
        <time>2015-06-20T15:59:03Z</time>
      </trkpt>
      <trkpt lat="36.482776" lon="-5.505613">
        <ele>226.30</ele>
        <time>2015-06-20T15:59:04Z</time>
      </trkpt>
      <trkpt lat="36.482833" lon="-5.505635">
        <ele>226.22</ele>
        <time>2015-06-20T15:59:05Z</time>
      </trkpt>
      <trkpt lat="36.482992" lon="-5.505714">
        <ele>225.41</ele>
        <time>2015-06-20T15:59:08Z</time>
      </trkpt>
      <trkpt lat="36.483040" lon="-5.505752">
        <ele>224.96</ele>
        <time>2015-06-20T15:59:09Z</time>
      </trkpt>
      <trkpt lat="36.483216" lon="-5.505916">
        <ele>225.38</ele>
        <time>2015-06-20T15:59:13Z</time>
      </trkpt>
      <trkpt lat="36.483330" lon="-5.506030">
        <ele>226.46</ele>
        <time>2015-06-20T15:59:16Z</time>
      </trkpt>
      <trkpt lat="36.483390" lon="-5.506111">
        <ele>226.83</ele>
        <time>2015-06-20T15:59:18Z</time>
      </trkpt>
      <trkpt lat="36.483408" lon="-5.506159">
        <ele>226.77</ele>
        <time>2015-06-20T15:59:19Z</time>
      </trkpt>
      <trkpt lat="36.483457" lon="-5.506318">
        <ele>225.71</ele>
        <time>2015-06-20T15:59:22Z</time>
      </trkpt>
      <trkpt lat="36.483475" lon="-5.506476">
        <ele>224.66</ele>
        <time>2015-06-20T15:59:25Z</time>
      </trkpt>
      <trkpt lat="36.483485" lon="-5.506657">
        <ele>224.02</ele>
        <time>2015-06-20T15:59:29Z</time>
      </trkpt>
      <trkpt lat="36.483501" lon="-5.506801">
        <ele>223.35</ele>
        <time>2015-06-20T15:59:32Z</time>
      </trkpt>
      <trkpt lat="36.483522" lon="-5.506898">
        <ele>223.21</ele>
        <time>2015-06-20T15:59:34Z</time>
      </trkpt>
      <trkpt lat="36.483591" lon="-5.507032">
        <ele>223.72</ele>
        <time>2015-06-20T15:59:37Z</time>
      </trkpt>
      <trkpt lat="36.483650" lon="-5.507105">
        <ele>224.31</ele>
        <time>2015-06-20T15:59:39Z</time>
      </trkpt>
      <trkpt lat="36.483682" lon="-5.507140">
        <ele>224.72</ele>
        <time>2015-06-20T15:59:40Z</time>
      </trkpt>
      <trkpt lat="36.483768" lon="-5.507234">
        <ele>225.88</ele>
        <time>2015-06-20T15:59:43Z</time>
      </trkpt>
      <trkpt lat="36.483965" lon="-5.507390">
        <ele>227.66</ele>
        <time>2015-06-20T15:59:50Z</time>
      </trkpt>
      <trkpt lat="36.483991" lon="-5.507406">
        <ele>227.81</ele>
        <time>2015-06-20T15:59:51Z</time>
      </trkpt>
      <trkpt lat="36.484096" lon="-5.507456">
        <ele>228.82</ele>
        <time>2015-06-20T15:59:55Z</time>
      </trkpt>
      <trkpt lat="36.484178" lon="-5.507475">
        <ele>230.07</ele>
        <time>2015-06-20T15:59:58Z</time>
      </trkpt>
      <trkpt lat="36.484297" lon="-5.507478">
        <ele>232.12</ele>
        <time>2015-06-20T16:00:02Z</time>
      </trkpt>
      <trkpt lat="36.484328" lon="-5.507479">
        <ele>232.64</ele>
        <time>2015-06-20T16:00:03Z</time>
      </trkpt>
      <trkpt lat="36.484357" lon="-5.507482">
        <ele>233.12</ele>
        <time>2015-06-20T16:00:04Z</time>
      </trkpt>
      <trkpt lat="36.484387" lon="-5.507486">
        <ele>233.51</ele>
        <time>2015-06-20T16:00:05Z</time>
      </trkpt>
      <trkpt lat="36.484414" lon="-5.507490">
        <ele>233.82</ele>
        <time>2015-06-20T16:00:06Z</time>
      </trkpt>
      <trkpt lat="36.484441" lon="-5.507493">
        <ele>234.21</ele>
        <time>2015-06-20T16:00:07Z</time>
      </trkpt>
      <trkpt lat="36.484570" lon="-5.507520">
        <ele>235.89</ele>
        <time>2015-06-20T16:00:12Z</time>
      </trkpt>
      <trkpt lat="36.484743" lon="-5.507593">
        <ele>236.38</ele>
        <time>2015-06-20T16:00:19Z</time>
      </trkpt>
      <trkpt lat="36.484765" lon="-5.507602">
        <ele>236.32</ele>
        <time>2015-06-20T16:00:20Z</time>
      </trkpt>
      <trkpt lat="36.484787" lon="-5.507611">
        <ele>236.36</ele>
        <time>2015-06-20T16:00:21Z</time>
      </trkpt>
      <trkpt lat="36.484808" lon="-5.507622">
        <ele>236.29</ele>
        <time>2015-06-20T16:00:22Z</time>
      </trkpt>
      <trkpt lat="36.484829" lon="-5.507633">
        <ele>236.21</ele>
        <time>2015-06-20T16:00:23Z</time>
      </trkpt>
      <trkpt lat="36.484920" lon="-5.507683">
        <ele>236.00</ele>
        <time>2015-06-20T16:00:27Z</time>
      </trkpt>
      <trkpt lat="36.485068" lon="-5.507722">
        <ele>237.46</ele>
        <time>2015-06-20T16:00:33Z</time>
      </trkpt>
      <trkpt lat="36.485095" lon="-5.507732">
        <ele>237.67</ele>
        <time>2015-06-20T16:00:34Z</time>
      </trkpt>
      <trkpt lat="36.485118" lon="-5.507745">
        <ele>237.78</ele>
        <time>2015-06-20T16:00:35Z</time>
      </trkpt>
      <trkpt lat="36.485142" lon="-5.507759">
        <ele>237.72</ele>
        <time>2015-06-20T16:00:36Z</time>
      </trkpt>
      <trkpt lat="36.485166" lon="-5.507772">
        <ele>237.81</ele>
        <time>2015-06-20T16:00:37Z</time>
      </trkpt>
      <trkpt lat="36.485191" lon="-5.507786">
        <ele>237.87</ele>
        <time>2015-06-20T16:00:38Z</time>
      </trkpt>
      <trkpt lat="36.485346" lon="-5.507862">
        <ele>237.74</ele>
        <time>2015-06-20T16:00:44Z</time>
      </trkpt>
      <trkpt lat="36.485369" lon="-5.507874">
        <ele>237.72</ele>
        <time>2015-06-20T16:00:45Z</time>
      </trkpt>
      <trkpt lat="36.485529" lon="-5.507960">
        <ele>237.84</ele>
        <time>2015-06-20T16:00:51Z</time>
      </trkpt>
      <trkpt lat="36.485559" lon="-5.507973">
        <ele>238.14</ele>
        <time>2015-06-20T16:00:52Z</time>
      </trkpt>
      <trkpt lat="36.485589" lon="-5.507988">
        <ele>238.28</ele>
        <time>2015-06-20T16:00:53Z</time>
      </trkpt>
      <trkpt lat="36.485621" lon="-5.508001">
        <ele>238.54</ele>
        <time>2015-06-20T16:00:54Z</time>
      </trkpt>
      <trkpt lat="36.485820" lon="-5.508065">
        <ele>240.38</ele>
        <time>2015-06-20T16:01:00Z</time>
      </trkpt>
      <trkpt lat="36.486037" lon="-5.508108">
        <ele>238.99</ele>
        <time>2015-06-20T16:01:06Z</time>
      </trkpt>
      <trkpt lat="36.486309" lon="-5.508129">
        <ele>238.61</ele>
        <time>2015-06-20T16:01:13Z</time>
      </trkpt>
      <trkpt lat="36.486347" lon="-5.508138">
        <ele>238.33</ele>
        <time>2015-06-20T16:01:14Z</time>
      </trkpt>
      <trkpt lat="36.486386" lon="-5.508151">
        <ele>237.91</ele>
        <time>2015-06-20T16:01:15Z</time>
      </trkpt>
      <trkpt lat="36.486423" lon="-5.508170">
        <ele>237.48</ele>
        <time>2015-06-20T16:01:16Z</time>
      </trkpt>
      <trkpt lat="36.486551" lon="-5.508222">
        <ele>236.82</ele>
        <time>2015-06-20T16:01:19Z</time>
      </trkpt>
      <trkpt lat="36.486595" lon="-5.508242">
        <ele>236.79</ele>
        <time>2015-06-20T16:01:20Z</time>
      </trkpt>
      <trkpt lat="36.486828" lon="-5.508336">
        <ele>237.28</ele>
        <time>2015-06-20T16:01:25Z</time>
      </trkpt>
      <trkpt lat="36.486987" lon="-5.508386">
        <ele>237.69</ele>
        <time>2015-06-20T16:01:28Z</time>
      </trkpt>
      <trkpt lat="36.487168" lon="-5.508418">
        <ele>236.95</ele>
        <time>2015-06-20T16:01:31Z</time>
      </trkpt>
      <trkpt lat="36.487308" lon="-5.508413">
        <ele>236.76</ele>
        <time>2015-06-20T16:01:33Z</time>
      </trkpt>
      <trkpt lat="36.487381" lon="-5.508406">
        <ele>236.60</ele>
        <time>2015-06-20T16:01:34Z</time>
      </trkpt>
      <trkpt lat="36.487453" lon="-5.508400">
        <ele>236.34</ele>
        <time>2015-06-20T16:01:35Z</time>
      </trkpt>
      <trkpt lat="36.487528" lon="-5.508400">
        <ele>236.08</ele>
        <time>2015-06-20T16:01:36Z</time>
      </trkpt>
      <trkpt lat="36.487605" lon="-5.508403">
        <ele>235.71</ele>
        <time>2015-06-20T16:01:37Z</time>
      </trkpt>
      <trkpt lat="36.487916" lon="-5.508487">
        <ele>234.51</ele>
        <time>2015-06-20T16:01:41Z</time>
      </trkpt>
      <trkpt lat="36.487991" lon="-5.508524">
        <ele>234.57</ele>
        <time>2015-06-20T16:01:42Z</time>
      </trkpt>
      <trkpt lat="36.488063" lon="-5.508565">
        <ele>234.72</ele>
        <time>2015-06-20T16:01:43Z</time>
      </trkpt>
      <trkpt lat="36.488130" lon="-5.508614">
        <ele>234.88</ele>
        <time>2015-06-20T16:01:44Z</time>
      </trkpt>
      <trkpt lat="36.488194" lon="-5.508669">
        <ele>234.59</ele>
        <time>2015-06-20T16:01:45Z</time>
      </trkpt>
      <trkpt lat="36.488248" lon="-5.508736">
        <ele>233.83</ele>
        <time>2015-06-20T16:01:46Z</time>
      </trkpt>
      <trkpt lat="36.488335" lon="-5.508890">
        <ele>232.10</ele>
        <time>2015-06-20T16:01:48Z</time>
      </trkpt>
      <trkpt lat="36.488371" lon="-5.508971">
        <ele>231.71</ele>
        <time>2015-06-20T16:01:49Z</time>
      </trkpt>
      <trkpt lat="36.488402" lon="-5.509053">
        <ele>231.25</ele>
        <time>2015-06-20T16:01:50Z</time>
      </trkpt>
      <trkpt lat="36.488434" lon="-5.509135">
        <ele>230.87</ele>
        <time>2015-06-20T16:01:51Z</time>
      </trkpt>
      <trkpt lat="36.488465" lon="-5.509218">
        <ele>230.56</ele>
        <time>2015-06-20T16:01:52Z</time>
      </trkpt>
      <trkpt lat="36.488496" lon="-5.509299">
        <ele>230.52</ele>
        <time>2015-06-20T16:01:53Z</time>
      </trkpt>
      <trkpt lat="36.488530" lon="-5.509380">
        <ele>230.61</ele>
        <time>2015-06-20T16:01:54Z</time>
      </trkpt>
      <trkpt lat="36.488561" lon="-5.509453">
        <ele>230.85</ele>
        <time>2015-06-20T16:01:55Z</time>
      </trkpt>
      <trkpt lat="36.488610" lon="-5.509589">
        <ele>230.99</ele>
        <time>2015-06-20T16:01:57Z</time>
      </trkpt>
      <trkpt lat="36.488740" lon="-5.509867">
        <ele>229.99</ele>
        <time>2015-06-20T16:02:02Z</time>
      </trkpt>
      <trkpt lat="36.488772" lon="-5.509911">
        <ele>229.82</ele>
        <time>2015-06-20T16:02:03Z</time>
      </trkpt>
      <trkpt lat="36.488810" lon="-5.509943">
        <ele>230.17</ele>
        <time>2015-06-20T16:02:04Z</time>
      </trkpt>
      <trkpt lat="36.488936" lon="-5.510021">
        <ele>231.35</ele>
        <time>2015-06-20T16:02:07Z</time>
      </trkpt>
      <trkpt lat="36.489136" lon="-5.510074">
        <ele>233.33</ele>
        <time>2015-06-20T16:02:11Z</time>
      </trkpt>
      <trkpt lat="36.489191" lon="-5.510083">
        <ele>233.88</ele>
        <time>2015-06-20T16:02:12Z</time>
      </trkpt>
      <trkpt lat="36.489403" lon="-5.510126">
        <ele>233.76</ele>
        <time>2015-06-20T16:02:16Z</time>
      </trkpt>
      <trkpt lat="36.489510" lon="-5.510133">
        <ele>233.15</ele>
        <time>2015-06-20T16:02:18Z</time>
      </trkpt>
      <trkpt lat="36.489563" lon="-5.510133">
        <ele>232.62</ele>
        <time>2015-06-20T16:02:19Z</time>
      </trkpt>
      <trkpt lat="36.489614" lon="-5.510126">
        <ele>232.41</ele>
        <time>2015-06-20T16:02:20Z</time>
      </trkpt>
      <trkpt lat="36.489665" lon="-5.510114">
        <ele>232.50</ele>
        <time>2015-06-20T16:02:21Z</time>
      </trkpt>
      <trkpt lat="36.489714" lon="-5.510100">
        <ele>232.53</ele>
        <time>2015-06-20T16:02:22Z</time>
      </trkpt>
      <trkpt lat="36.489765" lon="-5.510084">
        <ele>232.60</ele>
        <time>2015-06-20T16:02:23Z</time>
      </trkpt>
      <trkpt lat="36.489860" lon="-5.510037">
        <ele>233.27</ele>
        <time>2015-06-20T16:02:25Z</time>
      </trkpt>
      <trkpt lat="36.490010" lon="-5.509973">
        <ele>234.10</ele>
        <time>2015-06-20T16:02:28Z</time>
      </trkpt>
      <trkpt lat="36.490339" lon="-5.509902">
        <ele>234.75</ele>
        <time>2015-06-20T16:02:34Z</time>
      </trkpt>
      <trkpt lat="36.490766" lon="-5.509779">
        <ele>233.54</ele>
        <time>2015-06-20T16:02:42Z</time>
      </trkpt>
      <trkpt lat="36.490821" lon="-5.509774">
        <ele>232.64</ele>
        <time>2015-06-20T16:02:43Z</time>
      </trkpt>
      <trkpt lat="36.491033" lon="-5.509829">
        <ele>229.25</ele>
        <time>2015-06-20T16:02:47Z</time>
      </trkpt>
      <trkpt lat="36.491205" lon="-5.509990">
        <ele>227.20</ele>
        <time>2015-06-20T16:02:51Z</time>
      </trkpt>
      <trkpt lat="36.491287" lon="-5.510141">
        <ele>227.11</ele>
        <time>2015-06-20T16:02:54Z</time>
      </trkpt>
      <trkpt lat="36.491335" lon="-5.510233">
        <ele>227.21</ele>
        <time>2015-06-20T16:02:56Z</time>
      </trkpt>
      <trkpt lat="36.491440" lon="-5.510422">
        <ele>226.58</ele>
        <time>2015-06-20T16:03:00Z</time>
      </trkpt>
      <trkpt lat="36.491514" lon="-5.510505">
        <ele>226.18</ele>
        <time>2015-06-20T16:03:02Z</time>
      </trkpt>
      <trkpt lat="36.491701" lon="-5.510614">
        <ele>226.57</ele>
        <time>2015-06-20T16:03:06Z</time>
      </trkpt>
      <trkpt lat="36.491931" lon="-5.510770">
        <ele>226.06</ele>
        <time>2015-06-20T16:03:11Z</time>
      </trkpt>
      <trkpt lat="36.491951" lon="-5.510823">
        <ele>225.38</ele>
        <time>2015-06-20T16:03:12Z</time>
      </trkpt>
      <trkpt lat="36.491977" lon="-5.510902">
        <ele>224.89</ele>
        <time>2015-06-20T16:03:14Z</time>
      </trkpt>
      <trkpt lat="36.491982" lon="-5.510912">
        <ele>224.86</ele>
        <time>2015-06-20T16:03:15Z</time>
      </trkpt>
      <trkpt lat="36.491979" lon="-5.510917">
        <ele>224.73</ele>
        <time>2015-06-20T16:03:16Z</time>
      </trkpt>
      <trkpt lat="36.491979" lon="-5.510917">
        <ele>224.78</ele>
        <time>2015-06-20T16:03:17Z</time>
      </trkpt>
      <trkpt lat="36.491979" lon="-5.510917">
        <ele>224.72</ele>
        <time>2015-06-20T16:03:18Z</time>
      </trkpt>
      <trkpt lat="36.491979" lon="-5.510917">
        <ele>224.72</ele>
        <time>2015-06-20T16:03:19Z</time>
      </trkpt>
      <trkpt lat="36.491979" lon="-5.510917">
        <ele>224.71</ele>
        <time>2015-06-20T16:03:21Z</time>
      </trkpt>
      <trkpt lat="36.491979" lon="-5.510917">
        <ele>224.77</ele>
        <time>2015-06-20T16:03:24Z</time>
      </trkpt>
      <trkpt lat="36.491979" lon="-5.510917">
        <ele>224.79</ele>
        <time>2015-06-20T16:03:30Z</time>
      </trkpt>
      <trkpt lat="36.491979" lon="-5.510917">
        <ele>224.73</ele>
        <time>2015-06-20T16:03:31Z</time>
      </trkpt>
      <trkpt lat="36.491979" lon="-5.510917">
        <ele>224.77</ele>
        <time>2015-06-20T16:03:39Z</time>
      </trkpt>
      <trkpt lat="36.491979" lon="-5.510917">
        <ele>224.75</ele>
        <time>2015-06-20T16:03:45Z</time>
      </trkpt>
      <trkpt lat="36.491991" lon="-5.510921">
        <ele>224.89</ele>
        <time>2015-06-20T16:03:50Z</time>
      </trkpt>
      <trkpt lat="36.491991" lon="-5.510921">
        <ele>224.84</ele>
        <time>2015-06-20T16:03:52Z</time>
      </trkpt>
      <trkpt lat="36.492005" lon="-5.510938">
        <ele>224.99</ele>
        <time>2015-06-20T16:03:55Z</time>
      </trkpt>
      <trkpt lat="36.492024" lon="-5.510966">
        <ele>225.06</ele>
        <time>2015-06-20T16:03:57Z</time>
      </trkpt>
      <trkpt lat="36.492115" lon="-5.511110">
        <ele>225.76</ele>
        <time>2015-06-20T16:04:02Z</time>
      </trkpt>
      <trkpt lat="36.492175" lon="-5.511238">
        <ele>226.81</ele>
        <time>2015-06-20T16:04:05Z</time>
      </trkpt>
      <trkpt lat="36.492201" lon="-5.511334">
        <ele>227.41</ele>
        <time>2015-06-20T16:04:07Z</time>
      </trkpt>
      <trkpt lat="36.492210" lon="-5.511383">
        <ele>227.64</ele>
        <time>2015-06-20T16:04:08Z</time>
      </trkpt>
      <trkpt lat="36.492216" lon="-5.511586">
        <ele>227.16</ele>
        <time>2015-06-20T16:04:12Z</time>
      </trkpt>
      <trkpt lat="36.492230" lon="-5.511762">
        <ele>226.54</ele>
        <time>2015-06-20T16:04:16Z</time>
      </trkpt>
      <trkpt lat="36.492228" lon="-5.512040">
        <ele>224.48</ele>
        <time>2015-06-20T16:04:21Z</time>
      </trkpt>
      <trkpt lat="36.492260" lon="-5.512159">
        <ele>224.07</ele>
        <time>2015-06-20T16:04:23Z</time>
      </trkpt>
      <trkpt lat="36.492290" lon="-5.512222">
        <ele>223.80</ele>
        <time>2015-06-20T16:04:24Z</time>
      </trkpt>
      <trkpt lat="36.492324" lon="-5.512285">
        <ele>223.34</ele>
        <time>2015-06-20T16:04:25Z</time>
      </trkpt>
      <trkpt lat="36.492364" lon="-5.512356">
        <ele>222.88</ele>
        <time>2015-06-20T16:04:26Z</time>
      </trkpt>
      <trkpt lat="36.492407" lon="-5.512431">
        <ele>222.22</ele>
        <time>2015-06-20T16:04:27Z</time>
      </trkpt>
      <trkpt lat="36.492497" lon="-5.512594">
        <ele>220.70</ele>
        <time>2015-06-20T16:04:29Z</time>
      </trkpt>
      <trkpt lat="36.492545" lon="-5.512680">
        <ele>220.02</ele>
        <time>2015-06-20T16:04:30Z</time>
      </trkpt>
      <trkpt lat="36.492600" lon="-5.512774">
        <ele>219.51</ele>
        <time>2015-06-20T16:04:31Z</time>
      </trkpt>
      <trkpt lat="36.492655" lon="-5.512864">
        <ele>218.71</ele>
        <time>2015-06-20T16:04:32Z</time>
      </trkpt>
      <trkpt lat="36.492718" lon="-5.512953">
        <ele>218.08</ele>
        <time>2015-06-20T16:04:33Z</time>
      </trkpt>
      <trkpt lat="36.492787" lon="-5.513044">
        <ele>217.39</ele>
        <time>2015-06-20T16:04:34Z</time>
      </trkpt>
      <trkpt lat="36.492862" lon="-5.513127">
        <ele>216.18</ele>
        <time>2015-06-20T16:04:35Z</time>
      </trkpt>
      <trkpt lat="36.492943" lon="-5.513197">
        <ele>215.19</ele>
        <time>2015-06-20T16:04:36Z</time>
      </trkpt>
      <trkpt lat="36.493029" lon="-5.513258">
        <ele>214.46</ele>
        <time>2015-06-20T16:04:37Z</time>
      </trkpt>
      <trkpt lat="36.493130" lon="-5.513312">
        <ele>213.59</ele>
        <time>2015-06-20T16:04:38Z</time>
      </trkpt>
      <trkpt lat="36.493226" lon="-5.513359">
        <ele>212.48</ele>
        <time>2015-06-20T16:04:39Z</time>
      </trkpt>
      <trkpt lat="36.493329" lon="-5.513401">
        <ele>211.57</ele>
        <time>2015-06-20T16:04:40Z</time>
      </trkpt>
      <trkpt lat="36.493437" lon="-5.513440">
        <ele>211.36</ele>
        <time>2015-06-20T16:04:41Z</time>
      </trkpt>
      <trkpt lat="36.493545" lon="-5.513476">
        <ele>211.12</ele>
        <time>2015-06-20T16:04:42Z</time>
      </trkpt>
      <trkpt lat="36.493659" lon="-5.513508">
        <ele>210.71</ele>
        <time>2015-06-20T16:04:43Z</time>
      </trkpt>
      <trkpt lat="36.493772" lon="-5.513540">
        <ele>209.92</ele>
        <time>2015-06-20T16:04:44Z</time>
      </trkpt>
      <trkpt lat="36.493887" lon="-5.513570">
        <ele>209.28</ele>
        <time>2015-06-20T16:04:45Z</time>
      </trkpt>
      <trkpt lat="36.494011" lon="-5.513595">
        <ele>208.60</ele>
        <time>2015-06-20T16:04:46Z</time>
      </trkpt>
      <trkpt lat="36.494130" lon="-5.513619">
        <ele>207.79</ele>
        <time>2015-06-20T16:04:47Z</time>
      </trkpt>
      <trkpt lat="36.494251" lon="-5.513637">
        <ele>206.98</ele>
        <time>2015-06-20T16:04:48Z</time>
      </trkpt>
      <trkpt lat="36.494374" lon="-5.513657">
        <ele>206.05</ele>
        <time>2015-06-20T16:04:49Z</time>
      </trkpt>
      <trkpt lat="36.494500" lon="-5.513679">
        <ele>205.46</ele>
        <time>2015-06-20T16:04:50Z</time>
      </trkpt>
      <trkpt lat="36.494626" lon="-5.513708">
        <ele>205.10</ele>
        <time>2015-06-20T16:04:51Z</time>
      </trkpt>
      <trkpt lat="36.494749" lon="-5.513742">
        <ele>204.28</ele>
        <time>2015-06-20T16:04:52Z</time>
      </trkpt>
      <trkpt lat="36.494881" lon="-5.513786">
        <ele>202.83</ele>
        <time>2015-06-20T16:04:53Z</time>
      </trkpt>
      <trkpt lat="36.495005" lon="-5.513828">
        <ele>201.53</ele>
        <time>2015-06-20T16:04:54Z</time>
      </trkpt>
      <trkpt lat="36.495134" lon="-5.513868">
        <ele>200.11</ele>
        <time>2015-06-20T16:04:55Z</time>
      </trkpt>
      <trkpt lat="36.495260" lon="-5.513911">
        <ele>198.57</ele>
        <time>2015-06-20T16:04:56Z</time>
      </trkpt>
      <trkpt lat="36.495394" lon="-5.513950">
        <ele>197.34</ele>
        <time>2015-06-20T16:04:57Z</time>
      </trkpt>
      <trkpt lat="36.495529" lon="-5.513983">
        <ele>196.10</ele>
        <time>2015-06-20T16:04:58Z</time>
      </trkpt>
      <trkpt lat="36.495662" lon="-5.514017">
        <ele>194.90</ele>
        <time>2015-06-20T16:04:59Z</time>
      </trkpt>
      <trkpt lat="36.495797" lon="-5.514051">
        <ele>193.76</ele>
        <time>2015-06-20T16:05:00Z</time>
      </trkpt>
      <trkpt lat="36.495935" lon="-5.514091">
        <ele>193.23</ele>
        <time>2015-06-20T16:05:01Z</time>
      </trkpt>
      <trkpt lat="36.496061" lon="-5.514131">
        <ele>192.88</ele>
        <time>2015-06-20T16:05:02Z</time>
      </trkpt>
      <trkpt lat="36.496189" lon="-5.514174">
        <ele>192.09</ele>
        <time>2015-06-20T16:05:03Z</time>
      </trkpt>
      <trkpt lat="36.496314" lon="-5.514212">
        <ele>191.16</ele>
        <time>2015-06-20T16:05:04Z</time>
      </trkpt>
      <trkpt lat="36.496439" lon="-5.514247">
        <ele>190.25</ele>
        <time>2015-06-20T16:05:05Z</time>
      </trkpt>
      <trkpt lat="36.496561" lon="-5.514299">
        <ele>188.82</ele>
        <time>2015-06-20T16:05:06Z</time>
      </trkpt>
      <trkpt lat="36.496679" lon="-5.514378">
        <ele>187.11</ele>
        <time>2015-06-20T16:05:07Z</time>
      </trkpt>
      <trkpt lat="36.496786" lon="-5.514467">
        <ele>186.28</ele>
        <time>2015-06-20T16:05:08Z</time>
      </trkpt>
      <trkpt lat="36.496891" lon="-5.514572">
        <ele>185.58</ele>
        <time>2015-06-20T16:05:09Z</time>
      </trkpt>
      <trkpt lat="36.496979" lon="-5.514670">
        <ele>184.49</ele>
        <time>2015-06-20T16:05:10Z</time>
      </trkpt>
      <trkpt lat="36.497067" lon="-5.514761">
        <ele>182.94</ele>
        <time>2015-06-20T16:05:11Z</time>
      </trkpt>
      <trkpt lat="36.497160" lon="-5.514838">
        <ele>181.63</ele>
        <time>2015-06-20T16:05:12Z</time>
      </trkpt>
      <trkpt lat="36.497269" lon="-5.514892">
        <ele>181.08</ele>
        <time>2015-06-20T16:05:13Z</time>
      </trkpt>
      <trkpt lat="36.497383" lon="-5.514908">
        <ele>181.12</ele>
        <time>2015-06-20T16:05:14Z</time>
      </trkpt>
      <trkpt lat="36.497501" lon="-5.514900">
        <ele>181.91</ele>
        <time>2015-06-20T16:05:15Z</time>
      </trkpt>
      <trkpt lat="36.497624" lon="-5.514891">
        <ele>180.31</ele>
        <time>2015-06-20T16:05:16Z</time>
      </trkpt>
      <trkpt lat="36.497743" lon="-5.514869">
        <ele>179.24</ele>
        <time>2015-06-20T16:05:17Z</time>
      </trkpt>
      <trkpt lat="36.497861" lon="-5.514846">
        <ele>178.51</ele>
        <time>2015-06-20T16:05:18Z</time>
      </trkpt>
      <trkpt lat="36.497980" lon="-5.514828">
        <ele>177.61</ele>
        <time>2015-06-20T16:05:19Z</time>
      </trkpt>
      <trkpt lat="36.498108" lon="-5.514822">
        <ele>177.33</ele>
        <time>2015-06-20T16:05:20Z</time>
      </trkpt>
      <trkpt lat="36.498225" lon="-5.514826">
        <ele>178.29</ele>
        <time>2015-06-20T16:05:21Z</time>
      </trkpt>
      <trkpt lat="36.498343" lon="-5.514834">
        <ele>178.95</ele>
        <time>2015-06-20T16:05:22Z</time>
      </trkpt>
      <trkpt lat="36.498463" lon="-5.514844">
        <ele>178.14</ele>
        <time>2015-06-20T16:05:23Z</time>
      </trkpt>
      <trkpt lat="36.498584" lon="-5.514853">
        <ele>177.45</ele>
        <time>2015-06-20T16:05:24Z</time>
      </trkpt>
      <trkpt lat="36.498707" lon="-5.514871">
        <ele>175.41</ele>
        <time>2015-06-20T16:05:25Z</time>
      </trkpt>
      <trkpt lat="36.498823" lon="-5.514889">
        <ele>173.27</ele>
        <time>2015-06-20T16:05:26Z</time>
      </trkpt>
      <trkpt lat="36.498936" lon="-5.514895">
        <ele>171.11</ele>
        <time>2015-06-20T16:05:27Z</time>
      </trkpt>
      <trkpt lat="36.499047" lon="-5.514885">
        <ele>169.19</ele>
        <time>2015-06-20T16:05:28Z</time>
      </trkpt>
      <trkpt lat="36.499154" lon="-5.514853">
        <ele>168.16</ele>
        <time>2015-06-20T16:05:29Z</time>
      </trkpt>
      <trkpt lat="36.499265" lon="-5.514798">
        <ele>168.72</ele>
        <time>2015-06-20T16:05:30Z</time>
      </trkpt>
      <trkpt lat="36.499364" lon="-5.514728">
        <ele>169.91</ele>
        <time>2015-06-20T16:05:31Z</time>
      </trkpt>
      <trkpt lat="36.499469" lon="-5.514671">
        <ele>170.74</ele>
        <time>2015-06-20T16:05:32Z</time>
      </trkpt>
      <trkpt lat="36.499572" lon="-5.514644">
        <ele>170.56</ele>
        <time>2015-06-20T16:05:33Z</time>
      </trkpt>
      <trkpt lat="36.499680" lon="-5.514635">
        <ele>169.50</ele>
        <time>2015-06-20T16:05:34Z</time>
      </trkpt>
      <trkpt lat="36.499789" lon="-5.514643">
        <ele>167.78</ele>
        <time>2015-06-20T16:05:35Z</time>
      </trkpt>
      <trkpt lat="36.499900" lon="-5.514663">
        <ele>165.54</ele>
        <time>2015-06-20T16:05:36Z</time>
      </trkpt>
      <trkpt lat="36.500012" lon="-5.514685">
        <ele>163.42</ele>
        <time>2015-06-20T16:05:37Z</time>
      </trkpt>
      <trkpt lat="36.500130" lon="-5.514698">
        <ele>163.76</ele>
        <time>2015-06-20T16:05:38Z</time>
      </trkpt>
      <trkpt lat="36.500242" lon="-5.514708">
        <ele>164.24</ele>
        <time>2015-06-20T16:05:39Z</time>
      </trkpt>
      <trkpt lat="36.500352" lon="-5.514718">
        <ele>164.20</ele>
        <time>2015-06-20T16:05:40Z</time>
      </trkpt>
      <trkpt lat="36.500463" lon="-5.514729">
        <ele>163.82</ele>
        <time>2015-06-20T16:05:41Z</time>
      </trkpt>
      <trkpt lat="36.500577" lon="-5.514726">
        <ele>163.82</ele>
        <time>2015-06-20T16:05:42Z</time>
      </trkpt>
      <trkpt lat="36.500692" lon="-5.514710">
        <ele>163.81</ele>
        <time>2015-06-20T16:05:43Z</time>
      </trkpt>
      <trkpt lat="36.500806" lon="-5.514688">
        <ele>163.87</ele>
        <time>2015-06-20T16:05:44Z</time>
      </trkpt>
      <trkpt lat="36.500929" lon="-5.514672">
        <ele>162.36</ele>
        <time>2015-06-20T16:05:45Z</time>
      </trkpt>
      <trkpt lat="36.501046" lon="-5.514675">
        <ele>160.13</ele>
        <time>2015-06-20T16:05:46Z</time>
      </trkpt>
      <trkpt lat="36.501160" lon="-5.514686">
        <ele>158.93</ele>
        <time>2015-06-20T16:05:47Z</time>
      </trkpt>
      <trkpt lat="36.501271" lon="-5.514709">
        <ele>159.32</ele>
        <time>2015-06-20T16:05:48Z</time>
      </trkpt>
      <trkpt lat="36.501369" lon="-5.514742">
        <ele>159.89</ele>
        <time>2015-06-20T16:05:49Z</time>
      </trkpt>
      <trkpt lat="36.501449" lon="-5.514796">
        <ele>162.83</ele>
        <time>2015-06-20T16:05:50Z</time>
      </trkpt>
      <trkpt lat="36.501518" lon="-5.514871">
        <ele>165.87</ele>
        <time>2015-06-20T16:05:51Z</time>
      </trkpt>
      <trkpt lat="36.501568" lon="-5.514951">
        <ele>167.94</ele>
        <time>2015-06-20T16:05:52Z</time>
      </trkpt>
      <trkpt lat="36.501602" lon="-5.515017">
        <ele>168.92</ele>
        <time>2015-06-20T16:05:53Z</time>
      </trkpt>
      <trkpt lat="36.501622" lon="-5.515061">
        <ele>168.91</ele>
        <time>2015-06-20T16:05:54Z</time>
      </trkpt>
      <trkpt lat="36.501631" lon="-5.515090">
        <ele>168.71</ele>
        <time>2015-06-20T16:05:55Z</time>
      </trkpt>
      <trkpt lat="36.501637" lon="-5.515109">
        <ele>168.63</ele>
        <time>2015-06-20T16:05:56Z</time>
      </trkpt>
      <trkpt lat="36.501633" lon="-5.515128">
        <ele>168.16</ele>
        <time>2015-06-20T16:05:57Z</time>
      </trkpt>
      <trkpt lat="36.501622" lon="-5.515132">
        <ele>167.61</ele>
        <time>2015-06-20T16:05:58Z</time>
      </trkpt>
      <trkpt lat="36.501618" lon="-5.515135">
        <ele>167.49</ele>
        <time>2015-06-20T16:05:59Z</time>
      </trkpt>
      <trkpt lat="36.501619" lon="-5.515132">
        <ele>167.56</ele>
        <time>2015-06-20T16:06:00Z</time>
      </trkpt>
      <trkpt lat="36.501627" lon="-5.515123">
        <ele>167.93</ele>
        <time>2015-06-20T16:06:01Z</time>
      </trkpt>
      <trkpt lat="36.501627" lon="-5.515123">
        <ele>167.97</ele>
        <time>2015-06-20T16:06:03Z</time>
      </trkpt>
      <trkpt lat="36.501628" lon="-5.515120">
        <ele>168.06</ele>
        <time>2015-06-20T16:06:08Z</time>
      </trkpt>
      <trkpt lat="36.501628" lon="-5.515120">
        <ele>168.07</ele>
        <time>2015-06-20T16:06:09Z</time>
      </trkpt>
      <trkpt lat="36.501628" lon="-5.515120">
        <ele>168.09</ele>
        <time>2015-06-20T16:06:18Z</time>
      </trkpt>
      <trkpt lat="36.501628" lon="-5.515120">
        <ele>168.01</ele>
        <time>2015-06-20T16:06:27Z</time>
      </trkpt>
      <trkpt lat="36.501628" lon="-5.515120">
        <ele>168.01</ele>
        <time>2015-06-20T16:06:28Z</time>
      </trkpt>
      <trkpt lat="36.501628" lon="-5.515120">
        <ele>168.04</ele>
        <time>2015-06-20T16:06:38Z</time>
      </trkpt>
      <trkpt lat="36.501628" lon="-5.515120">
        <ele>168.03</ele>
        <time>2015-06-20T16:06:43Z</time>
      </trkpt>
      <trkpt lat="36.501629" lon="-5.515122">
        <ele>168.02</ele>
        <time>2015-06-20T16:06:45Z</time>
      </trkpt>
      <trkpt lat="36.501629" lon="-5.515122">
        <ele>168.07</ele>
        <time>2015-06-20T16:06:46Z</time>
      </trkpt>
      <trkpt lat="36.501629" lon="-5.515122">
        <ele>168.10</ele>
        <time>2015-06-20T16:06:47Z</time>
      </trkpt>
      <trkpt lat="36.501629" lon="-5.515122">
        <ele>168.05</ele>
        <time>2015-06-20T16:06:48Z</time>
      </trkpt>
      <trkpt lat="36.501629" lon="-5.515122">
        <ele>168.03</ele>
        <time>2015-06-20T16:06:49Z</time>
      </trkpt>
      <trkpt lat="36.501629" lon="-5.515122">
        <ele>168.02</ele>
        <time>2015-06-20T16:07:03Z</time>
      </trkpt>
      <trkpt lat="36.501629" lon="-5.515122">
        <ele>168.07</ele>
        <time>2015-06-20T16:07:10Z</time>
      </trkpt>
      <trkpt lat="36.501629" lon="-5.515122">
        <ele>168.01</ele>
        <time>2015-06-20T16:07:16Z</time>
      </trkpt>
      <trkpt lat="36.501629" lon="-5.515122">
        <ele>168.01</ele>
        <time>2015-06-20T16:07:20Z</time>
      </trkpt>
      <trkpt lat="36.501629" lon="-5.515122">
        <ele>168.01</ele>
        <time>2015-06-20T16:07:21Z</time>
      </trkpt>
      <trkpt lat="36.501622" lon="-5.515129">
        <ele>167.73</ele>
        <time>2015-06-20T16:07:27Z</time>
      </trkpt>
      <trkpt lat="36.501622" lon="-5.515129">
        <ele>167.76</ele>
        <time>2015-06-20T16:07:37Z</time>
      </trkpt>
      <trkpt lat="36.501622" lon="-5.515129">
        <ele>167.76</ele>
        <time>2015-06-20T16:07:41Z</time>
      </trkpt>
      <trkpt lat="36.501622" lon="-5.515129">
        <ele>167.79</ele>
        <time>2015-06-20T16:07:49Z</time>
      </trkpt>
      <trkpt lat="36.501622" lon="-5.515129">
        <ele>167.80</ele>
        <time>2015-06-20T16:08:03Z</time>
      </trkpt>
      <trkpt lat="36.501621" lon="-5.515129">
        <ele>167.70</ele>
        <time>2015-06-20T16:08:16Z</time>
      </trkpt>
      <trkpt lat="36.501621" lon="-5.515129">
        <ele>167.62</ele>
        <time>2015-06-20T16:08:18Z</time>
      </trkpt>
      <trkpt lat="36.501621" lon="-5.515129">
        <ele>167.62</ele>
        <time>2015-06-20T16:08:22Z</time>
      </trkpt>
      <trkpt lat="36.501621" lon="-5.515129">
        <ele>167.69</ele>
        <time>2015-06-20T16:08:34Z</time>
      </trkpt>
      <trkpt lat="36.501621" lon="-5.515129">
        <ele>167.65</ele>
        <time>2015-06-20T16:08:45Z</time>
      </trkpt>
      <trkpt lat="36.501621" lon="-5.515129">
        <ele>167.62</ele>
        <time>2015-06-20T16:08:47Z</time>
      </trkpt>
      <trkpt lat="36.501621" lon="-5.515129">
        <ele>167.61</ele>
        <time>2015-06-20T16:08:53Z</time>
      </trkpt>
      <trkpt lat="36.501621" lon="-5.515129">
        <ele>167.61</ele>
        <time>2015-06-20T16:09:01Z</time>
      </trkpt>
      <trkpt lat="36.501621" lon="-5.515129">
        <ele>167.66</ele>
        <time>2015-06-20T16:09:09Z</time>
      </trkpt>
      <trkpt lat="36.501621" lon="-5.515129">
        <ele>167.70</ele>
        <time>2015-06-20T16:09:15Z</time>
      </trkpt>
      <trkpt lat="36.501620" lon="-5.515131">
        <ele>167.65</ele>
        <time>2015-06-20T16:09:30Z</time>
      </trkpt>
      <trkpt lat="36.501620" lon="-5.515131">
        <ele>167.68</ele>
        <time>2015-06-20T16:09:45Z</time>
      </trkpt>
      <trkpt lat="36.501620" lon="-5.515131">
        <ele>167.65</ele>
        <time>2015-06-20T16:09:49Z</time>
      </trkpt>
      <trkpt lat="36.501620" lon="-5.515131">
        <ele>167.64</ele>
        <time>2015-06-20T16:10:03Z</time>
      </trkpt>
      <trkpt lat="36.501619" lon="-5.515132">
        <ele>167.53</ele>
        <time>2015-06-20T16:10:20Z</time>
      </trkpt>
      <trkpt lat="36.501619" lon="-5.515132">
        <ele>167.53</ele>
        <time>2015-06-20T16:10:35Z</time>
      </trkpt>
      <trkpt lat="36.501619" lon="-5.515132">
        <ele>167.53</ele>
        <time>2015-06-20T16:10:43Z</time>
      </trkpt>
      <trkpt lat="36.501620" lon="-5.515134">
        <ele>167.51</ele>
        <time>2015-06-20T16:10:50Z</time>
      </trkpt>
      <trkpt lat="36.501620" lon="-5.515134">
        <ele>167.51</ele>
        <time>2015-06-20T16:10:53Z</time>
      </trkpt>
      <trkpt lat="36.501620" lon="-5.515134">
        <ele>167.54</ele>
        <time>2015-06-20T16:10:56Z</time>
      </trkpt>
      <trkpt lat="36.501621" lon="-5.515162">
        <ele>167.07</ele>
        <time>2015-06-20T16:11:00Z</time>
      </trkpt>
      <trkpt lat="36.501618" lon="-5.515175">
        <ele>166.79</ele>
        <time>2015-06-20T16:11:01Z</time>
      </trkpt>
      <trkpt lat="36.501619" lon="-5.515186">
        <ele>166.58</ele>
        <time>2015-06-20T16:11:02Z</time>
      </trkpt>
      <trkpt lat="36.501645" lon="-5.515257">
        <ele>165.97</ele>
        <time>2015-06-20T16:11:06Z</time>
      </trkpt>
      <trkpt lat="36.501736" lon="-5.515402">
        <ele>165.48</ele>
        <time>2015-06-20T16:11:11Z</time>
      </trkpt>
      <trkpt lat="36.501919" lon="-5.515594">
        <ele>164.65</ele>
        <time>2015-06-20T16:11:17Z</time>
      </trkpt>
      <trkpt lat="36.502144" lon="-5.515850">
        <ele>165.31</ele>
        <time>2015-06-20T16:11:24Z</time>
      </trkpt>
      <trkpt lat="36.502275" lon="-5.515998">
        <ele>167.72</ele>
        <time>2015-06-20T16:11:28Z</time>
      </trkpt>
      <trkpt lat="36.502303" lon="-5.516031">
        <ele>167.98</ele>
        <time>2015-06-20T16:11:29Z</time>
      </trkpt>
      <trkpt lat="36.502331" lon="-5.516065">
        <ele>168.11</ele>
        <time>2015-06-20T16:11:30Z</time>
      </trkpt>
      <trkpt lat="36.502360" lon="-5.516094">
        <ele>168.31</ele>
        <time>2015-06-20T16:11:31Z</time>
      </trkpt>
      <trkpt lat="36.502392" lon="-5.516128">
        <ele>168.55</ele>
        <time>2015-06-20T16:11:32Z</time>
      </trkpt>
      <trkpt lat="36.502420" lon="-5.516162">
        <ele>168.88</ele>
        <time>2015-06-20T16:11:33Z</time>
      </trkpt>
      <trkpt lat="36.502446" lon="-5.516195">
        <ele>169.08</ele>
        <time>2015-06-20T16:11:34Z</time>
      </trkpt>
      <trkpt lat="36.502477" lon="-5.516228">
        <ele>169.33</ele>
        <time>2015-06-20T16:11:35Z</time>
      </trkpt>
      <trkpt lat="36.502537" lon="-5.516304">
        <ele>169.84</ele>
        <time>2015-06-20T16:11:37Z</time>
      </trkpt>
      <trkpt lat="36.502599" lon="-5.516370">
        <ele>170.48</ele>
        <time>2015-06-20T16:11:39Z</time>
      </trkpt>
      <trkpt lat="36.502687" lon="-5.516495">
        <ele>170.52</ele>
        <time>2015-06-20T16:11:42Z</time>
      </trkpt>
      <trkpt lat="36.502750" lon="-5.516641">
        <ele>169.11</ele>
        <time>2015-06-20T16:11:45Z</time>
      </trkpt>
      <trkpt lat="36.502802" lon="-5.516790">
        <ele>167.10</ele>
        <time>2015-06-20T16:11:48Z</time>
      </trkpt>
      <trkpt lat="36.502859" lon="-5.517001">
        <ele>164.22</ele>
        <time>2015-06-20T16:11:52Z</time>
      </trkpt>
      <trkpt lat="36.502866" lon="-5.517067">
        <ele>163.53</ele>
        <time>2015-06-20T16:11:53Z</time>
      </trkpt>
      <trkpt lat="36.502928" lon="-5.517338">
        <ele>161.51</ele>
        <time>2015-06-20T16:11:58Z</time>
      </trkpt>
      <trkpt lat="36.502983" lon="-5.517411">
        <ele>161.66</ele>
        <time>2015-06-20T16:12:02Z</time>
      </trkpt>
      <trkpt lat="36.503052" lon="-5.517468">
        <ele>162.14</ele>
        <time>2015-06-20T16:12:08Z</time>
      </trkpt>
      <trkpt lat="36.503062" lon="-5.517474">
        <ele>162.30</ele>
        <time>2015-06-20T16:12:09Z</time>
      </trkpt>
      <trkpt lat="36.503062" lon="-5.517477">
        <ele>162.28</ele>
        <time>2015-06-20T16:12:10Z</time>
      </trkpt>
      <trkpt lat="36.503062" lon="-5.517477">
        <ele>162.29</ele>
        <time>2015-06-20T16:12:11Z</time>
      </trkpt>
      <trkpt lat="36.503062" lon="-5.517477">
        <ele>162.22</ele>
        <time>2015-06-20T16:12:12Z</time>
      </trkpt>
      <trkpt lat="36.503062" lon="-5.517477">
        <ele>162.25</ele>
        <time>2015-06-20T16:12:17Z</time>
      </trkpt>
      <trkpt lat="36.503062" lon="-5.517477">
        <ele>162.29</ele>
        <time>2015-06-20T16:12:23Z</time>
      </trkpt>
      <trkpt lat="36.503062" lon="-5.517477">
        <ele>162.29</ele>
        <time>2015-06-20T16:12:29Z</time>
      </trkpt>
      <trkpt lat="36.503062" lon="-5.517477">
        <ele>162.26</ele>
        <time>2015-06-20T16:12:37Z</time>
      </trkpt>
      <trkpt lat="36.503062" lon="-5.517477">
        <ele>162.22</ele>
        <time>2015-06-20T16:12:39Z</time>
      </trkpt>
      <trkpt lat="36.503061" lon="-5.517476">
        <ele>162.21</ele>
        <time>2015-06-20T16:12:52Z</time>
      </trkpt>
      <trkpt lat="36.503061" lon="-5.517476">
        <ele>162.22</ele>
        <time>2015-06-20T16:13:03Z</time>
      </trkpt>
      <trkpt lat="36.503061" lon="-5.517476">
        <ele>162.23</ele>
        <time>2015-06-20T16:13:11Z</time>
      </trkpt>
      <trkpt lat="36.503061" lon="-5.517476">
        <ele>162.30</ele>
        <time>2015-06-20T16:13:12Z</time>
      </trkpt>
      <trkpt lat="36.503061" lon="-5.517476">
        <ele>162.27</ele>
        <time>2015-06-20T16:13:26Z</time>
      </trkpt>
      <trkpt lat="36.503061" lon="-5.517476">
        <ele>162.28</ele>
        <time>2015-06-20T16:13:28Z</time>
      </trkpt>
      <trkpt lat="36.503057" lon="-5.517474">
        <ele>162.19</ele>
        <time>2015-06-20T16:13:34Z</time>
      </trkpt>
      <trkpt lat="36.503049" lon="-5.517484">
        <ele>162.04</ele>
        <time>2015-06-20T16:13:39Z</time>
      </trkpt>
      <trkpt lat="36.503048" lon="-5.517485">
        <ele>162.10</ele>
        <time>2015-06-20T16:13:43Z</time>
      </trkpt>
      <trkpt lat="36.503048" lon="-5.517485">
        <ele>162.09</ele>
        <time>2015-06-20T16:13:48Z</time>
      </trkpt>
      <trkpt lat="36.503048" lon="-5.517485">
        <ele>162.06</ele>
        <time>2015-06-20T16:13:53Z</time>
      </trkpt>
      <trkpt lat="36.503048" lon="-5.517485">
        <ele>162.03</ele>
        <time>2015-06-20T16:13:56Z</time>
      </trkpt>
      <trkpt lat="36.503048" lon="-5.517485">
        <ele>162.01</ele>
        <time>2015-06-20T16:14:03Z</time>
      </trkpt>
      <trkpt lat="36.503048" lon="-5.517485">
        <ele>162.07</ele>
        <time>2015-06-20T16:14:17Z</time>
      </trkpt>
      <trkpt lat="36.503048" lon="-5.517480">
        <ele>162.10</ele>
        <time>2015-06-20T16:14:30Z</time>
      </trkpt>
      <trkpt lat="36.503048" lon="-5.517480">
        <ele>162.10</ele>
        <time>2015-06-20T16:14:45Z</time>
      </trkpt>
      <trkpt lat="36.503048" lon="-5.517480">
        <ele>162.10</ele>
        <time>2015-06-20T16:14:59Z</time>
      </trkpt>
      <trkpt lat="36.503047" lon="-5.517481">
        <ele>162.08</ele>
        <time>2015-06-20T16:15:03Z</time>
      </trkpt>
      <trkpt lat="36.503047" lon="-5.517481">
        <ele>162.03</ele>
        <time>2015-06-20T16:15:06Z</time>
      </trkpt>
      <trkpt lat="36.503047" lon="-5.517481">
        <ele>162.10</ele>
        <time>2015-06-20T16:15:14Z</time>
      </trkpt>
      <trkpt lat="36.503047" lon="-5.517481">
        <ele>162.04</ele>
        <time>2015-06-20T16:15:18Z</time>
      </trkpt>
      <trkpt lat="36.503047" lon="-5.517481">
        <ele>162.02</ele>
        <time>2015-06-20T16:15:27Z</time>
      </trkpt>
      <trkpt lat="36.503047" lon="-5.517481">
        <ele>162.06</ele>
        <time>2015-06-20T16:15:33Z</time>
      </trkpt>
      <trkpt lat="36.503047" lon="-5.517481">
        <ele>162.01</ele>
        <time>2015-06-20T16:15:34Z</time>
      </trkpt>
      <trkpt lat="36.503044" lon="-5.517481">
        <ele>161.91</ele>
        <time>2015-06-20T16:15:47Z</time>
      </trkpt>
      <trkpt lat="36.503042" lon="-5.517484">
        <ele>161.94</ele>
        <time>2015-06-20T16:15:56Z</time>
      </trkpt>
      <trkpt lat="36.503048" lon="-5.517496">
        <ele>161.99</ele>
        <time>2015-06-20T16:15:59Z</time>
      </trkpt>
      <trkpt lat="36.503053" lon="-5.517504">
        <ele>162.06</ele>
        <time>2015-06-20T16:16:02Z</time>
      </trkpt>
      <trkpt lat="36.503088" lon="-5.517538">
        <ele>162.76</ele>
        <time>2015-06-20T16:16:08Z</time>
      </trkpt>
      <trkpt lat="36.503105" lon="-5.517580">
        <ele>163.09</ele>
        <time>2015-06-20T16:16:13Z</time>
      </trkpt>
      <trkpt lat="36.503108" lon="-5.517606">
        <ele>163.12</ele>
        <time>2015-06-20T16:16:14Z</time>
      </trkpt>
      <trkpt lat="36.503117" lon="-5.517616">
        <ele>163.27</ele>
        <time>2015-06-20T16:16:15Z</time>
      </trkpt>
      <trkpt lat="36.503116" lon="-5.517629">
        <ele>163.28</ele>
        <time>2015-06-20T16:16:16Z</time>
      </trkpt>
      <trkpt lat="36.503124" lon="-5.517641">
        <ele>163.46</ele>
        <time>2015-06-20T16:16:17Z</time>
      </trkpt>
      <trkpt lat="36.503134" lon="-5.517656">
        <ele>163.51</ele>
        <time>2015-06-20T16:16:19Z</time>
      </trkpt>
      <trkpt lat="36.503162" lon="-5.517703">
        <ele>164.02</ele>
        <time>2015-06-20T16:16:24Z</time>
      </trkpt>
      <trkpt lat="36.503164" lon="-5.517732">
        <ele>164.01</ele>
        <time>2015-06-20T16:16:26Z</time>
      </trkpt>
      <trkpt lat="36.503184" lon="-5.517774">
        <ele>164.38</ele>
        <time>2015-06-20T16:16:29Z</time>
      </trkpt>
      <trkpt lat="36.503216" lon="-5.517800">
        <ele>164.51</ele>
        <time>2015-06-20T16:16:32Z</time>
      </trkpt>
      <trkpt lat="36.503233" lon="-5.517824">
        <ele>164.43</ele>
        <time>2015-06-20T16:16:34Z</time>
      </trkpt>
      <trkpt lat="36.503242" lon="-5.517835">
        <ele>164.48</ele>
        <time>2015-06-20T16:16:35Z</time>
      </trkpt>
      <trkpt lat="36.503251" lon="-5.517839">
        <ele>164.54</ele>
        <time>2015-06-20T16:16:36Z</time>
      </trkpt>
      <trkpt lat="36.503259" lon="-5.517845">
        <ele>164.58</ele>
        <time>2015-06-20T16:16:37Z</time>
      </trkpt>
      <trkpt lat="36.503271" lon="-5.517847">
        <ele>164.76</ele>
        <time>2015-06-20T16:16:38Z</time>
      </trkpt>
      <trkpt lat="36.503288" lon="-5.517857">
        <ele>164.84</ele>
        <time>2015-06-20T16:16:39Z</time>
      </trkpt>
      <trkpt lat="36.503300" lon="-5.517867">
        <ele>164.86</ele>
        <time>2015-06-20T16:16:40Z</time>
      </trkpt>
      <trkpt lat="36.503350" lon="-5.517882">
        <ele>165.51</ele>
        <time>2015-06-20T16:16:46Z</time>
      </trkpt>
      <trkpt lat="36.503405" lon="-5.517916">
        <ele>166.32</ele>
        <time>2015-06-20T16:16:53Z</time>
      </trkpt>
      <trkpt lat="36.503412" lon="-5.517922">
        <ele>166.41</ele>
        <time>2015-06-20T16:16:55Z</time>
      </trkpt>
      <trkpt lat="36.503417" lon="-5.517927">
        <ele>166.45</ele>
        <time>2015-06-20T16:16:56Z</time>
      </trkpt>
      <trkpt lat="36.503424" lon="-5.517930">
        <ele>166.59</ele>
        <time>2015-06-20T16:16:57Z</time>
      </trkpt>
      <trkpt lat="36.503435" lon="-5.517939">
        <ele>166.74</ele>
        <time>2015-06-20T16:16:58Z</time>
      </trkpt>
      <trkpt lat="36.503473" lon="-5.517940">
        <ele>167.63</ele>
        <time>2015-06-20T16:17:01Z</time>
      </trkpt>
      <trkpt lat="36.503511" lon="-5.517939">
        <ele>168.68</ele>
        <time>2015-06-20T16:17:06Z</time>
      </trkpt>
      <trkpt lat="36.503535" lon="-5.517963">
        <ele>168.79</ele>
        <time>2015-06-20T16:17:08Z</time>
      </trkpt>
      <trkpt lat="36.503532" lon="-5.517972">
        <ele>168.53</ele>
        <time>2015-06-20T16:17:09Z</time>
      </trkpt>
      <trkpt lat="36.503536" lon="-5.517992">
        <ele>168.40</ele>
        <time>2015-06-20T16:17:10Z</time>
      </trkpt>
      <trkpt lat="36.503539" lon="-5.518008">
        <ele>168.04</ele>
        <time>2015-06-20T16:17:11Z</time>
      </trkpt>
      <trkpt lat="36.503543" lon="-5.518024">
        <ele>167.95</ele>
        <time>2015-06-20T16:17:12Z</time>
      </trkpt>
      <trkpt lat="36.503541" lon="-5.518052">
        <ele>167.31</ele>
        <time>2015-06-20T16:17:14Z</time>
      </trkpt>
      <trkpt lat="36.503544" lon="-5.518071">
        <ele>167.11</ele>
        <time>2015-06-20T16:17:16Z</time>
      </trkpt>
      <trkpt lat="36.503547" lon="-5.518082">
        <ele>167.07</ele>
        <time>2015-06-20T16:17:17Z</time>
      </trkpt>
      <trkpt lat="36.503558" lon="-5.518122">
        <ele>166.69</ele>
        <time>2015-06-20T16:17:20Z</time>
      </trkpt>
      <trkpt lat="36.503575" lon="-5.518155">
        <ele>166.45</ele>
        <time>2015-06-20T16:17:23Z</time>
      </trkpt>
      <trkpt lat="36.503649" lon="-5.518200">
        <ele>167.32</ele>
        <time>2015-06-20T16:17:27Z</time>
      </trkpt>
      <trkpt lat="36.503672" lon="-5.518202">
        <ele>167.85</ele>
        <time>2015-06-20T16:17:29Z</time>
      </trkpt>
      <trkpt lat="36.503794" lon="-5.518248">
        <ele>169.72</ele>
        <time>2015-06-20T16:17:36Z</time>
      </trkpt>
      <trkpt lat="36.503931" lon="-5.518264">
        <ele>172.44</ele>
        <time>2015-06-20T16:17:41Z</time>
      </trkpt>
      <trkpt lat="36.504109" lon="-5.518264">
        <ele>176.38</ele>
        <time>2015-06-20T16:17:47Z</time>
      </trkpt>
      <trkpt lat="36.504140" lon="-5.518276">
        <ele>176.76</ele>
        <time>2015-06-20T16:17:48Z</time>
      </trkpt>
      <trkpt lat="36.504163" lon="-5.518298">
        <ele>176.71</ele>
        <time>2015-06-20T16:17:49Z</time>
      </trkpt>
      <trkpt lat="36.504188" lon="-5.518316">
        <ele>177.02</ele>
        <time>2015-06-20T16:17:50Z</time>
      </trkpt>
      <trkpt lat="36.504224" lon="-5.518325">
        <ele>177.81</ele>
        <time>2015-06-20T16:17:51Z</time>
      </trkpt>
      <trkpt lat="36.504260" lon="-5.518354">
        <ele>178.28</ele>
        <time>2015-06-20T16:17:53Z</time>
      </trkpt>
      <trkpt lat="36.504333" lon="-5.518445">
        <ele>177.76</ele>
        <time>2015-06-20T16:17:58Z</time>
      </trkpt>
      <trkpt lat="36.504385" lon="-5.518571">
        <ele>175.12</ele>
        <time>2015-06-20T16:18:03Z</time>
      </trkpt>
      <trkpt lat="36.504396" lon="-5.518591">
        <ele>174.73</ele>
        <time>2015-06-20T16:18:04Z</time>
      </trkpt>
      <trkpt lat="36.504430" lon="-5.518622">
        <ele>174.44</ele>
        <time>2015-06-20T16:18:06Z</time>
      </trkpt>
      <trkpt lat="36.504478" lon="-5.518659">
        <ele>174.53</ele>
        <time>2015-06-20T16:18:09Z</time>
      </trkpt>
      <trkpt lat="36.504540" lon="-5.518674">
        <ele>175.88</ele>
        <time>2015-06-20T16:18:12Z</time>
      </trkpt>
      <trkpt lat="36.504560" lon="-5.518690">
        <ele>175.85</ele>
        <time>2015-06-20T16:18:13Z</time>
      </trkpt>
      <trkpt lat="36.504580" lon="-5.518705">
        <ele>175.97</ele>
        <time>2015-06-20T16:18:14Z</time>
      </trkpt>
      <trkpt lat="36.504601" lon="-5.518721">
        <ele>175.99</ele>
        <time>2015-06-20T16:18:15Z</time>
      </trkpt>
      <trkpt lat="36.504615" lon="-5.518731">
        <ele>175.91</ele>
        <time>2015-06-20T16:18:16Z</time>
      </trkpt>
      <trkpt lat="36.504669" lon="-5.518791">
        <ele>175.21</ele>
        <time>2015-06-20T16:18:20Z</time>
      </trkpt>
      <trkpt lat="36.504687" lon="-5.518794">
        <ele>175.64</ele>
        <time>2015-06-20T16:18:21Z</time>
      </trkpt>
      <trkpt lat="36.504763" lon="-5.518821">
        <ele>176.17</ele>
        <time>2015-06-20T16:18:25Z</time>
      </trkpt>
      <trkpt lat="36.504801" lon="-5.518845">
        <ele>175.87</ele>
        <time>2015-06-20T16:18:27Z</time>
      </trkpt>
      <trkpt lat="36.504815" lon="-5.518851">
        <ele>175.72</ele>
        <time>2015-06-20T16:18:28Z</time>
      </trkpt>
      <trkpt lat="36.504829" lon="-5.518860">
        <ele>175.70</ele>
        <time>2015-06-20T16:18:29Z</time>
      </trkpt>
      <trkpt lat="36.504856" lon="-5.518867">
        <ele>175.89</ele>
        <time>2015-06-20T16:18:30Z</time>
      </trkpt>
      <trkpt lat="36.504882" lon="-5.518872">
        <ele>175.91</ele>
        <time>2015-06-20T16:18:31Z</time>
      </trkpt>
      <trkpt lat="36.505000" lon="-5.518886">
        <ele>177.12</ele>
        <time>2015-06-20T16:18:37Z</time>
      </trkpt>
      <trkpt lat="36.505051" lon="-5.518884">
        <ele>177.92</ele>
        <time>2015-06-20T16:18:40Z</time>
      </trkpt>
      <trkpt lat="36.505068" lon="-5.518873">
        <ele>178.50</ele>
        <time>2015-06-20T16:18:41Z</time>
      </trkpt>
      <trkpt lat="36.505081" lon="-5.518860">
        <ele>179.11</ele>
        <time>2015-06-20T16:18:42Z</time>
      </trkpt>
      <trkpt lat="36.505090" lon="-5.518841">
        <ele>179.91</ele>
        <time>2015-06-20T16:18:43Z</time>
      </trkpt>
      <trkpt lat="36.505104" lon="-5.518817">
        <ele>180.82</ele>
        <time>2015-06-20T16:18:44Z</time>
      </trkpt>
      <trkpt lat="36.505184" lon="-5.518729">
        <ele>183.74</ele>
        <time>2015-06-20T16:18:50Z</time>
      </trkpt>
      <trkpt lat="36.505278" lon="-5.518648">
        <ele>185.32</ele>
        <time>2015-06-20T16:18:56Z</time>
      </trkpt>
      <trkpt lat="36.505295" lon="-5.518636">
        <ele>185.73</ele>
        <time>2015-06-20T16:18:57Z</time>
      </trkpt>
      <trkpt lat="36.505310" lon="-5.518633">
        <ele>186.08</ele>
        <time>2015-06-20T16:18:58Z</time>
      </trkpt>
      <trkpt lat="36.505325" lon="-5.518629">
        <ele>186.27</ele>
        <time>2015-06-20T16:18:59Z</time>
      </trkpt>
      <trkpt lat="36.505348" lon="-5.518633">
        <ele>186.46</ele>
        <time>2015-06-20T16:19:00Z</time>
      </trkpt>
      <trkpt lat="36.505392" lon="-5.518655">
        <ele>186.49</ele>
        <time>2015-06-20T16:19:02Z</time>
      </trkpt>
      <trkpt lat="36.505426" lon="-5.518717">
        <ele>185.71</ele>
        <time>2015-06-20T16:19:06Z</time>
      </trkpt>
      <trkpt lat="36.505460" lon="-5.518769">
        <ele>185.14</ele>
        <time>2015-06-20T16:19:10Z</time>
      </trkpt>
      <trkpt lat="36.505473" lon="-5.518787">
        <ele>184.91</ele>
        <time>2015-06-20T16:19:11Z</time>
      </trkpt>
      <trkpt lat="36.505483" lon="-5.518801">
        <ele>184.81</ele>
        <time>2015-06-20T16:19:12Z</time>
      </trkpt>
      <trkpt lat="36.505496" lon="-5.518821">
        <ele>184.67</ele>
        <time>2015-06-20T16:19:13Z</time>
      </trkpt>
      <trkpt lat="36.505508" lon="-5.518844">
        <ele>184.38</ele>
        <time>2015-06-20T16:19:14Z</time>
      </trkpt>
      <trkpt lat="36.505576" lon="-5.518963">
        <ele>182.64</ele>
        <time>2015-06-20T16:19:20Z</time>
      </trkpt>
      <trkpt lat="36.505662" lon="-5.519079">
        <ele>180.90</ele>
        <time>2015-06-20T16:19:27Z</time>
      </trkpt>
      <trkpt lat="36.505679" lon="-5.519090">
        <ele>180.75</ele>
        <time>2015-06-20T16:19:28Z</time>
      </trkpt>
      <trkpt lat="36.505700" lon="-5.519098">
        <ele>180.79</ele>
        <time>2015-06-20T16:19:29Z</time>
      </trkpt>
      <trkpt lat="36.505723" lon="-5.519100">
        <ele>180.90</ele>
        <time>2015-06-20T16:19:30Z</time>
      </trkpt>
      <trkpt lat="36.505740" lon="-5.519103">
        <ele>180.94</ele>
        <time>2015-06-20T16:19:31Z</time>
      </trkpt>
      <trkpt lat="36.505761" lon="-5.519111">
        <ele>180.84</ele>
        <time>2015-06-20T16:19:32Z</time>
      </trkpt>
      <trkpt lat="36.505781" lon="-5.519115">
        <ele>180.99</ele>
        <time>2015-06-20T16:19:33Z</time>
      </trkpt>
      <trkpt lat="36.505854" lon="-5.519094">
        <ele>181.71</ele>
        <time>2015-06-20T16:19:36Z</time>
      </trkpt>
      <trkpt lat="36.505895" lon="-5.519063">
        <ele>182.31</ele>
        <time>2015-06-20T16:19:38Z</time>
      </trkpt>
      <trkpt lat="36.505945" lon="-5.518936">
        <ele>185.37</ele>
        <time>2015-06-20T16:19:42Z</time>
      </trkpt>
      <trkpt lat="36.505951" lon="-5.518853">
        <ele>187.51</ele>
        <time>2015-06-20T16:19:45Z</time>
      </trkpt>
      <trkpt lat="36.505957" lon="-5.518828">
        <ele>188.12</ele>
        <time>2015-06-20T16:19:46Z</time>
      </trkpt>
      <trkpt lat="36.505969" lon="-5.518799">
        <ele>188.84</ele>
        <time>2015-06-20T16:19:47Z</time>
      </trkpt>
      <trkpt lat="36.505991" lon="-5.518779">
        <ele>189.32</ele>
        <time>2015-06-20T16:19:48Z</time>
      </trkpt>
      <trkpt lat="36.506022" lon="-5.518762">
        <ele>189.76</ele>
        <time>2015-06-20T16:19:49Z</time>
      </trkpt>
      <trkpt lat="36.506082" lon="-5.518743">
        <ele>190.23</ele>
        <time>2015-06-20T16:19:51Z</time>
      </trkpt>
      <trkpt lat="36.506222" lon="-5.518760">
        <ele>188.94</ele>
        <time>2015-06-20T16:19:56Z</time>
      </trkpt>
      <trkpt lat="36.506284" lon="-5.518744">
        <ele>188.96</ele>
        <time>2015-06-20T16:19:58Z</time>
      </trkpt>
      <trkpt lat="36.506379" lon="-5.518736">
        <ele>188.44</ele>
        <time>2015-06-20T16:20:01Z</time>
      </trkpt>
      <trkpt lat="36.506528" lon="-5.518687">
        <ele>190.92</ele>
        <time>2015-06-20T16:20:06Z</time>
      </trkpt>
      <trkpt lat="36.506676" lon="-5.518691">
        <ele>192.71</ele>
        <time>2015-06-20T16:20:11Z</time>
      </trkpt>
      <trkpt lat="36.506715" lon="-5.518712">
        <ele>193.74</ele>
        <time>2015-06-20T16:20:12Z</time>
      </trkpt>
      <trkpt lat="36.506772" lon="-5.518775">
        <ele>194.94</ele>
        <time>2015-06-20T16:20:14Z</time>
      </trkpt>
      <trkpt lat="36.506769" lon="-5.518814">
        <ele>194.52</ele>
        <time>2015-06-20T16:20:15Z</time>
      </trkpt>
      <trkpt lat="36.506714" lon="-5.518948">
        <ele>191.97</ele>
        <time>2015-06-20T16:20:18Z</time>
      </trkpt>
      <trkpt lat="36.506705" lon="-5.518985">
        <ele>191.50</ele>
        <time>2015-06-20T16:20:19Z</time>
      </trkpt>
      <trkpt lat="36.506699" lon="-5.519093">
        <ele>190.52</ele>
        <time>2015-06-20T16:20:22Z</time>
      </trkpt>
      <trkpt lat="36.506707" lon="-5.519128">
        <ele>190.42</ele>
        <time>2015-06-20T16:20:23Z</time>
      </trkpt>
      <trkpt lat="36.506710" lon="-5.519165">
        <ele>190.32</ele>
        <time>2015-06-20T16:20:24Z</time>
      </trkpt>
      <trkpt lat="36.506714" lon="-5.519206">
        <ele>189.60</ele>
        <time>2015-06-20T16:20:25Z</time>
      </trkpt>
      <trkpt lat="36.506719" lon="-5.519245">
        <ele>188.82</ele>
        <time>2015-06-20T16:20:26Z</time>
      </trkpt>
      <trkpt lat="36.506800" lon="-5.519431">
        <ele>186.72</ele>
        <time>2015-06-20T16:20:32Z</time>
      </trkpt>
      <trkpt lat="36.506837" lon="-5.519468">
        <ele>186.61</ele>
        <time>2015-06-20T16:20:34Z</time>
      </trkpt>
      <trkpt lat="36.506855" lon="-5.519483">
        <ele>186.68</ele>
        <time>2015-06-20T16:20:35Z</time>
      </trkpt>
      <trkpt lat="36.506874" lon="-5.519499">
        <ele>186.69</ele>
        <time>2015-06-20T16:20:36Z</time>
      </trkpt>
      <trkpt lat="36.506893" lon="-5.519511">
        <ele>186.74</ele>
        <time>2015-06-20T16:20:37Z</time>
      </trkpt>
      <trkpt lat="36.506910" lon="-5.519523">
        <ele>186.76</ele>
        <time>2015-06-20T16:20:38Z</time>
      </trkpt>
      <trkpt lat="36.507048" lon="-5.519569">
        <ele>188.07</ele>
        <time>2015-06-20T16:20:45Z</time>
      </trkpt>
      <trkpt lat="36.507102" lon="-5.519592">
        <ele>188.49</ele>
        <time>2015-06-20T16:20:48Z</time>
      </trkpt>
      <trkpt lat="36.507117" lon="-5.519603">
        <ele>188.32</ele>
        <time>2015-06-20T16:20:49Z</time>
      </trkpt>
      <trkpt lat="36.507136" lon="-5.519616">
        <ele>188.34</ele>
        <time>2015-06-20T16:20:50Z</time>
      </trkpt>
      <trkpt lat="36.507152" lon="-5.519630">
        <ele>188.28</ele>
        <time>2015-06-20T16:20:51Z</time>
      </trkpt>
      <trkpt lat="36.507168" lon="-5.519638">
        <ele>188.31</ele>
        <time>2015-06-20T16:20:52Z</time>
      </trkpt>
      <trkpt lat="36.507265" lon="-5.519667">
        <ele>188.82</ele>
        <time>2015-06-20T16:20:58Z</time>
      </trkpt>
      <trkpt lat="36.507281" lon="-5.519666">
        <ele>189.01</ele>
        <time>2015-06-20T16:20:59Z</time>
      </trkpt>
      <trkpt lat="36.507297" lon="-5.519673">
        <ele>188.84</ele>
        <time>2015-06-20T16:21:00Z</time>
      </trkpt>
      <trkpt lat="36.507312" lon="-5.519681">
        <ele>188.71</ele>
        <time>2015-06-20T16:21:01Z</time>
      </trkpt>
      <trkpt lat="36.507321" lon="-5.519684">
        <ele>188.65</ele>
        <time>2015-06-20T16:21:02Z</time>
      </trkpt>
      <trkpt lat="36.507335" lon="-5.519689">
        <ele>188.54</ele>
        <time>2015-06-20T16:21:03Z</time>
      </trkpt>
      <trkpt lat="36.507350" lon="-5.519683">
        <ele>188.88</ele>
        <time>2015-06-20T16:21:04Z</time>
      </trkpt>
      <trkpt lat="36.507392" lon="-5.519682">
        <ele>189.07</ele>
        <time>2015-06-20T16:21:07Z</time>
      </trkpt>
      <trkpt lat="36.507416" lon="-5.519646">
        <ele>190.55</ele>
        <time>2015-06-20T16:21:09Z</time>
      </trkpt>
      <trkpt lat="36.507497" lon="-5.519607">
        <ele>192.57</ele>
        <time>2015-06-20T16:21:13Z</time>
      </trkpt>
      <trkpt lat="36.507517" lon="-5.519595">
        <ele>192.95</ele>
        <time>2015-06-20T16:21:14Z</time>
      </trkpt>
      <trkpt lat="36.507532" lon="-5.519584">
        <ele>193.26</ele>
        <time>2015-06-20T16:21:15Z</time>
      </trkpt>
      <trkpt lat="36.507552" lon="-5.519567">
        <ele>193.82</ele>
        <time>2015-06-20T16:21:16Z</time>
      </trkpt>
      <trkpt lat="36.507568" lon="-5.519552">
        <ele>194.21</ele>
        <time>2015-06-20T16:21:17Z</time>
      </trkpt>
      <trkpt lat="36.507622" lon="-5.519510">
        <ele>195.37</ele>
        <time>2015-06-20T16:21:20Z</time>
      </trkpt>
      <trkpt lat="36.507758" lon="-5.519414">
        <ele>197.53</ele>
        <time>2015-06-20T16:21:26Z</time>
      </trkpt>
      <trkpt lat="36.507918" lon="-5.519377">
        <ele>199.72</ele>
        <time>2015-06-20T16:21:32Z</time>
      </trkpt>
      <trkpt lat="36.508065" lon="-5.519363">
        <ele>201.26</ele>
        <time>2015-06-20T16:21:38Z</time>
      </trkpt>
      <trkpt lat="36.508108" lon="-5.519355">
        <ele>202.13</ele>
        <time>2015-06-20T16:21:40Z</time>
      </trkpt>
      <trkpt lat="36.508136" lon="-5.519351">
        <ele>202.75</ele>
        <time>2015-06-20T16:21:41Z</time>
      </trkpt>
      <trkpt lat="36.508157" lon="-5.519355">
        <ele>202.76</ele>
        <time>2015-06-20T16:21:42Z</time>
      </trkpt>
      <trkpt lat="36.508180" lon="-5.519359">
        <ele>202.84</ele>
        <time>2015-06-20T16:21:43Z</time>
      </trkpt>
      <trkpt lat="36.508201" lon="-5.519364">
        <ele>202.84</ele>
        <time>2015-06-20T16:21:44Z</time>
      </trkpt>
      <trkpt lat="36.508371" lon="-5.519415">
        <ele>203.05</ele>
        <time>2015-06-20T16:21:51Z</time>
      </trkpt>
      <trkpt lat="36.508509" lon="-5.519491">
        <ele>203.11</ele>
        <time>2015-06-20T16:21:57Z</time>
      </trkpt>
      <trkpt lat="36.508532" lon="-5.519497">
        <ele>203.41</ele>
        <time>2015-06-20T16:21:58Z</time>
      </trkpt>
      <trkpt lat="36.508554" lon="-5.519507">
        <ele>203.65</ele>
        <time>2015-06-20T16:21:59Z</time>
      </trkpt>
      <trkpt lat="36.508576" lon="-5.519515">
        <ele>203.82</ele>
        <time>2015-06-20T16:22:00Z</time>
      </trkpt>
      <trkpt lat="36.508599" lon="-5.519521">
        <ele>204.15</ele>
        <time>2015-06-20T16:22:01Z</time>
      </trkpt>
      <trkpt lat="36.508622" lon="-5.519527">
        <ele>204.59</ele>
        <time>2015-06-20T16:22:02Z</time>
      </trkpt>
      <trkpt lat="36.508646" lon="-5.519534">
        <ele>204.92</ele>
        <time>2015-06-20T16:22:03Z</time>
      </trkpt>
      <trkpt lat="36.508824" lon="-5.519634">
        <ele>206.22</ele>
        <time>2015-06-20T16:22:11Z</time>
      </trkpt>
      <trkpt lat="36.508845" lon="-5.519649">
        <ele>206.25</ele>
        <time>2015-06-20T16:22:12Z</time>
      </trkpt>
      <trkpt lat="36.508866" lon="-5.519666">
        <ele>206.23</ele>
        <time>2015-06-20T16:22:13Z</time>
      </trkpt>
      <trkpt lat="36.508887" lon="-5.519681">
        <ele>206.26</ele>
        <time>2015-06-20T16:22:14Z</time>
      </trkpt>
      <trkpt lat="36.508907" lon="-5.519696">
        <ele>206.11</ele>
        <time>2015-06-20T16:22:15Z</time>
      </trkpt>
      <trkpt lat="36.508969" lon="-5.519748">
        <ele>206.02</ele>
        <time>2015-06-20T16:22:18Z</time>
      </trkpt>
      <trkpt lat="36.509117" lon="-5.519867">
        <ele>206.11</ele>
        <time>2015-06-20T16:22:25Z</time>
      </trkpt>
      <trkpt lat="36.509217" lon="-5.519938">
        <ele>206.34</ele>
        <time>2015-06-20T16:22:29Z</time>
      </trkpt>
      <trkpt lat="36.509240" lon="-5.519957">
        <ele>206.31</ele>
        <time>2015-06-20T16:22:30Z</time>
      </trkpt>
      <trkpt lat="36.509260" lon="-5.519975">
        <ele>206.36</ele>
        <time>2015-06-20T16:22:31Z</time>
      </trkpt>
      <trkpt lat="36.509282" lon="-5.519988">
        <ele>206.45</ele>
        <time>2015-06-20T16:22:32Z</time>
      </trkpt>
      <trkpt lat="36.509304" lon="-5.519998">
        <ele>206.54</ele>
        <time>2015-06-20T16:22:33Z</time>
      </trkpt>
      <trkpt lat="36.509447" lon="-5.520119">
        <ele>206.43</ele>
        <time>2015-06-20T16:22:40Z</time>
      </trkpt>
      <trkpt lat="36.509504" lon="-5.520160">
        <ele>205.84</ele>
        <time>2015-06-20T16:22:43Z</time>
      </trkpt>
      <trkpt lat="36.509524" lon="-5.520170">
        <ele>205.76</ele>
        <time>2015-06-20T16:22:44Z</time>
      </trkpt>
      <trkpt lat="36.509543" lon="-5.520180">
        <ele>205.68</ele>
        <time>2015-06-20T16:22:45Z</time>
      </trkpt>
      <trkpt lat="36.509562" lon="-5.520187">
        <ele>205.54</ele>
        <time>2015-06-20T16:22:46Z</time>
      </trkpt>
      <trkpt lat="36.509583" lon="-5.520194">
        <ele>205.52</ele>
        <time>2015-06-20T16:22:47Z</time>
      </trkpt>
      <trkpt lat="36.509729" lon="-5.520188">
        <ele>206.21</ele>
        <time>2015-06-20T16:22:54Z</time>
      </trkpt>
      <trkpt lat="36.509803" lon="-5.520161">
        <ele>206.47</ele>
        <time>2015-06-20T16:22:58Z</time>
      </trkpt>
      <trkpt lat="36.509816" lon="-5.520149">
        <ele>206.74</ele>
        <time>2015-06-20T16:22:59Z</time>
      </trkpt>
      <trkpt lat="36.509825" lon="-5.520138">
        <ele>207.02</ele>
        <time>2015-06-20T16:23:00Z</time>
      </trkpt>
      <trkpt lat="36.509836" lon="-5.520131">
        <ele>207.12</ele>
        <time>2015-06-20T16:23:01Z</time>
      </trkpt>
      <trkpt lat="36.509848" lon="-5.520130">
        <ele>207.12</ele>
        <time>2015-06-20T16:23:02Z</time>
      </trkpt>
      <trkpt lat="36.509884" lon="-5.520124">
        <ele>207.16</ele>
        <time>2015-06-20T16:23:04Z</time>
      </trkpt>
      <trkpt lat="36.509945" lon="-5.520090">
        <ele>208.03</ele>
        <time>2015-06-20T16:23:08Z</time>
      </trkpt>
      <trkpt lat="36.509987" lon="-5.520074">
        <ele>208.49</ele>
        <time>2015-06-20T16:23:11Z</time>
      </trkpt>
      <trkpt lat="36.510050" lon="-5.520043">
        <ele>208.98</ele>
        <time>2015-06-20T16:23:15Z</time>
      </trkpt>
      <trkpt lat="36.510067" lon="-5.520032">
        <ele>209.11</ele>
        <time>2015-06-20T16:23:16Z</time>
      </trkpt>
      <trkpt lat="36.510083" lon="-5.520022">
        <ele>209.32</ele>
        <time>2015-06-20T16:23:17Z</time>
      </trkpt>
      <trkpt lat="36.510100" lon="-5.520014">
        <ele>209.41</ele>
        <time>2015-06-20T16:23:18Z</time>
      </trkpt>
      <trkpt lat="36.510115" lon="-5.520001">
        <ele>209.73</ele>
        <time>2015-06-20T16:23:19Z</time>
      </trkpt>
      <trkpt lat="36.510181" lon="-5.519928">
        <ele>211.59</ele>
        <time>2015-06-20T16:23:24Z</time>
      </trkpt>
      <trkpt lat="36.510230" lon="-5.519861">
        <ele>213.17</ele>
        <time>2015-06-20T16:23:28Z</time>
      </trkpt>
      <trkpt lat="36.510240" lon="-5.519842">
        <ele>213.62</ele>
        <time>2015-06-20T16:23:29Z</time>
      </trkpt>
      <trkpt lat="36.510250" lon="-5.519825">
        <ele>214.06</ele>
        <time>2015-06-20T16:23:30Z</time>
      </trkpt>
      <trkpt lat="36.510262" lon="-5.519808">
        <ele>214.43</ele>
        <time>2015-06-20T16:23:31Z</time>
      </trkpt>
      <trkpt lat="36.510274" lon="-5.519793">
        <ele>214.87</ele>
        <time>2015-06-20T16:23:32Z</time>
      </trkpt>
      <trkpt lat="36.510318" lon="-5.519700">
        <ele>216.64</ele>
        <time>2015-06-20T16:23:37Z</time>
      </trkpt>
      <trkpt lat="36.510353" lon="-5.519602">
        <ele>218.42</ele>
        <time>2015-06-20T16:23:43Z</time>
      </trkpt>
      <trkpt lat="36.510357" lon="-5.519586">
        <ele>218.89</ele>
        <time>2015-06-20T16:23:44Z</time>
      </trkpt>
      <trkpt lat="36.510363" lon="-5.519571">
        <ele>219.01</ele>
        <time>2015-06-20T16:23:45Z</time>
      </trkpt>
      <trkpt lat="36.510372" lon="-5.519554">
        <ele>219.31</ele>
        <time>2015-06-20T16:23:46Z</time>
      </trkpt>
      <trkpt lat="36.510380" lon="-5.519536">
        <ele>219.56</ele>
        <time>2015-06-20T16:23:47Z</time>
      </trkpt>
      <trkpt lat="36.510388" lon="-5.519516">
        <ele>219.93</ele>
        <time>2015-06-20T16:23:48Z</time>
      </trkpt>
      <trkpt lat="36.510401" lon="-5.519478">
        <ele>220.57</ele>
        <time>2015-06-20T16:23:50Z</time>
      </trkpt>
      <trkpt lat="36.510447" lon="-5.519423">
        <ele>220.92</ele>
        <time>2015-06-20T16:23:54Z</time>
      </trkpt>
      <trkpt lat="36.510460" lon="-5.519410">
        <ele>221.01</ele>
        <time>2015-06-20T16:23:55Z</time>
      </trkpt>
      <trkpt lat="36.510472" lon="-5.519395">
        <ele>221.25</ele>
        <time>2015-06-20T16:23:56Z</time>
      </trkpt>
      <trkpt lat="36.510484" lon="-5.519382">
        <ele>221.50</ele>
        <time>2015-06-20T16:23:57Z</time>
      </trkpt>
      <trkpt lat="36.510496" lon="-5.519371">
        <ele>221.56</ele>
        <time>2015-06-20T16:23:58Z</time>
      </trkpt>
      <trkpt lat="36.510594" lon="-5.519325">
        <ele>221.17</ele>
        <time>2015-06-20T16:24:04Z</time>
      </trkpt>
      <trkpt lat="36.510606" lon="-5.519329">
        <ele>220.84</ele>
        <time>2015-06-20T16:24:05Z</time>
      </trkpt>
      <trkpt lat="36.510661" lon="-5.519354">
        <ele>218.91</ele>
        <time>2015-06-20T16:24:09Z</time>
      </trkpt>
      <trkpt lat="36.510676" lon="-5.519354">
        <ele>218.71</ele>
        <time>2015-06-20T16:24:10Z</time>
      </trkpt>
      <trkpt lat="36.510690" lon="-5.519353">
        <ele>218.56</ele>
        <time>2015-06-20T16:24:11Z</time>
      </trkpt>
      <trkpt lat="36.510701" lon="-5.519351">
        <ele>218.46</ele>
        <time>2015-06-20T16:24:12Z</time>
      </trkpt>
      <trkpt lat="36.510711" lon="-5.519351">
        <ele>218.35</ele>
        <time>2015-06-20T16:24:13Z</time>
      </trkpt>
      <trkpt lat="36.510725" lon="-5.519351">
        <ele>218.19</ele>
        <time>2015-06-20T16:24:14Z</time>
      </trkpt>
      <trkpt lat="36.510739" lon="-5.519352">
        <ele>217.85</ele>
        <time>2015-06-20T16:24:15Z</time>
      </trkpt>
      <trkpt lat="36.510754" lon="-5.519353">
        <ele>217.53</ele>
        <time>2015-06-20T16:24:16Z</time>
      </trkpt>
      <trkpt lat="36.510875" lon="-5.519313">
        <ele>217.43</ele>
        <time>2015-06-20T16:24:23Z</time>
      </trkpt>
      <trkpt lat="36.510890" lon="-5.519299">
        <ele>217.75</ele>
        <time>2015-06-20T16:24:24Z</time>
      </trkpt>
      <trkpt lat="36.510904" lon="-5.519284">
        <ele>218.28</ele>
        <time>2015-06-20T16:24:25Z</time>
      </trkpt>
      <trkpt lat="36.510918" lon="-5.519272">
        <ele>218.54</ele>
        <time>2015-06-20T16:24:26Z</time>
      </trkpt>
      <trkpt lat="36.510932" lon="-5.519263">
        <ele>218.72</ele>
        <time>2015-06-20T16:24:27Z</time>
      </trkpt>
      <trkpt lat="36.510947" lon="-5.519252">
        <ele>219.01</ele>
        <time>2015-06-20T16:24:28Z</time>
      </trkpt>
      <trkpt lat="36.510975" lon="-5.519233">
        <ele>219.55</ele>
        <time>2015-06-20T16:24:30Z</time>
      </trkpt>
      <trkpt lat="36.511079" lon="-5.519181">
        <ele>220.78</ele>
        <time>2015-06-20T16:24:36Z</time>
      </trkpt>
      <trkpt lat="36.511115" lon="-5.519172">
        <ele>220.87</ele>
        <time>2015-06-20T16:24:38Z</time>
      </trkpt>
      <trkpt lat="36.511134" lon="-5.519173">
        <ele>220.76</ele>
        <time>2015-06-20T16:24:39Z</time>
      </trkpt>
      <trkpt lat="36.511152" lon="-5.519173">
        <ele>220.63</ele>
        <time>2015-06-20T16:24:40Z</time>
      </trkpt>
      <trkpt lat="36.511169" lon="-5.519171">
        <ele>220.68</ele>
        <time>2015-06-20T16:24:41Z</time>
      </trkpt>
      <trkpt lat="36.511218" lon="-5.519160">
        <ele>220.97</ele>
        <time>2015-06-20T16:24:44Z</time>
      </trkpt>
      <trkpt lat="36.511318" lon="-5.519142">
        <ele>221.14</ele>
        <time>2015-06-20T16:24:50Z</time>
      </trkpt>
      <trkpt lat="36.511337" lon="-5.519141">
        <ele>221.14</ele>
        <time>2015-06-20T16:24:51Z</time>
      </trkpt>
      <trkpt lat="36.511358" lon="-5.519142">
        <ele>220.96</ele>
        <time>2015-06-20T16:24:52Z</time>
      </trkpt>
      <trkpt lat="36.511379" lon="-5.519134">
        <ele>221.11</ele>
        <time>2015-06-20T16:24:53Z</time>
      </trkpt>
      <trkpt lat="36.511397" lon="-5.519127">
        <ele>221.31</ele>
        <time>2015-06-20T16:24:54Z</time>
      </trkpt>
      <trkpt lat="36.511481" lon="-5.519089">
        <ele>222.16</ele>
        <time>2015-06-20T16:24:58Z</time>
      </trkpt>
      <trkpt lat="36.511633" lon="-5.519019">
        <ele>223.48</ele>
        <time>2015-06-20T16:25:04Z</time>
      </trkpt>
      <trkpt lat="36.511827" lon="-5.518928">
        <ele>224.56</ele>
        <time>2015-06-20T16:25:11Z</time>
      </trkpt>
      <trkpt lat="36.511878" lon="-5.518901">
        <ele>225.01</ele>
        <time>2015-06-20T16:25:13Z</time>
      </trkpt>
      <trkpt lat="36.511904" lon="-5.518888">
        <ele>225.32</ele>
        <time>2015-06-20T16:25:14Z</time>
      </trkpt>
      <trkpt lat="36.511928" lon="-5.518876">
        <ele>225.66</ele>
        <time>2015-06-20T16:25:15Z</time>
      </trkpt>
      <trkpt lat="36.511951" lon="-5.518860">
        <ele>225.94</ele>
        <time>2015-06-20T16:25:16Z</time>
      </trkpt>
      <trkpt lat="36.511975" lon="-5.518843">
        <ele>226.12</ele>
        <time>2015-06-20T16:25:17Z</time>
      </trkpt>
      <trkpt lat="36.512024" lon="-5.518810">
        <ele>226.52</ele>
        <time>2015-06-20T16:25:19Z</time>
      </trkpt>
      <trkpt lat="36.512250" lon="-5.518681">
        <ele>227.60</ele>
        <time>2015-06-20T16:25:28Z</time>
      </trkpt>
      <trkpt lat="36.512276" lon="-5.518666">
        <ele>227.61</ele>
        <time>2015-06-20T16:25:29Z</time>
      </trkpt>
      <trkpt lat="36.512302" lon="-5.518653">
        <ele>227.51</ele>
        <time>2015-06-20T16:25:30Z</time>
      </trkpt>
      <trkpt lat="36.512327" lon="-5.518641">
        <ele>227.33</ele>
        <time>2015-06-20T16:25:31Z</time>
      </trkpt>
      <trkpt lat="36.512355" lon="-5.518629">
        <ele>227.17</ele>
        <time>2015-06-20T16:25:32Z</time>
      </trkpt>
      <trkpt lat="36.512495" lon="-5.518592">
        <ele>224.86</ele>
        <time>2015-06-20T16:25:37Z</time>
      </trkpt>
      <trkpt lat="36.512657" lon="-5.518539">
        <ele>225.22</ele>
        <time>2015-06-20T16:25:43Z</time>
      </trkpt>
      <trkpt lat="36.512761" lon="-5.518413">
        <ele>227.95</ele>
        <time>2015-06-20T16:25:48Z</time>
      </trkpt>
      <trkpt lat="36.512786" lon="-5.518353">
        <ele>229.46</ele>
        <time>2015-06-20T16:25:50Z</time>
      </trkpt>
      <trkpt lat="36.512798" lon="-5.518321">
        <ele>230.29</ele>
        <time>2015-06-20T16:25:51Z</time>
      </trkpt>
      <trkpt lat="36.512812" lon="-5.518290">
        <ele>231.15</ele>
        <time>2015-06-20T16:25:52Z</time>
      </trkpt>
      <trkpt lat="36.512830" lon="-5.518263">
        <ele>231.89</ele>
        <time>2015-06-20T16:25:53Z</time>
      </trkpt>
      <trkpt lat="36.512947" lon="-5.518180">
        <ele>233.11</ele>
        <time>2015-06-20T16:25:59Z</time>
      </trkpt>
      <trkpt lat="36.513044" lon="-5.518132">
        <ele>233.23</ele>
        <time>2015-06-20T16:26:04Z</time>
      </trkpt>
      <trkpt lat="36.513113" lon="-5.518049">
        <ele>234.31</ele>
        <time>2015-06-20T16:26:08Z</time>
      </trkpt>
      <trkpt lat="36.513128" lon="-5.518026">
        <ele>234.76</ele>
        <time>2015-06-20T16:26:09Z</time>
      </trkpt>
      <trkpt lat="36.513142" lon="-5.518002">
        <ele>235.18</ele>
        <time>2015-06-20T16:26:10Z</time>
      </trkpt>
      <trkpt lat="36.513157" lon="-5.517983">
        <ele>235.50</ele>
        <time>2015-06-20T16:26:11Z</time>
      </trkpt>
      <trkpt lat="36.513172" lon="-5.517968">
        <ele>235.60</ele>
        <time>2015-06-20T16:26:12Z</time>
      </trkpt>
      <trkpt lat="36.513198" lon="-5.517928">
        <ele>236.22</ele>
        <time>2015-06-20T16:26:15Z</time>
      </trkpt>
      <trkpt lat="36.513281" lon="-5.517862">
        <ele>236.62</ele>
        <time>2015-06-20T16:26:21Z</time>
      </trkpt>
      <trkpt lat="36.513411" lon="-5.517822">
        <ele>237.07</ele>
        <time>2015-06-20T16:26:28Z</time>
      </trkpt>
      <trkpt lat="36.513441" lon="-5.517812">
        <ele>237.29</ele>
        <time>2015-06-20T16:26:30Z</time>
      </trkpt>
      <trkpt lat="36.513457" lon="-5.517810">
        <ele>237.35</ele>
        <time>2015-06-20T16:26:31Z</time>
      </trkpt>
      <trkpt lat="36.513475" lon="-5.517808">
        <ele>237.35</ele>
        <time>2015-06-20T16:26:32Z</time>
      </trkpt>
      <trkpt lat="36.513493" lon="-5.517803">
        <ele>237.51</ele>
        <time>2015-06-20T16:26:33Z</time>
      </trkpt>
      <trkpt lat="36.513512" lon="-5.517799">
        <ele>237.61</ele>
        <time>2015-06-20T16:26:34Z</time>
      </trkpt>
      <trkpt lat="36.513553" lon="-5.517789">
        <ele>237.90</ele>
        <time>2015-06-20T16:26:36Z</time>
      </trkpt>
      <trkpt lat="36.513649" lon="-5.517761">
        <ele>238.63</ele>
        <time>2015-06-20T16:26:41Z</time>
      </trkpt>
      <trkpt lat="36.513670" lon="-5.517759">
        <ele>238.86</ele>
        <time>2015-06-20T16:26:42Z</time>
      </trkpt>
      <trkpt lat="36.513726" lon="-5.517742">
        <ele>239.46</ele>
        <time>2015-06-20T16:26:45Z</time>
      </trkpt>
      <trkpt lat="36.513741" lon="-5.517742">
        <ele>239.57</ele>
        <time>2015-06-20T16:26:46Z</time>
      </trkpt>
      <trkpt lat="36.513760" lon="-5.517743">
        <ele>239.65</ele>
        <time>2015-06-20T16:26:47Z</time>
      </trkpt>
      <trkpt lat="36.513779" lon="-5.517745">
        <ele>239.74</ele>
        <time>2015-06-20T16:26:48Z</time>
      </trkpt>
      <trkpt lat="36.513798" lon="-5.517750">
        <ele>239.78</ele>
        <time>2015-06-20T16:26:49Z</time>
      </trkpt>
      <trkpt lat="36.513915" lon="-5.517782">
        <ele>239.92</ele>
        <time>2015-06-20T16:26:56Z</time>
      </trkpt>
      <trkpt lat="36.513986" lon="-5.517806">
        <ele>239.54</ele>
        <time>2015-06-20T16:27:01Z</time>
      </trkpt>
      <trkpt lat="36.514004" lon="-5.517807">
        <ele>239.51</ele>
        <time>2015-06-20T16:27:02Z</time>
      </trkpt>
      <trkpt lat="36.514022" lon="-5.517806">
        <ele>239.51</ele>
        <time>2015-06-20T16:27:03Z</time>
      </trkpt>
      <trkpt lat="36.514040" lon="-5.517801">
        <ele>239.65</ele>
        <time>2015-06-20T16:27:04Z</time>
      </trkpt>
      <trkpt lat="36.514058" lon="-5.517795">
        <ele>239.75</ele>
        <time>2015-06-20T16:27:05Z</time>
      </trkpt>
      <trkpt lat="36.514074" lon="-5.517782">
        <ele>239.93</ele>
        <time>2015-06-20T16:27:06Z</time>
      </trkpt>
      <trkpt lat="36.514109" lon="-5.517753">
        <ele>240.36</ele>
        <time>2015-06-20T16:27:08Z</time>
      </trkpt>
      <trkpt lat="36.514157" lon="-5.517651">
        <ele>241.48</ele>
        <time>2015-06-20T16:27:13Z</time>
      </trkpt>
      <trkpt lat="36.514167" lon="-5.517627">
        <ele>241.69</ele>
        <time>2015-06-20T16:27:14Z</time>
      </trkpt>
      <trkpt lat="36.514171" lon="-5.517601">
        <ele>241.98</ele>
        <time>2015-06-20T16:27:15Z</time>
      </trkpt>
      <trkpt lat="36.514170" lon="-5.517570">
        <ele>242.21</ele>
        <time>2015-06-20T16:27:16Z</time>
      </trkpt>
      <trkpt lat="36.514166" lon="-5.517545">
        <ele>242.56</ele>
        <time>2015-06-20T16:27:17Z</time>
      </trkpt>
      <trkpt lat="36.514166" lon="-5.517523">
        <ele>242.80</ele>
        <time>2015-06-20T16:27:18Z</time>
      </trkpt>
      <trkpt lat="36.514173" lon="-5.517505">
        <ele>242.92</ele>
        <time>2015-06-20T16:27:19Z</time>
      </trkpt>
      <trkpt lat="36.514183" lon="-5.517434">
        <ele>243.81</ele>
        <time>2015-06-20T16:27:22Z</time>
      </trkpt>
      <trkpt lat="36.514216" lon="-5.517260">
        <ele>246.33</ele>
        <time>2015-06-20T16:27:29Z</time>
      </trkpt>
      <trkpt lat="36.514268" lon="-5.517155">
        <ele>247.56</ele>
        <time>2015-06-20T16:27:34Z</time>
      </trkpt>
      <trkpt lat="36.514282" lon="-5.517138">
        <ele>247.74</ele>
        <time>2015-06-20T16:27:35Z</time>
      </trkpt>
      <trkpt lat="36.514297" lon="-5.517120">
        <ele>247.86</ele>
        <time>2015-06-20T16:27:36Z</time>
      </trkpt>
      <trkpt lat="36.514310" lon="-5.517106">
        <ele>248.00</ele>
        <time>2015-06-20T16:27:37Z</time>
      </trkpt>
      <trkpt lat="36.514324" lon="-5.517090">
        <ele>248.16</ele>
        <time>2015-06-20T16:27:38Z</time>
      </trkpt>
      <trkpt lat="36.514365" lon="-5.517020">
        <ele>248.71</ele>
        <time>2015-06-20T16:27:42Z</time>
      </trkpt>
      <trkpt lat="36.514406" lon="-5.516928">
        <ele>249.48</ele>
        <time>2015-06-20T16:27:47Z</time>
      </trkpt>
      <trkpt lat="36.514445" lon="-5.516809">
        <ele>250.57</ele>
        <time>2015-06-20T16:27:53Z</time>
      </trkpt>
      <trkpt lat="36.514454" lon="-5.516793">
        <ele>250.57</ele>
        <time>2015-06-20T16:27:54Z</time>
      </trkpt>
      <trkpt lat="36.514463" lon="-5.516777">
        <ele>250.61</ele>
        <time>2015-06-20T16:27:55Z</time>
      </trkpt>
      <trkpt lat="36.514475" lon="-5.516762">
        <ele>250.61</ele>
        <time>2015-06-20T16:27:56Z</time>
      </trkpt>
      <trkpt lat="36.514490" lon="-5.516748">
        <ele>250.55</ele>
        <time>2015-06-20T16:27:57Z</time>
      </trkpt>
      <trkpt lat="36.514521" lon="-5.516723">
        <ele>250.31</ele>
        <time>2015-06-20T16:27:59Z</time>
      </trkpt>
      <trkpt lat="36.514558" lon="-5.516700">
        <ele>250.14</ele>
        <time>2015-06-20T16:28:01Z</time>
      </trkpt>
      <trkpt lat="36.514703" lon="-5.516617">
        <ele>249.09</ele>
        <time>2015-06-20T16:28:08Z</time>
      </trkpt>
      <trkpt lat="36.514762" lon="-5.516572">
        <ele>249.40</ele>
        <time>2015-06-20T16:28:11Z</time>
      </trkpt>
      <trkpt lat="36.514825" lon="-5.516475">
        <ele>250.24</ele>
        <time>2015-06-20T16:28:16Z</time>
      </trkpt>
      <trkpt lat="36.514932" lon="-5.516411">
        <ele>250.34</ele>
        <time>2015-06-20T16:28:22Z</time>
      </trkpt>
      <trkpt lat="36.515035" lon="-5.516457">
        <ele>249.63</ele>
        <time>2015-06-20T16:28:28Z</time>
      </trkpt>
      <trkpt lat="36.515051" lon="-5.516462">
        <ele>249.64</ele>
        <time>2015-06-20T16:28:29Z</time>
      </trkpt>
      <trkpt lat="36.515064" lon="-5.516467">
        <ele>249.60</ele>
        <time>2015-06-20T16:28:30Z</time>
      </trkpt>
      <trkpt lat="36.515084" lon="-5.516469">
        <ele>249.62</ele>
        <time>2015-06-20T16:28:31Z</time>
      </trkpt>
      <trkpt lat="36.515104" lon="-5.516469">
        <ele>249.71</ele>
        <time>2015-06-20T16:28:32Z</time>
      </trkpt>
      <trkpt lat="36.515134" lon="-5.516472">
        <ele>249.74</ele>
        <time>2015-06-20T16:28:34Z</time>
      </trkpt>
      <trkpt lat="36.515218" lon="-5.516463">
        <ele>250.09</ele>
        <time>2015-06-20T16:28:39Z</time>
      </trkpt>
      <trkpt lat="36.515239" lon="-5.516461">
        <ele>250.13</ele>
        <time>2015-06-20T16:28:40Z</time>
      </trkpt>
      <trkpt lat="36.515260" lon="-5.516455">
        <ele>250.23</ele>
        <time>2015-06-20T16:28:41Z</time>
      </trkpt>
      <trkpt lat="36.515280" lon="-5.516448">
        <ele>250.41</ele>
        <time>2015-06-20T16:28:42Z</time>
      </trkpt>
      <trkpt lat="36.515299" lon="-5.516440">
        <ele>250.75</ele>
        <time>2015-06-20T16:28:43Z</time>
      </trkpt>
      <trkpt lat="36.515357" lon="-5.516437">
        <ele>251.36</ele>
        <time>2015-06-20T16:28:46Z</time>
      </trkpt>
      <trkpt lat="36.515434" lon="-5.516464">
        <ele>251.76</ele>
        <time>2015-06-20T16:28:50Z</time>
      </trkpt>
      <trkpt lat="36.515451" lon="-5.516468">
        <ele>251.88</ele>
        <time>2015-06-20T16:28:51Z</time>
      </trkpt>
      <trkpt lat="36.515492" lon="-5.516478">
        <ele>252.13</ele>
        <time>2015-06-20T16:28:53Z</time>
      </trkpt>
      <trkpt lat="36.515509" lon="-5.516485">
        <ele>252.22</ele>
        <time>2015-06-20T16:28:54Z</time>
      </trkpt>
      <trkpt lat="36.515525" lon="-5.516491">
        <ele>252.21</ele>
        <time>2015-06-20T16:28:55Z</time>
      </trkpt>
      <trkpt lat="36.515540" lon="-5.516495">
        <ele>252.35</ele>
        <time>2015-06-20T16:28:56Z</time>
      </trkpt>
      <trkpt lat="36.515556" lon="-5.516501">
        <ele>252.45</ele>
        <time>2015-06-20T16:28:57Z</time>
      </trkpt>
      <trkpt lat="36.515689" lon="-5.516540">
        <ele>251.67</ele>
        <time>2015-06-20T16:29:04Z</time>
      </trkpt>
      <trkpt lat="36.515725" lon="-5.516545">
        <ele>251.49</ele>
        <time>2015-06-20T16:29:06Z</time>
      </trkpt>
      <trkpt lat="36.515743" lon="-5.516547">
        <ele>251.34</ele>
        <time>2015-06-20T16:29:07Z</time>
      </trkpt>
      <trkpt lat="36.515761" lon="-5.516550">
        <ele>251.36</ele>
        <time>2015-06-20T16:29:08Z</time>
      </trkpt>
      <trkpt lat="36.515783" lon="-5.516550">
        <ele>251.28</ele>
        <time>2015-06-20T16:29:09Z</time>
      </trkpt>
      <trkpt lat="36.515873" lon="-5.516541">
        <ele>251.09</ele>
        <time>2015-06-20T16:29:14Z</time>
      </trkpt>
      <trkpt lat="36.515975" lon="-5.516529">
        <ele>250.78</ele>
        <time>2015-06-20T16:29:20Z</time>
      </trkpt>
      <trkpt lat="36.515991" lon="-5.516531">
        <ele>250.66</ele>
        <time>2015-06-20T16:29:21Z</time>
      </trkpt>
      <trkpt lat="36.516012" lon="-5.516529">
        <ele>250.53</ele>
        <time>2015-06-20T16:29:22Z</time>
      </trkpt>
      <trkpt lat="36.516030" lon="-5.516531">
        <ele>250.41</ele>
        <time>2015-06-20T16:29:23Z</time>
      </trkpt>
      <trkpt lat="36.516052" lon="-5.516532">
        <ele>250.28</ele>
        <time>2015-06-20T16:29:24Z</time>
      </trkpt>
      <trkpt lat="36.516071" lon="-5.516536">
        <ele>250.04</ele>
        <time>2015-06-20T16:29:25Z</time>
      </trkpt>
      <trkpt lat="36.516104" lon="-5.516549">
        <ele>249.64</ele>
        <time>2015-06-20T16:29:27Z</time>
      </trkpt>
      <trkpt lat="36.516209" lon="-5.516535">
        <ele>250.03</ele>
        <time>2015-06-20T16:29:33Z</time>
      </trkpt>
      <trkpt lat="36.516230" lon="-5.516531">
        <ele>250.16</ele>
        <time>2015-06-20T16:29:34Z</time>
      </trkpt>
      <trkpt lat="36.516253" lon="-5.516526">
        <ele>250.38</ele>
        <time>2015-06-20T16:29:35Z</time>
      </trkpt>
      <trkpt lat="36.516273" lon="-5.516520">
        <ele>250.51</ele>
        <time>2015-06-20T16:29:36Z</time>
      </trkpt>
      <trkpt lat="36.516292" lon="-5.516512">
        <ele>250.75</ele>
        <time>2015-06-20T16:29:37Z</time>
      </trkpt>
      <trkpt lat="36.516368" lon="-5.516448">
        <ele>252.54</ele>
        <time>2015-06-20T16:29:41Z</time>
      </trkpt>
      <trkpt lat="36.516404" lon="-5.516412">
        <ele>253.42</ele>
        <time>2015-06-20T16:29:46Z</time>
      </trkpt>
      <trkpt lat="36.516403" lon="-5.516412">
        <ele>253.42</ele>
        <time>2015-06-20T16:29:55Z</time>
      </trkpt>
      <trkpt lat="36.516403" lon="-5.516412">
        <ele>253.41</ele>
        <time>2015-06-20T16:30:04Z</time>
      </trkpt>
      <trkpt lat="36.516403" lon="-5.516412">
        <ele>253.45</ele>
        <time>2015-06-20T16:30:07Z</time>
      </trkpt>
      <trkpt lat="36.516403" lon="-5.516412">
        <ele>253.45</ele>
        <time>2015-06-20T16:30:08Z</time>
      </trkpt>
      <trkpt lat="36.516403" lon="-5.516412">
        <ele>253.41</ele>
        <time>2015-06-20T16:30:16Z</time>
      </trkpt>
      <trkpt lat="36.516403" lon="-5.516412">
        <ele>253.42</ele>
        <time>2015-06-20T16:30:17Z</time>
      </trkpt>
      <trkpt lat="36.516403" lon="-5.516412">
        <ele>253.49</ele>
        <time>2015-06-20T16:30:24Z</time>
      </trkpt>
      <trkpt lat="36.516404" lon="-5.516412">
        <ele>253.49</ele>
        <time>2015-06-20T16:30:32Z</time>
      </trkpt>
      <trkpt lat="36.516404" lon="-5.516412">
        <ele>253.43</ele>
        <time>2015-06-20T16:30:45Z</time>
      </trkpt>
      <trkpt lat="36.516404" lon="-5.516412">
        <ele>253.42</ele>
        <time>2015-06-20T16:30:50Z</time>
      </trkpt>
      <trkpt lat="36.516404" lon="-5.516412">
        <ele>253.48</ele>
        <time>2015-06-20T16:30:58Z</time>
      </trkpt>
      <trkpt lat="36.516404" lon="-5.516412">
        <ele>253.43</ele>
        <time>2015-06-20T16:31:04Z</time>
      </trkpt>
      <trkpt lat="36.516403" lon="-5.516412">
        <ele>253.43</ele>
        <time>2015-06-20T16:31:07Z</time>
      </trkpt>
      <trkpt lat="36.516403" lon="-5.516412">
        <ele>253.41</ele>
        <time>2015-06-20T16:31:09Z</time>
      </trkpt>
      <trkpt lat="36.516403" lon="-5.516412">
        <ele>253.45</ele>
        <time>2015-06-20T16:31:13Z</time>
      </trkpt>
      <trkpt lat="36.516403" lon="-5.516412">
        <ele>253.48</ele>
        <time>2015-06-20T16:31:21Z</time>
      </trkpt>
      <trkpt lat="36.516403" lon="-5.516412">
        <ele>253.45</ele>
        <time>2015-06-20T16:31:25Z</time>
      </trkpt>
      <trkpt lat="36.516403" lon="-5.516412">
        <ele>253.47</ele>
        <time>2015-06-20T16:31:30Z</time>
      </trkpt>
      <trkpt lat="36.516403" lon="-5.516412">
        <ele>253.42</ele>
        <time>2015-06-20T16:31:36Z</time>
      </trkpt>
      <trkpt lat="36.516428" lon="-5.516362">
        <ele>254.72</ele>
        <time>2015-06-20T16:31:39Z</time>
      </trkpt>
      <trkpt lat="36.516551" lon="-5.516285">
        <ele>256.46</ele>
        <time>2015-06-20T16:31:43Z</time>
      </trkpt>
      <trkpt lat="36.516703" lon="-5.516201">
        <ele>257.89</ele>
        <time>2015-06-20T16:31:47Z</time>
      </trkpt>
      <trkpt lat="36.516778" lon="-5.516166">
        <ele>258.36</ele>
        <time>2015-06-20T16:31:49Z</time>
      </trkpt>
      <trkpt lat="36.516819" lon="-5.516157">
        <ele>258.36</ele>
        <time>2015-06-20T16:31:50Z</time>
      </trkpt>
      <trkpt lat="36.516965" lon="-5.516141">
        <ele>257.81</ele>
        <time>2015-06-20T16:31:54Z</time>
      </trkpt>
      <trkpt lat="36.517087" lon="-5.516142">
        <ele>256.11</ele>
        <time>2015-06-20T16:31:58Z</time>
      </trkpt>
      <trkpt lat="36.517190" lon="-5.516140">
        <ele>254.67</ele>
        <time>2015-06-20T16:32:02Z</time>
      </trkpt>
      <trkpt lat="36.517325" lon="-5.516130">
        <ele>253.37</ele>
        <time>2015-06-20T16:32:06Z</time>
      </trkpt>
      <trkpt lat="36.517363" lon="-5.516128">
        <ele>253.01</ele>
        <time>2015-06-20T16:32:07Z</time>
      </trkpt>
      <trkpt lat="36.517398" lon="-5.516116">
        <ele>253.07</ele>
        <time>2015-06-20T16:32:08Z</time>
      </trkpt>
      <trkpt lat="36.517432" lon="-5.516103">
        <ele>252.93</ele>
        <time>2015-06-20T16:32:09Z</time>
      </trkpt>
      <trkpt lat="36.517463" lon="-5.516086">
        <ele>253.02</ele>
        <time>2015-06-20T16:32:10Z</time>
      </trkpt>
      <trkpt lat="36.517609" lon="-5.515965">
        <ele>252.47</ele>
        <time>2015-06-20T16:32:15Z</time>
      </trkpt>
      <trkpt lat="36.517660" lon="-5.515757">
        <ele>254.46</ele>
        <time>2015-06-20T16:32:20Z</time>
      </trkpt>
      <trkpt lat="36.517609" lon="-5.515566">
        <ele>256.86</ele>
        <time>2015-06-20T16:32:25Z</time>
      </trkpt>
      <trkpt lat="36.517486" lon="-5.515398">
        <ele>259.10</ele>
        <time>2015-06-20T16:32:30Z</time>
      </trkpt>
      <trkpt lat="36.517432" lon="-5.515283">
        <ele>259.52</ele>
        <time>2015-06-20T16:32:33Z</time>
      </trkpt>
      <trkpt lat="36.517425" lon="-5.515204">
        <ele>259.51</ele>
        <time>2015-06-20T16:32:35Z</time>
      </trkpt>
      <trkpt lat="36.517421" lon="-5.514970">
        <ele>259.39</ele>
        <time>2015-06-20T16:32:41Z</time>
      </trkpt>
      <trkpt lat="36.517361" lon="-5.514722">
        <ele>262.05</ele>
        <time>2015-06-20T16:32:47Z</time>
      </trkpt>
      <trkpt lat="36.517354" lon="-5.514607">
        <ele>263.54</ele>
        <time>2015-06-20T16:32:51Z</time>
      </trkpt>
      <trkpt lat="36.517341" lon="-5.514538">
        <ele>264.87</ele>
        <time>2015-06-20T16:32:54Z</time>
      </trkpt>
      <trkpt lat="36.517341" lon="-5.514475">
        <ele>265.58</ele>
        <time>2015-06-20T16:32:56Z</time>
      </trkpt>
      <trkpt lat="36.517346" lon="-5.514441">
        <ele>265.76</ele>
        <time>2015-06-20T16:32:57Z</time>
      </trkpt>
      <trkpt lat="36.517418" lon="-5.514288">
        <ele>266.11</ele>
        <time>2015-06-20T16:33:01Z</time>
      </trkpt>
      <trkpt lat="36.517551" lon="-5.514063">
        <ele>266.61</ele>
        <time>2015-06-20T16:33:08Z</time>
      </trkpt>
      <trkpt lat="36.517706" lon="-5.513875">
        <ele>267.57</ele>
        <time>2015-06-20T16:33:15Z</time>
      </trkpt>
      <trkpt lat="36.517861" lon="-5.513875">
        <ele>263.97</ele>
        <time>2015-06-20T16:33:20Z</time>
      </trkpt>
      <trkpt lat="36.517889" lon="-5.513869">
        <ele>263.61</ele>
        <time>2015-06-20T16:33:21Z</time>
      </trkpt>
      <trkpt lat="36.517910" lon="-5.513867">
        <ele>263.31</ele>
        <time>2015-06-20T16:33:22Z</time>
      </trkpt>
      <trkpt lat="36.517930" lon="-5.513861">
        <ele>263.20</ele>
        <time>2015-06-20T16:33:23Z</time>
      </trkpt>
      <trkpt lat="36.517946" lon="-5.513844">
        <ele>263.46</ele>
        <time>2015-06-20T16:33:24Z</time>
      </trkpt>
      <trkpt lat="36.517962" lon="-5.513834">
        <ele>263.49</ele>
        <time>2015-06-20T16:33:25Z</time>
      </trkpt>
      <trkpt lat="36.518005" lon="-5.513781">
        <ele>264.35</ele>
        <time>2015-06-20T16:33:28Z</time>
      </trkpt>
      <trkpt lat="36.518060" lon="-5.513742">
        <ele>264.76</ele>
        <time>2015-06-20T16:33:31Z</time>
      </trkpt>
      <trkpt lat="36.518084" lon="-5.513726">
        <ele>265.10</ele>
        <time>2015-06-20T16:33:33Z</time>
      </trkpt>
      <trkpt lat="36.518113" lon="-5.513701">
        <ele>265.55</ele>
        <time>2015-06-20T16:33:35Z</time>
      </trkpt>
      <trkpt lat="36.518161" lon="-5.513661">
        <ele>266.35</ele>
        <time>2015-06-20T16:33:38Z</time>
      </trkpt>
      <trkpt lat="36.518176" lon="-5.513646">
        <ele>266.69</ele>
        <time>2015-06-20T16:33:39Z</time>
      </trkpt>
      <trkpt lat="36.518191" lon="-5.513637">
        <ele>266.71</ele>
        <time>2015-06-20T16:33:40Z</time>
      </trkpt>
      <trkpt lat="36.518211" lon="-5.513628">
        <ele>266.83</ele>
        <time>2015-06-20T16:33:41Z</time>
      </trkpt>
      <trkpt lat="36.518244" lon="-5.513603">
        <ele>267.31</ele>
        <time>2015-06-20T16:33:43Z</time>
      </trkpt>
      <trkpt lat="36.518338" lon="-5.513547">
        <ele>268.33</ele>
        <time>2015-06-20T16:33:49Z</time>
      </trkpt>
      <trkpt lat="36.518355" lon="-5.513547">
        <ele>268.44</ele>
        <time>2015-06-20T16:33:50Z</time>
      </trkpt>
      <trkpt lat="36.518375" lon="-5.513555">
        <ele>268.18</ele>
        <time>2015-06-20T16:33:51Z</time>
      </trkpt>
      <trkpt lat="36.518393" lon="-5.513566">
        <ele>267.85</ele>
        <time>2015-06-20T16:33:52Z</time>
      </trkpt>
      <trkpt lat="36.518410" lon="-5.513576">
        <ele>267.58</ele>
        <time>2015-06-20T16:33:53Z</time>
      </trkpt>
      <trkpt lat="36.518461" lon="-5.513582">
        <ele>267.42</ele>
        <time>2015-06-20T16:33:56Z</time>
      </trkpt>
      <trkpt lat="36.518540" lon="-5.513565">
        <ele>268.26</ele>
        <time>2015-06-20T16:34:00Z</time>
      </trkpt>
      <trkpt lat="36.518598" lon="-5.513559">
        <ele>268.52</ele>
        <time>2015-06-20T16:34:03Z</time>
      </trkpt>
      <trkpt lat="36.518615" lon="-5.513558">
        <ele>268.59</ele>
        <time>2015-06-20T16:34:04Z</time>
      </trkpt>
      <trkpt lat="36.518634" lon="-5.513564">
        <ele>268.46</ele>
        <time>2015-06-20T16:34:05Z</time>
      </trkpt>
      <trkpt lat="36.518652" lon="-5.513569">
        <ele>268.23</ele>
        <time>2015-06-20T16:34:06Z</time>
      </trkpt>
      <trkpt lat="36.518727" lon="-5.513567">
        <ele>268.31</ele>
        <time>2015-06-20T16:34:10Z</time>
      </trkpt>
      <trkpt lat="36.518846" lon="-5.513549">
        <ele>269.05</ele>
        <time>2015-06-20T16:34:16Z</time>
      </trkpt>
      <trkpt lat="36.518901" lon="-5.513546">
        <ele>269.05</ele>
        <time>2015-06-20T16:34:19Z</time>
      </trkpt>
      <trkpt lat="36.518917" lon="-5.513535">
        <ele>269.33</ele>
        <time>2015-06-20T16:34:20Z</time>
      </trkpt>
      <trkpt lat="36.518938" lon="-5.513522">
        <ele>269.58</ele>
        <time>2015-06-20T16:34:21Z</time>
      </trkpt>
      <trkpt lat="36.518953" lon="-5.513507">
        <ele>269.95</ele>
        <time>2015-06-20T16:34:22Z</time>
      </trkpt>
      <trkpt lat="36.518975" lon="-5.513491">
        <ele>270.37</ele>
        <time>2015-06-20T16:34:23Z</time>
      </trkpt>
      <trkpt lat="36.519048" lon="-5.513371">
        <ele>273.69</ele>
        <time>2015-06-20T16:34:29Z</time>
      </trkpt>
      <trkpt lat="36.519070" lon="-5.513243">
        <ele>277.72</ele>
        <time>2015-06-20T16:34:34Z</time>
      </trkpt>
      <trkpt lat="36.519084" lon="-5.513200">
        <ele>279.19</ele>
        <time>2015-06-20T16:34:36Z</time>
      </trkpt>
      <trkpt lat="36.519104" lon="-5.513150">
        <ele>280.58</ele>
        <time>2015-06-20T16:34:38Z</time>
      </trkpt>
      <trkpt lat="36.519117" lon="-5.513132">
        <ele>281.02</ele>
        <time>2015-06-20T16:34:39Z</time>
      </trkpt>
      <trkpt lat="36.519124" lon="-5.513112">
        <ele>281.61</ele>
        <time>2015-06-20T16:34:40Z</time>
      </trkpt>
      <trkpt lat="36.519134" lon="-5.513092">
        <ele>282.26</ele>
        <time>2015-06-20T16:34:41Z</time>
      </trkpt>
      <trkpt lat="36.519147" lon="-5.513069">
        <ele>282.87</ele>
        <time>2015-06-20T16:34:42Z</time>
      </trkpt>
      <trkpt lat="36.519226" lon="-5.512976">
        <ele>284.34</ele>
        <time>2015-06-20T16:34:48Z</time>
      </trkpt>
      <trkpt lat="36.519314" lon="-5.512913">
        <ele>284.80</ele>
        <time>2015-06-20T16:34:54Z</time>
      </trkpt>
      <trkpt lat="36.519323" lon="-5.512904">
        <ele>284.83</ele>
        <time>2015-06-20T16:34:55Z</time>
      </trkpt>
      <trkpt lat="36.519334" lon="-5.512894">
        <ele>284.92</ele>
        <time>2015-06-20T16:34:56Z</time>
      </trkpt>
      <trkpt lat="36.519349" lon="-5.512885">
        <ele>284.98</ele>
        <time>2015-06-20T16:34:57Z</time>
      </trkpt>
      <trkpt lat="36.519364" lon="-5.512872">
        <ele>285.04</ele>
        <time>2015-06-20T16:34:58Z</time>
      </trkpt>
      <trkpt lat="36.519407" lon="-5.512845">
        <ele>285.16</ele>
        <time>2015-06-20T16:35:00Z</time>
      </trkpt>
      <trkpt lat="36.519506" lon="-5.512809">
        <ele>284.40</ele>
        <time>2015-06-20T16:35:06Z</time>
      </trkpt>
      <trkpt lat="36.519526" lon="-5.512801">
        <ele>284.32</ele>
        <time>2015-06-20T16:35:07Z</time>
      </trkpt>
      <trkpt lat="36.519540" lon="-5.512794">
        <ele>284.31</ele>
        <time>2015-06-20T16:35:08Z</time>
      </trkpt>
      <trkpt lat="36.519556" lon="-5.512783">
        <ele>284.40</ele>
        <time>2015-06-20T16:35:09Z</time>
      </trkpt>
      <trkpt lat="36.519570" lon="-5.512775">
        <ele>284.25</ele>
        <time>2015-06-20T16:35:10Z</time>
      </trkpt>
      <trkpt lat="36.519591" lon="-5.512768">
        <ele>284.17</ele>
        <time>2015-06-20T16:35:11Z</time>
      </trkpt>
      <trkpt lat="36.519610" lon="-5.512758">
        <ele>284.06</ele>
        <time>2015-06-20T16:35:12Z</time>
      </trkpt>
      <trkpt lat="36.519725" lon="-5.512667">
        <ele>284.46</ele>
        <time>2015-06-20T16:35:18Z</time>
      </trkpt>
      <trkpt lat="36.519838" lon="-5.512580">
        <ele>284.69</ele>
        <time>2015-06-20T16:35:24Z</time>
      </trkpt>
      <trkpt lat="36.519932" lon="-5.512553">
        <ele>283.88</ele>
        <time>2015-06-20T16:35:29Z</time>
      </trkpt>
      <trkpt lat="36.519951" lon="-5.512549">
        <ele>283.67</ele>
        <time>2015-06-20T16:35:30Z</time>
      </trkpt>
      <trkpt lat="36.519969" lon="-5.512544">
        <ele>283.55</ele>
        <time>2015-06-20T16:35:31Z</time>
      </trkpt>
      <trkpt lat="36.519992" lon="-5.512546">
        <ele>283.10</ele>
        <time>2015-06-20T16:35:32Z</time>
      </trkpt>
      <trkpt lat="36.520012" lon="-5.512541">
        <ele>283.01</ele>
        <time>2015-06-20T16:35:33Z</time>
      </trkpt>
      <trkpt lat="36.520029" lon="-5.512534">
        <ele>283.01</ele>
        <time>2015-06-20T16:35:34Z</time>
      </trkpt>
      <trkpt lat="36.520063" lon="-5.512544">
        <ele>282.43</ele>
        <time>2015-06-20T16:35:36Z</time>
      </trkpt>
      <trkpt lat="36.520154" lon="-5.512573">
        <ele>281.12</ele>
        <time>2015-06-20T16:35:41Z</time>
      </trkpt>
      <trkpt lat="36.520176" lon="-5.512580">
        <ele>280.76</ele>
        <time>2015-06-20T16:35:42Z</time>
      </trkpt>
      <trkpt lat="36.520194" lon="-5.512586">
        <ele>280.57</ele>
        <time>2015-06-20T16:35:43Z</time>
      </trkpt>
      <trkpt lat="36.520216" lon="-5.512581">
        <ele>280.46</ele>
        <time>2015-06-20T16:35:44Z</time>
      </trkpt>
      <trkpt lat="36.520235" lon="-5.512575">
        <ele>280.39</ele>
        <time>2015-06-20T16:35:45Z</time>
      </trkpt>
      <trkpt lat="36.520254" lon="-5.512569">
        <ele>280.29</ele>
        <time>2015-06-20T16:35:46Z</time>
      </trkpt>
      <trkpt lat="36.520273" lon="-5.512565">
        <ele>280.17</ele>
        <time>2015-06-20T16:35:47Z</time>
      </trkpt>
      <trkpt lat="36.520374" lon="-5.512492">
        <ele>280.88</ele>
        <time>2015-06-20T16:35:53Z</time>
      </trkpt>
      <trkpt lat="36.520484" lon="-5.512391">
        <ele>282.23</ele>
        <time>2015-06-20T16:35:59Z</time>
      </trkpt>
      <trkpt lat="36.520533" lon="-5.512335">
        <ele>283.12</ele>
        <time>2015-06-20T16:36:02Z</time>
      </trkpt>
      <trkpt lat="36.520547" lon="-5.512316">
        <ele>283.31</ele>
        <time>2015-06-20T16:36:03Z</time>
      </trkpt>
      <trkpt lat="36.520561" lon="-5.512299">
        <ele>283.62</ele>
        <time>2015-06-20T16:36:04Z</time>
      </trkpt>
      <trkpt lat="36.520579" lon="-5.512280">
        <ele>283.99</ele>
        <time>2015-06-20T16:36:05Z</time>
      </trkpt>
      <trkpt lat="36.520595" lon="-5.512262">
        <ele>284.36</ele>
        <time>2015-06-20T16:36:06Z</time>
      </trkpt>
      <trkpt lat="36.520615" lon="-5.512247">
        <ele>284.52</ele>
        <time>2015-06-20T16:36:07Z</time>
      </trkpt>
      <trkpt lat="36.520659" lon="-5.512183">
        <ele>285.83</ele>
        <time>2015-06-20T16:36:11Z</time>
      </trkpt>
      <trkpt lat="36.520745" lon="-5.512044">
        <ele>288.87</ele>
        <time>2015-06-20T16:36:18Z</time>
      </trkpt>
      <trkpt lat="36.520772" lon="-5.512010">
        <ele>289.68</ele>
        <time>2015-06-20T16:36:20Z</time>
      </trkpt>
      <trkpt lat="36.520788" lon="-5.511987">
        <ele>290.13</ele>
        <time>2015-06-20T16:36:21Z</time>
      </trkpt>
      <trkpt lat="36.520806" lon="-5.511969">
        <ele>290.58</ele>
        <time>2015-06-20T16:36:22Z</time>
      </trkpt>
      <trkpt lat="36.520824" lon="-5.511952">
        <ele>290.86</ele>
        <time>2015-06-20T16:36:23Z</time>
      </trkpt>
      <trkpt lat="36.520843" lon="-5.511934">
        <ele>291.23</ele>
        <time>2015-06-20T16:36:24Z</time>
      </trkpt>
      <trkpt lat="36.520938" lon="-5.511890">
        <ele>291.81</ele>
        <time>2015-06-20T16:36:29Z</time>
      </trkpt>
      <trkpt lat="36.521050" lon="-5.511875">
        <ele>291.73</ele>
        <time>2015-06-20T16:36:35Z</time>
      </trkpt>
      <trkpt lat="36.521071" lon="-5.511881">
        <ele>291.59</ele>
        <time>2015-06-20T16:36:36Z</time>
      </trkpt>
      <trkpt lat="36.521092" lon="-5.511881">
        <ele>291.50</ele>
        <time>2015-06-20T16:36:37Z</time>
      </trkpt>
      <trkpt lat="36.521109" lon="-5.511892">
        <ele>291.12</ele>
        <time>2015-06-20T16:36:38Z</time>
      </trkpt>
      <trkpt lat="36.521132" lon="-5.511903">
        <ele>290.94</ele>
        <time>2015-06-20T16:36:39Z</time>
      </trkpt>
      <trkpt lat="36.521200" lon="-5.511934">
        <ele>290.23</ele>
        <time>2015-06-20T16:36:42Z</time>
      </trkpt>
      <trkpt lat="36.521300" lon="-5.511960">
        <ele>289.81</ele>
        <time>2015-06-20T16:36:47Z</time>
      </trkpt>
      <trkpt lat="36.521451" lon="-5.511989">
        <ele>290.18</ele>
        <time>2015-06-20T16:36:53Z</time>
      </trkpt>
      <trkpt lat="36.521576" lon="-5.512029">
        <ele>291.08</ele>
        <time>2015-06-20T16:36:59Z</time>
      </trkpt>
      <trkpt lat="36.521596" lon="-5.512038">
        <ele>291.13</ele>
        <time>2015-06-20T16:37:00Z</time>
      </trkpt>
      <trkpt lat="36.521614" lon="-5.512047">
        <ele>291.33</ele>
        <time>2015-06-20T16:37:01Z</time>
      </trkpt>
      <trkpt lat="36.521634" lon="-5.512054">
        <ele>291.41</ele>
        <time>2015-06-20T16:37:02Z</time>
      </trkpt>
      <trkpt lat="36.521652" lon="-5.512056">
        <ele>291.62</ele>
        <time>2015-06-20T16:37:03Z</time>
      </trkpt>
      <trkpt lat="36.521727" lon="-5.512088">
        <ele>292.02</ele>
        <time>2015-06-20T16:37:07Z</time>
      </trkpt>
      <trkpt lat="36.521893" lon="-5.512096">
        <ele>293.46</ele>
        <time>2015-06-20T16:37:14Z</time>
      </trkpt>
      <trkpt lat="36.521936" lon="-5.512090">
        <ele>293.99</ele>
        <time>2015-06-20T16:37:16Z</time>
      </trkpt>
      <trkpt lat="36.521957" lon="-5.512096">
        <ele>293.99</ele>
        <time>2015-06-20T16:37:17Z</time>
      </trkpt>
      <trkpt lat="36.521983" lon="-5.512098">
        <ele>293.72</ele>
        <time>2015-06-20T16:37:18Z</time>
      </trkpt>
      <trkpt lat="36.522000" lon="-5.512097">
        <ele>293.72</ele>
        <time>2015-06-20T16:37:19Z</time>
      </trkpt>
      <trkpt lat="36.522018" lon="-5.512097">
        <ele>293.68</ele>
        <time>2015-06-20T16:37:20Z</time>
      </trkpt>
      <trkpt lat="36.522152" lon="-5.512088">
        <ele>293.27</ele>
        <time>2015-06-20T16:37:26Z</time>
      </trkpt>
      <trkpt lat="36.522286" lon="-5.512020">
        <ele>293.58</ele>
        <time>2015-06-20T16:37:32Z</time>
      </trkpt>
      <trkpt lat="36.522304" lon="-5.512012">
        <ele>293.42</ele>
        <time>2015-06-20T16:37:33Z</time>
      </trkpt>
      <trkpt lat="36.522324" lon="-5.511995">
        <ele>293.51</ele>
        <time>2015-06-20T16:37:34Z</time>
      </trkpt>
      <trkpt lat="36.522344" lon="-5.511979">
        <ele>293.67</ele>
        <time>2015-06-20T16:37:35Z</time>
      </trkpt>
      <trkpt lat="36.522366" lon="-5.511966">
        <ele>293.73</ele>
        <time>2015-06-20T16:37:36Z</time>
      </trkpt>
      <trkpt lat="36.522435" lon="-5.511943">
        <ele>293.56</ele>
        <time>2015-06-20T16:37:39Z</time>
      </trkpt>
      <trkpt lat="36.522542" lon="-5.511896">
        <ele>294.87</ele>
        <time>2015-06-20T16:37:45Z</time>
      </trkpt>
      <trkpt lat="36.522560" lon="-5.511889">
        <ele>295.20</ele>
        <time>2015-06-20T16:37:46Z</time>
      </trkpt>
      <trkpt lat="36.522566" lon="-5.511881">
        <ele>295.50</ele>
        <time>2015-06-20T16:37:47Z</time>
      </trkpt>
      <trkpt lat="36.522582" lon="-5.511876">
        <ele>295.62</ele>
        <time>2015-06-20T16:37:48Z</time>
      </trkpt>
      <trkpt lat="36.522600" lon="-5.511881">
        <ele>295.73</ele>
        <time>2015-06-20T16:37:49Z</time>
      </trkpt>
      <trkpt lat="36.522615" lon="-5.511881">
        <ele>295.84</ele>
        <time>2015-06-20T16:37:50Z</time>
      </trkpt>
      <trkpt lat="36.522714" lon="-5.511873">
        <ele>296.82</ele>
        <time>2015-06-20T16:37:56Z</time>
      </trkpt>
      <trkpt lat="36.522783" lon="-5.511830">
        <ele>298.11</ele>
        <time>2015-06-20T16:38:00Z</time>
      </trkpt>
      <trkpt lat="36.522798" lon="-5.511816">
        <ele>298.31</ele>
        <time>2015-06-20T16:38:01Z</time>
      </trkpt>
      <trkpt lat="36.522815" lon="-5.511805">
        <ele>298.45</ele>
        <time>2015-06-20T16:38:02Z</time>
      </trkpt>
      <trkpt lat="36.522835" lon="-5.511795">
        <ele>298.67</ele>
        <time>2015-06-20T16:38:03Z</time>
      </trkpt>
      <trkpt lat="36.522852" lon="-5.511779">
        <ele>298.89</ele>
        <time>2015-06-20T16:38:04Z</time>
      </trkpt>
      <trkpt lat="36.522928" lon="-5.511689">
        <ele>299.67</ele>
        <time>2015-06-20T16:38:09Z</time>
      </trkpt>
      <trkpt lat="36.522977" lon="-5.511562">
        <ele>301.49</ele>
        <time>2015-06-20T16:38:15Z</time>
      </trkpt>
      <trkpt lat="36.522990" lon="-5.511548">
        <ele>301.52</ele>
        <time>2015-06-20T16:38:16Z</time>
      </trkpt>
      <trkpt lat="36.523002" lon="-5.511536">
        <ele>301.53</ele>
        <time>2015-06-20T16:38:17Z</time>
      </trkpt>
      <trkpt lat="36.523007" lon="-5.511522">
        <ele>301.74</ele>
        <time>2015-06-20T16:38:18Z</time>
      </trkpt>
      <trkpt lat="36.523013" lon="-5.511502">
        <ele>302.02</ele>
        <time>2015-06-20T16:38:19Z</time>
      </trkpt>
      <trkpt lat="36.523019" lon="-5.511435">
        <ele>302.98</ele>
        <time>2015-06-20T16:38:22Z</time>
      </trkpt>
      <trkpt lat="36.522988" lon="-5.511285">
        <ele>305.51</ele>
        <time>2015-06-20T16:38:29Z</time>
      </trkpt>
      <trkpt lat="36.522988" lon="-5.511269">
        <ele>305.71</ele>
        <time>2015-06-20T16:38:30Z</time>
      </trkpt>
      <trkpt lat="36.522991" lon="-5.511244">
        <ele>306.08</ele>
        <time>2015-06-20T16:38:31Z</time>
      </trkpt>
      <trkpt lat="36.522995" lon="-5.511218">
        <ele>306.22</ele>
        <time>2015-06-20T16:38:32Z</time>
      </trkpt>
      <trkpt lat="36.522992" lon="-5.511196">
        <ele>306.55</ele>
        <time>2015-06-20T16:38:33Z</time>
      </trkpt>
      <trkpt lat="36.522984" lon="-5.511147">
        <ele>307.39</ele>
        <time>2015-06-20T16:38:35Z</time>
      </trkpt>
      <trkpt lat="36.522978" lon="-5.511104">
        <ele>308.03</ele>
        <time>2015-06-20T16:38:37Z</time>
      </trkpt>
      <trkpt lat="36.522980" lon="-5.511042">
        <ele>308.42</ele>
        <time>2015-06-20T16:38:40Z</time>
      </trkpt>
      <trkpt lat="36.523007" lon="-5.510951">
        <ele>308.45</ele>
        <time>2015-06-20T16:38:44Z</time>
      </trkpt>
      <trkpt lat="36.523018" lon="-5.510932">
        <ele>308.27</ele>
        <time>2015-06-20T16:38:45Z</time>
      </trkpt>
      <trkpt lat="36.523026" lon="-5.510908">
        <ele>308.28</ele>
        <time>2015-06-20T16:38:46Z</time>
      </trkpt>
      <trkpt lat="36.523039" lon="-5.510887">
        <ele>308.06</ele>
        <time>2015-06-20T16:38:47Z</time>
      </trkpt>
      <trkpt lat="36.523047" lon="-5.510866">
        <ele>308.03</ele>
        <time>2015-06-20T16:38:48Z</time>
      </trkpt>
      <trkpt lat="36.523093" lon="-5.510776">
        <ele>307.71</ele>
        <time>2015-06-20T16:38:52Z</time>
      </trkpt>
      <trkpt lat="36.523107" lon="-5.510754">
        <ele>307.68</ele>
        <time>2015-06-20T16:38:53Z</time>
      </trkpt>
      <trkpt lat="36.523172" lon="-5.510629">
        <ele>307.38</ele>
        <time>2015-06-20T16:38:59Z</time>
      </trkpt>
      <trkpt lat="36.523182" lon="-5.510614">
        <ele>307.23</ele>
        <time>2015-06-20T16:39:00Z</time>
      </trkpt>
      <trkpt lat="36.523192" lon="-5.510597">
        <ele>307.13</ele>
        <time>2015-06-20T16:39:01Z</time>
      </trkpt>
      <trkpt lat="36.523201" lon="-5.510584">
        <ele>307.10</ele>
        <time>2015-06-20T16:39:02Z</time>
      </trkpt>
      <trkpt lat="36.523213" lon="-5.510569">
        <ele>306.94</ele>
        <time>2015-06-20T16:39:03Z</time>
      </trkpt>
      <trkpt lat="36.523294" lon="-5.510488">
        <ele>306.54</ele>
        <time>2015-06-20T16:39:08Z</time>
      </trkpt>
      <trkpt lat="36.523460" lon="-5.510406">
        <ele>306.56</ele>
        <time>2015-06-20T16:39:15Z</time>
      </trkpt>
      <trkpt lat="36.523580" lon="-5.510364">
        <ele>306.64</ele>
        <time>2015-06-20T16:39:21Z</time>
      </trkpt>
      <trkpt lat="36.523683" lon="-5.510314">
        <ele>307.37</ele>
        <time>2015-06-20T16:39:26Z</time>
      </trkpt>
      <trkpt lat="36.523703" lon="-5.510301">
        <ele>307.62</ele>
        <time>2015-06-20T16:39:27Z</time>
      </trkpt>
      <trkpt lat="36.523724" lon="-5.510293">
        <ele>307.71</ele>
        <time>2015-06-20T16:39:28Z</time>
      </trkpt>
      <trkpt lat="36.523749" lon="-5.510290">
        <ele>307.88</ele>
        <time>2015-06-20T16:39:29Z</time>
      </trkpt>
      <trkpt lat="36.523770" lon="-5.510285">
        <ele>307.93</ele>
        <time>2015-06-20T16:39:30Z</time>
      </trkpt>
      <trkpt lat="36.523791" lon="-5.510282">
        <ele>307.96</ele>
        <time>2015-06-20T16:39:31Z</time>
      </trkpt>
      <trkpt lat="36.523811" lon="-5.510280">
        <ele>308.04</ele>
        <time>2015-06-20T16:39:32Z</time>
      </trkpt>
      <trkpt lat="36.523818" lon="-5.510279">
        <ele>308.04</ele>
        <time>2015-06-20T16:39:36Z</time>
      </trkpt>
      <trkpt lat="36.523818" lon="-5.510279">
        <ele>308.03</ele>
        <time>2015-06-20T16:39:47Z</time>
      </trkpt>
      <trkpt lat="36.523818" lon="-5.510279">
        <ele>308.04</ele>
        <time>2015-06-20T16:39:53Z</time>
      </trkpt>
      <trkpt lat="36.523818" lon="-5.510279">
        <ele>308.06</ele>
        <time>2015-06-20T16:40:01Z</time>
      </trkpt>
      <trkpt lat="36.523818" lon="-5.510280">
        <ele>308.04</ele>
        <time>2015-06-20T16:40:18Z</time>
      </trkpt>
      <trkpt lat="36.523818" lon="-5.510280">
        <ele>308.02</ele>
        <time>2015-06-20T16:40:20Z</time>
      </trkpt>
      <trkpt lat="36.523818" lon="-5.510280">
        <ele>308.02</ele>
        <time>2015-06-20T16:40:26Z</time>
      </trkpt>
      <trkpt lat="36.523818" lon="-5.510280">
        <ele>308.01</ele>
        <time>2015-06-20T16:40:36Z</time>
      </trkpt>
      <trkpt lat="36.523818" lon="-5.510280">
        <ele>308.01</ele>
        <time>2015-06-20T16:40:42Z</time>
      </trkpt>
      <trkpt lat="36.523818" lon="-5.510280">
        <ele>308.08</ele>
        <time>2015-06-20T16:40:47Z</time>
      </trkpt>
      <trkpt lat="36.523818" lon="-5.510280">
        <ele>308.01</ele>
        <time>2015-06-20T16:40:51Z</time>
      </trkpt>
      <trkpt lat="36.523813" lon="-5.510283">
        <ele>307.98</ele>
        <time>2015-06-20T16:40:56Z</time>
      </trkpt>
      <trkpt lat="36.523813" lon="-5.510283">
        <ele>307.91</ele>
        <time>2015-06-20T16:41:00Z</time>
      </trkpt>
      <trkpt lat="36.523813" lon="-5.510283">
        <ele>307.94</ele>
        <time>2015-06-20T16:41:02Z</time>
      </trkpt>
      <trkpt lat="36.523813" lon="-5.510283">
        <ele>307.91</ele>
        <time>2015-06-20T16:41:04Z</time>
      </trkpt>
      <trkpt lat="36.523813" lon="-5.510283">
        <ele>307.96</ele>
        <time>2015-06-20T16:41:09Z</time>
      </trkpt>
      <trkpt lat="36.523813" lon="-5.510283">
        <ele>307.95</ele>
        <time>2015-06-20T16:41:11Z</time>
      </trkpt>
      <trkpt lat="36.523813" lon="-5.510283">
        <ele>307.95</ele>
        <time>2015-06-20T16:41:17Z</time>
      </trkpt>
      <trkpt lat="36.523813" lon="-5.510283">
        <ele>307.91</ele>
        <time>2015-06-20T16:41:22Z</time>
      </trkpt>
      <trkpt lat="36.523813" lon="-5.510283">
        <ele>307.91</ele>
        <time>2015-06-20T16:41:25Z</time>
      </trkpt>
      <trkpt lat="36.523813" lon="-5.510283">
        <ele>308.00</ele>
        <time>2015-06-20T16:41:28Z</time>
      </trkpt>
      <trkpt lat="36.523812" lon="-5.510279">
        <ele>308.06</ele>
        <time>2015-06-20T16:41:38Z</time>
      </trkpt>
      <trkpt lat="36.523812" lon="-5.510279">
        <ele>308.07</ele>
        <time>2015-06-20T16:41:46Z</time>
      </trkpt>
      <trkpt lat="36.523812" lon="-5.510279">
        <ele>308.03</ele>
        <time>2015-06-20T16:41:56Z</time>
      </trkpt>
      <trkpt lat="36.523812" lon="-5.510279">
        <ele>308.04</ele>
        <time>2015-06-20T16:41:57Z</time>
      </trkpt>
      <trkpt lat="36.523806" lon="-5.510281">
        <ele>307.93</ele>
        <time>2015-06-20T16:42:14Z</time>
      </trkpt>
      <trkpt lat="36.523806" lon="-5.510281">
        <ele>307.93</ele>
        <time>2015-06-20T16:42:25Z</time>
      </trkpt>
      <trkpt lat="36.523806" lon="-5.510281">
        <ele>307.99</ele>
        <time>2015-06-20T16:42:28Z</time>
      </trkpt>
      <trkpt lat="36.523806" lon="-5.510281">
        <ele>307.94</ele>
        <time>2015-06-20T16:42:32Z</time>
      </trkpt>
      <trkpt lat="36.523806" lon="-5.510281">
        <ele>307.99</ele>
        <time>2015-06-20T16:42:39Z</time>
      </trkpt>
      <trkpt lat="36.523806" lon="-5.510281">
        <ele>307.91</ele>
        <time>2015-06-20T16:42:47Z</time>
      </trkpt>
      <trkpt lat="36.523806" lon="-5.510281">
        <ele>307.91</ele>
        <time>2015-06-20T16:42:52Z</time>
      </trkpt>
      <trkpt lat="36.523808" lon="-5.510280">
        <ele>308.05</ele>
        <time>2015-06-20T16:42:55Z</time>
      </trkpt>
      <trkpt lat="36.523808" lon="-5.510280">
        <ele>308.07</ele>
        <time>2015-06-20T16:42:58Z</time>
      </trkpt>
      <trkpt lat="36.523809" lon="-5.510280">
        <ele>308.03</ele>
        <time>2015-06-20T16:43:00Z</time>
      </trkpt>
      <trkpt lat="36.523853" lon="-5.510260">
        <ele>308.48</ele>
        <time>2015-06-20T16:43:03Z</time>
      </trkpt>
      <trkpt lat="36.523891" lon="-5.510259">
        <ele>308.46</ele>
        <time>2015-06-20T16:43:05Z</time>
      </trkpt>
      <trkpt lat="36.523975" lon="-5.510242">
        <ele>308.23</ele>
        <time>2015-06-20T16:43:09Z</time>
      </trkpt>
      <trkpt lat="36.524076" lon="-5.510226">
        <ele>307.85</ele>
        <time>2015-06-20T16:43:15Z</time>
      </trkpt>
      <trkpt lat="36.524091" lon="-5.510224">
        <ele>307.71</ele>
        <time>2015-06-20T16:43:16Z</time>
      </trkpt>
      <trkpt lat="36.524107" lon="-5.510223">
        <ele>307.70</ele>
        <time>2015-06-20T16:43:17Z</time>
      </trkpt>
      <trkpt lat="36.524126" lon="-5.510223">
        <ele>307.52</ele>
        <time>2015-06-20T16:43:18Z</time>
      </trkpt>
      <trkpt lat="36.524147" lon="-5.510221">
        <ele>307.43</ele>
        <time>2015-06-20T16:43:19Z</time>
      </trkpt>
      <trkpt lat="36.524222" lon="-5.510207">
        <ele>306.91</ele>
        <time>2015-06-20T16:43:23Z</time>
      </trkpt>
      <trkpt lat="36.524327" lon="-5.510187">
        <ele>306.27</ele>
        <time>2015-06-20T16:43:29Z</time>
      </trkpt>
      <trkpt lat="36.524436" lon="-5.510130">
        <ele>306.34</ele>
        <time>2015-06-20T16:43:35Z</time>
      </trkpt>
      <trkpt lat="36.524504" lon="-5.510043">
        <ele>307.53</ele>
        <time>2015-06-20T16:43:40Z</time>
      </trkpt>
      <trkpt lat="36.524515" lon="-5.510022">
        <ele>307.82</ele>
        <time>2015-06-20T16:43:41Z</time>
      </trkpt>
      <trkpt lat="36.524524" lon="-5.509999">
        <ele>308.28</ele>
        <time>2015-06-20T16:43:42Z</time>
      </trkpt>
      <trkpt lat="36.524535" lon="-5.509976">
        <ele>308.53</ele>
        <time>2015-06-20T16:43:43Z</time>
      </trkpt>
      <trkpt lat="36.524547" lon="-5.509952">
        <ele>308.80</ele>
        <time>2015-06-20T16:43:44Z</time>
      </trkpt>
      <trkpt lat="36.524556" lon="-5.509928">
        <ele>309.05</ele>
        <time>2015-06-20T16:43:45Z</time>
      </trkpt>
      <trkpt lat="36.524562" lon="-5.509903">
        <ele>309.44</ele>
        <time>2015-06-20T16:43:46Z</time>
      </trkpt>
      <trkpt lat="36.524566" lon="-5.509876">
        <ele>309.88</ele>
        <time>2015-06-20T16:43:47Z</time>
      </trkpt>
      <trkpt lat="36.524573" lon="-5.509670">
        <ele>313.31</ele>
        <time>2015-06-20T16:43:54Z</time>
      </trkpt>
      <trkpt lat="36.524585" lon="-5.509502">
        <ele>316.31</ele>
        <time>2015-06-20T16:43:59Z</time>
      </trkpt>
      <trkpt lat="36.524654" lon="-5.509401">
        <ele>316.54</ele>
        <time>2015-06-20T16:44:02Z</time>
      </trkpt>
      <trkpt lat="36.524687" lon="-5.509363">
        <ele>316.41</ele>
        <time>2015-06-20T16:44:03Z</time>
      </trkpt>
      <trkpt lat="36.524819" lon="-5.509186">
        <ele>315.97</ele>
        <time>2015-06-20T16:44:07Z</time>
      </trkpt>
      <trkpt lat="36.524945" lon="-5.509003">
        <ele>315.59</ele>
        <time>2015-06-20T16:44:11Z</time>
      </trkpt>
      <trkpt lat="36.524969" lon="-5.508957">
        <ele>315.75</ele>
        <time>2015-06-20T16:44:12Z</time>
      </trkpt>
      <trkpt lat="36.524986" lon="-5.508909">
        <ele>316.10</ele>
        <time>2015-06-20T16:44:13Z</time>
      </trkpt>
      <trkpt lat="36.525042" lon="-5.508780">
        <ele>317.67</ele>
        <time>2015-06-20T16:44:16Z</time>
      </trkpt>
      <trkpt lat="36.525085" lon="-5.508710">
        <ele>318.38</ele>
        <time>2015-06-20T16:44:18Z</time>
      </trkpt>
      <trkpt lat="36.525153" lon="-5.508633">
        <ele>318.87</ele>
        <time>2015-06-20T16:44:22Z</time>
      </trkpt>
      <trkpt lat="36.525202" lon="-5.508537">
        <ele>320.69</ele>
        <time>2015-06-20T16:44:27Z</time>
      </trkpt>
      <trkpt lat="36.525286" lon="-5.508447">
        <ele>321.51</ele>
        <time>2015-06-20T16:44:33Z</time>
      </trkpt>
      <trkpt lat="36.525305" lon="-5.508435">
        <ele>321.51</ele>
        <time>2015-06-20T16:44:34Z</time>
      </trkpt>
      <trkpt lat="36.525325" lon="-5.508426">
        <ele>321.33</ele>
        <time>2015-06-20T16:44:35Z</time>
      </trkpt>
      <trkpt lat="36.525343" lon="-5.508413">
        <ele>321.36</ele>
        <time>2015-06-20T16:44:36Z</time>
      </trkpt>
      <trkpt lat="36.525362" lon="-5.508396">
        <ele>321.49</ele>
        <time>2015-06-20T16:44:37Z</time>
      </trkpt>
      <trkpt lat="36.525377" lon="-5.508378">
        <ele>321.69</ele>
        <time>2015-06-20T16:44:38Z</time>
      </trkpt>
      <trkpt lat="36.525460" lon="-5.508299">
        <ele>322.27</ele>
        <time>2015-06-20T16:44:44Z</time>
      </trkpt>
      <trkpt lat="36.525553" lon="-5.508245">
        <ele>321.96</ele>
        <time>2015-06-20T16:44:49Z</time>
      </trkpt>
      <trkpt lat="36.525769" lon="-5.508204">
        <ele>322.06</ele>
        <time>2015-06-20T16:44:55Z</time>
      </trkpt>
      <trkpt lat="36.525976" lon="-5.508205">
        <ele>321.77</ele>
        <time>2015-06-20T16:45:00Z</time>
      </trkpt>
      <trkpt lat="36.526119" lon="-5.508201">
        <ele>321.76</ele>
        <time>2015-06-20T16:45:03Z</time>
      </trkpt>
      <trkpt lat="36.526172" lon="-5.508212">
        <ele>320.74</ele>
        <time>2015-06-20T16:45:04Z</time>
      </trkpt>
      <trkpt lat="36.526278" lon="-5.508255">
        <ele>318.02</ele>
        <time>2015-06-20T16:45:06Z</time>
      </trkpt>
      <trkpt lat="36.526493" lon="-5.508376">
        <ele>312.11</ele>
        <time>2015-06-20T16:45:10Z</time>
      </trkpt>
      <trkpt lat="36.526555" lon="-5.508400">
        <ele>311.06</ele>
        <time>2015-06-20T16:45:11Z</time>
      </trkpt>
      <trkpt lat="36.526749" lon="-5.508456">
        <ele>310.15</ele>
        <time>2015-06-20T16:45:14Z</time>
      </trkpt>
      <trkpt lat="36.526809" lon="-5.508470">
        <ele>310.68</ele>
        <time>2015-06-20T16:45:15Z</time>
      </trkpt>
      <trkpt lat="36.526870" lon="-5.508481">
        <ele>311.35</ele>
        <time>2015-06-20T16:45:16Z</time>
      </trkpt>
      <trkpt lat="36.526930" lon="-5.508491">
        <ele>311.95</ele>
        <time>2015-06-20T16:45:17Z</time>
      </trkpt>
      <trkpt lat="36.526987" lon="-5.508496">
        <ele>312.63</ele>
        <time>2015-06-20T16:45:18Z</time>
      </trkpt>
      <trkpt lat="36.527236" lon="-5.508525">
        <ele>314.93</ele>
        <time>2015-06-20T16:45:23Z</time>
      </trkpt>
      <trkpt lat="36.527390" lon="-5.508457">
        <ele>315.68</ele>
        <time>2015-06-20T16:45:28Z</time>
      </trkpt>
      <trkpt lat="36.527468" lon="-5.508390">
        <ele>315.95</ele>
        <time>2015-06-20T16:45:33Z</time>
      </trkpt>
      <trkpt lat="36.527499" lon="-5.508217">
        <ele>317.36</ele>
        <time>2015-06-20T16:45:38Z</time>
      </trkpt>
      <trkpt lat="36.527547" lon="-5.508108">
        <ele>318.11</ele>
        <time>2015-06-20T16:45:42Z</time>
      </trkpt>
      <trkpt lat="36.527557" lon="-5.508091">
        <ele>318.21</ele>
        <time>2015-06-20T16:45:43Z</time>
      </trkpt>
      <trkpt lat="36.527567" lon="-5.508075">
        <ele>318.39</ele>
        <time>2015-06-20T16:45:44Z</time>
      </trkpt>
      <trkpt lat="36.527579" lon="-5.508062">
        <ele>318.41</ele>
        <time>2015-06-20T16:45:45Z</time>
      </trkpt>
      <trkpt lat="36.527594" lon="-5.508048">
        <ele>318.50</ele>
        <time>2015-06-20T16:45:46Z</time>
      </trkpt>
      <trkpt lat="36.527610" lon="-5.508032">
        <ele>318.58</ele>
        <time>2015-06-20T16:45:47Z</time>
      </trkpt>
      <trkpt lat="36.527630" lon="-5.508021">
        <ele>318.69</ele>
        <time>2015-06-20T16:45:48Z</time>
      </trkpt>
      <trkpt lat="36.527649" lon="-5.508016">
        <ele>318.57</ele>
        <time>2015-06-20T16:45:49Z</time>
      </trkpt>
      <trkpt lat="36.527699" lon="-5.507985">
        <ele>318.66</ele>
        <time>2015-06-20T16:45:52Z</time>
      </trkpt>
      <trkpt lat="36.527735" lon="-5.507969">
        <ele>318.63</ele>
        <time>2015-06-20T16:45:54Z</time>
      </trkpt>
      <trkpt lat="36.527827" lon="-5.507935">
        <ele>318.12</ele>
        <time>2015-06-20T16:45:59Z</time>
      </trkpt>
      <trkpt lat="36.527846" lon="-5.507934">
        <ele>317.99</ele>
        <time>2015-06-20T16:46:00Z</time>
      </trkpt>
      <trkpt lat="36.527866" lon="-5.507928">
        <ele>317.71</ele>
        <time>2015-06-20T16:46:01Z</time>
      </trkpt>
      <trkpt lat="36.527883" lon="-5.507917">
        <ele>317.71</ele>
        <time>2015-06-20T16:46:02Z</time>
      </trkpt>
      <trkpt lat="36.527939" lon="-5.507882">
        <ele>317.45</ele>
        <time>2015-06-20T16:46:05Z</time>
      </trkpt>
      <trkpt lat="36.528025" lon="-5.507822">
        <ele>316.93</ele>
        <time>2015-06-20T16:46:10Z</time>
      </trkpt>
      <trkpt lat="36.528056" lon="-5.507792">
        <ele>316.89</ele>
        <time>2015-06-20T16:46:12Z</time>
      </trkpt>
      <trkpt lat="36.528070" lon="-5.507776">
        <ele>316.82</ele>
        <time>2015-06-20T16:46:13Z</time>
      </trkpt>
      <trkpt lat="36.528082" lon="-5.507756">
        <ele>317.04</ele>
        <time>2015-06-20T16:46:14Z</time>
      </trkpt>
      <trkpt lat="36.528092" lon="-5.507738">
        <ele>317.26</ele>
        <time>2015-06-20T16:46:15Z</time>
      </trkpt>
      <trkpt lat="36.528101" lon="-5.507724">
        <ele>317.30</ele>
        <time>2015-06-20T16:46:16Z</time>
      </trkpt>
      <trkpt lat="36.528107" lon="-5.507712">
        <ele>317.45</ele>
        <time>2015-06-20T16:46:17Z</time>
      </trkpt>
      <trkpt lat="36.528164" lon="-5.507579">
        <ele>318.57</ele>
        <time>2015-06-20T16:46:23Z</time>
      </trkpt>
      <trkpt lat="36.528201" lon="-5.507416">
        <ele>320.74</ele>
        <time>2015-06-20T16:46:30Z</time>
      </trkpt>
      <trkpt lat="36.528224" lon="-5.507275">
        <ele>323.23</ele>
        <time>2015-06-20T16:46:36Z</time>
      </trkpt>
      <trkpt lat="36.528228" lon="-5.507251">
        <ele>323.71</ele>
        <time>2015-06-20T16:46:37Z</time>
      </trkpt>
      <trkpt lat="36.528240" lon="-5.507229">
        <ele>323.96</ele>
        <time>2015-06-20T16:46:38Z</time>
      </trkpt>
      <trkpt lat="36.528281" lon="-5.507165">
        <ele>324.94</ele>
        <time>2015-06-20T16:46:41Z</time>
      </trkpt>
      <trkpt lat="36.528290" lon="-5.507150">
        <ele>325.29</ele>
        <time>2015-06-20T16:46:42Z</time>
      </trkpt>
      <trkpt lat="36.528301" lon="-5.507135">
        <ele>325.48</ele>
        <time>2015-06-20T16:46:43Z</time>
      </trkpt>
      <trkpt lat="36.528313" lon="-5.507120">
        <ele>325.76</ele>
        <time>2015-06-20T16:46:44Z</time>
      </trkpt>
      <trkpt lat="36.528325" lon="-5.507104">
        <ele>326.07</ele>
        <time>2015-06-20T16:46:45Z</time>
      </trkpt>
      <trkpt lat="36.528370" lon="-5.507050">
        <ele>326.86</ele>
        <time>2015-06-20T16:46:49Z</time>
      </trkpt>
      <trkpt lat="36.528398" lon="-5.507024">
        <ele>327.01</ele>
        <time>2015-06-20T16:46:51Z</time>
      </trkpt>
      <trkpt lat="36.528491" lon="-5.506920">
        <ele>328.48</ele>
        <time>2015-06-20T16:46:57Z</time>
      </trkpt>
      <trkpt lat="36.528526" lon="-5.506891">
        <ele>328.63</ele>
        <time>2015-06-20T16:46:59Z</time>
      </trkpt>
      <trkpt lat="36.528546" lon="-5.506876">
        <ele>328.63</ele>
        <time>2015-06-20T16:47:00Z</time>
      </trkpt>
      <trkpt lat="36.528564" lon="-5.506859">
        <ele>328.81</ele>
        <time>2015-06-20T16:47:01Z</time>
      </trkpt>
      <trkpt lat="36.528581" lon="-5.506841">
        <ele>329.07</ele>
        <time>2015-06-20T16:47:02Z</time>
      </trkpt>
      <trkpt lat="36.528594" lon="-5.506823">
        <ele>329.37</ele>
        <time>2015-06-20T16:47:03Z</time>
      </trkpt>
      <trkpt lat="36.528608" lon="-5.506806">
        <ele>329.67</ele>
        <time>2015-06-20T16:47:04Z</time>
      </trkpt>
      <trkpt lat="36.528704" lon="-5.506702">
        <ele>330.08</ele>
        <time>2015-06-20T16:47:11Z</time>
      </trkpt>
      <trkpt lat="36.528760" lon="-5.506642">
        <ele>329.93</ele>
        <time>2015-06-20T16:47:15Z</time>
      </trkpt>
      <trkpt lat="36.528773" lon="-5.506628">
        <ele>329.96</ele>
        <time>2015-06-20T16:47:16Z</time>
      </trkpt>
      <trkpt lat="36.528787" lon="-5.506614">
        <ele>329.96</ele>
        <time>2015-06-20T16:47:17Z</time>
      </trkpt>
      <trkpt lat="36.528799" lon="-5.506601">
        <ele>329.96</ele>
        <time>2015-06-20T16:47:18Z</time>
      </trkpt>
      <trkpt lat="36.528903" lon="-5.506492">
        <ele>329.96</ele>
        <time>2015-06-20T16:47:25Z</time>
      </trkpt>
      <trkpt lat="36.529020" lon="-5.506429">
        <ele>330.16</ele>
        <time>2015-06-20T16:47:32Z</time>
      </trkpt>
      <trkpt lat="36.529037" lon="-5.506423">
        <ele>330.01</ele>
        <time>2015-06-20T16:47:33Z</time>
      </trkpt>
      <trkpt lat="36.529056" lon="-5.506413">
        <ele>330.01</ele>
        <time>2015-06-20T16:47:34Z</time>
      </trkpt>
      <trkpt lat="36.529074" lon="-5.506402">
        <ele>330.04</ele>
        <time>2015-06-20T16:47:35Z</time>
      </trkpt>
      <trkpt lat="36.529090" lon="-5.506396">
        <ele>329.98</ele>
        <time>2015-06-20T16:47:36Z</time>
      </trkpt>
      <trkpt lat="36.529126" lon="-5.506395">
        <ele>329.49</ele>
        <time>2015-06-20T16:47:38Z</time>
      </trkpt>
      <trkpt lat="36.529230" lon="-5.506358">
        <ele>329.56</ele>
        <time>2015-06-20T16:47:44Z</time>
      </trkpt>
      <trkpt lat="36.529334" lon="-5.506300">
        <ele>330.60</ele>
        <time>2015-06-20T16:47:50Z</time>
      </trkpt>
      <trkpt lat="36.529347" lon="-5.506284">
        <ele>330.95</ele>
        <time>2015-06-20T16:47:51Z</time>
      </trkpt>
      <trkpt lat="36.529362" lon="-5.506272">
        <ele>331.11</ele>
        <time>2015-06-20T16:47:52Z</time>
      </trkpt>
      <trkpt lat="36.529377" lon="-5.506263">
        <ele>331.29</ele>
        <time>2015-06-20T16:47:53Z</time>
      </trkpt>
      <trkpt lat="36.529391" lon="-5.506254">
        <ele>331.43</ele>
        <time>2015-06-20T16:47:54Z</time>
      </trkpt>
      <trkpt lat="36.529425" lon="-5.506236">
        <ele>331.69</ele>
        <time>2015-06-20T16:47:56Z</time>
      </trkpt>
      <trkpt lat="36.529532" lon="-5.506175">
        <ele>332.12</ele>
        <time>2015-06-20T16:48:02Z</time>
      </trkpt>
      <trkpt lat="36.529566" lon="-5.506144">
        <ele>332.51</ele>
        <time>2015-06-20T16:48:04Z</time>
      </trkpt>
      <trkpt lat="36.529583" lon="-5.506131">
        <ele>332.51</ele>
        <time>2015-06-20T16:48:05Z</time>
      </trkpt>
      <trkpt lat="36.529600" lon="-5.506118">
        <ele>332.69</ele>
        <time>2015-06-20T16:48:06Z</time>
      </trkpt>
      <trkpt lat="36.529616" lon="-5.506101">
        <ele>332.86</ele>
        <time>2015-06-20T16:48:07Z</time>
      </trkpt>
      <trkpt lat="36.529651" lon="-5.506061">
        <ele>333.43</ele>
        <time>2015-06-20T16:48:10Z</time>
      </trkpt>
      <trkpt lat="36.529688" lon="-5.506010">
        <ele>334.19</ele>
        <time>2015-06-20T16:48:13Z</time>
      </trkpt>
      <trkpt lat="36.529714" lon="-5.505973">
        <ele>334.61</ele>
        <time>2015-06-20T16:48:15Z</time>
      </trkpt>
      <trkpt lat="36.529791" lon="-5.505870">
        <ele>336.18</ele>
        <time>2015-06-20T16:48:21Z</time>
      </trkpt>
      <trkpt lat="36.529802" lon="-5.505856">
        <ele>336.37</ele>
        <time>2015-06-20T16:48:22Z</time>
      </trkpt>
      <trkpt lat="36.529817" lon="-5.505845">
        <ele>336.42</ele>
        <time>2015-06-20T16:48:23Z</time>
      </trkpt>
      <trkpt lat="36.529832" lon="-5.505830">
        <ele>336.57</ele>
        <time>2015-06-20T16:48:24Z</time>
      </trkpt>
      <trkpt lat="36.529849" lon="-5.505815">
        <ele>336.51</ele>
        <time>2015-06-20T16:48:25Z</time>
      </trkpt>
      <trkpt lat="36.529865" lon="-5.505797">
        <ele>336.71</ele>
        <time>2015-06-20T16:48:26Z</time>
      </trkpt>
      <trkpt lat="36.529882" lon="-5.505779">
        <ele>336.83</ele>
        <time>2015-06-20T16:48:27Z</time>
      </trkpt>
      <trkpt lat="36.529977" lon="-5.505674">
        <ele>337.26</ele>
        <time>2015-06-20T16:48:33Z</time>
      </trkpt>
      <trkpt lat="36.529990" lon="-5.505667">
        <ele>337.27</ele>
        <time>2015-06-20T16:48:34Z</time>
      </trkpt>
      <trkpt lat="36.530042" lon="-5.505607">
        <ele>337.94</ele>
        <time>2015-06-20T16:48:38Z</time>
      </trkpt>
      <trkpt lat="36.530055" lon="-5.505591">
        <ele>338.26</ele>
        <time>2015-06-20T16:48:39Z</time>
      </trkpt>
      <trkpt lat="36.530070" lon="-5.505574">
        <ele>338.41</ele>
        <time>2015-06-20T16:48:40Z</time>
      </trkpt>
      <trkpt lat="36.530076" lon="-5.505561">
        <ele>338.67</ele>
        <time>2015-06-20T16:48:41Z</time>
      </trkpt>
      <trkpt lat="36.530086" lon="-5.505546">
        <ele>339.04</ele>
        <time>2015-06-20T16:48:42Z</time>
      </trkpt>
      <trkpt lat="36.530098" lon="-5.505526">
        <ele>339.52</ele>
        <time>2015-06-20T16:48:43Z</time>
      </trkpt>
      <trkpt lat="36.530143" lon="-5.505489">
        <ele>340.34</ele>
        <time>2015-06-20T16:48:46Z</time>
      </trkpt>
      <trkpt lat="36.530227" lon="-5.505374">
        <ele>342.90</ele>
        <time>2015-06-20T16:48:52Z</time>
      </trkpt>
      <trkpt lat="36.530255" lon="-5.505341">
        <ele>343.61</ele>
        <time>2015-06-20T16:48:54Z</time>
      </trkpt>
      <trkpt lat="36.530271" lon="-5.505327">
        <ele>343.81</ele>
        <time>2015-06-20T16:48:55Z</time>
      </trkpt>
      <trkpt lat="36.530286" lon="-5.505315">
        <ele>344.03</ele>
        <time>2015-06-20T16:48:56Z</time>
      </trkpt>
      <trkpt lat="36.530298" lon="-5.505307">
        <ele>344.13</ele>
        <time>2015-06-20T16:48:57Z</time>
      </trkpt>
      <trkpt lat="36.530311" lon="-5.505300">
        <ele>344.28</ele>
        <time>2015-06-20T16:48:58Z</time>
      </trkpt>
      <trkpt lat="36.530432" lon="-5.505252">
        <ele>344.38</ele>
        <time>2015-06-20T16:49:05Z</time>
      </trkpt>
      <trkpt lat="36.530491" lon="-5.505238">
        <ele>344.17</ele>
        <time>2015-06-20T16:49:09Z</time>
      </trkpt>
      <trkpt lat="36.530505" lon="-5.505236">
        <ele>344.05</ele>
        <time>2015-06-20T16:49:10Z</time>
      </trkpt>
      <trkpt lat="36.530517" lon="-5.505228">
        <ele>344.04</ele>
        <time>2015-06-20T16:49:11Z</time>
      </trkpt>
      <trkpt lat="36.530530" lon="-5.505223">
        <ele>344.07</ele>
        <time>2015-06-20T16:49:12Z</time>
      </trkpt>
      <trkpt lat="36.530544" lon="-5.505220">
        <ele>343.94</ele>
        <time>2015-06-20T16:49:13Z</time>
      </trkpt>
      <trkpt lat="36.530599" lon="-5.505187">
        <ele>344.23</ele>
        <time>2015-06-20T16:49:17Z</time>
      </trkpt>
      <trkpt lat="36.530690" lon="-5.505133">
        <ele>344.61</ele>
        <time>2015-06-20T16:49:24Z</time>
      </trkpt>
      <trkpt lat="36.530705" lon="-5.505121">
        <ele>344.68</ele>
        <time>2015-06-20T16:49:25Z</time>
      </trkpt>
      <trkpt lat="36.530718" lon="-5.505106">
        <ele>344.84</ele>
        <time>2015-06-20T16:49:26Z</time>
      </trkpt>
      <trkpt lat="36.530732" lon="-5.505092">
        <ele>344.83</ele>
        <time>2015-06-20T16:49:27Z</time>
      </trkpt>
      <trkpt lat="36.530745" lon="-5.505077">
        <ele>344.94</ele>
        <time>2015-06-20T16:49:28Z</time>
      </trkpt>
      <trkpt lat="36.530797" lon="-5.504998">
        <ele>345.36</ele>
        <time>2015-06-20T16:49:33Z</time>
      </trkpt>
      <trkpt lat="36.530877" lon="-5.504937">
        <ele>345.33</ele>
        <time>2015-06-20T16:49:39Z</time>
      </trkpt>
      <trkpt lat="36.530945" lon="-5.504854">
        <ele>345.68</ele>
        <time>2015-06-20T16:49:45Z</time>
      </trkpt>
      <trkpt lat="36.530953" lon="-5.504841">
        <ele>345.67</ele>
        <time>2015-06-20T16:49:46Z</time>
      </trkpt>
      <trkpt lat="36.530960" lon="-5.504823">
        <ele>345.76</ele>
        <time>2015-06-20T16:49:47Z</time>
      </trkpt>
      <trkpt lat="36.530965" lon="-5.504806">
        <ele>345.88</ele>
        <time>2015-06-20T16:49:48Z</time>
      </trkpt>
      <trkpt lat="36.530971" lon="-5.504787">
        <ele>345.91</ele>
        <time>2015-06-20T16:49:49Z</time>
      </trkpt>
      <trkpt lat="36.530986" lon="-5.504752">
        <ele>346.11</ele>
        <time>2015-06-20T16:49:51Z</time>
      </trkpt>
      <trkpt lat="36.531030" lon="-5.504658">
        <ele>346.83</ele>
        <time>2015-06-20T16:49:56Z</time>
      </trkpt>
      <trkpt lat="36.531114" lon="-5.504529">
        <ele>347.83</ele>
        <time>2015-06-20T16:50:03Z</time>
      </trkpt>
      <trkpt lat="36.531146" lon="-5.504470">
        <ele>348.34</ele>
        <time>2015-06-20T16:50:06Z</time>
      </trkpt>
      <trkpt lat="36.531157" lon="-5.504451">
        <ele>348.43</ele>
        <time>2015-06-20T16:50:07Z</time>
      </trkpt>
      <trkpt lat="36.531170" lon="-5.504431">
        <ele>348.70</ele>
        <time>2015-06-20T16:50:08Z</time>
      </trkpt>
      <trkpt lat="36.531182" lon="-5.504408">
        <ele>348.96</ele>
        <time>2015-06-20T16:50:09Z</time>
      </trkpt>
      <trkpt lat="36.531257" lon="-5.504306">
        <ele>349.98</ele>
        <time>2015-06-20T16:50:14Z</time>
      </trkpt>
      <trkpt lat="36.531364" lon="-5.504166">
        <ele>351.38</ele>
        <time>2015-06-20T16:50:21Z</time>
      </trkpt>
      <trkpt lat="36.531503" lon="-5.504075">
        <ele>352.67</ele>
        <time>2015-06-20T16:50:28Z</time>
      </trkpt>
      <trkpt lat="36.531613" lon="-5.504030">
        <ele>353.11</ele>
        <time>2015-06-20T16:50:33Z</time>
      </trkpt>
      <trkpt lat="36.531634" lon="-5.504020">
        <ele>353.31</ele>
        <time>2015-06-20T16:50:34Z</time>
      </trkpt>
      <trkpt lat="36.531659" lon="-5.504007">
        <ele>353.51</ele>
        <time>2015-06-20T16:50:35Z</time>
      </trkpt>
      <trkpt lat="36.531685" lon="-5.503998">
        <ele>353.69</ele>
        <time>2015-06-20T16:50:36Z</time>
      </trkpt>
      <trkpt lat="36.531755" lon="-5.503972">
        <ele>353.88</ele>
        <time>2015-06-20T16:50:39Z</time>
      </trkpt>
      <trkpt lat="36.531873" lon="-5.503945">
        <ele>353.63</ele>
        <time>2015-06-20T16:50:45Z</time>
      </trkpt>
      <trkpt lat="36.532009" lon="-5.503919">
        <ele>353.14</ele>
        <time>2015-06-20T16:50:52Z</time>
      </trkpt>
      <trkpt lat="36.532042" lon="-5.503910">
        <ele>353.07</ele>
        <time>2015-06-20T16:50:54Z</time>
      </trkpt>
      <trkpt lat="36.532057" lon="-5.503899">
        <ele>353.07</ele>
        <time>2015-06-20T16:50:55Z</time>
      </trkpt>
      <trkpt lat="36.532073" lon="-5.503888">
        <ele>353.15</ele>
        <time>2015-06-20T16:50:56Z</time>
      </trkpt>
      <trkpt lat="36.532089" lon="-5.503881">
        <ele>353.12</ele>
        <time>2015-06-20T16:50:57Z</time>
      </trkpt>
      <trkpt lat="36.532104" lon="-5.503874">
        <ele>353.16</ele>
        <time>2015-06-20T16:50:58Z</time>
      </trkpt>
      <trkpt lat="36.532123" lon="-5.503855">
        <ele>353.26</ele>
        <time>2015-06-20T16:51:00Z</time>
      </trkpt>
      <trkpt lat="36.532164" lon="-5.503813">
        <ele>353.61</ele>
        <time>2015-06-20T16:51:03Z</time>
      </trkpt>
      <trkpt lat="36.532269" lon="-5.503707">
        <ele>354.21</ele>
        <time>2015-06-20T16:51:09Z</time>
      </trkpt>
      <trkpt lat="36.532285" lon="-5.503690">
        <ele>354.35</ele>
        <time>2015-06-20T16:51:10Z</time>
      </trkpt>
      <trkpt lat="36.532301" lon="-5.503673">
        <ele>354.46</ele>
        <time>2015-06-20T16:51:11Z</time>
      </trkpt>
      <trkpt lat="36.532314" lon="-5.503654">
        <ele>354.56</ele>
        <time>2015-06-20T16:51:12Z</time>
      </trkpt>
      <trkpt lat="36.532326" lon="-5.503634">
        <ele>354.67</ele>
        <time>2015-06-20T16:51:13Z</time>
      </trkpt>
      <trkpt lat="36.532362" lon="-5.503583">
        <ele>354.83</ele>
        <time>2015-06-20T16:51:16Z</time>
      </trkpt>
      <trkpt lat="36.532415" lon="-5.503456">
        <ele>355.43</ele>
        <time>2015-06-20T16:51:22Z</time>
      </trkpt>
      <trkpt lat="36.532426" lon="-5.503414">
        <ele>355.63</ele>
        <time>2015-06-20T16:51:24Z</time>
      </trkpt>
      <trkpt lat="36.532426" lon="-5.503391">
        <ele>355.86</ele>
        <time>2015-06-20T16:51:25Z</time>
      </trkpt>
      <trkpt lat="36.532429" lon="-5.503366">
        <ele>356.02</ele>
        <time>2015-06-20T16:51:26Z</time>
      </trkpt>
      <trkpt lat="36.532433" lon="-5.503340">
        <ele>356.18</ele>
        <time>2015-06-20T16:51:27Z</time>
      </trkpt>
      <trkpt lat="36.532431" lon="-5.503314">
        <ele>356.61</ele>
        <time>2015-06-20T16:51:28Z</time>
      </trkpt>
      <trkpt lat="36.532437" lon="-5.503291">
        <ele>357.01</ele>
        <time>2015-06-20T16:51:29Z</time>
      </trkpt>
      <trkpt lat="36.532480" lon="-5.503235">
        <ele>357.41</ele>
        <time>2015-06-20T16:51:32Z</time>
      </trkpt>
      <trkpt lat="36.532498" lon="-5.503225">
        <ele>357.42</ele>
        <time>2015-06-20T16:51:33Z</time>
      </trkpt>
      <trkpt lat="36.532575" lon="-5.503221">
        <ele>357.51</ele>
        <time>2015-06-20T16:51:37Z</time>
      </trkpt>
      <trkpt lat="36.532601" lon="-5.503218">
        <ele>357.66</ele>
        <time>2015-06-20T16:51:39Z</time>
      </trkpt>
      <trkpt lat="36.532615" lon="-5.503216">
        <ele>357.61</ele>
        <time>2015-06-20T16:51:40Z</time>
      </trkpt>
      <trkpt lat="36.532630" lon="-5.503213">
        <ele>357.78</ele>
        <time>2015-06-20T16:51:41Z</time>
      </trkpt>
      <trkpt lat="36.532647" lon="-5.503211">
        <ele>357.74</ele>
        <time>2015-06-20T16:51:42Z</time>
      </trkpt>
      <trkpt lat="36.532663" lon="-5.503204">
        <ele>357.88</ele>
        <time>2015-06-20T16:51:43Z</time>
      </trkpt>
      <trkpt lat="36.532752" lon="-5.503177">
        <ele>358.39</ele>
        <time>2015-06-20T16:51:49Z</time>
      </trkpt>
      <trkpt lat="36.532783" lon="-5.503163">
        <ele>358.46</ele>
        <time>2015-06-20T16:51:51Z</time>
      </trkpt>
      <trkpt lat="36.532797" lon="-5.503151">
        <ele>358.62</ele>
        <time>2015-06-20T16:51:52Z</time>
      </trkpt>
      <trkpt lat="36.532810" lon="-5.503139">
        <ele>358.81</ele>
        <time>2015-06-20T16:51:53Z</time>
      </trkpt>
      <trkpt lat="36.532823" lon="-5.503125">
        <ele>358.94</ele>
        <time>2015-06-20T16:51:54Z</time>
      </trkpt>
      <trkpt lat="36.532836" lon="-5.503114">
        <ele>359.06</ele>
        <time>2015-06-20T16:51:55Z</time>
      </trkpt>
      <trkpt lat="36.532848" lon="-5.503102">
        <ele>359.26</ele>
        <time>2015-06-20T16:51:56Z</time>
      </trkpt>
      <trkpt lat="36.532917" lon="-5.503009">
        <ele>359.82</ele>
        <time>2015-06-20T16:52:02Z</time>
      </trkpt>
      <trkpt lat="36.532937" lon="-5.502936">
        <ele>360.30</ele>
        <time>2015-06-20T16:52:06Z</time>
      </trkpt>
      <trkpt lat="36.532945" lon="-5.502899">
        <ele>360.31</ele>
        <time>2015-06-20T16:52:08Z</time>
      </trkpt>
      <trkpt lat="36.532951" lon="-5.502879">
        <ele>360.32</ele>
        <time>2015-06-20T16:52:09Z</time>
      </trkpt>
      <trkpt lat="36.532957" lon="-5.502858">
        <ele>360.42</ele>
        <time>2015-06-20T16:52:10Z</time>
      </trkpt>
      <trkpt lat="36.532963" lon="-5.502834">
        <ele>360.43</ele>
        <time>2015-06-20T16:52:11Z</time>
      </trkpt>
      <trkpt lat="36.533001" lon="-5.502672">
        <ele>361.59</ele>
        <time>2015-06-20T16:52:17Z</time>
      </trkpt>
      <trkpt lat="36.533054" lon="-5.502521">
        <ele>362.72</ele>
        <time>2015-06-20T16:52:23Z</time>
      </trkpt>
      <trkpt lat="36.533088" lon="-5.502433">
        <ele>363.91</ele>
        <time>2015-06-20T16:52:27Z</time>
      </trkpt>
      <trkpt lat="36.533099" lon="-5.502410">
        <ele>364.22</ele>
        <time>2015-06-20T16:52:28Z</time>
      </trkpt>
      <trkpt lat="36.533105" lon="-5.502387">
        <ele>364.70</ele>
        <time>2015-06-20T16:52:29Z</time>
      </trkpt>
      <trkpt lat="36.533113" lon="-5.502365">
        <ele>364.99</ele>
        <time>2015-06-20T16:52:30Z</time>
      </trkpt>
      <trkpt lat="36.533124" lon="-5.502345">
        <ele>365.18</ele>
        <time>2015-06-20T16:52:31Z</time>
      </trkpt>
      <trkpt lat="36.533175" lon="-5.502262">
        <ele>366.02</ele>
        <time>2015-06-20T16:52:35Z</time>
      </trkpt>
      <trkpt lat="36.533252" lon="-5.502154">
        <ele>366.53</ele>
        <time>2015-06-20T16:52:41Z</time>
      </trkpt>
      <trkpt lat="36.533279" lon="-5.502116">
        <ele>366.74</ele>
        <time>2015-06-20T16:52:43Z</time>
      </trkpt>
      <trkpt lat="36.533295" lon="-5.502100">
        <ele>366.84</ele>
        <time>2015-06-20T16:52:44Z</time>
      </trkpt>
      <trkpt lat="36.533309" lon="-5.502082">
        <ele>366.96</ele>
        <time>2015-06-20T16:52:45Z</time>
      </trkpt>
      <trkpt lat="36.533322" lon="-5.502067">
        <ele>367.07</ele>
        <time>2015-06-20T16:52:46Z</time>
      </trkpt>
      <trkpt lat="36.533336" lon="-5.502051">
        <ele>367.11</ele>
        <time>2015-06-20T16:52:47Z</time>
      </trkpt>
      <trkpt lat="36.533364" lon="-5.502020">
        <ele>367.41</ele>
        <time>2015-06-20T16:52:49Z</time>
      </trkpt>
      <trkpt lat="36.533379" lon="-5.502006">
        <ele>367.69</ele>
        <time>2015-06-20T16:52:50Z</time>
      </trkpt>
      <trkpt lat="36.533457" lon="-5.501869">
        <ele>369.08</ele>
        <time>2015-06-20T16:52:57Z</time>
      </trkpt>
      <trkpt lat="36.533478" lon="-5.501829">
        <ele>369.43</ele>
        <time>2015-06-20T16:52:59Z</time>
      </trkpt>
      <trkpt lat="36.533485" lon="-5.501804">
        <ele>369.71</ele>
        <time>2015-06-20T16:53:00Z</time>
      </trkpt>
      <trkpt lat="36.533491" lon="-5.501779">
        <ele>370.05</ele>
        <time>2015-06-20T16:53:01Z</time>
      </trkpt>
      <trkpt lat="36.533495" lon="-5.501756">
        <ele>370.36</ele>
        <time>2015-06-20T16:53:02Z</time>
      </trkpt>
      <trkpt lat="36.533505" lon="-5.501735">
        <ele>370.55</ele>
        <time>2015-06-20T16:53:03Z</time>
      </trkpt>
      <trkpt lat="36.533559" lon="-5.501584">
        <ele>372.55</ele>
        <time>2015-06-20T16:53:10Z</time>
      </trkpt>
      <trkpt lat="36.533571" lon="-5.501510">
        <ele>373.69</ele>
        <time>2015-06-20T16:53:14Z</time>
      </trkpt>
      <trkpt lat="36.533571" lon="-5.501490">
        <ele>373.99</ele>
        <time>2015-06-20T16:53:15Z</time>
      </trkpt>
      <trkpt lat="36.533572" lon="-5.501471">
        <ele>374.22</ele>
        <time>2015-06-20T16:53:16Z</time>
      </trkpt>
      <trkpt lat="36.533573" lon="-5.501455">
        <ele>374.41</ele>
        <time>2015-06-20T16:53:17Z</time>
      </trkpt>
      <trkpt lat="36.533576" lon="-5.501436">
        <ele>374.78</ele>
        <time>2015-06-20T16:53:18Z</time>
      </trkpt>
      <trkpt lat="36.533579" lon="-5.501366">
        <ele>375.86</ele>
        <time>2015-06-20T16:53:22Z</time>
      </trkpt>
      <trkpt lat="36.533578" lon="-5.501290">
        <ele>377.36</ele>
        <time>2015-06-20T16:53:26Z</time>
      </trkpt>
      <trkpt lat="36.533574" lon="-5.501274">
        <ele>377.64</ele>
        <time>2015-06-20T16:53:27Z</time>
      </trkpt>
      <trkpt lat="36.533576" lon="-5.501257">
        <ele>377.96</ele>
        <time>2015-06-20T16:53:28Z</time>
      </trkpt>
      <trkpt lat="36.533581" lon="-5.501237">
        <ele>378.30</ele>
        <time>2015-06-20T16:53:29Z</time>
      </trkpt>
      <trkpt lat="36.533582" lon="-5.501218">
        <ele>378.64</ele>
        <time>2015-06-20T16:53:30Z</time>
      </trkpt>
      <trkpt lat="36.533609" lon="-5.501121">
        <ele>379.94</ele>
        <time>2015-06-20T16:53:35Z</time>
      </trkpt>
      <trkpt lat="36.533640" lon="-5.501042">
        <ele>381.55</ele>
        <time>2015-06-20T16:53:39Z</time>
      </trkpt>
      <trkpt lat="36.533667" lon="-5.501016">
        <ele>381.89</ele>
        <time>2015-06-20T16:53:41Z</time>
      </trkpt>
      <trkpt lat="36.533704" lon="-5.500981">
        <ele>382.12</ele>
        <time>2015-06-20T16:53:44Z</time>
      </trkpt>
      <trkpt lat="36.533714" lon="-5.500971">
        <ele>382.21</ele>
        <time>2015-06-20T16:53:45Z</time>
      </trkpt>
      <trkpt lat="36.533727" lon="-5.500963">
        <ele>382.27</ele>
        <time>2015-06-20T16:53:46Z</time>
      </trkpt>
      <trkpt lat="36.533735" lon="-5.500957">
        <ele>382.26</ele>
        <time>2015-06-20T16:53:47Z</time>
      </trkpt>
      <trkpt lat="36.533748" lon="-5.500949">
        <ele>382.11</ele>
        <time>2015-06-20T16:53:48Z</time>
      </trkpt>
      <trkpt lat="36.533799" lon="-5.500907">
        <ele>382.25</ele>
        <time>2015-06-20T16:53:53Z</time>
      </trkpt>
      <trkpt lat="36.533800" lon="-5.500904">
        <ele>382.24</ele>
        <time>2015-06-20T16:53:58Z</time>
      </trkpt>
      <trkpt lat="36.533800" lon="-5.500904">
        <ele>382.29</ele>
        <time>2015-06-20T16:54:00Z</time>
      </trkpt>
      <trkpt lat="36.533800" lon="-5.500904">
        <ele>382.26</ele>
        <time>2015-06-20T16:54:01Z</time>
      </trkpt>
      <trkpt lat="36.533800" lon="-5.500904">
        <ele>382.27</ele>
        <time>2015-06-20T16:54:02Z</time>
      </trkpt>
      <trkpt lat="36.533800" lon="-5.500904">
        <ele>382.27</ele>
        <time>2015-06-20T16:54:03Z</time>
      </trkpt>
      <trkpt lat="36.533800" lon="-5.500904">
        <ele>382.24</ele>
        <time>2015-06-20T16:54:04Z</time>
      </trkpt>
      <trkpt lat="36.533800" lon="-5.500904">
        <ele>382.21</ele>
        <time>2015-06-20T16:54:07Z</time>
      </trkpt>
      <trkpt lat="36.533800" lon="-5.500904">
        <ele>382.21</ele>
        <time>2015-06-20T16:54:18Z</time>
      </trkpt>
      <trkpt lat="36.533800" lon="-5.500904">
        <ele>382.25</ele>
        <time>2015-06-20T16:54:20Z</time>
      </trkpt>
      <trkpt lat="36.533800" lon="-5.500904">
        <ele>382.21</ele>
        <time>2015-06-20T16:54:22Z</time>
      </trkpt>
      <trkpt lat="36.533800" lon="-5.500904">
        <ele>382.27</ele>
        <time>2015-06-20T16:54:24Z</time>
      </trkpt>
      <trkpt lat="36.533800" lon="-5.500904">
        <ele>382.26</ele>
        <time>2015-06-20T16:54:26Z</time>
      </trkpt>
      <trkpt lat="36.533800" lon="-5.500904">
        <ele>382.24</ele>
        <time>2015-06-20T16:54:29Z</time>
      </trkpt>
      <trkpt lat="36.533800" lon="-5.500904">
        <ele>382.23</ele>
        <time>2015-06-20T16:54:32Z</time>
      </trkpt>
      <trkpt lat="36.533799" lon="-5.500898">
        <ele>382.41</ele>
        <time>2015-06-20T16:54:40Z</time>
      </trkpt>
      <trkpt lat="36.533799" lon="-5.500898">
        <ele>382.45</ele>
        <time>2015-06-20T16:54:56Z</time>
      </trkpt>
      <trkpt lat="36.533799" lon="-5.500898">
        <ele>382.42</ele>
        <time>2015-06-20T16:55:10Z</time>
      </trkpt>
      <trkpt lat="36.533827" lon="-5.500878">
        <ele>382.30</ele>
        <time>2015-06-20T16:55:15Z</time>
      </trkpt>
      <trkpt lat="36.533844" lon="-5.500845">
        <ele>382.71</ele>
        <time>2015-06-20T16:55:18Z</time>
      </trkpt>
      <trkpt lat="36.533852" lon="-5.500838">
        <ele>382.71</ele>
        <time>2015-06-20T16:55:19Z</time>
      </trkpt>
      <trkpt lat="36.533865" lon="-5.500823">
        <ele>382.96</ele>
        <time>2015-06-20T16:55:21Z</time>
      </trkpt>
      <trkpt lat="36.533879" lon="-5.500806">
        <ele>383.30</ele>
        <time>2015-06-20T16:55:23Z</time>
      </trkpt>
      <trkpt lat="36.533894" lon="-5.500799">
        <ele>383.22</ele>
        <time>2015-06-20T16:55:30Z</time>
      </trkpt>
      <trkpt lat="36.533917" lon="-5.500781">
        <ele>383.51</ele>
        <time>2015-06-20T16:55:34Z</time>
      </trkpt>
      <trkpt lat="36.533929" lon="-5.500772">
        <ele>383.76</ele>
        <time>2015-06-20T16:55:35Z</time>
      </trkpt>
      <trkpt lat="36.533990" lon="-5.500703">
        <ele>385.45</ele>
        <time>2015-06-20T16:55:41Z</time>
      </trkpt>
      <trkpt lat="36.534006" lon="-5.500692">
        <ele>385.68</ele>
        <time>2015-06-20T16:55:42Z</time>
      </trkpt>
      <trkpt lat="36.534016" lon="-5.500674">
        <ele>386.27</ele>
        <time>2015-06-20T16:55:43Z</time>
      </trkpt>
      <trkpt lat="36.534027" lon="-5.500656">
        <ele>386.79</ele>
        <time>2015-06-20T16:55:44Z</time>
      </trkpt>
      <trkpt lat="36.534035" lon="-5.500642">
        <ele>387.16</ele>
        <time>2015-06-20T16:55:45Z</time>
      </trkpt>
      <trkpt lat="36.534045" lon="-5.500632">
        <ele>387.43</ele>
        <time>2015-06-20T16:55:46Z</time>
      </trkpt>
      <trkpt lat="36.534140" lon="-5.500591">
        <ele>387.91</ele>
        <time>2015-06-20T16:55:52Z</time>
      </trkpt>
      <trkpt lat="36.534170" lon="-5.500580">
        <ele>388.05</ele>
        <time>2015-06-20T16:55:54Z</time>
      </trkpt>
      <trkpt lat="36.534205" lon="-5.500567">
        <ele>387.63</ele>
        <time>2015-06-20T16:55:56Z</time>
      </trkpt>
      <trkpt lat="36.534222" lon="-5.500557">
        <ele>387.63</ele>
        <time>2015-06-20T16:55:57Z</time>
      </trkpt>
      <trkpt lat="36.534236" lon="-5.500546">
        <ele>387.74</ele>
        <time>2015-06-20T16:55:58Z</time>
      </trkpt>
      <trkpt lat="36.534252" lon="-5.500537">
        <ele>387.77</ele>
        <time>2015-06-20T16:55:59Z</time>
      </trkpt>
      <trkpt lat="36.534267" lon="-5.500527">
        <ele>387.76</ele>
        <time>2015-06-20T16:56:00Z</time>
      </trkpt>
      <trkpt lat="36.534315" lon="-5.500505">
        <ele>387.50</ele>
        <time>2015-06-20T16:56:03Z</time>
      </trkpt>
      <trkpt lat="36.534349" lon="-5.500471">
        <ele>388.17</ele>
        <time>2015-06-20T16:56:06Z</time>
      </trkpt>
      <trkpt lat="36.534373" lon="-5.500453">
        <ele>388.29</ele>
        <time>2015-06-20T16:56:09Z</time>
      </trkpt>
      <trkpt lat="36.534401" lon="-5.500443">
        <ele>388.06</ele>
        <time>2015-06-20T16:56:12Z</time>
      </trkpt>
      <trkpt lat="36.534411" lon="-5.500440">
        <ele>387.83</ele>
        <time>2015-06-20T16:56:13Z</time>
      </trkpt>
      <trkpt lat="36.534422" lon="-5.500440">
        <ele>387.61</ele>
        <time>2015-06-20T16:56:14Z</time>
      </trkpt>
      <trkpt lat="36.534432" lon="-5.500440">
        <ele>387.38</ele>
        <time>2015-06-20T16:56:15Z</time>
      </trkpt>
      <trkpt lat="36.534443" lon="-5.500439">
        <ele>387.14</ele>
        <time>2015-06-20T16:56:16Z</time>
      </trkpt>
      <trkpt lat="36.534504" lon="-5.500402">
        <ele>388.02</ele>
        <time>2015-06-20T16:56:22Z</time>
      </trkpt>
      <trkpt lat="36.534567" lon="-5.500381">
        <ele>388.24</ele>
        <time>2015-06-20T16:56:27Z</time>
      </trkpt>
      <trkpt lat="36.534583" lon="-5.500383">
        <ele>388.08</ele>
        <time>2015-06-20T16:56:28Z</time>
      </trkpt>
      <trkpt lat="36.534597" lon="-5.500385">
        <ele>387.79</ele>
        <time>2015-06-20T16:56:29Z</time>
      </trkpt>
      <trkpt lat="36.534612" lon="-5.500386">
        <ele>387.60</ele>
        <time>2015-06-20T16:56:30Z</time>
      </trkpt>
      <trkpt lat="36.534626" lon="-5.500380">
        <ele>387.69</ele>
        <time>2015-06-20T16:56:31Z</time>
      </trkpt>
      <trkpt lat="36.534672" lon="-5.500352">
        <ele>388.32</ele>
        <time>2015-06-20T16:56:34Z</time>
      </trkpt>
      <trkpt lat="36.534782" lon="-5.500276">
        <ele>390.80</ele>
        <time>2015-06-20T16:56:41Z</time>
      </trkpt>
      <trkpt lat="36.534812" lon="-5.500252">
        <ele>391.62</ele>
        <time>2015-06-20T16:56:43Z</time>
      </trkpt>
      <trkpt lat="36.534829" lon="-5.500243">
        <ele>391.81</ele>
        <time>2015-06-20T16:56:44Z</time>
      </trkpt>
      <trkpt lat="36.534848" lon="-5.500234">
        <ele>392.16</ele>
        <time>2015-06-20T16:56:45Z</time>
      </trkpt>
      <trkpt lat="36.534864" lon="-5.500226">
        <ele>392.39</ele>
        <time>2015-06-20T16:56:46Z</time>
      </trkpt>
      <trkpt lat="36.534890" lon="-5.500199">
        <ele>393.25</ele>
        <time>2015-06-20T16:56:48Z</time>
      </trkpt>
      <trkpt lat="36.534992" lon="-5.500184">
        <ele>392.82</ele>
        <time>2015-06-20T16:56:55Z</time>
      </trkpt>
      <trkpt lat="36.535029" lon="-5.500184">
        <ele>392.68</ele>
        <time>2015-06-20T16:56:57Z</time>
      </trkpt>
      <trkpt lat="36.535049" lon="-5.500179">
        <ele>392.72</ele>
        <time>2015-06-20T16:56:58Z</time>
      </trkpt>
      <trkpt lat="36.535069" lon="-5.500179">
        <ele>392.65</ele>
        <time>2015-06-20T16:56:59Z</time>
      </trkpt>
      <trkpt lat="36.535088" lon="-5.500172">
        <ele>392.78</ele>
        <time>2015-06-20T16:57:00Z</time>
      </trkpt>
      <trkpt lat="36.535108" lon="-5.500163">
        <ele>392.95</ele>
        <time>2015-06-20T16:57:01Z</time>
      </trkpt>
      <trkpt lat="36.535216" lon="-5.500088">
        <ele>394.49</ele>
        <time>2015-06-20T16:57:08Z</time>
      </trkpt>
      <trkpt lat="36.535247" lon="-5.500042">
        <ele>395.32</ele>
        <time>2015-06-20T16:57:11Z</time>
      </trkpt>
      <trkpt lat="36.535261" lon="-5.500028">
        <ele>395.51</ele>
        <time>2015-06-20T16:57:12Z</time>
      </trkpt>
      <trkpt lat="36.535274" lon="-5.500012">
        <ele>395.82</ele>
        <time>2015-06-20T16:57:13Z</time>
      </trkpt>
      <trkpt lat="36.535288" lon="-5.499997">
        <ele>396.01</ele>
        <time>2015-06-20T16:57:14Z</time>
      </trkpt>
      <trkpt lat="36.535302" lon="-5.499982">
        <ele>396.22</ele>
        <time>2015-06-20T16:57:15Z</time>
      </trkpt>
      <trkpt lat="36.535320" lon="-5.499965">
        <ele>396.52</ele>
        <time>2015-06-20T16:57:16Z</time>
      </trkpt>
      <trkpt lat="36.535428" lon="-5.499851">
        <ele>398.45</ele>
        <time>2015-06-20T16:57:23Z</time>
      </trkpt>
      <trkpt lat="36.535563" lon="-5.499737">
        <ele>399.65</ele>
        <time>2015-06-20T16:57:31Z</time>
      </trkpt>
      <trkpt lat="36.535613" lon="-5.499703">
        <ele>400.53</ele>
        <time>2015-06-20T16:57:34Z</time>
      </trkpt>
      <trkpt lat="36.535658" lon="-5.499665">
        <ele>401.69</ele>
        <time>2015-06-20T16:57:37Z</time>
      </trkpt>
      <trkpt lat="36.535669" lon="-5.499652">
        <ele>402.02</ele>
        <time>2015-06-20T16:57:38Z</time>
      </trkpt>
      <trkpt lat="36.535682" lon="-5.499640">
        <ele>402.36</ele>
        <time>2015-06-20T16:57:39Z</time>
      </trkpt>
      <trkpt lat="36.535693" lon="-5.499632">
        <ele>402.41</ele>
        <time>2015-06-20T16:57:40Z</time>
      </trkpt>
      <trkpt lat="36.535705" lon="-5.499623">
        <ele>402.61</ele>
        <time>2015-06-20T16:57:41Z</time>
      </trkpt>
      <trkpt lat="36.535764" lon="-5.499564">
        <ele>403.81</ele>
        <time>2015-06-20T16:57:46Z</time>
      </trkpt>
      <trkpt lat="36.535836" lon="-5.499530">
        <ele>403.87</ele>
        <time>2015-06-20T16:57:52Z</time>
      </trkpt>
      <trkpt lat="36.535914" lon="-5.499472">
        <ele>404.16</ele>
        <time>2015-06-20T16:57:58Z</time>
      </trkpt>
      <trkpt lat="36.535926" lon="-5.499467">
        <ele>404.14</ele>
        <time>2015-06-20T16:57:59Z</time>
      </trkpt>
      <trkpt lat="36.535939" lon="-5.499464">
        <ele>404.05</ele>
        <time>2015-06-20T16:58:00Z</time>
      </trkpt>
      <trkpt lat="36.535952" lon="-5.499459">
        <ele>403.94</ele>
        <time>2015-06-20T16:58:01Z</time>
      </trkpt>
      <trkpt lat="36.536044" lon="-5.499430">
        <ele>403.52</ele>
        <time>2015-06-20T16:58:07Z</time>
      </trkpt>
      <trkpt lat="36.536090" lon="-5.499408">
        <ele>403.69</ele>
        <time>2015-06-20T16:58:11Z</time>
      </trkpt>
      <trkpt lat="36.536103" lon="-5.499403">
        <ele>403.69</ele>
        <time>2015-06-20T16:58:12Z</time>
      </trkpt>
      <trkpt lat="36.536116" lon="-5.499395">
        <ele>403.71</ele>
        <time>2015-06-20T16:58:13Z</time>
      </trkpt>
      <trkpt lat="36.536129" lon="-5.499386">
        <ele>403.83</ele>
        <time>2015-06-20T16:58:14Z</time>
      </trkpt>
      <trkpt lat="36.536138" lon="-5.499381">
        <ele>403.81</ele>
        <time>2015-06-20T16:58:15Z</time>
      </trkpt>
      <trkpt lat="36.536201" lon="-5.499345">
        <ele>404.26</ele>
        <time>2015-06-20T16:58:19Z</time>
      </trkpt>
      <trkpt lat="36.536269" lon="-5.499289">
        <ele>405.50</ele>
        <time>2015-06-20T16:58:24Z</time>
      </trkpt>
      <trkpt lat="36.536283" lon="-5.499275">
        <ele>405.87</ele>
        <time>2015-06-20T16:58:25Z</time>
      </trkpt>
      <trkpt lat="36.536299" lon="-5.499265">
        <ele>406.05</ele>
        <time>2015-06-20T16:58:26Z</time>
      </trkpt>
      <trkpt lat="36.536314" lon="-5.499258">
        <ele>406.05</ele>
        <time>2015-06-20T16:58:27Z</time>
      </trkpt>
      <trkpt lat="36.536426" lon="-5.499187">
        <ele>408.04</ele>
        <time>2015-06-20T16:58:34Z</time>
      </trkpt>
      <trkpt lat="36.536501" lon="-5.499155">
        <ele>409.25</ele>
        <time>2015-06-20T16:58:39Z</time>
      </trkpt>
      <trkpt lat="36.536517" lon="-5.499149">
        <ele>409.43</ele>
        <time>2015-06-20T16:58:40Z</time>
      </trkpt>
      <trkpt lat="36.536533" lon="-5.499135">
        <ele>410.19</ele>
        <time>2015-06-20T16:58:41Z</time>
      </trkpt>
      <trkpt lat="36.536552" lon="-5.499127">
        <ele>410.46</ele>
        <time>2015-06-20T16:58:42Z</time>
      </trkpt>
      <trkpt lat="36.536569" lon="-5.499118">
        <ele>410.82</ele>
        <time>2015-06-20T16:58:43Z</time>
      </trkpt>
      <trkpt lat="36.536597" lon="-5.499100">
        <ele>411.61</ele>
        <time>2015-06-20T16:58:45Z</time>
      </trkpt>
      <trkpt lat="36.536678" lon="-5.499081">
        <ele>412.38</ele>
        <time>2015-06-20T16:58:51Z</time>
      </trkpt>
      <trkpt lat="36.536692" lon="-5.499089">
        <ele>411.95</ele>
        <time>2015-06-20T16:58:52Z</time>
      </trkpt>
      <trkpt lat="36.536710" lon="-5.499091">
        <ele>411.82</ele>
        <time>2015-06-20T16:58:53Z</time>
      </trkpt>
      <trkpt lat="36.536728" lon="-5.499085">
        <ele>412.20</ele>
        <time>2015-06-20T16:58:54Z</time>
      </trkpt>
      <trkpt lat="36.536745" lon="-5.499081">
        <ele>412.37</ele>
        <time>2015-06-20T16:58:55Z</time>
      </trkpt>
      <trkpt lat="36.536763" lon="-5.499075">
        <ele>412.61</ele>
        <time>2015-06-20T16:58:56Z</time>
      </trkpt>
      <trkpt lat="36.536865" lon="-5.499061">
        <ele>413.23</ele>
        <time>2015-06-20T16:59:03Z</time>
      </trkpt>
      <trkpt lat="36.536876" lon="-5.499064">
        <ele>413.13</ele>
        <time>2015-06-20T16:59:04Z</time>
      </trkpt>
      <trkpt lat="36.536887" lon="-5.499064">
        <ele>413.11</ele>
        <time>2015-06-20T16:59:05Z</time>
      </trkpt>
      <trkpt lat="36.536898" lon="-5.499063">
        <ele>413.15</ele>
        <time>2015-06-20T16:59:06Z</time>
      </trkpt>
      <trkpt lat="36.536908" lon="-5.499058">
        <ele>413.31</ele>
        <time>2015-06-20T16:59:07Z</time>
      </trkpt>
      <trkpt lat="36.536918" lon="-5.499055">
        <ele>413.41</ele>
        <time>2015-06-20T16:59:08Z</time>
      </trkpt>
      <trkpt lat="36.536937" lon="-5.499051">
        <ele>413.65</ele>
        <time>2015-06-20T16:59:10Z</time>
      </trkpt>
      <trkpt lat="36.537007" lon="-5.499071">
        <ele>412.32</ele>
        <time>2015-06-20T16:59:16Z</time>
      </trkpt>
      <trkpt lat="36.537029" lon="-5.499069">
        <ele>412.36</ele>
        <time>2015-06-20T16:59:18Z</time>
      </trkpt>
      <trkpt lat="36.537038" lon="-5.499062">
        <ele>412.56</ele>
        <time>2015-06-20T16:59:19Z</time>
      </trkpt>
      <trkpt lat="36.537050" lon="-5.499056">
        <ele>412.61</ele>
        <time>2015-06-20T16:59:20Z</time>
      </trkpt>
      <trkpt lat="36.537062" lon="-5.499051">
        <ele>412.78</ele>
        <time>2015-06-20T16:59:21Z</time>
      </trkpt>
      <trkpt lat="36.537075" lon="-5.499047">
        <ele>412.83</ele>
        <time>2015-06-20T16:59:22Z</time>
      </trkpt>
      <trkpt lat="36.537164" lon="-5.499008">
        <ele>413.75</ele>
        <time>2015-06-20T16:59:28Z</time>
      </trkpt>
      <trkpt lat="36.537263" lon="-5.498935">
        <ele>415.78</ele>
        <time>2015-06-20T16:59:35Z</time>
      </trkpt>
      <trkpt lat="36.537325" lon="-5.498881">
        <ele>416.81</ele>
        <time>2015-06-20T16:59:39Z</time>
      </trkpt>
      <trkpt lat="36.537340" lon="-5.498861">
        <ele>417.32</ele>
        <time>2015-06-20T16:59:40Z</time>
      </trkpt>
      <trkpt lat="36.537353" lon="-5.498843">
        <ele>417.71</ele>
        <time>2015-06-20T16:59:41Z</time>
      </trkpt>
      <trkpt lat="36.537367" lon="-5.498828">
        <ele>418.06</ele>
        <time>2015-06-20T16:59:42Z</time>
      </trkpt>
      <trkpt lat="36.537431" lon="-5.498747">
        <ele>419.60</ele>
        <time>2015-06-20T16:59:47Z</time>
      </trkpt>
      <trkpt lat="36.537484" lon="-5.498645">
        <ele>421.48</ele>
        <time>2015-06-20T16:59:53Z</time>
      </trkpt>
      <trkpt lat="36.537496" lon="-5.498628">
        <ele>421.69</ele>
        <time>2015-06-20T16:59:54Z</time>
      </trkpt>
      <trkpt lat="36.537506" lon="-5.498613">
        <ele>421.98</ele>
        <time>2015-06-20T16:59:55Z</time>
      </trkpt>
      <trkpt lat="36.537518" lon="-5.498601">
        <ele>422.17</ele>
        <time>2015-06-20T16:59:56Z</time>
      </trkpt>
      <trkpt lat="36.537525" lon="-5.498590">
        <ele>422.38</ele>
        <time>2015-06-20T16:59:57Z</time>
      </trkpt>
      <trkpt lat="36.537549" lon="-5.498553">
        <ele>423.23</ele>
        <time>2015-06-20T17:00:00Z</time>
      </trkpt>
      <trkpt lat="36.537553" lon="-5.498537">
        <ele>423.74</ele>
        <time>2015-06-20T17:00:01Z</time>
      </trkpt>
      <trkpt lat="36.537574" lon="-5.498502">
        <ele>424.69</ele>
        <time>2015-06-20T17:00:04Z</time>
      </trkpt>
      <trkpt lat="36.537588" lon="-5.498497">
        <ele>424.61</ele>
        <time>2015-06-20T17:00:05Z</time>
      </trkpt>
      <trkpt lat="36.537601" lon="-5.498487">
        <ele>424.71</ele>
        <time>2015-06-20T17:00:06Z</time>
      </trkpt>
      <trkpt lat="36.537612" lon="-5.498476">
        <ele>425.06</ele>
        <time>2015-06-20T17:00:07Z</time>
      </trkpt>
      <trkpt lat="36.537625" lon="-5.498467">
        <ele>425.15</ele>
        <time>2015-06-20T17:00:08Z</time>
      </trkpt>
      <trkpt lat="36.537673" lon="-5.498441">
        <ele>425.42</ele>
        <time>2015-06-20T17:00:12Z</time>
      </trkpt>
      <trkpt lat="36.537715" lon="-5.498448">
        <ele>424.61</ele>
        <time>2015-06-20T17:00:15Z</time>
      </trkpt>
      <trkpt lat="36.537730" lon="-5.498453">
        <ele>424.39</ele>
        <time>2015-06-20T17:00:16Z</time>
      </trkpt>
      <trkpt lat="36.537745" lon="-5.498457">
        <ele>424.08</ele>
        <time>2015-06-20T17:00:17Z</time>
      </trkpt>
      <trkpt lat="36.537758" lon="-5.498460">
        <ele>423.76</ele>
        <time>2015-06-20T17:00:18Z</time>
      </trkpt>
      <trkpt lat="36.537774" lon="-5.498464">
        <ele>423.32</ele>
        <time>2015-06-20T17:00:19Z</time>
      </trkpt>
      <trkpt lat="36.537814" lon="-5.498482">
        <ele>422.70</ele>
        <time>2015-06-20T17:00:22Z</time>
      </trkpt>
      <trkpt lat="36.537830" lon="-5.498495">
        <ele>422.22</ele>
        <time>2015-06-20T17:00:23Z</time>
      </trkpt>
      <trkpt lat="36.537870" lon="-5.498532">
        <ele>420.82</ele>
        <time>2015-06-20T17:00:27Z</time>
      </trkpt>
      <trkpt lat="36.537878" lon="-5.498546">
        <ele>420.31</ele>
        <time>2015-06-20T17:00:28Z</time>
      </trkpt>
      <trkpt lat="36.537892" lon="-5.498552">
        <ele>420.14</ele>
        <time>2015-06-20T17:00:29Z</time>
      </trkpt>
      <trkpt lat="36.537908" lon="-5.498558">
        <ele>419.94</ele>
        <time>2015-06-20T17:00:30Z</time>
      </trkpt>
      <trkpt lat="36.537922" lon="-5.498559">
        <ele>419.94</ele>
        <time>2015-06-20T17:00:31Z</time>
      </trkpt>
      <trkpt lat="36.537935" lon="-5.498562">
        <ele>419.89</ele>
        <time>2015-06-20T17:00:32Z</time>
      </trkpt>
      <trkpt lat="36.537949" lon="-5.498569">
        <ele>419.54</ele>
        <time>2015-06-20T17:00:33Z</time>
      </trkpt>
      <trkpt lat="36.537962" lon="-5.498576">
        <ele>419.39</ele>
        <time>2015-06-20T17:00:34Z</time>
      </trkpt>
      <trkpt lat="36.538043" lon="-5.498583">
        <ele>419.08</ele>
        <time>2015-06-20T17:00:40Z</time>
      </trkpt>
      <trkpt lat="36.538131" lon="-5.498581">
        <ele>419.44</ele>
        <time>2015-06-20T17:00:46Z</time>
      </trkpt>
      <trkpt lat="36.538146" lon="-5.498582">
        <ele>419.47</ele>
        <time>2015-06-20T17:00:47Z</time>
      </trkpt>
      <trkpt lat="36.538161" lon="-5.498584">
        <ele>419.40</ele>
        <time>2015-06-20T17:00:48Z</time>
      </trkpt>
      <trkpt lat="36.538176" lon="-5.498588">
        <ele>419.32</ele>
        <time>2015-06-20T17:00:49Z</time>
      </trkpt>
      <trkpt lat="36.538192" lon="-5.498586">
        <ele>419.41</ele>
        <time>2015-06-20T17:00:50Z</time>
      </trkpt>
      <trkpt lat="36.538285" lon="-5.498561">
        <ele>420.85</ele>
        <time>2015-06-20T17:00:55Z</time>
      </trkpt>
      <trkpt lat="36.538459" lon="-5.498498">
        <ele>421.92</ele>
        <time>2015-06-20T17:01:04Z</time>
      </trkpt>
      <trkpt lat="36.538516" lon="-5.498471">
        <ele>422.23</ele>
        <time>2015-06-20T17:01:07Z</time>
      </trkpt>
      <trkpt lat="36.538534" lon="-5.498460">
        <ele>422.49</ele>
        <time>2015-06-20T17:01:08Z</time>
      </trkpt>
      <trkpt lat="36.538551" lon="-5.498450">
        <ele>422.70</ele>
        <time>2015-06-20T17:01:09Z</time>
      </trkpt>
      <trkpt lat="36.538570" lon="-5.498440">
        <ele>422.80</ele>
        <time>2015-06-20T17:01:10Z</time>
      </trkpt>
      <trkpt lat="36.538589" lon="-5.498430">
        <ele>422.82</ele>
        <time>2015-06-20T17:01:11Z</time>
      </trkpt>
      <trkpt lat="36.538656" lon="-5.498371">
        <ele>423.69</ele>
        <time>2015-06-20T17:01:16Z</time>
      </trkpt>
      <trkpt lat="36.538734" lon="-5.498241">
        <ele>425.45</ele>
        <time>2015-06-20T17:01:23Z</time>
      </trkpt>
      <trkpt lat="36.538788" lon="-5.498089">
        <ele>428.06</ele>
        <time>2015-06-20T17:01:30Z</time>
      </trkpt>
      <trkpt lat="36.538797" lon="-5.498065">
        <ele>428.41</ele>
        <time>2015-06-20T17:01:31Z</time>
      </trkpt>
      <trkpt lat="36.538804" lon="-5.498044">
        <ele>428.71</ele>
        <time>2015-06-20T17:01:32Z</time>
      </trkpt>
      <trkpt lat="36.538810" lon="-5.498019">
        <ele>429.30</ele>
        <time>2015-06-20T17:01:33Z</time>
      </trkpt>
      <trkpt lat="36.538823" lon="-5.498002">
        <ele>429.25</ele>
        <time>2015-06-20T17:01:34Z</time>
      </trkpt>
      <trkpt lat="36.538853" lon="-5.497951">
        <ele>429.44</ele>
        <time>2015-06-20T17:01:37Z</time>
      </trkpt>
      <trkpt lat="36.538890" lon="-5.497848">
        <ele>430.59</ele>
        <time>2015-06-20T17:01:43Z</time>
      </trkpt>
      <trkpt lat="36.538898" lon="-5.497831">
        <ele>430.76</ele>
        <time>2015-06-20T17:01:44Z</time>
      </trkpt>
      <trkpt lat="36.538903" lon="-5.497814">
        <ele>430.93</ele>
        <time>2015-06-20T17:01:45Z</time>
      </trkpt>
      <trkpt lat="36.538909" lon="-5.497798">
        <ele>431.16</ele>
        <time>2015-06-20T17:01:46Z</time>
      </trkpt>
      <trkpt lat="36.538946" lon="-5.497723">
        <ele>433.03</ele>
        <time>2015-06-20T17:01:51Z</time>
      </trkpt>
      <trkpt lat="36.538977" lon="-5.497683">
        <ele>433.96</ele>
        <time>2015-06-20T17:01:54Z</time>
      </trkpt>
      <trkpt lat="36.538989" lon="-5.497675">
        <ele>433.91</ele>
        <time>2015-06-20T17:01:55Z</time>
      </trkpt>
      <trkpt lat="36.539001" lon="-5.497672">
        <ele>433.72</ele>
        <time>2015-06-20T17:01:56Z</time>
      </trkpt>
      <trkpt lat="36.539014" lon="-5.497665">
        <ele>433.61</ele>
        <time>2015-06-20T17:01:57Z</time>
      </trkpt>
      <trkpt lat="36.539024" lon="-5.497658">
        <ele>433.68</ele>
        <time>2015-06-20T17:01:58Z</time>
      </trkpt>
      <trkpt lat="36.539034" lon="-5.497651">
        <ele>433.63</ele>
        <time>2015-06-20T17:01:59Z</time>
      </trkpt>
      <trkpt lat="36.539076" lon="-5.497627">
        <ele>433.49</ele>
        <time>2015-06-20T17:02:02Z</time>
      </trkpt>
      <trkpt lat="36.539088" lon="-5.497616">
        <ele>433.46</ele>
        <time>2015-06-20T17:02:03Z</time>
      </trkpt>
      <trkpt lat="36.539162" lon="-5.497535">
        <ele>434.06</ele>
        <time>2015-06-20T17:02:10Z</time>
      </trkpt>
      <trkpt lat="36.539176" lon="-5.497523">
        <ele>434.14</ele>
        <time>2015-06-20T17:02:11Z</time>
      </trkpt>
      <trkpt lat="36.539185" lon="-5.497509">
        <ele>434.43</ele>
        <time>2015-06-20T17:02:12Z</time>
      </trkpt>
      <trkpt lat="36.539192" lon="-5.497494">
        <ele>434.93</ele>
        <time>2015-06-20T17:02:13Z</time>
      </trkpt>
      <trkpt lat="36.539205" lon="-5.497476">
        <ele>435.46</ele>
        <time>2015-06-20T17:02:14Z</time>
      </trkpt>
      <trkpt lat="36.539237" lon="-5.497417">
        <ele>437.08</ele>
        <time>2015-06-20T17:02:17Z</time>
      </trkpt>
      <trkpt lat="36.539292" lon="-5.497306">
        <ele>439.91</ele>
        <time>2015-06-20T17:02:23Z</time>
      </trkpt>
      <trkpt lat="36.539370" lon="-5.497191">
        <ele>441.91</ele>
        <time>2015-06-20T17:02:30Z</time>
      </trkpt>
      <trkpt lat="36.539382" lon="-5.497175">
        <ele>442.24</ele>
        <time>2015-06-20T17:02:31Z</time>
      </trkpt>
      <trkpt lat="36.539394" lon="-5.497163">
        <ele>442.34</ele>
        <time>2015-06-20T17:02:32Z</time>
      </trkpt>
      <trkpt lat="36.539406" lon="-5.497147">
        <ele>442.64</ele>
        <time>2015-06-20T17:02:33Z</time>
      </trkpt>
      <trkpt lat="36.539483" lon="-5.497090">
        <ele>443.12</ele>
        <time>2015-06-20T17:02:38Z</time>
      </trkpt>
      <trkpt lat="36.539583" lon="-5.497069">
        <ele>442.22</ele>
        <time>2015-06-20T17:02:44Z</time>
      </trkpt>
      <trkpt lat="36.539599" lon="-5.497066">
        <ele>442.14</ele>
        <time>2015-06-20T17:02:45Z</time>
      </trkpt>
      <trkpt lat="36.539617" lon="-5.497068">
        <ele>441.75</ele>
        <time>2015-06-20T17:02:46Z</time>
      </trkpt>
      <trkpt lat="36.539633" lon="-5.497071">
        <ele>441.50</ele>
        <time>2015-06-20T17:02:47Z</time>
      </trkpt>
      <trkpt lat="36.539652" lon="-5.497072">
        <ele>441.10</ele>
        <time>2015-06-20T17:02:48Z</time>
      </trkpt>
      <trkpt lat="36.539737" lon="-5.497076">
        <ele>439.65</ele>
        <time>2015-06-20T17:02:53Z</time>
      </trkpt>
      <trkpt lat="36.539821" lon="-5.497081">
        <ele>438.52</ele>
        <time>2015-06-20T17:02:58Z</time>
      </trkpt>
      <trkpt lat="36.539859" lon="-5.497069">
        <ele>438.41</ele>
        <time>2015-06-20T17:03:00Z</time>
      </trkpt>
      <trkpt lat="36.539876" lon="-5.497060">
        <ele>438.55</ele>
        <time>2015-06-20T17:03:01Z</time>
      </trkpt>
      <trkpt lat="36.539892" lon="-5.497050">
        <ele>438.68</ele>
        <time>2015-06-20T17:03:02Z</time>
      </trkpt>
      <trkpt lat="36.539909" lon="-5.497041">
        <ele>438.65</ele>
        <time>2015-06-20T17:03:03Z</time>
      </trkpt>
      <trkpt lat="36.539923" lon="-5.497032">
        <ele>438.77</ele>
        <time>2015-06-20T17:03:04Z</time>
      </trkpt>
      <trkpt lat="36.539939" lon="-5.497011">
        <ele>439.16</ele>
        <time>2015-06-20T17:03:07Z</time>
      </trkpt>
      <trkpt lat="36.539941" lon="-5.497010">
        <ele>439.16</ele>
        <time>2015-06-20T17:03:15Z</time>
      </trkpt>
      <trkpt lat="36.539941" lon="-5.497010">
        <ele>439.14</ele>
        <time>2015-06-20T17:03:22Z</time>
      </trkpt>
      <trkpt lat="36.539941" lon="-5.497010">
        <ele>439.18</ele>
        <time>2015-06-20T17:03:26Z</time>
      </trkpt>
      <trkpt lat="36.539941" lon="-5.497010">
        <ele>439.15</ele>
        <time>2015-06-20T17:03:32Z</time>
      </trkpt>
      <trkpt lat="36.539941" lon="-5.497010">
        <ele>439.10</ele>
        <time>2015-06-20T17:03:35Z</time>
      </trkpt>
      <trkpt lat="36.539941" lon="-5.497010">
        <ele>439.12</ele>
        <time>2015-06-20T17:03:38Z</time>
      </trkpt>
      <trkpt lat="36.539941" lon="-5.497010">
        <ele>439.11</ele>
        <time>2015-06-20T17:03:42Z</time>
      </trkpt>
      <trkpt lat="36.539941" lon="-5.497010">
        <ele>439.15</ele>
        <time>2015-06-20T17:03:48Z</time>
      </trkpt>
      <trkpt lat="36.539957" lon="-5.497002">
        <ele>439.13</ele>
        <time>2015-06-20T17:03:52Z</time>
      </trkpt>
      <trkpt lat="36.539975" lon="-5.496986">
        <ele>439.34</ele>
        <time>2015-06-20T17:03:54Z</time>
      </trkpt>
      <trkpt lat="36.540028" lon="-5.496939">
        <ele>440.39</ele>
        <time>2015-06-20T17:03:58Z</time>
      </trkpt>
      <trkpt lat="36.540040" lon="-5.496932">
        <ele>440.69</ele>
        <time>2015-06-20T17:03:59Z</time>
      </trkpt>
      <trkpt lat="36.540050" lon="-5.496919">
        <ele>441.12</ele>
        <time>2015-06-20T17:04:00Z</time>
      </trkpt>
      <trkpt lat="36.540058" lon="-5.496905">
        <ele>441.77</ele>
        <time>2015-06-20T17:04:01Z</time>
      </trkpt>
      <trkpt lat="36.540069" lon="-5.496891">
        <ele>442.26</ele>
        <time>2015-06-20T17:04:02Z</time>
      </trkpt>
      <trkpt lat="36.540083" lon="-5.496878">
        <ele>442.77</ele>
        <time>2015-06-20T17:04:03Z</time>
      </trkpt>
      <trkpt lat="36.540106" lon="-5.496845">
        <ele>443.94</ele>
        <time>2015-06-20T17:04:05Z</time>
      </trkpt>
      <trkpt lat="36.540128" lon="-5.496799">
        <ele>445.51</ele>
        <time>2015-06-20T17:04:08Z</time>
      </trkpt>
      <trkpt lat="36.540169" lon="-5.496779">
        <ele>446.11</ele>
        <time>2015-06-20T17:04:11Z</time>
      </trkpt>
      <trkpt lat="36.540207" lon="-5.496758">
        <ele>446.64</ele>
        <time>2015-06-20T17:04:14Z</time>
      </trkpt>
      <trkpt lat="36.540216" lon="-5.496747">
        <ele>446.98</ele>
        <time>2015-06-20T17:04:15Z</time>
      </trkpt>
      <trkpt lat="36.540230" lon="-5.496742">
        <ele>447.07</ele>
        <time>2015-06-20T17:04:16Z</time>
      </trkpt>
      <trkpt lat="36.540245" lon="-5.496733">
        <ele>447.23</ele>
        <time>2015-06-20T17:04:17Z</time>
      </trkpt>
      <trkpt lat="36.540263" lon="-5.496730">
        <ele>447.29</ele>
        <time>2015-06-20T17:04:18Z</time>
      </trkpt>
      <trkpt lat="36.540279" lon="-5.496728">
        <ele>447.22</ele>
        <time>2015-06-20T17:04:19Z</time>
      </trkpt>
      <trkpt lat="36.540370" lon="-5.496733">
        <ele>447.02</ele>
        <time>2015-06-20T17:04:25Z</time>
      </trkpt>
      <trkpt lat="36.540453" lon="-5.496730">
        <ele>447.04</ele>
        <time>2015-06-20T17:04:30Z</time>
      </trkpt>
      <trkpt lat="36.540469" lon="-5.496730">
        <ele>447.04</ele>
        <time>2015-06-20T17:04:31Z</time>
      </trkpt>
      <trkpt lat="36.540486" lon="-5.496734">
        <ele>446.97</ele>
        <time>2015-06-20T17:04:32Z</time>
      </trkpt>
      <trkpt lat="36.540503" lon="-5.496736">
        <ele>446.82</ele>
        <time>2015-06-20T17:04:33Z</time>
      </trkpt>
      <trkpt lat="36.540523" lon="-5.496738">
        <ele>446.71</ele>
        <time>2015-06-20T17:04:34Z</time>
      </trkpt>
      <trkpt lat="36.540594" lon="-5.496727">
        <ele>447.26</ele>
        <time>2015-06-20T17:04:38Z</time>
      </trkpt>
      <trkpt lat="36.540607" lon="-5.496729">
        <ele>447.28</ele>
        <time>2015-06-20T17:04:39Z</time>
      </trkpt>
      <trkpt lat="36.540637" lon="-5.496732">
        <ele>447.49</ele>
        <time>2015-06-20T17:04:41Z</time>
      </trkpt>
      <trkpt lat="36.540651" lon="-5.496739">
        <ele>447.46</ele>
        <time>2015-06-20T17:04:42Z</time>
      </trkpt>
      <trkpt lat="36.540666" lon="-5.496743">
        <ele>447.45</ele>
        <time>2015-06-20T17:04:43Z</time>
      </trkpt>
      <trkpt lat="36.540683" lon="-5.496746">
        <ele>447.54</ele>
        <time>2015-06-20T17:04:44Z</time>
      </trkpt>
      <trkpt lat="36.540697" lon="-5.496745">
        <ele>447.65</ele>
        <time>2015-06-20T17:04:45Z</time>
      </trkpt>
      <trkpt lat="36.540714" lon="-5.496747">
        <ele>447.77</ele>
        <time>2015-06-20T17:04:46Z</time>
      </trkpt>
      <trkpt lat="36.540729" lon="-5.496751">
        <ele>447.72</ele>
        <time>2015-06-20T17:04:47Z</time>
      </trkpt>
      <trkpt lat="36.540745" lon="-5.496752">
        <ele>447.81</ele>
        <time>2015-06-20T17:04:48Z</time>
      </trkpt>
      <trkpt lat="36.540763" lon="-5.496750">
        <ele>448.02</ele>
        <time>2015-06-20T17:04:49Z</time>
      </trkpt>
      <trkpt lat="36.540781" lon="-5.496754">
        <ele>448.11</ele>
        <time>2015-06-20T17:04:50Z</time>
      </trkpt>
      <trkpt lat="36.540797" lon="-5.496767">
        <ele>447.92</ele>
        <time>2015-06-20T17:04:51Z</time>
      </trkpt>
      <trkpt lat="36.540833" lon="-5.496790">
        <ele>447.85</ele>
        <time>2015-06-20T17:04:53Z</time>
      </trkpt>
      <trkpt lat="36.540874" lon="-5.496791">
        <ele>448.22</ele>
        <time>2015-06-20T17:04:55Z</time>
      </trkpt>
      <trkpt lat="36.540926" lon="-5.496791">
        <ele>448.83</ele>
        <time>2015-06-20T17:04:58Z</time>
      </trkpt>
      <trkpt lat="36.540983" lon="-5.496785">
        <ele>449.57</ele>
        <time>2015-06-20T17:05:02Z</time>
      </trkpt>
      <trkpt lat="36.540993" lon="-5.496786">
        <ele>449.65</ele>
        <time>2015-06-20T17:05:03Z</time>
      </trkpt>
      <trkpt lat="36.541008" lon="-5.496788">
        <ele>449.76</ele>
        <time>2015-06-20T17:05:04Z</time>
      </trkpt>
      <trkpt lat="36.541023" lon="-5.496787">
        <ele>449.97</ele>
        <time>2015-06-20T17:05:05Z</time>
      </trkpt>
      <trkpt lat="36.541108" lon="-5.496790">
        <ele>450.73</ele>
        <time>2015-06-20T17:05:10Z</time>
      </trkpt>
      <trkpt lat="36.541171" lon="-5.496803">
        <ele>451.23</ele>
        <time>2015-06-20T17:05:14Z</time>
      </trkpt>
      <trkpt lat="36.541187" lon="-5.496807">
        <ele>451.31</ele>
        <time>2015-06-20T17:05:15Z</time>
      </trkpt>
      <trkpt lat="36.541204" lon="-5.496807">
        <ele>451.51</ele>
        <time>2015-06-20T17:05:16Z</time>
      </trkpt>
      <trkpt lat="36.541222" lon="-5.496808">
        <ele>451.75</ele>
        <time>2015-06-20T17:05:17Z</time>
      </trkpt>
      <trkpt lat="36.541238" lon="-5.496805">
        <ele>451.95</ele>
        <time>2015-06-20T17:05:18Z</time>
      </trkpt>
      <trkpt lat="36.541362" lon="-5.496822">
        <ele>452.94</ele>
        <time>2015-06-20T17:05:25Z</time>
      </trkpt>
      <trkpt lat="36.541435" lon="-5.496841">
        <ele>453.46</ele>
        <time>2015-06-20T17:05:29Z</time>
      </trkpt>
      <trkpt lat="36.541451" lon="-5.496851">
        <ele>453.48</ele>
        <time>2015-06-20T17:05:30Z</time>
      </trkpt>
      <trkpt lat="36.541469" lon="-5.496855">
        <ele>453.55</ele>
        <time>2015-06-20T17:05:31Z</time>
      </trkpt>
      <trkpt lat="36.541487" lon="-5.496859">
        <ele>453.69</ele>
        <time>2015-06-20T17:05:32Z</time>
      </trkpt>
      <trkpt lat="36.541507" lon="-5.496861">
        <ele>453.89</ele>
        <time>2015-06-20T17:05:33Z</time>
      </trkpt>
      <trkpt lat="36.541598" lon="-5.496908">
        <ele>453.95</ele>
        <time>2015-06-20T17:05:39Z</time>
      </trkpt>
      <trkpt lat="36.541696" lon="-5.496946">
        <ele>454.33</ele>
        <time>2015-06-20T17:05:45Z</time>
      </trkpt>
      <trkpt lat="36.541712" lon="-5.496948">
        <ele>454.42</ele>
        <time>2015-06-20T17:05:46Z</time>
      </trkpt>
      <trkpt lat="36.541727" lon="-5.496955">
        <ele>454.51</ele>
        <time>2015-06-20T17:05:47Z</time>
      </trkpt>
      <trkpt lat="36.541744" lon="-5.496958">
        <ele>454.64</ele>
        <time>2015-06-20T17:05:48Z</time>
      </trkpt>
      <trkpt lat="36.541760" lon="-5.496965">
        <ele>454.63</ele>
        <time>2015-06-20T17:05:49Z</time>
      </trkpt>
      <trkpt lat="36.541849" lon="-5.496991">
        <ele>455.14</ele>
        <time>2015-06-20T17:05:54Z</time>
      </trkpt>
      <trkpt lat="36.541880" lon="-5.497006">
        <ele>455.21</ele>
        <time>2015-06-20T17:05:56Z</time>
      </trkpt>
      <trkpt lat="36.541893" lon="-5.497008">
        <ele>455.39</ele>
        <time>2015-06-20T17:05:57Z</time>
      </trkpt>
      <trkpt lat="36.541907" lon="-5.497009">
        <ele>455.48</ele>
        <time>2015-06-20T17:05:58Z</time>
      </trkpt>
      <trkpt lat="36.541925" lon="-5.497013">
        <ele>455.62</ele>
        <time>2015-06-20T17:05:59Z</time>
      </trkpt>
      <trkpt lat="36.541943" lon="-5.497017">
        <ele>455.75</ele>
        <time>2015-06-20T17:06:00Z</time>
      </trkpt>
      <trkpt lat="36.542052" lon="-5.497028">
        <ele>457.10</ele>
        <time>2015-06-20T17:06:07Z</time>
      </trkpt>
      <trkpt lat="36.542102" lon="-5.497051">
        <ele>457.43</ele>
        <time>2015-06-20T17:06:10Z</time>
      </trkpt>
      <trkpt lat="36.542120" lon="-5.497040">
        <ele>457.82</ele>
        <time>2015-06-20T17:06:11Z</time>
      </trkpt>
      <trkpt lat="36.542138" lon="-5.497032">
        <ele>458.21</ele>
        <time>2015-06-20T17:06:12Z</time>
      </trkpt>
      <trkpt lat="36.542154" lon="-5.497025">
        <ele>458.63</ele>
        <time>2015-06-20T17:06:13Z</time>
      </trkpt>
      <trkpt lat="36.542172" lon="-5.497020">
        <ele>458.98</ele>
        <time>2015-06-20T17:06:14Z</time>
      </trkpt>
      <trkpt lat="36.542260" lon="-5.497031">
        <ele>459.74</ele>
        <time>2015-06-20T17:06:19Z</time>
      </trkpt>
      <trkpt lat="36.542371" lon="-5.497050">
        <ele>460.25</ele>
        <time>2015-06-20T17:06:25Z</time>
      </trkpt>
      <trkpt lat="36.542430" lon="-5.497066">
        <ele>460.33</ele>
        <time>2015-06-20T17:06:29Z</time>
      </trkpt>
      <trkpt lat="36.542441" lon="-5.497070">
        <ele>460.34</ele>
        <time>2015-06-20T17:06:30Z</time>
      </trkpt>
      <trkpt lat="36.542453" lon="-5.497074">
        <ele>460.33</ele>
        <time>2015-06-20T17:06:31Z</time>
      </trkpt>
      <trkpt lat="36.542473" lon="-5.497079">
        <ele>460.46</ele>
        <time>2015-06-20T17:06:32Z</time>
      </trkpt>
      <trkpt lat="36.542491" lon="-5.497082">
        <ele>460.59</ele>
        <time>2015-06-20T17:06:33Z</time>
      </trkpt>
      <trkpt lat="36.542611" lon="-5.497081">
        <ele>459.76</ele>
        <time>2015-06-20T17:06:39Z</time>
      </trkpt>
      <trkpt lat="36.542683" lon="-5.497079">
        <ele>459.32</ele>
        <time>2015-06-20T17:06:43Z</time>
      </trkpt>
      <trkpt lat="36.542702" lon="-5.497077">
        <ele>459.21</ele>
        <time>2015-06-20T17:06:44Z</time>
      </trkpt>
      <trkpt lat="36.542717" lon="-5.497071">
        <ele>459.26</ele>
        <time>2015-06-20T17:06:45Z</time>
      </trkpt>
      <trkpt lat="36.542732" lon="-5.497061">
        <ele>459.28</ele>
        <time>2015-06-20T17:06:46Z</time>
      </trkpt>
      <trkpt lat="36.542751" lon="-5.497049">
        <ele>459.35</ele>
        <time>2015-06-20T17:06:47Z</time>
      </trkpt>
      <trkpt lat="36.542762" lon="-5.497034">
        <ele>459.59</ele>
        <time>2015-06-20T17:06:48Z</time>
      </trkpt>
      <trkpt lat="36.542841" lon="-5.496907">
        <ele>461.69</ele>
        <time>2015-06-20T17:06:55Z</time>
      </trkpt>
      <trkpt lat="36.542813" lon="-5.496840">
        <ele>463.82</ele>
        <time>2015-06-20T17:06:59Z</time>
      </trkpt>
      <trkpt lat="36.542796" lon="-5.496835">
        <ele>464.06</ele>
        <time>2015-06-20T17:07:00Z</time>
      </trkpt>
      <trkpt lat="36.542780" lon="-5.496820">
        <ele>464.63</ele>
        <time>2015-06-20T17:07:01Z</time>
      </trkpt>
      <trkpt lat="36.542767" lon="-5.496814">
        <ele>464.82</ele>
        <time>2015-06-20T17:07:02Z</time>
      </trkpt>
      <trkpt lat="36.542756" lon="-5.496809">
        <ele>464.91</ele>
        <time>2015-06-20T17:07:03Z</time>
      </trkpt>
      <trkpt lat="36.542725" lon="-5.496789">
        <ele>465.52</ele>
        <time>2015-06-20T17:07:06Z</time>
      </trkpt>
      <trkpt lat="36.542698" lon="-5.496789">
        <ele>465.61</ele>
        <time>2015-06-20T17:07:08Z</time>
      </trkpt>
      <trkpt lat="36.542666" lon="-5.496806">
        <ele>465.21</ele>
        <time>2015-06-20T17:07:10Z</time>
      </trkpt>
      <trkpt lat="36.542651" lon="-5.496807">
        <ele>465.30</ele>
        <time>2015-06-20T17:07:11Z</time>
      </trkpt>
      <trkpt lat="36.542637" lon="-5.496806">
        <ele>465.22</ele>
        <time>2015-06-20T17:07:12Z</time>
      </trkpt>
      <trkpt lat="36.542623" lon="-5.496799">
        <ele>465.49</ele>
        <time>2015-06-20T17:07:13Z</time>
      </trkpt>
      <trkpt lat="36.542607" lon="-5.496795">
        <ele>465.59</ele>
        <time>2015-06-20T17:07:14Z</time>
      </trkpt>
      <trkpt lat="36.542566" lon="-5.496795">
        <ele>465.68</ele>
        <time>2015-06-20T17:07:17Z</time>
      </trkpt>
      <trkpt lat="36.542477" lon="-5.496747">
        <ele>466.40</ele>
        <time>2015-06-20T17:07:24Z</time>
      </trkpt>
      <trkpt lat="36.542454" lon="-5.496733">
        <ele>466.37</ele>
        <time>2015-06-20T17:07:26Z</time>
      </trkpt>
      <trkpt lat="36.542440" lon="-5.496733">
        <ele>466.30</ele>
        <time>2015-06-20T17:07:27Z</time>
      </trkpt>
      <trkpt lat="36.542427" lon="-5.496727">
        <ele>466.22</ele>
        <time>2015-06-20T17:07:28Z</time>
      </trkpt>
      <trkpt lat="36.542417" lon="-5.496714">
        <ele>466.32</ele>
        <time>2015-06-20T17:07:29Z</time>
      </trkpt>
      <trkpt lat="36.542405" lon="-5.496706">
        <ele>466.31</ele>
        <time>2015-06-20T17:07:30Z</time>
      </trkpt>
      <trkpt lat="36.542343" lon="-5.496673">
        <ele>466.24</ele>
        <time>2015-06-20T17:07:35Z</time>
      </trkpt>
      <trkpt lat="36.542317" lon="-5.496660">
        <ele>466.28</ele>
        <time>2015-06-20T17:07:37Z</time>
      </trkpt>
      <trkpt lat="36.542263" lon="-5.496629">
        <ele>466.57</ele>
        <time>2015-06-20T17:07:42Z</time>
      </trkpt>
      <trkpt lat="36.542244" lon="-5.496610">
        <ele>466.88</ele>
        <time>2015-06-20T17:07:44Z</time>
      </trkpt>
      <trkpt lat="36.542235" lon="-5.496598">
        <ele>467.18</ele>
        <time>2015-06-20T17:07:45Z</time>
      </trkpt>
      <trkpt lat="36.542231" lon="-5.496578">
        <ele>467.67</ele>
        <time>2015-06-20T17:07:46Z</time>
      </trkpt>
      <trkpt lat="36.542224" lon="-5.496556">
        <ele>468.24</ele>
        <time>2015-06-20T17:07:47Z</time>
      </trkpt>
      <trkpt lat="36.542220" lon="-5.496536">
        <ele>468.80</ele>
        <time>2015-06-20T17:07:48Z</time>
      </trkpt>
      <trkpt lat="36.542232" lon="-5.496456">
        <ele>471.18</ele>
        <time>2015-06-20T17:07:53Z</time>
      </trkpt>
      <trkpt lat="36.542290" lon="-5.496413">
        <ele>472.69</ele>
        <time>2015-06-20T17:07:58Z</time>
      </trkpt>
      <trkpt lat="36.542305" lon="-5.496413">
        <ele>472.72</ele>
        <time>2015-06-20T17:07:59Z</time>
      </trkpt>
      <trkpt lat="36.542321" lon="-5.496414">
        <ele>472.71</ele>
        <time>2015-06-20T17:08:00Z</time>
      </trkpt>
      <trkpt lat="36.542336" lon="-5.496424">
        <ele>472.55</ele>
        <time>2015-06-20T17:08:01Z</time>
      </trkpt>
      <trkpt lat="36.542354" lon="-5.496431">
        <ele>472.44</ele>
        <time>2015-06-20T17:08:02Z</time>
      </trkpt>
      <trkpt lat="36.542397" lon="-5.496459">
        <ele>471.95</ele>
        <time>2015-06-20T17:08:05Z</time>
      </trkpt>
      <trkpt lat="36.542506" lon="-5.496478">
        <ele>472.19</ele>
        <time>2015-06-20T17:08:13Z</time>
      </trkpt>
      <trkpt lat="36.542557" lon="-5.496473">
        <ele>472.80</ele>
        <time>2015-06-20T17:08:16Z</time>
      </trkpt>
      <trkpt lat="36.542573" lon="-5.496477">
        <ele>472.72</ele>
        <time>2015-06-20T17:08:17Z</time>
      </trkpt>
      <trkpt lat="36.542594" lon="-5.496477">
        <ele>472.98</ele>
        <time>2015-06-20T17:08:18Z</time>
      </trkpt>
      <trkpt lat="36.542608" lon="-5.496466">
        <ele>473.38</ele>
        <time>2015-06-20T17:08:19Z</time>
      </trkpt>
      <trkpt lat="36.542624" lon="-5.496462">
        <ele>473.57</ele>
        <time>2015-06-20T17:08:20Z</time>
      </trkpt>
      <trkpt lat="36.542671" lon="-5.496429">
        <ele>474.88</ele>
        <time>2015-06-20T17:08:23Z</time>
      </trkpt>
      <trkpt lat="36.542723" lon="-5.496383">
        <ele>476.52</ele>
        <time>2015-06-20T17:08:27Z</time>
      </trkpt>
      <trkpt lat="36.542804" lon="-5.496308">
        <ele>478.61</ele>
        <time>2015-06-20T17:08:33Z</time>
      </trkpt>
      <trkpt lat="36.542817" lon="-5.496302">
        <ele>478.78</ele>
        <time>2015-06-20T17:08:34Z</time>
      </trkpt>
      <trkpt lat="36.542832" lon="-5.496287">
        <ele>479.03</ele>
        <time>2015-06-20T17:08:35Z</time>
      </trkpt>
      <trkpt lat="36.542846" lon="-5.496274">
        <ele>479.35</ele>
        <time>2015-06-20T17:08:36Z</time>
      </trkpt>
      <trkpt lat="36.542860" lon="-5.496258">
        <ele>479.75</ele>
        <time>2015-06-20T17:08:37Z</time>
      </trkpt>
      <trkpt lat="36.542896" lon="-5.496227">
        <ele>480.42</ele>
        <time>2015-06-20T17:08:40Z</time>
      </trkpt>
      <trkpt lat="36.542908" lon="-5.496222">
        <ele>480.54</ele>
        <time>2015-06-20T17:08:41Z</time>
      </trkpt>
      <trkpt lat="36.542942" lon="-5.496193">
        <ele>481.37</ele>
        <time>2015-06-20T17:08:44Z</time>
      </trkpt>
      <trkpt lat="36.542964" lon="-5.496178">
        <ele>481.71</ele>
        <time>2015-06-20T17:08:46Z</time>
      </trkpt>
      <trkpt lat="36.543041" lon="-5.496125">
        <ele>483.56</ele>
        <time>2015-06-20T17:08:52Z</time>
      </trkpt>
      <trkpt lat="36.543055" lon="-5.496112">
        <ele>484.05</ele>
        <time>2015-06-20T17:08:53Z</time>
      </trkpt>
      <trkpt lat="36.543069" lon="-5.496104">
        <ele>484.02</ele>
        <time>2015-06-20T17:08:54Z</time>
      </trkpt>
      <trkpt lat="36.543081" lon="-5.496091">
        <ele>484.21</ele>
        <time>2015-06-20T17:08:55Z</time>
      </trkpt>
      <trkpt lat="36.543090" lon="-5.496079">
        <ele>484.49</ele>
        <time>2015-06-20T17:08:56Z</time>
      </trkpt>
      <trkpt lat="36.543120" lon="-5.496034">
        <ele>485.22</ele>
        <time>2015-06-20T17:08:59Z</time>
      </trkpt>
      <trkpt lat="36.543188" lon="-5.495926">
        <ele>487.07</ele>
        <time>2015-06-20T17:09:06Z</time>
      </trkpt>
      <trkpt lat="36.543219" lon="-5.495892">
        <ele>487.22</ele>
        <time>2015-06-20T17:09:09Z</time>
      </trkpt>
      <trkpt lat="36.543228" lon="-5.495881">
        <ele>487.38</ele>
        <time>2015-06-20T17:09:10Z</time>
      </trkpt>
      <trkpt lat="36.543235" lon="-5.495862">
        <ele>487.75</ele>
        <time>2015-06-20T17:09:11Z</time>
      </trkpt>
      <trkpt lat="36.543231" lon="-5.495849">
        <ele>488.18</ele>
        <time>2015-06-20T17:09:12Z</time>
      </trkpt>
      <trkpt lat="36.543278" lon="-5.495794">
        <ele>488.52</ele>
        <time>2015-06-20T17:09:16Z</time>
      </trkpt>
      <trkpt lat="36.543333" lon="-5.495735">
        <ele>488.58</ele>
        <time>2015-06-20T17:09:21Z</time>
      </trkpt>
      <trkpt lat="36.543359" lon="-5.495722">
        <ele>488.31</ele>
        <time>2015-06-20T17:09:23Z</time>
      </trkpt>
      <trkpt lat="36.543387" lon="-5.495707">
        <ele>488.02</ele>
        <time>2015-06-20T17:09:25Z</time>
      </trkpt>
      <trkpt lat="36.543394" lon="-5.495696">
        <ele>488.21</ele>
        <time>2015-06-20T17:09:26Z</time>
      </trkpt>
      <trkpt lat="36.543401" lon="-5.495685">
        <ele>488.34</ele>
        <time>2015-06-20T17:09:27Z</time>
      </trkpt>
      <trkpt lat="36.543403" lon="-5.495674">
        <ele>488.58</ele>
        <time>2015-06-20T17:09:28Z</time>
      </trkpt>
      <trkpt lat="36.543412" lon="-5.495660">
        <ele>488.77</ele>
        <time>2015-06-20T17:09:29Z</time>
      </trkpt>
      <trkpt lat="36.543423" lon="-5.495646">
        <ele>488.82</ele>
        <time>2015-06-20T17:09:30Z</time>
      </trkpt>
      <trkpt lat="36.543435" lon="-5.495637">
        <ele>488.83</ele>
        <time>2015-06-20T17:09:31Z</time>
      </trkpt>
      <trkpt lat="36.543449" lon="-5.495626">
        <ele>488.78</ele>
        <time>2015-06-20T17:09:32Z</time>
      </trkpt>
      <trkpt lat="36.543462" lon="-5.495595">
        <ele>489.26</ele>
        <time>2015-06-20T17:09:34Z</time>
      </trkpt>
      <trkpt lat="36.543488" lon="-5.495557">
        <ele>489.63</ele>
        <time>2015-06-20T17:09:37Z</time>
      </trkpt>
      <trkpt lat="36.543499" lon="-5.495542">
        <ele>489.86</ele>
        <time>2015-06-20T17:09:38Z</time>
      </trkpt>
      <trkpt lat="36.543537" lon="-5.495493">
        <ele>490.11</ele>
        <time>2015-06-20T17:09:42Z</time>
      </trkpt>
      <trkpt lat="36.543545" lon="-5.495483">
        <ele>490.12</ele>
        <time>2015-06-20T17:09:43Z</time>
      </trkpt>
      <trkpt lat="36.543554" lon="-5.495472">
        <ele>490.21</ele>
        <time>2015-06-20T17:09:44Z</time>
      </trkpt>
      <trkpt lat="36.543561" lon="-5.495461">
        <ele>490.24</ele>
        <time>2015-06-20T17:09:45Z</time>
      </trkpt>
      <trkpt lat="36.543566" lon="-5.495448">
        <ele>490.42</ele>
        <time>2015-06-20T17:09:46Z</time>
      </trkpt>
      <trkpt lat="36.543582" lon="-5.495429">
        <ele>490.58</ele>
        <time>2015-06-20T17:09:48Z</time>
      </trkpt>
      <trkpt lat="36.543602" lon="-5.495408">
        <ele>490.42</ele>
        <time>2015-06-20T17:09:50Z</time>
      </trkpt>
      <trkpt lat="36.543662" lon="-5.495346">
        <ele>490.80</ele>
        <time>2015-06-20T17:09:56Z</time>
      </trkpt>
      <trkpt lat="36.543672" lon="-5.495337">
        <ele>490.90</ele>
        <time>2015-06-20T17:09:57Z</time>
      </trkpt>
      <trkpt lat="36.543682" lon="-5.495325">
        <ele>490.91</ele>
        <time>2015-06-20T17:09:58Z</time>
      </trkpt>
      <trkpt lat="36.543695" lon="-5.495316">
        <ele>490.96</ele>
        <time>2015-06-20T17:09:59Z</time>
      </trkpt>
      <trkpt lat="36.543747" lon="-5.495235">
        <ele>492.04</ele>
        <time>2015-06-20T17:10:05Z</time>
      </trkpt>
      <trkpt lat="36.543759" lon="-5.495223">
        <ele>492.12</ele>
        <time>2015-06-20T17:10:06Z</time>
      </trkpt>
      <trkpt lat="36.543775" lon="-5.495205">
        <ele>492.21</ele>
        <time>2015-06-20T17:10:08Z</time>
      </trkpt>
      <trkpt lat="36.543786" lon="-5.495192">
        <ele>492.31</ele>
        <time>2015-06-20T17:10:09Z</time>
      </trkpt>
      <trkpt lat="36.543792" lon="-5.495181">
        <ele>492.57</ele>
        <time>2015-06-20T17:10:10Z</time>
      </trkpt>
      <trkpt lat="36.543803" lon="-5.495165">
        <ele>492.72</ele>
        <time>2015-06-20T17:10:11Z</time>
      </trkpt>
      <trkpt lat="36.543813" lon="-5.495154">
        <ele>492.89</ele>
        <time>2015-06-20T17:10:12Z</time>
      </trkpt>
      <trkpt lat="36.543861" lon="-5.495067">
        <ele>494.08</ele>
        <time>2015-06-20T17:10:18Z</time>
      </trkpt>
      <trkpt lat="36.543906" lon="-5.494939">
        <ele>495.42</ele>
        <time>2015-06-20T17:10:25Z</time>
      </trkpt>
      <trkpt lat="36.543916" lon="-5.494920">
        <ele>495.43</ele>
        <time>2015-06-20T17:10:26Z</time>
      </trkpt>
      <trkpt lat="36.543922" lon="-5.494908">
        <ele>495.44</ele>
        <time>2015-06-20T17:10:27Z</time>
      </trkpt>
      <trkpt lat="36.543925" lon="-5.494888">
        <ele>495.65</ele>
        <time>2015-06-20T17:10:28Z</time>
      </trkpt>
      <trkpt lat="36.543930" lon="-5.494869">
        <ele>495.75</ele>
        <time>2015-06-20T17:10:29Z</time>
      </trkpt>
      <trkpt lat="36.543929" lon="-5.494855">
        <ele>495.96</ele>
        <time>2015-06-20T17:10:30Z</time>
      </trkpt>
      <trkpt lat="36.543932" lon="-5.494835">
        <ele>496.11</ele>
        <time>2015-06-20T17:10:31Z</time>
      </trkpt>
      <trkpt lat="36.543965" lon="-5.494726">
        <ele>496.91</ele>
        <time>2015-06-20T17:10:37Z</time>
      </trkpt>
      <trkpt lat="36.544009" lon="-5.494584">
        <ele>497.58</ele>
        <time>2015-06-20T17:10:44Z</time>
      </trkpt>
      <trkpt lat="36.544026" lon="-5.494494">
        <ele>498.15</ele>
        <time>2015-06-20T17:10:48Z</time>
      </trkpt>
      <trkpt lat="36.544025" lon="-5.494477">
        <ele>498.32</ele>
        <time>2015-06-20T17:10:49Z</time>
      </trkpt>
      <trkpt lat="36.544032" lon="-5.494456">
        <ele>498.38</ele>
        <time>2015-06-20T17:10:50Z</time>
      </trkpt>
      <trkpt lat="36.544036" lon="-5.494438">
        <ele>498.43</ele>
        <time>2015-06-20T17:10:51Z</time>
      </trkpt>
      <trkpt lat="36.544051" lon="-5.494423">
        <ele>498.29</ele>
        <time>2015-06-20T17:10:52Z</time>
      </trkpt>
      <trkpt lat="36.544060" lon="-5.494364">
        <ele>498.23</ele>
        <time>2015-06-20T17:10:55Z</time>
      </trkpt>
      <trkpt lat="36.544085" lon="-5.494215">
        <ele>498.34</ele>
        <time>2015-06-20T17:11:02Z</time>
      </trkpt>
      <trkpt lat="36.544092" lon="-5.494119">
        <ele>498.66</ele>
        <time>2015-06-20T17:11:07Z</time>
      </trkpt>
      <trkpt lat="36.544095" lon="-5.494098">
        <ele>498.70</ele>
        <time>2015-06-20T17:11:08Z</time>
      </trkpt>
      <trkpt lat="36.544096" lon="-5.494085">
        <ele>498.72</ele>
        <time>2015-06-20T17:11:09Z</time>
      </trkpt>
      <trkpt lat="36.544096" lon="-5.494062">
        <ele>498.81</ele>
        <time>2015-06-20T17:11:10Z</time>
      </trkpt>
      <trkpt lat="36.544096" lon="-5.493929">
        <ele>499.65</ele>
        <time>2015-06-20T17:11:16Z</time>
      </trkpt>
      <trkpt lat="36.544122" lon="-5.493803">
        <ele>500.41</ele>
        <time>2015-06-20T17:11:23Z</time>
      </trkpt>
      <trkpt lat="36.544129" lon="-5.493777">
        <ele>500.69</ele>
        <time>2015-06-20T17:11:25Z</time>
      </trkpt>
      <trkpt lat="36.544119" lon="-5.493750">
        <ele>501.21</ele>
        <time>2015-06-20T17:11:27Z</time>
      </trkpt>
      <trkpt lat="36.544109" lon="-5.493733">
        <ele>501.71</ele>
        <time>2015-06-20T17:11:28Z</time>
      </trkpt>
      <trkpt lat="36.544115" lon="-5.493675">
        <ele>502.45</ele>
        <time>2015-06-20T17:11:31Z</time>
      </trkpt>
      <trkpt lat="36.544115" lon="-5.493654">
        <ele>502.79</ele>
        <time>2015-06-20T17:11:32Z</time>
      </trkpt>
      <trkpt lat="36.544112" lon="-5.493633">
        <ele>503.14</ele>
        <time>2015-06-20T17:11:33Z</time>
      </trkpt>
      <trkpt lat="36.544104" lon="-5.493614">
        <ele>503.52</ele>
        <time>2015-06-20T17:11:34Z</time>
      </trkpt>
      <trkpt lat="36.544107" lon="-5.493593">
        <ele>503.61</ele>
        <time>2015-06-20T17:11:35Z</time>
      </trkpt>
      <trkpt lat="36.544104" lon="-5.493533">
        <ele>504.22</ele>
        <time>2015-06-20T17:11:38Z</time>
      </trkpt>
      <trkpt lat="36.544097" lon="-5.493525">
        <ele>504.51</ele>
        <time>2015-06-20T17:11:39Z</time>
      </trkpt>
      <trkpt lat="36.544067" lon="-5.493456">
        <ele>505.81</ele>
        <time>2015-06-20T17:11:43Z</time>
      </trkpt>
      <trkpt lat="36.544013" lon="-5.493312">
        <ele>508.68</ele>
        <time>2015-06-20T17:11:51Z</time>
      </trkpt>
      <trkpt lat="36.543989" lon="-5.493286">
        <ele>509.55</ele>
        <time>2015-06-20T17:11:53Z</time>
      </trkpt>
      <trkpt lat="36.543963" lon="-5.493229">
        <ele>510.54</ele>
        <time>2015-06-20T17:11:56Z</time>
      </trkpt>
      <trkpt lat="36.543940" lon="-5.493185">
        <ele>511.44</ele>
        <time>2015-06-20T17:11:58Z</time>
      </trkpt>
      <trkpt lat="36.543932" lon="-5.493156">
        <ele>511.75</ele>
        <time>2015-06-20T17:11:59Z</time>
      </trkpt>
      <trkpt lat="36.543923" lon="-5.493132">
        <ele>512.05</ele>
        <time>2015-06-20T17:12:00Z</time>
      </trkpt>
      <trkpt lat="36.543908" lon="-5.493108">
        <ele>512.43</ele>
        <time>2015-06-20T17:12:01Z</time>
      </trkpt>
      <trkpt lat="36.543896" lon="-5.493085">
        <ele>512.89</ele>
        <time>2015-06-20T17:12:02Z</time>
      </trkpt>
      <trkpt lat="36.543868" lon="-5.493052">
        <ele>513.65</ele>
        <time>2015-06-20T17:12:04Z</time>
      </trkpt>
      <trkpt lat="36.543816" lon="-5.493001">
        <ele>515.52</ele>
        <time>2015-06-20T17:12:07Z</time>
      </trkpt>
      <trkpt lat="36.543794" lon="-5.492869">
        <ele>517.11</ele>
        <time>2015-06-20T17:12:12Z</time>
      </trkpt>
      <trkpt lat="36.543842" lon="-5.492817">
        <ele>516.59</ele>
        <time>2015-06-20T17:12:16Z</time>
      </trkpt>
      <trkpt lat="36.543873" lon="-5.492835">
        <ele>515.76</ele>
        <time>2015-06-20T17:12:19Z</time>
      </trkpt>
      <trkpt lat="36.543882" lon="-5.492840">
        <ele>515.54</ele>
        <time>2015-06-20T17:12:20Z</time>
      </trkpt>
      <trkpt lat="36.543890" lon="-5.492840">
        <ele>515.39</ele>
        <time>2015-06-20T17:12:21Z</time>
      </trkpt>
      <trkpt lat="36.543909" lon="-5.492840">
        <ele>515.17</ele>
        <time>2015-06-20T17:12:22Z</time>
      </trkpt>
      <trkpt lat="36.543918" lon="-5.492837">
        <ele>515.01</ele>
        <time>2015-06-20T17:12:23Z</time>
      </trkpt>
      <trkpt lat="36.543932" lon="-5.492836">
        <ele>514.83</ele>
        <time>2015-06-20T17:12:24Z</time>
      </trkpt>
      <trkpt lat="36.543945" lon="-5.492841">
        <ele>514.64</ele>
        <time>2015-06-20T17:12:25Z</time>
      </trkpt>
      <trkpt lat="36.543960" lon="-5.492838">
        <ele>514.52</ele>
        <time>2015-06-20T17:12:26Z</time>
      </trkpt>
      <trkpt lat="36.544039" lon="-5.492841">
        <ele>513.46</ele>
        <time>2015-06-20T17:12:31Z</time>
      </trkpt>
      <trkpt lat="36.544068" lon="-5.492825">
        <ele>513.31</ele>
        <time>2015-06-20T17:12:34Z</time>
      </trkpt>
      <trkpt lat="36.544096" lon="-5.492807">
        <ele>513.31</ele>
        <time>2015-06-20T17:12:36Z</time>
      </trkpt>
      <trkpt lat="36.544115" lon="-5.492811">
        <ele>513.05</ele>
        <time>2015-06-20T17:12:37Z</time>
      </trkpt>
      <trkpt lat="36.544134" lon="-5.492812">
        <ele>512.84</ele>
        <time>2015-06-20T17:12:38Z</time>
      </trkpt>
      <trkpt lat="36.544150" lon="-5.492813">
        <ele>512.66</ele>
        <time>2015-06-20T17:12:39Z</time>
      </trkpt>
      <trkpt lat="36.544166" lon="-5.492821">
        <ele>512.27</ele>
        <time>2015-06-20T17:12:40Z</time>
      </trkpt>
      <trkpt lat="36.544179" lon="-5.492823">
        <ele>512.12</ele>
        <time>2015-06-20T17:12:41Z</time>
      </trkpt>
      <trkpt lat="36.544269" lon="-5.492841">
        <ele>511.44</ele>
        <time>2015-06-20T17:12:47Z</time>
      </trkpt>
      <trkpt lat="36.544375" lon="-5.492874">
        <ele>510.37</ele>
        <time>2015-06-20T17:12:53Z</time>
      </trkpt>
      <trkpt lat="36.544482" lon="-5.492863">
        <ele>510.05</ele>
        <time>2015-06-20T17:12:59Z</time>
      </trkpt>
      <trkpt lat="36.544499" lon="-5.492861">
        <ele>510.02</ele>
        <time>2015-06-20T17:13:00Z</time>
      </trkpt>
      <trkpt lat="36.544516" lon="-5.492864">
        <ele>509.99</ele>
        <time>2015-06-20T17:13:01Z</time>
      </trkpt>
      <trkpt lat="36.544534" lon="-5.492861">
        <ele>509.92</ele>
        <time>2015-06-20T17:13:02Z</time>
      </trkpt>
      <trkpt lat="36.544553" lon="-5.492864">
        <ele>509.71</ele>
        <time>2015-06-20T17:13:03Z</time>
      </trkpt>
      <trkpt lat="36.544606" lon="-5.492853">
        <ele>509.88</ele>
        <time>2015-06-20T17:13:06Z</time>
      </trkpt>
      <trkpt lat="36.544722" lon="-5.492797">
        <ele>510.70</ele>
        <time>2015-06-20T17:13:13Z</time>
      </trkpt>
      <trkpt lat="36.544735" lon="-5.492785">
        <ele>510.72</ele>
        <time>2015-06-20T17:13:14Z</time>
      </trkpt>
      <trkpt lat="36.544750" lon="-5.492771">
        <ele>510.76</ele>
        <time>2015-06-20T17:13:15Z</time>
      </trkpt>
      <trkpt lat="36.544761" lon="-5.492753">
        <ele>510.85</ele>
        <time>2015-06-20T17:13:16Z</time>
      </trkpt>
      <trkpt lat="36.544806" lon="-5.492686">
        <ele>511.29</ele>
        <time>2015-06-20T17:13:20Z</time>
      </trkpt>
      <trkpt lat="36.544818" lon="-5.492585">
        <ele>512.70</ele>
        <time>2015-06-20T17:13:25Z</time>
      </trkpt>
      <trkpt lat="36.544834" lon="-5.492533">
        <ele>513.34</ele>
        <time>2015-06-20T17:13:28Z</time>
      </trkpt>
      <trkpt lat="36.544834" lon="-5.492515">
        <ele>513.63</ele>
        <time>2015-06-20T17:13:29Z</time>
      </trkpt>
      <trkpt lat="36.544843" lon="-5.492498">
        <ele>513.70</ele>
        <time>2015-06-20T17:13:30Z</time>
      </trkpt>
      <trkpt lat="36.544843" lon="-5.492476">
        <ele>514.32</ele>
        <time>2015-06-20T17:13:31Z</time>
      </trkpt>
      <trkpt lat="36.544847" lon="-5.492463">
        <ele>514.61</ele>
        <time>2015-06-20T17:13:32Z</time>
      </trkpt>
      <trkpt lat="36.544873" lon="-5.492345">
        <ele>517.37</ele>
        <time>2015-06-20T17:13:38Z</time>
      </trkpt>
      <trkpt lat="36.544911" lon="-5.492224">
        <ele>519.97</ele>
        <time>2015-06-20T17:13:45Z</time>
      </trkpt>
      <trkpt lat="36.544914" lon="-5.492205">
        <ele>520.57</ele>
        <time>2015-06-20T17:13:46Z</time>
      </trkpt>
      <trkpt lat="36.544917" lon="-5.492190">
        <ele>520.94</ele>
        <time>2015-06-20T17:13:47Z</time>
      </trkpt>
      <trkpt lat="36.544922" lon="-5.492176">
        <ele>521.38</ele>
        <time>2015-06-20T17:13:48Z</time>
      </trkpt>
      <trkpt lat="36.544931" lon="-5.492159">
        <ele>521.79</ele>
        <time>2015-06-20T17:13:49Z</time>
      </trkpt>
      <trkpt lat="36.544974" lon="-5.492076">
        <ele>523.66</ele>
        <time>2015-06-20T17:13:55Z</time>
      </trkpt>
      <trkpt lat="36.544988" lon="-5.492062">
        <ele>523.88</ele>
        <time>2015-06-20T17:13:56Z</time>
      </trkpt>
      <trkpt lat="36.545055" lon="-5.492012">
        <ele>524.88</ele>
        <time>2015-06-20T17:14:01Z</time>
      </trkpt>
      <trkpt lat="36.545075" lon="-5.492009">
        <ele>524.83</ele>
        <time>2015-06-20T17:14:02Z</time>
      </trkpt>
      <trkpt lat="36.545109" lon="-5.492004">
        <ele>524.82</ele>
        <time>2015-06-20T17:14:04Z</time>
      </trkpt>
      <trkpt lat="36.545222" lon="-5.492020">
        <ele>523.81</ele>
        <time>2015-06-20T17:14:11Z</time>
      </trkpt>
      <trkpt lat="36.545302" lon="-5.492068">
        <ele>522.04</ele>
        <time>2015-06-20T17:14:17Z</time>
      </trkpt>
      <trkpt lat="36.545405" lon="-5.492128">
        <ele>520.11</ele>
        <time>2015-06-20T17:14:23Z</time>
      </trkpt>
      <trkpt lat="36.545522" lon="-5.492185">
        <ele>518.24</ele>
        <time>2015-06-20T17:14:29Z</time>
      </trkpt>
      <trkpt lat="36.545543" lon="-5.492185">
        <ele>518.28</ele>
        <time>2015-06-20T17:14:30Z</time>
      </trkpt>
      <trkpt lat="36.545561" lon="-5.492183">
        <ele>518.30</ele>
        <time>2015-06-20T17:14:31Z</time>
      </trkpt>
      <trkpt lat="36.545579" lon="-5.492176">
        <ele>518.47</ele>
        <time>2015-06-20T17:14:32Z</time>
      </trkpt>
      <trkpt lat="36.545601" lon="-5.492175">
        <ele>518.32</ele>
        <time>2015-06-20T17:14:33Z</time>
      </trkpt>
      <trkpt lat="36.545687" lon="-5.492157">
        <ele>518.57</ele>
        <time>2015-06-20T17:14:37Z</time>
      </trkpt>
      <trkpt lat="36.545703" lon="-5.492147">
        <ele>518.89</ele>
        <time>2015-06-20T17:14:38Z</time>
      </trkpt>
      <trkpt lat="36.545710" lon="-5.492128">
        <ele>519.37</ele>
        <time>2015-06-20T17:14:39Z</time>
      </trkpt>
      <trkpt lat="36.545747" lon="-5.492094">
        <ele>520.12</ele>
        <time>2015-06-20T17:14:42Z</time>
      </trkpt>
      <trkpt lat="36.545811" lon="-5.491976">
        <ele>523.21</ele>
        <time>2015-06-20T17:14:49Z</time>
      </trkpt>
      <trkpt lat="36.545859" lon="-5.491891">
        <ele>525.95</ele>
        <time>2015-06-20T17:14:55Z</time>
      </trkpt>
      <trkpt lat="36.545880" lon="-5.491857">
        <ele>527.08</ele>
        <time>2015-06-20T17:14:57Z</time>
      </trkpt>
      <trkpt lat="36.545897" lon="-5.491830">
        <ele>527.82</ele>
        <time>2015-06-20T17:14:59Z</time>
      </trkpt>
      <trkpt lat="36.545905" lon="-5.491815">
        <ele>528.36</ele>
        <time>2015-06-20T17:15:00Z</time>
      </trkpt>
      <trkpt lat="36.545914" lon="-5.491800">
        <ele>528.89</ele>
        <time>2015-06-20T17:15:01Z</time>
      </trkpt>
      <trkpt lat="36.545925" lon="-5.491785">
        <ele>529.29</ele>
        <time>2015-06-20T17:15:02Z</time>
      </trkpt>
      <trkpt lat="36.545935" lon="-5.491773">
        <ele>529.53</ele>
        <time>2015-06-20T17:15:03Z</time>
      </trkpt>
      <trkpt lat="36.545936" lon="-5.491758">
        <ele>530.14</ele>
        <time>2015-06-20T17:15:04Z</time>
      </trkpt>
      <trkpt lat="36.545944" lon="-5.491745">
        <ele>530.47</ele>
        <time>2015-06-20T17:15:05Z</time>
      </trkpt>
      <trkpt lat="36.546002" lon="-5.491665">
        <ele>532.44</ele>
        <time>2015-06-20T17:15:11Z</time>
      </trkpt>
      <trkpt lat="36.546011" lon="-5.491645">
        <ele>532.93</ele>
        <time>2015-06-20T17:15:12Z</time>
      </trkpt>
      <trkpt lat="36.546020" lon="-5.491631">
        <ele>533.31</ele>
        <time>2015-06-20T17:15:13Z</time>
      </trkpt>
      <trkpt lat="36.546032" lon="-5.491620">
        <ele>533.46</ele>
        <time>2015-06-20T17:15:14Z</time>
      </trkpt>
      <trkpt lat="36.546044" lon="-5.491608">
        <ele>533.66</ele>
        <time>2015-06-20T17:15:15Z</time>
      </trkpt>
      <trkpt lat="36.546056" lon="-5.491597">
        <ele>533.75</ele>
        <time>2015-06-20T17:15:16Z</time>
      </trkpt>
      <trkpt lat="36.546136" lon="-5.491516">
        <ele>534.94</ele>
        <time>2015-06-20T17:15:23Z</time>
      </trkpt>
      <trkpt lat="36.546147" lon="-5.491505">
        <ele>535.10</ele>
        <time>2015-06-20T17:15:24Z</time>
      </trkpt>
      <trkpt lat="36.546161" lon="-5.491495">
        <ele>535.12</ele>
        <time>2015-06-20T17:15:25Z</time>
      </trkpt>
      <trkpt lat="36.546176" lon="-5.491488">
        <ele>535.08</ele>
        <time>2015-06-20T17:15:26Z</time>
      </trkpt>
      <trkpt lat="36.546190" lon="-5.491484">
        <ele>534.91</ele>
        <time>2015-06-20T17:15:27Z</time>
      </trkpt>
      <trkpt lat="36.546217" lon="-5.491489">
        <ele>534.13</ele>
        <time>2015-06-20T17:15:29Z</time>
      </trkpt>
      <trkpt lat="36.546291" lon="-5.491552">
        <ele>530.23</ele>
        <time>2015-06-20T17:15:34Z</time>
      </trkpt>
      <trkpt lat="36.546387" lon="-5.491592">
        <ele>526.71</ele>
        <time>2015-06-20T17:15:39Z</time>
      </trkpt>
      <trkpt lat="36.546404" lon="-5.491595">
        <ele>526.21</ele>
        <time>2015-06-20T17:15:40Z</time>
      </trkpt>
      <trkpt lat="36.546420" lon="-5.491598">
        <ele>525.78</ele>
        <time>2015-06-20T17:15:41Z</time>
      </trkpt>
      <trkpt lat="36.546437" lon="-5.491601">
        <ele>525.20</ele>
        <time>2015-06-20T17:15:42Z</time>
      </trkpt>
      <trkpt lat="36.546455" lon="-5.491605">
        <ele>524.57</ele>
        <time>2015-06-20T17:15:43Z</time>
      </trkpt>
      <trkpt lat="36.546492" lon="-5.491600">
        <ele>523.73</ele>
        <time>2015-06-20T17:15:45Z</time>
      </trkpt>
      <trkpt lat="36.546527" lon="-5.491583">
        <ele>523.43</ele>
        <time>2015-06-20T17:15:47Z</time>
      </trkpt>
      <trkpt lat="36.546620" lon="-5.491533">
        <ele>522.61</ele>
        <time>2015-06-20T17:15:53Z</time>
      </trkpt>
      <trkpt lat="36.546680" lon="-5.491464">
        <ele>523.16</ele>
        <time>2015-06-20T17:15:58Z</time>
      </trkpt>
      <trkpt lat="36.546689" lon="-5.491448">
        <ele>523.25</ele>
        <time>2015-06-20T17:15:59Z</time>
      </trkpt>
      <trkpt lat="36.546698" lon="-5.491429">
        <ele>523.59</ele>
        <time>2015-06-20T17:16:00Z</time>
      </trkpt>
      <trkpt lat="36.546706" lon="-5.491408">
        <ele>523.84</ele>
        <time>2015-06-20T17:16:01Z</time>
      </trkpt>
      <trkpt lat="36.546711" lon="-5.491387">
        <ele>524.33</ele>
        <time>2015-06-20T17:16:02Z</time>
      </trkpt>
      <trkpt lat="36.546713" lon="-5.491341">
        <ele>525.41</ele>
        <time>2015-06-20T17:16:04Z</time>
      </trkpt>
      <trkpt lat="36.546705" lon="-5.491297">
        <ele>526.86</ele>
        <time>2015-06-20T17:16:06Z</time>
      </trkpt>
      <trkpt lat="36.546671" lon="-5.491240">
        <ele>529.63</ele>
        <time>2015-06-20T17:16:09Z</time>
      </trkpt>
      <trkpt lat="36.546658" lon="-5.491222">
        <ele>530.59</ele>
        <time>2015-06-20T17:16:10Z</time>
      </trkpt>
      <trkpt lat="36.546572" lon="-5.491092">
        <ele>536.25</ele>
        <time>2015-06-20T17:16:16Z</time>
      </trkpt>
      <trkpt lat="36.546549" lon="-5.490974">
        <ele>539.69</ele>
        <time>2015-06-20T17:16:21Z</time>
      </trkpt>
      <trkpt lat="36.546610" lon="-5.490836">
        <ele>540.82</ele>
        <time>2015-06-20T17:16:25Z</time>
      </trkpt>
      <trkpt lat="36.546640" lon="-5.490801">
        <ele>540.45</ele>
        <time>2015-06-20T17:16:26Z</time>
      </trkpt>
      <trkpt lat="36.546768" lon="-5.490737">
        <ele>535.96</ele>
        <time>2015-06-20T17:16:29Z</time>
      </trkpt>
      <trkpt lat="36.546879" lon="-5.490603">
        <ele>533.63</ele>
        <time>2015-06-20T17:16:32Z</time>
      </trkpt>
      <trkpt lat="36.546999" lon="-5.490426">
        <ele>533.06</ele>
        <time>2015-06-20T17:16:35Z</time>
      </trkpt>
      <trkpt lat="36.547042" lon="-5.490370">
        <ele>532.71</ele>
        <time>2015-06-20T17:16:36Z</time>
      </trkpt>
      <trkpt lat="36.547166" lon="-5.490202">
        <ele>532.41</ele>
        <time>2015-06-20T17:16:39Z</time>
      </trkpt>
      <trkpt lat="36.547281" lon="-5.490051">
        <ele>532.64</ele>
        <time>2015-06-20T17:16:42Z</time>
      </trkpt>
      <trkpt lat="36.547321" lon="-5.490018">
        <ele>532.37</ele>
        <time>2015-06-20T17:16:43Z</time>
      </trkpt>
      <trkpt lat="36.547430" lon="-5.489935">
        <ele>531.16</ele>
        <time>2015-06-20T17:16:47Z</time>
      </trkpt>
      <trkpt lat="36.547516" lon="-5.489846">
        <ele>530.99</ele>
        <time>2015-06-20T17:16:52Z</time>
      </trkpt>
      <trkpt lat="36.547584" lon="-5.489695">
        <ele>532.81</ele>
        <time>2015-06-20T17:16:58Z</time>
      </trkpt>
      <trkpt lat="36.547592" lon="-5.489669">
        <ele>533.11</ele>
        <time>2015-06-20T17:16:59Z</time>
      </trkpt>
      <trkpt lat="36.547624" lon="-5.489604">
        <ele>533.36</ele>
        <time>2015-06-20T17:17:04Z</time>
      </trkpt>
      <trkpt lat="36.547624" lon="-5.489604">
        <ele>533.36</ele>
        <time>2015-06-20T17:17:16Z</time>
      </trkpt>
      <trkpt lat="36.547624" lon="-5.489604">
        <ele>533.32</ele>
        <time>2015-06-20T17:17:19Z</time>
      </trkpt>
      <trkpt lat="36.547624" lon="-5.489604">
        <ele>533.40</ele>
        <time>2015-06-20T17:17:25Z</time>
      </trkpt>
      <trkpt lat="36.547624" lon="-5.489604">
        <ele>533.32</ele>
        <time>2015-06-20T17:17:30Z</time>
      </trkpt>
      <trkpt lat="36.547630" lon="-5.489600">
        <ele>533.21</ele>
        <time>2015-06-20T17:17:33Z</time>
      </trkpt>
      <trkpt lat="36.547634" lon="-5.489597">
        <ele>533.11</ele>
        <time>2015-06-20T17:17:37Z</time>
      </trkpt>
      <trkpt lat="36.547634" lon="-5.489597">
        <ele>533.16</ele>
        <time>2015-06-20T17:17:43Z</time>
      </trkpt>
      <trkpt lat="36.547634" lon="-5.489597">
        <ele>533.16</ele>
        <time>2015-06-20T17:17:47Z</time>
      </trkpt>
      <trkpt lat="36.547634" lon="-5.489597">
        <ele>533.18</ele>
        <time>2015-06-20T17:17:56Z</time>
      </trkpt>
      <trkpt lat="36.547634" lon="-5.489597">
        <ele>533.12</ele>
        <time>2015-06-20T17:18:00Z</time>
      </trkpt>
      <trkpt lat="36.547634" lon="-5.489597">
        <ele>533.16</ele>
        <time>2015-06-20T17:18:04Z</time>
      </trkpt>
      <trkpt lat="36.547634" lon="-5.489597">
        <ele>533.14</ele>
        <time>2015-06-20T17:18:07Z</time>
      </trkpt>
      <trkpt lat="36.547635" lon="-5.489591">
        <ele>533.23</ele>
        <time>2015-06-20T17:18:21Z</time>
      </trkpt>
      <trkpt lat="36.547635" lon="-5.489591">
        <ele>533.23</ele>
        <time>2015-06-20T17:18:23Z</time>
      </trkpt>
      <trkpt lat="36.547635" lon="-5.489591">
        <ele>533.22</ele>
        <time>2015-06-20T17:18:26Z</time>
      </trkpt>
      <trkpt lat="36.547635" lon="-5.489591">
        <ele>533.22</ele>
        <time>2015-06-20T17:18:35Z</time>
      </trkpt>
      <trkpt lat="36.547635" lon="-5.489591">
        <ele>533.21</ele>
        <time>2015-06-20T17:18:37Z</time>
      </trkpt>
      <trkpt lat="36.547635" lon="-5.489591">
        <ele>533.26</ele>
        <time>2015-06-20T17:18:40Z</time>
      </trkpt>
      <trkpt lat="36.547647" lon="-5.489579">
        <ele>533.19</ele>
        <time>2015-06-20T17:18:48Z</time>
      </trkpt>
      <trkpt lat="36.547658" lon="-5.489567">
        <ele>532.93</ele>
        <time>2015-06-20T17:18:56Z</time>
      </trkpt>
      <trkpt lat="36.547689" lon="-5.489538">
        <ele>532.47</ele>
        <time>2015-06-20T17:18:59Z</time>
      </trkpt>
      <trkpt lat="36.547711" lon="-5.489517">
        <ele>532.04</ele>
        <time>2015-06-20T17:19:01Z</time>
      </trkpt>
      <trkpt lat="36.547748" lon="-5.489490">
        <ele>531.24</ele>
        <time>2015-06-20T17:19:04Z</time>
      </trkpt>
      <trkpt lat="36.547771" lon="-5.489458">
        <ele>531.03</ele>
        <time>2015-06-20T17:19:07Z</time>
      </trkpt>
      <trkpt lat="36.547779" lon="-5.489431">
        <ele>531.13</ele>
        <time>2015-06-20T17:19:09Z</time>
      </trkpt>
      <trkpt lat="36.547783" lon="-5.489419">
        <ele>531.01</ele>
        <time>2015-06-20T17:19:10Z</time>
      </trkpt>
      <trkpt lat="36.547791" lon="-5.489403">
        <ele>530.93</ele>
        <time>2015-06-20T17:19:11Z</time>
      </trkpt>
      <trkpt lat="36.547799" lon="-5.489385">
        <ele>530.80</ele>
        <time>2015-06-20T17:19:12Z</time>
      </trkpt>
      <trkpt lat="36.547805" lon="-5.489368">
        <ele>530.71</ele>
        <time>2015-06-20T17:19:13Z</time>
      </trkpt>
      <trkpt lat="36.547849" lon="-5.489212">
        <ele>530.88</ele>
        <time>2015-06-20T17:19:20Z</time>
      </trkpt>
      <trkpt lat="36.547897" lon="-5.489012">
        <ele>532.55</ele>
        <time>2015-06-20T17:19:28Z</time>
      </trkpt>
      <trkpt lat="36.547926" lon="-5.488804">
        <ele>534.89</ele>
        <time>2015-06-20T17:19:36Z</time>
      </trkpt>
      <trkpt lat="36.547928" lon="-5.488781">
        <ele>535.07</ele>
        <time>2015-06-20T17:19:37Z</time>
      </trkpt>
      <trkpt lat="36.547928" lon="-5.488759">
        <ele>535.35</ele>
        <time>2015-06-20T17:19:38Z</time>
      </trkpt>
      <trkpt lat="36.547929" lon="-5.488737">
        <ele>535.51</ele>
        <time>2015-06-20T17:19:39Z</time>
      </trkpt>
      <trkpt lat="36.547928" lon="-5.488718">
        <ele>535.88</ele>
        <time>2015-06-20T17:19:40Z</time>
      </trkpt>
      <trkpt lat="36.547931" lon="-5.488676">
        <ele>536.28</ele>
        <time>2015-06-20T17:19:42Z</time>
      </trkpt>
      <trkpt lat="36.547955" lon="-5.488520">
        <ele>536.61</ele>
        <time>2015-06-20T17:19:49Z</time>
      </trkpt>
      <trkpt lat="36.547978" lon="-5.488439">
        <ele>536.12</ele>
        <time>2015-06-20T17:19:53Z</time>
      </trkpt>
      <trkpt lat="36.547983" lon="-5.488413">
        <ele>536.10</ele>
        <time>2015-06-20T17:19:54Z</time>
      </trkpt>
      <trkpt lat="36.547991" lon="-5.488384">
        <ele>535.91</ele>
        <time>2015-06-20T17:19:55Z</time>
      </trkpt>
      <trkpt lat="36.547993" lon="-5.488353">
        <ele>536.02</ele>
        <time>2015-06-20T17:19:56Z</time>
      </trkpt>
      <trkpt lat="36.547996" lon="-5.488320">
        <ele>535.99</ele>
        <time>2015-06-20T17:19:57Z</time>
      </trkpt>
      <trkpt lat="36.547999" lon="-5.488257">
        <ele>535.56</ele>
        <time>2015-06-20T17:19:59Z</time>
      </trkpt>
      <trkpt lat="36.547942" lon="-5.488089">
        <ele>536.47</ele>
        <time>2015-06-20T17:20:04Z</time>
      </trkpt>
      <trkpt lat="36.547853" lon="-5.487931">
        <ele>537.82</ele>
        <time>2015-06-20T17:20:08Z</time>
      </trkpt>
      <trkpt lat="36.547794" lon="-5.487846">
        <ele>539.05</ele>
        <time>2015-06-20T17:20:10Z</time>
      </trkpt>
      <trkpt lat="36.547749" lon="-5.487743">
        <ele>539.37</ele>
        <time>2015-06-20T17:20:12Z</time>
      </trkpt>
      <trkpt lat="36.547730" lon="-5.487612">
        <ele>537.55</ele>
        <time>2015-06-20T17:20:14Z</time>
      </trkpt>
      <trkpt lat="36.547707" lon="-5.487474">
        <ele>535.60</ele>
        <time>2015-06-20T17:20:16Z</time>
      </trkpt>
      <trkpt lat="36.547645" lon="-5.487338">
        <ele>534.62</ele>
        <time>2015-06-20T17:20:18Z</time>
      </trkpt>
      <trkpt lat="36.547606" lon="-5.487281">
        <ele>534.53</ele>
        <time>2015-06-20T17:20:19Z</time>
      </trkpt>
      <trkpt lat="36.547560" lon="-5.487229">
        <ele>534.61</ele>
        <time>2015-06-20T17:20:20Z</time>
      </trkpt>
      <trkpt lat="36.547512" lon="-5.487186">
        <ele>535.11</ele>
        <time>2015-06-20T17:20:21Z</time>
      </trkpt>
      <trkpt lat="36.547462" lon="-5.487142">
        <ele>535.65</ele>
        <time>2015-06-20T17:20:22Z</time>
      </trkpt>
      <trkpt lat="36.547415" lon="-5.487094">
        <ele>536.08</ele>
        <time>2015-06-20T17:20:23Z</time>
      </trkpt>
      <trkpt lat="36.547372" lon="-5.487047">
        <ele>536.45</ele>
        <time>2015-06-20T17:20:24Z</time>
      </trkpt>
      <trkpt lat="36.547254" lon="-5.486892">
        <ele>536.92</ele>
        <time>2015-06-20T17:20:27Z</time>
      </trkpt>
      <trkpt lat="36.547230" lon="-5.486837">
        <ele>536.49</ele>
        <time>2015-06-20T17:20:28Z</time>
      </trkpt>
      <trkpt lat="36.547116" lon="-5.486532">
        <ele>531.83</ele>
        <time>2015-06-20T17:20:34Z</time>
      </trkpt>
      <trkpt lat="36.547096" lon="-5.486486">
        <ele>531.03</ele>
        <time>2015-06-20T17:20:35Z</time>
      </trkpt>
      <trkpt lat="36.547013" lon="-5.486375">
        <ele>529.93</ele>
        <time>2015-06-20T17:20:38Z</time>
      </trkpt>
      <trkpt lat="36.546997" lon="-5.486355">
        <ele>529.89</ele>
        <time>2015-06-20T17:20:39Z</time>
      </trkpt>
      <trkpt lat="36.546979" lon="-5.486340">
        <ele>529.92</ele>
        <time>2015-06-20T17:20:40Z</time>
      </trkpt>
      <trkpt lat="36.546961" lon="-5.486325">
        <ele>530.01</ele>
        <time>2015-06-20T17:20:41Z</time>
      </trkpt>
      <trkpt lat="36.546941" lon="-5.486317">
        <ele>530.39</ele>
        <time>2015-06-20T17:20:42Z</time>
      </trkpt>
      <trkpt lat="36.546923" lon="-5.486311">
        <ele>530.53</ele>
        <time>2015-06-20T17:20:43Z</time>
      </trkpt>
      <trkpt lat="36.546895" lon="-5.486299">
        <ele>530.75</ele>
        <time>2015-06-20T17:20:45Z</time>
      </trkpt>
      <trkpt lat="36.546881" lon="-5.486296">
        <ele>531.05</ele>
        <time>2015-06-20T17:20:46Z</time>
      </trkpt>
      <trkpt lat="36.546870" lon="-5.486289">
        <ele>531.08</ele>
        <time>2015-06-20T17:20:47Z</time>
      </trkpt>
      <trkpt lat="36.546859" lon="-5.486280">
        <ele>531.01</ele>
        <time>2015-06-20T17:20:48Z</time>
      </trkpt>
      <trkpt lat="36.546852" lon="-5.486270">
        <ele>530.94</ele>
        <time>2015-06-20T17:20:49Z</time>
      </trkpt>
      <trkpt lat="36.546843" lon="-5.486245">
        <ele>530.41</ele>
        <time>2015-06-20T17:20:51Z</time>
      </trkpt>
      <trkpt lat="36.546821" lon="-5.486173">
        <ele>528.98</ele>
        <time>2015-06-20T17:20:55Z</time>
      </trkpt>
      <trkpt lat="36.546767" lon="-5.486000">
        <ele>525.30</ele>
        <time>2015-06-20T17:21:01Z</time>
      </trkpt>
      <trkpt lat="36.546663" lon="-5.485938">
        <ele>525.02</ele>
        <time>2015-06-20T17:21:04Z</time>
      </trkpt>
      <trkpt lat="36.546616" lon="-5.485926">
        <ele>524.81</ele>
        <time>2015-06-20T17:21:05Z</time>
      </trkpt>
      <trkpt lat="36.546564" lon="-5.485914">
        <ele>524.60</ele>
        <time>2015-06-20T17:21:06Z</time>
      </trkpt>
      <trkpt lat="36.546510" lon="-5.485896">
        <ele>524.18</ele>
        <time>2015-06-20T17:21:07Z</time>
      </trkpt>
      <trkpt lat="36.546453" lon="-5.485874">
        <ele>523.43</ele>
        <time>2015-06-20T17:21:08Z</time>
      </trkpt>
      <trkpt lat="36.546394" lon="-5.485851">
        <ele>522.68</ele>
        <time>2015-06-20T17:21:09Z</time>
      </trkpt>
      <trkpt lat="36.546329" lon="-5.485832">
        <ele>522.28</ele>
        <time>2015-06-20T17:21:10Z</time>
      </trkpt>
      <trkpt lat="36.546265" lon="-5.485830">
        <ele>522.40</ele>
        <time>2015-06-20T17:21:11Z</time>
      </trkpt>
      <trkpt lat="36.546201" lon="-5.485834">
        <ele>522.74</ele>
        <time>2015-06-20T17:21:12Z</time>
      </trkpt>
      <trkpt lat="36.546138" lon="-5.485844">
        <ele>523.39</ele>
        <time>2015-06-20T17:21:13Z</time>
      </trkpt>
      <trkpt lat="36.546078" lon="-5.485866">
        <ele>523.86</ele>
        <time>2015-06-20T17:21:14Z</time>
      </trkpt>
      <trkpt lat="36.546014" lon="-5.485896">
        <ele>524.44</ele>
        <time>2015-06-20T17:21:15Z</time>
      </trkpt>
      <trkpt lat="36.545946" lon="-5.485921">
        <ele>524.82</ele>
        <time>2015-06-20T17:21:16Z</time>
      </trkpt>
      <trkpt lat="36.545809" lon="-5.485937">
        <ele>524.41</ele>
        <time>2015-06-20T17:21:18Z</time>
      </trkpt>
      <trkpt lat="36.545741" lon="-5.485931">
        <ele>523.23</ele>
        <time>2015-06-20T17:21:19Z</time>
      </trkpt>
      <trkpt lat="36.545671" lon="-5.485917">
        <ele>521.78</ele>
        <time>2015-06-20T17:21:20Z</time>
      </trkpt>
      <trkpt lat="36.545602" lon="-5.485899">
        <ele>520.06</ele>
        <time>2015-06-20T17:21:21Z</time>
      </trkpt>
      <trkpt lat="36.545530" lon="-5.485881">
        <ele>518.51</ele>
        <time>2015-06-20T17:21:22Z</time>
      </trkpt>
      <trkpt lat="36.545459" lon="-5.485866">
        <ele>517.48</ele>
        <time>2015-06-20T17:21:23Z</time>
      </trkpt>
      <trkpt lat="36.545386" lon="-5.485860">
        <ele>516.69</ele>
        <time>2015-06-20T17:21:24Z</time>
      </trkpt>
      <trkpt lat="36.545323" lon="-5.485857">
        <ele>516.08</ele>
        <time>2015-06-20T17:21:25Z</time>
      </trkpt>
      <trkpt lat="36.545264" lon="-5.485869">
        <ele>516.02</ele>
        <time>2015-06-20T17:21:26Z</time>
      </trkpt>
      <trkpt lat="36.545211" lon="-5.485891">
        <ele>516.45</ele>
        <time>2015-06-20T17:21:27Z</time>
      </trkpt>
      <trkpt lat="36.545163" lon="-5.485926">
        <ele>517.15</ele>
        <time>2015-06-20T17:21:28Z</time>
      </trkpt>
      <trkpt lat="36.545120" lon="-5.485976">
        <ele>518.21</ele>
        <time>2015-06-20T17:21:29Z</time>
      </trkpt>
      <trkpt lat="36.545073" lon="-5.486030">
        <ele>519.41</ele>
        <time>2015-06-20T17:21:30Z</time>
      </trkpt>
      <trkpt lat="36.545025" lon="-5.486079">
        <ele>520.45</ele>
        <time>2015-06-20T17:21:31Z</time>
      </trkpt>
      <trkpt lat="36.544968" lon="-5.486125">
        <ele>521.84</ele>
        <time>2015-06-20T17:21:32Z</time>
      </trkpt>
      <trkpt lat="36.544908" lon="-5.486161">
        <ele>523.51</ele>
        <time>2015-06-20T17:21:33Z</time>
      </trkpt>
      <trkpt lat="36.544847" lon="-5.486184">
        <ele>524.93</ele>
        <time>2015-06-20T17:21:34Z</time>
      </trkpt>
      <trkpt lat="36.544719" lon="-5.486202">
        <ele>527.02</ele>
        <time>2015-06-20T17:21:36Z</time>
      </trkpt>
      <trkpt lat="36.544655" lon="-5.486185">
        <ele>528.34</ele>
        <time>2015-06-20T17:21:37Z</time>
      </trkpt>
      <trkpt lat="36.544594" lon="-5.486153">
        <ele>529.07</ele>
        <time>2015-06-20T17:21:38Z</time>
      </trkpt>
      <trkpt lat="36.544536" lon="-5.486111">
        <ele>529.46</ele>
        <time>2015-06-20T17:21:39Z</time>
      </trkpt>
      <trkpt lat="36.544488" lon="-5.486067">
        <ele>530.13</ele>
        <time>2015-06-20T17:21:40Z</time>
      </trkpt>
      <trkpt lat="36.544415" lon="-5.485971">
        <ele>531.23</ele>
        <time>2015-06-20T17:21:42Z</time>
      </trkpt>
      <trkpt lat="36.544397" lon="-5.485843">
        <ele>530.01</ele>
        <time>2015-06-20T17:21:45Z</time>
      </trkpt>
      <trkpt lat="36.544446" lon="-5.485735">
        <ele>526.91</ele>
        <time>2015-06-20T17:21:49Z</time>
      </trkpt>
      <trkpt lat="36.544466" lon="-5.485696">
        <ele>525.78</ele>
        <time>2015-06-20T17:21:51Z</time>
      </trkpt>
      <trkpt lat="36.544478" lon="-5.485650">
        <ele>524.90</ele>
        <time>2015-06-20T17:21:54Z</time>
      </trkpt>
      <trkpt lat="36.544484" lon="-5.485600">
        <ele>524.12</ele>
        <time>2015-06-20T17:21:56Z</time>
      </trkpt>
      <trkpt lat="36.544483" lon="-5.485551">
        <ele>523.69</ele>
        <time>2015-06-20T17:21:58Z</time>
      </trkpt>
      <trkpt lat="36.544480" lon="-5.485533">
        <ele>523.52</ele>
        <time>2015-06-20T17:21:59Z</time>
      </trkpt>
      <trkpt lat="36.544477" lon="-5.485514">
        <ele>523.47</ele>
        <time>2015-06-20T17:22:00Z</time>
      </trkpt>
      <trkpt lat="36.544472" lon="-5.485500">
        <ele>523.55</ele>
        <time>2015-06-20T17:22:01Z</time>
      </trkpt>
      <trkpt lat="36.544467" lon="-5.485488">
        <ele>523.52</ele>
        <time>2015-06-20T17:22:02Z</time>
      </trkpt>
      <trkpt lat="36.544460" lon="-5.485474">
        <ele>523.70</ele>
        <time>2015-06-20T17:22:03Z</time>
      </trkpt>
      <trkpt lat="36.544401" lon="-5.485394">
        <ele>524.72</ele>
        <time>2015-06-20T17:22:09Z</time>
      </trkpt>
      <trkpt lat="36.544388" lon="-5.485385">
        <ele>525.03</ele>
        <time>2015-06-20T17:22:10Z</time>
      </trkpt>
      <trkpt lat="36.544377" lon="-5.485377">
        <ele>525.31</ele>
        <time>2015-06-20T17:22:11Z</time>
      </trkpt>
      <trkpt lat="36.544365" lon="-5.485371">
        <ele>525.68</ele>
        <time>2015-06-20T17:22:12Z</time>
      </trkpt>
      <trkpt lat="36.544354" lon="-5.485369">
        <ele>525.92</ele>
        <time>2015-06-20T17:22:13Z</time>
      </trkpt>
      <trkpt lat="36.544343" lon="-5.485365">
        <ele>526.23</ele>
        <time>2015-06-20T17:22:14Z</time>
      </trkpt>
      <trkpt lat="36.544328" lon="-5.485363">
        <ele>526.76</ele>
        <time>2015-06-20T17:22:15Z</time>
      </trkpt>
      <trkpt lat="36.544313" lon="-5.485358">
        <ele>527.18</ele>
        <time>2015-06-20T17:22:16Z</time>
      </trkpt>
      <trkpt lat="36.544300" lon="-5.485348">
        <ele>527.32</ele>
        <time>2015-06-20T17:22:17Z</time>
      </trkpt>
      <trkpt lat="36.544274" lon="-5.485310">
        <ele>527.60</ele>
        <time>2015-06-20T17:22:20Z</time>
      </trkpt>
      <trkpt lat="36.544259" lon="-5.485290">
        <ele>527.70</ele>
        <time>2015-06-20T17:22:22Z</time>
      </trkpt>
      <trkpt lat="36.544243" lon="-5.485268">
        <ele>527.78</ele>
        <time>2015-06-20T17:22:24Z</time>
      </trkpt>
      <trkpt lat="36.544236" lon="-5.485255">
        <ele>527.86</ele>
        <time>2015-06-20T17:22:25Z</time>
      </trkpt>
      <trkpt lat="36.544229" lon="-5.485243">
        <ele>527.93</ele>
        <time>2015-06-20T17:22:26Z</time>
      </trkpt>
      <trkpt lat="36.544222" lon="-5.485233">
        <ele>528.01</ele>
        <time>2015-06-20T17:22:27Z</time>
      </trkpt>
      <trkpt lat="36.544216" lon="-5.485224">
        <ele>528.07</ele>
        <time>2015-06-20T17:22:28Z</time>
      </trkpt>
      <trkpt lat="36.544196" lon="-5.485193">
        <ele>528.38</ele>
        <time>2015-06-20T17:22:31Z</time>
      </trkpt>
      <trkpt lat="36.544186" lon="-5.485176">
        <ele>528.48</ele>
        <time>2015-06-20T17:22:33Z</time>
      </trkpt>
      <trkpt lat="36.544182" lon="-5.485164">
        <ele>528.43</ele>
        <time>2015-06-20T17:22:34Z</time>
      </trkpt>
      <trkpt lat="36.544132" lon="-5.485086">
        <ele>529.13</ele>
        <time>2015-06-20T17:22:40Z</time>
      </trkpt>
      <trkpt lat="36.544111" lon="-5.485051">
        <ele>529.43</ele>
        <time>2015-06-20T17:22:42Z</time>
      </trkpt>
      <trkpt lat="36.544097" lon="-5.485033">
        <ele>529.66</ele>
        <time>2015-06-20T17:22:43Z</time>
      </trkpt>
      <trkpt lat="36.544081" lon="-5.485018">
        <ele>530.10</ele>
        <time>2015-06-20T17:22:44Z</time>
      </trkpt>
      <trkpt lat="36.544066" lon="-5.485005">
        <ele>530.33</ele>
        <time>2015-06-20T17:22:45Z</time>
      </trkpt>
      <trkpt lat="36.544051" lon="-5.485000">
        <ele>530.70</ele>
        <time>2015-06-20T17:22:46Z</time>
      </trkpt>
      <trkpt lat="36.544025" lon="-5.484981">
        <ele>531.42</ele>
        <time>2015-06-20T17:22:48Z</time>
      </trkpt>
      <trkpt lat="36.543995" lon="-5.484911">
        <ele>531.71</ele>
        <time>2015-06-20T17:22:52Z</time>
      </trkpt>
      <trkpt lat="36.543970" lon="-5.484803">
        <ele>531.52</ele>
        <time>2015-06-20T17:22:58Z</time>
      </trkpt>
      <trkpt lat="36.543965" lon="-5.484787">
        <ele>531.45</ele>
        <time>2015-06-20T17:22:59Z</time>
      </trkpt>
      <trkpt lat="36.543958" lon="-5.484770">
        <ele>531.56</ele>
        <time>2015-06-20T17:23:00Z</time>
      </trkpt>
      <trkpt lat="36.543953" lon="-5.484751">
        <ele>531.46</ele>
        <time>2015-06-20T17:23:01Z</time>
      </trkpt>
      <trkpt lat="36.543948" lon="-5.484734">
        <ele>531.42</ele>
        <time>2015-06-20T17:23:02Z</time>
      </trkpt>
      <trkpt lat="36.543926" lon="-5.484629">
        <ele>531.63</ele>
        <time>2015-06-20T17:23:07Z</time>
      </trkpt>
      <trkpt lat="36.543895" lon="-5.484549">
        <ele>532.26</ele>
        <time>2015-06-20T17:23:11Z</time>
      </trkpt>
      <trkpt lat="36.543889" lon="-5.484527">
        <ele>532.38</ele>
        <time>2015-06-20T17:23:12Z</time>
      </trkpt>
      <trkpt lat="36.543883" lon="-5.484508">
        <ele>532.46</ele>
        <time>2015-06-20T17:23:13Z</time>
      </trkpt>
      <trkpt lat="36.543880" lon="-5.484490">
        <ele>532.46</ele>
        <time>2015-06-20T17:23:14Z</time>
      </trkpt>
      <trkpt lat="36.543875" lon="-5.484469">
        <ele>532.51</ele>
        <time>2015-06-20T17:23:15Z</time>
      </trkpt>
      <trkpt lat="36.543847" lon="-5.484370">
        <ele>533.41</ele>
        <time>2015-06-20T17:23:20Z</time>
      </trkpt>
      <trkpt lat="36.543810" lon="-5.484279">
        <ele>534.73</ele>
        <time>2015-06-20T17:23:25Z</time>
      </trkpt>
      <trkpt lat="36.543802" lon="-5.484261">
        <ele>535.09</ele>
        <time>2015-06-20T17:23:26Z</time>
      </trkpt>
      <trkpt lat="36.543793" lon="-5.484243">
        <ele>535.25</ele>
        <time>2015-06-20T17:23:27Z</time>
      </trkpt>
      <trkpt lat="36.543785" lon="-5.484224">
        <ele>535.55</ele>
        <time>2015-06-20T17:23:28Z</time>
      </trkpt>
      <trkpt lat="36.543777" lon="-5.484209">
        <ele>535.74</ele>
        <time>2015-06-20T17:23:29Z</time>
      </trkpt>
      <trkpt lat="36.543748" lon="-5.484155">
        <ele>536.74</ele>
        <time>2015-06-20T17:23:33Z</time>
      </trkpt>
      <trkpt lat="36.543682" lon="-5.484037">
        <ele>539.54</ele>
        <time>2015-06-20T17:23:40Z</time>
      </trkpt>
      <trkpt lat="36.543652" lon="-5.483975">
        <ele>540.93</ele>
        <time>2015-06-20T17:23:43Z</time>
      </trkpt>
      <trkpt lat="36.543643" lon="-5.483956">
        <ele>541.48</ele>
        <time>2015-06-20T17:23:44Z</time>
      </trkpt>
      <trkpt lat="36.543633" lon="-5.483937">
        <ele>541.96</ele>
        <time>2015-06-20T17:23:45Z</time>
      </trkpt>
      <trkpt lat="36.543625" lon="-5.483923">
        <ele>542.23</ele>
        <time>2015-06-20T17:23:46Z</time>
      </trkpt>
      <trkpt lat="36.543618" lon="-5.483909">
        <ele>542.61</ele>
        <time>2015-06-20T17:23:47Z</time>
      </trkpt>
      <trkpt lat="36.543594" lon="-5.483820">
        <ele>544.46</ele>
        <time>2015-06-20T17:23:52Z</time>
      </trkpt>
      <trkpt lat="36.543597" lon="-5.483778">
        <ele>544.76</ele>
        <time>2015-06-20T17:23:54Z</time>
      </trkpt>
      <trkpt lat="36.543624" lon="-5.483689">
        <ele>544.76</ele>
        <time>2015-06-20T17:23:58Z</time>
      </trkpt>
      <trkpt lat="36.543635" lon="-5.483672">
        <ele>544.57</ele>
        <time>2015-06-20T17:23:59Z</time>
      </trkpt>
      <trkpt lat="36.543644" lon="-5.483660">
        <ele>544.27</ele>
        <time>2015-06-20T17:24:00Z</time>
      </trkpt>
      <trkpt lat="36.543657" lon="-5.483645">
        <ele>543.97</ele>
        <time>2015-06-20T17:24:01Z</time>
      </trkpt>
      <trkpt lat="36.543702" lon="-5.483591">
        <ele>542.42</ele>
        <time>2015-06-20T17:24:05Z</time>
      </trkpt>
      <trkpt lat="36.543733" lon="-5.483528">
        <ele>541.33</ele>
        <time>2015-06-20T17:24:09Z</time>
      </trkpt>
      <trkpt lat="36.543744" lon="-5.483492">
        <ele>541.07</ele>
        <time>2015-06-20T17:24:11Z</time>
      </trkpt>
      <trkpt lat="36.543748" lon="-5.483471">
        <ele>540.81</ele>
        <time>2015-06-20T17:24:12Z</time>
      </trkpt>
      <trkpt lat="36.543741" lon="-5.483448">
        <ele>541.21</ele>
        <time>2015-06-20T17:24:13Z</time>
      </trkpt>
      <trkpt lat="36.543733" lon="-5.483421">
        <ele>541.61</ele>
        <time>2015-06-20T17:24:14Z</time>
      </trkpt>
      <trkpt lat="36.543725" lon="-5.483394">
        <ele>542.06</ele>
        <time>2015-06-20T17:24:15Z</time>
      </trkpt>
      <trkpt lat="36.543712" lon="-5.483370">
        <ele>542.64</ele>
        <time>2015-06-20T17:24:16Z</time>
      </trkpt>
      <trkpt lat="36.543618" lon="-5.483254">
        <ele>546.45</ele>
        <time>2015-06-20T17:24:21Z</time>
      </trkpt>
      <trkpt lat="36.543578" lon="-5.483156">
        <ele>547.66</ele>
        <time>2015-06-20T17:24:26Z</time>
      </trkpt>
      <trkpt lat="36.543561" lon="-5.483104">
        <ele>548.03</ele>
        <time>2015-06-20T17:24:31Z</time>
      </trkpt>
      <trkpt lat="36.543557" lon="-5.483080">
        <ele>548.05</ele>
        <time>2015-06-20T17:24:37Z</time>
      </trkpt>
      <trkpt lat="36.543557" lon="-5.483080">
        <ele>548.01</ele>
        <time>2015-06-20T17:24:46Z</time>
      </trkpt>
      <trkpt lat="36.543557" lon="-5.483080">
        <ele>548.10</ele>
        <time>2015-06-20T17:24:53Z</time>
      </trkpt>
      <trkpt lat="36.543555" lon="-5.483059">
        <ele>548.02</ele>
        <time>2015-06-20T17:24:56Z</time>
      </trkpt>
      <trkpt lat="36.543560" lon="-5.483048">
        <ele>547.81</ele>
        <time>2015-06-20T17:24:57Z</time>
      </trkpt>
      <trkpt lat="36.543596" lon="-5.483008">
        <ele>546.22</ele>
        <time>2015-06-20T17:25:01Z</time>
      </trkpt>
      <trkpt lat="36.543597" lon="-5.482953">
        <ele>545.81</ele>
        <time>2015-06-20T17:25:05Z</time>
      </trkpt>
      <trkpt lat="36.543591" lon="-5.482917">
        <ele>545.72</ele>
        <time>2015-06-20T17:25:07Z</time>
      </trkpt>
      <trkpt lat="36.543584" lon="-5.482880">
        <ele>545.70</ele>
        <time>2015-06-20T17:25:09Z</time>
      </trkpt>
      <trkpt lat="36.543582" lon="-5.482865">
        <ele>545.61</ele>
        <time>2015-06-20T17:25:10Z</time>
      </trkpt>
      <trkpt lat="36.543584" lon="-5.482843">
        <ele>545.48</ele>
        <time>2015-06-20T17:25:11Z</time>
      </trkpt>
      <trkpt lat="36.543583" lon="-5.482823">
        <ele>545.36</ele>
        <time>2015-06-20T17:25:12Z</time>
      </trkpt>
      <trkpt lat="36.543582" lon="-5.482806">
        <ele>545.29</ele>
        <time>2015-06-20T17:25:13Z</time>
      </trkpt>
      <trkpt lat="36.543572" lon="-5.482776">
        <ele>545.38</ele>
        <time>2015-06-20T17:25:15Z</time>
      </trkpt>
      <trkpt lat="36.543559" lon="-5.482719">
        <ele>545.27</ele>
        <time>2015-06-20T17:25:18Z</time>
      </trkpt>
      <trkpt lat="36.543504" lon="-5.482640">
        <ele>546.32</ele>
        <time>2015-06-20T17:25:23Z</time>
      </trkpt>
      <trkpt lat="36.543492" lon="-5.482631">
        <ele>546.70</ele>
        <time>2015-06-20T17:25:24Z</time>
      </trkpt>
      <trkpt lat="36.543478" lon="-5.482621">
        <ele>546.92</ele>
        <time>2015-06-20T17:25:25Z</time>
      </trkpt>
      <trkpt lat="36.543463" lon="-5.482612">
        <ele>547.31</ele>
        <time>2015-06-20T17:25:26Z</time>
      </trkpt>
      <trkpt lat="36.543451" lon="-5.482606">
        <ele>547.66</ele>
        <time>2015-06-20T17:25:27Z</time>
      </trkpt>
      <trkpt lat="36.543405" lon="-5.482587">
        <ele>548.84</ele>
        <time>2015-06-20T17:25:31Z</time>
      </trkpt>
      <trkpt lat="36.543395" lon="-5.482579">
        <ele>549.07</ele>
        <time>2015-06-20T17:25:32Z</time>
      </trkpt>
      <trkpt lat="36.543371" lon="-5.482576">
        <ele>549.74</ele>
        <time>2015-06-20T17:25:34Z</time>
      </trkpt>
      <trkpt lat="36.543342" lon="-5.482576">
        <ele>550.65</ele>
        <time>2015-06-20T17:25:36Z</time>
      </trkpt>
      <trkpt lat="36.543319" lon="-5.482581">
        <ele>551.49</ele>
        <time>2015-06-20T17:25:38Z</time>
      </trkpt>
      <trkpt lat="36.543308" lon="-5.482580">
        <ele>551.73</ele>
        <time>2015-06-20T17:25:39Z</time>
      </trkpt>
      <trkpt lat="36.543297" lon="-5.482576">
        <ele>552.07</ele>
        <time>2015-06-20T17:25:40Z</time>
      </trkpt>
      <trkpt lat="36.543286" lon="-5.482575">
        <ele>552.48</ele>
        <time>2015-06-20T17:25:41Z</time>
      </trkpt>
      <trkpt lat="36.543276" lon="-5.482579">
        <ele>552.84</ele>
        <time>2015-06-20T17:25:42Z</time>
      </trkpt>
      <trkpt lat="36.543197" lon="-5.482580">
        <ele>555.42</ele>
        <time>2015-06-20T17:25:48Z</time>
      </trkpt>
      <trkpt lat="36.543182" lon="-5.482578">
        <ele>555.91</ele>
        <time>2015-06-20T17:25:49Z</time>
      </trkpt>
      <trkpt lat="36.543169" lon="-5.482578">
        <ele>556.40</ele>
        <time>2015-06-20T17:25:50Z</time>
      </trkpt>
      <trkpt lat="36.543159" lon="-5.482572">
        <ele>556.65</ele>
        <time>2015-06-20T17:25:51Z</time>
      </trkpt>
      <trkpt lat="36.543151" lon="-5.482560">
        <ele>556.77</ele>
        <time>2015-06-20T17:25:52Z</time>
      </trkpt>
      <trkpt lat="36.543144" lon="-5.482550">
        <ele>556.90</ele>
        <time>2015-06-20T17:25:53Z</time>
      </trkpt>
      <trkpt lat="36.543134" lon="-5.482540">
        <ele>557.07</ele>
        <time>2015-06-20T17:25:54Z</time>
      </trkpt>
      <trkpt lat="36.543126" lon="-5.482532">
        <ele>557.13</ele>
        <time>2015-06-20T17:25:55Z</time>
      </trkpt>
      <trkpt lat="36.543082" lon="-5.482510">
        <ele>558.37</ele>
        <time>2015-06-20T17:25:59Z</time>
      </trkpt>
      <trkpt lat="36.543050" lon="-5.482486">
        <ele>559.20</ele>
        <time>2015-06-20T17:26:04Z</time>
      </trkpt>
      <trkpt lat="36.543049" lon="-5.482479">
        <ele>559.19</ele>
        <time>2015-06-20T17:26:05Z</time>
      </trkpt>
      <trkpt lat="36.543048" lon="-5.482468">
        <ele>559.16</ele>
        <time>2015-06-20T17:26:06Z</time>
      </trkpt>
      <trkpt lat="36.543047" lon="-5.482455">
        <ele>559.13</ele>
        <time>2015-06-20T17:26:07Z</time>
      </trkpt>
      <trkpt lat="36.543044" lon="-5.482442">
        <ele>559.21</ele>
        <time>2015-06-20T17:26:08Z</time>
      </trkpt>
      <trkpt lat="36.543020" lon="-5.482391">
        <ele>559.87</ele>
        <time>2015-06-20T17:26:12Z</time>
      </trkpt>
      <trkpt lat="36.542980" lon="-5.482313">
        <ele>560.88</ele>
        <time>2015-06-20T17:26:19Z</time>
      </trkpt>
      <trkpt lat="36.542975" lon="-5.482301">
        <ele>560.94</ele>
        <time>2015-06-20T17:26:20Z</time>
      </trkpt>
      <trkpt lat="36.542970" lon="-5.482288">
        <ele>561.04</ele>
        <time>2015-06-20T17:26:21Z</time>
      </trkpt>
      <trkpt lat="36.542964" lon="-5.482273">
        <ele>561.14</ele>
        <time>2015-06-20T17:26:22Z</time>
      </trkpt>
      <trkpt lat="36.542955" lon="-5.482267">
        <ele>561.49</ele>
        <time>2015-06-20T17:26:23Z</time>
      </trkpt>
      <trkpt lat="36.542950" lon="-5.482257">
        <ele>561.52</ele>
        <time>2015-06-20T17:26:24Z</time>
      </trkpt>
      <trkpt lat="36.542929" lon="-5.482190">
        <ele>562.68</ele>
        <time>2015-06-20T17:26:29Z</time>
      </trkpt>
      <trkpt lat="36.542961" lon="-5.482101">
        <ele>562.89</ele>
        <time>2015-06-20T17:26:35Z</time>
      </trkpt>
      <trkpt lat="36.543026" lon="-5.482048">
        <ele>561.56</ele>
        <time>2015-06-20T17:26:40Z</time>
      </trkpt>
      <trkpt lat="36.543089" lon="-5.481990">
        <ele>560.33</ele>
        <time>2015-06-20T17:26:45Z</time>
      </trkpt>
      <trkpt lat="36.543105" lon="-5.481972">
        <ele>560.01</ele>
        <time>2015-06-20T17:26:46Z</time>
      </trkpt>
      <trkpt lat="36.543193" lon="-5.481893">
        <ele>558.89</ele>
        <time>2015-06-20T17:26:51Z</time>
      </trkpt>
      <trkpt lat="36.543208" lon="-5.481875">
        <ele>558.74</ele>
        <time>2015-06-20T17:26:52Z</time>
      </trkpt>
      <trkpt lat="36.543221" lon="-5.481858">
        <ele>558.70</ele>
        <time>2015-06-20T17:26:53Z</time>
      </trkpt>
      <trkpt lat="36.543234" lon="-5.481837">
        <ele>558.77</ele>
        <time>2015-06-20T17:26:54Z</time>
      </trkpt>
      <trkpt lat="36.543298" lon="-5.481718">
        <ele>559.12</ele>
        <time>2015-06-20T17:27:00Z</time>
      </trkpt>
      <trkpt lat="36.543297" lon="-5.481580">
        <ele>563.05</ele>
        <time>2015-06-20T17:27:07Z</time>
      </trkpt>
      <trkpt lat="36.543281" lon="-5.481491">
        <ele>566.33</ele>
        <time>2015-06-20T17:27:12Z</time>
      </trkpt>
      <trkpt lat="36.543279" lon="-5.481474">
        <ele>566.96</ele>
        <time>2015-06-20T17:27:13Z</time>
      </trkpt>
      <trkpt lat="36.543278" lon="-5.481454">
        <ele>567.66</ele>
        <time>2015-06-20T17:27:14Z</time>
      </trkpt>
      <trkpt lat="36.543281" lon="-5.481439">
        <ele>568.02</ele>
        <time>2015-06-20T17:27:15Z</time>
      </trkpt>
      <trkpt lat="36.543288" lon="-5.481430">
        <ele>568.01</ele>
        <time>2015-06-20T17:27:16Z</time>
      </trkpt>
      <trkpt lat="36.543306" lon="-5.481405">
        <ele>568.31</ele>
        <time>2015-06-20T17:27:18Z</time>
      </trkpt>
      <trkpt lat="36.543333" lon="-5.481360">
        <ele>568.99</ele>
        <time>2015-06-20T17:27:21Z</time>
      </trkpt>
      <trkpt lat="36.543342" lon="-5.481343">
        <ele>569.35</ele>
        <time>2015-06-20T17:27:22Z</time>
      </trkpt>
      <trkpt lat="36.543353" lon="-5.481331">
        <ele>569.66</ele>
        <time>2015-06-20T17:27:23Z</time>
      </trkpt>
      <trkpt lat="36.543365" lon="-5.481322">
        <ele>569.79</ele>
        <time>2015-06-20T17:27:24Z</time>
      </trkpt>
      <trkpt lat="36.543379" lon="-5.481312">
        <ele>569.82</ele>
        <time>2015-06-20T17:27:25Z</time>
      </trkpt>
      <trkpt lat="36.543407" lon="-5.481298">
        <ele>569.90</ele>
        <time>2015-06-20T17:27:27Z</time>
      </trkpt>
      <trkpt lat="36.543438" lon="-5.481292">
        <ele>569.51</ele>
        <time>2015-06-20T17:27:29Z</time>
      </trkpt>
      <trkpt lat="36.543495" lon="-5.481309">
        <ele>568.01</ele>
        <time>2015-06-20T17:27:34Z</time>
      </trkpt>
      <trkpt lat="36.543503" lon="-5.481316">
        <ele>567.65</ele>
        <time>2015-06-20T17:27:35Z</time>
      </trkpt>
      <trkpt lat="36.543517" lon="-5.481320">
        <ele>567.30</ele>
        <time>2015-06-20T17:27:36Z</time>
      </trkpt>
      <trkpt lat="36.543529" lon="-5.481322">
        <ele>567.02</ele>
        <time>2015-06-20T17:27:37Z</time>
      </trkpt>
      <trkpt lat="36.543541" lon="-5.481328">
        <ele>566.61</ele>
        <time>2015-06-20T17:27:38Z</time>
      </trkpt>
      <trkpt lat="36.543556" lon="-5.481333">
        <ele>566.14</ele>
        <time>2015-06-20T17:27:39Z</time>
      </trkpt>
      <trkpt lat="36.543571" lon="-5.481335">
        <ele>565.88</ele>
        <time>2015-06-20T17:27:40Z</time>
      </trkpt>
      <trkpt lat="36.543665" lon="-5.481368">
        <ele>563.28</ele>
        <time>2015-06-20T17:27:47Z</time>
      </trkpt>
      <trkpt lat="36.543678" lon="-5.481371">
        <ele>563.05</ele>
        <time>2015-06-20T17:27:48Z</time>
      </trkpt>
      <trkpt lat="36.543695" lon="-5.481370">
        <ele>562.88</ele>
        <time>2015-06-20T17:27:49Z</time>
      </trkpt>
      <trkpt lat="36.543711" lon="-5.481365">
        <ele>562.87</ele>
        <time>2015-06-20T17:27:50Z</time>
      </trkpt>
      <trkpt lat="36.543727" lon="-5.481354">
        <ele>563.03</ele>
        <time>2015-06-20T17:27:51Z</time>
      </trkpt>
      <trkpt lat="36.543740" lon="-5.481340">
        <ele>563.46</ele>
        <time>2015-06-20T17:27:52Z</time>
      </trkpt>
      <trkpt lat="36.543757" lon="-5.481329">
        <ele>563.66</ele>
        <time>2015-06-20T17:27:53Z</time>
      </trkpt>
      <trkpt lat="36.543832" lon="-5.481273">
        <ele>564.51</ele>
        <time>2015-06-20T17:27:59Z</time>
      </trkpt>
      <trkpt lat="36.543868" lon="-5.481209">
        <ele>566.22</ele>
        <time>2015-06-20T17:28:04Z</time>
      </trkpt>
      <trkpt lat="36.543878" lon="-5.481175">
        <ele>567.11</ele>
        <time>2015-06-20T17:28:06Z</time>
      </trkpt>
      <trkpt lat="36.543883" lon="-5.481156">
        <ele>567.68</ele>
        <time>2015-06-20T17:28:07Z</time>
      </trkpt>
      <trkpt lat="36.543889" lon="-5.481135">
        <ele>568.27</ele>
        <time>2015-06-20T17:28:08Z</time>
      </trkpt>
      <trkpt lat="36.543889" lon="-5.481113">
        <ele>568.99</ele>
        <time>2015-06-20T17:28:09Z</time>
      </trkpt>
      <trkpt lat="36.543890" lon="-5.481087">
        <ele>569.72</ele>
        <time>2015-06-20T17:28:10Z</time>
      </trkpt>
      <trkpt lat="36.543892" lon="-5.481022">
        <ele>571.53</ele>
        <time>2015-06-20T17:28:13Z</time>
      </trkpt>
      <trkpt lat="36.543893" lon="-5.481000">
        <ele>572.15</ele>
        <time>2015-06-20T17:28:14Z</time>
      </trkpt>
      <trkpt lat="36.543895" lon="-5.480976">
        <ele>572.84</ele>
        <time>2015-06-20T17:28:15Z</time>
      </trkpt>
      <trkpt lat="36.543920" lon="-5.480869">
        <ele>575.27</ele>
        <time>2015-06-20T17:28:21Z</time>
      </trkpt>
      <trkpt lat="36.543946" lon="-5.480784">
        <ele>576.87</ele>
        <time>2015-06-20T17:28:26Z</time>
      </trkpt>
      <trkpt lat="36.543952" lon="-5.480768">
        <ele>577.17</ele>
        <time>2015-06-20T17:28:27Z</time>
      </trkpt>
      <trkpt lat="36.543952" lon="-5.480756">
        <ele>577.41</ele>
        <time>2015-06-20T17:28:28Z</time>
      </trkpt>
      <trkpt lat="36.543956" lon="-5.480745">
        <ele>577.51</ele>
        <time>2015-06-20T17:28:29Z</time>
      </trkpt>
      <trkpt lat="36.543959" lon="-5.480733">
        <ele>577.89</ele>
        <time>2015-06-20T17:28:30Z</time>
      </trkpt>
      <trkpt lat="36.543964" lon="-5.480696">
        <ele>578.67</ele>
        <time>2015-06-20T17:28:33Z</time>
      </trkpt>
      <trkpt lat="36.543979" lon="-5.480648">
        <ele>579.46</ele>
        <time>2015-06-20T17:28:38Z</time>
      </trkpt>
      <trkpt lat="36.543987" lon="-5.480635">
        <ele>579.55</ele>
        <time>2015-06-20T17:28:39Z</time>
      </trkpt>
      <trkpt lat="36.543994" lon="-5.480621">
        <ele>579.72</ele>
        <time>2015-06-20T17:28:40Z</time>
      </trkpt>
      <trkpt lat="36.544003" lon="-5.480610">
        <ele>579.83</ele>
        <time>2015-06-20T17:28:41Z</time>
      </trkpt>
      <trkpt lat="36.544013" lon="-5.480596">
        <ele>579.91</ele>
        <time>2015-06-20T17:28:42Z</time>
      </trkpt>
      <trkpt lat="36.544060" lon="-5.480521">
        <ele>580.78</ele>
        <time>2015-06-20T17:28:46Z</time>
      </trkpt>
      <trkpt lat="36.544076" lon="-5.480506">
        <ele>580.66</ele>
        <time>2015-06-20T17:28:47Z</time>
      </trkpt>
      <trkpt lat="36.544111" lon="-5.480463">
        <ele>580.91</ele>
        <time>2015-06-20T17:28:50Z</time>
      </trkpt>
      <trkpt lat="36.544126" lon="-5.480453">
        <ele>580.72</ele>
        <time>2015-06-20T17:28:51Z</time>
      </trkpt>
      <trkpt lat="36.544155" lon="-5.480447">
        <ele>580.11</ele>
        <time>2015-06-20T17:28:53Z</time>
      </trkpt>
      <trkpt lat="36.544184" lon="-5.480468">
        <ele>579.27</ele>
        <time>2015-06-20T17:28:55Z</time>
      </trkpt>
      <trkpt lat="36.544228" lon="-5.480519">
        <ele>577.96</ele>
        <time>2015-06-20T17:28:58Z</time>
      </trkpt>
      <trkpt lat="36.544274" lon="-5.480627">
        <ele>575.57</ele>
        <time>2015-06-20T17:29:02Z</time>
      </trkpt>
      <trkpt lat="36.544318" lon="-5.480725">
        <ele>573.78</ele>
        <time>2015-06-20T17:29:07Z</time>
      </trkpt>
      <trkpt lat="36.544372" lon="-5.480892">
        <ele>571.10</ele>
        <time>2015-06-20T17:29:15Z</time>
      </trkpt>
      <trkpt lat="36.544477" lon="-5.481017">
        <ele>569.53</ele>
        <time>2015-06-20T17:29:23Z</time>
      </trkpt>
      <trkpt lat="36.544539" lon="-5.481055">
        <ele>569.69</ele>
        <time>2015-06-20T17:29:28Z</time>
      </trkpt>
      <trkpt lat="36.544555" lon="-5.481061">
        <ele>569.72</ele>
        <time>2015-06-20T17:29:29Z</time>
      </trkpt>
      <trkpt lat="36.544571" lon="-5.481067">
        <ele>569.85</ele>
        <time>2015-06-20T17:29:30Z</time>
      </trkpt>
      <trkpt lat="36.544590" lon="-5.481073">
        <ele>569.95</ele>
        <time>2015-06-20T17:29:31Z</time>
      </trkpt>
      <trkpt lat="36.544605" lon="-5.481077">
        <ele>570.01</ele>
        <time>2015-06-20T17:29:32Z</time>
      </trkpt>
      <trkpt lat="36.544625" lon="-5.481081">
        <ele>570.21</ele>
        <time>2015-06-20T17:29:33Z</time>
      </trkpt>
      <trkpt lat="36.544641" lon="-5.481088">
        <ele>570.39</ele>
        <time>2015-06-20T17:29:34Z</time>
      </trkpt>
      <trkpt lat="36.544745" lon="-5.481119">
        <ele>571.09</ele>
        <time>2015-06-20T17:29:40Z</time>
      </trkpt>
      <trkpt lat="36.544865" lon="-5.481153">
        <ele>571.35</ele>
        <time>2015-06-20T17:29:46Z</time>
      </trkpt>
      <trkpt lat="36.544887" lon="-5.481156">
        <ele>571.53</ele>
        <time>2015-06-20T17:29:47Z</time>
      </trkpt>
      <trkpt lat="36.544909" lon="-5.481163">
        <ele>571.58</ele>
        <time>2015-06-20T17:29:48Z</time>
      </trkpt>
      <trkpt lat="36.544929" lon="-5.481168">
        <ele>571.66</ele>
        <time>2015-06-20T17:29:49Z</time>
      </trkpt>
      <trkpt lat="36.544948" lon="-5.481169">
        <ele>571.88</ele>
        <time>2015-06-20T17:29:50Z</time>
      </trkpt>
      <trkpt lat="36.545050" lon="-5.481194">
        <ele>572.02</ele>
        <time>2015-06-20T17:29:55Z</time>
      </trkpt>
      <trkpt lat="36.545085" lon="-5.481205">
        <ele>572.03</ele>
        <time>2015-06-20T17:29:57Z</time>
      </trkpt>
      <trkpt lat="36.545140" lon="-5.481226">
        <ele>571.99</ele>
        <time>2015-06-20T17:30:01Z</time>
      </trkpt>
      <trkpt lat="36.545168" lon="-5.481235">
        <ele>571.91</ele>
        <time>2015-06-20T17:30:03Z</time>
      </trkpt>
      <trkpt lat="36.545182" lon="-5.481236">
        <ele>572.01</ele>
        <time>2015-06-20T17:30:04Z</time>
      </trkpt>
      <trkpt lat="36.545195" lon="-5.481237">
        <ele>572.16</ele>
        <time>2015-06-20T17:30:05Z</time>
      </trkpt>
      <trkpt lat="36.545209" lon="-5.481244">
        <ele>572.09</ele>
        <time>2015-06-20T17:30:06Z</time>
      </trkpt>
      <trkpt lat="36.545221" lon="-5.481254">
        <ele>571.95</ele>
        <time>2015-06-20T17:30:07Z</time>
      </trkpt>
      <trkpt lat="36.545260" lon="-5.481274">
        <ele>571.76</ele>
        <time>2015-06-20T17:30:10Z</time>
      </trkpt>
      <trkpt lat="36.545308" lon="-5.481293">
        <ele>571.75</ele>
        <time>2015-06-20T17:30:13Z</time>
      </trkpt>
      <trkpt lat="36.545362" lon="-5.481302">
        <ele>571.91</ele>
        <time>2015-06-20T17:30:16Z</time>
      </trkpt>
      <trkpt lat="36.545381" lon="-5.481305">
        <ele>572.02</ele>
        <time>2015-06-20T17:30:17Z</time>
      </trkpt>
      <trkpt lat="36.545399" lon="-5.481307">
        <ele>572.19</ele>
        <time>2015-06-20T17:30:18Z</time>
      </trkpt>
      <trkpt lat="36.545419" lon="-5.481303">
        <ele>572.31</ele>
        <time>2015-06-20T17:30:19Z</time>
      </trkpt>
      <trkpt lat="36.545437" lon="-5.481302">
        <ele>572.55</ele>
        <time>2015-06-20T17:30:20Z</time>
      </trkpt>
      <trkpt lat="36.545523" lon="-5.481289">
        <ele>573.61</ele>
        <time>2015-06-20T17:30:26Z</time>
      </trkpt>
      <trkpt lat="36.545540" lon="-5.481283">
        <ele>573.91</ele>
        <time>2015-06-20T17:30:27Z</time>
      </trkpt>
      <trkpt lat="36.545554" lon="-5.481286">
        <ele>574.01</ele>
        <time>2015-06-20T17:30:28Z</time>
      </trkpt>
      <trkpt lat="36.545568" lon="-5.481284">
        <ele>574.03</ele>
        <time>2015-06-20T17:30:29Z</time>
      </trkpt>
      <trkpt lat="36.545579" lon="-5.481278">
        <ele>574.14</ele>
        <time>2015-06-20T17:30:30Z</time>
      </trkpt>
      <trkpt lat="36.545593" lon="-5.481270">
        <ele>574.37</ele>
        <time>2015-06-20T17:30:31Z</time>
      </trkpt>
      <trkpt lat="36.545688" lon="-5.481201">
        <ele>576.35</ele>
        <time>2015-06-20T17:30:38Z</time>
      </trkpt>
      <trkpt lat="36.545738" lon="-5.481114">
        <ele>578.93</ele>
        <time>2015-06-20T17:30:43Z</time>
      </trkpt>
      <trkpt lat="36.545747" lon="-5.481096">
        <ele>579.46</ele>
        <time>2015-06-20T17:30:44Z</time>
      </trkpt>
      <trkpt lat="36.545757" lon="-5.481081">
        <ele>579.86</ele>
        <time>2015-06-20T17:30:45Z</time>
      </trkpt>
      <trkpt lat="36.545765" lon="-5.481065">
        <ele>580.25</ele>
        <time>2015-06-20T17:30:46Z</time>
      </trkpt>
      <trkpt lat="36.545774" lon="-5.481050">
        <ele>580.66</ele>
        <time>2015-06-20T17:30:47Z</time>
      </trkpt>
      <trkpt lat="36.545804" lon="-5.481013">
        <ele>581.51</ele>
        <time>2015-06-20T17:30:50Z</time>
      </trkpt>
      <trkpt lat="36.545855" lon="-5.480936">
        <ele>583.01</ele>
        <time>2015-06-20T17:30:56Z</time>
      </trkpt>
      <trkpt lat="36.545872" lon="-5.480897">
        <ele>583.85</ele>
        <time>2015-06-20T17:30:59Z</time>
      </trkpt>
      <trkpt lat="36.545880" lon="-5.480883">
        <ele>584.09</ele>
        <time>2015-06-20T17:31:00Z</time>
      </trkpt>
      <trkpt lat="36.545891" lon="-5.480869">
        <ele>584.29</ele>
        <time>2015-06-20T17:31:01Z</time>
      </trkpt>
      <trkpt lat="36.545905" lon="-5.480855">
        <ele>584.42</ele>
        <time>2015-06-20T17:31:02Z</time>
      </trkpt>
      <trkpt lat="36.545917" lon="-5.480840">
        <ele>584.70</ele>
        <time>2015-06-20T17:31:03Z</time>
      </trkpt>
      <trkpt lat="36.545950" lon="-5.480783">
        <ele>585.65</ele>
        <time>2015-06-20T17:31:07Z</time>
      </trkpt>
      <trkpt lat="36.545989" lon="-5.480753">
        <ele>585.88</ele>
        <time>2015-06-20T17:31:10Z</time>
      </trkpt>
      <trkpt lat="36.546000" lon="-5.480743">
        <ele>585.91</ele>
        <time>2015-06-20T17:31:11Z</time>
      </trkpt>
      <trkpt lat="36.546014" lon="-5.480735">
        <ele>586.09</ele>
        <time>2015-06-20T17:31:12Z</time>
      </trkpt>
      <trkpt lat="36.546027" lon="-5.480728">
        <ele>586.06</ele>
        <time>2015-06-20T17:31:13Z</time>
      </trkpt>
      <trkpt lat="36.546040" lon="-5.480723">
        <ele>586.02</ele>
        <time>2015-06-20T17:31:14Z</time>
      </trkpt>
      <trkpt lat="36.546098" lon="-5.480692">
        <ele>586.21</ele>
        <time>2015-06-20T17:31:19Z</time>
      </trkpt>
      <trkpt lat="36.546193" lon="-5.480667">
        <ele>586.61</ele>
        <time>2015-06-20T17:31:25Z</time>
      </trkpt>
      <trkpt lat="36.546281" lon="-5.480657">
        <ele>586.65</ele>
        <time>2015-06-20T17:31:30Z</time>
      </trkpt>
      <trkpt lat="36.546302" lon="-5.480651">
        <ele>586.88</ele>
        <time>2015-06-20T17:31:31Z</time>
      </trkpt>
      <trkpt lat="36.546321" lon="-5.480645">
        <ele>586.94</ele>
        <time>2015-06-20T17:31:32Z</time>
      </trkpt>
      <trkpt lat="36.546337" lon="-5.480641">
        <ele>587.04</ele>
        <time>2015-06-20T17:31:33Z</time>
      </trkpt>
      <trkpt lat="36.546347" lon="-5.480643">
        <ele>586.99</ele>
        <time>2015-06-20T17:31:34Z</time>
      </trkpt>
      <trkpt lat="36.546385" lon="-5.480644">
        <ele>586.83</ele>
        <time>2015-06-20T17:31:37Z</time>
      </trkpt>
      <trkpt lat="36.546472" lon="-5.480635">
        <ele>585.84</ele>
        <time>2015-06-20T17:31:43Z</time>
      </trkpt>
      <trkpt lat="36.546571" lon="-5.480575">
        <ele>586.19</ele>
        <time>2015-06-20T17:31:50Z</time>
      </trkpt>
      <trkpt lat="36.546582" lon="-5.480560">
        <ele>586.48</ele>
        <time>2015-06-20T17:31:51Z</time>
      </trkpt>
      <trkpt lat="36.546591" lon="-5.480545">
        <ele>586.72</ele>
        <time>2015-06-20T17:31:52Z</time>
      </trkpt>
      <trkpt lat="36.546594" lon="-5.480530">
        <ele>587.21</ele>
        <time>2015-06-20T17:31:53Z</time>
      </trkpt>
      <trkpt lat="36.546597" lon="-5.480511">
        <ele>587.83</ele>
        <time>2015-06-20T17:31:54Z</time>
      </trkpt>
      <trkpt lat="36.546604" lon="-5.480477">
        <ele>588.93</ele>
        <time>2015-06-20T17:31:56Z</time>
      </trkpt>
      <trkpt lat="36.546656" lon="-5.480362">
        <ele>592.12</ele>
        <time>2015-06-20T17:32:02Z</time>
      </trkpt>
      <trkpt lat="36.546686" lon="-5.480304">
        <ele>593.49</ele>
        <time>2015-06-20T17:32:05Z</time>
      </trkpt>
      <trkpt lat="36.546695" lon="-5.480284">
        <ele>593.88</ele>
        <time>2015-06-20T17:32:06Z</time>
      </trkpt>
      <trkpt lat="36.546707" lon="-5.480270">
        <ele>593.78</ele>
        <time>2015-06-20T17:32:07Z</time>
      </trkpt>
      <trkpt lat="36.546715" lon="-5.480253">
        <ele>593.90</ele>
        <time>2015-06-20T17:32:08Z</time>
      </trkpt>
      <trkpt lat="36.546726" lon="-5.480236">
        <ele>593.86</ele>
        <time>2015-06-20T17:32:09Z</time>
      </trkpt>
      <trkpt lat="36.546730" lon="-5.480214">
        <ele>594.19</ele>
        <time>2015-06-20T17:32:10Z</time>
      </trkpt>
      <trkpt lat="36.546767" lon="-5.480121">
        <ele>594.82</ele>
        <time>2015-06-20T17:32:15Z</time>
      </trkpt>
      <trkpt lat="36.546789" lon="-5.480065">
        <ele>595.23</ele>
        <time>2015-06-20T17:32:21Z</time>
      </trkpt>
      <trkpt lat="36.546789" lon="-5.480065">
        <ele>595.21</ele>
        <time>2015-06-20T17:32:31Z</time>
      </trkpt>
      <trkpt lat="36.546789" lon="-5.480065">
        <ele>595.29</ele>
        <time>2015-06-20T17:32:34Z</time>
      </trkpt>
      <trkpt lat="36.546789" lon="-5.480065">
        <ele>595.25</ele>
        <time>2015-06-20T17:32:37Z</time>
      </trkpt>
      <trkpt lat="36.546789" lon="-5.480065">
        <ele>595.29</ele>
        <time>2015-06-20T17:32:40Z</time>
      </trkpt>
      <trkpt lat="36.546789" lon="-5.480065">
        <ele>595.26</ele>
        <time>2015-06-20T17:32:44Z</time>
      </trkpt>
      <trkpt lat="36.546789" lon="-5.480065">
        <ele>595.29</ele>
        <time>2015-06-20T17:32:45Z</time>
      </trkpt>
      <trkpt lat="36.546789" lon="-5.480065">
        <ele>595.30</ele>
        <time>2015-06-20T17:32:46Z</time>
      </trkpt>
      <trkpt lat="36.546789" lon="-5.480065">
        <ele>595.22</ele>
        <time>2015-06-20T17:32:47Z</time>
      </trkpt>
      <trkpt lat="36.546789" lon="-5.480065">
        <ele>595.26</ele>
        <time>2015-06-20T17:32:48Z</time>
      </trkpt>
      <trkpt lat="36.546789" lon="-5.480065">
        <ele>595.21</ele>
        <time>2015-06-20T17:32:58Z</time>
      </trkpt>
      <trkpt lat="36.546791" lon="-5.480066">
        <ele>595.15</ele>
        <time>2015-06-20T17:33:11Z</time>
      </trkpt>
      <trkpt lat="36.546791" lon="-5.480066">
        <ele>595.11</ele>
        <time>2015-06-20T17:33:26Z</time>
      </trkpt>
      <trkpt lat="36.546790" lon="-5.480053">
        <ele>595.41</ele>
        <time>2015-06-20T17:33:36Z</time>
      </trkpt>
      <trkpt lat="36.546794" lon="-5.480031">
        <ele>595.79</ele>
        <time>2015-06-20T17:33:38Z</time>
      </trkpt>
      <trkpt lat="36.546791" lon="-5.480003">
        <ele>596.54</ele>
        <time>2015-06-20T17:33:42Z</time>
      </trkpt>
      <trkpt lat="36.546791" lon="-5.480003">
        <ele>596.58</ele>
        <time>2015-06-20T17:33:46Z</time>
      </trkpt>
      <trkpt lat="36.546785" lon="-5.479950">
        <ele>597.90</ele>
        <time>2015-06-20T17:33:50Z</time>
      </trkpt>
      <trkpt lat="36.546798" lon="-5.479834">
        <ele>599.89</ele>
        <time>2015-06-20T17:33:56Z</time>
      </trkpt>
      <trkpt lat="36.546805" lon="-5.479814">
        <ele>600.06</ele>
        <time>2015-06-20T17:33:57Z</time>
      </trkpt>
      <trkpt lat="36.546870" lon="-5.479741">
        <ele>600.15</ele>
        <time>2015-06-20T17:34:02Z</time>
      </trkpt>
      <trkpt lat="36.546937" lon="-5.479717">
        <ele>599.32</ele>
        <time>2015-06-20T17:34:07Z</time>
      </trkpt>
      <trkpt lat="36.546987" lon="-5.479688">
        <ele>598.89</ele>
        <time>2015-06-20T17:34:10Z</time>
      </trkpt>
      <trkpt lat="36.547006" lon="-5.479681">
        <ele>598.54</ele>
        <time>2015-06-20T17:34:11Z</time>
      </trkpt>
      <trkpt lat="36.547023" lon="-5.479671">
        <ele>598.43</ele>
        <time>2015-06-20T17:34:12Z</time>
      </trkpt>
      <trkpt lat="36.547039" lon="-5.479659">
        <ele>598.21</ele>
        <time>2015-06-20T17:34:13Z</time>
      </trkpt>
      <trkpt lat="36.547053" lon="-5.479656">
        <ele>598.09</ele>
        <time>2015-06-20T17:34:14Z</time>
      </trkpt>
      <trkpt lat="36.547105" lon="-5.479620">
        <ele>597.59</ele>
        <time>2015-06-20T17:34:18Z</time>
      </trkpt>
      <trkpt lat="36.547111" lon="-5.479606">
        <ele>597.77</ele>
        <time>2015-06-20T17:34:19Z</time>
      </trkpt>
      <trkpt lat="36.547146" lon="-5.479563">
        <ele>597.77</ele>
        <time>2015-06-20T17:34:24Z</time>
      </trkpt>
      <trkpt lat="36.547147" lon="-5.479550">
        <ele>597.96</ele>
        <time>2015-06-20T17:34:25Z</time>
      </trkpt>
      <trkpt lat="36.547154" lon="-5.479538">
        <ele>598.06</ele>
        <time>2015-06-20T17:34:26Z</time>
      </trkpt>
      <trkpt lat="36.547164" lon="-5.479526">
        <ele>597.92</ele>
        <time>2015-06-20T17:34:27Z</time>
      </trkpt>
      <trkpt lat="36.547167" lon="-5.479511">
        <ele>598.13</ele>
        <time>2015-06-20T17:34:28Z</time>
      </trkpt>
      <trkpt lat="36.547170" lon="-5.479493">
        <ele>598.47</ele>
        <time>2015-06-20T17:34:29Z</time>
      </trkpt>
      <trkpt lat="36.547184" lon="-5.479464">
        <ele>598.68</ele>
        <time>2015-06-20T17:34:31Z</time>
      </trkpt>
      <trkpt lat="36.547209" lon="-5.479416">
        <ele>598.81</ele>
        <time>2015-06-20T17:34:35Z</time>
      </trkpt>
      <trkpt lat="36.547224" lon="-5.479369">
        <ele>599.31</ele>
        <time>2015-06-20T17:34:38Z</time>
      </trkpt>
      <trkpt lat="36.547229" lon="-5.479350">
        <ele>599.62</ele>
        <time>2015-06-20T17:34:39Z</time>
      </trkpt>
      <trkpt lat="36.547226" lon="-5.479330">
        <ele>600.03</ele>
        <time>2015-06-20T17:34:40Z</time>
      </trkpt>
      <trkpt lat="36.547223" lon="-5.479311">
        <ele>600.50</ele>
        <time>2015-06-20T17:34:41Z</time>
      </trkpt>
      <trkpt lat="36.547226" lon="-5.479189">
        <ele>602.55</ele>
        <time>2015-06-20T17:34:48Z</time>
      </trkpt>
      <trkpt lat="36.547227" lon="-5.479083">
        <ele>605.02</ele>
        <time>2015-06-20T17:34:54Z</time>
      </trkpt>
      <trkpt lat="36.547231" lon="-5.479068">
        <ele>605.36</ele>
        <time>2015-06-20T17:34:55Z</time>
      </trkpt>
      <trkpt lat="36.547235" lon="-5.479048">
        <ele>605.77</ele>
        <time>2015-06-20T17:34:56Z</time>
      </trkpt>
      <trkpt lat="36.547239" lon="-5.479029">
        <ele>606.19</ele>
        <time>2015-06-20T17:34:57Z</time>
      </trkpt>
      <trkpt lat="36.547245" lon="-5.479011">
        <ele>606.45</ele>
        <time>2015-06-20T17:34:58Z</time>
      </trkpt>
      <trkpt lat="36.547253" lon="-5.479000">
        <ele>606.50</ele>
        <time>2015-06-20T17:34:59Z</time>
      </trkpt>
      <trkpt lat="36.547260" lon="-5.478984">
        <ele>606.71</ele>
        <time>2015-06-20T17:35:00Z</time>
      </trkpt>
      <trkpt lat="36.547269" lon="-5.478973">
        <ele>606.81</ele>
        <time>2015-06-20T17:35:01Z</time>
      </trkpt>
      <trkpt lat="36.547315" lon="-5.478900">
        <ele>607.43</ele>
        <time>2015-06-20T17:35:06Z</time>
      </trkpt>
      <trkpt lat="36.547394" lon="-5.478832">
        <ele>607.21</ele>
        <time>2015-06-20T17:35:12Z</time>
      </trkpt>
      <trkpt lat="36.547404" lon="-5.478819">
        <ele>607.32</ele>
        <time>2015-06-20T17:35:13Z</time>
      </trkpt>
      <trkpt lat="36.547438" lon="-5.478784">
        <ele>607.37</ele>
        <time>2015-06-20T17:35:16Z</time>
      </trkpt>
      <trkpt lat="36.547446" lon="-5.478769">
        <ele>607.53</ele>
        <time>2015-06-20T17:35:17Z</time>
      </trkpt>
      <trkpt lat="36.547453" lon="-5.478755">
        <ele>607.63</ele>
        <time>2015-06-20T17:35:18Z</time>
      </trkpt>
      <trkpt lat="36.547464" lon="-5.478739">
        <ele>607.84</ele>
        <time>2015-06-20T17:35:19Z</time>
      </trkpt>
      <trkpt lat="36.547473" lon="-5.478723">
        <ele>607.97</ele>
        <time>2015-06-20T17:35:20Z</time>
      </trkpt>
      <trkpt lat="36.547540" lon="-5.478599">
        <ele>609.13</ele>
        <time>2015-06-20T17:35:27Z</time>
      </trkpt>
      <trkpt lat="36.547574" lon="-5.478540">
        <ele>609.89</ele>
        <time>2015-06-20T17:35:30Z</time>
      </trkpt>
      <trkpt lat="36.547585" lon="-5.478522">
        <ele>610.01</ele>
        <time>2015-06-20T17:35:31Z</time>
      </trkpt>
      <trkpt lat="36.547597" lon="-5.478507">
        <ele>610.11</ele>
        <time>2015-06-20T17:35:32Z</time>
      </trkpt>
      <trkpt lat="36.547607" lon="-5.478492">
        <ele>610.25</ele>
        <time>2015-06-20T17:35:33Z</time>
      </trkpt>
      <trkpt lat="36.547620" lon="-5.478480">
        <ele>610.21</ele>
        <time>2015-06-20T17:35:34Z</time>
      </trkpt>
      <trkpt lat="36.547719" lon="-5.478383">
        <ele>609.62</ele>
        <time>2015-06-20T17:35:41Z</time>
      </trkpt>
      <trkpt lat="36.547811" lon="-5.478307">
        <ele>608.83</ele>
        <time>2015-06-20T17:35:47Z</time>
      </trkpt>
      <trkpt lat="36.547822" lon="-5.478291">
        <ele>609.02</ele>
        <time>2015-06-20T17:35:48Z</time>
      </trkpt>
      <trkpt lat="36.547832" lon="-5.478270">
        <ele>609.48</ele>
        <time>2015-06-20T17:35:49Z</time>
      </trkpt>
      <trkpt lat="36.547840" lon="-5.478248">
        <ele>609.81</ele>
        <time>2015-06-20T17:35:50Z</time>
      </trkpt>
      <trkpt lat="36.547842" lon="-5.478227">
        <ele>610.45</ele>
        <time>2015-06-20T17:35:51Z</time>
      </trkpt>
      <trkpt lat="36.547830" lon="-5.478185">
        <ele>612.03</ele>
        <time>2015-06-20T17:35:53Z</time>
      </trkpt>
      <trkpt lat="36.547775" lon="-5.478177">
        <ele>613.67</ele>
        <time>2015-06-20T17:35:59Z</time>
      </trkpt>
      <trkpt lat="36.547715" lon="-5.478244">
        <ele>613.81</ele>
        <time>2015-06-20T17:36:05Z</time>
      </trkpt>
      <trkpt lat="36.547711" lon="-5.478262">
        <ele>613.51</ele>
        <time>2015-06-20T17:36:06Z</time>
      </trkpt>
      <trkpt lat="36.547701" lon="-5.478274">
        <ele>613.54</ele>
        <time>2015-06-20T17:36:07Z</time>
      </trkpt>
      <trkpt lat="36.547692" lon="-5.478290">
        <ele>613.38</ele>
        <time>2015-06-20T17:36:08Z</time>
      </trkpt>
      <trkpt lat="36.547682" lon="-5.478301">
        <ele>613.49</ele>
        <time>2015-06-20T17:36:09Z</time>
      </trkpt>
      <trkpt lat="36.547667" lon="-5.478307">
        <ele>613.74</ele>
        <time>2015-06-20T17:36:10Z</time>
      </trkpt>
      <trkpt lat="36.547654" lon="-5.478316">
        <ele>614.08</ele>
        <time>2015-06-20T17:36:11Z</time>
      </trkpt>
      <trkpt lat="36.547581" lon="-5.478368">
        <ele>615.02</ele>
        <time>2015-06-20T17:36:17Z</time>
      </trkpt>
      <trkpt lat="36.547573" lon="-5.478377">
        <ele>615.08</ele>
        <time>2015-06-20T17:36:20Z</time>
      </trkpt>
      <trkpt lat="36.547564" lon="-5.478370">
        <ele>615.52</ele>
        <time>2015-06-20T17:36:21Z</time>
      </trkpt>
      <trkpt lat="36.547551" lon="-5.478376">
        <ele>615.87</ele>
        <time>2015-06-20T17:36:22Z</time>
      </trkpt>
      <trkpt lat="36.547512" lon="-5.478401">
        <ele>616.47</ele>
        <time>2015-06-20T17:36:25Z</time>
      </trkpt>
      <trkpt lat="36.547463" lon="-5.478434">
        <ele>616.61</ele>
        <time>2015-06-20T17:36:29Z</time>
      </trkpt>
      <trkpt lat="36.547418" lon="-5.478479">
        <ele>616.41</ele>
        <time>2015-06-20T17:36:33Z</time>
      </trkpt>
      <trkpt lat="36.547404" lon="-5.478488">
        <ele>616.49</ele>
        <time>2015-06-20T17:36:34Z</time>
      </trkpt>
      <trkpt lat="36.547394" lon="-5.478495">
        <ele>616.52</ele>
        <time>2015-06-20T17:36:35Z</time>
      </trkpt>
      <trkpt lat="36.547386" lon="-5.478505">
        <ele>616.43</ele>
        <time>2015-06-20T17:36:36Z</time>
      </trkpt>
      <trkpt lat="36.547373" lon="-5.478514">
        <ele>616.52</ele>
        <time>2015-06-20T17:36:37Z</time>
      </trkpt>
      <trkpt lat="36.547281" lon="-5.478595">
        <ele>616.74</ele>
        <time>2015-06-20T17:36:45Z</time>
      </trkpt>
      <trkpt lat="36.547232" lon="-5.478637">
        <ele>617.06</ele>
        <time>2015-06-20T17:36:49Z</time>
      </trkpt>
      <trkpt lat="36.547215" lon="-5.478642">
        <ele>617.39</ele>
        <time>2015-06-20T17:36:50Z</time>
      </trkpt>
      <trkpt lat="36.547202" lon="-5.478651">
        <ele>617.46</ele>
        <time>2015-06-20T17:36:51Z</time>
      </trkpt>
      <trkpt lat="36.547186" lon="-5.478664">
        <ele>617.58</ele>
        <time>2015-06-20T17:36:52Z</time>
      </trkpt>
      <trkpt lat="36.547170" lon="-5.478678">
        <ele>617.63</ele>
        <time>2015-06-20T17:36:53Z</time>
      </trkpt>
      <trkpt lat="36.547099" lon="-5.478732">
        <ele>618.12</ele>
        <time>2015-06-20T17:36:58Z</time>
      </trkpt>
      <trkpt lat="36.547013" lon="-5.478792">
        <ele>618.81</ele>
        <time>2015-06-20T17:37:04Z</time>
      </trkpt>
      <trkpt lat="36.546999" lon="-5.478800">
        <ele>619.09</ele>
        <time>2015-06-20T17:37:05Z</time>
      </trkpt>
      <trkpt lat="36.546984" lon="-5.478813">
        <ele>619.05</ele>
        <time>2015-06-20T17:37:06Z</time>
      </trkpt>
      <trkpt lat="36.546972" lon="-5.478824">
        <ele>619.14</ele>
        <time>2015-06-20T17:37:07Z</time>
      </trkpt>
      <trkpt lat="36.546956" lon="-5.478837">
        <ele>619.26</ele>
        <time>2015-06-20T17:37:08Z</time>
      </trkpt>
      <trkpt lat="36.546885" lon="-5.478898">
        <ele>619.40</ele>
        <time>2015-06-20T17:37:13Z</time>
      </trkpt>
      <trkpt lat="36.546779" lon="-5.478959">
        <ele>620.43</ele>
        <time>2015-06-20T17:37:20Z</time>
      </trkpt>
      <trkpt lat="36.546760" lon="-5.478966">
        <ele>620.71</ele>
        <time>2015-06-20T17:37:21Z</time>
      </trkpt>
      <trkpt lat="36.546742" lon="-5.478974">
        <ele>621.02</ele>
        <time>2015-06-20T17:37:22Z</time>
      </trkpt>
      <trkpt lat="36.546728" lon="-5.478983">
        <ele>621.14</ele>
        <time>2015-06-20T17:37:23Z</time>
      </trkpt>
      <trkpt lat="36.546717" lon="-5.478989">
        <ele>621.27</ele>
        <time>2015-06-20T17:37:24Z</time>
      </trkpt>
      <trkpt lat="36.546670" lon="-5.479011">
        <ele>621.82</ele>
        <time>2015-06-20T17:37:27Z</time>
      </trkpt>
      <trkpt lat="36.546580" lon="-5.479051">
        <ele>623.01</ele>
        <time>2015-06-20T17:37:33Z</time>
      </trkpt>
      <trkpt lat="36.546549" lon="-5.479065">
        <ele>623.41</ele>
        <time>2015-06-20T17:37:35Z</time>
      </trkpt>
      <trkpt lat="36.546534" lon="-5.479069">
        <ele>623.68</ele>
        <time>2015-06-20T17:37:36Z</time>
      </trkpt>
      <trkpt lat="36.546518" lon="-5.479074">
        <ele>623.92</ele>
        <time>2015-06-20T17:37:37Z</time>
      </trkpt>
      <trkpt lat="36.546505" lon="-5.479081">
        <ele>624.16</ele>
        <time>2015-06-20T17:37:38Z</time>
      </trkpt>
      <trkpt lat="36.546494" lon="-5.479090">
        <ele>624.12</ele>
        <time>2015-06-20T17:37:39Z</time>
      </trkpt>
      <trkpt lat="36.546480" lon="-5.479097">
        <ele>624.32</ele>
        <time>2015-06-20T17:37:40Z</time>
      </trkpt>
      <trkpt lat="36.546388" lon="-5.479142">
        <ele>625.52</ele>
        <time>2015-06-20T17:37:47Z</time>
      </trkpt>
      <trkpt lat="36.546334" lon="-5.479183">
        <ele>625.64</ele>
        <time>2015-06-20T17:37:52Z</time>
      </trkpt>
      <trkpt lat="36.546318" lon="-5.479190">
        <ele>625.90</ele>
        <time>2015-06-20T17:37:53Z</time>
      </trkpt>
      <trkpt lat="36.546303" lon="-5.479199">
        <ele>625.82</ele>
        <time>2015-06-20T17:37:54Z</time>
      </trkpt>
      <trkpt lat="36.546289" lon="-5.479205">
        <ele>625.93</ele>
        <time>2015-06-20T17:37:55Z</time>
      </trkpt>
      <trkpt lat="36.546276" lon="-5.479217">
        <ele>625.91</ele>
        <time>2015-06-20T17:37:56Z</time>
      </trkpt>
      <trkpt lat="36.546206" lon="-5.479254">
        <ele>626.21</ele>
        <time>2015-06-20T17:38:01Z</time>
      </trkpt>
      <trkpt lat="36.546176" lon="-5.479281">
        <ele>626.04</ele>
        <time>2015-06-20T17:38:04Z</time>
      </trkpt>
      <trkpt lat="36.546163" lon="-5.479293">
        <ele>626.02</ele>
        <time>2015-06-20T17:38:05Z</time>
      </trkpt>
      <trkpt lat="36.546155" lon="-5.479306">
        <ele>625.84</ele>
        <time>2015-06-20T17:38:06Z</time>
      </trkpt>
      <trkpt lat="36.546147" lon="-5.479315">
        <ele>625.77</ele>
        <time>2015-06-20T17:38:07Z</time>
      </trkpt>
      <trkpt lat="36.546137" lon="-5.479315">
        <ele>625.87</ele>
        <time>2015-06-20T17:38:08Z</time>
      </trkpt>
      <trkpt lat="36.546085" lon="-5.479265">
        <ele>627.76</ele>
        <time>2015-06-20T17:38:13Z</time>
      </trkpt>
      <trkpt lat="36.546065" lon="-5.479215">
        <ele>629.12</ele>
        <time>2015-06-20T17:38:16Z</time>
      </trkpt>
      <trkpt lat="36.546074" lon="-5.479172">
        <ele>630.12</ele>
        <time>2015-06-20T17:38:19Z</time>
      </trkpt>
      <trkpt lat="36.546107" lon="-5.479130">
        <ele>630.81</ele>
        <time>2015-06-20T17:38:23Z</time>
      </trkpt>
      <trkpt lat="36.546116" lon="-5.479121">
        <ele>630.92</ele>
        <time>2015-06-20T17:38:24Z</time>
      </trkpt>
      <trkpt lat="36.546121" lon="-5.479109">
        <ele>631.11</ele>
        <time>2015-06-20T17:38:25Z</time>
      </trkpt>
      <trkpt lat="36.546124" lon="-5.479093">
        <ele>631.48</ele>
        <time>2015-06-20T17:38:26Z</time>
      </trkpt>
      <trkpt lat="36.546150" lon="-5.479069">
        <ele>631.42</ele>
        <time>2015-06-20T17:38:28Z</time>
      </trkpt>
      <trkpt lat="36.546159" lon="-5.479061">
        <ele>631.43</ele>
        <time>2015-06-20T17:38:29Z</time>
      </trkpt>
      <trkpt lat="36.546232" lon="-5.478994">
        <ele>631.65</ele>
        <time>2015-06-20T17:38:36Z</time>
      </trkpt>
      <trkpt lat="36.546275" lon="-5.478948">
        <ele>631.87</ele>
        <time>2015-06-20T17:38:40Z</time>
      </trkpt>
      <trkpt lat="36.546288" lon="-5.478938">
        <ele>631.82</ele>
        <time>2015-06-20T17:38:41Z</time>
      </trkpt>
      <trkpt lat="36.546300" lon="-5.478931">
        <ele>631.80</ele>
        <time>2015-06-20T17:38:42Z</time>
      </trkpt>
      <trkpt lat="36.546308" lon="-5.478918">
        <ele>631.88</ele>
        <time>2015-06-20T17:38:43Z</time>
      </trkpt>
      <trkpt lat="36.546321" lon="-5.478910">
        <ele>631.82</ele>
        <time>2015-06-20T17:38:44Z</time>
      </trkpt>
      <trkpt lat="36.546379" lon="-5.478860">
        <ele>632.01</ele>
        <time>2015-06-20T17:38:49Z</time>
      </trkpt>
      <trkpt lat="36.546449" lon="-5.478823">
        <ele>631.62</ele>
        <time>2015-06-20T17:38:55Z</time>
      </trkpt>
      <trkpt lat="36.546461" lon="-5.478811">
        <ele>631.71</ele>
        <time>2015-06-20T17:38:56Z</time>
      </trkpt>
      <trkpt lat="36.546476" lon="-5.478805">
        <ele>631.55</ele>
        <time>2015-06-20T17:38:57Z</time>
      </trkpt>
      <trkpt lat="36.546487" lon="-5.478798">
        <ele>631.60</ele>
        <time>2015-06-20T17:38:58Z</time>
      </trkpt>
      <trkpt lat="36.546501" lon="-5.478790">
        <ele>631.43</ele>
        <time>2015-06-20T17:38:59Z</time>
      </trkpt>
      <trkpt lat="36.546513" lon="-5.478783">
        <ele>631.44</ele>
        <time>2015-06-20T17:39:00Z</time>
      </trkpt>
      <trkpt lat="36.546523" lon="-5.478768">
        <ele>631.61</ele>
        <time>2015-06-20T17:39:01Z</time>
      </trkpt>
      <trkpt lat="36.546533" lon="-5.478757">
        <ele>631.79</ele>
        <time>2015-06-20T17:39:02Z</time>
      </trkpt>
      <trkpt lat="36.546601" lon="-5.478654">
        <ele>633.25</ele>
        <time>2015-06-20T17:39:10Z</time>
      </trkpt>
      <trkpt lat="36.546608" lon="-5.478638">
        <ele>633.57</ele>
        <time>2015-06-20T17:39:11Z</time>
      </trkpt>
      <trkpt lat="36.546617" lon="-5.478622">
        <ele>633.82</ele>
        <time>2015-06-20T17:39:12Z</time>
      </trkpt>
      <trkpt lat="36.546626" lon="-5.478607">
        <ele>634.04</ele>
        <time>2015-06-20T17:39:13Z</time>
      </trkpt>
      <trkpt lat="36.546638" lon="-5.478591">
        <ele>634.30</ele>
        <time>2015-06-20T17:39:14Z</time>
      </trkpt>
      <trkpt lat="36.546670" lon="-5.478550">
        <ele>634.91</ele>
        <time>2015-06-20T17:39:17Z</time>
      </trkpt>
      <trkpt lat="36.546738" lon="-5.478457">
        <ele>635.97</ele>
        <time>2015-06-20T17:39:24Z</time>
      </trkpt>
      <trkpt lat="36.546749" lon="-5.478428">
        <ele>636.59</ele>
        <time>2015-06-20T17:39:26Z</time>
      </trkpt>
      <trkpt lat="36.546763" lon="-5.478399">
        <ele>636.92</ele>
        <time>2015-06-20T17:39:28Z</time>
      </trkpt>
      <trkpt lat="36.546771" lon="-5.478387">
        <ele>637.08</ele>
        <time>2015-06-20T17:39:29Z</time>
      </trkpt>
      <trkpt lat="36.546783" lon="-5.478372">
        <ele>637.16</ele>
        <time>2015-06-20T17:39:30Z</time>
      </trkpt>
      <trkpt lat="36.546796" lon="-5.478359">
        <ele>637.19</ele>
        <time>2015-06-20T17:39:31Z</time>
      </trkpt>
      <trkpt lat="36.546803" lon="-5.478344">
        <ele>637.37</ele>
        <time>2015-06-20T17:39:32Z</time>
      </trkpt>
      <trkpt lat="36.546843" lon="-5.478295">
        <ele>637.29</ele>
        <time>2015-06-20T17:39:36Z</time>
      </trkpt>
      <trkpt lat="36.546876" lon="-5.478239">
        <ele>637.47</ele>
        <time>2015-06-20T17:39:41Z</time>
      </trkpt>
      <trkpt lat="36.546890" lon="-5.478213">
        <ele>637.56</ele>
        <time>2015-06-20T17:39:43Z</time>
      </trkpt>
      <trkpt lat="36.546897" lon="-5.478200">
        <ele>637.62</ele>
        <time>2015-06-20T17:39:44Z</time>
      </trkpt>
      <trkpt lat="36.546901" lon="-5.478189">
        <ele>637.71</ele>
        <time>2015-06-20T17:39:45Z</time>
      </trkpt>
      <trkpt lat="36.546912" lon="-5.478177">
        <ele>637.66</ele>
        <time>2015-06-20T17:39:46Z</time>
      </trkpt>
      <trkpt lat="36.546913" lon="-5.478166">
        <ele>637.83</ele>
        <time>2015-06-20T17:39:47Z</time>
      </trkpt>
      <trkpt lat="36.546927" lon="-5.478140">
        <ele>637.82</ele>
        <time>2015-06-20T17:39:49Z</time>
      </trkpt>
      <trkpt lat="36.546935" lon="-5.478097">
        <ele>638.54</ele>
        <time>2015-06-20T17:39:53Z</time>
      </trkpt>
      <trkpt lat="36.546935" lon="-5.478099">
        <ele>638.45</ele>
        <time>2015-06-20T17:40:00Z</time>
      </trkpt>
      <trkpt lat="36.546935" lon="-5.478099">
        <ele>638.43</ele>
        <time>2015-06-20T17:40:05Z</time>
      </trkpt>
      <trkpt lat="36.546935" lon="-5.478099">
        <ele>638.45</ele>
        <time>2015-06-20T17:40:15Z</time>
      </trkpt>
      <trkpt lat="36.546935" lon="-5.478099">
        <ele>638.45</ele>
        <time>2015-06-20T17:40:18Z</time>
      </trkpt>
      <trkpt lat="36.546935" lon="-5.478099">
        <ele>638.45</ele>
        <time>2015-06-20T17:40:22Z</time>
      </trkpt>
      <trkpt lat="36.546935" lon="-5.478099">
        <ele>638.49</ele>
        <time>2015-06-20T17:40:26Z</time>
      </trkpt>
      <trkpt lat="36.546936" lon="-5.478099">
        <ele>638.42</ele>
        <time>2015-06-20T17:40:35Z</time>
      </trkpt>
      <trkpt lat="36.546936" lon="-5.478099">
        <ele>638.41</ele>
        <time>2015-06-20T17:40:39Z</time>
      </trkpt>
      <trkpt lat="36.546948" lon="-5.478075">
        <ele>638.59</ele>
        <time>2015-06-20T17:40:47Z</time>
      </trkpt>
      <trkpt lat="36.546952" lon="-5.478056">
        <ele>638.85</ele>
        <time>2015-06-20T17:40:49Z</time>
      </trkpt>
      <trkpt lat="36.546957" lon="-5.478046">
        <ele>638.97</ele>
        <time>2015-06-20T17:40:50Z</time>
      </trkpt>
      <trkpt lat="36.546959" lon="-5.478035">
        <ele>639.13</ele>
        <time>2015-06-20T17:40:51Z</time>
      </trkpt>
      <trkpt lat="36.546967" lon="-5.478023">
        <ele>639.17</ele>
        <time>2015-06-20T17:40:52Z</time>
      </trkpt>
      <trkpt lat="36.546974" lon="-5.477997">
        <ele>639.48</ele>
        <time>2015-06-20T17:40:54Z</time>
      </trkpt>
      <trkpt lat="36.546981" lon="-5.477985">
        <ele>639.58</ele>
        <time>2015-06-20T17:40:55Z</time>
      </trkpt>
      <trkpt lat="36.546989" lon="-5.477927">
        <ele>640.42</ele>
        <time>2015-06-20T17:41:00Z</time>
      </trkpt>
      <trkpt lat="36.547004" lon="-5.477847">
        <ele>641.59</ele>
        <time>2015-06-20T17:41:06Z</time>
      </trkpt>
      <trkpt lat="36.546999" lon="-5.477819">
        <ele>642.11</ele>
        <time>2015-06-20T17:41:08Z</time>
      </trkpt>
      <trkpt lat="36.547012" lon="-5.477736">
        <ele>643.23</ele>
        <time>2015-06-20T17:41:16Z</time>
      </trkpt>
      <trkpt lat="36.547015" lon="-5.477725">
        <ele>643.31</ele>
        <time>2015-06-20T17:41:17Z</time>
      </trkpt>
      <trkpt lat="36.547018" lon="-5.477713">
        <ele>643.50</ele>
        <time>2015-06-20T17:41:18Z</time>
      </trkpt>
      <trkpt lat="36.547016" lon="-5.477701">
        <ele>643.64</ele>
        <time>2015-06-20T17:41:19Z</time>
      </trkpt>
      <trkpt lat="36.547016" lon="-5.477691">
        <ele>643.83</ele>
        <time>2015-06-20T17:41:20Z</time>
      </trkpt>
      <trkpt lat="36.547017" lon="-5.477678">
        <ele>644.04</ele>
        <time>2015-06-20T17:41:21Z</time>
      </trkpt>
      <trkpt lat="36.547023" lon="-5.477642">
        <ele>644.45</ele>
        <time>2015-06-20T17:41:24Z</time>
      </trkpt>
      <trkpt lat="36.547021" lon="-5.477628">
        <ele>644.76</ele>
        <time>2015-06-20T17:41:25Z</time>
      </trkpt>
      <trkpt lat="36.547035" lon="-5.477582">
        <ele>645.12</ele>
        <time>2015-06-20T17:41:30Z</time>
      </trkpt>
      <trkpt lat="36.547041" lon="-5.477519">
        <ele>646.10</ele>
        <time>2015-06-20T17:41:36Z</time>
      </trkpt>
      <trkpt lat="36.547041" lon="-5.477484">
        <ele>646.53</ele>
        <time>2015-06-20T17:41:39Z</time>
      </trkpt>
      <trkpt lat="36.547056" lon="-5.477378">
        <ele>647.96</ele>
        <time>2015-06-20T17:41:47Z</time>
      </trkpt>
      <trkpt lat="36.547067" lon="-5.477333">
        <ele>648.51</ele>
        <time>2015-06-20T17:41:51Z</time>
      </trkpt>
      <trkpt lat="36.547076" lon="-5.477310">
        <ele>648.71</ele>
        <time>2015-06-20T17:41:53Z</time>
      </trkpt>
      <trkpt lat="36.547079" lon="-5.477297">
        <ele>648.91</ele>
        <time>2015-06-20T17:41:54Z</time>
      </trkpt>
      <trkpt lat="36.547082" lon="-5.477290">
        <ele>648.94</ele>
        <time>2015-06-20T17:41:55Z</time>
      </trkpt>
      <trkpt lat="36.547087" lon="-5.477282">
        <ele>649.01</ele>
        <time>2015-06-20T17:41:56Z</time>
      </trkpt>
      <trkpt lat="36.547093" lon="-5.477274">
        <ele>649.02</ele>
        <time>2015-06-20T17:41:57Z</time>
      </trkpt>
      <trkpt lat="36.547111" lon="-5.477212">
        <ele>649.81</ele>
        <time>2015-06-20T17:42:03Z</time>
      </trkpt>
      <trkpt lat="36.547168" lon="-5.477132">
        <ele>650.88</ele>
        <time>2015-06-20T17:42:11Z</time>
      </trkpt>
      <trkpt lat="36.547172" lon="-5.477122">
        <ele>651.09</ele>
        <time>2015-06-20T17:42:12Z</time>
      </trkpt>
      <trkpt lat="36.547229" lon="-5.477074">
        <ele>651.15</ele>
        <time>2015-06-20T17:42:20Z</time>
      </trkpt>
      <trkpt lat="36.547230" lon="-5.477074">
        <ele>651.18</ele>
        <time>2015-06-20T17:42:21Z</time>
      </trkpt>
      <trkpt lat="36.547242" lon="-5.477068">
        <ele>651.14</ele>
        <time>2015-06-20T17:42:22Z</time>
      </trkpt>
      <trkpt lat="36.547248" lon="-5.477063">
        <ele>651.12</ele>
        <time>2015-06-20T17:42:23Z</time>
      </trkpt>
      <trkpt lat="36.547255" lon="-5.477058">
        <ele>651.11</ele>
        <time>2015-06-20T17:42:24Z</time>
      </trkpt>
      <trkpt lat="36.547280" lon="-5.477041">
        <ele>651.30</ele>
        <time>2015-06-20T17:42:27Z</time>
      </trkpt>
      <trkpt lat="36.547326" lon="-5.477020">
        <ele>651.14</ele>
        <time>2015-06-20T17:42:33Z</time>
      </trkpt>
      <trkpt lat="36.547395" lon="-5.476992">
        <ele>651.04</ele>
        <time>2015-06-20T17:42:42Z</time>
      </trkpt>
      <trkpt lat="36.547401" lon="-5.476987">
        <ele>651.16</ele>
        <time>2015-06-20T17:42:48Z</time>
      </trkpt>
      <trkpt lat="36.547410" lon="-5.476991">
        <ele>651.00</ele>
        <time>2015-06-20T17:42:49Z</time>
      </trkpt>
      <trkpt lat="36.547421" lon="-5.476989">
        <ele>650.82</ele>
        <time>2015-06-20T17:42:50Z</time>
      </trkpt>
      <trkpt lat="36.547433" lon="-5.476986">
        <ele>650.77</ele>
        <time>2015-06-20T17:42:51Z</time>
      </trkpt>
      <trkpt lat="36.547447" lon="-5.476980">
        <ele>650.75</ele>
        <time>2015-06-20T17:42:52Z</time>
      </trkpt>
      <trkpt lat="36.547498" lon="-5.476967">
        <ele>650.57</ele>
        <time>2015-06-20T17:42:56Z</time>
      </trkpt>
      <trkpt lat="36.547569" lon="-5.476932">
        <ele>650.18</ele>
        <time>2015-06-20T17:43:02Z</time>
      </trkpt>
      <trkpt lat="36.547659" lon="-5.476894">
        <ele>649.62</ele>
        <time>2015-06-20T17:43:09Z</time>
      </trkpt>
      <trkpt lat="36.547710" lon="-5.476870">
        <ele>649.41</ele>
        <time>2015-06-20T17:43:13Z</time>
      </trkpt>
      <trkpt lat="36.547723" lon="-5.476867">
        <ele>649.25</ele>
        <time>2015-06-20T17:43:14Z</time>
      </trkpt>
      <trkpt lat="36.547737" lon="-5.476859">
        <ele>649.26</ele>
        <time>2015-06-20T17:43:15Z</time>
      </trkpt>
      <trkpt lat="36.547749" lon="-5.476856">
        <ele>649.16</ele>
        <time>2015-06-20T17:43:16Z</time>
      </trkpt>
      <trkpt lat="36.547764" lon="-5.476849">
        <ele>649.08</ele>
        <time>2015-06-20T17:43:17Z</time>
      </trkpt>
      <trkpt lat="36.547825" lon="-5.476803">
        <ele>649.63</ele>
        <time>2015-06-20T17:43:23Z</time>
      </trkpt>
      <trkpt lat="36.547893" lon="-5.476765">
        <ele>650.19</ele>
        <time>2015-06-20T17:43:29Z</time>
      </trkpt>
      <trkpt lat="36.547905" lon="-5.476756">
        <ele>650.22</ele>
        <time>2015-06-20T17:43:30Z</time>
      </trkpt>
      <trkpt lat="36.547919" lon="-5.476751">
        <ele>650.28</ele>
        <time>2015-06-20T17:43:31Z</time>
      </trkpt>
      <trkpt lat="36.547929" lon="-5.476742">
        <ele>650.36</ele>
        <time>2015-06-20T17:43:32Z</time>
      </trkpt>
      <trkpt lat="36.547936" lon="-5.476733">
        <ele>650.50</ele>
        <time>2015-06-20T17:43:33Z</time>
      </trkpt>
      <trkpt lat="36.547946" lon="-5.476729">
        <ele>650.52</ele>
        <time>2015-06-20T17:43:34Z</time>
      </trkpt>
      <trkpt lat="36.547978" lon="-5.476709">
        <ele>650.71</ele>
        <time>2015-06-20T17:43:37Z</time>
      </trkpt>
      <trkpt lat="36.548030" lon="-5.476671">
        <ele>651.28</ele>
        <time>2015-06-20T17:43:42Z</time>
      </trkpt>
      <trkpt lat="36.548042" lon="-5.476665">
        <ele>651.26</ele>
        <time>2015-06-20T17:43:43Z</time>
      </trkpt>
      <trkpt lat="36.548056" lon="-5.476659">
        <ele>651.23</ele>
        <time>2015-06-20T17:43:44Z</time>
      </trkpt>
      <trkpt lat="36.548069" lon="-5.476652">
        <ele>651.17</ele>
        <time>2015-06-20T17:43:45Z</time>
      </trkpt>
      <trkpt lat="36.548079" lon="-5.476641">
        <ele>651.12</ele>
        <time>2015-06-20T17:43:46Z</time>
      </trkpt>
      <trkpt lat="36.548102" lon="-5.476609">
        <ele>651.45</ele>
        <time>2015-06-20T17:43:50Z</time>
      </trkpt>
      <trkpt lat="36.548141" lon="-5.476521">
        <ele>652.88</ele>
        <time>2015-06-20T17:43:56Z</time>
      </trkpt>
      <trkpt lat="36.548176" lon="-5.476454">
        <ele>653.82</ele>
        <time>2015-06-20T17:44:01Z</time>
      </trkpt>
      <trkpt lat="36.548170" lon="-5.476441">
        <ele>654.13</ele>
        <time>2015-06-20T17:44:02Z</time>
      </trkpt>
      <trkpt lat="36.548166" lon="-5.476428">
        <ele>654.56</ele>
        <time>2015-06-20T17:44:03Z</time>
      </trkpt>
      <trkpt lat="36.548161" lon="-5.476413">
        <ele>654.91</ele>
        <time>2015-06-20T17:44:04Z</time>
      </trkpt>
      <trkpt lat="36.548160" lon="-5.476398">
        <ele>655.31</ele>
        <time>2015-06-20T17:44:05Z</time>
      </trkpt>
      <trkpt lat="36.548134" lon="-5.476303">
        <ele>657.92</ele>
        <time>2015-06-20T17:44:11Z</time>
      </trkpt>
      <trkpt lat="36.548110" lon="-5.476238">
        <ele>659.95</ele>
        <time>2015-06-20T17:44:15Z</time>
      </trkpt>
      <trkpt lat="36.548105" lon="-5.476223">
        <ele>660.43</ele>
        <time>2015-06-20T17:44:16Z</time>
      </trkpt>
      <trkpt lat="36.548098" lon="-5.476207">
        <ele>660.98</ele>
        <time>2015-06-20T17:44:17Z</time>
      </trkpt>
      <trkpt lat="36.548090" lon="-5.476194">
        <ele>661.38</ele>
        <time>2015-06-20T17:44:18Z</time>
      </trkpt>
      <trkpt lat="36.548083" lon="-5.476181">
        <ele>661.87</ele>
        <time>2015-06-20T17:44:19Z</time>
      </trkpt>
      <trkpt lat="36.548024" lon="-5.476100">
        <ele>665.03</ele>
        <time>2015-06-20T17:44:25Z</time>
      </trkpt>
      <trkpt lat="36.548003" lon="-5.475968">
        <ele>669.36</ele>
        <time>2015-06-20T17:44:32Z</time>
      </trkpt>
      <trkpt lat="36.548007" lon="-5.475953">
        <ele>669.65</ele>
        <time>2015-06-20T17:44:33Z</time>
      </trkpt>
      <trkpt lat="36.548025" lon="-5.475893">
        <ele>670.90</ele>
        <time>2015-06-20T17:44:36Z</time>
      </trkpt>
      <trkpt lat="36.548031" lon="-5.475880">
        <ele>671.21</ele>
        <time>2015-06-20T17:44:37Z</time>
      </trkpt>
      <trkpt lat="36.548036" lon="-5.475862">
        <ele>671.61</ele>
        <time>2015-06-20T17:44:38Z</time>
      </trkpt>
      <trkpt lat="36.548042" lon="-5.475846">
        <ele>671.92</ele>
        <time>2015-06-20T17:44:39Z</time>
      </trkpt>
      <trkpt lat="36.548049" lon="-5.475829">
        <ele>672.33</ele>
        <time>2015-06-20T17:44:40Z</time>
      </trkpt>
      <trkpt lat="36.548106" lon="-5.475751">
        <ele>673.37</ele>
        <time>2015-06-20T17:44:45Z</time>
      </trkpt>
      <trkpt lat="36.548199" lon="-5.475680">
        <ele>673.91</ele>
        <time>2015-06-20T17:44:53Z</time>
      </trkpt>
      <trkpt lat="36.548215" lon="-5.475684">
        <ele>673.57</ele>
        <time>2015-06-20T17:44:54Z</time>
      </trkpt>
      <trkpt lat="36.548225" lon="-5.475684">
        <ele>673.44</ele>
        <time>2015-06-20T17:44:55Z</time>
      </trkpt>
      <trkpt lat="36.548236" lon="-5.475679">
        <ele>673.46</ele>
        <time>2015-06-20T17:44:56Z</time>
      </trkpt>
      <trkpt lat="36.548249" lon="-5.475676">
        <ele>673.34</ele>
        <time>2015-06-20T17:44:57Z</time>
      </trkpt>
      <trkpt lat="36.548260" lon="-5.475680">
        <ele>673.04</ele>
        <time>2015-06-20T17:44:58Z</time>
      </trkpt>
      <trkpt lat="36.548273" lon="-5.475675">
        <ele>673.01</ele>
        <time>2015-06-20T17:44:59Z</time>
      </trkpt>
      <trkpt lat="36.548317" lon="-5.475696">
        <ele>671.72</ele>
        <time>2015-06-20T17:45:04Z</time>
      </trkpt>
      <trkpt lat="36.548359" lon="-5.475722">
        <ele>670.31</ele>
        <time>2015-06-20T17:45:08Z</time>
      </trkpt>
      <trkpt lat="36.548362" lon="-5.475728">
        <ele>670.20</ele>
        <time>2015-06-20T17:45:09Z</time>
      </trkpt>
      <trkpt lat="36.548374" lon="-5.475731">
        <ele>669.91</ele>
        <time>2015-06-20T17:45:10Z</time>
      </trkpt>
      <trkpt lat="36.548384" lon="-5.475731">
        <ele>669.83</ele>
        <time>2015-06-20T17:45:11Z</time>
      </trkpt>
      <trkpt lat="36.548400" lon="-5.475734">
        <ele>669.59</ele>
        <time>2015-06-20T17:45:12Z</time>
      </trkpt>
      <trkpt lat="36.548456" lon="-5.475735">
        <ele>668.96</ele>
        <time>2015-06-20T17:45:16Z</time>
      </trkpt>
      <trkpt lat="36.548542" lon="-5.475726">
        <ele>668.25</ele>
        <time>2015-06-20T17:45:22Z</time>
      </trkpt>
      <trkpt lat="36.548553" lon="-5.475721">
        <ele>668.35</ele>
        <time>2015-06-20T17:45:23Z</time>
      </trkpt>
      <trkpt lat="36.548569" lon="-5.475720">
        <ele>668.13</ele>
        <time>2015-06-20T17:45:24Z</time>
      </trkpt>
      <trkpt lat="36.548588" lon="-5.475717">
        <ele>668.01</ele>
        <time>2015-06-20T17:45:25Z</time>
      </trkpt>
      <trkpt lat="36.548672" lon="-5.475674">
        <ele>669.32</ele>
        <time>2015-06-20T17:45:31Z</time>
      </trkpt>
      <trkpt lat="36.548685" lon="-5.475673">
        <ele>669.40</ele>
        <time>2015-06-20T17:45:32Z</time>
      </trkpt>
      <trkpt lat="36.548738" lon="-5.475657">
        <ele>670.01</ele>
        <time>2015-06-20T17:45:36Z</time>
      </trkpt>
      <trkpt lat="36.548752" lon="-5.475654">
        <ele>670.26</ele>
        <time>2015-06-20T17:45:37Z</time>
      </trkpt>
      <trkpt lat="36.548761" lon="-5.475650">
        <ele>670.35</ele>
        <time>2015-06-20T17:45:38Z</time>
      </trkpt>
      <trkpt lat="36.548766" lon="-5.475641">
        <ele>670.62</ele>
        <time>2015-06-20T17:45:39Z</time>
      </trkpt>
      <trkpt lat="36.548779" lon="-5.475633">
        <ele>670.84</ele>
        <time>2015-06-20T17:45:40Z</time>
      </trkpt>
      <trkpt lat="36.548789" lon="-5.475630">
        <ele>670.91</ele>
        <time>2015-06-20T17:45:41Z</time>
      </trkpt>
      <trkpt lat="36.548801" lon="-5.475628">
        <ele>671.04</ele>
        <time>2015-06-20T17:45:42Z</time>
      </trkpt>
      <trkpt lat="36.548811" lon="-5.475624">
        <ele>671.15</ele>
        <time>2015-06-20T17:45:43Z</time>
      </trkpt>
      <trkpt lat="36.548829" lon="-5.475614">
        <ele>671.43</ele>
        <time>2015-06-20T17:45:45Z</time>
      </trkpt>
      <trkpt lat="36.548846" lon="-5.475612">
        <ele>671.55</ele>
        <time>2015-06-20T17:45:46Z</time>
      </trkpt>
      <trkpt lat="36.548889" lon="-5.475610">
        <ele>671.60</ele>
        <time>2015-06-20T17:45:50Z</time>
      </trkpt>
      <trkpt lat="36.548922" lon="-5.475603">
        <ele>671.81</ele>
        <time>2015-06-20T17:45:53Z</time>
      </trkpt>
      <trkpt lat="36.548988" lon="-5.475596">
        <ele>671.91</ele>
        <time>2015-06-20T17:45:57Z</time>
      </trkpt>
      <trkpt lat="36.549001" lon="-5.475593">
        <ele>672.03</ele>
        <time>2015-06-20T17:45:58Z</time>
      </trkpt>
      <trkpt lat="36.549012" lon="-5.475593">
        <ele>672.09</ele>
        <time>2015-06-20T17:45:59Z</time>
      </trkpt>
      <trkpt lat="36.549023" lon="-5.475590">
        <ele>672.18</ele>
        <time>2015-06-20T17:46:00Z</time>
      </trkpt>
      <trkpt lat="36.549037" lon="-5.475586">
        <ele>672.21</ele>
        <time>2015-06-20T17:46:01Z</time>
      </trkpt>
      <trkpt lat="36.549052" lon="-5.475583">
        <ele>672.28</ele>
        <time>2015-06-20T17:46:02Z</time>
      </trkpt>
      <trkpt lat="36.549075" lon="-5.475579">
        <ele>672.45</ele>
        <time>2015-06-20T17:46:04Z</time>
      </trkpt>
      <trkpt lat="36.549170" lon="-5.475536">
        <ele>673.63</ele>
        <time>2015-06-20T17:46:12Z</time>
      </trkpt>
      <trkpt lat="36.549194" lon="-5.475518">
        <ele>673.98</ele>
        <time>2015-06-20T17:46:14Z</time>
      </trkpt>
      <trkpt lat="36.549203" lon="-5.475506">
        <ele>674.29</ele>
        <time>2015-06-20T17:46:15Z</time>
      </trkpt>
      <trkpt lat="36.549214" lon="-5.475496">
        <ele>674.41</ele>
        <time>2015-06-20T17:46:16Z</time>
      </trkpt>
      <trkpt lat="36.549222" lon="-5.475482">
        <ele>674.73</ele>
        <time>2015-06-20T17:46:17Z</time>
      </trkpt>
      <trkpt lat="36.549236" lon="-5.475472">
        <ele>674.91</ele>
        <time>2015-06-20T17:46:18Z</time>
      </trkpt>
      <trkpt lat="36.549301" lon="-5.475405">
        <ele>676.30</ele>
        <time>2015-06-20T17:46:24Z</time>
      </trkpt>
      <trkpt lat="36.549374" lon="-5.475318">
        <ele>677.84</ele>
        <time>2015-06-20T17:46:30Z</time>
      </trkpt>
      <trkpt lat="36.549413" lon="-5.475219">
        <ele>680.17</ele>
        <time>2015-06-20T17:46:36Z</time>
      </trkpt>
      <trkpt lat="36.549422" lon="-5.475201">
        <ele>680.53</ele>
        <time>2015-06-20T17:46:37Z</time>
      </trkpt>
      <trkpt lat="36.549432" lon="-5.475185">
        <ele>680.92</ele>
        <time>2015-06-20T17:46:38Z</time>
      </trkpt>
      <trkpt lat="36.549440" lon="-5.475165">
        <ele>681.32</ele>
        <time>2015-06-20T17:46:39Z</time>
      </trkpt>
      <trkpt lat="36.549451" lon="-5.475149">
        <ele>681.75</ele>
        <time>2015-06-20T17:46:40Z</time>
      </trkpt>
      <trkpt lat="36.549504" lon="-5.475085">
        <ele>683.60</ele>
        <time>2015-06-20T17:46:44Z</time>
      </trkpt>
      <trkpt lat="36.549555" lon="-5.475032">
        <ele>684.88</ele>
        <time>2015-06-20T17:46:49Z</time>
      </trkpt>
      <trkpt lat="36.549570" lon="-5.475024">
        <ele>685.02</ele>
        <time>2015-06-20T17:46:50Z</time>
      </trkpt>
      <trkpt lat="36.549638" lon="-5.475034">
        <ele>684.62</ele>
        <time>2015-06-20T17:46:54Z</time>
      </trkpt>
      <trkpt lat="36.549659" lon="-5.475041">
        <ele>684.41</ele>
        <time>2015-06-20T17:46:55Z</time>
      </trkpt>
      <trkpt lat="36.549675" lon="-5.475043">
        <ele>684.32</ele>
        <time>2015-06-20T17:46:56Z</time>
      </trkpt>
      <trkpt lat="36.549688" lon="-5.475049">
        <ele>684.26</ele>
        <time>2015-06-20T17:46:57Z</time>
      </trkpt>
      <trkpt lat="36.549694" lon="-5.475057">
        <ele>684.10</ele>
        <time>2015-06-20T17:46:58Z</time>
      </trkpt>
      <trkpt lat="36.549708" lon="-5.475055">
        <ele>684.02</ele>
        <time>2015-06-20T17:46:59Z</time>
      </trkpt>
      <trkpt lat="36.549733" lon="-5.475072">
        <ele>683.83</ele>
        <time>2015-06-20T17:47:01Z</time>
      </trkpt>
      <trkpt lat="36.549805" lon="-5.475140">
        <ele>683.16</ele>
        <time>2015-06-20T17:47:07Z</time>
      </trkpt>
      <trkpt lat="36.549831" lon="-5.475152">
        <ele>683.05</ele>
        <time>2015-06-20T17:47:09Z</time>
      </trkpt>
      <trkpt lat="36.549848" lon="-5.475152">
        <ele>683.17</ele>
        <time>2015-06-20T17:47:10Z</time>
      </trkpt>
      <trkpt lat="36.549861" lon="-5.475153">
        <ele>683.28</ele>
        <time>2015-06-20T17:47:11Z</time>
      </trkpt>
      <trkpt lat="36.549873" lon="-5.475156">
        <ele>683.23</ele>
        <time>2015-06-20T17:47:12Z</time>
      </trkpt>
      <trkpt lat="36.549884" lon="-5.475164">
        <ele>683.12</ele>
        <time>2015-06-20T17:47:13Z</time>
      </trkpt>
      <trkpt lat="36.549896" lon="-5.475163">
        <ele>683.21</ele>
        <time>2015-06-20T17:47:14Z</time>
      </trkpt>
      <trkpt lat="36.549911" lon="-5.475168">
        <ele>683.30</ele>
        <time>2015-06-20T17:47:15Z</time>
      </trkpt>
      <trkpt lat="36.549957" lon="-5.475180">
        <ele>683.23</ele>
        <time>2015-06-20T17:47:20Z</time>
      </trkpt>
      <trkpt lat="36.549966" lon="-5.475183">
        <ele>683.28</ele>
        <time>2015-06-20T17:47:21Z</time>
      </trkpt>
      <trkpt lat="36.549973" lon="-5.475184">
        <ele>683.30</ele>
        <time>2015-06-20T17:47:22Z</time>
      </trkpt>
      <trkpt lat="36.549985" lon="-5.475184">
        <ele>683.37</ele>
        <time>2015-06-20T17:47:23Z</time>
      </trkpt>
      <trkpt lat="36.549996" lon="-5.475181">
        <ele>683.44</ele>
        <time>2015-06-20T17:47:24Z</time>
      </trkpt>
      <trkpt lat="36.550006" lon="-5.475180">
        <ele>683.53</ele>
        <time>2015-06-20T17:47:25Z</time>
      </trkpt>
      <trkpt lat="36.550030" lon="-5.475191">
        <ele>683.58</ele>
        <time>2015-06-20T17:47:28Z</time>
      </trkpt>
      <trkpt lat="36.550084" lon="-5.475199">
        <ele>683.99</ele>
        <time>2015-06-20T17:47:34Z</time>
      </trkpt>
      <trkpt lat="36.550088" lon="-5.475203">
        <ele>683.94</ele>
        <time>2015-06-20T17:47:41Z</time>
      </trkpt>
      <trkpt lat="36.550088" lon="-5.475203">
        <ele>683.93</ele>
        <time>2015-06-20T17:47:46Z</time>
      </trkpt>
      <trkpt lat="36.550088" lon="-5.475203">
        <ele>683.91</ele>
        <time>2015-06-20T17:47:51Z</time>
      </trkpt>
      <trkpt lat="36.550088" lon="-5.475203">
        <ele>683.95</ele>
        <time>2015-06-20T17:47:57Z</time>
      </trkpt>
      <trkpt lat="36.550088" lon="-5.475203">
        <ele>684.00</ele>
        <time>2015-06-20T17:47:59Z</time>
      </trkpt>
      <trkpt lat="36.550088" lon="-5.475203">
        <ele>683.93</ele>
        <time>2015-06-20T17:48:01Z</time>
      </trkpt>
      <trkpt lat="36.550088" lon="-5.475203">
        <ele>683.94</ele>
        <time>2015-06-20T17:48:05Z</time>
      </trkpt>
      <trkpt lat="36.550098" lon="-5.475203">
        <ele>684.10</ele>
        <time>2015-06-20T17:48:09Z</time>
      </trkpt>
      <trkpt lat="36.550112" lon="-5.475201">
        <ele>684.28</ele>
        <time>2015-06-20T17:48:10Z</time>
      </trkpt>
      <trkpt lat="36.550217" lon="-5.475198">
        <ele>685.60</ele>
        <time>2015-06-20T17:48:16Z</time>
      </trkpt>
      <trkpt lat="36.550232" lon="-5.475200">
        <ele>685.68</ele>
        <time>2015-06-20T17:48:17Z</time>
      </trkpt>
      <trkpt lat="36.550247" lon="-5.475192">
        <ele>686.06</ele>
        <time>2015-06-20T17:48:18Z</time>
      </trkpt>
      <trkpt lat="36.550262" lon="-5.475193">
        <ele>686.28</ele>
        <time>2015-06-20T17:48:19Z</time>
      </trkpt>
      <trkpt lat="36.550276" lon="-5.475187">
        <ele>686.61</ele>
        <time>2015-06-20T17:48:20Z</time>
      </trkpt>
      <trkpt lat="36.550287" lon="-5.475184">
        <ele>686.81</ele>
        <time>2015-06-20T17:48:21Z</time>
      </trkpt>
      <trkpt lat="36.550350" lon="-5.475185">
        <ele>687.48</ele>
        <time>2015-06-20T17:48:25Z</time>
      </trkpt>
      <trkpt lat="36.550405" lon="-5.475189">
        <ele>687.74</ele>
        <time>2015-06-20T17:48:29Z</time>
      </trkpt>
      <trkpt lat="36.550426" lon="-5.475184">
        <ele>688.16</ele>
        <time>2015-06-20T17:48:30Z</time>
      </trkpt>
      <trkpt lat="36.550438" lon="-5.475180">
        <ele>688.48</ele>
        <time>2015-06-20T17:48:31Z</time>
      </trkpt>
      <trkpt lat="36.550459" lon="-5.475180">
        <ele>688.63</ele>
        <time>2015-06-20T17:48:32Z</time>
      </trkpt>
      <trkpt lat="36.550471" lon="-5.475184">
        <ele>688.65</ele>
        <time>2015-06-20T17:48:33Z</time>
      </trkpt>
      <trkpt lat="36.550508" lon="-5.475181">
        <ele>689.04</ele>
        <time>2015-06-20T17:48:35Z</time>
      </trkpt>
      <trkpt lat="36.550597" lon="-5.475191">
        <ele>689.04</ele>
        <time>2015-06-20T17:48:40Z</time>
      </trkpt>
      <trkpt lat="36.550613" lon="-5.475193">
        <ele>688.98</ele>
        <time>2015-06-20T17:48:41Z</time>
      </trkpt>
      <trkpt lat="36.550625" lon="-5.475194">
        <ele>688.86</ele>
        <time>2015-06-20T17:48:42Z</time>
      </trkpt>
      <trkpt lat="36.550639" lon="-5.475193">
        <ele>688.82</ele>
        <time>2015-06-20T17:48:43Z</time>
      </trkpt>
      <trkpt lat="36.550650" lon="-5.475190">
        <ele>688.91</ele>
        <time>2015-06-20T17:48:44Z</time>
      </trkpt>
      <trkpt lat="36.550722" lon="-5.475178">
        <ele>689.25</ele>
        <time>2015-06-20T17:48:49Z</time>
      </trkpt>
      <trkpt lat="36.550810" lon="-5.475143">
        <ele>690.43</ele>
        <time>2015-06-20T17:48:55Z</time>
      </trkpt>
      <trkpt lat="36.550825" lon="-5.475132">
        <ele>690.89</ele>
        <time>2015-06-20T17:48:56Z</time>
      </trkpt>
      <trkpt lat="36.550842" lon="-5.475122">
        <ele>691.15</ele>
        <time>2015-06-20T17:48:57Z</time>
      </trkpt>
      <trkpt lat="36.550854" lon="-5.475114">
        <ele>691.34</ele>
        <time>2015-06-20T17:48:58Z</time>
      </trkpt>
      <trkpt lat="36.550865" lon="-5.475107">
        <ele>691.58</ele>
        <time>2015-06-20T17:48:59Z</time>
      </trkpt>
      <trkpt lat="36.550937" lon="-5.475094">
        <ele>691.37</ele>
        <time>2015-06-20T17:49:03Z</time>
      </trkpt>
      <trkpt lat="36.551033" lon="-5.475093">
        <ele>690.50</ele>
        <time>2015-06-20T17:49:10Z</time>
      </trkpt>
      <trkpt lat="36.551058" lon="-5.475094">
        <ele>690.12</ele>
        <time>2015-06-20T17:49:12Z</time>
      </trkpt>
      <trkpt lat="36.551069" lon="-5.475093">
        <ele>690.19</ele>
        <time>2015-06-20T17:49:13Z</time>
      </trkpt>
      <trkpt lat="36.551081" lon="-5.475094">
        <ele>689.91</ele>
        <time>2015-06-20T17:49:14Z</time>
      </trkpt>
      <trkpt lat="36.551094" lon="-5.475091">
        <ele>689.91</ele>
        <time>2015-06-20T17:49:15Z</time>
      </trkpt>
      <trkpt lat="36.551107" lon="-5.475093">
        <ele>689.75</ele>
        <time>2015-06-20T17:49:16Z</time>
      </trkpt>
      <trkpt lat="36.551162" lon="-5.475085">
        <ele>690.05</ele>
        <time>2015-06-20T17:49:20Z</time>
      </trkpt>
      <trkpt lat="36.551208" lon="-5.475073">
        <ele>690.42</ele>
        <time>2015-06-20T17:49:24Z</time>
      </trkpt>
      <trkpt lat="36.551245" lon="-5.475064">
        <ele>690.77</ele>
        <time>2015-06-20T17:49:27Z</time>
      </trkpt>
      <trkpt lat="36.551257" lon="-5.475062">
        <ele>690.75</ele>
        <time>2015-06-20T17:49:28Z</time>
      </trkpt>
      <trkpt lat="36.551266" lon="-5.475060">
        <ele>690.88</ele>
        <time>2015-06-20T17:49:29Z</time>
      </trkpt>
      <trkpt lat="36.551276" lon="-5.475047">
        <ele>691.13</ele>
        <time>2015-06-20T17:49:30Z</time>
      </trkpt>
      <trkpt lat="36.551281" lon="-5.475028">
        <ele>691.65</ele>
        <time>2015-06-20T17:49:31Z</time>
      </trkpt>
      <trkpt lat="36.551312" lon="-5.475011">
        <ele>692.04</ele>
        <time>2015-06-20T17:49:34Z</time>
      </trkpt>
      <trkpt lat="36.551351" lon="-5.475005">
        <ele>692.02</ele>
        <time>2015-06-20T17:49:37Z</time>
      </trkpt>
      <trkpt lat="36.551394" lon="-5.474967">
        <ele>692.82</ele>
        <time>2015-06-20T17:49:42Z</time>
      </trkpt>
      <trkpt lat="36.551437" lon="-5.474918">
        <ele>694.01</ele>
        <time>2015-06-20T17:49:47Z</time>
      </trkpt>
      <trkpt lat="36.551448" lon="-5.474911">
        <ele>694.24</ele>
        <time>2015-06-20T17:49:48Z</time>
      </trkpt>
      <trkpt lat="36.551459" lon="-5.474907">
        <ele>694.34</ele>
        <time>2015-06-20T17:49:49Z</time>
      </trkpt>
      <trkpt lat="36.551470" lon="-5.474902">
        <ele>694.49</ele>
        <time>2015-06-20T17:49:50Z</time>
      </trkpt>
      <trkpt lat="36.551479" lon="-5.474893">
        <ele>694.62</ele>
        <time>2015-06-20T17:49:51Z</time>
      </trkpt>
      <trkpt lat="36.551486" lon="-5.474883">
        <ele>694.87</ele>
        <time>2015-06-20T17:49:52Z</time>
      </trkpt>
      <trkpt lat="36.551491" lon="-5.474875">
        <ele>695.02</ele>
        <time>2015-06-20T17:49:53Z</time>
      </trkpt>
      <trkpt lat="36.551497" lon="-5.474861">
        <ele>695.35</ele>
        <time>2015-06-20T17:49:54Z</time>
      </trkpt>
      <trkpt lat="36.551532" lon="-5.474812">
        <ele>696.43</ele>
        <time>2015-06-20T17:49:59Z</time>
      </trkpt>
      <trkpt lat="36.551552" lon="-5.474799">
        <ele>696.67</ele>
        <time>2015-06-20T17:50:01Z</time>
      </trkpt>
      <trkpt lat="36.551589" lon="-5.474725">
        <ele>698.23</ele>
        <time>2015-06-20T17:50:07Z</time>
      </trkpt>
      <trkpt lat="36.551599" lon="-5.474704">
        <ele>698.72</ele>
        <time>2015-06-20T17:50:09Z</time>
      </trkpt>
      <trkpt lat="36.551611" lon="-5.474689">
        <ele>699.01</ele>
        <time>2015-06-20T17:50:11Z</time>
      </trkpt>
      <trkpt lat="36.551619" lon="-5.474683">
        <ele>699.19</ele>
        <time>2015-06-20T17:50:12Z</time>
      </trkpt>
      <trkpt lat="36.551627" lon="-5.474676">
        <ele>699.38</ele>
        <time>2015-06-20T17:50:13Z</time>
      </trkpt>
      <trkpt lat="36.551635" lon="-5.474671">
        <ele>699.47</ele>
        <time>2015-06-20T17:50:14Z</time>
      </trkpt>
      <trkpt lat="36.551644" lon="-5.474666">
        <ele>699.53</ele>
        <time>2015-06-20T17:50:15Z</time>
      </trkpt>
      <trkpt lat="36.551676" lon="-5.474647">
        <ele>700.05</ele>
        <time>2015-06-20T17:50:18Z</time>
      </trkpt>
      <trkpt lat="36.551691" lon="-5.474629">
        <ele>700.70</ele>
        <time>2015-06-20T17:50:20Z</time>
      </trkpt>
      <trkpt lat="36.551696" lon="-5.474627">
        <ele>700.72</ele>
        <time>2015-06-20T17:50:26Z</time>
      </trkpt>
      <trkpt lat="36.551696" lon="-5.474627">
        <ele>700.72</ele>
        <time>2015-06-20T17:50:38Z</time>
      </trkpt>
      <trkpt lat="36.551696" lon="-5.474627">
        <ele>700.77</ele>
        <time>2015-06-20T17:50:40Z</time>
      </trkpt>
      <trkpt lat="36.551696" lon="-5.474627">
        <ele>700.74</ele>
        <time>2015-06-20T17:50:46Z</time>
      </trkpt>
      <trkpt lat="36.551696" lon="-5.474627">
        <ele>700.73</ele>
        <time>2015-06-20T17:50:54Z</time>
      </trkpt>
      <trkpt lat="36.551696" lon="-5.474627">
        <ele>700.71</ele>
        <time>2015-06-20T17:50:57Z</time>
      </trkpt>
      <trkpt lat="36.551697" lon="-5.474628">
        <ele>700.77</ele>
        <time>2015-06-20T17:51:05Z</time>
      </trkpt>
      <trkpt lat="36.551697" lon="-5.474628">
        <ele>700.79</ele>
        <time>2015-06-20T17:51:12Z</time>
      </trkpt>
      <trkpt lat="36.551697" lon="-5.474628">
        <ele>700.76</ele>
        <time>2015-06-20T17:51:15Z</time>
      </trkpt>
      <trkpt lat="36.551697" lon="-5.474628">
        <ele>700.73</ele>
        <time>2015-06-20T17:51:24Z</time>
      </trkpt>
      <trkpt lat="36.551697" lon="-5.474628">
        <ele>700.75</ele>
        <time>2015-06-20T17:51:25Z</time>
      </trkpt>
      <trkpt lat="36.551697" lon="-5.474628">
        <ele>700.72</ele>
        <time>2015-06-20T17:51:27Z</time>
      </trkpt>
      <trkpt lat="36.551697" lon="-5.474628">
        <ele>700.71</ele>
        <time>2015-06-20T17:51:37Z</time>
      </trkpt>
      <trkpt lat="36.551697" lon="-5.474629">
        <ele>700.76</ele>
        <time>2015-06-20T17:51:53Z</time>
      </trkpt>
      <trkpt lat="36.551697" lon="-5.474629">
        <ele>700.75</ele>
        <time>2015-06-20T17:52:04Z</time>
      </trkpt>
      <trkpt lat="36.551697" lon="-5.474629">
        <ele>700.76</ele>
        <time>2015-06-20T17:52:05Z</time>
      </trkpt>
      <trkpt lat="36.551697" lon="-5.474629">
        <ele>700.72</ele>
        <time>2015-06-20T17:52:14Z</time>
      </trkpt>
      <trkpt lat="36.551696" lon="-5.474630">
        <ele>700.61</ele>
        <time>2015-06-20T17:52:21Z</time>
      </trkpt>
      <trkpt lat="36.551696" lon="-5.474630">
        <ele>700.66</ele>
        <time>2015-06-20T17:52:38Z</time>
      </trkpt>
      <trkpt lat="36.551696" lon="-5.474630">
        <ele>700.69</ele>
        <time>2015-06-20T17:52:51Z</time>
      </trkpt>
      <trkpt lat="36.551697" lon="-5.474628">
        <ele>700.79</ele>
        <time>2015-06-20T17:53:05Z</time>
      </trkpt>
      <trkpt lat="36.551697" lon="-5.474628">
        <ele>700.73</ele>
        <time>2015-06-20T17:53:17Z</time>
      </trkpt>
      <trkpt lat="36.551697" lon="-5.474628">
        <ele>700.71</ele>
        <time>2015-06-20T17:53:20Z</time>
      </trkpt>
      <trkpt lat="36.551697" lon="-5.474628">
        <ele>700.76</ele>
        <time>2015-06-20T17:53:33Z</time>
      </trkpt>
      <trkpt lat="36.551698" lon="-5.474628">
        <ele>700.75</ele>
        <time>2015-06-20T17:53:47Z</time>
      </trkpt>
      <trkpt lat="36.551698" lon="-5.474628">
        <ele>700.78</ele>
        <time>2015-06-20T17:54:03Z</time>
      </trkpt>
      <trkpt lat="36.551698" lon="-5.474628">
        <ele>700.79</ele>
        <time>2015-06-20T17:54:10Z</time>
      </trkpt>
      <trkpt lat="36.551698" lon="-5.474628">
        <ele>700.76</ele>
        <time>2015-06-20T17:54:13Z</time>
      </trkpt>
      <trkpt lat="36.551698" lon="-5.474628">
        <ele>700.72</ele>
        <time>2015-06-20T17:54:14Z</time>
      </trkpt>
      <trkpt lat="36.551698" lon="-5.474628">
        <ele>700.71</ele>
        <time>2015-06-20T17:54:15Z</time>
      </trkpt>
      <trkpt lat="36.551698" lon="-5.474628">
        <ele>700.79</ele>
        <time>2015-06-20T17:54:16Z</time>
      </trkpt>
      <trkpt lat="36.551698" lon="-5.474628">
        <ele>700.72</ele>
        <time>2015-06-20T17:54:17Z</time>
      </trkpt>
      <trkpt lat="36.551697" lon="-5.474628">
        <ele>700.72</ele>
        <time>2015-06-20T17:54:22Z</time>
      </trkpt>
      <trkpt lat="36.551697" lon="-5.474628">
        <ele>700.74</ele>
        <time>2015-06-20T17:54:32Z</time>
      </trkpt>
      <trkpt lat="36.551697" lon="-5.474628">
        <ele>700.78</ele>
        <time>2015-06-20T17:54:42Z</time>
      </trkpt>
      <trkpt lat="36.551697" lon="-5.474628">
        <ele>700.78</ele>
        <time>2015-06-20T17:54:46Z</time>
      </trkpt>
      <trkpt lat="36.551697" lon="-5.474628">
        <ele>700.77</ele>
        <time>2015-06-20T17:54:53Z</time>
      </trkpt>
      <trkpt lat="36.551697" lon="-5.474628">
        <ele>700.72</ele>
        <time>2015-06-20T17:54:57Z</time>
      </trkpt>
      <trkpt lat="36.551708" lon="-5.474631">
        <ele>700.72</ele>
        <time>2015-06-20T17:55:00Z</time>
      </trkpt>
      <trkpt lat="36.551737" lon="-5.474630">
        <ele>701.14</ele>
        <time>2015-06-20T17:55:02Z</time>
      </trkpt>
      <trkpt lat="36.551768" lon="-5.474613">
        <ele>701.80</ele>
        <time>2015-06-20T17:55:04Z</time>
      </trkpt>
      <trkpt lat="36.551802" lon="-5.474604">
        <ele>702.41</ele>
        <time>2015-06-20T17:55:06Z</time>
      </trkpt>
      <trkpt lat="36.551840" lon="-5.474591">
        <ele>703.26</ele>
        <time>2015-06-20T17:55:08Z</time>
      </trkpt>
      <trkpt lat="36.551919" lon="-5.474588">
        <ele>704.13</ele>
        <time>2015-06-20T17:55:12Z</time>
      </trkpt>
      <trkpt lat="36.551937" lon="-5.474587">
        <ele>704.39</ele>
        <time>2015-06-20T17:55:13Z</time>
      </trkpt>
      <trkpt lat="36.551966" lon="-5.474593">
        <ele>704.57</ele>
        <time>2015-06-20T17:55:15Z</time>
      </trkpt>
      <trkpt lat="36.552017" lon="-5.474606">
        <ele>704.91</ele>
        <time>2015-06-20T17:55:18Z</time>
      </trkpt>
      <trkpt lat="36.552035" lon="-5.474605">
        <ele>705.25</ele>
        <time>2015-06-20T17:55:19Z</time>
      </trkpt>
      <trkpt lat="36.552051" lon="-5.474604">
        <ele>705.48</ele>
        <time>2015-06-20T17:55:20Z</time>
      </trkpt>
      <trkpt lat="36.552069" lon="-5.474603">
        <ele>705.79</ele>
        <time>2015-06-20T17:55:21Z</time>
      </trkpt>
      <trkpt lat="36.552088" lon="-5.474598">
        <ele>706.07</ele>
        <time>2015-06-20T17:55:22Z</time>
      </trkpt>
      <trkpt lat="36.552118" lon="-5.474593">
        <ele>706.56</ele>
        <time>2015-06-20T17:55:24Z</time>
      </trkpt>
      <trkpt lat="36.552201" lon="-5.474584">
        <ele>707.72</ele>
        <time>2015-06-20T17:55:30Z</time>
      </trkpt>
      <trkpt lat="36.552245" lon="-5.474584">
        <ele>708.11</ele>
        <time>2015-06-20T17:55:33Z</time>
      </trkpt>
      <trkpt lat="36.552257" lon="-5.474582">
        <ele>708.18</ele>
        <time>2015-06-20T17:55:34Z</time>
      </trkpt>
      <trkpt lat="36.552273" lon="-5.474577">
        <ele>708.37</ele>
        <time>2015-06-20T17:55:35Z</time>
      </trkpt>
      <trkpt lat="36.552291" lon="-5.474578">
        <ele>708.35</ele>
        <time>2015-06-20T17:55:36Z</time>
      </trkpt>
      <trkpt lat="36.552306" lon="-5.474580">
        <ele>708.49</ele>
        <time>2015-06-20T17:55:37Z</time>
      </trkpt>
      <trkpt lat="36.552385" lon="-5.474597">
        <ele>708.38</ele>
        <time>2015-06-20T17:55:43Z</time>
      </trkpt>
      <trkpt lat="36.552396" lon="-5.474598">
        <ele>708.36</ele>
        <time>2015-06-20T17:55:44Z</time>
      </trkpt>
      <trkpt lat="36.552407" lon="-5.474597">
        <ele>708.44</ele>
        <time>2015-06-20T17:55:45Z</time>
      </trkpt>
      <trkpt lat="36.552419" lon="-5.474595">
        <ele>708.56</ele>
        <time>2015-06-20T17:55:46Z</time>
      </trkpt>
      <trkpt lat="36.552429" lon="-5.474597">
        <ele>708.55</ele>
        <time>2015-06-20T17:55:47Z</time>
      </trkpt>
      <trkpt lat="36.552439" lon="-5.474600">
        <ele>708.40</ele>
        <time>2015-06-20T17:55:48Z</time>
      </trkpt>
      <trkpt lat="36.552463" lon="-5.474609">
        <ele>708.31</ele>
        <time>2015-06-20T17:55:50Z</time>
      </trkpt>
      <trkpt lat="36.552550" lon="-5.474654">
        <ele>707.51</ele>
        <time>2015-06-20T17:55:57Z</time>
      </trkpt>
      <trkpt lat="36.552573" lon="-5.474661">
        <ele>707.49</ele>
        <time>2015-06-20T17:55:59Z</time>
      </trkpt>
      <trkpt lat="36.552587" lon="-5.474665">
        <ele>707.33</ele>
        <time>2015-06-20T17:56:00Z</time>
      </trkpt>
      <trkpt lat="36.552603" lon="-5.474668">
        <ele>707.26</ele>
        <time>2015-06-20T17:56:01Z</time>
      </trkpt>
      <trkpt lat="36.552619" lon="-5.474672">
        <ele>707.29</ele>
        <time>2015-06-20T17:56:02Z</time>
      </trkpt>
      <trkpt lat="36.552634" lon="-5.474675">
        <ele>707.15</ele>
        <time>2015-06-20T17:56:03Z</time>
      </trkpt>
      <trkpt lat="36.552744" lon="-5.474701">
        <ele>706.54</ele>
        <time>2015-06-20T17:56:10Z</time>
      </trkpt>
      <trkpt lat="36.552757" lon="-5.474701">
        <ele>706.54</ele>
        <time>2015-06-20T17:56:11Z</time>
      </trkpt>
      <trkpt lat="36.552768" lon="-5.474700">
        <ele>706.68</ele>
        <time>2015-06-20T17:56:12Z</time>
      </trkpt>
      <trkpt lat="36.552780" lon="-5.474703">
        <ele>706.56</ele>
        <time>2015-06-20T17:56:13Z</time>
      </trkpt>
      <trkpt lat="36.552795" lon="-5.474704">
        <ele>706.61</ele>
        <time>2015-06-20T17:56:14Z</time>
      </trkpt>
      <trkpt lat="36.552809" lon="-5.474705">
        <ele>706.82</ele>
        <time>2015-06-20T17:56:15Z</time>
      </trkpt>
      <trkpt lat="36.552904" lon="-5.474712">
        <ele>707.61</ele>
        <time>2015-06-20T17:56:22Z</time>
      </trkpt>
      <trkpt lat="36.552929" lon="-5.474715">
        <ele>707.84</ele>
        <time>2015-06-20T17:56:24Z</time>
      </trkpt>
      <trkpt lat="36.552941" lon="-5.474722">
        <ele>707.89</ele>
        <time>2015-06-20T17:56:25Z</time>
      </trkpt>
      <trkpt lat="36.552953" lon="-5.474724">
        <ele>707.90</ele>
        <time>2015-06-20T17:56:26Z</time>
      </trkpt>
      <trkpt lat="36.552968" lon="-5.474727">
        <ele>707.93</ele>
        <time>2015-06-20T17:56:27Z</time>
      </trkpt>
      <trkpt lat="36.552979" lon="-5.474727">
        <ele>708.08</ele>
        <time>2015-06-20T17:56:28Z</time>
      </trkpt>
      <trkpt lat="36.553017" lon="-5.474728">
        <ele>708.42</ele>
        <time>2015-06-20T17:56:31Z</time>
      </trkpt>
      <trkpt lat="36.553046" lon="-5.474719">
        <ele>709.07</ele>
        <time>2015-06-20T17:56:33Z</time>
      </trkpt>
      <trkpt lat="36.553104" lon="-5.474697">
        <ele>709.86</ele>
        <time>2015-06-20T17:56:37Z</time>
      </trkpt>
      <trkpt lat="36.553120" lon="-5.474687">
        <ele>710.07</ele>
        <time>2015-06-20T17:56:38Z</time>
      </trkpt>
      <trkpt lat="36.553136" lon="-5.474676">
        <ele>710.37</ele>
        <time>2015-06-20T17:56:39Z</time>
      </trkpt>
      <trkpt lat="36.553155" lon="-5.474670">
        <ele>710.51</ele>
        <time>2015-06-20T17:56:40Z</time>
      </trkpt>
      <trkpt lat="36.553173" lon="-5.474664">
        <ele>710.71</ele>
        <time>2015-06-20T17:56:41Z</time>
      </trkpt>
      <trkpt lat="36.553235" lon="-5.474606">
        <ele>711.87</ele>
        <time>2015-06-20T17:56:45Z</time>
      </trkpt>
      <trkpt lat="36.553268" lon="-5.474531">
        <ele>712.95</ele>
        <time>2015-06-20T17:56:49Z</time>
      </trkpt>
      <trkpt lat="36.553272" lon="-5.474482">
        <ele>713.57</ele>
        <time>2015-06-20T17:56:51Z</time>
      </trkpt>
      <trkpt lat="36.553267" lon="-5.474423">
        <ele>714.13</ele>
        <time>2015-06-20T17:56:54Z</time>
      </trkpt>
      <trkpt lat="36.553219" lon="-5.474318">
        <ele>714.70</ele>
        <time>2015-06-20T17:56:58Z</time>
      </trkpt>
      <trkpt lat="36.553185" lon="-5.474228">
        <ele>715.29</ele>
        <time>2015-06-20T17:57:00Z</time>
      </trkpt>
      <trkpt lat="36.553171" lon="-5.474100">
        <ele>716.19</ele>
        <time>2015-06-20T17:57:02Z</time>
      </trkpt>
      <trkpt lat="36.553175" lon="-5.473956">
        <ele>717.22</ele>
        <time>2015-06-20T17:57:04Z</time>
      </trkpt>
      <trkpt lat="36.553183" lon="-5.473883">
        <ele>717.68</ele>
        <time>2015-06-20T17:57:05Z</time>
      </trkpt>
      <trkpt lat="36.553203" lon="-5.473746">
        <ele>717.91</ele>
        <time>2015-06-20T17:57:07Z</time>
      </trkpt>
      <trkpt lat="36.553211" lon="-5.473674">
        <ele>718.02</ele>
        <time>2015-06-20T17:57:08Z</time>
      </trkpt>
      <trkpt lat="36.553214" lon="-5.473610">
        <ele>718.11</ele>
        <time>2015-06-20T17:57:09Z</time>
      </trkpt>
      <trkpt lat="36.553208" lon="-5.473541">
        <ele>718.40</ele>
        <time>2015-06-20T17:57:10Z</time>
      </trkpt>
      <trkpt lat="36.553196" lon="-5.473480">
        <ele>718.60</ele>
        <time>2015-06-20T17:57:11Z</time>
      </trkpt>
      <trkpt lat="36.553179" lon="-5.473438">
        <ele>718.85</ele>
        <time>2015-06-20T17:57:12Z</time>
      </trkpt>
      <trkpt lat="36.553130" lon="-5.473391">
        <ele>719.74</ele>
        <time>2015-06-20T17:57:14Z</time>
      </trkpt>
      <trkpt lat="36.553108" lon="-5.473377">
        <ele>720.13</ele>
        <time>2015-06-20T17:57:15Z</time>
      </trkpt>
      <trkpt lat="36.553087" lon="-5.473365">
        <ele>720.50</ele>
        <time>2015-06-20T17:57:16Z</time>
      </trkpt>
      <trkpt lat="36.553034" lon="-5.473355">
        <ele>721.50</ele>
        <time>2015-06-20T17:57:19Z</time>
      </trkpt>
      <trkpt lat="36.553011" lon="-5.473348">
        <ele>721.82</ele>
        <time>2015-06-20T17:57:21Z</time>
      </trkpt>
      <trkpt lat="36.552907" lon="-5.473276">
        <ele>723.84</ele>
        <time>2015-06-20T17:57:28Z</time>
      </trkpt>
      <trkpt lat="36.552871" lon="-5.473187">
        <ele>724.72</ele>
        <time>2015-06-20T17:57:33Z</time>
      </trkpt>
      <trkpt lat="36.552866" lon="-5.473167">
        <ele>724.81</ele>
        <time>2015-06-20T17:57:34Z</time>
      </trkpt>
      <trkpt lat="36.552862" lon="-5.473149">
        <ele>724.91</ele>
        <time>2015-06-20T17:57:35Z</time>
      </trkpt>
      <trkpt lat="36.552859" lon="-5.473129">
        <ele>725.17</ele>
        <time>2015-06-20T17:57:36Z</time>
      </trkpt>
      <trkpt lat="36.552858" lon="-5.473109">
        <ele>725.16</ele>
        <time>2015-06-20T17:57:37Z</time>
      </trkpt>
      <trkpt lat="36.552858" lon="-5.473089">
        <ele>725.29</ele>
        <time>2015-06-20T17:57:38Z</time>
      </trkpt>
      <trkpt lat="36.552859" lon="-5.473011">
        <ele>725.72</ele>
        <time>2015-06-20T17:57:42Z</time>
      </trkpt>
      <trkpt lat="36.552867" lon="-5.472972">
        <ele>726.01</ele>
        <time>2015-06-20T17:57:44Z</time>
      </trkpt>
      <trkpt lat="36.552875" lon="-5.472950">
        <ele>726.01</ele>
        <time>2015-06-20T17:57:45Z</time>
      </trkpt>
      <trkpt lat="36.552878" lon="-5.472930">
        <ele>726.21</ele>
        <time>2015-06-20T17:57:46Z</time>
      </trkpt>
      <trkpt lat="36.552884" lon="-5.472914">
        <ele>726.25</ele>
        <time>2015-06-20T17:57:47Z</time>
      </trkpt>
      <trkpt lat="36.552892" lon="-5.472902">
        <ele>726.23</ele>
        <time>2015-06-20T17:57:48Z</time>
      </trkpt>
      <trkpt lat="36.552955" lon="-5.472814">
        <ele>725.85</ele>
        <time>2015-06-20T17:57:54Z</time>
      </trkpt>
      <trkpt lat="36.553041" lon="-5.472739">
        <ele>724.91</ele>
        <time>2015-06-20T17:58:00Z</time>
      </trkpt>
      <trkpt lat="36.553053" lon="-5.472730">
        <ele>724.71</ele>
        <time>2015-06-20T17:58:01Z</time>
      </trkpt>
      <trkpt lat="36.553066" lon="-5.472723">
        <ele>724.68</ele>
        <time>2015-06-20T17:58:02Z</time>
      </trkpt>
      <trkpt lat="36.553078" lon="-5.472711">
        <ele>724.60</ele>
        <time>2015-06-20T17:58:03Z</time>
      </trkpt>
      <trkpt lat="36.553092" lon="-5.472698">
        <ele>724.43</ele>
        <time>2015-06-20T17:58:04Z</time>
      </trkpt>
      <trkpt lat="36.553180" lon="-5.472592">
        <ele>724.09</ele>
        <time>2015-06-20T17:58:11Z</time>
      </trkpt>
      <trkpt lat="36.553270" lon="-5.472520">
        <ele>723.19</ele>
        <time>2015-06-20T17:58:17Z</time>
      </trkpt>
      <trkpt lat="36.553298" lon="-5.472507">
        <ele>722.71</ele>
        <time>2015-06-20T17:58:19Z</time>
      </trkpt>
      <trkpt lat="36.553310" lon="-5.472502">
        <ele>722.56</ele>
        <time>2015-06-20T17:58:20Z</time>
      </trkpt>
      <trkpt lat="36.553323" lon="-5.472496">
        <ele>722.33</ele>
        <time>2015-06-20T17:58:21Z</time>
      </trkpt>
      <trkpt lat="36.553336" lon="-5.472484">
        <ele>722.13</ele>
        <time>2015-06-20T17:58:22Z</time>
      </trkpt>
      <trkpt lat="36.553347" lon="-5.472474">
        <ele>722.03</ele>
        <time>2015-06-20T17:58:23Z</time>
      </trkpt>
      <trkpt lat="36.553357" lon="-5.472467">
        <ele>721.81</ele>
        <time>2015-06-20T17:58:24Z</time>
      </trkpt>
      <trkpt lat="36.553450" lon="-5.472398">
        <ele>720.31</ele>
        <time>2015-06-20T17:58:31Z</time>
      </trkpt>
      <trkpt lat="36.553461" lon="-5.472385">
        <ele>720.13</ele>
        <time>2015-06-20T17:58:32Z</time>
      </trkpt>
      <trkpt lat="36.553466" lon="-5.472372">
        <ele>720.17</ele>
        <time>2015-06-20T17:58:33Z</time>
      </trkpt>
      <trkpt lat="36.553472" lon="-5.472352">
        <ele>720.12</ele>
        <time>2015-06-20T17:58:34Z</time>
      </trkpt>
      <trkpt lat="36.553475" lon="-5.472331">
        <ele>720.12</ele>
        <time>2015-06-20T17:58:35Z</time>
      </trkpt>
      <trkpt lat="36.553484" lon="-5.472282">
        <ele>720.24</ele>
        <time>2015-06-20T17:58:38Z</time>
      </trkpt>
      <trkpt lat="36.553439" lon="-5.472189">
        <ele>721.91</ele>
        <time>2015-06-20T17:58:45Z</time>
      </trkpt>
      <trkpt lat="36.553429" lon="-5.472176">
        <ele>722.24</ele>
        <time>2015-06-20T17:58:46Z</time>
      </trkpt>
      <trkpt lat="36.553423" lon="-5.472162">
        <ele>722.32</ele>
        <time>2015-06-20T17:58:47Z</time>
      </trkpt>
      <trkpt lat="36.553414" lon="-5.472152">
        <ele>722.65</ele>
        <time>2015-06-20T17:58:48Z</time>
      </trkpt>
      <trkpt lat="36.553404" lon="-5.472140">
        <ele>722.99</ele>
        <time>2015-06-20T17:58:49Z</time>
      </trkpt>
      <trkpt lat="36.553375" lon="-5.472087">
        <ele>723.72</ele>
        <time>2015-06-20T17:58:52Z</time>
      </trkpt>
      <trkpt lat="36.553270" lon="-5.471906">
        <ele>726.51</ele>
        <time>2015-06-20T17:59:02Z</time>
      </trkpt>
      <trkpt lat="36.553235" lon="-5.471847">
        <ele>726.91</ele>
        <time>2015-06-20T17:59:05Z</time>
      </trkpt>
      <trkpt lat="36.553225" lon="-5.471829">
        <ele>727.06</ele>
        <time>2015-06-20T17:59:06Z</time>
      </trkpt>
      <trkpt lat="36.553215" lon="-5.471814">
        <ele>727.25</ele>
        <time>2015-06-20T17:59:07Z</time>
      </trkpt>
      <trkpt lat="36.553205" lon="-5.471797">
        <ele>727.39</ele>
        <time>2015-06-20T17:59:08Z</time>
      </trkpt>
      <trkpt lat="36.553194" lon="-5.471782">
        <ele>727.57</ele>
        <time>2015-06-20T17:59:09Z</time>
      </trkpt>
      <trkpt lat="36.553187" lon="-5.471766">
        <ele>727.58</ele>
        <time>2015-06-20T17:59:10Z</time>
      </trkpt>
      <trkpt lat="36.553084" lon="-5.471623">
        <ele>728.71</ele>
        <time>2015-06-20T17:59:18Z</time>
      </trkpt>
      <trkpt lat="36.553004" lon="-5.471508">
        <ele>728.16</ele>
        <time>2015-06-20T17:59:24Z</time>
      </trkpt>
      <trkpt lat="36.552989" lon="-5.471493">
        <ele>728.26</ele>
        <time>2015-06-20T17:59:25Z</time>
      </trkpt>
      <trkpt lat="36.552977" lon="-5.471479">
        <ele>728.28</ele>
        <time>2015-06-20T17:59:26Z</time>
      </trkpt>
      <trkpt lat="36.552966" lon="-5.471466">
        <ele>728.31</ele>
        <time>2015-06-20T17:59:27Z</time>
      </trkpt>
      <trkpt lat="36.552955" lon="-5.471449">
        <ele>728.21</ele>
        <time>2015-06-20T17:59:28Z</time>
      </trkpt>
      <trkpt lat="36.552825" lon="-5.471320">
        <ele>729.47</ele>
        <time>2015-06-20T17:59:36Z</time>
      </trkpt>
      <trkpt lat="36.552705" lon="-5.471221">
        <ele>729.62</ele>
        <time>2015-06-20T17:59:43Z</time>
      </trkpt>
      <trkpt lat="36.552597" lon="-5.471095">
        <ele>727.79</ele>
        <time>2015-06-20T17:59:50Z</time>
      </trkpt>
      <trkpt lat="36.552498" lon="-5.471032">
        <ele>727.59</ele>
        <time>2015-06-20T17:59:55Z</time>
      </trkpt>
      <trkpt lat="36.552482" lon="-5.471020">
        <ele>727.43</ele>
        <time>2015-06-20T17:59:56Z</time>
      </trkpt>
      <trkpt lat="36.552468" lon="-5.471005">
        <ele>727.30</ele>
        <time>2015-06-20T17:59:57Z</time>
      </trkpt>
      <trkpt lat="36.552451" lon="-5.470992">
        <ele>727.17</ele>
        <time>2015-06-20T17:59:58Z</time>
      </trkpt>
      <trkpt lat="36.552431" lon="-5.470984">
        <ele>727.22</ele>
        <time>2015-06-20T17:59:59Z</time>
      </trkpt>
      <trkpt lat="36.552296" lon="-5.470926">
        <ele>728.24</ele>
        <time>2015-06-20T18:00:06Z</time>
      </trkpt>
      <trkpt lat="36.552171" lon="-5.470878">
        <ele>730.07</ele>
        <time>2015-06-20T18:00:12Z</time>
      </trkpt>
      <trkpt lat="36.552087" lon="-5.470794">
        <ele>731.02</ele>
        <time>2015-06-20T18:00:17Z</time>
      </trkpt>
      <trkpt lat="36.552076" lon="-5.470779">
        <ele>731.11</ele>
        <time>2015-06-20T18:00:18Z</time>
      </trkpt>
      <trkpt lat="36.552027" lon="-5.470720">
        <ele>731.79</ele>
        <time>2015-06-20T18:00:22Z</time>
      </trkpt>
      <trkpt lat="36.552014" lon="-5.470701">
        <ele>731.97</ele>
        <time>2015-06-20T18:00:23Z</time>
      </trkpt>
      <trkpt lat="36.552003" lon="-5.470679">
        <ele>731.95</ele>
        <time>2015-06-20T18:00:24Z</time>
      </trkpt>
      <trkpt lat="36.551990" lon="-5.470656">
        <ele>732.07</ele>
        <time>2015-06-20T18:00:25Z</time>
      </trkpt>
      <trkpt lat="36.551975" lon="-5.470633">
        <ele>732.15</ele>
        <time>2015-06-20T18:00:26Z</time>
      </trkpt>
      <trkpt lat="36.551959" lon="-5.470610">
        <ele>732.45</ele>
        <time>2015-06-20T18:00:27Z</time>
      </trkpt>
      <trkpt lat="36.551845" lon="-5.470476">
        <ele>732.92</ele>
        <time>2015-06-20T18:00:34Z</time>
      </trkpt>
      <trkpt lat="36.551716" lon="-5.470392">
        <ele>734.58</ele>
        <time>2015-06-20T18:00:41Z</time>
      </trkpt>
      <trkpt lat="36.551602" lon="-5.470328">
        <ele>736.07</ele>
        <time>2015-06-20T18:00:47Z</time>
      </trkpt>
      <trkpt lat="36.551583" lon="-5.470314">
        <ele>736.21</ele>
        <time>2015-06-20T18:00:48Z</time>
      </trkpt>
      <trkpt lat="36.551566" lon="-5.470305">
        <ele>736.41</ele>
        <time>2015-06-20T18:00:49Z</time>
      </trkpt>
      <trkpt lat="36.551548" lon="-5.470295">
        <ele>736.71</ele>
        <time>2015-06-20T18:00:50Z</time>
      </trkpt>
      <trkpt lat="36.551528" lon="-5.470282">
        <ele>737.15</ele>
        <time>2015-06-20T18:00:51Z</time>
      </trkpt>
      <trkpt lat="36.551429" lon="-5.470236">
        <ele>739.13</ele>
        <time>2015-06-20T18:00:57Z</time>
      </trkpt>
      <trkpt lat="36.551372" lon="-5.470121">
        <ele>738.79</ele>
        <time>2015-06-20T18:01:03Z</time>
      </trkpt>
      <trkpt lat="36.551375" lon="-5.469994">
        <ele>736.47</ele>
        <time>2015-06-20T18:01:08Z</time>
      </trkpt>
      <trkpt lat="36.551366" lon="-5.469973">
        <ele>736.44</ele>
        <time>2015-06-20T18:01:09Z</time>
      </trkpt>
      <trkpt lat="36.551352" lon="-5.469931">
        <ele>736.38</ele>
        <time>2015-06-20T18:01:11Z</time>
      </trkpt>
      <trkpt lat="36.551345" lon="-5.469910">
        <ele>736.24</ele>
        <time>2015-06-20T18:01:12Z</time>
      </trkpt>
      <trkpt lat="36.551337" lon="-5.469886">
        <ele>736.30</ele>
        <time>2015-06-20T18:01:13Z</time>
      </trkpt>
      <trkpt lat="36.551325" lon="-5.469873">
        <ele>736.52</ele>
        <time>2015-06-20T18:01:14Z</time>
      </trkpt>
      <trkpt lat="36.551314" lon="-5.469857">
        <ele>736.66</ele>
        <time>2015-06-20T18:01:15Z</time>
      </trkpt>
      <trkpt lat="36.551273" lon="-5.469813">
        <ele>737.61</ele>
        <time>2015-06-20T18:01:18Z</time>
      </trkpt>
      <trkpt lat="36.551258" lon="-5.469800">
        <ele>738.01</ele>
        <time>2015-06-20T18:01:19Z</time>
      </trkpt>
      <trkpt lat="36.551210" lon="-5.469740">
        <ele>739.31</ele>
        <time>2015-06-20T18:01:23Z</time>
      </trkpt>
      <trkpt lat="36.551198" lon="-5.469723">
        <ele>739.67</ele>
        <time>2015-06-20T18:01:24Z</time>
      </trkpt>
      <trkpt lat="36.551185" lon="-5.469707">
        <ele>739.88</ele>
        <time>2015-06-20T18:01:25Z</time>
      </trkpt>
      <trkpt lat="36.551175" lon="-5.469692">
        <ele>740.07</ele>
        <time>2015-06-20T18:01:26Z</time>
      </trkpt>
      <trkpt lat="36.551172" lon="-5.469674">
        <ele>739.81</ele>
        <time>2015-06-20T18:01:27Z</time>
      </trkpt>
      <trkpt lat="36.551153" lon="-5.469605">
        <ele>739.31</ele>
        <time>2015-06-20T18:01:31Z</time>
      </trkpt>
      <trkpt lat="36.551074" lon="-5.469526">
        <ele>740.73</ele>
        <time>2015-06-20T18:01:37Z</time>
      </trkpt>
      <trkpt lat="36.550960" lon="-5.469480">
        <ele>743.51</ele>
        <time>2015-06-20T18:01:43Z</time>
      </trkpt>
      <trkpt lat="36.550927" lon="-5.469463">
        <ele>744.33</ele>
        <time>2015-06-20T18:01:45Z</time>
      </trkpt>
      <trkpt lat="36.550910" lon="-5.469449">
        <ele>744.69</ele>
        <time>2015-06-20T18:01:46Z</time>
      </trkpt>
      <trkpt lat="36.550892" lon="-5.469431">
        <ele>744.71</ele>
        <time>2015-06-20T18:01:47Z</time>
      </trkpt>
      <trkpt lat="36.550874" lon="-5.469413">
        <ele>744.71</ele>
        <time>2015-06-20T18:01:48Z</time>
      </trkpt>
      <trkpt lat="36.550855" lon="-5.469398">
        <ele>744.83</ele>
        <time>2015-06-20T18:01:49Z</time>
      </trkpt>
      <trkpt lat="36.550792" lon="-5.469335">
        <ele>744.79</ele>
        <time>2015-06-20T18:01:54Z</time>
      </trkpt>
      <trkpt lat="36.550778" lon="-5.469323">
        <ele>744.74</ele>
        <time>2015-06-20T18:01:55Z</time>
      </trkpt>
      <trkpt lat="36.550766" lon="-5.469307">
        <ele>744.64</ele>
        <time>2015-06-20T18:01:56Z</time>
      </trkpt>
      <trkpt lat="36.550753" lon="-5.469295">
        <ele>744.65</ele>
        <time>2015-06-20T18:01:57Z</time>
      </trkpt>
      <trkpt lat="36.550736" lon="-5.469276">
        <ele>744.67</ele>
        <time>2015-06-20T18:01:58Z</time>
      </trkpt>
      <trkpt lat="36.550720" lon="-5.469256">
        <ele>744.43</ele>
        <time>2015-06-20T18:01:59Z</time>
      </trkpt>
      <trkpt lat="36.550703" lon="-5.469237">
        <ele>744.44</ele>
        <time>2015-06-20T18:02:00Z</time>
      </trkpt>
      <trkpt lat="36.550600" lon="-5.469139">
        <ele>744.84</ele>
        <time>2015-06-20T18:02:06Z</time>
      </trkpt>
      <trkpt lat="36.550547" lon="-5.469091">
        <ele>745.12</ele>
        <time>2015-06-20T18:02:09Z</time>
      </trkpt>
      <trkpt lat="36.550458" lon="-5.469005">
        <ele>746.11</ele>
        <time>2015-06-20T18:02:14Z</time>
      </trkpt>
      <trkpt lat="36.550440" lon="-5.468991">
        <ele>746.41</ele>
        <time>2015-06-20T18:02:15Z</time>
      </trkpt>
      <trkpt lat="36.550425" lon="-5.468967">
        <ele>746.35</ele>
        <time>2015-06-20T18:02:16Z</time>
      </trkpt>
      <trkpt lat="36.550407" lon="-5.468949">
        <ele>746.57</ele>
        <time>2015-06-20T18:02:17Z</time>
      </trkpt>
      <trkpt lat="36.550390" lon="-5.468929">
        <ele>746.68</ele>
        <time>2015-06-20T18:02:18Z</time>
      </trkpt>
      <trkpt lat="36.550333" lon="-5.468869">
        <ele>747.32</ele>
        <time>2015-06-20T18:02:21Z</time>
      </trkpt>
      <trkpt lat="36.550244" lon="-5.468790">
        <ele>748.93</ele>
        <time>2015-06-20T18:02:27Z</time>
      </trkpt>
      <trkpt lat="36.550134" lon="-5.468737">
        <ele>752.13</ele>
        <time>2015-06-20T18:02:33Z</time>
      </trkpt>
      <trkpt lat="36.550122" lon="-5.468735">
        <ele>752.69</ele>
        <time>2015-06-20T18:02:34Z</time>
      </trkpt>
      <trkpt lat="36.550028" lon="-5.468658">
        <ele>754.89</ele>
        <time>2015-06-20T18:02:40Z</time>
      </trkpt>
      <trkpt lat="36.549979" lon="-5.468623">
        <ele>755.78</ele>
        <time>2015-06-20T18:02:43Z</time>
      </trkpt>
      <trkpt lat="36.549967" lon="-5.468613">
        <ele>755.89</ele>
        <time>2015-06-20T18:02:44Z</time>
      </trkpt>
      <trkpt lat="36.549953" lon="-5.468601">
        <ele>755.82</ele>
        <time>2015-06-20T18:02:45Z</time>
      </trkpt>
      <trkpt lat="36.549938" lon="-5.468591">
        <ele>755.81</ele>
        <time>2015-06-20T18:02:46Z</time>
      </trkpt>
      <trkpt lat="36.549924" lon="-5.468579">
        <ele>755.82</ele>
        <time>2015-06-20T18:02:47Z</time>
      </trkpt>
      <trkpt lat="36.549908" lon="-5.468570">
        <ele>756.05</ele>
        <time>2015-06-20T18:02:48Z</time>
      </trkpt>
      <trkpt lat="36.549787" lon="-5.468495">
        <ele>756.78</ele>
        <time>2015-06-20T18:02:56Z</time>
      </trkpt>
      <trkpt lat="36.549762" lon="-5.468471">
        <ele>756.65</ele>
        <time>2015-06-20T18:02:58Z</time>
      </trkpt>
      <trkpt lat="36.549749" lon="-5.468460">
        <ele>756.68</ele>
        <time>2015-06-20T18:02:59Z</time>
      </trkpt>
      <trkpt lat="36.549735" lon="-5.468458">
        <ele>756.94</ele>
        <time>2015-06-20T18:03:00Z</time>
      </trkpt>
      <trkpt lat="36.549721" lon="-5.468449">
        <ele>756.92</ele>
        <time>2015-06-20T18:03:01Z</time>
      </trkpt>
      <trkpt lat="36.549656" lon="-5.468408">
        <ele>756.67</ele>
        <time>2015-06-20T18:03:05Z</time>
      </trkpt>
      <trkpt lat="36.549622" lon="-5.468390">
        <ele>756.60</ele>
        <time>2015-06-20T18:03:07Z</time>
      </trkpt>
      <trkpt lat="36.549522" lon="-5.468307">
        <ele>755.52</ele>
        <time>2015-06-20T18:03:14Z</time>
      </trkpt>
      <trkpt lat="36.549506" lon="-5.468302">
        <ele>755.52</ele>
        <time>2015-06-20T18:03:15Z</time>
      </trkpt>
      <trkpt lat="36.549492" lon="-5.468294">
        <ele>755.51</ele>
        <time>2015-06-20T18:03:16Z</time>
      </trkpt>
      <trkpt lat="36.549474" lon="-5.468287">
        <ele>755.55</ele>
        <time>2015-06-20T18:03:17Z</time>
      </trkpt>
      <trkpt lat="36.549458" lon="-5.468278">
        <ele>755.60</ele>
        <time>2015-06-20T18:03:18Z</time>
      </trkpt>
      <trkpt lat="36.549441" lon="-5.468272">
        <ele>755.53</ele>
        <time>2015-06-20T18:03:19Z</time>
      </trkpt>
      <trkpt lat="36.549425" lon="-5.468265">
        <ele>755.68</ele>
        <time>2015-06-20T18:03:20Z</time>
      </trkpt>
      <trkpt lat="36.549300" lon="-5.468177">
        <ele>756.02</ele>
        <time>2015-06-20T18:03:28Z</time>
      </trkpt>
      <trkpt lat="36.549227" lon="-5.468129">
        <ele>756.39</ele>
        <time>2015-06-20T18:03:32Z</time>
      </trkpt>
      <trkpt lat="36.549208" lon="-5.468120">
        <ele>756.58</ele>
        <time>2015-06-20T18:03:33Z</time>
      </trkpt>
      <trkpt lat="36.549190" lon="-5.468105">
        <ele>756.66</ele>
        <time>2015-06-20T18:03:34Z</time>
      </trkpt>
      <trkpt lat="36.549172" lon="-5.468093">
        <ele>756.76</ele>
        <time>2015-06-20T18:03:35Z</time>
      </trkpt>
      <trkpt lat="36.549157" lon="-5.468085">
        <ele>756.84</ele>
        <time>2015-06-20T18:03:36Z</time>
      </trkpt>
      <trkpt lat="36.549145" lon="-5.468068">
        <ele>756.72</ele>
        <time>2015-06-20T18:03:37Z</time>
      </trkpt>
      <trkpt lat="36.549120" lon="-5.468054">
        <ele>757.01</ele>
        <time>2015-06-20T18:03:39Z</time>
      </trkpt>
      <trkpt lat="36.549060" lon="-5.468022">
        <ele>757.93</ele>
        <time>2015-06-20T18:03:43Z</time>
      </trkpt>
      <trkpt lat="36.549044" lon="-5.468012">
        <ele>758.12</ele>
        <time>2015-06-20T18:03:44Z</time>
      </trkpt>
      <trkpt lat="36.549028" lon="-5.468006">
        <ele>758.46</ele>
        <time>2015-06-20T18:03:45Z</time>
      </trkpt>
      <trkpt lat="36.549012" lon="-5.468000">
        <ele>758.71</ele>
        <time>2015-06-20T18:03:46Z</time>
      </trkpt>
      <trkpt lat="36.548997" lon="-5.467998">
        <ele>759.07</ele>
        <time>2015-06-20T18:03:47Z</time>
      </trkpt>
      <trkpt lat="36.548987" lon="-5.467988">
        <ele>759.14</ele>
        <time>2015-06-20T18:03:48Z</time>
      </trkpt>
      <trkpt lat="36.548928" lon="-5.467953">
        <ele>760.04</ele>
        <time>2015-06-20T18:03:52Z</time>
      </trkpt>
      <trkpt lat="36.548831" lon="-5.467890">
        <ele>761.29</ele>
        <time>2015-06-20T18:03:58Z</time>
      </trkpt>
      <trkpt lat="36.548818" lon="-5.467877">
        <ele>761.32</ele>
        <time>2015-06-20T18:03:59Z</time>
      </trkpt>
      <trkpt lat="36.548806" lon="-5.467868">
        <ele>761.50</ele>
        <time>2015-06-20T18:04:00Z</time>
      </trkpt>
      <trkpt lat="36.548795" lon="-5.467860">
        <ele>761.42</ele>
        <time>2015-06-20T18:04:01Z</time>
      </trkpt>
      <trkpt lat="36.548782" lon="-5.467852">
        <ele>761.51</ele>
        <time>2015-06-20T18:04:02Z</time>
      </trkpt>
      <trkpt lat="36.548687" lon="-5.467792">
        <ele>762.16</ele>
        <time>2015-06-20T18:04:09Z</time>
      </trkpt>
      <trkpt lat="36.548582" lon="-5.467722">
        <ele>763.57</ele>
        <time>2015-06-20T18:04:16Z</time>
      </trkpt>
      <trkpt lat="36.548563" lon="-5.467711">
        <ele>763.74</ele>
        <time>2015-06-20T18:04:17Z</time>
      </trkpt>
      <trkpt lat="36.548546" lon="-5.467699">
        <ele>764.06</ele>
        <time>2015-06-20T18:04:18Z</time>
      </trkpt>
      <trkpt lat="36.548528" lon="-5.467688">
        <ele>764.21</ele>
        <time>2015-06-20T18:04:19Z</time>
      </trkpt>
      <trkpt lat="36.548510" lon="-5.467678">
        <ele>764.47</ele>
        <time>2015-06-20T18:04:20Z</time>
      </trkpt>
      <trkpt lat="36.548417" lon="-5.467623">
        <ele>765.34</ele>
        <time>2015-06-20T18:04:25Z</time>
      </trkpt>
      <trkpt lat="36.548313" lon="-5.467552">
        <ele>765.95</ele>
        <time>2015-06-20T18:04:31Z</time>
      </trkpt>
      <trkpt lat="36.548233" lon="-5.467411">
        <ele>766.65</ele>
        <time>2015-06-20T18:04:38Z</time>
      </trkpt>
      <trkpt lat="36.548227" lon="-5.467385">
        <ele>766.70</ele>
        <time>2015-06-20T18:04:39Z</time>
      </trkpt>
      <trkpt lat="36.548237" lon="-5.467316">
        <ele>766.81</ele>
        <time>2015-06-20T18:04:42Z</time>
      </trkpt>
      <trkpt lat="36.548250" lon="-5.467299">
        <ele>766.81</ele>
        <time>2015-06-20T18:04:43Z</time>
      </trkpt>
      <trkpt lat="36.548259" lon="-5.467277">
        <ele>766.83</ele>
        <time>2015-06-20T18:04:44Z</time>
      </trkpt>
      <trkpt lat="36.548271" lon="-5.467257">
        <ele>766.91</ele>
        <time>2015-06-20T18:04:45Z</time>
      </trkpt>
      <trkpt lat="36.548283" lon="-5.467240">
        <ele>766.95</ele>
        <time>2015-06-20T18:04:46Z</time>
      </trkpt>
      <trkpt lat="36.548297" lon="-5.467229">
        <ele>767.04</ele>
        <time>2015-06-20T18:04:47Z</time>
      </trkpt>
      <trkpt lat="36.548381" lon="-5.467167">
        <ele>767.55</ele>
        <time>2015-06-20T18:04:53Z</time>
      </trkpt>
      <trkpt lat="36.548399" lon="-5.467165">
        <ele>767.50</ele>
        <time>2015-06-20T18:04:54Z</time>
      </trkpt>
      <trkpt lat="36.548419" lon="-5.467161">
        <ele>767.35</ele>
        <time>2015-06-20T18:04:55Z</time>
      </trkpt>
      <trkpt lat="36.548439" lon="-5.467153">
        <ele>767.22</ele>
        <time>2015-06-20T18:04:56Z</time>
      </trkpt>
      <trkpt lat="36.548461" lon="-5.467146">
        <ele>767.25</ele>
        <time>2015-06-20T18:04:57Z</time>
      </trkpt>
      <trkpt lat="36.548547" lon="-5.467109">
        <ele>767.15</ele>
        <time>2015-06-20T18:05:01Z</time>
      </trkpt>
      <trkpt lat="36.548682" lon="-5.467036">
        <ele>766.61</ele>
        <time>2015-06-20T18:05:08Z</time>
      </trkpt>
      <trkpt lat="36.548810" lon="-5.466926">
        <ele>766.61</ele>
        <time>2015-06-20T18:05:15Z</time>
      </trkpt>
      <trkpt lat="36.548827" lon="-5.466906">
        <ele>767.09</ele>
        <time>2015-06-20T18:05:16Z</time>
      </trkpt>
      <trkpt lat="36.548846" lon="-5.466888">
        <ele>767.27</ele>
        <time>2015-06-20T18:05:17Z</time>
      </trkpt>
      <trkpt lat="36.548863" lon="-5.466867">
        <ele>767.62</ele>
        <time>2015-06-20T18:05:18Z</time>
      </trkpt>
      <trkpt lat="36.548878" lon="-5.466845">
        <ele>768.08</ele>
        <time>2015-06-20T18:05:19Z</time>
      </trkpt>
      <trkpt lat="36.548969" lon="-5.466744">
        <ele>768.87</ele>
        <time>2015-06-20T18:05:24Z</time>
      </trkpt>
      <trkpt lat="36.549082" lon="-5.466633">
        <ele>769.15</ele>
        <time>2015-06-20T18:05:31Z</time>
      </trkpt>
      <trkpt lat="36.549101" lon="-5.466617">
        <ele>769.19</ele>
        <time>2015-06-20T18:05:32Z</time>
      </trkpt>
      <trkpt lat="36.549118" lon="-5.466603">
        <ele>769.19</ele>
        <time>2015-06-20T18:05:33Z</time>
      </trkpt>
      <trkpt lat="36.549134" lon="-5.466587">
        <ele>769.16</ele>
        <time>2015-06-20T18:05:34Z</time>
      </trkpt>
      <trkpt lat="36.549156" lon="-5.466574">
        <ele>768.94</ele>
        <time>2015-06-20T18:05:35Z</time>
      </trkpt>
      <trkpt lat="36.549216" lon="-5.466535">
        <ele>769.02</ele>
        <time>2015-06-20T18:05:38Z</time>
      </trkpt>
      <trkpt lat="36.549315" lon="-5.466452">
        <ele>769.61</ele>
        <time>2015-06-20T18:05:43Z</time>
      </trkpt>
      <trkpt lat="36.549436" lon="-5.466355">
        <ele>770.03</ele>
        <time>2015-06-20T18:05:50Z</time>
      </trkpt>
      <trkpt lat="36.549455" lon="-5.466342">
        <ele>770.02</ele>
        <time>2015-06-20T18:05:51Z</time>
      </trkpt>
      <trkpt lat="36.549471" lon="-5.466329">
        <ele>770.06</ele>
        <time>2015-06-20T18:05:52Z</time>
      </trkpt>
      <trkpt lat="36.549487" lon="-5.466311">
        <ele>770.21</ele>
        <time>2015-06-20T18:05:53Z</time>
      </trkpt>
      <trkpt lat="36.549504" lon="-5.466295">
        <ele>770.40</ele>
        <time>2015-06-20T18:05:54Z</time>
      </trkpt>
      <trkpt lat="36.549560" lon="-5.466219">
        <ele>771.27</ele>
        <time>2015-06-20T18:05:58Z</time>
      </trkpt>
      <trkpt lat="36.549632" lon="-5.466099">
        <ele>772.94</ele>
        <time>2015-06-20T18:06:04Z</time>
      </trkpt>
      <trkpt lat="36.549641" lon="-5.466077">
        <ele>773.29</ele>
        <time>2015-06-20T18:06:05Z</time>
      </trkpt>
      <trkpt lat="36.549648" lon="-5.466055">
        <ele>773.62</ele>
        <time>2015-06-20T18:06:06Z</time>
      </trkpt>
      <trkpt lat="36.549661" lon="-5.466036">
        <ele>773.80</ele>
        <time>2015-06-20T18:06:07Z</time>
      </trkpt>
      <trkpt lat="36.549670" lon="-5.466013">
        <ele>774.11</ele>
        <time>2015-06-20T18:06:08Z</time>
      </trkpt>
      <trkpt lat="36.549687" lon="-5.465971">
        <ele>774.71</ele>
        <time>2015-06-20T18:06:10Z</time>
      </trkpt>
      <trkpt lat="36.549719" lon="-5.465893">
        <ele>775.81</ele>
        <time>2015-06-20T18:06:14Z</time>
      </trkpt>
      <trkpt lat="36.549733" lon="-5.465858">
        <ele>776.40</ele>
        <time>2015-06-20T18:06:16Z</time>
      </trkpt>
      <trkpt lat="36.549759" lon="-5.465828">
        <ele>776.67</ele>
        <time>2015-06-20T18:06:18Z</time>
      </trkpt>
      <trkpt lat="36.549780" lon="-5.465787">
        <ele>777.41</ele>
        <time>2015-06-20T18:06:21Z</time>
      </trkpt>
      <trkpt lat="36.549796" lon="-5.465764">
        <ele>777.88</ele>
        <time>2015-06-20T18:06:23Z</time>
      </trkpt>
      <trkpt lat="36.549805" lon="-5.465756">
        <ele>777.91</ele>
        <time>2015-06-20T18:06:24Z</time>
      </trkpt>
      <trkpt lat="36.549821" lon="-5.465750">
        <ele>777.86</ele>
        <time>2015-06-20T18:06:25Z</time>
      </trkpt>
      <trkpt lat="36.549834" lon="-5.465742">
        <ele>777.81</ele>
        <time>2015-06-20T18:06:26Z</time>
      </trkpt>
      <trkpt lat="36.549853" lon="-5.465737">
        <ele>777.65</ele>
        <time>2015-06-20T18:06:27Z</time>
      </trkpt>
      <trkpt lat="36.549896" lon="-5.465685">
        <ele>778.16</ele>
        <time>2015-06-20T18:06:31Z</time>
      </trkpt>
      <trkpt lat="36.549923" lon="-5.465638">
        <ele>778.72</ele>
        <time>2015-06-20T18:06:34Z</time>
      </trkpt>
      <trkpt lat="36.549931" lon="-5.465619">
        <ele>779.01</ele>
        <time>2015-06-20T18:06:35Z</time>
      </trkpt>
      <trkpt lat="36.549937" lon="-5.465596">
        <ele>779.46</ele>
        <time>2015-06-20T18:06:36Z</time>
      </trkpt>
      <trkpt lat="36.549945" lon="-5.465576">
        <ele>779.75</ele>
        <time>2015-06-20T18:06:37Z</time>
      </trkpt>
      <trkpt lat="36.549954" lon="-5.465559">
        <ele>779.99</ele>
        <time>2015-06-20T18:06:38Z</time>
      </trkpt>
      <trkpt lat="36.549963" lon="-5.465538">
        <ele>780.21</ele>
        <time>2015-06-20T18:06:39Z</time>
      </trkpt>
      <trkpt lat="36.549974" lon="-5.465498">
        <ele>780.89</ele>
        <time>2015-06-20T18:06:41Z</time>
      </trkpt>
      <trkpt lat="36.549994" lon="-5.465355">
        <ele>783.57</ele>
        <time>2015-06-20T18:06:48Z</time>
      </trkpt>
      <trkpt lat="36.549994" lon="-5.465311">
        <ele>784.43</ele>
        <time>2015-06-20T18:06:50Z</time>
      </trkpt>
      <trkpt lat="36.549996" lon="-5.465289">
        <ele>784.99</ele>
        <time>2015-06-20T18:06:51Z</time>
      </trkpt>
      <trkpt lat="36.549999" lon="-5.465270">
        <ele>785.22</ele>
        <time>2015-06-20T18:06:52Z</time>
      </trkpt>
      <trkpt lat="36.550003" lon="-5.465252">
        <ele>785.58</ele>
        <time>2015-06-20T18:06:53Z</time>
      </trkpt>
      <trkpt lat="36.550009" lon="-5.465232">
        <ele>785.91</ele>
        <time>2015-06-20T18:06:54Z</time>
      </trkpt>
      <trkpt lat="36.550014" lon="-5.465213">
        <ele>786.21</ele>
        <time>2015-06-20T18:06:55Z</time>
      </trkpt>
      <trkpt lat="36.550037" lon="-5.465098">
        <ele>788.35</ele>
        <time>2015-06-20T18:07:01Z</time>
      </trkpt>
      <trkpt lat="36.550059" lon="-5.465069">
        <ele>788.56</ele>
        <time>2015-06-20T18:07:03Z</time>
      </trkpt>
      <trkpt lat="36.550067" lon="-5.465055">
        <ele>788.78</ele>
        <time>2015-06-20T18:07:04Z</time>
      </trkpt>
      <trkpt lat="36.550079" lon="-5.465037">
        <ele>788.88</ele>
        <time>2015-06-20T18:07:05Z</time>
      </trkpt>
      <trkpt lat="36.550096" lon="-5.465019">
        <ele>788.96</ele>
        <time>2015-06-20T18:07:06Z</time>
      </trkpt>
      <trkpt lat="36.550105" lon="-5.464998">
        <ele>789.23</ele>
        <time>2015-06-20T18:07:07Z</time>
      </trkpt>
      <trkpt lat="36.550168" lon="-5.464957">
        <ele>788.95</ele>
        <time>2015-06-20T18:07:11Z</time>
      </trkpt>
      <trkpt lat="36.550185" lon="-5.464944">
        <ele>788.96</ele>
        <time>2015-06-20T18:07:12Z</time>
      </trkpt>
      <trkpt lat="36.550251" lon="-5.464904">
        <ele>788.63</ele>
        <time>2015-06-20T18:07:17Z</time>
      </trkpt>
      <trkpt lat="36.550305" lon="-5.464867">
        <ele>788.36</ele>
        <time>2015-06-20T18:07:20Z</time>
      </trkpt>
      <trkpt lat="36.550326" lon="-5.464848">
        <ele>788.31</ele>
        <time>2015-06-20T18:07:21Z</time>
      </trkpt>
      <trkpt lat="36.550343" lon="-5.464829">
        <ele>788.41</ele>
        <time>2015-06-20T18:07:22Z</time>
      </trkpt>
      <trkpt lat="36.550353" lon="-5.464810">
        <ele>788.67</ele>
        <time>2015-06-20T18:07:23Z</time>
      </trkpt>
      <trkpt lat="36.550370" lon="-5.464788">
        <ele>788.74</ele>
        <time>2015-06-20T18:07:24Z</time>
      </trkpt>
      <trkpt lat="36.550415" lon="-5.464716">
        <ele>789.23</ele>
        <time>2015-06-20T18:07:27Z</time>
      </trkpt>
      <trkpt lat="36.550419" lon="-5.464694">
        <ele>789.61</ele>
        <time>2015-06-20T18:07:28Z</time>
      </trkpt>
      <trkpt lat="36.550438" lon="-5.464617">
        <ele>791.07</ele>
        <time>2015-06-20T18:07:31Z</time>
      </trkpt>
      <trkpt lat="36.550509" lon="-5.464456">
        <ele>793.66</ele>
        <time>2015-06-20T18:07:38Z</time>
      </trkpt>
      <trkpt lat="36.550523" lon="-5.464441">
        <ele>793.63</ele>
        <time>2015-06-20T18:07:39Z</time>
      </trkpt>
      <trkpt lat="36.550612" lon="-5.464370">
        <ele>792.83</ele>
        <time>2015-06-20T18:07:44Z</time>
      </trkpt>
      <trkpt lat="36.550627" lon="-5.464349">
        <ele>792.88</ele>
        <time>2015-06-20T18:07:45Z</time>
      </trkpt>
      <trkpt lat="36.550637" lon="-5.464329">
        <ele>793.06</ele>
        <time>2015-06-20T18:07:46Z</time>
      </trkpt>
      <trkpt lat="36.550641" lon="-5.464304">
        <ele>793.43</ele>
        <time>2015-06-20T18:07:47Z</time>
      </trkpt>
      <trkpt lat="36.550652" lon="-5.464286">
        <ele>793.51</ele>
        <time>2015-06-20T18:07:48Z</time>
      </trkpt>
      <trkpt lat="36.550710" lon="-5.464194">
        <ele>794.14</ele>
        <time>2015-06-20T18:07:53Z</time>
      </trkpt>
      <trkpt lat="36.550761" lon="-5.464136">
        <ele>794.02</ele>
        <time>2015-06-20T18:07:57Z</time>
      </trkpt>
      <trkpt lat="36.550768" lon="-5.464125">
        <ele>794.06</ele>
        <time>2015-06-20T18:07:58Z</time>
      </trkpt>
      <trkpt lat="36.550780" lon="-5.464111">
        <ele>793.96</ele>
        <time>2015-06-20T18:07:59Z</time>
      </trkpt>
      <trkpt lat="36.550789" lon="-5.464101">
        <ele>793.92</ele>
        <time>2015-06-20T18:08:00Z</time>
      </trkpt>
      <trkpt lat="36.550796" lon="-5.464086">
        <ele>793.98</ele>
        <time>2015-06-20T18:08:01Z</time>
      </trkpt>
      <trkpt lat="36.550842" lon="-5.464017">
        <ele>793.94</ele>
        <time>2015-06-20T18:08:06Z</time>
      </trkpt>
      <trkpt lat="36.550861" lon="-5.463981">
        <ele>793.83</ele>
        <time>2015-06-20T18:08:08Z</time>
      </trkpt>
      <trkpt lat="36.550870" lon="-5.463962">
        <ele>793.89</ele>
        <time>2015-06-20T18:08:09Z</time>
      </trkpt>
      <trkpt lat="36.550877" lon="-5.463942">
        <ele>793.84</ele>
        <time>2015-06-20T18:08:10Z</time>
      </trkpt>
      <trkpt lat="36.550890" lon="-5.463926">
        <ele>793.73</ele>
        <time>2015-06-20T18:08:11Z</time>
      </trkpt>
      <trkpt lat="36.550898" lon="-5.463909">
        <ele>793.61</ele>
        <time>2015-06-20T18:08:12Z</time>
      </trkpt>
      <trkpt lat="36.550910" lon="-5.463880">
        <ele>793.60</ele>
        <time>2015-06-20T18:08:14Z</time>
      </trkpt>
      <trkpt lat="36.550921" lon="-5.463841">
        <ele>793.25</ele>
        <time>2015-06-20T18:08:16Z</time>
      </trkpt>
      <trkpt lat="36.550944" lon="-5.463789">
        <ele>792.63</ele>
        <time>2015-06-20T18:08:19Z</time>
      </trkpt>
      <trkpt lat="36.550944" lon="-5.463791">
        <ele>792.69</ele>
        <time>2015-06-20T18:08:22Z</time>
      </trkpt>
      <trkpt lat="36.550944" lon="-5.463791">
        <ele>792.70</ele>
        <time>2015-06-20T18:08:28Z</time>
      </trkpt>
      <trkpt lat="36.550944" lon="-5.463791">
        <ele>792.70</ele>
        <time>2015-06-20T18:08:35Z</time>
      </trkpt>
      <trkpt lat="36.550944" lon="-5.463791">
        <ele>792.70</ele>
        <time>2015-06-20T18:08:37Z</time>
      </trkpt>
      <trkpt lat="36.550944" lon="-5.463791">
        <ele>792.63</ele>
        <time>2015-06-20T18:08:41Z</time>
      </trkpt>
      <trkpt lat="36.550944" lon="-5.463791">
        <ele>792.65</ele>
        <time>2015-06-20T18:08:45Z</time>
      </trkpt>
      <trkpt lat="36.550944" lon="-5.463791">
        <ele>792.60</ele>
        <time>2015-06-20T18:08:49Z</time>
      </trkpt>
      <trkpt lat="36.550944" lon="-5.463791">
        <ele>792.61</ele>
        <time>2015-06-20T18:08:52Z</time>
      </trkpt>
      <trkpt lat="36.550944" lon="-5.463791">
        <ele>792.61</ele>
        <time>2015-06-20T18:08:57Z</time>
      </trkpt>
      <trkpt lat="36.550944" lon="-5.463791">
        <ele>792.70</ele>
        <time>2015-06-20T18:08:58Z</time>
      </trkpt>
      <trkpt lat="36.550944" lon="-5.463791">
        <ele>792.62</ele>
        <time>2015-06-20T18:08:59Z</time>
      </trkpt>
      <trkpt lat="36.550944" lon="-5.463790">
        <ele>792.65</ele>
        <time>2015-06-20T18:09:00Z</time>
      </trkpt>
      <trkpt lat="36.550944" lon="-5.463790">
        <ele>792.64</ele>
        <time>2015-06-20T18:09:01Z</time>
      </trkpt>
      <trkpt lat="36.550944" lon="-5.463790">
        <ele>792.66</ele>
        <time>2015-06-20T18:09:07Z</time>
      </trkpt>
      <trkpt lat="36.550944" lon="-5.463789">
        <ele>792.68</ele>
        <time>2015-06-20T18:09:10Z</time>
      </trkpt>
      <trkpt lat="36.550943" lon="-5.463757">
        <ele>792.66</ele>
        <time>2015-06-20T18:09:12Z</time>
      </trkpt>
      <trkpt lat="36.550947" lon="-5.463736">
        <ele>792.52</ele>
        <time>2015-06-20T18:09:13Z</time>
      </trkpt>
      <trkpt lat="36.550963" lon="-5.463688">
        <ele>792.14</ele>
        <time>2015-06-20T18:09:15Z</time>
      </trkpt>
      <trkpt lat="36.551000" lon="-5.463599">
        <ele>791.37</ele>
        <time>2015-06-20T18:09:19Z</time>
      </trkpt>
      <trkpt lat="36.551031" lon="-5.463440">
        <ele>791.82</ele>
        <time>2015-06-20T18:09:26Z</time>
      </trkpt>
      <trkpt lat="36.551043" lon="-5.463414">
        <ele>791.71</ele>
        <time>2015-06-20T18:09:27Z</time>
      </trkpt>
      <trkpt lat="36.551055" lon="-5.463387">
        <ele>791.74</ele>
        <time>2015-06-20T18:09:28Z</time>
      </trkpt>
      <trkpt lat="36.551064" lon="-5.463365">
        <ele>791.76</ele>
        <time>2015-06-20T18:09:29Z</time>
      </trkpt>
      <trkpt lat="36.551072" lon="-5.463342">
        <ele>791.89</ele>
        <time>2015-06-20T18:09:30Z</time>
      </trkpt>
      <trkpt lat="36.551098" lon="-5.463278">
        <ele>791.98</ele>
        <time>2015-06-20T18:09:33Z</time>
      </trkpt>
      <trkpt lat="36.551141" lon="-5.463164">
        <ele>792.36</ele>
        <time>2015-06-20T18:09:38Z</time>
      </trkpt>
      <trkpt lat="36.551163" lon="-5.463108">
        <ele>792.53</ele>
        <time>2015-06-20T18:09:40Z</time>
      </trkpt>
      <trkpt lat="36.551244" lon="-5.462926">
        <ele>793.71</ele>
        <time>2015-06-20T18:09:47Z</time>
      </trkpt>
      <trkpt lat="36.551319" lon="-5.462805">
        <ele>794.53</ele>
        <time>2015-06-20T18:09:52Z</time>
      </trkpt>
      <trkpt lat="36.551331" lon="-5.462781">
        <ele>794.83</ele>
        <time>2015-06-20T18:09:53Z</time>
      </trkpt>
      <trkpt lat="36.551346" lon="-5.462755">
        <ele>794.90</ele>
        <time>2015-06-20T18:09:54Z</time>
      </trkpt>
      <trkpt lat="36.551361" lon="-5.462732">
        <ele>795.02</ele>
        <time>2015-06-20T18:09:55Z</time>
      </trkpt>
      <trkpt lat="36.551370" lon="-5.462709">
        <ele>795.21</ele>
        <time>2015-06-20T18:09:56Z</time>
      </trkpt>
      <trkpt lat="36.551394" lon="-5.462613">
        <ele>796.31</ele>
        <time>2015-06-20T18:10:00Z</time>
      </trkpt>
      <trkpt lat="36.551444" lon="-5.462496">
        <ele>797.04</ele>
        <time>2015-06-20T18:10:05Z</time>
      </trkpt>
      <trkpt lat="36.551460" lon="-5.462472">
        <ele>797.04</ele>
        <time>2015-06-20T18:10:06Z</time>
      </trkpt>
      <trkpt lat="36.551477" lon="-5.462451">
        <ele>796.92</ele>
        <time>2015-06-20T18:10:07Z</time>
      </trkpt>
      <trkpt lat="36.551496" lon="-5.462429">
        <ele>796.87</ele>
        <time>2015-06-20T18:10:08Z</time>
      </trkpt>
      <trkpt lat="36.551514" lon="-5.462410">
        <ele>796.78</ele>
        <time>2015-06-20T18:10:09Z</time>
      </trkpt>
      <trkpt lat="36.551542" lon="-5.462361">
        <ele>796.84</ele>
        <time>2015-06-20T18:10:11Z</time>
      </trkpt>
      <trkpt lat="36.551619" lon="-5.462224">
        <ele>797.58</ele>
        <time>2015-06-20T18:10:17Z</time>
      </trkpt>
      <trkpt lat="36.551644" lon="-5.462146">
        <ele>797.75</ele>
        <time>2015-06-20T18:10:20Z</time>
      </trkpt>
      <trkpt lat="36.551649" lon="-5.462116">
        <ele>797.95</ele>
        <time>2015-06-20T18:10:21Z</time>
      </trkpt>
      <trkpt lat="36.551659" lon="-5.462083">
        <ele>798.01</ele>
        <time>2015-06-20T18:10:22Z</time>
      </trkpt>
      <trkpt lat="36.551668" lon="-5.462049">
        <ele>798.21</ele>
        <time>2015-06-20T18:10:23Z</time>
      </trkpt>
      <trkpt lat="36.551716" lon="-5.461869">
        <ele>798.00</ele>
        <time>2015-06-20T18:10:29Z</time>
      </trkpt>
      <trkpt lat="36.551749" lon="-5.461724">
        <ele>797.23</ele>
        <time>2015-06-20T18:10:33Z</time>
      </trkpt>
      <trkpt lat="36.551793" lon="-5.461619">
        <ele>796.97</ele>
        <time>2015-06-20T18:10:36Z</time>
      </trkpt>
      <trkpt lat="36.551870" lon="-5.461463">
        <ele>796.83</ele>
        <time>2015-06-20T18:10:40Z</time>
      </trkpt>
      <trkpt lat="36.551907" lon="-5.461384">
        <ele>796.83</ele>
        <time>2015-06-20T18:10:42Z</time>
      </trkpt>
      <trkpt lat="36.552016" lon="-5.461189">
        <ele>796.24</ele>
        <time>2015-06-20T18:10:47Z</time>
      </trkpt>
      <trkpt lat="36.552057" lon="-5.461108">
        <ele>796.06</ele>
        <time>2015-06-20T18:10:49Z</time>
      </trkpt>
      <trkpt lat="36.552076" lon="-5.461067">
        <ele>796.06</ele>
        <time>2015-06-20T18:10:50Z</time>
      </trkpt>
      <trkpt lat="36.552096" lon="-5.461028">
        <ele>796.09</ele>
        <time>2015-06-20T18:10:51Z</time>
      </trkpt>
      <trkpt lat="36.552121" lon="-5.460993">
        <ele>796.01</ele>
        <time>2015-06-20T18:10:52Z</time>
      </trkpt>
      <trkpt lat="36.552149" lon="-5.460962">
        <ele>796.03</ele>
        <time>2015-06-20T18:10:53Z</time>
      </trkpt>
      <trkpt lat="36.552179" lon="-5.460939">
        <ele>796.01</ele>
        <time>2015-06-20T18:10:54Z</time>
      </trkpt>
      <trkpt lat="36.552428" lon="-5.460816">
        <ele>796.28</ele>
        <time>2015-06-20T18:11:01Z</time>
      </trkpt>
      <trkpt lat="36.552546" lon="-5.460760">
        <ele>796.97</ele>
        <time>2015-06-20T18:11:04Z</time>
      </trkpt>
      <trkpt lat="36.552703" lon="-5.460663">
        <ele>797.80</ele>
        <time>2015-06-20T18:11:08Z</time>
      </trkpt>
      <trkpt lat="36.552844" lon="-5.460556">
        <ele>798.57</ele>
        <time>2015-06-20T18:11:12Z</time>
      </trkpt>
      <trkpt lat="36.552881" lon="-5.460533">
        <ele>798.80</ele>
        <time>2015-06-20T18:11:13Z</time>
      </trkpt>
      <trkpt lat="36.552919" lon="-5.460512">
        <ele>798.85</ele>
        <time>2015-06-20T18:11:14Z</time>
      </trkpt>
      <trkpt lat="36.553079" lon="-5.460425">
        <ele>799.47</ele>
        <time>2015-06-20T18:11:19Z</time>
      </trkpt>
      <trkpt lat="36.553224" lon="-5.460314">
        <ele>799.36</ele>
        <time>2015-06-20T18:11:25Z</time>
      </trkpt>
      <trkpt lat="36.553244" lon="-5.460291">
        <ele>799.42</ele>
        <time>2015-06-20T18:11:26Z</time>
      </trkpt>
      <trkpt lat="36.553309" lon="-5.460204">
        <ele>800.03</ele>
        <time>2015-06-20T18:11:30Z</time>
      </trkpt>
      <trkpt lat="36.553323" lon="-5.460186">
        <ele>800.21</ele>
        <time>2015-06-20T18:11:31Z</time>
      </trkpt>
      <trkpt lat="36.553339" lon="-5.460164">
        <ele>800.41</ele>
        <time>2015-06-20T18:11:32Z</time>
      </trkpt>
      <trkpt lat="36.553354" lon="-5.460140">
        <ele>800.76</ele>
        <time>2015-06-20T18:11:33Z</time>
      </trkpt>
      <trkpt lat="36.553369" lon="-5.460118">
        <ele>801.02</ele>
        <time>2015-06-20T18:11:34Z</time>
      </trkpt>
      <trkpt lat="36.553434" lon="-5.460009">
        <ele>802.79</ele>
        <time>2015-06-20T18:11:40Z</time>
      </trkpt>
      <trkpt lat="36.553449" lon="-5.459975">
        <ele>803.53</ele>
        <time>2015-06-20T18:11:43Z</time>
      </trkpt>
      <trkpt lat="36.553464" lon="-5.459958">
        <ele>803.82</ele>
        <time>2015-06-20T18:11:45Z</time>
      </trkpt>
      <trkpt lat="36.553472" lon="-5.459951">
        <ele>803.98</ele>
        <time>2015-06-20T18:11:46Z</time>
      </trkpt>
      <trkpt lat="36.553482" lon="-5.459944">
        <ele>804.07</ele>
        <time>2015-06-20T18:11:47Z</time>
      </trkpt>
      <trkpt lat="36.553491" lon="-5.459936">
        <ele>804.17</ele>
        <time>2015-06-20T18:11:48Z</time>
      </trkpt>
      <trkpt lat="36.553495" lon="-5.459924">
        <ele>804.42</ele>
        <time>2015-06-20T18:11:49Z</time>
      </trkpt>
      <trkpt lat="36.553501" lon="-5.459917">
        <ele>804.68</ele>
        <time>2015-06-20T18:11:52Z</time>
      </trkpt>
      <trkpt lat="36.553501" lon="-5.459917">
        <ele>804.61</ele>
        <time>2015-06-20T18:12:00Z</time>
      </trkpt>
      <trkpt lat="36.553501" lon="-5.459917">
        <ele>804.61</ele>
        <time>2015-06-20T18:12:05Z</time>
      </trkpt>
      <trkpt lat="36.553501" lon="-5.459917">
        <ele>804.65</ele>
        <time>2015-06-20T18:12:10Z</time>
      </trkpt>
      <trkpt lat="36.553518" lon="-5.459909">
        <ele>804.70</ele>
        <time>2015-06-20T18:12:14Z</time>
      </trkpt>
      <trkpt lat="36.553543" lon="-5.459901">
        <ele>804.63</ele>
        <time>2015-06-20T18:12:17Z</time>
      </trkpt>
      <trkpt lat="36.553569" lon="-5.459884">
        <ele>804.83</ele>
        <time>2015-06-20T18:12:19Z</time>
      </trkpt>
      <trkpt lat="36.553640" lon="-5.459833">
        <ele>805.87</ele>
        <time>2015-06-20T18:12:24Z</time>
      </trkpt>
      <trkpt lat="36.553715" lon="-5.459797">
        <ele>806.77</ele>
        <time>2015-06-20T18:12:29Z</time>
      </trkpt>
      <trkpt lat="36.553731" lon="-5.459790">
        <ele>806.93</ele>
        <time>2015-06-20T18:12:30Z</time>
      </trkpt>
      <trkpt lat="36.553747" lon="-5.459780">
        <ele>807.25</ele>
        <time>2015-06-20T18:12:31Z</time>
      </trkpt>
      <trkpt lat="36.553759" lon="-5.459770">
        <ele>807.60</ele>
        <time>2015-06-20T18:12:32Z</time>
      </trkpt>
      <trkpt lat="36.553774" lon="-5.459761">
        <ele>807.85</ele>
        <time>2015-06-20T18:12:33Z</time>
      </trkpt>
      <trkpt lat="36.553791" lon="-5.459754">
        <ele>808.02</ele>
        <time>2015-06-20T18:12:34Z</time>
      </trkpt>
      <trkpt lat="36.553809" lon="-5.459747">
        <ele>808.21</ele>
        <time>2015-06-20T18:12:35Z</time>
      </trkpt>
      <trkpt lat="36.553866" lon="-5.459725">
        <ele>808.95</ele>
        <time>2015-06-20T18:12:38Z</time>
      </trkpt>
      <trkpt lat="36.553932" lon="-5.459711">
        <ele>809.27</ele>
        <time>2015-06-20T18:12:42Z</time>
      </trkpt>
      <trkpt lat="36.553944" lon="-5.459707">
        <ele>809.26</ele>
        <time>2015-06-20T18:12:43Z</time>
      </trkpt>
      <trkpt lat="36.553960" lon="-5.459704">
        <ele>809.36</ele>
        <time>2015-06-20T18:12:44Z</time>
      </trkpt>
      <trkpt lat="36.553979" lon="-5.459704">
        <ele>809.27</ele>
        <time>2015-06-20T18:12:45Z</time>
      </trkpt>
      <trkpt lat="36.553992" lon="-5.459706">
        <ele>809.18</ele>
        <time>2015-06-20T18:12:46Z</time>
      </trkpt>
      <trkpt lat="36.554010" lon="-5.459705">
        <ele>809.08</ele>
        <time>2015-06-20T18:12:47Z</time>
      </trkpt>
      <trkpt lat="36.554026" lon="-5.459696">
        <ele>809.22</ele>
        <time>2015-06-20T18:12:48Z</time>
      </trkpt>
      <trkpt lat="36.554101" lon="-5.459702">
        <ele>808.82</ele>
        <time>2015-06-20T18:12:52Z</time>
      </trkpt>
      <trkpt lat="36.554172" lon="-5.459698">
        <ele>808.68</ele>
        <time>2015-06-20T18:12:55Z</time>
      </trkpt>
      <trkpt lat="36.554212" lon="-5.459688">
        <ele>808.51</ele>
        <time>2015-06-20T18:12:57Z</time>
      </trkpt>
      <trkpt lat="36.554236" lon="-5.459675">
        <ele>808.61</ele>
        <time>2015-06-20T18:12:58Z</time>
      </trkpt>
      <trkpt lat="36.554264" lon="-5.459664">
        <ele>808.72</ele>
        <time>2015-06-20T18:12:59Z</time>
      </trkpt>
      <trkpt lat="36.554297" lon="-5.459655">
        <ele>808.68</ele>
        <time>2015-06-20T18:13:00Z</time>
      </trkpt>
      <trkpt lat="36.554335" lon="-5.459650">
        <ele>808.44</ele>
        <time>2015-06-20T18:13:01Z</time>
      </trkpt>
      <trkpt lat="36.554403" lon="-5.459630">
        <ele>808.35</ele>
        <time>2015-06-20T18:13:03Z</time>
      </trkpt>
      <trkpt lat="36.554613" lon="-5.459567">
        <ele>807.92</ele>
        <time>2015-06-20T18:13:10Z</time>
      </trkpt>
      <trkpt lat="36.554665" lon="-5.459553">
        <ele>807.89</ele>
        <time>2015-06-20T18:13:12Z</time>
      </trkpt>
      <trkpt lat="36.554690" lon="-5.459552">
        <ele>807.62</ele>
        <time>2015-06-20T18:13:13Z</time>
      </trkpt>
      <trkpt lat="36.554715" lon="-5.459548">
        <ele>807.51</ele>
        <time>2015-06-20T18:13:14Z</time>
      </trkpt>
      <trkpt lat="36.554740" lon="-5.459541">
        <ele>807.42</ele>
        <time>2015-06-20T18:13:15Z</time>
      </trkpt>
      <trkpt lat="36.554765" lon="-5.459540">
        <ele>807.30</ele>
        <time>2015-06-20T18:13:16Z</time>
      </trkpt>
      <trkpt lat="36.554795" lon="-5.459537">
        <ele>807.11</ele>
        <time>2015-06-20T18:13:17Z</time>
      </trkpt>
      <trkpt lat="36.554960" lon="-5.459447">
        <ele>808.21</ele>
        <time>2015-06-20T18:13:23Z</time>
      </trkpt>
      <trkpt lat="36.555106" lon="-5.459383">
        <ele>808.77</ele>
        <time>2015-06-20T18:13:28Z</time>
      </trkpt>
      <trkpt lat="36.555264" lon="-5.459373">
        <ele>808.37</ele>
        <time>2015-06-20T18:13:32Z</time>
      </trkpt>
      <trkpt lat="36.555309" lon="-5.459376">
        <ele>808.12</ele>
        <time>2015-06-20T18:13:33Z</time>
      </trkpt>
      <trkpt lat="36.555400" lon="-5.459377">
        <ele>807.93</ele>
        <time>2015-06-20T18:13:35Z</time>
      </trkpt>
      <trkpt lat="36.555490" lon="-5.459366">
        <ele>807.95</ele>
        <time>2015-06-20T18:13:37Z</time>
      </trkpt>
      <trkpt lat="36.555583" lon="-5.459356">
        <ele>807.83</ele>
        <time>2015-06-20T18:13:39Z</time>
      </trkpt>
      <trkpt lat="36.555625" lon="-5.459357">
        <ele>807.77</ele>
        <time>2015-06-20T18:13:40Z</time>
      </trkpt>
      <trkpt lat="36.555775" lon="-5.459332">
        <ele>808.03</ele>
        <time>2015-06-20T18:13:44Z</time>
      </trkpt>
      <trkpt lat="36.555992" lon="-5.459256">
        <ele>808.29</ele>
        <time>2015-06-20T18:13:51Z</time>
      </trkpt>
      <trkpt lat="36.556176" lon="-5.459144">
        <ele>808.76</ele>
        <time>2015-06-20T18:13:57Z</time>
      </trkpt>
      <trkpt lat="36.556245" lon="-5.459091">
        <ele>809.03</ele>
        <time>2015-06-20T18:13:59Z</time>
      </trkpt>
      <trkpt lat="36.556281" lon="-5.459071">
        <ele>809.11</ele>
        <time>2015-06-20T18:14:00Z</time>
      </trkpt>
      <trkpt lat="36.556324" lon="-5.459051">
        <ele>809.16</ele>
        <time>2015-06-20T18:14:01Z</time>
      </trkpt>
      <trkpt lat="36.556368" lon="-5.459037">
        <ele>809.01</ele>
        <time>2015-06-20T18:14:02Z</time>
      </trkpt>
      <trkpt lat="36.556410" lon="-5.459029">
        <ele>808.99</ele>
        <time>2015-06-20T18:14:03Z</time>
      </trkpt>
      <trkpt lat="36.556489" lon="-5.459025">
        <ele>808.74</ele>
        <time>2015-06-20T18:14:06Z</time>
      </trkpt>
      <trkpt lat="36.556499" lon="-5.459022">
        <ele>808.78</ele>
        <time>2015-06-20T18:14:07Z</time>
      </trkpt>
      <trkpt lat="36.556554" lon="-5.459023">
        <ele>808.54</ele>
        <time>2015-06-20T18:14:13Z</time>
      </trkpt>
      <trkpt lat="36.556610" lon="-5.459067">
        <ele>807.13</ele>
        <time>2015-06-20T18:14:20Z</time>
      </trkpt>
      <trkpt lat="36.556626" lon="-5.459074">
        <ele>806.95</ele>
        <time>2015-06-20T18:14:24Z</time>
      </trkpt>
      <trkpt lat="36.556626" lon="-5.459074">
        <ele>806.94</ele>
        <time>2015-06-20T18:14:26Z</time>
      </trkpt>
      <trkpt lat="36.556632" lon="-5.459063">
        <ele>807.15</ele>
        <time>2015-06-20T18:14:34Z</time>
      </trkpt>
      <trkpt lat="36.556668" lon="-5.459043">
        <ele>807.61</ele>
        <time>2015-06-20T18:14:41Z</time>
      </trkpt>
      <trkpt lat="36.556742" lon="-5.459041">
        <ele>807.81</ele>
        <time>2015-06-20T18:14:45Z</time>
      </trkpt>
      <trkpt lat="36.556779" lon="-5.459058">
        <ele>807.58</ele>
        <time>2015-06-20T18:14:47Z</time>
      </trkpt>
      <trkpt lat="36.556814" lon="-5.459079">
        <ele>807.18</ele>
        <time>2015-06-20T18:14:49Z</time>
      </trkpt>
      <trkpt lat="36.556920" lon="-5.459110">
        <ele>806.97</ele>
        <time>2015-06-20T18:14:53Z</time>
      </trkpt>
      <trkpt lat="36.557100" lon="-5.459151">
        <ele>805.76</ele>
        <time>2015-06-20T18:14:58Z</time>
      </trkpt>
      <trkpt lat="36.557143" lon="-5.459171">
        <ele>805.19</ele>
        <time>2015-06-20T18:14:59Z</time>
      </trkpt>
      <trkpt lat="36.557192" lon="-5.459194">
        <ele>804.21</ele>
        <time>2015-06-20T18:15:00Z</time>
      </trkpt>
      <trkpt lat="36.557240" lon="-5.459218">
        <ele>803.32</ele>
        <time>2015-06-20T18:15:01Z</time>
      </trkpt>
      <trkpt lat="36.557288" lon="-5.459246">
        <ele>802.59</ele>
        <time>2015-06-20T18:15:02Z</time>
      </trkpt>
      <trkpt lat="36.557336" lon="-5.459274">
        <ele>801.80</ele>
        <time>2015-06-20T18:15:03Z</time>
      </trkpt>
      <trkpt lat="36.557437" lon="-5.459314">
        <ele>800.62</ele>
        <time>2015-06-20T18:15:05Z</time>
      </trkpt>
      <trkpt lat="36.557616" lon="-5.459285">
        <ele>800.93</ele>
        <time>2015-06-20T18:15:08Z</time>
      </trkpt>
      <trkpt lat="36.557798" lon="-5.459151">
        <ele>803.01</ele>
        <time>2015-06-20T18:15:11Z</time>
      </trkpt>
      <trkpt lat="36.557850" lon="-5.459104">
        <ele>803.11</ele>
        <time>2015-06-20T18:15:12Z</time>
      </trkpt>
      <trkpt lat="36.557898" lon="-5.459067">
        <ele>803.19</ele>
        <time>2015-06-20T18:15:13Z</time>
      </trkpt>
      <trkpt lat="36.557946" lon="-5.459035">
        <ele>803.18</ele>
        <time>2015-06-20T18:15:14Z</time>
      </trkpt>
      <trkpt lat="36.557999" lon="-5.459008">
        <ele>802.95</ele>
        <time>2015-06-20T18:15:15Z</time>
      </trkpt>
      <trkpt lat="36.558055" lon="-5.458986">
        <ele>802.68</ele>
        <time>2015-06-20T18:15:16Z</time>
      </trkpt>
      <trkpt lat="36.558263" lon="-5.458903">
        <ele>799.96</ele>
        <time>2015-06-20T18:15:19Z</time>
      </trkpt>
      <trkpt lat="36.558339" lon="-5.458874">
        <ele>799.19</ele>
        <time>2015-06-20T18:15:20Z</time>
      </trkpt>
      <trkpt lat="36.558419" lon="-5.458832">
        <ele>797.88</ele>
        <time>2015-06-20T18:15:21Z</time>
      </trkpt>
      <trkpt lat="36.558504" lon="-5.458784">
        <ele>796.75</ele>
        <time>2015-06-20T18:15:22Z</time>
      </trkpt>
      <trkpt lat="36.558597" lon="-5.458722">
        <ele>795.95</ele>
        <time>2015-06-20T18:15:23Z</time>
      </trkpt>
      <trkpt lat="36.558678" lon="-5.458648">
        <ele>795.81</ele>
        <time>2015-06-20T18:15:24Z</time>
      </trkpt>
      <trkpt lat="36.558754" lon="-5.458564">
        <ele>795.91</ele>
        <time>2015-06-20T18:15:25Z</time>
      </trkpt>
      <trkpt lat="36.558825" lon="-5.458482">
        <ele>796.24</ele>
        <time>2015-06-20T18:15:26Z</time>
      </trkpt>
      <trkpt lat="36.558887" lon="-5.458403">
        <ele>796.57</ele>
        <time>2015-06-20T18:15:27Z</time>
      </trkpt>
      <trkpt lat="36.558943" lon="-5.458328">
        <ele>796.79</ele>
        <time>2015-06-20T18:15:28Z</time>
      </trkpt>
      <trkpt lat="36.558998" lon="-5.458258">
        <ele>796.46</ele>
        <time>2015-06-20T18:15:29Z</time>
      </trkpt>
      <trkpt lat="36.559054" lon="-5.458192">
        <ele>796.29</ele>
        <time>2015-06-20T18:15:30Z</time>
      </trkpt>
      <trkpt lat="36.559112" lon="-5.458129">
        <ele>795.95</ele>
        <time>2015-06-20T18:15:31Z</time>
      </trkpt>
      <trkpt lat="36.559334" lon="-5.457913">
        <ele>794.52</ele>
        <time>2015-06-20T18:15:35Z</time>
      </trkpt>
      <trkpt lat="36.559591" lon="-5.457688">
        <ele>795.86</ele>
        <time>2015-06-20T18:15:40Z</time>
      </trkpt>
      <trkpt lat="36.559639" lon="-5.457647">
        <ele>796.27</ele>
        <time>2015-06-20T18:15:41Z</time>
      </trkpt>
      <trkpt lat="36.559686" lon="-5.457612">
        <ele>796.56</ele>
        <time>2015-06-20T18:15:42Z</time>
      </trkpt>
      <trkpt lat="36.559733" lon="-5.457584">
        <ele>796.72</ele>
        <time>2015-06-20T18:15:43Z</time>
      </trkpt>
      <trkpt lat="36.559778" lon="-5.457559">
        <ele>796.71</ele>
        <time>2015-06-20T18:15:44Z</time>
      </trkpt>
      <trkpt lat="36.559822" lon="-5.457532">
        <ele>796.76</ele>
        <time>2015-06-20T18:15:45Z</time>
      </trkpt>
      <trkpt lat="36.560032" lon="-5.457409">
        <ele>796.89</ele>
        <time>2015-06-20T18:15:50Z</time>
      </trkpt>
      <trkpt lat="36.560078" lon="-5.457393">
        <ele>796.27</ele>
        <time>2015-06-20T18:15:51Z</time>
      </trkpt>
      <trkpt lat="36.560124" lon="-5.457381">
        <ele>795.74</ele>
        <time>2015-06-20T18:15:52Z</time>
      </trkpt>
      <trkpt lat="36.560264" lon="-5.457343">
        <ele>794.05</ele>
        <time>2015-06-20T18:15:55Z</time>
      </trkpt>
      <trkpt lat="36.560311" lon="-5.457332">
        <ele>793.78</ele>
        <time>2015-06-20T18:15:56Z</time>
      </trkpt>
      <trkpt lat="36.560568" lon="-5.457250">
        <ele>793.39</ele>
        <time>2015-06-20T18:16:01Z</time>
      </trkpt>
      <trkpt lat="36.560665" lon="-5.457207">
        <ele>793.50</ele>
        <time>2015-06-20T18:16:03Z</time>
      </trkpt>
      <trkpt lat="36.560748" lon="-5.457147">
        <ele>793.27</ele>
        <time>2015-06-20T18:16:05Z</time>
      </trkpt>
      <trkpt lat="36.560779" lon="-5.457106">
        <ele>793.33</ele>
        <time>2015-06-20T18:16:06Z</time>
      </trkpt>
      <trkpt lat="36.560805" lon="-5.457062">
        <ele>793.42</ele>
        <time>2015-06-20T18:16:07Z</time>
      </trkpt>
      <trkpt lat="36.560825" lon="-5.457017">
        <ele>793.61</ele>
        <time>2015-06-20T18:16:08Z</time>
      </trkpt>
      <trkpt lat="36.560831" lon="-5.456973">
        <ele>793.86</ele>
        <time>2015-06-20T18:16:09Z</time>
      </trkpt>
      <trkpt lat="36.560832" lon="-5.456926">
        <ele>793.94</ele>
        <time>2015-06-20T18:16:10Z</time>
      </trkpt>
      <trkpt lat="36.560837" lon="-5.456708">
        <ele>793.15</ele>
        <time>2015-06-20T18:16:14Z</time>
      </trkpt>
      <trkpt lat="36.560826" lon="-5.456643">
        <ele>792.82</ele>
        <time>2015-06-20T18:16:15Z</time>
      </trkpt>
      <trkpt lat="36.560760" lon="-5.456456">
        <ele>791.36</ele>
        <time>2015-06-20T18:16:18Z</time>
      </trkpt>
      <trkpt lat="36.560698" lon="-5.456330">
        <ele>790.28</ele>
        <time>2015-06-20T18:16:20Z</time>
      </trkpt>
      <trkpt lat="36.560657" lon="-5.456269">
        <ele>789.79</ele>
        <time>2015-06-20T18:16:21Z</time>
      </trkpt>
      <trkpt lat="36.560507" lon="-5.456097">
        <ele>788.34</ele>
        <time>2015-06-20T18:16:24Z</time>
      </trkpt>
      <trkpt lat="36.560456" lon="-5.456031">
        <ele>787.93</ele>
        <time>2015-06-20T18:16:25Z</time>
      </trkpt>
      <trkpt lat="36.560407" lon="-5.455960">
        <ele>787.45</ele>
        <time>2015-06-20T18:16:26Z</time>
      </trkpt>
      <trkpt lat="36.560355" lon="-5.455889">
        <ele>787.01</ele>
        <time>2015-06-20T18:16:27Z</time>
      </trkpt>
      <trkpt lat="36.560305" lon="-5.455824">
        <ele>786.61</ele>
        <time>2015-06-20T18:16:28Z</time>
      </trkpt>
      <trkpt lat="36.560265" lon="-5.455765">
        <ele>786.17</ele>
        <time>2015-06-20T18:16:29Z</time>
      </trkpt>
      <trkpt lat="36.560232" lon="-5.455706">
        <ele>785.42</ele>
        <time>2015-06-20T18:16:30Z</time>
      </trkpt>
      <trkpt lat="36.560201" lon="-5.455652">
        <ele>784.82</ele>
        <time>2015-06-20T18:16:31Z</time>
      </trkpt>
      <trkpt lat="36.560172" lon="-5.455594">
        <ele>784.32</ele>
        <time>2015-06-20T18:16:32Z</time>
      </trkpt>
      <trkpt lat="36.560139" lon="-5.455540">
        <ele>783.93</ele>
        <time>2015-06-20T18:16:33Z</time>
      </trkpt>
      <trkpt lat="36.560101" lon="-5.455501">
        <ele>783.84</ele>
        <time>2015-06-20T18:16:34Z</time>
      </trkpt>
      <trkpt lat="36.560053" lon="-5.455480">
        <ele>783.98</ele>
        <time>2015-06-20T18:16:35Z</time>
      </trkpt>
      <trkpt lat="36.560004" lon="-5.455483">
        <ele>784.24</ele>
        <time>2015-06-20T18:16:36Z</time>
      </trkpt>
      <trkpt lat="36.559958" lon="-5.455502">
        <ele>784.13</ele>
        <time>2015-06-20T18:16:37Z</time>
      </trkpt>
      <trkpt lat="36.559915" lon="-5.455528">
        <ele>784.19</ele>
        <time>2015-06-20T18:16:38Z</time>
      </trkpt>
      <trkpt lat="36.559783" lon="-5.455587">
        <ele>783.82</ele>
        <time>2015-06-20T18:16:41Z</time>
      </trkpt>
      <trkpt lat="36.559733" lon="-5.455599">
        <ele>783.51</ele>
        <time>2015-06-20T18:16:42Z</time>
      </trkpt>
      <trkpt lat="36.559530" lon="-5.455650">
        <ele>782.03</ele>
        <time>2015-06-20T18:16:46Z</time>
      </trkpt>
      <trkpt lat="36.559427" lon="-5.455679">
        <ele>781.69</ele>
        <time>2015-06-20T18:16:48Z</time>
      </trkpt>
      <trkpt lat="36.559373" lon="-5.455697">
        <ele>781.71</ele>
        <time>2015-06-20T18:16:49Z</time>
      </trkpt>
      <trkpt lat="36.559319" lon="-5.455710">
        <ele>781.64</ele>
        <time>2015-06-20T18:16:50Z</time>
      </trkpt>
      <trkpt lat="36.559266" lon="-5.455722">
        <ele>781.64</ele>
        <time>2015-06-20T18:16:51Z</time>
      </trkpt>
      <trkpt lat="36.559208" lon="-5.455734">
        <ele>781.55</ele>
        <time>2015-06-20T18:16:52Z</time>
      </trkpt>
      <trkpt lat="36.559150" lon="-5.455744">
        <ele>781.38</ele>
        <time>2015-06-20T18:16:53Z</time>
      </trkpt>
      <trkpt lat="36.559091" lon="-5.455751">
        <ele>781.13</ele>
        <time>2015-06-20T18:16:54Z</time>
      </trkpt>
      <trkpt lat="36.559030" lon="-5.455759">
        <ele>780.87</ele>
        <time>2015-06-20T18:16:55Z</time>
      </trkpt>
      <trkpt lat="36.558594" lon="-5.455771">
        <ele>778.16</ele>
        <time>2015-06-20T18:17:02Z</time>
      </trkpt>
      <trkpt lat="36.558529" lon="-5.455780">
        <ele>778.22</ele>
        <time>2015-06-20T18:17:03Z</time>
      </trkpt>
      <trkpt lat="36.558461" lon="-5.455789">
        <ele>778.41</ele>
        <time>2015-06-20T18:17:04Z</time>
      </trkpt>
      <trkpt lat="36.558391" lon="-5.455798">
        <ele>778.59</ele>
        <time>2015-06-20T18:17:05Z</time>
      </trkpt>
      <trkpt lat="36.558316" lon="-5.455809">
        <ele>778.66</ele>
        <time>2015-06-20T18:17:06Z</time>
      </trkpt>
      <trkpt lat="36.558246" lon="-5.455819">
        <ele>778.52</ele>
        <time>2015-06-20T18:17:07Z</time>
      </trkpt>
      <trkpt lat="36.558176" lon="-5.455831">
        <ele>778.48</ele>
        <time>2015-06-20T18:17:08Z</time>
      </trkpt>
      <trkpt lat="36.558107" lon="-5.455843">
        <ele>778.35</ele>
        <time>2015-06-20T18:17:09Z</time>
      </trkpt>
      <trkpt lat="36.558040" lon="-5.455857">
        <ele>778.14</ele>
        <time>2015-06-20T18:17:10Z</time>
      </trkpt>
      <trkpt lat="36.557971" lon="-5.455869">
        <ele>777.51</ele>
        <time>2015-06-20T18:17:11Z</time>
      </trkpt>
      <trkpt lat="36.557902" lon="-5.455879">
        <ele>776.93</ele>
        <time>2015-06-20T18:17:12Z</time>
      </trkpt>
      <trkpt lat="36.557834" lon="-5.455892">
        <ele>776.44</ele>
        <time>2015-06-20T18:17:13Z</time>
      </trkpt>
      <trkpt lat="36.557767" lon="-5.455910">
        <ele>776.08</ele>
        <time>2015-06-20T18:17:14Z</time>
      </trkpt>
      <trkpt lat="36.557702" lon="-5.455932">
        <ele>775.61</ele>
        <time>2015-06-20T18:17:15Z</time>
      </trkpt>
      <trkpt lat="36.557630" lon="-5.455949">
        <ele>775.11</ele>
        <time>2015-06-20T18:17:16Z</time>
      </trkpt>
      <trkpt lat="36.557564" lon="-5.455957">
        <ele>774.55</ele>
        <time>2015-06-20T18:17:17Z</time>
      </trkpt>
      <trkpt lat="36.557495" lon="-5.455966">
        <ele>773.94</ele>
        <time>2015-06-20T18:17:18Z</time>
      </trkpt>
      <trkpt lat="36.557428" lon="-5.455976">
        <ele>773.33</ele>
        <time>2015-06-20T18:17:19Z</time>
      </trkpt>
      <trkpt lat="36.557360" lon="-5.455992">
        <ele>772.82</ele>
        <time>2015-06-20T18:17:20Z</time>
      </trkpt>
      <trkpt lat="36.557292" lon="-5.456010">
        <ele>772.31</ele>
        <time>2015-06-20T18:17:21Z</time>
      </trkpt>
      <trkpt lat="36.557225" lon="-5.456030">
        <ele>771.98</ele>
        <time>2015-06-20T18:17:22Z</time>
      </trkpt>
      <trkpt lat="36.557156" lon="-5.456043">
        <ele>771.54</ele>
        <time>2015-06-20T18:17:23Z</time>
      </trkpt>
      <trkpt lat="36.556956" lon="-5.456069">
        <ele>770.56</ele>
        <time>2015-06-20T18:17:26Z</time>
      </trkpt>
      <trkpt lat="36.556825" lon="-5.456086">
        <ele>769.94</ele>
        <time>2015-06-20T18:17:28Z</time>
      </trkpt>
      <trkpt lat="36.556758" lon="-5.456098">
        <ele>769.50</ele>
        <time>2015-06-20T18:17:29Z</time>
      </trkpt>
      <trkpt lat="36.556696" lon="-5.456109">
        <ele>769.22</ele>
        <time>2015-06-20T18:17:30Z</time>
      </trkpt>
      <trkpt lat="36.556636" lon="-5.456113">
        <ele>769.11</ele>
        <time>2015-06-20T18:17:31Z</time>
      </trkpt>
      <trkpt lat="36.556577" lon="-5.456120">
        <ele>769.51</ele>
        <time>2015-06-20T18:17:32Z</time>
      </trkpt>
      <trkpt lat="36.556404" lon="-5.456154">
        <ele>770.41</ele>
        <time>2015-06-20T18:17:35Z</time>
      </trkpt>
      <trkpt lat="36.556305" lon="-5.456172">
        <ele>770.43</ele>
        <time>2015-06-20T18:17:37Z</time>
      </trkpt>
      <trkpt lat="36.556153" lon="-5.456198">
        <ele>770.45</ele>
        <time>2015-06-20T18:17:40Z</time>
      </trkpt>
      <trkpt lat="36.556106" lon="-5.456204">
        <ele>770.45</ele>
        <time>2015-06-20T18:17:41Z</time>
      </trkpt>
      <trkpt lat="36.556062" lon="-5.456211">
        <ele>770.78</ele>
        <time>2015-06-20T18:17:42Z</time>
      </trkpt>
      <trkpt lat="36.556034" lon="-5.456213">
        <ele>770.87</ele>
        <time>2015-06-20T18:17:43Z</time>
      </trkpt>
      <trkpt lat="36.556020" lon="-5.456212">
        <ele>770.97</ele>
        <time>2015-06-20T18:17:44Z</time>
      </trkpt>
      <trkpt lat="36.556014" lon="-5.456208">
        <ele>770.92</ele>
        <time>2015-06-20T18:17:47Z</time>
      </trkpt>
      <trkpt lat="36.555997" lon="-5.456220">
        <ele>771.13</ele>
        <time>2015-06-20T18:17:54Z</time>
      </trkpt>
      <trkpt lat="36.555984" lon="-5.456228">
        <ele>771.21</ele>
        <time>2015-06-20T18:17:55Z</time>
      </trkpt>
      <trkpt lat="36.555898" lon="-5.456239">
        <ele>771.71</ele>
        <time>2015-06-20T18:17:59Z</time>
      </trkpt>
      <trkpt lat="36.555869" lon="-5.456245">
        <ele>771.88</ele>
        <time>2015-06-20T18:18:00Z</time>
      </trkpt>
      <trkpt lat="36.555733" lon="-5.456227">
        <ele>772.82</ele>
        <time>2015-06-20T18:18:04Z</time>
      </trkpt>
      <trkpt lat="36.555705" lon="-5.456191">
        <ele>772.86</ele>
        <time>2015-06-20T18:18:05Z</time>
      </trkpt>
      <trkpt lat="36.555680" lon="-5.456149">
        <ele>772.95</ele>
        <time>2015-06-20T18:18:06Z</time>
      </trkpt>
      <trkpt lat="36.555661" lon="-5.456108">
        <ele>772.94</ele>
        <time>2015-06-20T18:18:07Z</time>
      </trkpt>
      <trkpt lat="36.555648" lon="-5.456069">
        <ele>772.98</ele>
        <time>2015-06-20T18:18:08Z</time>
      </trkpt>
      <trkpt lat="36.555636" lon="-5.456034">
        <ele>773.08</ele>
        <time>2015-06-20T18:18:09Z</time>
      </trkpt>
      <trkpt lat="36.555628" lon="-5.456001">
        <ele>773.09</ele>
        <time>2015-06-20T18:18:10Z</time>
      </trkpt>
      <trkpt lat="36.555622" lon="-5.455863">
        <ele>772.96</ele>
        <time>2015-06-20T18:18:14Z</time>
      </trkpt>
      <trkpt lat="36.555629" lon="-5.455782">
        <ele>772.81</ele>
        <time>2015-06-20T18:18:16Z</time>
      </trkpt>
      <trkpt lat="36.555619" lon="-5.455566">
        <ele>773.42</ele>
        <time>2015-06-20T18:18:21Z</time>
      </trkpt>
      <trkpt lat="36.555619" lon="-5.455487">
        <ele>773.51</ele>
        <time>2015-06-20T18:18:23Z</time>
      </trkpt>
      <trkpt lat="36.555622" lon="-5.455316">
        <ele>773.57</ele>
        <time>2015-06-20T18:18:29Z</time>
      </trkpt>
      <trkpt lat="36.555610" lon="-5.455201">
        <ele>774.41</ele>
        <time>2015-06-20T18:18:33Z</time>
      </trkpt>
      <trkpt lat="36.555611" lon="-5.455174">
        <ele>774.65</ele>
        <time>2015-06-20T18:18:34Z</time>
      </trkpt>
      <trkpt lat="36.555613" lon="-5.455150">
        <ele>774.72</ele>
        <time>2015-06-20T18:18:35Z</time>
      </trkpt>
      <trkpt lat="36.555612" lon="-5.455124">
        <ele>774.98</ele>
        <time>2015-06-20T18:18:36Z</time>
      </trkpt>
      <trkpt lat="36.555613" lon="-5.455096">
        <ele>775.19</ele>
        <time>2015-06-20T18:18:37Z</time>
      </trkpt>
      <trkpt lat="36.555620" lon="-5.454961">
        <ele>775.99</ele>
        <time>2015-06-20T18:18:42Z</time>
      </trkpt>
      <trkpt lat="36.555620" lon="-5.454932">
        <ele>776.22</ele>
        <time>2015-06-20T18:18:43Z</time>
      </trkpt>
      <trkpt lat="36.555624" lon="-5.454904">
        <ele>776.37</ele>
        <time>2015-06-20T18:18:44Z</time>
      </trkpt>
      <trkpt lat="36.555626" lon="-5.454875">
        <ele>776.59</ele>
        <time>2015-06-20T18:18:45Z</time>
      </trkpt>
      <trkpt lat="36.555626" lon="-5.454846">
        <ele>776.71</ele>
        <time>2015-06-20T18:18:46Z</time>
      </trkpt>
      <trkpt lat="36.555629" lon="-5.454817">
        <ele>776.91</ele>
        <time>2015-06-20T18:18:47Z</time>
      </trkpt>
      <trkpt lat="36.555619" lon="-5.454707">
        <ele>777.97</ele>
        <time>2015-06-20T18:18:51Z</time>
      </trkpt>
      <trkpt lat="36.555604" lon="-5.454651">
        <ele>778.34</ele>
        <time>2015-06-20T18:18:53Z</time>
      </trkpt>
      <trkpt lat="36.555596" lon="-5.454627">
        <ele>778.62</ele>
        <time>2015-06-20T18:18:54Z</time>
      </trkpt>
      <trkpt lat="36.555590" lon="-5.454602">
        <ele>778.87</ele>
        <time>2015-06-20T18:18:55Z</time>
      </trkpt>
      <trkpt lat="36.555584" lon="-5.454574">
        <ele>779.07</ele>
        <time>2015-06-20T18:18:56Z</time>
      </trkpt>
      <trkpt lat="36.555579" lon="-5.454546">
        <ele>779.29</ele>
        <time>2015-06-20T18:18:57Z</time>
      </trkpt>
      <trkpt lat="36.555565" lon="-5.454484">
        <ele>779.76</ele>
        <time>2015-06-20T18:18:59Z</time>
      </trkpt>
      <trkpt lat="36.555493" lon="-5.454268">
        <ele>780.07</ele>
        <time>2015-06-20T18:19:07Z</time>
      </trkpt>
      <trkpt lat="36.555475" lon="-5.454227">
        <ele>780.22</ele>
        <time>2015-06-20T18:19:09Z</time>
      </trkpt>
      <trkpt lat="36.555465" lon="-5.454204">
        <ele>780.36</ele>
        <time>2015-06-20T18:19:10Z</time>
      </trkpt>
      <trkpt lat="36.555454" lon="-5.454182">
        <ele>780.41</ele>
        <time>2015-06-20T18:19:11Z</time>
      </trkpt>
      <trkpt lat="36.555444" lon="-5.454158">
        <ele>780.51</ele>
        <time>2015-06-20T18:19:12Z</time>
      </trkpt>
      <trkpt lat="36.555430" lon="-5.454131">
        <ele>780.76</ele>
        <time>2015-06-20T18:19:13Z</time>
      </trkpt>
      <trkpt lat="36.555415" lon="-5.454100">
        <ele>780.85</ele>
        <time>2015-06-20T18:19:14Z</time>
      </trkpt>
      <trkpt lat="36.555346" lon="-5.453902">
        <ele>780.44</ele>
        <time>2015-06-20T18:19:18Z</time>
      </trkpt>
      <trkpt lat="36.555232" lon="-5.453574">
        <ele>780.16</ele>
        <time>2015-06-20T18:19:23Z</time>
      </trkpt>
      <trkpt lat="36.555202" lon="-5.453510">
        <ele>780.57</ele>
        <time>2015-06-20T18:19:24Z</time>
      </trkpt>
      <trkpt lat="36.555152" lon="-5.453358">
        <ele>780.53</ele>
        <time>2015-06-20T18:19:26Z</time>
      </trkpt>
      <trkpt lat="36.555138" lon="-5.453279">
        <ele>779.82</ele>
        <time>2015-06-20T18:19:27Z</time>
      </trkpt>
      <trkpt lat="36.555130" lon="-5.453198">
        <ele>779.05</ele>
        <time>2015-06-20T18:19:28Z</time>
      </trkpt>
      <trkpt lat="36.555119" lon="-5.453120">
        <ele>778.36</ele>
        <time>2015-06-20T18:19:29Z</time>
      </trkpt>
      <trkpt lat="36.555102" lon="-5.453052">
        <ele>778.08</ele>
        <time>2015-06-20T18:19:30Z</time>
      </trkpt>
      <trkpt lat="36.555051" lon="-5.452942">
        <ele>777.81</ele>
        <time>2015-06-20T18:19:32Z</time>
      </trkpt>
      <trkpt lat="36.555022" lon="-5.452898">
        <ele>778.11</ele>
        <time>2015-06-20T18:19:33Z</time>
      </trkpt>
      <trkpt lat="36.554901" lon="-5.452778">
        <ele>779.56</ele>
        <time>2015-06-20T18:19:37Z</time>
      </trkpt>
      <trkpt lat="36.554784" lon="-5.452678">
        <ele>781.19</ele>
        <time>2015-06-20T18:19:41Z</time>
      </trkpt>
      <trkpt lat="36.554723" lon="-5.452607">
        <ele>781.56</ele>
        <time>2015-06-20T18:19:44Z</time>
      </trkpt>
      <trkpt lat="36.554650" lon="-5.452436">
        <ele>781.02</ele>
        <time>2015-06-20T18:19:49Z</time>
      </trkpt>
      <trkpt lat="36.554585" lon="-5.452211">
        <ele>780.44</ele>
        <time>2015-06-20T18:19:54Z</time>
      </trkpt>
      <trkpt lat="36.554564" lon="-5.452062">
        <ele>780.02</ele>
        <time>2015-06-20T18:19:57Z</time>
      </trkpt>
      <trkpt lat="36.554558" lon="-5.452008">
        <ele>779.93</ele>
        <time>2015-06-20T18:19:58Z</time>
      </trkpt>
      <trkpt lat="36.554550" lon="-5.451951">
        <ele>779.82</ele>
        <time>2015-06-20T18:19:59Z</time>
      </trkpt>
      <trkpt lat="36.554537" lon="-5.451893">
        <ele>779.57</ele>
        <time>2015-06-20T18:20:00Z</time>
      </trkpt>
      <trkpt lat="36.554517" lon="-5.451840">
        <ele>779.46</ele>
        <time>2015-06-20T18:20:01Z</time>
      </trkpt>
      <trkpt lat="36.554488" lon="-5.451786">
        <ele>779.42</ele>
        <time>2015-06-20T18:20:02Z</time>
      </trkpt>
      <trkpt lat="36.554459" lon="-5.451741">
        <ele>779.51</ele>
        <time>2015-06-20T18:20:03Z</time>
      </trkpt>
      <trkpt lat="36.554285" lon="-5.451597">
        <ele>780.40</ele>
        <time>2015-06-20T18:20:08Z</time>
      </trkpt>
      <trkpt lat="36.554095" lon="-5.451472">
        <ele>779.47</ele>
        <time>2015-06-20T18:20:13Z</time>
      </trkpt>
      <trkpt lat="36.554007" lon="-5.451463">
        <ele>779.65</ele>
        <time>2015-06-20T18:20:15Z</time>
      </trkpt>
      <trkpt lat="36.553786" lon="-5.451461">
        <ele>780.14</ele>
        <time>2015-06-20T18:20:20Z</time>
      </trkpt>
      <trkpt lat="36.553663" lon="-5.451496">
        <ele>781.15</ele>
        <time>2015-06-20T18:20:23Z</time>
      </trkpt>
      <trkpt lat="36.553617" lon="-5.451510">
        <ele>781.57</ele>
        <time>2015-06-20T18:20:24Z</time>
      </trkpt>
      <trkpt lat="36.553316" lon="-5.451611">
        <ele>784.32</ele>
        <time>2015-06-20T18:20:30Z</time>
      </trkpt>
      <trkpt lat="36.553257" lon="-5.451625">
        <ele>784.65</ele>
        <time>2015-06-20T18:20:31Z</time>
      </trkpt>
      <trkpt lat="36.553072" lon="-5.451622">
        <ele>783.92</ele>
        <time>2015-06-20T18:20:34Z</time>
      </trkpt>
      <trkpt lat="36.552660" lon="-5.451632">
        <ele>784.58</ele>
        <time>2015-06-20T18:20:40Z</time>
      </trkpt>
      <trkpt lat="36.552141" lon="-5.451698">
        <ele>784.01</ele>
        <time>2015-06-20T18:20:47Z</time>
      </trkpt>
      <trkpt lat="36.551948" lon="-5.451734">
        <ele>784.91</ele>
        <time>2015-06-20T18:20:50Z</time>
      </trkpt>
      <trkpt lat="36.551889" lon="-5.451718">
        <ele>785.08</ele>
        <time>2015-06-20T18:20:51Z</time>
      </trkpt>
      <trkpt lat="36.551639" lon="-5.451604">
        <ele>785.33</ele>
        <time>2015-06-20T18:20:55Z</time>
      </trkpt>
      <trkpt lat="36.551307" lon="-5.451471">
        <ele>786.19</ele>
        <time>2015-06-20T18:21:00Z</time>
      </trkpt>
      <trkpt lat="36.551178" lon="-5.451401">
        <ele>785.23</ele>
        <time>2015-06-20T18:21:02Z</time>
      </trkpt>
      <trkpt lat="36.550812" lon="-5.451227">
        <ele>782.02</ele>
        <time>2015-06-20T18:21:08Z</time>
      </trkpt>
      <trkpt lat="36.550742" lon="-5.451215">
        <ele>781.58</ele>
        <time>2015-06-20T18:21:09Z</time>
      </trkpt>
      <trkpt lat="36.550673" lon="-5.451206">
        <ele>781.15</ele>
        <time>2015-06-20T18:21:10Z</time>
      </trkpt>
      <trkpt lat="36.550605" lon="-5.451198">
        <ele>780.73</ele>
        <time>2015-06-20T18:21:11Z</time>
      </trkpt>
      <trkpt lat="36.550535" lon="-5.451190">
        <ele>780.42</ele>
        <time>2015-06-20T18:21:12Z</time>
      </trkpt>
      <trkpt lat="36.550322" lon="-5.451168">
        <ele>780.23</ele>
        <time>2015-06-20T18:21:15Z</time>
      </trkpt>
      <trkpt lat="36.550174" lon="-5.451157">
        <ele>779.41</ele>
        <time>2015-06-20T18:21:17Z</time>
      </trkpt>
      <trkpt lat="36.550101" lon="-5.451150">
        <ele>778.71</ele>
        <time>2015-06-20T18:21:18Z</time>
      </trkpt>
      <trkpt lat="36.550027" lon="-5.451145">
        <ele>778.18</ele>
        <time>2015-06-20T18:21:19Z</time>
      </trkpt>
      <trkpt lat="36.549952" lon="-5.451146">
        <ele>777.57</ele>
        <time>2015-06-20T18:21:20Z</time>
      </trkpt>
      <trkpt lat="36.549879" lon="-5.451157">
        <ele>776.92</ele>
        <time>2015-06-20T18:21:21Z</time>
      </trkpt>
      <trkpt lat="36.549643" lon="-5.451178">
        <ele>774.81</ele>
        <time>2015-06-20T18:21:24Z</time>
      </trkpt>
      <trkpt lat="36.549560" lon="-5.451178">
        <ele>773.95</ele>
        <time>2015-06-20T18:21:25Z</time>
      </trkpt>
      <trkpt lat="36.549475" lon="-5.451172">
        <ele>772.99</ele>
        <time>2015-06-20T18:21:26Z</time>
      </trkpt>
      <trkpt lat="36.549387" lon="-5.451155">
        <ele>772.08</ele>
        <time>2015-06-20T18:21:27Z</time>
      </trkpt>
      <trkpt lat="36.549300" lon="-5.451130">
        <ele>771.07</ele>
        <time>2015-06-20T18:21:28Z</time>
      </trkpt>
      <trkpt lat="36.549215" lon="-5.451098">
        <ele>769.92</ele>
        <time>2015-06-20T18:21:29Z</time>
      </trkpt>
      <trkpt lat="36.549136" lon="-5.451061">
        <ele>768.73</ele>
        <time>2015-06-20T18:21:30Z</time>
      </trkpt>
      <trkpt lat="36.549060" lon="-5.451022">
        <ele>767.61</ele>
        <time>2015-06-20T18:21:31Z</time>
      </trkpt>
      <trkpt lat="36.548978" lon="-5.450987">
        <ele>766.61</ele>
        <time>2015-06-20T18:21:32Z</time>
      </trkpt>
      <trkpt lat="36.548899" lon="-5.450961">
        <ele>765.72</ele>
        <time>2015-06-20T18:21:33Z</time>
      </trkpt>
      <trkpt lat="36.548818" lon="-5.450940">
        <ele>765.12</ele>
        <time>2015-06-20T18:21:34Z</time>
      </trkpt>
      <trkpt lat="36.548734" lon="-5.450924">
        <ele>764.62</ele>
        <time>2015-06-20T18:21:35Z</time>
      </trkpt>
      <trkpt lat="36.548649" lon="-5.450912">
        <ele>764.36</ele>
        <time>2015-06-20T18:21:36Z</time>
      </trkpt>
      <trkpt lat="36.548563" lon="-5.450901">
        <ele>764.53</ele>
        <time>2015-06-20T18:21:37Z</time>
      </trkpt>
      <trkpt lat="36.548375" lon="-5.450888">
        <ele>766.15</ele>
        <time>2015-06-20T18:21:39Z</time>
      </trkpt>
      <trkpt lat="36.548283" lon="-5.450871">
        <ele>766.90</ele>
        <time>2015-06-20T18:21:40Z</time>
      </trkpt>
      <trkpt lat="36.548196" lon="-5.450854">
        <ele>767.67</ele>
        <time>2015-06-20T18:21:41Z</time>
      </trkpt>
      <trkpt lat="36.548113" lon="-5.450851">
        <ele>768.78</ele>
        <time>2015-06-20T18:21:42Z</time>
      </trkpt>
      <trkpt lat="36.548035" lon="-5.450852">
        <ele>769.92</ele>
        <time>2015-06-20T18:21:43Z</time>
      </trkpt>
      <trkpt lat="36.547965" lon="-5.450853">
        <ele>771.22</ele>
        <time>2015-06-20T18:21:44Z</time>
      </trkpt>
      <trkpt lat="36.547906" lon="-5.450837">
        <ele>771.81</ele>
        <time>2015-06-20T18:21:45Z</time>
      </trkpt>
      <trkpt lat="36.547849" lon="-5.450798">
        <ele>772.90</ele>
        <time>2015-06-20T18:21:46Z</time>
      </trkpt>
      <trkpt lat="36.547798" lon="-5.450750">
        <ele>773.99</ele>
        <time>2015-06-20T18:21:47Z</time>
      </trkpt>
      <trkpt lat="36.547761" lon="-5.450707">
        <ele>775.04</ele>
        <time>2015-06-20T18:21:48Z</time>
      </trkpt>
      <trkpt lat="36.547739" lon="-5.450667">
        <ele>775.97</ele>
        <time>2015-06-20T18:21:49Z</time>
      </trkpt>
      <trkpt lat="36.547725" lon="-5.450628">
        <ele>776.62</ele>
        <time>2015-06-20T18:21:50Z</time>
      </trkpt>
      <trkpt lat="36.547730" lon="-5.450546">
        <ele>776.90</ele>
        <time>2015-06-20T18:21:52Z</time>
      </trkpt>
      <trkpt lat="36.547770" lon="-5.450465">
        <ele>776.63</ele>
        <time>2015-06-20T18:21:54Z</time>
      </trkpt>
      <trkpt lat="36.547866" lon="-5.450352">
        <ele>775.78</ele>
        <time>2015-06-20T18:21:57Z</time>
      </trkpt>
      <trkpt lat="36.547942" lon="-5.450287">
        <ele>774.73</ele>
        <time>2015-06-20T18:21:59Z</time>
      </trkpt>
      <trkpt lat="36.548035" lon="-5.450236">
        <ele>773.43</ele>
        <time>2015-06-20T18:22:01Z</time>
      </trkpt>
      <trkpt lat="36.548229" lon="-5.450088">
        <ele>771.71</ele>
        <time>2015-06-20T18:22:05Z</time>
      </trkpt>
      <trkpt lat="36.548270" lon="-5.450045">
        <ele>771.61</ele>
        <time>2015-06-20T18:22:06Z</time>
      </trkpt>
      <trkpt lat="36.548374" lon="-5.449890">
        <ele>771.55</ele>
        <time>2015-06-20T18:22:09Z</time>
      </trkpt>
      <trkpt lat="36.548439" lon="-5.449685">
        <ele>772.22</ele>
        <time>2015-06-20T18:22:13Z</time>
      </trkpt>
      <trkpt lat="36.548456" lon="-5.449580">
        <ele>772.35</ele>
        <time>2015-06-20T18:22:15Z</time>
      </trkpt>
      <trkpt lat="36.548452" lon="-5.449528">
        <ele>772.76</ele>
        <time>2015-06-20T18:22:16Z</time>
      </trkpt>
      <trkpt lat="36.548447" lon="-5.449477">
        <ele>773.16</ele>
        <time>2015-06-20T18:22:17Z</time>
      </trkpt>
      <trkpt lat="36.548445" lon="-5.449425">
        <ele>773.43</ele>
        <time>2015-06-20T18:22:18Z</time>
      </trkpt>
      <trkpt lat="36.548454" lon="-5.449376">
        <ele>773.27</ele>
        <time>2015-06-20T18:22:19Z</time>
      </trkpt>
      <trkpt lat="36.548527" lon="-5.449106">
        <ele>771.21</ele>
        <time>2015-06-20T18:22:24Z</time>
      </trkpt>
      <trkpt lat="36.548549" lon="-5.449043">
        <ele>770.72</ele>
        <time>2015-06-20T18:22:25Z</time>
      </trkpt>
      <trkpt lat="36.548586" lon="-5.448877">
        <ele>770.51</ele>
        <time>2015-06-20T18:22:28Z</time>
      </trkpt>
      <trkpt lat="36.548602" lon="-5.448824">
        <ele>770.22</ele>
        <time>2015-06-20T18:22:29Z</time>
      </trkpt>
      <trkpt lat="36.548614" lon="-5.448769">
        <ele>769.91</ele>
        <time>2015-06-20T18:22:30Z</time>
      </trkpt>
      <trkpt lat="36.548626" lon="-5.448717">
        <ele>769.58</ele>
        <time>2015-06-20T18:22:31Z</time>
      </trkpt>
      <trkpt lat="36.548636" lon="-5.448666">
        <ele>769.29</ele>
        <time>2015-06-20T18:22:32Z</time>
      </trkpt>
      <trkpt lat="36.548672" lon="-5.448443">
        <ele>767.19</ele>
        <time>2015-06-20T18:22:36Z</time>
      </trkpt>
      <trkpt lat="36.548668" lon="-5.448322">
        <ele>766.40</ele>
        <time>2015-06-20T18:22:38Z</time>
      </trkpt>
      <trkpt lat="36.548661" lon="-5.448264">
        <ele>765.49</ele>
        <time>2015-06-20T18:22:39Z</time>
      </trkpt>
      <trkpt lat="36.548598" lon="-5.448125">
        <ele>763.78</ele>
        <time>2015-06-20T18:22:42Z</time>
      </trkpt>
      <trkpt lat="36.548457" lon="-5.448060">
        <ele>763.84</ele>
        <time>2015-06-20T18:22:45Z</time>
      </trkpt>
      <trkpt lat="36.548402" lon="-5.448042">
        <ele>763.98</ele>
        <time>2015-06-20T18:22:46Z</time>
      </trkpt>
      <trkpt lat="36.548342" lon="-5.448023">
        <ele>764.09</ele>
        <time>2015-06-20T18:22:47Z</time>
      </trkpt>
      <trkpt lat="36.548283" lon="-5.448011">
        <ele>764.01</ele>
        <time>2015-06-20T18:22:48Z</time>
      </trkpt>
      <trkpt lat="36.548222" lon="-5.448000">
        <ele>764.03</ele>
        <time>2015-06-20T18:22:49Z</time>
      </trkpt>
      <trkpt lat="36.548163" lon="-5.447989">
        <ele>764.01</ele>
        <time>2015-06-20T18:22:50Z</time>
      </trkpt>
      <trkpt lat="36.548112" lon="-5.447976">
        <ele>764.05</ele>
        <time>2015-06-20T18:22:51Z</time>
      </trkpt>
      <trkpt lat="36.548067" lon="-5.447957">
        <ele>763.85</ele>
        <time>2015-06-20T18:22:52Z</time>
      </trkpt>
      <trkpt lat="36.547973" lon="-5.447917">
        <ele>764.92</ele>
        <time>2015-06-20T18:22:54Z</time>
      </trkpt>
      <trkpt lat="36.547927" lon="-5.447901">
        <ele>765.74</ele>
        <time>2015-06-20T18:22:55Z</time>
      </trkpt>
      <trkpt lat="36.547879" lon="-5.447881">
        <ele>766.45</ele>
        <time>2015-06-20T18:22:56Z</time>
      </trkpt>
      <trkpt lat="36.547840" lon="-5.447857">
        <ele>766.97</ele>
        <time>2015-06-20T18:22:57Z</time>
      </trkpt>
      <trkpt lat="36.547802" lon="-5.447821">
        <ele>767.23</ele>
        <time>2015-06-20T18:22:58Z</time>
      </trkpt>
      <trkpt lat="36.547739" lon="-5.447725">
        <ele>768.00</ele>
        <time>2015-06-20T18:23:00Z</time>
      </trkpt>
      <trkpt lat="36.547722" lon="-5.447666">
        <ele>768.08</ele>
        <time>2015-06-20T18:23:01Z</time>
      </trkpt>
      <trkpt lat="36.547711" lon="-5.447599">
        <ele>767.81</ele>
        <time>2015-06-20T18:23:02Z</time>
      </trkpt>
      <trkpt lat="36.547703" lon="-5.447525">
        <ele>767.52</ele>
        <time>2015-06-20T18:23:03Z</time>
      </trkpt>
      <trkpt lat="36.547701" lon="-5.447448">
        <ele>767.11</ele>
        <time>2015-06-20T18:23:04Z</time>
      </trkpt>
      <trkpt lat="36.547698" lon="-5.447292">
        <ele>766.64</ele>
        <time>2015-06-20T18:23:06Z</time>
      </trkpt>
      <trkpt lat="36.547701" lon="-5.447138">
        <ele>765.73</ele>
        <time>2015-06-20T18:23:08Z</time>
      </trkpt>
      <trkpt lat="36.547706" lon="-5.447061">
        <ele>765.08</ele>
        <time>2015-06-20T18:23:09Z</time>
      </trkpt>
      <trkpt lat="36.547710" lon="-5.446982">
        <ele>764.54</ele>
        <time>2015-06-20T18:23:10Z</time>
      </trkpt>
      <trkpt lat="36.547718" lon="-5.446894">
        <ele>763.65</ele>
        <time>2015-06-20T18:23:11Z</time>
      </trkpt>
      <trkpt lat="36.547740" lon="-5.446719">
        <ele>761.85</ele>
        <time>2015-06-20T18:23:13Z</time>
      </trkpt>
      <trkpt lat="36.547749" lon="-5.446631">
        <ele>760.99</ele>
        <time>2015-06-20T18:23:14Z</time>
      </trkpt>
      <trkpt lat="36.547750" lon="-5.446544">
        <ele>759.98</ele>
        <time>2015-06-20T18:23:15Z</time>
      </trkpt>
      <trkpt lat="36.547749" lon="-5.446450">
        <ele>758.89</ele>
        <time>2015-06-20T18:23:16Z</time>
      </trkpt>
      <trkpt lat="36.547751" lon="-5.446345">
        <ele>757.16</ele>
        <time>2015-06-20T18:23:17Z</time>
      </trkpt>
      <trkpt lat="36.547763" lon="-5.446234">
        <ele>754.72</ele>
        <time>2015-06-20T18:23:18Z</time>
      </trkpt>
      <trkpt lat="36.547769" lon="-5.446140">
        <ele>752.71</ele>
        <time>2015-06-20T18:23:19Z</time>
      </trkpt>
      <trkpt lat="36.547756" lon="-5.446055">
        <ele>751.16</ele>
        <time>2015-06-20T18:23:20Z</time>
      </trkpt>
      <trkpt lat="36.547729" lon="-5.445977">
        <ele>749.83</ele>
        <time>2015-06-20T18:23:21Z</time>
      </trkpt>
      <trkpt lat="36.547710" lon="-5.445905">
        <ele>748.58</ele>
        <time>2015-06-20T18:23:22Z</time>
      </trkpt>
      <trkpt lat="36.547677" lon="-5.445846">
        <ele>747.67</ele>
        <time>2015-06-20T18:23:23Z</time>
      </trkpt>
      <trkpt lat="36.547631" lon="-5.445801">
        <ele>746.98</ele>
        <time>2015-06-20T18:23:24Z</time>
      </trkpt>
      <trkpt lat="36.547577" lon="-5.445774">
        <ele>746.58</ele>
        <time>2015-06-20T18:23:25Z</time>
      </trkpt>
      <trkpt lat="36.547515" lon="-5.445762">
        <ele>746.49</ele>
        <time>2015-06-20T18:23:26Z</time>
      </trkpt>
      <trkpt lat="36.547455" lon="-5.445768">
        <ele>746.46</ele>
        <time>2015-06-20T18:23:27Z</time>
      </trkpt>
      <trkpt lat="36.547391" lon="-5.445780">
        <ele>746.47</ele>
        <time>2015-06-20T18:23:28Z</time>
      </trkpt>
      <trkpt lat="36.547325" lon="-5.445796">
        <ele>746.50</ele>
        <time>2015-06-20T18:23:29Z</time>
      </trkpt>
      <trkpt lat="36.547259" lon="-5.445808">
        <ele>746.52</ele>
        <time>2015-06-20T18:23:30Z</time>
      </trkpt>
      <trkpt lat="36.547119" lon="-5.445820">
        <ele>746.61</ele>
        <time>2015-06-20T18:23:32Z</time>
      </trkpt>
      <trkpt lat="36.547043" lon="-5.445823">
        <ele>746.72</ele>
        <time>2015-06-20T18:23:33Z</time>
      </trkpt>
      <trkpt lat="36.546971" lon="-5.445817">
        <ele>746.54</ele>
        <time>2015-06-20T18:23:34Z</time>
      </trkpt>
      <trkpt lat="36.546904" lon="-5.445802">
        <ele>746.36</ele>
        <time>2015-06-20T18:23:35Z</time>
      </trkpt>
      <trkpt lat="36.546835" lon="-5.445779">
        <ele>746.03</ele>
        <time>2015-06-20T18:23:36Z</time>
      </trkpt>
      <trkpt lat="36.546765" lon="-5.445751">
        <ele>745.44</ele>
        <time>2015-06-20T18:23:37Z</time>
      </trkpt>
      <trkpt lat="36.546697" lon="-5.445722">
        <ele>744.88</ele>
        <time>2015-06-20T18:23:38Z</time>
      </trkpt>
      <trkpt lat="36.546621" lon="-5.445692">
        <ele>744.57</ele>
        <time>2015-06-20T18:23:39Z</time>
      </trkpt>
      <trkpt lat="36.546538" lon="-5.445653">
        <ele>744.15</ele>
        <time>2015-06-20T18:23:40Z</time>
      </trkpt>
      <trkpt lat="36.546444" lon="-5.445602">
        <ele>743.26</ele>
        <time>2015-06-20T18:23:41Z</time>
      </trkpt>
      <trkpt lat="36.546360" lon="-5.445552">
        <ele>742.32</ele>
        <time>2015-06-20T18:23:42Z</time>
      </trkpt>
      <trkpt lat="36.546283" lon="-5.445492">
        <ele>741.81</ele>
        <time>2015-06-20T18:23:43Z</time>
      </trkpt>
      <trkpt lat="36.546201" lon="-5.445415">
        <ele>740.81</ele>
        <time>2015-06-20T18:23:44Z</time>
      </trkpt>
      <trkpt lat="36.546123" lon="-5.445332">
        <ele>739.47</ele>
        <time>2015-06-20T18:23:45Z</time>
      </trkpt>
      <trkpt lat="36.546053" lon="-5.445248">
        <ele>739.06</ele>
        <time>2015-06-20T18:23:46Z</time>
      </trkpt>
      <trkpt lat="36.545981" lon="-5.445160">
        <ele>739.30</ele>
        <time>2015-06-20T18:23:47Z</time>
      </trkpt>
      <trkpt lat="36.545905" lon="-5.445062">
        <ele>738.93</ele>
        <time>2015-06-20T18:23:49Z</time>
      </trkpt>
      <trkpt lat="36.545827" lon="-5.444974">
        <ele>738.36</ele>
        <time>2015-06-20T18:23:50Z</time>
      </trkpt>
      <trkpt lat="36.545747" lon="-5.444897">
        <ele>737.18</ele>
        <time>2015-06-20T18:23:51Z</time>
      </trkpt>
      <trkpt lat="36.545672" lon="-5.444820">
        <ele>735.93</ele>
        <time>2015-06-20T18:23:52Z</time>
      </trkpt>
      <trkpt lat="36.545603" lon="-5.444744">
        <ele>735.00</ele>
        <time>2015-06-20T18:23:53Z</time>
      </trkpt>
      <trkpt lat="36.545539" lon="-5.444665">
        <ele>733.60</ele>
        <time>2015-06-20T18:23:54Z</time>
      </trkpt>
      <trkpt lat="36.545474" lon="-5.444582">
        <ele>731.73</ele>
        <time>2015-06-20T18:23:55Z</time>
      </trkpt>
      <trkpt lat="36.545404" lon="-5.444503">
        <ele>729.92</ele>
        <time>2015-06-20T18:23:56Z</time>
      </trkpt>
      <trkpt lat="36.545333" lon="-5.444434">
        <ele>728.31</ele>
        <time>2015-06-20T18:23:57Z</time>
      </trkpt>
      <trkpt lat="36.545255" lon="-5.444378">
        <ele>727.46</ele>
        <time>2015-06-20T18:23:58Z</time>
      </trkpt>
      <trkpt lat="36.545165" lon="-5.444337">
        <ele>727.49</ele>
        <time>2015-06-20T18:23:59Z</time>
      </trkpt>
      <trkpt lat="36.545073" lon="-5.444295">
        <ele>727.25</ele>
        <time>2015-06-20T18:24:00Z</time>
      </trkpt>
      <trkpt lat="36.544990" lon="-5.444249">
        <ele>726.88</ele>
        <time>2015-06-20T18:24:01Z</time>
      </trkpt>
      <trkpt lat="36.544915" lon="-5.444199">
        <ele>726.53</ele>
        <time>2015-06-20T18:24:02Z</time>
      </trkpt>
      <trkpt lat="36.544851" lon="-5.444133">
        <ele>725.96</ele>
        <time>2015-06-20T18:24:03Z</time>
      </trkpt>
      <trkpt lat="36.544791" lon="-5.444062">
        <ele>725.49</ele>
        <time>2015-06-20T18:24:04Z</time>
      </trkpt>
      <trkpt lat="36.544744" lon="-5.443994">
        <ele>724.90</ele>
        <time>2015-06-20T18:24:05Z</time>
      </trkpt>
      <trkpt lat="36.544712" lon="-5.443938">
        <ele>724.26</ele>
        <time>2015-06-20T18:24:06Z</time>
      </trkpt>
      <trkpt lat="36.544690" lon="-5.443894">
        <ele>723.51</ele>
        <time>2015-06-20T18:24:07Z</time>
      </trkpt>
      <trkpt lat="36.544676" lon="-5.443866">
        <ele>722.92</ele>
        <time>2015-06-20T18:24:08Z</time>
      </trkpt>
      <trkpt lat="36.544667" lon="-5.443853">
        <ele>722.71</ele>
        <time>2015-06-20T18:24:09Z</time>
      </trkpt>
      <trkpt lat="36.544664" lon="-5.443852">
        <ele>722.78</ele>
        <time>2015-06-20T18:24:10Z</time>
      </trkpt>
      <trkpt lat="36.544658" lon="-5.443852">
        <ele>722.84</ele>
        <time>2015-06-20T18:24:11Z</time>
      </trkpt>
      <trkpt lat="36.544655" lon="-5.443851">
        <ele>722.85</ele>
        <time>2015-06-20T18:24:12Z</time>
      </trkpt>
      <trkpt lat="36.544653" lon="-5.443852">
        <ele>722.91</ele>
        <time>2015-06-20T18:24:13Z</time>
      </trkpt>
      <trkpt lat="36.544653" lon="-5.443852">
        <ele>722.97</ele>
        <time>2015-06-20T18:24:14Z</time>
      </trkpt>
      <trkpt lat="36.544653" lon="-5.443852">
        <ele>722.97</ele>
        <time>2015-06-20T18:24:15Z</time>
      </trkpt>
      <trkpt lat="36.544653" lon="-5.443852">
        <ele>722.98</ele>
        <time>2015-06-20T18:24:18Z</time>
      </trkpt>
      <trkpt lat="36.544650" lon="-5.443820">
        <ele>722.16</ele>
        <time>2015-06-20T18:24:25Z</time>
      </trkpt>
      <trkpt lat="36.544599" lon="-5.443726">
        <ele>720.53</ele>
        <time>2015-06-20T18:24:28Z</time>
      </trkpt>
      <trkpt lat="36.544577" lon="-5.443686">
        <ele>719.87</ele>
        <time>2015-06-20T18:24:29Z</time>
      </trkpt>
      <trkpt lat="36.544551" lon="-5.443650">
        <ele>719.41</ele>
        <time>2015-06-20T18:24:30Z</time>
      </trkpt>
      <trkpt lat="36.544529" lon="-5.443611">
        <ele>718.81</ele>
        <time>2015-06-20T18:24:31Z</time>
      </trkpt>
      <trkpt lat="36.544505" lon="-5.443571">
        <ele>718.18</ele>
        <time>2015-06-20T18:24:32Z</time>
      </trkpt>
      <trkpt lat="36.544475" lon="-5.443531">
        <ele>717.59</ele>
        <time>2015-06-20T18:24:33Z</time>
      </trkpt>
      <trkpt lat="36.544406" lon="-5.443463">
        <ele>716.38</ele>
        <time>2015-06-20T18:24:35Z</time>
      </trkpt>
      <trkpt lat="36.544339" lon="-5.443404">
        <ele>715.11</ele>
        <time>2015-06-20T18:24:37Z</time>
      </trkpt>
      <trkpt lat="36.544305" lon="-5.443381">
        <ele>714.64</ele>
        <time>2015-06-20T18:24:38Z</time>
      </trkpt>
      <trkpt lat="36.544262" lon="-5.443368">
        <ele>714.41</ele>
        <time>2015-06-20T18:24:39Z</time>
      </trkpt>
      <trkpt lat="36.544202" lon="-5.443368">
        <ele>714.62</ele>
        <time>2015-06-20T18:24:40Z</time>
      </trkpt>
      <trkpt lat="36.544137" lon="-5.443376">
        <ele>714.88</ele>
        <time>2015-06-20T18:24:41Z</time>
      </trkpt>
      <trkpt lat="36.543910" lon="-5.443415">
        <ele>714.66</ele>
        <time>2015-06-20T18:24:44Z</time>
      </trkpt>
      <trkpt lat="36.543742" lon="-5.443418">
        <ele>713.06</ele>
        <time>2015-06-20T18:24:46Z</time>
      </trkpt>
      <trkpt lat="36.543653" lon="-5.443411">
        <ele>712.01</ele>
        <time>2015-06-20T18:24:47Z</time>
      </trkpt>
      <trkpt lat="36.543452" lon="-5.443387">
        <ele>710.91</ele>
        <time>2015-06-20T18:24:48Z</time>
      </trkpt>
      <trkpt lat="36.543341" lon="-5.443372">
        <ele>710.73</ele>
        <time>2015-06-20T18:24:51Z</time>
      </trkpt>
      <trkpt lat="36.543227" lon="-5.443355">
        <ele>709.31</ele>
        <time>2015-06-20T18:24:52Z</time>
      </trkpt>
      <trkpt lat="36.542905" lon="-5.443284">
        <ele>704.78</ele>
        <time>2015-06-20T18:24:55Z</time>
      </trkpt>
      <trkpt lat="36.542819" lon="-5.443259">
        <ele>703.43</ele>
        <time>2015-06-20T18:24:56Z</time>
      </trkpt>
      <trkpt lat="36.542745" lon="-5.443242">
        <ele>702.32</ele>
        <time>2015-06-20T18:24:57Z</time>
      </trkpt>
      <trkpt lat="36.542675" lon="-5.443225">
        <ele>701.37</ele>
        <time>2015-06-20T18:24:58Z</time>
      </trkpt>
      <trkpt lat="36.542614" lon="-5.443208">
        <ele>700.57</ele>
        <time>2015-06-20T18:24:59Z</time>
      </trkpt>
      <trkpt lat="36.542559" lon="-5.443187">
        <ele>699.84</ele>
        <time>2015-06-20T18:25:00Z</time>
      </trkpt>
      <trkpt lat="36.542508" lon="-5.443159">
        <ele>699.32</ele>
        <time>2015-06-20T18:25:01Z</time>
      </trkpt>
      <trkpt lat="36.542460" lon="-5.443127">
        <ele>699.14</ele>
        <time>2015-06-20T18:25:02Z</time>
      </trkpt>
      <trkpt lat="36.542412" lon="-5.443094">
        <ele>699.01</ele>
        <time>2015-06-20T18:25:03Z</time>
      </trkpt>
      <trkpt lat="36.542361" lon="-5.443058">
        <ele>699.01</ele>
        <time>2015-06-20T18:25:04Z</time>
      </trkpt>
      <trkpt lat="36.542317" lon="-5.443021">
        <ele>698.24</ele>
        <time>2015-06-20T18:25:05Z</time>
      </trkpt>
      <trkpt lat="36.542285" lon="-5.442977">
        <ele>697.53</ele>
        <time>2015-06-20T18:25:06Z</time>
      </trkpt>
      <trkpt lat="36.542264" lon="-5.442926">
        <ele>696.94</ele>
        <time>2015-06-20T18:25:07Z</time>
      </trkpt>
      <trkpt lat="36.542253" lon="-5.442871">
        <ele>696.37</ele>
        <time>2015-06-20T18:25:08Z</time>
      </trkpt>
      <trkpt lat="36.542261" lon="-5.442770">
        <ele>695.82</ele>
        <time>2015-06-20T18:25:10Z</time>
      </trkpt>
      <trkpt lat="36.542280" lon="-5.442710">
        <ele>695.04</ele>
        <time>2015-06-20T18:25:11Z</time>
      </trkpt>
      <trkpt lat="36.542308" lon="-5.442657">
        <ele>694.68</ele>
        <time>2015-06-20T18:25:12Z</time>
      </trkpt>
      <trkpt lat="36.542342" lon="-5.442605">
        <ele>694.31</ele>
        <time>2015-06-20T18:25:13Z</time>
      </trkpt>
      <trkpt lat="36.542391" lon="-5.442557">
        <ele>694.53</ele>
        <time>2015-06-20T18:25:14Z</time>
      </trkpt>
      <trkpt lat="36.542455" lon="-5.442504">
        <ele>695.00</ele>
        <time>2015-06-20T18:25:15Z</time>
      </trkpt>
      <trkpt lat="36.542521" lon="-5.442451">
        <ele>695.22</ele>
        <time>2015-06-20T18:25:16Z</time>
      </trkpt>
      <trkpt lat="36.542586" lon="-5.442400">
        <ele>695.51</ele>
        <time>2015-06-20T18:25:17Z</time>
      </trkpt>
      <trkpt lat="36.542654" lon="-5.442344">
        <ele>695.68</ele>
        <time>2015-06-20T18:25:18Z</time>
      </trkpt>
      <trkpt lat="36.542715" lon="-5.442287">
        <ele>695.52</ele>
        <time>2015-06-20T18:25:19Z</time>
      </trkpt>
      <trkpt lat="36.542836" lon="-5.442188">
        <ele>695.07</ele>
        <time>2015-06-20T18:25:21Z</time>
      </trkpt>
      <trkpt lat="36.542905" lon="-5.442162">
        <ele>695.37</ele>
        <time>2015-06-20T18:25:22Z</time>
      </trkpt>
      <trkpt lat="36.542981" lon="-5.442152">
        <ele>696.25</ele>
        <time>2015-06-20T18:25:23Z</time>
      </trkpt>
      <trkpt lat="36.543056" lon="-5.442157">
        <ele>697.44</ele>
        <time>2015-06-20T18:25:24Z</time>
      </trkpt>
      <trkpt lat="36.543132" lon="-5.442163">
        <ele>697.86</ele>
        <time>2015-06-20T18:25:25Z</time>
      </trkpt>
      <trkpt lat="36.543213" lon="-5.442165">
        <ele>698.27</ele>
        <time>2015-06-20T18:25:26Z</time>
      </trkpt>
      <trkpt lat="36.543297" lon="-5.442161">
        <ele>698.57</ele>
        <time>2015-06-20T18:25:27Z</time>
      </trkpt>
      <trkpt lat="36.543445" lon="-5.442120">
        <ele>697.80</ele>
        <time>2015-06-20T18:25:29Z</time>
      </trkpt>
      <trkpt lat="36.543514" lon="-5.442090">
        <ele>697.42</ele>
        <time>2015-06-20T18:25:30Z</time>
      </trkpt>
      <trkpt lat="36.543582" lon="-5.442050">
        <ele>697.01</ele>
        <time>2015-06-20T18:25:31Z</time>
      </trkpt>
      <trkpt lat="36.543651" lon="-5.441995">
        <ele>696.50</ele>
        <time>2015-06-20T18:25:32Z</time>
      </trkpt>
      <trkpt lat="36.543709" lon="-5.441912">
        <ele>695.07</ele>
        <time>2015-06-20T18:25:33Z</time>
      </trkpt>
      <trkpt lat="36.543809" lon="-5.441725">
        <ele>691.46</ele>
        <time>2015-06-20T18:25:35Z</time>
      </trkpt>
      <trkpt lat="36.543861" lon="-5.441639">
        <ele>690.28</ele>
        <time>2015-06-20T18:25:36Z</time>
      </trkpt>
      <trkpt lat="36.543913" lon="-5.441566">
        <ele>688.89</ele>
        <time>2015-06-20T18:25:37Z</time>
      </trkpt>
      <trkpt lat="36.543967" lon="-5.441504">
        <ele>687.80</ele>
        <time>2015-06-20T18:25:38Z</time>
      </trkpt>
      <trkpt lat="36.544027" lon="-5.441452">
        <ele>687.03</ele>
        <time>2015-06-20T18:25:39Z</time>
      </trkpt>
      <trkpt lat="36.544164" lon="-5.441409">
        <ele>687.29</ele>
        <time>2015-06-20T18:25:41Z</time>
      </trkpt>
      <trkpt lat="36.544237" lon="-5.441420">
        <ele>686.51</ele>
        <time>2015-06-20T18:25:42Z</time>
      </trkpt>
      <trkpt lat="36.544294" lon="-5.441463">
        <ele>686.14</ele>
        <time>2015-06-20T18:25:43Z</time>
      </trkpt>
      <trkpt lat="36.544330" lon="-5.441524">
        <ele>685.81</ele>
        <time>2015-06-20T18:25:44Z</time>
      </trkpt>
      <trkpt lat="36.544353" lon="-5.441594">
        <ele>685.71</ele>
        <time>2015-06-20T18:25:45Z</time>
      </trkpt>
      <trkpt lat="36.544367" lon="-5.441679">
        <ele>685.72</ele>
        <time>2015-06-20T18:25:46Z</time>
      </trkpt>
      <trkpt lat="36.544370" lon="-5.441767">
        <ele>686.28</ele>
        <time>2015-06-20T18:25:47Z</time>
      </trkpt>
      <trkpt lat="36.544369" lon="-5.441859">
        <ele>686.79</ele>
        <time>2015-06-20T18:25:48Z</time>
      </trkpt>
      <trkpt lat="36.544367" lon="-5.441952">
        <ele>687.38</ele>
        <time>2015-06-20T18:25:49Z</time>
      </trkpt>
      <trkpt lat="36.544366" lon="-5.442049">
        <ele>688.29</ele>
        <time>2015-06-20T18:25:50Z</time>
      </trkpt>
      <trkpt lat="36.544369" lon="-5.442138">
        <ele>688.94</ele>
        <time>2015-06-20T18:25:51Z</time>
      </trkpt>
      <trkpt lat="36.544376" lon="-5.442222">
        <ele>689.54</ele>
        <time>2015-06-20T18:25:52Z</time>
      </trkpt>
      <trkpt lat="36.544390" lon="-5.442300">
        <ele>689.78</ele>
        <time>2015-06-20T18:25:53Z</time>
      </trkpt>
      <trkpt lat="36.544410" lon="-5.442365">
        <ele>689.86</ele>
        <time>2015-06-20T18:25:54Z</time>
      </trkpt>
      <trkpt lat="36.544437" lon="-5.442422">
        <ele>689.62</ele>
        <time>2015-06-20T18:25:55Z</time>
      </trkpt>
      <trkpt lat="36.544467" lon="-5.442481">
        <ele>689.51</ele>
        <time>2015-06-20T18:25:56Z</time>
      </trkpt>
      <trkpt lat="36.544502" lon="-5.442540">
        <ele>690.01</ele>
        <time>2015-06-20T18:25:57Z</time>
      </trkpt>
      <trkpt lat="36.544544" lon="-5.442598">
        <ele>690.72</ele>
        <time>2015-06-20T18:25:58Z</time>
      </trkpt>
      <trkpt lat="36.544590" lon="-5.442654">
        <ele>691.22</ele>
        <time>2015-06-20T18:25:59Z</time>
      </trkpt>
      <trkpt lat="36.544643" lon="-5.442706">
        <ele>691.67</ele>
        <time>2015-06-20T18:26:00Z</time>
      </trkpt>
      <trkpt lat="36.544706" lon="-5.442750">
        <ele>691.66</ele>
        <time>2015-06-20T18:26:01Z</time>
      </trkpt>
      <trkpt lat="36.544772" lon="-5.442787">
        <ele>691.66</ele>
        <time>2015-06-20T18:26:02Z</time>
      </trkpt>
      <trkpt lat="36.544848" lon="-5.442819">
        <ele>691.35</ele>
        <time>2015-06-20T18:26:03Z</time>
      </trkpt>
      <trkpt lat="36.544937" lon="-5.442837">
        <ele>690.34</ele>
        <time>2015-06-20T18:26:04Z</time>
      </trkpt>
      <trkpt lat="36.545033" lon="-5.442821">
        <ele>688.78</ele>
        <time>2015-06-20T18:26:05Z</time>
      </trkpt>
      <trkpt lat="36.545127" lon="-5.442779">
        <ele>687.11</ele>
        <time>2015-06-20T18:26:06Z</time>
      </trkpt>
      <trkpt lat="36.545207" lon="-5.442712">
        <ele>684.94</ele>
        <time>2015-06-20T18:26:07Z</time>
      </trkpt>
      <trkpt lat="36.545279" lon="-5.442634">
        <ele>682.41</ele>
        <time>2015-06-20T18:26:08Z</time>
      </trkpt>
      <trkpt lat="36.545336" lon="-5.442546">
        <ele>680.41</ele>
        <time>2015-06-20T18:26:09Z</time>
      </trkpt>
      <trkpt lat="36.545392" lon="-5.442456">
        <ele>678.46</ele>
        <time>2015-06-20T18:26:10Z</time>
      </trkpt>
      <trkpt lat="36.545457" lon="-5.442367">
        <ele>676.53</ele>
        <time>2015-06-20T18:26:11Z</time>
      </trkpt>
      <trkpt lat="36.545530" lon="-5.442275">
        <ele>674.37</ele>
        <time>2015-06-20T18:26:12Z</time>
      </trkpt>
      <trkpt lat="36.545630" lon="-5.442179">
        <ele>672.43</ele>
        <time>2015-06-20T18:26:13Z</time>
      </trkpt>
      <trkpt lat="36.545719" lon="-5.442105">
        <ele>671.25</ele>
        <time>2015-06-20T18:26:14Z</time>
      </trkpt>
      <trkpt lat="36.545797" lon="-5.442046">
        <ele>670.12</ele>
        <time>2015-06-20T18:26:15Z</time>
      </trkpt>
      <trkpt lat="36.545878" lon="-5.442007">
        <ele>669.06</ele>
        <time>2015-06-20T18:26:16Z</time>
      </trkpt>
      <trkpt lat="36.545957" lon="-5.441985">
        <ele>667.77</ele>
        <time>2015-06-20T18:26:17Z</time>
      </trkpt>
      <trkpt lat="36.546038" lon="-5.441990">
        <ele>667.12</ele>
        <time>2015-06-20T18:26:18Z</time>
      </trkpt>
      <trkpt lat="36.546122" lon="-5.442013">
        <ele>667.04</ele>
        <time>2015-06-20T18:26:19Z</time>
      </trkpt>
      <trkpt lat="36.546201" lon="-5.442039">
        <ele>666.51</ele>
        <time>2015-06-20T18:26:20Z</time>
      </trkpt>
      <trkpt lat="36.546280" lon="-5.442064">
        <ele>665.91</ele>
        <time>2015-06-20T18:26:21Z</time>
      </trkpt>
      <trkpt lat="36.546361" lon="-5.442088">
        <ele>665.16</ele>
        <time>2015-06-20T18:26:22Z</time>
      </trkpt>
      <trkpt lat="36.546442" lon="-5.442111">
        <ele>664.75</ele>
        <time>2015-06-20T18:26:23Z</time>
      </trkpt>
      <trkpt lat="36.546518" lon="-5.442137">
        <ele>664.89</ele>
        <time>2015-06-20T18:26:24Z</time>
      </trkpt>
      <trkpt lat="36.546598" lon="-5.442164">
        <ele>664.95</ele>
        <time>2015-06-20T18:26:25Z</time>
      </trkpt>
      <trkpt lat="36.546676" lon="-5.442189">
        <ele>665.15</ele>
        <time>2015-06-20T18:26:26Z</time>
      </trkpt>
      <trkpt lat="36.546760" lon="-5.442212">
        <ele>666.31</ele>
        <time>2015-06-20T18:26:27Z</time>
      </trkpt>
      <trkpt lat="36.546933" lon="-5.442241">
        <ele>668.52</ele>
        <time>2015-06-20T18:26:29Z</time>
      </trkpt>
      <trkpt lat="36.547020" lon="-5.442250">
        <ele>667.91</ele>
        <time>2015-06-20T18:26:30Z</time>
      </trkpt>
      <trkpt lat="36.547109" lon="-5.442263">
        <ele>667.13</ele>
        <time>2015-06-20T18:26:31Z</time>
      </trkpt>
      <trkpt lat="36.547195" lon="-5.442285">
        <ele>666.86</ele>
        <time>2015-06-20T18:26:32Z</time>
      </trkpt>
      <trkpt lat="36.547362" lon="-5.442341">
        <ele>666.51</ele>
        <time>2015-06-20T18:26:34Z</time>
      </trkpt>
      <trkpt lat="36.547444" lon="-5.442372">
        <ele>666.31</ele>
        <time>2015-06-20T18:26:35Z</time>
      </trkpt>
      <trkpt lat="36.547531" lon="-5.442403">
        <ele>666.06</ele>
        <time>2015-06-20T18:26:36Z</time>
      </trkpt>
      <trkpt lat="36.547615" lon="-5.442427">
        <ele>665.57</ele>
        <time>2015-06-20T18:26:37Z</time>
      </trkpt>
      <trkpt lat="36.547698" lon="-5.442447">
        <ele>664.88</ele>
        <time>2015-06-20T18:26:38Z</time>
      </trkpt>
      <trkpt lat="36.547872" lon="-5.442468">
        <ele>663.15</ele>
        <time>2015-06-20T18:26:40Z</time>
      </trkpt>
      <trkpt lat="36.547958" lon="-5.442469">
        <ele>662.28</ele>
        <time>2015-06-20T18:26:41Z</time>
      </trkpt>
      <trkpt lat="36.548041" lon="-5.442477">
        <ele>661.53</ele>
        <time>2015-06-20T18:26:42Z</time>
      </trkpt>
      <trkpt lat="36.548121" lon="-5.442496">
        <ele>661.42</ele>
        <time>2015-06-20T18:26:43Z</time>
      </trkpt>
      <trkpt lat="36.548194" lon="-5.442520">
        <ele>661.42</ele>
        <time>2015-06-20T18:26:44Z</time>
      </trkpt>
      <trkpt lat="36.548263" lon="-5.442536">
        <ele>661.23</ele>
        <time>2015-06-20T18:26:45Z</time>
      </trkpt>
      <trkpt lat="36.548330" lon="-5.442542">
        <ele>660.82</ele>
        <time>2015-06-20T18:26:46Z</time>
      </trkpt>
      <trkpt lat="36.548398" lon="-5.442529">
        <ele>660.32</ele>
        <time>2015-06-20T18:26:47Z</time>
      </trkpt>
      <trkpt lat="36.548466" lon="-5.442510">
        <ele>659.71</ele>
        <time>2015-06-20T18:26:48Z</time>
      </trkpt>
      <trkpt lat="36.548529" lon="-5.442485">
        <ele>658.95</ele>
        <time>2015-06-20T18:26:49Z</time>
      </trkpt>
      <trkpt lat="36.548596" lon="-5.442461">
        <ele>658.12</ele>
        <time>2015-06-20T18:26:50Z</time>
      </trkpt>
      <trkpt lat="36.548657" lon="-5.442439">
        <ele>657.23</ele>
        <time>2015-06-20T18:26:51Z</time>
      </trkpt>
      <trkpt lat="36.548847" lon="-5.442389">
        <ele>654.89</ele>
        <time>2015-06-20T18:26:54Z</time>
      </trkpt>
      <trkpt lat="36.548913" lon="-5.442381">
        <ele>654.34</ele>
        <time>2015-06-20T18:26:55Z</time>
      </trkpt>
      <trkpt lat="36.548983" lon="-5.442382">
        <ele>654.17</ele>
        <time>2015-06-20T18:26:56Z</time>
      </trkpt>
      <trkpt lat="36.549058" lon="-5.442397">
        <ele>654.02</ele>
        <time>2015-06-20T18:26:57Z</time>
      </trkpt>
      <trkpt lat="36.549223" lon="-5.442459">
        <ele>654.01</ele>
        <time>2015-06-20T18:26:59Z</time>
      </trkpt>
      <trkpt lat="36.549311" lon="-5.442494">
        <ele>653.96</ele>
        <time>2015-06-20T18:27:00Z</time>
      </trkpt>
      <trkpt lat="36.549403" lon="-5.442519">
        <ele>653.62</ele>
        <time>2015-06-20T18:27:01Z</time>
      </trkpt>
      <trkpt lat="36.549493" lon="-5.442536">
        <ele>653.31</ele>
        <time>2015-06-20T18:27:02Z</time>
      </trkpt>
      <trkpt lat="36.549582" lon="-5.442543">
        <ele>653.11</ele>
        <time>2015-06-20T18:27:03Z</time>
      </trkpt>
      <trkpt lat="36.549674" lon="-5.442555">
        <ele>653.07</ele>
        <time>2015-06-20T18:27:04Z</time>
      </trkpt>
      <trkpt lat="36.549764" lon="-5.442569">
        <ele>653.14</ele>
        <time>2015-06-20T18:27:05Z</time>
      </trkpt>
      <trkpt lat="36.549846" lon="-5.442580">
        <ele>653.69</ele>
        <time>2015-06-20T18:27:06Z</time>
      </trkpt>
      <trkpt lat="36.549925" lon="-5.442572">
        <ele>653.87</ele>
        <time>2015-06-20T18:27:07Z</time>
      </trkpt>
      <trkpt lat="36.549998" lon="-5.442550">
        <ele>653.78</ele>
        <time>2015-06-20T18:27:08Z</time>
      </trkpt>
      <trkpt lat="36.550047" lon="-5.442502">
        <ele>654.05</ele>
        <time>2015-06-20T18:27:09Z</time>
      </trkpt>
      <trkpt lat="36.550073" lon="-5.442441">
        <ele>654.52</ele>
        <time>2015-06-20T18:27:10Z</time>
      </trkpt>
      <trkpt lat="36.550082" lon="-5.442377">
        <ele>654.65</ele>
        <time>2015-06-20T18:27:11Z</time>
      </trkpt>
      <trkpt lat="36.550077" lon="-5.442313">
        <ele>654.41</ele>
        <time>2015-06-20T18:27:12Z</time>
      </trkpt>
      <trkpt lat="36.550067" lon="-5.442247">
        <ele>654.02</ele>
        <time>2015-06-20T18:27:13Z</time>
      </trkpt>
      <trkpt lat="36.550061" lon="-5.442184">
        <ele>653.70</ele>
        <time>2015-06-20T18:27:14Z</time>
      </trkpt>
      <trkpt lat="36.550060" lon="-5.442119">
        <ele>653.61</ele>
        <time>2015-06-20T18:27:15Z</time>
      </trkpt>
      <trkpt lat="36.550064" lon="-5.442055">
        <ele>653.73</ele>
        <time>2015-06-20T18:27:16Z</time>
      </trkpt>
      <trkpt lat="36.550070" lon="-5.441987">
        <ele>653.85</ele>
        <time>2015-06-20T18:27:17Z</time>
      </trkpt>
      <trkpt lat="36.550073" lon="-5.441914">
        <ele>654.25</ele>
        <time>2015-06-20T18:27:18Z</time>
      </trkpt>
      <trkpt lat="36.550068" lon="-5.441840">
        <ele>655.00</ele>
        <time>2015-06-20T18:27:19Z</time>
      </trkpt>
      <trkpt lat="36.550014" lon="-5.441619">
        <ele>655.64</ele>
        <time>2015-06-20T18:27:22Z</time>
      </trkpt>
      <trkpt lat="36.549987" lon="-5.441549">
        <ele>656.25</ele>
        <time>2015-06-20T18:27:23Z</time>
      </trkpt>
      <trkpt lat="36.549932" lon="-5.441412">
        <ele>657.16</ele>
        <time>2015-06-20T18:27:25Z</time>
      </trkpt>
      <trkpt lat="36.549838" lon="-5.441229">
        <ele>656.72</ele>
        <time>2015-06-20T18:27:28Z</time>
      </trkpt>
      <trkpt lat="36.549804" lon="-5.441170">
        <ele>656.32</ele>
        <time>2015-06-20T18:27:29Z</time>
      </trkpt>
      <trkpt lat="36.549771" lon="-5.441115">
        <ele>655.96</ele>
        <time>2015-06-20T18:27:30Z</time>
      </trkpt>
      <trkpt lat="36.549738" lon="-5.441065">
        <ele>655.11</ele>
        <time>2015-06-20T18:27:31Z</time>
      </trkpt>
      <trkpt lat="36.549699" lon="-5.441020">
        <ele>654.21</ele>
        <time>2015-06-20T18:27:32Z</time>
      </trkpt>
      <trkpt lat="36.549661" lon="-5.440971">
        <ele>653.58</ele>
        <time>2015-06-20T18:27:33Z</time>
      </trkpt>
      <trkpt lat="36.549592" lon="-5.440862">
        <ele>652.59</ele>
        <time>2015-06-20T18:27:35Z</time>
      </trkpt>
      <trkpt lat="36.549486" lon="-5.440714">
        <ele>651.56</ele>
        <time>2015-06-20T18:27:38Z</time>
      </trkpt>
      <trkpt lat="36.549340" lon="-5.440601">
        <ele>648.55</ele>
        <time>2015-06-20T18:27:41Z</time>
      </trkpt>
      <trkpt lat="36.549205" lon="-5.440437">
        <ele>645.48</ele>
        <time>2015-06-20T18:27:44Z</time>
      </trkpt>
      <trkpt lat="36.549166" lon="-5.440298">
        <ele>644.86</ele>
        <time>2015-06-20T18:27:46Z</time>
      </trkpt>
      <trkpt lat="36.549211" lon="-5.440110">
        <ele>646.88</ele>
        <time>2015-06-20T18:27:49Z</time>
      </trkpt>
      <trkpt lat="36.549278" lon="-5.440004">
        <ele>649.41</ele>
        <time>2015-06-20T18:27:51Z</time>
      </trkpt>
      <trkpt lat="36.549309" lon="-5.439939">
        <ele>650.23</ele>
        <time>2015-06-20T18:27:52Z</time>
      </trkpt>
      <trkpt lat="36.549336" lon="-5.439875">
        <ele>650.77</ele>
        <time>2015-06-20T18:27:53Z</time>
      </trkpt>
      <trkpt lat="36.549508" lon="-5.439469">
        <ele>651.21</ele>
        <time>2015-06-20T18:28:00Z</time>
      </trkpt>
      <trkpt lat="36.549537" lon="-5.439416">
        <ele>651.21</ele>
        <time>2015-06-20T18:28:01Z</time>
      </trkpt>
      <trkpt lat="36.549564" lon="-5.439364">
        <ele>651.01</ele>
        <time>2015-06-20T18:28:02Z</time>
      </trkpt>
      <trkpt lat="36.549590" lon="-5.439309">
        <ele>650.76</ele>
        <time>2015-06-20T18:28:03Z</time>
      </trkpt>
      <trkpt lat="36.549613" lon="-5.439251">
        <ele>650.23</ele>
        <time>2015-06-20T18:28:04Z</time>
      </trkpt>
      <trkpt lat="36.549622" lon="-5.439184">
        <ele>649.27</ele>
        <time>2015-06-20T18:28:05Z</time>
      </trkpt>
      <trkpt lat="36.549584" lon="-5.438951">
        <ele>646.89</ele>
        <time>2015-06-20T18:28:08Z</time>
      </trkpt>
      <trkpt lat="36.549559" lon="-5.438869">
        <ele>646.27</ele>
        <time>2015-06-20T18:28:09Z</time>
      </trkpt>
      <trkpt lat="36.549532" lon="-5.438790">
        <ele>646.58</ele>
        <time>2015-06-20T18:28:10Z</time>
      </trkpt>
      <trkpt lat="36.549497" lon="-5.438716">
        <ele>646.72</ele>
        <time>2015-06-20T18:28:11Z</time>
      </trkpt>
      <trkpt lat="36.549450" lon="-5.438650">
        <ele>646.73</ele>
        <time>2015-06-20T18:28:12Z</time>
      </trkpt>
      <trkpt lat="36.549397" lon="-5.438592">
        <ele>646.09</ele>
        <time>2015-06-20T18:28:13Z</time>
      </trkpt>
      <trkpt lat="36.549337" lon="-5.438536">
        <ele>645.12</ele>
        <time>2015-06-20T18:28:14Z</time>
      </trkpt>
      <trkpt lat="36.549281" lon="-5.438485">
        <ele>644.21</ele>
        <time>2015-06-20T18:28:15Z</time>
      </trkpt>
      <trkpt lat="36.549225" lon="-5.438432">
        <ele>643.48</ele>
        <time>2015-06-20T18:28:16Z</time>
      </trkpt>
      <trkpt lat="36.549060" lon="-5.438281">
        <ele>640.86</ele>
        <time>2015-06-20T18:28:19Z</time>
      </trkpt>
      <trkpt lat="36.549013" lon="-5.438227">
        <ele>640.12</ele>
        <time>2015-06-20T18:28:20Z</time>
      </trkpt>
      <trkpt lat="36.548966" lon="-5.438169">
        <ele>639.66</ele>
        <time>2015-06-20T18:28:21Z</time>
      </trkpt>
      <trkpt lat="36.548922" lon="-5.438105">
        <ele>639.25</ele>
        <time>2015-06-20T18:28:22Z</time>
      </trkpt>
      <trkpt lat="36.548884" lon="-5.438044">
        <ele>639.15</ele>
        <time>2015-06-20T18:28:23Z</time>
      </trkpt>
      <trkpt lat="36.548777" lon="-5.437810">
        <ele>641.00</ele>
        <time>2015-06-20T18:28:27Z</time>
      </trkpt>
      <trkpt lat="36.548679" lon="-5.437593">
        <ele>644.05</ele>
        <time>2015-06-20T18:28:31Z</time>
      </trkpt>
      <trkpt lat="36.548610" lon="-5.437513">
        <ele>644.76</ele>
        <time>2015-06-20T18:28:33Z</time>
      </trkpt>
      <trkpt lat="36.548530" lon="-5.437442">
        <ele>645.32</ele>
        <time>2015-06-20T18:28:35Z</time>
      </trkpt>
      <trkpt lat="36.548444" lon="-5.437383">
        <ele>645.31</ele>
        <time>2015-06-20T18:28:37Z</time>
      </trkpt>
      <trkpt lat="36.548363" lon="-5.437332">
        <ele>644.91</ele>
        <time>2015-06-20T18:28:39Z</time>
      </trkpt>
      <trkpt lat="36.548222" lon="-5.437221">
        <ele>644.69</ele>
        <time>2015-06-20T18:28:43Z</time>
      </trkpt>
      <trkpt lat="36.548143" lon="-5.437113">
        <ele>644.35</ele>
        <time>2015-06-20T18:28:46Z</time>
      </trkpt>
      <trkpt lat="36.548122" lon="-5.437071">
        <ele>644.32</ele>
        <time>2015-06-20T18:28:47Z</time>
      </trkpt>
      <trkpt lat="36.548069" lon="-5.436873">
        <ele>644.64</ele>
        <time>2015-06-20T18:28:51Z</time>
      </trkpt>
      <trkpt lat="36.548063" lon="-5.436812">
        <ele>644.72</ele>
        <time>2015-06-20T18:28:52Z</time>
      </trkpt>
      <trkpt lat="36.548086" lon="-5.436502">
        <ele>645.86</ele>
        <time>2015-06-20T18:28:57Z</time>
      </trkpt>
      <trkpt lat="36.548103" lon="-5.436432">
        <ele>646.24</ele>
        <time>2015-06-20T18:28:58Z</time>
      </trkpt>
      <trkpt lat="36.548167" lon="-5.436174">
        <ele>647.74</ele>
        <time>2015-06-20T18:29:02Z</time>
      </trkpt>
      <trkpt lat="36.548169" lon="-5.436114">
        <ele>647.76</ele>
        <time>2015-06-20T18:29:03Z</time>
      </trkpt>
      <trkpt lat="36.548135" lon="-5.435971">
        <ele>647.61</ele>
        <time>2015-06-20T18:29:06Z</time>
      </trkpt>
      <trkpt lat="36.548118" lon="-5.435926">
        <ele>647.42</ele>
        <time>2015-06-20T18:29:07Z</time>
      </trkpt>
      <trkpt lat="36.548067" lon="-5.435841">
        <ele>646.31</ele>
        <time>2015-06-20T18:29:09Z</time>
      </trkpt>
      <trkpt lat="36.547996" lon="-5.435759">
        <ele>644.87</ele>
        <time>2015-06-20T18:29:11Z</time>
      </trkpt>
      <trkpt lat="36.547952" lon="-5.435716">
        <ele>643.87</ele>
        <time>2015-06-20T18:29:12Z</time>
      </trkpt>
      <trkpt lat="36.547914" lon="-5.435668">
        <ele>642.91</ele>
        <time>2015-06-20T18:29:13Z</time>
      </trkpt>
      <trkpt lat="36.547885" lon="-5.435603">
        <ele>642.58</ele>
        <time>2015-06-20T18:29:14Z</time>
      </trkpt>
      <trkpt lat="36.547855" lon="-5.435524">
        <ele>642.01</ele>
        <time>2015-06-20T18:29:15Z</time>
      </trkpt>
      <trkpt lat="36.547831" lon="-5.435438">
        <ele>641.89</ele>
        <time>2015-06-20T18:29:16Z</time>
      </trkpt>
      <trkpt lat="36.547808" lon="-5.435346">
        <ele>641.74</ele>
        <time>2015-06-20T18:29:17Z</time>
      </trkpt>
      <trkpt lat="36.547758" lon="-5.435150">
        <ele>641.21</ele>
        <time>2015-06-20T18:29:19Z</time>
      </trkpt>
      <trkpt lat="36.547664" lon="-5.434685">
        <ele>639.39</ele>
        <time>2015-06-20T18:29:24Z</time>
      </trkpt>
      <trkpt lat="36.547659" lon="-5.434607">
        <ele>639.24</ele>
        <time>2015-06-20T18:29:25Z</time>
      </trkpt>
      <trkpt lat="36.547658" lon="-5.434532">
        <ele>639.13</ele>
        <time>2015-06-20T18:29:26Z</time>
      </trkpt>
      <trkpt lat="36.547660" lon="-5.434455">
        <ele>639.21</ele>
        <time>2015-06-20T18:29:27Z</time>
      </trkpt>
      <trkpt lat="36.547669" lon="-5.434286">
        <ele>638.64</ele>
        <time>2015-06-20T18:29:29Z</time>
      </trkpt>
      <trkpt lat="36.547669" lon="-5.434111">
        <ele>637.79</ele>
        <time>2015-06-20T18:29:31Z</time>
      </trkpt>
      <trkpt lat="36.547652" lon="-5.434021">
        <ele>636.94</ele>
        <time>2015-06-20T18:29:32Z</time>
      </trkpt>
      <trkpt lat="36.547627" lon="-5.433929">
        <ele>635.90</ele>
        <time>2015-06-20T18:29:33Z</time>
      </trkpt>
      <trkpt lat="36.547594" lon="-5.433842">
        <ele>634.74</ele>
        <time>2015-06-20T18:29:34Z</time>
      </trkpt>
      <trkpt lat="36.547548" lon="-5.433767">
        <ele>633.44</ele>
        <time>2015-06-20T18:29:35Z</time>
      </trkpt>
      <trkpt lat="36.547489" lon="-5.433702">
        <ele>631.78</ele>
        <time>2015-06-20T18:29:36Z</time>
      </trkpt>
      <trkpt lat="36.547373" lon="-5.433578">
        <ele>628.29</ele>
        <time>2015-06-20T18:29:38Z</time>
      </trkpt>
      <trkpt lat="36.547353" lon="-5.433505">
        <ele>627.29</ele>
        <time>2015-06-20T18:29:39Z</time>
      </trkpt>
      <trkpt lat="36.547347" lon="-5.433427">
        <ele>626.66</ele>
        <time>2015-06-20T18:29:40Z</time>
      </trkpt>
      <trkpt lat="36.547362" lon="-5.433352">
        <ele>626.62</ele>
        <time>2015-06-20T18:29:41Z</time>
      </trkpt>
      <trkpt lat="36.547378" lon="-5.433284">
        <ele>626.31</ele>
        <time>2015-06-20T18:29:42Z</time>
      </trkpt>
      <trkpt lat="36.547405" lon="-5.433211">
        <ele>626.08</ele>
        <time>2015-06-20T18:29:43Z</time>
      </trkpt>
      <trkpt lat="36.547445" lon="-5.433142">
        <ele>626.06</ele>
        <time>2015-06-20T18:29:44Z</time>
      </trkpt>
      <trkpt lat="36.547491" lon="-5.433077">
        <ele>626.30</ele>
        <time>2015-06-20T18:29:45Z</time>
      </trkpt>
      <trkpt lat="36.547543" lon="-5.433016">
        <ele>626.12</ele>
        <time>2015-06-20T18:29:46Z</time>
      </trkpt>
      <trkpt lat="36.547598" lon="-5.432972">
        <ele>626.28</ele>
        <time>2015-06-20T18:29:47Z</time>
      </trkpt>
      <trkpt lat="36.547657" lon="-5.432941">
        <ele>626.59</ele>
        <time>2015-06-20T18:29:48Z</time>
      </trkpt>
      <trkpt lat="36.547712" lon="-5.432923">
        <ele>626.88</ele>
        <time>2015-06-20T18:29:49Z</time>
      </trkpt>
      <trkpt lat="36.547869" lon="-5.432956">
        <ele>628.83</ele>
        <time>2015-06-20T18:29:52Z</time>
      </trkpt>
      <trkpt lat="36.548087" lon="-5.432982">
        <ele>630.15</ele>
        <time>2015-06-20T18:29:56Z</time>
      </trkpt>
      <trkpt lat="36.548210" lon="-5.432978">
        <ele>629.61</ele>
        <time>2015-06-20T18:29:58Z</time>
      </trkpt>
      <trkpt lat="36.548343" lon="-5.432987">
        <ele>629.62</ele>
        <time>2015-06-20T18:30:00Z</time>
      </trkpt>
      <trkpt lat="36.548414" lon="-5.432962">
        <ele>629.61</ele>
        <time>2015-06-20T18:30:01Z</time>
      </trkpt>
      <trkpt lat="36.548472" lon="-5.432915">
        <ele>629.04</ele>
        <time>2015-06-20T18:30:02Z</time>
      </trkpt>
      <trkpt lat="36.548520" lon="-5.432852">
        <ele>627.99</ele>
        <time>2015-06-20T18:30:03Z</time>
      </trkpt>
      <trkpt lat="36.548562" lon="-5.432786">
        <ele>626.89</ele>
        <time>2015-06-20T18:30:04Z</time>
      </trkpt>
      <trkpt lat="36.548596" lon="-5.432717">
        <ele>625.81</ele>
        <time>2015-06-20T18:30:05Z</time>
      </trkpt>
      <trkpt lat="36.548626" lon="-5.432641">
        <ele>624.91</ele>
        <time>2015-06-20T18:30:06Z</time>
      </trkpt>
      <trkpt lat="36.548649" lon="-5.432556">
        <ele>623.82</ele>
        <time>2015-06-20T18:30:07Z</time>
      </trkpt>
      <trkpt lat="36.548662" lon="-5.432459">
        <ele>622.49</ele>
        <time>2015-06-20T18:30:08Z</time>
      </trkpt>
      <trkpt lat="36.548680" lon="-5.432359">
        <ele>621.14</ele>
        <time>2015-06-20T18:30:09Z</time>
      </trkpt>
      <trkpt lat="36.548698" lon="-5.432264">
        <ele>619.97</ele>
        <time>2015-06-20T18:30:10Z</time>
      </trkpt>
      <trkpt lat="36.548722" lon="-5.432168">
        <ele>618.86</ele>
        <time>2015-06-20T18:30:11Z</time>
      </trkpt>
      <trkpt lat="36.548752" lon="-5.432072">
        <ele>617.82</ele>
        <time>2015-06-20T18:30:12Z</time>
      </trkpt>
      <trkpt lat="36.548788" lon="-5.431989">
        <ele>617.31</ele>
        <time>2015-06-20T18:30:13Z</time>
      </trkpt>
      <trkpt lat="36.548832" lon="-5.431921">
        <ele>617.20</ele>
        <time>2015-06-20T18:30:14Z</time>
      </trkpt>
      <trkpt lat="36.548884" lon="-5.431866">
        <ele>617.23</ele>
        <time>2015-06-20T18:30:15Z</time>
      </trkpt>
      <trkpt lat="36.548936" lon="-5.431813">
        <ele>617.22</ele>
        <time>2015-06-20T18:30:16Z</time>
      </trkpt>
      <trkpt lat="36.548987" lon="-5.431750">
        <ele>616.91</ele>
        <time>2015-06-20T18:30:17Z</time>
      </trkpt>
      <trkpt lat="36.549028" lon="-5.431671">
        <ele>616.14</ele>
        <time>2015-06-20T18:30:18Z</time>
      </trkpt>
      <trkpt lat="36.549051" lon="-5.431570">
        <ele>613.64</ele>
        <time>2015-06-20T18:30:19Z</time>
      </trkpt>
      <trkpt lat="36.549075" lon="-5.431472">
        <ele>611.43</ele>
        <time>2015-06-20T18:30:20Z</time>
      </trkpt>
      <trkpt lat="36.549105" lon="-5.431380">
        <ele>609.83</ele>
        <time>2015-06-20T18:30:21Z</time>
      </trkpt>
      <trkpt lat="36.549142" lon="-5.431295">
        <ele>608.56</ele>
        <time>2015-06-20T18:30:22Z</time>
      </trkpt>
      <trkpt lat="36.549187" lon="-5.431220">
        <ele>607.81</ele>
        <time>2015-06-20T18:30:23Z</time>
      </trkpt>
      <trkpt lat="36.549255" lon="-5.431153">
        <ele>608.02</ele>
        <time>2015-06-20T18:30:24Z</time>
      </trkpt>
      <trkpt lat="36.549320" lon="-5.431092">
        <ele>608.61</ele>
        <time>2015-06-20T18:30:25Z</time>
      </trkpt>
      <trkpt lat="36.549386" lon="-5.431025">
        <ele>609.69</ele>
        <time>2015-06-20T18:30:26Z</time>
      </trkpt>
      <trkpt lat="36.549448" lon="-5.430939">
        <ele>610.02</ele>
        <time>2015-06-20T18:30:27Z</time>
      </trkpt>
      <trkpt lat="36.549507" lon="-5.430863">
        <ele>609.94</ele>
        <time>2015-06-20T18:30:28Z</time>
      </trkpt>
      <trkpt lat="36.549565" lon="-5.430803">
        <ele>609.99</ele>
        <time>2015-06-20T18:30:29Z</time>
      </trkpt>
      <trkpt lat="36.549634" lon="-5.430759">
        <ele>610.70</ele>
        <time>2015-06-20T18:30:30Z</time>
      </trkpt>
      <trkpt lat="36.549709" lon="-5.430715">
        <ele>611.52</ele>
        <time>2015-06-20T18:30:31Z</time>
      </trkpt>
      <trkpt lat="36.549776" lon="-5.430670">
        <ele>612.48</ele>
        <time>2015-06-20T18:30:32Z</time>
      </trkpt>
      <trkpt lat="36.549820" lon="-5.430603">
        <ele>612.36</ele>
        <time>2015-06-20T18:30:33Z</time>
      </trkpt>
      <trkpt lat="36.549850" lon="-5.430527">
        <ele>611.53</ele>
        <time>2015-06-20T18:30:34Z</time>
      </trkpt>
      <trkpt lat="36.549857" lon="-5.430447">
        <ele>609.69</ele>
        <time>2015-06-20T18:30:35Z</time>
      </trkpt>
      <trkpt lat="36.549854" lon="-5.430360">
        <ele>607.42</ele>
        <time>2015-06-20T18:30:36Z</time>
      </trkpt>
      <trkpt lat="36.549857" lon="-5.430270">
        <ele>605.21</ele>
        <time>2015-06-20T18:30:37Z</time>
      </trkpt>
      <trkpt lat="36.549864" lon="-5.430182">
        <ele>603.03</ele>
        <time>2015-06-20T18:30:38Z</time>
      </trkpt>
      <trkpt lat="36.549891" lon="-5.430090">
        <ele>601.58</ele>
        <time>2015-06-20T18:30:39Z</time>
      </trkpt>
      <trkpt lat="36.549928" lon="-5.430002">
        <ele>600.54</ele>
        <time>2015-06-20T18:30:40Z</time>
      </trkpt>
      <trkpt lat="36.549972" lon="-5.429918">
        <ele>600.33</ele>
        <time>2015-06-20T18:30:41Z</time>
      </trkpt>
      <trkpt lat="36.550009" lon="-5.429828">
        <ele>599.78</ele>
        <time>2015-06-20T18:30:42Z</time>
      </trkpt>
      <trkpt lat="36.550030" lon="-5.429726">
        <ele>598.38</ele>
        <time>2015-06-20T18:30:43Z</time>
      </trkpt>
      <trkpt lat="36.550047" lon="-5.429625">
        <ele>597.47</ele>
        <time>2015-06-20T18:30:44Z</time>
      </trkpt>
      <trkpt lat="36.550065" lon="-5.429526">
        <ele>596.63</ele>
        <time>2015-06-20T18:30:45Z</time>
      </trkpt>
      <trkpt lat="36.550089" lon="-5.429432">
        <ele>595.99</ele>
        <time>2015-06-20T18:30:46Z</time>
      </trkpt>
      <trkpt lat="36.550124" lon="-5.429340">
        <ele>594.71</ele>
        <time>2015-06-20T18:30:47Z</time>
      </trkpt>
      <trkpt lat="36.550162" lon="-5.429263">
        <ele>593.93</ele>
        <time>2015-06-20T18:30:48Z</time>
      </trkpt>
      <trkpt lat="36.550210" lon="-5.429192">
        <ele>593.51</ele>
        <time>2015-06-20T18:30:49Z</time>
      </trkpt>
      <trkpt lat="36.550265" lon="-5.429116">
        <ele>592.96</ele>
        <time>2015-06-20T18:30:50Z</time>
      </trkpt>
      <trkpt lat="36.550328" lon="-5.429031">
        <ele>592.20</ele>
        <time>2015-06-20T18:30:51Z</time>
      </trkpt>
      <trkpt lat="36.550392" lon="-5.428937">
        <ele>590.95</ele>
        <time>2015-06-20T18:30:52Z</time>
      </trkpt>
      <trkpt lat="36.550459" lon="-5.428846">
        <ele>589.90</ele>
        <time>2015-06-20T18:30:53Z</time>
      </trkpt>
      <trkpt lat="36.550526" lon="-5.428758">
        <ele>589.00</ele>
        <time>2015-06-20T18:30:54Z</time>
      </trkpt>
      <trkpt lat="36.550602" lon="-5.428680">
        <ele>588.79</ele>
        <time>2015-06-20T18:30:55Z</time>
      </trkpt>
      <trkpt lat="36.550682" lon="-5.428620">
        <ele>589.45</ele>
        <time>2015-06-20T18:30:56Z</time>
      </trkpt>
      <trkpt lat="36.550768" lon="-5.428563">
        <ele>590.46</ele>
        <time>2015-06-20T18:30:57Z</time>
      </trkpt>
      <trkpt lat="36.550854" lon="-5.428506">
        <ele>591.28</ele>
        <time>2015-06-20T18:30:58Z</time>
      </trkpt>
      <trkpt lat="36.550935" lon="-5.428446">
        <ele>591.69</ele>
        <time>2015-06-20T18:30:59Z</time>
      </trkpt>
      <trkpt lat="36.551013" lon="-5.428380">
        <ele>591.72</ele>
        <time>2015-06-20T18:31:00Z</time>
      </trkpt>
      <trkpt lat="36.551089" lon="-5.428311">
        <ele>591.61</ele>
        <time>2015-06-20T18:31:01Z</time>
      </trkpt>
      <trkpt lat="36.551159" lon="-5.428239">
        <ele>591.24</ele>
        <time>2015-06-20T18:31:02Z</time>
      </trkpt>
      <trkpt lat="36.551232" lon="-5.428167">
        <ele>590.69</ele>
        <time>2015-06-20T18:31:03Z</time>
      </trkpt>
      <trkpt lat="36.551305" lon="-5.428115">
        <ele>590.49</ele>
        <time>2015-06-20T18:31:04Z</time>
      </trkpt>
      <trkpt lat="36.551381" lon="-5.428080">
        <ele>590.88</ele>
        <time>2015-06-20T18:31:05Z</time>
      </trkpt>
      <trkpt lat="36.551460" lon="-5.428050">
        <ele>590.96</ele>
        <time>2015-06-20T18:31:06Z</time>
      </trkpt>
      <trkpt lat="36.551542" lon="-5.428029">
        <ele>591.48</ele>
        <time>2015-06-20T18:31:07Z</time>
      </trkpt>
      <trkpt lat="36.551624" lon="-5.428010">
        <ele>591.91</ele>
        <time>2015-06-20T18:31:08Z</time>
      </trkpt>
      <trkpt lat="36.551708" lon="-5.427989">
        <ele>592.33</ele>
        <time>2015-06-20T18:31:09Z</time>
      </trkpt>
      <trkpt lat="36.551798" lon="-5.427962">
        <ele>592.41</ele>
        <time>2015-06-20T18:31:10Z</time>
      </trkpt>
      <trkpt lat="36.551883" lon="-5.427924">
        <ele>592.14</ele>
        <time>2015-06-20T18:31:11Z</time>
      </trkpt>
      <trkpt lat="36.551972" lon="-5.427877">
        <ele>591.61</ele>
        <time>2015-06-20T18:31:12Z</time>
      </trkpt>
      <trkpt lat="36.552051" lon="-5.427823">
        <ele>591.01</ele>
        <time>2015-06-20T18:31:13Z</time>
      </trkpt>
      <trkpt lat="36.552125" lon="-5.427760">
        <ele>590.63</ele>
        <time>2015-06-20T18:31:14Z</time>
      </trkpt>
      <trkpt lat="36.552191" lon="-5.427683">
        <ele>591.86</ele>
        <time>2015-06-20T18:31:15Z</time>
      </trkpt>
      <trkpt lat="36.552251" lon="-5.427618">
        <ele>593.04</ele>
        <time>2015-06-20T18:31:16Z</time>
      </trkpt>
      <trkpt lat="36.552290" lon="-5.427547">
        <ele>593.86</ele>
        <time>2015-06-20T18:31:17Z</time>
      </trkpt>
      <trkpt lat="36.552304" lon="-5.427463">
        <ele>595.15</ele>
        <time>2015-06-20T18:31:18Z</time>
      </trkpt>
      <trkpt lat="36.552294" lon="-5.427386">
        <ele>597.07</ele>
        <time>2015-06-20T18:31:19Z</time>
      </trkpt>
      <trkpt lat="36.552278" lon="-5.427322">
        <ele>598.46</ele>
        <time>2015-06-20T18:31:20Z</time>
      </trkpt>
      <trkpt lat="36.552259" lon="-5.427264">
        <ele>599.64</ele>
        <time>2015-06-20T18:31:21Z</time>
      </trkpt>
      <trkpt lat="36.552228" lon="-5.427229">
        <ele>599.92</ele>
        <time>2015-06-20T18:31:22Z</time>
      </trkpt>
      <trkpt lat="36.552174" lon="-5.427238">
        <ele>598.71</ele>
        <time>2015-06-20T18:31:23Z</time>
      </trkpt>
      <trkpt lat="36.552117" lon="-5.427258">
        <ele>597.22</ele>
        <time>2015-06-20T18:31:24Z</time>
      </trkpt>
      <trkpt lat="36.552051" lon="-5.427275">
        <ele>595.51</ele>
        <time>2015-06-20T18:31:25Z</time>
      </trkpt>
      <trkpt lat="36.551985" lon="-5.427280">
        <ele>594.14</ele>
        <time>2015-06-20T18:31:26Z</time>
      </trkpt>
      <trkpt lat="36.551917" lon="-5.427283">
        <ele>593.05</ele>
        <time>2015-06-20T18:31:27Z</time>
      </trkpt>
      <trkpt lat="36.551779" lon="-5.427295">
        <ele>591.15</ele>
        <time>2015-06-20T18:31:29Z</time>
      </trkpt>
      <trkpt lat="36.551710" lon="-5.427289">
        <ele>590.60</ele>
        <time>2015-06-20T18:31:30Z</time>
      </trkpt>
      <trkpt lat="36.551500" lon="-5.427245">
        <ele>589.64</ele>
        <time>2015-06-20T18:31:33Z</time>
      </trkpt>
      <trkpt lat="36.551362" lon="-5.427233">
        <ele>588.91</ele>
        <time>2015-06-20T18:31:35Z</time>
      </trkpt>
      <trkpt lat="36.551292" lon="-5.427238">
        <ele>589.00</ele>
        <time>2015-06-20T18:31:36Z</time>
      </trkpt>
      <trkpt lat="36.551216" lon="-5.427250">
        <ele>588.86</ele>
        <time>2015-06-20T18:31:37Z</time>
      </trkpt>
      <trkpt lat="36.551145" lon="-5.427269">
        <ele>588.44</ele>
        <time>2015-06-20T18:31:38Z</time>
      </trkpt>
      <trkpt lat="36.551075" lon="-5.427290">
        <ele>587.71</ele>
        <time>2015-06-20T18:31:39Z</time>
      </trkpt>
      <trkpt lat="36.551005" lon="-5.427312">
        <ele>586.82</ele>
        <time>2015-06-20T18:31:40Z</time>
      </trkpt>
      <trkpt lat="36.550862" lon="-5.427342">
        <ele>585.31</ele>
        <time>2015-06-20T18:31:42Z</time>
      </trkpt>
      <trkpt lat="36.550722" lon="-5.427327">
        <ele>583.74</ele>
        <time>2015-06-20T18:31:44Z</time>
      </trkpt>
      <trkpt lat="36.550579" lon="-5.427276">
        <ele>582.75</ele>
        <time>2015-06-20T18:31:46Z</time>
      </trkpt>
      <trkpt lat="36.550508" lon="-5.427253">
        <ele>582.17</ele>
        <time>2015-06-20T18:31:47Z</time>
      </trkpt>
      <trkpt lat="36.550426" lon="-5.427252">
        <ele>580.76</ele>
        <time>2015-06-20T18:31:48Z</time>
      </trkpt>
      <trkpt lat="36.550337" lon="-5.427254">
        <ele>579.07</ele>
        <time>2015-06-20T18:31:49Z</time>
      </trkpt>
      <trkpt lat="36.550248" lon="-5.427260">
        <ele>577.79</ele>
        <time>2015-06-20T18:31:50Z</time>
      </trkpt>
      <trkpt lat="36.550150" lon="-5.427267">
        <ele>577.23</ele>
        <time>2015-06-20T18:31:51Z</time>
      </trkpt>
      <trkpt lat="36.550049" lon="-5.427276">
        <ele>576.66</ele>
        <time>2015-06-20T18:31:52Z</time>
      </trkpt>
      <trkpt lat="36.549947" lon="-5.427288">
        <ele>576.45</ele>
        <time>2015-06-20T18:31:53Z</time>
      </trkpt>
      <trkpt lat="36.549845" lon="-5.427299">
        <ele>576.60</ele>
        <time>2015-06-20T18:31:54Z</time>
      </trkpt>
      <trkpt lat="36.549751" lon="-5.427312">
        <ele>576.61</ele>
        <time>2015-06-20T18:31:55Z</time>
      </trkpt>
      <trkpt lat="36.549652" lon="-5.427327">
        <ele>576.21</ele>
        <time>2015-06-20T18:31:56Z</time>
      </trkpt>
      <trkpt lat="36.549557" lon="-5.427343">
        <ele>575.76</ele>
        <time>2015-06-20T18:31:57Z</time>
      </trkpt>
      <trkpt lat="36.549375" lon="-5.427385">
        <ele>574.02</ele>
        <time>2015-06-20T18:31:59Z</time>
      </trkpt>
      <trkpt lat="36.549281" lon="-5.427404">
        <ele>573.14</ele>
        <time>2015-06-20T18:32:00Z</time>
      </trkpt>
      <trkpt lat="36.549188" lon="-5.427411">
        <ele>572.68</ele>
        <time>2015-06-20T18:32:01Z</time>
      </trkpt>
      <trkpt lat="36.549093" lon="-5.427404">
        <ele>572.08</ele>
        <time>2015-06-20T18:32:02Z</time>
      </trkpt>
      <trkpt lat="36.548999" lon="-5.427386">
        <ele>571.75</ele>
        <time>2015-06-20T18:32:03Z</time>
      </trkpt>
      <trkpt lat="36.548902" lon="-5.427357">
        <ele>571.87</ele>
        <time>2015-06-20T18:32:04Z</time>
      </trkpt>
      <trkpt lat="36.548729" lon="-5.427290">
        <ele>571.48</ele>
        <time>2015-06-20T18:32:06Z</time>
      </trkpt>
      <trkpt lat="36.548649" lon="-5.427256">
        <ele>571.38</ele>
        <time>2015-06-20T18:32:07Z</time>
      </trkpt>
      <trkpt lat="36.548572" lon="-5.427222">
        <ele>571.33</ele>
        <time>2015-06-20T18:32:08Z</time>
      </trkpt>
      <trkpt lat="36.548497" lon="-5.427191">
        <ele>571.32</ele>
        <time>2015-06-20T18:32:09Z</time>
      </trkpt>
      <trkpt lat="36.548430" lon="-5.427169">
        <ele>571.01</ele>
        <time>2015-06-20T18:32:10Z</time>
      </trkpt>
      <trkpt lat="36.548301" lon="-5.427121">
        <ele>570.77</ele>
        <time>2015-06-20T18:32:12Z</time>
      </trkpt>
      <trkpt lat="36.548128" lon="-5.427026">
        <ele>571.36</ele>
        <time>2015-06-20T18:32:15Z</time>
      </trkpt>
      <trkpt lat="36.547948" lon="-5.426924">
        <ele>571.39</ele>
        <time>2015-06-20T18:32:18Z</time>
      </trkpt>
      <trkpt lat="36.547702" lon="-5.426773">
        <ele>571.34</ele>
        <time>2015-06-20T18:32:22Z</time>
      </trkpt>
      <trkpt lat="36.547638" lon="-5.426752">
        <ele>570.96</ele>
        <time>2015-06-20T18:32:23Z</time>
      </trkpt>
      <trkpt lat="36.547577" lon="-5.426740">
        <ele>570.25</ele>
        <time>2015-06-20T18:32:24Z</time>
      </trkpt>
      <trkpt lat="36.547524" lon="-5.426724">
        <ele>569.88</ele>
        <time>2015-06-20T18:32:25Z</time>
      </trkpt>
      <trkpt lat="36.547475" lon="-5.426702">
        <ele>569.42</ele>
        <time>2015-06-20T18:32:26Z</time>
      </trkpt>
      <trkpt lat="36.547394" lon="-5.426612">
        <ele>569.53</ele>
        <time>2015-06-20T18:32:28Z</time>
      </trkpt>
      <trkpt lat="36.547335" lon="-5.426406">
        <ele>572.67</ele>
        <time>2015-06-20T18:32:31Z</time>
      </trkpt>
      <trkpt lat="36.547305" lon="-5.426330">
        <ele>574.21</ele>
        <time>2015-06-20T18:32:32Z</time>
      </trkpt>
      <trkpt lat="36.547215" lon="-5.426227">
        <ele>575.51</ele>
        <time>2015-06-20T18:32:34Z</time>
      </trkpt>
      <trkpt lat="36.547048" lon="-5.426185">
        <ele>572.91</ele>
        <time>2015-06-20T18:32:37Z</time>
      </trkpt>
      <trkpt lat="36.546711" lon="-5.426086">
        <ele>569.72</ele>
        <time>2015-06-20T18:32:42Z</time>
      </trkpt>
      <trkpt lat="36.546634" lon="-5.426054">
        <ele>569.55</ele>
        <time>2015-06-20T18:32:43Z</time>
      </trkpt>
      <trkpt lat="36.546553" lon="-5.426017">
        <ele>569.36</ele>
        <time>2015-06-20T18:32:44Z</time>
      </trkpt>
      <trkpt lat="36.546477" lon="-5.425982">
        <ele>569.28</ele>
        <time>2015-06-20T18:32:45Z</time>
      </trkpt>
      <trkpt lat="36.546320" lon="-5.425939">
        <ele>567.91</ele>
        <time>2015-06-20T18:32:47Z</time>
      </trkpt>
      <trkpt lat="36.546168" lon="-5.425939">
        <ele>565.10</ele>
        <time>2015-06-20T18:32:49Z</time>
      </trkpt>
      <trkpt lat="36.546095" lon="-5.425937">
        <ele>563.81</ele>
        <time>2015-06-20T18:32:50Z</time>
      </trkpt>
      <trkpt lat="36.546018" lon="-5.425930">
        <ele>563.19</ele>
        <time>2015-06-20T18:32:51Z</time>
      </trkpt>
      <trkpt lat="36.545946" lon="-5.425915">
        <ele>562.76</ele>
        <time>2015-06-20T18:32:52Z</time>
      </trkpt>
      <trkpt lat="36.545875" lon="-5.425888">
        <ele>562.73</ele>
        <time>2015-06-20T18:32:53Z</time>
      </trkpt>
      <trkpt lat="36.545739" lon="-5.425823">
        <ele>562.91</ele>
        <time>2015-06-20T18:32:55Z</time>
      </trkpt>
      <trkpt lat="36.545592" lon="-5.425760">
        <ele>562.45</ele>
        <time>2015-06-20T18:32:57Z</time>
      </trkpt>
      <trkpt lat="36.545521" lon="-5.425736">
        <ele>562.14</ele>
        <time>2015-06-20T18:32:58Z</time>
      </trkpt>
      <trkpt lat="36.545446" lon="-5.425717">
        <ele>561.99</ele>
        <time>2015-06-20T18:32:59Z</time>
      </trkpt>
      <trkpt lat="36.545366" lon="-5.425726">
        <ele>560.93</ele>
        <time>2015-06-20T18:33:00Z</time>
      </trkpt>
      <trkpt lat="36.545286" lon="-5.425754">
        <ele>559.50</ele>
        <time>2015-06-20T18:33:01Z</time>
      </trkpt>
      <trkpt lat="36.545135" lon="-5.425860">
        <ele>556.88</ele>
        <time>2015-06-20T18:33:03Z</time>
      </trkpt>
      <trkpt lat="36.545063" lon="-5.425913">
        <ele>555.52</ele>
        <time>2015-06-20T18:33:04Z</time>
      </trkpt>
      <trkpt lat="36.544989" lon="-5.425957">
        <ele>554.60</ele>
        <time>2015-06-20T18:33:05Z</time>
      </trkpt>
      <trkpt lat="36.544910" lon="-5.425997">
        <ele>553.62</ele>
        <time>2015-06-20T18:33:06Z</time>
      </trkpt>
      <trkpt lat="36.544832" lon="-5.426030">
        <ele>552.90</ele>
        <time>2015-06-20T18:33:07Z</time>
      </trkpt>
      <trkpt lat="36.544746" lon="-5.426041">
        <ele>552.91</ele>
        <time>2015-06-20T18:33:08Z</time>
      </trkpt>
      <trkpt lat="36.544579" lon="-5.426030">
        <ele>552.51</ele>
        <time>2015-06-20T18:33:10Z</time>
      </trkpt>
      <trkpt lat="36.544497" lon="-5.426014">
        <ele>552.52</ele>
        <time>2015-06-20T18:33:11Z</time>
      </trkpt>
      <trkpt lat="36.544412" lon="-5.425993">
        <ele>552.96</ele>
        <time>2015-06-20T18:33:12Z</time>
      </trkpt>
      <trkpt lat="36.544332" lon="-5.425959">
        <ele>554.14</ele>
        <time>2015-06-20T18:33:13Z</time>
      </trkpt>
      <trkpt lat="36.544251" lon="-5.425923">
        <ele>555.31</ele>
        <time>2015-06-20T18:33:14Z</time>
      </trkpt>
      <trkpt lat="36.544173" lon="-5.425907">
        <ele>555.91</ele>
        <time>2015-06-20T18:33:15Z</time>
      </trkpt>
      <trkpt lat="36.544086" lon="-5.425898">
        <ele>556.13</ele>
        <time>2015-06-20T18:33:16Z</time>
      </trkpt>
      <trkpt lat="36.543737" lon="-5.425888">
        <ele>554.05</ele>
        <time>2015-06-20T18:33:20Z</time>
      </trkpt>
      <trkpt lat="36.543562" lon="-5.425895">
        <ele>551.09</ele>
        <time>2015-06-20T18:33:22Z</time>
      </trkpt>
      <trkpt lat="36.543476" lon="-5.425891">
        <ele>549.75</ele>
        <time>2015-06-20T18:33:23Z</time>
      </trkpt>
      <trkpt lat="36.543390" lon="-5.425869">
        <ele>548.90</ele>
        <time>2015-06-20T18:33:24Z</time>
      </trkpt>
      <trkpt lat="36.543308" lon="-5.425841">
        <ele>548.92</ele>
        <time>2015-06-20T18:33:25Z</time>
      </trkpt>
      <trkpt lat="36.543227" lon="-5.425814">
        <ele>550.11</ele>
        <time>2015-06-20T18:33:26Z</time>
      </trkpt>
      <trkpt lat="36.543142" lon="-5.425795">
        <ele>551.16</ele>
        <time>2015-06-20T18:33:27Z</time>
      </trkpt>
      <trkpt lat="36.543056" lon="-5.425786">
        <ele>551.72</ele>
        <time>2015-06-20T18:33:28Z</time>
      </trkpt>
      <trkpt lat="36.542973" lon="-5.425818">
        <ele>550.24</ele>
        <time>2015-06-20T18:33:29Z</time>
      </trkpt>
      <trkpt lat="36.542891" lon="-5.425858">
        <ele>548.52</ele>
        <time>2015-06-20T18:33:30Z</time>
      </trkpt>
      <trkpt lat="36.542812" lon="-5.425881">
        <ele>547.42</ele>
        <time>2015-06-20T18:33:31Z</time>
      </trkpt>
      <trkpt lat="36.542748" lon="-5.425883">
        <ele>546.58</ele>
        <time>2015-06-20T18:33:32Z</time>
      </trkpt>
      <trkpt lat="36.542700" lon="-5.425878">
        <ele>545.49</ele>
        <time>2015-06-20T18:33:33Z</time>
      </trkpt>
      <trkpt lat="36.542648" lon="-5.425767">
        <ele>546.67</ele>
        <time>2015-06-20T18:33:35Z</time>
      </trkpt>
      <trkpt lat="36.542628" lon="-5.425610">
        <ele>549.16</ele>
        <time>2015-06-20T18:33:37Z</time>
      </trkpt>
      <trkpt lat="36.542628" lon="-5.425529">
        <ele>550.68</ele>
        <time>2015-06-20T18:33:38Z</time>
      </trkpt>
      <trkpt lat="36.542630" lon="-5.425446">
        <ele>552.21</ele>
        <time>2015-06-20T18:33:39Z</time>
      </trkpt>
      <trkpt lat="36.542623" lon="-5.425369">
        <ele>553.31</ele>
        <time>2015-06-20T18:33:40Z</time>
      </trkpt>
      <trkpt lat="36.542605" lon="-5.425287">
        <ele>554.23</ele>
        <time>2015-06-20T18:33:41Z</time>
      </trkpt>
      <trkpt lat="36.542542" lon="-5.425122">
        <ele>554.78</ele>
        <time>2015-06-20T18:33:43Z</time>
      </trkpt>
      <trkpt lat="36.542345" lon="-5.424855">
        <ele>553.75</ele>
        <time>2015-06-20T18:33:47Z</time>
      </trkpt>
      <trkpt lat="36.542198" lon="-5.424809">
        <ele>550.87</ele>
        <time>2015-06-20T18:33:49Z</time>
      </trkpt>
      <trkpt lat="36.542119" lon="-5.424821">
        <ele>548.65</ele>
        <time>2015-06-20T18:33:50Z</time>
      </trkpt>
      <trkpt lat="36.542041" lon="-5.424841">
        <ele>546.40</ele>
        <time>2015-06-20T18:33:51Z</time>
      </trkpt>
      <trkpt lat="36.541972" lon="-5.424841">
        <ele>544.66</ele>
        <time>2015-06-20T18:33:52Z</time>
      </trkpt>
      <trkpt lat="36.541908" lon="-5.424823">
        <ele>543.49</ele>
        <time>2015-06-20T18:33:53Z</time>
      </trkpt>
      <trkpt lat="36.541851" lon="-5.424784">
        <ele>542.99</ele>
        <time>2015-06-20T18:33:54Z</time>
      </trkpt>
      <trkpt lat="36.541798" lon="-5.424731">
        <ele>542.79</ele>
        <time>2015-06-20T18:33:55Z</time>
      </trkpt>
      <trkpt lat="36.541748" lon="-5.424670">
        <ele>542.62</ele>
        <time>2015-06-20T18:33:56Z</time>
      </trkpt>
      <trkpt lat="36.541698" lon="-5.424611">
        <ele>542.31</ele>
        <time>2015-06-20T18:33:57Z</time>
      </trkpt>
      <trkpt lat="36.541639" lon="-5.424548">
        <ele>541.96</ele>
        <time>2015-06-20T18:33:58Z</time>
      </trkpt>
      <trkpt lat="36.541586" lon="-5.424478">
        <ele>541.88</ele>
        <time>2015-06-20T18:33:59Z</time>
      </trkpt>
      <trkpt lat="36.541544" lon="-5.424397">
        <ele>541.85</ele>
        <time>2015-06-20T18:34:00Z</time>
      </trkpt>
      <trkpt lat="36.541507" lon="-5.424316">
        <ele>541.74</ele>
        <time>2015-06-20T18:34:01Z</time>
      </trkpt>
      <trkpt lat="36.541482" lon="-5.424231">
        <ele>541.86</ele>
        <time>2015-06-20T18:34:02Z</time>
      </trkpt>
      <trkpt lat="36.541440" lon="-5.424066">
        <ele>541.62</ele>
        <time>2015-06-20T18:34:04Z</time>
      </trkpt>
      <trkpt lat="36.541441" lon="-5.423968">
        <ele>542.09</ele>
        <time>2015-06-20T18:34:05Z</time>
      </trkpt>
      <trkpt lat="36.541424" lon="-5.423864">
        <ele>542.13</ele>
        <time>2015-06-20T18:34:06Z</time>
      </trkpt>
      <trkpt lat="36.541399" lon="-5.423770">
        <ele>542.16</ele>
        <time>2015-06-20T18:34:07Z</time>
      </trkpt>
      <trkpt lat="36.541360" lon="-5.423692">
        <ele>541.78</ele>
        <time>2015-06-20T18:34:08Z</time>
      </trkpt>
      <trkpt lat="36.541313" lon="-5.423620">
        <ele>541.01</ele>
        <time>2015-06-20T18:34:09Z</time>
      </trkpt>
      <trkpt lat="36.541263" lon="-5.423550">
        <ele>540.71</ele>
        <time>2015-06-20T18:34:10Z</time>
      </trkpt>
      <trkpt lat="36.541217" lon="-5.423474">
        <ele>540.56</ele>
        <time>2015-06-20T18:34:11Z</time>
      </trkpt>
      <trkpt lat="36.541174" lon="-5.423389">
        <ele>540.32</ele>
        <time>2015-06-20T18:34:12Z</time>
      </trkpt>
      <trkpt lat="36.541130" lon="-5.423304">
        <ele>540.34</ele>
        <time>2015-06-20T18:34:13Z</time>
      </trkpt>
      <trkpt lat="36.541084" lon="-5.423220">
        <ele>540.61</ele>
        <time>2015-06-20T18:34:14Z</time>
      </trkpt>
      <trkpt lat="36.541021" lon="-5.423143">
        <ele>540.35</ele>
        <time>2015-06-20T18:34:15Z</time>
      </trkpt>
      <trkpt lat="36.540891" lon="-5.423014">
        <ele>538.95</ele>
        <time>2015-06-20T18:34:17Z</time>
      </trkpt>
      <trkpt lat="36.540821" lon="-5.422954">
        <ele>538.43</ele>
        <time>2015-06-20T18:34:18Z</time>
      </trkpt>
      <trkpt lat="36.540752" lon="-5.422896">
        <ele>538.72</ele>
        <time>2015-06-20T18:34:19Z</time>
      </trkpt>
      <trkpt lat="36.540681" lon="-5.422843">
        <ele>539.04</ele>
        <time>2015-06-20T18:34:20Z</time>
      </trkpt>
      <trkpt lat="36.540603" lon="-5.422797">
        <ele>539.16</ele>
        <time>2015-06-20T18:34:21Z</time>
      </trkpt>
      <trkpt lat="36.540523" lon="-5.422759">
        <ele>539.71</ele>
        <time>2015-06-20T18:34:22Z</time>
      </trkpt>
      <trkpt lat="36.540444" lon="-5.422740">
        <ele>540.51</ele>
        <time>2015-06-20T18:34:23Z</time>
      </trkpt>
      <trkpt lat="36.540373" lon="-5.422748">
        <ele>540.57</ele>
        <time>2015-06-20T18:34:24Z</time>
      </trkpt>
      <trkpt lat="36.540300" lon="-5.422773">
        <ele>540.17</ele>
        <time>2015-06-20T18:34:25Z</time>
      </trkpt>
      <trkpt lat="36.540226" lon="-5.422812">
        <ele>539.63</ele>
        <time>2015-06-20T18:34:26Z</time>
      </trkpt>
      <trkpt lat="36.540153" lon="-5.422871">
        <ele>538.57</ele>
        <time>2015-06-20T18:34:27Z</time>
      </trkpt>
      <trkpt lat="36.540084" lon="-5.422935">
        <ele>537.24</ele>
        <time>2015-06-20T18:34:28Z</time>
      </trkpt>
      <trkpt lat="36.540007" lon="-5.422975">
        <ele>536.67</ele>
        <time>2015-06-20T18:34:29Z</time>
      </trkpt>
      <trkpt lat="36.539929" lon="-5.422994">
        <ele>535.25</ele>
        <time>2015-06-20T18:34:30Z</time>
      </trkpt>
      <trkpt lat="36.539849" lon="-5.423010">
        <ele>533.83</ele>
        <time>2015-06-20T18:34:31Z</time>
      </trkpt>
      <trkpt lat="36.539769" lon="-5.423017">
        <ele>532.82</ele>
        <time>2015-06-20T18:34:32Z</time>
      </trkpt>
      <trkpt lat="36.539685" lon="-5.423017">
        <ele>532.40</ele>
        <time>2015-06-20T18:34:33Z</time>
      </trkpt>
      <trkpt lat="36.539603" lon="-5.423023">
        <ele>532.12</ele>
        <time>2015-06-20T18:34:34Z</time>
      </trkpt>
      <trkpt lat="36.539519" lon="-5.423032">
        <ele>531.81</ele>
        <time>2015-06-20T18:34:35Z</time>
      </trkpt>
      <trkpt lat="36.539434" lon="-5.423043">
        <ele>531.58</ele>
        <time>2015-06-20T18:34:36Z</time>
      </trkpt>
      <trkpt lat="36.539345" lon="-5.423053">
        <ele>531.88</ele>
        <time>2015-06-20T18:34:37Z</time>
      </trkpt>
      <trkpt lat="36.539103" lon="-5.423094">
        <ele>533.09</ele>
        <time>2015-06-20T18:34:40Z</time>
      </trkpt>
      <trkpt lat="36.539028" lon="-5.423118">
        <ele>533.60</ele>
        <time>2015-06-20T18:34:41Z</time>
      </trkpt>
      <trkpt lat="36.538955" lon="-5.423157">
        <ele>533.35</ele>
        <time>2015-06-20T18:34:42Z</time>
      </trkpt>
      <trkpt lat="36.538896" lon="-5.423217">
        <ele>532.13</ele>
        <time>2015-06-20T18:34:43Z</time>
      </trkpt>
      <trkpt lat="36.538844" lon="-5.423286">
        <ele>530.67</ele>
        <time>2015-06-20T18:34:44Z</time>
      </trkpt>
      <trkpt lat="36.538798" lon="-5.423357">
        <ele>529.26</ele>
        <time>2015-06-20T18:34:45Z</time>
      </trkpt>
      <trkpt lat="36.538714" lon="-5.423497">
        <ele>526.33</ele>
        <time>2015-06-20T18:34:47Z</time>
      </trkpt>
      <trkpt lat="36.538672" lon="-5.423547">
        <ele>525.35</ele>
        <time>2015-06-20T18:34:48Z</time>
      </trkpt>
      <trkpt lat="36.538627" lon="-5.423587">
        <ele>524.61</ele>
        <time>2015-06-20T18:34:49Z</time>
      </trkpt>
      <trkpt lat="36.538449" lon="-5.423693">
        <ele>523.71</ele>
        <time>2015-06-20T18:34:52Z</time>
      </trkpt>
      <trkpt lat="36.538387" lon="-5.423728">
        <ele>523.25</ele>
        <time>2015-06-20T18:34:53Z</time>
      </trkpt>
      <trkpt lat="36.538307" lon="-5.423757">
        <ele>522.72</ele>
        <time>2015-06-20T18:34:54Z</time>
      </trkpt>
      <trkpt lat="36.538119" lon="-5.423826">
        <ele>520.15</ele>
        <time>2015-06-20T18:34:56Z</time>
      </trkpt>
      <trkpt lat="36.538019" lon="-5.423854">
        <ele>519.81</ele>
        <time>2015-06-20T18:34:57Z</time>
      </trkpt>
      <trkpt lat="36.537917" lon="-5.423878">
        <ele>520.49</ele>
        <time>2015-06-20T18:34:58Z</time>
      </trkpt>
      <trkpt lat="36.537809" lon="-5.423904">
        <ele>521.04</ele>
        <time>2015-06-20T18:34:59Z</time>
      </trkpt>
      <trkpt lat="36.537702" lon="-5.423939">
        <ele>521.17</ele>
        <time>2015-06-20T18:35:00Z</time>
      </trkpt>
      <trkpt lat="36.537604" lon="-5.423990">
        <ele>520.77</ele>
        <time>2015-06-20T18:35:01Z</time>
      </trkpt>
      <trkpt lat="36.537511" lon="-5.424047">
        <ele>520.36</ele>
        <time>2015-06-20T18:35:02Z</time>
      </trkpt>
      <trkpt lat="36.537426" lon="-5.424090">
        <ele>518.50</ele>
        <time>2015-06-20T18:35:03Z</time>
      </trkpt>
      <trkpt lat="36.537351" lon="-5.424108">
        <ele>517.42</ele>
        <time>2015-06-20T18:35:04Z</time>
      </trkpt>
      <trkpt lat="36.537287" lon="-5.424095">
        <ele>517.11</ele>
        <time>2015-06-20T18:35:05Z</time>
      </trkpt>
      <trkpt lat="36.537239" lon="-5.424059">
        <ele>517.59</ele>
        <time>2015-06-20T18:35:06Z</time>
      </trkpt>
      <trkpt lat="36.537192" lon="-5.424015">
        <ele>517.33</ele>
        <time>2015-06-20T18:35:07Z</time>
      </trkpt>
      <trkpt lat="36.537149" lon="-5.423953">
        <ele>517.26</ele>
        <time>2015-06-20T18:35:08Z</time>
      </trkpt>
      <trkpt lat="36.537114" lon="-5.423892">
        <ele>517.41</ele>
        <time>2015-06-20T18:35:09Z</time>
      </trkpt>
      <trkpt lat="36.537088" lon="-5.423827">
        <ele>518.46</ele>
        <time>2015-06-20T18:35:10Z</time>
      </trkpt>
      <trkpt lat="36.537062" lon="-5.423763">
        <ele>519.43</ele>
        <time>2015-06-20T18:35:11Z</time>
      </trkpt>
      <trkpt lat="36.537006" lon="-5.423647">
        <ele>521.05</ele>
        <time>2015-06-20T18:35:13Z</time>
      </trkpt>
      <trkpt lat="36.536942" lon="-5.423560">
        <ele>521.62</ele>
        <time>2015-06-20T18:35:15Z</time>
      </trkpt>
      <trkpt lat="36.536838" lon="-5.423378">
        <ele>523.09</ele>
        <time>2015-06-20T18:35:20Z</time>
      </trkpt>
      <trkpt lat="36.536730" lon="-5.423095">
        <ele>526.67</ele>
        <time>2015-06-20T18:35:26Z</time>
      </trkpt>
      <trkpt lat="36.536710" lon="-5.423049">
        <ele>527.12</ele>
        <time>2015-06-20T18:35:27Z</time>
      </trkpt>
      <trkpt lat="36.536658" lon="-5.422959">
        <ele>528.51</ele>
        <time>2015-06-20T18:35:29Z</time>
      </trkpt>
      <trkpt lat="36.536568" lon="-5.422839">
        <ele>530.09</ele>
        <time>2015-06-20T18:35:32Z</time>
      </trkpt>
      <trkpt lat="36.536373" lon="-5.422653">
        <ele>530.35</ele>
        <time>2015-06-20T18:35:37Z</time>
      </trkpt>
      <trkpt lat="36.536332" lon="-5.422618">
        <ele>530.20</ele>
        <time>2015-06-20T18:35:38Z</time>
      </trkpt>
      <trkpt lat="36.536296" lon="-5.422589">
        <ele>529.90</ele>
        <time>2015-06-20T18:35:39Z</time>
      </trkpt>
      <trkpt lat="36.536256" lon="-5.422557">
        <ele>529.32</ele>
        <time>2015-06-20T18:35:40Z</time>
      </trkpt>
      <trkpt lat="36.536216" lon="-5.422528">
        <ele>528.67</ele>
        <time>2015-06-20T18:35:41Z</time>
      </trkpt>
      <trkpt lat="36.536115" lon="-5.422422">
        <ele>527.74</ele>
        <time>2015-06-20T18:35:44Z</time>
      </trkpt>
      <trkpt lat="36.535949" lon="-5.422238">
        <ele>528.37</ele>
        <time>2015-06-20T18:35:49Z</time>
      </trkpt>
      <trkpt lat="36.535906" lon="-5.422204">
        <ele>528.09</ele>
        <time>2015-06-20T18:35:50Z</time>
      </trkpt>
      <trkpt lat="36.535867" lon="-5.422167">
        <ele>528.17</ele>
        <time>2015-06-20T18:35:51Z</time>
      </trkpt>
      <trkpt lat="36.535830" lon="-5.422130">
        <ele>528.22</ele>
        <time>2015-06-20T18:35:52Z</time>
      </trkpt>
      <trkpt lat="36.535792" lon="-5.422094">
        <ele>528.41</ele>
        <time>2015-06-20T18:35:53Z</time>
      </trkpt>
      <trkpt lat="36.535578" lon="-5.421872">
        <ele>530.31</ele>
        <time>2015-06-20T18:35:59Z</time>
      </trkpt>
      <trkpt lat="36.535358" lon="-5.421693">
        <ele>530.48</ele>
        <time>2015-06-20T18:36:04Z</time>
      </trkpt>
      <trkpt lat="36.535311" lon="-5.421666">
        <ele>530.02</ele>
        <time>2015-06-20T18:36:05Z</time>
      </trkpt>
      <trkpt lat="36.535264" lon="-5.421641">
        <ele>529.54</ele>
        <time>2015-06-20T18:36:06Z</time>
      </trkpt>
      <trkpt lat="36.535217" lon="-5.421611">
        <ele>529.26</ele>
        <time>2015-06-20T18:36:07Z</time>
      </trkpt>
      <trkpt lat="36.535170" lon="-5.421582">
        <ele>528.91</ele>
        <time>2015-06-20T18:36:08Z</time>
      </trkpt>
      <trkpt lat="36.535126" lon="-5.421547">
        <ele>528.87</ele>
        <time>2015-06-20T18:36:09Z</time>
      </trkpt>
      <trkpt lat="36.534997" lon="-5.421444">
        <ele>528.40</ele>
        <time>2015-06-20T18:36:12Z</time>
      </trkpt>
      <trkpt lat="36.534771" lon="-5.421191">
        <ele>527.11</ele>
        <time>2015-06-20T18:36:18Z</time>
      </trkpt>
      <trkpt lat="36.534598" lon="-5.420939">
        <ele>526.52</ele>
        <time>2015-06-20T18:36:24Z</time>
      </trkpt>
      <trkpt lat="36.534483" lon="-5.420638">
        <ele>527.80</ele>
        <time>2015-06-20T18:36:30Z</time>
      </trkpt>
      <trkpt lat="36.534432" lon="-5.420305">
        <ele>531.41</ele>
        <time>2015-06-20T18:36:36Z</time>
      </trkpt>
      <trkpt lat="36.534361" lon="-5.420104">
        <ele>531.95</ele>
        <time>2015-06-20T18:36:41Z</time>
      </trkpt>
      <trkpt lat="36.534245" lon="-5.419836">
        <ele>529.35</ele>
        <time>2015-06-20T18:36:48Z</time>
      </trkpt>
      <trkpt lat="36.534232" lon="-5.419795">
        <ele>528.57</ele>
        <time>2015-06-20T18:36:49Z</time>
      </trkpt>
      <trkpt lat="36.534219" lon="-5.419750">
        <ele>527.79</ele>
        <time>2015-06-20T18:36:50Z</time>
      </trkpt>
      <trkpt lat="36.534212" lon="-5.419705">
        <ele>526.87</ele>
        <time>2015-06-20T18:36:51Z</time>
      </trkpt>
      <trkpt lat="36.534227" lon="-5.419572">
        <ele>524.32</ele>
        <time>2015-06-20T18:36:54Z</time>
      </trkpt>
      <trkpt lat="36.534328" lon="-5.419445">
        <ele>524.18</ele>
        <time>2015-06-20T18:36:58Z</time>
      </trkpt>
      <trkpt lat="36.534555" lon="-5.419247">
        <ele>524.73</ele>
        <time>2015-06-20T18:37:04Z</time>
      </trkpt>
      <trkpt lat="36.534595" lon="-5.419222">
        <ele>525.12</ele>
        <time>2015-06-20T18:37:05Z</time>
      </trkpt>
      <trkpt lat="36.534642" lon="-5.419214">
        <ele>526.30</ele>
        <time>2015-06-20T18:37:06Z</time>
      </trkpt>
      <trkpt lat="36.534690" lon="-5.419219">
        <ele>527.91</ele>
        <time>2015-06-20T18:37:07Z</time>
      </trkpt>
      <trkpt lat="36.534737" lon="-5.419226">
        <ele>529.41</ele>
        <time>2015-06-20T18:37:08Z</time>
      </trkpt>
      <trkpt lat="36.534970" lon="-5.419230">
        <ele>534.49</ele>
        <time>2015-06-20T18:37:13Z</time>
      </trkpt>
      <trkpt lat="36.535094" lon="-5.419097">
        <ele>533.17</ele>
        <time>2015-06-20T18:37:16Z</time>
      </trkpt>
      <trkpt lat="36.535159" lon="-5.418985">
        <ele>532.05</ele>
        <time>2015-06-20T18:37:18Z</time>
      </trkpt>
      <trkpt lat="36.535307" lon="-5.418753">
        <ele>530.73</ele>
        <time>2015-06-20T18:37:22Z</time>
      </trkpt>
      <trkpt lat="36.535458" lon="-5.418479">
        <ele>529.17</ele>
        <time>2015-06-20T18:37:26Z</time>
      </trkpt>
      <trkpt lat="36.535544" lon="-5.418350">
        <ele>529.86</ele>
        <time>2015-06-20T18:37:28Z</time>
      </trkpt>
      <trkpt lat="36.535643" lon="-5.418234">
        <ele>530.22</ele>
        <time>2015-06-20T18:37:30Z</time>
      </trkpt>
      <trkpt lat="36.535696" lon="-5.418179">
        <ele>530.82</ele>
        <time>2015-06-20T18:37:31Z</time>
      </trkpt>
      <trkpt lat="36.535746" lon="-5.418115">
        <ele>531.62</ele>
        <time>2015-06-20T18:37:32Z</time>
      </trkpt>
      <trkpt lat="36.535776" lon="-5.418038">
        <ele>531.78</ele>
        <time>2015-06-20T18:37:33Z</time>
      </trkpt>
      <trkpt lat="36.535799" lon="-5.417973">
        <ele>531.81</ele>
        <time>2015-06-20T18:37:34Z</time>
      </trkpt>
      <trkpt lat="36.535788" lon="-5.417842">
        <ele>529.81</ele>
        <time>2015-06-20T18:37:36Z</time>
      </trkpt>
      <trkpt lat="36.535707" lon="-5.417642">
        <ele>525.16</ele>
        <time>2015-06-20T18:37:39Z</time>
      </trkpt>
      <trkpt lat="36.535662" lon="-5.417501">
        <ele>522.69</ele>
        <time>2015-06-20T18:37:41Z</time>
      </trkpt>
      <trkpt lat="36.535539" lon="-5.417083">
        <ele>512.39</ele>
        <time>2015-06-20T18:37:47Z</time>
      </trkpt>
      <trkpt lat="36.535611" lon="-5.416859">
        <ele>511.75</ele>
        <time>2015-06-20T18:37:51Z</time>
      </trkpt>
      <trkpt lat="36.535785" lon="-5.416824">
        <ele>516.67</ele>
        <time>2015-06-20T18:37:54Z</time>
      </trkpt>
      <trkpt lat="36.535999" lon="-5.416770">
        <ele>519.91</ele>
        <time>2015-06-20T18:37:57Z</time>
      </trkpt>
      <trkpt lat="36.536077" lon="-5.416748">
        <ele>520.92</ele>
        <time>2015-06-20T18:37:58Z</time>
      </trkpt>
      <trkpt lat="36.536159" lon="-5.416727">
        <ele>521.64</ele>
        <time>2015-06-20T18:37:59Z</time>
      </trkpt>
      <trkpt lat="36.536238" lon="-5.416704">
        <ele>522.07</ele>
        <time>2015-06-20T18:38:00Z</time>
      </trkpt>
      <trkpt lat="36.536319" lon="-5.416681">
        <ele>522.51</ele>
        <time>2015-06-20T18:38:01Z</time>
      </trkpt>
      <trkpt lat="36.536634" lon="-5.416633">
        <ele>526.21</ele>
        <time>2015-06-20T18:38:05Z</time>
      </trkpt>
      <trkpt lat="36.536696" lon="-5.416598">
        <ele>526.21</ele>
        <time>2015-06-20T18:38:06Z</time>
      </trkpt>
      <trkpt lat="36.536747" lon="-5.416546">
        <ele>525.54</ele>
        <time>2015-06-20T18:38:07Z</time>
      </trkpt>
      <trkpt lat="36.536788" lon="-5.416476">
        <ele>524.13</ele>
        <time>2015-06-20T18:38:08Z</time>
      </trkpt>
      <trkpt lat="36.536827" lon="-5.416402">
        <ele>522.58</ele>
        <time>2015-06-20T18:38:09Z</time>
      </trkpt>
      <trkpt lat="36.536902" lon="-5.416238">
        <ele>518.04</ele>
        <time>2015-06-20T18:38:11Z</time>
      </trkpt>
      <trkpt lat="36.536988" lon="-5.416083">
        <ele>514.19</ele>
        <time>2015-06-20T18:38:13Z</time>
      </trkpt>
      <trkpt lat="36.537048" lon="-5.416029">
        <ele>513.88</ele>
        <time>2015-06-20T18:38:14Z</time>
      </trkpt>
      <trkpt lat="36.537121" lon="-5.416000">
        <ele>514.48</ele>
        <time>2015-06-20T18:38:15Z</time>
      </trkpt>
      <trkpt lat="36.537202" lon="-5.415991">
        <ele>515.79</ele>
        <time>2015-06-20T18:38:16Z</time>
      </trkpt>
      <trkpt lat="36.537279" lon="-5.415992">
        <ele>516.41</ele>
        <time>2015-06-20T18:38:17Z</time>
      </trkpt>
      <trkpt lat="36.537358" lon="-5.415996">
        <ele>517.05</ele>
        <time>2015-06-20T18:38:18Z</time>
      </trkpt>
      <trkpt lat="36.537509" lon="-5.415980">
        <ele>517.41</ele>
        <time>2015-06-20T18:38:20Z</time>
      </trkpt>
      <trkpt lat="36.537581" lon="-5.415958">
        <ele>517.81</ele>
        <time>2015-06-20T18:38:21Z</time>
      </trkpt>
      <trkpt lat="36.537653" lon="-5.415929">
        <ele>518.17</ele>
        <time>2015-06-20T18:38:22Z</time>
      </trkpt>
      <trkpt lat="36.537721" lon="-5.415893">
        <ele>518.44</ele>
        <time>2015-06-20T18:38:23Z</time>
      </trkpt>
      <trkpt lat="36.537787" lon="-5.415847">
        <ele>518.51</ele>
        <time>2015-06-20T18:38:24Z</time>
      </trkpt>
      <trkpt lat="36.537843" lon="-5.415785">
        <ele>518.58</ele>
        <time>2015-06-20T18:38:25Z</time>
      </trkpt>
      <trkpt lat="36.537882" lon="-5.415714">
        <ele>518.11</ele>
        <time>2015-06-20T18:38:26Z</time>
      </trkpt>
      <trkpt lat="36.537908" lon="-5.415634">
        <ele>517.27</ele>
        <time>2015-06-20T18:38:27Z</time>
      </trkpt>
      <trkpt lat="36.537917" lon="-5.415557">
        <ele>516.04</ele>
        <time>2015-06-20T18:38:28Z</time>
      </trkpt>
      <trkpt lat="36.537927" lon="-5.415487">
        <ele>514.25</ele>
        <time>2015-06-20T18:38:29Z</time>
      </trkpt>
      <trkpt lat="36.537945" lon="-5.415431">
        <ele>512.99</ele>
        <time>2015-06-20T18:38:30Z</time>
      </trkpt>
      <trkpt lat="36.537979" lon="-5.415392">
        <ele>512.47</ele>
        <time>2015-06-20T18:38:31Z</time>
      </trkpt>
      <trkpt lat="36.538030" lon="-5.415372">
        <ele>512.62</ele>
        <time>2015-06-20T18:38:32Z</time>
      </trkpt>
      <trkpt lat="36.538205" lon="-5.415346">
        <ele>515.21</ele>
        <time>2015-06-20T18:38:35Z</time>
      </trkpt>
      <trkpt lat="36.538262" lon="-5.415326">
        <ele>515.85</ele>
        <time>2015-06-20T18:38:36Z</time>
      </trkpt>
      <trkpt lat="36.538375" lon="-5.415127">
        <ele>513.50</ele>
        <time>2015-06-20T18:38:39Z</time>
      </trkpt>
      <trkpt lat="36.538387" lon="-5.415037">
        <ele>511.56</ele>
        <time>2015-06-20T18:38:40Z</time>
      </trkpt>
      <trkpt lat="36.538392" lon="-5.414981">
        <ele>510.22</ele>
        <time>2015-06-20T18:38:41Z</time>
      </trkpt>
      <trkpt lat="36.538414" lon="-5.414890">
        <ele>508.74</ele>
        <time>2015-06-20T18:38:42Z</time>
      </trkpt>
      <trkpt lat="36.538442" lon="-5.414811">
        <ele>507.61</ele>
        <time>2015-06-20T18:38:43Z</time>
      </trkpt>
      <trkpt lat="36.538539" lon="-5.414681">
        <ele>507.69</ele>
        <time>2015-06-20T18:38:45Z</time>
      </trkpt>
      <trkpt lat="36.538596" lon="-5.414623">
        <ele>508.02</ele>
        <time>2015-06-20T18:38:46Z</time>
      </trkpt>
      <trkpt lat="36.538662" lon="-5.414567">
        <ele>508.78</ele>
        <time>2015-06-20T18:38:47Z</time>
      </trkpt>
      <trkpt lat="36.538730" lon="-5.414512">
        <ele>509.32</ele>
        <time>2015-06-20T18:38:48Z</time>
      </trkpt>
      <trkpt lat="36.538788" lon="-5.414448">
        <ele>509.22</ele>
        <time>2015-06-20T18:38:49Z</time>
      </trkpt>
      <trkpt lat="36.538893" lon="-5.414309">
        <ele>509.21</ele>
        <time>2015-06-20T18:38:51Z</time>
      </trkpt>
      <trkpt lat="36.538944" lon="-5.414238">
        <ele>509.43</ele>
        <time>2015-06-20T18:38:52Z</time>
      </trkpt>
      <trkpt lat="36.538999" lon="-5.414170">
        <ele>509.62</ele>
        <time>2015-06-20T18:38:53Z</time>
      </trkpt>
      <trkpt lat="36.539055" lon="-5.414109">
        <ele>509.99</ele>
        <time>2015-06-20T18:38:54Z</time>
      </trkpt>
      <trkpt lat="36.539123" lon="-5.414052">
        <ele>510.49</ele>
        <time>2015-06-20T18:38:55Z</time>
      </trkpt>
      <trkpt lat="36.539243" lon="-5.413888">
        <ele>509.26</ele>
        <time>2015-06-20T18:38:57Z</time>
      </trkpt>
      <trkpt lat="36.539284" lon="-5.413794">
        <ele>508.09</ele>
        <time>2015-06-20T18:38:58Z</time>
      </trkpt>
      <trkpt lat="36.539315" lon="-5.413690">
        <ele>506.29</ele>
        <time>2015-06-20T18:38:59Z</time>
      </trkpt>
      <trkpt lat="36.539350" lon="-5.413586">
        <ele>504.68</ele>
        <time>2015-06-20T18:39:00Z</time>
      </trkpt>
      <trkpt lat="36.539381" lon="-5.413488">
        <ele>503.99</ele>
        <time>2015-06-20T18:39:01Z</time>
      </trkpt>
      <trkpt lat="36.539408" lon="-5.413388">
        <ele>503.08</ele>
        <time>2015-06-20T18:39:02Z</time>
      </trkpt>
      <trkpt lat="36.539437" lon="-5.413284">
        <ele>501.92</ele>
        <time>2015-06-20T18:39:03Z</time>
      </trkpt>
      <trkpt lat="36.539464" lon="-5.413189">
        <ele>501.01</ele>
        <time>2015-06-20T18:39:04Z</time>
      </trkpt>
      <trkpt lat="36.539487" lon="-5.413091">
        <ele>500.08</ele>
        <time>2015-06-20T18:39:05Z</time>
      </trkpt>
      <trkpt lat="36.539515" lon="-5.412991">
        <ele>499.13</ele>
        <time>2015-06-20T18:39:06Z</time>
      </trkpt>
      <trkpt lat="36.539585" lon="-5.412800">
        <ele>497.52</ele>
        <time>2015-06-20T18:39:08Z</time>
      </trkpt>
      <trkpt lat="36.539636" lon="-5.412709">
        <ele>497.45</ele>
        <time>2015-06-20T18:39:09Z</time>
      </trkpt>
      <trkpt lat="36.539695" lon="-5.412614">
        <ele>497.40</ele>
        <time>2015-06-20T18:39:10Z</time>
      </trkpt>
      <trkpt lat="36.539757" lon="-5.412515">
        <ele>497.52</ele>
        <time>2015-06-20T18:39:11Z</time>
      </trkpt>
      <trkpt lat="36.539818" lon="-5.412419">
        <ele>498.47</ele>
        <time>2015-06-20T18:39:12Z</time>
      </trkpt>
      <trkpt lat="36.539872" lon="-5.412320">
        <ele>499.18</ele>
        <time>2015-06-20T18:39:13Z</time>
      </trkpt>
      <trkpt lat="36.539926" lon="-5.412226">
        <ele>500.11</ele>
        <time>2015-06-20T18:39:14Z</time>
      </trkpt>
      <trkpt lat="36.539969" lon="-5.412129">
        <ele>500.85</ele>
        <time>2015-06-20T18:39:15Z</time>
      </trkpt>
      <trkpt lat="36.540000" lon="-5.412030">
        <ele>500.91</ele>
        <time>2015-06-20T18:39:16Z</time>
      </trkpt>
      <trkpt lat="36.540027" lon="-5.411932">
        <ele>501.01</ele>
        <time>2015-06-20T18:39:17Z</time>
      </trkpt>
      <trkpt lat="36.540047" lon="-5.411834">
        <ele>501.15</ele>
        <time>2015-06-20T18:39:18Z</time>
      </trkpt>
      <trkpt lat="36.540053" lon="-5.411726">
        <ele>500.72</ele>
        <time>2015-06-20T18:39:19Z</time>
      </trkpt>
      <trkpt lat="36.540045" lon="-5.411623">
        <ele>499.91</ele>
        <time>2015-06-20T18:39:20Z</time>
      </trkpt>
      <trkpt lat="36.540026" lon="-5.411523">
        <ele>499.18</ele>
        <time>2015-06-20T18:39:21Z</time>
      </trkpt>
      <trkpt lat="36.540005" lon="-5.411425">
        <ele>498.22</ele>
        <time>2015-06-20T18:39:22Z</time>
      </trkpt>
      <trkpt lat="36.539973" lon="-5.411220">
        <ele>496.27</ele>
        <time>2015-06-20T18:39:24Z</time>
      </trkpt>
      <trkpt lat="36.539984" lon="-5.411119">
        <ele>496.39</ele>
        <time>2015-06-20T18:39:25Z</time>
      </trkpt>
      <trkpt lat="36.540012" lon="-5.411009">
        <ele>495.66</ele>
        <time>2015-06-20T18:39:26Z</time>
      </trkpt>
      <trkpt lat="36.540040" lon="-5.410898">
        <ele>494.68</ele>
        <time>2015-06-20T18:39:27Z</time>
      </trkpt>
      <trkpt lat="36.540052" lon="-5.410808">
        <ele>493.33</ele>
        <time>2015-06-20T18:39:28Z</time>
      </trkpt>
      <trkpt lat="36.540065" lon="-5.410701">
        <ele>491.32</ele>
        <time>2015-06-20T18:39:29Z</time>
      </trkpt>
      <trkpt lat="36.540087" lon="-5.410600">
        <ele>489.61</ele>
        <time>2015-06-20T18:39:30Z</time>
      </trkpt>
      <trkpt lat="36.540117" lon="-5.410509">
        <ele>488.25</ele>
        <time>2015-06-20T18:39:31Z</time>
      </trkpt>
      <trkpt lat="36.540149" lon="-5.410430">
        <ele>487.14</ele>
        <time>2015-06-20T18:39:32Z</time>
      </trkpt>
      <trkpt lat="36.540187" lon="-5.410357">
        <ele>486.12</ele>
        <time>2015-06-20T18:39:33Z</time>
      </trkpt>
      <trkpt lat="36.540247" lon="-5.410282">
        <ele>485.51</ele>
        <time>2015-06-20T18:39:34Z</time>
      </trkpt>
      <trkpt lat="36.540316" lon="-5.410218">
        <ele>486.18</ele>
        <time>2015-06-20T18:39:35Z</time>
      </trkpt>
      <trkpt lat="36.540391" lon="-5.410148">
        <ele>487.18</ele>
        <time>2015-06-20T18:39:36Z</time>
      </trkpt>
      <trkpt lat="36.540472" lon="-5.410088">
        <ele>488.45</ele>
        <time>2015-06-20T18:39:37Z</time>
      </trkpt>
      <trkpt lat="36.540552" lon="-5.410029">
        <ele>489.64</ele>
        <time>2015-06-20T18:39:38Z</time>
      </trkpt>
      <trkpt lat="36.540636" lon="-5.409966">
        <ele>491.56</ele>
        <time>2015-06-20T18:39:39Z</time>
      </trkpt>
      <trkpt lat="36.540716" lon="-5.409899">
        <ele>493.30</ele>
        <time>2015-06-20T18:39:40Z</time>
      </trkpt>
      <trkpt lat="36.540778" lon="-5.409818">
        <ele>494.02</ele>
        <time>2015-06-20T18:39:41Z</time>
      </trkpt>
      <trkpt lat="36.540813" lon="-5.409730">
        <ele>493.41</ele>
        <time>2015-06-20T18:39:42Z</time>
      </trkpt>
      <trkpt lat="36.540826" lon="-5.409641">
        <ele>492.32</ele>
        <time>2015-06-20T18:39:43Z</time>
      </trkpt>
      <trkpt lat="36.540832" lon="-5.409558">
        <ele>491.02</ele>
        <time>2015-06-20T18:39:44Z</time>
      </trkpt>
      <trkpt lat="36.540803" lon="-5.409482">
        <ele>488.75</ele>
        <time>2015-06-20T18:39:45Z</time>
      </trkpt>
      <trkpt lat="36.540779" lon="-5.409405">
        <ele>486.62</ele>
        <time>2015-06-20T18:39:46Z</time>
      </trkpt>
      <trkpt lat="36.540758" lon="-5.409327">
        <ele>484.63</ele>
        <time>2015-06-20T18:39:47Z</time>
      </trkpt>
      <trkpt lat="36.540761" lon="-5.409245">
        <ele>483.40</ele>
        <time>2015-06-20T18:39:48Z</time>
      </trkpt>
      <trkpt lat="36.540772" lon="-5.409168">
        <ele>482.36</ele>
        <time>2015-06-20T18:39:49Z</time>
      </trkpt>
      <trkpt lat="36.540854" lon="-5.408957">
        <ele>480.87</ele>
        <time>2015-06-20T18:39:52Z</time>
      </trkpt>
      <trkpt lat="36.540892" lon="-5.408889">
        <ele>480.76</ele>
        <time>2015-06-20T18:39:53Z</time>
      </trkpt>
      <trkpt lat="36.541040" lon="-5.408584">
        <ele>479.85</ele>
        <time>2015-06-20T18:39:57Z</time>
      </trkpt>
      <trkpt lat="36.541133" lon="-5.408345">
        <ele>478.92</ele>
        <time>2015-06-20T18:40:00Z</time>
      </trkpt>
      <trkpt lat="36.541232" lon="-5.408195">
        <ele>478.21</ele>
        <time>2015-06-20T18:40:02Z</time>
      </trkpt>
      <trkpt lat="36.541293" lon="-5.408130">
        <ele>478.37</ele>
        <time>2015-06-20T18:40:03Z</time>
      </trkpt>
      <trkpt lat="36.541366" lon="-5.408076">
        <ele>478.95</ele>
        <time>2015-06-20T18:40:04Z</time>
      </trkpt>
      <trkpt lat="36.541437" lon="-5.408036">
        <ele>479.67</ele>
        <time>2015-06-20T18:40:05Z</time>
      </trkpt>
      <trkpt lat="36.541513" lon="-5.408015">
        <ele>480.96</ele>
        <time>2015-06-20T18:40:06Z</time>
      </trkpt>
      <trkpt lat="36.541588" lon="-5.408008">
        <ele>482.69</ele>
        <time>2015-06-20T18:40:07Z</time>
      </trkpt>
      <trkpt lat="36.541714" lon="-5.408036">
        <ele>485.99</ele>
        <time>2015-06-20T18:40:09Z</time>
      </trkpt>
      <trkpt lat="36.541758" lon="-5.408033">
        <ele>486.39</ele>
        <time>2015-06-20T18:40:10Z</time>
      </trkpt>
      <trkpt lat="36.541887" lon="-5.408017">
        <ele>487.29</ele>
        <time>2015-06-20T18:40:12Z</time>
      </trkpt>
      <trkpt lat="36.542018" lon="-5.407953">
        <ele>485.24</ele>
        <time>2015-06-20T18:40:14Z</time>
      </trkpt>
      <trkpt lat="36.542076" lon="-5.407928">
        <ele>484.12</ele>
        <time>2015-06-20T18:40:15Z</time>
      </trkpt>
      <trkpt lat="36.542139" lon="-5.407905">
        <ele>483.11</ele>
        <time>2015-06-20T18:40:16Z</time>
      </trkpt>
      <trkpt lat="36.542197" lon="-5.407890">
        <ele>482.41</ele>
        <time>2015-06-20T18:40:17Z</time>
      </trkpt>
      <trkpt lat="36.542260" lon="-5.407882">
        <ele>481.55</ele>
        <time>2015-06-20T18:40:18Z</time>
      </trkpt>
      <trkpt lat="36.542322" lon="-5.407881">
        <ele>480.87</ele>
        <time>2015-06-20T18:40:19Z</time>
      </trkpt>
      <trkpt lat="36.542382" lon="-5.407903">
        <ele>480.62</ele>
        <time>2015-06-20T18:40:20Z</time>
      </trkpt>
      <trkpt lat="36.542487" lon="-5.407967">
        <ele>480.93</ele>
        <time>2015-06-20T18:40:22Z</time>
      </trkpt>
      <trkpt lat="36.542604" lon="-5.408041">
        <ele>480.49</ele>
        <time>2015-06-20T18:40:24Z</time>
      </trkpt>
      <trkpt lat="36.542791" lon="-5.408185">
        <ele>480.64</ele>
        <time>2015-06-20T18:40:27Z</time>
      </trkpt>
      <trkpt lat="36.542929" lon="-5.408270">
        <ele>481.71</ele>
        <time>2015-06-20T18:40:29Z</time>
      </trkpt>
      <trkpt lat="36.543068" lon="-5.408324">
        <ele>481.78</ele>
        <time>2015-06-20T18:40:31Z</time>
      </trkpt>
      <trkpt lat="36.543138" lon="-5.408337">
        <ele>481.89</ele>
        <time>2015-06-20T18:40:32Z</time>
      </trkpt>
      <trkpt lat="36.543204" lon="-5.408348">
        <ele>482.02</ele>
        <time>2015-06-20T18:40:33Z</time>
      </trkpt>
      <trkpt lat="36.543268" lon="-5.408354">
        <ele>482.03</ele>
        <time>2015-06-20T18:40:34Z</time>
      </trkpt>
      <trkpt lat="36.543333" lon="-5.408340">
        <ele>481.21</ele>
        <time>2015-06-20T18:40:35Z</time>
      </trkpt>
      <trkpt lat="36.543441" lon="-5.408249">
        <ele>479.86</ele>
        <time>2015-06-20T18:40:37Z</time>
      </trkpt>
      <trkpt lat="36.543621" lon="-5.408072">
        <ele>477.27</ele>
        <time>2015-06-20T18:40:41Z</time>
      </trkpt>
      <trkpt lat="36.543679" lon="-5.408049">
        <ele>476.95</ele>
        <time>2015-06-20T18:40:42Z</time>
      </trkpt>
      <trkpt lat="36.543795" lon="-5.408069">
        <ele>477.23</ele>
        <time>2015-06-20T18:40:44Z</time>
      </trkpt>
      <trkpt lat="36.543855" lon="-5.408077">
        <ele>477.45</ele>
        <time>2015-06-20T18:40:45Z</time>
      </trkpt>
      <trkpt lat="36.543924" lon="-5.408087">
        <ele>477.84</ele>
        <time>2015-06-20T18:40:46Z</time>
      </trkpt>
      <trkpt lat="36.543996" lon="-5.408080">
        <ele>478.39</ele>
        <time>2015-06-20T18:40:47Z</time>
      </trkpt>
      <trkpt lat="36.544062" lon="-5.408042">
        <ele>478.02</ele>
        <time>2015-06-20T18:40:48Z</time>
      </trkpt>
      <trkpt lat="36.544117" lon="-5.407983">
        <ele>477.21</ele>
        <time>2015-06-20T18:40:49Z</time>
      </trkpt>
      <trkpt lat="36.544207" lon="-5.407850">
        <ele>474.95</ele>
        <time>2015-06-20T18:40:51Z</time>
      </trkpt>
      <trkpt lat="36.544259" lon="-5.407796">
        <ele>474.11</ele>
        <time>2015-06-20T18:40:52Z</time>
      </trkpt>
      <trkpt lat="36.544379" lon="-5.407704">
        <ele>473.51</ele>
        <time>2015-06-20T18:40:54Z</time>
      </trkpt>
      <trkpt lat="36.544434" lon="-5.407657">
        <ele>473.29</ele>
        <time>2015-06-20T18:40:55Z</time>
      </trkpt>
      <trkpt lat="36.544507" lon="-5.407631">
        <ele>473.96</ele>
        <time>2015-06-20T18:40:56Z</time>
      </trkpt>
      <trkpt lat="36.544580" lon="-5.407600">
        <ele>474.47</ele>
        <time>2015-06-20T18:40:57Z</time>
      </trkpt>
      <trkpt lat="36.544658" lon="-5.407571">
        <ele>474.98</ele>
        <time>2015-06-20T18:40:58Z</time>
      </trkpt>
      <trkpt lat="36.544807" lon="-5.407493">
        <ele>475.18</ele>
        <time>2015-06-20T18:41:00Z</time>
      </trkpt>
      <trkpt lat="36.544943" lon="-5.407383">
        <ele>475.39</ele>
        <time>2015-06-20T18:41:02Z</time>
      </trkpt>
      <trkpt lat="36.545006" lon="-5.407320">
        <ele>474.82</ele>
        <time>2015-06-20T18:41:03Z</time>
      </trkpt>
      <trkpt lat="36.545074" lon="-5.407265">
        <ele>474.14</ele>
        <time>2015-06-20T18:41:04Z</time>
      </trkpt>
      <trkpt lat="36.545151" lon="-5.407204">
        <ele>473.33</ele>
        <time>2015-06-20T18:41:05Z</time>
      </trkpt>
      <trkpt lat="36.545226" lon="-5.407149">
        <ele>472.97</ele>
        <time>2015-06-20T18:41:06Z</time>
      </trkpt>
      <trkpt lat="36.545306" lon="-5.407097">
        <ele>472.51</ele>
        <time>2015-06-20T18:41:07Z</time>
      </trkpt>
      <trkpt lat="36.545390" lon="-5.407043">
        <ele>472.51</ele>
        <time>2015-06-20T18:41:08Z</time>
      </trkpt>
      <trkpt lat="36.545461" lon="-5.406963">
        <ele>471.73</ele>
        <time>2015-06-20T18:41:09Z</time>
      </trkpt>
      <trkpt lat="36.545514" lon="-5.406891">
        <ele>471.03</ele>
        <time>2015-06-20T18:41:10Z</time>
      </trkpt>
      <trkpt lat="36.545551" lon="-5.406810">
        <ele>470.55</ele>
        <time>2015-06-20T18:41:11Z</time>
      </trkpt>
      <trkpt lat="36.545564" lon="-5.406719">
        <ele>469.95</ele>
        <time>2015-06-20T18:41:12Z</time>
      </trkpt>
      <trkpt lat="36.545565" lon="-5.406626">
        <ele>468.81</ele>
        <time>2015-06-20T18:41:13Z</time>
      </trkpt>
      <trkpt lat="36.545556" lon="-5.406537">
        <ele>467.28</ele>
        <time>2015-06-20T18:41:14Z</time>
      </trkpt>
      <trkpt lat="36.545552" lon="-5.406447">
        <ele>465.88</ele>
        <time>2015-06-20T18:41:15Z</time>
      </trkpt>
      <trkpt lat="36.545558" lon="-5.406358">
        <ele>464.95</ele>
        <time>2015-06-20T18:41:16Z</time>
      </trkpt>
      <trkpt lat="36.545583" lon="-5.406273">
        <ele>465.27</ele>
        <time>2015-06-20T18:41:17Z</time>
      </trkpt>
      <trkpt lat="36.545613" lon="-5.406183">
        <ele>465.54</ele>
        <time>2015-06-20T18:41:18Z</time>
      </trkpt>
      <trkpt lat="36.545639" lon="-5.406084">
        <ele>465.62</ele>
        <time>2015-06-20T18:41:19Z</time>
      </trkpt>
      <trkpt lat="36.545640" lon="-5.405998">
        <ele>465.21</ele>
        <time>2015-06-20T18:41:20Z</time>
      </trkpt>
      <trkpt lat="36.545627" lon="-5.405918">
        <ele>464.49</ele>
        <time>2015-06-20T18:41:21Z</time>
      </trkpt>
      <trkpt lat="36.545617" lon="-5.405832">
        <ele>463.87</ele>
        <time>2015-06-20T18:41:22Z</time>
      </trkpt>
      <trkpt lat="36.545611" lon="-5.405739">
        <ele>463.18</ele>
        <time>2015-06-20T18:41:23Z</time>
      </trkpt>
      <trkpt lat="36.545607" lon="-5.405635">
        <ele>462.38</ele>
        <time>2015-06-20T18:41:24Z</time>
      </trkpt>
      <trkpt lat="36.545602" lon="-5.405524">
        <ele>461.43</ele>
        <time>2015-06-20T18:41:25Z</time>
      </trkpt>
      <trkpt lat="36.545580" lon="-5.405411">
        <ele>459.43</ele>
        <time>2015-06-20T18:41:26Z</time>
      </trkpt>
      <trkpt lat="36.545429" lon="-5.405099">
        <ele>452.44</ele>
        <time>2015-06-20T18:41:29Z</time>
      </trkpt>
      <trkpt lat="36.545397" lon="-5.404993">
        <ele>450.88</ele>
        <time>2015-06-20T18:41:30Z</time>
      </trkpt>
      <trkpt lat="36.545383" lon="-5.404895">
        <ele>449.33</ele>
        <time>2015-06-20T18:41:31Z</time>
      </trkpt>
      <trkpt lat="36.545369" lon="-5.404795">
        <ele>447.76</ele>
        <time>2015-06-20T18:41:32Z</time>
      </trkpt>
      <trkpt lat="36.545376" lon="-5.404705">
        <ele>447.21</ele>
        <time>2015-06-20T18:41:33Z</time>
      </trkpt>
      <trkpt lat="36.545390" lon="-5.404622">
        <ele>447.31</ele>
        <time>2015-06-20T18:41:34Z</time>
      </trkpt>
      <trkpt lat="36.545413" lon="-5.404537">
        <ele>447.88</ele>
        <time>2015-06-20T18:41:35Z</time>
      </trkpt>
      <trkpt lat="36.545446" lon="-5.404459">
        <ele>448.74</ele>
        <time>2015-06-20T18:41:36Z</time>
      </trkpt>
      <trkpt lat="36.545491" lon="-5.404380">
        <ele>449.84</ele>
        <time>2015-06-20T18:41:37Z</time>
      </trkpt>
      <trkpt lat="36.545520" lon="-5.404331">
        <ele>450.43</ele>
        <time>2015-06-20T18:41:38Z</time>
      </trkpt>
      <trkpt lat="36.545530" lon="-5.404278">
        <ele>450.24</ele>
        <time>2015-06-20T18:41:39Z</time>
      </trkpt>
      <trkpt lat="36.545552" lon="-5.404231">
        <ele>450.63</ele>
        <time>2015-06-20T18:41:40Z</time>
      </trkpt>
      <trkpt lat="36.545566" lon="-5.404183">
        <ele>450.74</ele>
        <time>2015-06-20T18:41:41Z</time>
      </trkpt>
      <trkpt lat="36.545574" lon="-5.404127">
        <ele>451.37</ele>
        <time>2015-06-20T18:41:42Z</time>
      </trkpt>
      <trkpt lat="36.545578" lon="-5.404068">
        <ele>452.12</ele>
        <time>2015-06-20T18:41:43Z</time>
      </trkpt>
      <trkpt lat="36.545553" lon="-5.403969">
        <ele>452.04</ele>
        <time>2015-06-20T18:41:45Z</time>
      </trkpt>
      <trkpt lat="36.545485" lon="-5.403840">
        <ele>449.81</ele>
        <time>2015-06-20T18:41:48Z</time>
      </trkpt>
      <trkpt lat="36.545466" lon="-5.403790">
        <ele>449.11</ele>
        <time>2015-06-20T18:41:49Z</time>
      </trkpt>
      <trkpt lat="36.545448" lon="-5.403742">
        <ele>448.47</ele>
        <time>2015-06-20T18:41:50Z</time>
      </trkpt>
      <trkpt lat="36.545436" lon="-5.403684">
        <ele>448.20</ele>
        <time>2015-06-20T18:41:51Z</time>
      </trkpt>
      <trkpt lat="36.545354" lon="-5.403465">
        <ele>445.56</ele>
        <time>2015-06-20T18:41:55Z</time>
      </trkpt>
      <trkpt lat="36.545265" lon="-5.403097">
        <ele>444.83</ele>
        <time>2015-06-20T18:42:00Z</time>
      </trkpt>
      <trkpt lat="36.545259" lon="-5.403013">
        <ele>445.75</ele>
        <time>2015-06-20T18:42:01Z</time>
      </trkpt>
      <trkpt lat="36.545254" lon="-5.402931">
        <ele>446.75</ele>
        <time>2015-06-20T18:42:02Z</time>
      </trkpt>
      <trkpt lat="36.545252" lon="-5.402849">
        <ele>447.85</ele>
        <time>2015-06-20T18:42:03Z</time>
      </trkpt>
      <trkpt lat="36.545250" lon="-5.402772">
        <ele>448.71</ele>
        <time>2015-06-20T18:42:04Z</time>
      </trkpt>
      <trkpt lat="36.545252" lon="-5.402695">
        <ele>449.16</ele>
        <time>2015-06-20T18:42:05Z</time>
      </trkpt>
      <trkpt lat="36.545215" lon="-5.402269">
        <ele>447.65</ele>
        <time>2015-06-20T18:42:10Z</time>
      </trkpt>
      <trkpt lat="36.545190" lon="-5.402184">
        <ele>446.82</ele>
        <time>2015-06-20T18:42:11Z</time>
      </trkpt>
      <trkpt lat="36.545174" lon="-5.401897">
        <ele>448.21</ele>
        <time>2015-06-20T18:42:14Z</time>
      </trkpt>
      <trkpt lat="36.545163" lon="-5.401796">
        <ele>448.39</ele>
        <time>2015-06-20T18:42:15Z</time>
      </trkpt>
      <trkpt lat="36.545142" lon="-5.401695">
        <ele>448.02</ele>
        <time>2015-06-20T18:42:16Z</time>
      </trkpt>
      <trkpt lat="36.545114" lon="-5.401599">
        <ele>447.38</ele>
        <time>2015-06-20T18:42:17Z</time>
      </trkpt>
      <trkpt lat="36.545087" lon="-5.401507">
        <ele>446.54</ele>
        <time>2015-06-20T18:42:18Z</time>
      </trkpt>
      <trkpt lat="36.545056" lon="-5.401414">
        <ele>445.56</ele>
        <time>2015-06-20T18:42:19Z</time>
      </trkpt>
      <trkpt lat="36.545008" lon="-5.401225">
        <ele>444.63</ele>
        <time>2015-06-20T18:42:21Z</time>
      </trkpt>
      <trkpt lat="36.544981" lon="-5.401131">
        <ele>444.24</ele>
        <time>2015-06-20T18:42:22Z</time>
      </trkpt>
      <trkpt lat="36.544959" lon="-5.401041">
        <ele>444.28</ele>
        <time>2015-06-20T18:42:23Z</time>
      </trkpt>
      <trkpt lat="36.544936" lon="-5.400955">
        <ele>444.32</ele>
        <time>2015-06-20T18:42:24Z</time>
      </trkpt>
      <trkpt lat="36.544914" lon="-5.400862">
        <ele>444.34</ele>
        <time>2015-06-20T18:42:25Z</time>
      </trkpt>
      <trkpt lat="36.544819" lon="-5.400607">
        <ele>443.31</ele>
        <time>2015-06-20T18:42:28Z</time>
      </trkpt>
      <trkpt lat="36.544717" lon="-5.400473">
        <ele>441.31</ele>
        <time>2015-06-20T18:42:30Z</time>
      </trkpt>
      <trkpt lat="36.544662" lon="-5.400416">
        <ele>440.84</ele>
        <time>2015-06-20T18:42:31Z</time>
      </trkpt>
      <trkpt lat="36.544606" lon="-5.400369">
        <ele>439.93</ele>
        <time>2015-06-20T18:42:32Z</time>
      </trkpt>
      <trkpt lat="36.544551" lon="-5.400314">
        <ele>439.07</ele>
        <time>2015-06-20T18:42:33Z</time>
      </trkpt>
      <trkpt lat="36.544501" lon="-5.400258">
        <ele>438.06</ele>
        <time>2015-06-20T18:42:34Z</time>
      </trkpt>
      <trkpt lat="36.544462" lon="-5.400189">
        <ele>437.35</ele>
        <time>2015-06-20T18:42:35Z</time>
      </trkpt>
      <trkpt lat="36.544442" lon="-5.399937">
        <ele>438.11</ele>
        <time>2015-06-20T18:42:38Z</time>
      </trkpt>
      <trkpt lat="36.544449" lon="-5.399856">
        <ele>438.78</ele>
        <time>2015-06-20T18:42:39Z</time>
      </trkpt>
      <trkpt lat="36.544469" lon="-5.399692">
        <ele>440.11</ele>
        <time>2015-06-20T18:42:41Z</time>
      </trkpt>
      <trkpt lat="36.544515" lon="-5.399433">
        <ele>441.82</ele>
        <time>2015-06-20T18:42:44Z</time>
      </trkpt>
      <trkpt lat="36.544558" lon="-5.399159">
        <ele>443.13</ele>
        <time>2015-06-20T18:42:47Z</time>
      </trkpt>
      <trkpt lat="36.544574" lon="-5.398972">
        <ele>443.41</ele>
        <time>2015-06-20T18:42:49Z</time>
      </trkpt>
      <trkpt lat="36.544578" lon="-5.398689">
        <ele>444.11</ele>
        <time>2015-06-20T18:42:52Z</time>
      </trkpt>
      <trkpt lat="36.544539" lon="-5.398519">
        <ele>443.95</ele>
        <time>2015-06-20T18:42:54Z</time>
      </trkpt>
      <trkpt lat="36.544489" lon="-5.398374">
        <ele>443.26</ele>
        <time>2015-06-20T18:42:56Z</time>
      </trkpt>
      <trkpt lat="36.544457" lon="-5.398167">
        <ele>442.48</ele>
        <time>2015-06-20T18:42:59Z</time>
      </trkpt>
      <trkpt lat="36.544455" lon="-5.397961">
        <ele>440.72</ele>
        <time>2015-06-20T18:43:02Z</time>
      </trkpt>
      <trkpt lat="36.544483" lon="-5.397770">
        <ele>438.59</ele>
        <time>2015-06-20T18:43:05Z</time>
      </trkpt>
      <trkpt lat="36.544500" lon="-5.397706">
        <ele>437.81</ele>
        <time>2015-06-20T18:43:06Z</time>
      </trkpt>
      <trkpt lat="36.544611" lon="-5.397550">
        <ele>438.85</ele>
        <time>2015-06-20T18:43:09Z</time>
      </trkpt>
      <trkpt lat="36.544763" lon="-5.397435">
        <ele>441.98</ele>
        <time>2015-06-20T18:43:12Z</time>
      </trkpt>
      <trkpt lat="36.544816" lon="-5.397402">
        <ele>443.05</ele>
        <time>2015-06-20T18:43:13Z</time>
      </trkpt>
      <trkpt lat="36.544863" lon="-5.397359">
        <ele>443.86</ele>
        <time>2015-06-20T18:43:14Z</time>
      </trkpt>
      <trkpt lat="36.545035" lon="-5.397174">
        <ele>445.61</ele>
        <time>2015-06-20T18:43:18Z</time>
      </trkpt>
      <trkpt lat="36.545151" lon="-5.396961">
        <ele>442.91</ele>
        <time>2015-06-20T18:43:22Z</time>
      </trkpt>
      <trkpt lat="36.545177" lon="-5.396902">
        <ele>442.67</ele>
        <time>2015-06-20T18:43:23Z</time>
      </trkpt>
      <trkpt lat="36.545337" lon="-5.396597">
        <ele>443.39</ele>
        <time>2015-06-20T18:43:28Z</time>
      </trkpt>
      <trkpt lat="36.545382" lon="-5.396540">
        <ele>444.32</ele>
        <time>2015-06-20T18:43:29Z</time>
      </trkpt>
      <trkpt lat="36.545502" lon="-5.396324">
        <ele>446.26</ele>
        <time>2015-06-20T18:43:32Z</time>
      </trkpt>
      <trkpt lat="36.545524" lon="-5.396254">
        <ele>446.36</ele>
        <time>2015-06-20T18:43:33Z</time>
      </trkpt>
      <trkpt lat="36.545583" lon="-5.396064">
        <ele>445.75</ele>
        <time>2015-06-20T18:43:36Z</time>
      </trkpt>
      <trkpt lat="36.545620" lon="-5.395948">
        <ele>444.23</ele>
        <time>2015-06-20T18:43:38Z</time>
      </trkpt>
      <trkpt lat="36.545762" lon="-5.395753">
        <ele>443.28</ele>
        <time>2015-06-20T18:43:42Z</time>
      </trkpt>
      <trkpt lat="36.546029" lon="-5.395474">
        <ele>443.33</ele>
        <time>2015-06-20T18:43:47Z</time>
      </trkpt>
      <trkpt lat="36.546085" lon="-5.395408">
        <ele>442.86</ele>
        <time>2015-06-20T18:43:48Z</time>
      </trkpt>
      <trkpt lat="36.546131" lon="-5.395340">
        <ele>441.81</ele>
        <time>2015-06-20T18:43:49Z</time>
      </trkpt>
      <trkpt lat="36.546178" lon="-5.395273">
        <ele>441.01</ele>
        <time>2015-06-20T18:43:50Z</time>
      </trkpt>
      <trkpt lat="36.546274" lon="-5.395134">
        <ele>440.72</ele>
        <time>2015-06-20T18:43:52Z</time>
      </trkpt>
      <trkpt lat="36.546324" lon="-5.395054">
        <ele>440.31</ele>
        <time>2015-06-20T18:43:53Z</time>
      </trkpt>
      <trkpt lat="36.546355" lon="-5.394977">
        <ele>439.72</ele>
        <time>2015-06-20T18:43:54Z</time>
      </trkpt>
      <trkpt lat="36.546387" lon="-5.394904">
        <ele>440.22</ele>
        <time>2015-06-20T18:43:55Z</time>
      </trkpt>
      <trkpt lat="36.546410" lon="-5.394823">
        <ele>440.51</ele>
        <time>2015-06-20T18:43:56Z</time>
      </trkpt>
      <trkpt lat="36.546433" lon="-5.394748">
        <ele>440.93</ele>
        <time>2015-06-20T18:43:57Z</time>
      </trkpt>
      <trkpt lat="36.546460" lon="-5.394687">
        <ele>441.69</ele>
        <time>2015-06-20T18:43:58Z</time>
      </trkpt>
      <trkpt lat="36.546492" lon="-5.394541">
        <ele>441.82</ele>
        <time>2015-06-20T18:44:00Z</time>
      </trkpt>
      <trkpt lat="36.546499" lon="-5.394479">
        <ele>441.67</ele>
        <time>2015-06-20T18:44:01Z</time>
      </trkpt>
      <trkpt lat="36.546513" lon="-5.394423">
        <ele>441.58</ele>
        <time>2015-06-20T18:44:02Z</time>
      </trkpt>
      <trkpt lat="36.546532" lon="-5.394369">
        <ele>441.32</ele>
        <time>2015-06-20T18:44:03Z</time>
      </trkpt>
      <trkpt lat="36.546550" lon="-5.394313">
        <ele>441.01</ele>
        <time>2015-06-20T18:44:04Z</time>
      </trkpt>
      <trkpt lat="36.546561" lon="-5.394256">
        <ele>440.43</ele>
        <time>2015-06-20T18:44:05Z</time>
      </trkpt>
      <trkpt lat="36.546614" lon="-5.394157">
        <ele>440.66</ele>
        <time>2015-06-20T18:44:07Z</time>
      </trkpt>
      <trkpt lat="36.546649" lon="-5.394102">
        <ele>440.45</ele>
        <time>2015-06-20T18:44:08Z</time>
      </trkpt>
      <trkpt lat="36.546676" lon="-5.394044">
        <ele>439.75</ele>
        <time>2015-06-20T18:44:09Z</time>
      </trkpt>
      <trkpt lat="36.546702" lon="-5.393987">
        <ele>438.95</ele>
        <time>2015-06-20T18:44:10Z</time>
      </trkpt>
      <trkpt lat="36.546725" lon="-5.393932">
        <ele>438.17</ele>
        <time>2015-06-20T18:44:11Z</time>
      </trkpt>
      <trkpt lat="36.546754" lon="-5.393880">
        <ele>437.77</ele>
        <time>2015-06-20T18:44:12Z</time>
      </trkpt>
      <trkpt lat="36.546776" lon="-5.393823">
        <ele>437.44</ele>
        <time>2015-06-20T18:44:13Z</time>
      </trkpt>
      <trkpt lat="36.546798" lon="-5.393748">
        <ele>436.98</ele>
        <time>2015-06-20T18:44:14Z</time>
      </trkpt>
      <trkpt lat="36.546832" lon="-5.393679">
        <ele>437.26</ele>
        <time>2015-06-20T18:44:15Z</time>
      </trkpt>
      <trkpt lat="36.546868" lon="-5.393610">
        <ele>437.72</ele>
        <time>2015-06-20T18:44:16Z</time>
      </trkpt>
      <trkpt lat="36.546923" lon="-5.393541">
        <ele>439.11</ele>
        <time>2015-06-20T18:44:17Z</time>
      </trkpt>
      <trkpt lat="36.546968" lon="-5.393454">
        <ele>439.64</ele>
        <time>2015-06-20T18:44:18Z</time>
      </trkpt>
      <trkpt lat="36.547005" lon="-5.393355">
        <ele>439.74</ele>
        <time>2015-06-20T18:44:19Z</time>
      </trkpt>
      <trkpt lat="36.547013" lon="-5.393263">
        <ele>438.23</ele>
        <time>2015-06-20T18:44:20Z</time>
      </trkpt>
      <trkpt lat="36.547018" lon="-5.393175">
        <ele>436.53</ele>
        <time>2015-06-20T18:44:21Z</time>
      </trkpt>
      <trkpt lat="36.547042" lon="-5.393031">
        <ele>434.45</ele>
        <time>2015-06-20T18:44:23Z</time>
      </trkpt>
      <trkpt lat="36.547069" lon="-5.392971">
        <ele>434.47</ele>
        <time>2015-06-20T18:44:24Z</time>
      </trkpt>
      <trkpt lat="36.547098" lon="-5.392914">
        <ele>434.52</ele>
        <time>2015-06-20T18:44:25Z</time>
      </trkpt>
      <trkpt lat="36.547282" lon="-5.392610">
        <ele>434.18</ele>
        <time>2015-06-20T18:44:30Z</time>
      </trkpt>
      <trkpt lat="36.547323" lon="-5.392538">
        <ele>433.75</ele>
        <time>2015-06-20T18:44:31Z</time>
      </trkpt>
      <trkpt lat="36.547360" lon="-5.392469">
        <ele>433.30</ele>
        <time>2015-06-20T18:44:32Z</time>
      </trkpt>
      <trkpt lat="36.547398" lon="-5.392408">
        <ele>433.01</ele>
        <time>2015-06-20T18:44:33Z</time>
      </trkpt>
      <trkpt lat="36.547428" lon="-5.392341">
        <ele>432.21</ele>
        <time>2015-06-20T18:44:34Z</time>
      </trkpt>
      <trkpt lat="36.547452" lon="-5.392279">
        <ele>431.35</ele>
        <time>2015-06-20T18:44:35Z</time>
      </trkpt>
      <trkpt lat="36.547626" lon="-5.391985">
        <ele>430.63</ele>
        <time>2015-06-20T18:44:40Z</time>
      </trkpt>
      <trkpt lat="36.547734" lon="-5.391807">
        <ele>429.13</ele>
        <time>2015-06-20T18:44:43Z</time>
      </trkpt>
      <trkpt lat="36.547822" lon="-5.391695">
        <ele>428.61</ele>
        <time>2015-06-20T18:44:45Z</time>
      </trkpt>
      <trkpt lat="36.547867" lon="-5.391628">
        <ele>427.57</ele>
        <time>2015-06-20T18:44:46Z</time>
      </trkpt>
      <trkpt lat="36.547900" lon="-5.391568">
        <ele>426.13</ele>
        <time>2015-06-20T18:44:47Z</time>
      </trkpt>
      <trkpt lat="36.547941" lon="-5.391509">
        <ele>424.86</ele>
        <time>2015-06-20T18:44:48Z</time>
      </trkpt>
      <trkpt lat="36.547988" lon="-5.391456">
        <ele>424.05</ele>
        <time>2015-06-20T18:44:49Z</time>
      </trkpt>
      <trkpt lat="36.548039" lon="-5.391410">
        <ele>423.43</ele>
        <time>2015-06-20T18:44:50Z</time>
      </trkpt>
      <trkpt lat="36.548096" lon="-5.391367">
        <ele>423.06</ele>
        <time>2015-06-20T18:44:51Z</time>
      </trkpt>
      <trkpt lat="36.548217" lon="-5.391307">
        <ele>423.21</ele>
        <time>2015-06-20T18:44:53Z</time>
      </trkpt>
      <trkpt lat="36.548280" lon="-5.391276">
        <ele>423.41</ele>
        <time>2015-06-20T18:44:54Z</time>
      </trkpt>
      <trkpt lat="36.548342" lon="-5.391249">
        <ele>423.76</ele>
        <time>2015-06-20T18:44:55Z</time>
      </trkpt>
      <trkpt lat="36.548402" lon="-5.391237">
        <ele>424.71</ele>
        <time>2015-06-20T18:44:56Z</time>
      </trkpt>
      <trkpt lat="36.548456" lon="-5.391217">
        <ele>425.44</ele>
        <time>2015-06-20T18:44:57Z</time>
      </trkpt>
      <trkpt lat="36.548510" lon="-5.391201">
        <ele>426.28</ele>
        <time>2015-06-20T18:44:58Z</time>
      </trkpt>
      <trkpt lat="36.548621" lon="-5.391156">
        <ele>427.72</ele>
        <time>2015-06-20T18:45:00Z</time>
      </trkpt>
      <trkpt lat="36.548715" lon="-5.391079">
        <ele>428.11</ele>
        <time>2015-06-20T18:45:02Z</time>
      </trkpt>
      <trkpt lat="36.548799" lon="-5.390976">
        <ele>427.82</ele>
        <time>2015-06-20T18:45:04Z</time>
      </trkpt>
      <trkpt lat="36.548850" lon="-5.390924">
        <ele>428.14</ele>
        <time>2015-06-20T18:45:05Z</time>
      </trkpt>
      <trkpt lat="36.548900" lon="-5.390876">
        <ele>428.44</ele>
        <time>2015-06-20T18:45:06Z</time>
      </trkpt>
      <trkpt lat="36.548952" lon="-5.390812">
        <ele>428.58</ele>
        <time>2015-06-20T18:45:07Z</time>
      </trkpt>
      <trkpt lat="36.549005" lon="-5.390756">
        <ele>428.61</ele>
        <time>2015-06-20T18:45:08Z</time>
      </trkpt>
      <trkpt lat="36.549057" lon="-5.390699">
        <ele>428.51</ele>
        <time>2015-06-20T18:45:09Z</time>
      </trkpt>
      <trkpt lat="36.549240" lon="-5.390498">
        <ele>427.52</ele>
        <time>2015-06-20T18:45:13Z</time>
      </trkpt>
      <trkpt lat="36.549445" lon="-5.390318">
        <ele>428.95</ele>
        <time>2015-06-20T18:45:17Z</time>
      </trkpt>
      <trkpt lat="36.549489" lon="-5.390258">
        <ele>429.17</ele>
        <time>2015-06-20T18:45:18Z</time>
      </trkpt>
      <trkpt lat="36.549510" lon="-5.390198">
        <ele>429.75</ele>
        <time>2015-06-20T18:45:19Z</time>
      </trkpt>
      <trkpt lat="36.549516" lon="-5.390131">
        <ele>429.84</ele>
        <time>2015-06-20T18:45:20Z</time>
      </trkpt>
      <trkpt lat="36.549496" lon="-5.390078">
        <ele>429.39</ele>
        <time>2015-06-20T18:45:21Z</time>
      </trkpt>
      <trkpt lat="36.549468" lon="-5.390046">
        <ele>428.61</ele>
        <time>2015-06-20T18:45:22Z</time>
      </trkpt>
      <trkpt lat="36.549440" lon="-5.390015">
        <ele>427.94</ele>
        <time>2015-06-20T18:45:23Z</time>
      </trkpt>
      <trkpt lat="36.549411" lon="-5.389980">
        <ele>427.62</ele>
        <time>2015-06-20T18:45:24Z</time>
      </trkpt>
      <trkpt lat="36.549276" lon="-5.389897">
        <ele>426.30</ele>
        <time>2015-06-20T18:45:28Z</time>
      </trkpt>
      <trkpt lat="36.549238" lon="-5.389881">
        <ele>425.72</ele>
        <time>2015-06-20T18:45:29Z</time>
      </trkpt>
      <trkpt lat="36.549194" lon="-5.389871">
        <ele>424.91</ele>
        <time>2015-06-20T18:45:30Z</time>
      </trkpt>
      <trkpt lat="36.549112" lon="-5.389834">
        <ele>424.19</ele>
        <time>2015-06-20T18:45:32Z</time>
      </trkpt>
      <trkpt lat="36.549030" lon="-5.389804">
        <ele>423.22</ele>
        <time>2015-06-20T18:45:34Z</time>
      </trkpt>
      <trkpt lat="36.548943" lon="-5.389793">
        <ele>421.98</ele>
        <time>2015-06-20T18:45:36Z</time>
      </trkpt>
      <trkpt lat="36.548900" lon="-5.389785">
        <ele>421.32</ele>
        <time>2015-06-20T18:45:37Z</time>
      </trkpt>
      <trkpt lat="36.548856" lon="-5.389786">
        <ele>421.11</ele>
        <time>2015-06-20T18:45:38Z</time>
      </trkpt>
      <trkpt lat="36.548810" lon="-5.389783">
        <ele>421.17</ele>
        <time>2015-06-20T18:45:39Z</time>
      </trkpt>
      <trkpt lat="36.548770" lon="-5.389787">
        <ele>421.05</ele>
        <time>2015-06-20T18:45:40Z</time>
      </trkpt>
      <trkpt lat="36.548698" lon="-5.389784">
        <ele>421.07</ele>
        <time>2015-06-20T18:45:42Z</time>
      </trkpt>
      <trkpt lat="36.548586" lon="-5.389769">
        <ele>421.18</ele>
        <time>2015-06-20T18:45:46Z</time>
      </trkpt>
      <trkpt lat="36.548556" lon="-5.389777">
        <ele>420.81</ele>
        <time>2015-06-20T18:45:47Z</time>
      </trkpt>
      <trkpt lat="36.548521" lon="-5.389785">
        <ele>420.52</ele>
        <time>2015-06-20T18:45:48Z</time>
      </trkpt>
      <trkpt lat="36.548474" lon="-5.389788">
        <ele>420.21</ele>
        <time>2015-06-20T18:45:49Z</time>
      </trkpt>
      <trkpt lat="36.548419" lon="-5.389789">
        <ele>419.96</ele>
        <time>2015-06-20T18:45:50Z</time>
      </trkpt>
      <trkpt lat="36.548355" lon="-5.389781">
        <ele>419.86</ele>
        <time>2015-06-20T18:45:51Z</time>
      </trkpt>
      <trkpt lat="36.548136" lon="-5.389769">
        <ele>415.57</ele>
        <time>2015-06-20T18:45:54Z</time>
      </trkpt>
      <trkpt lat="36.548069" lon="-5.389766">
        <ele>414.04</ele>
        <time>2015-06-20T18:45:55Z</time>
      </trkpt>
      <trkpt lat="36.548013" lon="-5.389754">
        <ele>412.80</ele>
        <time>2015-06-20T18:45:56Z</time>
      </trkpt>
      <trkpt lat="36.547970" lon="-5.389709">
        <ele>412.00</ele>
        <time>2015-06-20T18:45:57Z</time>
      </trkpt>
      <trkpt lat="36.547946" lon="-5.389642">
        <ele>411.58</ele>
        <time>2015-06-20T18:45:58Z</time>
      </trkpt>
      <trkpt lat="36.547947" lon="-5.389557">
        <ele>411.94</ele>
        <time>2015-06-20T18:45:59Z</time>
      </trkpt>
      <trkpt lat="36.547968" lon="-5.389475">
        <ele>412.79</ele>
        <time>2015-06-20T18:46:00Z</time>
      </trkpt>
      <trkpt lat="36.547996" lon="-5.389389">
        <ele>413.27</ele>
        <time>2015-06-20T18:46:01Z</time>
      </trkpt>
      <trkpt lat="36.548025" lon="-5.389293">
        <ele>413.32</ele>
        <time>2015-06-20T18:46:02Z</time>
      </trkpt>
      <trkpt lat="36.548047" lon="-5.389191">
        <ele>413.01</ele>
        <time>2015-06-20T18:46:03Z</time>
      </trkpt>
      <trkpt lat="36.548072" lon="-5.389085">
        <ele>412.91</ele>
        <time>2015-06-20T18:46:04Z</time>
      </trkpt>
      <trkpt lat="36.548098" lon="-5.388981">
        <ele>412.98</ele>
        <time>2015-06-20T18:46:05Z</time>
      </trkpt>
      <trkpt lat="36.548129" lon="-5.388874">
        <ele>413.04</ele>
        <time>2015-06-20T18:46:06Z</time>
      </trkpt>
      <trkpt lat="36.548159" lon="-5.388768">
        <ele>413.18</ele>
        <time>2015-06-20T18:46:07Z</time>
      </trkpt>
      <trkpt lat="36.548187" lon="-5.388657">
        <ele>413.15</ele>
        <time>2015-06-20T18:46:08Z</time>
      </trkpt>
      <trkpt lat="36.548209" lon="-5.388527">
        <ele>413.33</ele>
        <time>2015-06-20T18:46:09Z</time>
      </trkpt>
      <trkpt lat="36.548225" lon="-5.388402">
        <ele>413.70</ele>
        <time>2015-06-20T18:46:10Z</time>
      </trkpt>
      <trkpt lat="36.548239" lon="-5.388280">
        <ele>414.10</ele>
        <time>2015-06-20T18:46:11Z</time>
      </trkpt>
      <trkpt lat="36.548256" lon="-5.388157">
        <ele>414.77</ele>
        <time>2015-06-20T18:46:12Z</time>
      </trkpt>
      <trkpt lat="36.548276" lon="-5.388037">
        <ele>415.34</ele>
        <time>2015-06-20T18:46:13Z</time>
      </trkpt>
      <trkpt lat="36.548301" lon="-5.387914">
        <ele>415.62</ele>
        <time>2015-06-20T18:46:14Z</time>
      </trkpt>
      <trkpt lat="36.548333" lon="-5.387785">
        <ele>416.01</ele>
        <time>2015-06-20T18:46:15Z</time>
      </trkpt>
      <trkpt lat="36.548361" lon="-5.387671">
        <ele>415.69</ele>
        <time>2015-06-20T18:46:16Z</time>
      </trkpt>
      <trkpt lat="36.548398" lon="-5.387550">
        <ele>415.09</ele>
        <time>2015-06-20T18:46:17Z</time>
      </trkpt>
      <trkpt lat="36.548440" lon="-5.387440">
        <ele>414.64</ele>
        <time>2015-06-20T18:46:18Z</time>
      </trkpt>
      <trkpt lat="36.548477" lon="-5.387334">
        <ele>414.08</ele>
        <time>2015-06-20T18:46:19Z</time>
      </trkpt>
      <trkpt lat="36.548517" lon="-5.387233">
        <ele>413.43</ele>
        <time>2015-06-20T18:46:20Z</time>
      </trkpt>
      <trkpt lat="36.548555" lon="-5.387128">
        <ele>412.03</ele>
        <time>2015-06-20T18:46:21Z</time>
      </trkpt>
      <trkpt lat="36.548598" lon="-5.387034">
        <ele>410.71</ele>
        <time>2015-06-20T18:46:22Z</time>
      </trkpt>
      <trkpt lat="36.548648" lon="-5.386929">
        <ele>409.68</ele>
        <time>2015-06-20T18:46:23Z</time>
      </trkpt>
      <trkpt lat="36.548694" lon="-5.386840">
        <ele>409.31</ele>
        <time>2015-06-20T18:46:24Z</time>
      </trkpt>
      <trkpt lat="36.548745" lon="-5.386756">
        <ele>409.25</ele>
        <time>2015-06-20T18:46:25Z</time>
      </trkpt>
      <trkpt lat="36.548795" lon="-5.386672">
        <ele>409.01</ele>
        <time>2015-06-20T18:46:26Z</time>
      </trkpt>
      <trkpt lat="36.548845" lon="-5.386586">
        <ele>408.91</ele>
        <time>2015-06-20T18:46:27Z</time>
      </trkpt>
      <trkpt lat="36.548903" lon="-5.386501">
        <ele>408.98</ele>
        <time>2015-06-20T18:46:28Z</time>
      </trkpt>
      <trkpt lat="36.549078" lon="-5.386251">
        <ele>409.36</ele>
        <time>2015-06-20T18:46:31Z</time>
      </trkpt>
      <trkpt lat="36.549126" lon="-5.386174">
        <ele>409.66</ele>
        <time>2015-06-20T18:46:32Z</time>
      </trkpt>
      <trkpt lat="36.549170" lon="-5.386089">
        <ele>410.05</ele>
        <time>2015-06-20T18:46:33Z</time>
      </trkpt>
      <trkpt lat="36.549184" lon="-5.385988">
        <ele>410.14</ele>
        <time>2015-06-20T18:46:34Z</time>
      </trkpt>
      <trkpt lat="36.549167" lon="-5.385885">
        <ele>409.23</ele>
        <time>2015-06-20T18:46:35Z</time>
      </trkpt>
      <trkpt lat="36.549125" lon="-5.385798">
        <ele>408.12</ele>
        <time>2015-06-20T18:46:36Z</time>
      </trkpt>
      <trkpt lat="36.549074" lon="-5.385727">
        <ele>407.08</ele>
        <time>2015-06-20T18:46:37Z</time>
      </trkpt>
      <trkpt lat="36.548965" lon="-5.385585">
        <ele>404.67</ele>
        <time>2015-06-20T18:46:39Z</time>
      </trkpt>
      <trkpt lat="36.548867" lon="-5.385431">
        <ele>402.58</ele>
        <time>2015-06-20T18:46:41Z</time>
      </trkpt>
      <trkpt lat="36.548813" lon="-5.385357">
        <ele>401.41</ele>
        <time>2015-06-20T18:46:42Z</time>
      </trkpt>
      <trkpt lat="36.548754" lon="-5.385280">
        <ele>400.11</ele>
        <time>2015-06-20T18:46:43Z</time>
      </trkpt>
      <trkpt lat="36.548702" lon="-5.385205">
        <ele>398.87</ele>
        <time>2015-06-20T18:46:44Z</time>
      </trkpt>
      <trkpt lat="36.548657" lon="-5.385101">
        <ele>397.58</ele>
        <time>2015-06-20T18:46:45Z</time>
      </trkpt>
      <trkpt lat="36.548623" lon="-5.385000">
        <ele>396.34</ele>
        <time>2015-06-20T18:46:46Z</time>
      </trkpt>
      <trkpt lat="36.548596" lon="-5.384890">
        <ele>395.57</ele>
        <time>2015-06-20T18:46:47Z</time>
      </trkpt>
      <trkpt lat="36.548573" lon="-5.384784">
        <ele>394.98</ele>
        <time>2015-06-20T18:46:48Z</time>
      </trkpt>
      <trkpt lat="36.548552" lon="-5.384661">
        <ele>394.64</ele>
        <time>2015-06-20T18:46:49Z</time>
      </trkpt>
      <trkpt lat="36.548534" lon="-5.384535">
        <ele>394.65</ele>
        <time>2015-06-20T18:46:50Z</time>
      </trkpt>
      <trkpt lat="36.548514" lon="-5.384411">
        <ele>394.68</ele>
        <time>2015-06-20T18:46:51Z</time>
      </trkpt>
      <trkpt lat="36.548489" lon="-5.384287">
        <ele>394.23</ele>
        <time>2015-06-20T18:46:52Z</time>
      </trkpt>
      <trkpt lat="36.548470" lon="-5.384165">
        <ele>393.92</ele>
        <time>2015-06-20T18:46:53Z</time>
      </trkpt>
      <trkpt lat="36.548447" lon="-5.384040">
        <ele>393.32</ele>
        <time>2015-06-20T18:46:54Z</time>
      </trkpt>
      <trkpt lat="36.548424" lon="-5.383923">
        <ele>392.71</ele>
        <time>2015-06-20T18:46:55Z</time>
      </trkpt>
      <trkpt lat="36.548400" lon="-5.383809">
        <ele>391.65</ele>
        <time>2015-06-20T18:46:56Z</time>
      </trkpt>
      <trkpt lat="36.548376" lon="-5.383703">
        <ele>390.42</ele>
        <time>2015-06-20T18:46:57Z</time>
      </trkpt>
      <trkpt lat="36.548357" lon="-5.383603">
        <ele>389.45</ele>
        <time>2015-06-20T18:46:58Z</time>
      </trkpt>
      <trkpt lat="36.548344" lon="-5.383525">
        <ele>388.92</ele>
        <time>2015-06-20T18:46:59Z</time>
      </trkpt>
      <trkpt lat="36.548342" lon="-5.383445">
        <ele>388.57</ele>
        <time>2015-06-20T18:47:00Z</time>
      </trkpt>
      <trkpt lat="36.548362" lon="-5.383372">
        <ele>388.68</ele>
        <time>2015-06-20T18:47:01Z</time>
      </trkpt>
      <trkpt lat="36.548391" lon="-5.383307">
        <ele>388.74</ele>
        <time>2015-06-20T18:47:02Z</time>
      </trkpt>
      <trkpt lat="36.548498" lon="-5.383193">
        <ele>389.63</ele>
        <time>2015-06-20T18:47:04Z</time>
      </trkpt>
      <trkpt lat="36.548554" lon="-5.383139">
        <ele>389.97</ele>
        <time>2015-06-20T18:47:05Z</time>
      </trkpt>
      <trkpt lat="36.548613" lon="-5.383071">
        <ele>390.24</ele>
        <time>2015-06-20T18:47:06Z</time>
      </trkpt>
      <trkpt lat="36.548662" lon="-5.382980">
        <ele>391.23</ele>
        <time>2015-06-20T18:47:07Z</time>
      </trkpt>
      <trkpt lat="36.548685" lon="-5.382871">
        <ele>391.61</ele>
        <time>2015-06-20T18:47:08Z</time>
      </trkpt>
      <trkpt lat="36.548682" lon="-5.382762">
        <ele>391.25</ele>
        <time>2015-06-20T18:47:09Z</time>
      </trkpt>
      <trkpt lat="36.548660" lon="-5.382652">
        <ele>389.83</ele>
        <time>2015-06-20T18:47:10Z</time>
      </trkpt>
      <trkpt lat="36.548624" lon="-5.382546">
        <ele>387.89</ele>
        <time>2015-06-20T18:47:11Z</time>
      </trkpt>
      <trkpt lat="36.548584" lon="-5.382453">
        <ele>386.36</ele>
        <time>2015-06-20T18:47:12Z</time>
      </trkpt>
      <trkpt lat="36.548556" lon="-5.382351">
        <ele>385.37</ele>
        <time>2015-06-20T18:47:13Z</time>
      </trkpt>
      <trkpt lat="36.548545" lon="-5.382248">
        <ele>384.80</ele>
        <time>2015-06-20T18:47:14Z</time>
      </trkpt>
      <trkpt lat="36.548547" lon="-5.382152">
        <ele>384.23</ele>
        <time>2015-06-20T18:47:15Z</time>
      </trkpt>
      <trkpt lat="36.548565" lon="-5.382056">
        <ele>384.27</ele>
        <time>2015-06-20T18:47:16Z</time>
      </trkpt>
      <trkpt lat="36.548584" lon="-5.381976">
        <ele>384.37</ele>
        <time>2015-06-20T18:47:17Z</time>
      </trkpt>
      <trkpt lat="36.548616" lon="-5.381908">
        <ele>384.93</ele>
        <time>2015-06-20T18:47:18Z</time>
      </trkpt>
      <trkpt lat="36.548692" lon="-5.381806">
        <ele>386.52</ele>
        <time>2015-06-20T18:47:20Z</time>
      </trkpt>
      <trkpt lat="36.548728" lon="-5.381765">
        <ele>387.11</ele>
        <time>2015-06-20T18:47:21Z</time>
      </trkpt>
      <trkpt lat="36.548808" lon="-5.381693">
        <ele>388.43</ele>
        <time>2015-06-20T18:47:23Z</time>
      </trkpt>
      <trkpt lat="36.548905" lon="-5.381630">
        <ele>389.85</ele>
        <time>2015-06-20T18:47:25Z</time>
      </trkpt>
      <trkpt lat="36.548950" lon="-5.381597">
        <ele>390.53</ele>
        <time>2015-06-20T18:47:26Z</time>
      </trkpt>
      <trkpt lat="36.549045" lon="-5.381535">
        <ele>391.69</ele>
        <time>2015-06-20T18:47:28Z</time>
      </trkpt>
      <trkpt lat="36.549141" lon="-5.381483">
        <ele>392.53</ele>
        <time>2015-06-20T18:47:30Z</time>
      </trkpt>
      <trkpt lat="36.549240" lon="-5.381402">
        <ele>392.56</ele>
        <time>2015-06-20T18:47:32Z</time>
      </trkpt>
      <trkpt lat="36.549316" lon="-5.381287">
        <ele>393.45</ele>
        <time>2015-06-20T18:47:34Z</time>
      </trkpt>
      <trkpt lat="36.549312" lon="-5.381060">
        <ele>391.67</ele>
        <time>2015-06-20T18:47:37Z</time>
      </trkpt>
      <trkpt lat="36.549289" lon="-5.380985">
        <ele>390.84</ele>
        <time>2015-06-20T18:47:38Z</time>
      </trkpt>
      <trkpt lat="36.549177" lon="-5.380639">
        <ele>388.77</ele>
        <time>2015-06-20T18:47:43Z</time>
      </trkpt>
      <trkpt lat="36.549112" lon="-5.380400">
        <ele>389.22</ele>
        <time>2015-06-20T18:47:47Z</time>
      </trkpt>
      <trkpt lat="36.549088" lon="-5.380277">
        <ele>389.71</ele>
        <time>2015-06-20T18:47:49Z</time>
      </trkpt>
      <trkpt lat="36.549033" lon="-5.380020">
        <ele>388.68</ele>
        <time>2015-06-20T18:47:53Z</time>
      </trkpt>
      <trkpt lat="36.548968" lon="-5.379914">
        <ele>386.42</ele>
        <time>2015-06-20T18:47:55Z</time>
      </trkpt>
      <trkpt lat="36.548843" lon="-5.379895">
        <ele>383.09</ele>
        <time>2015-06-20T18:47:57Z</time>
      </trkpt>
      <trkpt lat="36.548770" lon="-5.379921">
        <ele>381.14</ele>
        <time>2015-06-20T18:47:58Z</time>
      </trkpt>
      <trkpt lat="36.548698" lon="-5.379960">
        <ele>379.36</ele>
        <time>2015-06-20T18:47:59Z</time>
      </trkpt>
      <trkpt lat="36.548630" lon="-5.380005">
        <ele>377.66</ele>
        <time>2015-06-20T18:48:00Z</time>
      </trkpt>
      <trkpt lat="36.548574" lon="-5.380062">
        <ele>376.79</ele>
        <time>2015-06-20T18:48:01Z</time>
      </trkpt>
      <trkpt lat="36.548525" lon="-5.380124">
        <ele>376.23</ele>
        <time>2015-06-20T18:48:02Z</time>
      </trkpt>
      <trkpt lat="36.548485" lon="-5.380221">
        <ele>376.10</ele>
        <time>2015-06-20T18:48:03Z</time>
      </trkpt>
      <trkpt lat="36.548448" lon="-5.380317">
        <ele>375.62</ele>
        <time>2015-06-20T18:48:04Z</time>
      </trkpt>
      <trkpt lat="36.548412" lon="-5.380417">
        <ele>375.13</ele>
        <time>2015-06-20T18:48:05Z</time>
      </trkpt>
      <trkpt lat="36.548374" lon="-5.380520">
        <ele>374.61</ele>
        <time>2015-06-20T18:48:06Z</time>
      </trkpt>
      <trkpt lat="36.548324" lon="-5.380621">
        <ele>374.01</ele>
        <time>2015-06-20T18:48:07Z</time>
      </trkpt>
      <trkpt lat="36.548265" lon="-5.380722">
        <ele>372.95</ele>
        <time>2015-06-20T18:48:08Z</time>
      </trkpt>
      <trkpt lat="36.548197" lon="-5.380821">
        <ele>371.57</ele>
        <time>2015-06-20T18:48:09Z</time>
      </trkpt>
      <trkpt lat="36.548129" lon="-5.380911">
        <ele>370.59</ele>
        <time>2015-06-20T18:48:10Z</time>
      </trkpt>
      <trkpt lat="36.548038" lon="-5.381014">
        <ele>369.70</ele>
        <time>2015-06-20T18:48:11Z</time>
      </trkpt>
      <trkpt lat="36.547959" lon="-5.381115">
        <ele>368.99</ele>
        <time>2015-06-20T18:48:12Z</time>
      </trkpt>
      <trkpt lat="36.547881" lon="-5.381221">
        <ele>367.98</ele>
        <time>2015-06-20T18:48:13Z</time>
      </trkpt>
      <trkpt lat="36.547806" lon="-5.381322">
        <ele>367.20</ele>
        <time>2015-06-20T18:48:14Z</time>
      </trkpt>
      <trkpt lat="36.547737" lon="-5.381412">
        <ele>365.94</ele>
        <time>2015-06-20T18:48:15Z</time>
      </trkpt>
      <trkpt lat="36.547675" lon="-5.381501">
        <ele>364.32</ele>
        <time>2015-06-20T18:48:16Z</time>
      </trkpt>
      <trkpt lat="36.547627" lon="-5.381594">
        <ele>363.32</ele>
        <time>2015-06-20T18:48:17Z</time>
      </trkpt>
      <trkpt lat="36.547600" lon="-5.381698">
        <ele>362.71</ele>
        <time>2015-06-20T18:48:18Z</time>
      </trkpt>
      <trkpt lat="36.547587" lon="-5.381809">
        <ele>362.26</ele>
        <time>2015-06-20T18:48:19Z</time>
      </trkpt>
      <trkpt lat="36.547576" lon="-5.381922">
        <ele>361.76</ele>
        <time>2015-06-20T18:48:20Z</time>
      </trkpt>
      <trkpt lat="36.547552" lon="-5.382029">
        <ele>361.25</ele>
        <time>2015-06-20T18:48:21Z</time>
      </trkpt>
      <trkpt lat="36.547506" lon="-5.382122">
        <ele>360.17</ele>
        <time>2015-06-20T18:48:22Z</time>
      </trkpt>
      <trkpt lat="36.547435" lon="-5.382198">
        <ele>358.81</ele>
        <time>2015-06-20T18:48:23Z</time>
      </trkpt>
      <trkpt lat="36.547358" lon="-5.382257">
        <ele>357.89</ele>
        <time>2015-06-20T18:48:24Z</time>
      </trkpt>
      <trkpt lat="36.547298" lon="-5.382323">
        <ele>357.56</ele>
        <time>2015-06-20T18:48:25Z</time>
      </trkpt>
      <trkpt lat="36.547265" lon="-5.382405">
        <ele>357.78</ele>
        <time>2015-06-20T18:48:26Z</time>
      </trkpt>
      <trkpt lat="36.547251" lon="-5.382497">
        <ele>358.55</ele>
        <time>2015-06-20T18:48:27Z</time>
      </trkpt>
      <trkpt lat="36.547242" lon="-5.382593">
        <ele>359.75</ele>
        <time>2015-06-20T18:48:28Z</time>
      </trkpt>
      <trkpt lat="36.547229" lon="-5.382693">
        <ele>360.91</ele>
        <time>2015-06-20T18:48:29Z</time>
      </trkpt>
      <trkpt lat="36.547211" lon="-5.382795">
        <ele>361.91</ele>
        <time>2015-06-20T18:48:30Z</time>
      </trkpt>
      <trkpt lat="36.547190" lon="-5.382901">
        <ele>362.71</ele>
        <time>2015-06-20T18:48:31Z</time>
      </trkpt>
      <trkpt lat="36.547163" lon="-5.383012">
        <ele>363.18</ele>
        <time>2015-06-20T18:48:32Z</time>
      </trkpt>
      <trkpt lat="36.547133" lon="-5.383127">
        <ele>362.51</ele>
        <time>2015-06-20T18:48:33Z</time>
      </trkpt>
      <trkpt lat="36.547106" lon="-5.383241">
        <ele>361.75</ele>
        <time>2015-06-20T18:48:34Z</time>
      </trkpt>
      <trkpt lat="36.547079" lon="-5.383359">
        <ele>360.89</ele>
        <time>2015-06-20T18:48:35Z</time>
      </trkpt>
      <trkpt lat="36.547053" lon="-5.383483">
        <ele>360.04</ele>
        <time>2015-06-20T18:48:36Z</time>
      </trkpt>
      <trkpt lat="36.547031" lon="-5.383613">
        <ele>359.56</ele>
        <time>2015-06-20T18:48:37Z</time>
      </trkpt>
      <trkpt lat="36.547010" lon="-5.383745">
        <ele>359.98</ele>
        <time>2015-06-20T18:48:38Z</time>
      </trkpt>
      <trkpt lat="36.546986" lon="-5.383875">
        <ele>360.55</ele>
        <time>2015-06-20T18:48:39Z</time>
      </trkpt>
      <trkpt lat="36.546957" lon="-5.383999">
        <ele>359.80</ele>
        <time>2015-06-20T18:48:40Z</time>
      </trkpt>
      <trkpt lat="36.546919" lon="-5.384120">
        <ele>358.61</ele>
        <time>2015-06-20T18:48:41Z</time>
      </trkpt>
      <trkpt lat="36.546861" lon="-5.384231">
        <ele>357.31</ele>
        <time>2015-06-20T18:48:42Z</time>
      </trkpt>
      <trkpt lat="36.546789" lon="-5.384331">
        <ele>356.07</ele>
        <time>2015-06-20T18:48:43Z</time>
      </trkpt>
      <trkpt lat="36.546715" lon="-5.384429">
        <ele>354.85</ele>
        <time>2015-06-20T18:48:44Z</time>
      </trkpt>
      <trkpt lat="36.546643" lon="-5.384528">
        <ele>352.83</ele>
        <time>2015-06-20T18:48:45Z</time>
      </trkpt>
      <trkpt lat="36.546583" lon="-5.384619">
        <ele>350.78</ele>
        <time>2015-06-20T18:48:46Z</time>
      </trkpt>
      <trkpt lat="36.546546" lon="-5.384710">
        <ele>349.49</ele>
        <time>2015-06-20T18:48:47Z</time>
      </trkpt>
      <trkpt lat="36.546541" lon="-5.384810">
        <ele>349.03</ele>
        <time>2015-06-20T18:48:48Z</time>
      </trkpt>
      <trkpt lat="36.546558" lon="-5.384906">
        <ele>349.06</ele>
        <time>2015-06-20T18:48:49Z</time>
      </trkpt>
      <trkpt lat="36.546579" lon="-5.385002">
        <ele>349.18</ele>
        <time>2015-06-20T18:48:50Z</time>
      </trkpt>
      <trkpt lat="36.546596" lon="-5.385099">
        <ele>348.89</ele>
        <time>2015-06-20T18:48:51Z</time>
      </trkpt>
      <trkpt lat="36.546595" lon="-5.385203">
        <ele>348.06</ele>
        <time>2015-06-20T18:48:52Z</time>
      </trkpt>
      <trkpt lat="36.546576" lon="-5.385303">
        <ele>347.33</ele>
        <time>2015-06-20T18:48:53Z</time>
      </trkpt>
      <trkpt lat="36.546538" lon="-5.385399">
        <ele>347.01</ele>
        <time>2015-06-20T18:48:54Z</time>
      </trkpt>
      <trkpt lat="36.546487" lon="-5.385489">
        <ele>346.96</ele>
        <time>2015-06-20T18:48:55Z</time>
      </trkpt>
      <trkpt lat="36.546430" lon="-5.385575">
        <ele>346.96</ele>
        <time>2015-06-20T18:48:56Z</time>
      </trkpt>
      <trkpt lat="36.546372" lon="-5.385659">
        <ele>346.16</ele>
        <time>2015-06-20T18:48:57Z</time>
      </trkpt>
      <trkpt lat="36.546324" lon="-5.385747">
        <ele>345.03</ele>
        <time>2015-06-20T18:48:58Z</time>
      </trkpt>
      <trkpt lat="36.546289" lon="-5.385850">
        <ele>343.85</ele>
        <time>2015-06-20T18:48:59Z</time>
      </trkpt>
      <trkpt lat="36.546273" lon="-5.385964">
        <ele>342.55</ele>
        <time>2015-06-20T18:49:00Z</time>
      </trkpt>
      <trkpt lat="36.546274" lon="-5.386079">
        <ele>341.55</ele>
        <time>2015-06-20T18:49:01Z</time>
      </trkpt>
      <trkpt lat="36.546288" lon="-5.386196">
        <ele>341.09</ele>
        <time>2015-06-20T18:49:02Z</time>
      </trkpt>
      <trkpt lat="36.546297" lon="-5.386313">
        <ele>340.64</ele>
        <time>2015-06-20T18:49:03Z</time>
      </trkpt>
      <trkpt lat="36.546288" lon="-5.386433">
        <ele>340.55</ele>
        <time>2015-06-20T18:49:04Z</time>
      </trkpt>
      <trkpt lat="36.546274" lon="-5.386550">
        <ele>340.91</ele>
        <time>2015-06-20T18:49:05Z</time>
      </trkpt>
      <trkpt lat="36.546256" lon="-5.386668">
        <ele>341.11</ele>
        <time>2015-06-20T18:49:06Z</time>
      </trkpt>
      <trkpt lat="36.546234" lon="-5.386779">
        <ele>341.71</ele>
        <time>2015-06-20T18:49:07Z</time>
      </trkpt>
      <trkpt lat="36.546199" lon="-5.386875">
        <ele>341.74</ele>
        <time>2015-06-20T18:49:08Z</time>
      </trkpt>
      <trkpt lat="36.546147" lon="-5.386960">
        <ele>341.17</ele>
        <time>2015-06-20T18:49:09Z</time>
      </trkpt>
      <trkpt lat="36.546085" lon="-5.387032">
        <ele>340.63</ele>
        <time>2015-06-20T18:49:10Z</time>
      </trkpt>
      <trkpt lat="36.546019" lon="-5.387092">
        <ele>340.39</ele>
        <time>2015-06-20T18:49:11Z</time>
      </trkpt>
      <trkpt lat="36.545952" lon="-5.387137">
        <ele>339.89</ele>
        <time>2015-06-20T18:49:12Z</time>
      </trkpt>
      <trkpt lat="36.545882" lon="-5.387159">
        <ele>339.09</ele>
        <time>2015-06-20T18:49:13Z</time>
      </trkpt>
      <trkpt lat="36.545803" lon="-5.387163">
        <ele>338.04</ele>
        <time>2015-06-20T18:49:14Z</time>
      </trkpt>
      <trkpt lat="36.545717" lon="-5.387158">
        <ele>337.01</ele>
        <time>2015-06-20T18:49:15Z</time>
      </trkpt>
      <trkpt lat="36.545627" lon="-5.387147">
        <ele>336.03</ele>
        <time>2015-06-20T18:49:16Z</time>
      </trkpt>
      <trkpt lat="36.545535" lon="-5.387126">
        <ele>334.90</ele>
        <time>2015-06-20T18:49:17Z</time>
      </trkpt>
      <trkpt lat="36.545443" lon="-5.387101">
        <ele>334.11</ele>
        <time>2015-06-20T18:49:18Z</time>
      </trkpt>
      <trkpt lat="36.545351" lon="-5.387074">
        <ele>333.32</ele>
        <time>2015-06-20T18:49:19Z</time>
      </trkpt>
      <trkpt lat="36.545261" lon="-5.387043">
        <ele>332.27</ele>
        <time>2015-06-20T18:49:20Z</time>
      </trkpt>
      <trkpt lat="36.545180" lon="-5.387011">
        <ele>330.78</ele>
        <time>2015-06-20T18:49:21Z</time>
      </trkpt>
      <trkpt lat="36.545110" lon="-5.386983">
        <ele>329.36</ele>
        <time>2015-06-20T18:49:22Z</time>
      </trkpt>
      <trkpt lat="36.545048" lon="-5.386962">
        <ele>328.05</ele>
        <time>2015-06-20T18:49:23Z</time>
      </trkpt>
      <trkpt lat="36.544985" lon="-5.386942">
        <ele>326.98</ele>
        <time>2015-06-20T18:49:24Z</time>
      </trkpt>
      <trkpt lat="36.544915" lon="-5.386918">
        <ele>325.93</ele>
        <time>2015-06-20T18:49:25Z</time>
      </trkpt>
      <trkpt lat="36.544842" lon="-5.386893">
        <ele>324.96</ele>
        <time>2015-06-20T18:49:26Z</time>
      </trkpt>
      <trkpt lat="36.544764" lon="-5.386864">
        <ele>323.67</ele>
        <time>2015-06-20T18:49:27Z</time>
      </trkpt>
      <trkpt lat="36.544684" lon="-5.386830">
        <ele>322.34</ele>
        <time>2015-06-20T18:49:28Z</time>
      </trkpt>
      <trkpt lat="36.544606" lon="-5.386798">
        <ele>321.03</ele>
        <time>2015-06-20T18:49:29Z</time>
      </trkpt>
      <trkpt lat="36.544517" lon="-5.386765">
        <ele>319.61</ele>
        <time>2015-06-20T18:49:30Z</time>
      </trkpt>
      <trkpt lat="36.544429" lon="-5.386730">
        <ele>318.18</ele>
        <time>2015-06-20T18:49:31Z</time>
      </trkpt>
      <trkpt lat="36.544343" lon="-5.386692">
        <ele>316.04</ele>
        <time>2015-06-20T18:49:32Z</time>
      </trkpt>
      <trkpt lat="36.544262" lon="-5.386641">
        <ele>314.18</ele>
        <time>2015-06-20T18:49:33Z</time>
      </trkpt>
      <trkpt lat="36.544185" lon="-5.386571">
        <ele>312.22</ele>
        <time>2015-06-20T18:49:34Z</time>
      </trkpt>
      <trkpt lat="36.544116" lon="-5.386489">
        <ele>310.52</ele>
        <time>2015-06-20T18:49:35Z</time>
      </trkpt>
      <trkpt lat="36.544051" lon="-5.386395">
        <ele>308.84</ele>
        <time>2015-06-20T18:49:36Z</time>
      </trkpt>
      <trkpt lat="36.543992" lon="-5.386294">
        <ele>307.71</ele>
        <time>2015-06-20T18:49:37Z</time>
      </trkpt>
      <trkpt lat="36.543941" lon="-5.386193">
        <ele>306.48</ele>
        <time>2015-06-20T18:49:38Z</time>
      </trkpt>
      <trkpt lat="36.543898" lon="-5.386110">
        <ele>305.27</ele>
        <time>2015-06-20T18:49:39Z</time>
      </trkpt>
      <trkpt lat="36.543853" lon="-5.386049">
        <ele>304.88</ele>
        <time>2015-06-20T18:49:40Z</time>
      </trkpt>
      <trkpt lat="36.543804" lon="-5.386016">
        <ele>304.21</ele>
        <time>2015-06-20T18:49:41Z</time>
      </trkpt>
      <trkpt lat="36.543751" lon="-5.386016">
        <ele>303.51</ele>
        <time>2015-06-20T18:49:42Z</time>
      </trkpt>
      <trkpt lat="36.543708" lon="-5.386050">
        <ele>303.03</ele>
        <time>2015-06-20T18:49:43Z</time>
      </trkpt>
      <trkpt lat="36.543685" lon="-5.386111">
        <ele>302.81</ele>
        <time>2015-06-20T18:49:44Z</time>
      </trkpt>
      <trkpt lat="36.543680" lon="-5.386185">
        <ele>303.14</ele>
        <time>2015-06-20T18:49:45Z</time>
      </trkpt>
      <trkpt lat="36.543682" lon="-5.386260">
        <ele>303.49</ele>
        <time>2015-06-20T18:49:46Z</time>
      </trkpt>
      <trkpt lat="36.543681" lon="-5.386340">
        <ele>303.89</ele>
        <time>2015-06-20T18:49:47Z</time>
      </trkpt>
      <trkpt lat="36.543668" lon="-5.386420">
        <ele>304.28</ele>
        <time>2015-06-20T18:49:48Z</time>
      </trkpt>
      <trkpt lat="36.543637" lon="-5.386494">
        <ele>304.59</ele>
        <time>2015-06-20T18:49:49Z</time>
      </trkpt>
      <trkpt lat="36.543582" lon="-5.386561">
        <ele>304.35</ele>
        <time>2015-06-20T18:49:50Z</time>
      </trkpt>
      <trkpt lat="36.543512" lon="-5.386624">
        <ele>303.52</ele>
        <time>2015-06-20T18:49:51Z</time>
      </trkpt>
      <trkpt lat="36.543455" lon="-5.386694">
        <ele>303.03</ele>
        <time>2015-06-20T18:49:52Z</time>
      </trkpt>
      <trkpt lat="36.543419" lon="-5.386778">
        <ele>303.21</ele>
        <time>2015-06-20T18:49:53Z</time>
      </trkpt>
      <trkpt lat="36.543395" lon="-5.386865">
        <ele>303.61</ele>
        <time>2015-06-20T18:49:54Z</time>
      </trkpt>
      <trkpt lat="36.543365" lon="-5.386934">
        <ele>303.76</ele>
        <time>2015-06-20T18:49:55Z</time>
      </trkpt>
      <trkpt lat="36.543322" lon="-5.386979">
        <ele>303.43</ele>
        <time>2015-06-20T18:49:56Z</time>
      </trkpt>
      <trkpt lat="36.543269" lon="-5.386989">
        <ele>302.36</ele>
        <time>2015-06-20T18:49:57Z</time>
      </trkpt>
      <trkpt lat="36.543224" lon="-5.386958">
        <ele>300.86</ele>
        <time>2015-06-20T18:49:58Z</time>
      </trkpt>
      <trkpt lat="36.543198" lon="-5.386903">
        <ele>299.72</ele>
        <time>2015-06-20T18:49:59Z</time>
      </trkpt>
      <trkpt lat="36.543183" lon="-5.386832">
        <ele>298.88</ele>
        <time>2015-06-20T18:50:00Z</time>
      </trkpt>
      <trkpt lat="36.543174" lon="-5.386755">
        <ele>297.96</ele>
        <time>2015-06-20T18:50:01Z</time>
      </trkpt>
      <trkpt lat="36.543168" lon="-5.386672">
        <ele>297.13</ele>
        <time>2015-06-20T18:50:02Z</time>
      </trkpt>
      <trkpt lat="36.543160" lon="-5.386590">
        <ele>296.76</ele>
        <time>2015-06-20T18:50:03Z</time>
      </trkpt>
      <trkpt lat="36.543144" lon="-5.386332">
        <ele>295.70</ele>
        <time>2015-06-20T18:50:06Z</time>
      </trkpt>
      <trkpt lat="36.543141" lon="-5.386247">
        <ele>295.22</ele>
        <time>2015-06-20T18:50:07Z</time>
      </trkpt>
      <trkpt lat="36.543139" lon="-5.386185">
        <ele>294.91</ele>
        <time>2015-06-20T18:50:08Z</time>
      </trkpt>
      <trkpt lat="36.543129" lon="-5.386124">
        <ele>294.43</ele>
        <time>2015-06-20T18:50:09Z</time>
      </trkpt>
      <trkpt lat="36.543096" lon="-5.386078">
        <ele>293.29</ele>
        <time>2015-06-20T18:50:10Z</time>
      </trkpt>
      <trkpt lat="36.543038" lon="-5.386058">
        <ele>291.94</ele>
        <time>2015-06-20T18:50:11Z</time>
      </trkpt>
      <trkpt lat="36.542973" lon="-5.386066">
        <ele>291.46</ele>
        <time>2015-06-20T18:50:12Z</time>
      </trkpt>
      <trkpt lat="36.542909" lon="-5.386097">
        <ele>291.63</ele>
        <time>2015-06-20T18:50:13Z</time>
      </trkpt>
      <trkpt lat="36.542842" lon="-5.386141">
        <ele>291.65</ele>
        <time>2015-06-20T18:50:14Z</time>
      </trkpt>
      <trkpt lat="36.542771" lon="-5.386187">
        <ele>291.12</ele>
        <time>2015-06-20T18:50:15Z</time>
      </trkpt>
      <trkpt lat="36.542692" lon="-5.386240">
        <ele>289.83</ele>
        <time>2015-06-20T18:50:16Z</time>
      </trkpt>
      <trkpt lat="36.542620" lon="-5.386302">
        <ele>288.80</ele>
        <time>2015-06-20T18:50:17Z</time>
      </trkpt>
      <trkpt lat="36.542563" lon="-5.386371">
        <ele>288.01</ele>
        <time>2015-06-20T18:50:18Z</time>
      </trkpt>
      <trkpt lat="36.542524" lon="-5.386452">
        <ele>287.03</ele>
        <time>2015-06-20T18:50:19Z</time>
      </trkpt>
      <trkpt lat="36.542509" lon="-5.386537">
        <ele>286.11</ele>
        <time>2015-06-20T18:50:20Z</time>
      </trkpt>
      <trkpt lat="36.542508" lon="-5.386625">
        <ele>285.56</ele>
        <time>2015-06-20T18:50:21Z</time>
      </trkpt>
      <trkpt lat="36.542516" lon="-5.386718">
        <ele>285.44</ele>
        <time>2015-06-20T18:50:22Z</time>
      </trkpt>
      <trkpt lat="36.542535" lon="-5.386806">
        <ele>285.96</ele>
        <time>2015-06-20T18:50:23Z</time>
      </trkpt>
      <trkpt lat="36.542547" lon="-5.386886">
        <ele>286.35</ele>
        <time>2015-06-20T18:50:24Z</time>
      </trkpt>
      <trkpt lat="36.542542" lon="-5.386956">
        <ele>286.29</ele>
        <time>2015-06-20T18:50:25Z</time>
      </trkpt>
      <trkpt lat="36.542527" lon="-5.387021">
        <ele>286.09</ele>
        <time>2015-06-20T18:50:26Z</time>
      </trkpt>
      <trkpt lat="36.542503" lon="-5.387081">
        <ele>285.62</ele>
        <time>2015-06-20T18:50:27Z</time>
      </trkpt>
      <trkpt lat="36.542470" lon="-5.387142">
        <ele>284.90</ele>
        <time>2015-06-20T18:50:28Z</time>
      </trkpt>
      <trkpt lat="36.542431" lon="-5.387205">
        <ele>284.03</ele>
        <time>2015-06-20T18:50:29Z</time>
      </trkpt>
      <trkpt lat="36.542347" lon="-5.387306">
        <ele>281.75</ele>
        <time>2015-06-20T18:50:31Z</time>
      </trkpt>
      <trkpt lat="36.542293" lon="-5.387336">
        <ele>280.11</ele>
        <time>2015-06-20T18:50:32Z</time>
      </trkpt>
      <trkpt lat="36.542238" lon="-5.387344">
        <ele>278.51</ele>
        <time>2015-06-20T18:50:33Z</time>
      </trkpt>
      <trkpt lat="36.542185" lon="-5.387330">
        <ele>277.23</ele>
        <time>2015-06-20T18:50:34Z</time>
      </trkpt>
      <trkpt lat="36.542141" lon="-5.387284">
        <ele>276.25</ele>
        <time>2015-06-20T18:50:35Z</time>
      </trkpt>
      <trkpt lat="36.542104" lon="-5.387220">
        <ele>275.44</ele>
        <time>2015-06-20T18:50:36Z</time>
      </trkpt>
      <trkpt lat="36.542067" lon="-5.387146">
        <ele>274.49</ele>
        <time>2015-06-20T18:50:37Z</time>
      </trkpt>
      <trkpt lat="36.542038" lon="-5.387080">
        <ele>273.58</ele>
        <time>2015-06-20T18:50:38Z</time>
      </trkpt>
      <trkpt lat="36.542015" lon="-5.387014">
        <ele>272.86</ele>
        <time>2015-06-20T18:50:39Z</time>
      </trkpt>
      <trkpt lat="36.541995" lon="-5.386941">
        <ele>272.14</ele>
        <time>2015-06-20T18:50:40Z</time>
      </trkpt>
      <trkpt lat="36.542015" lon="-5.386858">
        <ele>272.07</ele>
        <time>2015-06-20T18:50:41Z</time>
      </trkpt>
      <trkpt lat="36.542085" lon="-5.386604">
        <ele>272.74</ele>
        <time>2015-06-20T18:50:44Z</time>
      </trkpt>
      <trkpt lat="36.542124" lon="-5.386347">
        <ele>274.36</ele>
        <time>2015-06-20T18:50:47Z</time>
      </trkpt>
      <trkpt lat="36.542132" lon="-5.386277">
        <ele>274.31</ele>
        <time>2015-06-20T18:50:48Z</time>
      </trkpt>
      <trkpt lat="36.542132" lon="-5.386214">
        <ele>274.11</ele>
        <time>2015-06-20T18:50:49Z</time>
      </trkpt>
      <trkpt lat="36.542122" lon="-5.386156">
        <ele>273.63</ele>
        <time>2015-06-20T18:50:50Z</time>
      </trkpt>
      <trkpt lat="36.542087" lon="-5.386115">
        <ele>272.14</ele>
        <time>2015-06-20T18:50:51Z</time>
      </trkpt>
      <trkpt lat="36.542042" lon="-5.386111">
        <ele>270.53</ele>
        <time>2015-06-20T18:50:52Z</time>
      </trkpt>
      <trkpt lat="36.542006" lon="-5.386138">
        <ele>269.32</ele>
        <time>2015-06-20T18:50:53Z</time>
      </trkpt>
      <trkpt lat="36.541981" lon="-5.386182">
        <ele>268.62</ele>
        <time>2015-06-20T18:50:54Z</time>
      </trkpt>
      <trkpt lat="36.541963" lon="-5.386238">
        <ele>268.13</ele>
        <time>2015-06-20T18:50:55Z</time>
      </trkpt>
      <trkpt lat="36.541948" lon="-5.386300">
        <ele>267.85</ele>
        <time>2015-06-20T18:50:56Z</time>
      </trkpt>
      <trkpt lat="36.541928" lon="-5.386364">
        <ele>267.53</ele>
        <time>2015-06-20T18:50:57Z</time>
      </trkpt>
      <trkpt lat="36.541901" lon="-5.386428">
        <ele>267.15</ele>
        <time>2015-06-20T18:50:58Z</time>
      </trkpt>
      <trkpt lat="36.541874" lon="-5.386483">
        <ele>266.65</ele>
        <time>2015-06-20T18:50:59Z</time>
      </trkpt>
      <trkpt lat="36.541853" lon="-5.386533">
        <ele>266.41</ele>
        <time>2015-06-20T18:51:00Z</time>
      </trkpt>
      <trkpt lat="36.541818" lon="-5.386623">
        <ele>266.01</ele>
        <time>2015-06-20T18:51:02Z</time>
      </trkpt>
      <trkpt lat="36.541800" lon="-5.386667">
        <ele>265.92</ele>
        <time>2015-06-20T18:51:03Z</time>
      </trkpt>
      <trkpt lat="36.541780" lon="-5.386714">
        <ele>265.89</ele>
        <time>2015-06-20T18:51:04Z</time>
      </trkpt>
      <trkpt lat="36.541756" lon="-5.386763">
        <ele>265.65</ele>
        <time>2015-06-20T18:51:05Z</time>
      </trkpt>
      <trkpt lat="36.541552" lon="-5.387154">
        <ele>263.86</ele>
        <time>2015-06-20T18:51:06Z</time>
      </trkpt>
      <trkpt lat="36.541201" lon="-5.387482">
        <ele>254.54</ele>
        <time>2015-06-20T18:51:26Z</time>
      </trkpt>
      <trkpt lat="36.541228" lon="-5.387542">
        <ele>254.43</ele>
        <time>2015-06-20T18:51:27Z</time>
      </trkpt>
      <trkpt lat="36.541240" lon="-5.387588">
        <ele>254.28</ele>
        <time>2015-06-20T18:51:28Z</time>
      </trkpt>
      <trkpt lat="36.541210" lon="-5.387642">
        <ele>253.35</ele>
        <time>2015-06-20T18:51:30Z</time>
      </trkpt>
      <trkpt lat="36.541174" lon="-5.387658">
        <ele>252.53</ele>
        <time>2015-06-20T18:51:31Z</time>
      </trkpt>
      <trkpt lat="36.541131" lon="-5.387677">
        <ele>251.56</ele>
        <time>2015-06-20T18:51:32Z</time>
      </trkpt>
      <trkpt lat="36.541090" lon="-5.387698">
        <ele>250.71</ele>
        <time>2015-06-20T18:51:33Z</time>
      </trkpt>
      <trkpt lat="36.541055" lon="-5.387725">
        <ele>250.11</ele>
        <time>2015-06-20T18:51:34Z</time>
      </trkpt>
      <trkpt lat="36.541018" lon="-5.387756">
        <ele>249.59</ele>
        <time>2015-06-20T18:51:35Z</time>
      </trkpt>
      <trkpt lat="36.540979" lon="-5.387791">
        <ele>249.03</ele>
        <time>2015-06-20T18:51:36Z</time>
      </trkpt>
      <trkpt lat="36.540938" lon="-5.387830">
        <ele>248.63</ele>
        <time>2015-06-20T18:51:37Z</time>
      </trkpt>
      <trkpt lat="36.540896" lon="-5.387870">
        <ele>248.26</ele>
        <time>2015-06-20T18:51:38Z</time>
      </trkpt>
      <trkpt lat="36.540847" lon="-5.387916">
        <ele>247.65</ele>
        <time>2015-06-20T18:51:39Z</time>
      </trkpt>
      <trkpt lat="36.540803" lon="-5.387963">
        <ele>247.24</ele>
        <time>2015-06-20T18:51:40Z</time>
      </trkpt>
      <trkpt lat="36.540760" lon="-5.388015">
        <ele>246.75</ele>
        <time>2015-06-20T18:51:41Z</time>
      </trkpt>
      <trkpt lat="36.540714" lon="-5.388062">
        <ele>246.18</ele>
        <time>2015-06-20T18:51:42Z</time>
      </trkpt>
      <trkpt lat="36.540668" lon="-5.388096">
        <ele>245.75</ele>
        <time>2015-06-20T18:51:43Z</time>
      </trkpt>
      <trkpt lat="36.540624" lon="-5.388126">
        <ele>245.30</ele>
        <time>2015-06-20T18:51:44Z</time>
      </trkpt>
      <trkpt lat="36.540585" lon="-5.388152">
        <ele>244.91</ele>
        <time>2015-06-20T18:51:45Z</time>
      </trkpt>
      <trkpt lat="36.540548" lon="-5.388178">
        <ele>244.51</ele>
        <time>2015-06-20T18:51:46Z</time>
      </trkpt>
      <trkpt lat="36.540510" lon="-5.388199">
        <ele>244.36</ele>
        <time>2015-06-20T18:51:47Z</time>
      </trkpt>
      <trkpt lat="36.540471" lon="-5.388216">
        <ele>244.17</ele>
        <time>2015-06-20T18:51:48Z</time>
      </trkpt>
      <trkpt lat="36.540430" lon="-5.388234">
        <ele>243.93</ele>
        <time>2015-06-20T18:51:49Z</time>
      </trkpt>
      <trkpt lat="36.540348" lon="-5.388269">
        <ele>243.59</ele>
        <time>2015-06-20T18:51:51Z</time>
      </trkpt>
      <trkpt lat="36.540305" lon="-5.388282">
        <ele>243.34</ele>
        <time>2015-06-20T18:51:52Z</time>
      </trkpt>
      <trkpt lat="36.540187" lon="-5.388335">
        <ele>243.03</ele>
        <time>2015-06-20T18:52:30Z</time>
      </trkpt>
      <trkpt lat="36.540201" lon="-5.388359">
        <ele>242.95</ele>
        <time>2015-06-20T18:52:31Z</time>
      </trkpt>
      <trkpt lat="36.540200" lon="-5.388560">
        <ele>242.09</ele>
        <time>2015-06-20T18:52:35Z</time>
      </trkpt>
      <trkpt lat="36.540146" lon="-5.388662">
        <ele>241.12</ele>
        <time>2015-06-20T18:52:37Z</time>
      </trkpt>
      <trkpt lat="36.540101" lon="-5.388700">
        <ele>240.57</ele>
        <time>2015-06-20T18:52:38Z</time>
      </trkpt>
      <trkpt lat="36.540051" lon="-5.388728">
        <ele>240.01</ele>
        <time>2015-06-20T18:52:39Z</time>
      </trkpt>
      <trkpt lat="36.539997" lon="-5.388751">
        <ele>239.51</ele>
        <time>2015-06-20T18:52:40Z</time>
      </trkpt>
      <trkpt lat="36.539940" lon="-5.388773">
        <ele>238.91</ele>
        <time>2015-06-20T18:52:41Z</time>
      </trkpt>
      <trkpt lat="36.539880" lon="-5.388799">
        <ele>238.15</ele>
        <time>2015-06-20T18:52:42Z</time>
      </trkpt>
      <trkpt lat="36.539817" lon="-5.388828">
        <ele>237.16</ele>
        <time>2015-06-20T18:52:43Z</time>
      </trkpt>
      <trkpt lat="36.539751" lon="-5.388858">
        <ele>235.96</ele>
        <time>2015-06-20T18:52:44Z</time>
      </trkpt>
      <trkpt lat="36.539683" lon="-5.388890">
        <ele>235.08</ele>
        <time>2015-06-20T18:52:45Z</time>
      </trkpt>
      <trkpt lat="36.539407" lon="-5.389028">
        <ele>231.62</ele>
        <time>2015-06-20T18:52:49Z</time>
      </trkpt>
      <trkpt lat="36.539348" lon="-5.389068">
        <ele>230.97</ele>
        <time>2015-06-20T18:52:50Z</time>
      </trkpt>
      <trkpt lat="36.539292" lon="-5.389115">
        <ele>230.21</ele>
        <time>2015-06-20T18:52:51Z</time>
      </trkpt>
      <trkpt lat="36.539232" lon="-5.389169">
        <ele>229.57</ele>
        <time>2015-06-20T18:52:52Z</time>
      </trkpt>
      <trkpt lat="36.539162" lon="-5.389220">
        <ele>229.07</ele>
        <time>2015-06-20T18:52:53Z</time>
      </trkpt>
      <trkpt lat="36.539079" lon="-5.389264">
        <ele>228.01</ele>
        <time>2015-06-20T18:52:54Z</time>
      </trkpt>
      <trkpt lat="36.538992" lon="-5.389302">
        <ele>227.21</ele>
        <time>2015-06-20T18:52:55Z</time>
      </trkpt>
      <trkpt lat="36.538919" lon="-5.389325">
        <ele>226.83</ele>
        <time>2015-06-20T18:52:56Z</time>
      </trkpt>
      <trkpt lat="36.538854" lon="-5.389330">
        <ele>226.28</ele>
        <time>2015-06-20T18:52:57Z</time>
      </trkpt>
      <trkpt lat="36.538790" lon="-5.389327">
        <ele>225.37</ele>
        <time>2015-06-20T18:52:58Z</time>
      </trkpt>
      <trkpt lat="36.538730" lon="-5.389320">
        <ele>224.64</ele>
        <time>2015-06-20T18:52:59Z</time>
      </trkpt>
      <trkpt lat="36.538672" lon="-5.389307">
        <ele>223.95</ele>
        <time>2015-06-20T18:53:00Z</time>
      </trkpt>
      <trkpt lat="36.538616" lon="-5.389291">
        <ele>223.28</ele>
        <time>2015-06-20T18:53:01Z</time>
      </trkpt>
      <trkpt lat="36.538559" lon="-5.389277">
        <ele>222.35</ele>
        <time>2015-06-20T18:53:02Z</time>
      </trkpt>
      <trkpt lat="36.538498" lon="-5.389273">
        <ele>221.28</ele>
        <time>2015-06-20T18:53:03Z</time>
      </trkpt>
      <trkpt lat="36.538440" lon="-5.389269">
        <ele>220.29</ele>
        <time>2015-06-20T18:53:04Z</time>
      </trkpt>
      <trkpt lat="36.538386" lon="-5.389254">
        <ele>219.32</ele>
        <time>2015-06-20T18:53:05Z</time>
      </trkpt>
      <trkpt lat="36.538338" lon="-5.389226">
        <ele>218.73</ele>
        <time>2015-06-20T18:53:06Z</time>
      </trkpt>
      <trkpt lat="36.538297" lon="-5.389187">
        <ele>218.51</ele>
        <time>2015-06-20T18:53:07Z</time>
      </trkpt>
      <trkpt lat="36.538259" lon="-5.389143">
        <ele>218.43</ele>
        <time>2015-06-20T18:53:08Z</time>
      </trkpt>
      <trkpt lat="36.538227" lon="-5.389100">
        <ele>218.35</ele>
        <time>2015-06-20T18:53:09Z</time>
      </trkpt>
      <trkpt lat="36.538197" lon="-5.389062">
        <ele>218.33</ele>
        <time>2015-06-20T18:53:10Z</time>
      </trkpt>
      <trkpt lat="36.538164" lon="-5.389033">
        <ele>218.14</ele>
        <time>2015-06-20T18:53:11Z</time>
      </trkpt>
      <trkpt lat="36.538120" lon="-5.389023">
        <ele>217.74</ele>
        <time>2015-06-20T18:53:12Z</time>
      </trkpt>
      <trkpt lat="36.538077" lon="-5.389033">
        <ele>217.29</ele>
        <time>2015-06-20T18:53:13Z</time>
      </trkpt>
      <trkpt lat="36.538039" lon="-5.389057">
        <ele>216.63</ele>
        <time>2015-06-20T18:53:14Z</time>
      </trkpt>
      <trkpt lat="36.538003" lon="-5.389092">
        <ele>215.93</ele>
        <time>2015-06-20T18:53:15Z</time>
      </trkpt>
      <trkpt lat="36.537966" lon="-5.389135">
        <ele>215.28</ele>
        <time>2015-06-20T18:53:16Z</time>
      </trkpt>
      <trkpt lat="36.537927" lon="-5.389184">
        <ele>214.53</ele>
        <time>2015-06-20T18:53:17Z</time>
      </trkpt>
      <trkpt lat="36.537880" lon="-5.389238">
        <ele>213.52</ele>
        <time>2015-06-20T18:53:18Z</time>
      </trkpt>
      <trkpt lat="36.537827" lon="-5.389281">
        <ele>212.61</ele>
        <time>2015-06-20T18:53:19Z</time>
      </trkpt>
      <trkpt lat="36.537770" lon="-5.389310">
        <ele>211.96</ele>
        <time>2015-06-20T18:53:20Z</time>
      </trkpt>
      <trkpt lat="36.537708" lon="-5.389330">
        <ele>211.22</ele>
        <time>2015-06-20T18:53:21Z</time>
      </trkpt>
      <trkpt lat="36.537645" lon="-5.389346">
        <ele>210.64</ele>
        <time>2015-06-20T18:53:22Z</time>
      </trkpt>
      <trkpt lat="36.537587" lon="-5.389360">
        <ele>210.04</ele>
        <time>2015-06-20T18:53:23Z</time>
      </trkpt>
      <trkpt lat="36.537535" lon="-5.389371">
        <ele>209.66</ele>
        <time>2015-06-20T18:53:24Z</time>
      </trkpt>
      <trkpt lat="36.537487" lon="-5.389380">
        <ele>209.18</ele>
        <time>2015-06-20T18:53:25Z</time>
      </trkpt>
      <trkpt lat="36.537441" lon="-5.389384">
        <ele>208.78</ele>
        <time>2015-06-20T18:53:26Z</time>
      </trkpt>
      <trkpt lat="36.537400" lon="-5.389385">
        <ele>208.45</ele>
        <time>2015-06-20T18:53:27Z</time>
      </trkpt>
      <trkpt lat="36.537366" lon="-5.389386">
        <ele>208.12</ele>
        <time>2015-06-20T18:53:28Z</time>
      </trkpt>
      <trkpt lat="36.537336" lon="-5.389388">
        <ele>207.98</ele>
        <time>2015-06-20T18:53:29Z</time>
      </trkpt>
      <trkpt lat="36.537312" lon="-5.389392">
        <ele>207.71</ele>
        <time>2015-06-20T18:53:30Z</time>
      </trkpt>
      <trkpt lat="36.537311" lon="-5.389404">
        <ele>207.71</ele>
        <time>2015-06-20T18:53:38Z</time>
      </trkpt>
      <trkpt lat="36.537329" lon="-5.389432">
        <ele>207.81</ele>
        <time>2015-06-20T18:53:44Z</time>
      </trkpt>
      <trkpt lat="36.537329" lon="-5.389432">
        <ele>207.84</ele>
        <time>2015-06-20T18:53:47Z</time>
      </trkpt>
      <trkpt lat="36.537333" lon="-5.389453">
        <ele>207.84</ele>
        <time>2015-06-20T18:53:50Z</time>
      </trkpt>
      <trkpt lat="36.537336" lon="-5.389493">
        <ele>206.825</ele>
        <time>2015-06-21T08:41:33Z</time>
      </trkpt>
      <trkpt lat="36.537336" lon="-5.389493">
        <ele>206.826</ele>
        <time>2015-06-21T08:41:34Z</time>
      </trkpt>
      <trkpt lat="36.537335" lon="-5.389482">
        <ele>206.808</ele>
        <time>2015-06-21T08:41:37Z</time>
      </trkpt>
      <trkpt lat="36.537335" lon="-5.389482">
        <ele>207.208</ele>
        <time>2015-06-21T08:41:38Z</time>
      </trkpt>
      <trkpt lat="36.537335" lon="-5.389482">
        <ele>207.283</ele>
        <time>2015-06-21T08:41:39Z</time>
      </trkpt>
      <trkpt lat="36.537334" lon="-5.389461">
        <ele>207.229</ele>
        <time>2015-06-21T08:41:41Z</time>
      </trkpt>
      <trkpt lat="36.537328" lon="-5.389445">
        <ele>207.292</ele>
        <time>2015-06-21T08:41:42Z</time>
      </trkpt>
      <trkpt lat="36.537326" lon="-5.389433">
        <ele>207.242</ele>
        <time>2015-06-21T08:41:43Z</time>
      </trkpt>
      <trkpt lat="36.537331" lon="-5.389426">
        <ele>207.276</ele>
        <time>2015-06-21T08:41:44Z</time>
      </trkpt>
      <trkpt lat="36.537368" lon="-5.389410">
        <ele>207.263</ele>
        <time>2015-06-21T08:41:47Z</time>
      </trkpt>
      <trkpt lat="36.537443" lon="-5.389414">
        <ele>207.212</ele>
        <time>2015-06-21T08:41:52Z</time>
      </trkpt>
      <trkpt lat="36.537472" lon="-5.389414">
        <ele>207.224</ele>
        <time>2015-06-21T08:41:54Z</time>
      </trkpt>
      <trkpt lat="36.537526" lon="-5.389406">
        <ele>207.278</ele>
        <time>2015-06-21T08:41:59Z</time>
      </trkpt>
      <trkpt lat="36.537623" lon="-5.389386">
        <ele>207.233</ele>
        <time>2015-06-21T08:42:06Z</time>
      </trkpt>
      <trkpt lat="36.537635" lon="-5.389382">
        <ele>207.626</ele>
        <time>2015-06-21T08:42:07Z</time>
      </trkpt>
      <trkpt lat="36.537647" lon="-5.389372">
        <ele>208.008</ele>
        <time>2015-06-21T08:42:08Z</time>
      </trkpt>
      <trkpt lat="36.537659" lon="-5.389365">
        <ele>208.438</ele>
        <time>2015-06-21T08:42:09Z</time>
      </trkpt>
      <trkpt lat="36.537673" lon="-5.389358">
        <ele>208.884</ele>
        <time>2015-06-21T08:42:10Z</time>
      </trkpt>
      <trkpt lat="36.537690" lon="-5.389353">
        <ele>209.257</ele>
        <time>2015-06-21T08:42:11Z</time>
      </trkpt>
      <trkpt lat="36.537705" lon="-5.389349">
        <ele>209.267</ele>
        <time>2015-06-21T08:42:12Z</time>
      </trkpt>
      <trkpt lat="36.537759" lon="-5.389332">
        <ele>209.261</ele>
        <time>2015-06-21T08:42:16Z</time>
      </trkpt>
      <trkpt lat="36.537787" lon="-5.389314">
        <ele>209.268</ele>
        <time>2015-06-21T08:42:18Z</time>
      </trkpt>
      <trkpt lat="36.537887" lon="-5.389236">
        <ele>209.287</ele>
        <time>2015-06-21T08:42:25Z</time>
      </trkpt>
      <trkpt lat="36.537911" lon="-5.389213">
        <ele>209.859</ele>
        <time>2015-06-21T08:42:27Z</time>
      </trkpt>
      <trkpt lat="36.537922" lon="-5.389202">
        <ele>210.613</ele>
        <time>2015-06-21T08:42:28Z</time>
      </trkpt>
      <trkpt lat="36.537930" lon="-5.389195">
        <ele>211.043</ele>
        <time>2015-06-21T08:42:29Z</time>
      </trkpt>
      <trkpt lat="36.537939" lon="-5.389186">
        <ele>211.607</ele>
        <time>2015-06-21T08:42:30Z</time>
      </trkpt>
      <trkpt lat="36.537958" lon="-5.389167">
        <ele>211.608</ele>
        <time>2015-06-21T08:42:32Z</time>
      </trkpt>
      <trkpt lat="36.538005" lon="-5.389122">
        <ele>211.682</ele>
        <time>2015-06-21T08:42:38Z</time>
      </trkpt>
      <trkpt lat="36.538005" lon="-5.389122">
        <ele>211.668</ele>
        <time>2015-06-21T08:42:47Z</time>
      </trkpt>
      <trkpt lat="36.538005" lon="-5.389122">
        <ele>211.651</ele>
        <time>2015-06-21T08:42:50Z</time>
      </trkpt>
      <trkpt lat="36.538005" lon="-5.389122">
        <ele>211.681</ele>
        <time>2015-06-21T08:43:04Z</time>
      </trkpt>
      <trkpt lat="36.538005" lon="-5.389122">
        <ele>211.615</ele>
        <time>2015-06-21T08:43:14Z</time>
      </trkpt>
      <trkpt lat="36.538005" lon="-5.389124">
        <ele>211.672</ele>
        <time>2015-06-21T08:43:22Z</time>
      </trkpt>
      <trkpt lat="36.538005" lon="-5.389124">
        <ele>211.631</ele>
        <time>2015-06-21T08:43:27Z</time>
      </trkpt>
      <trkpt lat="36.538005" lon="-5.389124">
        <ele>211.673</ele>
        <time>2015-06-21T08:43:36Z</time>
      </trkpt>
      <trkpt lat="36.538005" lon="-5.389124">
        <ele>211.646</ele>
        <time>2015-06-21T08:43:42Z</time>
      </trkpt>
      <trkpt lat="36.538005" lon="-5.389124">
        <ele>211.688</ele>
        <time>2015-06-21T08:43:55Z</time>
      </trkpt>
      <trkpt lat="36.538008" lon="-5.389125">
        <ele>211.616</ele>
        <time>2015-06-21T08:44:07Z</time>
      </trkpt>
      <trkpt lat="36.538008" lon="-5.389125">
        <ele>211.608</ele>
        <time>2015-06-21T08:44:10Z</time>
      </trkpt>
      <trkpt lat="36.538008" lon="-5.389125">
        <ele>211.625</ele>
        <time>2015-06-21T08:44:19Z</time>
      </trkpt>
      <trkpt lat="36.538007" lon="-5.389115">
        <ele>211.661</ele>
        <time>2015-06-21T08:44:28Z</time>
      </trkpt>
      <trkpt lat="36.538002" lon="-5.389105">
        <ele>211.644</ele>
        <time>2015-06-21T08:44:34Z</time>
      </trkpt>
      <trkpt lat="36.538002" lon="-5.389105">
        <ele>212.034</ele>
        <time>2015-06-21T08:44:36Z</time>
      </trkpt>
      <trkpt lat="36.538002" lon="-5.389105">
        <ele>212.438</ele>
        <time>2015-06-21T08:44:37Z</time>
      </trkpt>
      <trkpt lat="36.538002" lon="-5.389105">
        <ele>212.895</ele>
        <time>2015-06-21T08:44:38Z</time>
      </trkpt>
      <trkpt lat="36.538002" lon="-5.389105">
        <ele>213.244</ele>
        <time>2015-06-21T08:44:39Z</time>
      </trkpt>
      <trkpt lat="36.538002" lon="-5.389105">
        <ele>213.616</ele>
        <time>2015-06-21T08:44:40Z</time>
      </trkpt>
      <trkpt lat="36.538002" lon="-5.389105">
        <ele>213.625</ele>
        <time>2015-06-21T08:44:46Z</time>
      </trkpt>
      <trkpt lat="36.538002" lon="-5.389105">
        <ele>213.626</ele>
        <time>2015-06-21T08:44:58Z</time>
      </trkpt>
      <trkpt lat="36.538004" lon="-5.389106">
        <ele>213.608</ele>
        <time>2015-06-21T08:45:11Z</time>
      </trkpt>
      <trkpt lat="36.538004" lon="-5.389106">
        <ele>213.608</ele>
        <time>2015-06-21T08:45:27Z</time>
      </trkpt>
      <trkpt lat="36.538004" lon="-5.389106">
        <ele>213.623</ele>
        <time>2015-06-21T08:45:38Z</time>
      </trkpt>
      <trkpt lat="36.538001" lon="-5.389103">
        <ele>213.689</ele>
        <time>2015-06-21T08:45:53Z</time>
      </trkpt>
      <trkpt lat="36.538001" lon="-5.389103">
        <ele>213.622</ele>
        <time>2015-06-21T08:46:03Z</time>
      </trkpt>
      <trkpt lat="36.538001" lon="-5.389103">
        <ele>213.692</ele>
        <time>2015-06-21T08:46:07Z</time>
      </trkpt>
      <trkpt lat="36.538001" lon="-5.389103">
        <ele>213.646</ele>
        <time>2015-06-21T08:46:17Z</time>
      </trkpt>
      <trkpt lat="36.538004" lon="-5.389097">
        <ele>213.673</ele>
        <time>2015-06-21T08:46:21Z</time>
      </trkpt>
      <trkpt lat="36.538004" lon="-5.389097">
        <ele>213.662</ele>
        <time>2015-06-21T08:46:22Z</time>
      </trkpt>
      <trkpt lat="36.538006" lon="-5.389094">
        <ele>213.664</ele>
        <time>2015-06-21T08:46:24Z</time>
      </trkpt>
      <trkpt lat="36.538019" lon="-5.389086">
        <ele>213.619</ele>
        <time>2015-06-21T08:46:26Z</time>
      </trkpt>
      <trkpt lat="36.538033" lon="-5.389081">
        <ele>213.609</ele>
        <time>2015-06-21T08:46:28Z</time>
      </trkpt>
      <trkpt lat="36.538075" lon="-5.389055">
        <ele>213.619</ele>
        <time>2015-06-21T08:46:31Z</time>
      </trkpt>
      <trkpt lat="36.538110" lon="-5.389049">
        <ele>213.608</ele>
        <time>2015-06-21T08:46:33Z</time>
      </trkpt>
      <trkpt lat="36.538152" lon="-5.389043">
        <ele>213.642</ele>
        <time>2015-06-21T08:46:36Z</time>
      </trkpt>
      <trkpt lat="36.538202" lon="-5.389007">
        <ele>213.688</ele>
        <time>2015-06-21T08:46:43Z</time>
      </trkpt>
      <trkpt lat="36.538236" lon="-5.389081">
        <ele>213.611</ele>
        <time>2015-06-21T08:46:48Z</time>
      </trkpt>
      <trkpt lat="36.538246" lon="-5.389091">
        <ele>213.621</ele>
        <time>2015-06-21T08:46:49Z</time>
      </trkpt>
      <trkpt lat="36.538275" lon="-5.389125">
        <ele>214.075</ele>
        <time>2015-06-21T08:46:52Z</time>
      </trkpt>
      <trkpt lat="36.538286" lon="-5.389136">
        <ele>214.462</ele>
        <time>2015-06-21T08:46:53Z</time>
      </trkpt>
      <trkpt lat="36.538295" lon="-5.389146">
        <ele>215.061</ele>
        <time>2015-06-21T08:46:54Z</time>
      </trkpt>
      <trkpt lat="36.538302" lon="-5.389157">
        <ele>215.433</ele>
        <time>2015-06-21T08:46:55Z</time>
      </trkpt>
      <trkpt lat="36.538306" lon="-5.389170">
        <ele>215.889</ele>
        <time>2015-06-21T08:46:56Z</time>
      </trkpt>
      <trkpt lat="36.538317" lon="-5.389213">
        <ele>215.806</ele>
        <time>2015-06-21T08:46:59Z</time>
      </trkpt>
      <trkpt lat="36.538327" lon="-5.389220">
        <ele>216.626</ele>
        <time>2015-06-21T08:47:00Z</time>
      </trkpt>
      <trkpt lat="36.538338" lon="-5.389225">
        <ele>217.008</ele>
        <time>2015-06-21T08:47:01Z</time>
      </trkpt>
      <trkpt lat="36.538349" lon="-5.389226">
        <ele>217.489</ele>
        <time>2015-06-21T08:47:02Z</time>
      </trkpt>
      <trkpt lat="36.538357" lon="-5.389227">
        <ele>217.885</ele>
        <time>2015-06-21T08:47:03Z</time>
      </trkpt>
      <trkpt lat="36.538368" lon="-5.389230">
        <ele>217.858</ele>
        <time>2015-06-21T08:47:04Z</time>
      </trkpt>
      <trkpt lat="36.538390" lon="-5.389238">
        <ele>217.858</ele>
        <time>2015-06-21T08:47:06Z</time>
      </trkpt>
      <trkpt lat="36.538406" lon="-5.389254">
        <ele>218.252</ele>
        <time>2015-06-21T08:47:08Z</time>
      </trkpt>
      <trkpt lat="36.538411" lon="-5.389266">
        <ele>218.659</ele>
        <time>2015-06-21T08:47:09Z</time>
      </trkpt>
      <trkpt lat="36.538416" lon="-5.389280">
        <ele>219.078</ele>
        <time>2015-06-21T08:47:10Z</time>
      </trkpt>
      <trkpt lat="36.538424" lon="-5.389293">
        <ele>219.690</ele>
        <time>2015-06-21T08:47:11Z</time>
      </trkpt>
      <trkpt lat="36.538430" lon="-5.389306">
        <ele>220.086</ele>
        <time>2015-06-21T08:47:12Z</time>
      </trkpt>
      <trkpt lat="36.538462" lon="-5.389298">
        <ele>220.060</ele>
        <time>2015-06-21T08:47:15Z</time>
      </trkpt>
      <trkpt lat="36.538511" lon="-5.389274">
        <ele>220.426</ele>
        <time>2015-06-21T08:47:20Z</time>
      </trkpt>
      <trkpt lat="36.538522" lon="-5.389276">
        <ele>220.808</ele>
        <time>2015-06-21T08:47:21Z</time>
      </trkpt>
      <trkpt lat="36.538533" lon="-5.389282">
        <ele>221.279</ele>
        <time>2015-06-21T08:47:22Z</time>
      </trkpt>
      <trkpt lat="36.538543" lon="-5.389288">
        <ele>221.695</ele>
        <time>2015-06-21T08:47:23Z</time>
      </trkpt>
      <trkpt lat="36.538550" lon="-5.389296">
        <ele>222.088</ele>
        <time>2015-06-21T08:47:24Z</time>
      </trkpt>
      <trkpt lat="36.538559" lon="-5.389300">
        <ele>222.068</ele>
        <time>2015-06-21T08:47:25Z</time>
      </trkpt>
      <trkpt lat="36.538571" lon="-5.389285">
        <ele>222.032</ele>
        <time>2015-06-21T08:47:27Z</time>
      </trkpt>
      <trkpt lat="36.538581" lon="-5.389282">
        <ele>222.099</ele>
        <time>2015-06-21T08:47:28Z</time>
      </trkpt>
      <trkpt lat="36.538627" lon="-5.389297">
        <ele>222.028</ele>
        <time>2015-06-21T08:47:32Z</time>
      </trkpt>
      <trkpt lat="36.538641" lon="-5.389303">
        <ele>222.490</ele>
        <time>2015-06-21T08:47:33Z</time>
      </trkpt>
      <trkpt lat="36.538657" lon="-5.389306">
        <ele>222.828</ele>
        <time>2015-06-21T08:47:34Z</time>
      </trkpt>
      <trkpt lat="36.538674" lon="-5.389307">
        <ele>223.289</ele>
        <time>2015-06-21T08:47:35Z</time>
      </trkpt>
      <trkpt lat="36.538686" lon="-5.389308">
        <ele>223.617</ele>
        <time>2015-06-21T08:47:36Z</time>
      </trkpt>
      <trkpt lat="36.538697" lon="-5.389311">
        <ele>224.008</ele>
        <time>2015-06-21T08:47:37Z</time>
      </trkpt>
      <trkpt lat="36.538709" lon="-5.389315">
        <ele>224.073</ele>
        <time>2015-06-21T08:47:38Z</time>
      </trkpt>
      <trkpt lat="36.538782" lon="-5.389320">
        <ele>224.099</ele>
        <time>2015-06-21T08:47:43Z</time>
      </trkpt>
      <trkpt lat="36.538817" lon="-5.389321">
        <ele>224.042</ele>
        <time>2015-06-21T08:47:45Z</time>
      </trkpt>
      <trkpt lat="36.538873" lon="-5.389327">
        <ele>224.032</ele>
        <time>2015-06-21T08:47:48Z</time>
      </trkpt>
      <trkpt lat="36.538919" lon="-5.389322">
        <ele>224.096</ele>
        <time>2015-06-21T08:47:51Z</time>
      </trkpt>
      <trkpt lat="36.539031" lon="-5.389295">
        <ele>224.013</ele>
        <time>2015-06-21T08:47:58Z</time>
      </trkpt>
      <trkpt lat="36.539109" lon="-5.389274">
        <ele>224.432</ele>
        <time>2015-06-21T08:48:03Z</time>
      </trkpt>
      <trkpt lat="36.539125" lon="-5.389276">
        <ele>224.834</ele>
        <time>2015-06-21T08:48:04Z</time>
      </trkpt>
      <trkpt lat="36.539138" lon="-5.389277">
        <ele>225.281</ele>
        <time>2015-06-21T08:48:05Z</time>
      </trkpt>
      <trkpt lat="36.539153" lon="-5.389276">
        <ele>225.661</ele>
        <time>2015-06-21T08:48:06Z</time>
      </trkpt>
      <trkpt lat="36.539165" lon="-5.389269">
        <ele>226.017</ele>
        <time>2015-06-21T08:48:07Z</time>
      </trkpt>
      <trkpt lat="36.539195" lon="-5.389227">
        <ele>226.008</ele>
        <time>2015-06-21T08:48:10Z</time>
      </trkpt>
      <trkpt lat="36.539232" lon="-5.389139">
        <ele>226.489</ele>
        <time>2015-06-21T08:48:16Z</time>
      </trkpt>
      <trkpt lat="36.539246" lon="-5.389137">
        <ele>226.855</ele>
        <time>2015-06-21T08:48:17Z</time>
      </trkpt>
      <trkpt lat="36.539260" lon="-5.389135">
        <ele>227.218</ele>
        <time>2015-06-21T08:48:18Z</time>
      </trkpt>
      <trkpt lat="36.539275" lon="-5.389132">
        <ele>227.638</ele>
        <time>2015-06-21T08:48:19Z</time>
      </trkpt>
      <trkpt lat="36.539287" lon="-5.389125">
        <ele>228.072</ele>
        <time>2015-06-21T08:48:20Z</time>
      </trkpt>
      <trkpt lat="36.539305" lon="-5.389102">
        <ele>228.079</ele>
        <time>2015-06-21T08:48:22Z</time>
      </trkpt>
      <trkpt lat="36.539338" lon="-5.389025">
        <ele>228.048</ele>
        <time>2015-06-21T08:48:27Z</time>
      </trkpt>
      <trkpt lat="36.539412" lon="-5.389002">
        <ele>228.440</ele>
        <time>2015-06-21T08:48:32Z</time>
      </trkpt>
      <trkpt lat="36.539429" lon="-5.388998">
        <ele>229.075</ele>
        <time>2015-06-21T08:48:33Z</time>
      </trkpt>
      <trkpt lat="36.539443" lon="-5.388994">
        <ele>229.428</ele>
        <time>2015-06-21T08:48:34Z</time>
      </trkpt>
      <trkpt lat="36.539460" lon="-5.388987">
        <ele>229.820</ele>
        <time>2015-06-21T08:48:35Z</time>
      </trkpt>
      <trkpt lat="36.539476" lon="-5.388979">
        <ele>230.208</ele>
        <time>2015-06-21T08:48:36Z</time>
      </trkpt>
      <trkpt lat="36.539505" lon="-5.388960">
        <ele>230.228</ele>
        <time>2015-06-21T08:48:38Z</time>
      </trkpt>
      <trkpt lat="36.539559" lon="-5.388940">
        <ele>230.254</ele>
        <time>2015-06-21T08:48:42Z</time>
      </trkpt>
      <trkpt lat="36.539606" lon="-5.388920">
        <ele>230.637</ele>
        <time>2015-06-21T08:48:46Z</time>
      </trkpt>
      <trkpt lat="36.539617" lon="-5.388918">
        <ele>231.077</ele>
        <time>2015-06-21T08:48:47Z</time>
      </trkpt>
      <trkpt lat="36.539628" lon="-5.388918">
        <ele>231.421</ele>
        <time>2015-06-21T08:48:48Z</time>
      </trkpt>
      <trkpt lat="36.539642" lon="-5.388915">
        <ele>231.868</ele>
        <time>2015-06-21T08:48:49Z</time>
      </trkpt>
      <trkpt lat="36.539656" lon="-5.388913">
        <ele>232.277</ele>
        <time>2015-06-21T08:48:50Z</time>
      </trkpt>
      <trkpt lat="36.539700" lon="-5.388888">
        <ele>232.279</ele>
        <time>2015-06-21T08:48:53Z</time>
      </trkpt>
      <trkpt lat="36.539731" lon="-5.388870">
        <ele>232.277</ele>
        <time>2015-06-21T08:48:55Z</time>
      </trkpt>
      <trkpt lat="36.539794" lon="-5.388826">
        <ele>232.261</ele>
        <time>2015-06-21T08:49:00Z</time>
      </trkpt>
      <trkpt lat="36.539889" lon="-5.388808">
        <ele>232.227</ele>
        <time>2015-06-21T08:49:06Z</time>
      </trkpt>
      <trkpt lat="36.539925" lon="-5.388806">
        <ele>232.608</ele>
        <time>2015-06-21T08:49:08Z</time>
      </trkpt>
      <trkpt lat="36.539942" lon="-5.388800">
        <ele>233.078</ele>
        <time>2015-06-21T08:49:09Z</time>
      </trkpt>
      <trkpt lat="36.539958" lon="-5.388795">
        <ele>233.684</ele>
        <time>2015-06-21T08:49:10Z</time>
      </trkpt>
      <trkpt lat="36.539974" lon="-5.388789">
        <ele>234.067</ele>
        <time>2015-06-21T08:49:11Z</time>
      </trkpt>
      <trkpt lat="36.539991" lon="-5.388785">
        <ele>234.427</ele>
        <time>2015-06-21T08:49:12Z</time>
      </trkpt>
      <trkpt lat="36.540004" lon="-5.388781">
        <ele>234.421</ele>
        <time>2015-06-21T08:49:13Z</time>
      </trkpt>
      <trkpt lat="36.540123" lon="-5.388700">
        <ele>234.418</ele>
        <time>2015-06-21T08:49:19Z</time>
      </trkpt>
      <trkpt lat="36.540160" lon="-5.388609">
        <ele>234.817</ele>
        <time>2015-06-21T08:49:24Z</time>
      </trkpt>
      <trkpt lat="36.540165" lon="-5.388590">
        <ele>235.249</ele>
        <time>2015-06-21T08:49:25Z</time>
      </trkpt>
      <trkpt lat="36.540169" lon="-5.388571">
        <ele>235.682</ele>
        <time>2015-06-21T08:49:26Z</time>
      </trkpt>
      <trkpt lat="36.540171" lon="-5.388548">
        <ele>236.043</ele>
        <time>2015-06-21T08:49:27Z</time>
      </trkpt>
      <trkpt lat="36.540175" lon="-5.388526">
        <ele>236.417</ele>
        <time>2015-06-21T08:49:28Z</time>
      </trkpt>
      <trkpt lat="36.540188" lon="-5.388431">
        <ele>236.408</ele>
        <time>2015-06-21T08:49:32Z</time>
      </trkpt>
      <trkpt lat="36.540191" lon="-5.388404">
        <ele>237.079</ele>
        <time>2015-06-21T08:49:34Z</time>
      </trkpt>
      <trkpt lat="36.540188" lon="-5.388388">
        <ele>237.485</ele>
        <time>2015-06-21T08:49:35Z</time>
      </trkpt>
      <trkpt lat="36.540185" lon="-5.388370">
        <ele>237.848</ele>
        <time>2015-06-21T08:49:36Z</time>
      </trkpt>
      <trkpt lat="36.540188" lon="-5.388355">
        <ele>238.258</ele>
        <time>2015-06-21T08:49:37Z</time>
      </trkpt>
      <trkpt lat="36.540197" lon="-5.388344">
        <ele>238.622</ele>
        <time>2015-06-21T08:49:38Z</time>
      </trkpt>
      <trkpt lat="36.540214" lon="-5.388302">
        <ele>238.699</ele>
        <time>2015-06-21T08:49:42Z</time>
      </trkpt>
      <trkpt lat="36.540203" lon="-5.388291">
        <ele>238.688</ele>
        <time>2015-06-21T08:49:43Z</time>
      </trkpt>
      <trkpt lat="36.540126" lon="-5.388182">
        <ele>238.640</ele>
        <time>2015-06-21T08:49:49Z</time>
      </trkpt>
      <trkpt lat="36.540128" lon="-5.388065">
        <ele>238.675</ele>
        <time>2015-06-21T08:49:53Z</time>
      </trkpt>
      <trkpt lat="36.540142" lon="-5.388001">
        <ele>238.628</ele>
        <time>2015-06-21T08:49:55Z</time>
      </trkpt>
      <trkpt lat="36.540165" lon="-5.387786">
        <ele>238.620</ele>
        <time>2015-06-21T08:50:01Z</time>
      </trkpt>
      <trkpt lat="36.540159" lon="-5.387619">
        <ele>238.608</ele>
        <time>2015-06-21T08:50:06Z</time>
      </trkpt>
      <trkpt lat="36.540151" lon="-5.387521">
        <ele>238.688</ele>
        <time>2015-06-21T08:50:09Z</time>
      </trkpt>
      <trkpt lat="36.540143" lon="-5.387449">
        <ele>238.694</ele>
        <time>2015-06-21T08:50:11Z</time>
      </trkpt>
      <trkpt lat="36.540126" lon="-5.387388">
        <ele>238.647</ele>
        <time>2015-06-21T08:50:13Z</time>
      </trkpt>
      <trkpt lat="36.540106" lon="-5.387388">
        <ele>238.637</ele>
        <time>2015-06-21T08:50:14Z</time>
      </trkpt>
      <trkpt lat="36.540067" lon="-5.387324">
        <ele>238.621</ele>
        <time>2015-06-21T08:50:17Z</time>
      </trkpt>
      <trkpt lat="36.540047" lon="-5.387194">
        <ele>238.678</ele>
        <time>2015-06-21T08:50:20Z</time>
      </trkpt>
      <trkpt lat="36.540039" lon="-5.387110">
        <ele>238.637</ele>
        <time>2015-06-21T08:50:22Z</time>
      </trkpt>
      <trkpt lat="36.539994" lon="-5.386752">
        <ele>238.669</ele>
        <time>2015-06-21T08:50:29Z</time>
      </trkpt>
      <trkpt lat="36.539977" lon="-5.386595">
        <ele>238.663</ele>
        <time>2015-06-21T08:50:32Z</time>
      </trkpt>
      <trkpt lat="36.539974" lon="-5.386440">
        <ele>238.644</ele>
        <time>2015-06-21T08:50:35Z</time>
      </trkpt>
      <trkpt lat="36.539967" lon="-5.386387">
        <ele>238.618</ele>
        <time>2015-06-21T08:50:36Z</time>
      </trkpt>
      <trkpt lat="36.539953" lon="-5.386137">
        <ele>238.608</ele>
        <time>2015-06-21T08:50:41Z</time>
      </trkpt>
      <trkpt lat="36.539940" lon="-5.386084">
        <ele>238.687</ele>
        <time>2015-06-21T08:50:42Z</time>
      </trkpt>
      <trkpt lat="36.539910" lon="-5.385927">
        <ele>238.673</ele>
        <time>2015-06-21T08:50:45Z</time>
      </trkpt>
      <trkpt lat="36.539889" lon="-5.385826">
        <ele>238.686</ele>
        <time>2015-06-21T08:50:47Z</time>
      </trkpt>
      <trkpt lat="36.539869" lon="-5.385620">
        <ele>238.686</ele>
        <time>2015-06-21T08:50:51Z</time>
      </trkpt>
      <trkpt lat="36.539862" lon="-5.385567">
        <ele>238.690</ele>
        <time>2015-06-21T08:50:52Z</time>
      </trkpt>
      <trkpt lat="36.539835" lon="-5.385297">
        <ele>238.697</ele>
        <time>2015-06-21T08:50:57Z</time>
      </trkpt>
      <trkpt lat="36.539813" lon="-5.385184">
        <ele>238.626</ele>
        <time>2015-06-21T08:50:59Z</time>
      </trkpt>
      <trkpt lat="36.539788" lon="-5.385077">
        <ele>238.628</ele>
        <time>2015-06-21T08:51:01Z</time>
      </trkpt>
      <trkpt lat="36.539721" lon="-5.384860">
        <ele>238.674</ele>
        <time>2015-06-21T08:51:05Z</time>
      </trkpt>
      <trkpt lat="36.539693" lon="-5.384804">
        <ele>238.656</ele>
        <time>2015-06-21T08:51:06Z</time>
      </trkpt>
      <trkpt lat="36.539587" lon="-5.384659">
        <ele>238.621</ele>
        <time>2015-06-21T08:51:09Z</time>
      </trkpt>
      <trkpt lat="36.539541" lon="-5.384620">
        <ele>238.608</ele>
        <time>2015-06-21T08:51:10Z</time>
      </trkpt>
      <trkpt lat="36.539488" lon="-5.384581">
        <ele>238.268</ele>
        <time>2015-06-21T08:51:11Z</time>
      </trkpt>
      <trkpt lat="36.539434" lon="-5.384549">
        <ele>237.844</ele>
        <time>2015-06-21T08:51:12Z</time>
      </trkpt>
      <trkpt lat="36.539376" lon="-5.384514">
        <ele>237.457</ele>
        <time>2015-06-21T08:51:13Z</time>
      </trkpt>
      <trkpt lat="36.539316" lon="-5.384480">
        <ele>237.057</ele>
        <time>2015-06-21T08:51:14Z</time>
      </trkpt>
      <trkpt lat="36.539254" lon="-5.384450">
        <ele>236.631</ele>
        <time>2015-06-21T08:51:15Z</time>
      </trkpt>
      <trkpt lat="36.539189" lon="-5.384421">
        <ele>236.658</ele>
        <time>2015-06-21T08:51:16Z</time>
      </trkpt>
      <trkpt lat="36.538955" lon="-5.384357">
        <ele>236.047</ele>
        <time>2015-06-21T08:51:20Z</time>
      </trkpt>
      <trkpt lat="36.538898" lon="-5.384372">
        <ele>235.649</ele>
        <time>2015-06-21T08:51:21Z</time>
      </trkpt>
      <trkpt lat="36.538840" lon="-5.384396">
        <ele>235.215</ele>
        <time>2015-06-21T08:51:22Z</time>
      </trkpt>
      <trkpt lat="36.538783" lon="-5.384428">
        <ele>234.865</ele>
        <time>2015-06-21T08:51:23Z</time>
      </trkpt>
      <trkpt lat="36.538726" lon="-5.384453">
        <ele>234.211</ele>
        <time>2015-06-21T08:51:24Z</time>
      </trkpt>
      <trkpt lat="36.538666" lon="-5.384471">
        <ele>233.808</ele>
        <time>2015-06-21T08:51:25Z</time>
      </trkpt>
      <trkpt lat="36.538606" lon="-5.384480">
        <ele>233.492</ele>
        <time>2015-06-21T08:51:26Z</time>
      </trkpt>
      <trkpt lat="36.538549" lon="-5.384474">
        <ele>232.878</ele>
        <time>2015-06-21T08:51:27Z</time>
      </trkpt>
      <trkpt lat="36.538489" lon="-5.384451">
        <ele>232.471</ele>
        <time>2015-06-21T08:51:28Z</time>
      </trkpt>
      <trkpt lat="36.538431" lon="-5.384410">
        <ele>231.861</ele>
        <time>2015-06-21T08:51:29Z</time>
      </trkpt>
      <trkpt lat="36.538377" lon="-5.384348">
        <ele>231.295</ele>
        <time>2015-06-21T08:51:30Z</time>
      </trkpt>
      <trkpt lat="36.538335" lon="-5.384267">
        <ele>230.612</ele>
        <time>2015-06-21T08:51:31Z</time>
      </trkpt>
      <trkpt lat="36.538309" lon="-5.384180">
        <ele>230.091</ele>
        <time>2015-06-21T08:51:32Z</time>
      </trkpt>
      <trkpt lat="36.538300" lon="-5.384086">
        <ele>229.043</ele>
        <time>2015-06-21T08:51:33Z</time>
      </trkpt>
      <trkpt lat="36.538297" lon="-5.383985">
        <ele>228.625</ele>
        <time>2015-06-21T08:51:34Z</time>
      </trkpt>
      <trkpt lat="36.538297" lon="-5.383885">
        <ele>228.026</ele>
        <time>2015-06-21T08:51:35Z</time>
      </trkpt>
      <trkpt lat="36.538301" lon="-5.383793">
        <ele>227.608</ele>
        <time>2015-06-21T08:51:36Z</time>
      </trkpt>
      <trkpt lat="36.538303" lon="-5.383702">
        <ele>227.208</ele>
        <time>2015-06-21T08:51:37Z</time>
      </trkpt>
      <trkpt lat="36.538295" lon="-5.383614">
        <ele>227.263</ele>
        <time>2015-06-21T08:51:38Z</time>
      </trkpt>
      <trkpt lat="36.538275" lon="-5.383531">
        <ele>226.819</ele>
        <time>2015-06-21T08:51:39Z</time>
      </trkpt>
      <trkpt lat="36.538243" lon="-5.383451">
        <ele>226.232</ele>
        <time>2015-06-21T08:51:40Z</time>
      </trkpt>
      <trkpt lat="36.538210" lon="-5.383364">
        <ele>225.892</ele>
        <time>2015-06-21T08:51:41Z</time>
      </trkpt>
      <trkpt lat="36.538179" lon="-5.383283">
        <ele>225.456</ele>
        <time>2015-06-21T08:51:42Z</time>
      </trkpt>
      <trkpt lat="36.538145" lon="-5.383198">
        <ele>224.863</ele>
        <time>2015-06-21T08:51:43Z</time>
      </trkpt>
      <trkpt lat="36.538122" lon="-5.383139">
        <ele>224.422</ele>
        <time>2015-06-21T08:51:44Z</time>
      </trkpt>
      <trkpt lat="36.538105" lon="-5.383082">
        <ele>224.084</ele>
        <time>2015-06-21T08:51:45Z</time>
      </trkpt>
      <trkpt lat="36.538092" lon="-5.383032">
        <ele>223.657</ele>
        <time>2015-06-21T08:51:46Z</time>
      </trkpt>
      <trkpt lat="36.538076" lon="-5.382982">
        <ele>223.000</ele>
        <time>2015-06-21T08:51:47Z</time>
      </trkpt>
      <trkpt lat="36.538060" lon="-5.382933">
        <ele>222.620</ele>
        <time>2015-06-21T08:51:48Z</time>
      </trkpt>
      <trkpt lat="36.538045" lon="-5.382892">
        <ele>222.208</ele>
        <time>2015-06-21T08:51:49Z</time>
      </trkpt>
      <trkpt lat="36.538033" lon="-5.382853">
        <ele>221.856</ele>
        <time>2015-06-21T08:51:50Z</time>
      </trkpt>
      <trkpt lat="36.538022" lon="-5.382816">
        <ele>221.472</ele>
        <time>2015-06-21T08:51:51Z</time>
      </trkpt>
      <trkpt lat="36.538010" lon="-5.382777">
        <ele>220.845</ele>
        <time>2015-06-21T08:51:52Z</time>
      </trkpt>
      <trkpt lat="36.537994" lon="-5.382733">
        <ele>220.415</ele>
        <time>2015-06-21T08:51:53Z</time>
      </trkpt>
      <trkpt lat="36.537980" lon="-5.382680">
        <ele>220.419</ele>
        <time>2015-06-21T08:51:54Z</time>
      </trkpt>
      <trkpt lat="36.537959" lon="-5.382557">
        <ele>220.486</ele>
        <time>2015-06-21T08:51:56Z</time>
      </trkpt>
      <trkpt lat="36.537951" lon="-5.382488">
        <ele>219.645</ele>
        <time>2015-06-21T08:51:57Z</time>
      </trkpt>
      <trkpt lat="36.537944" lon="-5.382421">
        <ele>219.297</ele>
        <time>2015-06-21T08:51:58Z</time>
      </trkpt>
      <trkpt lat="36.537938" lon="-5.382351">
        <ele>218.851</ele>
        <time>2015-06-21T08:51:59Z</time>
      </trkpt>
      <trkpt lat="36.537932" lon="-5.382274">
        <ele>218.401</ele>
        <time>2015-06-21T08:52:00Z</time>
      </trkpt>
      <trkpt lat="36.537911" lon="-5.382027">
        <ele>218.411</ele>
        <time>2015-06-21T08:52:03Z</time>
      </trkpt>
      <trkpt lat="36.537872" lon="-5.381859">
        <ele>218.008</ele>
        <time>2015-06-21T08:52:05Z</time>
      </trkpt>
      <trkpt lat="36.537841" lon="-5.381772">
        <ele>217.636</ele>
        <time>2015-06-21T08:52:06Z</time>
      </trkpt>
      <trkpt lat="36.537791" lon="-5.381699">
        <ele>217.052</ele>
        <time>2015-06-21T08:52:07Z</time>
      </trkpt>
      <trkpt lat="36.537719" lon="-5.381639">
        <ele>216.675</ele>
        <time>2015-06-21T08:52:08Z</time>
      </trkpt>
      <trkpt lat="36.537636" lon="-5.381592">
        <ele>216.285</ele>
        <time>2015-06-21T08:52:09Z</time>
      </trkpt>
      <trkpt lat="36.537555" lon="-5.381549">
        <ele>215.689</ele>
        <time>2015-06-21T08:52:10Z</time>
      </trkpt>
      <trkpt lat="36.537469" lon="-5.381506">
        <ele>215.216</ele>
        <time>2015-06-21T08:52:11Z</time>
      </trkpt>
      <trkpt lat="36.537388" lon="-5.381470">
        <ele>214.875</ele>
        <time>2015-06-21T08:52:12Z</time>
      </trkpt>
      <trkpt lat="36.537309" lon="-5.381436">
        <ele>214.217</ele>
        <time>2015-06-21T08:52:13Z</time>
      </trkpt>
      <trkpt lat="36.537233" lon="-5.381403">
        <ele>213.818</ele>
        <time>2015-06-21T08:52:14Z</time>
      </trkpt>
      <trkpt lat="36.537162" lon="-5.381374">
        <ele>213.898</ele>
        <time>2015-06-21T08:52:15Z</time>
      </trkpt>
      <trkpt lat="36.536765" lon="-5.381229">
        <ele>213.817</ele>
        <time>2015-06-21T08:52:21Z</time>
      </trkpt>
      <trkpt lat="36.536604" lon="-5.381256">
        <ele>213.808</ele>
        <time>2015-06-21T08:52:24Z</time>
      </trkpt>
      <trkpt lat="36.536480" lon="-5.381384">
        <ele>213.862</ele>
        <time>2015-06-21T08:52:28Z</time>
      </trkpt>
      <trkpt lat="36.536453" lon="-5.381411">
        <ele>213.898</ele>
        <time>2015-06-21T08:52:29Z</time>
      </trkpt>
      <trkpt lat="36.536386" lon="-5.381494">
        <ele>213.891</ele>
        <time>2015-06-21T08:52:32Z</time>
      </trkpt>
      <trkpt lat="36.536340" lon="-5.381551">
        <ele>213.821</ele>
        <time>2015-06-21T08:52:34Z</time>
      </trkpt>
      <trkpt lat="36.536224" lon="-5.381673">
        <ele>213.885</ele>
        <time>2015-06-21T08:52:39Z</time>
      </trkpt>
      <trkpt lat="36.536163" lon="-5.381727">
        <ele>213.882</ele>
        <time>2015-06-21T08:52:42Z</time>
      </trkpt>
      <trkpt lat="36.536104" lon="-5.381770">
        <ele>213.871</ele>
        <time>2015-06-21T08:52:45Z</time>
      </trkpt>
      <trkpt lat="36.536039" lon="-5.381803">
        <ele>213.893</ele>
        <time>2015-06-21T08:52:48Z</time>
      </trkpt>
      <trkpt lat="36.535896" lon="-5.381872">
        <ele>213.853</ele>
        <time>2015-06-21T08:52:54Z</time>
      </trkpt>
      <trkpt lat="36.535874" lon="-5.381884">
        <ele>213.804</ele>
        <time>2015-06-21T08:52:55Z</time>
      </trkpt>
      <trkpt lat="36.535785" lon="-5.381933">
        <ele>214.214</ele>
        <time>2015-06-21T08:52:59Z</time>
      </trkpt>
      <trkpt lat="36.535765" lon="-5.381945">
        <ele>214.608</ele>
        <time>2015-06-21T08:53:00Z</time>
      </trkpt>
      <trkpt lat="36.535742" lon="-5.381955">
        <ele>215.096</ele>
        <time>2015-06-21T08:53:01Z</time>
      </trkpt>
      <trkpt lat="36.535719" lon="-5.381968">
        <ele>215.452</ele>
        <time>2015-06-21T08:53:02Z</time>
      </trkpt>
      <trkpt lat="36.535701" lon="-5.381988">
        <ele>215.885</ele>
        <time>2015-06-21T08:53:03Z</time>
      </trkpt>
      <trkpt lat="36.535629" lon="-5.382041">
        <ele>215.825</ele>
        <time>2015-06-21T08:53:06Z</time>
      </trkpt>
      <trkpt lat="36.535472" lon="-5.382185">
        <ele>215.869</ele>
        <time>2015-06-21T08:53:13Z</time>
      </trkpt>
      <trkpt lat="36.535393" lon="-5.382371">
        <ele>215.866</ele>
        <time>2015-06-21T08:53:19Z</time>
      </trkpt>
      <trkpt lat="36.535375" lon="-5.382545">
        <ele>216.235</ele>
        <time>2015-06-21T08:53:24Z</time>
      </trkpt>
      <trkpt lat="36.535377" lon="-5.382579">
        <ele>216.847</ele>
        <time>2015-06-21T08:53:25Z</time>
      </trkpt>
      <trkpt lat="36.535377" lon="-5.382616">
        <ele>217.288</ele>
        <time>2015-06-21T08:53:26Z</time>
      </trkpt>
      <trkpt lat="36.535380" lon="-5.382654">
        <ele>217.624</ele>
        <time>2015-06-21T08:53:27Z</time>
      </trkpt>
      <trkpt lat="36.535383" lon="-5.382687">
        <ele>218.026</ele>
        <time>2015-06-21T08:53:28Z</time>
      </trkpt>
      <trkpt lat="36.535415" lon="-5.382885">
        <ele>218.008</ele>
        <time>2015-06-21T08:53:34Z</time>
      </trkpt>
      <trkpt lat="36.535451" lon="-5.383154">
        <ele>218.049</ele>
        <time>2015-06-21T08:53:42Z</time>
      </trkpt>
      <trkpt lat="36.535459" lon="-5.383274">
        <ele>218.415</ele>
        <time>2015-06-21T08:53:46Z</time>
      </trkpt>
      <trkpt lat="36.535462" lon="-5.383305">
        <ele>218.868</ele>
        <time>2015-06-21T08:53:47Z</time>
      </trkpt>
      <trkpt lat="36.535464" lon="-5.383336">
        <ele>219.478</ele>
        <time>2015-06-21T08:53:48Z</time>
      </trkpt>
      <trkpt lat="36.535462" lon="-5.383369">
        <ele>219.862</ele>
        <time>2015-06-21T08:53:49Z</time>
      </trkpt>
      <trkpt lat="36.535460" lon="-5.383401">
        <ele>220.299</ele>
        <time>2015-06-21T08:53:50Z</time>
      </trkpt>
      <trkpt lat="36.535441" lon="-5.383587">
        <ele>220.298</ele>
        <time>2015-06-21T08:53:55Z</time>
      </trkpt>
      <trkpt lat="36.535436" lon="-5.383671">
        <ele>220.270</ele>
        <time>2015-06-21T08:53:57Z</time>
      </trkpt>
      <trkpt lat="36.535429" lon="-5.383709">
        <ele>220.218</ele>
        <time>2015-06-21T08:53:58Z</time>
      </trkpt>
      <trkpt lat="36.535403" lon="-5.383814">
        <ele>220.298</ele>
        <time>2015-06-21T08:54:01Z</time>
      </trkpt>
      <trkpt lat="36.535359" lon="-5.383921">
        <ele>220.217</ele>
        <time>2015-06-21T08:54:05Z</time>
      </trkpt>
      <trkpt lat="36.535242" lon="-5.384044">
        <ele>220.208</ele>
        <time>2015-06-21T08:54:12Z</time>
      </trkpt>
      <trkpt lat="36.535110" lon="-5.384056">
        <ele>220.252</ele>
        <time>2015-06-21T08:54:18Z</time>
      </trkpt>
      <trkpt lat="36.535058" lon="-5.384022">
        <ele>220.268</ele>
        <time>2015-06-21T08:54:21Z</time>
      </trkpt>
      <trkpt lat="36.535014" lon="-5.383987">
        <ele>220.291</ele>
        <time>2015-06-21T08:54:24Z</time>
      </trkpt>
      <trkpt lat="36.534998" lon="-5.383945">
        <ele>220.831</ele>
        <time>2015-06-21T08:54:26Z</time>
      </trkpt>
      <trkpt lat="36.534994" lon="-5.383921">
        <ele>221.225</ele>
        <time>2015-06-21T08:54:27Z</time>
      </trkpt>
      <trkpt lat="36.534992" lon="-5.383900">
        <ele>222.412</ele>
        <time>2015-06-21T08:54:28Z</time>
      </trkpt>
      <trkpt lat="36.534988" lon="-5.383876">
        <ele>223.031</ele>
        <time>2015-06-21T08:54:29Z</time>
      </trkpt>
      <trkpt lat="36.534994" lon="-5.383825">
        <ele>223.043</ele>
        <time>2015-06-21T08:54:31Z</time>
      </trkpt>
      <trkpt lat="36.535004" lon="-5.383737">
        <ele>223.088</ele>
        <time>2015-06-21T08:54:34Z</time>
      </trkpt>
      <trkpt lat="36.535042" lon="-5.383549">
        <ele>223.024</ele>
        <time>2015-06-21T08:54:41Z</time>
      </trkpt>
      <trkpt lat="36.535064" lon="-5.383502">
        <ele>223.026</ele>
        <time>2015-06-21T08:54:44Z</time>
      </trkpt>
      <trkpt lat="36.535079" lon="-5.383451">
        <ele>223.008</ele>
        <time>2015-06-21T08:54:47Z</time>
      </trkpt>
      <trkpt lat="36.535102" lon="-5.383321">
        <ele>223.019</ele>
        <time>2015-06-21T08:54:53Z</time>
      </trkpt>
      <trkpt lat="36.535099" lon="-5.383150">
        <ele>223.035</ele>
        <time>2015-06-21T08:54:59Z</time>
      </trkpt>
      <trkpt lat="36.535107" lon="-5.382941">
        <ele>223.098</ele>
        <time>2015-06-21T08:55:05Z</time>
      </trkpt>
      <trkpt lat="36.535104" lon="-5.382705">
        <ele>223.448</ele>
        <time>2015-06-21T08:55:12Z</time>
      </trkpt>
      <trkpt lat="36.535098" lon="-5.382685">
        <ele>223.812</ele>
        <time>2015-06-21T08:55:13Z</time>
      </trkpt>
      <trkpt lat="36.535095" lon="-5.382664">
        <ele>224.239</ele>
        <time>2015-06-21T08:55:14Z</time>
      </trkpt>
      <trkpt lat="36.535096" lon="-5.382640">
        <ele>224.648</ele>
        <time>2015-06-21T08:55:15Z</time>
      </trkpt>
      <trkpt lat="36.535094" lon="-5.382614">
        <ele>225.060</ele>
        <time>2015-06-21T08:55:16Z</time>
      </trkpt>
      <trkpt lat="36.535088" lon="-5.382553">
        <ele>225.014</ele>
        <time>2015-06-21T08:55:18Z</time>
      </trkpt>
      <trkpt lat="36.535068" lon="-5.382303">
        <ele>225.054</ele>
        <time>2015-06-21T08:55:25Z</time>
      </trkpt>
      <trkpt lat="36.535064" lon="-5.382017">
        <ele>225.009</ele>
        <time>2015-06-21T08:55:33Z</time>
      </trkpt>
      <trkpt lat="36.535078" lon="-5.381926">
        <ele>225.008</ele>
        <time>2015-06-21T08:55:38Z</time>
      </trkpt>
      <trkpt lat="36.535077" lon="-5.381927">
        <ele>225.012</ele>
        <time>2015-06-21T08:55:44Z</time>
      </trkpt>
      <trkpt lat="36.535077" lon="-5.381927">
        <ele>225.088</ele>
        <time>2015-06-21T08:55:48Z</time>
      </trkpt>
      <trkpt lat="36.535077" lon="-5.381927">
        <ele>225.081</ele>
        <time>2015-06-21T08:55:58Z</time>
      </trkpt>
      <trkpt lat="36.535076" lon="-5.381887">
        <ele>225.031</ele>
        <time>2015-06-21T08:56:02Z</time>
      </trkpt>
      <trkpt lat="36.535078" lon="-5.381869">
        <ele>225.065</ele>
        <time>2015-06-21T08:56:03Z</time>
      </trkpt>
      <trkpt lat="36.535050" lon="-5.381762">
        <ele>225.012</ele>
        <time>2015-06-21T08:56:07Z</time>
      </trkpt>
      <trkpt lat="36.535039" lon="-5.381730">
        <ele>225.081</ele>
        <time>2015-06-21T08:56:08Z</time>
      </trkpt>
      <trkpt lat="36.534994" lon="-5.381568">
        <ele>225.093</ele>
        <time>2015-06-21T08:56:14Z</time>
      </trkpt>
      <trkpt lat="36.534978" lon="-5.381550">
        <ele>225.464</ele>
        <time>2015-06-21T08:56:15Z</time>
      </trkpt>
      <trkpt lat="36.534963" lon="-5.381536">
        <ele>225.806</ele>
        <time>2015-06-21T08:56:16Z</time>
      </trkpt>
      <trkpt lat="36.534948" lon="-5.381521">
        <ele>226.216</ele>
        <time>2015-06-21T08:56:17Z</time>
      </trkpt>
      <trkpt lat="36.534929" lon="-5.381507">
        <ele>226.608</ele>
        <time>2015-06-21T08:56:18Z</time>
      </trkpt>
      <trkpt lat="36.534907" lon="-5.381500">
        <ele>227.017</ele>
        <time>2015-06-21T08:56:19Z</time>
      </trkpt>
      <trkpt lat="36.534882" lon="-5.381501">
        <ele>227.073</ele>
        <time>2015-06-21T08:56:20Z</time>
      </trkpt>
      <trkpt lat="36.534785" lon="-5.381535">
        <ele>227.056</ele>
        <time>2015-06-21T08:56:25Z</time>
      </trkpt>
      <trkpt lat="36.534784" lon="-5.381535">
        <ele>227.066</ele>
        <time>2015-06-21T08:56:26Z</time>
      </trkpt>
      <trkpt lat="36.534769" lon="-5.381576">
        <ele>227.050</ele>
        <time>2015-06-21T08:56:34Z</time>
      </trkpt>
      <trkpt lat="36.534753" lon="-5.381599">
        <ele>227.497</ele>
        <time>2015-06-21T08:56:35Z</time>
      </trkpt>
      <trkpt lat="36.534739" lon="-5.381623">
        <ele>228.066</ele>
        <time>2015-06-21T08:56:36Z</time>
      </trkpt>
      <trkpt lat="36.534730" lon="-5.381653">
        <ele>228.438</ele>
        <time>2015-06-21T08:56:37Z</time>
      </trkpt>
      <trkpt lat="36.534727" lon="-5.381684">
        <ele>228.825</ele>
        <time>2015-06-21T08:56:38Z</time>
      </trkpt>
      <trkpt lat="36.534726" lon="-5.381716">
        <ele>229.226</ele>
        <time>2015-06-21T08:56:39Z</time>
      </trkpt>
      <trkpt lat="36.534725" lon="-5.381748">
        <ele>229.208</ele>
        <time>2015-06-21T08:56:40Z</time>
      </trkpt>
      <trkpt lat="36.534767" lon="-5.381969">
        <ele>229.208</ele>
        <time>2015-06-21T08:56:47Z</time>
      </trkpt>
      <trkpt lat="36.534812" lon="-5.382217">
        <ele>229.243</ele>
        <time>2015-06-21T08:56:54Z</time>
      </trkpt>
      <trkpt lat="36.534820" lon="-5.382327">
        <ele>229.639</ele>
        <time>2015-06-21T08:56:57Z</time>
      </trkpt>
      <trkpt lat="36.534823" lon="-5.382361">
        <ele>230.082</ele>
        <time>2015-06-21T08:56:58Z</time>
      </trkpt>
      <trkpt lat="36.534827" lon="-5.382395">
        <ele>230.432</ele>
        <time>2015-06-21T08:56:59Z</time>
      </trkpt>
      <trkpt lat="36.534828" lon="-5.382427">
        <ele>230.846</ele>
        <time>2015-06-21T08:57:00Z</time>
      </trkpt>
      <trkpt lat="36.534830" lon="-5.382462">
        <ele>231.283</ele>
        <time>2015-06-21T08:57:01Z</time>
      </trkpt>
      <trkpt lat="36.534832" lon="-5.382533">
        <ele>231.252</ele>
        <time>2015-06-21T08:57:03Z</time>
      </trkpt>
      <trkpt lat="36.534830" lon="-5.382568">
        <ele>231.264</ele>
        <time>2015-06-21T08:57:04Z</time>
      </trkpt>
      <trkpt lat="36.534785" lon="-5.382758">
        <ele>231.298</ele>
        <time>2015-06-21T08:57:10Z</time>
      </trkpt>
      <trkpt lat="36.534775" lon="-5.382789">
        <ele>231.615</ele>
        <time>2015-06-21T08:57:11Z</time>
      </trkpt>
      <trkpt lat="36.534765" lon="-5.382821">
        <ele>232.026</ele>
        <time>2015-06-21T08:57:12Z</time>
      </trkpt>
      <trkpt lat="36.534755" lon="-5.382854">
        <ele>232.408</ele>
        <time>2015-06-21T08:57:13Z</time>
      </trkpt>
      <trkpt lat="36.534742" lon="-5.382885">
        <ele>232.870</ele>
        <time>2015-06-21T08:57:14Z</time>
      </trkpt>
      <trkpt lat="36.534727" lon="-5.382918">
        <ele>233.226</ele>
        <time>2015-06-21T08:57:15Z</time>
      </trkpt>
      <trkpt lat="36.534650" lon="-5.383025">
        <ele>233.219</ele>
        <time>2015-06-21T08:57:19Z</time>
      </trkpt>
      <trkpt lat="36.534493" lon="-5.383103">
        <ele>233.219</ele>
        <time>2015-06-21T08:57:25Z</time>
      </trkpt>
      <trkpt lat="36.534464" lon="-5.383101">
        <ele>233.643</ele>
        <time>2015-06-21T08:57:26Z</time>
      </trkpt>
      <trkpt lat="36.534436" lon="-5.383095">
        <ele>234.070</ele>
        <time>2015-06-21T08:57:27Z</time>
      </trkpt>
      <trkpt lat="36.534406" lon="-5.383090">
        <ele>234.499</ele>
        <time>2015-06-21T08:57:28Z</time>
      </trkpt>
      <trkpt lat="36.534377" lon="-5.383086">
        <ele>234.811</ele>
        <time>2015-06-21T08:57:29Z</time>
      </trkpt>
      <trkpt lat="36.534349" lon="-5.383075">
        <ele>235.267</ele>
        <time>2015-06-21T08:57:30Z</time>
      </trkpt>
      <trkpt lat="36.534323" lon="-5.383063">
        <ele>235.281</ele>
        <time>2015-06-21T08:57:31Z</time>
      </trkpt>
      <trkpt lat="36.534138" lon="-5.382950">
        <ele>235.219</ele>
        <time>2015-06-21T08:57:39Z</time>
      </trkpt>
      <trkpt lat="36.534048" lon="-5.382896">
        <ele>235.808</ele>
        <time>2015-06-21T08:57:43Z</time>
      </trkpt>
      <trkpt lat="36.534026" lon="-5.382882">
        <ele>236.297</ele>
        <time>2015-06-21T08:57:44Z</time>
      </trkpt>
      <trkpt lat="36.534005" lon="-5.382866">
        <ele>237.063</ele>
        <time>2015-06-21T08:57:45Z</time>
      </trkpt>
      <trkpt lat="36.533983" lon="-5.382853">
        <ele>237.646</ele>
        <time>2015-06-21T08:57:46Z</time>
      </trkpt>
      <trkpt lat="36.533961" lon="-5.382839">
        <ele>237.656</ele>
        <time>2015-06-21T08:57:47Z</time>
      </trkpt>
      <trkpt lat="36.533821" lon="-5.382750">
        <ele>238.040</ele>
        <time>2015-06-21T08:57:53Z</time>
      </trkpt>
      <trkpt lat="36.533800" lon="-5.382734">
        <ele>238.497</ele>
        <time>2015-06-21T08:57:54Z</time>
      </trkpt>
      <trkpt lat="36.533780" lon="-5.382719">
        <ele>238.876</ele>
        <time>2015-06-21T08:57:55Z</time>
      </trkpt>
      <trkpt lat="36.533761" lon="-5.382703">
        <ele>239.248</ele>
        <time>2015-06-21T08:57:56Z</time>
      </trkpt>
      <trkpt lat="36.533745" lon="-5.382687">
        <ele>239.675</ele>
        <time>2015-06-21T08:57:57Z</time>
      </trkpt>
      <trkpt lat="36.533639" lon="-5.382605">
        <ele>239.628</ele>
        <time>2015-06-21T08:58:02Z</time>
      </trkpt>
      <trkpt lat="36.533563" lon="-5.382534">
        <ele>240.020</ele>
        <time>2015-06-21T08:58:06Z</time>
      </trkpt>
      <trkpt lat="36.533544" lon="-5.382515">
        <ele>240.608</ele>
        <time>2015-06-21T08:58:07Z</time>
      </trkpt>
      <trkpt lat="36.533523" lon="-5.382496">
        <ele>241.078</ele>
        <time>2015-06-21T08:58:08Z</time>
      </trkpt>
      <trkpt lat="36.533501" lon="-5.382479">
        <ele>241.464</ele>
        <time>2015-06-21T08:58:09Z</time>
      </trkpt>
      <trkpt lat="36.533480" lon="-5.382462">
        <ele>241.817</ele>
        <time>2015-06-21T08:58:10Z</time>
      </trkpt>
      <trkpt lat="36.533269" lon="-5.382315">
        <ele>241.847</ele>
        <time>2015-06-21T08:58:20Z</time>
      </trkpt>
      <trkpt lat="36.533210" lon="-5.382271">
        <ele>242.261</ele>
        <time>2015-06-21T08:58:23Z</time>
      </trkpt>
      <trkpt lat="36.533189" lon="-5.382257">
        <ele>242.648</ele>
        <time>2015-06-21T08:58:24Z</time>
      </trkpt>
      <trkpt lat="36.533165" lon="-5.382248">
        <ele>243.017</ele>
        <time>2015-06-21T08:58:25Z</time>
      </trkpt>
      <trkpt lat="36.533141" lon="-5.382241">
        <ele>243.419</ele>
        <time>2015-06-21T08:58:26Z</time>
      </trkpt>
      <trkpt lat="36.533119" lon="-5.382232">
        <ele>243.856</ele>
        <time>2015-06-21T08:58:27Z</time>
      </trkpt>
      <trkpt lat="36.533097" lon="-5.382226">
        <ele>243.859</ele>
        <time>2015-06-21T08:58:28Z</time>
      </trkpt>
      <trkpt lat="36.532970" lon="-5.382220">
        <ele>243.814</ele>
        <time>2015-06-21T08:58:33Z</time>
      </trkpt>
      <trkpt lat="36.532853" lon="-5.382254">
        <ele>244.208</ele>
        <time>2015-06-21T08:58:38Z</time>
      </trkpt>
      <trkpt lat="36.532831" lon="-5.382259">
        <ele>244.626</ele>
        <time>2015-06-21T08:58:39Z</time>
      </trkpt>
      <trkpt lat="36.532809" lon="-5.382265">
        <ele>245.272</ele>
        <time>2015-06-21T08:58:40Z</time>
      </trkpt>
      <trkpt lat="36.532788" lon="-5.382274">
        <ele>245.665</ele>
        <time>2015-06-21T08:58:41Z</time>
      </trkpt>
      <trkpt lat="36.532768" lon="-5.382284">
        <ele>246.045</ele>
        <time>2015-06-21T08:58:42Z</time>
      </trkpt>
      <trkpt lat="36.532652" lon="-5.382331">
        <ele>246.039</ele>
        <time>2015-06-21T08:58:47Z</time>
      </trkpt>
      <trkpt lat="36.532509" lon="-5.382327">
        <ele>246.426</ele>
        <time>2015-06-21T08:58:53Z</time>
      </trkpt>
      <trkpt lat="36.532488" lon="-5.382317">
        <ele>246.865</ele>
        <time>2015-06-21T08:58:54Z</time>
      </trkpt>
      <trkpt lat="36.532466" lon="-5.382303">
        <ele>247.217</ele>
        <time>2015-06-21T08:58:55Z</time>
      </trkpt>
      <trkpt lat="36.532443" lon="-5.382290">
        <ele>247.628</ele>
        <time>2015-06-21T08:58:56Z</time>
      </trkpt>
      <trkpt lat="36.532422" lon="-5.382280">
        <ele>248.089</ele>
        <time>2015-06-21T08:58:57Z</time>
      </trkpt>
      <trkpt lat="36.532350" lon="-5.382214">
        <ele>248.017</ele>
        <time>2015-06-21T08:59:01Z</time>
      </trkpt>
      <trkpt lat="36.532322" lon="-5.382135">
        <ele>248.608</ele>
        <time>2015-06-21T08:59:04Z</time>
      </trkpt>
      <trkpt lat="36.532319" lon="-5.382104">
        <ele>249.083</ele>
        <time>2015-06-21T08:59:05Z</time>
      </trkpt>
      <trkpt lat="36.532313" lon="-5.382073">
        <ele>249.469</ele>
        <time>2015-06-21T08:59:06Z</time>
      </trkpt>
      <trkpt lat="36.532317" lon="-5.382047">
        <ele>249.892</ele>
        <time>2015-06-21T08:59:07Z</time>
      </trkpt>
      <trkpt lat="36.532325" lon="-5.382024">
        <ele>250.452</ele>
        <time>2015-06-21T08:59:08Z</time>
      </trkpt>
      <trkpt lat="36.532383" lon="-5.381936">
        <ele>250.466</ele>
        <time>2015-06-21T08:59:12Z</time>
      </trkpt>
      <trkpt lat="36.532545" lon="-5.381832">
        <ele>250.873</ele>
        <time>2015-06-21T08:59:19Z</time>
      </trkpt>
      <trkpt lat="36.532567" lon="-5.381828">
        <ele>251.272</ele>
        <time>2015-06-21T08:59:20Z</time>
      </trkpt>
      <trkpt lat="36.532587" lon="-5.381831">
        <ele>251.614</ele>
        <time>2015-06-21T08:59:21Z</time>
      </trkpt>
      <trkpt lat="36.532596" lon="-5.381834">
        <ele>252.042</ele>
        <time>2015-06-21T08:59:22Z</time>
      </trkpt>
      <trkpt lat="36.532595" lon="-5.381836">
        <ele>252.422</ele>
        <time>2015-06-21T08:59:23Z</time>
      </trkpt>
      <trkpt lat="36.532595" lon="-5.381836">
        <ele>252.414</ele>
        <time>2015-06-21T08:59:31Z</time>
      </trkpt>
      <trkpt lat="36.532595" lon="-5.381836">
        <ele>252.408</ele>
        <time>2015-06-21T08:59:32Z</time>
      </trkpt>
      <trkpt lat="36.532595" lon="-5.381836">
        <ele>252.425</ele>
        <time>2015-06-21T08:59:36Z</time>
      </trkpt>
      <trkpt lat="36.532595" lon="-5.381836">
        <ele>252.451</ele>
        <time>2015-06-21T08:59:39Z</time>
      </trkpt>
      <trkpt lat="36.532599" lon="-5.381832">
        <ele>252.474</ele>
        <time>2015-06-21T08:59:42Z</time>
      </trkpt>
      <trkpt lat="36.532608" lon="-5.381838">
        <ele>252.444</ele>
        <time>2015-06-21T08:59:43Z</time>
      </trkpt>
      <trkpt lat="36.532665" lon="-5.381840">
        <ele>252.418</ele>
        <time>2015-06-21T08:59:47Z</time>
      </trkpt>
      <trkpt lat="36.532701" lon="-5.381837">
        <ele>252.475</ele>
        <time>2015-06-21T08:59:49Z</time>
      </trkpt>
      <trkpt lat="36.532829" lon="-5.381787">
        <ele>252.834</ele>
        <time>2015-06-21T08:59:55Z</time>
      </trkpt>
      <trkpt lat="36.532850" lon="-5.381782">
        <ele>253.236</ele>
        <time>2015-06-21T08:59:56Z</time>
      </trkpt>
      <trkpt lat="36.532866" lon="-5.381770">
        <ele>253.684</ele>
        <time>2015-06-21T08:59:57Z</time>
      </trkpt>
      <trkpt lat="36.532888" lon="-5.381765">
        <ele>254.207</ele>
        <time>2015-06-21T08:59:58Z</time>
      </trkpt>
      <trkpt lat="36.532908" lon="-5.381759">
        <ele>254.617</ele>
        <time>2015-06-21T08:59:59Z</time>
      </trkpt>
      <trkpt lat="36.532947" lon="-5.381741">
        <ele>254.608</ele>
        <time>2015-06-21T09:00:01Z</time>
      </trkpt>
      <trkpt lat="36.533057" lon="-5.381645">
        <ele>254.619</ele>
        <time>2015-06-21T09:00:06Z</time>
      </trkpt>
      <trkpt lat="36.533092" lon="-5.381606">
        <ele>254.635</ele>
        <time>2015-06-21T09:00:08Z</time>
      </trkpt>
      <trkpt lat="36.533107" lon="-5.381583">
        <ele>255.088</ele>
        <time>2015-06-21T09:00:09Z</time>
      </trkpt>
      <trkpt lat="36.533118" lon="-5.381560">
        <ele>255.498</ele>
        <time>2015-06-21T09:00:10Z</time>
      </trkpt>
      <trkpt lat="36.533132" lon="-5.381532">
        <ele>255.862</ele>
        <time>2015-06-21T09:00:11Z</time>
      </trkpt>
      <trkpt lat="36.533142" lon="-5.381503">
        <ele>256.269</ele>
        <time>2015-06-21T09:00:12Z</time>
      </trkpt>
      <trkpt lat="36.533154" lon="-5.381476">
        <ele>256.678</ele>
        <time>2015-06-21T09:00:13Z</time>
      </trkpt>
      <trkpt lat="36.533179" lon="-5.381426">
        <ele>256.690</ele>
        <time>2015-06-21T09:00:15Z</time>
      </trkpt>
      <trkpt lat="36.533223" lon="-5.381361">
        <ele>257.031</ele>
        <time>2015-06-21T09:00:18Z</time>
      </trkpt>
      <trkpt lat="36.533237" lon="-5.381341">
        <ele>257.661</ele>
        <time>2015-06-21T09:00:19Z</time>
      </trkpt>
      <trkpt lat="36.533252" lon="-5.381316">
        <ele>258.007</ele>
        <time>2015-06-21T09:00:20Z</time>
      </trkpt>
      <trkpt lat="36.533258" lon="-5.381288">
        <ele>258.408</ele>
        <time>2015-06-21T09:00:21Z</time>
      </trkpt>
      <trkpt lat="36.533256" lon="-5.381257">
        <ele>258.864</ele>
        <time>2015-06-21T09:00:22Z</time>
      </trkpt>
      <trkpt lat="36.533258" lon="-5.381228">
        <ele>258.870</ele>
        <time>2015-06-21T09:00:23Z</time>
      </trkpt>
      <trkpt lat="36.533294" lon="-5.381044">
        <ele>258.823</ele>
        <time>2015-06-21T09:00:29Z</time>
      </trkpt>
      <trkpt lat="36.533285" lon="-5.380914">
        <ele>259.273</ele>
        <time>2015-06-21T09:00:33Z</time>
      </trkpt>
      <trkpt lat="36.533280" lon="-5.380883">
        <ele>259.647</ele>
        <time>2015-06-21T09:00:34Z</time>
      </trkpt>
      <trkpt lat="36.533274" lon="-5.380852">
        <ele>260.064</ele>
        <time>2015-06-21T09:00:35Z</time>
      </trkpt>
      <trkpt lat="36.533271" lon="-5.380822">
        <ele>260.683</ele>
        <time>2015-06-21T09:00:36Z</time>
      </trkpt>
      <trkpt lat="36.533266" lon="-5.380793">
        <ele>261.095</ele>
        <time>2015-06-21T09:00:37Z</time>
      </trkpt>
      <trkpt lat="36.533183" lon="-5.380604">
        <ele>261.092</ele>
        <time>2015-06-21T09:00:44Z</time>
      </trkpt>
      <trkpt lat="36.533137" lon="-5.380487">
        <ele>261.473</ele>
        <time>2015-06-21T09:00:48Z</time>
      </trkpt>
      <trkpt lat="36.533125" lon="-5.380460">
        <ele>261.820</ele>
        <time>2015-06-21T09:00:49Z</time>
      </trkpt>
      <trkpt lat="36.533111" lon="-5.380435">
        <ele>262.208</ele>
        <time>2015-06-21T09:00:50Z</time>
      </trkpt>
      <trkpt lat="36.533096" lon="-5.380413">
        <ele>262.630</ele>
        <time>2015-06-21T09:00:51Z</time>
      </trkpt>
      <trkpt lat="36.533079" lon="-5.380393">
        <ele>263.066</ele>
        <time>2015-06-21T09:00:52Z</time>
      </trkpt>
      <trkpt lat="36.533034" lon="-5.380220">
        <ele>263.039</ele>
        <time>2015-06-21T09:00:58Z</time>
      </trkpt>
      <trkpt lat="36.533014" lon="-5.380132">
        <ele>263.429</ele>
        <time>2015-06-21T09:01:01Z</time>
      </trkpt>
      <trkpt lat="36.533002" lon="-5.380104">
        <ele>264.223</ele>
        <time>2015-06-21T09:01:02Z</time>
      </trkpt>
      <trkpt lat="36.532993" lon="-5.380078">
        <ele>264.680</ele>
        <time>2015-06-21T09:01:03Z</time>
      </trkpt>
      <trkpt lat="36.532984" lon="-5.380053">
        <ele>265.019</ele>
        <time>2015-06-21T09:01:04Z</time>
      </trkpt>
      <trkpt lat="36.532970" lon="-5.380003">
        <ele>265.061</ele>
        <time>2015-06-21T09:01:06Z</time>
      </trkpt>
      <trkpt lat="36.532955" lon="-5.379889">
        <ele>265.062</ele>
        <time>2015-06-21T09:01:10Z</time>
      </trkpt>
      <trkpt lat="36.532939" lon="-5.379801">
        <ele>265.483</ele>
        <time>2015-06-21T09:01:13Z</time>
      </trkpt>
      <trkpt lat="36.532934" lon="-5.379773">
        <ele>266.011</ele>
        <time>2015-06-21T09:01:14Z</time>
      </trkpt>
      <trkpt lat="36.532926" lon="-5.379746">
        <ele>266.408</ele>
        <time>2015-06-21T09:01:15Z</time>
      </trkpt>
      <trkpt lat="36.532918" lon="-5.379719">
        <ele>266.887</ele>
        <time>2015-06-21T09:01:16Z</time>
      </trkpt>
      <trkpt lat="36.532913" lon="-5.379688">
        <ele>267.233</ele>
        <time>2015-06-21T09:01:17Z</time>
      </trkpt>
      <trkpt lat="36.532889" lon="-5.379516">
        <ele>267.266</ele>
        <time>2015-06-21T09:01:23Z</time>
      </trkpt>
      <trkpt lat="36.532870" lon="-5.379381">
        <ele>268.016</ele>
        <time>2015-06-21T09:01:27Z</time>
      </trkpt>
      <trkpt lat="36.532860" lon="-5.379350">
        <ele>268.430</ele>
        <time>2015-06-21T09:01:28Z</time>
      </trkpt>
      <trkpt lat="36.532853" lon="-5.379321">
        <ele>269.047</ele>
        <time>2015-06-21T09:01:29Z</time>
      </trkpt>
      <trkpt lat="36.532850" lon="-5.379293">
        <ele>269.456</ele>
        <time>2015-06-21T09:01:30Z</time>
      </trkpt>
      <trkpt lat="36.532824" lon="-5.379115">
        <ele>269.438</ele>
        <time>2015-06-21T09:01:36Z</time>
      </trkpt>
      <trkpt lat="36.532804" lon="-5.379023">
        <ele>269.891</ele>
        <time>2015-06-21T09:01:39Z</time>
      </trkpt>
      <trkpt lat="36.532795" lon="-5.378994">
        <ele>270.281</ele>
        <time>2015-06-21T09:01:40Z</time>
      </trkpt>
      <trkpt lat="36.532787" lon="-5.378965">
        <ele>270.619</ele>
        <time>2015-06-21T09:01:41Z</time>
      </trkpt>
      <trkpt lat="36.532781" lon="-5.378933">
        <ele>271.008</ele>
        <time>2015-06-21T09:01:42Z</time>
      </trkpt>
      <trkpt lat="36.532774" lon="-5.378903">
        <ele>271.470</ele>
        <time>2015-06-21T09:01:43Z</time>
      </trkpt>
      <trkpt lat="36.532752" lon="-5.378813">
        <ele>271.496</ele>
        <time>2015-06-21T09:01:46Z</time>
      </trkpt>
      <trkpt lat="36.532711" lon="-5.378634">
        <ele>271.859</ele>
        <time>2015-06-21T09:01:52Z</time>
      </trkpt>
      <trkpt lat="36.532705" lon="-5.378606">
        <ele>272.259</ele>
        <time>2015-06-21T09:01:53Z</time>
      </trkpt>
      <trkpt lat="36.532701" lon="-5.378577">
        <ele>272.663</ele>
        <time>2015-06-21T09:01:54Z</time>
      </trkpt>
      <trkpt lat="36.532699" lon="-5.378548">
        <ele>273.070</ele>
        <time>2015-06-21T09:01:55Z</time>
      </trkpt>
      <trkpt lat="36.532701" lon="-5.378519">
        <ele>273.439</ele>
        <time>2015-06-21T09:01:56Z</time>
      </trkpt>
      <trkpt lat="36.532656" lon="-5.378415">
        <ele>273.461</ele>
        <time>2015-06-21T09:02:00Z</time>
      </trkpt>
      <trkpt lat="36.532616" lon="-5.378273">
        <ele>273.873</ele>
        <time>2015-06-21T09:02:05Z</time>
      </trkpt>
      <trkpt lat="36.532612" lon="-5.378243">
        <ele>274.285</ele>
        <time>2015-06-21T09:02:06Z</time>
      </trkpt>
      <trkpt lat="36.532606" lon="-5.378219">
        <ele>274.613</ele>
        <time>2015-06-21T09:02:07Z</time>
      </trkpt>
      <trkpt lat="36.532605" lon="-5.378198">
        <ele>275.008</ele>
        <time>2015-06-21T09:02:08Z</time>
      </trkpt>
      <trkpt lat="36.532602" lon="-5.378184">
        <ele>275.458</ele>
        <time>2015-06-21T09:02:09Z</time>
      </trkpt>
      <trkpt lat="36.532601" lon="-5.378125">
        <ele>275.444</ele>
        <time>2015-06-21T09:02:12Z</time>
      </trkpt>
      <trkpt lat="36.532561" lon="-5.377984">
        <ele>275.457</ele>
        <time>2015-06-21T09:02:18Z</time>
      </trkpt>
      <trkpt lat="36.532501" lon="-5.377865">
        <ele>275.887</ele>
        <time>2015-06-21T09:02:23Z</time>
      </trkpt>
      <trkpt lat="36.532493" lon="-5.377839">
        <ele>276.231</ele>
        <time>2015-06-21T09:02:24Z</time>
      </trkpt>
      <trkpt lat="36.532484" lon="-5.377815">
        <ele>276.688</ele>
        <time>2015-06-21T09:02:25Z</time>
      </trkpt>
      <trkpt lat="36.532474" lon="-5.377793">
        <ele>277.297</ele>
        <time>2015-06-21T09:02:26Z</time>
      </trkpt>
      <trkpt lat="36.532462" lon="-5.377768">
        <ele>277.629</ele>
        <time>2015-06-21T09:02:27Z</time>
      </trkpt>
      <trkpt lat="36.532423" lon="-5.377582">
        <ele>278.026</ele>
        <time>2015-06-21T09:02:34Z</time>
      </trkpt>
      <trkpt lat="36.532419" lon="-5.377554">
        <ele>278.447</ele>
        <time>2015-06-21T09:02:35Z</time>
      </trkpt>
      <trkpt lat="36.532414" lon="-5.377528">
        <ele>278.811</ele>
        <time>2015-06-21T09:02:36Z</time>
      </trkpt>
      <trkpt lat="36.532411" lon="-5.377503">
        <ele>279.208</ele>
        <time>2015-06-21T09:02:37Z</time>
      </trkpt>
      <trkpt lat="36.532405" lon="-5.377479">
        <ele>279.633</ele>
        <time>2015-06-21T09:02:38Z</time>
      </trkpt>
      <trkpt lat="36.532353" lon="-5.377364">
        <ele>279.619</ele>
        <time>2015-06-21T09:02:43Z</time>
      </trkpt>
      <trkpt lat="36.532260" lon="-5.377302">
        <ele>280.082</ele>
        <time>2015-06-21T09:02:48Z</time>
      </trkpt>
      <trkpt lat="36.532238" lon="-5.377305">
        <ele>280.482</ele>
        <time>2015-06-21T09:02:49Z</time>
      </trkpt>
      <trkpt lat="36.532218" lon="-5.377307">
        <ele>280.826</ele>
        <time>2015-06-21T09:02:50Z</time>
      </trkpt>
      <trkpt lat="36.532198" lon="-5.377312">
        <ele>281.273</ele>
        <time>2015-06-21T09:02:51Z</time>
      </trkpt>
      <trkpt lat="36.532179" lon="-5.377310">
        <ele>281.652</ele>
        <time>2015-06-21T09:02:52Z</time>
      </trkpt>
      <trkpt lat="36.532169" lon="-5.377292">
        <ele>281.664</ele>
        <time>2015-06-21T09:02:53Z</time>
      </trkpt>
      <trkpt lat="36.532133" lon="-5.377291">
        <ele>281.664</ele>
        <time>2015-06-21T09:02:55Z</time>
      </trkpt>
      <trkpt lat="36.532069" lon="-5.377364">
        <ele>281.606</ele>
        <time>2015-06-21T09:02:59Z</time>
      </trkpt>
      <trkpt lat="36.532058" lon="-5.377394">
        <ele>282.016</ele>
        <time>2015-06-21T09:03:00Z</time>
      </trkpt>
      <trkpt lat="36.532041" lon="-5.377417">
        <ele>282.608</ele>
        <time>2015-06-21T09:03:01Z</time>
      </trkpt>
      <trkpt lat="36.532029" lon="-5.377439">
        <ele>283.067</ele>
        <time>2015-06-21T09:03:02Z</time>
      </trkpt>
      <trkpt lat="36.532016" lon="-5.377462">
        <ele>283.453</ele>
        <time>2015-06-21T09:03:03Z</time>
      </trkpt>
      <trkpt lat="36.532009" lon="-5.377490">
        <ele>283.816</ele>
        <time>2015-06-21T09:03:04Z</time>
      </trkpt>
      <trkpt lat="36.531961" lon="-5.377647">
        <ele>283.846</ele>
        <time>2015-06-21T09:03:11Z</time>
      </trkpt>
      <trkpt lat="36.531955" lon="-5.377671">
        <ele>284.220</ele>
        <time>2015-06-21T09:03:12Z</time>
      </trkpt>
      <trkpt lat="36.531952" lon="-5.377697">
        <ele>284.617</ele>
        <time>2015-06-21T09:03:13Z</time>
      </trkpt>
      <trkpt lat="36.531951" lon="-5.377725">
        <ele>285.076</ele>
        <time>2015-06-21T09:03:14Z</time>
      </trkpt>
      <trkpt lat="36.531953" lon="-5.377752">
        <ele>285.448</ele>
        <time>2015-06-21T09:03:15Z</time>
      </trkpt>
      <trkpt lat="36.531954" lon="-5.377778">
        <ele>285.838</ele>
        <time>2015-06-21T09:03:16Z</time>
      </trkpt>
      <trkpt lat="36.531960" lon="-5.377829">
        <ele>285.870</ele>
        <time>2015-06-21T09:03:18Z</time>
      </trkpt>
      <trkpt lat="36.531964" lon="-5.377989">
        <ele>285.817</ele>
        <time>2015-06-21T09:03:24Z</time>
      </trkpt>
      <trkpt lat="36.531965" lon="-5.378072">
        <ele>286.208</ele>
        <time>2015-06-21T09:03:27Z</time>
      </trkpt>
      <trkpt lat="36.531964" lon="-5.378096">
        <ele>286.684</ele>
        <time>2015-06-21T09:03:28Z</time>
      </trkpt>
      <trkpt lat="36.531964" lon="-5.378121">
        <ele>287.020</ele>
        <time>2015-06-21T09:03:29Z</time>
      </trkpt>
      <trkpt lat="36.531964" lon="-5.378143">
        <ele>288.043</ele>
        <time>2015-06-21T09:03:30Z</time>
      </trkpt>
      <trkpt lat="36.531959" lon="-5.378223">
        <ele>288.093</ele>
        <time>2015-06-21T09:03:33Z</time>
      </trkpt>
      <trkpt lat="36.531956" lon="-5.378407">
        <ele>288.027</ele>
        <time>2015-06-21T09:03:40Z</time>
      </trkpt>
      <trkpt lat="36.531931" lon="-5.378505">
        <ele>288.434</ele>
        <time>2015-06-21T09:03:44Z</time>
      </trkpt>
      <trkpt lat="36.531923" lon="-5.378525">
        <ele>288.873</ele>
        <time>2015-06-21T09:03:45Z</time>
      </trkpt>
      <trkpt lat="36.531916" lon="-5.378549">
        <ele>289.245</ele>
        <time>2015-06-21T09:03:46Z</time>
      </trkpt>
      <trkpt lat="36.531910" lon="-5.378572">
        <ele>289.674</ele>
        <time>2015-06-21T09:03:47Z</time>
      </trkpt>
      <trkpt lat="36.531898" lon="-5.378594">
        <ele>290.056</ele>
        <time>2015-06-21T09:03:48Z</time>
      </trkpt>
      <trkpt lat="36.531829" lon="-5.378721">
        <ele>290.021</ele>
        <time>2015-06-21T09:03:54Z</time>
      </trkpt>
      <trkpt lat="36.531783" lon="-5.378799">
        <ele>290.408</ele>
        <time>2015-06-21T09:03:58Z</time>
      </trkpt>
      <trkpt lat="36.531770" lon="-5.378816">
        <ele>290.868</ele>
        <time>2015-06-21T09:03:59Z</time>
      </trkpt>
      <trkpt lat="36.531752" lon="-5.378823">
        <ele>291.224</ele>
        <time>2015-06-21T09:04:00Z</time>
      </trkpt>
      <trkpt lat="36.531730" lon="-5.378831">
        <ele>291.617</ele>
        <time>2015-06-21T09:04:01Z</time>
      </trkpt>
      <trkpt lat="36.531711" lon="-5.378847">
        <ele>292.017</ele>
        <time>2015-06-21T09:04:02Z</time>
      </trkpt>
      <trkpt lat="36.531674" lon="-5.378890">
        <ele>292.051</ele>
        <time>2015-06-21T09:04:05Z</time>
      </trkpt>
      <trkpt lat="36.531612" lon="-5.378959">
        <ele>292.018</ele>
        <time>2015-06-21T09:04:09Z</time>
      </trkpt>
      <trkpt lat="36.531555" lon="-5.379014">
        <ele>292.097</ele>
        <time>2015-06-21T09:04:12Z</time>
      </trkpt>
      <trkpt lat="36.531493" lon="-5.379033">
        <ele>292.419</ele>
        <time>2015-06-21T09:04:15Z</time>
      </trkpt>
      <trkpt lat="36.531472" lon="-5.379040">
        <ele>292.899</ele>
        <time>2015-06-21T09:04:16Z</time>
      </trkpt>
      <trkpt lat="36.531450" lon="-5.379046">
        <ele>293.207</ele>
        <time>2015-06-21T09:04:17Z</time>
      </trkpt>
      <trkpt lat="36.531426" lon="-5.379052">
        <ele>293.627</ele>
        <time>2015-06-21T09:04:18Z</time>
      </trkpt>
      <trkpt lat="36.531404" lon="-5.379056">
        <ele>294.008</ele>
        <time>2015-06-21T09:04:19Z</time>
      </trkpt>
      <trkpt lat="36.531282" lon="-5.379070">
        <ele>294.440</ele>
        <time>2015-06-21T09:04:25Z</time>
      </trkpt>
      <trkpt lat="36.531261" lon="-5.379068">
        <ele>294.876</ele>
        <time>2015-06-21T09:04:26Z</time>
      </trkpt>
      <trkpt lat="36.531242" lon="-5.379069">
        <ele>295.229</ele>
        <time>2015-06-21T09:04:27Z</time>
      </trkpt>
      <trkpt lat="36.531222" lon="-5.379073">
        <ele>295.859</ele>
        <time>2015-06-21T09:04:28Z</time>
      </trkpt>
      <trkpt lat="36.531201" lon="-5.379079">
        <ele>296.253</ele>
        <time>2015-06-21T09:04:29Z</time>
      </trkpt>
      <trkpt lat="36.531117" lon="-5.379112">
        <ele>296.230</ele>
        <time>2015-06-21T09:04:33Z</time>
      </trkpt>
      <trkpt lat="36.530986" lon="-5.379104">
        <ele>296.249</ele>
        <time>2015-06-21T09:04:39Z</time>
      </trkpt>
      <trkpt lat="36.530939" lon="-5.379100">
        <ele>296.671</ele>
        <time>2015-06-21T09:04:41Z</time>
      </trkpt>
      <trkpt lat="36.530915" lon="-5.379097">
        <ele>297.092</ele>
        <time>2015-06-21T09:04:42Z</time>
      </trkpt>
      <trkpt lat="36.530894" lon="-5.379096">
        <ele>297.473</ele>
        <time>2015-06-21T09:04:43Z</time>
      </trkpt>
      <trkpt lat="36.530871" lon="-5.379091">
        <ele>297.820</ele>
        <time>2015-06-21T09:04:44Z</time>
      </trkpt>
      <trkpt lat="36.530849" lon="-5.379081">
        <ele>298.208</ele>
        <time>2015-06-21T09:04:45Z</time>
      </trkpt>
      <trkpt lat="36.530828" lon="-5.379076">
        <ele>298.280</ele>
        <time>2015-06-21T09:04:46Z</time>
      </trkpt>
      <trkpt lat="36.530667" lon="-5.379023">
        <ele>298.626</ele>
        <time>2015-06-21T09:04:54Z</time>
      </trkpt>
      <trkpt lat="36.530644" lon="-5.379017">
        <ele>299.029</ele>
        <time>2015-06-21T09:04:55Z</time>
      </trkpt>
      <trkpt lat="36.530622" lon="-5.379012">
        <ele>299.629</ele>
        <time>2015-06-21T09:04:56Z</time>
      </trkpt>
      <trkpt lat="36.530601" lon="-5.379003">
        <ele>300.063</ele>
        <time>2015-06-21T09:04:57Z</time>
      </trkpt>
      <trkpt lat="36.530582" lon="-5.378990">
        <ele>300.480</ele>
        <time>2015-06-21T09:04:58Z</time>
      </trkpt>
      <trkpt lat="36.530502" lon="-5.378946">
        <ele>300.479</ele>
        <time>2015-06-21T09:05:02Z</time>
      </trkpt>
      <trkpt lat="36.530399" lon="-5.378917">
        <ele>300.851</ele>
        <time>2015-06-21T09:05:07Z</time>
      </trkpt>
      <trkpt lat="36.530377" lon="-5.378910">
        <ele>301.247</ele>
        <time>2015-06-21T09:05:08Z</time>
      </trkpt>
      <trkpt lat="36.530355" lon="-5.378908">
        <ele>301.629</ele>
        <time>2015-06-21T09:05:09Z</time>
      </trkpt>
      <trkpt lat="36.530333" lon="-5.378904">
        <ele>302.621</ele>
        <time>2015-06-21T09:05:10Z</time>
      </trkpt>
      <trkpt lat="36.530219" lon="-5.378935">
        <ele>302.608</ele>
        <time>2015-06-21T09:05:15Z</time>
      </trkpt>
      <trkpt lat="36.530059" lon="-5.378957">
        <ele>303.025</ele>
        <time>2015-06-21T09:05:22Z</time>
      </trkpt>
      <trkpt lat="36.530036" lon="-5.378954">
        <ele>303.471</ele>
        <time>2015-06-21T09:05:23Z</time>
      </trkpt>
      <trkpt lat="36.530014" lon="-5.378956">
        <ele>303.814</ele>
        <time>2015-06-21T09:05:24Z</time>
      </trkpt>
      <trkpt lat="36.529989" lon="-5.378958">
        <ele>304.234</ele>
        <time>2015-06-21T09:05:25Z</time>
      </trkpt>
      <trkpt lat="36.529967" lon="-5.378962">
        <ele>304.698</ele>
        <time>2015-06-21T09:05:26Z</time>
      </trkpt>
      <trkpt lat="36.529852" lon="-5.378941">
        <ele>304.635</ele>
        <time>2015-06-21T09:05:31Z</time>
      </trkpt>
      <trkpt lat="36.529784" lon="-5.378936">
        <ele>305.064</ele>
        <time>2015-06-21T09:05:34Z</time>
      </trkpt>
      <trkpt lat="36.529762" lon="-5.378927">
        <ele>305.826</ele>
        <time>2015-06-21T09:05:35Z</time>
      </trkpt>
      <trkpt lat="36.529742" lon="-5.378915">
        <ele>306.212</ele>
        <time>2015-06-21T09:05:36Z</time>
      </trkpt>
      <trkpt lat="36.529722" lon="-5.378900">
        <ele>306.632</ele>
        <time>2015-06-21T09:05:37Z</time>
      </trkpt>
      <trkpt lat="36.529699" lon="-5.378892">
        <ele>306.605</ele>
        <time>2015-06-21T09:05:38Z</time>
      </trkpt>
      <trkpt lat="36.529584" lon="-5.378819">
        <ele>307.008</ele>
        <time>2015-06-21T09:05:44Z</time>
      </trkpt>
      <trkpt lat="36.529563" lon="-5.378808">
        <ele>307.492</ele>
        <time>2015-06-21T09:05:45Z</time>
      </trkpt>
      <trkpt lat="36.529544" lon="-5.378791">
        <ele>307.858</ele>
        <time>2015-06-21T09:05:46Z</time>
      </trkpt>
      <trkpt lat="36.529526" lon="-5.378773">
        <ele>308.471</ele>
        <time>2015-06-21T09:05:47Z</time>
      </trkpt>
      <trkpt lat="36.529508" lon="-5.378755">
        <ele>308.811</ele>
        <time>2015-06-21T09:05:48Z</time>
      </trkpt>
      <trkpt lat="36.529428" lon="-5.378698">
        <ele>308.815</ele>
        <time>2015-06-21T09:05:52Z</time>
      </trkpt>
      <trkpt lat="36.529295" lon="-5.378584">
        <ele>308.852</ele>
        <time>2015-06-21T09:05:59Z</time>
      </trkpt>
      <trkpt lat="36.529255" lon="-5.378551">
        <ele>309.211</ele>
        <time>2015-06-21T09:06:01Z</time>
      </trkpt>
      <trkpt lat="36.529234" lon="-5.378539">
        <ele>309.653</ele>
        <time>2015-06-21T09:06:02Z</time>
      </trkpt>
      <trkpt lat="36.529216" lon="-5.378527">
        <ele>310.051</ele>
        <time>2015-06-21T09:06:03Z</time>
      </trkpt>
      <trkpt lat="36.529199" lon="-5.378510">
        <ele>310.401</ele>
        <time>2015-06-21T09:06:04Z</time>
      </trkpt>
      <trkpt lat="36.529182" lon="-5.378491">
        <ele>310.811</ele>
        <time>2015-06-21T09:06:05Z</time>
      </trkpt>
      <trkpt lat="36.529145" lon="-5.378454">
        <ele>310.808</ele>
        <time>2015-06-21T09:06:07Z</time>
      </trkpt>
      <trkpt lat="36.529072" lon="-5.378395">
        <ele>311.266</ele>
        <time>2015-06-21T09:06:11Z</time>
      </trkpt>
      <trkpt lat="36.529054" lon="-5.378383">
        <ele>311.662</ele>
        <time>2015-06-21T09:06:12Z</time>
      </trkpt>
      <trkpt lat="36.529034" lon="-5.378368">
        <ele>312.065</ele>
        <time>2015-06-21T09:06:13Z</time>
      </trkpt>
      <trkpt lat="36.529015" lon="-5.378354">
        <ele>312.445</ele>
        <time>2015-06-21T09:06:14Z</time>
      </trkpt>
      <trkpt lat="36.528996" lon="-5.378338">
        <ele>312.889</ele>
        <time>2015-06-21T09:06:15Z</time>
      </trkpt>
      <trkpt lat="36.528976" lon="-5.378326">
        <ele>312.846</ele>
        <time>2015-06-21T09:06:16Z</time>
      </trkpt>
      <trkpt lat="36.528811" lon="-5.378187">
        <ele>313.245</ele>
        <time>2015-06-21T09:06:25Z</time>
      </trkpt>
      <trkpt lat="36.528791" lon="-5.378174">
        <ele>313.697</ele>
        <time>2015-06-21T09:06:26Z</time>
      </trkpt>
      <trkpt lat="36.528773" lon="-5.378156">
        <ele>314.084</ele>
        <time>2015-06-21T09:06:27Z</time>
      </trkpt>
      <trkpt lat="36.528756" lon="-5.378141">
        <ele>314.407</ele>
        <time>2015-06-21T09:06:28Z</time>
      </trkpt>
      <trkpt lat="36.528738" lon="-5.378121">
        <ele>314.817</ele>
        <time>2015-06-21T09:06:29Z</time>
      </trkpt>
      <trkpt lat="36.528665" lon="-5.378051">
        <ele>314.808</ele>
        <time>2015-06-21T09:06:33Z</time>
      </trkpt>
      <trkpt lat="36.528548" lon="-5.377973">
        <ele>315.269</ele>
        <time>2015-06-21T09:06:39Z</time>
      </trkpt>
      <trkpt lat="36.528529" lon="-5.377956">
        <ele>315.815</ele>
        <time>2015-06-21T09:06:40Z</time>
      </trkpt>
      <trkpt lat="36.528511" lon="-5.377941">
        <ele>316.298</ele>
        <time>2015-06-21T09:06:41Z</time>
      </trkpt>
      <trkpt lat="36.528490" lon="-5.377924">
        <ele>316.638</ele>
        <time>2015-06-21T09:06:42Z</time>
      </trkpt>
      <trkpt lat="36.528470" lon="-5.377914">
        <ele>317.052</ele>
        <time>2015-06-21T09:06:43Z</time>
      </trkpt>
      <trkpt lat="36.528385" lon="-5.377873">
        <ele>317.089</ele>
        <time>2015-06-21T09:06:47Z</time>
      </trkpt>
      <trkpt lat="36.528225" lon="-5.377822">
        <ele>317.088</ele>
        <time>2015-06-21T09:06:54Z</time>
      </trkpt>
      <trkpt lat="36.528184" lon="-5.377805">
        <ele>317.460</ele>
        <time>2015-06-21T09:06:56Z</time>
      </trkpt>
      <trkpt lat="36.528164" lon="-5.377801">
        <ele>317.865</ele>
        <time>2015-06-21T09:06:57Z</time>
      </trkpt>
      <trkpt lat="36.528141" lon="-5.377803">
        <ele>318.268</ele>
        <time>2015-06-21T09:06:58Z</time>
      </trkpt>
      <trkpt lat="36.528119" lon="-5.377808">
        <ele>318.614</ele>
        <time>2015-06-21T09:06:59Z</time>
      </trkpt>
      <trkpt lat="36.528095" lon="-5.377814">
        <ele>319.008</ele>
        <time>2015-06-21T09:07:00Z</time>
      </trkpt>
      <trkpt lat="36.528072" lon="-5.377809">
        <ele>319.077</ele>
        <time>2015-06-21T09:07:01Z</time>
      </trkpt>
      <trkpt lat="36.527960" lon="-5.377795">
        <ele>319.053</ele>
        <time>2015-06-21T09:07:06Z</time>
      </trkpt>
      <trkpt lat="36.527859" lon="-5.377748">
        <ele>319.096</ele>
        <time>2015-06-21T09:07:11Z</time>
      </trkpt>
      <trkpt lat="36.527796" lon="-5.377708">
        <ele>320.076</ele>
        <time>2015-06-21T09:07:14Z</time>
      </trkpt>
      <trkpt lat="36.527776" lon="-5.377690">
        <ele>320.440</ele>
        <time>2015-06-21T09:07:15Z</time>
      </trkpt>
      <trkpt lat="36.527756" lon="-5.377672">
        <ele>320.827</ele>
        <time>2015-06-21T09:07:16Z</time>
      </trkpt>
      <trkpt lat="36.527742" lon="-5.377652">
        <ele>321.246</ele>
        <time>2015-06-21T09:07:17Z</time>
      </trkpt>
      <trkpt lat="36.527726" lon="-5.377637">
        <ele>321.298</ele>
        <time>2015-06-21T09:07:18Z</time>
      </trkpt>
      <trkpt lat="36.527605" lon="-5.377518">
        <ele>321.624</ele>
        <time>2015-06-21T09:07:25Z</time>
      </trkpt>
      <trkpt lat="36.527590" lon="-5.377493">
        <ele>322.004</ele>
        <time>2015-06-21T09:07:26Z</time>
      </trkpt>
      <trkpt lat="36.527578" lon="-5.377471">
        <ele>322.414</ele>
        <time>2015-06-21T09:07:27Z</time>
      </trkpt>
      <trkpt lat="36.527565" lon="-5.377449">
        <ele>322.808</ele>
        <time>2015-06-21T09:07:28Z</time>
      </trkpt>
      <trkpt lat="36.527551" lon="-5.377427">
        <ele>323.223</ele>
        <time>2015-06-21T09:07:29Z</time>
      </trkpt>
      <trkpt lat="36.527517" lon="-5.377393">
        <ele>323.259</ele>
        <time>2015-06-21T09:07:31Z</time>
      </trkpt>
      <trkpt lat="36.527396" lon="-5.377330">
        <ele>323.622</ele>
        <time>2015-06-21T09:07:37Z</time>
      </trkpt>
      <trkpt lat="36.527373" lon="-5.377323">
        <ele>324.472</ele>
        <time>2015-06-21T09:07:38Z</time>
      </trkpt>
      <trkpt lat="36.527350" lon="-5.377327">
        <ele>324.886</ele>
        <time>2015-06-21T09:07:39Z</time>
      </trkpt>
      <trkpt lat="36.527327" lon="-5.377329">
        <ele>325.273</ele>
        <time>2015-06-21T09:07:40Z</time>
      </trkpt>
      <trkpt lat="36.527236" lon="-5.377333">
        <ele>325.222</ele>
        <time>2015-06-21T09:07:44Z</time>
      </trkpt>
      <trkpt lat="36.527047" lon="-5.377389">
        <ele>325.244</ele>
        <time>2015-06-21T09:07:52Z</time>
      </trkpt>
      <trkpt lat="36.527007" lon="-5.377414">
        <ele>325.863</ele>
        <time>2015-06-21T09:07:54Z</time>
      </trkpt>
      <trkpt lat="36.526986" lon="-5.377423">
        <ele>326.244</ele>
        <time>2015-06-21T09:07:55Z</time>
      </trkpt>
      <trkpt lat="36.526968" lon="-5.377432">
        <ele>326.618</ele>
        <time>2015-06-21T09:07:56Z</time>
      </trkpt>
      <trkpt lat="36.526952" lon="-5.377442">
        <ele>327.008</ele>
        <time>2015-06-21T09:07:57Z</time>
      </trkpt>
      <trkpt lat="36.526931" lon="-5.377455">
        <ele>327.437</ele>
        <time>2015-06-21T09:07:58Z</time>
      </trkpt>
      <trkpt lat="36.526911" lon="-5.377464">
        <ele>327.483</ele>
        <time>2015-06-21T09:07:59Z</time>
      </trkpt>
      <trkpt lat="36.526830" lon="-5.377526">
        <ele>327.896</ele>
        <time>2015-06-21T09:08:05Z</time>
      </trkpt>
      <trkpt lat="36.526815" lon="-5.377540">
        <ele>328.226</ele>
        <time>2015-06-21T09:08:06Z</time>
      </trkpt>
      <trkpt lat="36.526796" lon="-5.377544">
        <ele>328.680</ele>
        <time>2015-06-21T09:08:07Z</time>
      </trkpt>
      <trkpt lat="36.526776" lon="-5.377552">
        <ele>329.067</ele>
        <time>2015-06-21T09:08:08Z</time>
      </trkpt>
      <trkpt lat="36.526755" lon="-5.377554">
        <ele>329.476</ele>
        <time>2015-06-21T09:08:09Z</time>
      </trkpt>
      <trkpt lat="36.526718" lon="-5.377574">
        <ele>329.468</ele>
        <time>2015-06-21T09:08:11Z</time>
      </trkpt>
      <trkpt lat="36.526638" lon="-5.377558">
        <ele>329.419</ele>
        <time>2015-06-21T09:08:15Z</time>
      </trkpt>
      <trkpt lat="36.526476" lon="-5.377560">
        <ele>329.809</ele>
        <time>2015-06-21T09:08:22Z</time>
      </trkpt>
      <trkpt lat="36.526453" lon="-5.377564">
        <ele>330.419</ele>
        <time>2015-06-21T09:08:23Z</time>
      </trkpt>
      <trkpt lat="36.526432" lon="-5.377564">
        <ele>330.808</ele>
        <time>2015-06-21T09:08:24Z</time>
      </trkpt>
      <trkpt lat="36.526409" lon="-5.377560">
        <ele>331.262</ele>
        <time>2015-06-21T09:08:25Z</time>
      </trkpt>
      <trkpt lat="36.526384" lon="-5.377560">
        <ele>331.678</ele>
        <time>2015-06-21T09:08:26Z</time>
      </trkpt>
      <trkpt lat="36.526288" lon="-5.377573">
        <ele>331.691</ele>
        <time>2015-06-21T09:08:30Z</time>
      </trkpt>
      <trkpt lat="36.526166" lon="-5.377633">
        <ele>332.051</ele>
        <time>2015-06-21T09:08:36Z</time>
      </trkpt>
      <trkpt lat="36.526151" lon="-5.377655">
        <ele>332.455</ele>
        <time>2015-06-21T09:08:37Z</time>
      </trkpt>
      <trkpt lat="36.526132" lon="-5.377665">
        <ele>332.872</ele>
        <time>2015-06-21T09:08:38Z</time>
      </trkpt>
      <trkpt lat="36.526115" lon="-5.377683">
        <ele>333.231</ele>
        <time>2015-06-21T09:08:39Z</time>
      </trkpt>
      <trkpt lat="36.526098" lon="-5.377700">
        <ele>333.653</ele>
        <time>2015-06-21T09:08:40Z</time>
      </trkpt>
      <trkpt lat="36.526041" lon="-5.377750">
        <ele>333.661</ele>
        <time>2015-06-21T09:08:43Z</time>
      </trkpt>
      <trkpt lat="36.525936" lon="-5.377863">
        <ele>334.021</ele>
        <time>2015-06-21T09:08:49Z</time>
      </trkpt>
      <trkpt lat="36.525917" lon="-5.377877">
        <ele>334.413</ele>
        <time>2015-06-21T09:08:50Z</time>
      </trkpt>
      <trkpt lat="36.525898" lon="-5.377888">
        <ele>334.808</ele>
        <time>2015-06-21T09:08:51Z</time>
      </trkpt>
      <trkpt lat="36.525877" lon="-5.377898">
        <ele>335.227</ele>
        <time>2015-06-21T09:08:52Z</time>
      </trkpt>
      <trkpt lat="36.525860" lon="-5.377910">
        <ele>335.633</ele>
        <time>2015-06-21T09:08:53Z</time>
      </trkpt>
      <trkpt lat="36.525722" lon="-5.378000">
        <ele>335.686</ele>
        <time>2015-06-21T09:09:00Z</time>
      </trkpt>
      <trkpt lat="36.525520" lon="-5.378066">
        <ele>335.626</ele>
        <time>2015-06-21T09:09:09Z</time>
      </trkpt>
      <trkpt lat="36.525500" lon="-5.378067">
        <ele>336.040</ele>
        <time>2015-06-21T09:09:10Z</time>
      </trkpt>
      <trkpt lat="36.525480" lon="-5.378068">
        <ele>336.457</ele>
        <time>2015-06-21T09:09:11Z</time>
      </trkpt>
      <trkpt lat="36.525462" lon="-5.378070">
        <ele>336.816</ele>
        <time>2015-06-21T09:09:12Z</time>
      </trkpt>
      <trkpt lat="36.525444" lon="-5.378068">
        <ele>337.278</ele>
        <time>2015-06-21T09:09:13Z</time>
      </trkpt>
      <trkpt lat="36.525424" lon="-5.378053">
        <ele>337.631</ele>
        <time>2015-06-21T09:09:14Z</time>
      </trkpt>
      <trkpt lat="36.525405" lon="-5.378047">
        <ele>337.661</ele>
        <time>2015-06-21T09:09:15Z</time>
      </trkpt>
      <trkpt lat="36.525299" lon="-5.378016">
        <ele>337.607</ele>
        <time>2015-06-21T09:09:21Z</time>
      </trkpt>
      <trkpt lat="36.525281" lon="-5.378008">
        <ele>338.008</ele>
        <time>2015-06-21T09:09:22Z</time>
      </trkpt>
      <trkpt lat="36.525266" lon="-5.377998">
        <ele>338.414</ele>
        <time>2015-06-21T09:09:23Z</time>
      </trkpt>
      <trkpt lat="36.525252" lon="-5.377990">
        <ele>338.890</ele>
        <time>2015-06-21T09:09:24Z</time>
      </trkpt>
      <trkpt lat="36.525237" lon="-5.377983">
        <ele>339.263</ele>
        <time>2015-06-21T09:09:25Z</time>
      </trkpt>
      <trkpt lat="36.525221" lon="-5.377969">
        <ele>339.633</ele>
        <time>2015-06-21T09:09:26Z</time>
      </trkpt>
      <trkpt lat="36.525195" lon="-5.377911">
        <ele>339.627</ele>
        <time>2015-06-21T09:09:29Z</time>
      </trkpt>
      <trkpt lat="36.525196" lon="-5.377845">
        <ele>340.074</ele>
        <time>2015-06-21T09:09:32Z</time>
      </trkpt>
      <trkpt lat="36.525193" lon="-5.377825">
        <ele>340.643</ele>
        <time>2015-06-21T09:09:33Z</time>
      </trkpt>
      <trkpt lat="36.525198" lon="-5.377804">
        <ele>341.015</ele>
        <time>2015-06-21T09:09:34Z</time>
      </trkpt>
      <trkpt lat="36.525207" lon="-5.377784">
        <ele>341.468</ele>
        <time>2015-06-21T09:09:35Z</time>
      </trkpt>
      <trkpt lat="36.525220" lon="-5.377767">
        <ele>341.842</ele>
        <time>2015-06-21T09:09:36Z</time>
      </trkpt>
      <trkpt lat="36.525318" lon="-5.377657">
        <ele>341.826</ele>
        <time>2015-06-21T09:09:42Z</time>
      </trkpt>
      <trkpt lat="36.525362" lon="-5.377606">
        <ele>342.208</ele>
        <time>2015-06-21T09:09:45Z</time>
      </trkpt>
      <trkpt lat="36.525381" lon="-5.377592">
        <ele>342.647</ele>
        <time>2015-06-21T09:09:46Z</time>
      </trkpt>
      <trkpt lat="36.525399" lon="-5.377581">
        <ele>343.033</ele>
        <time>2015-06-21T09:09:47Z</time>
      </trkpt>
      <trkpt lat="36.525418" lon="-5.377571">
        <ele>343.456</ele>
        <time>2015-06-21T09:09:48Z</time>
      </trkpt>
      <trkpt lat="36.525435" lon="-5.377557">
        <ele>343.866</ele>
        <time>2015-06-21T09:09:49Z</time>
      </trkpt>
      <trkpt lat="36.525572" lon="-5.377453">
        <ele>343.850</ele>
        <time>2015-06-21T09:09:56Z</time>
      </trkpt>
      <trkpt lat="36.525676" lon="-5.377333">
        <ele>343.877</ele>
        <time>2015-06-21T09:10:03Z</time>
      </trkpt>
      <trkpt lat="36.525692" lon="-5.377317">
        <ele>343.846</ele>
        <time>2015-06-21T09:10:04Z</time>
      </trkpt>
      <trkpt lat="36.525716" lon="-5.377275">
        <ele>344.288</ele>
        <time>2015-06-21T09:10:06Z</time>
      </trkpt>
      <trkpt lat="36.525729" lon="-5.377251">
        <ele>345.035</ele>
        <time>2015-06-21T09:10:07Z</time>
      </trkpt>
      <trkpt lat="36.525740" lon="-5.377227">
        <ele>345.486</ele>
        <time>2015-06-21T09:10:08Z</time>
      </trkpt>
      <trkpt lat="36.525749" lon="-5.377204">
        <ele>345.814</ele>
        <time>2015-06-21T09:10:09Z</time>
      </trkpt>
      <trkpt lat="36.525768" lon="-5.377134">
        <ele>345.808</ele>
        <time>2015-06-21T09:10:12Z</time>
      </trkpt>
      <trkpt lat="36.525821" lon="-5.376989">
        <ele>346.494</ele>
        <time>2015-06-21T09:10:18Z</time>
      </trkpt>
      <trkpt lat="36.525829" lon="-5.376964">
        <ele>346.870</ele>
        <time>2015-06-21T09:10:19Z</time>
      </trkpt>
      <trkpt lat="36.525837" lon="-5.376944">
        <ele>347.243</ele>
        <time>2015-06-21T09:10:20Z</time>
      </trkpt>
      <trkpt lat="36.525849" lon="-5.376924">
        <ele>347.643</ele>
        <time>2015-06-21T09:10:21Z</time>
      </trkpt>
      <trkpt lat="36.525864" lon="-5.376905">
        <ele>348.037</ele>
        <time>2015-06-21T09:10:22Z</time>
      </trkpt>
      <trkpt lat="36.525919" lon="-5.376833">
        <ele>348.074</ele>
        <time>2015-06-21T09:10:26Z</time>
      </trkpt>
      <trkpt lat="36.526027" lon="-5.376726">
        <ele>348.483</ele>
        <time>2015-06-21T09:10:33Z</time>
      </trkpt>
      <trkpt lat="36.526046" lon="-5.376712">
        <ele>348.855</ele>
        <time>2015-06-21T09:10:34Z</time>
      </trkpt>
      <trkpt lat="36.526064" lon="-5.376700">
        <ele>349.234</ele>
        <time>2015-06-21T09:10:35Z</time>
      </trkpt>
      <trkpt lat="36.526083" lon="-5.376688">
        <ele>349.855</ele>
        <time>2015-06-21T09:10:36Z</time>
      </trkpt>
      <trkpt lat="36.526099" lon="-5.376671">
        <ele>350.210</ele>
        <time>2015-06-21T09:10:37Z</time>
      </trkpt>
      <trkpt lat="36.526220" lon="-5.376586">
        <ele>350.208</ele>
        <time>2015-06-21T09:10:43Z</time>
      </trkpt>
      <trkpt lat="36.526359" lon="-5.376513">
        <ele>350.224</ele>
        <time>2015-06-21T09:10:49Z</time>
      </trkpt>
      <trkpt lat="36.526421" lon="-5.376466">
        <ele>350.680</ele>
        <time>2015-06-21T09:10:52Z</time>
      </trkpt>
      <trkpt lat="36.526440" lon="-5.376446">
        <ele>351.043</ele>
        <time>2015-06-21T09:10:53Z</time>
      </trkpt>
      <trkpt lat="36.526458" lon="-5.376427">
        <ele>351.473</ele>
        <time>2015-06-21T09:10:54Z</time>
      </trkpt>
      <trkpt lat="36.526477" lon="-5.376412">
        <ele>351.887</ele>
        <time>2015-06-21T09:10:55Z</time>
      </trkpt>
      <trkpt lat="36.526492" lon="-5.376386">
        <ele>352.274</ele>
        <time>2015-06-21T09:10:56Z</time>
      </trkpt>
      <trkpt lat="36.526571" lon="-5.376173">
        <ele>352.273</ele>
        <time>2015-06-21T09:11:04Z</time>
      </trkpt>
      <trkpt lat="36.526574" lon="-5.376145">
        <ele>352.695</ele>
        <time>2015-06-21T09:11:05Z</time>
      </trkpt>
      <trkpt lat="36.526579" lon="-5.376116">
        <ele>353.086</ele>
        <time>2015-06-21T09:11:06Z</time>
      </trkpt>
      <trkpt lat="36.526579" lon="-5.376085">
        <ele>353.460</ele>
        <time>2015-06-21T09:11:07Z</time>
      </trkpt>
      <trkpt lat="36.526583" lon="-5.376055">
        <ele>353.826</ele>
        <time>2015-06-21T09:11:08Z</time>
      </trkpt>
      <trkpt lat="36.526590" lon="-5.376031">
        <ele>354.208</ele>
        <time>2015-06-21T09:11:09Z</time>
      </trkpt>
      <trkpt lat="36.526596" lon="-5.375974">
        <ele>354.239</ele>
        <time>2015-06-21T09:11:11Z</time>
      </trkpt>
      <trkpt lat="36.526604" lon="-5.375829">
        <ele>354.275</ele>
        <time>2015-06-21T09:11:17Z</time>
      </trkpt>
      <trkpt lat="36.526607" lon="-5.375747">
        <ele>354.658</ele>
        <time>2015-06-21T09:11:20Z</time>
      </trkpt>
      <trkpt lat="36.526611" lon="-5.375718">
        <ele>355.458</ele>
        <time>2015-06-21T09:11:21Z</time>
      </trkpt>
      <trkpt lat="36.526613" lon="-5.375691">
        <ele>355.852</ele>
        <time>2015-06-21T09:11:22Z</time>
      </trkpt>
      <trkpt lat="36.526615" lon="-5.375662">
        <ele>356.269</ele>
        <time>2015-06-21T09:11:23Z</time>
      </trkpt>
      <trkpt lat="36.526632" lon="-5.375546">
        <ele>356.258</ele>
        <time>2015-06-21T09:11:27Z</time>
      </trkpt>
      <trkpt lat="36.526671" lon="-5.375356">
        <ele>356.610</ele>
        <time>2015-06-21T09:11:34Z</time>
      </trkpt>
      <trkpt lat="36.526681" lon="-5.375332">
        <ele>357.037</ele>
        <time>2015-06-21T09:11:35Z</time>
      </trkpt>
      <trkpt lat="36.526698" lon="-5.375305">
        <ele>357.449</ele>
        <time>2015-06-21T09:11:36Z</time>
      </trkpt>
      <trkpt lat="36.526712" lon="-5.375285">
        <ele>357.813</ele>
        <time>2015-06-21T09:11:37Z</time>
      </trkpt>
      <trkpt lat="36.526734" lon="-5.375268">
        <ele>358.208</ele>
        <time>2015-06-21T09:11:38Z</time>
      </trkpt>
      <trkpt lat="36.526835" lon="-5.375206">
        <ele>358.284</ele>
        <time>2015-06-21T09:11:43Z</time>
      </trkpt>
      <trkpt lat="36.526980" lon="-5.375126">
        <ele>358.860</ele>
        <time>2015-06-21T09:11:50Z</time>
      </trkpt>
      <trkpt lat="36.527002" lon="-5.375121">
        <ele>359.223</ele>
        <time>2015-06-21T09:11:51Z</time>
      </trkpt>
      <trkpt lat="36.527023" lon="-5.375114">
        <ele>359.633</ele>
        <time>2015-06-21T09:11:52Z</time>
      </trkpt>
      <trkpt lat="36.527043" lon="-5.375105">
        <ele>360.047</ele>
        <time>2015-06-21T09:11:53Z</time>
      </trkpt>
      <trkpt lat="36.527064" lon="-5.375094">
        <ele>360.464</ele>
        <time>2015-06-21T09:11:54Z</time>
      </trkpt>
      <trkpt lat="36.527174" lon="-5.375023">
        <ele>360.443</ele>
        <time>2015-06-21T09:11:59Z</time>
      </trkpt>
      <trkpt lat="36.527278" lon="-5.374925">
        <ele>360.865</ele>
        <time>2015-06-21T09:12:05Z</time>
      </trkpt>
      <trkpt lat="36.527294" lon="-5.374908">
        <ele>361.292</ele>
        <time>2015-06-21T09:12:06Z</time>
      </trkpt>
      <trkpt lat="36.527309" lon="-5.374885">
        <ele>361.873</ele>
        <time>2015-06-21T09:12:07Z</time>
      </trkpt>
      <trkpt lat="36.527324" lon="-5.374863">
        <ele>362.220</ele>
        <time>2015-06-21T09:12:08Z</time>
      </trkpt>
      <trkpt lat="36.527340" lon="-5.374841">
        <ele>362.608</ele>
        <time>2015-06-21T09:12:09Z</time>
      </trkpt>
      <trkpt lat="36.527427" lon="-5.374677">
        <ele>362.630</ele>
        <time>2015-06-21T09:12:16Z</time>
      </trkpt>
      <trkpt lat="36.527459" lon="-5.374563">
        <ele>363.096</ele>
        <time>2015-06-21T09:12:20Z</time>
      </trkpt>
      <trkpt lat="36.527472" lon="-5.374537">
        <ele>363.479</ele>
        <time>2015-06-21T09:12:21Z</time>
      </trkpt>
      <trkpt lat="36.527486" lon="-5.374511">
        <ele>363.839</ele>
        <time>2015-06-21T09:12:22Z</time>
      </trkpt>
      <trkpt lat="36.527499" lon="-5.374486">
        <ele>364.213</ele>
        <time>2015-06-21T09:12:23Z</time>
      </trkpt>
      <trkpt lat="36.527510" lon="-5.374462">
        <ele>364.660</ele>
        <time>2015-06-21T09:12:24Z</time>
      </trkpt>
      <trkpt lat="36.527518" lon="-5.374436">
        <ele>364.649</ele>
        <time>2015-06-21T09:12:25Z</time>
      </trkpt>
      <trkpt lat="36.527556" lon="-5.374204">
        <ele>364.671</ele>
        <time>2015-06-21T09:12:33Z</time>
      </trkpt>
      <trkpt lat="36.527554" lon="-5.374148">
        <ele>365.069</ele>
        <time>2015-06-21T09:12:35Z</time>
      </trkpt>
      <trkpt lat="36.527556" lon="-5.374118">
        <ele>365.404</ele>
        <time>2015-06-21T09:12:36Z</time>
      </trkpt>
      <trkpt lat="36.527554" lon="-5.374090">
        <ele>366.024</ele>
        <time>2015-06-21T09:12:37Z</time>
      </trkpt>
      <trkpt lat="36.527551" lon="-5.374061">
        <ele>366.408</ele>
        <time>2015-06-21T09:12:38Z</time>
      </trkpt>
      <trkpt lat="36.527548" lon="-5.374032">
        <ele>366.817</ele>
        <time>2015-06-21T09:12:39Z</time>
      </trkpt>
      <trkpt lat="36.527547" lon="-5.373948">
        <ele>366.823</ele>
        <time>2015-06-21T09:12:42Z</time>
      </trkpt>
      <trkpt lat="36.527545" lon="-5.373725">
        <ele>367.276</ele>
        <time>2015-06-21T09:12:50Z</time>
      </trkpt>
      <trkpt lat="36.527543" lon="-5.373692">
        <ele>367.616</ele>
        <time>2015-06-21T09:12:51Z</time>
      </trkpt>
      <trkpt lat="36.527542" lon="-5.373664">
        <ele>368.070</ele>
        <time>2015-06-21T09:12:52Z</time>
      </trkpt>
      <trkpt lat="36.527544" lon="-5.373637">
        <ele>368.437</ele>
        <time>2015-06-21T09:12:53Z</time>
      </trkpt>
      <trkpt lat="36.527548" lon="-5.373612">
        <ele>368.836</ele>
        <time>2015-06-21T09:12:54Z</time>
      </trkpt>
      <trkpt lat="36.527570" lon="-5.373509">
        <ele>368.878</ele>
        <time>2015-06-21T09:12:58Z</time>
      </trkpt>
      <trkpt lat="36.527576" lon="-5.373397">
        <ele>369.223</ele>
        <time>2015-06-21T09:13:02Z</time>
      </trkpt>
      <trkpt lat="36.527572" lon="-5.373368">
        <ele>369.683</ele>
        <time>2015-06-21T09:13:03Z</time>
      </trkpt>
      <trkpt lat="36.527566" lon="-5.373340">
        <ele>370.011</ele>
        <time>2015-06-21T09:13:04Z</time>
      </trkpt>
      <trkpt lat="36.527560" lon="-5.373312">
        <ele>370.408</ele>
        <time>2015-06-21T09:13:05Z</time>
      </trkpt>
      <trkpt lat="36.527554" lon="-5.373284">
        <ele>370.833</ele>
        <time>2015-06-21T09:13:06Z</time>
      </trkpt>
      <trkpt lat="36.527512" lon="-5.373121">
        <ele>370.849</ele>
        <time>2015-06-21T09:13:12Z</time>
      </trkpt>
      <trkpt lat="36.527485" lon="-5.373041">
        <ele>371.452</ele>
        <time>2015-06-21T09:13:15Z</time>
      </trkpt>
      <trkpt lat="36.527478" lon="-5.373014">
        <ele>371.862</ele>
        <time>2015-06-21T09:13:16Z</time>
      </trkpt>
      <trkpt lat="36.527472" lon="-5.372989">
        <ele>372.236</ele>
        <time>2015-06-21T09:13:17Z</time>
      </trkpt>
      <trkpt lat="36.527465" lon="-5.372962">
        <ele>372.653</ele>
        <time>2015-06-21T09:13:18Z</time>
      </trkpt>
      <trkpt lat="36.527457" lon="-5.372935">
        <ele>373.032</ele>
        <time>2015-06-21T09:13:19Z</time>
      </trkpt>
      <trkpt lat="36.527442" lon="-5.372883">
        <ele>373.014</ele>
        <time>2015-06-21T09:13:21Z</time>
      </trkpt>
      <trkpt lat="36.527439" lon="-5.372646">
        <ele>373.093</ele>
        <time>2015-06-21T09:13:29Z</time>
      </trkpt>
      <trkpt lat="36.527452" lon="-5.372559">
        <ele>373.465</ele>
        <time>2015-06-21T09:13:32Z</time>
      </trkpt>
      <trkpt lat="36.527457" lon="-5.372531">
        <ele>373.821</ele>
        <time>2015-06-21T09:13:33Z</time>
      </trkpt>
      <trkpt lat="36.527463" lon="-5.372503">
        <ele>374.208</ele>
        <time>2015-06-21T09:13:34Z</time>
      </trkpt>
      <trkpt lat="36.527469" lon="-5.372476">
        <ele>374.660</ele>
        <time>2015-06-21T09:13:35Z</time>
      </trkpt>
      <trkpt lat="36.527476" lon="-5.372446">
        <ele>375.046</ele>
        <time>2015-06-21T09:13:36Z</time>
      </trkpt>
      <trkpt lat="36.527483" lon="-5.372416">
        <ele>375.089</ele>
        <time>2015-06-21T09:13:37Z</time>
      </trkpt>
      <trkpt lat="36.527525" lon="-5.372199">
        <ele>375.099</ele>
        <time>2015-06-21T09:13:44Z</time>
      </trkpt>
      <trkpt lat="36.527536" lon="-5.372120">
        <ele>375.483</ele>
        <time>2015-06-21T09:13:47Z</time>
      </trkpt>
      <trkpt lat="36.527541" lon="-5.372096">
        <ele>375.840</ele>
        <time>2015-06-21T09:13:48Z</time>
      </trkpt>
      <trkpt lat="36.527546" lon="-5.372070">
        <ele>376.659</ele>
        <time>2015-06-21T09:13:49Z</time>
      </trkpt>
      <trkpt lat="36.527552" lon="-5.372046">
        <ele>377.051</ele>
        <time>2015-06-21T09:13:50Z</time>
      </trkpt>
      <trkpt lat="36.527557" lon="-5.372021">
        <ele>377.036</ele>
        <time>2015-06-21T09:13:51Z</time>
      </trkpt>
      <trkpt lat="36.527573" lon="-5.371853">
        <ele>377.017</ele>
        <time>2015-06-21T09:13:59Z</time>
      </trkpt>
      <trkpt lat="36.527564" lon="-5.371810">
        <ele>377.418</ele>
        <time>2015-06-21T09:14:01Z</time>
      </trkpt>
      <trkpt lat="36.527555" lon="-5.371789">
        <ele>377.808</ele>
        <time>2015-06-21T09:14:02Z</time>
      </trkpt>
      <trkpt lat="36.527546" lon="-5.371770">
        <ele>378.254</ele>
        <time>2015-06-21T09:14:03Z</time>
      </trkpt>
      <trkpt lat="36.527538" lon="-5.371754">
        <ele>378.690</ele>
        <time>2015-06-21T09:14:04Z</time>
      </trkpt>
      <trkpt lat="36.527530" lon="-5.371737">
        <ele>379.033</ele>
        <time>2015-06-21T09:14:05Z</time>
      </trkpt>
      <trkpt lat="36.527510" lon="-5.371712">
        <ele>379.093</ele>
        <time>2015-06-21T09:14:08Z</time>
      </trkpt>
      <trkpt lat="36.527498" lon="-5.371705">
        <ele>379.097</ele>
        <time>2015-06-21T09:14:11Z</time>
      </trkpt>
      <trkpt lat="36.527498" lon="-5.371705">
        <ele>379.414</ele>
        <time>2015-06-21T09:14:17Z</time>
      </trkpt>
      <trkpt lat="36.527498" lon="-5.371705">
        <ele>379.873</ele>
        <time>2015-06-21T09:14:18Z</time>
      </trkpt>
      <trkpt lat="36.527498" lon="-5.371705">
        <ele>380.275</ele>
        <time>2015-06-21T09:14:19Z</time>
      </trkpt>
      <trkpt lat="36.527498" lon="-5.371705">
        <ele>380.638</ele>
        <time>2015-06-21T09:14:20Z</time>
      </trkpt>
      <trkpt lat="36.527498" lon="-5.371705">
        <ele>381.270</ele>
        <time>2015-06-21T09:14:21Z</time>
      </trkpt>
      <trkpt lat="36.527498" lon="-5.371705">
        <ele>381.217</ele>
        <time>2015-06-21T09:14:25Z</time>
      </trkpt>
      <trkpt lat="36.527498" lon="-5.371705">
        <ele>381.208</ele>
        <time>2015-06-21T09:14:28Z</time>
      </trkpt>
      <trkpt lat="36.527498" lon="-5.371705">
        <ele>381.244</ele>
        <time>2015-06-21T09:14:31Z</time>
      </trkpt>
      <trkpt lat="36.527498" lon="-5.371705">
        <ele>381.250</ele>
        <time>2015-06-21T09:14:35Z</time>
      </trkpt>
      <trkpt lat="36.527498" lon="-5.371704">
        <ele>381.273</ele>
        <time>2015-06-21T09:14:38Z</time>
      </trkpt>
      <trkpt lat="36.527493" lon="-5.371696">
        <ele>381.263</ele>
        <time>2015-06-21T09:14:39Z</time>
      </trkpt>
      <trkpt lat="36.527458" lon="-5.371697">
        <ele>381.217</ele>
        <time>2015-06-21T09:16:10Z</time>
      </trkpt>
      <trkpt lat="36.527420" lon="-5.371704">
        <ele>381.274</ele>
        <time>2015-06-21T09:16:12Z</time>
      </trkpt>
      <trkpt lat="36.527401" lon="-5.371713">
        <ele>381.233</ele>
        <time>2015-06-21T09:16:13Z</time>
      </trkpt>
      <trkpt lat="36.527344" lon="-5.371747">
        <ele>381.285</ele>
        <time>2015-06-21T09:16:16Z</time>
      </trkpt>
      <trkpt lat="36.527297" lon="-5.371800">
        <ele>381.215</ele>
        <time>2015-06-21T09:16:19Z</time>
      </trkpt>
      <trkpt lat="36.527234" lon="-5.371872">
        <ele>381.265</ele>
        <time>2015-06-21T09:16:23Z</time>
      </trkpt>
      <trkpt lat="36.527202" lon="-5.371911">
        <ele>381.211</ele>
        <time>2015-06-21T09:16:25Z</time>
      </trkpt>
      <trkpt lat="36.527177" lon="-5.371988">
        <ele>381.208</ele>
        <time>2015-06-21T09:16:28Z</time>
      </trkpt>
      <trkpt lat="36.527167" lon="-5.372095">
        <ele>381.282</ele>
        <time>2015-06-21T09:16:32Z</time>
      </trkpt>
      <trkpt lat="36.527143" lon="-5.372276">
        <ele>381.618</ele>
        <time>2015-06-21T09:16:38Z</time>
      </trkpt>
      <trkpt lat="36.527141" lon="-5.372308">
        <ele>382.231</ele>
        <time>2015-06-21T09:16:39Z</time>
      </trkpt>
      <trkpt lat="36.527139" lon="-5.372341">
        <ele>382.631</ele>
        <time>2015-06-21T09:16:40Z</time>
      </trkpt>
      <trkpt lat="36.527138" lon="-5.372378">
        <ele>383.235</ele>
        <time>2015-06-21T09:16:41Z</time>
      </trkpt>
      <trkpt lat="36.527140" lon="-5.372417">
        <ele>383.672</ele>
        <time>2015-06-21T09:16:42Z</time>
      </trkpt>
      <trkpt lat="36.527130" lon="-5.372649">
        <ele>383.631</ele>
        <time>2015-06-21T09:16:48Z</time>
      </trkpt>
      <trkpt lat="36.527110" lon="-5.372896">
        <ele>383.633</ele>
        <time>2015-06-21T09:16:55Z</time>
      </trkpt>
      <trkpt lat="36.527064" lon="-5.373072">
        <ele>383.689</ele>
        <time>2015-06-21T09:17:00Z</time>
      </trkpt>
      <trkpt lat="36.527054" lon="-5.373107">
        <ele>383.606</ele>
        <time>2015-06-21T09:17:01Z</time>
      </trkpt>
      <trkpt lat="36.526960" lon="-5.373336">
        <ele>383.626</ele>
        <time>2015-06-21T09:17:08Z</time>
      </trkpt>
      <trkpt lat="36.526887" lon="-5.373456">
        <ele>383.608</ele>
        <time>2015-06-21T09:17:14Z</time>
      </trkpt>
      <trkpt lat="36.526785" lon="-5.373573">
        <ele>383.669</ele>
        <time>2015-06-21T09:17:21Z</time>
      </trkpt>
      <trkpt lat="36.526768" lon="-5.373588">
        <ele>384.045</ele>
        <time>2015-06-21T09:17:22Z</time>
      </trkpt>
      <trkpt lat="36.526749" lon="-5.373599">
        <ele>384.498</ele>
        <time>2015-06-21T09:17:23Z</time>
      </trkpt>
      <trkpt lat="36.526732" lon="-5.373612">
        <ele>384.888</ele>
        <time>2015-06-21T09:17:24Z</time>
      </trkpt>
      <trkpt lat="36.526712" lon="-5.373621">
        <ele>385.252</ele>
        <time>2015-06-21T09:17:25Z</time>
      </trkpt>
      <trkpt lat="36.526692" lon="-5.373624">
        <ele>385.679</ele>
        <time>2015-06-21T09:17:26Z</time>
      </trkpt>
      <trkpt lat="36.526671" lon="-5.373624">
        <ele>385.648</ele>
        <time>2015-06-21T09:17:27Z</time>
      </trkpt>
      <trkpt lat="36.526501" lon="-5.373625">
        <ele>385.680</ele>
        <time>2015-06-21T09:17:35Z</time>
      </trkpt>
      <trkpt lat="36.526370" lon="-5.373621">
        <ele>386.049</ele>
        <time>2015-06-21T09:17:41Z</time>
      </trkpt>
      <trkpt lat="36.526349" lon="-5.373619">
        <ele>386.402</ele>
        <time>2015-06-21T09:17:42Z</time>
      </trkpt>
      <trkpt lat="36.526328" lon="-5.373618">
        <ele>386.822</ele>
        <time>2015-06-21T09:17:43Z</time>
      </trkpt>
      <trkpt lat="36.526309" lon="-5.373617">
        <ele>387.208</ele>
        <time>2015-06-21T09:17:44Z</time>
      </trkpt>
      <trkpt lat="36.526291" lon="-5.373614">
        <ele>387.675</ele>
        <time>2015-06-21T09:17:45Z</time>
      </trkpt>
      <trkpt lat="36.526143" lon="-5.373612">
        <ele>387.691</ele>
        <time>2015-06-21T09:17:52Z</time>
      </trkpt>
      <trkpt lat="36.526052" lon="-5.373660">
        <ele>388.054</ele>
        <time>2015-06-21T09:17:57Z</time>
      </trkpt>
      <trkpt lat="36.526036" lon="-5.373678">
        <ele>389.044</ele>
        <time>2015-06-21T09:17:58Z</time>
      </trkpt>
      <trkpt lat="36.526013" lon="-5.373722">
        <ele>389.878</ele>
        <time>2015-06-21T09:17:59Z</time>
      </trkpt>
      <trkpt lat="36.526000" lon="-5.373825">
        <ele>389.865</ele>
        <time>2015-06-21T09:18:04Z</time>
      </trkpt>
      <trkpt lat="36.526009" lon="-5.373979">
        <ele>390.214</ele>
        <time>2015-06-21T09:18:09Z</time>
      </trkpt>
      <trkpt lat="36.526006" lon="-5.374006">
        <ele>390.686</ele>
        <time>2015-06-21T09:18:10Z</time>
      </trkpt>
      <trkpt lat="36.526003" lon="-5.374034">
        <ele>391.053</ele>
        <time>2015-06-21T09:18:11Z</time>
      </trkpt>
      <trkpt lat="36.525997" lon="-5.374060">
        <ele>391.404</ele>
        <time>2015-06-21T09:18:12Z</time>
      </trkpt>
      <trkpt lat="36.525992" lon="-5.374088">
        <ele>392.014</ele>
        <time>2015-06-21T09:18:13Z</time>
      </trkpt>
      <trkpt lat="36.525958" lon="-5.374235">
        <ele>392.008</ele>
        <time>2015-06-21T09:18:18Z</time>
      </trkpt>
      <trkpt lat="36.525902" lon="-5.374403">
        <ele>392.466</ele>
        <time>2015-06-21T09:18:24Z</time>
      </trkpt>
      <trkpt lat="36.525892" lon="-5.374430">
        <ele>392.882</ele>
        <time>2015-06-21T09:18:25Z</time>
      </trkpt>
      <trkpt lat="36.525884" lon="-5.374456">
        <ele>393.265</ele>
        <time>2015-06-21T09:18:26Z</time>
      </trkpt>
      <trkpt lat="36.525874" lon="-5.374482">
        <ele>393.615</ele>
        <time>2015-06-21T09:18:27Z</time>
      </trkpt>
      <trkpt lat="36.525864" lon="-5.374510">
        <ele>394.069</ele>
        <time>2015-06-21T09:18:28Z</time>
      </trkpt>
      <trkpt lat="36.525784" lon="-5.374715">
        <ele>394.036</ele>
        <time>2015-06-21T09:18:36Z</time>
      </trkpt>
      <trkpt lat="36.525728" lon="-5.374844">
        <ele>394.465</ele>
        <time>2015-06-21T09:18:41Z</time>
      </trkpt>
      <trkpt lat="36.525716" lon="-5.374869">
        <ele>394.887</ele>
        <time>2015-06-21T09:18:42Z</time>
      </trkpt>
      <trkpt lat="36.525705" lon="-5.374894">
        <ele>395.282</ele>
        <time>2015-06-21T09:18:43Z</time>
      </trkpt>
      <trkpt lat="36.525692" lon="-5.374918">
        <ele>395.643</ele>
        <time>2015-06-21T09:18:44Z</time>
      </trkpt>
      <trkpt lat="36.525676" lon="-5.374941">
        <ele>396.017</ele>
        <time>2015-06-21T09:18:45Z</time>
      </trkpt>
      <trkpt lat="36.525615" lon="-5.375024">
        <ele>396.008</ele>
        <time>2015-06-21T09:18:49Z</time>
      </trkpt>
      <trkpt lat="36.525483" lon="-5.375049">
        <ele>396.459</ele>
        <time>2015-06-21T09:18:55Z</time>
      </trkpt>
      <trkpt lat="36.525459" lon="-5.375040">
        <ele>396.865</ele>
        <time>2015-06-21T09:18:56Z</time>
      </trkpt>
      <trkpt lat="36.525435" lon="-5.375029">
        <ele>397.268</ele>
        <time>2015-06-21T09:18:57Z</time>
      </trkpt>
      <trkpt lat="36.525411" lon="-5.375016">
        <ele>397.618</ele>
        <time>2015-06-21T09:18:58Z</time>
      </trkpt>
      <trkpt lat="36.525392" lon="-5.375003">
        <ele>398.052</ele>
        <time>2015-06-21T09:18:59Z</time>
      </trkpt>
      <trkpt lat="36.525333" lon="-5.374963">
        <ele>398.049</ele>
        <time>2015-06-21T09:19:02Z</time>
      </trkpt>
      <trkpt lat="36.525192" lon="-5.374812">
        <ele>398.028</ele>
        <time>2015-06-21T09:19:10Z</time>
      </trkpt>
      <trkpt lat="36.525151" lon="-5.374778">
        <ele>398.430</ele>
        <time>2015-06-21T09:19:12Z</time>
      </trkpt>
      <trkpt lat="36.525128" lon="-5.374764">
        <ele>399.279</ele>
        <time>2015-06-21T09:19:13Z</time>
      </trkpt>
      <trkpt lat="36.525105" lon="-5.374751">
        <ele>399.805</ele>
        <time>2015-06-21T09:19:14Z</time>
      </trkpt>
      <trkpt lat="36.525082" lon="-5.374738">
        <ele>400.225</ele>
        <time>2015-06-21T09:19:15Z</time>
      </trkpt>
      <trkpt lat="36.525040" lon="-5.374720">
        <ele>400.208</ele>
        <time>2015-06-21T09:19:17Z</time>
      </trkpt>
      <trkpt lat="36.524875" lon="-5.374671">
        <ele>400.238</ele>
        <time>2015-06-21T09:19:25Z</time>
      </trkpt>
      <trkpt lat="36.524836" lon="-5.374664">
        <ele>400.674</ele>
        <time>2015-06-21T09:19:27Z</time>
      </trkpt>
      <trkpt lat="36.524816" lon="-5.374665">
        <ele>401.047</ele>
        <time>2015-06-21T09:19:28Z</time>
      </trkpt>
      <trkpt lat="36.524795" lon="-5.374666">
        <ele>401.477</ele>
        <time>2015-06-21T09:19:29Z</time>
      </trkpt>
      <trkpt lat="36.524774" lon="-5.374666">
        <ele>401.841</ele>
        <time>2015-06-21T09:19:30Z</time>
      </trkpt>
      <trkpt lat="36.524753" lon="-5.374665">
        <ele>402.238</ele>
        <time>2015-06-21T09:19:31Z</time>
      </trkpt>
      <trkpt lat="36.524734" lon="-5.374664">
        <ele>402.237</ele>
        <time>2015-06-21T09:19:32Z</time>
      </trkpt>
      <trkpt lat="36.524665" lon="-5.374668">
        <ele>402.699</ele>
        <time>2015-06-21T09:19:36Z</time>
      </trkpt>
      <trkpt lat="36.524644" lon="-5.374666">
        <ele>403.276</ele>
        <time>2015-06-21T09:19:37Z</time>
      </trkpt>
      <trkpt lat="36.524623" lon="-5.374668">
        <ele>404.090</ele>
        <time>2015-06-21T09:19:38Z</time>
      </trkpt>
      <trkpt lat="36.524603" lon="-5.374670">
        <ele>404.419</ele>
        <time>2015-06-21T09:19:39Z</time>
      </trkpt>
      <trkpt lat="36.524483" lon="-5.374665">
        <ele>404.408</ele>
        <time>2015-06-21T09:19:45Z</time>
      </trkpt>
      <trkpt lat="36.524323" lon="-5.374641">
        <ele>404.878</ele>
        <time>2015-06-21T09:19:54Z</time>
      </trkpt>
      <trkpt lat="36.524313" lon="-5.374642">
        <ele>405.244</ele>
        <time>2015-06-21T09:19:55Z</time>
      </trkpt>
      <trkpt lat="36.524299" lon="-5.374642">
        <ele>405.637</ele>
        <time>2015-06-21T09:19:56Z</time>
      </trkpt>
      <trkpt lat="36.524279" lon="-5.374640">
        <ele>406.077</ele>
        <time>2015-06-21T09:19:57Z</time>
      </trkpt>
      <trkpt lat="36.524257" lon="-5.374636">
        <ele>406.651</ele>
        <time>2015-06-21T09:19:58Z</time>
      </trkpt>
      <trkpt lat="36.524238" lon="-5.374627">
        <ele>406.688</ele>
        <time>2015-06-21T09:19:59Z</time>
      </trkpt>
      <trkpt lat="36.524145" lon="-5.374594">
        <ele>406.667</ele>
        <time>2015-06-21T09:20:04Z</time>
      </trkpt>
      <trkpt lat="36.524134" lon="-5.374588">
        <ele>406.679</ele>
        <time>2015-06-21T09:20:05Z</time>
      </trkpt>
      <trkpt lat="36.524041" lon="-5.374494">
        <ele>406.654</ele>
        <time>2015-06-21T09:20:12Z</time>
      </trkpt>
      <trkpt lat="36.524030" lon="-5.374478">
        <ele>407.056</ele>
        <time>2015-06-21T09:20:13Z</time>
      </trkpt>
      <trkpt lat="36.524015" lon="-5.374464">
        <ele>407.411</ele>
        <time>2015-06-21T09:20:14Z</time>
      </trkpt>
      <trkpt lat="36.523999" lon="-5.374451">
        <ele>407.808</ele>
        <time>2015-06-21T09:20:15Z</time>
      </trkpt>
      <trkpt lat="36.523987" lon="-5.374436">
        <ele>408.256</ele>
        <time>2015-06-21T09:20:16Z</time>
      </trkpt>
      <trkpt lat="36.523978" lon="-5.374417">
        <ele>408.612</ele>
        <time>2015-06-21T09:20:17Z</time>
      </trkpt>
      <trkpt lat="36.523924" lon="-5.374303">
        <ele>408.675</ele>
        <time>2015-06-21T09:20:22Z</time>
      </trkpt>
      <trkpt lat="36.523904" lon="-5.374256">
        <ele>408.655</ele>
        <time>2015-06-21T09:20:24Z</time>
      </trkpt>
      <trkpt lat="36.523884" lon="-5.374211">
        <ele>409.449</ele>
        <time>2015-06-21T09:20:26Z</time>
      </trkpt>
      <trkpt lat="36.523868" lon="-5.374194">
        <ele>409.876</ele>
        <time>2015-06-21T09:20:27Z</time>
      </trkpt>
      <trkpt lat="36.523854" lon="-5.374183">
        <ele>410.285</ele>
        <time>2015-06-21T09:20:28Z</time>
      </trkpt>
      <trkpt lat="36.523841" lon="-5.374173">
        <ele>410.627</ele>
        <time>2015-06-21T09:20:29Z</time>
      </trkpt>
      <trkpt lat="36.523827" lon="-5.374158">
        <ele>410.624</ele>
        <time>2015-06-21T09:20:30Z</time>
      </trkpt>
      <trkpt lat="36.523776" lon="-5.374056">
        <ele>410.604</ele>
        <time>2015-06-21T09:20:37Z</time>
      </trkpt>
      <trkpt lat="36.523773" lon="-5.374055">
        <ele>410.614</ele>
        <time>2015-06-21T09:20:42Z</time>
      </trkpt>
      <trkpt lat="36.523750" lon="-5.374042">
        <ele>410.608</ele>
        <time>2015-06-21T09:20:44Z</time>
      </trkpt>
      <trkpt lat="36.523665" lon="-5.373971">
        <ele>410.663</ele>
        <time>2015-06-21T09:20:49Z</time>
      </trkpt>
      <trkpt lat="36.523645" lon="-5.373968">
        <ele>410.649</ele>
        <time>2015-06-21T09:20:50Z</time>
      </trkpt>
      <trkpt lat="36.523565" lon="-5.373965">
        <ele>411.282</ele>
        <time>2015-06-21T09:20:54Z</time>
      </trkpt>
      <trkpt lat="36.523546" lon="-5.373962">
        <ele>411.682</ele>
        <time>2015-06-21T09:20:55Z</time>
      </trkpt>
      <trkpt lat="36.523527" lon="-5.373966">
        <ele>412.086</ele>
        <time>2015-06-21T09:20:56Z</time>
      </trkpt>
      <trkpt lat="36.523509" lon="-5.373971">
        <ele>412.423</ele>
        <time>2015-06-21T09:20:57Z</time>
      </trkpt>
      <trkpt lat="36.523490" lon="-5.373976">
        <ele>412.832</ele>
        <time>2015-06-21T09:20:58Z</time>
      </trkpt>
      <trkpt lat="36.523448" lon="-5.373991">
        <ele>412.854</ele>
        <time>2015-06-21T09:21:00Z</time>
      </trkpt>
      <trkpt lat="36.523346" lon="-5.374081">
        <ele>413.248</ele>
        <time>2015-06-21T09:21:06Z</time>
      </trkpt>
      <trkpt lat="36.523328" lon="-5.374099">
        <ele>413.661</ele>
        <time>2015-06-21T09:21:07Z</time>
      </trkpt>
      <trkpt lat="36.523306" lon="-5.374112">
        <ele>414.017</ele>
        <time>2015-06-21T09:21:08Z</time>
      </trkpt>
      <trkpt lat="36.523285" lon="-5.374127">
        <ele>414.408</ele>
        <time>2015-06-21T09:21:09Z</time>
      </trkpt>
      <trkpt lat="36.523265" lon="-5.374142">
        <ele>414.815</ele>
        <time>2015-06-21T09:21:10Z</time>
      </trkpt>
      <trkpt lat="36.523234" lon="-5.374163">
        <ele>414.871</ele>
        <time>2015-06-21T09:21:12Z</time>
      </trkpt>
      <trkpt lat="36.523130" lon="-5.374225">
        <ele>414.824</ele>
        <time>2015-06-21T09:21:18Z</time>
      </trkpt>
      <trkpt lat="36.523046" lon="-5.374273">
        <ele>415.244</ele>
        <time>2015-06-21T09:21:23Z</time>
      </trkpt>
      <trkpt lat="36.523029" lon="-5.374277">
        <ele>415.628</ele>
        <time>2015-06-21T09:21:24Z</time>
      </trkpt>
      <trkpt lat="36.523010" lon="-5.374279">
        <ele>416.035</ele>
        <time>2015-06-21T09:21:25Z</time>
      </trkpt>
      <trkpt lat="36.522989" lon="-5.374285">
        <ele>416.674</ele>
        <time>2015-06-21T09:21:26Z</time>
      </trkpt>
      <trkpt lat="36.522968" lon="-5.374294">
        <ele>417.066</ele>
        <time>2015-06-21T09:21:27Z</time>
      </trkpt>
      <trkpt lat="36.522909" lon="-5.374328">
        <ele>417.039</ele>
        <time>2015-06-21T09:21:30Z</time>
      </trkpt>
      <trkpt lat="36.522842" lon="-5.374348">
        <ele>417.001</ele>
        <time>2015-06-21T09:21:35Z</time>
      </trkpt>
      <trkpt lat="36.522729" lon="-5.374342">
        <ele>417.821</ele>
        <time>2015-06-21T09:21:40Z</time>
      </trkpt>
      <trkpt lat="36.522709" lon="-5.374346">
        <ele>418.208</ele>
        <time>2015-06-21T09:21:41Z</time>
      </trkpt>
      <trkpt lat="36.522686" lon="-5.374349">
        <ele>418.644</ele>
        <time>2015-06-21T09:21:42Z</time>
      </trkpt>
      <trkpt lat="36.522663" lon="-5.374351">
        <ele>419.060</ele>
        <time>2015-06-21T09:21:43Z</time>
      </trkpt>
      <trkpt lat="36.522511" lon="-5.374370">
        <ele>419.093</ele>
        <time>2015-06-21T09:21:50Z</time>
      </trkpt>
      <trkpt lat="36.522409" lon="-5.374392">
        <ele>419.413</ele>
        <time>2015-06-21T09:21:55Z</time>
      </trkpt>
      <trkpt lat="36.522387" lon="-5.374392">
        <ele>420.017</ele>
        <time>2015-06-21T09:21:56Z</time>
      </trkpt>
      <trkpt lat="36.522366" lon="-5.374391">
        <ele>420.464</ele>
        <time>2015-06-21T09:21:57Z</time>
      </trkpt>
      <trkpt lat="36.522341" lon="-5.374391">
        <ele>420.843</ele>
        <time>2015-06-21T09:21:58Z</time>
      </trkpt>
      <trkpt lat="36.522318" lon="-5.374391">
        <ele>421.295</ele>
        <time>2015-06-21T09:21:59Z</time>
      </trkpt>
      <trkpt lat="36.522157" lon="-5.374380">
        <ele>421.249</ele>
        <time>2015-06-21T09:22:06Z</time>
      </trkpt>
      <trkpt lat="36.522029" lon="-5.374360">
        <ele>421.602</ele>
        <time>2015-06-21T09:22:12Z</time>
      </trkpt>
      <trkpt lat="36.522006" lon="-5.374360">
        <ele>422.022</ele>
        <time>2015-06-21T09:22:13Z</time>
      </trkpt>
      <trkpt lat="36.521985" lon="-5.374359">
        <ele>422.408</ele>
        <time>2015-06-21T09:22:14Z</time>
      </trkpt>
      <trkpt lat="36.521963" lon="-5.374358">
        <ele>422.845</ele>
        <time>2015-06-21T09:22:15Z</time>
      </trkpt>
      <trkpt lat="36.521941" lon="-5.374357">
        <ele>423.251</ele>
        <time>2015-06-21T09:22:16Z</time>
      </trkpt>
      <trkpt lat="36.521843" lon="-5.374340">
        <ele>423.214</ele>
        <time>2015-06-21T09:22:21Z</time>
      </trkpt>
      <trkpt lat="36.521801" lon="-5.374343">
        <ele>423.244</ele>
        <time>2015-06-21T09:22:23Z</time>
      </trkpt>
      <trkpt lat="36.521781" lon="-5.374353">
        <ele>423.698</ele>
        <time>2015-06-21T09:22:24Z</time>
      </trkpt>
      <trkpt lat="36.521761" lon="-5.374360">
        <ele>424.295</ele>
        <time>2015-06-21T09:22:25Z</time>
      </trkpt>
      <trkpt lat="36.521739" lon="-5.374366">
        <ele>424.634</ele>
        <time>2015-06-21T09:22:26Z</time>
      </trkpt>
      <trkpt lat="36.521716" lon="-5.374367">
        <ele>425.086</ele>
        <time>2015-06-21T09:22:27Z</time>
      </trkpt>
      <trkpt lat="36.521693" lon="-5.374362">
        <ele>425.472</ele>
        <time>2015-06-21T09:22:28Z</time>
      </trkpt>
      <trkpt lat="36.521628" lon="-5.374356">
        <ele>425.413</ele>
        <time>2015-06-21T09:22:31Z</time>
      </trkpt>
      <trkpt lat="36.521483" lon="-5.374425">
        <ele>425.414</ele>
        <time>2015-06-21T09:22:38Z</time>
      </trkpt>
      <trkpt lat="36.521427" lon="-5.374458">
        <ele>425.808</ele>
        <time>2015-06-21T09:22:41Z</time>
      </trkpt>
      <trkpt lat="36.521410" lon="-5.374469">
        <ele>426.288</ele>
        <time>2015-06-21T09:22:42Z</time>
      </trkpt>
      <trkpt lat="36.521389" lon="-5.374482">
        <ele>426.624</ele>
        <time>2015-06-21T09:22:43Z</time>
      </trkpt>
      <trkpt lat="36.521368" lon="-5.374497">
        <ele>427.097</ele>
        <time>2015-06-21T09:22:44Z</time>
      </trkpt>
      <trkpt lat="36.521348" lon="-5.374513">
        <ele>427.477</ele>
        <time>2015-06-21T09:22:45Z</time>
      </trkpt>
      <trkpt lat="36.521307" lon="-5.374538">
        <ele>427.491</ele>
        <time>2015-06-21T09:22:47Z</time>
      </trkpt>
      <trkpt lat="36.521191" lon="-5.374672">
        <ele>427.468</ele>
        <time>2015-06-21T09:22:54Z</time>
      </trkpt>
      <trkpt lat="36.521154" lon="-5.374741">
        <ele>427.817</ele>
        <time>2015-06-21T09:22:57Z</time>
      </trkpt>
      <trkpt lat="36.521139" lon="-5.374762">
        <ele>428.299</ele>
        <time>2015-06-21T09:22:58Z</time>
      </trkpt>
      <trkpt lat="36.521124" lon="-5.374783">
        <ele>428.689</ele>
        <time>2015-06-21T09:22:59Z</time>
      </trkpt>
      <trkpt lat="36.521110" lon="-5.374806">
        <ele>429.006</ele>
        <time>2015-06-21T09:23:00Z</time>
      </trkpt>
      <trkpt lat="36.521098" lon="-5.374830">
        <ele>429.426</ele>
        <time>2015-06-21T09:23:01Z</time>
      </trkpt>
      <trkpt lat="36.521065" lon="-5.374901">
        <ele>429.408</ele>
        <time>2015-06-21T09:23:04Z</time>
      </trkpt>
      <trkpt lat="36.521035" lon="-5.374976">
        <ele>429.839</ele>
        <time>2015-06-21T09:23:07Z</time>
      </trkpt>
      <trkpt lat="36.521024" lon="-5.374998">
        <ele>430.215</ele>
        <time>2015-06-21T09:23:08Z</time>
      </trkpt>
      <trkpt lat="36.521011" lon="-5.375018">
        <ele>430.668</ele>
        <time>2015-06-21T09:23:09Z</time>
      </trkpt>
      <trkpt lat="36.521000" lon="-5.375039">
        <ele>431.058</ele>
        <time>2015-06-21T09:23:10Z</time>
      </trkpt>
      <trkpt lat="36.520989" lon="-5.375060">
        <ele>431.412</ele>
        <time>2015-06-21T09:23:11Z</time>
      </trkpt>
      <trkpt lat="36.520936" lon="-5.375146">
        <ele>431.479</ele>
        <time>2015-06-21T09:23:15Z</time>
      </trkpt>
      <trkpt lat="36.520835" lon="-5.375296">
        <ele>431.438</ele>
        <time>2015-06-21T09:23:22Z</time>
      </trkpt>
      <trkpt lat="36.520820" lon="-5.375315">
        <ele>432.050</ele>
        <time>2015-06-21T09:23:23Z</time>
      </trkpt>
      <trkpt lat="36.520806" lon="-5.375336">
        <ele>432.456</ele>
        <time>2015-06-21T09:23:24Z</time>
      </trkpt>
      <trkpt lat="36.520793" lon="-5.375358">
        <ele>432.859</ele>
        <time>2015-06-21T09:23:25Z</time>
      </trkpt>
      <trkpt lat="36.520778" lon="-5.375379">
        <ele>433.214</ele>
        <time>2015-06-21T09:23:26Z</time>
      </trkpt>
      <trkpt lat="36.520761" lon="-5.375399">
        <ele>433.608</ele>
        <time>2015-06-21T09:23:27Z</time>
      </trkpt>
      <trkpt lat="36.520705" lon="-5.375454">
        <ele>433.636</ele>
        <time>2015-06-21T09:23:30Z</time>
      </trkpt>
      <trkpt lat="36.520595" lon="-5.375541">
        <ele>433.642</ele>
        <time>2015-06-21T09:23:36Z</time>
      </trkpt>
      <trkpt lat="36.520542" lon="-5.375585">
        <ele>433.625</ele>
        <time>2015-06-21T09:23:39Z</time>
      </trkpt>
      <trkpt lat="36.520506" lon="-5.375609">
        <ele>434.035</ele>
        <time>2015-06-21T09:23:41Z</time>
      </trkpt>
      <trkpt lat="36.520486" lon="-5.375623">
        <ele>434.469</ele>
        <time>2015-06-21T09:23:42Z</time>
      </trkpt>
      <trkpt lat="36.520466" lon="-5.375635">
        <ele>434.846</ele>
        <time>2015-06-21T09:23:43Z</time>
      </trkpt>
      <trkpt lat="36.520445" lon="-5.375643">
        <ele>435.695</ele>
        <time>2015-06-21T09:23:44Z</time>
      </trkpt>
      <trkpt lat="36.520382" lon="-5.375669">
        <ele>435.697</ele>
        <time>2015-06-21T09:23:47Z</time>
      </trkpt>
      <trkpt lat="36.520231" lon="-5.375705">
        <ele>436.219</ele>
        <time>2015-06-21T09:23:54Z</time>
      </trkpt>
      <trkpt lat="36.520210" lon="-5.375701">
        <ele>436.609</ele>
        <time>2015-06-21T09:23:55Z</time>
      </trkpt>
      <trkpt lat="36.520190" lon="-5.375695">
        <ele>437.019</ele>
        <time>2015-06-21T09:23:56Z</time>
      </trkpt>
      <trkpt lat="36.520170" lon="-5.375685">
        <ele>437.408</ele>
        <time>2015-06-21T09:23:57Z</time>
      </trkpt>
      <trkpt lat="36.520150" lon="-5.375671">
        <ele>437.832</ele>
        <time>2015-06-21T09:23:58Z</time>
      </trkpt>
      <trkpt lat="36.520117" lon="-5.375637">
        <ele>437.898</ele>
        <time>2015-06-21T09:24:00Z</time>
      </trkpt>
      <trkpt lat="36.520076" lon="-5.375510">
        <ele>438.241</ele>
        <time>2015-06-21T09:24:05Z</time>
      </trkpt>
      <trkpt lat="36.520078" lon="-5.375479">
        <ele>438.621</ele>
        <time>2015-06-21T09:24:06Z</time>
      </trkpt>
      <trkpt lat="36.520081" lon="-5.375446">
        <ele>439.095</ele>
        <time>2015-06-21T09:24:07Z</time>
      </trkpt>
      <trkpt lat="36.520081" lon="-5.375414">
        <ele>439.882</ele>
        <time>2015-06-21T09:24:08Z</time>
      </trkpt>
      <trkpt lat="36.520103" lon="-5.375267">
        <ele>439.851</ele>
        <time>2015-06-21T09:24:13Z</time>
      </trkpt>
      <trkpt lat="36.520173" lon="-5.375064">
        <ele>439.863</ele>
        <time>2015-06-21T09:24:21Z</time>
      </trkpt>
      <trkpt lat="36.520194" lon="-5.375014">
        <ele>440.484</ele>
        <time>2015-06-21T09:24:23Z</time>
      </trkpt>
      <trkpt lat="36.520205" lon="-5.374989">
        <ele>440.807</ele>
        <time>2015-06-21T09:24:24Z</time>
      </trkpt>
      <trkpt lat="36.520215" lon="-5.374966">
        <ele>441.217</ele>
        <time>2015-06-21T09:24:25Z</time>
      </trkpt>
      <trkpt lat="36.520224" lon="-5.374943">
        <ele>441.608</ele>
        <time>2015-06-21T09:24:26Z</time>
      </trkpt>
      <trkpt lat="36.520231" lon="-5.374919">
        <ele>442.069</ele>
        <time>2015-06-21T09:24:27Z</time>
      </trkpt>
      <trkpt lat="36.520244" lon="-5.374870">
        <ele>442.075</ele>
        <time>2015-06-21T09:24:29Z</time>
      </trkpt>
      <trkpt lat="36.520320" lon="-5.374671">
        <ele>442.418</ele>
        <time>2015-06-21T09:24:37Z</time>
      </trkpt>
      <trkpt lat="36.520326" lon="-5.374646">
        <ele>442.828</ele>
        <time>2015-06-21T09:24:38Z</time>
      </trkpt>
      <trkpt lat="36.520333" lon="-5.374620">
        <ele>443.282</ele>
        <time>2015-06-21T09:24:39Z</time>
      </trkpt>
      <trkpt lat="36.520339" lon="-5.374594">
        <ele>443.899</ele>
        <time>2015-06-21T09:24:40Z</time>
      </trkpt>
      <trkpt lat="36.520346" lon="-5.374568">
        <ele>444.218</ele>
        <time>2015-06-21T09:24:41Z</time>
      </trkpt>
      <trkpt lat="36.520364" lon="-5.374435">
        <ele>444.270</ele>
        <time>2015-06-21T09:24:46Z</time>
      </trkpt>
      <trkpt lat="36.520364" lon="-5.374304">
        <ele>444.612</ele>
        <time>2015-06-21T09:24:51Z</time>
      </trkpt>
      <trkpt lat="36.520358" lon="-5.374279">
        <ele>445.032</ele>
        <time>2015-06-21T09:24:52Z</time>
      </trkpt>
      <trkpt lat="36.520354" lon="-5.374254">
        <ele>445.405</ele>
        <time>2015-06-21T09:24:53Z</time>
      </trkpt>
      <trkpt lat="36.520351" lon="-5.374229">
        <ele>445.808</ele>
        <time>2015-06-21T09:24:54Z</time>
      </trkpt>
      <trkpt lat="36.520346" lon="-5.374204">
        <ele>446.222</ele>
        <time>2015-06-21T09:24:55Z</time>
      </trkpt>
      <trkpt lat="36.520314" lon="-5.374075">
        <ele>446.668</ele>
        <time>2015-06-21T09:25:00Z</time>
      </trkpt>
      <trkpt lat="36.520308" lon="-5.374049">
        <ele>447.031</ele>
        <time>2015-06-21T09:25:01Z</time>
      </trkpt>
      <trkpt lat="36.520302" lon="-5.374025">
        <ele>447.421</ele>
        <time>2015-06-21T09:25:02Z</time>
      </trkpt>
      <trkpt lat="36.520295" lon="-5.373999">
        <ele>447.815</ele>
        <time>2015-06-21T09:25:03Z</time>
      </trkpt>
      <trkpt lat="36.520288" lon="-5.373974">
        <ele>448.282</ele>
        <time>2015-06-21T09:25:04Z</time>
      </trkpt>
      <trkpt lat="36.520239" lon="-5.373798">
        <ele>448.281</ele>
        <time>2015-06-21T09:25:11Z</time>
      </trkpt>
      <trkpt lat="36.520189" lon="-5.373639">
        <ele>448.883</ele>
        <time>2015-06-21T09:25:17Z</time>
      </trkpt>
      <trkpt lat="36.520181" lon="-5.373614">
        <ele>449.255</ele>
        <time>2015-06-21T09:25:18Z</time>
      </trkpt>
      <trkpt lat="36.520173" lon="-5.373589">
        <ele>449.607</ele>
        <time>2015-06-21T09:25:19Z</time>
      </trkpt>
      <trkpt lat="36.520161" lon="-5.373566">
        <ele>450.017</ele>
        <time>2015-06-21T09:25:20Z</time>
      </trkpt>
      <trkpt lat="36.520150" lon="-5.373542">
        <ele>450.408</ele>
        <time>2015-06-21T09:25:21Z</time>
      </trkpt>
      <trkpt lat="36.520117" lon="-5.373472">
        <ele>450.446</ele>
        <time>2015-06-21T09:25:24Z</time>
      </trkpt>
      <trkpt lat="36.520027" lon="-5.373356">
        <ele>450.852</ele>
        <time>2015-06-21T09:25:30Z</time>
      </trkpt>
      <trkpt lat="36.520017" lon="-5.373332">
        <ele>451.295</ele>
        <time>2015-06-21T09:25:31Z</time>
      </trkpt>
      <trkpt lat="36.520006" lon="-5.373310">
        <ele>451.615</ele>
        <time>2015-06-21T09:25:32Z</time>
      </trkpt>
      <trkpt lat="36.519992" lon="-5.373289">
        <ele>452.289</ele>
        <time>2015-06-21T09:25:33Z</time>
      </trkpt>
      <trkpt lat="36.519975" lon="-5.373270">
        <ele>452.676</ele>
        <time>2015-06-21T09:25:34Z</time>
      </trkpt>
      <trkpt lat="36.519897" lon="-5.373214">
        <ele>452.625</ele>
        <time>2015-06-21T09:25:38Z</time>
      </trkpt>
      <trkpt lat="36.519799" lon="-5.373142">
        <ele>453.097</ele>
        <time>2015-06-21T09:25:43Z</time>
      </trkpt>
      <trkpt lat="36.519780" lon="-5.373129">
        <ele>453.448</ele>
        <time>2015-06-21T09:25:44Z</time>
      </trkpt>
      <trkpt lat="36.519761" lon="-5.373115">
        <ele>453.861</ele>
        <time>2015-06-21T09:25:45Z</time>
      </trkpt>
      <trkpt lat="36.519743" lon="-5.373097">
        <ele>454.217</ele>
        <time>2015-06-21T09:25:46Z</time>
      </trkpt>
      <trkpt lat="36.519724" lon="-5.373082">
        <ele>454.608</ele>
        <time>2015-06-21T09:25:47Z</time>
      </trkpt>
      <trkpt lat="36.519707" lon="-5.373066">
        <ele>454.695</ele>
        <time>2015-06-21T09:25:48Z</time>
      </trkpt>
      <trkpt lat="36.519538" lon="-5.372952">
        <ele>454.631</ele>
        <time>2015-06-21T09:25:57Z</time>
      </trkpt>
      <trkpt lat="36.519515" lon="-5.372946">
        <ele>455.034</ele>
        <time>2015-06-21T09:25:58Z</time>
      </trkpt>
      <trkpt lat="36.519495" lon="-5.372938">
        <ele>455.484</ele>
        <time>2015-06-21T09:25:59Z</time>
      </trkpt>
      <trkpt lat="36.519476" lon="-5.372925">
        <ele>455.818</ele>
        <time>2015-06-21T09:26:00Z</time>
      </trkpt>
      <trkpt lat="36.519457" lon="-5.372913">
        <ele>456.275</ele>
        <time>2015-06-21T09:26:01Z</time>
      </trkpt>
      <trkpt lat="36.519437" lon="-5.372899">
        <ele>456.684</ele>
        <time>2015-06-21T09:26:02Z</time>
      </trkpt>
      <trkpt lat="36.519381" lon="-5.372848">
        <ele>456.696</ele>
        <time>2015-06-21T09:26:05Z</time>
      </trkpt>
      <trkpt lat="36.519271" lon="-5.372764">
        <ele>456.638</ele>
        <time>2015-06-21T09:26:11Z</time>
      </trkpt>
      <trkpt lat="36.519235" lon="-5.372733">
        <ele>457.270</ele>
        <time>2015-06-21T09:26:13Z</time>
      </trkpt>
      <trkpt lat="36.519213" lon="-5.372717">
        <ele>457.617</ele>
        <time>2015-06-21T09:26:14Z</time>
      </trkpt>
      <trkpt lat="36.519192" lon="-5.372702">
        <ele>458.008</ele>
        <time>2015-06-21T09:26:15Z</time>
      </trkpt>
      <trkpt lat="36.519172" lon="-5.372686">
        <ele>458.474</ele>
        <time>2015-06-21T09:26:16Z</time>
      </trkpt>
      <trkpt lat="36.519152" lon="-5.372669">
        <ele>458.860</ele>
        <time>2015-06-21T09:26:17Z</time>
      </trkpt>
      <trkpt lat="36.519089" lon="-5.372619">
        <ele>458.843</ele>
        <time>2015-06-21T09:26:20Z</time>
      </trkpt>
      <trkpt lat="36.518977" lon="-5.372520">
        <ele>459.243</ele>
        <time>2015-06-21T09:26:26Z</time>
      </trkpt>
      <trkpt lat="36.518961" lon="-5.372500">
        <ele>459.647</ele>
        <time>2015-06-21T09:26:27Z</time>
      </trkpt>
      <trkpt lat="36.518944" lon="-5.372480">
        <ele>460.064</ele>
        <time>2015-06-21T09:26:28Z</time>
      </trkpt>
      <trkpt lat="36.518927" lon="-5.372457">
        <ele>460.433</ele>
        <time>2015-06-21T09:26:29Z</time>
      </trkpt>
      <trkpt lat="36.518913" lon="-5.372432">
        <ele>460.895</ele>
        <time>2015-06-21T09:26:30Z</time>
      </trkpt>
      <trkpt lat="36.518835" lon="-5.372272">
        <ele>460.873</ele>
        <time>2015-06-21T09:26:36Z</time>
      </trkpt>
      <trkpt lat="36.518822" lon="-5.372213">
        <ele>461.285</ele>
        <time>2015-06-21T09:26:38Z</time>
      </trkpt>
      <trkpt lat="36.518818" lon="-5.372182">
        <ele>461.613</ele>
        <time>2015-06-21T09:26:39Z</time>
      </trkpt>
      <trkpt lat="36.518816" lon="-5.372153">
        <ele>462.208</ele>
        <time>2015-06-21T09:26:40Z</time>
      </trkpt>
      <trkpt lat="36.518817" lon="-5.372127">
        <ele>462.668</ele>
        <time>2015-06-21T09:26:41Z</time>
      </trkpt>
      <trkpt lat="36.518820" lon="-5.372099">
        <ele>463.034</ele>
        <time>2015-06-21T09:26:42Z</time>
      </trkpt>
      <trkpt lat="36.518825" lon="-5.372069">
        <ele>463.057</ele>
        <time>2015-06-21T09:26:43Z</time>
      </trkpt>
      <trkpt lat="36.518909" lon="-5.371924">
        <ele>463.037</ele>
        <time>2015-06-21T09:26:49Z</time>
      </trkpt>
      <trkpt lat="36.518929" lon="-5.371909">
        <ele>463.441</ele>
        <time>2015-06-21T09:26:50Z</time>
      </trkpt>
      <trkpt lat="36.518952" lon="-5.371897">
        <ele>463.818</ele>
        <time>2015-06-21T09:26:51Z</time>
      </trkpt>
      <trkpt lat="36.518975" lon="-5.371884">
        <ele>464.267</ele>
        <time>2015-06-21T09:26:52Z</time>
      </trkpt>
      <trkpt lat="36.518999" lon="-5.371873">
        <ele>464.639</ele>
        <time>2015-06-21T09:26:53Z</time>
      </trkpt>
      <trkpt lat="36.519023" lon="-5.371863">
        <ele>465.212</ele>
        <time>2015-06-21T09:26:54Z</time>
      </trkpt>
      <trkpt lat="36.519046" lon="-5.371852">
        <ele>465.232</ele>
        <time>2015-06-21T09:26:55Z</time>
      </trkpt>
      <trkpt lat="36.519233" lon="-5.371812">
        <ele>465.205</ele>
        <time>2015-06-21T09:27:03Z</time>
      </trkpt>
      <trkpt lat="36.519327" lon="-5.371811">
        <ele>465.608</ele>
        <time>2015-06-21T09:27:07Z</time>
      </trkpt>
      <trkpt lat="36.519351" lon="-5.371807">
        <ele>466.032</ele>
        <time>2015-06-21T09:27:08Z</time>
      </trkpt>
      <trkpt lat="36.519373" lon="-5.371797">
        <ele>466.468</ele>
        <time>2015-06-21T09:27:09Z</time>
      </trkpt>
      <trkpt lat="36.519397" lon="-5.371790">
        <ele>466.821</ele>
        <time>2015-06-21T09:27:10Z</time>
      </trkpt>
      <trkpt lat="36.519420" lon="-5.371787">
        <ele>467.211</ele>
        <time>2015-06-21T09:27:11Z</time>
      </trkpt>
      <trkpt lat="36.519585" lon="-5.371754">
        <ele>467.255</ele>
        <time>2015-06-21T09:27:18Z</time>
      </trkpt>
      <trkpt lat="36.519695" lon="-5.371716">
        <ele>467.642</ele>
        <time>2015-06-21T09:27:23Z</time>
      </trkpt>
      <trkpt lat="36.519716" lon="-5.371711">
        <ele>468.051</ele>
        <time>2015-06-21T09:27:24Z</time>
      </trkpt>
      <trkpt lat="36.519738" lon="-5.371713">
        <ele>468.473</ele>
        <time>2015-06-21T09:27:25Z</time>
      </trkpt>
      <trkpt lat="36.519758" lon="-5.371707">
        <ele>469.294</ele>
        <time>2015-06-21T09:27:26Z</time>
      </trkpt>
      <trkpt lat="36.519912" lon="-5.371643">
        <ele>469.257</ele>
        <time>2015-06-21T09:27:33Z</time>
      </trkpt>
      <trkpt lat="36.519975" lon="-5.371616">
        <ele>469.622</ele>
        <time>2015-06-21T09:27:36Z</time>
      </trkpt>
      <trkpt lat="36.519997" lon="-5.371607">
        <ele>470.208</ele>
        <time>2015-06-21T09:27:37Z</time>
      </trkpt>
      <trkpt lat="36.520017" lon="-5.371600">
        <ele>470.620</ele>
        <time>2015-06-21T09:27:38Z</time>
      </trkpt>
      <trkpt lat="36.520039" lon="-5.371594">
        <ele>471.056</ele>
        <time>2015-06-21T09:27:39Z</time>
      </trkpt>
      <trkpt lat="36.520062" lon="-5.371590">
        <ele>471.469</ele>
        <time>2015-06-21T09:27:40Z</time>
      </trkpt>
      <trkpt lat="36.520085" lon="-5.371586">
        <ele>471.439</ele>
        <time>2015-06-21T09:27:41Z</time>
      </trkpt>
      <trkpt lat="36.520208" lon="-5.371513">
        <ele>471.463</ele>
        <time>2015-06-21T09:27:47Z</time>
      </trkpt>
      <trkpt lat="36.520228" lon="-5.371501">
        <ele>471.490</ele>
        <time>2015-06-21T09:27:48Z</time>
      </trkpt>
      <trkpt lat="36.520285" lon="-5.371465">
        <ele>472.219</ele>
        <time>2015-06-21T09:27:51Z</time>
      </trkpt>
      <trkpt lat="36.520303" lon="-5.371448">
        <ele>472.821</ele>
        <time>2015-06-21T09:27:52Z</time>
      </trkpt>
      <trkpt lat="36.520322" lon="-5.371435">
        <ele>473.293</ele>
        <time>2015-06-21T09:27:53Z</time>
      </trkpt>
      <trkpt lat="36.520340" lon="-5.371418">
        <ele>473.665</ele>
        <time>2015-06-21T09:27:54Z</time>
      </trkpt>
      <trkpt lat="36.520378" lon="-5.371383">
        <ele>473.621</ele>
        <time>2015-06-21T09:27:56Z</time>
      </trkpt>
      <trkpt lat="36.520453" lon="-5.371235">
        <ele>474.008</ele>
        <time>2015-06-21T09:28:02Z</time>
      </trkpt>
      <trkpt lat="36.520464" lon="-5.371209">
        <ele>474.450</ele>
        <time>2015-06-21T09:28:03Z</time>
      </trkpt>
      <trkpt lat="36.520475" lon="-5.371184">
        <ele>474.846</ele>
        <time>2015-06-21T09:28:04Z</time>
      </trkpt>
      <trkpt lat="36.520487" lon="-5.371157">
        <ele>475.489</ele>
        <time>2015-06-21T09:28:05Z</time>
      </trkpt>
      <trkpt lat="36.520496" lon="-5.371128">
        <ele>475.879</ele>
        <time>2015-06-21T09:28:06Z</time>
      </trkpt>
      <trkpt lat="36.520542" lon="-5.371002">
        <ele>475.873</ele>
        <time>2015-06-21T09:28:11Z</time>
      </trkpt>
      <trkpt lat="36.520564" lon="-5.370844">
        <ele>475.850</ele>
        <time>2015-06-21T09:28:17Z</time>
      </trkpt>
      <trkpt lat="36.520565" lon="-5.370816">
        <ele>476.229</ele>
        <time>2015-06-21T09:28:18Z</time>
      </trkpt>
      <trkpt lat="36.520568" lon="-5.370784">
        <ele>476.611</ele>
        <time>2015-06-21T09:28:19Z</time>
      </trkpt>
      <trkpt lat="36.520570" lon="-5.370754">
        <ele>477.039</ele>
        <time>2015-06-21T09:28:20Z</time>
      </trkpt>
      <trkpt lat="36.520570" lon="-5.370725">
        <ele>477.401</ele>
        <time>2015-06-21T09:28:21Z</time>
      </trkpt>
      <trkpt lat="36.520569" lon="-5.370698">
        <ele>478.021</ele>
        <time>2015-06-21T09:28:22Z</time>
      </trkpt>
      <trkpt lat="36.520569" lon="-5.370647">
        <ele>478.008</ele>
        <time>2015-06-21T09:28:24Z</time>
      </trkpt>
      <trkpt lat="36.520546" lon="-5.370460">
        <ele>478.074</ele>
        <time>2015-06-21T09:28:31Z</time>
      </trkpt>
      <trkpt lat="36.520539" lon="-5.370414">
        <ele>478.040</ele>
        <time>2015-06-21T09:28:33Z</time>
      </trkpt>
      <trkpt lat="36.520525" lon="-5.370337">
        <ele>478.033</ele>
        <time>2015-06-21T09:28:37Z</time>
      </trkpt>
      <trkpt lat="36.520519" lon="-5.370321">
        <ele>478.063</ele>
        <time>2015-06-21T09:28:38Z</time>
      </trkpt>
      <trkpt lat="36.520499" lon="-5.370282">
        <ele>478.017</ele>
        <time>2015-06-21T09:28:40Z</time>
      </trkpt>
      <trkpt lat="36.520479" lon="-5.370192">
        <ele>478.054</ele>
        <time>2015-06-21T09:28:43Z</time>
      </trkpt>
      <trkpt lat="36.520429" lon="-5.370066">
        <ele>478.033</ele>
        <time>2015-06-21T09:28:48Z</time>
      </trkpt>
      <trkpt lat="36.520303" lon="-5.369954">
        <ele>478.015</ele>
        <time>2015-06-21T09:28:53Z</time>
      </trkpt>
      <trkpt lat="36.520188" lon="-5.369857">
        <ele>478.416</ele>
        <time>2015-06-21T09:28:58Z</time>
      </trkpt>
      <trkpt lat="36.520164" lon="-5.369841">
        <ele>478.876</ele>
        <time>2015-06-21T09:28:59Z</time>
      </trkpt>
      <trkpt lat="36.520141" lon="-5.369820">
        <ele>479.213</ele>
        <time>2015-06-21T09:29:00Z</time>
      </trkpt>
      <trkpt lat="36.520116" lon="-5.369800">
        <ele>479.608</ele>
        <time>2015-06-21T09:29:01Z</time>
      </trkpt>
      <trkpt lat="36.520091" lon="-5.369781">
        <ele>480.062</ele>
        <time>2015-06-21T09:29:02Z</time>
      </trkpt>
      <trkpt lat="36.519954" lon="-5.369710">
        <ele>480.048</ele>
        <time>2015-06-21T09:29:07Z</time>
      </trkpt>
      <trkpt lat="36.519744" lon="-5.369603">
        <ele>480.011</ele>
        <time>2015-06-21T09:29:15Z</time>
      </trkpt>
      <trkpt lat="36.519579" lon="-5.369527">
        <ele>480.071</ele>
        <time>2015-06-21T09:29:22Z</time>
      </trkpt>
      <trkpt lat="36.519542" lon="-5.369498">
        <ele>480.475</ele>
        <time>2015-06-21T09:29:24Z</time>
      </trkpt>
      <trkpt lat="36.519528" lon="-5.369476">
        <ele>480.832</ele>
        <time>2015-06-21T09:29:25Z</time>
      </trkpt>
      <trkpt lat="36.519516" lon="-5.369454">
        <ele>481.271</ele>
        <time>2015-06-21T09:29:26Z</time>
      </trkpt>
      <trkpt lat="36.519503" lon="-5.369433">
        <ele>481.693</ele>
        <time>2015-06-21T09:29:27Z</time>
      </trkpt>
      <trkpt lat="36.519492" lon="-5.369411">
        <ele>482.054</ele>
        <time>2015-06-21T09:29:29Z</time>
      </trkpt>
      <trkpt lat="36.519456" lon="-5.369364">
        <ele>482.056</ele>
        <time>2015-06-21T09:29:34Z</time>
      </trkpt>
      <trkpt lat="36.519456" lon="-5.369341">
        <ele>482.011</ele>
        <time>2015-06-21T09:29:36Z</time>
      </trkpt>
      <trkpt lat="36.519430" lon="-5.369283">
        <ele>482.008</ele>
        <time>2015-06-21T09:29:41Z</time>
      </trkpt>
      <trkpt lat="36.519431" lon="-5.369212">
        <ele>482.016</ele>
        <time>2015-06-21T09:29:46Z</time>
      </trkpt>
      <trkpt lat="36.519445" lon="-5.369180">
        <ele>482.082</ele>
        <time>2015-06-21T09:29:48Z</time>
      </trkpt>
      <trkpt lat="36.519467" lon="-5.369149">
        <ele>482.035</ele>
        <time>2015-06-21T09:29:50Z</time>
      </trkpt>
      <trkpt lat="36.519473" lon="-5.369108">
        <ele>482.065</ele>
        <time>2015-06-21T09:29:52Z</time>
      </trkpt>
      <trkpt lat="36.519490" lon="-5.369065">
        <ele>482.479</ele>
        <time>2015-06-21T09:29:55Z</time>
      </trkpt>
      <trkpt lat="36.519504" lon="-5.369061">
        <ele>482.866</ele>
        <time>2015-06-21T09:29:56Z</time>
      </trkpt>
      <trkpt lat="36.519520" lon="-5.369060">
        <ele>483.265</ele>
        <time>2015-06-21T09:29:57Z</time>
      </trkpt>
      <trkpt lat="36.519537" lon="-5.369064">
        <ele>483.837</ele>
        <time>2015-06-21T09:29:58Z</time>
      </trkpt>
      <trkpt lat="36.519553" lon="-5.369077">
        <ele>484.289</ele>
        <time>2015-06-21T09:29:59Z</time>
      </trkpt>
      <trkpt lat="36.519612" lon="-5.369108">
        <ele>484.206</ele>
        <time>2015-06-21T09:30:02Z</time>
      </trkpt>
      <trkpt lat="36.519661" lon="-5.369111">
        <ele>484.226</ele>
        <time>2015-06-21T09:30:05Z</time>
      </trkpt>
      <trkpt lat="36.519672" lon="-5.369131">
        <ele>484.608</ele>
        <time>2015-06-21T09:30:06Z</time>
      </trkpt>
      <trkpt lat="36.519684" lon="-5.369154">
        <ele>485.019</ele>
        <time>2015-06-21T09:30:07Z</time>
      </trkpt>
      <trkpt lat="36.519695" lon="-5.369179">
        <ele>485.475</ele>
        <time>2015-06-21T09:30:08Z</time>
      </trkpt>
      <trkpt lat="36.519705" lon="-5.369206">
        <ele>485.858</ele>
        <time>2015-06-21T09:30:09Z</time>
      </trkpt>
      <trkpt lat="36.519715" lon="-5.369233">
        <ele>486.268</ele>
        <time>2015-06-21T09:30:10Z</time>
      </trkpt>
      <trkpt lat="36.519724" lon="-5.369258">
        <ele>486.272</ele>
        <time>2015-06-21T09:30:11Z</time>
      </trkpt>
      <trkpt lat="36.519782" lon="-5.369359">
        <ele>486.249</ele>
        <time>2015-06-21T09:30:16Z</time>
      </trkpt>
      <trkpt lat="36.519861" lon="-5.369452">
        <ele>486.628</ele>
        <time>2015-06-21T09:30:21Z</time>
      </trkpt>
      <trkpt lat="36.519883" lon="-5.369461">
        <ele>487.080</ele>
        <time>2015-06-21T09:30:22Z</time>
      </trkpt>
      <trkpt lat="36.519906" lon="-5.369467">
        <ele>487.444</ele>
        <time>2015-06-21T09:30:23Z</time>
      </trkpt>
      <trkpt lat="36.519925" lon="-5.369474">
        <ele>487.805</ele>
        <time>2015-06-21T09:30:24Z</time>
      </trkpt>
      <trkpt lat="36.519944" lon="-5.369481">
        <ele>488.215</ele>
        <time>2015-06-21T09:30:25Z</time>
      </trkpt>
      <trkpt lat="36.520046" lon="-5.369523">
        <ele>488.208</ele>
        <time>2015-06-21T09:30:30Z</time>
      </trkpt>
      <trkpt lat="36.520133" lon="-5.369549">
        <ele>488.615</ele>
        <time>2015-06-21T09:30:34Z</time>
      </trkpt>
      <trkpt lat="36.520155" lon="-5.369556">
        <ele>489.021</ele>
        <time>2015-06-21T09:30:35Z</time>
      </trkpt>
      <trkpt lat="36.520173" lon="-5.369563">
        <ele>489.434</ele>
        <time>2015-06-21T09:30:36Z</time>
      </trkpt>
      <trkpt lat="36.520194" lon="-5.369573">
        <ele>489.884</ele>
        <time>2015-06-21T09:30:37Z</time>
      </trkpt>
      <trkpt lat="36.520213" lon="-5.369580">
        <ele>490.228</ele>
        <time>2015-06-21T09:30:38Z</time>
      </trkpt>
      <trkpt lat="36.520287" lon="-5.369646">
        <ele>490.215</ele>
        <time>2015-06-21T09:30:42Z</time>
      </trkpt>
      <trkpt lat="36.520367" lon="-5.369711">
        <ele>490.234</ele>
        <time>2015-06-21T09:30:47Z</time>
      </trkpt>
      <trkpt lat="36.520416" lon="-5.369757">
        <ele>490.686</ele>
        <time>2015-06-21T09:30:50Z</time>
      </trkpt>
      <trkpt lat="36.520430" lon="-5.369778">
        <ele>491.237</ele>
        <time>2015-06-21T09:30:51Z</time>
      </trkpt>
      <trkpt lat="36.520449" lon="-5.369793">
        <ele>491.649</ele>
        <time>2015-06-21T09:30:52Z</time>
      </trkpt>
      <trkpt lat="36.520469" lon="-5.369805">
        <ele>492.013</ele>
        <time>2015-06-21T09:30:53Z</time>
      </trkpt>
      <trkpt lat="36.520488" lon="-5.369817">
        <ele>492.408</ele>
        <time>2015-06-21T09:30:54Z</time>
      </trkpt>
      <trkpt lat="36.520592" lon="-5.369928">
        <ele>492.474</ele>
        <time>2015-06-21T09:31:01Z</time>
      </trkpt>
      <trkpt lat="36.520604" lon="-5.369939">
        <ele>492.840</ele>
        <time>2015-06-21T09:31:02Z</time>
      </trkpt>
      <trkpt lat="36.520618" lon="-5.369953">
        <ele>493.273</ele>
        <time>2015-06-21T09:31:03Z</time>
      </trkpt>
      <trkpt lat="36.520631" lon="-5.369970">
        <ele>493.623</ele>
        <time>2015-06-21T09:31:04Z</time>
      </trkpt>
      <trkpt lat="36.520646" lon="-5.369989">
        <ele>494.077</ele>
        <time>2015-06-21T09:31:05Z</time>
      </trkpt>
      <trkpt lat="36.520663" lon="-5.370008">
        <ele>494.474</ele>
        <time>2015-06-21T09:31:06Z</time>
      </trkpt>
      <trkpt lat="36.520697" lon="-5.370046">
        <ele>494.413</ele>
        <time>2015-06-21T09:31:08Z</time>
      </trkpt>
      <trkpt lat="36.520732" lon="-5.370077">
        <ele>494.455</ele>
        <time>2015-06-21T09:31:10Z</time>
      </trkpt>
      <trkpt lat="36.520803" lon="-5.370125">
        <ele>494.462</ele>
        <time>2015-06-21T09:31:14Z</time>
      </trkpt>
      <trkpt lat="36.520890" lon="-5.370248">
        <ele>494.483</ele>
        <time>2015-06-21T09:31:20Z</time>
      </trkpt>
      <trkpt lat="36.520919" lon="-5.370285">
        <ele>494.811</ele>
        <time>2015-06-21T09:31:22Z</time>
      </trkpt>
      <trkpt lat="36.520934" lon="-5.370305">
        <ele>495.408</ele>
        <time>2015-06-21T09:31:23Z</time>
      </trkpt>
      <trkpt lat="36.520948" lon="-5.370327">
        <ele>495.837</ele>
        <time>2015-06-21T09:31:24Z</time>
      </trkpt>
      <trkpt lat="36.520962" lon="-5.370347">
        <ele>496.243</ele>
        <time>2015-06-21T09:31:25Z</time>
      </trkpt>
      <trkpt lat="36.520975" lon="-5.370370">
        <ele>496.676</ele>
        <time>2015-06-21T09:31:26Z</time>
      </trkpt>
      <trkpt lat="36.521017" lon="-5.370434">
        <ele>496.676</ele>
        <time>2015-06-21T09:31:29Z</time>
      </trkpt>
      <trkpt lat="36.521135" lon="-5.370519">
        <ele>497.030</ele>
        <time>2015-06-21T09:31:35Z</time>
      </trkpt>
      <trkpt lat="36.521159" lon="-5.370525">
        <ele>497.427</ele>
        <time>2015-06-21T09:31:36Z</time>
      </trkpt>
      <trkpt lat="36.521181" lon="-5.370527">
        <ele>497.846</ele>
        <time>2015-06-21T09:31:37Z</time>
      </trkpt>
      <trkpt lat="36.521203" lon="-5.370526">
        <ele>498.258</ele>
        <time>2015-06-21T09:31:38Z</time>
      </trkpt>
      <trkpt lat="36.521224" lon="-5.370522">
        <ele>498.692</ele>
        <time>2015-06-21T09:31:39Z</time>
      </trkpt>
      <trkpt lat="36.521290" lon="-5.370521">
        <ele>498.673</ele>
        <time>2015-06-21T09:31:42Z</time>
      </trkpt>
      <trkpt lat="36.521428" lon="-5.370507">
        <ele>499.020</ele>
        <time>2015-06-21T09:31:48Z</time>
      </trkpt>
      <trkpt lat="36.521452" lon="-5.370508">
        <ele>499.408</ele>
        <time>2015-06-21T09:31:49Z</time>
      </trkpt>
      <trkpt lat="36.521474" lon="-5.370509">
        <ele>499.840</ele>
        <time>2015-06-21T09:31:50Z</time>
      </trkpt>
      <trkpt lat="36.521495" lon="-5.370514">
        <ele>500.416</ele>
        <time>2015-06-21T09:31:51Z</time>
      </trkpt>
      <trkpt lat="36.521516" lon="-5.370520">
        <ele>500.819</ele>
        <time>2015-06-21T09:31:52Z</time>
      </trkpt>
      <trkpt lat="36.521622" lon="-5.370567">
        <ele>500.829</ele>
        <time>2015-06-21T09:31:57Z</time>
      </trkpt>
      <trkpt lat="36.521720" lon="-5.370641">
        <ele>501.273</ele>
        <time>2015-06-21T09:32:02Z</time>
      </trkpt>
      <trkpt lat="36.521738" lon="-5.370653">
        <ele>501.680</ele>
        <time>2015-06-21T09:32:03Z</time>
      </trkpt>
      <trkpt lat="36.521754" lon="-5.370671">
        <ele>502.039</ele>
        <time>2015-06-21T09:32:04Z</time>
      </trkpt>
      <trkpt lat="36.521770" lon="-5.370692">
        <ele>502.451</ele>
        <time>2015-06-21T09:32:05Z</time>
      </trkpt>
      <trkpt lat="36.521785" lon="-5.370715">
        <ele>502.842</ele>
        <time>2015-06-21T09:32:06Z</time>
      </trkpt>
      <trkpt lat="36.521896" lon="-5.370821">
        <ele>502.822</ele>
        <time>2015-06-21T09:32:12Z</time>
      </trkpt>
      <trkpt lat="36.521920" lon="-5.370836">
        <ele>503.214</ele>
        <time>2015-06-21T09:32:13Z</time>
      </trkpt>
      <trkpt lat="36.521943" lon="-5.370850">
        <ele>503.808</ele>
        <time>2015-06-21T09:32:14Z</time>
      </trkpt>
      <trkpt lat="36.521964" lon="-5.370863">
        <ele>504.265</ele>
        <time>2015-06-21T09:32:15Z</time>
      </trkpt>
      <trkpt lat="36.521986" lon="-5.370876">
        <ele>504.631</ele>
        <time>2015-06-21T09:32:16Z</time>
      </trkpt>
      <trkpt lat="36.522007" lon="-5.370885">
        <ele>505.014</ele>
        <time>2015-06-21T09:32:17Z</time>
      </trkpt>
      <trkpt lat="36.522054" lon="-5.370888">
        <ele>505.054</ele>
        <time>2015-06-21T09:32:19Z</time>
      </trkpt>
      <trkpt lat="36.522078" lon="-5.370881">
        <ele>505.088</ele>
        <time>2015-06-21T09:32:20Z</time>
      </trkpt>
      <trkpt lat="36.522185" lon="-5.370824">
        <ele>505.455</ele>
        <time>2015-06-21T09:32:25Z</time>
      </trkpt>
      <trkpt lat="36.522204" lon="-5.370807">
        <ele>505.864</ele>
        <time>2015-06-21T09:32:26Z</time>
      </trkpt>
      <trkpt lat="36.522224" lon="-5.370792">
        <ele>506.256</ele>
        <time>2015-06-21T09:32:27Z</time>
      </trkpt>
      <trkpt lat="36.522242" lon="-5.370771">
        <ele>506.682</ele>
        <time>2015-06-21T09:32:28Z</time>
      </trkpt>
      <trkpt lat="36.522260" lon="-5.370749">
        <ele>507.043</ele>
        <time>2015-06-21T09:32:29Z</time>
      </trkpt>
      <trkpt lat="36.522328" lon="-5.370670">
        <ele>507.017</ele>
        <time>2015-06-21T09:32:33Z</time>
      </trkpt>
      <trkpt lat="36.522366" lon="-5.370628">
        <ele>507.408</ele>
        <time>2015-06-21T09:32:35Z</time>
      </trkpt>
      <trkpt lat="36.522383" lon="-5.370607">
        <ele>507.859</ele>
        <time>2015-06-21T09:32:36Z</time>
      </trkpt>
      <trkpt lat="36.522399" lon="-5.370584">
        <ele>508.425</ele>
        <time>2015-06-21T09:32:37Z</time>
      </trkpt>
      <trkpt lat="36.522412" lon="-5.370566">
        <ele>508.848</ele>
        <time>2015-06-21T09:32:38Z</time>
      </trkpt>
      <trkpt lat="36.522424" lon="-5.370548">
        <ele>509.238</ele>
        <time>2015-06-21T09:32:39Z</time>
      </trkpt>
      <trkpt lat="36.522437" lon="-5.370503">
        <ele>509.282</ele>
        <time>2015-06-21T09:32:41Z</time>
      </trkpt>
      <trkpt lat="36.522444" lon="-5.370269">
        <ele>509.299</ele>
        <time>2015-06-21T09:32:49Z</time>
      </trkpt>
      <trkpt lat="36.522455" lon="-5.370044">
        <ele>509.668</ele>
        <time>2015-06-21T09:32:57Z</time>
      </trkpt>
      <trkpt lat="36.522453" lon="-5.370018">
        <ele>510.080</ele>
        <time>2015-06-21T09:32:58Z</time>
      </trkpt>
      <trkpt lat="36.522458" lon="-5.369989">
        <ele>510.431</ele>
        <time>2015-06-21T09:32:59Z</time>
      </trkpt>
      <trkpt lat="36.522463" lon="-5.369961">
        <ele>510.861</ele>
        <time>2015-06-21T09:33:00Z</time>
      </trkpt>
      <trkpt lat="36.522473" lon="-5.369935">
        <ele>511.207</ele>
        <time>2015-06-21T09:33:01Z</time>
      </trkpt>
      <trkpt lat="36.522479" lon="-5.369876">
        <ele>511.208</ele>
        <time>2015-06-21T09:33:03Z</time>
      </trkpt>
      <trkpt lat="36.522471" lon="-5.369747">
        <ele>511.254</ele>
        <time>2015-06-21T09:33:08Z</time>
      </trkpt>
      <trkpt lat="36.522490" lon="-5.369695">
        <ele>511.630</ele>
        <time>2015-06-21T09:33:10Z</time>
      </trkpt>
      <trkpt lat="36.522501" lon="-5.369672">
        <ele>512.293</ele>
        <time>2015-06-21T09:33:11Z</time>
      </trkpt>
      <trkpt lat="36.522505" lon="-5.369649">
        <ele>512.663</ele>
        <time>2015-06-21T09:33:12Z</time>
      </trkpt>
      <trkpt lat="36.522505" lon="-5.369625">
        <ele>513.477</ele>
        <time>2015-06-21T09:33:13Z</time>
      </trkpt>
      <trkpt lat="36.522530" lon="-5.369505">
        <ele>513.414</ele>
        <time>2015-06-21T09:33:18Z</time>
      </trkpt>
      <trkpt lat="36.522597" lon="-5.369380">
        <ele>513.853</ele>
        <time>2015-06-21T09:33:24Z</time>
      </trkpt>
      <trkpt lat="36.522610" lon="-5.369361">
        <ele>514.295</ele>
        <time>2015-06-21T09:33:25Z</time>
      </trkpt>
      <trkpt lat="36.522623" lon="-5.369341">
        <ele>514.872</ele>
        <time>2015-06-21T09:33:26Z</time>
      </trkpt>
      <trkpt lat="36.522636" lon="-5.369324">
        <ele>515.213</ele>
        <time>2015-06-21T09:33:27Z</time>
      </trkpt>
      <trkpt lat="36.522652" lon="-5.369308">
        <ele>515.614</ele>
        <time>2015-06-21T09:33:28Z</time>
      </trkpt>
      <trkpt lat="36.522669" lon="-5.369306">
        <ele>515.608</ele>
        <time>2015-06-21T09:33:29Z</time>
      </trkpt>
      <trkpt lat="36.522702" lon="-5.369293">
        <ele>515.618</ele>
        <time>2015-06-21T09:33:31Z</time>
      </trkpt>
      <trkpt lat="36.522791" lon="-5.369244">
        <ele>515.624</ele>
        <time>2015-06-21T09:33:36Z</time>
      </trkpt>
      <trkpt lat="36.522817" lon="-5.369218">
        <ele>516.057</ele>
        <time>2015-06-21T09:33:38Z</time>
      </trkpt>
      <trkpt lat="36.522835" lon="-5.369214">
        <ele>516.487</ele>
        <time>2015-06-21T09:33:39Z</time>
      </trkpt>
      <trkpt lat="36.522852" lon="-5.369207">
        <ele>516.821</ele>
        <time>2015-06-21T09:33:40Z</time>
      </trkpt>
      <trkpt lat="36.522873" lon="-5.369212">
        <ele>517.278</ele>
        <time>2015-06-21T09:33:41Z</time>
      </trkpt>
      <trkpt lat="36.522891" lon="-5.369214">
        <ele>517.817</ele>
        <time>2015-06-21T09:33:42Z</time>
      </trkpt>
      <trkpt lat="36.523002" lon="-5.369191">
        <ele>517.829</ele>
        <time>2015-06-21T09:33:47Z</time>
      </trkpt>
      <trkpt lat="36.523129" lon="-5.369148">
        <ele>518.279</ele>
        <time>2015-06-21T09:33:54Z</time>
      </trkpt>
      <trkpt lat="36.523152" lon="-5.369146">
        <ele>518.605</ele>
        <time>2015-06-21T09:33:55Z</time>
      </trkpt>
      <trkpt lat="36.523174" lon="-5.369141">
        <ele>519.025</ele>
        <time>2015-06-21T09:33:56Z</time>
      </trkpt>
      <trkpt lat="36.523196" lon="-5.369140">
        <ele>519.408</ele>
        <time>2015-06-21T09:33:57Z</time>
      </trkpt>
      <trkpt lat="36.523213" lon="-5.369136">
        <ele>519.868</ele>
        <time>2015-06-21T09:33:58Z</time>
      </trkpt>
      <trkpt lat="36.523235" lon="-5.369131">
        <ele>519.834</ele>
        <time>2015-06-21T09:34:00Z</time>
      </trkpt>
      <trkpt lat="36.523319" lon="-5.369091">
        <ele>519.857</ele>
        <time>2015-06-21T09:34:05Z</time>
      </trkpt>
      <trkpt lat="36.523340" lon="-5.369086">
        <ele>519.817</ele>
        <time>2015-06-21T09:34:06Z</time>
      </trkpt>
      <trkpt lat="36.523379" lon="-5.369063">
        <ele>520.211</ele>
        <time>2015-06-21T09:34:08Z</time>
      </trkpt>
      <trkpt lat="36.523396" lon="-5.369053">
        <ele>520.628</ele>
        <time>2015-06-21T09:34:09Z</time>
      </trkpt>
      <trkpt lat="36.523410" lon="-5.369040">
        <ele>521.087</ele>
        <time>2015-06-21T09:34:10Z</time>
      </trkpt>
      <trkpt lat="36.523426" lon="-5.369028">
        <ele>521.479</ele>
        <time>2015-06-21T09:34:11Z</time>
      </trkpt>
      <trkpt lat="36.523442" lon="-5.369015">
        <ele>521.889</ele>
        <time>2015-06-21T09:34:12Z</time>
      </trkpt>
      <trkpt lat="36.523455" lon="-5.369000">
        <ele>521.806</ele>
        <time>2015-06-21T09:34:13Z</time>
      </trkpt>
      <trkpt lat="36.523539" lon="-5.368942">
        <ele>521.826</ele>
        <time>2015-06-21T09:34:18Z</time>
      </trkpt>
      <trkpt lat="36.523580" lon="-5.368921">
        <ele>521.808</ele>
        <time>2015-06-21T09:34:20Z</time>
      </trkpt>
      <trkpt lat="36.523591" lon="-5.368905">
        <ele>521.819</ele>
        <time>2015-06-21T09:34:21Z</time>
      </trkpt>
      <trkpt lat="36.523656" lon="-5.368857">
        <ele>521.825</ele>
        <time>2015-06-21T09:34:25Z</time>
      </trkpt>
      <trkpt lat="36.523689" lon="-5.368836">
        <ele>522.878</ele>
        <time>2015-06-21T09:34:27Z</time>
      </trkpt>
      <trkpt lat="36.523703" lon="-5.368823">
        <ele>523.238</ele>
        <time>2015-06-21T09:34:28Z</time>
      </trkpt>
      <trkpt lat="36.523720" lon="-5.368806">
        <ele>523.652</ele>
        <time>2015-06-21T09:34:29Z</time>
      </trkpt>
      <trkpt lat="36.523735" lon="-5.368793">
        <ele>524.229</ele>
        <time>2015-06-21T09:34:30Z</time>
      </trkpt>
      <trkpt lat="36.523766" lon="-5.368767">
        <ele>524.218</ele>
        <time>2015-06-21T09:34:32Z</time>
      </trkpt>
      <trkpt lat="36.523913" lon="-5.368676">
        <ele>524.690</ele>
        <time>2015-06-21T09:34:40Z</time>
      </trkpt>
      <trkpt lat="36.523935" lon="-5.368668">
        <ele>525.017</ele>
        <time>2015-06-21T09:34:41Z</time>
      </trkpt>
      <trkpt lat="36.523956" lon="-5.368657">
        <ele>525.487</ele>
        <time>2015-06-21T09:34:42Z</time>
      </trkpt>
      <trkpt lat="36.523979" lon="-5.368649">
        <ele>525.815</ele>
        <time>2015-06-21T09:34:43Z</time>
      </trkpt>
      <trkpt lat="36.524003" lon="-5.368637">
        <ele>526.208</ele>
        <time>2015-06-21T09:34:44Z</time>
      </trkpt>
      <trkpt lat="36.524059" lon="-5.368598">
        <ele>526.252</ele>
        <time>2015-06-21T09:34:47Z</time>
      </trkpt>
      <trkpt lat="36.524192" lon="-5.368500">
        <ele>526.228</ele>
        <time>2015-06-21T09:34:54Z</time>
      </trkpt>
      <trkpt lat="36.524209" lon="-5.368480">
        <ele>526.641</ele>
        <time>2015-06-21T09:34:55Z</time>
      </trkpt>
      <trkpt lat="36.524223" lon="-5.368458">
        <ele>527.081</ele>
        <time>2015-06-21T09:34:56Z</time>
      </trkpt>
      <trkpt lat="36.524233" lon="-5.368436">
        <ele>527.465</ele>
        <time>2015-06-21T09:34:57Z</time>
      </trkpt>
      <trkpt lat="36.524243" lon="-5.368409">
        <ele>527.822</ele>
        <time>2015-06-21T09:34:58Z</time>
      </trkpt>
      <trkpt lat="36.524251" lon="-5.368381">
        <ele>528.221</ele>
        <time>2015-06-21T09:34:59Z</time>
      </trkpt>
      <trkpt lat="36.524262" lon="-5.368325">
        <ele>528.253</ele>
        <time>2015-06-21T09:35:01Z</time>
      </trkpt>
      <trkpt lat="36.524275" lon="-5.368192">
        <ele>528.641</ele>
        <time>2015-06-21T09:35:06Z</time>
      </trkpt>
      <trkpt lat="36.524272" lon="-5.368167">
        <ele>529.081</ele>
        <time>2015-06-21T09:35:07Z</time>
      </trkpt>
      <trkpt lat="36.524271" lon="-5.368141">
        <ele>529.609</ele>
        <time>2015-06-21T09:35:08Z</time>
      </trkpt>
      <trkpt lat="36.524270" lon="-5.368115">
        <ele>530.008</ele>
        <time>2015-06-21T09:35:09Z</time>
      </trkpt>
      <trkpt lat="36.524267" lon="-5.368087">
        <ele>530.475</ele>
        <time>2015-06-21T09:35:10Z</time>
      </trkpt>
      <trkpt lat="36.524271" lon="-5.367967">
        <ele>530.471</ele>
        <time>2015-06-21T09:35:14Z</time>
      </trkpt>
      <trkpt lat="36.524296" lon="-5.367767">
        <ele>530.864</ele>
        <time>2015-06-21T09:35:21Z</time>
      </trkpt>
      <trkpt lat="36.524302" lon="-5.367740">
        <ele>531.244</ele>
        <time>2015-06-21T09:35:22Z</time>
      </trkpt>
      <trkpt lat="36.524308" lon="-5.367714">
        <ele>531.658</ele>
        <time>2015-06-21T09:35:23Z</time>
      </trkpt>
      <trkpt lat="36.524317" lon="-5.367688">
        <ele>532.055</ele>
        <time>2015-06-21T09:35:24Z</time>
      </trkpt>
      <trkpt lat="36.524323" lon="-5.367662">
        <ele>532.474</ele>
        <time>2015-06-21T09:35:25Z</time>
      </trkpt>
      <trkpt lat="36.524358" lon="-5.367569">
        <ele>532.476</ele>
        <time>2015-06-21T09:35:29Z</time>
      </trkpt>
      <trkpt lat="36.524445" lon="-5.367454">
        <ele>532.881</ele>
        <time>2015-06-21T09:35:35Z</time>
      </trkpt>
      <trkpt lat="36.524464" lon="-5.367442">
        <ele>533.261</ele>
        <time>2015-06-21T09:35:36Z</time>
      </trkpt>
      <trkpt lat="36.524481" lon="-5.367424">
        <ele>533.617</ele>
        <time>2015-06-21T09:35:37Z</time>
      </trkpt>
      <trkpt lat="36.524498" lon="-5.367410">
        <ele>534.008</ele>
        <time>2015-06-21T09:35:38Z</time>
      </trkpt>
      <trkpt lat="36.524516" lon="-5.367397">
        <ele>534.429</ele>
        <time>2015-06-21T09:35:39Z</time>
      </trkpt>
      <trkpt lat="36.524616" lon="-5.367337">
        <ele>534.425</ele>
        <time>2015-06-21T09:35:44Z</time>
      </trkpt>
      <trkpt lat="36.524720" lon="-5.367274">
        <ele>534.898</ele>
        <time>2015-06-21T09:35:49Z</time>
      </trkpt>
      <trkpt lat="36.524740" lon="-5.367262">
        <ele>535.278</ele>
        <time>2015-06-21T09:35:50Z</time>
      </trkpt>
      <trkpt lat="36.524764" lon="-5.367249">
        <ele>535.612</ele>
        <time>2015-06-21T09:35:51Z</time>
      </trkpt>
      <trkpt lat="36.524787" lon="-5.367233">
        <ele>536.049</ele>
        <time>2015-06-21T09:35:52Z</time>
      </trkpt>
      <trkpt lat="36.524809" lon="-5.367219">
        <ele>536.468</ele>
        <time>2015-06-21T09:35:53Z</time>
      </trkpt>
      <trkpt lat="36.524940" lon="-5.367111">
        <ele>536.410</ele>
        <time>2015-06-21T09:35:59Z</time>
      </trkpt>
      <trkpt lat="36.524995" lon="-5.367042">
        <ele>537.076</ele>
        <time>2015-06-21T09:36:02Z</time>
      </trkpt>
      <trkpt lat="36.525007" lon="-5.367013">
        <ele>537.490</ele>
        <time>2015-06-21T09:36:03Z</time>
      </trkpt>
      <trkpt lat="36.525012" lon="-5.366983">
        <ele>537.819</ele>
        <time>2015-06-21T09:36:04Z</time>
      </trkpt>
      <trkpt lat="36.525014" lon="-5.366949">
        <ele>538.208</ele>
        <time>2015-06-21T09:36:05Z</time>
      </trkpt>
      <trkpt lat="36.525011" lon="-5.366920">
        <ele>538.698</ele>
        <time>2015-06-21T09:36:06Z</time>
      </trkpt>
      <trkpt lat="36.524997" lon="-5.366800">
        <ele>538.644</ele>
        <time>2015-06-21T09:36:10Z</time>
      </trkpt>
      <trkpt lat="36.524968" lon="-5.366705">
        <ele>539.067</ele>
        <time>2015-06-21T09:36:13Z</time>
      </trkpt>
      <trkpt lat="36.524961" lon="-5.366676">
        <ele>539.477</ele>
        <time>2015-06-21T09:36:14Z</time>
      </trkpt>
      <trkpt lat="36.524951" lon="-5.366642">
        <ele>539.881</ele>
        <time>2015-06-21T09:36:15Z</time>
      </trkpt>
      <trkpt lat="36.524943" lon="-5.366613">
        <ele>540.278</ele>
        <time>2015-06-21T09:36:16Z</time>
      </trkpt>
      <trkpt lat="36.524937" lon="-5.366583">
        <ele>540.647</ele>
        <time>2015-06-21T09:36:17Z</time>
      </trkpt>
      <trkpt lat="36.524864" lon="-5.366414">
        <ele>540.649</ele>
        <time>2015-06-21T09:36:23Z</time>
      </trkpt>
      <trkpt lat="36.524821" lon="-5.366335">
        <ele>541.212</ele>
        <time>2015-06-21T09:36:26Z</time>
      </trkpt>
      <trkpt lat="36.524810" lon="-5.366306">
        <ele>541.632</ele>
        <time>2015-06-21T09:36:27Z</time>
      </trkpt>
      <trkpt lat="36.524799" lon="-5.366274">
        <ele>542.005</ele>
        <time>2015-06-21T09:36:28Z</time>
      </trkpt>
      <trkpt lat="36.524793" lon="-5.366242">
        <ele>542.408</ele>
        <time>2015-06-21T09:36:29Z</time>
      </trkpt>
      <trkpt lat="36.524786" lon="-5.366211">
        <ele>542.852</ele>
        <time>2015-06-21T09:36:30Z</time>
      </trkpt>
      <trkpt lat="36.524763" lon="-5.366060">
        <ele>543.458</ele>
        <time>2015-06-21T09:36:35Z</time>
      </trkpt>
      <trkpt lat="36.524759" lon="-5.366033">
        <ele>543.841</ele>
        <time>2015-06-21T09:36:36Z</time>
      </trkpt>
      <trkpt lat="36.524757" lon="-5.366003">
        <ele>544.251</ele>
        <time>2015-06-21T09:36:37Z</time>
      </trkpt>
      <trkpt lat="36.524761" lon="-5.365972">
        <ele>544.675</ele>
        <time>2015-06-21T09:36:38Z</time>
      </trkpt>
      <trkpt lat="36.524766" lon="-5.365939">
        <ele>545.282</ele>
        <time>2015-06-21T09:36:39Z</time>
      </trkpt>
      <trkpt lat="36.524763" lon="-5.365796">
        <ele>545.271</ele>
        <time>2015-06-21T09:36:43Z</time>
      </trkpt>
      <trkpt lat="36.524786" lon="-5.365663">
        <ele>545.643</ele>
        <time>2015-06-21T09:36:47Z</time>
      </trkpt>
      <trkpt lat="36.524796" lon="-5.365631">
        <ele>546.056</ele>
        <time>2015-06-21T09:36:48Z</time>
      </trkpt>
      <trkpt lat="36.524806" lon="-5.365600">
        <ele>546.459</ele>
        <time>2015-06-21T09:36:49Z</time>
      </trkpt>
      <trkpt lat="36.524818" lon="-5.365568">
        <ele>546.814</ele>
        <time>2015-06-21T09:36:50Z</time>
      </trkpt>
      <trkpt lat="36.524832" lon="-5.365537">
        <ele>547.208</ele>
        <time>2015-06-21T09:36:51Z</time>
      </trkpt>
      <trkpt lat="36.524936" lon="-5.365344">
        <ele>547.266</ele>
        <time>2015-06-21T09:36:58Z</time>
      </trkpt>
      <trkpt lat="36.524955" lon="-5.365321">
        <ele>547.822</ele>
        <time>2015-06-21T09:36:59Z</time>
      </trkpt>
      <trkpt lat="36.524972" lon="-5.365296">
        <ele>548.275</ele>
        <time>2015-06-21T09:37:00Z</time>
      </trkpt>
      <trkpt lat="36.524988" lon="-5.365269">
        <ele>548.825</ele>
        <time>2015-06-21T09:37:01Z</time>
      </trkpt>
      <trkpt lat="36.525004" lon="-5.365242">
        <ele>549.249</ele>
        <time>2015-06-21T09:37:02Z</time>
      </trkpt>
      <trkpt lat="36.525022" lon="-5.365216">
        <ele>549.846</ele>
        <time>2015-06-21T09:37:03Z</time>
      </trkpt>
      <trkpt lat="36.525052" lon="-5.365168">
        <ele>549.865</ele>
        <time>2015-06-21T09:37:05Z</time>
      </trkpt>
      <trkpt lat="36.525162" lon="-5.364990">
        <ele>550.267</ele>
        <time>2015-06-21T09:37:12Z</time>
      </trkpt>
      <trkpt lat="36.525179" lon="-5.364963">
        <ele>550.648</ele>
        <time>2015-06-21T09:37:13Z</time>
      </trkpt>
      <trkpt lat="36.525193" lon="-5.364938">
        <ele>551.061</ele>
        <time>2015-06-21T09:37:14Z</time>
      </trkpt>
      <trkpt lat="36.525205" lon="-5.364912">
        <ele>551.417</ele>
        <time>2015-06-21T09:37:15Z</time>
      </trkpt>
      <trkpt lat="36.525218" lon="-5.364884">
        <ele>551.808</ele>
        <time>2015-06-21T09:37:16Z</time>
      </trkpt>
      <trkpt lat="36.525269" lon="-5.364755">
        <ele>551.855</ele>
        <time>2015-06-21T09:37:21Z</time>
      </trkpt>
      <trkpt lat="36.525313" lon="-5.364684">
        <ele>552.231</ele>
        <time>2015-06-21T09:37:24Z</time>
      </trkpt>
      <trkpt lat="36.525326" lon="-5.364658">
        <ele>552.824</ele>
        <time>2015-06-21T09:37:25Z</time>
      </trkpt>
      <trkpt lat="36.525341" lon="-5.364632">
        <ele>553.254</ele>
        <time>2015-06-21T09:37:26Z</time>
      </trkpt>
      <trkpt lat="36.525356" lon="-5.364605">
        <ele>553.668</ele>
        <time>2015-06-21T09:37:27Z</time>
      </trkpt>
      <trkpt lat="36.525371" lon="-5.364580">
        <ele>554.055</ele>
        <time>2015-06-21T09:37:28Z</time>
      </trkpt>
      <trkpt lat="36.525447" lon="-5.364403">
        <ele>554.054</ele>
        <time>2015-06-21T09:37:35Z</time>
      </trkpt>
      <trkpt lat="36.525457" lon="-5.364376">
        <ele>554.466</ele>
        <time>2015-06-21T09:37:36Z</time>
      </trkpt>
      <trkpt lat="36.525469" lon="-5.364352">
        <ele>554.876</ele>
        <time>2015-06-21T09:37:37Z</time>
      </trkpt>
      <trkpt lat="36.525485" lon="-5.364326">
        <ele>555.290</ele>
        <time>2015-06-21T09:37:38Z</time>
      </trkpt>
      <trkpt lat="36.525502" lon="-5.364302">
        <ele>555.619</ele>
        <time>2015-06-21T09:37:39Z</time>
      </trkpt>
      <trkpt lat="36.525516" lon="-5.364276">
        <ele>556.008</ele>
        <time>2015-06-21T09:37:40Z</time>
      </trkpt>
      <trkpt lat="36.525549" lon="-5.364235">
        <ele>556.088</ele>
        <time>2015-06-21T09:37:42Z</time>
      </trkpt>
      <trkpt lat="36.525618" lon="-5.364174">
        <ele>556.484</ele>
        <time>2015-06-21T09:37:46Z</time>
      </trkpt>
      <trkpt lat="36.525633" lon="-5.364161">
        <ele>556.847</ele>
        <time>2015-06-21T09:37:47Z</time>
      </trkpt>
      <trkpt lat="36.525653" lon="-5.364145">
        <ele>557.217</ele>
        <time>2015-06-21T09:37:48Z</time>
      </trkpt>
      <trkpt lat="36.525669" lon="-5.364125">
        <ele>557.661</ele>
        <time>2015-06-21T09:37:49Z</time>
      </trkpt>
      <trkpt lat="36.525686" lon="-5.364105">
        <ele>558.098</ele>
        <time>2015-06-21T09:37:50Z</time>
      </trkpt>
      <trkpt lat="36.525769" lon="-5.364008">
        <ele>558.077</ele>
        <time>2015-06-21T09:37:55Z</time>
      </trkpt>
      <trkpt lat="36.525857" lon="-5.363914">
        <ele>558.429</ele>
        <time>2015-06-21T09:38:00Z</time>
      </trkpt>
      <trkpt lat="36.525873" lon="-5.363894">
        <ele>559.029</ele>
        <time>2015-06-21T09:38:01Z</time>
      </trkpt>
      <trkpt lat="36.525890" lon="-5.363873">
        <ele>559.400</ele>
        <time>2015-06-21T09:38:02Z</time>
      </trkpt>
      <trkpt lat="36.525905" lon="-5.363851">
        <ele>559.820</ele>
        <time>2015-06-21T09:38:03Z</time>
      </trkpt>
      <trkpt lat="36.525918" lon="-5.363832">
        <ele>560.208</ele>
        <time>2015-06-21T09:38:04Z</time>
      </trkpt>
      <trkpt lat="36.525991" lon="-5.363632">
        <ele>560.293</ele>
        <time>2015-06-21T09:38:12Z</time>
      </trkpt>
      <trkpt lat="36.526008" lon="-5.363545">
        <ele>560.689</ele>
        <time>2015-06-21T09:38:15Z</time>
      </trkpt>
      <trkpt lat="36.526012" lon="-5.363516">
        <ele>561.062</ele>
        <time>2015-06-21T09:38:16Z</time>
      </trkpt>
      <trkpt lat="36.526017" lon="-5.363489">
        <ele>561.462</ele>
        <time>2015-06-21T09:38:17Z</time>
      </trkpt>
      <trkpt lat="36.526022" lon="-5.363462">
        <ele>561.886</ele>
        <time>2015-06-21T09:38:18Z</time>
      </trkpt>
      <trkpt lat="36.526028" lon="-5.363435">
        <ele>562.263</ele>
        <time>2015-06-21T09:38:19Z</time>
      </trkpt>
      <trkpt lat="36.526043" lon="-5.363380">
        <ele>562.292</ele>
        <time>2015-06-21T09:38:21Z</time>
      </trkpt>
      <trkpt lat="36.526070" lon="-5.363223">
        <ele>562.244</ele>
        <time>2015-06-21T09:38:27Z</time>
      </trkpt>
      <trkpt lat="36.526078" lon="-5.363165">
        <ele>562.662</ele>
        <time>2015-06-21T09:38:29Z</time>
      </trkpt>
      <trkpt lat="36.526079" lon="-5.363137">
        <ele>563.283</ele>
        <time>2015-06-21T09:38:30Z</time>
      </trkpt>
      <trkpt lat="36.526083" lon="-5.363110">
        <ele>563.611</ele>
        <time>2015-06-21T09:38:31Z</time>
      </trkpt>
      <trkpt lat="36.526091" lon="-5.363083">
        <ele>564.008</ele>
        <time>2015-06-21T09:38:32Z</time>
      </trkpt>
      <trkpt lat="36.526097" lon="-5.363057">
        <ele>564.437</ele>
        <time>2015-06-21T09:38:33Z</time>
      </trkpt>
      <trkpt lat="36.526102" lon="-5.363032">
        <ele>564.433</ele>
        <time>2015-06-21T09:38:34Z</time>
      </trkpt>
      <trkpt lat="36.526137" lon="-5.362803">
        <ele>564.456</ele>
        <time>2015-06-21T09:38:42Z</time>
      </trkpt>
      <trkpt lat="36.526141" lon="-5.362777">
        <ele>564.816</ele>
        <time>2015-06-21T09:38:43Z</time>
      </trkpt>
      <trkpt lat="36.526146" lon="-5.362755">
        <ele>565.260</ele>
        <time>2015-06-21T09:38:44Z</time>
      </trkpt>
      <trkpt lat="36.526148" lon="-5.362728">
        <ele>565.677</ele>
        <time>2015-06-21T09:38:45Z</time>
      </trkpt>
      <trkpt lat="36.526151" lon="-5.362706">
        <ele>566.016</ele>
        <time>2015-06-21T09:38:46Z</time>
      </trkpt>
      <trkpt lat="36.526149" lon="-5.362677">
        <ele>566.468</ele>
        <time>2015-06-21T09:38:47Z</time>
      </trkpt>
      <trkpt lat="36.526148" lon="-5.362620">
        <ele>566.499</ele>
        <time>2015-06-21T09:38:49Z</time>
      </trkpt>
      <trkpt lat="36.526158" lon="-5.362482">
        <ele>566.807</ele>
        <time>2015-06-21T09:38:54Z</time>
      </trkpt>
      <trkpt lat="36.526161" lon="-5.362455">
        <ele>567.227</ele>
        <time>2015-06-21T09:38:55Z</time>
      </trkpt>
      <trkpt lat="36.526165" lon="-5.362427">
        <ele>567.608</ele>
        <time>2015-06-21T09:38:56Z</time>
      </trkpt>
      <trkpt lat="36.526167" lon="-5.362398">
        <ele>568.050</ele>
        <time>2015-06-21T09:38:57Z</time>
      </trkpt>
      <trkpt lat="36.526170" lon="-5.362371">
        <ele>568.446</ele>
        <time>2015-06-21T09:38:58Z</time>
      </trkpt>
      <trkpt lat="36.526224" lon="-5.362190">
        <ele>568.459</ele>
        <time>2015-06-21T09:39:05Z</time>
      </trkpt>
      <trkpt lat="36.526234" lon="-5.362167">
        <ele>568.859</ele>
        <time>2015-06-21T09:39:06Z</time>
      </trkpt>
      <trkpt lat="36.526247" lon="-5.362146">
        <ele>569.223</ele>
        <time>2015-06-21T09:39:07Z</time>
      </trkpt>
      <trkpt lat="36.526259" lon="-5.362125">
        <ele>569.650</ele>
        <time>2015-06-21T09:39:08Z</time>
      </trkpt>
      <trkpt lat="36.526274" lon="-5.362106">
        <ele>570.029</ele>
        <time>2015-06-21T09:39:09Z</time>
      </trkpt>
      <trkpt lat="36.526287" lon="-5.362089">
        <ele>570.491</ele>
        <time>2015-06-21T09:39:10Z</time>
      </trkpt>
      <trkpt lat="36.526313" lon="-5.362053">
        <ele>570.446</ele>
        <time>2015-06-21T09:39:12Z</time>
      </trkpt>
      <trkpt lat="36.526431" lon="-5.361921">
        <ele>570.888</ele>
        <time>2015-06-21T09:39:19Z</time>
      </trkpt>
      <trkpt lat="36.526448" lon="-5.361901">
        <ele>571.216</ele>
        <time>2015-06-21T09:39:20Z</time>
      </trkpt>
      <trkpt lat="36.526465" lon="-5.361877">
        <ele>571.608</ele>
        <time>2015-06-21T09:39:21Z</time>
      </trkpt>
      <trkpt lat="36.526484" lon="-5.361864">
        <ele>572.045</ele>
        <time>2015-06-21T09:39:22Z</time>
      </trkpt>
      <trkpt lat="36.526500" lon="-5.361842">
        <ele>572.671</ele>
        <time>2015-06-21T09:39:23Z</time>
      </trkpt>
      <trkpt lat="36.526528" lon="-5.361809">
        <ele>572.634</ele>
        <time>2015-06-21T09:39:25Z</time>
      </trkpt>
      <trkpt lat="36.526626" lon="-5.361661">
        <ele>573.094</ele>
        <time>2015-06-21T09:39:32Z</time>
      </trkpt>
      <trkpt lat="36.526641" lon="-5.361642">
        <ele>573.428</ele>
        <time>2015-06-21T09:39:33Z</time>
      </trkpt>
      <trkpt lat="36.526655" lon="-5.361620">
        <ele>573.855</ele>
        <time>2015-06-21T09:39:34Z</time>
      </trkpt>
      <trkpt lat="36.526665" lon="-5.361600">
        <ele>574.234</ele>
        <time>2015-06-21T09:39:35Z</time>
      </trkpt>
      <trkpt lat="36.526681" lon="-5.361586">
        <ele>574.656</ele>
        <time>2015-06-21T09:39:36Z</time>
      </trkpt>
      <trkpt lat="36.526746" lon="-5.361524">
        <ele>574.693</ele>
        <time>2015-06-21T09:39:40Z</time>
      </trkpt>
      <trkpt lat="36.526908" lon="-5.361454">
        <ele>575.065</ele>
        <time>2015-06-21T09:39:48Z</time>
      </trkpt>
      <trkpt lat="36.526930" lon="-5.361452">
        <ele>576.021</ele>
        <time>2015-06-21T09:39:49Z</time>
      </trkpt>
      <trkpt lat="36.526954" lon="-5.361445">
        <ele>576.608</ele>
        <time>2015-06-21T09:39:50Z</time>
      </trkpt>
      <trkpt lat="36.526973" lon="-5.361433">
        <ele>577.040</ele>
        <time>2015-06-21T09:39:51Z</time>
      </trkpt>
      <trkpt lat="36.527065" lon="-5.361421">
        <ele>577.036</ele>
        <time>2015-06-21T09:39:55Z</time>
      </trkpt>
      <trkpt lat="36.527156" lon="-5.361410">
        <ele>577.479</ele>
        <time>2015-06-21T09:40:00Z</time>
      </trkpt>
      <trkpt lat="36.527177" lon="-5.361404">
        <ele>577.819</ele>
        <time>2015-06-21T09:40:01Z</time>
      </trkpt>
      <trkpt lat="36.527198" lon="-5.361402">
        <ele>578.263</ele>
        <time>2015-06-21T09:40:02Z</time>
      </trkpt>
      <trkpt lat="36.527220" lon="-5.361399">
        <ele>578.610</ele>
        <time>2015-06-21T09:40:03Z</time>
      </trkpt>
      <trkpt lat="36.527241" lon="-5.361394">
        <ele>579.059</ele>
        <time>2015-06-21T09:40:04Z</time>
      </trkpt>
      <trkpt lat="36.527372" lon="-5.361379">
        <ele>579.041</ele>
        <time>2015-06-21T09:40:10Z</time>
      </trkpt>
      <trkpt lat="36.527457" lon="-5.361373">
        <ele>579.834</ele>
        <time>2015-06-21T09:40:14Z</time>
      </trkpt>
      <trkpt lat="36.527479" lon="-5.361364">
        <ele>580.255</ele>
        <time>2015-06-21T09:40:15Z</time>
      </trkpt>
      <trkpt lat="36.527501" lon="-5.361360">
        <ele>580.610</ele>
        <time>2015-06-21T09:40:16Z</time>
      </trkpt>
      <trkpt lat="36.527522" lon="-5.361358">
        <ele>581.208</ele>
        <time>2015-06-21T09:40:17Z</time>
      </trkpt>
      <trkpt lat="36.527686" lon="-5.361351">
        <ele>581.234</ele>
        <time>2015-06-21T09:40:25Z</time>
      </trkpt>
      <trkpt lat="36.527765" lon="-5.361327">
        <ele>581.650</ele>
        <time>2015-06-21T09:40:29Z</time>
      </trkpt>
      <trkpt lat="36.527790" lon="-5.361321">
        <ele>582.043</ele>
        <time>2015-06-21T09:40:30Z</time>
      </trkpt>
      <trkpt lat="36.527815" lon="-5.361316">
        <ele>582.463</ele>
        <time>2015-06-21T09:40:31Z</time>
      </trkpt>
      <trkpt lat="36.527836" lon="-5.361310">
        <ele>582.867</ele>
        <time>2015-06-21T09:40:32Z</time>
      </trkpt>
      <trkpt lat="36.527858" lon="-5.361304">
        <ele>583.264</ele>
        <time>2015-06-21T09:40:33Z</time>
      </trkpt>
      <trkpt lat="36.528025" lon="-5.361255">
        <ele>583.263</ele>
        <time>2015-06-21T09:40:40Z</time>
      </trkpt>
      <trkpt lat="36.528121" lon="-5.361221">
        <ele>583.615</ele>
        <time>2015-06-21T09:40:44Z</time>
      </trkpt>
      <trkpt lat="36.528144" lon="-5.361217">
        <ele>584.023</ele>
        <time>2015-06-21T09:40:45Z</time>
      </trkpt>
      <trkpt lat="36.528167" lon="-5.361218">
        <ele>584.683</ele>
        <time>2015-06-21T09:40:46Z</time>
      </trkpt>
      <trkpt lat="36.528191" lon="-5.361218">
        <ele>585.011</ele>
        <time>2015-06-21T09:40:47Z</time>
      </trkpt>
      <trkpt lat="36.528216" lon="-5.361218">
        <ele>585.408</ele>
        <time>2015-06-21T09:40:48Z</time>
      </trkpt>
      <trkpt lat="36.528359" lon="-5.361200">
        <ele>585.443</ele>
        <time>2015-06-21T09:40:54Z</time>
      </trkpt>
      <trkpt lat="36.528433" lon="-5.361195">
        <ele>585.869</ele>
        <time>2015-06-21T09:40:57Z</time>
      </trkpt>
      <trkpt lat="36.528457" lon="-5.361193">
        <ele>586.292</ele>
        <time>2015-06-21T09:40:58Z</time>
      </trkpt>
      <trkpt lat="36.528483" lon="-5.361196">
        <ele>586.642</ele>
        <time>2015-06-21T09:40:59Z</time>
      </trkpt>
      <trkpt lat="36.528509" lon="-5.361189">
        <ele>587.026</ele>
        <time>2015-06-21T09:41:00Z</time>
      </trkpt>
      <trkpt lat="36.528535" lon="-5.361180">
        <ele>587.443</ele>
        <time>2015-06-21T09:41:01Z</time>
      </trkpt>
      <trkpt lat="36.528561" lon="-5.361174">
        <ele>587.472</ele>
        <time>2015-06-21T09:41:02Z</time>
      </trkpt>
      <trkpt lat="36.528717" lon="-5.361148">
        <ele>587.894</ele>
        <time>2015-06-21T09:41:08Z</time>
      </trkpt>
      <trkpt lat="36.528742" lon="-5.361142">
        <ele>588.264</ele>
        <time>2015-06-21T09:41:09Z</time>
      </trkpt>
      <trkpt lat="36.528768" lon="-5.361137">
        <ele>588.606</ele>
        <time>2015-06-21T09:41:10Z</time>
      </trkpt>
      <trkpt lat="36.528795" lon="-5.361134">
        <ele>589.016</ele>
        <time>2015-06-21T09:41:11Z</time>
      </trkpt>
      <trkpt lat="36.528824" lon="-5.361125">
        <ele>589.408</ele>
        <time>2015-06-21T09:41:12Z</time>
      </trkpt>
      <trkpt lat="36.528953" lon="-5.361101">
        <ele>589.417</ele>
        <time>2015-06-21T09:41:17Z</time>
      </trkpt>
      <trkpt lat="36.529037" lon="-5.361076">
        <ele>590.093</ele>
        <time>2015-06-21T09:41:21Z</time>
      </trkpt>
      <trkpt lat="36.529058" lon="-5.361073">
        <ele>590.446</ele>
        <time>2015-06-21T09:41:22Z</time>
      </trkpt>
      <trkpt lat="36.529081" lon="-5.361067">
        <ele>590.846</ele>
        <time>2015-06-21T09:41:23Z</time>
      </trkpt>
      <trkpt lat="36.529103" lon="-5.361063">
        <ele>591.260</ele>
        <time>2015-06-21T09:41:24Z</time>
      </trkpt>
      <trkpt lat="36.529124" lon="-5.361056">
        <ele>591.627</ele>
        <time>2015-06-21T09:41:25Z</time>
      </trkpt>
      <trkpt lat="36.529277" lon="-5.361016">
        <ele>591.686</ele>
        <time>2015-06-21T09:41:32Z</time>
      </trkpt>
      <trkpt lat="36.529352" lon="-5.360944">
        <ele>592.048</ele>
        <time>2015-06-21T09:41:36Z</time>
      </trkpt>
      <trkpt lat="36.529366" lon="-5.360923">
        <ele>592.426</ele>
        <time>2015-06-21T09:41:37Z</time>
      </trkpt>
      <trkpt lat="36.529379" lon="-5.360897">
        <ele>592.847</ele>
        <time>2015-06-21T09:41:38Z</time>
      </trkpt>
      <trkpt lat="36.529387" lon="-5.360871">
        <ele>593.211</ele>
        <time>2015-06-21T09:41:39Z</time>
      </trkpt>
      <trkpt lat="36.529393" lon="-5.360848">
        <ele>593.808</ele>
        <time>2015-06-21T09:41:40Z</time>
      </trkpt>
      <trkpt lat="36.529444" lon="-5.360687">
        <ele>593.823</ele>
        <time>2015-06-21T09:41:46Z</time>
      </trkpt>
      <trkpt lat="36.529483" lon="-5.360585">
        <ele>594.299</ele>
        <time>2015-06-21T09:41:50Z</time>
      </trkpt>
      <trkpt lat="36.529495" lon="-5.360555">
        <ele>594.662</ele>
        <time>2015-06-21T09:41:51Z</time>
      </trkpt>
      <trkpt lat="36.529502" lon="-5.360525">
        <ele>595.012</ele>
        <time>2015-06-21T09:41:52Z</time>
      </trkpt>
      <trkpt lat="36.529507" lon="-5.360491">
        <ele>595.896</ele>
        <time>2015-06-21T09:41:53Z</time>
      </trkpt>
      <trkpt lat="36.529547" lon="-5.360256">
        <ele>595.813</ele>
        <time>2015-06-21T09:42:01Z</time>
      </trkpt>
      <trkpt lat="36.529565" lon="-5.360175">
        <ele>596.222</ele>
        <time>2015-06-21T09:42:04Z</time>
      </trkpt>
      <trkpt lat="36.529568" lon="-5.360147">
        <ele>596.664</ele>
        <time>2015-06-21T09:42:05Z</time>
      </trkpt>
      <trkpt lat="36.529568" lon="-5.360118">
        <ele>597.096</ele>
        <time>2015-06-21T09:42:06Z</time>
      </trkpt>
      <trkpt lat="36.529569" lon="-5.360089">
        <ele>597.431</ele>
        <time>2015-06-21T09:42:07Z</time>
      </trkpt>
      <trkpt lat="36.529569" lon="-5.360056">
        <ele>597.824</ele>
        <time>2015-06-21T09:42:08Z</time>
      </trkpt>
      <trkpt lat="36.529575" lon="-5.359848">
        <ele>597.808</ele>
        <time>2015-06-21T09:42:15Z</time>
      </trkpt>
      <trkpt lat="36.529541" lon="-5.359763">
        <ele>598.690</ele>
        <time>2015-06-21T09:42:18Z</time>
      </trkpt>
      <trkpt lat="36.529527" lon="-5.359737">
        <ele>599.046</ele>
        <time>2015-06-21T09:42:19Z</time>
      </trkpt>
      <trkpt lat="36.529515" lon="-5.359708">
        <ele>599.499</ele>
        <time>2015-06-21T09:42:20Z</time>
      </trkpt>
      <trkpt lat="36.529503" lon="-5.359680">
        <ele>599.819</ele>
        <time>2015-06-21T09:42:21Z</time>
      </trkpt>
      <trkpt lat="36.529423" lon="-5.359512">
        <ele>599.853</ele>
        <time>2015-06-21T09:42:28Z</time>
      </trkpt>
      <trkpt lat="36.529411" lon="-5.359483">
        <ele>600.420</ele>
        <time>2015-06-21T09:42:29Z</time>
      </trkpt>
      <trkpt lat="36.529399" lon="-5.359455">
        <ele>600.829</ele>
        <time>2015-06-21T09:42:30Z</time>
      </trkpt>
      <trkpt lat="36.529391" lon="-5.359430">
        <ele>601.281</ele>
        <time>2015-06-21T09:42:31Z</time>
      </trkpt>
      <trkpt lat="36.529386" lon="-5.359401">
        <ele>601.671</ele>
        <time>2015-06-21T09:42:32Z</time>
      </trkpt>
      <trkpt lat="36.529380" lon="-5.359370">
        <ele>602.041</ele>
        <time>2015-06-21T09:42:33Z</time>
      </trkpt>
      <trkpt lat="36.529359" lon="-5.359280">
        <ele>602.015</ele>
        <time>2015-06-21T09:42:36Z</time>
      </trkpt>
      <trkpt lat="36.529325" lon="-5.359086">
        <ele>602.808</ele>
        <time>2015-06-21T09:42:43Z</time>
      </trkpt>
      <trkpt lat="36.529322" lon="-5.359060">
        <ele>603.298</ele>
        <time>2015-06-21T09:42:44Z</time>
      </trkpt>
      <trkpt lat="36.529319" lon="-5.359033">
        <ele>603.654</ele>
        <time>2015-06-21T09:42:45Z</time>
      </trkpt>
      <trkpt lat="36.529319" lon="-5.359002">
        <ele>604.087</ele>
        <time>2015-06-21T09:42:46Z</time>
      </trkpt>
      <trkpt lat="36.529310" lon="-5.358772">
        <ele>604.037</ele>
        <time>2015-06-21T09:42:54Z</time>
      </trkpt>
      <trkpt lat="36.529294" lon="-5.358665">
        <ele>604.671</ele>
        <time>2015-06-21T09:42:58Z</time>
      </trkpt>
      <trkpt lat="36.529293" lon="-5.358632">
        <ele>605.028</ele>
        <time>2015-06-21T09:42:59Z</time>
      </trkpt>
      <trkpt lat="36.529295" lon="-5.358607">
        <ele>605.427</ele>
        <time>2015-06-21T09:43:00Z</time>
      </trkpt>
      <trkpt lat="36.529295" lon="-5.358578">
        <ele>606.059</ele>
        <time>2015-06-21T09:43:01Z</time>
      </trkpt>
      <trkpt lat="36.529297" lon="-5.358548">
        <ele>606.478</ele>
        <time>2015-06-21T09:43:02Z</time>
      </trkpt>
      <trkpt lat="36.529317" lon="-5.358375">
        <ele>606.433</ele>
        <time>2015-06-21T09:43:08Z</time>
      </trkpt>
      <trkpt lat="36.529320" lon="-5.358345">
        <ele>607.026</ele>
        <time>2015-06-21T09:43:09Z</time>
      </trkpt>
      <trkpt lat="36.529323" lon="-5.358317">
        <ele>607.408</ele>
        <time>2015-06-21T09:43:10Z</time>
      </trkpt>
      <trkpt lat="36.529329" lon="-5.358289">
        <ele>607.898</ele>
        <time>2015-06-21T09:43:11Z</time>
      </trkpt>
      <trkpt lat="36.529334" lon="-5.358260">
        <ele>608.234</ele>
        <time>2015-06-21T09:43:12Z</time>
      </trkpt>
      <trkpt lat="36.529345" lon="-5.358233">
        <ele>608.867</ele>
        <time>2015-06-21T09:43:13Z</time>
      </trkpt>
      <trkpt lat="36.529378" lon="-5.358147">
        <ele>608.887</ele>
        <time>2015-06-21T09:43:16Z</time>
      </trkpt>
      <trkpt lat="36.529432" lon="-5.357925">
        <ele>608.871</ele>
        <time>2015-06-21T09:43:24Z</time>
      </trkpt>
      <trkpt lat="36.529435" lon="-5.357896">
        <ele>609.288</ele>
        <time>2015-06-21T09:43:25Z</time>
      </trkpt>
      <trkpt lat="36.529439" lon="-5.357869">
        <ele>609.617</ele>
        <time>2015-06-21T09:43:26Z</time>
      </trkpt>
      <trkpt lat="36.529444" lon="-5.357841">
        <ele>610.029</ele>
        <time>2015-06-21T09:43:27Z</time>
      </trkpt>
      <trkpt lat="36.529446" lon="-5.357815">
        <ele>610.446</ele>
        <time>2015-06-21T09:43:28Z</time>
      </trkpt>
      <trkpt lat="36.529448" lon="-5.357790">
        <ele>610.888</ele>
        <time>2015-06-21T09:43:29Z</time>
      </trkpt>
      <trkpt lat="36.529432" lon="-5.357739">
        <ele>610.816</ele>
        <time>2015-06-21T09:43:31Z</time>
      </trkpt>
      <trkpt lat="36.529385" lon="-5.357579">
        <ele>611.208</ele>
        <time>2015-06-21T09:43:37Z</time>
      </trkpt>
      <trkpt lat="36.529379" lon="-5.357556">
        <ele>611.695</ele>
        <time>2015-06-21T09:43:38Z</time>
      </trkpt>
      <trkpt lat="36.529365" lon="-5.357537">
        <ele>612.021</ele>
        <time>2015-06-21T09:43:39Z</time>
      </trkpt>
      <trkpt lat="36.529352" lon="-5.357518">
        <ele>612.474</ele>
        <time>2015-06-21T09:43:40Z</time>
      </trkpt>
      <trkpt lat="36.529346" lon="-5.357502">
        <ele>612.894</ele>
        <time>2015-06-21T09:43:41Z</time>
      </trkpt>
      <trkpt lat="36.529327" lon="-5.357445">
        <ele>612.818</ele>
        <time>2015-06-21T09:43:44Z</time>
      </trkpt>
      <trkpt lat="36.529313" lon="-5.357374">
        <ele>612.835</ele>
        <time>2015-06-21T09:43:48Z</time>
      </trkpt>
      <trkpt lat="36.529317" lon="-5.357379">
        <ele>612.884</ele>
        <time>2015-06-21T09:43:50Z</time>
      </trkpt>
      <trkpt lat="36.529317" lon="-5.357379">
        <ele>612.856</ele>
        <time>2015-06-21T09:43:57Z</time>
      </trkpt>
      <trkpt lat="36.529323" lon="-5.357397">
        <ele>612.881</ele>
        <time>2015-06-21T09:44:02Z</time>
      </trkpt>
      <trkpt lat="36.529328" lon="-5.357396">
        <ele>612.861</ele>
        <time>2015-06-21T09:44:07Z</time>
      </trkpt>
      <trkpt lat="36.529328" lon="-5.357396">
        <ele>612.817</ele>
        <time>2015-06-21T09:44:10Z</time>
      </trkpt>
      <trkpt lat="36.529328" lon="-5.357396">
        <ele>612.808</ele>
        <time>2015-06-21T09:44:13Z</time>
      </trkpt>
      <trkpt lat="36.529328" lon="-5.357396">
        <ele>612.879</ele>
        <time>2015-06-21T09:44:18Z</time>
      </trkpt>
      <trkpt lat="36.529328" lon="-5.357396">
        <ele>612.885</ele>
        <time>2015-06-21T09:44:20Z</time>
      </trkpt>
      <trkpt lat="36.529328" lon="-5.357396">
        <ele>612.898</ele>
        <time>2015-06-21T09:44:24Z</time>
      </trkpt>
      <trkpt lat="36.529328" lon="-5.357396">
        <ele>612.868</ele>
        <time>2015-06-21T09:44:31Z</time>
      </trkpt>
      <trkpt lat="36.529328" lon="-5.357396">
        <ele>612.812</ele>
        <time>2015-06-21T09:44:38Z</time>
      </trkpt>
      <trkpt lat="36.529339" lon="-5.357438">
        <ele>612.899</ele>
        <time>2015-06-21T09:44:47Z</time>
      </trkpt>
      <trkpt lat="36.529339" lon="-5.357437">
        <ele>612.858</ele>
        <time>2015-06-21T09:44:55Z</time>
      </trkpt>
      <trkpt lat="36.529339" lon="-5.357437">
        <ele>612.850</ele>
        <time>2015-06-21T09:45:02Z</time>
      </trkpt>
      <trkpt lat="36.529339" lon="-5.357437">
        <ele>612.869</ele>
        <time>2015-06-21T09:45:10Z</time>
      </trkpt>
      <trkpt lat="36.529339" lon="-5.357437">
        <ele>612.804</ele>
        <time>2015-06-21T09:45:22Z</time>
      </trkpt>
      <trkpt lat="36.529338" lon="-5.357436">
        <ele>612.824</ele>
        <time>2015-06-21T09:45:36Z</time>
      </trkpt>
      <trkpt lat="36.529338" lon="-5.357436">
        <ele>612.808</ele>
        <time>2015-06-21T09:45:46Z</time>
      </trkpt>
      <trkpt lat="36.529338" lon="-5.357436">
        <ele>612.887</ele>
        <time>2015-06-21T09:45:48Z</time>
      </trkpt>
      <trkpt lat="36.529338" lon="-5.357436">
        <ele>612.823</ele>
        <time>2015-06-21T09:45:52Z</time>
      </trkpt>
      <trkpt lat="36.529338" lon="-5.357436">
        <ele>612.846</ele>
        <time>2015-06-21T09:46:00Z</time>
      </trkpt>
      <trkpt lat="36.529338" lon="-5.357436">
        <ele>612.836</ele>
        <time>2015-06-21T09:46:01Z</time>
      </trkpt>
      <trkpt lat="36.529364" lon="-5.357494">
        <ele>612.880</ele>
        <time>2015-06-21T09:46:05Z</time>
      </trkpt>
      <trkpt lat="36.529368" lon="-5.357509">
        <ele>612.877</ele>
        <time>2015-06-21T09:46:06Z</time>
      </trkpt>
      <trkpt lat="36.529387" lon="-5.357573">
        <ele>612.816</ele>
        <time>2015-06-21T09:46:11Z</time>
      </trkpt>
      <trkpt lat="36.529390" lon="-5.357596">
        <ele>612.868</ele>
        <time>2015-06-21T09:46:12Z</time>
      </trkpt>
      <trkpt lat="36.529437" lon="-5.357762">
        <ele>612.849</ele>
        <time>2015-06-21T09:46:16Z</time>
      </trkpt>
      <trkpt lat="36.529437" lon="-5.357859">
        <ele>612.802</ele>
        <time>2015-06-21T09:46:19Z</time>
      </trkpt>
      <trkpt lat="36.529432" lon="-5.357873">
        <ele>612.822</ele>
        <time>2015-06-21T09:46:20Z</time>
      </trkpt>
      <trkpt lat="36.529429" lon="-5.357876">
        <ele>612.808</ele>
        <time>2015-06-21T09:46:24Z</time>
      </trkpt>
      <trkpt lat="36.529413" lon="-5.357862">
        <ele>612.895</ele>
        <time>2015-06-21T09:46:30Z</time>
      </trkpt>
      <trkpt lat="36.529414" lon="-5.357853">
        <ele>612.811</ele>
        <time>2015-06-21T09:46:31Z</time>
      </trkpt>
      <trkpt lat="36.529416" lon="-5.357855">
        <ele>612.854</ele>
        <time>2015-06-21T09:46:37Z</time>
      </trkpt>
      <trkpt lat="36.529416" lon="-5.357855">
        <ele>612.874</ele>
        <time>2015-06-21T09:46:44Z</time>
      </trkpt>
      <trkpt lat="36.529416" lon="-5.357855">
        <ele>612.848</ele>
        <time>2015-06-21T09:46:49Z</time>
      </trkpt>
      <trkpt lat="36.529416" lon="-5.357855">
        <ele>612.825</ele>
        <time>2015-06-21T09:46:51Z</time>
      </trkpt>
      <trkpt lat="36.529416" lon="-5.357855">
        <ele>612.854</ele>
        <time>2015-06-21T09:47:03Z</time>
      </trkpt>
      <trkpt lat="36.529415" lon="-5.357855">
        <ele>612.826</ele>
        <time>2015-06-21T09:47:14Z</time>
      </trkpt>
      <trkpt lat="36.529415" lon="-5.357855">
        <ele>612.825</ele>
        <time>2015-06-21T09:47:23Z</time>
      </trkpt>
      <trkpt lat="36.529415" lon="-5.357855">
        <ele>612.826</ele>
        <time>2015-06-21T09:47:31Z</time>
      </trkpt>
      <trkpt lat="36.529415" lon="-5.357855">
        <ele>612.808</ele>
        <time>2015-06-21T09:47:34Z</time>
      </trkpt>
      <trkpt lat="36.529415" lon="-5.357855">
        <ele>612.808</ele>
        <time>2015-06-21T09:47:43Z</time>
      </trkpt>
      <trkpt lat="36.529415" lon="-5.357855">
        <ele>612.893</ele>
        <time>2015-06-21T09:47:47Z</time>
      </trkpt>
      <trkpt lat="36.529414" lon="-5.357855">
        <ele>612.869</ele>
        <time>2015-06-21T09:47:55Z</time>
      </trkpt>
      <trkpt lat="36.529414" lon="-5.357855">
        <ele>612.852</ele>
        <time>2015-06-21T09:48:03Z</time>
      </trkpt>
      <trkpt lat="36.529414" lon="-5.357855">
        <ele>612.892</ele>
        <time>2015-06-21T09:48:13Z</time>
      </trkpt>
      <trkpt lat="36.529414" lon="-5.357855">
        <ele>612.876</ele>
        <time>2015-06-21T09:48:30Z</time>
      </trkpt>
      <trkpt lat="36.529413" lon="-5.357853">
        <ele>612.833</ele>
        <time>2015-06-21T09:48:42Z</time>
      </trkpt>
      <trkpt lat="36.529413" lon="-5.357853">
        <ele>612.892</ele>
        <time>2015-06-21T09:48:52Z</time>
      </trkpt>
      <trkpt lat="36.529413" lon="-5.357853">
        <ele>612.824</ele>
        <time>2015-06-21T09:49:08Z</time>
      </trkpt>
      <trkpt lat="36.529413" lon="-5.357854">
        <ele>612.876</ele>
        <time>2015-06-21T09:49:21Z</time>
      </trkpt>
      <trkpt lat="36.529413" lon="-5.357854">
        <ele>612.890</ele>
        <time>2015-06-21T09:49:35Z</time>
      </trkpt>
      <trkpt lat="36.529413" lon="-5.357854">
        <ele>612.819</ele>
        <time>2015-06-21T09:49:52Z</time>
      </trkpt>
      <trkpt lat="36.529412" lon="-5.357852">
        <ele>612.808</ele>
        <time>2015-06-21T09:49:56Z</time>
      </trkpt>
      <trkpt lat="36.529412" lon="-5.357852">
        <ele>612.858</ele>
        <time>2015-06-21T09:49:58Z</time>
      </trkpt>
      <trkpt lat="36.529412" lon="-5.357852">
        <ele>612.824</ele>
        <time>2015-06-21T09:50:00Z</time>
      </trkpt>
      <trkpt lat="36.529412" lon="-5.357852">
        <ele>612.887</ele>
        <time>2015-06-21T09:50:04Z</time>
      </trkpt>
      <trkpt lat="36.529412" lon="-5.357852">
        <ele>612.837</ele>
        <time>2015-06-21T09:50:08Z</time>
      </trkpt>
      <trkpt lat="36.529412" lon="-5.357852">
        <ele>612.821</ele>
        <time>2015-06-21T09:50:10Z</time>
      </trkpt>
      <trkpt lat="36.529412" lon="-5.357852">
        <ele>612.838</ele>
        <time>2015-06-21T09:50:12Z</time>
      </trkpt>
      <trkpt lat="36.529412" lon="-5.357852">
        <ele>612.887</ele>
        <time>2015-06-21T09:50:15Z</time>
      </trkpt>
      <trkpt lat="36.529412" lon="-5.357852">
        <ele>612.899</ele>
        <time>2015-06-21T09:50:25Z</time>
      </trkpt>
      <trkpt lat="36.529410" lon="-5.357847">
        <ele>612.847</ele>
        <time>2015-06-21T09:50:35Z</time>
      </trkpt>
      <trkpt lat="36.529410" lon="-5.357847">
        <ele>612.829</ele>
        <time>2015-06-21T09:50:39Z</time>
      </trkpt>
      <trkpt lat="36.529410" lon="-5.357847">
        <ele>612.821</ele>
        <time>2015-06-21T09:50:42Z</time>
      </trkpt>
      <trkpt lat="36.529410" lon="-5.357847">
        <ele>612.808</ele>
        <time>2015-06-21T09:50:54Z</time>
      </trkpt>
      <trkpt lat="36.529410" lon="-5.357847">
        <ele>612.895</ele>
        <time>2015-06-21T09:51:07Z</time>
      </trkpt>
      <trkpt lat="36.529410" lon="-5.357847">
        <ele>612.821</ele>
        <time>2015-06-21T09:51:10Z</time>
      </trkpt>
      <trkpt lat="36.529410" lon="-5.357847">
        <ele>612.814</ele>
        <time>2015-06-21T09:51:17Z</time>
      </trkpt>
      <trkpt lat="36.529410" lon="-5.357847">
        <ele>612.834</ele>
        <time>2015-06-21T09:51:21Z</time>
      </trkpt>
      <trkpt lat="36.529410" lon="-5.357847">
        <ele>612.888</ele>
        <time>2015-06-21T09:51:34Z</time>
      </trkpt>
      <trkpt lat="36.529410" lon="-5.357847">
        <ele>612.845</ele>
        <time>2015-06-21T09:51:35Z</time>
      </trkpt>
      <trkpt lat="36.529410" lon="-5.357847">
        <ele>612.854</ele>
        <time>2015-06-21T09:51:44Z</time>
      </trkpt>
      <trkpt lat="36.529410" lon="-5.357847">
        <ele>612.826</ele>
        <time>2015-06-21T09:51:46Z</time>
      </trkpt>
      <trkpt lat="36.529410" lon="-5.357847">
        <ele>612.872</ele>
        <time>2015-06-21T09:51:52Z</time>
      </trkpt>
      <trkpt lat="36.529411" lon="-5.357844">
        <ele>612.813</ele>
        <time>2015-06-21T09:51:55Z</time>
      </trkpt>
      <trkpt lat="36.529411" lon="-5.357844">
        <ele>612.814</ele>
        <time>2015-06-21T09:52:02Z</time>
      </trkpt>
      <trkpt lat="36.529411" lon="-5.357844">
        <ele>612.808</ele>
        <time>2015-06-21T09:52:06Z</time>
      </trkpt>
      <trkpt lat="36.529407" lon="-5.357830">
        <ele>612.858</ele>
        <time>2015-06-21T09:52:16Z</time>
      </trkpt>
      <trkpt lat="36.529409" lon="-5.357824">
        <ele>612.844</ele>
        <time>2015-06-21T09:52:19Z</time>
      </trkpt>
      <trkpt lat="36.529410" lon="-5.357823">
        <ele>612.877</ele>
        <time>2015-06-21T09:52:23Z</time>
      </trkpt>
      <trkpt lat="36.529428" lon="-5.357808">
        <ele>612.867</ele>
        <time>2015-06-21T09:52:25Z</time>
      </trkpt>
      <trkpt lat="36.529445" lon="-5.357785">
        <ele>612.891</ele>
        <time>2015-06-21T09:52:27Z</time>
      </trkpt>
      <trkpt lat="36.529437" lon="-5.357737">
        <ele>612.878</ele>
        <time>2015-06-21T09:52:30Z</time>
      </trkpt>
      <trkpt lat="36.529428" lon="-5.357707">
        <ele>612.867</ele>
        <time>2015-06-21T09:52:32Z</time>
      </trkpt>
      <trkpt lat="36.529404" lon="-5.357609">
        <ele>612.849</ele>
        <time>2015-06-21T09:52:37Z</time>
      </trkpt>
      <trkpt lat="36.529331" lon="-5.357467">
        <ele>612.872</ele>
        <time>2015-06-21T09:52:43Z</time>
      </trkpt>
      <trkpt lat="36.529294" lon="-5.357434">
        <ele>612.813</ele>
        <time>2015-06-21T09:52:46Z</time>
      </trkpt>
      <trkpt lat="36.529276" lon="-5.357403">
        <ele>612.814</ele>
        <time>2015-06-21T09:52:48Z</time>
      </trkpt>
      <trkpt lat="36.529230" lon="-5.357366">
        <ele>612.808</ele>
        <time>2015-06-21T09:52:52Z</time>
      </trkpt>
      <trkpt lat="36.529216" lon="-5.357356">
        <ele>612.828</ele>
        <time>2015-06-21T09:52:53Z</time>
      </trkpt>
      <trkpt lat="36.529202" lon="-5.357351">
        <ele>612.834</ele>
        <time>2015-06-21T09:52:54Z</time>
      </trkpt>
      <trkpt lat="36.529085" lon="-5.357337">
        <ele>612.877</ele>
        <time>2015-06-21T09:53:00Z</time>
      </trkpt>
      <trkpt lat="36.528917" lon="-5.357279">
        <ele>612.867</ele>
        <time>2015-06-21T09:53:06Z</time>
      </trkpt>
      <trkpt lat="36.528885" lon="-5.357267">
        <ele>612.841</ele>
        <time>2015-06-21T09:53:07Z</time>
      </trkpt>
      <trkpt lat="36.528683" lon="-5.357115">
        <ele>612.858</ele>
        <time>2015-06-21T09:53:13Z</time>
      </trkpt>
      <trkpt lat="36.528495" lon="-5.356895">
        <ele>612.857</ele>
        <time>2015-06-21T09:53:18Z</time>
      </trkpt>
      <trkpt lat="36.528465" lon="-5.356842">
        <ele>612.819</ele>
        <time>2015-06-21T09:53:19Z</time>
      </trkpt>
      <trkpt lat="36.528453" lon="-5.356787">
        <ele>612.467</ele>
        <time>2015-06-21T09:53:20Z</time>
      </trkpt>
      <trkpt lat="36.528459" lon="-5.356731">
        <ele>612.081</ele>
        <time>2015-06-21T09:53:21Z</time>
      </trkpt>
      <trkpt lat="36.528479" lon="-5.356673">
        <ele>611.619</ele>
        <time>2015-06-21T09:53:22Z</time>
      </trkpt>
      <trkpt lat="36.528510" lon="-5.356614">
        <ele>611.208</ele>
        <time>2015-06-21T09:53:23Z</time>
      </trkpt>
      <trkpt lat="36.528548" lon="-5.356556">
        <ele>610.857</ele>
        <time>2015-06-21T09:53:24Z</time>
      </trkpt>
      <trkpt lat="36.528651" lon="-5.356432">
        <ele>610.813</ele>
        <time>2015-06-21T09:53:26Z</time>
      </trkpt>
      <trkpt lat="36.528708" lon="-5.356366">
        <ele>610.446</ele>
        <time>2015-06-21T09:53:27Z</time>
      </trkpt>
      <trkpt lat="36.528770" lon="-5.356293">
        <ele>610.096</ele>
        <time>2015-06-21T09:53:28Z</time>
      </trkpt>
      <trkpt lat="36.528836" lon="-5.356210">
        <ele>609.650</ele>
        <time>2015-06-21T09:53:29Z</time>
      </trkpt>
      <trkpt lat="36.528899" lon="-5.356111">
        <ele>609.057</ele>
        <time>2015-06-21T09:53:30Z</time>
      </trkpt>
      <trkpt lat="36.528952" lon="-5.355994">
        <ele>608.426</ele>
        <time>2015-06-21T09:53:31Z</time>
      </trkpt>
      <trkpt lat="36.529002" lon="-5.355872">
        <ele>607.818</ele>
        <time>2015-06-21T09:53:32Z</time>
      </trkpt>
      <trkpt lat="36.529052" lon="-5.355742">
        <ele>607.292</ele>
        <time>2015-06-21T09:53:33Z</time>
      </trkpt>
      <trkpt lat="36.529092" lon="-5.355623">
        <ele>606.473</ele>
        <time>2015-06-21T09:53:34Z</time>
      </trkpt>
      <trkpt lat="36.529124" lon="-5.355505">
        <ele>605.620</ele>
        <time>2015-06-21T09:53:35Z</time>
      </trkpt>
      <trkpt lat="36.529149" lon="-5.355391">
        <ele>605.008</ele>
        <time>2015-06-21T09:53:36Z</time>
      </trkpt>
      <trkpt lat="36.529161" lon="-5.355285">
        <ele>604.250</ele>
        <time>2015-06-21T09:53:37Z</time>
      </trkpt>
      <trkpt lat="36.529153" lon="-5.355188">
        <ele>603.846</ele>
        <time>2015-06-21T09:53:38Z</time>
      </trkpt>
      <trkpt lat="36.529120" lon="-5.355104">
        <ele>603.439</ele>
        <time>2015-06-21T09:53:39Z</time>
      </trkpt>
      <trkpt lat="36.529085" lon="-5.355039">
        <ele>603.029</ele>
        <time>2015-06-21T09:53:40Z</time>
      </trkpt>
      <trkpt lat="36.529050" lon="-5.354976">
        <ele>602.623</ele>
        <time>2015-06-21T09:53:41Z</time>
      </trkpt>
      <trkpt lat="36.529034" lon="-5.354917">
        <ele>602.020</ele>
        <time>2015-06-21T09:53:42Z</time>
      </trkpt>
      <trkpt lat="36.529024" lon="-5.354824">
        <ele>602.049</ele>
        <time>2015-06-21T09:53:44Z</time>
      </trkpt>
      <trkpt lat="36.529021" lon="-5.354789">
        <ele>602.091</ele>
        <time>2015-06-21T09:53:45Z</time>
      </trkpt>
      <trkpt lat="36.529016" lon="-5.354697">
        <ele>602.039</ele>
        <time>2015-06-21T09:53:48Z</time>
      </trkpt>
      <trkpt lat="36.529006" lon="-5.354646">
        <ele>602.001</ele>
        <time>2015-06-21T09:53:50Z</time>
      </trkpt>
      <trkpt lat="36.528966" lon="-5.354590">
        <ele>602.021</ele>
        <time>2015-06-21T09:53:53Z</time>
      </trkpt>
      <trkpt lat="36.528955" lon="-5.354568">
        <ele>602.408</ele>
        <time>2015-06-21T09:53:54Z</time>
      </trkpt>
      <trkpt lat="36.528946" lon="-5.354548">
        <ele>602.844</ele>
        <time>2015-06-21T09:53:55Z</time>
      </trkpt>
      <trkpt lat="36.528937" lon="-5.354527">
        <ele>603.420</ele>
        <time>2015-06-21T09:53:56Z</time>
      </trkpt>
      <trkpt lat="36.528928" lon="-5.354507">
        <ele>603.873</ele>
        <time>2015-06-21T09:53:57Z</time>
      </trkpt>
      <trkpt lat="36.528918" lon="-5.354488">
        <ele>604.223</ele>
        <time>2015-06-21T09:53:58Z</time>
      </trkpt>
      <trkpt lat="36.528895" lon="-5.354455">
        <ele>604.277</ele>
        <time>2015-06-21T09:54:00Z</time>
      </trkpt>
      <trkpt lat="36.528867" lon="-5.354427">
        <ele>604.284</ele>
        <time>2015-06-21T09:54:02Z</time>
      </trkpt>
      <trkpt lat="36.528814" lon="-5.354373">
        <ele>604.663</ele>
        <time>2015-06-21T09:54:06Z</time>
      </trkpt>
      <trkpt lat="36.528802" lon="-5.354359">
        <ele>605.015</ele>
        <time>2015-06-21T09:54:07Z</time>
      </trkpt>
      <trkpt lat="36.528793" lon="-5.354341">
        <ele>605.415</ele>
        <time>2015-06-21T09:54:08Z</time>
      </trkpt>
      <trkpt lat="36.528782" lon="-5.354322">
        <ele>605.865</ele>
        <time>2015-06-21T09:54:09Z</time>
      </trkpt>
      <trkpt lat="36.528770" lon="-5.354306">
        <ele>606.211</ele>
        <time>2015-06-21T09:54:10Z</time>
      </trkpt>
      <trkpt lat="36.528705" lon="-5.354233">
        <ele>606.208</ele>
        <time>2015-06-21T09:54:16Z</time>
      </trkpt>
      <trkpt lat="36.528670" lon="-5.354191">
        <ele>606.252</ele>
        <time>2015-06-21T09:54:20Z</time>
      </trkpt>
      <trkpt lat="36.528664" lon="-5.354172">
        <ele>606.678</ele>
        <time>2015-06-21T09:54:21Z</time>
      </trkpt>
      <trkpt lat="36.528657" lon="-5.354153">
        <ele>607.271</ele>
        <time>2015-06-21T09:54:22Z</time>
      </trkpt>
      <trkpt lat="36.528645" lon="-5.354132">
        <ele>607.641</ele>
        <time>2015-06-21T09:54:23Z</time>
      </trkpt>
      <trkpt lat="36.528631" lon="-5.354109">
        <ele>608.075</ele>
        <time>2015-06-21T09:54:24Z</time>
      </trkpt>
      <trkpt lat="36.528618" lon="-5.354085">
        <ele>608.452</ele>
        <time>2015-06-21T09:54:25Z</time>
      </trkpt>
      <trkpt lat="36.528597" lon="-5.354043">
        <ele>608.441</ele>
        <time>2015-06-21T09:54:27Z</time>
      </trkpt>
      <trkpt lat="36.528592" lon="-5.354025">
        <ele>608.473</ele>
        <time>2015-06-21T09:54:28Z</time>
      </trkpt>
      <trkpt lat="36.528592" lon="-5.353996">
        <ele>608.427</ele>
        <time>2015-06-21T09:54:30Z</time>
      </trkpt>
      <trkpt lat="36.528618" lon="-5.353948">
        <ele>608.468</ele>
        <time>2015-06-21T09:54:33Z</time>
      </trkpt>
      <trkpt lat="36.528656" lon="-5.353896">
        <ele>608.814</ele>
        <time>2015-06-21T09:54:36Z</time>
      </trkpt>
      <trkpt lat="36.528670" lon="-5.353885">
        <ele>609.208</ele>
        <time>2015-06-21T09:54:37Z</time>
      </trkpt>
      <trkpt lat="36.528686" lon="-5.353874">
        <ele>609.833</ele>
        <time>2015-06-21T09:54:38Z</time>
      </trkpt>
      <trkpt lat="36.528706" lon="-5.353862">
        <ele>610.249</ele>
        <time>2015-06-21T09:54:39Z</time>
      </trkpt>
      <trkpt lat="36.528726" lon="-5.353848">
        <ele>610.622</ele>
        <time>2015-06-21T09:54:40Z</time>
      </trkpt>
      <trkpt lat="36.528865" lon="-5.353734">
        <ele>610.652</ele>
        <time>2015-06-21T09:54:47Z</time>
      </trkpt>
      <trkpt lat="36.528943" lon="-5.353663">
        <ele>610.636</ele>
        <time>2015-06-21T09:54:52Z</time>
      </trkpt>
      <trkpt lat="36.528964" lon="-5.353618">
        <ele>610.653</ele>
        <time>2015-06-21T09:54:54Z</time>
      </trkpt>
      <trkpt lat="36.528985" lon="-5.353566">
        <ele>611.062</ele>
        <time>2015-06-21T09:54:56Z</time>
      </trkpt>
      <trkpt lat="36.528994" lon="-5.353540">
        <ele>611.414</ele>
        <time>2015-06-21T09:54:57Z</time>
      </trkpt>
      <trkpt lat="36.529002" lon="-5.353513">
        <ele>611.816</ele>
        <time>2015-06-21T09:54:58Z</time>
      </trkpt>
      <trkpt lat="36.529009" lon="-5.353484">
        <ele>612.276</ele>
        <time>2015-06-21T09:54:59Z</time>
      </trkpt>
      <trkpt lat="36.529017" lon="-5.353455">
        <ele>612.613</ele>
        <time>2015-06-21T09:55:00Z</time>
      </trkpt>
      <trkpt lat="36.529025" lon="-5.353428">
        <ele>612.608</ele>
        <time>2015-06-21T09:55:01Z</time>
      </trkpt>
      <trkpt lat="36.529097" lon="-5.353204">
        <ele>612.692</ele>
        <time>2015-06-21T09:55:09Z</time>
      </trkpt>
      <trkpt lat="36.529110" lon="-5.353010">
        <ele>612.648</ele>
        <time>2015-06-21T09:55:16Z</time>
      </trkpt>
      <trkpt lat="36.529115" lon="-5.352982">
        <ele>613.011</ele>
        <time>2015-06-21T09:55:17Z</time>
      </trkpt>
      <trkpt lat="36.529121" lon="-5.352955">
        <ele>613.481</ele>
        <time>2015-06-21T09:55:18Z</time>
      </trkpt>
      <trkpt lat="36.529128" lon="-5.352925">
        <ele>613.845</ele>
        <time>2015-06-21T09:55:19Z</time>
      </trkpt>
      <trkpt lat="36.529134" lon="-5.352898">
        <ele>614.252</ele>
        <time>2015-06-21T09:55:20Z</time>
      </trkpt>
      <trkpt lat="36.529142" lon="-5.352873">
        <ele>614.661</ele>
        <time>2015-06-21T09:55:21Z</time>
      </trkpt>
      <trkpt lat="36.529151" lon="-5.352819">
        <ele>614.663</ele>
        <time>2015-06-21T09:55:23Z</time>
      </trkpt>
      <trkpt lat="36.529171" lon="-5.352667">
        <ele>615.069</ele>
        <time>2015-06-21T09:55:29Z</time>
      </trkpt>
      <trkpt lat="36.529178" lon="-5.352641">
        <ele>615.404</ele>
        <time>2015-06-21T09:55:30Z</time>
      </trkpt>
      <trkpt lat="36.529184" lon="-5.352612">
        <ele>616.424</ele>
        <time>2015-06-21T09:55:31Z</time>
      </trkpt>
      <trkpt lat="36.529189" lon="-5.352584">
        <ele>616.808</ele>
        <time>2015-06-21T09:55:32Z</time>
      </trkpt>
      <trkpt lat="36.529192" lon="-5.352475">
        <ele>616.817</ele>
        <time>2015-06-21T09:55:36Z</time>
      </trkpt>
      <trkpt lat="36.529165" lon="-5.352232">
        <ele>616.853</ele>
        <time>2015-06-21T09:55:44Z</time>
      </trkpt>
      <trkpt lat="36.529062" lon="-5.352025">
        <ele>616.866</ele>
        <time>2015-06-21T09:55:50Z</time>
      </trkpt>
      <trkpt lat="36.528980" lon="-5.351872">
        <ele>617.276</ele>
        <time>2015-06-21T09:55:54Z</time>
      </trkpt>
      <trkpt lat="36.528966" lon="-5.351839">
        <ele>617.610</ele>
        <time>2015-06-21T09:55:55Z</time>
      </trkpt>
      <trkpt lat="36.528954" lon="-5.351807">
        <ele>618.437</ele>
        <time>2015-06-21T09:55:56Z</time>
      </trkpt>
      <trkpt lat="36.528944" lon="-5.351777">
        <ele>618.826</ele>
        <time>2015-06-21T09:55:57Z</time>
      </trkpt>
      <trkpt lat="36.528929" lon="-5.351655">
        <ele>618.868</ele>
        <time>2015-06-21T09:56:01Z</time>
      </trkpt>
      <trkpt lat="36.528971" lon="-5.351438">
        <ele>618.848</ele>
        <time>2015-06-21T09:56:08Z</time>
      </trkpt>
      <trkpt lat="36.529021" lon="-5.351339">
        <ele>619.261</ele>
        <time>2015-06-21T09:56:12Z</time>
      </trkpt>
      <trkpt lat="36.529033" lon="-5.351312">
        <ele>619.617</ele>
        <time>2015-06-21T09:56:13Z</time>
      </trkpt>
      <trkpt lat="36.529046" lon="-5.351282">
        <ele>620.008</ele>
        <time>2015-06-21T09:56:14Z</time>
      </trkpt>
      <trkpt lat="36.529062" lon="-5.351257">
        <ele>620.645</ele>
        <time>2015-06-21T09:56:15Z</time>
      </trkpt>
      <trkpt lat="36.529077" lon="-5.351230">
        <ele>621.091</ele>
        <time>2015-06-21T09:56:16Z</time>
      </trkpt>
      <trkpt lat="36.529094" lon="-5.351201">
        <ele>621.044</ele>
        <time>2015-06-21T09:56:17Z</time>
      </trkpt>
      <trkpt lat="36.529221" lon="-5.351007">
        <ele>621.074</ele>
        <time>2015-06-21T09:56:25Z</time>
      </trkpt>
      <trkpt lat="36.529266" lon="-5.350928">
        <ele>621.488</ele>
        <time>2015-06-21T09:56:28Z</time>
      </trkpt>
      <trkpt lat="36.529283" lon="-5.350900">
        <ele>621.825</ele>
        <time>2015-06-21T09:56:29Z</time>
      </trkpt>
      <trkpt lat="36.529301" lon="-5.350875">
        <ele>622.254</ele>
        <time>2015-06-21T09:56:30Z</time>
      </trkpt>
      <trkpt lat="36.529319" lon="-5.350853">
        <ele>622.666</ele>
        <time>2015-06-21T09:56:31Z</time>
      </trkpt>
      <trkpt lat="36.529335" lon="-5.350829">
        <ele>623.035</ele>
        <time>2015-06-21T09:56:32Z</time>
      </trkpt>
      <trkpt lat="36.529348" lon="-5.350802">
        <ele>623.086</ele>
        <time>2015-06-21T09:56:33Z</time>
      </trkpt>
      <trkpt lat="36.529452" lon="-5.350600">
        <ele>623.014</ele>
        <time>2015-06-21T09:56:40Z</time>
      </trkpt>
      <trkpt lat="36.529463" lon="-5.350566">
        <ele>623.008</ele>
        <time>2015-06-21T09:56:41Z</time>
      </trkpt>
      <trkpt lat="36.529519" lon="-5.350432">
        <ele>623.814</ele>
        <time>2015-06-21T09:56:45Z</time>
      </trkpt>
      <trkpt lat="36.529543" lon="-5.350398">
        <ele>624.220</ele>
        <time>2015-06-21T09:56:46Z</time>
      </trkpt>
      <trkpt lat="36.529562" lon="-5.350356">
        <ele>624.643</ele>
        <time>2015-06-21T09:56:47Z</time>
      </trkpt>
      <trkpt lat="36.529579" lon="-5.350310">
        <ele>625.083</ele>
        <time>2015-06-21T09:56:48Z</time>
      </trkpt>
      <trkpt lat="36.529627" lon="-5.350134">
        <ele>625.017</ele>
        <time>2015-06-21T09:56:52Z</time>
      </trkpt>
      <trkpt lat="36.529731" lon="-5.349845">
        <ele>625.054</ele>
        <time>2015-06-21T09:56:59Z</time>
      </trkpt>
      <trkpt lat="36.529799" lon="-5.349675">
        <ele>625.013</ele>
        <time>2015-06-21T09:57:03Z</time>
      </trkpt>
      <trkpt lat="36.529867" lon="-5.349549">
        <ele>625.095</ele>
        <time>2015-06-21T09:57:06Z</time>
      </trkpt>
      <trkpt lat="36.529930" lon="-5.349467">
        <ele>625.041</ele>
        <time>2015-06-21T09:57:09Z</time>
      </trkpt>
      <trkpt lat="36.529941" lon="-5.349456">
        <ele>625.081</ele>
        <time>2015-06-21T09:57:10Z</time>
      </trkpt>
      <trkpt lat="36.529941" lon="-5.349447">
        <ele>625.009</ele>
        <time>2015-06-21T09:57:12Z</time>
      </trkpt>
      <trkpt lat="36.529941" lon="-5.349447">
        <ele>625.008</ele>
        <time>2015-06-21T09:57:14Z</time>
      </trkpt>
      <trkpt lat="36.529941" lon="-5.349447">
        <ele>625.055</ele>
        <time>2015-06-21T09:57:24Z</time>
      </trkpt>
      <trkpt lat="36.529941" lon="-5.349447">
        <ele>625.021</ele>
        <time>2015-06-21T09:57:37Z</time>
      </trkpt>
      <trkpt lat="36.529941" lon="-5.349447">
        <ele>625.064</ele>
        <time>2015-06-21T09:57:47Z</time>
      </trkpt>
      <trkpt lat="36.529946" lon="-5.349445">
        <ele>625.034</ele>
        <time>2015-06-21T09:57:56Z</time>
      </trkpt>
      <trkpt lat="36.529947" lon="-5.349453">
        <ele>625.078</ele>
        <time>2015-06-21T09:57:59Z</time>
      </trkpt>
      <trkpt lat="36.529947" lon="-5.349453">
        <ele>625.095</ele>
        <time>2015-06-21T09:58:00Z</time>
      </trkpt>
      <trkpt lat="36.529947" lon="-5.349453">
        <ele>625.014</ele>
        <time>2015-06-21T09:58:09Z</time>
      </trkpt>
      <trkpt lat="36.529947" lon="-5.349453">
        <ele>625.066</ele>
        <time>2015-06-21T09:58:14Z</time>
      </trkpt>
      <trkpt lat="36.529947" lon="-5.349453">
        <ele>625.093</ele>
        <time>2015-06-21T09:58:17Z</time>
      </trkpt>
      <trkpt lat="36.529947" lon="-5.349453">
        <ele>625.065</ele>
        <time>2015-06-21T09:58:20Z</time>
      </trkpt>
      <trkpt lat="36.529947" lon="-5.349453">
        <ele>625.021</ele>
        <time>2015-06-21T09:58:23Z</time>
      </trkpt>
      <trkpt lat="36.529943" lon="-5.349455">
        <ele>625.008</ele>
        <time>2015-06-21T09:58:28Z</time>
      </trkpt>
      <trkpt lat="36.529939" lon="-5.349437">
        <ele>625.010</ele>
        <time>2015-06-21T09:58:32Z</time>
      </trkpt>
      <trkpt lat="36.529939" lon="-5.349434">
        <ele>625.046</ele>
        <time>2015-06-21T09:58:34Z</time>
      </trkpt>
      <trkpt lat="36.529939" lon="-5.349435">
        <ele>625.039</ele>
        <time>2015-06-21T09:58:40Z</time>
      </trkpt>
      <trkpt lat="36.529945" lon="-5.349431">
        <ele>625.059</ele>
        <time>2015-06-21T09:58:54Z</time>
      </trkpt>
      <trkpt lat="36.529953" lon="-5.349430">
        <ele>625.043</ele>
        <time>2015-06-21T09:58:55Z</time>
      </trkpt>
      <trkpt lat="36.529978" lon="-5.349407">
        <ele>625.070</ele>
        <time>2015-06-21T09:58:57Z</time>
      </trkpt>
      <trkpt lat="36.529994" lon="-5.349387">
        <ele>625.019</ele>
        <time>2015-06-21T09:58:58Z</time>
      </trkpt>
      <trkpt lat="36.530092" lon="-5.349318">
        <ele>625.071</ele>
        <time>2015-06-21T09:59:02Z</time>
      </trkpt>
      <trkpt lat="36.530121" lon="-5.349302">
        <ele>625.018</ele>
        <time>2015-06-21T09:59:03Z</time>
      </trkpt>
      <trkpt lat="36.530243" lon="-5.349264">
        <ele>625.098</ele>
        <time>2015-06-21T09:59:06Z</time>
      </trkpt>
      <trkpt lat="36.530350" lon="-5.349234">
        <ele>624.617</ele>
        <time>2015-06-21T09:59:08Z</time>
      </trkpt>
      <trkpt lat="36.530412" lon="-5.349209">
        <ele>624.008</ele>
        <time>2015-06-21T09:59:09Z</time>
      </trkpt>
      <trkpt lat="36.530474" lon="-5.349169">
        <ele>623.662</ele>
        <time>2015-06-21T09:59:10Z</time>
      </trkpt>
      <trkpt lat="36.530538" lon="-5.349120">
        <ele>623.248</ele>
        <time>2015-06-21T09:59:11Z</time>
      </trkpt>
      <trkpt lat="36.530599" lon="-5.349062">
        <ele>622.651</ele>
        <time>2015-06-21T09:59:12Z</time>
      </trkpt>
      <trkpt lat="36.530753" lon="-5.348873">
        <ele>622.691</ele>
        <time>2015-06-21T09:59:15Z</time>
      </trkpt>
      <trkpt lat="36.530798" lon="-5.348811">
        <ele>622.215</ele>
        <time>2015-06-21T09:59:16Z</time>
      </trkpt>
      <trkpt lat="36.530839" lon="-5.348753">
        <ele>621.882</ele>
        <time>2015-06-21T09:59:17Z</time>
      </trkpt>
      <trkpt lat="36.530876" lon="-5.348693">
        <ele>621.461</ele>
        <time>2015-06-21T09:59:18Z</time>
      </trkpt>
      <trkpt lat="36.530908" lon="-5.348642">
        <ele>621.093</ele>
        <time>2015-06-21T09:59:19Z</time>
      </trkpt>
      <trkpt lat="36.530935" lon="-5.348585">
        <ele>620.485</ele>
        <time>2015-06-21T09:59:20Z</time>
      </trkpt>
      <trkpt lat="36.530949" lon="-5.348532">
        <ele>620.489</ele>
        <time>2015-06-21T09:59:21Z</time>
      </trkpt>
      <trkpt lat="36.530951" lon="-5.348377">
        <ele>620.417</ele>
        <time>2015-06-21T09:59:25Z</time>
      </trkpt>
      <trkpt lat="36.530891" lon="-5.348273">
        <ele>620.408</ele>
        <time>2015-06-21T09:59:30Z</time>
      </trkpt>
      <trkpt lat="36.530778" lon="-5.348115">
        <ele>620.479</ele>
        <time>2015-06-21T09:59:35Z</time>
      </trkpt>
      <trkpt lat="36.530747" lon="-5.348070">
        <ele>620.445</ele>
        <time>2015-06-21T09:59:36Z</time>
      </trkpt>
      <trkpt lat="36.530647" lon="-5.347912">
        <ele>620.458</ele>
        <time>2015-06-21T09:59:39Z</time>
      </trkpt>
      <trkpt lat="36.530454" lon="-5.347583">
        <ele>620.498</ele>
        <time>2015-06-21T09:59:44Z</time>
      </trkpt>
      <trkpt lat="36.530408" lon="-5.347519">
        <ele>620.012</ele>
        <time>2015-06-21T09:59:45Z</time>
      </trkpt>
      <trkpt lat="36.530364" lon="-5.347454">
        <ele>619.049</ele>
        <time>2015-06-21T09:59:46Z</time>
      </trkpt>
      <trkpt lat="36.530326" lon="-5.347387">
        <ele>618.288</ele>
        <time>2015-06-21T09:59:47Z</time>
      </trkpt>
      <trkpt lat="36.530297" lon="-5.347311">
        <ele>617.210</ele>
        <time>2015-06-21T09:59:48Z</time>
      </trkpt>
      <trkpt lat="36.530284" lon="-5.347228">
        <ele>617.678</ele>
        <time>2015-06-21T09:59:49Z</time>
      </trkpt>
      <trkpt lat="36.530279" lon="-5.347155">
        <ele>617.833</ele>
        <time>2015-06-21T09:59:50Z</time>
      </trkpt>
      <trkpt lat="36.530282" lon="-5.347113">
        <ele>618.226</ele>
        <time>2015-06-21T09:59:51Z</time>
      </trkpt>
      <trkpt lat="36.530300" lon="-5.347105">
        <ele>618.608</ele>
        <time>2015-06-21T09:59:52Z</time>
      </trkpt>
      <trkpt lat="36.530324" lon="-5.347105">
        <ele>618.818</ele>
        <time>2015-06-21T09:59:53Z</time>
      </trkpt>
      <trkpt lat="36.530428" lon="-5.347176">
        <ele>618.824</ele>
        <time>2015-06-21T09:59:56Z</time>
      </trkpt>
      <trkpt lat="36.530471" lon="-5.347203">
        <ele>618.847</ele>
        <time>2015-06-21T09:59:57Z</time>
      </trkpt>
      <trkpt lat="36.530549" lon="-5.347253">
        <ele>618.817</ele>
        <time>2015-06-21T09:59:59Z</time>
      </trkpt>
      <trkpt lat="36.530616" lon="-5.347304">
        <ele>618.821</ele>
        <time>2015-06-21T10:00:01Z</time>
      </trkpt>
      <trkpt lat="36.530672" lon="-5.347331">
        <ele>618.838</ele>
        <time>2015-06-21T10:00:03Z</time>
      </trkpt>
      <trkpt lat="36.530696" lon="-5.347340">
        <ele>618.857</ele>
        <time>2015-06-21T10:00:04Z</time>
      </trkpt>
      <trkpt lat="36.530818" lon="-5.347394">
        <ele>618.839</ele>
        <time>2015-06-21T10:00:08Z</time>
      </trkpt>
      <trkpt lat="36.530845" lon="-5.347399">
        <ele>618.827</ele>
        <time>2015-06-21T10:00:09Z</time>
      </trkpt>
      <trkpt lat="36.531016" lon="-5.347369">
        <ele>618.868</ele>
        <time>2015-06-21T10:00:14Z</time>
      </trkpt>
      <trkpt lat="36.531272" lon="-5.347308">
        <ele>618.814</ele>
        <time>2015-06-21T10:00:21Z</time>
      </trkpt>
      <trkpt lat="36.531516" lon="-5.347180">
        <ele>618.808</ele>
        <time>2015-06-21T10:00:27Z</time>
      </trkpt>
      <trkpt lat="36.531750" lon="-5.347141">
        <ele>618.853</ele>
        <time>2015-06-21T10:00:31Z</time>
      </trkpt>
      <trkpt lat="36.531810" lon="-5.347144">
        <ele>618.499</ele>
        <time>2015-06-21T10:00:32Z</time>
      </trkpt>
      <trkpt lat="36.531871" lon="-5.347151">
        <ele>618.052</ele>
        <time>2015-06-21T10:00:33Z</time>
      </trkpt>
      <trkpt lat="36.531931" lon="-5.347158">
        <ele>617.672</ele>
        <time>2015-06-21T10:00:34Z</time>
      </trkpt>
      <trkpt lat="36.531993" lon="-5.347178">
        <ele>617.246</ele>
        <time>2015-06-21T10:00:35Z</time>
      </trkpt>
      <trkpt lat="36.532054" lon="-5.347187">
        <ele>616.683</ele>
        <time>2015-06-21T10:00:36Z</time>
      </trkpt>
      <trkpt lat="36.532115" lon="-5.347190">
        <ele>616.622</ele>
        <time>2015-06-21T10:00:37Z</time>
      </trkpt>
      <trkpt lat="36.532279" lon="-5.347086">
        <ele>616.634</ele>
        <time>2015-06-21T10:00:40Z</time>
      </trkpt>
      <trkpt lat="36.532295" lon="-5.346931">
        <ele>616.671</ele>
        <time>2015-06-21T10:00:42Z</time>
      </trkpt>
      <trkpt lat="36.532235" lon="-5.346703">
        <ele>616.641</ele>
        <time>2015-06-21T10:00:45Z</time>
      </trkpt>
      <trkpt lat="36.532146" lon="-5.346462">
        <ele>616.215</ele>
        <time>2015-06-21T10:00:48Z</time>
      </trkpt>
      <trkpt lat="36.532126" lon="-5.346384">
        <ele>615.808</ele>
        <time>2015-06-21T10:00:49Z</time>
      </trkpt>
      <trkpt lat="36.532118" lon="-5.346311">
        <ele>615.468</ele>
        <time>2015-06-21T10:00:50Z</time>
      </trkpt>
      <trkpt lat="36.532122" lon="-5.346246">
        <ele>614.834</ele>
        <time>2015-06-21T10:00:51Z</time>
      </trkpt>
      <trkpt lat="36.532144" lon="-5.346192">
        <ele>614.477</ele>
        <time>2015-06-21T10:00:52Z</time>
      </trkpt>
      <trkpt lat="36.532173" lon="-5.346149">
        <ele>613.497</ele>
        <time>2015-06-21T10:00:53Z</time>
      </trkpt>
      <trkpt lat="36.532203" lon="-5.346122">
        <ele>613.031</ele>
        <time>2015-06-21T10:00:54Z</time>
      </trkpt>
      <trkpt lat="36.532235" lon="-5.346115">
        <ele>612.668</ele>
        <time>2015-06-21T10:00:55Z</time>
      </trkpt>
      <trkpt lat="36.532283" lon="-5.346138">
        <ele>612.047</ele>
        <time>2015-06-21T10:00:56Z</time>
      </trkpt>
      <trkpt lat="36.532347" lon="-5.346175">
        <ele>611.669</ele>
        <time>2015-06-21T10:00:57Z</time>
      </trkpt>
      <trkpt lat="36.532419" lon="-5.346209">
        <ele>611.217</ele>
        <time>2015-06-21T10:00:58Z</time>
      </trkpt>
      <trkpt lat="36.532487" lon="-5.346234">
        <ele>610.887</ele>
        <time>2015-06-21T10:00:59Z</time>
      </trkpt>
      <trkpt lat="36.532557" lon="-5.346252">
        <ele>610.215</ele>
        <time>2015-06-21T10:01:00Z</time>
      </trkpt>
      <trkpt lat="36.532628" lon="-5.346266">
        <ele>609.808</ele>
        <time>2015-06-21T10:01:01Z</time>
      </trkpt>
      <trkpt lat="36.532771" lon="-5.346281">
        <ele>609.412</ele>
        <time>2015-06-21T10:01:03Z</time>
      </trkpt>
      <trkpt lat="36.532844" lon="-5.346289">
        <ele>609.088</ele>
        <time>2015-06-21T10:01:04Z</time>
      </trkpt>
      <trkpt lat="36.532919" lon="-5.346308">
        <ele>608.631</ele>
        <time>2015-06-21T10:01:05Z</time>
      </trkpt>
      <trkpt lat="36.532989" lon="-5.346335">
        <ele>608.041</ele>
        <time>2015-06-21T10:01:06Z</time>
      </trkpt>
      <trkpt lat="36.533062" lon="-5.346371">
        <ele>607.615</ele>
        <time>2015-06-21T10:01:07Z</time>
      </trkpt>
      <trkpt lat="36.533215" lon="-5.346441">
        <ele>607.642</ele>
        <time>2015-06-21T10:01:09Z</time>
      </trkpt>
      <trkpt lat="36.533289" lon="-5.346443">
        <ele>607.221</ele>
        <time>2015-06-21T10:01:10Z</time>
      </trkpt>
      <trkpt lat="36.533348" lon="-5.346415">
        <ele>606.823</ele>
        <time>2015-06-21T10:01:11Z</time>
      </trkpt>
      <trkpt lat="36.533385" lon="-5.346356">
        <ele>606.411</ele>
        <time>2015-06-21T10:01:12Z</time>
      </trkpt>
      <trkpt lat="36.533399" lon="-5.346289">
        <ele>606.021</ele>
        <time>2015-06-21T10:01:13Z</time>
      </trkpt>
      <trkpt lat="36.533400" lon="-5.346221">
        <ele>605.603</ele>
        <time>2015-06-21T10:01:14Z</time>
      </trkpt>
      <trkpt lat="36.533398" lon="-5.346150">
        <ele>605.208</ele>
        <time>2015-06-21T10:01:15Z</time>
      </trkpt>
      <trkpt lat="36.533401" lon="-5.346080">
        <ele>604.612</ele>
        <time>2015-06-21T10:01:16Z</time>
      </trkpt>
      <trkpt lat="36.533406" lon="-5.346002">
        <ele>603.898</ele>
        <time>2015-06-21T10:01:17Z</time>
      </trkpt>
      <trkpt lat="36.533422" lon="-5.345922">
        <ele>603.461</ele>
        <time>2015-06-21T10:01:18Z</time>
      </trkpt>
      <trkpt lat="36.533480" lon="-5.345761">
        <ele>603.411</ele>
        <time>2015-06-21T10:01:20Z</time>
      </trkpt>
      <trkpt lat="36.533664" lon="-5.345454">
        <ele>602.845</ele>
        <time>2015-06-21T10:01:24Z</time>
      </trkpt>
      <trkpt lat="36.533721" lon="-5.345381">
        <ele>602.492</ele>
        <time>2015-06-21T10:01:25Z</time>
      </trkpt>
      <trkpt lat="36.533779" lon="-5.345314">
        <ele>602.041</ele>
        <time>2015-06-21T10:01:26Z</time>
      </trkpt>
      <trkpt lat="36.533839" lon="-5.345265">
        <ele>601.623</ele>
        <time>2015-06-21T10:01:27Z</time>
      </trkpt>
      <trkpt lat="36.533897" lon="-5.345236">
        <ele>601.032</ele>
        <time>2015-06-21T10:01:28Z</time>
      </trkpt>
      <trkpt lat="36.533946" lon="-5.345217">
        <ele>600.692</ele>
        <time>2015-06-21T10:01:29Z</time>
      </trkpt>
      <trkpt lat="36.533986" lon="-5.345206">
        <ele>600.011</ele>
        <time>2015-06-21T10:01:30Z</time>
      </trkpt>
      <trkpt lat="36.534013" lon="-5.345192">
        <ele>599.408</ele>
        <time>2015-06-21T10:01:31Z</time>
      </trkpt>
      <trkpt lat="36.534032" lon="-5.345168">
        <ele>598.844</ele>
        <time>2015-06-21T10:01:32Z</time>
      </trkpt>
      <trkpt lat="36.534046" lon="-5.345134">
        <ele>598.270</ele>
        <time>2015-06-21T10:01:33Z</time>
      </trkpt>
      <trkpt lat="36.534057" lon="-5.345091">
        <ele>597.413</ele>
        <time>2015-06-21T10:01:34Z</time>
      </trkpt>
      <trkpt lat="36.534068" lon="-5.345040">
        <ele>596.873</ele>
        <time>2015-06-21T10:01:35Z</time>
      </trkpt>
      <trkpt lat="36.534081" lon="-5.344978">
        <ele>596.887</ele>
        <time>2015-06-21T10:01:36Z</time>
      </trkpt>
      <trkpt lat="36.534122" lon="-5.344843">
        <ele>596.474</ele>
        <time>2015-06-21T10:01:38Z</time>
      </trkpt>
      <trkpt lat="36.534150" lon="-5.344770">
        <ele>595.893</ele>
        <time>2015-06-21T10:01:39Z</time>
      </trkpt>
      <trkpt lat="36.534191" lon="-5.344700">
        <ele>595.485</ele>
        <time>2015-06-21T10:01:40Z</time>
      </trkpt>
      <trkpt lat="36.534238" lon="-5.344643">
        <ele>595.071</ele>
        <time>2015-06-21T10:01:41Z</time>
      </trkpt>
      <trkpt lat="36.534295" lon="-5.344597">
        <ele>594.441</ele>
        <time>2015-06-21T10:01:42Z</time>
      </trkpt>
      <trkpt lat="36.534355" lon="-5.344559">
        <ele>594.015</ele>
        <time>2015-06-21T10:01:43Z</time>
      </trkpt>
      <trkpt lat="36.534419" lon="-5.344520">
        <ele>593.608</ele>
        <time>2015-06-21T10:01:44Z</time>
      </trkpt>
      <trkpt lat="36.534484" lon="-5.344479">
        <ele>593.248</ele>
        <time>2015-06-21T10:01:45Z</time>
      </trkpt>
      <trkpt lat="36.534533" lon="-5.344410">
        <ele>592.884</ele>
        <time>2015-06-21T10:01:46Z</time>
      </trkpt>
      <trkpt lat="36.534582" lon="-5.344342">
        <ele>592.217</ele>
        <time>2015-06-21T10:01:47Z</time>
      </trkpt>
      <trkpt lat="36.534633" lon="-5.344266">
        <ele>591.667</ele>
        <time>2015-06-21T10:01:48Z</time>
      </trkpt>
      <trkpt lat="36.534688" lon="-5.344183">
        <ele>591.051</ele>
        <time>2015-06-21T10:01:49Z</time>
      </trkpt>
      <trkpt lat="36.534740" lon="-5.344100">
        <ele>590.448</ele>
        <time>2015-06-21T10:01:50Z</time>
      </trkpt>
      <trkpt lat="36.534784" lon="-5.344021">
        <ele>589.877</ele>
        <time>2015-06-21T10:01:51Z</time>
      </trkpt>
      <trkpt lat="36.534815" lon="-5.343944">
        <ele>589.419</ele>
        <time>2015-06-21T10:01:52Z</time>
      </trkpt>
      <trkpt lat="36.534825" lon="-5.343868">
        <ele>588.814</ele>
        <time>2015-06-21T10:01:53Z</time>
      </trkpt>
      <trkpt lat="36.534810" lon="-5.343791">
        <ele>588.454</ele>
        <time>2015-06-21T10:01:54Z</time>
      </trkpt>
      <trkpt lat="36.534774" lon="-5.343718">
        <ele>587.809</ele>
        <time>2015-06-21T10:01:55Z</time>
      </trkpt>
      <trkpt lat="36.534724" lon="-5.343656">
        <ele>587.208</ele>
        <time>2015-06-21T10:01:56Z</time>
      </trkpt>
      <trkpt lat="36.534665" lon="-5.343599">
        <ele>586.632</ele>
        <time>2015-06-21T10:01:57Z</time>
      </trkpt>
      <trkpt lat="36.534613" lon="-5.343541">
        <ele>586.268</ele>
        <time>2015-06-21T10:01:58Z</time>
      </trkpt>
      <trkpt lat="36.534572" lon="-5.343479">
        <ele>585.611</ele>
        <time>2015-06-21T10:01:59Z</time>
      </trkpt>
      <trkpt lat="36.534540" lon="-5.343421">
        <ele>585.051</ele>
        <time>2015-06-21T10:02:00Z</time>
      </trkpt>
      <trkpt lat="36.534525" lon="-5.343354">
        <ele>585.085</ele>
        <time>2015-06-21T10:02:01Z</time>
      </trkpt>
      <trkpt lat="36.534525" lon="-5.343279">
        <ele>584.432</ele>
        <time>2015-06-21T10:02:02Z</time>
      </trkpt>
      <trkpt lat="36.534531" lon="-5.343202">
        <ele>584.071</ele>
        <time>2015-06-21T10:02:03Z</time>
      </trkpt>
      <trkpt lat="36.534544" lon="-5.343128">
        <ele>583.623</ele>
        <time>2015-06-21T10:02:04Z</time>
      </trkpt>
      <trkpt lat="36.534567" lon="-5.343065">
        <ele>583.291</ele>
        <time>2015-06-21T10:02:05Z</time>
      </trkpt>
      <trkpt lat="36.534613" lon="-5.343017">
        <ele>582.881</ele>
        <time>2015-06-21T10:02:06Z</time>
      </trkpt>
      <trkpt lat="36.534678" lon="-5.342981">
        <ele>582.219</ele>
        <time>2015-06-21T10:02:07Z</time>
      </trkpt>
      <trkpt lat="36.534755" lon="-5.342945">
        <ele>581.808</ele>
        <time>2015-06-21T10:02:08Z</time>
      </trkpt>
      <trkpt lat="36.534834" lon="-5.342888">
        <ele>581.260</ele>
        <time>2015-06-21T10:02:09Z</time>
      </trkpt>
      <trkpt lat="36.534906" lon="-5.342819">
        <ele>580.876</ele>
        <time>2015-06-21T10:02:10Z</time>
      </trkpt>
      <trkpt lat="36.534977" lon="-5.342738">
        <ele>580.489</ele>
        <time>2015-06-21T10:02:11Z</time>
      </trkpt>
      <trkpt lat="36.535043" lon="-5.342656">
        <ele>580.019</ele>
        <time>2015-06-21T10:02:12Z</time>
      </trkpt>
      <trkpt lat="36.535105" lon="-5.342570">
        <ele>579.463</ele>
        <time>2015-06-21T10:02:13Z</time>
      </trkpt>
      <trkpt lat="36.535165" lon="-5.342486">
        <ele>579.080</ele>
        <time>2015-06-21T10:02:14Z</time>
      </trkpt>
      <trkpt lat="36.535211" lon="-5.342399">
        <ele>578.679</ele>
        <time>2015-06-21T10:02:15Z</time>
      </trkpt>
      <trkpt lat="36.535254" lon="-5.342318">
        <ele>578.031</ele>
        <time>2015-06-21T10:02:16Z</time>
      </trkpt>
      <trkpt lat="36.535264" lon="-5.342230">
        <ele>577.624</ele>
        <time>2015-06-21T10:02:17Z</time>
      </trkpt>
      <trkpt lat="36.535257" lon="-5.342150">
        <ele>577.004</ele>
        <time>2015-06-21T10:02:18Z</time>
      </trkpt>
      <trkpt lat="36.535246" lon="-5.342079">
        <ele>576.214</ele>
        <time>2015-06-21T10:02:19Z</time>
      </trkpt>
      <trkpt lat="36.535238" lon="-5.342024">
        <ele>575.408</ele>
        <time>2015-06-21T10:02:20Z</time>
      </trkpt>
      <trkpt lat="36.535231" lon="-5.341980">
        <ele>574.683</ele>
        <time>2015-06-21T10:02:21Z</time>
      </trkpt>
      <trkpt lat="36.535215" lon="-5.341950">
        <ele>573.869</ele>
        <time>2015-06-21T10:02:22Z</time>
      </trkpt>
      <trkpt lat="36.535189" lon="-5.341920">
        <ele>573.212</ele>
        <time>2015-06-21T10:02:23Z</time>
      </trkpt>
      <trkpt lat="36.535166" lon="-5.341889">
        <ele>572.452</ele>
        <time>2015-06-21T10:02:24Z</time>
      </trkpt>
      <trkpt lat="36.535144" lon="-5.341851">
        <ele>571.646</ele>
        <time>2015-06-21T10:02:25Z</time>
      </trkpt>
      <trkpt lat="36.535122" lon="-5.341801">
        <ele>571.043</ele>
        <time>2015-06-21T10:02:26Z</time>
      </trkpt>
      <trkpt lat="36.535108" lon="-5.341746">
        <ele>570.492</ele>
        <time>2015-06-21T10:02:27Z</time>
      </trkpt>
      <trkpt lat="36.535098" lon="-5.341689">
        <ele>569.884</ele>
        <time>2015-06-21T10:02:28Z</time>
      </trkpt>
      <trkpt lat="36.535097" lon="-5.341647">
        <ele>569.276</ele>
        <time>2015-06-21T10:02:29Z</time>
      </trkpt>
      <trkpt lat="36.535098" lon="-5.341612">
        <ele>568.690</ele>
        <time>2015-06-21T10:02:30Z</time>
      </trkpt>
      <trkpt lat="36.535098" lon="-5.341578">
        <ele>568.619</ele>
        <time>2015-06-21T10:02:31Z</time>
      </trkpt>
      <trkpt lat="36.535102" lon="-5.341501">
        <ele>568.208</ele>
        <time>2015-06-21T10:02:33Z</time>
      </trkpt>
      <trkpt lat="36.535097" lon="-5.341458">
        <ele>567.838</ele>
        <time>2015-06-21T10:02:34Z</time>
      </trkpt>
      <trkpt lat="36.535090" lon="-5.341411">
        <ele>567.434</ele>
        <time>2015-06-21T10:02:35Z</time>
      </trkpt>
      <trkpt lat="36.535081" lon="-5.341359">
        <ele>567.097</ele>
        <time>2015-06-21T10:02:36Z</time>
      </trkpt>
      <trkpt lat="36.535071" lon="-5.341303">
        <ele>566.617</ele>
        <time>2015-06-21T10:02:37Z</time>
      </trkpt>
      <trkpt lat="36.535064" lon="-5.341239">
        <ele>566.651</ele>
        <time>2015-06-21T10:02:38Z</time>
      </trkpt>
      <trkpt lat="36.535064" lon="-5.341093">
        <ele>566.228</ele>
        <time>2015-06-21T10:02:40Z</time>
      </trkpt>
      <trkpt lat="36.535074" lon="-5.341013">
        <ele>565.887</ele>
        <time>2015-06-21T10:02:41Z</time>
      </trkpt>
      <trkpt lat="36.535090" lon="-5.340934">
        <ele>565.499</ele>
        <time>2015-06-21T10:02:42Z</time>
      </trkpt>
      <trkpt lat="36.535109" lon="-5.340858">
        <ele>564.823</ele>
        <time>2015-06-21T10:02:43Z</time>
      </trkpt>
      <trkpt lat="36.535132" lon="-5.340782">
        <ele>564.483</ele>
        <time>2015-06-21T10:02:44Z</time>
      </trkpt>
      <trkpt lat="36.535287" lon="-5.340493">
        <ele>564.011</ele>
        <time>2015-06-21T10:02:48Z</time>
      </trkpt>
      <trkpt lat="36.535336" lon="-5.340438">
        <ele>563.408</ele>
        <time>2015-06-21T10:02:49Z</time>
      </trkpt>
      <trkpt lat="36.535377" lon="-5.340397">
        <ele>563.013</ele>
        <time>2015-06-21T10:02:50Z</time>
      </trkpt>
      <trkpt lat="36.535413" lon="-5.340362">
        <ele>562.469</ele>
        <time>2015-06-21T10:02:51Z</time>
      </trkpt>
      <trkpt lat="36.535449" lon="-5.340330">
        <ele>562.022</ele>
        <time>2015-06-21T10:02:52Z</time>
      </trkpt>
      <trkpt lat="36.535531" lon="-5.340279">
        <ele>561.472</ele>
        <time>2015-06-21T10:02:54Z</time>
      </trkpt>
      <trkpt lat="36.535575" lon="-5.340251">
        <ele>561.066</ele>
        <time>2015-06-21T10:02:55Z</time>
      </trkpt>
      <trkpt lat="36.535645" lon="-5.340239">
        <ele>560.023</ele>
        <time>2015-06-21T10:02:56Z</time>
      </trkpt>
      <trkpt lat="36.535732" lon="-5.340230">
        <ele>559.472</ele>
        <time>2015-06-21T10:02:57Z</time>
      </trkpt>
      <trkpt lat="36.536349" lon="-5.340568">
        <ele>558.894</ele>
        <time>2015-06-21T10:02:58Z</time>
      </trkpt>
      <trkpt lat="36.536416" lon="-5.340519">
        <ele>558.224</ele>
        <time>2015-06-21T10:02:59Z</time>
      </trkpt>
      <trkpt lat="36.536472" lon="-5.340452">
        <ele>557.604</ele>
        <time>2015-06-21T10:03:00Z</time>
      </trkpt>
      <trkpt lat="36.536531" lon="-5.340402">
        <ele>557.014</ele>
        <time>2015-06-21T10:03:01Z</time>
      </trkpt>
      <trkpt lat="36.536585" lon="-5.340359">
        <ele>556.408</ele>
        <time>2015-06-21T10:03:02Z</time>
      </trkpt>
      <trkpt lat="36.536637" lon="-5.340316">
        <ele>555.863</ele>
        <time>2015-06-21T10:03:03Z</time>
      </trkpt>
      <trkpt lat="36.536691" lon="-5.340275">
        <ele>555.239</ele>
        <time>2015-06-21T10:03:04Z</time>
      </trkpt>
      <trkpt lat="36.536750" lon="-5.340227">
        <ele>554.692</ele>
        <time>2015-06-21T10:03:05Z</time>
      </trkpt>
      <trkpt lat="36.536708" lon="-5.340095">
        <ele>554.032</ele>
        <time>2015-06-21T10:03:06Z</time>
      </trkpt>
      <trkpt lat="36.536646" lon="-5.339924">
        <ele>553.636</ele>
        <time>2015-06-21T10:03:07Z</time>
      </trkpt>
      <trkpt lat="36.536622" lon="-5.339778">
        <ele>553.083</ele>
        <time>2015-06-21T10:03:08Z</time>
      </trkpt>
      <trkpt lat="36.536573" lon="-5.339629">
        <ele>552.682</ele>
        <time>2015-06-21T10:03:09Z</time>
      </trkpt>
      <trkpt lat="36.536541" lon="-5.339496">
        <ele>551.864</ele>
        <time>2015-06-21T10:03:10Z</time>
      </trkpt>
      <trkpt lat="36.536547" lon="-5.339400">
        <ele>551.283</ele>
        <time>2015-06-21T10:03:11Z</time>
      </trkpt>
      <trkpt lat="36.536554" lon="-5.339309">
        <ele>550.625</ele>
        <time>2015-06-21T10:03:12Z</time>
      </trkpt>
      <trkpt lat="36.536560" lon="-5.339232">
        <ele>549.817</ele>
        <time>2015-06-21T10:03:13Z</time>
      </trkpt>
      <trkpt lat="36.536566" lon="-5.339164">
        <ele>549.008</ele>
        <time>2015-06-21T10:03:14Z</time>
      </trkpt>
      <trkpt lat="36.536581" lon="-5.339097">
        <ele>548.469</ele>
        <time>2015-06-21T10:03:15Z</time>
      </trkpt>
      <trkpt lat="36.536603" lon="-5.339029">
        <ele>547.665</ele>
        <time>2015-06-21T10:03:16Z</time>
      </trkpt>
      <trkpt lat="36.536634" lon="-5.338959">
        <ele>547.098</ele>
        <time>2015-06-21T10:03:17Z</time>
      </trkpt>
      <trkpt lat="36.536666" lon="-5.338888">
        <ele>546.228</ele>
        <time>2015-06-21T10:03:18Z</time>
      </trkpt>
      <trkpt lat="36.536699" lon="-5.338827">
        <ele>545.672</ele>
        <time>2015-06-21T10:03:19Z</time>
      </trkpt>
      <trkpt lat="36.536731" lon="-5.338774">
        <ele>544.819</ele>
        <time>2015-06-21T10:03:20Z</time>
      </trkpt>
      <trkpt lat="36.536761" lon="-5.338724">
        <ele>544.828</ele>
        <time>2015-06-21T10:03:21Z</time>
      </trkpt>
      <trkpt lat="36.536822" lon="-5.338631">
        <ele>544.440</ele>
        <time>2015-06-21T10:03:23Z</time>
      </trkpt>
      <trkpt lat="36.536854" lon="-5.338585">
        <ele>544.078</ele>
        <time>2015-06-21T10:03:24Z</time>
      </trkpt>
      <trkpt lat="36.536898" lon="-5.338534">
        <ele>543.633</ele>
        <time>2015-06-21T10:03:25Z</time>
      </trkpt>
      <trkpt lat="36.537582" lon="-5.339005">
        <ele>542.626</ele>
        <time>2015-06-21T10:03:26Z</time>
      </trkpt>
      <trkpt lat="36.537643" lon="-5.338962">
        <ele>541.808</ele>
        <time>2015-06-21T10:03:27Z</time>
      </trkpt>
      <trkpt lat="36.537704" lon="-5.338918">
        <ele>541.068</ele>
        <time>2015-06-21T10:03:28Z</time>
      </trkpt>
      <trkpt lat="36.537759" lon="-5.338880">
        <ele>540.414</ele>
        <time>2015-06-21T10:03:29Z</time>
      </trkpt>
      <trkpt lat="36.537811" lon="-5.338841">
        <ele>539.697</ele>
        <time>2015-06-21T10:03:30Z</time>
      </trkpt>
      <trkpt lat="36.537863" lon="-5.338804">
        <ele>538.897</ele>
        <time>2015-06-21T10:03:31Z</time>
      </trkpt>
      <trkpt lat="36.537913" lon="-5.338770">
        <ele>538.051</ele>
        <time>2015-06-21T10:03:32Z</time>
      </trkpt>
      <trkpt lat="36.537950" lon="-5.338721">
        <ele>537.288</ele>
        <time>2015-06-21T10:03:33Z</time>
      </trkpt>
      <trkpt lat="36.537923" lon="-5.338554">
        <ele>537.267</ele>
        <time>2015-06-21T10:03:35Z</time>
      </trkpt>
      <trkpt lat="36.537875" lon="-5.338444">
        <ele>537.249</ele>
        <time>2015-06-21T10:03:36Z</time>
      </trkpt>
      <trkpt lat="36.537857" lon="-5.338367">
        <ele>536.639</ele>
        <time>2015-06-21T10:03:37Z</time>
      </trkpt>
      <trkpt lat="36.537841" lon="-5.338293">
        <ele>536.001</ele>
        <time>2015-06-21T10:03:38Z</time>
      </trkpt>
      <trkpt lat="36.537643" lon="-5.338107">
        <ele>535.421</ele>
        <time>2015-06-21T10:03:39Z</time>
      </trkpt>
      <trkpt lat="36.537536" lon="-5.337978">
        <ele>534.808</ele>
        <time>2015-06-21T10:03:40Z</time>
      </trkpt>
      <trkpt lat="36.537487" lon="-5.337889">
        <ele>534.214</ele>
        <time>2015-06-21T10:03:41Z</time>
      </trkpt>
      <trkpt lat="36.537409" lon="-5.337767">
        <ele>533.450</ele>
        <time>2015-06-21T10:03:42Z</time>
      </trkpt>
      <trkpt lat="36.537355" lon="-5.337658">
        <ele>532.843</ele>
        <time>2015-06-21T10:03:43Z</time>
      </trkpt>
      <trkpt lat="36.537315" lon="-5.337557">
        <ele>532.263</ele>
        <time>2015-06-21T10:03:44Z</time>
      </trkpt>
      <trkpt lat="36.537299" lon="-5.337464">
        <ele>530.897</ele>
        <time>2015-06-21T10:03:45Z</time>
      </trkpt>
      <trkpt lat="36.537290" lon="-5.337366">
        <ele>530.284</ele>
        <time>2015-06-21T10:03:46Z</time>
      </trkpt>
      <trkpt lat="36.537285" lon="-5.337270">
        <ele>529.613</ele>
        <time>2015-06-21T10:03:47Z</time>
      </trkpt>
      <trkpt lat="36.537288" lon="-5.337178">
        <ele>529.285</ele>
        <time>2015-06-21T10:03:48Z</time>
      </trkpt>
      <trkpt lat="36.537291" lon="-5.337083">
        <ele>528.873</ele>
        <time>2015-06-21T10:03:49Z</time>
      </trkpt>
      <trkpt lat="36.537290" lon="-5.337001">
        <ele>528.285</ele>
        <time>2015-06-21T10:03:50Z</time>
      </trkpt>
      <trkpt lat="36.537286" lon="-5.336927">
        <ele>527.613</ele>
        <time>2015-06-21T10:03:51Z</time>
      </trkpt>
      <trkpt lat="36.537282" lon="-5.336863">
        <ele>527.008</ele>
        <time>2015-06-21T10:03:52Z</time>
      </trkpt>
      <trkpt lat="36.537283" lon="-5.336804">
        <ele>526.468</ele>
        <time>2015-06-21T10:03:53Z</time>
      </trkpt>
      <trkpt lat="36.537292" lon="-5.336752">
        <ele>525.834</ele>
        <time>2015-06-21T10:03:54Z</time>
      </trkpt>
      <trkpt lat="36.537304" lon="-5.336704">
        <ele>525.237</ele>
        <time>2015-06-21T10:03:55Z</time>
      </trkpt>
      <trkpt lat="36.537319" lon="-5.336658">
        <ele>524.617</ele>
        <time>2015-06-21T10:03:56Z</time>
      </trkpt>
      <trkpt lat="36.537338" lon="-5.336615">
        <ele>524.071</ele>
        <time>2015-06-21T10:03:57Z</time>
      </trkpt>
      <trkpt lat="36.537355" lon="-5.336580">
        <ele>523.498</ele>
        <time>2015-06-21T10:03:58Z</time>
      </trkpt>
      <trkpt lat="36.537386" lon="-5.336555">
        <ele>522.897</ele>
        <time>2015-06-21T10:03:59Z</time>
      </trkpt>
      <trkpt lat="36.537418" lon="-5.336530">
        <ele>522.829</ele>
        <time>2015-06-21T10:04:00Z</time>
      </trkpt>
      <trkpt lat="36.537502" lon="-5.336484">
        <ele>522.827</ele>
        <time>2015-06-21T10:04:02Z</time>
      </trkpt>
      <trkpt lat="36.537577" lon="-5.336478">
        <ele>522.468</ele>
        <time>2015-06-21T10:04:03Z</time>
      </trkpt>
      <trkpt lat="36.537662" lon="-5.336458">
        <ele>522.014</ele>
        <time>2015-06-21T10:04:04Z</time>
      </trkpt>
      <trkpt lat="36.537740" lon="-5.336432">
        <ele>521.608</ele>
        <time>2015-06-21T10:04:05Z</time>
      </trkpt>
      <trkpt lat="36.537808" lon="-5.336398">
        <ele>521.253</ele>
        <time>2015-06-21T10:04:06Z</time>
      </trkpt>
      <trkpt lat="36.537878" lon="-5.336361">
        <ele>520.899</ele>
        <time>2015-06-21T10:04:07Z</time>
      </trkpt>
      <trkpt lat="36.538093" lon="-5.336230">
        <ele>519.862</ele>
        <time>2015-06-21T10:04:10Z</time>
      </trkpt>
      <trkpt lat="36.538156" lon="-5.336179">
        <ele>519.432</ele>
        <time>2015-06-21T10:04:11Z</time>
      </trkpt>
      <trkpt lat="36.538213" lon="-5.336120">
        <ele>519.086</ele>
        <time>2015-06-21T10:04:12Z</time>
      </trkpt>
      <trkpt lat="36.538261" lon="-5.336057">
        <ele>518.673</ele>
        <time>2015-06-21T10:04:13Z</time>
      </trkpt>
      <trkpt lat="36.538304" lon="-5.335990">
        <ele>518.682</ele>
        <time>2015-06-21T10:04:14Z</time>
      </trkpt>
      <trkpt lat="36.538377" lon="-5.335861">
        <ele>518.234</ele>
        <time>2015-06-21T10:04:16Z</time>
      </trkpt>
      <trkpt lat="36.538409" lon="-5.335808">
        <ele>517.676</ele>
        <time>2015-06-21T10:04:17Z</time>
      </trkpt>
      <trkpt lat="36.538451" lon="-5.335776">
        <ele>517.290</ele>
        <time>2015-06-21T10:04:18Z</time>
      </trkpt>
      <trkpt lat="36.538495" lon="-5.335767">
        <ele>516.819</ele>
        <time>2015-06-21T10:04:19Z</time>
      </trkpt>
      <trkpt lat="36.538539" lon="-5.335766">
        <ele>516.208</ele>
        <time>2015-06-21T10:04:20Z</time>
      </trkpt>
      <trkpt lat="36.538579" lon="-5.335769">
        <ele>516.228</ele>
        <time>2015-06-21T10:04:21Z</time>
      </trkpt>
      <trkpt lat="36.538688" lon="-5.335809">
        <ele>515.814</ele>
        <time>2015-06-21T10:04:24Z</time>
      </trkpt>
      <trkpt lat="36.538727" lon="-5.335828">
        <ele>515.417</ele>
        <time>2015-06-21T10:04:25Z</time>
      </trkpt>
      <trkpt lat="36.538768" lon="-5.335842">
        <ele>515.097</ele>
        <time>2015-06-21T10:04:26Z</time>
      </trkpt>
      <trkpt lat="36.538813" lon="-5.335848">
        <ele>514.611</ele>
        <time>2015-06-21T10:04:27Z</time>
      </trkpt>
      <trkpt lat="36.538858" lon="-5.335855">
        <ele>514.278</ele>
        <time>2015-06-21T10:04:28Z</time>
      </trkpt>
      <trkpt lat="36.538905" lon="-5.335855">
        <ele>514.287</ele>
        <time>2015-06-21T10:04:29Z</time>
      </trkpt>
      <trkpt lat="36.539012" lon="-5.335841">
        <ele>514.279</ele>
        <time>2015-06-21T10:04:31Z</time>
      </trkpt>
      <trkpt lat="36.539125" lon="-5.335822">
        <ele>513.896</ele>
        <time>2015-06-21T10:04:33Z</time>
      </trkpt>
      <trkpt lat="36.539182" lon="-5.335812">
        <ele>513.431</ele>
        <time>2015-06-21T10:04:34Z</time>
      </trkpt>
      <trkpt lat="36.539243" lon="-5.335795">
        <ele>512.824</ele>
        <time>2015-06-21T10:04:35Z</time>
      </trkpt>
      <trkpt lat="36.539301" lon="-5.335782">
        <ele>512.008</ele>
        <time>2015-06-21T10:04:36Z</time>
      </trkpt>
      <trkpt lat="36.539358" lon="-5.335767">
        <ele>512.080</ele>
        <time>2015-06-21T10:04:37Z</time>
      </trkpt>
      <trkpt lat="36.539593" lon="-5.335665">
        <ele>511.676</ele>
        <time>2015-06-21T10:04:41Z</time>
      </trkpt>
      <trkpt lat="36.539656" lon="-5.335627">
        <ele>511.299</ele>
        <time>2015-06-21T10:04:42Z</time>
      </trkpt>
      <trkpt lat="36.539719" lon="-5.335586">
        <ele>510.869</ele>
        <time>2015-06-21T10:04:43Z</time>
      </trkpt>
      <trkpt lat="36.539784" lon="-5.335540">
        <ele>510.493</ele>
        <time>2015-06-21T10:04:44Z</time>
      </trkpt>
      <trkpt lat="36.539850" lon="-5.335490">
        <ele>510.080</ele>
        <time>2015-06-21T10:04:45Z</time>
      </trkpt>
      <trkpt lat="36.539993" lon="-5.335387">
        <ele>509.699</ele>
        <time>2015-06-21T10:04:47Z</time>
      </trkpt>
      <trkpt lat="36.540066" lon="-5.335340">
        <ele>509.081</ele>
        <time>2015-06-21T10:04:48Z</time>
      </trkpt>
      <trkpt lat="36.540131" lon="-5.335294">
        <ele>508.662</ele>
        <time>2015-06-21T10:04:49Z</time>
      </trkpt>
      <trkpt lat="36.540192" lon="-5.335240">
        <ele>507.883</ele>
        <time>2015-06-21T10:04:50Z</time>
      </trkpt>
      <trkpt lat="36.540227" lon="-5.335164">
        <ele>507.211</ele>
        <time>2015-06-21T10:04:51Z</time>
      </trkpt>
      <trkpt lat="36.540254" lon="-5.335080">
        <ele>506.608</ele>
        <time>2015-06-21T10:04:52Z</time>
      </trkpt>
      <trkpt lat="36.540280" lon="-5.334995">
        <ele>505.897</ele>
        <time>2015-06-21T10:04:53Z</time>
      </trkpt>
      <trkpt lat="36.540307" lon="-5.334904">
        <ele>505.263</ele>
        <time>2015-06-21T10:04:54Z</time>
      </trkpt>
      <trkpt lat="36.540336" lon="-5.334807">
        <ele>504.686</ele>
        <time>2015-06-21T10:04:55Z</time>
      </trkpt>
      <trkpt lat="36.540361" lon="-5.334702">
        <ele>504.046</ele>
        <time>2015-06-21T10:04:56Z</time>
      </trkpt>
      <trkpt lat="36.540390" lon="-5.334601">
        <ele>503.420</ele>
        <time>2015-06-21T10:04:57Z</time>
      </trkpt>
      <trkpt lat="36.540422" lon="-5.334500">
        <ele>502.897</ele>
        <time>2015-06-21T10:04:58Z</time>
      </trkpt>
      <trkpt lat="36.540451" lon="-5.334409">
        <ele>502.476</ele>
        <time>2015-06-21T10:04:59Z</time>
      </trkpt>
      <trkpt lat="36.540485" lon="-5.334318">
        <ele>501.838</ele>
        <time>2015-06-21T10:05:00Z</time>
      </trkpt>
      <trkpt lat="36.540528" lon="-5.334233">
        <ele>500.288</ele>
        <time>2015-06-21T10:05:01Z</time>
      </trkpt>
      <trkpt lat="36.540580" lon="-5.334148">
        <ele>499.424</ele>
        <time>2015-06-21T10:05:02Z</time>
      </trkpt>
      <trkpt lat="36.540638" lon="-5.334062">
        <ele>498.626</ele>
        <time>2015-06-21T10:05:03Z</time>
      </trkpt>
      <trkpt lat="36.540693" lon="-5.333977">
        <ele>497.808</ele>
        <time>2015-06-21T10:05:04Z</time>
      </trkpt>
      <trkpt lat="36.540733" lon="-5.333892">
        <ele>497.029</ele>
        <time>2015-06-21T10:05:05Z</time>
      </trkpt>
      <trkpt lat="36.540746" lon="-5.333811">
        <ele>496.295</ele>
        <time>2015-06-21T10:05:06Z</time>
      </trkpt>
      <trkpt lat="36.540746" lon="-5.333744">
        <ele>495.478</ele>
        <time>2015-06-21T10:05:07Z</time>
      </trkpt>
      <trkpt lat="36.540733" lon="-5.333669">
        <ele>494.698</ele>
        <time>2015-06-21T10:05:08Z</time>
      </trkpt>
      <trkpt lat="36.540713" lon="-5.333593">
        <ele>493.822</ele>
        <time>2015-06-21T10:05:09Z</time>
      </trkpt>
      <trkpt lat="36.540693" lon="-5.333519">
        <ele>493.019</ele>
        <time>2015-06-21T10:05:10Z</time>
      </trkpt>
      <trkpt lat="36.540672" lon="-5.333444">
        <ele>492.028</ele>
        <time>2015-06-21T10:05:11Z</time>
      </trkpt>
      <trkpt lat="36.540641" lon="-5.333353">
        <ele>491.290</ele>
        <time>2015-06-21T10:05:12Z</time>
      </trkpt>
      <trkpt lat="36.540616" lon="-5.333254">
        <ele>490.629</ele>
        <time>2015-06-21T10:05:13Z</time>
      </trkpt>
      <trkpt lat="36.540599" lon="-5.333154">
        <ele>489.800</ele>
        <time>2015-06-21T10:05:14Z</time>
      </trkpt>
      <trkpt lat="36.540584" lon="-5.333051">
        <ele>489.220</ele>
        <time>2015-06-21T10:05:15Z</time>
      </trkpt>
      <trkpt lat="36.540571" lon="-5.332949">
        <ele>488.608</ele>
        <time>2015-06-21T10:05:16Z</time>
      </trkpt>
      <trkpt lat="36.540561" lon="-5.332845">
        <ele>487.853</ele>
        <time>2015-06-21T10:05:17Z</time>
      </trkpt>
      <trkpt lat="36.540557" lon="-5.332739">
        <ele>487.249</ele>
        <time>2015-06-21T10:05:18Z</time>
      </trkpt>
      <trkpt lat="36.540559" lon="-5.332643">
        <ele>486.622</ele>
        <time>2015-06-21T10:05:19Z</time>
      </trkpt>
      <trkpt lat="36.540570" lon="-5.332553">
        <ele>486.022</ele>
        <time>2015-06-21T10:05:20Z</time>
      </trkpt>
      <trkpt lat="36.540592" lon="-5.332472">
        <ele>485.286</ele>
        <time>2015-06-21T10:05:21Z</time>
      </trkpt>
      <trkpt lat="36.540617" lon="-5.332391">
        <ele>484.693</ele>
        <time>2015-06-21T10:05:22Z</time>
      </trkpt>
      <trkpt lat="36.540639" lon="-5.332319">
        <ele>484.092</ele>
        <time>2015-06-21T10:05:23Z</time>
      </trkpt>
      <trkpt lat="36.540668" lon="-5.332270">
        <ele>483.484</ele>
        <time>2015-06-21T10:05:24Z</time>
      </trkpt>
      <trkpt lat="36.540695" lon="-5.332221">
        <ele>482.859</ele>
        <time>2015-06-21T10:05:25Z</time>
      </trkpt>
      <trkpt lat="36.540791" lon="-5.332206">
        <ele>481.603</ele>
        <time>2015-06-21T10:05:26Z</time>
      </trkpt>
      <trkpt lat="36.540859" lon="-5.332186">
        <ele>481.223</ele>
        <time>2015-06-21T10:05:27Z</time>
      </trkpt>
      <trkpt lat="36.540927" lon="-5.332155">
        <ele>480.608</ele>
        <time>2015-06-21T10:05:28Z</time>
      </trkpt>
      <trkpt lat="36.541009" lon="-5.332117">
        <ele>480.266</ele>
        <time>2015-06-21T10:05:29Z</time>
      </trkpt>
      <trkpt lat="36.541091" lon="-5.332072">
        <ele>479.682</ele>
        <time>2015-06-21T10:05:30Z</time>
      </trkpt>
      <trkpt lat="36.541150" lon="-5.332007">
        <ele>479.235</ele>
        <time>2015-06-21T10:05:31Z</time>
      </trkpt>
      <trkpt lat="36.541207" lon="-5.331938">
        <ele>478.615</ele>
        <time>2015-06-21T10:05:32Z</time>
      </trkpt>
      <trkpt lat="36.541275" lon="-5.331882">
        <ele>478.299</ele>
        <time>2015-06-21T10:05:33Z</time>
      </trkpt>
      <trkpt lat="36.541304" lon="-5.331792">
        <ele>477.656</ele>
        <time>2015-06-21T10:05:34Z</time>
      </trkpt>
      <trkpt lat="36.541309" lon="-5.331684">
        <ele>477.045</ele>
        <time>2015-06-21T10:05:35Z</time>
      </trkpt>
      <trkpt lat="36.541292" lon="-5.331565">
        <ele>476.467</ele>
        <time>2015-06-21T10:05:36Z</time>
      </trkpt>
      <trkpt lat="36.541278" lon="-5.331454">
        <ele>475.632</ele>
        <time>2015-06-21T10:05:37Z</time>
      </trkpt>
      <trkpt lat="36.541265" lon="-5.331349">
        <ele>475.092</ele>
        <time>2015-06-21T10:05:38Z</time>
      </trkpt>
      <trkpt lat="36.541258" lon="-5.331262">
        <ele>474.211</ele>
        <time>2015-06-21T10:05:39Z</time>
      </trkpt>
      <trkpt lat="36.541261" lon="-5.331175">
        <ele>473.608</ele>
        <time>2015-06-21T10:05:40Z</time>
      </trkpt>
      <trkpt lat="36.541274" lon="-5.331082">
        <ele>472.874</ele>
        <time>2015-06-21T10:05:41Z</time>
      </trkpt>
      <trkpt lat="36.541293" lon="-5.330986">
        <ele>472.220</ele>
        <time>2015-06-21T10:05:42Z</time>
      </trkpt>
      <trkpt lat="36.541326" lon="-5.330884">
        <ele>471.453</ele>
        <time>2015-06-21T10:05:43Z</time>
      </trkpt>
      <trkpt lat="36.541368" lon="-5.330790">
        <ele>470.643</ele>
        <time>2015-06-21T10:05:44Z</time>
      </trkpt>
      <trkpt lat="36.541413" lon="-5.330716">
        <ele>469.837</ele>
        <time>2015-06-21T10:05:45Z</time>
      </trkpt>
      <trkpt lat="36.541447" lon="-5.330644">
        <ele>469.294</ele>
        <time>2015-06-21T10:05:46Z</time>
      </trkpt>
      <trkpt lat="36.541465" lon="-5.330570">
        <ele>468.613</ele>
        <time>2015-06-21T10:05:47Z</time>
      </trkpt>
      <trkpt lat="36.541467" lon="-5.330494">
        <ele>467.885</ele>
        <time>2015-06-21T10:05:48Z</time>
      </trkpt>
      <trkpt lat="36.541447" lon="-5.330412">
        <ele>467.239</ele>
        <time>2015-06-21T10:05:49Z</time>
      </trkpt>
      <trkpt lat="36.541412" lon="-5.330332">
        <ele>465.801</ele>
        <time>2015-06-21T10:05:50Z</time>
      </trkpt>
      <trkpt lat="36.541379" lon="-5.330249">
        <ele>465.221</ele>
        <time>2015-06-21T10:05:51Z</time>
      </trkpt>
      <trkpt lat="36.541354" lon="-5.330170">
        <ele>464.408</ele>
        <time>2015-06-21T10:05:52Z</time>
      </trkpt>
      <trkpt lat="36.541330" lon="-5.330084">
        <ele>463.844</ele>
        <time>2015-06-21T10:05:53Z</time>
      </trkpt>
      <trkpt lat="36.541305" lon="-5.329993">
        <ele>463.240</ele>
        <time>2015-06-21T10:05:54Z</time>
      </trkpt>
      <trkpt lat="36.541278" lon="-5.329905">
        <ele>462.613</ele>
        <time>2015-06-21T10:05:55Z</time>
      </trkpt>
      <trkpt lat="36.541224" lon="-5.329829">
        <ele>461.873</ele>
        <time>2015-06-21T10:05:56Z</time>
      </trkpt>
      <trkpt lat="36.541165" lon="-5.329748">
        <ele>461.277</ele>
        <time>2015-06-21T10:05:57Z</time>
      </trkpt>
      <trkpt lat="36.541109" lon="-5.329659">
        <ele>460.664</ele>
        <time>2015-06-21T10:05:58Z</time>
      </trkpt>
      <trkpt lat="36.541057" lon="-5.329555">
        <ele>460.033</ele>
        <time>2015-06-21T10:05:59Z</time>
      </trkpt>
      <trkpt lat="36.541018" lon="-5.329448">
        <ele>459.695</ele>
        <time>2015-06-21T10:06:00Z</time>
      </trkpt>
      <trkpt lat="36.540983" lon="-5.329337">
        <ele>459.026</ele>
        <time>2015-06-21T10:06:01Z</time>
      </trkpt>
      <trkpt lat="36.540941" lon="-5.329218">
        <ele>458.247</ele>
        <time>2015-06-21T10:06:02Z</time>
      </trkpt>
      <trkpt lat="36.540892" lon="-5.329113">
        <ele>457.611</ele>
        <time>2015-06-21T10:06:03Z</time>
      </trkpt>
      <trkpt lat="36.540823" lon="-5.329027">
        <ele>457.008</ele>
        <time>2015-06-21T10:06:04Z</time>
      </trkpt>
      <trkpt lat="36.540743" lon="-5.328943">
        <ele>456.273</ele>
        <time>2015-06-21T10:06:05Z</time>
      </trkpt>
      <trkpt lat="36.540669" lon="-5.328845">
        <ele>455.479</ele>
        <time>2015-06-21T10:06:06Z</time>
      </trkpt>
      <trkpt lat="36.540612" lon="-5.328740">
        <ele>454.662</ele>
        <time>2015-06-21T10:06:07Z</time>
      </trkpt>
      <trkpt lat="36.540560" lon="-5.328624">
        <ele>453.852</ele>
        <time>2015-06-21T10:06:08Z</time>
      </trkpt>
      <trkpt lat="36.540516" lon="-5.328499">
        <ele>453.086</ele>
        <time>2015-06-21T10:06:09Z</time>
      </trkpt>
      <trkpt lat="36.540477" lon="-5.328370">
        <ele>452.233</ele>
        <time>2015-06-21T10:06:10Z</time>
      </trkpt>
      <trkpt lat="36.540447" lon="-5.328240">
        <ele>451.622</ele>
        <time>2015-06-21T10:06:11Z</time>
      </trkpt>
      <trkpt lat="36.540415" lon="-5.328119">
        <ele>451.034</ele>
        <time>2015-06-21T10:06:12Z</time>
      </trkpt>
      <trkpt lat="36.540381" lon="-5.327997">
        <ele>450.226</ele>
        <time>2015-06-21T10:06:13Z</time>
      </trkpt>
      <trkpt lat="36.540342" lon="-5.327866">
        <ele>449.647</ele>
        <time>2015-06-21T10:06:14Z</time>
      </trkpt>
      <trkpt lat="36.540303" lon="-5.327752">
        <ele>448.411</ele>
        <time>2015-06-21T10:06:15Z</time>
      </trkpt>
      <trkpt lat="36.540263" lon="-5.327637">
        <ele>447.808</ele>
        <time>2015-06-21T10:06:16Z</time>
      </trkpt>
      <trkpt lat="36.540229" lon="-5.327524">
        <ele>447.013</ele>
        <time>2015-06-21T10:06:17Z</time>
      </trkpt>
      <trkpt lat="36.540194" lon="-5.327419">
        <ele>446.289</ele>
        <time>2015-06-21T10:06:18Z</time>
      </trkpt>
      <trkpt lat="36.540149" lon="-5.327321">
        <ele>445.272</ele>
        <time>2015-06-21T10:06:19Z</time>
      </trkpt>
      <trkpt lat="36.540094" lon="-5.327227">
        <ele>444.232</ele>
        <time>2015-06-21T10:06:20Z</time>
      </trkpt>
      <trkpt lat="36.540041" lon="-5.327146">
        <ele>443.226</ele>
        <time>2015-06-21T10:06:21Z</time>
      </trkpt>
      <trkpt lat="36.539977" lon="-5.327090">
        <ele>442.423</ele>
        <time>2015-06-21T10:06:22Z</time>
      </trkpt>
      <trkpt lat="36.539904" lon="-5.327062">
        <ele>441.492</ele>
        <time>2015-06-21T10:06:23Z</time>
      </trkpt>
      <trkpt lat="36.539821" lon="-5.327053">
        <ele>440.434</ele>
        <time>2015-06-21T10:06:24Z</time>
      </trkpt>
      <trkpt lat="36.539738" lon="-5.327054">
        <ele>439.628</ele>
        <time>2015-06-21T10:06:25Z</time>
      </trkpt>
      <trkpt lat="36.539651" lon="-5.327059">
        <ele>438.889</ele>
        <time>2015-06-21T10:06:26Z</time>
      </trkpt>
      <trkpt lat="36.539565" lon="-5.327069">
        <ele>438.017</ele>
        <time>2015-06-21T10:06:27Z</time>
      </trkpt>
      <trkpt lat="36.539478" lon="-5.327094">
        <ele>437.208</ele>
        <time>2015-06-21T10:06:28Z</time>
      </trkpt>
      <trkpt lat="36.539388" lon="-5.327115">
        <ele>436.633</ele>
        <time>2015-06-21T10:06:29Z</time>
      </trkpt>
      <trkpt lat="36.539299" lon="-5.327139">
        <ele>435.869</ele>
        <time>2015-06-21T10:06:30Z</time>
      </trkpt>
      <trkpt lat="36.539209" lon="-5.327160">
        <ele>435.082</ele>
        <time>2015-06-21T10:06:31Z</time>
      </trkpt>
      <trkpt lat="36.539122" lon="-5.327174">
        <ele>434.432</ele>
        <time>2015-06-21T10:06:32Z</time>
      </trkpt>
      <trkpt lat="36.539045" lon="-5.327174">
        <ele>434.066</ele>
        <time>2015-06-21T10:06:33Z</time>
      </trkpt>
      <trkpt lat="36.538965" lon="-5.327167">
        <ele>433.493</ele>
        <time>2015-06-21T10:06:34Z</time>
      </trkpt>
      <trkpt lat="36.538889" lon="-5.327145">
        <ele>432.632</ele>
        <time>2015-06-21T10:06:35Z</time>
      </trkpt>
      <trkpt lat="36.538812" lon="-5.327112">
        <ele>431.834</ele>
        <time>2015-06-21T10:06:36Z</time>
      </trkpt>
      <trkpt lat="36.538735" lon="-5.327069">
        <ele>431.081</ele>
        <time>2015-06-21T10:06:37Z</time>
      </trkpt>
      <trkpt lat="36.538657" lon="-5.327019">
        <ele>430.261</ele>
        <time>2015-06-21T10:06:38Z</time>
      </trkpt>
      <trkpt lat="36.538583" lon="-5.326968">
        <ele>428.817</ele>
        <time>2015-06-21T10:06:39Z</time>
      </trkpt>
      <trkpt lat="36.538510" lon="-5.326901">
        <ele>428.208</ele>
        <time>2015-06-21T10:06:40Z</time>
      </trkpt>
      <trkpt lat="36.538432" lon="-5.326835">
        <ele>427.499</ele>
        <time>2015-06-21T10:06:41Z</time>
      </trkpt>
      <trkpt lat="36.538359" lon="-5.326777">
        <ele>426.825</ele>
        <time>2015-06-21T10:06:42Z</time>
      </trkpt>
      <trkpt lat="36.538290" lon="-5.326735">
        <ele>426.218</ele>
        <time>2015-06-21T10:06:43Z</time>
      </trkpt>
      <trkpt lat="36.538223" lon="-5.326708">
        <ele>425.498</ele>
        <time>2015-06-21T10:06:44Z</time>
      </trkpt>
      <trkpt lat="36.538147" lon="-5.326712">
        <ele>424.692</ele>
        <time>2015-06-21T10:06:45Z</time>
      </trkpt>
      <trkpt lat="36.538074" lon="-5.326732">
        <ele>424.049</ele>
        <time>2015-06-21T10:06:46Z</time>
      </trkpt>
      <trkpt lat="36.537992" lon="-5.326755">
        <ele>423.218</ele>
        <time>2015-06-21T10:06:47Z</time>
      </trkpt>
      <trkpt lat="36.537919" lon="-5.326788">
        <ele>422.450</ele>
        <time>2015-06-21T10:06:48Z</time>
      </trkpt>
      <trkpt lat="36.537844" lon="-5.326823">
        <ele>421.652</ele>
        <time>2015-06-21T10:06:49Z</time>
      </trkpt>
      <trkpt lat="36.537773" lon="-5.326858">
        <ele>420.853</ele>
        <time>2015-06-21T10:06:50Z</time>
      </trkpt>
      <trkpt lat="36.537705" lon="-5.326882">
        <ele>420.208</ele>
        <time>2015-06-21T10:06:51Z</time>
      </trkpt>
      <trkpt lat="36.537630" lon="-5.326881">
        <ele>419.608</ele>
        <time>2015-06-21T10:06:52Z</time>
      </trkpt>
      <trkpt lat="36.537550" lon="-5.326859">
        <ele>419.066</ele>
        <time>2015-06-21T10:06:53Z</time>
      </trkpt>
      <trkpt lat="36.537473" lon="-5.326826">
        <ele>418.212</ele>
        <time>2015-06-21T10:06:54Z</time>
      </trkpt>
      <trkpt lat="36.537393" lon="-5.326800">
        <ele>417.445</ele>
        <time>2015-06-21T10:06:55Z</time>
      </trkpt>
      <trkpt lat="36.537306" lon="-5.326783">
        <ele>416.655</ele>
        <time>2015-06-21T10:06:56Z</time>
      </trkpt>
      <trkpt lat="36.537216" lon="-5.326772">
        <ele>415.839</ele>
        <time>2015-06-21T10:06:57Z</time>
      </trkpt>
      <trkpt lat="36.537121" lon="-5.326765">
        <ele>415.096</ele>
        <time>2015-06-21T10:06:58Z</time>
      </trkpt>
      <trkpt lat="36.537021" lon="-5.326756">
        <ele>414.685</ele>
        <time>2015-06-21T10:06:59Z</time>
      </trkpt>
      <trkpt lat="36.536915" lon="-5.326756">
        <ele>414.067</ele>
        <time>2015-06-21T10:07:00Z</time>
      </trkpt>
      <trkpt lat="36.536811" lon="-5.326758">
        <ele>413.629</ele>
        <time>2015-06-21T10:07:01Z</time>
      </trkpt>
      <trkpt lat="36.536707" lon="-5.326755">
        <ele>412.800</ele>
        <time>2015-06-21T10:07:02Z</time>
      </trkpt>
      <trkpt lat="36.536616" lon="-5.326753">
        <ele>411.420</ele>
        <time>2015-06-21T10:07:03Z</time>
      </trkpt>
      <trkpt lat="36.536523" lon="-5.326748">
        <ele>410.808</ele>
        <time>2015-06-21T10:07:04Z</time>
      </trkpt>
      <trkpt lat="36.536435" lon="-5.326743">
        <ele>410.023</ele>
        <time>2015-06-21T10:07:05Z</time>
      </trkpt>
      <trkpt lat="36.536351" lon="-5.326753">
        <ele>409.499</ele>
        <time>2015-06-21T10:07:06Z</time>
      </trkpt>
      <trkpt lat="36.536277" lon="-5.326775">
        <ele>408.692</ele>
        <time>2015-06-21T10:07:07Z</time>
      </trkpt>
      <trkpt lat="36.536202" lon="-5.326818">
        <ele>407.872</ele>
        <time>2015-06-21T10:07:08Z</time>
      </trkpt>
      <trkpt lat="36.536140" lon="-5.326872">
        <ele>406.846</ele>
        <time>2015-06-21T10:07:09Z</time>
      </trkpt>
      <trkpt lat="36.536074" lon="-5.326924">
        <ele>405.843</ele>
        <time>2015-06-21T10:07:10Z</time>
      </trkpt>
      <trkpt lat="36.536007" lon="-5.326988">
        <ele>404.832</ele>
        <time>2015-06-21T10:07:11Z</time>
      </trkpt>
      <trkpt lat="36.535978" lon="-5.327083">
        <ele>404.054</ele>
        <time>2015-06-21T10:07:12Z</time>
      </trkpt>
      <trkpt lat="36.535925" lon="-5.327137">
        <ele>403.219</ele>
        <time>2015-06-21T10:07:13Z</time>
      </trkpt>
      <trkpt lat="36.535864" lon="-5.327177">
        <ele>402.409</ele>
        <time>2015-06-21T10:07:14Z</time>
      </trkpt>
      <trkpt lat="36.535796" lon="-5.327196">
        <ele>401.819</ele>
        <time>2015-06-21T10:07:15Z</time>
      </trkpt>
      <trkpt lat="36.535726" lon="-5.327222">
        <ele>401.008</ele>
        <time>2015-06-21T10:07:16Z</time>
      </trkpt>
      <trkpt lat="36.535668" lon="-5.327243">
        <ele>400.242</ele>
        <time>2015-06-21T10:07:17Z</time>
      </trkpt>
      <trkpt lat="36.535603" lon="-5.327271">
        <ele>399.438</ele>
        <time>2015-06-21T10:07:18Z</time>
      </trkpt>
      <trkpt lat="36.535533" lon="-5.327297">
        <ele>398.641</ele>
        <time>2015-06-21T10:07:19Z</time>
      </trkpt>
      <trkpt lat="36.535460" lon="-5.327324">
        <ele>398.241</ele>
        <time>2015-06-21T10:07:20Z</time>
      </trkpt>
      <trkpt lat="36.535383" lon="-5.327358">
        <ele>397.685</ele>
        <time>2015-06-21T10:07:21Z</time>
      </trkpt>
      <trkpt lat="36.535306" lon="-5.327388">
        <ele>397.222</ele>
        <time>2015-06-21T10:07:22Z</time>
      </trkpt>
      <trkpt lat="36.535236" lon="-5.327412">
        <ele>396.641</ele>
        <time>2015-06-21T10:07:23Z</time>
      </trkpt>
      <trkpt lat="36.535177" lon="-5.327422">
        <ele>395.883</ele>
        <time>2015-06-21T10:07:24Z</time>
      </trkpt>
      <trkpt lat="36.535127" lon="-5.327410">
        <ele>395.239</ele>
        <time>2015-06-21T10:07:25Z</time>
      </trkpt>
      <trkpt lat="36.535087" lon="-5.327374">
        <ele>394.401</ele>
        <time>2015-06-21T10:07:26Z</time>
      </trkpt>
      <trkpt lat="36.535057" lon="-5.327331">
        <ele>393.821</ele>
        <time>2015-06-21T10:07:27Z</time>
      </trkpt>
      <trkpt lat="36.535031" lon="-5.327287">
        <ele>392.408</ele>
        <time>2015-06-21T10:07:28Z</time>
      </trkpt>
      <trkpt lat="36.535003" lon="-5.327244">
        <ele>391.874</ele>
        <time>2015-06-21T10:07:29Z</time>
      </trkpt>
      <trkpt lat="36.534929" lon="-5.327128">
        <ele>391.810</ele>
        <time>2015-06-21T10:07:32Z</time>
      </trkpt>
      <trkpt lat="36.534920" lon="-5.327090">
        <ele>391.863</ele>
        <time>2015-06-21T10:07:33Z</time>
      </trkpt>
      <trkpt lat="36.534923" lon="-5.327025">
        <ele>391.813</ele>
        <time>2015-06-21T10:07:35Z</time>
      </trkpt>
      <trkpt lat="36.534958" lon="-5.326977">
        <ele>391.857</ele>
        <time>2015-06-21T10:07:37Z</time>
      </trkpt>
      <trkpt lat="36.535001" lon="-5.326936">
        <ele>391.814</ele>
        <time>2015-06-21T10:07:40Z</time>
      </trkpt>
      <trkpt lat="36.535056" lon="-5.326917">
        <ele>392.293</ele>
        <time>2015-06-21T10:07:43Z</time>
      </trkpt>
      <trkpt lat="36.535076" lon="-5.326909">
        <ele>392.625</ele>
        <time>2015-06-21T10:07:44Z</time>
      </trkpt>
      <trkpt lat="36.535096" lon="-5.326898">
        <ele>393.028</ele>
        <time>2015-06-21T10:07:45Z</time>
      </trkpt>
      <trkpt lat="36.535116" lon="-5.326890">
        <ele>393.489</ele>
        <time>2015-06-21T10:07:46Z</time>
      </trkpt>
      <trkpt lat="36.535139" lon="-5.326885">
        <ele>393.817</ele>
        <time>2015-06-21T10:07:47Z</time>
      </trkpt>
      <trkpt lat="36.535204" lon="-5.326863">
        <ele>393.808</ele>
        <time>2015-06-21T10:07:50Z</time>
      </trkpt>
      <trkpt lat="36.535303" lon="-5.326818">
        <ele>393.843</ele>
        <time>2015-06-21T10:07:55Z</time>
      </trkpt>
      <trkpt lat="36.535324" lon="-5.326805">
        <ele>393.819</ele>
        <time>2015-06-21T10:07:56Z</time>
      </trkpt>
      <trkpt lat="36.535388" lon="-5.326733">
        <ele>393.812</ele>
        <time>2015-06-21T10:08:00Z</time>
      </trkpt>
      <trkpt lat="36.535427" lon="-5.326677">
        <ele>394.442</ele>
        <time>2015-06-21T10:08:03Z</time>
      </trkpt>
      <trkpt lat="36.535439" lon="-5.326658">
        <ele>394.836</ele>
        <time>2015-06-21T10:08:04Z</time>
      </trkpt>
      <trkpt lat="36.535450" lon="-5.326637">
        <ele>395.273</ele>
        <time>2015-06-21T10:08:05Z</time>
      </trkpt>
      <trkpt lat="36.535459" lon="-5.326614">
        <ele>395.612</ele>
        <time>2015-06-21T10:08:06Z</time>
      </trkpt>
      <trkpt lat="36.535472" lon="-5.326593">
        <ele>396.064</ele>
        <time>2015-06-21T10:08:07Z</time>
      </trkpt>
      <trkpt lat="36.535508" lon="-5.326529">
        <ele>396.038</ele>
        <time>2015-06-21T10:08:10Z</time>
      </trkpt>
      <trkpt lat="36.535562" lon="-5.326355">
        <ele>396.070</ele>
        <time>2015-06-21T10:08:17Z</time>
      </trkpt>
      <trkpt lat="36.535566" lon="-5.326331">
        <ele>396.417</ele>
        <time>2015-06-21T10:08:18Z</time>
      </trkpt>
      <trkpt lat="36.535565" lon="-5.326308">
        <ele>396.808</ele>
        <time>2015-06-21T10:08:19Z</time>
      </trkpt>
      <trkpt lat="36.535562" lon="-5.326281">
        <ele>397.214</ele>
        <time>2015-06-21T10:08:20Z</time>
      </trkpt>
      <trkpt lat="36.535553" lon="-5.326258">
        <ele>397.680</ele>
        <time>2015-06-21T10:08:21Z</time>
      </trkpt>
      <trkpt lat="36.535539" lon="-5.326228">
        <ele>398.083</ele>
        <time>2015-06-21T10:08:22Z</time>
      </trkpt>
      <trkpt lat="36.535525" lon="-5.326199">
        <ele>398.053</ele>
        <time>2015-06-21T10:08:23Z</time>
      </trkpt>
      <trkpt lat="36.535428" lon="-5.326015">
        <ele>398.057</ele>
        <time>2015-06-21T10:08:29Z</time>
      </trkpt>
      <trkpt lat="36.535374" lon="-5.325903">
        <ele>398.044</ele>
        <time>2015-06-21T10:08:32Z</time>
      </trkpt>
      <trkpt lat="36.535327" lon="-5.325785">
        <ele>398.063</ele>
        <time>2015-06-21T10:08:35Z</time>
      </trkpt>
      <trkpt lat="36.535268" lon="-5.325632">
        <ele>398.045</ele>
        <time>2015-06-21T10:08:39Z</time>
      </trkpt>
      <trkpt lat="36.535249" lon="-5.325594">
        <ele>398.074</ele>
        <time>2015-06-21T10:08:40Z</time>
      </trkpt>
      <trkpt lat="36.535152" lon="-5.325415">
        <ele>398.056</ele>
        <time>2015-06-21T10:08:45Z</time>
      </trkpt>
      <trkpt lat="36.535106" lon="-5.325351">
        <ele>398.021</ele>
        <time>2015-06-21T10:08:47Z</time>
      </trkpt>
      <trkpt lat="36.534994" lon="-5.325207">
        <ele>398.008</ele>
        <time>2015-06-21T10:08:52Z</time>
      </trkpt>
      <trkpt lat="36.534954" lon="-5.325149">
        <ele>398.068</ele>
        <time>2015-06-21T10:08:54Z</time>
      </trkpt>
      <trkpt lat="36.534859" lon="-5.324928">
        <ele>398.074</ele>
        <time>2015-06-21T10:08:59Z</time>
      </trkpt>
      <trkpt lat="36.534805" lon="-5.324698">
        <ele>398.067</ele>
        <time>2015-06-21T10:09:03Z</time>
      </trkpt>
      <trkpt lat="36.534780" lon="-5.324493">
        <ele>398.037</ele>
        <time>2015-06-21T10:09:06Z</time>
      </trkpt>
      <trkpt lat="36.534780" lon="-5.324122">
        <ele>398.061</ele>
        <time>2015-06-21T10:09:11Z</time>
      </trkpt>
      <trkpt lat="36.534785" lon="-5.324052">
        <ele>398.078</ele>
        <time>2015-06-21T10:09:12Z</time>
      </trkpt>
      <trkpt lat="36.534788" lon="-5.323989">
        <ele>397.667</ele>
        <time>2015-06-21T10:09:13Z</time>
      </trkpt>
      <trkpt lat="36.534817" lon="-5.323947">
        <ele>397.249</ele>
        <time>2015-06-21T10:09:14Z</time>
      </trkpt>
      <trkpt lat="36.534854" lon="-5.323908">
        <ele>396.851</ele>
        <time>2015-06-21T10:09:15Z</time>
      </trkpt>
      <trkpt lat="36.534889" lon="-5.323884">
        <ele>396.201</ele>
        <time>2015-06-21T10:09:16Z</time>
      </trkpt>
      <trkpt lat="36.534916" lon="-5.323874">
        <ele>395.811</ele>
        <time>2015-06-21T10:09:17Z</time>
      </trkpt>
      <trkpt lat="36.534938" lon="-5.323877">
        <ele>395.808</ele>
        <time>2015-06-21T10:09:18Z</time>
      </trkpt>
      <trkpt lat="36.535003" lon="-5.323932">
        <ele>395.896</ele>
        <time>2015-06-21T10:09:22Z</time>
      </trkpt>
      <trkpt lat="36.535024" lon="-5.323983">
        <ele>395.822</ele>
        <time>2015-06-21T10:09:24Z</time>
      </trkpt>
      <trkpt lat="36.535035" lon="-5.324024">
        <ele>395.885</ele>
        <time>2015-06-21T10:09:26Z</time>
      </trkpt>
      <trkpt lat="36.535051" lon="-5.324060">
        <ele>395.815</ele>
        <time>2015-06-21T10:09:28Z</time>
      </trkpt>
      <trkpt lat="36.535058" lon="-5.324105">
        <ele>395.889</ele>
        <time>2015-06-21T10:09:30Z</time>
      </trkpt>
      <trkpt lat="36.535069" lon="-5.324171">
        <ele>395.896</ele>
        <time>2015-06-21T10:09:33Z</time>
      </trkpt>
      <trkpt lat="36.535077" lon="-5.324281">
        <ele>395.845</ele>
        <time>2015-06-21T10:09:37Z</time>
      </trkpt>
      <trkpt lat="36.535083" lon="-5.324333">
        <ele>395.867</ele>
        <time>2015-06-21T10:09:39Z</time>
      </trkpt>
      <trkpt lat="36.535084" lon="-5.324360">
        <ele>396.295</ele>
        <time>2015-06-21T10:09:40Z</time>
      </trkpt>
      <trkpt lat="36.535089" lon="-5.324382">
        <ele>396.649</ele>
        <time>2015-06-21T10:09:41Z</time>
      </trkpt>
      <trkpt lat="36.535092" lon="-5.324405">
        <ele>397.023</ele>
        <time>2015-06-21T10:09:42Z</time>
      </trkpt>
      <trkpt lat="36.535094" lon="-5.324429">
        <ele>397.608</ele>
        <time>2015-06-21T10:09:43Z</time>
      </trkpt>
      <trkpt lat="36.535100" lon="-5.324454">
        <ele>398.010</ele>
        <time>2015-06-21T10:09:44Z</time>
      </trkpt>
      <trkpt lat="36.535121" lon="-5.324499">
        <ele>398.036</ele>
        <time>2015-06-21T10:09:46Z</time>
      </trkpt>
      <trkpt lat="36.535187" lon="-5.324658">
        <ele>398.039</ele>
        <time>2015-06-21T10:09:53Z</time>
      </trkpt>
      <trkpt lat="36.535230" lon="-5.324721">
        <ele>398.499</ele>
        <time>2015-06-21T10:09:57Z</time>
      </trkpt>
      <trkpt lat="36.535244" lon="-5.324736">
        <ele>398.813</ele>
        <time>2015-06-21T10:09:58Z</time>
      </trkpt>
      <trkpt lat="36.535259" lon="-5.324751">
        <ele>399.250</ele>
        <time>2015-06-21T10:09:59Z</time>
      </trkpt>
      <trkpt lat="36.535274" lon="-5.324762">
        <ele>399.639</ele>
        <time>2015-06-21T10:10:00Z</time>
      </trkpt>
      <trkpt lat="36.535288" lon="-5.324775">
        <ele>400.091</ele>
        <time>2015-06-21T10:10:01Z</time>
      </trkpt>
      <trkpt lat="36.535388" lon="-5.324855">
        <ele>400.085</ele>
        <time>2015-06-21T10:10:08Z</time>
      </trkpt>
      <trkpt lat="36.535487" lon="-5.324907">
        <ele>400.089</ele>
        <time>2015-06-21T10:10:14Z</time>
      </trkpt>
      <trkpt lat="36.535506" lon="-5.324914">
        <ele>400.417</ele>
        <time>2015-06-21T10:10:15Z</time>
      </trkpt>
      <trkpt lat="36.535519" lon="-5.324919">
        <ele>400.808</ele>
        <time>2015-06-21T10:10:16Z</time>
      </trkpt>
      <trkpt lat="36.535534" lon="-5.324928">
        <ele>401.299</ele>
        <time>2015-06-21T10:10:17Z</time>
      </trkpt>
      <trkpt lat="36.535552" lon="-5.324940">
        <ele>401.815</ele>
        <time>2015-06-21T10:10:18Z</time>
      </trkpt>
      <trkpt lat="36.535569" lon="-5.324949">
        <ele>402.278</ele>
        <time>2015-06-21T10:10:19Z</time>
      </trkpt>
      <trkpt lat="36.535606" lon="-5.324972">
        <ele>402.288</ele>
        <time>2015-06-21T10:10:21Z</time>
      </trkpt>
      <trkpt lat="36.535712" lon="-5.325035">
        <ele>402.612</ele>
        <time>2015-06-21T10:10:27Z</time>
      </trkpt>
      <trkpt lat="36.535730" lon="-5.325049">
        <ele>403.039</ele>
        <time>2015-06-21T10:10:28Z</time>
      </trkpt>
      <trkpt lat="36.535747" lon="-5.325064">
        <ele>403.498</ele>
        <time>2015-06-21T10:10:29Z</time>
      </trkpt>
      <trkpt lat="36.535764" lon="-5.325075">
        <ele>403.840</ele>
        <time>2015-06-21T10:10:30Z</time>
      </trkpt>
      <trkpt lat="36.535781" lon="-5.325089">
        <ele>404.286</ele>
        <time>2015-06-21T10:10:31Z</time>
      </trkpt>
      <trkpt lat="36.535844" lon="-5.325169">
        <ele>404.260</ele>
        <time>2015-06-21T10:10:36Z</time>
      </trkpt>
      <trkpt lat="36.535925" lon="-5.325264">
        <ele>404.226</ele>
        <time>2015-06-21T10:10:43Z</time>
      </trkpt>
      <trkpt lat="36.535947" lon="-5.325287">
        <ele>404.608</ele>
        <time>2015-06-21T10:10:46Z</time>
      </trkpt>
      <trkpt lat="36.535958" lon="-5.325298">
        <ele>405.019</ele>
        <time>2015-06-21T10:10:47Z</time>
      </trkpt>
      <trkpt lat="36.535967" lon="-5.325307">
        <ele>405.625</ele>
        <time>2015-06-21T10:10:48Z</time>
      </trkpt>
      <trkpt lat="36.535983" lon="-5.325306">
        <ele>406.058</ele>
        <time>2015-06-21T10:10:49Z</time>
      </trkpt>
      <trkpt lat="36.535999" lon="-5.325305">
        <ele>406.428</ele>
        <time>2015-06-21T10:10:50Z</time>
      </trkpt>
      <trkpt lat="36.536102" lon="-5.325324">
        <ele>406.412</ele>
        <time>2015-06-21T10:10:56Z</time>
      </trkpt>
      <trkpt lat="36.536160" lon="-5.325325">
        <ele>406.479</ele>
        <time>2015-06-21T10:10:59Z</time>
      </trkpt>
      <trkpt lat="36.536237" lon="-5.325309">
        <ele>406.478</ele>
        <time>2015-06-21T10:11:03Z</time>
      </trkpt>
      <trkpt lat="36.536310" lon="-5.325297">
        <ele>406.820</ele>
        <time>2015-06-21T10:11:07Z</time>
      </trkpt>
      <trkpt lat="36.536326" lon="-5.325293">
        <ele>407.219</ele>
        <time>2015-06-21T10:11:08Z</time>
      </trkpt>
      <trkpt lat="36.536342" lon="-5.325286">
        <ele>407.609</ele>
        <time>2015-06-21T10:11:09Z</time>
      </trkpt>
      <trkpt lat="36.536357" lon="-5.325274">
        <ele>408.019</ele>
        <time>2015-06-21T10:11:10Z</time>
      </trkpt>
      <trkpt lat="36.536375" lon="-5.325266">
        <ele>408.408</ele>
        <time>2015-06-21T10:11:11Z</time>
      </trkpt>
      <trkpt lat="36.536483" lon="-5.325226">
        <ele>408.432</ele>
        <time>2015-06-21T10:11:18Z</time>
      </trkpt>
      <trkpt lat="36.536496" lon="-5.325222">
        <ele>408.868</ele>
        <time>2015-06-21T10:11:19Z</time>
      </trkpt>
      <trkpt lat="36.536510" lon="-5.325213">
        <ele>409.491</ele>
        <time>2015-06-21T10:11:20Z</time>
      </trkpt>
      <trkpt lat="36.536528" lon="-5.325204">
        <ele>409.841</ele>
        <time>2015-06-21T10:11:21Z</time>
      </trkpt>
      <trkpt lat="36.536541" lon="-5.325192">
        <ele>410.235</ele>
        <time>2015-06-21T10:11:22Z</time>
      </trkpt>
      <trkpt lat="36.536559" lon="-5.325183">
        <ele>410.682</ele>
        <time>2015-06-21T10:11:23Z</time>
      </trkpt>
      <trkpt lat="36.536576" lon="-5.325175">
        <ele>410.641</ele>
        <time>2015-06-21T10:11:24Z</time>
      </trkpt>
      <trkpt lat="36.536660" lon="-5.325111">
        <ele>411.083</ele>
        <time>2015-06-21T10:11:30Z</time>
      </trkpt>
      <trkpt lat="36.536672" lon="-5.325105">
        <ele>411.497</ele>
        <time>2015-06-21T10:11:31Z</time>
      </trkpt>
      <trkpt lat="36.536687" lon="-5.325097">
        <ele>411.823</ele>
        <time>2015-06-21T10:11:32Z</time>
      </trkpt>
      <trkpt lat="36.536701" lon="-5.325088">
        <ele>412.225</ele>
        <time>2015-06-21T10:11:33Z</time>
      </trkpt>
      <trkpt lat="36.536716" lon="-5.325081">
        <ele>412.808</ele>
        <time>2015-06-21T10:11:34Z</time>
      </trkpt>
      <trkpt lat="36.536793" lon="-5.325019">
        <ele>412.840</ele>
        <time>2015-06-21T10:11:40Z</time>
      </trkpt>
      <trkpt lat="36.536823" lon="-5.324963">
        <ele>413.216</ele>
        <time>2015-06-21T10:11:44Z</time>
      </trkpt>
      <trkpt lat="36.536835" lon="-5.324950">
        <ele>413.689</ele>
        <time>2015-06-21T10:11:45Z</time>
      </trkpt>
      <trkpt lat="36.536847" lon="-5.324931">
        <ele>414.029</ele>
        <time>2015-06-21T10:11:46Z</time>
      </trkpt>
      <trkpt lat="36.536857" lon="-5.324916">
        <ele>414.483</ele>
        <time>2015-06-21T10:11:47Z</time>
      </trkpt>
      <trkpt lat="36.536871" lon="-5.324898">
        <ele>414.850</ele>
        <time>2015-06-21T10:11:48Z</time>
      </trkpt>
      <trkpt lat="36.536946" lon="-5.324762">
        <ele>414.839</ele>
        <time>2015-06-21T10:11:56Z</time>
      </trkpt>
      <trkpt lat="36.536993" lon="-5.324707">
        <ele>414.841</ele>
        <time>2015-06-21T10:12:00Z</time>
      </trkpt>
      <trkpt lat="36.537015" lon="-5.324683">
        <ele>414.837</ele>
        <time>2015-06-21T10:12:02Z</time>
      </trkpt>
      <trkpt lat="36.537030" lon="-5.324668">
        <ele>415.249</ele>
        <time>2015-06-21T10:12:03Z</time>
      </trkpt>
      <trkpt lat="36.537041" lon="-5.324664">
        <ele>415.613</ele>
        <time>2015-06-21T10:12:04Z</time>
      </trkpt>
      <trkpt lat="36.537052" lon="-5.324659">
        <ele>416.008</ele>
        <time>2015-06-21T10:12:05Z</time>
      </trkpt>
      <trkpt lat="36.537062" lon="-5.324653">
        <ele>416.424</ele>
        <time>2015-06-21T10:12:06Z</time>
      </trkpt>
      <trkpt lat="36.537076" lon="-5.324647">
        <ele>416.870</ele>
        <time>2015-06-21T10:12:07Z</time>
      </trkpt>
      <trkpt lat="36.537091" lon="-5.324640">
        <ele>416.863</ele>
        <time>2015-06-21T10:12:08Z</time>
      </trkpt>
      <trkpt lat="36.537184" lon="-5.324620">
        <ele>416.833</ele>
        <time>2015-06-21T10:12:14Z</time>
      </trkpt>
      <trkpt lat="36.537227" lon="-5.324609">
        <ele>417.477</ele>
        <time>2015-06-21T10:12:17Z</time>
      </trkpt>
      <trkpt lat="36.537241" lon="-5.324607">
        <ele>417.844</ele>
        <time>2015-06-21T10:12:18Z</time>
      </trkpt>
      <trkpt lat="36.537256" lon="-5.324606">
        <ele>418.233</ele>
        <time>2015-06-21T10:12:19Z</time>
      </trkpt>
      <trkpt lat="36.537273" lon="-5.324608">
        <ele>418.635</ele>
        <time>2015-06-21T10:12:20Z</time>
      </trkpt>
      <trkpt lat="36.537288" lon="-5.324612">
        <ele>419.059</ele>
        <time>2015-06-21T10:12:21Z</time>
      </trkpt>
      <trkpt lat="36.537303" lon="-5.324615">
        <ele>419.003</ele>
        <time>2015-06-21T10:12:22Z</time>
      </trkpt>
      <trkpt lat="36.537391" lon="-5.324614">
        <ele>419.023</ele>
        <time>2015-06-21T10:12:28Z</time>
      </trkpt>
      <trkpt lat="36.537406" lon="-5.324609">
        <ele>419.408</ele>
        <time>2015-06-21T10:12:29Z</time>
      </trkpt>
      <trkpt lat="36.537421" lon="-5.324600">
        <ele>419.826</ele>
        <time>2015-06-21T10:12:30Z</time>
      </trkpt>
      <trkpt lat="36.537437" lon="-5.324596">
        <ele>420.482</ele>
        <time>2015-06-21T10:12:31Z</time>
      </trkpt>
      <trkpt lat="36.537455" lon="-5.324592">
        <ele>420.815</ele>
        <time>2015-06-21T10:12:32Z</time>
      </trkpt>
      <trkpt lat="36.537471" lon="-5.324585">
        <ele>421.265</ele>
        <time>2015-06-21T10:12:33Z</time>
      </trkpt>
      <trkpt lat="36.537492" lon="-5.324575">
        <ele>421.239</ele>
        <time>2015-06-21T10:12:34Z</time>
      </trkpt>
      <trkpt lat="36.537594" lon="-5.324504">
        <ele>421.236</ele>
        <time>2015-06-21T10:12:41Z</time>
      </trkpt>
      <trkpt lat="36.537674" lon="-5.324458">
        <ele>421.685</ele>
        <time>2015-06-21T10:12:46Z</time>
      </trkpt>
      <trkpt lat="36.537686" lon="-5.324448">
        <ele>422.087</ele>
        <time>2015-06-21T10:12:47Z</time>
      </trkpt>
      <trkpt lat="36.537695" lon="-5.324435">
        <ele>422.441</ele>
        <time>2015-06-21T10:12:48Z</time>
      </trkpt>
      <trkpt lat="36.537705" lon="-5.324417">
        <ele>422.881</ele>
        <time>2015-06-21T10:12:49Z</time>
      </trkpt>
      <trkpt lat="36.537717" lon="-5.324399">
        <ele>423.209</ele>
        <time>2015-06-21T10:12:50Z</time>
      </trkpt>
      <trkpt lat="36.537762" lon="-5.324329">
        <ele>423.208</ele>
        <time>2015-06-21T10:12:54Z</time>
      </trkpt>
      <trkpt lat="36.537817" lon="-5.324205">
        <ele>423.235</ele>
        <time>2015-06-21T10:13:00Z</time>
      </trkpt>
      <trkpt lat="36.537880" lon="-5.324112">
        <ele>423.661</ele>
        <time>2015-06-21T10:13:05Z</time>
      </trkpt>
      <trkpt lat="36.537893" lon="-5.324089">
        <ele>424.064</ele>
        <time>2015-06-21T10:13:06Z</time>
      </trkpt>
      <trkpt lat="36.537905" lon="-5.324071">
        <ele>424.494</ele>
        <time>2015-06-21T10:13:07Z</time>
      </trkpt>
      <trkpt lat="36.537917" lon="-5.324049">
        <ele>424.898</ele>
        <time>2015-06-21T10:13:08Z</time>
      </trkpt>
      <trkpt lat="36.537925" lon="-5.324025">
        <ele>425.225</ele>
        <time>2015-06-21T10:13:09Z</time>
      </trkpt>
      <trkpt lat="36.537967" lon="-5.323920">
        <ele>425.254</ele>
        <time>2015-06-21T10:13:14Z</time>
      </trkpt>
      <trkpt lat="36.538056" lon="-5.323788">
        <ele>425.296</ele>
        <time>2015-06-21T10:13:21Z</time>
      </trkpt>
      <trkpt lat="36.538080" lon="-5.323714">
        <ele>425.619</ele>
        <time>2015-06-21T10:13:24Z</time>
      </trkpt>
      <trkpt lat="36.538091" lon="-5.323690">
        <ele>426.009</ele>
        <time>2015-06-21T10:13:25Z</time>
      </trkpt>
      <trkpt lat="36.538103" lon="-5.323668">
        <ele>426.419</ele>
        <time>2015-06-21T10:13:26Z</time>
      </trkpt>
      <trkpt lat="36.538115" lon="-5.323643">
        <ele>426.808</ele>
        <time>2015-06-21T10:13:27Z</time>
      </trkpt>
      <trkpt lat="36.538128" lon="-5.323621">
        <ele>427.422</ele>
        <time>2015-06-21T10:13:28Z</time>
      </trkpt>
      <trkpt lat="36.538193" lon="-5.323462">
        <ele>427.428</ele>
        <time>2015-06-21T10:13:35Z</time>
      </trkpt>
      <trkpt lat="36.538217" lon="-5.323307">
        <ele>427.421</ele>
        <time>2015-06-21T10:13:41Z</time>
      </trkpt>
      <trkpt lat="36.538245" lon="-5.323145">
        <ele>427.491</ele>
        <time>2015-06-21T10:13:47Z</time>
      </trkpt>
      <trkpt lat="36.538271" lon="-5.322973">
        <ele>427.865</ele>
        <time>2015-06-21T10:13:53Z</time>
      </trkpt>
      <trkpt lat="36.538274" lon="-5.322946">
        <ele>428.272</ele>
        <time>2015-06-21T10:13:54Z</time>
      </trkpt>
      <trkpt lat="36.538287" lon="-5.322921">
        <ele>428.621</ele>
        <time>2015-06-21T10:13:55Z</time>
      </trkpt>
      <trkpt lat="36.538287" lon="-5.322896">
        <ele>429.083</ele>
        <time>2015-06-21T10:13:56Z</time>
      </trkpt>
      <trkpt lat="36.538295" lon="-5.322875">
        <ele>429.436</ele>
        <time>2015-06-21T10:13:57Z</time>
      </trkpt>
      <trkpt lat="36.538303" lon="-5.322857">
        <ele>429.417</ele>
        <time>2015-06-21T10:13:58Z</time>
      </trkpt>
      <trkpt lat="36.538343" lon="-5.322836">
        <ele>429.418</ele>
        <time>2015-06-21T10:14:00Z</time>
      </trkpt>
      <trkpt lat="36.538382" lon="-5.322849">
        <ele>429.408</ele>
        <time>2015-06-21T10:14:02Z</time>
      </trkpt>
      <trkpt lat="36.538406" lon="-5.322865">
        <ele>429.424</ele>
        <time>2015-06-21T10:14:05Z</time>
      </trkpt>
      <trkpt lat="36.538424" lon="-5.322895">
        <ele>429.410</ele>
        <time>2015-06-21T10:14:07Z</time>
      </trkpt>
      <trkpt lat="36.538538" lon="-5.323053">
        <ele>429.433</ele>
        <time>2015-06-21T10:14:14Z</time>
      </trkpt>
      <trkpt lat="36.538645" lon="-5.323187">
        <ele>429.483</ele>
        <time>2015-06-21T10:14:20Z</time>
      </trkpt>
      <trkpt lat="36.538774" lon="-5.323352">
        <ele>429.437</ele>
        <time>2015-06-21T10:14:28Z</time>
      </trkpt>
      <trkpt lat="36.538804" lon="-5.323387">
        <ele>429.814</ele>
        <time>2015-06-21T10:14:30Z</time>
      </trkpt>
      <trkpt lat="36.538818" lon="-5.323396">
        <ele>430.253</ele>
        <time>2015-06-21T10:14:31Z</time>
      </trkpt>
      <trkpt lat="36.538832" lon="-5.323404">
        <ele>430.675</ele>
        <time>2015-06-21T10:14:32Z</time>
      </trkpt>
      <trkpt lat="36.538848" lon="-5.323413">
        <ele>431.013</ele>
        <time>2015-06-21T10:14:33Z</time>
      </trkpt>
      <trkpt lat="36.538858" lon="-5.323426">
        <ele>431.643</ele>
        <time>2015-06-21T10:14:34Z</time>
      </trkpt>
      <trkpt lat="36.538948" lon="-5.323484">
        <ele>432.007</ele>
        <time>2015-06-21T10:14:40Z</time>
      </trkpt>
      <trkpt lat="36.538968" lon="-5.323484">
        <ele>432.408</ele>
        <time>2015-06-21T10:14:41Z</time>
      </trkpt>
      <trkpt lat="36.538986" lon="-5.323478">
        <ele>432.822</ele>
        <time>2015-06-21T10:14:42Z</time>
      </trkpt>
      <trkpt lat="36.538994" lon="-5.323480">
        <ele>433.278</ele>
        <time>2015-06-21T10:14:43Z</time>
      </trkpt>
      <trkpt lat="36.539013" lon="-5.323477">
        <ele>433.641</ele>
        <time>2015-06-21T10:14:44Z</time>
      </trkpt>
      <trkpt lat="36.539151" lon="-5.323432">
        <ele>433.661</ele>
        <time>2015-06-21T10:14:51Z</time>
      </trkpt>
      <trkpt lat="36.539270" lon="-5.323321">
        <ele>433.615</ele>
        <time>2015-06-21T10:14:59Z</time>
      </trkpt>
      <trkpt lat="36.539327" lon="-5.323239">
        <ele>434.072</ele>
        <time>2015-06-21T10:15:03Z</time>
      </trkpt>
      <trkpt lat="36.539339" lon="-5.323217">
        <ele>434.471</ele>
        <time>2015-06-21T10:15:04Z</time>
      </trkpt>
      <trkpt lat="36.539351" lon="-5.323196">
        <ele>434.823</ele>
        <time>2015-06-21T10:15:05Z</time>
      </trkpt>
      <trkpt lat="36.539360" lon="-5.323176">
        <ele>435.431</ele>
        <time>2015-06-21T10:15:06Z</time>
      </trkpt>
      <trkpt lat="36.539370" lon="-5.323155">
        <ele>435.861</ele>
        <time>2015-06-21T10:15:07Z</time>
      </trkpt>
      <trkpt lat="36.539441" lon="-5.323046">
        <ele>435.807</ele>
        <time>2015-06-21T10:15:13Z</time>
      </trkpt>
      <trkpt lat="36.539494" lon="-5.322908">
        <ele>436.208</ele>
        <time>2015-06-21T10:15:19Z</time>
      </trkpt>
      <trkpt lat="36.539502" lon="-5.322889">
        <ele>436.634</ele>
        <time>2015-06-21T10:15:20Z</time>
      </trkpt>
      <trkpt lat="36.539515" lon="-5.322872">
        <ele>437.050</ele>
        <time>2015-06-21T10:15:21Z</time>
      </trkpt>
      <trkpt lat="36.539524" lon="-5.322850">
        <ele>437.473</ele>
        <time>2015-06-21T10:15:22Z</time>
      </trkpt>
      <trkpt lat="36.539539" lon="-5.322830">
        <ele>437.813</ele>
        <time>2015-06-21T10:15:23Z</time>
      </trkpt>
      <trkpt lat="36.539557" lon="-5.322812">
        <ele>437.897</ele>
        <time>2015-06-21T10:15:24Z</time>
      </trkpt>
      <trkpt lat="36.539607" lon="-5.322764">
        <ele>437.884</ele>
        <time>2015-06-21T10:15:28Z</time>
      </trkpt>
      <trkpt lat="36.539621" lon="-5.322760">
        <ele>437.893</ele>
        <time>2015-06-21T10:15:30Z</time>
      </trkpt>
      <trkpt lat="36.539635" lon="-5.322759">
        <ele>438.235</ele>
        <time>2015-06-21T10:15:32Z</time>
      </trkpt>
      <trkpt lat="36.539648" lon="-5.322761">
        <ele>438.695</ele>
        <time>2015-06-21T10:15:33Z</time>
      </trkpt>
      <trkpt lat="36.539667" lon="-5.322764">
        <ele>439.049</ele>
        <time>2015-06-21T10:15:34Z</time>
      </trkpt>
      <trkpt lat="36.539682" lon="-5.322766">
        <ele>439.423</ele>
        <time>2015-06-21T10:15:35Z</time>
      </trkpt>
      <trkpt lat="36.539696" lon="-5.322772">
        <ele>439.808</ele>
        <time>2015-06-21T10:15:36Z</time>
      </trkpt>
      <trkpt lat="36.539762" lon="-5.322811">
        <ele>439.830</ele>
        <time>2015-06-21T10:15:40Z</time>
      </trkpt>
      <trkpt lat="36.539886" lon="-5.322866">
        <ele>440.436</ele>
        <time>2015-06-21T10:15:48Z</time>
      </trkpt>
      <trkpt lat="36.539906" lon="-5.322871">
        <ele>440.899</ele>
        <time>2015-06-21T10:15:49Z</time>
      </trkpt>
      <trkpt lat="36.539923" lon="-5.322877">
        <ele>441.259</ele>
        <time>2015-06-21T10:15:50Z</time>
      </trkpt>
      <trkpt lat="36.539942" lon="-5.322881">
        <ele>441.693</ele>
        <time>2015-06-21T10:15:51Z</time>
      </trkpt>
      <trkpt lat="36.539958" lon="-5.322882">
        <ele>442.050</ele>
        <time>2015-06-21T10:15:52Z</time>
      </trkpt>
      <trkpt lat="36.540011" lon="-5.322872">
        <ele>442.019</ele>
        <time>2015-06-21T10:15:55Z</time>
      </trkpt>
      <trkpt lat="36.540114" lon="-5.322811">
        <ele>442.471</ele>
        <time>2015-06-21T10:16:02Z</time>
      </trkpt>
      <trkpt lat="36.540129" lon="-5.322802">
        <ele>442.841</ele>
        <time>2015-06-21T10:16:03Z</time>
      </trkpt>
      <trkpt lat="36.540144" lon="-5.322792">
        <ele>443.281</ele>
        <time>2015-06-21T10:16:04Z</time>
      </trkpt>
      <trkpt lat="36.540160" lon="-5.322783">
        <ele>443.609</ele>
        <time>2015-06-21T10:16:05Z</time>
      </trkpt>
      <trkpt lat="36.540179" lon="-5.322768">
        <ele>444.208</ele>
        <time>2015-06-21T10:16:06Z</time>
      </trkpt>
      <trkpt lat="36.540230" lon="-5.322707">
        <ele>444.255</ele>
        <time>2015-06-21T10:16:10Z</time>
      </trkpt>
      <trkpt lat="36.540291" lon="-5.322590">
        <ele>444.281</ele>
        <time>2015-06-21T10:16:16Z</time>
      </trkpt>
      <trkpt lat="36.540375" lon="-5.322422">
        <ele>444.294</ele>
        <time>2015-06-21T10:16:23Z</time>
      </trkpt>
      <trkpt lat="36.540394" lon="-5.322368">
        <ele>444.694</ele>
        <time>2015-06-21T10:16:25Z</time>
      </trkpt>
      <trkpt lat="36.540408" lon="-5.322346">
        <ele>445.098</ele>
        <time>2015-06-21T10:16:26Z</time>
      </trkpt>
      <trkpt lat="36.540422" lon="-5.322320">
        <ele>445.495</ele>
        <time>2015-06-21T10:16:27Z</time>
      </trkpt>
      <trkpt lat="36.540437" lon="-5.322299">
        <ele>445.864</ele>
        <time>2015-06-21T10:16:28Z</time>
      </trkpt>
      <trkpt lat="36.540450" lon="-5.322275">
        <ele>446.246</ele>
        <time>2015-06-21T10:16:29Z</time>
      </trkpt>
      <trkpt lat="36.540482" lon="-5.322235">
        <ele>446.241</ele>
        <time>2015-06-21T10:16:31Z</time>
      </trkpt>
      <trkpt lat="36.540592" lon="-5.322079">
        <ele>446.281</ele>
        <time>2015-06-21T10:16:39Z</time>
      </trkpt>
      <trkpt lat="36.540649" lon="-5.321993">
        <ele>446.209</ele>
        <time>2015-06-21T10:16:44Z</time>
      </trkpt>
      <trkpt lat="36.540678" lon="-5.321950">
        <ele>446.608</ele>
        <time>2015-06-21T10:16:46Z</time>
      </trkpt>
      <trkpt lat="36.540686" lon="-5.321928">
        <ele>447.065</ele>
        <time>2015-06-21T10:16:47Z</time>
      </trkpt>
      <trkpt lat="36.540696" lon="-5.321903">
        <ele>447.451</ele>
        <time>2015-06-21T10:16:48Z</time>
      </trkpt>
      <trkpt lat="36.540705" lon="-5.321881">
        <ele>447.894</ele>
        <time>2015-06-21T10:16:49Z</time>
      </trkpt>
      <trkpt lat="36.540713" lon="-5.321856">
        <ele>448.254</ele>
        <time>2015-06-21T10:16:50Z</time>
      </trkpt>
      <trkpt lat="36.540802" lon="-5.321739">
        <ele>448.268</ele>
        <time>2015-06-21T10:16:56Z</time>
      </trkpt>
      <trkpt lat="36.540866" lon="-5.321687">
        <ele>448.655</ele>
        <time>2015-06-21T10:17:00Z</time>
      </trkpt>
      <trkpt lat="36.540874" lon="-5.321676">
        <ele>449.024</ele>
        <time>2015-06-21T10:17:01Z</time>
      </trkpt>
      <trkpt lat="36.540893" lon="-5.321665">
        <ele>449.626</ele>
        <time>2015-06-21T10:17:02Z</time>
      </trkpt>
      <trkpt lat="36.540915" lon="-5.321656">
        <ele>450.032</ele>
        <time>2015-06-21T10:17:03Z</time>
      </trkpt>
      <trkpt lat="36.540935" lon="-5.321645">
        <ele>450.492</ele>
        <time>2015-06-21T10:17:04Z</time>
      </trkpt>
      <trkpt lat="36.541000" lon="-5.321587">
        <ele>450.411</ele>
        <time>2015-06-21T10:17:08Z</time>
      </trkpt>
      <trkpt lat="36.541084" lon="-5.321455">
        <ele>450.408</ele>
        <time>2015-06-21T10:17:15Z</time>
      </trkpt>
      <trkpt lat="36.541127" lon="-5.321329">
        <ele>450.424</ele>
        <time>2015-06-21T10:17:21Z</time>
      </trkpt>
      <trkpt lat="36.541145" lon="-5.321220">
        <ele>450.460</ele>
        <time>2015-06-21T10:17:26Z</time>
      </trkpt>
      <trkpt lat="36.541194" lon="-5.321063">
        <ele>450.483</ele>
        <time>2015-06-21T10:17:32Z</time>
      </trkpt>
      <trkpt lat="36.541208" lon="-5.321040">
        <ele>450.873</ele>
        <time>2015-06-21T10:17:33Z</time>
      </trkpt>
      <trkpt lat="36.541215" lon="-5.321013">
        <ele>451.277</ele>
        <time>2015-06-21T10:17:34Z</time>
      </trkpt>
      <trkpt lat="36.541218" lon="-5.320985">
        <ele>451.644</ele>
        <time>2015-06-21T10:17:35Z</time>
      </trkpt>
      <trkpt lat="36.541219" lon="-5.320958">
        <ele>452.013</ele>
        <time>2015-06-21T10:17:36Z</time>
      </trkpt>
      <trkpt lat="36.541220" lon="-5.320929">
        <ele>452.425</ele>
        <time>2015-06-21T10:17:37Z</time>
      </trkpt>
      <trkpt lat="36.541217" lon="-5.320868">
        <ele>452.484</ele>
        <time>2015-06-21T10:17:39Z</time>
      </trkpt>
      <trkpt lat="36.541155" lon="-5.320646">
        <ele>452.407</ele>
        <time>2015-06-21T10:17:47Z</time>
      </trkpt>
      <trkpt lat="36.541030" lon="-5.320457">
        <ele>452.417</ele>
        <time>2015-06-21T10:17:55Z</time>
      </trkpt>
      <trkpt lat="36.541007" lon="-5.320348">
        <ele>452.808</ele>
        <time>2015-06-21T10:17:59Z</time>
      </trkpt>
      <trkpt lat="36.540998" lon="-5.320322">
        <ele>453.269</ele>
        <time>2015-06-21T10:18:00Z</time>
      </trkpt>
      <trkpt lat="36.540990" lon="-5.320297">
        <ele>453.615</ele>
        <time>2015-06-21T10:18:01Z</time>
      </trkpt>
      <trkpt lat="36.540985" lon="-5.320272">
        <ele>454.058</ele>
        <time>2015-06-21T10:18:02Z</time>
      </trkpt>
      <trkpt lat="36.540981" lon="-5.320247">
        <ele>454.448</ele>
        <time>2015-06-21T10:18:03Z</time>
      </trkpt>
      <trkpt lat="36.541001" lon="-5.320081">
        <ele>454.442</ele>
        <time>2015-06-21T10:18:09Z</time>
      </trkpt>
      <trkpt lat="36.541018" lon="-5.320005">
        <ele>455.039</ele>
        <time>2015-06-21T10:18:12Z</time>
      </trkpt>
      <trkpt lat="36.541028" lon="-5.319986">
        <ele>455.458</ele>
        <time>2015-06-21T10:18:13Z</time>
      </trkpt>
      <trkpt lat="36.541037" lon="-5.319968">
        <ele>455.820</ele>
        <time>2015-06-21T10:18:14Z</time>
      </trkpt>
      <trkpt lat="36.541047" lon="-5.319952">
        <ele>456.466</ele>
        <time>2015-06-21T10:18:15Z</time>
      </trkpt>
      <trkpt lat="36.541056" lon="-5.319936">
        <ele>456.829</ele>
        <time>2015-06-21T10:18:16Z</time>
      </trkpt>
      <trkpt lat="36.541086" lon="-5.319884">
        <ele>456.821</ele>
        <time>2015-06-21T10:18:19Z</time>
      </trkpt>
      <trkpt lat="36.541096" lon="-5.319841">
        <ele>456.808</ele>
        <time>2015-06-21T10:18:21Z</time>
      </trkpt>
      <trkpt lat="36.541113" lon="-5.319720">
        <ele>456.857</ele>
        <time>2015-06-21T10:18:26Z</time>
      </trkpt>
      <trkpt lat="36.541109" lon="-5.319508">
        <ele>456.853</ele>
        <time>2015-06-21T10:18:33Z</time>
      </trkpt>
      <trkpt lat="36.541098" lon="-5.319293">
        <ele>456.866</ele>
        <time>2015-06-21T10:18:41Z</time>
      </trkpt>
      <trkpt lat="36.541064" lon="-5.319107">
        <ele>457.246</ele>
        <time>2015-06-21T10:18:48Z</time>
      </trkpt>
      <trkpt lat="36.541058" lon="-5.319078">
        <ele>457.650</ele>
        <time>2015-06-21T10:18:49Z</time>
      </trkpt>
      <trkpt lat="36.541054" lon="-5.319051">
        <ele>458.047</ele>
        <time>2015-06-21T10:18:50Z</time>
      </trkpt>
      <trkpt lat="36.541056" lon="-5.319026">
        <ele>458.496</ele>
        <time>2015-06-21T10:18:51Z</time>
      </trkpt>
      <trkpt lat="36.541055" lon="-5.318998">
        <ele>458.828</ele>
        <time>2015-06-21T10:18:52Z</time>
      </trkpt>
      <trkpt lat="36.541051" lon="-5.318911">
        <ele>458.894</ele>
        <time>2015-06-21T10:18:55Z</time>
      </trkpt>
      <trkpt lat="36.541013" lon="-5.318753">
        <ele>458.857</ele>
        <time>2015-06-21T10:19:01Z</time>
      </trkpt>
      <trkpt lat="36.540987" lon="-5.318650">
        <ele>458.822</ele>
        <time>2015-06-21T10:19:07Z</time>
      </trkpt>
      <trkpt lat="36.540909" lon="-5.318516">
        <ele>458.808</ele>
        <time>2015-06-21T10:19:13Z</time>
      </trkpt>
      <trkpt lat="36.540787" lon="-5.318392">
        <ele>458.840</ele>
        <time>2015-06-21T10:19:18Z</time>
      </trkpt>
      <trkpt lat="36.540679" lon="-5.318332">
        <ele>458.846</ele>
        <time>2015-06-21T10:19:21Z</time>
      </trkpt>
      <trkpt lat="36.540608" lon="-5.318278">
        <ele>458.819</ele>
        <time>2015-06-21T10:19:23Z</time>
      </trkpt>
      <trkpt lat="36.540486" lon="-5.318173">
        <ele>458.899</ele>
        <time>2015-06-21T10:19:26Z</time>
      </trkpt>
      <trkpt lat="36.540400" lon="-5.318109">
        <ele>458.883</ele>
        <time>2015-06-21T10:19:28Z</time>
      </trkpt>
      <trkpt lat="36.540324" lon="-5.318031">
        <ele>458.880</ele>
        <time>2015-06-21T10:19:30Z</time>
      </trkpt>
      <trkpt lat="36.540207" lon="-5.317949">
        <ele>458.859</ele>
        <time>2015-06-21T10:19:33Z</time>
      </trkpt>
      <trkpt lat="36.540169" lon="-5.317921">
        <ele>458.861</ele>
        <time>2015-06-21T10:19:34Z</time>
      </trkpt>
      <trkpt lat="36.540036" lon="-5.317850">
        <ele>458.822</ele>
        <time>2015-06-21T10:19:37Z</time>
      </trkpt>
      <trkpt lat="36.539939" lon="-5.317821">
        <ele>458.862</ele>
        <time>2015-06-21T10:19:39Z</time>
      </trkpt>
      <trkpt lat="36.539745" lon="-5.317720">
        <ele>458.408</ele>
        <time>2015-06-21T10:19:43Z</time>
      </trkpt>
      <trkpt lat="36.539693" lon="-5.317685">
        <ele>458.008</ele>
        <time>2015-06-21T10:19:44Z</time>
      </trkpt>
      <trkpt lat="36.539641" lon="-5.317651">
        <ele>457.493</ele>
        <time>2015-06-21T10:19:45Z</time>
      </trkpt>
      <trkpt lat="36.539590" lon="-5.317612">
        <ele>457.099</ele>
        <time>2015-06-21T10:19:46Z</time>
      </trkpt>
      <trkpt lat="36.539538" lon="-5.317578">
        <ele>456.412</ele>
        <time>2015-06-21T10:19:47Z</time>
      </trkpt>
      <trkpt lat="36.539400" lon="-5.317444">
        <ele>456.432</ele>
        <time>2015-06-21T10:19:50Z</time>
      </trkpt>
      <trkpt lat="36.539361" lon="-5.317393">
        <ele>456.446</ele>
        <time>2015-06-21T10:19:51Z</time>
      </trkpt>
      <trkpt lat="36.539268" lon="-5.317209">
        <ele>456.473</ele>
        <time>2015-06-21T10:19:54Z</time>
      </trkpt>
      <trkpt lat="36.539215" lon="-5.317062">
        <ele>456.082</ele>
        <time>2015-06-21T10:19:56Z</time>
      </trkpt>
      <trkpt lat="36.539188" lon="-5.316988">
        <ele>455.684</ele>
        <time>2015-06-21T10:19:57Z</time>
      </trkpt>
      <trkpt lat="36.539164" lon="-5.316916">
        <ele>455.215</ele>
        <time>2015-06-21T10:19:58Z</time>
      </trkpt>
      <trkpt lat="36.539136" lon="-5.316849">
        <ele>454.865</ele>
        <time>2015-06-21T10:19:59Z</time>
      </trkpt>
      <trkpt lat="36.539116" lon="-5.316794">
        <ele>454.411</ele>
        <time>2015-06-21T10:20:00Z</time>
      </trkpt>
      <trkpt lat="36.539081" lon="-5.316682">
        <ele>454.408</ele>
        <time>2015-06-21T10:20:02Z</time>
      </trkpt>
      <trkpt lat="36.539145" lon="-5.316610">
        <ele>454.072</ele>
        <time>2015-06-21T10:20:04Z</time>
      </trkpt>
      <trkpt lat="36.539165" lon="-5.316610">
        <ele>453.628</ele>
        <time>2015-06-21T10:20:05Z</time>
      </trkpt>
      <trkpt lat="36.539182" lon="-5.316614">
        <ele>453.231</ele>
        <time>2015-06-21T10:20:06Z</time>
      </trkpt>
      <trkpt lat="36.539198" lon="-5.316627">
        <ele>452.891</ele>
        <time>2015-06-21T10:20:07Z</time>
      </trkpt>
      <trkpt lat="36.539211" lon="-5.316648">
        <ele>452.475</ele>
        <time>2015-06-21T10:20:08Z</time>
      </trkpt>
      <trkpt lat="36.539246" lon="-5.316670">
        <ele>452.462</ele>
        <time>2015-06-21T10:20:10Z</time>
      </trkpt>
      <trkpt lat="36.539271" lon="-5.316705">
        <ele>452.461</ele>
        <time>2015-06-21T10:20:12Z</time>
      </trkpt>
      <trkpt lat="36.539311" lon="-5.316745">
        <ele>452.473</ele>
        <time>2015-06-21T10:20:14Z</time>
      </trkpt>
      <trkpt lat="36.539357" lon="-5.316783">
        <ele>452.495</ele>
        <time>2015-06-21T10:20:17Z</time>
      </trkpt>
      <trkpt lat="36.539405" lon="-5.316832">
        <ele>452.849</ele>
        <time>2015-06-21T10:20:20Z</time>
      </trkpt>
      <trkpt lat="36.539418" lon="-5.316847">
        <ele>453.223</ele>
        <time>2015-06-21T10:20:21Z</time>
      </trkpt>
      <trkpt lat="36.539433" lon="-5.316857">
        <ele>453.608</ele>
        <time>2015-06-21T10:20:22Z</time>
      </trkpt>
      <trkpt lat="36.539448" lon="-5.316874">
        <ele>454.060</ele>
        <time>2015-06-21T10:20:23Z</time>
      </trkpt>
      <trkpt lat="36.539465" lon="-5.316892">
        <ele>454.496</ele>
        <time>2015-06-21T10:20:24Z</time>
      </trkpt>
      <trkpt lat="36.539515" lon="-5.316923">
        <ele>454.419</ele>
        <time>2015-06-21T10:20:27Z</time>
      </trkpt>
      <trkpt lat="36.539556" lon="-5.316935">
        <ele>454.849</ele>
        <time>2015-06-21T10:20:30Z</time>
      </trkpt>
      <trkpt lat="36.539572" lon="-5.316940">
        <ele>455.213</ele>
        <time>2015-06-21T10:20:31Z</time>
      </trkpt>
      <trkpt lat="36.539589" lon="-5.316939">
        <ele>455.670</ele>
        <time>2015-06-21T10:20:32Z</time>
      </trkpt>
      <trkpt lat="36.539611" lon="-5.316950">
        <ele>456.069</ele>
        <time>2015-06-21T10:20:33Z</time>
      </trkpt>
      <trkpt lat="36.539625" lon="-5.316948">
        <ele>456.451</ele>
        <time>2015-06-21T10:20:34Z</time>
      </trkpt>
      <trkpt lat="36.539657" lon="-5.316958">
        <ele>456.443</ele>
        <time>2015-06-21T10:20:36Z</time>
      </trkpt>
      <trkpt lat="36.539717" lon="-5.316971">
        <ele>456.464</ele>
        <time>2015-06-21T10:20:40Z</time>
      </trkpt>
      <trkpt lat="36.539753" lon="-5.316978">
        <ele>456.410</ele>
        <time>2015-06-21T10:20:42Z</time>
      </trkpt>
      <trkpt lat="36.539871" lon="-5.316992">
        <ele>456.808</ele>
        <time>2015-06-21T10:20:48Z</time>
      </trkpt>
      <trkpt lat="36.539888" lon="-5.316997">
        <ele>457.225</ele>
        <time>2015-06-21T10:20:49Z</time>
      </trkpt>
      <trkpt lat="36.539909" lon="-5.316999">
        <ele>457.651</ele>
        <time>2015-06-21T10:20:50Z</time>
      </trkpt>
      <trkpt lat="36.539928" lon="-5.317002">
        <ele>458.074</ele>
        <time>2015-06-21T10:20:51Z</time>
      </trkpt>
      <trkpt lat="36.539949" lon="-5.316999">
        <ele>458.464</ele>
        <time>2015-06-21T10:20:52Z</time>
      </trkpt>
      <trkpt lat="36.539984" lon="-5.317004">
        <ele>458.478</ele>
        <time>2015-06-21T10:20:54Z</time>
      </trkpt>
      <trkpt lat="36.540001" lon="-5.317006">
        <ele>458.425</ele>
        <time>2015-06-21T10:20:55Z</time>
      </trkpt>
      <trkpt lat="36.540118" lon="-5.317001">
        <ele>458.444</ele>
        <time>2015-06-21T10:21:01Z</time>
      </trkpt>
      <trkpt lat="36.540159" lon="-5.317000">
        <ele>458.486</ele>
        <time>2015-06-21T10:21:03Z</time>
      </trkpt>
      <trkpt lat="36.540196" lon="-5.316989">
        <ele>458.897</ele>
        <time>2015-06-21T10:21:05Z</time>
      </trkpt>
      <trkpt lat="36.540210" lon="-5.316983">
        <ele>459.223</ele>
        <time>2015-06-21T10:21:06Z</time>
      </trkpt>
      <trkpt lat="36.540228" lon="-5.316976">
        <ele>459.625</ele>
        <time>2015-06-21T10:21:07Z</time>
      </trkpt>
      <trkpt lat="36.540245" lon="-5.316966">
        <ele>460.008</ele>
        <time>2015-06-21T10:21:08Z</time>
      </trkpt>
      <trkpt lat="36.540262" lon="-5.316960">
        <ele>460.410</ele>
        <time>2015-06-21T10:21:09Z</time>
      </trkpt>
      <trkpt lat="36.540281" lon="-5.316950">
        <ele>460.466</ele>
        <time>2015-06-21T10:21:10Z</time>
      </trkpt>
      <trkpt lat="36.540386" lon="-5.316877">
        <ele>460.419</ele>
        <time>2015-06-21T10:21:17Z</time>
      </trkpt>
      <trkpt lat="36.540440" lon="-5.316814">
        <ele>460.899</ele>
        <time>2015-06-21T10:21:21Z</time>
      </trkpt>
      <trkpt lat="36.540456" lon="-5.316806">
        <ele>461.443</ele>
        <time>2015-06-21T10:21:22Z</time>
      </trkpt>
      <trkpt lat="36.540469" lon="-5.316799">
        <ele>461.860</ele>
        <time>2015-06-21T10:21:23Z</time>
      </trkpt>
      <trkpt lat="36.540481" lon="-5.316796">
        <ele>462.249</ele>
        <time>2015-06-21T10:21:24Z</time>
      </trkpt>
      <trkpt lat="36.540498" lon="-5.316798">
        <ele>462.631</ele>
        <time>2015-06-21T10:21:25Z</time>
      </trkpt>
      <trkpt lat="36.540511" lon="-5.316798">
        <ele>462.632</ele>
        <time>2015-06-21T10:21:26Z</time>
      </trkpt>
      <trkpt lat="36.540523" lon="-5.316809">
        <ele>462.692</ele>
        <time>2015-06-21T10:21:27Z</time>
      </trkpt>
      <trkpt lat="36.540538" lon="-5.316817">
        <ele>462.611</ele>
        <time>2015-06-21T10:21:28Z</time>
      </trkpt>
      <trkpt lat="36.540678" lon="-5.316898">
        <ele>462.608</ele>
        <time>2015-06-21T10:21:36Z</time>
      </trkpt>
      <trkpt lat="36.540786" lon="-5.316965">
        <ele>463.064</ele>
        <time>2015-06-21T10:21:42Z</time>
      </trkpt>
      <trkpt lat="36.540803" lon="-5.316978">
        <ele>463.470</ele>
        <time>2015-06-21T10:21:43Z</time>
      </trkpt>
      <trkpt lat="36.540822" lon="-5.316984">
        <ele>463.883</ele>
        <time>2015-06-21T10:21:44Z</time>
      </trkpt>
      <trkpt lat="36.540836" lon="-5.316989">
        <ele>464.473</ele>
        <time>2015-06-21T10:21:45Z</time>
      </trkpt>
      <trkpt lat="36.540851" lon="-5.316996">
        <ele>464.817</ele>
        <time>2015-06-21T10:21:46Z</time>
      </trkpt>
      <trkpt lat="36.540913" lon="-5.317027">
        <ele>464.834</ele>
        <time>2015-06-21T10:21:50Z</time>
      </trkpt>
      <trkpt lat="36.541074" lon="-5.317040">
        <ele>464.883</ele>
        <time>2015-06-21T10:21:57Z</time>
      </trkpt>
      <trkpt lat="36.541128" lon="-5.317036">
        <ele>465.255</ele>
        <time>2015-06-21T10:22:00Z</time>
      </trkpt>
      <trkpt lat="36.541145" lon="-5.317031">
        <ele>465.652</ele>
        <time>2015-06-21T10:22:01Z</time>
      </trkpt>
      <trkpt lat="36.541158" lon="-5.317021">
        <ele>466.053</ele>
        <time>2015-06-21T10:22:02Z</time>
      </trkpt>
      <trkpt lat="36.541168" lon="-5.317010">
        <ele>466.408</ele>
        <time>2015-06-21T10:22:03Z</time>
      </trkpt>
      <trkpt lat="36.541183" lon="-5.316995">
        <ele>467.008</ele>
        <time>2015-06-21T10:22:04Z</time>
      </trkpt>
      <trkpt lat="36.541298" lon="-5.316892">
        <ele>467.466</ele>
        <time>2015-06-21T10:22:12Z</time>
      </trkpt>
      <trkpt lat="36.541312" lon="-5.316880">
        <ele>467.822</ele>
        <time>2015-06-21T10:22:13Z</time>
      </trkpt>
      <trkpt lat="36.541329" lon="-5.316870">
        <ele>468.275</ele>
        <time>2015-06-21T10:22:14Z</time>
      </trkpt>
      <trkpt lat="36.541346" lon="-5.316858">
        <ele>468.675</ele>
        <time>2015-06-21T10:22:15Z</time>
      </trkpt>
      <trkpt lat="36.541364" lon="-5.316845">
        <ele>469.099</ele>
        <time>2015-06-21T10:22:16Z</time>
      </trkpt>
      <trkpt lat="36.541428" lon="-5.316790">
        <ele>469.016</ele>
        <time>2015-06-21T10:22:20Z</time>
      </trkpt>
      <trkpt lat="36.541479" lon="-5.316757">
        <ele>469.415</ele>
        <time>2015-06-21T10:22:24Z</time>
      </trkpt>
      <trkpt lat="36.541490" lon="-5.316749">
        <ele>469.877</ele>
        <time>2015-06-21T10:22:25Z</time>
      </trkpt>
      <trkpt lat="36.541507" lon="-5.316733">
        <ele>470.232</ele>
        <time>2015-06-21T10:22:26Z</time>
      </trkpt>
      <trkpt lat="36.541523" lon="-5.316728">
        <ele>470.692</ele>
        <time>2015-06-21T10:22:27Z</time>
      </trkpt>
      <trkpt lat="36.541540" lon="-5.316716">
        <ele>471.011</ele>
        <time>2015-06-21T10:22:28Z</time>
      </trkpt>
      <trkpt lat="36.541610" lon="-5.316686">
        <ele>471.008</ele>
        <time>2015-06-21T10:22:32Z</time>
      </trkpt>
      <trkpt lat="36.541709" lon="-5.316663">
        <ele>471.484</ele>
        <time>2015-06-21T10:22:38Z</time>
      </trkpt>
      <trkpt lat="36.541726" lon="-5.316659">
        <ele>471.870</ele>
        <time>2015-06-21T10:22:39Z</time>
      </trkpt>
      <trkpt lat="36.541743" lon="-5.316653">
        <ele>472.233</ele>
        <time>2015-06-21T10:22:40Z</time>
      </trkpt>
      <trkpt lat="36.541756" lon="-5.316648">
        <ele>472.613</ele>
        <time>2015-06-21T10:22:41Z</time>
      </trkpt>
      <trkpt lat="36.541782" lon="-5.316641">
        <ele>473.077</ele>
        <time>2015-06-21T10:22:42Z</time>
      </trkpt>
      <trkpt lat="36.541878" lon="-5.316630">
        <ele>473.064</ele>
        <time>2015-06-21T10:22:48Z</time>
      </trkpt>
      <trkpt lat="36.541989" lon="-5.316620">
        <ele>473.423</ele>
        <time>2015-06-21T10:22:55Z</time>
      </trkpt>
      <trkpt lat="36.542010" lon="-5.316619">
        <ele>473.845</ele>
        <time>2015-06-21T10:22:56Z</time>
      </trkpt>
      <trkpt lat="36.542024" lon="-5.316615">
        <ele>474.276</ele>
        <time>2015-06-21T10:22:57Z</time>
      </trkpt>
      <trkpt lat="36.542039" lon="-5.316620">
        <ele>474.890</ele>
        <time>2015-06-21T10:22:58Z</time>
      </trkpt>
      <trkpt lat="36.542058" lon="-5.316620">
        <ele>475.219</ele>
        <time>2015-06-21T10:22:59Z</time>
      </trkpt>
      <trkpt lat="36.542086" lon="-5.316623">
        <ele>475.208</ele>
        <time>2015-06-21T10:23:01Z</time>
      </trkpt>
      <trkpt lat="36.542181" lon="-5.316644">
        <ele>475.638</ele>
        <time>2015-06-21T10:23:07Z</time>
      </trkpt>
      <trkpt lat="36.542197" lon="-5.316646">
        <ele>476.014</ele>
        <time>2015-06-21T10:23:08Z</time>
      </trkpt>
      <trkpt lat="36.542215" lon="-5.316648">
        <ele>476.427</ele>
        <time>2015-06-21T10:23:09Z</time>
      </trkpt>
      <trkpt lat="36.542228" lon="-5.316653">
        <ele>476.847</ele>
        <time>2015-06-21T10:23:10Z</time>
      </trkpt>
      <trkpt lat="36.542239" lon="-5.316652">
        <ele>477.411</ele>
        <time>2015-06-21T10:23:11Z</time>
      </trkpt>
      <trkpt lat="36.542267" lon="-5.316642">
        <ele>477.448</ele>
        <time>2015-06-21T10:23:13Z</time>
      </trkpt>
      <trkpt lat="36.542290" lon="-5.316617">
        <ele>477.437</ele>
        <time>2015-06-21T10:23:15Z</time>
      </trkpt>
      <trkpt lat="36.542324" lon="-5.316600">
        <ele>477.449</ele>
        <time>2015-06-21T10:23:17Z</time>
      </trkpt>
      <trkpt lat="36.542427" lon="-5.316546">
        <ele>477.856</ele>
        <time>2015-06-21T10:23:22Z</time>
      </trkpt>
      <trkpt lat="36.542442" lon="-5.316539">
        <ele>478.259</ele>
        <time>2015-06-21T10:23:23Z</time>
      </trkpt>
      <trkpt lat="36.542454" lon="-5.316531">
        <ele>478.614</ele>
        <time>2015-06-21T10:23:24Z</time>
      </trkpt>
      <trkpt lat="36.542468" lon="-5.316510">
        <ele>479.008</ele>
        <time>2015-06-21T10:23:25Z</time>
      </trkpt>
      <trkpt lat="36.542479" lon="-5.316490">
        <ele>479.476</ele>
        <time>2015-06-21T10:23:26Z</time>
      </trkpt>
      <trkpt lat="36.542492" lon="-5.316419">
        <ele>479.492</ele>
        <time>2015-06-21T10:23:29Z</time>
      </trkpt>
      <trkpt lat="36.542573" lon="-5.316307">
        <ele>479.415</ele>
        <time>2015-06-21T10:23:35Z</time>
      </trkpt>
      <trkpt lat="36.542700" lon="-5.316235">
        <ele>479.435</ele>
        <time>2015-06-21T10:23:41Z</time>
      </trkpt>
      <trkpt lat="36.542766" lon="-5.316210">
        <ele>479.849</ele>
        <time>2015-06-21T10:23:44Z</time>
      </trkpt>
      <trkpt lat="36.542785" lon="-5.316200">
        <ele>480.216</ele>
        <time>2015-06-21T10:23:45Z</time>
      </trkpt>
      <trkpt lat="36.542802" lon="-5.316190">
        <ele>480.665</ele>
        <time>2015-06-21T10:23:46Z</time>
      </trkpt>
      <trkpt lat="36.542817" lon="-5.316180">
        <ele>481.017</ele>
        <time>2015-06-21T10:23:47Z</time>
      </trkpt>
      <trkpt lat="36.542828" lon="-5.316169">
        <ele>481.439</ele>
        <time>2015-06-21T10:23:48Z</time>
      </trkpt>
      <trkpt lat="36.542859" lon="-5.316138">
        <ele>481.401</ele>
        <time>2015-06-21T10:23:50Z</time>
      </trkpt>
      <trkpt lat="36.542955" lon="-5.316038">
        <ele>481.421</ele>
        <time>2015-06-21T10:23:56Z</time>
      </trkpt>
      <trkpt lat="36.542977" lon="-5.316000">
        <ele>481.808</ele>
        <time>2015-06-21T10:23:58Z</time>
      </trkpt>
      <trkpt lat="36.542994" lon="-5.315971">
        <ele>482.254</ele>
        <time>2015-06-21T10:23:59Z</time>
      </trkpt>
      <trkpt lat="36.543004" lon="-5.315948">
        <ele>482.680</ele>
        <time>2015-06-21T10:24:00Z</time>
      </trkpt>
      <trkpt lat="36.543016" lon="-5.315928">
        <ele>483.013</ele>
        <time>2015-06-21T10:24:01Z</time>
      </trkpt>
      <trkpt lat="36.543031" lon="-5.315909">
        <ele>483.453</ele>
        <time>2015-06-21T10:24:02Z</time>
      </trkpt>
      <trkpt lat="36.543047" lon="-5.315895">
        <ele>483.467</ele>
        <time>2015-06-21T10:24:03Z</time>
      </trkpt>
      <trkpt lat="36.543168" lon="-5.315806">
        <ele>483.464</ele>
        <time>2015-06-21T10:24:10Z</time>
      </trkpt>
      <trkpt lat="36.543245" lon="-5.315776">
        <ele>483.813</ele>
        <time>2015-06-21T10:24:15Z</time>
      </trkpt>
      <trkpt lat="36.543261" lon="-5.315765">
        <ele>484.265</ele>
        <time>2015-06-21T10:24:16Z</time>
      </trkpt>
      <trkpt lat="36.543277" lon="-5.315753">
        <ele>484.689</ele>
        <time>2015-06-21T10:24:17Z</time>
      </trkpt>
      <trkpt lat="36.543288" lon="-5.315740">
        <ele>485.006</ele>
        <time>2015-06-21T10:24:18Z</time>
      </trkpt>
      <trkpt lat="36.543298" lon="-5.315727">
        <ele>485.626</ele>
        <time>2015-06-21T10:24:19Z</time>
      </trkpt>
      <trkpt lat="36.543359" lon="-5.315700">
        <ele>485.608</ele>
        <time>2015-06-21T10:24:23Z</time>
      </trkpt>
      <trkpt lat="36.543464" lon="-5.315676">
        <ele>485.679</ele>
        <time>2015-06-21T10:24:29Z</time>
      </trkpt>
      <trkpt lat="36.543553" lon="-5.315665">
        <ele>485.645</ele>
        <time>2015-06-21T10:24:35Z</time>
      </trkpt>
      <trkpt lat="36.543587" lon="-5.315675">
        <ele>486.068</ele>
        <time>2015-06-21T10:24:39Z</time>
      </trkpt>
      <trkpt lat="36.543597" lon="-5.315677">
        <ele>486.498</ele>
        <time>2015-06-21T10:24:40Z</time>
      </trkpt>
      <trkpt lat="36.543612" lon="-5.315678">
        <ele>486.822</ele>
        <time>2015-06-21T10:24:41Z</time>
      </trkpt>
      <trkpt lat="36.543625" lon="-5.315678">
        <ele>487.259</ele>
        <time>2015-06-21T10:24:42Z</time>
      </trkpt>
      <trkpt lat="36.543641" lon="-5.315682">
        <ele>487.698</ele>
        <time>2015-06-21T10:24:43Z</time>
      </trkpt>
      <trkpt lat="36.543710" lon="-5.315712">
        <ele>487.620</ele>
        <time>2015-06-21T10:24:48Z</time>
      </trkpt>
      <trkpt lat="36.543841" lon="-5.315741">
        <ele>487.625</ele>
        <time>2015-06-21T10:24:55Z</time>
      </trkpt>
      <trkpt lat="36.543901" lon="-5.315734">
        <ele>488.026</ele>
        <time>2015-06-21T10:24:58Z</time>
      </trkpt>
      <trkpt lat="36.543919" lon="-5.315732">
        <ele>488.408</ele>
        <time>2015-06-21T10:24:59Z</time>
      </trkpt>
      <trkpt lat="36.543936" lon="-5.315733">
        <ele>488.808</ele>
        <time>2015-06-21T10:25:00Z</time>
      </trkpt>
      <trkpt lat="36.543952" lon="-5.315732">
        <ele>489.253</ele>
        <time>2015-06-21T10:25:01Z</time>
      </trkpt>
      <trkpt lat="36.543970" lon="-5.315729">
        <ele>489.829</ele>
        <time>2015-06-21T10:25:02Z</time>
      </trkpt>
      <trkpt lat="36.544057" lon="-5.315704">
        <ele>489.862</ele>
        <time>2015-06-21T10:25:07Z</time>
      </trkpt>
      <trkpt lat="36.544136" lon="-5.315692">
        <ele>490.612</ele>
        <time>2015-06-21T10:25:11Z</time>
      </trkpt>
      <trkpt lat="36.544155" lon="-5.315684">
        <ele>491.026</ele>
        <time>2015-06-21T10:25:12Z</time>
      </trkpt>
      <trkpt lat="36.544174" lon="-5.315676">
        <ele>491.463</ele>
        <time>2015-06-21T10:25:13Z</time>
      </trkpt>
      <trkpt lat="36.544191" lon="-5.315666">
        <ele>491.812</ele>
        <time>2015-06-21T10:25:14Z</time>
      </trkpt>
      <trkpt lat="36.544273" lon="-5.315615">
        <ele>491.884</ele>
        <time>2015-06-21T10:25:19Z</time>
      </trkpt>
      <trkpt lat="36.544382" lon="-5.315529">
        <ele>491.871</ele>
        <time>2015-06-21T10:25:26Z</time>
      </trkpt>
      <trkpt lat="36.544393" lon="-5.315514">
        <ele>492.241</ele>
        <time>2015-06-21T10:25:27Z</time>
      </trkpt>
      <trkpt lat="36.544404" lon="-5.315498">
        <ele>492.615</ele>
        <time>2015-06-21T10:25:28Z</time>
      </trkpt>
      <trkpt lat="36.544417" lon="-5.315479">
        <ele>493.008</ele>
        <time>2015-06-21T10:25:29Z</time>
      </trkpt>
      <trkpt lat="36.544429" lon="-5.315463">
        <ele>493.438</ele>
        <time>2015-06-21T10:25:30Z</time>
      </trkpt>
      <trkpt lat="36.544441" lon="-5.315447">
        <ele>493.844</ele>
        <time>2015-06-21T10:25:31Z</time>
      </trkpt>
      <trkpt lat="36.544467" lon="-5.315417">
        <ele>493.837</ele>
        <time>2015-06-21T10:25:33Z</time>
      </trkpt>
      <trkpt lat="36.544580" lon="-5.315390">
        <ele>493.817</ele>
        <time>2015-06-21T10:25:39Z</time>
      </trkpt>
      <trkpt lat="36.544697" lon="-5.315331">
        <ele>493.811</ele>
        <time>2015-06-21T10:25:45Z</time>
      </trkpt>
      <trkpt lat="36.544749" lon="-5.315302">
        <ele>494.278</ele>
        <time>2015-06-21T10:25:48Z</time>
      </trkpt>
      <trkpt lat="36.544764" lon="-5.315285">
        <ele>494.697</ele>
        <time>2015-06-21T10:25:49Z</time>
      </trkpt>
      <trkpt lat="36.544780" lon="-5.315268">
        <ele>495.049</ele>
        <time>2015-06-21T10:25:50Z</time>
      </trkpt>
      <trkpt lat="36.544797" lon="-5.315253">
        <ele>495.436</ele>
        <time>2015-06-21T10:25:51Z</time>
      </trkpt>
      <trkpt lat="36.544811" lon="-5.315238">
        <ele>495.817</ele>
        <time>2015-06-21T10:25:52Z</time>
      </trkpt>
      <trkpt lat="36.544872" lon="-5.315160">
        <ele>495.818</ele>
        <time>2015-06-21T10:25:57Z</time>
      </trkpt>
      <trkpt lat="36.544952" lon="-5.315038">
        <ele>495.808</ele>
        <time>2015-06-21T10:26:03Z</time>
      </trkpt>
      <trkpt lat="36.544976" lon="-5.314994">
        <ele>496.264</ele>
        <time>2015-06-21T10:26:05Z</time>
      </trkpt>
      <trkpt lat="36.544989" lon="-5.314972">
        <ele>496.850</ele>
        <time>2015-06-21T10:26:06Z</time>
      </trkpt>
      <trkpt lat="36.545001" lon="-5.314951">
        <ele>497.283</ele>
        <time>2015-06-21T10:26:07Z</time>
      </trkpt>
      <trkpt lat="36.545017" lon="-5.314931">
        <ele>497.683</ele>
        <time>2015-06-21T10:26:08Z</time>
      </trkpt>
      <trkpt lat="36.545032" lon="-5.314912">
        <ele>498.037</ele>
        <time>2015-06-21T10:26:09Z</time>
      </trkpt>
      <trkpt lat="36.545099" lon="-5.314731">
        <ele>498.044</ele>
        <time>2015-06-21T10:26:17Z</time>
      </trkpt>
      <trkpt lat="36.545122" lon="-5.314559">
        <ele>498.063</ele>
        <time>2015-06-21T10:26:22Z</time>
      </trkpt>
      <trkpt lat="36.545141" lon="-5.314473">
        <ele>498.055</ele>
        <time>2015-06-21T10:26:25Z</time>
      </trkpt>
      <trkpt lat="36.545143" lon="-5.314410">
        <ele>498.096</ele>
        <time>2015-06-21T10:26:27Z</time>
      </trkpt>
      <trkpt lat="36.545125" lon="-5.314263">
        <ele>498.031</ele>
        <time>2015-06-21T10:26:30Z</time>
      </trkpt>
      <trkpt lat="36.545115" lon="-5.314211">
        <ele>498.024</ele>
        <time>2015-06-21T10:26:31Z</time>
      </trkpt>
      <trkpt lat="36.545107" lon="-5.314155">
        <ele>498.008</ele>
        <time>2015-06-21T10:26:32Z</time>
      </trkpt>
      <trkpt lat="36.545090" lon="-5.313886">
        <ele>498.040</ele>
        <time>2015-06-21T10:26:36Z</time>
      </trkpt>
      <trkpt lat="36.545119" lon="-5.313735">
        <ele>497.686</ele>
        <time>2015-06-21T10:26:38Z</time>
      </trkpt>
      <trkpt lat="36.545137" lon="-5.313655">
        <ele>497.039</ele>
        <time>2015-06-21T10:26:39Z</time>
      </trkpt>
      <trkpt lat="36.545146" lon="-5.313570">
        <ele>496.689</ele>
        <time>2015-06-21T10:26:40Z</time>
      </trkpt>
      <trkpt lat="36.545144" lon="-5.313480">
        <ele>496.253</ele>
        <time>2015-06-21T10:26:41Z</time>
      </trkpt>
      <trkpt lat="36.545133" lon="-5.313383">
        <ele>495.860</ele>
        <time>2015-06-21T10:26:42Z</time>
      </trkpt>
      <trkpt lat="36.545119" lon="-5.313286">
        <ele>495.899</ele>
        <time>2015-06-21T10:26:43Z</time>
      </trkpt>
      <trkpt lat="36.545101" lon="-5.313067">
        <ele>494.811</ele>
        <time>2015-06-21T10:26:44Z</time>
      </trkpt>
      <trkpt lat="36.545105" lon="-5.312957">
        <ele>494.293</ele>
        <time>2015-06-21T10:26:47Z</time>
      </trkpt>
      <trkpt lat="36.545113" lon="-5.312863">
        <ele>493.865</ele>
        <time>2015-06-21T10:26:48Z</time>
      </trkpt>
      <trkpt lat="36.545128" lon="-5.312786">
        <ele>493.221</ele>
        <time>2015-06-21T10:26:49Z</time>
      </trkpt>
      <trkpt lat="36.545152" lon="-5.312726">
        <ele>492.808</ele>
        <time>2015-06-21T10:26:50Z</time>
      </trkpt>
      <trkpt lat="36.545189" lon="-5.312690">
        <ele>492.450</ele>
        <time>2015-06-21T10:26:51Z</time>
      </trkpt>
      <trkpt lat="36.545248" lon="-5.312690">
        <ele>491.426</ele>
        <time>2015-06-21T10:26:52Z</time>
      </trkpt>
      <trkpt lat="36.545303" lon="-5.312724">
        <ele>491.019</ele>
        <time>2015-06-21T10:26:53Z</time>
      </trkpt>
      <trkpt lat="36.545366" lon="-5.312844">
        <ele>490.659</ele>
        <time>2015-06-21T10:26:55Z</time>
      </trkpt>
      <trkpt lat="36.545377" lon="-5.312902">
        <ele>490.243</ele>
        <time>2015-06-21T10:26:56Z</time>
      </trkpt>
      <trkpt lat="36.545390" lon="-5.312953">
        <ele>489.840</ele>
        <time>2015-06-21T10:26:57Z</time>
      </trkpt>
      <trkpt lat="36.545400" lon="-5.312994">
        <ele>489.449</ele>
        <time>2015-06-21T10:26:58Z</time>
      </trkpt>
      <trkpt lat="36.545414" lon="-5.313024">
        <ele>489.041</ele>
        <time>2015-06-21T10:26:59Z</time>
      </trkpt>
      <trkpt lat="36.545467" lon="-5.313110">
        <ele>489.049</ele>
        <time>2015-06-21T10:27:02Z</time>
      </trkpt>
      <trkpt lat="36.545478" lon="-5.313162">
        <ele>489.002</ele>
        <time>2015-06-21T10:27:04Z</time>
      </trkpt>
      <trkpt lat="36.545482" lon="-5.313183">
        <ele>489.022</ele>
        <time>2015-06-21T10:27:05Z</time>
      </trkpt>
      <trkpt lat="36.545533" lon="-5.313306">
        <ele>489.008</ele>
        <time>2015-06-21T10:27:11Z</time>
      </trkpt>
      <trkpt lat="36.545543" lon="-5.313324">
        <ele>489.085</ele>
        <time>2015-06-21T10:27:12Z</time>
      </trkpt>
      <trkpt lat="36.545593" lon="-5.313449">
        <ele>489.081</ele>
        <time>2015-06-21T10:27:20Z</time>
      </trkpt>
      <trkpt lat="36.545596" lon="-5.313474">
        <ele>489.484</ele>
        <time>2015-06-21T10:27:22Z</time>
      </trkpt>
      <trkpt lat="36.545599" lon="-5.313485">
        <ele>490.014</ele>
        <time>2015-06-21T10:27:23Z</time>
      </trkpt>
      <trkpt lat="36.545604" lon="-5.313496">
        <ele>490.618</ele>
        <time>2015-06-21T10:27:24Z</time>
      </trkpt>
      <trkpt lat="36.545608" lon="-5.313509">
        <ele>491.035</ele>
        <time>2015-06-21T10:27:25Z</time>
      </trkpt>
      <trkpt lat="36.545615" lon="-5.313520">
        <ele>491.654</ele>
        <time>2015-06-21T10:27:26Z</time>
      </trkpt>
      <trkpt lat="36.545621" lon="-5.313532">
        <ele>491.636</ele>
        <time>2015-06-21T10:27:27Z</time>
      </trkpt>
      <trkpt lat="36.545634" lon="-5.313556">
        <ele>491.631</ele>
        <time>2015-06-21T10:27:29Z</time>
      </trkpt>
      <trkpt lat="36.545644" lon="-5.313603">
        <ele>491.661</ele>
        <time>2015-06-21T10:27:33Z</time>
      </trkpt>
      <trkpt lat="36.545658" lon="-5.313679">
        <ele>491.607</ele>
        <time>2015-06-21T10:27:37Z</time>
      </trkpt>
      <trkpt lat="36.545657" lon="-5.313713">
        <ele>491.608</ele>
        <time>2015-06-21T10:27:39Z</time>
      </trkpt>
      <trkpt lat="36.545668" lon="-5.313836">
        <ele>491.624</ele>
        <time>2015-06-21T10:27:45Z</time>
      </trkpt>
      <trkpt lat="36.545672" lon="-5.313858">
        <ele>491.640</ele>
        <time>2015-06-21T10:27:46Z</time>
      </trkpt>
      <trkpt lat="36.545681" lon="-5.313918">
        <ele>492.063</ele>
        <time>2015-06-21T10:27:49Z</time>
      </trkpt>
      <trkpt lat="36.545685" lon="-5.313937">
        <ele>492.423</ele>
        <time>2015-06-21T10:27:50Z</time>
      </trkpt>
      <trkpt lat="36.545694" lon="-5.313955">
        <ele>492.857</ele>
        <time>2015-06-21T10:27:51Z</time>
      </trkpt>
      <trkpt lat="36.545703" lon="-5.313973">
        <ele>493.264</ele>
        <time>2015-06-21T10:27:52Z</time>
      </trkpt>
      <trkpt lat="36.545711" lon="-5.313992">
        <ele>493.613</ele>
        <time>2015-06-21T10:27:53Z</time>
      </trkpt>
      <trkpt lat="36.545771" lon="-5.314087">
        <ele>493.635</ele>
        <time>2015-06-21T10:27:59Z</time>
      </trkpt>
      <trkpt lat="36.545781" lon="-5.314104">
        <ele>493.656</ele>
        <time>2015-06-21T10:28:00Z</time>
      </trkpt>
      <trkpt lat="36.545798" lon="-5.314135">
        <ele>494.059</ele>
        <time>2015-06-21T10:28:02Z</time>
      </trkpt>
      <trkpt lat="36.545808" lon="-5.314151">
        <ele>494.614</ele>
        <time>2015-06-21T10:28:03Z</time>
      </trkpt>
      <trkpt lat="36.545816" lon="-5.314168">
        <ele>495.008</ele>
        <time>2015-06-21T10:28:04Z</time>
      </trkpt>
      <trkpt lat="36.545824" lon="-5.314184">
        <ele>495.466</ele>
        <time>2015-06-21T10:28:05Z</time>
      </trkpt>
      <trkpt lat="36.545833" lon="-5.314203">
        <ele>495.872</ele>
        <time>2015-06-21T10:28:06Z</time>
      </trkpt>
      <trkpt lat="36.545865" lon="-5.314278">
        <ele>495.815</ele>
        <time>2015-06-21T10:28:10Z</time>
      </trkpt>
      <trkpt lat="36.545917" lon="-5.314370">
        <ele>496.215</ele>
        <time>2015-06-21T10:28:16Z</time>
      </trkpt>
      <trkpt lat="36.545925" lon="-5.314384">
        <ele>496.649</ele>
        <time>2015-06-21T10:28:17Z</time>
      </trkpt>
      <trkpt lat="36.545929" lon="-5.314392">
        <ele>497.076</ele>
        <time>2015-06-21T10:28:18Z</time>
      </trkpt>
      <trkpt lat="36.545930" lon="-5.314396">
        <ele>497.425</ele>
        <time>2015-06-21T10:28:19Z</time>
      </trkpt>
      <trkpt lat="36.545932" lon="-5.314391">
        <ele>497.817</ele>
        <time>2015-06-21T10:28:20Z</time>
      </trkpt>
      <trkpt lat="36.545932" lon="-5.314392">
        <ele>497.844</ele>
        <time>2015-06-21T10:28:24Z</time>
      </trkpt>
      <trkpt lat="36.545932" lon="-5.314392">
        <ele>497.805</ele>
        <time>2015-06-21T10:28:36Z</time>
      </trkpt>
      <trkpt lat="36.545932" lon="-5.314392">
        <ele>497.815</ele>
        <time>2015-06-21T10:28:41Z</time>
      </trkpt>
      <trkpt lat="36.545932" lon="-5.314392">
        <ele>497.808</ele>
        <time>2015-06-21T10:28:44Z</time>
      </trkpt>
      <trkpt lat="36.545932" lon="-5.314392">
        <ele>497.855</ele>
        <time>2015-06-21T10:28:47Z</time>
      </trkpt>
      <trkpt lat="36.545932" lon="-5.314392">
        <ele>497.881</ele>
        <time>2015-06-21T10:28:59Z</time>
      </trkpt>
      <trkpt lat="36.545933" lon="-5.314392">
        <ele>497.854</ele>
        <time>2015-06-21T10:29:02Z</time>
      </trkpt>
      <trkpt lat="36.545933" lon="-5.314392">
        <ele>497.854</ele>
        <time>2015-06-21T10:29:03Z</time>
      </trkpt>
      <trkpt lat="36.545933" lon="-5.314392">
        <ele>497.818</ele>
        <time>2015-06-21T10:29:04Z</time>
      </trkpt>
      <trkpt lat="36.545933" lon="-5.314392">
        <ele>497.885</ele>
        <time>2015-06-21T10:29:06Z</time>
      </trkpt>
      <trkpt lat="36.545933" lon="-5.314392">
        <ele>497.854</ele>
        <time>2015-06-21T10:29:09Z</time>
      </trkpt>
      <trkpt lat="36.545933" lon="-5.314392">
        <ele>497.836</ele>
        <time>2015-06-21T10:29:12Z</time>
      </trkpt>
      <trkpt lat="36.545933" lon="-5.314392">
        <ele>497.814</ele>
        <time>2015-06-21T10:29:24Z</time>
      </trkpt>
      <trkpt lat="36.545933" lon="-5.314392">
        <ele>497.854</ele>
        <time>2015-06-21T10:29:25Z</time>
      </trkpt>
      <trkpt lat="36.545933" lon="-5.314392">
        <ele>497.809</ele>
        <time>2015-06-21T10:29:33Z</time>
      </trkpt>
      <trkpt lat="36.545933" lon="-5.314392">
        <ele>497.808</ele>
        <time>2015-06-21T10:29:38Z</time>
      </trkpt>
      <trkpt lat="36.545931" lon="-5.314391">
        <ele>497.882</ele>
        <time>2015-06-21T10:29:45Z</time>
      </trkpt>
      <trkpt lat="36.545931" lon="-5.314391">
        <ele>497.838</ele>
        <time>2015-06-21T10:29:48Z</time>
      </trkpt>
      <trkpt lat="36.545931" lon="-5.314391">
        <ele>497.871</ele>
        <time>2015-06-21T10:29:50Z</time>
      </trkpt>
      <trkpt lat="36.545931" lon="-5.314391">
        <ele>497.811</ele>
        <time>2015-06-21T10:29:54Z</time>
      </trkpt>
      <trkpt lat="36.545931" lon="-5.314391">
        <ele>497.825</ele>
        <time>2015-06-21T10:30:02Z</time>
      </trkpt>
      <trkpt lat="36.545931" lon="-5.314391">
        <ele>497.892</ele>
        <time>2015-06-21T10:30:05Z</time>
      </trkpt>
      <trkpt lat="36.545931" lon="-5.314391">
        <ele>497.871</ele>
        <time>2015-06-21T10:30:08Z</time>
      </trkpt>
      <trkpt lat="36.545931" lon="-5.314391">
        <ele>497.843</ele>
        <time>2015-06-21T10:30:11Z</time>
      </trkpt>
      <trkpt lat="36.545931" lon="-5.314391">
        <ele>497.847</ele>
        <time>2015-06-21T10:30:15Z</time>
      </trkpt>
      <trkpt lat="36.545931" lon="-5.314392">
        <ele>497.829</ele>
        <time>2015-06-21T10:30:22Z</time>
      </trkpt>
      <trkpt lat="36.545944" lon="-5.314394">
        <ele>497.821</ele>
        <time>2015-06-21T10:30:30Z</time>
      </trkpt>
      <trkpt lat="36.545953" lon="-5.314404">
        <ele>497.808</ele>
        <time>2015-06-21T10:30:31Z</time>
      </trkpt>
      <trkpt lat="36.546017" lon="-5.314478">
        <ele>497.845</ele>
        <time>2015-06-21T10:30:38Z</time>
      </trkpt>
      <trkpt lat="36.546085" lon="-5.314547">
        <ele>498.231</ele>
        <time>2015-06-21T10:30:43Z</time>
      </trkpt>
      <trkpt lat="36.546095" lon="-5.314565">
        <ele>498.674</ele>
        <time>2015-06-21T10:30:44Z</time>
      </trkpt>
      <trkpt lat="36.546101" lon="-5.314588">
        <ele>499.064</ele>
        <time>2015-06-21T10:30:45Z</time>
      </trkpt>
      <trkpt lat="36.546101" lon="-5.314611">
        <ele>499.418</ele>
        <time>2015-06-21T10:30:46Z</time>
      </trkpt>
      <trkpt lat="36.546099" lon="-5.314634">
        <ele>499.895</ele>
        <time>2015-06-21T10:30:47Z</time>
      </trkpt>
      <trkpt lat="36.546080" lon="-5.314693">
        <ele>499.844</ele>
        <time>2015-06-21T10:30:50Z</time>
      </trkpt>
      <trkpt lat="36.546055" lon="-5.314798">
        <ele>499.846</ele>
        <time>2015-06-21T10:30:55Z</time>
      </trkpt>
      <trkpt lat="36.546048" lon="-5.314834">
        <ele>499.855</ele>
        <time>2015-06-21T10:30:57Z</time>
      </trkpt>
      <trkpt lat="36.546048" lon="-5.314920">
        <ele>500.207</ele>
        <time>2015-06-21T10:31:02Z</time>
      </trkpt>
      <trkpt lat="36.546049" lon="-5.314939">
        <ele>500.617</ele>
        <time>2015-06-21T10:31:03Z</time>
      </trkpt>
      <trkpt lat="36.546054" lon="-5.314958">
        <ele>501.008</ele>
        <time>2015-06-21T10:31:04Z</time>
      </trkpt>
      <trkpt lat="36.546059" lon="-5.314977">
        <ele>501.686</ele>
        <time>2015-06-21T10:31:05Z</time>
      </trkpt>
      <trkpt lat="36.546062" lon="-5.314997">
        <ele>502.062</ele>
        <time>2015-06-21T10:31:06Z</time>
      </trkpt>
      <trkpt lat="36.546071" lon="-5.315062">
        <ele>502.025</ele>
        <time>2015-06-21T10:31:09Z</time>
      </trkpt>
      <trkpt lat="36.546072" lon="-5.315120">
        <ele>502.045</ele>
        <time>2015-06-21T10:31:12Z</time>
      </trkpt>
      <trkpt lat="36.546079" lon="-5.315183">
        <ele>502.049</ele>
        <time>2015-06-21T10:31:15Z</time>
      </trkpt>
      <trkpt lat="36.546084" lon="-5.315224">
        <ele>502.896</ele>
        <time>2015-06-21T10:31:17Z</time>
      </trkpt>
      <trkpt lat="36.546088" lon="-5.315246">
        <ele>503.255</ele>
        <time>2015-06-21T10:31:18Z</time>
      </trkpt>
      <trkpt lat="36.546090" lon="-5.315271">
        <ele>503.677</ele>
        <time>2015-06-21T10:31:19Z</time>
      </trkpt>
      <trkpt lat="36.546091" lon="-5.315295">
        <ele>504.047</ele>
        <time>2015-06-21T10:31:20Z</time>
      </trkpt>
      <trkpt lat="36.546095" lon="-5.315378">
        <ele>504.029</ele>
        <time>2015-06-21T10:31:24Z</time>
      </trkpt>
      <trkpt lat="36.546078" lon="-5.315528">
        <ele>504.021</ele>
        <time>2015-06-21T10:31:31Z</time>
      </trkpt>
      <trkpt lat="36.546071" lon="-5.315682">
        <ele>504.008</ele>
        <time>2015-06-21T10:31:38Z</time>
      </trkpt>
      <trkpt lat="36.546073" lon="-5.315723">
        <ele>504.475</ele>
        <time>2015-06-21T10:31:40Z</time>
      </trkpt>
      <trkpt lat="36.546080" lon="-5.315744">
        <ele>504.871</ele>
        <time>2015-06-21T10:31:41Z</time>
      </trkpt>
      <trkpt lat="36.546088" lon="-5.315760">
        <ele>505.854</ele>
        <time>2015-06-21T10:31:42Z</time>
      </trkpt>
      <trkpt lat="36.546096" lon="-5.315774">
        <ele>506.294</ele>
        <time>2015-06-21T10:31:43Z</time>
      </trkpt>
      <trkpt lat="36.546103" lon="-5.315792">
        <ele>506.298</ele>
        <time>2015-06-21T10:31:44Z</time>
      </trkpt>
      <trkpt lat="36.546144" lon="-5.315917">
        <ele>506.235</ele>
        <time>2015-06-21T10:31:50Z</time>
      </trkpt>
      <trkpt lat="36.546160" lon="-5.315967">
        <ele>506.284</ele>
        <time>2015-06-21T10:31:52Z</time>
      </trkpt>
      <trkpt lat="36.546168" lon="-5.315987">
        <ele>506.636</ele>
        <time>2015-06-21T10:31:53Z</time>
      </trkpt>
      <trkpt lat="36.546179" lon="-5.316009">
        <ele>507.066</ele>
        <time>2015-06-21T10:31:54Z</time>
      </trkpt>
      <trkpt lat="36.546191" lon="-5.316026">
        <ele>507.429</ele>
        <time>2015-06-21T10:31:55Z</time>
      </trkpt>
      <trkpt lat="36.546203" lon="-5.316047">
        <ele>507.821</ele>
        <time>2015-06-21T10:31:56Z</time>
      </trkpt>
      <trkpt lat="36.546215" lon="-5.316064">
        <ele>508.208</ele>
        <time>2015-06-21T10:31:57Z</time>
      </trkpt>
      <trkpt lat="36.546293" lon="-5.316156">
        <ele>508.217</ele>
        <time>2015-06-21T10:32:03Z</time>
      </trkpt>
      <trkpt lat="36.546387" lon="-5.316292">
        <ele>508.853</ele>
        <time>2015-06-21T10:32:11Z</time>
      </trkpt>
      <trkpt lat="36.546396" lon="-5.316312">
        <ele>509.216</ele>
        <time>2015-06-21T10:32:12Z</time>
      </trkpt>
      <trkpt lat="36.546401" lon="-5.316332">
        <ele>509.616</ele>
        <time>2015-06-21T10:32:13Z</time>
      </trkpt>
      <trkpt lat="36.546403" lon="-5.316356">
        <ele>510.050</ele>
        <time>2015-06-21T10:32:14Z</time>
      </trkpt>
      <trkpt lat="36.546407" lon="-5.316380">
        <ele>510.487</ele>
        <time>2015-06-21T10:32:15Z</time>
      </trkpt>
      <trkpt lat="36.546414" lon="-5.316453">
        <ele>510.476</ele>
        <time>2015-06-21T10:32:18Z</time>
      </trkpt>
      <trkpt lat="36.546425" lon="-5.316591">
        <ele>510.438</ele>
        <time>2015-06-21T10:32:24Z</time>
      </trkpt>
      <trkpt lat="36.546433" lon="-5.316639">
        <ele>511.091</ele>
        <time>2015-06-21T10:32:26Z</time>
      </trkpt>
      <trkpt lat="36.546433" lon="-5.316662">
        <ele>511.481</ele>
        <time>2015-06-21T10:32:27Z</time>
      </trkpt>
      <trkpt lat="36.546436" lon="-5.316686">
        <ele>511.819</ele>
        <time>2015-06-21T10:32:28Z</time>
      </trkpt>
      <trkpt lat="36.546441" lon="-5.316710">
        <ele>512.208</ele>
        <time>2015-06-21T10:32:29Z</time>
      </trkpt>
      <trkpt lat="36.546449" lon="-5.316731">
        <ele>512.620</ele>
        <time>2015-06-21T10:32:30Z</time>
      </trkpt>
      <trkpt lat="36.546534" lon="-5.316864">
        <ele>512.616</ele>
        <time>2015-06-21T10:32:38Z</time>
      </trkpt>
      <trkpt lat="36.546586" lon="-5.316984">
        <ele>513.039</ele>
        <time>2015-06-21T10:32:45Z</time>
      </trkpt>
      <trkpt lat="36.546592" lon="-5.316993">
        <ele>513.499</ele>
        <time>2015-06-21T10:32:46Z</time>
      </trkpt>
      <trkpt lat="36.546595" lon="-5.317004">
        <ele>513.873</ele>
        <time>2015-06-21T10:32:47Z</time>
      </trkpt>
      <trkpt lat="36.546598" lon="-5.317021">
        <ele>514.260</ele>
        <time>2015-06-21T10:32:48Z</time>
      </trkpt>
      <trkpt lat="36.546600" lon="-5.317042">
        <ele>514.629</ele>
        <time>2015-06-21T10:32:49Z</time>
      </trkpt>
      <trkpt lat="36.546589" lon="-5.317072">
        <ele>514.631</ele>
        <time>2015-06-21T10:32:51Z</time>
      </trkpt>
      <trkpt lat="36.546520" lon="-5.317128">
        <ele>514.668</ele>
        <time>2015-06-21T10:32:56Z</time>
      </trkpt>
      <trkpt lat="36.546423" lon="-5.317150">
        <ele>515.042</ele>
        <time>2015-06-21T10:33:02Z</time>
      </trkpt>
      <trkpt lat="36.546406" lon="-5.317152">
        <ele>515.426</ele>
        <time>2015-06-21T10:33:03Z</time>
      </trkpt>
      <trkpt lat="36.546392" lon="-5.317158">
        <ele>515.808</ele>
        <time>2015-06-21T10:33:04Z</time>
      </trkpt>
      <trkpt lat="36.546377" lon="-5.317161">
        <ele>516.237</ele>
        <time>2015-06-21T10:33:05Z</time>
      </trkpt>
      <trkpt lat="36.546360" lon="-5.317165">
        <ele>516.613</ele>
        <time>2015-06-21T10:33:06Z</time>
      </trkpt>
      <trkpt lat="36.546342" lon="-5.317167">
        <ele>516.646</ele>
        <time>2015-06-21T10:33:07Z</time>
      </trkpt>
      <trkpt lat="36.546323" lon="-5.317170">
        <ele>516.626</ele>
        <time>2015-06-21T10:33:08Z</time>
      </trkpt>
      <trkpt lat="36.546207" lon="-5.317171">
        <ele>516.660</ele>
        <time>2015-06-21T10:33:15Z</time>
      </trkpt>
      <trkpt lat="36.546174" lon="-5.317181">
        <ele>517.057</ele>
        <time>2015-06-21T10:33:17Z</time>
      </trkpt>
      <trkpt lat="36.546157" lon="-5.317188">
        <ele>517.426</ele>
        <time>2015-06-21T10:33:18Z</time>
      </trkpt>
      <trkpt lat="36.546142" lon="-5.317190">
        <ele>518.018</ele>
        <time>2015-06-21T10:33:19Z</time>
      </trkpt>
      <trkpt lat="36.546131" lon="-5.317200">
        <ele>518.864</ele>
        <time>2015-06-21T10:33:20Z</time>
      </trkpt>
      <trkpt lat="36.546088" lon="-5.317266">
        <ele>518.806</ele>
        <time>2015-06-21T10:33:24Z</time>
      </trkpt>
      <trkpt lat="36.546079" lon="-5.317280">
        <ele>518.816</ele>
        <time>2015-06-21T10:33:25Z</time>
      </trkpt>
      <trkpt lat="36.546070" lon="-5.317313">
        <ele>519.208</ele>
        <time>2015-06-21T10:33:27Z</time>
      </trkpt>
      <trkpt lat="36.546064" lon="-5.317331">
        <ele>519.667</ele>
        <time>2015-06-21T10:33:28Z</time>
      </trkpt>
      <trkpt lat="36.546059" lon="-5.317351">
        <ele>520.023</ele>
        <time>2015-06-21T10:33:29Z</time>
      </trkpt>
      <trkpt lat="36.546050" lon="-5.317367">
        <ele>520.626</ele>
        <time>2015-06-21T10:33:30Z</time>
      </trkpt>
      <trkpt lat="36.546042" lon="-5.317383">
        <ele>521.076</ele>
        <time>2015-06-21T10:33:31Z</time>
      </trkpt>
      <trkpt lat="36.546029" lon="-5.317397">
        <ele>521.030</ele>
        <time>2015-06-21T10:33:32Z</time>
      </trkpt>
      <trkpt lat="36.545950" lon="-5.317448">
        <ele>521.087</ele>
        <time>2015-06-21T10:33:37Z</time>
      </trkpt>
      <trkpt lat="36.545833" lon="-5.317520">
        <ele>521.426</ele>
        <time>2015-06-21T10:33:44Z</time>
      </trkpt>
      <trkpt lat="36.545811" lon="-5.317525">
        <ele>522.258</ele>
        <time>2015-06-21T10:33:45Z</time>
      </trkpt>
      <trkpt lat="36.545793" lon="-5.317535">
        <ele>522.665</ele>
        <time>2015-06-21T10:33:46Z</time>
      </trkpt>
      <trkpt lat="36.545777" lon="-5.317541">
        <ele>523.068</ele>
        <time>2015-06-21T10:33:47Z</time>
      </trkpt>
      <trkpt lat="36.545729" lon="-5.317547">
        <ele>523.014</ele>
        <time>2015-06-21T10:33:50Z</time>
      </trkpt>
      <trkpt lat="36.545648" lon="-5.317567">
        <ele>523.408</ele>
        <time>2015-06-21T10:33:55Z</time>
      </trkpt>
      <trkpt lat="36.545634" lon="-5.317581">
        <ele>524.047</ele>
        <time>2015-06-21T10:33:56Z</time>
      </trkpt>
      <trkpt lat="36.545621" lon="-5.317599">
        <ele>524.423</ele>
        <time>2015-06-21T10:33:57Z</time>
      </trkpt>
      <trkpt lat="36.545609" lon="-5.317618">
        <ele>524.826</ele>
        <time>2015-06-21T10:33:58Z</time>
      </trkpt>
      <trkpt lat="36.545595" lon="-5.317634">
        <ele>525.296</ele>
        <time>2015-06-21T10:33:59Z</time>
      </trkpt>
      <trkpt lat="36.545561" lon="-5.317726">
        <ele>525.280</ele>
        <time>2015-06-21T10:34:04Z</time>
      </trkpt>
      <trkpt lat="36.545548" lon="-5.317799">
        <ele>525.687</ele>
        <time>2015-06-21T10:34:08Z</time>
      </trkpt>
      <trkpt lat="36.545545" lon="-5.317820">
        <ele>526.066</ele>
        <time>2015-06-21T10:34:09Z</time>
      </trkpt>
      <trkpt lat="36.545535" lon="-5.317842">
        <ele>527.068</ele>
        <time>2015-06-21T10:34:10Z</time>
      </trkpt>
      <trkpt lat="36.545522" lon="-5.317863">
        <ele>527.476</ele>
        <time>2015-06-21T10:34:11Z</time>
      </trkpt>
      <trkpt lat="36.545474" lon="-5.317960">
        <ele>527.490</ele>
        <time>2015-06-21T10:34:16Z</time>
      </trkpt>
      <trkpt lat="36.545400" lon="-5.318108">
        <ele>527.419</ele>
        <time>2015-06-21T10:34:23Z</time>
      </trkpt>
      <trkpt lat="36.545339" lon="-5.318219">
        <ele>527.408</ele>
        <time>2015-06-21T10:34:28Z</time>
      </trkpt>
      <trkpt lat="36.545310" lon="-5.318287">
        <ele>527.488</ele>
        <time>2015-06-21T10:34:31Z</time>
      </trkpt>
      <trkpt lat="36.545237" lon="-5.318422">
        <ele>527.494</ele>
        <time>2015-06-21T10:34:37Z</time>
      </trkpt>
      <trkpt lat="36.545160" lon="-5.318549">
        <ele>527.827</ele>
        <time>2015-06-21T10:34:43Z</time>
      </trkpt>
      <trkpt lat="36.545148" lon="-5.318575">
        <ele>528.257</ele>
        <time>2015-06-21T10:34:44Z</time>
      </trkpt>
      <trkpt lat="36.545134" lon="-5.318597">
        <ele>528.631</ele>
        <time>2015-06-21T10:34:45Z</time>
      </trkpt>
      <trkpt lat="36.545119" lon="-5.318616">
        <ele>529.018</ele>
        <time>2015-06-21T10:34:46Z</time>
      </trkpt>
      <trkpt lat="36.545105" lon="-5.318639">
        <ele>529.497</ele>
        <time>2015-06-21T10:34:47Z</time>
      </trkpt>
      <trkpt lat="36.545013" lon="-5.318730">
        <ele>529.419</ele>
        <time>2015-06-21T10:34:52Z</time>
      </trkpt>
      <trkpt lat="36.544903" lon="-5.318841">
        <ele>529.469</ele>
        <time>2015-06-21T10:34:58Z</time>
      </trkpt>
      <trkpt lat="36.544768" lon="-5.318952">
        <ele>529.404</ele>
        <time>2015-06-21T10:35:06Z</time>
      </trkpt>
      <trkpt lat="36.544726" lon="-5.319007">
        <ele>529.824</ele>
        <time>2015-06-21T10:35:09Z</time>
      </trkpt>
      <trkpt lat="36.544712" lon="-5.319021">
        <ele>530.208</ele>
        <time>2015-06-21T10:35:10Z</time>
      </trkpt>
      <trkpt lat="36.544700" lon="-5.319036">
        <ele>530.667</ele>
        <time>2015-06-21T10:35:11Z</time>
      </trkpt>
      <trkpt lat="36.544685" lon="-5.319052">
        <ele>531.053</ele>
        <time>2015-06-21T10:35:12Z</time>
      </trkpt>
      <trkpt lat="36.544665" lon="-5.319065">
        <ele>531.466</ele>
        <time>2015-06-21T10:35:13Z</time>
      </trkpt>
      <trkpt lat="36.544598" lon="-5.319136">
        <ele>531.446</ele>
        <time>2015-06-21T10:35:18Z</time>
      </trkpt>
      <trkpt lat="36.544579" lon="-5.319175">
        <ele>531.860</ele>
        <time>2015-06-21T10:35:20Z</time>
      </trkpt>
      <trkpt lat="36.544564" lon="-5.319194">
        <ele>532.267</ele>
        <time>2015-06-21T10:35:21Z</time>
      </trkpt>
      <trkpt lat="36.544550" lon="-5.319210">
        <ele>532.646</ele>
        <time>2015-06-21T10:35:22Z</time>
      </trkpt>
      <trkpt lat="36.544536" lon="-5.319223">
        <ele>533.468</ele>
        <time>2015-06-21T10:35:23Z</time>
      </trkpt>
      <trkpt lat="36.544475" lon="-5.319281">
        <ele>533.427</ele>
        <time>2015-06-21T10:35:27Z</time>
      </trkpt>
      <trkpt lat="36.544396" lon="-5.319400">
        <ele>533.468</ele>
        <time>2015-06-21T10:35:33Z</time>
      </trkpt>
      <trkpt lat="36.544336" lon="-5.319554">
        <ele>533.414</ele>
        <time>2015-06-21T10:35:40Z</time>
      </trkpt>
      <trkpt lat="36.544331" lon="-5.319577">
        <ele>533.808</ele>
        <time>2015-06-21T10:35:41Z</time>
      </trkpt>
      <trkpt lat="36.544334" lon="-5.319602">
        <ele>534.463</ele>
        <time>2015-06-21T10:35:42Z</time>
      </trkpt>
      <trkpt lat="36.544339" lon="-5.319629">
        <ele>534.819</ele>
        <time>2015-06-21T10:35:43Z</time>
      </trkpt>
      <trkpt lat="36.544345" lon="-5.319656">
        <ele>535.272</ele>
        <time>2015-06-21T10:35:44Z</time>
      </trkpt>
      <trkpt lat="36.544355" lon="-5.319681">
        <ele>535.652</ele>
        <time>2015-06-21T10:35:45Z</time>
      </trkpt>
      <trkpt lat="36.544372" lon="-5.319722">
        <ele>535.636</ele>
        <time>2015-06-21T10:35:47Z</time>
      </trkpt>
      <trkpt lat="36.544416" lon="-5.319807">
        <ele>536.023</ele>
        <time>2015-06-21T10:35:51Z</time>
      </trkpt>
      <trkpt lat="36.544428" lon="-5.319827">
        <ele>536.472</ele>
        <time>2015-06-21T10:35:52Z</time>
      </trkpt>
      <trkpt lat="36.544441" lon="-5.319846">
        <ele>536.884</ele>
        <time>2015-06-21T10:35:53Z</time>
      </trkpt>
      <trkpt lat="36.544454" lon="-5.319865">
        <ele>537.213</ele>
        <time>2015-06-21T10:35:54Z</time>
      </trkpt>
      <trkpt lat="36.544468" lon="-5.319886">
        <ele>537.643</ele>
        <time>2015-06-21T10:35:55Z</time>
      </trkpt>
      <trkpt lat="36.544557" lon="-5.319998">
        <ele>537.607</ele>
        <time>2015-06-21T10:36:02Z</time>
      </trkpt>
      <trkpt lat="36.544602" lon="-5.320061">
        <ele>538.008</ele>
        <time>2015-06-21T10:36:06Z</time>
      </trkpt>
      <trkpt lat="36.544611" lon="-5.320075">
        <ele>538.432</ele>
        <time>2015-06-21T10:36:07Z</time>
      </trkpt>
      <trkpt lat="36.544620" lon="-5.320090">
        <ele>538.848</ele>
        <time>2015-06-21T10:36:08Z</time>
      </trkpt>
      <trkpt lat="36.544624" lon="-5.320106">
        <ele>539.231</ele>
        <time>2015-06-21T10:36:09Z</time>
      </trkpt>
      <trkpt lat="36.544634" lon="-5.320117">
        <ele>539.681</ele>
        <time>2015-06-21T10:36:10Z</time>
      </trkpt>
      <trkpt lat="36.544673" lon="-5.320119">
        <ele>539.665</ele>
        <time>2015-06-21T10:36:13Z</time>
      </trkpt>
      <trkpt lat="36.544689" lon="-5.320124">
        <ele>539.662</ele>
        <time>2015-06-21T10:36:14Z</time>
      </trkpt>
      <trkpt lat="36.544748" lon="-5.320109">
        <ele>539.681</ele>
        <time>2015-06-21T10:36:18Z</time>
      </trkpt>
      <trkpt lat="36.544776" lon="-5.320099">
        <ele>540.043</ele>
        <time>2015-06-21T10:36:20Z</time>
      </trkpt>
      <trkpt lat="36.544793" lon="-5.320091">
        <ele>540.681</ele>
        <time>2015-06-21T10:36:21Z</time>
      </trkpt>
      <trkpt lat="36.544808" lon="-5.320078">
        <ele>541.061</ele>
        <time>2015-06-21T10:36:22Z</time>
      </trkpt>
      <trkpt lat="36.544825" lon="-5.320064">
        <ele>541.417</ele>
        <time>2015-06-21T10:36:23Z</time>
      </trkpt>
      <trkpt lat="36.544842" lon="-5.320054">
        <ele>541.808</ele>
        <time>2015-06-21T10:36:24Z</time>
      </trkpt>
      <trkpt lat="36.544856" lon="-5.320042">
        <ele>541.819</ele>
        <time>2015-06-21T10:36:25Z</time>
      </trkpt>
      <trkpt lat="36.544955" lon="-5.319952">
        <ele>541.835</ele>
        <time>2015-06-21T10:36:32Z</time>
      </trkpt>
      <trkpt lat="36.545056" lon="-5.319863">
        <ele>542.268</ele>
        <time>2015-06-21T10:36:39Z</time>
      </trkpt>
      <trkpt lat="36.545069" lon="-5.319851">
        <ele>542.688</ele>
        <time>2015-06-21T10:36:40Z</time>
      </trkpt>
      <trkpt lat="36.545079" lon="-5.319839">
        <ele>543.052</ele>
        <time>2015-06-21T10:36:41Z</time>
      </trkpt>
      <trkpt lat="36.545090" lon="-5.319826">
        <ele>543.479</ele>
        <time>2015-06-21T10:36:42Z</time>
      </trkpt>
      <trkpt lat="36.545104" lon="-5.319817">
        <ele>544.058</ele>
        <time>2015-06-21T10:36:43Z</time>
      </trkpt>
      <trkpt lat="36.545150" lon="-5.319786">
        <ele>544.070</ele>
        <time>2015-06-21T10:36:46Z</time>
      </trkpt>
      <trkpt lat="36.545278" lon="-5.319706">
        <ele>544.414</ele>
        <time>2015-06-21T10:36:54Z</time>
      </trkpt>
      <trkpt lat="36.545294" lon="-5.319697">
        <ele>544.854</ele>
        <time>2015-06-21T10:36:55Z</time>
      </trkpt>
      <trkpt lat="36.545307" lon="-5.319689">
        <ele>545.209</ele>
        <time>2015-06-21T10:36:56Z</time>
      </trkpt>
      <trkpt lat="36.545322" lon="-5.319682">
        <ele>545.608</ele>
        <time>2015-06-21T10:36:57Z</time>
      </trkpt>
      <trkpt lat="36.545340" lon="-5.319677">
        <ele>546.042</ele>
        <time>2015-06-21T10:36:58Z</time>
      </trkpt>
      <trkpt lat="36.545418" lon="-5.319644">
        <ele>546.028</ele>
        <time>2015-06-21T10:37:03Z</time>
      </trkpt>
      <trkpt lat="36.545435" lon="-5.319637">
        <ele>546.491</ele>
        <time>2015-06-21T10:37:04Z</time>
      </trkpt>
      <trkpt lat="36.545452" lon="-5.319632">
        <ele>546.891</ele>
        <time>2015-06-21T10:37:05Z</time>
      </trkpt>
      <trkpt lat="36.545466" lon="-5.319619">
        <ele>547.235</ele>
        <time>2015-06-21T10:37:06Z</time>
      </trkpt>
      <trkpt lat="36.545478" lon="-5.319608">
        <ele>547.642</ele>
        <time>2015-06-21T10:37:07Z</time>
      </trkpt>
      <trkpt lat="36.545493" lon="-5.319597">
        <ele>548.021</ele>
        <time>2015-06-21T10:37:08Z</time>
      </trkpt>
      <trkpt lat="36.545550" lon="-5.319564">
        <ele>548.053</ele>
        <time>2015-06-21T10:37:11Z</time>
      </trkpt>
      <trkpt lat="36.545663" lon="-5.319510">
        <ele>548.082</ele>
        <time>2015-06-21T10:37:17Z</time>
      </trkpt>
      <trkpt lat="36.545674" lon="-5.319495">
        <ele>548.043</ele>
        <time>2015-06-21T10:37:18Z</time>
      </trkpt>
      <trkpt lat="36.545699" lon="-5.319468">
        <ele>548.417</ele>
        <time>2015-06-21T10:37:20Z</time>
      </trkpt>
      <trkpt lat="36.545710" lon="-5.319451">
        <ele>548.808</ele>
        <time>2015-06-21T10:37:21Z</time>
      </trkpt>
      <trkpt lat="36.545721" lon="-5.319431">
        <ele>549.299</ele>
        <time>2015-06-21T10:37:22Z</time>
      </trkpt>
      <trkpt lat="36.545734" lon="-5.319413">
        <ele>549.615</ele>
        <time>2015-06-21T10:37:23Z</time>
      </trkpt>
      <trkpt lat="36.545744" lon="-5.319396">
        <ele>550.028</ele>
        <time>2015-06-21T10:37:24Z</time>
      </trkpt>
      <trkpt lat="36.545776" lon="-5.319321">
        <ele>550.088</ele>
        <time>2015-06-21T10:37:28Z</time>
      </trkpt>
      <trkpt lat="36.545786" lon="-5.319304">
        <ele>550.032</ele>
        <time>2015-06-21T10:37:29Z</time>
      </trkpt>
      <trkpt lat="36.545885" lon="-5.319257">
        <ele>550.099</ele>
        <time>2015-06-21T10:37:34Z</time>
      </trkpt>
      <trkpt lat="36.546016" lon="-5.319239">
        <ele>550.028</ele>
        <time>2015-06-21T10:37:41Z</time>
      </trkpt>
      <trkpt lat="36.546054" lon="-5.319231">
        <ele>550.450</ele>
        <time>2015-06-21T10:37:43Z</time>
      </trkpt>
      <trkpt lat="36.546072" lon="-5.319229">
        <ele>550.849</ele>
        <time>2015-06-21T10:37:44Z</time>
      </trkpt>
      <trkpt lat="36.546091" lon="-5.319223">
        <ele>551.402</ele>
        <time>2015-06-21T10:37:45Z</time>
      </trkpt>
      <trkpt lat="36.546109" lon="-5.319218">
        <ele>551.822</ele>
        <time>2015-06-21T10:37:46Z</time>
      </trkpt>
      <trkpt lat="36.546127" lon="-5.319212">
        <ele>552.208</ele>
        <time>2015-06-21T10:37:47Z</time>
      </trkpt>
      <trkpt lat="36.546221" lon="-5.319150">
        <ele>552.215</ele>
        <time>2015-06-21T10:37:53Z</time>
      </trkpt>
      <trkpt lat="36.546335" lon="-5.319074">
        <ele>552.691</ele>
        <time>2015-06-21T10:38:00Z</time>
      </trkpt>
      <trkpt lat="36.546347" lon="-5.319056">
        <ele>553.034</ele>
        <time>2015-06-21T10:38:01Z</time>
      </trkpt>
      <trkpt lat="36.546358" lon="-5.319043">
        <ele>553.434</ele>
        <time>2015-06-21T10:38:02Z</time>
      </trkpt>
      <trkpt lat="36.546370" lon="-5.319029">
        <ele>553.888</ele>
        <time>2015-06-21T10:38:03Z</time>
      </trkpt>
      <trkpt lat="36.546382" lon="-5.319018">
        <ele>554.455</ele>
        <time>2015-06-21T10:38:04Z</time>
      </trkpt>
      <trkpt lat="36.546431" lon="-5.318994">
        <ele>554.494</ele>
        <time>2015-06-21T10:38:07Z</time>
      </trkpt>
      <trkpt lat="36.546543" lon="-5.318978">
        <ele>554.456</ele>
        <time>2015-06-21T10:38:13Z</time>
      </trkpt>
      <trkpt lat="36.546563" lon="-5.318980">
        <ele>554.458</ele>
        <time>2015-06-21T10:38:14Z</time>
      </trkpt>
      <trkpt lat="36.546581" lon="-5.318985">
        <ele>554.852</ele>
        <time>2015-06-21T10:38:15Z</time>
      </trkpt>
      <trkpt lat="36.546600" lon="-5.318986">
        <ele>555.817</ele>
        <time>2015-06-21T10:38:16Z</time>
      </trkpt>
      <trkpt lat="36.546614" lon="-5.318982">
        <ele>556.208</ele>
        <time>2015-06-21T10:38:17Z</time>
      </trkpt>
      <trkpt lat="36.546629" lon="-5.318982">
        <ele>556.686</ele>
        <time>2015-06-21T10:38:18Z</time>
      </trkpt>
      <trkpt lat="36.546643" lon="-5.318983">
        <ele>556.692</ele>
        <time>2015-06-21T10:38:19Z</time>
      </trkpt>
      <trkpt lat="36.546656" lon="-5.318983">
        <ele>556.615</ele>
        <time>2015-06-21T10:38:20Z</time>
      </trkpt>
      <trkpt lat="36.546816" lon="-5.318954">
        <ele>556.645</ele>
        <time>2015-06-21T10:38:28Z</time>
      </trkpt>
      <trkpt lat="36.546979" lon="-5.318919">
        <ele>556.649</ele>
        <time>2015-06-21T10:38:36Z</time>
      </trkpt>
      <trkpt lat="36.547033" lon="-5.318909">
        <ele>557.036</ele>
        <time>2015-06-21T10:38:38Z</time>
      </trkpt>
      <trkpt lat="36.547060" lon="-5.318905">
        <ele>557.675</ele>
        <time>2015-06-21T10:38:39Z</time>
      </trkpt>
      <trkpt lat="36.547087" lon="-5.318904">
        <ele>558.027</ele>
        <time>2015-06-21T10:38:40Z</time>
      </trkpt>
      <trkpt lat="36.547111" lon="-5.318903">
        <ele>558.816</ele>
        <time>2015-06-21T10:38:41Z</time>
      </trkpt>
      <trkpt lat="36.547166" lon="-5.318902">
        <ele>558.876</ele>
        <time>2015-06-21T10:38:43Z</time>
      </trkpt>
      <trkpt lat="36.547305" lon="-5.318931">
        <ele>558.813</ele>
        <time>2015-06-21T10:38:49Z</time>
      </trkpt>
      <trkpt lat="36.547421" lon="-5.318963">
        <ele>558.808</ele>
        <time>2015-06-21T10:38:54Z</time>
      </trkpt>
      <trkpt lat="36.547440" lon="-5.318969">
        <ele>559.282</ele>
        <time>2015-06-21T10:38:55Z</time>
      </trkpt>
      <trkpt lat="36.547459" lon="-5.318975">
        <ele>559.828</ele>
        <time>2015-06-21T10:38:56Z</time>
      </trkpt>
      <trkpt lat="36.547477" lon="-5.318982">
        <ele>560.281</ele>
        <time>2015-06-21T10:38:57Z</time>
      </trkpt>
      <trkpt lat="36.547496" lon="-5.318981">
        <ele>560.691</ele>
        <time>2015-06-21T10:38:58Z</time>
      </trkpt>
      <trkpt lat="36.547515" lon="-5.318976">
        <ele>561.045</ele>
        <time>2015-06-21T10:38:59Z</time>
      </trkpt>
      <trkpt lat="36.547554" lon="-5.318977">
        <ele>561.032</ele>
        <time>2015-06-21T10:39:01Z</time>
      </trkpt>
      <trkpt lat="36.547635" lon="-5.318984">
        <ele>561.021</ele>
        <time>2015-06-21T10:39:05Z</time>
      </trkpt>
      <trkpt lat="36.547711" lon="-5.318982">
        <ele>561.083</ele>
        <time>2015-06-21T10:39:08Z</time>
      </trkpt>
      <trkpt lat="36.547809" lon="-5.318972">
        <ele>561.057</ele>
        <time>2015-06-21T10:39:12Z</time>
      </trkpt>
      <trkpt lat="36.547823" lon="-5.318967">
        <ele>561.000</ele>
        <time>2015-06-21T10:39:13Z</time>
      </trkpt>
      <trkpt lat="36.547929" lon="-5.318958">
        <ele>561.020</ele>
        <time>2015-06-21T10:39:18Z</time>
      </trkpt>
      <trkpt lat="36.548064" lon="-5.318883">
        <ele>561.008</ele>
        <time>2015-06-21T10:39:24Z</time>
      </trkpt>
      <trkpt lat="36.548170" lon="-5.318783">
        <ele>561.066</ele>
        <time>2015-06-21T10:39:30Z</time>
      </trkpt>
      <trkpt lat="36.548270" lon="-5.318682">
        <ele>561.052</ele>
        <time>2015-06-21T10:39:36Z</time>
      </trkpt>
      <trkpt lat="36.548415" lon="-5.318611">
        <ele>561.045</ele>
        <time>2015-06-21T10:39:43Z</time>
      </trkpt>
      <trkpt lat="36.548448" lon="-5.318590">
        <ele>561.445</ele>
        <time>2015-06-21T10:39:45Z</time>
      </trkpt>
      <trkpt lat="36.548465" lon="-5.318581">
        <ele>561.819</ele>
        <time>2015-06-21T10:39:46Z</time>
      </trkpt>
      <trkpt lat="36.548486" lon="-5.318575">
        <ele>562.226</ele>
        <time>2015-06-21T10:39:47Z</time>
      </trkpt>
      <trkpt lat="36.548503" lon="-5.318571">
        <ele>562.815</ele>
        <time>2015-06-21T10:39:48Z</time>
      </trkpt>
      <trkpt lat="36.548519" lon="-5.318558">
        <ele>563.257</ele>
        <time>2015-06-21T10:39:49Z</time>
      </trkpt>
      <trkpt lat="36.548621" lon="-5.318546">
        <ele>563.262</ele>
        <time>2015-06-21T10:39:54Z</time>
      </trkpt>
      <trkpt lat="36.548692" lon="-5.318543">
        <ele>563.683</ele>
        <time>2015-06-21T10:39:58Z</time>
      </trkpt>
      <trkpt lat="36.548711" lon="-5.318545">
        <ele>564.011</ele>
        <time>2015-06-21T10:39:59Z</time>
      </trkpt>
      <trkpt lat="36.548730" lon="-5.318550">
        <ele>564.408</ele>
        <time>2015-06-21T10:40:00Z</time>
      </trkpt>
      <trkpt lat="36.548750" lon="-5.318553">
        <ele>564.897</ele>
        <time>2015-06-21T10:40:01Z</time>
      </trkpt>
      <trkpt lat="36.548771" lon="-5.318556">
        <ele>565.263</ele>
        <time>2015-06-21T10:40:02Z</time>
      </trkpt>
      <trkpt lat="36.548876" lon="-5.318569">
        <ele>565.286</ele>
        <time>2015-06-21T10:40:07Z</time>
      </trkpt>
      <trkpt lat="36.548948" lon="-5.318543">
        <ele>565.676</ele>
        <time>2015-06-21T10:40:11Z</time>
      </trkpt>
      <trkpt lat="36.548966" lon="-5.318525">
        <ele>566.070</ele>
        <time>2015-06-21T10:40:12Z</time>
      </trkpt>
      <trkpt lat="36.548986" lon="-5.318513">
        <ele>566.497</ele>
        <time>2015-06-21T10:40:13Z</time>
      </trkpt>
      <trkpt lat="36.549002" lon="-5.318495">
        <ele>566.876</ele>
        <time>2015-06-21T10:40:14Z</time>
      </trkpt>
      <trkpt lat="36.549016" lon="-5.318473">
        <ele>567.288</ele>
        <time>2015-06-21T10:40:15Z</time>
      </trkpt>
      <trkpt lat="36.549034" lon="-5.318430">
        <ele>567.276</ele>
        <time>2015-06-21T10:40:17Z</time>
      </trkpt>
      <trkpt lat="36.549042" lon="-5.318409">
        <ele>567.290</ele>
        <time>2015-06-21T10:40:18Z</time>
      </trkpt>
      <trkpt lat="36.549124" lon="-5.318275">
        <ele>567.219</ele>
        <time>2015-06-21T10:40:24Z</time>
      </trkpt>
      <trkpt lat="36.549230" lon="-5.318197">
        <ele>567.208</ele>
        <time>2015-06-21T10:40:29Z</time>
      </trkpt>
      <trkpt lat="36.549331" lon="-5.318116">
        <ele>567.258</ele>
        <time>2015-06-21T10:40:35Z</time>
      </trkpt>
      <trkpt lat="36.549351" lon="-5.318106">
        <ele>567.684</ele>
        <time>2015-06-21T10:40:36Z</time>
      </trkpt>
      <trkpt lat="36.549370" lon="-5.318098">
        <ele>568.097</ele>
        <time>2015-06-21T10:40:37Z</time>
      </trkpt>
      <trkpt lat="36.549389" lon="-5.318088">
        <ele>568.477</ele>
        <time>2015-06-21T10:40:38Z</time>
      </trkpt>
      <trkpt lat="36.549410" lon="-5.318082">
        <ele>568.891</ele>
        <time>2015-06-21T10:40:39Z</time>
      </trkpt>
      <trkpt lat="36.549429" lon="-5.318074">
        <ele>569.268</ele>
        <time>2015-06-21T10:40:40Z</time>
      </trkpt>
      <trkpt lat="36.549485" lon="-5.318036">
        <ele>569.237</ele>
        <time>2015-06-21T10:40:43Z</time>
      </trkpt>
      <trkpt lat="36.549654" lon="-5.317945">
        <ele>569.239</ele>
        <time>2015-06-21T10:40:50Z</time>
      </trkpt>
      <trkpt lat="36.549800" lon="-5.317870">
        <ele>570.269</ele>
        <time>2015-06-21T10:40:55Z</time>
      </trkpt>
      <trkpt lat="36.549824" lon="-5.317865">
        <ele>570.604</ele>
        <time>2015-06-21T10:40:57Z</time>
      </trkpt>
      <trkpt lat="36.549846" lon="-5.317857">
        <ele>571.024</ele>
        <time>2015-06-21T10:40:58Z</time>
      </trkpt>
      <trkpt lat="36.549869" lon="-5.317848">
        <ele>571.408</ele>
        <time>2015-06-21T10:40:59Z</time>
      </trkpt>
      <trkpt lat="36.550014" lon="-5.317804">
        <ele>571.427</ele>
        <time>2015-06-21T10:41:05Z</time>
      </trkpt>
      <trkpt lat="36.550138" lon="-5.317708">
        <ele>571.453</ele>
        <time>2015-06-21T10:41:11Z</time>
      </trkpt>
      <trkpt lat="36.550178" lon="-5.317531">
        <ele>571.486</ele>
        <time>2015-06-21T10:41:16Z</time>
      </trkpt>
      <trkpt lat="36.550184" lon="-5.317396">
        <ele>571.446</ele>
        <time>2015-06-21T10:41:19Z</time>
      </trkpt>
      <trkpt lat="36.550190" lon="-5.317305">
        <ele>571.450</ele>
        <time>2015-06-21T10:41:21Z</time>
      </trkpt>
      <trkpt lat="36.550203" lon="-5.317167">
        <ele>571.487</ele>
        <time>2015-06-21T10:41:24Z</time>
      </trkpt>
      <trkpt lat="36.550227" lon="-5.317082">
        <ele>571.436</ele>
        <time>2015-06-21T10:41:26Z</time>
      </trkpt>
      <trkpt lat="36.550260" lon="-5.316930">
        <ele>571.418</ele>
        <time>2015-06-21T10:41:29Z</time>
      </trkpt>
      <trkpt lat="36.550311" lon="-5.316783">
        <ele>571.488</ele>
        <time>2015-06-21T10:41:32Z</time>
      </trkpt>
      <trkpt lat="36.550355" lon="-5.316700">
        <ele>571.424</ele>
        <time>2015-06-21T10:41:34Z</time>
      </trkpt>
      <trkpt lat="36.550408" lon="-5.316627">
        <ele>571.426</ele>
        <time>2015-06-21T10:41:36Z</time>
      </trkpt>
      <trkpt lat="36.550457" lon="-5.316581">
        <ele>571.408</ele>
        <time>2015-06-21T10:41:38Z</time>
      </trkpt>
      <trkpt lat="36.550514" lon="-5.316512">
        <ele>571.419</ele>
        <time>2015-06-21T10:41:41Z</time>
      </trkpt>
      <trkpt lat="36.550548" lon="-5.316432">
        <ele>571.445</ele>
        <time>2015-06-21T10:41:44Z</time>
      </trkpt>
      <trkpt lat="36.550587" lon="-5.316288">
        <ele>571.488</ele>
        <time>2015-06-21T10:41:50Z</time>
      </trkpt>
      <trkpt lat="36.550594" lon="-5.316250">
        <ele>571.848</ele>
        <time>2015-06-21T10:41:52Z</time>
      </trkpt>
      <trkpt lat="36.550594" lon="-5.316238">
        <ele>572.212</ele>
        <time>2015-06-21T10:41:53Z</time>
      </trkpt>
      <trkpt lat="36.550611" lon="-5.316227">
        <ele>572.659</ele>
        <time>2015-06-21T10:41:54Z</time>
      </trkpt>
      <trkpt lat="36.550617" lon="-5.316213">
        <ele>573.088</ele>
        <time>2015-06-21T10:41:55Z</time>
      </trkpt>
      <trkpt lat="36.550624" lon="-5.316193">
        <ele>573.410</ele>
        <time>2015-06-21T10:41:56Z</time>
      </trkpt>
      <trkpt lat="36.550693" lon="-5.316119">
        <ele>573.432</ele>
        <time>2015-06-21T10:42:01Z</time>
      </trkpt>
      <trkpt lat="36.550717" lon="-5.316105">
        <ele>573.492</ele>
        <time>2015-06-21T10:42:03Z</time>
      </trkpt>
      <trkpt lat="36.550758" lon="-5.316094">
        <ele>573.811</ele>
        <time>2015-06-21T10:42:06Z</time>
      </trkpt>
      <trkpt lat="36.550775" lon="-5.316102">
        <ele>574.208</ele>
        <time>2015-06-21T10:42:07Z</time>
      </trkpt>
      <trkpt lat="36.550791" lon="-5.316108">
        <ele>574.664</ele>
        <time>2015-06-21T10:42:08Z</time>
      </trkpt>
      <trkpt lat="36.550803" lon="-5.316123">
        <ele>575.050</ele>
        <time>2015-06-21T10:42:09Z</time>
      </trkpt>
      <trkpt lat="36.550816" lon="-5.316133">
        <ele>575.693</ele>
        <time>2015-06-21T10:42:10Z</time>
      </trkpt>
      <trkpt lat="36.550833" lon="-5.316138">
        <ele>575.623</ele>
        <time>2015-06-21T10:42:11Z</time>
      </trkpt>
      <trkpt lat="36.550900" lon="-5.316135">
        <ele>575.687</ele>
        <time>2015-06-21T10:42:15Z</time>
      </trkpt>
      <trkpt lat="36.550917" lon="-5.316121">
        <ele>575.614</ele>
        <time>2015-06-21T10:42:16Z</time>
      </trkpt>
      <trkpt lat="36.551040" lon="-5.316118">
        <ele>575.693</ele>
        <time>2015-06-21T10:42:22Z</time>
      </trkpt>
      <trkpt lat="36.551082" lon="-5.316111">
        <ele>575.625</ele>
        <time>2015-06-21T10:42:24Z</time>
      </trkpt>
      <trkpt lat="36.551185" lon="-5.316103">
        <ele>575.664</ele>
        <time>2015-06-21T10:42:29Z</time>
      </trkpt>
      <trkpt lat="36.551224" lon="-5.316091">
        <ele>576.006</ele>
        <time>2015-06-21T10:42:31Z</time>
      </trkpt>
      <trkpt lat="36.551240" lon="-5.316077">
        <ele>576.416</ele>
        <time>2015-06-21T10:42:32Z</time>
      </trkpt>
      <trkpt lat="36.551254" lon="-5.316062">
        <ele>576.808</ele>
        <time>2015-06-21T10:42:33Z</time>
      </trkpt>
      <trkpt lat="36.551269" lon="-5.316046">
        <ele>577.247</ele>
        <time>2015-06-21T10:42:34Z</time>
      </trkpt>
      <trkpt lat="36.551284" lon="-5.316029">
        <ele>577.613</ele>
        <time>2015-06-21T10:42:35Z</time>
      </trkpt>
      <trkpt lat="36.551298" lon="-5.316009">
        <ele>577.626</ele>
        <time>2015-06-21T10:42:36Z</time>
      </trkpt>
      <trkpt lat="36.551304" lon="-5.315943">
        <ele>577.626</ele>
        <time>2015-06-21T10:42:39Z</time>
      </trkpt>
      <trkpt lat="36.551301" lon="-5.315921">
        <ele>577.650</ele>
        <time>2015-06-21T10:42:40Z</time>
      </trkpt>
      <trkpt lat="36.551309" lon="-5.315771">
        <ele>577.647</ele>
        <time>2015-06-21T10:42:46Z</time>
      </trkpt>
      <trkpt lat="36.551284" lon="-5.315682">
        <ele>578.476</ele>
        <time>2015-06-21T10:42:49Z</time>
      </trkpt>
      <trkpt lat="36.551281" lon="-5.315631">
        <ele>578.838</ele>
        <time>2015-06-21T10:42:50Z</time>
      </trkpt>
      <trkpt lat="36.551263" lon="-5.315578">
        <ele>579.412</ele>
        <time>2015-06-21T10:42:51Z</time>
      </trkpt>
      <trkpt lat="36.551267" lon="-5.315520">
        <ele>579.832</ele>
        <time>2015-06-21T10:42:52Z</time>
      </trkpt>
      <trkpt lat="36.551312" lon="-5.315399">
        <ele>579.805</ele>
        <time>2015-06-21T10:42:54Z</time>
      </trkpt>
      <trkpt lat="36.551412" lon="-5.315363">
        <ele>579.808</ele>
        <time>2015-06-21T10:42:56Z</time>
      </trkpt>
      <trkpt lat="36.551552" lon="-5.315365">
        <ele>579.462</ele>
        <time>2015-06-21T10:42:59Z</time>
      </trkpt>
      <trkpt lat="36.551606" lon="-5.315378">
        <ele>579.048</ele>
        <time>2015-06-21T10:43:00Z</time>
      </trkpt>
      <trkpt lat="36.551656" lon="-5.315396">
        <ele>578.661</ele>
        <time>2015-06-21T10:43:01Z</time>
      </trkpt>
      <trkpt lat="36.551699" lon="-5.315405">
        <ele>578.241</ele>
        <time>2015-06-21T10:43:02Z</time>
      </trkpt>
      <trkpt lat="36.551738" lon="-5.315406">
        <ele>577.825</ele>
        <time>2015-06-21T10:43:03Z</time>
      </trkpt>
      <trkpt lat="36.551782" lon="-5.315398">
        <ele>577.812</ele>
        <time>2015-06-21T10:43:04Z</time>
      </trkpt>
      <trkpt lat="36.551928" lon="-5.315265">
        <ele>577.891</ele>
        <time>2015-06-21T10:43:08Z</time>
      </trkpt>
      <trkpt lat="36.551962" lon="-5.315224">
        <ele>577.873</ele>
        <time>2015-06-21T10:43:09Z</time>
      </trkpt>
      <trkpt lat="36.552066" lon="-5.315080">
        <ele>577.885</ele>
        <time>2015-06-21T10:43:12Z</time>
      </trkpt>
      <trkpt lat="36.552096" lon="-5.315015">
        <ele>577.889</ele>
        <time>2015-06-21T10:43:13Z</time>
      </trkpt>
      <trkpt lat="36.552123" lon="-5.314957">
        <ele>577.217</ele>
        <time>2015-06-21T10:43:14Z</time>
      </trkpt>
      <trkpt lat="36.552172" lon="-5.314929">
        <ele>576.808</ele>
        <time>2015-06-21T10:43:15Z</time>
      </trkpt>
      <trkpt lat="36.552218" lon="-5.314918">
        <ele>576.499</ele>
        <time>2015-06-21T10:43:16Z</time>
      </trkpt>
      <trkpt lat="36.552255" lon="-5.314929">
        <ele>576.055</ele>
        <time>2015-06-21T10:43:17Z</time>
      </trkpt>
      <trkpt lat="36.552286" lon="-5.314959">
        <ele>575.648</ele>
        <time>2015-06-21T10:43:18Z</time>
      </trkpt>
      <trkpt lat="36.552344" lon="-5.314983">
        <ele>575.688</ele>
        <time>2015-06-21T10:43:20Z</time>
      </trkpt>
      <trkpt lat="36.552411" lon="-5.315040">
        <ele>575.622</ele>
        <time>2015-06-21T10:43:23Z</time>
      </trkpt>
      <trkpt lat="36.552445" lon="-5.315069">
        <ele>575.639</ele>
        <time>2015-06-21T10:43:25Z</time>
      </trkpt>
      <trkpt lat="36.552523" lon="-5.315110">
        <ele>575.618</ele>
        <time>2015-06-21T10:43:30Z</time>
      </trkpt>
      <trkpt lat="36.552568" lon="-5.315138">
        <ele>575.670</ele>
        <time>2015-06-21T10:43:32Z</time>
      </trkpt>
      <trkpt lat="36.552680" lon="-5.315172">
        <ele>575.682</ele>
        <time>2015-06-21T10:43:37Z</time>
      </trkpt>
      <trkpt lat="36.552685" lon="-5.315183">
        <ele>575.643</ele>
        <time>2015-06-21T10:43:41Z</time>
      </trkpt>
      <trkpt lat="36.552685" lon="-5.315183">
        <ele>575.617</ele>
        <time>2015-06-21T10:43:45Z</time>
      </trkpt>
      <trkpt lat="36.552685" lon="-5.315183">
        <ele>575.608</ele>
        <time>2015-06-21T10:43:48Z</time>
      </trkpt>
      <trkpt lat="36.552685" lon="-5.315183">
        <ele>575.679</ele>
        <time>2015-06-21T10:43:50Z</time>
      </trkpt>
      <trkpt lat="36.552685" lon="-5.315183">
        <ele>575.625</ele>
        <time>2015-06-21T10:43:55Z</time>
      </trkpt>
      <trkpt lat="36.552685" lon="-5.315183">
        <ele>575.698</ele>
        <time>2015-06-21T10:44:03Z</time>
      </trkpt>
      <trkpt lat="36.552685" lon="-5.315183">
        <ele>575.698</ele>
        <time>2015-06-21T10:44:12Z</time>
      </trkpt>
      <trkpt lat="36.552723" lon="-5.315154">
        <ele>575.652</ele>
        <time>2015-06-21T10:44:19Z</time>
      </trkpt>
      <trkpt lat="36.552809" lon="-5.315020">
        <ele>575.629</ele>
        <time>2015-06-21T10:44:24Z</time>
      </trkpt>
      <trkpt lat="36.552878" lon="-5.314909">
        <ele>575.698</ele>
        <time>2015-06-21T10:44:27Z</time>
      </trkpt>
      <trkpt lat="36.552914" lon="-5.314867">
        <ele>575.270</ele>
        <time>2015-06-21T10:44:28Z</time>
      </trkpt>
      <trkpt lat="36.552943" lon="-5.314811">
        <ele>574.614</ele>
        <time>2015-06-21T10:44:29Z</time>
      </trkpt>
      <trkpt lat="36.552967" lon="-5.314769">
        <ele>574.254</ele>
        <time>2015-06-21T10:44:30Z</time>
      </trkpt>
      <trkpt lat="36.553001" lon="-5.314741">
        <ele>573.809</ele>
        <time>2015-06-21T10:44:31Z</time>
      </trkpt>
      <trkpt lat="36.553054" lon="-5.314748">
        <ele>573.408</ele>
        <time>2015-06-21T10:44:32Z</time>
      </trkpt>
      <trkpt lat="36.553161" lon="-5.314876">
        <ele>573.422</ele>
        <time>2015-06-21T10:44:35Z</time>
      </trkpt>
      <trkpt lat="36.553316" lon="-5.314950">
        <ele>573.058</ele>
        <time>2015-06-21T10:44:38Z</time>
      </trkpt>
      <trkpt lat="36.553366" lon="-5.314962">
        <ele>572.621</ele>
        <time>2015-06-21T10:44:39Z</time>
      </trkpt>
      <trkpt lat="36.553425" lon="-5.314962">
        <ele>572.281</ele>
        <time>2015-06-21T10:44:40Z</time>
      </trkpt>
      <trkpt lat="36.553488" lon="-5.314939">
        <ele>571.885</ele>
        <time>2015-06-21T10:44:41Z</time>
      </trkpt>
      <trkpt lat="36.553542" lon="-5.314916">
        <ele>571.472</ele>
        <time>2015-06-21T10:44:42Z</time>
      </trkpt>
      <trkpt lat="36.553623" lon="-5.314874">
        <ele>571.051</ele>
        <time>2015-06-21T10:44:44Z</time>
      </trkpt>
      <trkpt lat="36.553656" lon="-5.314847">
        <ele>570.483</ele>
        <time>2015-06-21T10:44:45Z</time>
      </trkpt>
      <trkpt lat="36.553700" lon="-5.314826">
        <ele>570.048</ele>
        <time>2015-06-21T10:44:46Z</time>
      </trkpt>
      <trkpt lat="36.553753" lon="-5.314807">
        <ele>569.661</ele>
        <time>2015-06-21T10:44:47Z</time>
      </trkpt>
      <trkpt lat="36.553803" lon="-5.314771">
        <ele>569.017</ele>
        <time>2015-06-21T10:44:48Z</time>
      </trkpt>
      <trkpt lat="36.553861" lon="-5.314728">
        <ele>568.608</ele>
        <time>2015-06-21T10:44:49Z</time>
      </trkpt>
      <trkpt lat="36.553914" lon="-5.314683">
        <ele>568.245</ele>
        <time>2015-06-21T10:44:50Z</time>
      </trkpt>
      <trkpt lat="36.553962" lon="-5.314639">
        <ele>567.891</ele>
        <time>2015-06-21T10:44:51Z</time>
      </trkpt>
      <trkpt lat="36.554011" lon="-5.314597">
        <ele>567.464</ele>
        <time>2015-06-21T10:44:52Z</time>
      </trkpt>
      <trkpt lat="36.554058" lon="-5.314567">
        <ele>566.474</ele>
        <time>2015-06-21T10:44:53Z</time>
      </trkpt>
      <trkpt lat="36.554096" lon="-5.314537">
        <ele>566.018</ele>
        <time>2015-06-21T10:44:54Z</time>
      </trkpt>
      <trkpt lat="36.554135" lon="-5.314504">
        <ele>565.465</ele>
        <time>2015-06-21T10:44:55Z</time>
      </trkpt>
      <trkpt lat="36.554179" lon="-5.314476">
        <ele>565.044</ele>
        <time>2015-06-21T10:44:56Z</time>
      </trkpt>
      <trkpt lat="36.554228" lon="-5.314431">
        <ele>564.486</ele>
        <time>2015-06-21T10:44:57Z</time>
      </trkpt>
      <trkpt lat="36.554273" lon="-5.314399">
        <ele>564.013</ele>
        <time>2015-06-21T10:44:58Z</time>
      </trkpt>
      <trkpt lat="36.554331" lon="-5.314361">
        <ele>563.643</ele>
        <time>2015-06-21T10:44:59Z</time>
      </trkpt>
      <trkpt lat="36.554391" lon="-5.314317">
        <ele>563.207</ele>
        <time>2015-06-21T10:45:00Z</time>
      </trkpt>
      <trkpt lat="36.554451" lon="-5.314260">
        <ele>562.608</ele>
        <time>2015-06-21T10:45:01Z</time>
      </trkpt>
      <trkpt lat="36.554518" lon="-5.314211">
        <ele>562.032</ele>
        <time>2015-06-21T10:45:02Z</time>
      </trkpt>
      <trkpt lat="36.554597" lon="-5.314178">
        <ele>561.478</ele>
        <time>2015-06-21T10:45:03Z</time>
      </trkpt>
      <trkpt lat="36.554668" lon="-5.314139">
        <ele>560.851</ele>
        <time>2015-06-21T10:45:04Z</time>
      </trkpt>
      <trkpt lat="36.554707" lon="-5.314092">
        <ele>560.031</ele>
        <time>2015-06-21T10:45:05Z</time>
      </trkpt>
      <trkpt lat="36.554718" lon="-5.314029">
        <ele>559.415</ele>
        <time>2015-06-21T10:45:06Z</time>
      </trkpt>
      <trkpt lat="36.554717" lon="-5.313958">
        <ele>558.692</ele>
        <time>2015-06-21T10:45:07Z</time>
      </trkpt>
      <trkpt lat="36.554721" lon="-5.313884">
        <ele>558.031</ele>
        <time>2015-06-21T10:45:08Z</time>
      </trkpt>
      <trkpt lat="36.554734" lon="-5.313823">
        <ele>557.253</ele>
        <time>2015-06-21T10:45:09Z</time>
      </trkpt>
      <trkpt lat="36.554770" lon="-5.313775">
        <ele>556.685</ele>
        <time>2015-06-21T10:45:10Z</time>
      </trkpt>
      <trkpt lat="36.554822" lon="-5.313750">
        <ele>556.089</ele>
        <time>2015-06-21T10:45:11Z</time>
      </trkpt>
      <trkpt lat="36.554863" lon="-5.313739">
        <ele>555.417</ele>
        <time>2015-06-21T10:45:12Z</time>
      </trkpt>
      <trkpt lat="36.554912" lon="-5.313736">
        <ele>554.808</ele>
        <time>2015-06-21T10:45:13Z</time>
      </trkpt>
      <trkpt lat="36.554975" lon="-5.313720">
        <ele>554.289</ele>
        <time>2015-06-21T10:45:14Z</time>
      </trkpt>
      <trkpt lat="36.555038" lon="-5.313688">
        <ele>553.645</ele>
        <time>2015-06-21T10:45:15Z</time>
      </trkpt>
      <trkpt lat="36.555091" lon="-5.313660">
        <ele>553.068</ele>
        <time>2015-06-21T10:45:16Z</time>
      </trkpt>
      <trkpt lat="36.555137" lon="-5.313627">
        <ele>552.428</ele>
        <time>2015-06-21T10:45:17Z</time>
      </trkpt>
      <trkpt lat="36.555172" lon="-5.313590">
        <ele>552.072</ele>
        <time>2015-06-21T10:45:18Z</time>
      </trkpt>
      <trkpt lat="36.555213" lon="-5.313550">
        <ele>551.649</ele>
        <time>2015-06-21T10:45:19Z</time>
      </trkpt>
      <trkpt lat="36.555256" lon="-5.313518">
        <ele>551.228</ele>
        <time>2015-06-21T10:45:20Z</time>
      </trkpt>
      <trkpt lat="36.555298" lon="-5.313480">
        <ele>550.650</ele>
        <time>2015-06-21T10:45:21Z</time>
      </trkpt>
      <trkpt lat="36.555341" lon="-5.313439">
        <ele>550.279</ele>
        <time>2015-06-21T10:45:22Z</time>
      </trkpt>
      <trkpt lat="36.555377" lon="-5.313397">
        <ele>549.805</ele>
        <time>2015-06-21T10:45:23Z</time>
      </trkpt>
      <trkpt lat="36.555410" lon="-5.313352">
        <ele>549.225</ele>
        <time>2015-06-21T10:45:24Z</time>
      </trkpt>
      <trkpt lat="36.555448" lon="-5.313308">
        <ele>548.808</ele>
        <time>2015-06-21T10:45:25Z</time>
      </trkpt>
      <trkpt lat="36.555487" lon="-5.313266">
        <ele>548.228</ele>
        <time>2015-06-21T10:45:26Z</time>
      </trkpt>
      <trkpt lat="36.555519" lon="-5.313218">
        <ele>547.824</ele>
        <time>2015-06-21T10:45:27Z</time>
      </trkpt>
      <trkpt lat="36.555631" lon="-5.313114">
        <ele>547.827</ele>
        <time>2015-06-21T10:45:30Z</time>
      </trkpt>
      <trkpt lat="36.555707" lon="-5.313066">
        <ele>547.297</ele>
        <time>2015-06-21T10:45:32Z</time>
      </trkpt>
      <trkpt lat="36.555732" lon="-5.313046">
        <ele>546.881</ele>
        <time>2015-06-21T10:45:33Z</time>
      </trkpt>
      <trkpt lat="36.555755" lon="-5.313017">
        <ele>546.438</ele>
        <time>2015-06-21T10:45:34Z</time>
      </trkpt>
      <trkpt lat="36.555780" lon="-5.312988">
        <ele>546.037</ele>
        <time>2015-06-21T10:45:35Z</time>
      </trkpt>
      <trkpt lat="36.555803" lon="-5.312966">
        <ele>545.649</ele>
        <time>2015-06-21T10:45:36Z</time>
      </trkpt>
      <trkpt lat="36.555902" lon="-5.312844">
        <ele>545.671</ele>
        <time>2015-06-21T10:45:41Z</time>
      </trkpt>
      <trkpt lat="36.556020" lon="-5.312718">
        <ele>545.241</ele>
        <time>2015-06-21T10:45:45Z</time>
      </trkpt>
      <trkpt lat="36.556061" lon="-5.312704">
        <ele>544.815</ele>
        <time>2015-06-21T10:45:46Z</time>
      </trkpt>
      <trkpt lat="36.556108" lon="-5.312686">
        <ele>544.408</ele>
        <time>2015-06-21T10:45:47Z</time>
      </trkpt>
      <trkpt lat="36.556162" lon="-5.312673">
        <ele>544.098</ele>
        <time>2015-06-21T10:45:48Z</time>
      </trkpt>
      <trkpt lat="36.556214" lon="-5.312684">
        <ele>543.634</ele>
        <time>2015-06-21T10:45:49Z</time>
      </trkpt>
      <trkpt lat="36.556262" lon="-5.312718">
        <ele>543.627</ele>
        <time>2015-06-21T10:45:50Z</time>
      </trkpt>
      <trkpt lat="36.556346" lon="-5.312819">
        <ele>543.677</ele>
        <time>2015-06-21T10:45:52Z</time>
      </trkpt>
      <trkpt lat="36.556392" lon="-5.312849">
        <ele>543.691</ele>
        <time>2015-06-21T10:45:53Z</time>
      </trkpt>
      <trkpt lat="36.556488" lon="-5.312880">
        <ele>543.018</ele>
        <time>2015-06-21T10:45:55Z</time>
      </trkpt>
      <trkpt lat="36.556540" lon="-5.312873">
        <ele>542.647</ele>
        <time>2015-06-21T10:45:56Z</time>
      </trkpt>
      <trkpt lat="36.556589" lon="-5.312838">
        <ele>542.219</ele>
        <time>2015-06-21T10:45:57Z</time>
      </trkpt>
      <trkpt lat="36.556647" lon="-5.312804">
        <ele>541.628</ele>
        <time>2015-06-21T10:45:58Z</time>
      </trkpt>
      <trkpt lat="36.556704" lon="-5.312761">
        <ele>541.289</ele>
        <time>2015-06-21T10:45:59Z</time>
      </trkpt>
      <trkpt lat="36.556753" lon="-5.312709">
        <ele>540.817</ele>
        <time>2015-06-21T10:46:00Z</time>
      </trkpt>
      <trkpt lat="36.556799" lon="-5.312649">
        <ele>540.408</ele>
        <time>2015-06-21T10:46:01Z</time>
      </trkpt>
      <trkpt lat="36.556842" lon="-5.312592">
        <ele>540.033</ele>
        <time>2015-06-21T10:46:02Z</time>
      </trkpt>
      <trkpt lat="36.556882" lon="-5.312531">
        <ele>539.649</ele>
        <time>2015-06-21T10:46:03Z</time>
      </trkpt>
      <trkpt lat="36.556918" lon="-5.312467">
        <ele>539.262</ele>
        <time>2015-06-21T10:46:04Z</time>
      </trkpt>
      <trkpt lat="36.556981" lon="-5.312334">
        <ele>539.282</ele>
        <time>2015-06-21T10:46:06Z</time>
      </trkpt>
      <trkpt lat="36.557067" lon="-5.312208">
        <ele>538.416</ele>
        <time>2015-06-21T10:46:08Z</time>
      </trkpt>
      <trkpt lat="36.557127" lon="-5.312150">
        <ele>538.093</ele>
        <time>2015-06-21T10:46:09Z</time>
      </trkpt>
      <trkpt lat="36.557196" lon="-5.312099">
        <ele>537.642</ele>
        <time>2015-06-21T10:46:10Z</time>
      </trkpt>
      <trkpt lat="36.557274" lon="-5.312062">
        <ele>536.884</ele>
        <time>2015-06-21T10:46:11Z</time>
      </trkpt>
      <trkpt lat="36.557351" lon="-5.312047">
        <ele>536.255</ele>
        <time>2015-06-21T10:46:12Z</time>
      </trkpt>
      <trkpt lat="36.557416" lon="-5.312039">
        <ele>535.607</ele>
        <time>2015-06-21T10:46:13Z</time>
      </trkpt>
      <trkpt lat="36.557485" lon="-5.312023">
        <ele>535.017</ele>
        <time>2015-06-21T10:46:14Z</time>
      </trkpt>
      <trkpt lat="36.557562" lon="-5.312005">
        <ele>534.408</ele>
        <time>2015-06-21T10:46:15Z</time>
      </trkpt>
      <trkpt lat="36.557644" lon="-5.311990">
        <ele>533.696</ele>
        <time>2015-06-21T10:46:16Z</time>
      </trkpt>
      <trkpt lat="36.557726" lon="-5.311958">
        <ele>533.062</ele>
        <time>2015-06-21T10:46:17Z</time>
      </trkpt>
      <trkpt lat="36.557802" lon="-5.311916">
        <ele>532.445</ele>
        <time>2015-06-21T10:46:18Z</time>
      </trkpt>
      <trkpt lat="36.557887" lon="-5.311852">
        <ele>531.875</ele>
        <time>2015-06-21T10:46:19Z</time>
      </trkpt>
      <trkpt lat="36.557949" lon="-5.311789">
        <ele>531.279</ele>
        <time>2015-06-21T10:46:20Z</time>
      </trkpt>
      <trkpt lat="36.558002" lon="-5.311719">
        <ele>530.896</ele>
        <time>2015-06-21T10:46:21Z</time>
      </trkpt>
      <trkpt lat="36.558045" lon="-5.311625">
        <ele>530.235</ele>
        <time>2015-06-21T10:46:22Z</time>
      </trkpt>
      <trkpt lat="36.558081" lon="-5.311525">
        <ele>529.627</ele>
        <time>2015-06-21T10:46:23Z</time>
      </trkpt>
      <trkpt lat="36.558131" lon="-5.311434">
        <ele>529.087</ele>
        <time>2015-06-21T10:46:24Z</time>
      </trkpt>
      <trkpt lat="36.558184" lon="-5.311355">
        <ele>528.442</ele>
        <time>2015-06-21T10:46:25Z</time>
      </trkpt>
      <trkpt lat="36.558247" lon="-5.311265">
        <ele>527.826</ele>
        <time>2015-06-21T10:46:26Z</time>
      </trkpt>
      <trkpt lat="36.558301" lon="-5.311175">
        <ele>527.408</ele>
        <time>2015-06-21T10:46:27Z</time>
      </trkpt>
      <trkpt lat="36.558341" lon="-5.311080">
        <ele>526.869</ele>
        <time>2015-06-21T10:46:28Z</time>
      </trkpt>
      <trkpt lat="36.558379" lon="-5.310989">
        <ele>526.035</ele>
        <time>2015-06-21T10:46:29Z</time>
      </trkpt>
      <trkpt lat="36.558402" lon="-5.310902">
        <ele>525.228</ele>
        <time>2015-06-21T10:46:30Z</time>
      </trkpt>
      <trkpt lat="36.558425" lon="-5.310815">
        <ele>524.428</ele>
        <time>2015-06-21T10:46:31Z</time>
      </trkpt>
      <trkpt lat="36.558441" lon="-5.310726">
        <ele>523.612</ele>
        <time>2015-06-21T10:46:32Z</time>
      </trkpt>
      <trkpt lat="36.558474" lon="-5.310652">
        <ele>522.069</ele>
        <time>2015-06-21T10:46:33Z</time>
      </trkpt>
      <trkpt lat="36.558517" lon="-5.310636">
        <ele>521.298</ele>
        <time>2015-06-21T10:46:34Z</time>
      </trkpt>
      <trkpt lat="36.558572" lon="-5.310630">
        <ele>520.440</ele>
        <time>2015-06-21T10:46:35Z</time>
      </trkpt>
      <trkpt lat="36.558636" lon="-5.310626">
        <ele>519.426</ele>
        <time>2015-06-21T10:46:36Z</time>
      </trkpt>
      <trkpt lat="36.558707" lon="-5.310631">
        <ele>518.647</ele>
        <time>2015-06-21T10:46:37Z</time>
      </trkpt>
      <trkpt lat="36.558790" lon="-5.310624">
        <ele>517.811</ele>
        <time>2015-06-21T10:46:38Z</time>
      </trkpt>
      <trkpt lat="36.558869" lon="-5.310621">
        <ele>517.008</ele>
        <time>2015-06-21T10:46:39Z</time>
      </trkpt>
      <trkpt lat="36.558954" lon="-5.310618">
        <ele>516.263</ele>
        <time>2015-06-21T10:46:40Z</time>
      </trkpt>
      <trkpt lat="36.559036" lon="-5.310612">
        <ele>515.679</ele>
        <time>2015-06-21T10:46:41Z</time>
      </trkpt>
      <trkpt lat="36.559104" lon="-5.310601">
        <ele>515.022</ele>
        <time>2015-06-21T10:46:42Z</time>
      </trkpt>
      <trkpt lat="36.559171" lon="-5.310591">
        <ele>514.432</ele>
        <time>2015-06-21T10:46:43Z</time>
      </trkpt>
      <trkpt lat="36.559233" lon="-5.310587">
        <ele>513.626</ele>
        <time>2015-06-21T10:46:44Z</time>
      </trkpt>
      <trkpt lat="36.559290" lon="-5.310566">
        <ele>512.843</ele>
        <time>2015-06-21T10:46:45Z</time>
      </trkpt>
      <trkpt lat="36.559341" lon="-5.310537">
        <ele>512.012</ele>
        <time>2015-06-21T10:46:46Z</time>
      </trkpt>
      <trkpt lat="36.559394" lon="-5.310518">
        <ele>511.254</ele>
        <time>2015-06-21T10:46:47Z</time>
      </trkpt>
      <trkpt lat="36.559459" lon="-5.310511">
        <ele>510.295</ele>
        <time>2015-06-21T10:46:48Z</time>
      </trkpt>
      <trkpt lat="36.559529" lon="-5.310493">
        <ele>509.449</ele>
        <time>2015-06-21T10:46:49Z</time>
      </trkpt>
      <trkpt lat="36.559591" lon="-5.310454">
        <ele>508.623</ele>
        <time>2015-06-21T10:46:50Z</time>
      </trkpt>
      <trkpt lat="36.559650" lon="-5.310391">
        <ele>507.808</ele>
        <time>2015-06-21T10:46:51Z</time>
      </trkpt>
      <trkpt lat="36.559693" lon="-5.310311">
        <ele>507.210</ele>
        <time>2015-06-21T10:46:52Z</time>
      </trkpt>
      <trkpt lat="36.559736" lon="-5.310229">
        <ele>506.676</ele>
        <time>2015-06-21T10:46:53Z</time>
      </trkpt>
      <trkpt lat="36.559773" lon="-5.310134">
        <ele>506.039</ele>
        <time>2015-06-21T10:46:54Z</time>
      </trkpt>
      <trkpt lat="36.559788" lon="-5.310049">
        <ele>505.259</ele>
        <time>2015-06-21T10:46:55Z</time>
      </trkpt>
      <trkpt lat="36.559807" lon="-5.309961">
        <ele>504.843</ele>
        <time>2015-06-21T10:46:56Z</time>
      </trkpt>
      <trkpt lat="36.559818" lon="-5.309855">
        <ele>504.050</ele>
        <time>2015-06-21T10:46:57Z</time>
      </trkpt>
      <trkpt lat="36.559826" lon="-5.309761">
        <ele>503.669</ele>
        <time>2015-06-21T10:46:58Z</time>
      </trkpt>
      <trkpt lat="36.559832" lon="-5.309677">
        <ele>503.231</ele>
        <time>2015-06-21T10:46:59Z</time>
      </trkpt>
      <trkpt lat="36.559832" lon="-5.309600">
        <ele>502.686</ele>
        <time>2015-06-21T10:47:00Z</time>
      </trkpt>
      <trkpt lat="36.559827" lon="-5.309512">
        <ele>502.260</ele>
        <time>2015-06-21T10:47:01Z</time>
      </trkpt>
      <trkpt lat="36.559833" lon="-5.309429">
        <ele>501.426</ele>
        <time>2015-06-21T10:47:02Z</time>
      </trkpt>
      <trkpt lat="36.559850" lon="-5.309351">
        <ele>500.808</ele>
        <time>2015-06-21T10:47:03Z</time>
      </trkpt>
      <trkpt lat="36.559872" lon="-5.309265">
        <ele>500.069</ele>
        <time>2015-06-21T10:47:04Z</time>
      </trkpt>
      <trkpt lat="36.559898" lon="-5.309177">
        <ele>499.435</ele>
        <time>2015-06-21T10:47:05Z</time>
      </trkpt>
      <trkpt lat="36.559901" lon="-5.309074">
        <ele>498.888</ele>
        <time>2015-06-21T10:47:06Z</time>
      </trkpt>
      <trkpt lat="36.559889" lon="-5.308992">
        <ele>498.098</ele>
        <time>2015-06-21T10:47:07Z</time>
      </trkpt>
      <trkpt lat="36.559869" lon="-5.308899">
        <ele>497.452</ele>
        <time>2015-06-21T10:47:08Z</time>
      </trkpt>
      <trkpt lat="36.559853" lon="-5.308824">
        <ele>496.889</ele>
        <time>2015-06-21T10:47:09Z</time>
      </trkpt>
      <trkpt lat="36.559870" lon="-5.308768">
        <ele>496.058</ele>
        <time>2015-06-21T10:47:10Z</time>
      </trkpt>
      <trkpt lat="36.559907" lon="-5.308728">
        <ele>495.450</ele>
        <time>2015-06-21T10:47:11Z</time>
      </trkpt>
      <trkpt lat="36.559960" lon="-5.308709">
        <ele>494.868</ele>
        <time>2015-06-21T10:47:12Z</time>
      </trkpt>
      <trkpt lat="36.560017" lon="-5.308716">
        <ele>494.242</ele>
        <time>2015-06-21T10:47:13Z</time>
      </trkpt>
      <trkpt lat="36.560068" lon="-5.308748">
        <ele>493.626</ele>
        <time>2015-06-21T10:47:14Z</time>
      </trkpt>
      <trkpt lat="36.560117" lon="-5.308785">
        <ele>493.008</ele>
        <time>2015-06-21T10:47:15Z</time>
      </trkpt>
      <trkpt lat="36.560165" lon="-5.308819">
        <ele>492.427</ele>
        <time>2015-06-21T10:47:16Z</time>
      </trkpt>
      <trkpt lat="36.560210" lon="-5.308842">
        <ele>491.833</ele>
        <time>2015-06-21T10:47:17Z</time>
      </trkpt>
      <trkpt lat="36.560299" lon="-5.308915">
        <ele>491.266</ele>
        <time>2015-06-21T10:47:19Z</time>
      </trkpt>
      <trkpt lat="36.560333" lon="-5.308954">
        <ele>490.896</ele>
        <time>2015-06-21T10:47:20Z</time>
      </trkpt>
      <trkpt lat="36.560370" lon="-5.309002">
        <ele>490.480</ele>
        <time>2015-06-21T10:47:21Z</time>
      </trkpt>
      <trkpt lat="36.560412" lon="-5.309040">
        <ele>490.077</ele>
        <time>2015-06-21T10:47:22Z</time>
      </trkpt>
      <trkpt lat="36.560465" lon="-5.309067">
        <ele>489.226</ele>
        <time>2015-06-21T10:47:23Z</time>
      </trkpt>
      <trkpt lat="36.560507" lon="-5.309086">
        <ele>488.838</ele>
        <time>2015-06-21T10:47:24Z</time>
      </trkpt>
      <trkpt lat="36.560556" lon="-5.309118">
        <ele>488.436</ele>
        <time>2015-06-21T10:47:25Z</time>
      </trkpt>
      <trkpt lat="36.560608" lon="-5.309145">
        <ele>488.017</ele>
        <time>2015-06-21T10:47:26Z</time>
      </trkpt>
      <trkpt lat="36.560658" lon="-5.309173">
        <ele>487.618</ele>
        <time>2015-06-21T10:47:27Z</time>
      </trkpt>
      <trkpt lat="36.560706" lon="-5.309211">
        <ele>487.608</ele>
        <time>2015-06-21T10:47:28Z</time>
      </trkpt>
      <trkpt lat="36.560758" lon="-5.309253">
        <ele>487.664</ele>
        <time>2015-06-21T10:47:29Z</time>
      </trkpt>
      <trkpt lat="36.560805" lon="-5.309303">
        <ele>487.650</ele>
        <time>2015-06-21T10:47:30Z</time>
      </trkpt>
      <trkpt lat="36.560935" lon="-5.309473">
        <ele>487.613</ele>
        <time>2015-06-21T10:47:33Z</time>
      </trkpt>
      <trkpt lat="36.560955" lon="-5.309553">
        <ele>487.283</ele>
        <time>2015-06-21T10:47:34Z</time>
      </trkpt>
      <trkpt lat="36.560982" lon="-5.309619">
        <ele>486.677</ele>
        <time>2015-06-21T10:47:35Z</time>
      </trkpt>
      <trkpt lat="36.561016" lon="-5.309680">
        <ele>486.224</ele>
        <time>2015-06-21T10:47:36Z</time>
      </trkpt>
      <trkpt lat="36.561046" lon="-5.309743">
        <ele>485.823</ele>
        <time>2015-06-21T10:47:37Z</time>
      </trkpt>
      <trkpt lat="36.561085" lon="-5.309801">
        <ele>485.475</ele>
        <time>2015-06-21T10:47:38Z</time>
      </trkpt>
      <trkpt lat="36.561126" lon="-5.309851">
        <ele>485.416</ele>
        <time>2015-06-21T10:47:39Z</time>
      </trkpt>
      <trkpt lat="36.561214" lon="-5.310035">
        <ele>485.476</ele>
        <time>2015-06-21T10:47:42Z</time>
      </trkpt>
      <trkpt lat="36.561231" lon="-5.310108">
        <ele>485.413</ele>
        <time>2015-06-21T10:47:43Z</time>
      </trkpt>
      <trkpt lat="36.561245" lon="-5.310265">
        <ele>485.008</ele>
        <time>2015-06-21T10:47:45Z</time>
      </trkpt>
      <trkpt lat="36.561240" lon="-5.310346">
        <ele>484.692</ele>
        <time>2015-06-21T10:47:46Z</time>
      </trkpt>
      <trkpt lat="36.561238" lon="-5.310425">
        <ele>483.858</ele>
        <time>2015-06-21T10:47:47Z</time>
      </trkpt>
      <trkpt lat="36.561234" lon="-5.310505">
        <ele>483.451</ele>
        <time>2015-06-21T10:47:48Z</time>
      </trkpt>
      <trkpt lat="36.561239" lon="-5.310659">
        <ele>483.471</ele>
        <time>2015-06-21T10:47:50Z</time>
      </trkpt>
      <trkpt lat="36.561234" lon="-5.310819">
        <ele>483.495</ele>
        <time>2015-06-21T10:47:52Z</time>
      </trkpt>
      <trkpt lat="36.561242" lon="-5.310978">
        <ele>482.822</ele>
        <time>2015-06-21T10:47:54Z</time>
      </trkpt>
      <trkpt lat="36.561241" lon="-5.311060">
        <ele>482.481</ele>
        <time>2015-06-21T10:47:55Z</time>
      </trkpt>
      <trkpt lat="36.561232" lon="-5.311139">
        <ele>482.063</ele>
        <time>2015-06-21T10:47:56Z</time>
      </trkpt>
      <trkpt lat="36.561219" lon="-5.311225">
        <ele>481.632</ele>
        <time>2015-06-21T10:47:57Z</time>
      </trkpt>
      <trkpt lat="36.561205" lon="-5.311302">
        <ele>481.092</ele>
        <time>2015-06-21T10:47:58Z</time>
      </trkpt>
      <trkpt lat="36.561184" lon="-5.311378">
        <ele>481.011</ele>
        <time>2015-06-21T10:47:59Z</time>
      </trkpt>
      <trkpt lat="36.561092" lon="-5.311638">
        <ele>481.008</ele>
        <time>2015-06-21T10:48:02Z</time>
      </trkpt>
      <trkpt lat="36.561060" lon="-5.311714">
        <ele>480.674</ele>
        <time>2015-06-21T10:48:03Z</time>
      </trkpt>
      <trkpt lat="36.561023" lon="-5.311789">
        <ele>480.270</ele>
        <time>2015-06-21T10:48:04Z</time>
      </trkpt>
      <trkpt lat="36.560988" lon="-5.311871">
        <ele>479.623</ele>
        <time>2015-06-21T10:48:05Z</time>
      </trkpt>
      <trkpt lat="36.560975" lon="-5.311958">
        <ele>479.263</ele>
        <time>2015-06-21T10:48:06Z</time>
      </trkpt>
      <trkpt lat="36.560980" lon="-5.312048">
        <ele>478.897</ele>
        <time>2015-06-21T10:48:07Z</time>
      </trkpt>
      <trkpt lat="36.560982" lon="-5.312215">
        <ele>478.874</ele>
        <time>2015-06-21T10:48:09Z</time>
      </trkpt>
      <trkpt lat="36.560977" lon="-5.312298">
        <ele>478.463</ele>
        <time>2015-06-21T10:48:10Z</time>
      </trkpt>
      <trkpt lat="36.560982" lon="-5.312369">
        <ele>478.035</ele>
        <time>2015-06-21T10:48:11Z</time>
      </trkpt>
      <trkpt lat="36.560999" lon="-5.312435">
        <ele>477.068</ele>
        <time>2015-06-21T10:48:12Z</time>
      </trkpt>
      <trkpt lat="36.561005" lon="-5.312495">
        <ele>476.642</ele>
        <time>2015-06-21T10:48:13Z</time>
      </trkpt>
      <trkpt lat="36.560995" lon="-5.312667">
        <ele>476.626</ele>
        <time>2015-06-21T10:48:17Z</time>
      </trkpt>
      <trkpt lat="36.560982" lon="-5.312728">
        <ele>476.608</ele>
        <time>2015-06-21T10:48:19Z</time>
      </trkpt>
      <trkpt lat="36.560950" lon="-5.312854">
        <ele>476.647</ele>
        <time>2015-06-21T10:48:22Z</time>
      </trkpt>
      <trkpt lat="36.560914" lon="-5.312984">
        <ele>476.613</ele>
        <time>2015-06-21T10:48:24Z</time>
      </trkpt>
      <trkpt lat="36.560887" lon="-5.313063">
        <ele>476.666</ele>
        <time>2015-06-21T10:48:25Z</time>
      </trkpt>
      <trkpt lat="36.560735" lon="-5.313360">
        <ele>476.656</ele>
        <time>2015-06-21T10:48:29Z</time>
      </trkpt>
      <trkpt lat="36.560730" lon="-5.313503">
        <ele>476.220</ele>
        <time>2015-06-21T10:48:31Z</time>
      </trkpt>
      <trkpt lat="36.560738" lon="-5.313566">
        <ele>475.887</ele>
        <time>2015-06-21T10:48:32Z</time>
      </trkpt>
      <trkpt lat="36.560743" lon="-5.313623">
        <ele>475.426</ele>
        <time>2015-06-21T10:48:33Z</time>
      </trkpt>
      <trkpt lat="36.560760" lon="-5.313665">
        <ele>475.068</ele>
        <time>2015-06-21T10:48:34Z</time>
      </trkpt>
      <trkpt lat="36.560766" lon="-5.313698">
        <ele>474.629</ele>
        <time>2015-06-21T10:48:35Z</time>
      </trkpt>
      <trkpt lat="36.560775" lon="-5.313716">
        <ele>474.600</ele>
        <time>2015-06-21T10:48:36Z</time>
      </trkpt>
      <trkpt lat="36.560805" lon="-5.313786">
        <ele>474.620</ele>
        <time>2015-06-21T10:48:39Z</time>
      </trkpt>
      <trkpt lat="36.560827" lon="-5.313840">
        <ele>474.608</ele>
        <time>2015-06-21T10:48:42Z</time>
      </trkpt>
      <trkpt lat="36.560856" lon="-5.313962">
        <ele>475.013</ele>
        <time>2015-06-21T10:48:48Z</time>
      </trkpt>
      <trkpt lat="36.560863" lon="-5.313990">
        <ele>475.479</ele>
        <time>2015-06-21T10:48:49Z</time>
      </trkpt>
      <trkpt lat="36.560871" lon="-5.314012">
        <ele>475.852</ele>
        <time>2015-06-21T10:48:50Z</time>
      </trkpt>
      <trkpt lat="36.560881" lon="-5.314037">
        <ele>476.262</ele>
        <time>2015-06-21T10:48:51Z</time>
      </trkpt>
      <trkpt lat="36.560893" lon="-5.314062">
        <ele>476.626</ele>
        <time>2015-06-21T10:48:52Z</time>
      </trkpt>
      <trkpt lat="36.560933" lon="-5.314158">
        <ele>476.673</ele>
        <time>2015-06-21T10:48:55Z</time>
      </trkpt>
      <trkpt lat="36.560998" lon="-5.314379">
        <ele>476.672</ele>
        <time>2015-06-21T10:49:01Z</time>
      </trkpt>
      <trkpt lat="36.561065" lon="-5.314642">
        <ele>476.694</ele>
        <time>2015-06-21T10:49:08Z</time>
      </trkpt>
      <trkpt lat="36.561112" lon="-5.314816">
        <ele>476.669</ele>
        <time>2015-06-21T10:49:13Z</time>
      </trkpt>
      <trkpt lat="36.561200" lon="-5.315046">
        <ele>476.604</ele>
        <time>2015-06-21T10:49:18Z</time>
      </trkpt>
      <trkpt lat="36.561227" lon="-5.315095">
        <ele>476.624</ele>
        <time>2015-06-21T10:49:19Z</time>
      </trkpt>
      <trkpt lat="36.561327" lon="-5.315352">
        <ele>476.608</ele>
        <time>2015-06-21T10:49:24Z</time>
      </trkpt>
      <trkpt lat="36.561385" lon="-5.315437">
        <ele>476.697</ele>
        <time>2015-06-21T10:49:26Z</time>
      </trkpt>
      <trkpt lat="36.561452" lon="-5.315516">
        <ele>476.673</ele>
        <time>2015-06-21T10:49:28Z</time>
      </trkpt>
      <trkpt lat="36.561489" lon="-5.315534">
        <ele>476.626</ele>
        <time>2015-06-21T10:49:29Z</time>
      </trkpt>
      <trkpt lat="36.561572" lon="-5.315636">
        <ele>476.686</ele>
        <time>2015-06-21T10:49:32Z</time>
      </trkpt>
      <trkpt lat="36.561595" lon="-5.315669">
        <ele>476.620</ele>
        <time>2015-06-21T10:49:33Z</time>
      </trkpt>
      <trkpt lat="36.561615" lon="-5.315701">
        <ele>476.627</ele>
        <time>2015-06-21T10:49:34Z</time>
      </trkpt>
      <trkpt lat="36.561734" lon="-5.315861">
        <ele>476.676</ele>
        <time>2015-06-21T10:49:40Z</time>
      </trkpt>
      <trkpt lat="36.561754" lon="-5.315892">
        <ele>476.648</ele>
        <time>2015-06-21T10:49:41Z</time>
      </trkpt>
      <trkpt lat="36.561870" lon="-5.316074">
        <ele>476.639</ele>
        <time>2015-06-21T10:49:47Z</time>
      </trkpt>
      <trkpt lat="36.561997" lon="-5.316242">
        <ele>476.601</ele>
        <time>2015-06-21T10:49:53Z</time>
      </trkpt>
      <trkpt lat="36.562046" lon="-5.316290">
        <ele>477.021</ele>
        <time>2015-06-21T10:49:55Z</time>
      </trkpt>
      <trkpt lat="36.562071" lon="-5.316308">
        <ele>477.408</ele>
        <time>2015-06-21T10:49:56Z</time>
      </trkpt>
      <trkpt lat="36.562096" lon="-5.316323">
        <ele>477.854</ele>
        <time>2015-06-21T10:49:57Z</time>
      </trkpt>
      <trkpt lat="36.562119" lon="-5.316342">
        <ele>478.210</ele>
        <time>2015-06-21T10:49:58Z</time>
      </trkpt>
      <trkpt lat="36.562142" lon="-5.316365">
        <ele>478.683</ele>
        <time>2015-06-21T10:49:59Z</time>
      </trkpt>
      <trkpt lat="36.562241" lon="-5.316499">
        <ele>478.683</ele>
        <time>2015-06-21T10:50:04Z</time>
      </trkpt>
      <trkpt lat="36.562380" lon="-5.316619">
        <ele>478.667</ele>
        <time>2015-06-21T10:50:09Z</time>
      </trkpt>
      <trkpt lat="36.562472" lon="-5.316733">
        <ele>478.654</ele>
        <time>2015-06-21T10:50:13Z</time>
      </trkpt>
      <trkpt lat="36.562625" lon="-5.316891">
        <ele>478.653</ele>
        <time>2015-06-21T10:50:19Z</time>
      </trkpt>
      <trkpt lat="36.562843" lon="-5.317055">
        <ele>478.695</ele>
        <time>2015-06-21T10:50:26Z</time>
      </trkpt>
      <trkpt lat="36.562930" lon="-5.317093">
        <ele>478.675</ele>
        <time>2015-06-21T10:50:28Z</time>
      </trkpt>
      <trkpt lat="36.563058" lon="-5.317196">
        <ele>478.628</ele>
        <time>2015-06-21T10:50:31Z</time>
      </trkpt>
      <trkpt lat="36.563099" lon="-5.317227">
        <ele>478.620</ele>
        <time>2015-06-21T10:50:32Z</time>
      </trkpt>
      <trkpt lat="36.563143" lon="-5.317249">
        <ele>478.608</ele>
        <time>2015-06-21T10:50:33Z</time>
      </trkpt>
      <trkpt lat="36.563294" lon="-5.317363">
        <ele>478.638</ele>
        <time>2015-06-21T10:50:37Z</time>
      </trkpt>
      <trkpt lat="36.563523" lon="-5.317534">
        <ele>478.694</ele>
        <time>2015-06-21T10:50:43Z</time>
      </trkpt>
      <trkpt lat="36.563667" lon="-5.317714">
        <ele>478.677</ele>
        <time>2015-06-21T10:50:47Z</time>
      </trkpt>
      <trkpt lat="36.563726" lon="-5.317811">
        <ele>478.647</ele>
        <time>2015-06-21T10:50:49Z</time>
      </trkpt>
      <trkpt lat="36.563821" lon="-5.317911">
        <ele>478.651</ele>
        <time>2015-06-21T10:50:51Z</time>
      </trkpt>
      <trkpt lat="36.563880" lon="-5.317963">
        <ele>478.278</ele>
        <time>2015-06-21T10:50:52Z</time>
      </trkpt>
      <trkpt lat="36.563941" lon="-5.318012">
        <ele>477.817</ele>
        <time>2015-06-21T10:50:53Z</time>
      </trkpt>
      <trkpt lat="36.564021" lon="-5.318060">
        <ele>477.249</ele>
        <time>2015-06-21T10:50:54Z</time>
      </trkpt>
      <trkpt lat="36.564108" lon="-5.318105">
        <ele>476.845</ele>
        <time>2015-06-21T10:50:55Z</time>
      </trkpt>
      <trkpt lat="36.564198" lon="-5.318154">
        <ele>476.247</ele>
        <time>2015-06-21T10:50:56Z</time>
      </trkpt>
      <trkpt lat="36.564295" lon="-5.318200">
        <ele>475.611</ele>
        <time>2015-06-21T10:50:57Z</time>
      </trkpt>
      <trkpt lat="36.564385" lon="-5.318244">
        <ele>475.008</ele>
        <time>2015-06-21T10:50:58Z</time>
      </trkpt>
      <trkpt lat="36.564467" lon="-5.318271">
        <ele>474.485</ele>
        <time>2015-06-21T10:50:59Z</time>
      </trkpt>
      <trkpt lat="36.564540" lon="-5.318276">
        <ele>473.681</ele>
        <time>2015-06-21T10:51:00Z</time>
      </trkpt>
      <trkpt lat="36.564606" lon="-5.318272">
        <ele>472.854</ele>
        <time>2015-06-21T10:51:01Z</time>
      </trkpt>
      <trkpt lat="36.564668" lon="-5.318247">
        <ele>472.064</ele>
        <time>2015-06-21T10:51:02Z</time>
      </trkpt>
      <trkpt lat="36.564725" lon="-5.318227">
        <ele>470.448</ele>
        <time>2015-06-21T10:51:03Z</time>
      </trkpt>
      <trkpt lat="36.564780" lon="-5.318202">
        <ele>469.615</ele>
        <time>2015-06-21T10:51:04Z</time>
      </trkpt>
      <trkpt lat="36.564847" lon="-5.318162">
        <ele>468.834</ele>
        <time>2015-06-21T10:51:05Z</time>
      </trkpt>
      <trkpt lat="36.564927" lon="-5.318108">
        <ele>467.836</ele>
        <time>2015-06-21T10:51:06Z</time>
      </trkpt>
      <trkpt lat="36.565023" lon="-5.318051">
        <ele>467.237</ele>
        <time>2015-06-21T10:51:07Z</time>
      </trkpt>
      <trkpt lat="36.565110" lon="-5.318003">
        <ele>466.449</ele>
        <time>2015-06-21T10:51:08Z</time>
      </trkpt>
      <trkpt lat="36.565197" lon="-5.317973">
        <ele>465.613</ele>
        <time>2015-06-21T10:51:09Z</time>
      </trkpt>
      <trkpt lat="36.565277" lon="-5.317956">
        <ele>464.808</ele>
        <time>2015-06-21T10:51:10Z</time>
      </trkpt>
      <trkpt lat="36.565357" lon="-5.317972">
        <ele>464.014</ele>
        <time>2015-06-21T10:51:11Z</time>
      </trkpt>
      <trkpt lat="36.565424" lon="-5.318006">
        <ele>463.260</ele>
        <time>2015-06-21T10:51:12Z</time>
      </trkpt>
      <trkpt lat="36.565477" lon="-5.318035">
        <ele>462.463</ele>
        <time>2015-06-21T10:51:13Z</time>
      </trkpt>
      <trkpt lat="36.565531" lon="-5.318040">
        <ele>461.833</ele>
        <time>2015-06-21T10:51:14Z</time>
      </trkpt>
      <trkpt lat="36.565587" lon="-5.318025">
        <ele>461.057</ele>
        <time>2015-06-21T10:51:15Z</time>
      </trkpt>
      <trkpt lat="36.565648" lon="-5.318006">
        <ele>460.234</ele>
        <time>2015-06-21T10:51:16Z</time>
      </trkpt>
      <trkpt lat="36.565701" lon="-5.318003">
        <ele>459.633</ele>
        <time>2015-06-21T10:51:17Z</time>
      </trkpt>
      <trkpt lat="36.565746" lon="-5.318010">
        <ele>458.835</ele>
        <time>2015-06-21T10:51:18Z</time>
      </trkpt>
      <trkpt lat="36.565792" lon="-5.318049">
        <ele>458.019</ele>
        <time>2015-06-21T10:51:19Z</time>
      </trkpt>
      <trkpt lat="36.565813" lon="-5.318099">
        <ele>457.409</ele>
        <time>2015-06-21T10:51:20Z</time>
      </trkpt>
      <trkpt lat="36.565800" lon="-5.318138">
        <ele>456.619</ele>
        <time>2015-06-21T10:51:21Z</time>
      </trkpt>
      <trkpt lat="36.565791" lon="-5.318171">
        <ele>455.808</ele>
        <time>2015-06-21T10:51:22Z</time>
      </trkpt>
      <trkpt lat="36.565785" lon="-5.318194">
        <ele>455.282</ele>
        <time>2015-06-21T10:51:23Z</time>
      </trkpt>
      <trkpt lat="36.565776" lon="-5.318210">
        <ele>455.278</ele>
        <time>2015-06-21T10:51:24Z</time>
      </trkpt>
      <trkpt lat="36.565738" lon="-5.318270">
        <ele>455.241</ele>
        <time>2015-06-21T10:51:28Z</time>
      </trkpt>
      <trkpt lat="36.565717" lon="-5.318281">
        <ele>455.241</ele>
        <time>2015-06-21T10:51:30Z</time>
      </trkpt>
      <trkpt lat="36.565696" lon="-5.318315">
        <ele>455.285</ele>
        <time>2015-06-21T10:51:32Z</time>
      </trkpt>
      <trkpt lat="36.565678" lon="-5.318351">
        <ele>455.212</ele>
        <time>2015-06-21T10:51:34Z</time>
      </trkpt>
      <trkpt lat="36.565651" lon="-5.318407">
        <ele>455.281</ele>
        <time>2015-06-21T10:51:37Z</time>
      </trkpt>
      <trkpt lat="36.565627" lon="-5.318467">
        <ele>455.693</ele>
        <time>2015-06-21T10:51:40Z</time>
      </trkpt>
      <trkpt lat="36.565620" lon="-5.318491">
        <ele>456.087</ele>
        <time>2015-06-21T10:51:41Z</time>
      </trkpt>
      <trkpt lat="36.565615" lon="-5.318515">
        <ele>456.442</ele>
        <time>2015-06-21T10:51:42Z</time>
      </trkpt>
      <trkpt lat="36.565607" lon="-5.318536">
        <ele>456.826</ele>
        <time>2015-06-21T10:51:43Z</time>
      </trkpt>
      <trkpt lat="36.565598" lon="-5.318563">
        <ele>457.208</ele>
        <time>2015-06-21T10:51:44Z</time>
      </trkpt>
      <trkpt lat="36.565539" lon="-5.318707">
        <ele>457.289</ele>
        <time>2015-06-21T10:51:51Z</time>
      </trkpt>
      <trkpt lat="36.565480" lon="-5.318831">
        <ele>457.265</ele>
        <time>2015-06-21T10:51:57Z</time>
      </trkpt>
      <trkpt lat="36.565427" lon="-5.318934">
        <ele>457.658</ele>
        <time>2015-06-21T10:52:03Z</time>
      </trkpt>
      <trkpt lat="36.565420" lon="-5.318947">
        <ele>458.088</ele>
        <time>2015-06-21T10:52:04Z</time>
      </trkpt>
      <trkpt lat="36.565412" lon="-5.318963">
        <ele>458.472</ele>
        <time>2015-06-21T10:52:05Z</time>
      </trkpt>
      <trkpt lat="36.565405" lon="-5.318978">
        <ele>459.029</ele>
        <time>2015-06-21T10:52:06Z</time>
      </trkpt>
      <trkpt lat="36.565391" lon="-5.318994">
        <ele>459.478</ele>
        <time>2015-06-21T10:52:07Z</time>
      </trkpt>
      <trkpt lat="36.565363" lon="-5.319042">
        <ele>459.460</ele>
        <time>2015-06-21T10:52:11Z</time>
      </trkpt>
      <trkpt lat="36.565344" lon="-5.319092">
        <ele>459.843</ele>
        <time>2015-06-21T10:52:15Z</time>
      </trkpt>
      <trkpt lat="36.565339" lon="-5.319108">
        <ele>460.264</ele>
        <time>2015-06-21T10:52:16Z</time>
      </trkpt>
      <trkpt lat="36.565331" lon="-5.319122">
        <ele>460.610</ele>
        <time>2015-06-21T10:52:17Z</time>
      </trkpt>
      <trkpt lat="36.565322" lon="-5.319136">
        <ele>461.408</ele>
        <time>2015-06-21T10:52:18Z</time>
      </trkpt>
      <trkpt lat="36.565300" lon="-5.319268">
        <ele>461.485</ele>
        <time>2015-06-21T10:52:25Z</time>
      </trkpt>
      <trkpt lat="36.565294" lon="-5.319350">
        <ele>461.871</ele>
        <time>2015-06-21T10:52:29Z</time>
      </trkpt>
      <trkpt lat="36.565295" lon="-5.319372">
        <ele>462.214</ele>
        <time>2015-06-21T10:52:30Z</time>
      </trkpt>
      <trkpt lat="36.565295" lon="-5.319391">
        <ele>462.674</ele>
        <time>2015-06-21T10:52:31Z</time>
      </trkpt>
      <trkpt lat="36.565299" lon="-5.319410">
        <ele>463.028</ele>
        <time>2015-06-21T10:52:32Z</time>
      </trkpt>
      <trkpt lat="36.565300" lon="-5.319431">
        <ele>463.485</ele>
        <time>2015-06-21T10:52:33Z</time>
      </trkpt>
      <trkpt lat="36.565284" lon="-5.319562">
        <ele>463.454</ele>
        <time>2015-06-21T10:52:40Z</time>
      </trkpt>
      <trkpt lat="36.565265" lon="-5.319700">
        <ele>463.426</ele>
        <time>2015-06-21T10:52:47Z</time>
      </trkpt>
      <trkpt lat="36.565266" lon="-5.319754">
        <ele>464.045</ele>
        <time>2015-06-21T10:52:50Z</time>
      </trkpt>
      <trkpt lat="36.565265" lon="-5.319772">
        <ele>464.647</ele>
        <time>2015-06-21T10:52:51Z</time>
      </trkpt>
      <trkpt lat="36.565264" lon="-5.319789">
        <ele>465.211</ele>
        <time>2015-06-21T10:52:52Z</time>
      </trkpt>
      <trkpt lat="36.565263" lon="-5.319808">
        <ele>465.808</ele>
        <time>2015-06-21T10:52:53Z</time>
      </trkpt>
      <trkpt lat="36.565260" lon="-5.319829">
        <ele>466.215</ele>
        <time>2015-06-21T10:52:54Z</time>
      </trkpt>
      <trkpt lat="36.565253" lon="-5.319851">
        <ele>466.261</ele>
        <time>2015-06-21T10:52:55Z</time>
      </trkpt>
      <trkpt lat="36.565250" lon="-5.319872">
        <ele>466.284</ele>
        <time>2015-06-21T10:52:56Z</time>
      </trkpt>
      <trkpt lat="36.565238" lon="-5.319936">
        <ele>466.214</ele>
        <time>2015-06-21T10:53:00Z</time>
      </trkpt>
      <trkpt lat="36.565222" lon="-5.320041">
        <ele>466.698</ele>
        <time>2015-06-21T10:53:07Z</time>
      </trkpt>
      <trkpt lat="36.565220" lon="-5.320055">
        <ele>467.295</ele>
        <time>2015-06-21T10:53:08Z</time>
      </trkpt>
      <trkpt lat="36.565216" lon="-5.320069">
        <ele>468.064</ele>
        <time>2015-06-21T10:53:09Z</time>
      </trkpt>
      <trkpt lat="36.565212" lon="-5.320086">
        <ele>468.466</ele>
        <time>2015-06-21T10:53:10Z</time>
      </trkpt>
      <trkpt lat="36.565178" lon="-5.320171">
        <ele>468.493</ele>
        <time>2015-06-21T10:53:16Z</time>
      </trkpt>
      <trkpt lat="36.565170" lon="-5.320196">
        <ele>468.865</ele>
        <time>2015-06-21T10:53:18Z</time>
      </trkpt>
      <trkpt lat="36.565165" lon="-5.320210">
        <ele>469.221</ele>
        <time>2015-06-21T10:53:19Z</time>
      </trkpt>
      <trkpt lat="36.565159" lon="-5.320222">
        <ele>469.608</ele>
        <time>2015-06-21T10:53:20Z</time>
      </trkpt>
      <trkpt lat="36.565151" lon="-5.320233">
        <ele>470.070</ele>
        <time>2015-06-21T10:53:21Z</time>
      </trkpt>
      <trkpt lat="36.565145" lon="-5.320247">
        <ele>470.616</ele>
        <time>2015-06-21T10:53:22Z</time>
      </trkpt>
      <trkpt lat="36.565144" lon="-5.320274">
        <ele>470.639</ele>
        <time>2015-06-21T10:53:24Z</time>
      </trkpt>
      <trkpt lat="36.565117" lon="-5.320404">
        <ele>470.649</ele>
        <time>2015-06-21T10:53:31Z</time>
      </trkpt>
      <trkpt lat="36.565103" lon="-5.320434">
        <ele>471.463</ele>
        <time>2015-06-21T10:53:33Z</time>
      </trkpt>
      <trkpt lat="36.565098" lon="-5.320449">
        <ele>471.870</ele>
        <time>2015-06-21T10:53:34Z</time>
      </trkpt>
      <trkpt lat="36.565094" lon="-5.320464">
        <ele>472.249</ele>
        <time>2015-06-21T10:53:35Z</time>
      </trkpt>
      <trkpt lat="36.565091" lon="-5.320478">
        <ele>472.621</ele>
        <time>2015-06-21T10:53:36Z</time>
      </trkpt>
      <trkpt lat="36.565089" lon="-5.320549">
        <ele>472.677</ele>
        <time>2015-06-21T10:53:40Z</time>
      </trkpt>
      <trkpt lat="36.565106" lon="-5.320629">
        <ele>473.061</ele>
        <time>2015-06-21T10:53:45Z</time>
      </trkpt>
      <trkpt lat="36.565112" lon="-5.320647">
        <ele>473.427</ele>
        <time>2015-06-21T10:53:46Z</time>
      </trkpt>
      <trkpt lat="36.565116" lon="-5.320664">
        <ele>473.808</ele>
        <time>2015-06-21T10:53:47Z</time>
      </trkpt>
      <trkpt lat="36.565120" lon="-5.320678">
        <ele>474.268</ele>
        <time>2015-06-21T10:53:48Z</time>
      </trkpt>
      <trkpt lat="36.565123" lon="-5.320695">
        <ele>474.834</ele>
        <time>2015-06-21T10:53:49Z</time>
      </trkpt>
      <trkpt lat="36.565146" lon="-5.320768">
        <ele>474.857</ele>
        <time>2015-06-21T10:53:54Z</time>
      </trkpt>
      <trkpt lat="36.565196" lon="-5.320868">
        <ele>475.247</ele>
        <time>2015-06-21T10:54:01Z</time>
      </trkpt>
      <trkpt lat="36.565206" lon="-5.320882">
        <ele>475.641</ele>
        <time>2015-06-21T10:54:02Z</time>
      </trkpt>
      <trkpt lat="36.565214" lon="-5.320892">
        <ele>476.058</ele>
        <time>2015-06-21T10:54:03Z</time>
      </trkpt>
      <trkpt lat="36.565226" lon="-5.320899">
        <ele>476.487</ele>
        <time>2015-06-21T10:54:04Z</time>
      </trkpt>
      <trkpt lat="36.565239" lon="-5.320902">
        <ele>476.879</ele>
        <time>2015-06-21T10:54:05Z</time>
      </trkpt>
      <trkpt lat="36.565278" lon="-5.320914">
        <ele>476.824</ele>
        <time>2015-06-21T10:54:08Z</time>
      </trkpt>
      <trkpt lat="36.565329" lon="-5.320943">
        <ele>476.804</ele>
        <time>2015-06-21T10:54:13Z</time>
      </trkpt>
      <trkpt lat="36.565340" lon="-5.320942">
        <ele>477.214</ele>
        <time>2015-06-21T10:54:14Z</time>
      </trkpt>
      <trkpt lat="36.565351" lon="-5.320938">
        <ele>477.608</ele>
        <time>2015-06-21T10:54:15Z</time>
      </trkpt>
      <trkpt lat="36.565365" lon="-5.320938">
        <ele>478.243</ele>
        <time>2015-06-21T10:54:16Z</time>
      </trkpt>
      <trkpt lat="36.565379" lon="-5.320941">
        <ele>478.619</ele>
        <time>2015-06-21T10:54:17Z</time>
      </trkpt>
      <trkpt lat="36.565392" lon="-5.320945">
        <ele>479.062</ele>
        <time>2015-06-21T10:54:18Z</time>
      </trkpt>
      <trkpt lat="36.565413" lon="-5.320962">
        <ele>479.022</ele>
        <time>2015-06-21T10:54:20Z</time>
      </trkpt>
      <trkpt lat="36.565488" lon="-5.320982">
        <ele>479.066</ele>
        <time>2015-06-21T10:54:25Z</time>
      </trkpt>
      <trkpt lat="36.565563" lon="-5.320955">
        <ele>479.013</ele>
        <time>2015-06-21T10:54:27Z</time>
      </trkpt>
      <trkpt lat="36.565610" lon="-5.320939">
        <ele>479.012</ele>
        <time>2015-06-21T10:54:28Z</time>
      </trkpt>
      <trkpt lat="36.565667" lon="-5.320929">
        <ele>479.014</ele>
        <time>2015-06-21T10:54:29Z</time>
      </trkpt>
      <trkpt lat="36.565886" lon="-5.320937">
        <ele>478.673</ele>
        <time>2015-06-21T10:54:32Z</time>
      </trkpt>
      <trkpt lat="36.565967" lon="-5.320949">
        <ele>478.085</ele>
        <time>2015-06-21T10:54:33Z</time>
      </trkpt>
      <trkpt lat="36.566043" lon="-5.320964">
        <ele>477.613</ele>
        <time>2015-06-21T10:54:34Z</time>
      </trkpt>
      <trkpt lat="36.566117" lon="-5.320982">
        <ele>477.208</ele>
        <time>2015-06-21T10:54:35Z</time>
      </trkpt>
      <trkpt lat="36.566192" lon="-5.321000">
        <ele>476.688</ele>
        <time>2015-06-21T10:54:36Z</time>
      </trkpt>
      <trkpt lat="36.566271" lon="-5.321021">
        <ele>476.284</ele>
        <time>2015-06-21T10:54:37Z</time>
      </trkpt>
      <trkpt lat="36.566356" lon="-5.321030">
        <ele>475.637</ele>
        <time>2015-06-21T10:54:38Z</time>
      </trkpt>
      <trkpt lat="36.566445" lon="-5.321024">
        <ele>475.017</ele>
        <time>2015-06-21T10:54:39Z</time>
      </trkpt>
      <trkpt lat="36.566539" lon="-5.321007">
        <ele>474.471</ele>
        <time>2015-06-21T10:54:40Z</time>
      </trkpt>
      <trkpt lat="36.566624" lon="-5.320993">
        <ele>473.828</ele>
        <time>2015-06-21T10:54:41Z</time>
      </trkpt>
      <trkpt lat="36.566698" lon="-5.320996">
        <ele>473.217</ele>
        <time>2015-06-21T10:54:42Z</time>
      </trkpt>
      <trkpt lat="36.566769" lon="-5.321012">
        <ele>472.649</ele>
        <time>2015-06-21T10:54:43Z</time>
      </trkpt>
      <trkpt lat="36.566848" lon="-5.321023">
        <ele>472.065</ele>
        <time>2015-06-21T10:54:44Z</time>
      </trkpt>
      <trkpt lat="36.566932" lon="-5.321027">
        <ele>471.468</ele>
        <time>2015-06-21T10:54:45Z</time>
      </trkpt>
      <trkpt lat="36.567007" lon="-5.321027">
        <ele>470.814</ele>
        <time>2015-06-21T10:54:46Z</time>
      </trkpt>
      <trkpt lat="36.567079" lon="-5.321024">
        <ele>469.408</ele>
        <time>2015-06-21T10:54:47Z</time>
      </trkpt>
      <trkpt lat="36.567146" lon="-5.321019">
        <ele>468.417</ele>
        <time>2015-06-21T10:54:48Z</time>
      </trkpt>
      <trkpt lat="36.567213" lon="-5.321011">
        <ele>467.443</ele>
        <time>2015-06-21T10:54:49Z</time>
      </trkpt>
      <trkpt lat="36.567277" lon="-5.321011">
        <ele>466.486</ele>
        <time>2015-06-21T10:54:50Z</time>
      </trkpt>
      <trkpt lat="36.567344" lon="-5.321016">
        <ele>465.276</ele>
        <time>2015-06-21T10:54:51Z</time>
      </trkpt>
      <trkpt lat="36.567417" lon="-5.321021">
        <ele>464.210</ele>
        <time>2015-06-21T10:54:52Z</time>
      </trkpt>
      <trkpt lat="36.567487" lon="-5.321024">
        <ele>463.247</ele>
        <time>2015-06-21T10:54:53Z</time>
      </trkpt>
      <trkpt lat="36.567555" lon="-5.321020">
        <ele>462.476</ele>
        <time>2015-06-21T10:54:54Z</time>
      </trkpt>
      <trkpt lat="36.567621" lon="-5.321018">
        <ele>461.468</ele>
        <time>2015-06-21T10:54:55Z</time>
      </trkpt>
      <trkpt lat="36.567692" lon="-5.321022">
        <ele>460.615</ele>
        <time>2015-06-21T10:54:56Z</time>
      </trkpt>
      <trkpt lat="36.567764" lon="-5.321030">
        <ele>459.665</ele>
        <time>2015-06-21T10:54:57Z</time>
      </trkpt>
      <trkpt lat="36.567832" lon="-5.321035">
        <ele>458.611</ele>
        <time>2015-06-21T10:54:58Z</time>
      </trkpt>
      <trkpt lat="36.567899" lon="-5.321040">
        <ele>457.408</ele>
        <time>2015-06-21T10:54:59Z</time>
      </trkpt>
      <trkpt lat="36.567966" lon="-5.321054">
        <ele>456.432</ele>
        <time>2015-06-21T10:55:00Z</time>
      </trkpt>
      <trkpt lat="36.568025" lon="-5.321078">
        <ele>455.458</ele>
        <time>2015-06-21T10:55:01Z</time>
      </trkpt>
      <trkpt lat="36.568086" lon="-5.321117">
        <ele>454.221</ele>
        <time>2015-06-21T10:55:02Z</time>
      </trkpt>
      <trkpt lat="36.568150" lon="-5.321168">
        <ele>453.211</ele>
        <time>2015-06-21T10:55:03Z</time>
      </trkpt>
      <trkpt lat="36.568216" lon="-5.321224">
        <ele>452.055</ele>
        <time>2015-06-21T10:55:04Z</time>
      </trkpt>
      <trkpt lat="36.568277" lon="-5.321275">
        <ele>451.072</ele>
        <time>2015-06-21T10:55:05Z</time>
      </trkpt>
      <trkpt lat="36.568336" lon="-5.321313">
        <ele>449.881</ele>
        <time>2015-06-21T10:55:06Z</time>
      </trkpt>
      <trkpt lat="36.568398" lon="-5.321336">
        <ele>448.623</ele>
        <time>2015-06-21T10:55:07Z</time>
      </trkpt>
      <trkpt lat="36.568460" lon="-5.321344">
        <ele>447.431</ele>
        <time>2015-06-21T10:55:08Z</time>
      </trkpt>
      <trkpt lat="36.568519" lon="-5.321340">
        <ele>446.261</ele>
        <time>2015-06-21T10:55:09Z</time>
      </trkpt>
      <trkpt lat="36.568575" lon="-5.321330">
        <ele>445.007</ele>
        <time>2015-06-21T10:55:10Z</time>
      </trkpt>
      <trkpt lat="36.568635" lon="-5.321320">
        <ele>443.608</ele>
        <time>2015-06-21T10:55:11Z</time>
      </trkpt>
      <trkpt lat="36.568692" lon="-5.321323">
        <ele>442.474</ele>
        <time>2015-06-21T10:55:12Z</time>
      </trkpt>
      <trkpt lat="36.568739" lon="-5.321340">
        <ele>439.890</ele>
        <time>2015-06-21T10:55:13Z</time>
      </trkpt>
      <trkpt lat="36.568780" lon="-5.321366">
        <ele>438.863</ele>
        <time>2015-06-21T10:55:14Z</time>
      </trkpt>
      <trkpt lat="36.568820" lon="-5.321398">
        <ele>437.813</ele>
        <time>2015-06-21T10:55:15Z</time>
      </trkpt>
      <trkpt lat="36.568867" lon="-5.321436">
        <ele>436.687</ele>
        <time>2015-06-21T10:55:16Z</time>
      </trkpt>
      <trkpt lat="36.568923" lon="-5.321481">
        <ele>435.854</ele>
        <time>2015-06-21T10:55:17Z</time>
      </trkpt>
      <trkpt lat="36.568991" lon="-5.321528">
        <ele>434.843</ele>
        <time>2015-06-21T10:55:18Z</time>
      </trkpt>
      <trkpt lat="36.569066" lon="-5.321577">
        <ele>433.865</ele>
        <time>2015-06-21T10:55:19Z</time>
      </trkpt>
      <trkpt lat="36.569147" lon="-5.321627">
        <ele>433.041</ele>
        <time>2015-06-21T10:55:20Z</time>
      </trkpt>
      <trkpt lat="36.569234" lon="-5.321681">
        <ele>432.281</ele>
        <time>2015-06-21T10:55:21Z</time>
      </trkpt>
      <trkpt lat="36.569322" lon="-5.321736">
        <ele>431.409</ele>
        <time>2015-06-21T10:55:22Z</time>
      </trkpt>
      <trkpt lat="36.569408" lon="-5.321791">
        <ele>430.408</ele>
        <time>2015-06-21T10:55:23Z</time>
      </trkpt>
      <trkpt lat="36.569478" lon="-5.321844">
        <ele>429.675</ele>
        <time>2015-06-21T10:55:24Z</time>
      </trkpt>
      <trkpt lat="36.569542" lon="-5.321901">
        <ele>428.671</ele>
        <time>2015-06-21T10:55:25Z</time>
      </trkpt>
      <trkpt lat="36.569599" lon="-5.321960">
        <ele>427.624</ele>
        <time>2015-06-21T10:55:26Z</time>
      </trkpt>
      <trkpt lat="36.569653" lon="-5.322019">
        <ele>426.614</ele>
        <time>2015-06-21T10:55:27Z</time>
      </trkpt>
      <trkpt lat="36.569702" lon="-5.322083">
        <ele>425.498</ele>
        <time>2015-06-21T10:55:28Z</time>
      </trkpt>
      <trkpt lat="36.569741" lon="-5.322163">
        <ele>424.265</ele>
        <time>2015-06-21T10:55:29Z</time>
      </trkpt>
      <trkpt lat="36.569768" lon="-5.322262">
        <ele>423.214</ele>
        <time>2015-06-21T10:55:30Z</time>
      </trkpt>
      <trkpt lat="36.569781" lon="-5.322365">
        <ele>422.056</ele>
        <time>2015-06-21T10:55:31Z</time>
      </trkpt>
      <trkpt lat="36.569790" lon="-5.322471">
        <ele>421.082</ele>
        <time>2015-06-21T10:55:32Z</time>
      </trkpt>
      <trkpt lat="36.569798" lon="-5.322576">
        <ele>420.243</ele>
        <time>2015-06-21T10:55:33Z</time>
      </trkpt>
      <trkpt lat="36.569811" lon="-5.322683">
        <ele>419.217</ele>
        <time>2015-06-21T10:55:34Z</time>
      </trkpt>
      <trkpt lat="36.569831" lon="-5.322790">
        <ele>418.408</ele>
        <time>2015-06-21T10:55:35Z</time>
      </trkpt>
      <trkpt lat="36.569858" lon="-5.322897">
        <ele>417.819</ele>
        <time>2015-06-21T10:55:36Z</time>
      </trkpt>
      <trkpt lat="36.569885" lon="-5.323001">
        <ele>416.415</ele>
        <time>2015-06-21T10:55:37Z</time>
      </trkpt>
      <trkpt lat="36.569914" lon="-5.323104">
        <ele>415.828</ele>
        <time>2015-06-21T10:55:38Z</time>
      </trkpt>
      <trkpt lat="36.569951" lon="-5.323194">
        <ele>415.288</ele>
        <time>2015-06-21T10:55:39Z</time>
      </trkpt>
      <trkpt lat="36.570005" lon="-5.323272">
        <ele>414.882</ele>
        <time>2015-06-21T10:55:40Z</time>
      </trkpt>
      <trkpt lat="36.570069" lon="-5.323342">
        <ele>414.499</ele>
        <time>2015-06-21T10:55:41Z</time>
      </trkpt>
      <trkpt lat="36.570139" lon="-5.323407">
        <ele>414.038</ele>
        <time>2015-06-21T10:55:42Z</time>
      </trkpt>
      <trkpt lat="36.570207" lon="-5.323475">
        <ele>413.480</ele>
        <time>2015-06-21T10:55:43Z</time>
      </trkpt>
      <trkpt lat="36.570270" lon="-5.323549">
        <ele>412.843</ele>
        <time>2015-06-21T10:55:44Z</time>
      </trkpt>
      <trkpt lat="36.570338" lon="-5.323627">
        <ele>412.264</ele>
        <time>2015-06-21T10:55:45Z</time>
      </trkpt>
      <trkpt lat="36.570410" lon="-5.323697">
        <ele>411.610</ele>
        <time>2015-06-21T10:55:46Z</time>
      </trkpt>
      <trkpt lat="36.570479" lon="-5.323763">
        <ele>411.208</ele>
        <time>2015-06-21T10:55:47Z</time>
      </trkpt>
      <trkpt lat="36.570537" lon="-5.323827">
        <ele>410.625</ele>
        <time>2015-06-21T10:55:48Z</time>
      </trkpt>
      <trkpt lat="36.570585" lon="-5.323897">
        <ele>410.081</ele>
        <time>2015-06-21T10:55:49Z</time>
      </trkpt>
      <trkpt lat="36.570623" lon="-5.323963">
        <ele>409.624</ele>
        <time>2015-06-21T10:55:50Z</time>
      </trkpt>
      <trkpt lat="36.570648" lon="-5.324016">
        <ele>408.834</ele>
        <time>2015-06-21T10:55:51Z</time>
      </trkpt>
      <trkpt lat="36.570661" lon="-5.324052">
        <ele>408.058</ele>
        <time>2015-06-21T10:55:52Z</time>
      </trkpt>
      <trkpt lat="36.570674" lon="-5.324073">
        <ele>407.455</ele>
        <time>2015-06-21T10:55:53Z</time>
      </trkpt>
      <trkpt lat="36.570693" lon="-5.324085">
        <ele>406.624</ele>
        <time>2015-06-21T10:55:54Z</time>
      </trkpt>
      <trkpt lat="36.570709" lon="-5.324087">
        <ele>406.056</ele>
        <time>2015-06-21T10:55:55Z</time>
      </trkpt>
      <trkpt lat="36.570720" lon="-5.324086">
        <ele>405.419</ele>
        <time>2015-06-21T10:55:56Z</time>
      </trkpt>
      <trkpt lat="36.570734" lon="-5.324082">
        <ele>404.809</ele>
        <time>2015-06-21T10:55:57Z</time>
      </trkpt>
      <trkpt lat="36.570750" lon="-5.324077">
        <ele>404.219</ele>
        <time>2015-06-21T10:55:58Z</time>
      </trkpt>
      <trkpt lat="36.570766" lon="-5.324067">
        <ele>403.608</ele>
        <time>2015-06-21T10:55:59Z</time>
      </trkpt>
      <trkpt lat="36.570789" lon="-5.324059">
        <ele>403.652</ele>
        <time>2015-06-21T10:56:02Z</time>
      </trkpt>
      <trkpt lat="36.570793" lon="-5.324063">
        <ele>403.648</ele>
        <time>2015-06-21T10:56:03Z</time>
      </trkpt>
      <trkpt lat="36.570799" lon="-5.324065">
        <ele>403.261</ele>
        <time>2015-06-21T10:56:04Z</time>
      </trkpt>
      <trkpt lat="36.570804" lon="-5.324068">
        <ele>402.891</ele>
        <time>2015-06-21T10:56:05Z</time>
      </trkpt>
      <trkpt lat="36.570813" lon="-5.324070">
        <ele>402.265</ele>
        <time>2015-06-21T10:56:06Z</time>
      </trkpt>
      <trkpt lat="36.570824" lon="-5.324070">
        <ele>401.892</ele>
        <time>2015-06-21T10:56:07Z</time>
      </trkpt>
      <trkpt lat="36.570841" lon="-5.324064">
        <ele>401.421</ele>
        <time>2015-06-21T10:56:08Z</time>
      </trkpt>
      <trkpt lat="36.570866" lon="-5.324062">
        <ele>401.443</ele>
        <time>2015-06-21T10:56:12Z</time>
      </trkpt>
      <trkpt lat="36.570876" lon="-5.324066">
        <ele>401.462</ele>
        <time>2015-06-21T10:56:18Z</time>
      </trkpt>
      <trkpt lat="36.570876" lon="-5.324067">
        <ele>401.483</ele>
        <time>2015-06-21T10:56:26Z</time>
      </trkpt>
      <trkpt lat="36.570912" lon="-5.324084">
        <ele>401.411</ele>
        <time>2015-06-21T10:56:32Z</time>
      </trkpt>
      <trkpt lat="36.570938" lon="-5.324084">
        <ele>401.408</ele>
        <time>2015-06-21T10:56:39Z</time>
      </trkpt>
      <trkpt lat="36.570950" lon="-5.324081">
        <ele>401.467</ele>
        <time>2015-06-21T10:56:44Z</time>
      </trkpt>
      <trkpt lat="36.570985" lon="-5.324080">
        <ele>401.453</ele>
        <time>2015-06-21T10:56:48Z</time>
      </trkpt>
      <trkpt lat="36.570995" lon="-5.324081">
        <ele>401.476</ele>
        <time>2015-06-21T10:56:49Z</time>
      </trkpt>
      <trkpt lat="36.571010" lon="-5.324077">
        <ele>401.486</ele>
        <time>2015-06-21T10:56:50Z</time>
      </trkpt>
      <trkpt lat="36.571043" lon="-5.324074">
        <ele>401.460</ele>
        <time>2015-06-21T10:56:52Z</time>
      </trkpt>
      <trkpt lat="36.571175" lon="-5.324076">
        <ele>401.057</ele>
        <time>2015-06-21T10:56:59Z</time>
      </trkpt>
      <trkpt lat="36.571186" lon="-5.324077">
        <ele>400.666</ele>
        <time>2015-06-21T10:57:00Z</time>
      </trkpt>
      <trkpt lat="36.571193" lon="-5.324080">
        <ele>400.248</ele>
        <time>2015-06-21T10:57:01Z</time>
      </trkpt>
      <trkpt lat="36.571202" lon="-5.324083">
        <ele>399.897</ele>
        <time>2015-06-21T10:57:02Z</time>
      </trkpt>
      <trkpt lat="36.571213" lon="-5.324080">
        <ele>399.423</ele>
        <time>2015-06-21T10:57:03Z</time>
      </trkpt>
      <trkpt lat="36.571248" lon="-5.324078">
        <ele>399.425</ele>
        <time>2015-06-21T10:57:05Z</time>
      </trkpt>
      <trkpt lat="36.571319" lon="-5.324073">
        <ele>399.408</ele>
        <time>2015-06-21T10:57:08Z</time>
      </trkpt>
      <trkpt lat="36.571387" lon="-5.324080">
        <ele>399.460</ele>
        <time>2015-06-21T10:57:10Z</time>
      </trkpt>
      <trkpt lat="36.571517" lon="-5.324156">
        <ele>399.436</ele>
        <time>2015-06-21T10:57:14Z</time>
      </trkpt>
      <trkpt lat="36.571620" lon="-5.324232">
        <ele>399.479</ele>
        <time>2015-06-21T10:57:18Z</time>
      </trkpt>
      <trkpt lat="36.571641" lon="-5.324254">
        <ele>399.429</ele>
        <time>2015-06-21T10:57:19Z</time>
      </trkpt>
      <trkpt lat="36.571656" lon="-5.324266">
        <ele>399.093</ele>
        <time>2015-06-21T10:57:20Z</time>
      </trkpt>
      <trkpt lat="36.571669" lon="-5.324273">
        <ele>398.690</ele>
        <time>2015-06-21T10:57:21Z</time>
      </trkpt>
      <trkpt lat="36.571676" lon="-5.324280">
        <ele>398.229</ele>
        <time>2015-06-21T10:57:22Z</time>
      </trkpt>
      <trkpt lat="36.571682" lon="-5.324286">
        <ele>397.831</ele>
        <time>2015-06-21T10:57:23Z</time>
      </trkpt>
      <trkpt lat="36.571684" lon="-5.324290">
        <ele>397.445</ele>
        <time>2015-06-21T10:57:24Z</time>
      </trkpt>
      <trkpt lat="36.571696" lon="-5.324307">
        <ele>397.447</ele>
        <time>2015-06-21T10:57:26Z</time>
      </trkpt>
      <trkpt lat="36.571701" lon="-5.324314">
        <ele>397.411</ele>
        <time>2015-06-21T10:57:27Z</time>
      </trkpt>
      <trkpt lat="36.571705" lon="-5.324318">
        <ele>397.408</ele>
        <time>2015-06-21T10:57:31Z</time>
      </trkpt>
      <trkpt lat="36.571719" lon="-5.324320">
        <ele>397.485</ele>
        <time>2015-06-21T10:57:34Z</time>
      </trkpt>
      <trkpt lat="36.571739" lon="-5.324326">
        <ele>397.451</ele>
        <time>2015-06-21T10:57:40Z</time>
      </trkpt>
      <trkpt lat="36.571739" lon="-5.324326">
        <ele>397.494</ele>
        <time>2015-06-21T10:57:46Z</time>
      </trkpt>
      <trkpt lat="36.571739" lon="-5.324326">
        <ele>397.464</ele>
        <time>2015-06-21T10:57:49Z</time>
      </trkpt>
      <trkpt lat="36.571760" lon="-5.324325">
        <ele>397.458</ele>
        <time>2015-06-21T10:57:55Z</time>
      </trkpt>
      <trkpt lat="36.571767" lon="-5.324329">
        <ele>397.455</ele>
        <time>2015-06-21T10:57:56Z</time>
      </trkpt>
      <trkpt lat="36.571787" lon="-5.324342">
        <ele>397.444</ele>
        <time>2015-06-21T10:57:59Z</time>
      </trkpt>
      <trkpt lat="36.571787" lon="-5.324342">
        <ele>397.496</ele>
        <time>2015-06-21T10:58:00Z</time>
      </trkpt>
      <trkpt lat="36.571826" lon="-5.324380">
        <ele>397.479</ele>
        <time>2015-06-21T10:58:05Z</time>
      </trkpt>
      <trkpt lat="36.571871" lon="-5.324431">
        <ele>397.405</ele>
        <time>2015-06-21T10:58:09Z</time>
      </trkpt>
      <trkpt lat="36.571888" lon="-5.324451">
        <ele>397.425</ele>
        <time>2015-06-21T10:58:10Z</time>
      </trkpt>
      <trkpt lat="36.571937" lon="-5.324485">
        <ele>397.408</ele>
        <time>2015-06-21T10:58:12Z</time>
      </trkpt>
      <trkpt lat="36.572000" lon="-5.324521">
        <ele>397.058</ele>
        <time>2015-06-21T10:58:15Z</time>
      </trkpt>
      <trkpt lat="36.572019" lon="-5.324529">
        <ele>396.624</ele>
        <time>2015-06-21T10:58:16Z</time>
      </trkpt>
      <trkpt lat="36.572040" lon="-5.324540">
        <ele>396.267</ele>
        <time>2015-06-21T10:58:17Z</time>
      </trkpt>
      <trkpt lat="36.572064" lon="-5.324550">
        <ele>395.897</ele>
        <time>2015-06-21T10:58:18Z</time>
      </trkpt>
      <trkpt lat="36.572086" lon="-5.324552">
        <ele>395.461</ele>
        <time>2015-06-21T10:58:19Z</time>
      </trkpt>
      <trkpt lat="36.572120" lon="-5.324560">
        <ele>395.448</ele>
        <time>2015-06-21T10:58:21Z</time>
      </trkpt>
      <trkpt lat="36.572211" lon="-5.324599">
        <ele>395.467</ele>
        <time>2015-06-21T10:58:27Z</time>
      </trkpt>
      <trkpt lat="36.572227" lon="-5.324597">
        <ele>395.429</ele>
        <time>2015-06-21T10:58:31Z</time>
      </trkpt>
      <trkpt lat="36.572227" lon="-5.324597">
        <ele>395.473</ele>
        <time>2015-06-21T10:58:36Z</time>
      </trkpt>
      <trkpt lat="36.572227" lon="-5.324597">
        <ele>395.485</ele>
        <time>2015-06-21T10:58:38Z</time>
      </trkpt>
      <trkpt lat="36.572237" lon="-5.324601">
        <ele>395.013</ele>
        <time>2015-06-21T10:58:45Z</time>
      </trkpt>
      <trkpt lat="36.572244" lon="-5.324603">
        <ele>394.608</ele>
        <time>2015-06-21T10:58:46Z</time>
      </trkpt>
      <trkpt lat="36.572254" lon="-5.324604">
        <ele>394.298</ele>
        <time>2015-06-21T10:58:47Z</time>
      </trkpt>
      <trkpt lat="36.572262" lon="-5.324605">
        <ele>393.834</ele>
        <time>2015-06-21T10:58:48Z</time>
      </trkpt>
      <trkpt lat="36.572270" lon="-5.324611">
        <ele>393.487</ele>
        <time>2015-06-21T10:58:49Z</time>
      </trkpt>
      <trkpt lat="36.572283" lon="-5.324615">
        <ele>393.497</ele>
        <time>2015-06-21T10:58:52Z</time>
      </trkpt>
      <trkpt lat="36.572294" lon="-5.324620">
        <ele>393.461</ele>
        <time>2015-06-21T10:58:57Z</time>
      </trkpt>
      <trkpt lat="36.572308" lon="-5.324624">
        <ele>393.478</ele>
        <time>2015-06-21T10:59:03Z</time>
      </trkpt>
      <trkpt lat="36.572320" lon="-5.324631">
        <ele>393.447</ele>
        <time>2015-06-21T10:59:06Z</time>
      </trkpt>
      <trkpt lat="36.572331" lon="-5.324630">
        <ele>393.419</ele>
        <time>2015-06-21T10:59:11Z</time>
      </trkpt>
      <trkpt lat="36.572356" lon="-5.324630">
        <ele>393.499</ele>
        <time>2015-06-21T10:59:14Z</time>
      </trkpt>
      <trkpt lat="36.572364" lon="-5.324631">
        <ele>393.007</ele>
        <time>2015-06-21T10:59:15Z</time>
      </trkpt>
      <trkpt lat="36.572375" lon="-5.324634">
        <ele>392.627</ele>
        <time>2015-06-21T10:59:16Z</time>
      </trkpt>
      <trkpt lat="36.572384" lon="-5.324640">
        <ele>392.008</ele>
        <time>2015-06-21T10:59:17Z</time>
      </trkpt>
      <trkpt lat="36.572393" lon="-5.324643">
        <ele>391.620</ele>
        <time>2015-06-21T10:59:18Z</time>
      </trkpt>
      <trkpt lat="36.572400" lon="-5.324641">
        <ele>391.236</ele>
        <time>2015-06-21T10:59:19Z</time>
      </trkpt>
      <trkpt lat="36.572433" lon="-5.324660">
        <ele>391.299</ele>
        <time>2015-06-21T10:59:23Z</time>
      </trkpt>
      <trkpt lat="36.572482" lon="-5.324685">
        <ele>391.239</ele>
        <time>2015-06-21T10:59:30Z</time>
      </trkpt>
      <trkpt lat="36.572506" lon="-5.324679">
        <ele>391.293</ele>
        <time>2015-06-21T10:59:36Z</time>
      </trkpt>
      <trkpt lat="36.572515" lon="-5.324689">
        <ele>391.240</ele>
        <time>2015-06-21T10:59:44Z</time>
      </trkpt>
      <trkpt lat="36.572543" lon="-5.324707">
        <ele>391.259</ele>
        <time>2015-06-21T10:59:50Z</time>
      </trkpt>
      <trkpt lat="36.572591" lon="-5.324734">
        <ele>391.251</ele>
        <time>2015-06-21T10:59:58Z</time>
      </trkpt>
      <trkpt lat="36.572603" lon="-5.324744">
        <ele>391.229</ele>
        <time>2015-06-21T11:00:00Z</time>
      </trkpt>
      <trkpt lat="36.572647" lon="-5.324766">
        <ele>391.200</ele>
        <time>2015-06-21T11:00:03Z</time>
      </trkpt>
      <trkpt lat="36.572677" lon="-5.324791">
        <ele>391.220</ele>
        <time>2015-06-21T11:00:05Z</time>
      </trkpt>
      <trkpt lat="36.572727" lon="-5.324795">
        <ele>391.208</ele>
        <time>2015-06-21T11:00:08Z</time>
      </trkpt>
      <trkpt lat="36.572878" lon="-5.324787">
        <ele>391.213</ele>
        <time>2015-06-21T11:00:13Z</time>
      </trkpt>
      <trkpt lat="36.573006" lon="-5.324790">
        <ele>391.259</ele>
        <time>2015-06-21T11:00:17Z</time>
      </trkpt>
      <trkpt lat="36.573029" lon="-5.324786">
        <ele>391.282</ele>
        <time>2015-06-21T11:00:18Z</time>
      </trkpt>
      <trkpt lat="36.573051" lon="-5.324791">
        <ele>390.872</ele>
        <time>2015-06-21T11:00:19Z</time>
      </trkpt>
      <trkpt lat="36.573070" lon="-5.324798">
        <ele>390.456</ele>
        <time>2015-06-21T11:00:20Z</time>
      </trkpt>
      <trkpt lat="36.573084" lon="-5.324804">
        <ele>390.013</ele>
        <time>2015-06-21T11:00:21Z</time>
      </trkpt>
      <trkpt lat="36.573101" lon="-5.324812">
        <ele>389.622</ele>
        <time>2015-06-21T11:00:22Z</time>
      </trkpt>
      <trkpt lat="36.573122" lon="-5.324827">
        <ele>389.224</ele>
        <time>2015-06-21T11:00:23Z</time>
      </trkpt>
      <trkpt lat="36.573196" lon="-5.324896">
        <ele>389.285</ele>
        <time>2015-06-21T11:00:26Z</time>
      </trkpt>
      <trkpt lat="36.573254" lon="-5.324936">
        <ele>388.889</ele>
        <time>2015-06-21T11:00:28Z</time>
      </trkpt>
      <trkpt lat="36.573286" lon="-5.324950">
        <ele>388.417</ele>
        <time>2015-06-21T11:00:29Z</time>
      </trkpt>
      <trkpt lat="36.573321" lon="-5.324956">
        <ele>388.008</ele>
        <time>2015-06-21T11:00:30Z</time>
      </trkpt>
      <trkpt lat="36.573356" lon="-5.324956">
        <ele>387.689</ele>
        <time>2015-06-21T11:00:31Z</time>
      </trkpt>
      <trkpt lat="36.573390" lon="-5.324956">
        <ele>387.295</ele>
        <time>2015-06-21T11:00:32Z</time>
      </trkpt>
      <trkpt lat="36.573455" lon="-5.324969">
        <ele>386.298</ele>
        <time>2015-06-21T11:00:34Z</time>
      </trkpt>
      <trkpt lat="36.573490" lon="-5.324981">
        <ele>385.858</ele>
        <time>2015-06-21T11:00:35Z</time>
      </trkpt>
      <trkpt lat="36.573526" lon="-5.324995">
        <ele>385.262</ele>
        <time>2015-06-21T11:00:36Z</time>
      </trkpt>
      <trkpt lat="36.573570" lon="-5.325005">
        <ele>384.819</ele>
        <time>2015-06-21T11:00:37Z</time>
      </trkpt>
      <trkpt lat="36.573681" lon="-5.325065">
        <ele>384.818</ele>
        <time>2015-06-21T11:00:40Z</time>
      </trkpt>
      <trkpt lat="36.573711" lon="-5.325099">
        <ele>384.490</ele>
        <time>2015-06-21T11:00:41Z</time>
      </trkpt>
      <trkpt lat="36.573738" lon="-5.325136">
        <ele>384.023</ele>
        <time>2015-06-21T11:00:42Z</time>
      </trkpt>
      <trkpt lat="36.573765" lon="-5.325172">
        <ele>383.683</ele>
        <time>2015-06-21T11:00:43Z</time>
      </trkpt>
      <trkpt lat="36.573797" lon="-5.325209">
        <ele>383.211</ele>
        <time>2015-06-21T11:00:44Z</time>
      </trkpt>
      <trkpt lat="36.573826" lon="-5.325244">
        <ele>382.808</ele>
        <time>2015-06-21T11:00:45Z</time>
      </trkpt>
      <trkpt lat="36.573871" lon="-5.325312">
        <ele>382.853</ele>
        <time>2015-06-21T11:00:47Z</time>
      </trkpt>
      <trkpt lat="36.573967" lon="-5.325429">
        <ele>382.429</ele>
        <time>2015-06-21T11:00:51Z</time>
      </trkpt>
      <trkpt lat="36.573987" lon="-5.325447">
        <ele>381.872</ele>
        <time>2015-06-21T11:00:52Z</time>
      </trkpt>
      <trkpt lat="36.574006" lon="-5.325465">
        <ele>381.472</ele>
        <time>2015-06-21T11:00:53Z</time>
      </trkpt>
      <trkpt lat="36.574029" lon="-5.325482">
        <ele>381.076</ele>
        <time>2015-06-21T11:00:54Z</time>
      </trkpt>
      <trkpt lat="36.574056" lon="-5.325500">
        <ele>380.663</ele>
        <time>2015-06-21T11:00:55Z</time>
      </trkpt>
      <trkpt lat="36.574129" lon="-5.325551">
        <ele>380.632</ele>
        <time>2015-06-21T11:00:58Z</time>
      </trkpt>
      <trkpt lat="36.574283" lon="-5.325658">
        <ele>380.644</ele>
        <time>2015-06-21T11:01:04Z</time>
      </trkpt>
      <trkpt lat="36.574312" lon="-5.325679">
        <ele>380.296</ele>
        <time>2015-06-21T11:01:05Z</time>
      </trkpt>
      <trkpt lat="36.574339" lon="-5.325703">
        <ele>379.831</ele>
        <time>2015-06-21T11:01:06Z</time>
      </trkpt>
      <trkpt lat="36.574366" lon="-5.325723">
        <ele>379.424</ele>
        <time>2015-06-21T11:01:07Z</time>
      </trkpt>
      <trkpt lat="36.574389" lon="-5.325737">
        <ele>379.008</ele>
        <time>2015-06-21T11:01:08Z</time>
      </trkpt>
      <trkpt lat="36.574409" lon="-5.325749">
        <ele>378.410</ele>
        <time>2015-06-21T11:01:09Z</time>
      </trkpt>
      <trkpt lat="36.574444" lon="-5.325770">
        <ele>378.036</ele>
        <time>2015-06-21T11:01:11Z</time>
      </trkpt>
      <trkpt lat="36.574466" lon="-5.325782">
        <ele>377.689</ele>
        <time>2015-06-21T11:01:12Z</time>
      </trkpt>
      <trkpt lat="36.574495" lon="-5.325797">
        <ele>377.059</ele>
        <time>2015-06-21T11:01:13Z</time>
      </trkpt>
      <trkpt lat="36.574529" lon="-5.325821">
        <ele>376.643</ele>
        <time>2015-06-21T11:01:14Z</time>
      </trkpt>
      <trkpt lat="36.574565" lon="-5.325847">
        <ele>376.210</ele>
        <time>2015-06-21T11:01:15Z</time>
      </trkpt>
      <trkpt lat="36.574605" lon="-5.325885">
        <ele>376.289</ele>
        <time>2015-06-21T11:01:16Z</time>
      </trkpt>
      <trkpt lat="36.574685" lon="-5.325983">
        <ele>376.261</ele>
        <time>2015-06-21T11:01:18Z</time>
      </trkpt>
      <trkpt lat="36.574723" lon="-5.326043">
        <ele>375.683</ele>
        <time>2015-06-21T11:01:19Z</time>
      </trkpt>
      <trkpt lat="36.574760" lon="-5.326104">
        <ele>375.225</ele>
        <time>2015-06-21T11:01:20Z</time>
      </trkpt>
      <trkpt lat="36.574801" lon="-5.326157">
        <ele>374.617</ele>
        <time>2015-06-21T11:01:21Z</time>
      </trkpt>
      <trkpt lat="36.574849" lon="-5.326208">
        <ele>374.008</ele>
        <time>2015-06-21T11:01:22Z</time>
      </trkpt>
      <trkpt lat="36.574903" lon="-5.326261">
        <ele>373.679</ele>
        <time>2015-06-21T11:01:23Z</time>
      </trkpt>
      <trkpt lat="36.575087" lon="-5.326373">
        <ele>373.285</ele>
        <time>2015-06-21T11:01:26Z</time>
      </trkpt>
      <trkpt lat="36.575149" lon="-5.326407">
        <ele>372.878</ele>
        <time>2015-06-21T11:01:27Z</time>
      </trkpt>
      <trkpt lat="36.575206" lon="-5.326438">
        <ele>372.438</ele>
        <time>2015-06-21T11:01:28Z</time>
      </trkpt>
      <trkpt lat="36.575264" lon="-5.326468">
        <ele>372.022</ele>
        <time>2015-06-21T11:01:29Z</time>
      </trkpt>
      <trkpt lat="36.575316" lon="-5.326496">
        <ele>371.629</ele>
        <time>2015-06-21T11:01:30Z</time>
      </trkpt>
      <trkpt lat="36.575473" lon="-5.326587">
        <ele>371.698</ele>
        <time>2015-06-21T11:01:33Z</time>
      </trkpt>
      <trkpt lat="36.575518" lon="-5.326620">
        <ele>371.230</ele>
        <time>2015-06-21T11:01:34Z</time>
      </trkpt>
      <trkpt lat="36.575564" lon="-5.326654">
        <ele>370.687</ele>
        <time>2015-06-21T11:01:35Z</time>
      </trkpt>
      <trkpt lat="36.575609" lon="-5.326682">
        <ele>370.242</ele>
        <time>2015-06-21T11:01:36Z</time>
      </trkpt>
      <trkpt lat="36.575652" lon="-5.326707">
        <ele>369.826</ele>
        <time>2015-06-21T11:01:37Z</time>
      </trkpt>
      <trkpt lat="36.575696" lon="-5.326713">
        <ele>369.208</ele>
        <time>2015-06-21T11:01:38Z</time>
      </trkpt>
      <trkpt lat="36.575783" lon="-5.326747">
        <ele>369.269</ele>
        <time>2015-06-21T11:01:40Z</time>
      </trkpt>
      <trkpt lat="36.575869" lon="-5.326890">
        <ele>369.255</ele>
        <time>2015-06-21T11:01:43Z</time>
      </trkpt>
      <trkpt lat="36.575889" lon="-5.327002">
        <ele>368.828</ele>
        <time>2015-06-21T11:01:45Z</time>
      </trkpt>
      <trkpt lat="36.575905" lon="-5.327061">
        <ele>368.428</ele>
        <time>2015-06-21T11:01:46Z</time>
      </trkpt>
      <trkpt lat="36.575922" lon="-5.327116">
        <ele>367.642</ele>
        <time>2015-06-21T11:01:47Z</time>
      </trkpt>
      <trkpt lat="36.575939" lon="-5.327169">
        <ele>367.219</ele>
        <time>2015-06-21T11:01:48Z</time>
      </trkpt>
      <trkpt lat="36.575998" lon="-5.327344">
        <ele>366.818</ele>
        <time>2015-06-21T11:01:51Z</time>
      </trkpt>
      <trkpt lat="36.576016" lon="-5.327406">
        <ele>366.480</ele>
        <time>2015-06-21T11:01:52Z</time>
      </trkpt>
      <trkpt lat="36.576038" lon="-5.327465">
        <ele>365.877</ele>
        <time>2015-06-21T11:01:53Z</time>
      </trkpt>
      <trkpt lat="36.576060" lon="-5.327526">
        <ele>365.461</ele>
        <time>2015-06-21T11:01:54Z</time>
      </trkpt>
      <trkpt lat="36.576080" lon="-5.327593">
        <ele>365.027</ele>
        <time>2015-06-21T11:01:55Z</time>
      </trkpt>
      <trkpt lat="36.576103" lon="-5.327655">
        <ele>365.008</ele>
        <time>2015-06-21T11:01:56Z</time>
      </trkpt>
      <trkpt lat="36.576129" lon="-5.327718">
        <ele>364.488</ele>
        <time>2015-06-21T11:01:57Z</time>
      </trkpt>
      <trkpt lat="36.576158" lon="-5.327785">
        <ele>364.024</ele>
        <time>2015-06-21T11:01:58Z</time>
      </trkpt>
      <trkpt lat="36.576189" lon="-5.327846">
        <ele>363.477</ele>
        <time>2015-06-21T11:01:59Z</time>
      </trkpt>
      <trkpt lat="36.576226" lon="-5.327903">
        <ele>363.067</ele>
        <time>2015-06-21T11:02:00Z</time>
      </trkpt>
      <trkpt lat="36.576272" lon="-5.327964">
        <ele>362.421</ele>
        <time>2015-06-21T11:02:01Z</time>
      </trkpt>
      <trkpt lat="36.576379" lon="-5.328074">
        <ele>362.468</ele>
        <time>2015-06-21T11:02:03Z</time>
      </trkpt>
      <trkpt lat="36.576434" lon="-5.328131">
        <ele>362.077</ele>
        <time>2015-06-21T11:02:04Z</time>
      </trkpt>
      <trkpt lat="36.576487" lon="-5.328198">
        <ele>361.619</ele>
        <time>2015-06-21T11:02:05Z</time>
      </trkpt>
      <trkpt lat="36.576527" lon="-5.328257">
        <ele>361.014</ele>
        <time>2015-06-21T11:02:06Z</time>
      </trkpt>
      <trkpt lat="36.576562" lon="-5.328309">
        <ele>360.654</ele>
        <time>2015-06-21T11:02:07Z</time>
      </trkpt>
      <trkpt lat="36.576595" lon="-5.328346">
        <ele>360.209</ele>
        <time>2015-06-21T11:02:08Z</time>
      </trkpt>
      <trkpt lat="36.576672" lon="-5.328366">
        <ele>359.808</ele>
        <time>2015-06-21T11:02:10Z</time>
      </trkpt>
      <trkpt lat="36.576710" lon="-5.328373">
        <ele>359.272</ele>
        <time>2015-06-21T11:02:11Z</time>
      </trkpt>
      <trkpt lat="36.576743" lon="-5.328394">
        <ele>358.868</ele>
        <time>2015-06-21T11:02:12Z</time>
      </trkpt>
      <trkpt lat="36.576778" lon="-5.328423">
        <ele>358.081</ele>
        <time>2015-06-21T11:02:13Z</time>
      </trkpt>
      <trkpt lat="36.576869" lon="-5.328523">
        <ele>358.031</ele>
        <time>2015-06-21T11:02:16Z</time>
      </trkpt>
      <trkpt lat="36.576928" lon="-5.328575">
        <ele>358.075</ele>
        <time>2015-06-21T11:02:18Z</time>
      </trkpt>
      <trkpt lat="36.577115" lon="-5.328706">
        <ele>358.032</ele>
        <time>2015-06-21T11:02:24Z</time>
      </trkpt>
      <trkpt lat="36.577224" lon="-5.328762">
        <ele>357.621</ele>
        <time>2015-06-21T11:02:27Z</time>
      </trkpt>
      <trkpt lat="36.577260" lon="-5.328778">
        <ele>357.013</ele>
        <time>2015-06-21T11:02:28Z</time>
      </trkpt>
      <trkpt lat="36.577296" lon="-5.328791">
        <ele>356.667</ele>
        <time>2015-06-21T11:02:29Z</time>
      </trkpt>
      <trkpt lat="36.577328" lon="-5.328796">
        <ele>356.281</ele>
        <time>2015-06-21T11:02:30Z</time>
      </trkpt>
      <trkpt lat="36.577360" lon="-5.328800">
        <ele>355.819</ele>
        <time>2015-06-21T11:02:31Z</time>
      </trkpt>
      <trkpt lat="36.577506" lon="-5.328837">
        <ele>355.808</ele>
        <time>2015-06-21T11:02:37Z</time>
      </trkpt>
      <trkpt lat="36.577616" lon="-5.328913">
        <ele>355.877</ele>
        <time>2015-06-21T11:02:42Z</time>
      </trkpt>
      <trkpt lat="36.577666" lon="-5.328950">
        <ele>355.813</ele>
        <time>2015-06-21T11:02:44Z</time>
      </trkpt>
      <trkpt lat="36.577815" lon="-5.329083">
        <ele>355.816</ele>
        <time>2015-06-21T11:02:50Z</time>
      </trkpt>
      <trkpt lat="36.577947" lon="-5.329219">
        <ele>355.876</ele>
        <time>2015-06-21T11:02:56Z</time>
      </trkpt>
      <trkpt lat="36.578095" lon="-5.329292">
        <ele>355.850</ele>
        <time>2015-06-21T11:03:01Z</time>
      </trkpt>
      <trkpt lat="36.578274" lon="-5.329434">
        <ele>355.847</ele>
        <time>2015-06-21T11:03:07Z</time>
      </trkpt>
      <trkpt lat="36.578453" lon="-5.329605">
        <ele>355.826</ele>
        <time>2015-06-21T11:03:14Z</time>
      </trkpt>
      <trkpt lat="36.578606" lon="-5.329684">
        <ele>355.868</ele>
        <time>2015-06-21T11:03:19Z</time>
      </trkpt>
      <trkpt lat="36.578785" lon="-5.329780">
        <ele>355.874</ele>
        <time>2015-06-21T11:03:25Z</time>
      </trkpt>
      <trkpt lat="36.578978" lon="-5.329940">
        <ele>355.856</ele>
        <time>2015-06-21T11:03:31Z</time>
      </trkpt>
      <trkpt lat="36.579062" lon="-5.330002">
        <ele>355.821</ele>
        <time>2015-06-21T11:03:33Z</time>
      </trkpt>
      <trkpt lat="36.579146" lon="-5.330066">
        <ele>355.808</ele>
        <time>2015-06-21T11:03:35Z</time>
      </trkpt>
      <trkpt lat="36.579403" lon="-5.330266">
        <ele>355.848</ele>
        <time>2015-06-21T11:03:41Z</time>
      </trkpt>
      <trkpt lat="36.579592" lon="-5.330403">
        <ele>355.884</ele>
        <time>2015-06-21T11:03:46Z</time>
      </trkpt>
      <trkpt lat="36.579630" lon="-5.330422">
        <ele>355.897</ele>
        <time>2015-06-21T11:03:47Z</time>
      </trkpt>
      <trkpt lat="36.579846" lon="-5.330564">
        <ele>355.847</ele>
        <time>2015-06-21T11:03:53Z</time>
      </trkpt>
      <trkpt lat="36.579884" lon="-5.330596">
        <ele>355.811</ele>
        <time>2015-06-21T11:03:54Z</time>
      </trkpt>
      <trkpt lat="36.580063" lon="-5.330721">
        <ele>355.838</ele>
        <time>2015-06-21T11:03:59Z</time>
      </trkpt>
      <trkpt lat="36.580099" lon="-5.330744">
        <ele>355.867</ele>
        <time>2015-06-21T11:04:00Z</time>
      </trkpt>
      <trkpt lat="36.580217" lon="-5.330809">
        <ele>355.869</ele>
        <time>2015-06-21T11:04:03Z</time>
      </trkpt>
      <trkpt lat="36.580301" lon="-5.330835">
        <ele>355.839</ele>
        <time>2015-06-21T11:04:05Z</time>
      </trkpt>
      <trkpt lat="36.580448" lon="-5.330860">
        <ele>355.801</ele>
        <time>2015-06-21T11:04:08Z</time>
      </trkpt>
      <trkpt lat="36.580489" lon="-5.330871">
        <ele>355.821</ele>
        <time>2015-06-21T11:04:09Z</time>
      </trkpt>
      <trkpt lat="36.580660" lon="-5.330936">
        <ele>355.808</ele>
        <time>2015-06-21T11:04:14Z</time>
      </trkpt>
      <trkpt lat="36.580776" lon="-5.331015">
        <ele>355.854</ele>
        <time>2015-06-21T11:04:18Z</time>
      </trkpt>
      <trkpt lat="36.580926" lon="-5.331113">
        <ele>355.840</ele>
        <time>2015-06-21T11:04:23Z</time>
      </trkpt>
      <trkpt lat="36.581121" lon="-5.331211">
        <ele>355.863</ele>
        <time>2015-06-21T11:04:28Z</time>
      </trkpt>
      <trkpt lat="36.581331" lon="-5.331240">
        <ele>355.893</ele>
        <time>2015-06-21T11:04:33Z</time>
      </trkpt>
      <trkpt lat="36.581377" lon="-5.331240">
        <ele>355.887</ele>
        <time>2015-06-21T11:04:34Z</time>
      </trkpt>
      <trkpt lat="36.581511" lon="-5.331159">
        <ele>355.844</ele>
        <time>2015-06-21T11:04:37Z</time>
      </trkpt>
      <trkpt lat="36.581669" lon="-5.331116">
        <ele>355.853</ele>
        <time>2015-06-21T11:04:40Z</time>
      </trkpt>
      <trkpt lat="36.581720" lon="-5.331114">
        <ele>355.825</ele>
        <time>2015-06-21T11:04:41Z</time>
      </trkpt>
      <trkpt lat="36.581771" lon="-5.331108">
        <ele>355.897</ele>
        <time>2015-06-21T11:04:42Z</time>
      </trkpt>
      <trkpt lat="36.581821" lon="-5.331091">
        <ele>355.423</ele>
        <time>2015-06-21T11:04:43Z</time>
      </trkpt>
      <trkpt lat="36.581868" lon="-5.331071">
        <ele>354.825</ele>
        <time>2015-06-21T11:04:44Z</time>
      </trkpt>
      <trkpt lat="36.581913" lon="-5.331045">
        <ele>354.408</ele>
        <time>2015-06-21T11:04:45Z</time>
      </trkpt>
      <trkpt lat="36.581955" lon="-5.331027">
        <ele>354.030</ele>
        <time>2015-06-21T11:04:46Z</time>
      </trkpt>
      <trkpt lat="36.581993" lon="-5.331006">
        <ele>353.646</ele>
        <time>2015-06-21T11:04:47Z</time>
      </trkpt>
      <trkpt lat="36.582053" lon="-5.330955">
        <ele>353.679</ele>
        <time>2015-06-21T11:04:49Z</time>
      </trkpt>
      <trkpt lat="36.582220" lon="-5.330877">
        <ele>353.639</ele>
        <time>2015-06-21T11:04:53Z</time>
      </trkpt>
      <trkpt lat="36.582353" lon="-5.330840">
        <ele>353.633</ele>
        <time>2015-06-21T11:04:56Z</time>
      </trkpt>
      <trkpt lat="36.582381" lon="-5.330832">
        <ele>353.690</ele>
        <time>2015-06-21T11:04:57Z</time>
      </trkpt>
      <trkpt lat="36.582472" lon="-5.330785">
        <ele>353.639</ele>
        <time>2015-06-21T11:05:02Z</time>
      </trkpt>
      <trkpt lat="36.582588" lon="-5.330705">
        <ele>353.681</ele>
        <time>2015-06-21T11:05:08Z</time>
      </trkpt>
      <trkpt lat="36.582607" lon="-5.330696">
        <ele>353.686</ele>
        <time>2015-06-21T11:05:09Z</time>
      </trkpt>
      <trkpt lat="36.582685" lon="-5.330655">
        <ele>353.660</ele>
        <time>2015-06-21T11:05:13Z</time>
      </trkpt>
      <trkpt lat="36.582706" lon="-5.330649">
        <ele>354.026</ele>
        <time>2015-06-21T11:05:14Z</time>
      </trkpt>
      <trkpt lat="36.582725" lon="-5.330643">
        <ele>354.408</ele>
        <time>2015-06-21T11:05:15Z</time>
      </trkpt>
      <trkpt lat="36.582746" lon="-5.330636">
        <ele>354.849</ele>
        <time>2015-06-21T11:05:16Z</time>
      </trkpt>
      <trkpt lat="36.582765" lon="-5.330629">
        <ele>355.285</ele>
        <time>2015-06-21T11:05:17Z</time>
      </trkpt>
      <trkpt lat="36.582784" lon="-5.330620">
        <ele>355.688</ele>
        <time>2015-06-21T11:05:18Z</time>
      </trkpt>
      <trkpt lat="36.582876" lon="-5.330604">
        <ele>355.628</ele>
        <time>2015-06-21T11:05:23Z</time>
      </trkpt>
      <trkpt lat="36.582940" lon="-5.330580">
        <ele>356.032</ele>
        <time>2015-06-21T11:05:27Z</time>
      </trkpt>
      <trkpt lat="36.582953" lon="-5.330569">
        <ele>356.449</ele>
        <time>2015-06-21T11:05:28Z</time>
      </trkpt>
      <trkpt lat="36.582967" lon="-5.330558">
        <ele>356.838</ele>
        <time>2015-06-21T11:05:29Z</time>
      </trkpt>
      <trkpt lat="36.582986" lon="-5.330545">
        <ele>357.430</ele>
        <time>2015-06-21T11:05:30Z</time>
      </trkpt>
      <trkpt lat="36.583005" lon="-5.330537">
        <ele>357.826</ele>
        <time>2015-06-21T11:05:31Z</time>
      </trkpt>
      <trkpt lat="36.583078" lon="-5.330498">
        <ele>357.847</ele>
        <time>2015-06-21T11:05:35Z</time>
      </trkpt>
      <trkpt lat="36.583215" lon="-5.330389">
        <ele>357.811</ele>
        <time>2015-06-21T11:05:42Z</time>
      </trkpt>
      <trkpt lat="36.583347" lon="-5.330271">
        <ele>357.808</ele>
        <time>2015-06-21T11:05:49Z</time>
      </trkpt>
      <trkpt lat="36.583391" lon="-5.330248">
        <ele>358.263</ele>
        <time>2015-06-21T11:05:51Z</time>
      </trkpt>
      <trkpt lat="36.583412" lon="-5.330229">
        <ele>358.639</ele>
        <time>2015-06-21T11:05:52Z</time>
      </trkpt>
      <trkpt lat="36.583430" lon="-5.330211">
        <ele>359.012</ele>
        <time>2015-06-21T11:05:53Z</time>
      </trkpt>
      <trkpt lat="36.583451" lon="-5.330197">
        <ele>359.442</ele>
        <time>2015-06-21T11:05:54Z</time>
      </trkpt>
      <trkpt lat="36.583474" lon="-5.330183">
        <ele>359.876</ele>
        <time>2015-06-21T11:05:55Z</time>
      </trkpt>
      <trkpt lat="36.583623" lon="-5.330097">
        <ele>359.823</ele>
        <time>2015-06-21T11:06:01Z</time>
      </trkpt>
      <trkpt lat="36.583771" lon="-5.329975">
        <ele>359.842</ele>
        <time>2015-06-21T11:06:07Z</time>
      </trkpt>
      <trkpt lat="36.583924" lon="-5.329877">
        <ele>359.854</ele>
        <time>2015-06-21T11:06:12Z</time>
      </trkpt>
      <trkpt lat="36.584174" lon="-5.329678">
        <ele>359.815</ele>
        <time>2015-06-21T11:06:19Z</time>
      </trkpt>
      <trkpt lat="36.584281" lon="-5.329535">
        <ele>359.865</ele>
        <time>2015-06-21T11:06:22Z</time>
      </trkpt>
      <trkpt lat="36.584341" lon="-5.329432">
        <ele>359.811</ele>
        <time>2015-06-21T11:06:24Z</time>
      </trkpt>
      <trkpt lat="36.584439" lon="-5.329206">
        <ele>359.808</ele>
        <time>2015-06-21T11:06:28Z</time>
      </trkpt>
      <trkpt lat="36.584467" lon="-5.329144">
        <ele>359.852</ele>
        <time>2015-06-21T11:06:29Z</time>
      </trkpt>
      <trkpt lat="36.584502" lon="-5.329083">
        <ele>359.838</ele>
        <time>2015-06-21T11:06:30Z</time>
      </trkpt>
      <trkpt lat="36.584676" lon="-5.328869">
        <ele>359.851</ele>
        <time>2015-06-21T11:06:34Z</time>
      </trkpt>
      <trkpt lat="36.584721" lon="-5.328824">
        <ele>359.241</ele>
        <time>2015-06-21T11:06:35Z</time>
      </trkpt>
      <trkpt lat="36.584767" lon="-5.328780">
        <ele>358.855</ele>
        <time>2015-06-21T11:06:36Z</time>
      </trkpt>
      <trkpt lat="36.584817" lon="-5.328729">
        <ele>358.432</ele>
        <time>2015-06-21T11:06:37Z</time>
      </trkpt>
      <trkpt lat="36.584871" lon="-5.328666">
        <ele>357.891</ele>
        <time>2015-06-21T11:06:38Z</time>
      </trkpt>
      <trkpt lat="36.584916" lon="-5.328595">
        <ele>357.263</ele>
        <time>2015-06-21T11:06:39Z</time>
      </trkpt>
      <trkpt lat="36.584951" lon="-5.328509">
        <ele>356.686</ele>
        <time>2015-06-21T11:06:40Z</time>
      </trkpt>
      <trkpt lat="36.584982" lon="-5.328431">
        <ele>355.860</ele>
        <time>2015-06-21T11:06:41Z</time>
      </trkpt>
      <trkpt lat="36.585009" lon="-5.328353">
        <ele>355.226</ele>
        <time>2015-06-21T11:06:42Z</time>
      </trkpt>
      <trkpt lat="36.585027" lon="-5.328276">
        <ele>354.408</ele>
        <time>2015-06-21T11:06:43Z</time>
      </trkpt>
      <trkpt lat="36.585044" lon="-5.328198">
        <ele>353.869</ele>
        <time>2015-06-21T11:06:44Z</time>
      </trkpt>
      <trkpt lat="36.585059" lon="-5.328120">
        <ele>352.415</ele>
        <time>2015-06-21T11:06:45Z</time>
      </trkpt>
      <trkpt lat="36.585071" lon="-5.328034">
        <ele>351.648</ele>
        <time>2015-06-21T11:06:46Z</time>
      </trkpt>
      <trkpt lat="36.585075" lon="-5.327956">
        <ele>351.078</ele>
        <time>2015-06-21T11:06:47Z</time>
      </trkpt>
      <trkpt lat="36.585083" lon="-5.327878">
        <ele>350.262</ele>
        <time>2015-06-21T11:06:48Z</time>
      </trkpt>
      <trkpt lat="36.585089" lon="-5.327803">
        <ele>350.279</ele>
        <time>2015-06-21T11:06:49Z</time>
      </trkpt>
      <trkpt lat="36.585116" lon="-5.327383">
        <ele>350.228</ele>
        <time>2015-06-21T11:06:55Z</time>
      </trkpt>
      <trkpt lat="36.585126" lon="-5.327277">
        <ele>350.280</ele>
        <time>2015-06-21T11:06:57Z</time>
      </trkpt>
      <trkpt lat="36.585128" lon="-5.327133">
        <ele>350.257</ele>
        <time>2015-06-21T11:07:00Z</time>
      </trkpt>
      <trkpt lat="36.585124" lon="-5.327081">
        <ele>349.800</ele>
        <time>2015-06-21T11:07:01Z</time>
      </trkpt>
      <trkpt lat="36.585117" lon="-5.327028">
        <ele>349.420</ele>
        <time>2015-06-21T11:07:02Z</time>
      </trkpt>
      <trkpt lat="36.585118" lon="-5.326973">
        <ele>349.008</ele>
        <time>2015-06-21T11:07:03Z</time>
      </trkpt>
      <trkpt lat="36.585122" lon="-5.326919">
        <ele>348.666</ele>
        <time>2015-06-21T11:07:04Z</time>
      </trkpt>
      <trkpt lat="36.585123" lon="-5.326867">
        <ele>348.222</ele>
        <time>2015-06-21T11:07:05Z</time>
      </trkpt>
      <trkpt lat="36.585099" lon="-5.326693">
        <ele>348.225</ele>
        <time>2015-06-21T11:07:09Z</time>
      </trkpt>
      <trkpt lat="36.585065" lon="-5.326387">
        <ele>348.225</ele>
        <time>2015-06-21T11:07:15Z</time>
      </trkpt>
      <trkpt lat="36.585038" lon="-5.326161">
        <ele>348.229</ele>
        <time>2015-06-21T11:07:20Z</time>
      </trkpt>
      <trkpt lat="36.585029" lon="-5.326052">
        <ele>348.216</ele>
        <time>2015-06-21T11:07:22Z</time>
      </trkpt>
      <trkpt lat="36.585053" lon="-5.325858">
        <ele>348.275</ele>
        <time>2015-06-21T11:07:25Z</time>
      </trkpt>
      <trkpt lat="36.585114" lon="-5.325637">
        <ele>348.237</ele>
        <time>2015-06-21T11:07:29Z</time>
      </trkpt>
      <trkpt lat="36.585144" lon="-5.325537">
        <ele>348.271</ele>
        <time>2015-06-21T11:07:31Z</time>
      </trkpt>
      <trkpt lat="36.585140" lon="-5.325273">
        <ele>348.241</ele>
        <time>2015-06-21T11:07:37Z</time>
      </trkpt>
      <trkpt lat="36.585084" lon="-5.325046">
        <ele>348.215</ele>
        <time>2015-06-21T11:07:42Z</time>
      </trkpt>
      <trkpt lat="36.585026" lon="-5.324880">
        <ele>348.208</ele>
        <time>2015-06-21T11:07:46Z</time>
      </trkpt>
      <trkpt lat="36.584966" lon="-5.324559">
        <ele>348.268</ele>
        <time>2015-06-21T11:07:53Z</time>
      </trkpt>
      <trkpt lat="36.584945" lon="-5.324324">
        <ele>348.274</ele>
        <time>2015-06-21T11:07:58Z</time>
      </trkpt>
      <trkpt lat="36.584938" lon="-5.324076">
        <ele>348.227</ele>
        <time>2015-06-21T11:08:04Z</time>
      </trkpt>
      <trkpt lat="36.584960" lon="-5.323933">
        <ele>348.627</ele>
        <time>2015-06-21T11:08:08Z</time>
      </trkpt>
      <trkpt lat="36.584965" lon="-5.323899">
        <ele>349.061</ele>
        <time>2015-06-21T11:08:09Z</time>
      </trkpt>
      <trkpt lat="36.584973" lon="-5.323868">
        <ele>349.448</ele>
        <time>2015-06-21T11:08:10Z</time>
      </trkpt>
      <trkpt lat="36.584982" lon="-5.323838">
        <ele>349.847</ele>
        <time>2015-06-21T11:08:11Z</time>
      </trkpt>
      <trkpt lat="36.584991" lon="-5.323810">
        <ele>350.219</ele>
        <time>2015-06-21T11:08:12Z</time>
      </trkpt>
      <trkpt lat="36.585012" lon="-5.323703">
        <ele>350.262</ele>
        <time>2015-06-21T11:08:16Z</time>
      </trkpt>
      <trkpt lat="36.585049" lon="-5.323562">
        <ele>350.283</ele>
        <time>2015-06-21T11:08:22Z</time>
      </trkpt>
      <trkpt lat="36.585068" lon="-5.323501">
        <ele>350.611</ele>
        <time>2015-06-21T11:08:24Z</time>
      </trkpt>
      <trkpt lat="36.585079" lon="-5.323466">
        <ele>351.008</ele>
        <time>2015-06-21T11:08:25Z</time>
      </trkpt>
      <trkpt lat="36.585086" lon="-5.323433">
        <ele>351.417</ele>
        <time>2015-06-21T11:08:26Z</time>
      </trkpt>
      <trkpt lat="36.585093" lon="-5.323401">
        <ele>351.883</ele>
        <time>2015-06-21T11:08:27Z</time>
      </trkpt>
      <trkpt lat="36.585098" lon="-5.323370">
        <ele>352.226</ele>
        <time>2015-06-21T11:08:28Z</time>
      </trkpt>
      <trkpt lat="36.585107" lon="-5.323315">
        <ele>352.236</ele>
        <time>2015-06-21T11:08:30Z</time>
      </trkpt>
      <trkpt lat="36.585154" lon="-5.323209">
        <ele>352.240</ele>
        <time>2015-06-21T11:08:36Z</time>
      </trkpt>
      <trkpt lat="36.585198" lon="-5.323067">
        <ele>352.647</ele>
        <time>2015-06-21T11:08:43Z</time>
      </trkpt>
      <trkpt lat="36.585202" lon="-5.323052">
        <ele>353.286</ele>
        <time>2015-06-21T11:08:44Z</time>
      </trkpt>
      <trkpt lat="36.585207" lon="-5.323033">
        <ele>353.618</ele>
        <time>2015-06-21T11:08:45Z</time>
      </trkpt>
      <trkpt lat="36.585212" lon="-5.323019">
        <ele>354.081</ele>
        <time>2015-06-21T11:08:46Z</time>
      </trkpt>
      <trkpt lat="36.585218" lon="-5.323009">
        <ele>354.461</ele>
        <time>2015-06-21T11:08:47Z</time>
      </trkpt>
      <trkpt lat="36.585228" lon="-5.322983">
        <ele>354.417</ele>
        <time>2015-06-21T11:08:49Z</time>
      </trkpt>
      <trkpt lat="36.585254" lon="-5.322818">
        <ele>354.408</ele>
        <time>2015-06-21T11:08:56Z</time>
      </trkpt>
      <trkpt lat="36.585289" lon="-5.322653">
        <ele>354.899</ele>
        <time>2015-06-21T11:09:03Z</time>
      </trkpt>
      <trkpt lat="36.585287" lon="-5.322632">
        <ele>355.215</ele>
        <time>2015-06-21T11:09:04Z</time>
      </trkpt>
      <trkpt lat="36.585289" lon="-5.322611">
        <ele>355.688</ele>
        <time>2015-06-21T11:09:05Z</time>
      </trkpt>
      <trkpt lat="36.585290" lon="-5.322589">
        <ele>356.048</ele>
        <time>2015-06-21T11:09:06Z</time>
      </trkpt>
      <trkpt lat="36.585297" lon="-5.322570">
        <ele>356.452</ele>
        <time>2015-06-21T11:09:07Z</time>
      </trkpt>
      <trkpt lat="36.585313" lon="-5.322518">
        <ele>356.419</ele>
        <time>2015-06-21T11:09:10Z</time>
      </trkpt>
      <trkpt lat="36.585327" lon="-5.322465">
        <ele>356.458</ele>
        <time>2015-06-21T11:09:13Z</time>
      </trkpt>
      <trkpt lat="36.585329" lon="-5.322429">
        <ele>356.490</ele>
        <time>2015-06-21T11:09:15Z</time>
      </trkpt>
      <trkpt lat="36.585333" lon="-5.322388">
        <ele>356.498</ele>
        <time>2015-06-21T11:09:17Z</time>
      </trkpt>
      <trkpt lat="36.585344" lon="-5.322351">
        <ele>356.815</ele>
        <time>2015-06-21T11:09:19Z</time>
      </trkpt>
      <trkpt lat="36.585353" lon="-5.322333">
        <ele>357.226</ele>
        <time>2015-06-21T11:09:20Z</time>
      </trkpt>
      <trkpt lat="36.585358" lon="-5.322318">
        <ele>357.608</ele>
        <time>2015-06-21T11:09:21Z</time>
      </trkpt>
      <trkpt lat="36.585364" lon="-5.322302">
        <ele>358.070</ele>
        <time>2015-06-21T11:09:22Z</time>
      </trkpt>
      <trkpt lat="36.585372" lon="-5.322289">
        <ele>358.476</ele>
        <time>2015-06-21T11:09:23Z</time>
      </trkpt>
      <trkpt lat="36.585378" lon="-5.322274">
        <ele>358.469</ele>
        <time>2015-06-21T11:09:24Z</time>
      </trkpt>
      <trkpt lat="36.585399" lon="-5.322211">
        <ele>358.499</ele>
        <time>2015-06-21T11:09:30Z</time>
      </trkpt>
      <trkpt lat="36.585413" lon="-5.322204">
        <ele>358.433</ele>
        <time>2015-06-21T11:09:32Z</time>
      </trkpt>
      <trkpt lat="36.585423" lon="-5.322202">
        <ele>359.030</ele>
        <time>2015-06-21T11:09:33Z</time>
      </trkpt>
      <trkpt lat="36.585436" lon="-5.322199">
        <ele>359.419</ele>
        <time>2015-06-21T11:09:34Z</time>
      </trkpt>
      <trkpt lat="36.585448" lon="-5.322192">
        <ele>359.881</ele>
        <time>2015-06-21T11:09:35Z</time>
      </trkpt>
      <trkpt lat="36.585457" lon="-5.322182">
        <ele>360.244</ele>
        <time>2015-06-21T11:09:36Z</time>
      </trkpt>
      <trkpt lat="36.585462" lon="-5.322169">
        <ele>360.605</ele>
        <time>2015-06-21T11:09:37Z</time>
      </trkpt>
      <trkpt lat="36.585477" lon="-5.322149">
        <ele>360.615</ele>
        <time>2015-06-21T11:09:39Z</time>
      </trkpt>
      <trkpt lat="36.585494" lon="-5.322132">
        <ele>360.608</ele>
        <time>2015-06-21T11:09:41Z</time>
      </trkpt>
      <trkpt lat="36.585519" lon="-5.322070">
        <ele>360.655</ele>
        <time>2015-06-21T11:09:45Z</time>
      </trkpt>
      <trkpt lat="36.585540" lon="-5.322033">
        <ele>360.631</ele>
        <time>2015-06-21T11:09:47Z</time>
      </trkpt>
      <trkpt lat="36.585633" lon="-5.321934">
        <ele>360.614</ele>
        <time>2015-06-21T11:09:52Z</time>
      </trkpt>
      <trkpt lat="36.585776" lon="-5.321898">
        <ele>360.634</ele>
        <time>2015-06-21T11:09:56Z</time>
      </trkpt>
      <trkpt lat="36.585943" lon="-5.321871">
        <ele>360.688</ele>
        <time>2015-06-21T11:10:00Z</time>
      </trkpt>
      <trkpt lat="36.585992" lon="-5.321838">
        <ele>360.625</ele>
        <time>2015-06-21T11:10:01Z</time>
      </trkpt>
      <trkpt lat="36.586091" lon="-5.321725">
        <ele>359.664</ele>
        <time>2015-06-21T11:10:03Z</time>
      </trkpt>
      <trkpt lat="36.586134" lon="-5.321671">
        <ele>359.236</ele>
        <time>2015-06-21T11:10:04Z</time>
      </trkpt>
      <trkpt lat="36.586179" lon="-5.321631">
        <ele>358.661</ele>
        <time>2015-06-21T11:10:05Z</time>
      </trkpt>
      <trkpt lat="36.586225" lon="-5.321601">
        <ele>358.221</ele>
        <time>2015-06-21T11:10:06Z</time>
      </trkpt>
      <trkpt lat="36.586272" lon="-5.321579">
        <ele>358.213</ele>
        <time>2015-06-21T11:10:07Z</time>
      </trkpt>
      <trkpt lat="36.586452" lon="-5.321569">
        <ele>358.208</ele>
        <time>2015-06-21T11:10:12Z</time>
      </trkpt>
      <trkpt lat="36.586492" lon="-5.321565">
        <ele>357.847</ele>
        <time>2015-06-21T11:10:13Z</time>
      </trkpt>
      <trkpt lat="36.586529" lon="-5.321566">
        <ele>357.493</ele>
        <time>2015-06-21T11:10:14Z</time>
      </trkpt>
      <trkpt lat="36.586566" lon="-5.321567">
        <ele>357.076</ele>
        <time>2015-06-21T11:10:15Z</time>
      </trkpt>
      <trkpt lat="36.586598" lon="-5.321570">
        <ele>356.696</ele>
        <time>2015-06-21T11:10:16Z</time>
      </trkpt>
      <trkpt lat="36.586629" lon="-5.321570">
        <ele>356.260</ele>
        <time>2015-06-21T11:10:17Z</time>
      </trkpt>
      <trkpt lat="36.586772" lon="-5.321574">
        <ele>356.297</ele>
        <time>2015-06-21T11:10:23Z</time>
      </trkpt>
      <trkpt lat="36.586913" lon="-5.321577">
        <ele>356.296</ele>
        <time>2015-06-21T11:10:29Z</time>
      </trkpt>
      <trkpt lat="36.587022" lon="-5.321578">
        <ele>356.218</ele>
        <time>2015-06-21T11:10:33Z</time>
      </trkpt>
      <trkpt lat="36.587054" lon="-5.321573">
        <ele>356.253</ele>
        <time>2015-06-21T11:10:34Z</time>
      </trkpt>
      <trkpt lat="36.587305" lon="-5.321553">
        <ele>356.204</ele>
        <time>2015-06-21T11:10:41Z</time>
      </trkpt>
      <trkpt lat="36.587519" lon="-5.321589">
        <ele>356.214</ele>
        <time>2015-06-21T11:10:48Z</time>
      </trkpt>
      <trkpt lat="36.587596" lon="-5.321661">
        <ele>356.208</ele>
        <time>2015-06-21T11:10:53Z</time>
      </trkpt>
      <trkpt lat="36.587669" lon="-5.321812">
        <ele>356.246</ele>
        <time>2015-06-21T11:10:58Z</time>
      </trkpt>
      <trkpt lat="36.587729" lon="-5.321868">
        <ele>356.262</ele>
        <time>2015-06-21T11:11:00Z</time>
      </trkpt>
      <trkpt lat="36.587837" lon="-5.321917">
        <ele>356.235</ele>
        <time>2015-06-21T11:11:02Z</time>
      </trkpt>
      <trkpt lat="36.588132" lon="-5.322041">
        <ele>355.895</ele>
        <time>2015-06-21T11:11:06Z</time>
      </trkpt>
      <trkpt lat="36.588210" lon="-5.322068">
        <ele>355.269</ele>
        <time>2015-06-21T11:11:07Z</time>
      </trkpt>
      <trkpt lat="36.588287" lon="-5.322092">
        <ele>354.896</ele>
        <time>2015-06-21T11:11:08Z</time>
      </trkpt>
      <trkpt lat="36.588355" lon="-5.322127">
        <ele>354.465</ele>
        <time>2015-06-21T11:11:09Z</time>
      </trkpt>
      <trkpt lat="36.588421" lon="-5.322151">
        <ele>354.017</ele>
        <time>2015-06-21T11:11:10Z</time>
      </trkpt>
      <trkpt lat="36.588489" lon="-5.322167">
        <ele>354.029</ele>
        <time>2015-06-21T11:11:11Z</time>
      </trkpt>
      <trkpt lat="36.588701" lon="-5.322200">
        <ele>354.000</ele>
        <time>2015-06-21T11:11:15Z</time>
      </trkpt>
      <trkpt lat="36.588873" lon="-5.322262">
        <ele>354.020</ele>
        <time>2015-06-21T11:11:21Z</time>
      </trkpt>
      <trkpt lat="36.588933" lon="-5.322293">
        <ele>354.008</ele>
        <time>2015-06-21T11:11:24Z</time>
      </trkpt>
      <trkpt lat="36.589016" lon="-5.322338">
        <ele>354.083</ele>
        <time>2015-06-21T11:11:28Z</time>
      </trkpt>
      <trkpt lat="36.589094" lon="-5.322377">
        <ele>354.099</ele>
        <time>2015-06-21T11:11:32Z</time>
      </trkpt>
      <trkpt lat="36.589166" lon="-5.322401">
        <ele>354.072</ele>
        <time>2015-06-21T11:11:35Z</time>
      </trkpt>
      <trkpt lat="36.589193" lon="-5.322408">
        <ele>354.442</ele>
        <time>2015-06-21T11:11:36Z</time>
      </trkpt>
      <trkpt lat="36.589217" lon="-5.322418">
        <ele>354.826</ele>
        <time>2015-06-21T11:11:37Z</time>
      </trkpt>
      <trkpt lat="36.589246" lon="-5.322432">
        <ele>355.223</ele>
        <time>2015-06-21T11:11:38Z</time>
      </trkpt>
      <trkpt lat="36.589276" lon="-5.322445">
        <ele>355.612</ele>
        <time>2015-06-21T11:11:39Z</time>
      </trkpt>
      <trkpt lat="36.589306" lon="-5.322452">
        <ele>356.024</ele>
        <time>2015-06-21T11:11:40Z</time>
      </trkpt>
      <trkpt lat="36.589364" lon="-5.322465">
        <ele>356.041</ele>
        <time>2015-06-21T11:11:42Z</time>
      </trkpt>
      <trkpt lat="36.589534" lon="-5.322515">
        <ele>356.081</ele>
        <time>2015-06-21T11:11:48Z</time>
      </trkpt>
      <trkpt lat="36.589691" lon="-5.322581">
        <ele>356.009</ele>
        <time>2015-06-21T11:11:54Z</time>
      </trkpt>
      <trkpt lat="36.589840" lon="-5.322726">
        <ele>356.008</ele>
        <time>2015-06-21T11:12:00Z</time>
      </trkpt>
      <trkpt lat="36.589958" lon="-5.322878">
        <ele>356.055</ele>
        <time>2015-06-21T11:12:05Z</time>
      </trkpt>
      <trkpt lat="36.590077" lon="-5.322977">
        <ele>356.091</ele>
        <time>2015-06-21T11:12:10Z</time>
      </trkpt>
      <trkpt lat="36.590113" lon="-5.323008">
        <ele>356.484</ele>
        <time>2015-06-21T11:12:12Z</time>
      </trkpt>
      <trkpt lat="36.590131" lon="-5.323021">
        <ele>356.894</ele>
        <time>2015-06-21T11:12:13Z</time>
      </trkpt>
      <trkpt lat="36.590147" lon="-5.323039">
        <ele>357.298</ele>
        <time>2015-06-21T11:12:14Z</time>
      </trkpt>
      <trkpt lat="36.590166" lon="-5.323058">
        <ele>357.615</ele>
        <time>2015-06-21T11:12:15Z</time>
      </trkpt>
      <trkpt lat="36.590186" lon="-5.323080">
        <ele>358.014</ele>
        <time>2015-06-21T11:12:16Z</time>
      </trkpt>
      <trkpt lat="36.590285" lon="-5.323184">
        <ele>358.056</ele>
        <time>2015-06-21T11:12:21Z</time>
      </trkpt>
      <trkpt lat="36.590437" lon="-5.323362">
        <ele>358.031</ele>
        <time>2015-06-21T11:12:27Z</time>
      </trkpt>
      <trkpt lat="36.590539" lon="-5.323437">
        <ele>358.061</ele>
        <time>2015-06-21T11:12:30Z</time>
      </trkpt>
      <trkpt lat="36.590634" lon="-5.323494">
        <ele>358.007</ele>
        <time>2015-06-21T11:12:33Z</time>
      </trkpt>
      <trkpt lat="36.590704" lon="-5.323541">
        <ele>358.008</ele>
        <time>2015-06-21T11:12:36Z</time>
      </trkpt>
      <trkpt lat="36.590766" lon="-5.323570">
        <ele>358.044</ele>
        <time>2015-06-21T11:12:39Z</time>
      </trkpt>
      <trkpt lat="36.590889" lon="-5.323593">
        <ele>358.030</ele>
        <time>2015-06-21T11:12:45Z</time>
      </trkpt>
      <trkpt lat="36.591073" lon="-5.323615">
        <ele>358.013</ele>
        <time>2015-06-21T11:12:52Z</time>
      </trkpt>
      <trkpt lat="36.591091" lon="-5.323610">
        <ele>358.613</ele>
        <time>2015-06-21T11:12:53Z</time>
      </trkpt>
      <trkpt lat="36.591114" lon="-5.323603">
        <ele>359.237</ele>
        <time>2015-06-21T11:12:54Z</time>
      </trkpt>
      <trkpt lat="36.591136" lon="-5.323602">
        <ele>359.654</ele>
        <time>2015-06-21T11:12:55Z</time>
      </trkpt>
      <trkpt lat="36.591154" lon="-5.323605">
        <ele>360.253</ele>
        <time>2015-06-21T11:12:56Z</time>
      </trkpt>
      <trkpt lat="36.591171" lon="-5.323605">
        <ele>360.835</ele>
        <time>2015-06-21T11:12:57Z</time>
      </trkpt>
      <trkpt lat="36.591285" lon="-5.323643">
        <ele>360.871</ele>
        <time>2015-06-21T11:13:03Z</time>
      </trkpt>
      <trkpt lat="36.591302" lon="-5.323652">
        <ele>360.841</ele>
        <time>2015-06-21T11:13:04Z</time>
      </trkpt>
      <trkpt lat="36.591393" lon="-5.323694">
        <ele>360.815</ele>
        <time>2015-06-21T11:13:09Z</time>
      </trkpt>
      <trkpt lat="36.591434" lon="-5.323714">
        <ele>360.808</ele>
        <time>2015-06-21T11:13:11Z</time>
      </trkpt>
      <trkpt lat="36.591529" lon="-5.323761">
        <ele>360.888</ele>
        <time>2015-06-21T11:13:16Z</time>
      </trkpt>
      <trkpt lat="36.591563" lon="-5.323778">
        <ele>360.884</ele>
        <time>2015-06-21T11:13:18Z</time>
      </trkpt>
      <trkpt lat="36.591582" lon="-5.323782">
        <ele>361.217</ele>
        <time>2015-06-21T11:13:19Z</time>
      </trkpt>
      <trkpt lat="36.591600" lon="-5.323781">
        <ele>361.627</ele>
        <time>2015-06-21T11:13:20Z</time>
      </trkpt>
      <trkpt lat="36.591614" lon="-5.323787">
        <ele>362.031</ele>
        <time>2015-06-21T11:13:21Z</time>
      </trkpt>
      <trkpt lat="36.591629" lon="-5.323792">
        <ele>362.898</ele>
        <time>2015-06-21T11:13:22Z</time>
      </trkpt>
      <trkpt lat="36.591653" lon="-5.323796">
        <ele>362.817</ele>
        <time>2015-06-21T11:13:24Z</time>
      </trkpt>
      <trkpt lat="36.591681" lon="-5.323795">
        <ele>362.869</ele>
        <time>2015-06-21T11:13:26Z</time>
      </trkpt>
      <trkpt lat="36.591793" lon="-5.323783">
        <ele>362.896</ele>
        <time>2015-06-21T11:13:33Z</time>
      </trkpt>
      <trkpt lat="36.591844" lon="-5.323765">
        <ele>363.231</ele>
        <time>2015-06-21T11:13:36Z</time>
      </trkpt>
      <trkpt lat="36.591860" lon="-5.323759">
        <ele>363.824</ele>
        <time>2015-06-21T11:13:37Z</time>
      </trkpt>
      <trkpt lat="36.591877" lon="-5.323751">
        <ele>364.208</ele>
        <time>2015-06-21T11:13:38Z</time>
      </trkpt>
      <trkpt lat="36.591894" lon="-5.323746">
        <ele>364.640</ele>
        <time>2015-06-21T11:13:39Z</time>
      </trkpt>
      <trkpt lat="36.591909" lon="-5.323742">
        <ele>365.096</ele>
        <time>2015-06-21T11:13:40Z</time>
      </trkpt>
      <trkpt lat="36.592023" lon="-5.323715">
        <ele>365.059</ele>
        <time>2015-06-21T11:13:47Z</time>
      </trkpt>
      <trkpt lat="36.592130" lon="-5.323688">
        <ele>365.449</ele>
        <time>2015-06-21T11:13:53Z</time>
      </trkpt>
      <trkpt lat="36.592147" lon="-5.323685">
        <ele>365.893</ele>
        <time>2015-06-21T11:13:54Z</time>
      </trkpt>
      <trkpt lat="36.592168" lon="-5.323679">
        <ele>366.230</ele>
        <time>2015-06-21T11:13:55Z</time>
      </trkpt>
      <trkpt lat="36.592185" lon="-5.323676">
        <ele>366.879</ele>
        <time>2015-06-21T11:13:56Z</time>
      </trkpt>
      <trkpt lat="36.592202" lon="-5.323679">
        <ele>367.261</ele>
        <time>2015-06-21T11:13:57Z</time>
      </trkpt>
      <trkpt lat="36.592277" lon="-5.323676">
        <ele>367.249</ele>
        <time>2015-06-21T11:14:01Z</time>
      </trkpt>
      <trkpt lat="36.592409" lon="-5.323675">
        <ele>367.202</ele>
        <time>2015-06-21T11:14:09Z</time>
      </trkpt>
      <trkpt lat="36.592424" lon="-5.323680">
        <ele>367.622</ele>
        <time>2015-06-21T11:14:10Z</time>
      </trkpt>
      <trkpt lat="36.592439" lon="-5.323686">
        <ele>368.008</ele>
        <time>2015-06-21T11:14:11Z</time>
      </trkpt>
      <trkpt lat="36.592455" lon="-5.323684">
        <ele>368.865</ele>
        <time>2015-06-21T11:14:12Z</time>
      </trkpt>
      <trkpt lat="36.592470" lon="-5.323685">
        <ele>369.451</ele>
        <time>2015-06-21T11:14:13Z</time>
      </trkpt>
      <trkpt lat="36.592505" lon="-5.323684">
        <ele>369.444</ele>
        <time>2015-06-21T11:14:15Z</time>
      </trkpt>
      <trkpt lat="36.592605" lon="-5.323719">
        <ele>369.834</ele>
        <time>2015-06-21T11:14:22Z</time>
      </trkpt>
      <trkpt lat="36.592619" lon="-5.323721">
        <ele>370.278</ele>
        <time>2015-06-21T11:14:23Z</time>
      </trkpt>
      <trkpt lat="36.592635" lon="-5.323724">
        <ele>370.665</ele>
        <time>2015-06-21T11:14:24Z</time>
      </trkpt>
      <trkpt lat="36.592651" lon="-5.323726">
        <ele>371.074</ele>
        <time>2015-06-21T11:14:25Z</time>
      </trkpt>
      <trkpt lat="36.592668" lon="-5.323730">
        <ele>371.446</ele>
        <time>2015-06-21T11:14:26Z</time>
      </trkpt>
      <trkpt lat="36.592757" lon="-5.323770">
        <ele>371.482</ele>
        <time>2015-06-21T11:14:32Z</time>
      </trkpt>
      <trkpt lat="36.592862" lon="-5.323759">
        <ele>371.443</ele>
        <time>2015-06-21T11:14:38Z</time>
      </trkpt>
      <trkpt lat="36.592881" lon="-5.323749">
        <ele>371.417</ele>
        <time>2015-06-21T11:14:39Z</time>
      </trkpt>
      <trkpt lat="36.592965" lon="-5.323687">
        <ele>371.808</ele>
        <time>2015-06-21T11:14:44Z</time>
      </trkpt>
      <trkpt lat="36.592975" lon="-5.323669">
        <ele>372.249</ele>
        <time>2015-06-21T11:14:45Z</time>
      </trkpt>
      <trkpt lat="36.592987" lon="-5.323650">
        <ele>372.635</ele>
        <time>2015-06-21T11:14:46Z</time>
      </trkpt>
      <trkpt lat="36.593001" lon="-5.323630">
        <ele>373.048</ele>
        <time>2015-06-21T11:14:47Z</time>
      </trkpt>
      <trkpt lat="36.593022" lon="-5.323617">
        <ele>373.428</ele>
        <time>2015-06-21T11:14:48Z</time>
      </trkpt>
      <trkpt lat="36.593104" lon="-5.323560">
        <ele>373.442</ele>
        <time>2015-06-21T11:14:51Z</time>
      </trkpt>
      <trkpt lat="36.593229" lon="-5.323498">
        <ele>373.489</ele>
        <time>2015-06-21T11:14:54Z</time>
      </trkpt>
      <trkpt lat="36.593289" lon="-5.323488">
        <ele>373.488</ele>
        <time>2015-06-21T11:14:55Z</time>
      </trkpt>
      <trkpt lat="36.593498" lon="-5.323525">
        <ele>373.410</ele>
        <time>2015-06-21T11:14:58Z</time>
      </trkpt>
      <trkpt lat="36.593555" lon="-5.323560">
        <ele>373.085</ele>
        <time>2015-06-21T11:14:59Z</time>
      </trkpt>
      <trkpt lat="36.593594" lon="-5.323604">
        <ele>372.689</ele>
        <time>2015-06-21T11:15:00Z</time>
      </trkpt>
      <trkpt lat="36.593621" lon="-5.323650">
        <ele>371.417</ele>
        <time>2015-06-21T11:15:01Z</time>
      </trkpt>
      <trkpt lat="36.593627" lon="-5.323705">
        <ele>370.808</ele>
        <time>2015-06-21T11:15:02Z</time>
      </trkpt>
      <trkpt lat="36.593624" lon="-5.323763">
        <ele>370.229</ele>
        <time>2015-06-21T11:15:03Z</time>
      </trkpt>
      <trkpt lat="36.593618" lon="-5.323821">
        <ele>369.665</ele>
        <time>2015-06-21T11:15:04Z</time>
      </trkpt>
      <trkpt lat="36.593603" lon="-5.323890">
        <ele>368.828</ele>
        <time>2015-06-21T11:15:05Z</time>
      </trkpt>
      <trkpt lat="36.593586" lon="-5.323960">
        <ele>368.458</ele>
        <time>2015-06-21T11:15:06Z</time>
      </trkpt>
      <trkpt lat="36.593573" lon="-5.324030">
        <ele>368.042</ele>
        <time>2015-06-21T11:15:07Z</time>
      </trkpt>
      <trkpt lat="36.593562" lon="-5.324098">
        <ele>367.679</ele>
        <time>2015-06-21T11:15:08Z</time>
      </trkpt>
      <trkpt lat="36.593561" lon="-5.324166">
        <ele>367.228</ele>
        <time>2015-06-21T11:15:09Z</time>
      </trkpt>
      <trkpt lat="36.593555" lon="-5.324225">
        <ele>366.870</ele>
        <time>2015-06-21T11:15:10Z</time>
      </trkpt>
      <trkpt lat="36.593535" lon="-5.324355">
        <ele>366.871</ele>
        <time>2015-06-21T11:15:12Z</time>
      </trkpt>
      <trkpt lat="36.593489" lon="-5.324500">
        <ele>366.841</ele>
        <time>2015-06-21T11:15:14Z</time>
      </trkpt>
      <trkpt lat="36.593450" lon="-5.324571">
        <ele>366.415</ele>
        <time>2015-06-21T11:15:15Z</time>
      </trkpt>
      <trkpt lat="36.593408" lon="-5.324640">
        <ele>365.808</ele>
        <time>2015-06-21T11:15:16Z</time>
      </trkpt>
      <trkpt lat="36.593363" lon="-5.324711">
        <ele>365.478</ele>
        <time>2015-06-21T11:15:17Z</time>
      </trkpt>
      <trkpt lat="36.593312" lon="-5.324780">
        <ele>365.084</ele>
        <time>2015-06-21T11:15:18Z</time>
      </trkpt>
      <trkpt lat="36.593258" lon="-5.324841">
        <ele>364.667</ele>
        <time>2015-06-21T11:15:19Z</time>
      </trkpt>
      <trkpt lat="36.593136" lon="-5.324958">
        <ele>364.247</ele>
        <time>2015-06-21T11:15:21Z</time>
      </trkpt>
      <trkpt lat="36.593068" lon="-5.325010">
        <ele>363.661</ele>
        <time>2015-06-21T11:15:22Z</time>
      </trkpt>
      <trkpt lat="36.593001" lon="-5.325054">
        <ele>363.238</ele>
        <time>2015-06-21T11:15:23Z</time>
      </trkpt>
      <trkpt lat="36.592957" lon="-5.325112">
        <ele>362.887</ele>
        <time>2015-06-21T11:15:24Z</time>
      </trkpt>
      <trkpt lat="36.592925" lon="-5.325181">
        <ele>362.289</ele>
        <time>2015-06-21T11:15:25Z</time>
      </trkpt>
      <trkpt lat="36.592856" lon="-5.325304">
        <ele>361.839</ele>
        <time>2015-06-21T11:15:27Z</time>
      </trkpt>
      <trkpt lat="36.592822" lon="-5.325362">
        <ele>361.401</ele>
        <time>2015-06-21T11:15:28Z</time>
      </trkpt>
      <trkpt lat="36.592797" lon="-5.325423">
        <ele>361.021</ele>
        <time>2015-06-21T11:15:29Z</time>
      </trkpt>
      <trkpt lat="36.592790" lon="-5.325484">
        <ele>360.608</ele>
        <time>2015-06-21T11:15:30Z</time>
      </trkpt>
      <trkpt lat="36.592793" lon="-5.325535">
        <ele>360.284</ele>
        <time>2015-06-21T11:15:31Z</time>
      </trkpt>
      <trkpt lat="36.592801" lon="-5.325604">
        <ele>360.220</ele>
        <time>2015-06-21T11:15:33Z</time>
      </trkpt>
      <trkpt lat="36.592815" lon="-5.325652">
        <ele>360.213</ele>
        <time>2015-06-21T11:15:35Z</time>
      </trkpt>
      <trkpt lat="36.592820" lon="-5.325699">
        <ele>360.223</ele>
        <time>2015-06-21T11:15:37Z</time>
      </trkpt>
      <trkpt lat="36.592823" lon="-5.325743">
        <ele>360.277</ele>
        <time>2015-06-21T11:15:39Z</time>
      </trkpt>
      <trkpt lat="36.592818" lon="-5.325831">
        <ele>360.234</ele>
        <time>2015-06-21T11:15:42Z</time>
      </trkpt>
      <trkpt lat="36.592808" lon="-5.325899">
        <ele>360.263</ele>
        <time>2015-06-21T11:15:44Z</time>
      </trkpt>
      <trkpt lat="36.592840" lon="-5.326064">
        <ele>360.275</ele>
        <time>2015-06-21T11:15:48Z</time>
      </trkpt>
      <trkpt lat="36.592979" lon="-5.326190">
        <ele>360.218</ele>
        <time>2015-06-21T11:15:51Z</time>
      </trkpt>
      <trkpt lat="36.593090" lon="-5.326276">
        <ele>360.298</ele>
        <time>2015-06-21T11:15:53Z</time>
      </trkpt>
      <trkpt lat="36.593206" lon="-5.326358">
        <ele>360.217</ele>
        <time>2015-06-21T11:15:55Z</time>
      </trkpt>
      <trkpt lat="36.593256" lon="-5.326397">
        <ele>360.208</ele>
        <time>2015-06-21T11:15:56Z</time>
      </trkpt>
      <trkpt lat="36.593429" lon="-5.326526">
        <ele>359.882</ele>
        <time>2015-06-21T11:15:59Z</time>
      </trkpt>
      <trkpt lat="36.593493" lon="-5.326580">
        <ele>359.268</ele>
        <time>2015-06-21T11:16:00Z</time>
      </trkpt>
      <trkpt lat="36.593557" lon="-5.326640">
        <ele>358.831</ele>
        <time>2015-06-21T11:16:01Z</time>
      </trkpt>
      <trkpt lat="36.593617" lon="-5.326697">
        <ele>358.491</ele>
        <time>2015-06-21T11:16:02Z</time>
      </trkpt>
      <trkpt lat="36.593681" lon="-5.326751">
        <ele>357.825</ele>
        <time>2015-06-21T11:16:03Z</time>
      </trkpt>
      <trkpt lat="36.593969" lon="-5.327026">
        <ele>357.492</ele>
        <time>2015-06-21T11:16:08Z</time>
      </trkpt>
      <trkpt lat="36.594023" lon="-5.327071">
        <ele>357.061</ele>
        <time>2015-06-21T11:16:09Z</time>
      </trkpt>
      <trkpt lat="36.594077" lon="-5.327116">
        <ele>356.673</ele>
        <time>2015-06-21T11:16:10Z</time>
      </trkpt>
      <trkpt lat="36.594131" lon="-5.327155">
        <ele>356.264</ele>
        <time>2015-06-21T11:16:11Z</time>
      </trkpt>
      <trkpt lat="36.594184" lon="-5.327193">
        <ele>355.806</ele>
        <time>2015-06-21T11:16:12Z</time>
      </trkpt>
      <trkpt lat="36.594292" lon="-5.327256">
        <ele>355.816</ele>
        <time>2015-06-21T11:16:14Z</time>
      </trkpt>
      <trkpt lat="36.594581" lon="-5.327422">
        <ele>355.808</ele>
        <time>2015-06-21T11:16:20Z</time>
      </trkpt>
      <trkpt lat="36.594708" lon="-5.327500">
        <ele>355.247</ele>
        <time>2015-06-21T11:16:23Z</time>
      </trkpt>
      <trkpt lat="36.594744" lon="-5.327524">
        <ele>354.843</ele>
        <time>2015-06-21T11:16:24Z</time>
      </trkpt>
      <trkpt lat="36.594778" lon="-5.327541">
        <ele>354.486</ele>
        <time>2015-06-21T11:16:25Z</time>
      </trkpt>
      <trkpt lat="36.594812" lon="-5.327560">
        <ele>354.016</ele>
        <time>2015-06-21T11:16:26Z</time>
      </trkpt>
      <trkpt lat="36.594839" lon="-5.327582">
        <ele>353.610</ele>
        <time>2015-06-21T11:16:27Z</time>
      </trkpt>
      <trkpt lat="36.594985" lon="-5.327675">
        <ele>353.657</ele>
        <time>2015-06-21T11:16:32Z</time>
      </trkpt>
      <trkpt lat="36.595099" lon="-5.327721">
        <ele>353.646</ele>
        <time>2015-06-21T11:16:37Z</time>
      </trkpt>
      <trkpt lat="36.595295" lon="-5.327841">
        <ele>353.648</ele>
        <time>2015-06-21T11:16:43Z</time>
      </trkpt>
      <trkpt lat="36.595438" lon="-5.327941">
        <ele>353.693</ele>
        <time>2015-06-21T11:16:47Z</time>
      </trkpt>
      <trkpt lat="36.595502" lon="-5.328008">
        <ele>353.665</ele>
        <time>2015-06-21T11:16:49Z</time>
      </trkpt>
      <trkpt lat="36.595668" lon="-5.328135">
        <ele>353.621</ele>
        <time>2015-06-21T11:16:54Z</time>
      </trkpt>
      <trkpt lat="36.595795" lon="-5.328207">
        <ele>353.608</ele>
        <time>2015-06-21T11:16:59Z</time>
      </trkpt>
      <trkpt lat="36.595882" lon="-5.328258">
        <ele>353.670</ele>
        <time>2015-06-21T11:17:04Z</time>
      </trkpt>
      <trkpt lat="36.595947" lon="-5.328337">
        <ele>353.666</ele>
        <time>2015-06-21T11:17:09Z</time>
      </trkpt>
      <trkpt lat="36.595948" lon="-5.328358">
        <ele>353.649</ele>
        <time>2015-06-21T11:17:10Z</time>
      </trkpt>
      <trkpt lat="36.595999" lon="-5.328553">
        <ele>353.639</ele>
        <time>2015-06-21T11:17:16Z</time>
      </trkpt>
      <trkpt lat="36.596058" lon="-5.328723">
        <ele>353.623</ele>
        <time>2015-06-21T11:17:20Z</time>
      </trkpt>
      <trkpt lat="36.596111" lon="-5.328806">
        <ele>353.620</ele>
        <time>2015-06-21T11:17:22Z</time>
      </trkpt>
      <trkpt lat="36.596287" lon="-5.329007">
        <ele>353.629</ele>
        <time>2015-06-21T11:17:28Z</time>
      </trkpt>
      <trkpt lat="36.596322" lon="-5.329036">
        <ele>353.681</ele>
        <time>2015-06-21T11:17:29Z</time>
      </trkpt>
      <trkpt lat="36.596507" lon="-5.329193">
        <ele>353.634</ele>
        <time>2015-06-21T11:17:35Z</time>
      </trkpt>
      <trkpt lat="36.596682" lon="-5.329269">
        <ele>353.655</ele>
        <time>2015-06-21T11:17:40Z</time>
      </trkpt>
      <trkpt lat="36.596905" lon="-5.329376">
        <ele>353.610</ele>
        <time>2015-06-21T11:17:46Z</time>
      </trkpt>
      <trkpt lat="36.597175" lon="-5.329482">
        <ele>353.608</ele>
        <time>2015-06-21T11:17:53Z</time>
      </trkpt>
      <trkpt lat="36.597291" lon="-5.329530">
        <ele>353.674</ele>
        <time>2015-06-21T11:17:57Z</time>
      </trkpt>
      <trkpt lat="36.597514" lon="-5.329513">
        <ele>353.620</ele>
        <time>2015-06-21T11:18:04Z</time>
      </trkpt>
      <trkpt lat="36.597662" lon="-5.329446">
        <ele>353.613</ele>
        <time>2015-06-21T11:18:08Z</time>
      </trkpt>
      <trkpt lat="36.597741" lon="-5.329388">
        <ele>353.633</ele>
        <time>2015-06-21T11:18:10Z</time>
      </trkpt>
      <trkpt lat="36.597992" lon="-5.329191">
        <ele>353.637</ele>
        <time>2015-06-21T11:18:16Z</time>
      </trkpt>
      <trkpt lat="36.598040" lon="-5.329166">
        <ele>353.664</ele>
        <time>2015-06-21T11:18:17Z</time>
      </trkpt>
      <trkpt lat="36.598193" lon="-5.329153">
        <ele>353.693</ele>
        <time>2015-06-21T11:18:20Z</time>
      </trkpt>
      <trkpt lat="36.598399" lon="-5.329258">
        <ele>353.695</ele>
        <time>2015-06-21T11:18:24Z</time>
      </trkpt>
      <trkpt lat="36.598521" lon="-5.329373">
        <ele>353.675</ele>
        <time>2015-06-21T11:18:27Z</time>
      </trkpt>
      <trkpt lat="36.598633" lon="-5.329489">
        <ele>353.628</ele>
        <time>2015-06-21T11:18:30Z</time>
      </trkpt>
      <trkpt lat="36.598741" lon="-5.329592">
        <ele>353.620</ele>
        <time>2015-06-21T11:18:33Z</time>
      </trkpt>
      <trkpt lat="36.598881" lon="-5.329732">
        <ele>353.608</ele>
        <time>2015-06-21T11:18:37Z</time>
      </trkpt>
      <trkpt lat="36.599160" lon="-5.330003">
        <ele>353.678</ele>
        <time>2015-06-21T11:18:45Z</time>
      </trkpt>
      <trkpt lat="36.599427" lon="-5.330227">
        <ele>353.634</ele>
        <time>2015-06-21T11:18:52Z</time>
      </trkpt>
      <trkpt lat="36.599661" lon="-5.330373">
        <ele>353.647</ele>
        <time>2015-06-21T11:18:58Z</time>
      </trkpt>
      <trkpt lat="36.599699" lon="-5.330408">
        <ele>353.637</ele>
        <time>2015-06-21T11:18:59Z</time>
      </trkpt>
      <trkpt lat="36.599731" lon="-5.330449">
        <ele>353.671</ele>
        <time>2015-06-21T11:19:00Z</time>
      </trkpt>
      <trkpt lat="36.599867" lon="-5.330620">
        <ele>353.688</ele>
        <time>2015-06-21T11:19:04Z</time>
      </trkpt>
      <trkpt lat="36.599900" lon="-5.330662">
        <ele>353.677</ele>
        <time>2015-06-21T11:19:05Z</time>
      </trkpt>
      <trkpt lat="36.600071" lon="-5.330830">
        <ele>353.689</ele>
        <time>2015-06-21T11:19:10Z</time>
      </trkpt>
      <trkpt lat="36.600186" lon="-5.330913">
        <ele>353.653</ele>
        <time>2015-06-21T11:19:13Z</time>
      </trkpt>
      <trkpt lat="36.600264" lon="-5.330922">
        <ele>353.604</ele>
        <time>2015-06-21T11:19:15Z</time>
      </trkpt>
      <trkpt lat="36.600307" lon="-5.330906">
        <ele>353.614</ele>
        <time>2015-06-21T11:19:16Z</time>
      </trkpt>
      <trkpt lat="36.600418" lon="-5.330858">
        <ele>353.608</ele>
        <time>2015-06-21T11:19:19Z</time>
      </trkpt>
      <trkpt lat="36.600639" lon="-5.330793">
        <ele>353.656</ele>
        <time>2015-06-21T11:19:26Z</time>
      </trkpt>
      <trkpt lat="36.600675" lon="-5.330768">
        <ele>353.662</ele>
        <time>2015-06-21T11:19:28Z</time>
      </trkpt>
      <trkpt lat="36.600694" lon="-5.330689">
        <ele>353.665</ele>
        <time>2015-06-21T11:19:31Z</time>
      </trkpt>
      <trkpt lat="36.600693" lon="-5.330612">
        <ele>353.665</ele>
        <time>2015-06-21T11:19:34Z</time>
      </trkpt>
      <trkpt lat="36.600695" lon="-5.330492">
        <ele>354.069</ele>
        <time>2015-06-21T11:19:38Z</time>
      </trkpt>
      <trkpt lat="36.600697" lon="-5.330461">
        <ele>354.426</ele>
        <time>2015-06-21T11:19:39Z</time>
      </trkpt>
      <trkpt lat="36.600698" lon="-5.330433">
        <ele>354.845</ele>
        <time>2015-06-21T11:19:40Z</time>
      </trkpt>
      <trkpt lat="36.600695" lon="-5.330402">
        <ele>355.217</ele>
        <time>2015-06-21T11:19:41Z</time>
      </trkpt>
      <trkpt lat="36.600694" lon="-5.330372">
        <ele>355.868</ele>
        <time>2015-06-21T11:19:42Z</time>
      </trkpt>
      <trkpt lat="36.600697" lon="-5.330286">
        <ele>355.842</ele>
        <time>2015-06-21T11:19:45Z</time>
      </trkpt>
      <trkpt lat="36.600713" lon="-5.330178">
        <ele>355.826</ele>
        <time>2015-06-21T11:19:49Z</time>
      </trkpt>
      <trkpt lat="36.600713" lon="-5.330139">
        <ele>355.808</ele>
        <time>2015-06-21T11:19:51Z</time>
      </trkpt>
      <trkpt lat="36.600735" lon="-5.330038">
        <ele>356.287</ele>
        <time>2015-06-21T11:19:55Z</time>
      </trkpt>
      <trkpt lat="36.600741" lon="-5.330016">
        <ele>356.643</ele>
        <time>2015-06-21T11:19:56Z</time>
      </trkpt>
      <trkpt lat="36.600751" lon="-5.329993">
        <ele>357.426</ele>
        <time>2015-06-21T11:19:57Z</time>
      </trkpt>
      <trkpt lat="36.600761" lon="-5.329971">
        <ele>357.876</ele>
        <time>2015-06-21T11:19:58Z</time>
      </trkpt>
      <trkpt lat="36.600837" lon="-5.329763">
        <ele>357.880</ele>
        <time>2015-06-21T11:20:06Z</time>
      </trkpt>
      <trkpt lat="36.600900" lon="-5.329640">
        <ele>358.467</ele>
        <time>2015-06-21T11:20:11Z</time>
      </trkpt>
      <trkpt lat="36.600914" lon="-5.329619">
        <ele>358.826</ele>
        <time>2015-06-21T11:20:12Z</time>
      </trkpt>
      <trkpt lat="36.600931" lon="-5.329596">
        <ele>359.288</ele>
        <time>2015-06-21T11:20:13Z</time>
      </trkpt>
      <trkpt lat="36.600945" lon="-5.329569">
        <ele>359.668</ele>
        <time>2015-06-21T11:20:14Z</time>
      </trkpt>
      <trkpt lat="36.600958" lon="-5.329543">
        <ele>360.042</ele>
        <time>2015-06-21T11:20:15Z</time>
      </trkpt>
      <trkpt lat="36.601022" lon="-5.329437">
        <ele>360.026</ele>
        <time>2015-06-21T11:20:19Z</time>
      </trkpt>
      <trkpt lat="36.601135" lon="-5.329241">
        <ele>360.408</ele>
        <time>2015-06-21T11:20:27Z</time>
      </trkpt>
      <trkpt lat="36.601152" lon="-5.329220">
        <ele>360.817</ele>
        <time>2015-06-21T11:20:28Z</time>
      </trkpt>
      <trkpt lat="36.601166" lon="-5.329199">
        <ele>361.213</ele>
        <time>2015-06-21T11:20:29Z</time>
      </trkpt>
      <trkpt lat="36.601182" lon="-5.329175">
        <ele>361.656</ele>
        <time>2015-06-21T11:20:30Z</time>
      </trkpt>
      <trkpt lat="36.601199" lon="-5.329154">
        <ele>362.016</ele>
        <time>2015-06-21T11:20:31Z</time>
      </trkpt>
      <trkpt lat="36.601261" lon="-5.329040">
        <ele>362.090</ele>
        <time>2015-06-21T11:20:36Z</time>
      </trkpt>
      <trkpt lat="36.601346" lon="-5.328889">
        <ele>362.047</ele>
        <time>2015-06-21T11:20:42Z</time>
      </trkpt>
      <trkpt lat="36.601392" lon="-5.328763">
        <ele>362.816</ele>
        <time>2015-06-21T11:20:47Z</time>
      </trkpt>
      <trkpt lat="36.601404" lon="-5.328740">
        <ele>363.268</ele>
        <time>2015-06-21T11:20:48Z</time>
      </trkpt>
      <trkpt lat="36.601413" lon="-5.328715">
        <ele>363.699</ele>
        <time>2015-06-21T11:20:49Z</time>
      </trkpt>
      <trkpt lat="36.601425" lon="-5.328687">
        <ele>364.007</ele>
        <time>2015-06-21T11:20:50Z</time>
      </trkpt>
      <trkpt lat="36.601466" lon="-5.328586">
        <ele>364.027</ele>
        <time>2015-06-21T11:20:54Z</time>
      </trkpt>
      <trkpt lat="36.601521" lon="-5.328401">
        <ele>364.408</ele>
        <time>2015-06-21T11:21:01Z</time>
      </trkpt>
      <trkpt lat="36.601529" lon="-5.328377">
        <ele>364.870</ele>
        <time>2015-06-21T11:21:02Z</time>
      </trkpt>
      <trkpt lat="36.601538" lon="-5.328348">
        <ele>365.446</ele>
        <time>2015-06-21T11:21:03Z</time>
      </trkpt>
      <trkpt lat="36.601548" lon="-5.328320">
        <ele>365.869</ele>
        <time>2015-06-21T11:21:04Z</time>
      </trkpt>
      <trkpt lat="36.601558" lon="-5.328294">
        <ele>366.229</ele>
        <time>2015-06-21T11:21:05Z</time>
      </trkpt>
      <trkpt lat="36.601600" lon="-5.328158">
        <ele>366.253</ele>
        <time>2015-06-21T11:21:10Z</time>
      </trkpt>
      <trkpt lat="36.601624" lon="-5.328077">
        <ele>366.660</ele>
        <time>2015-06-21T11:21:13Z</time>
      </trkpt>
      <trkpt lat="36.601632" lon="-5.328052">
        <ele>367.039</ele>
        <time>2015-06-21T11:21:14Z</time>
      </trkpt>
      <trkpt lat="36.601642" lon="-5.328024">
        <ele>367.421</ele>
        <time>2015-06-21T11:21:15Z</time>
      </trkpt>
      <trkpt lat="36.601650" lon="-5.327999">
        <ele>368.011</ele>
        <time>2015-06-21T11:21:16Z</time>
      </trkpt>
      <trkpt lat="36.601656" lon="-5.327976">
        <ele>368.421</ele>
        <time>2015-06-21T11:21:17Z</time>
      </trkpt>
      <trkpt lat="36.601709" lon="-5.327791">
        <ele>368.403</ele>
        <time>2015-06-21T11:21:24Z</time>
      </trkpt>
      <trkpt lat="36.601760" lon="-5.327661">
        <ele>368.808</ele>
        <time>2015-06-21T11:21:29Z</time>
      </trkpt>
      <trkpt lat="36.601766" lon="-5.327634">
        <ele>369.212</ele>
        <time>2015-06-21T11:21:30Z</time>
      </trkpt>
      <trkpt lat="36.601768" lon="-5.327604">
        <ele>369.668</ele>
        <time>2015-06-21T11:21:31Z</time>
      </trkpt>
      <trkpt lat="36.601780" lon="-5.327574">
        <ele>370.051</ele>
        <time>2015-06-21T11:21:32Z</time>
      </trkpt>
      <trkpt lat="36.601790" lon="-5.327544">
        <ele>370.421</ele>
        <time>2015-06-21T11:21:33Z</time>
      </trkpt>
      <trkpt lat="36.601852" lon="-5.327357">
        <ele>370.465</ele>
        <time>2015-06-21T11:21:40Z</time>
      </trkpt>
      <trkpt lat="36.601889" lon="-5.327246">
        <ele>371.082</ele>
        <time>2015-06-21T11:21:44Z</time>
      </trkpt>
      <trkpt lat="36.601900" lon="-5.327221">
        <ele>371.421</ele>
        <time>2015-06-21T11:21:45Z</time>
      </trkpt>
      <trkpt lat="36.601912" lon="-5.327193">
        <ele>371.893</ele>
        <time>2015-06-21T11:21:46Z</time>
      </trkpt>
      <trkpt lat="36.601923" lon="-5.327166">
        <ele>372.212</ele>
        <time>2015-06-21T11:21:47Z</time>
      </trkpt>
      <trkpt lat="36.601933" lon="-5.327139">
        <ele>372.632</ele>
        <time>2015-06-21T11:21:48Z</time>
      </trkpt>
      <trkpt lat="36.602000" lon="-5.326916">
        <ele>372.605</ele>
        <time>2015-06-21T11:21:56Z</time>
      </trkpt>
      <trkpt lat="36.602040" lon="-5.326772">
        <ele>373.408</ele>
        <time>2015-06-21T11:22:01Z</time>
      </trkpt>
      <trkpt lat="36.602048" lon="-5.326741">
        <ele>373.822</ele>
        <time>2015-06-21T11:22:02Z</time>
      </trkpt>
      <trkpt lat="36.602060" lon="-5.326708">
        <ele>374.228</ele>
        <time>2015-06-21T11:22:03Z</time>
      </trkpt>
      <trkpt lat="36.602074" lon="-5.326679">
        <ele>374.641</ele>
        <time>2015-06-21T11:22:04Z</time>
      </trkpt>
      <trkpt lat="36.602126" lon="-5.326519">
        <ele>374.661</ele>
        <time>2015-06-21T11:22:09Z</time>
      </trkpt>
      <trkpt lat="36.602171" lon="-5.326291">
        <ele>375.015</ele>
        <time>2015-06-21T11:22:16Z</time>
      </trkpt>
      <trkpt lat="36.602175" lon="-5.326259">
        <ele>375.492</ele>
        <time>2015-06-21T11:22:17Z</time>
      </trkpt>
      <trkpt lat="36.602180" lon="-5.326225">
        <ele>375.811</ele>
        <time>2015-06-21T11:22:18Z</time>
      </trkpt>
      <trkpt lat="36.602185" lon="-5.326191">
        <ele>376.243</ele>
        <time>2015-06-21T11:22:19Z</time>
      </trkpt>
      <trkpt lat="36.602190" lon="-5.326158">
        <ele>376.833</ele>
        <time>2015-06-21T11:22:20Z</time>
      </trkpt>
      <trkpt lat="36.602197" lon="-5.326051">
        <ele>376.823</ele>
        <time>2015-06-21T11:22:23Z</time>
      </trkpt>
      <trkpt lat="36.602204" lon="-5.325977">
        <ele>376.815</ele>
        <time>2015-06-21T11:22:25Z</time>
      </trkpt>
      <trkpt lat="36.602248" lon="-5.325669">
        <ele>376.808</ele>
        <time>2015-06-21T11:22:34Z</time>
      </trkpt>
      <trkpt lat="36.602261" lon="-5.325607">
        <ele>377.254</ele>
        <time>2015-06-21T11:22:36Z</time>
      </trkpt>
      <trkpt lat="36.602272" lon="-5.325577">
        <ele>377.660</ele>
        <time>2015-06-21T11:22:37Z</time>
      </trkpt>
      <trkpt lat="36.602286" lon="-5.325548">
        <ele>378.043</ele>
        <time>2015-06-21T11:22:38Z</time>
      </trkpt>
      <trkpt lat="36.602297" lon="-5.325521">
        <ele>378.493</ele>
        <time>2015-06-21T11:22:39Z</time>
      </trkpt>
      <trkpt lat="36.602304" lon="-5.325500">
        <ele>378.817</ele>
        <time>2015-06-21T11:22:40Z</time>
      </trkpt>
      <trkpt lat="36.602345" lon="-5.325304">
        <ele>378.864</ele>
        <time>2015-06-21T11:22:46Z</time>
      </trkpt>
      <trkpt lat="36.602377" lon="-5.325226">
        <ele>378.823</ele>
        <time>2015-06-21T11:22:49Z</time>
      </trkpt>
      <trkpt lat="36.602398" lon="-5.325203">
        <ele>379.685</ele>
        <time>2015-06-21T11:22:50Z</time>
      </trkpt>
      <trkpt lat="36.602420" lon="-5.325183">
        <ele>380.072</ele>
        <time>2015-06-21T11:22:51Z</time>
      </trkpt>
      <trkpt lat="36.602445" lon="-5.325160">
        <ele>380.413</ele>
        <time>2015-06-21T11:22:52Z</time>
      </trkpt>
      <trkpt lat="36.602471" lon="-5.325140">
        <ele>380.814</ele>
        <time>2015-06-21T11:22:53Z</time>
      </trkpt>
      <trkpt lat="36.602599" lon="-5.325024">
        <ele>380.808</ele>
        <time>2015-06-21T11:22:58Z</time>
      </trkpt>
      <trkpt lat="36.602673" lon="-5.324954">
        <ele>380.878</ele>
        <time>2015-06-21T11:23:02Z</time>
      </trkpt>
      <trkpt lat="36.602697" lon="-5.324945">
        <ele>380.814</ele>
        <time>2015-06-21T11:23:03Z</time>
      </trkpt>
      <trkpt lat="36.602797" lon="-5.324847">
        <ele>380.837</ele>
        <time>2015-06-21T11:23:08Z</time>
      </trkpt>
      <trkpt lat="36.602934" lon="-5.324703">
        <ele>380.827</ele>
        <time>2015-06-21T11:23:15Z</time>
      </trkpt>
      <trkpt lat="36.603060" lon="-5.324538">
        <ele>380.851</ele>
        <time>2015-06-21T11:23:22Z</time>
      </trkpt>
      <trkpt lat="36.603108" lon="-5.324448">
        <ele>381.288</ele>
        <time>2015-06-21T11:23:25Z</time>
      </trkpt>
      <trkpt lat="36.603131" lon="-5.324418">
        <ele>381.867</ele>
        <time>2015-06-21T11:23:26Z</time>
      </trkpt>
      <trkpt lat="36.603149" lon="-5.324385">
        <ele>382.269</ele>
        <time>2015-06-21T11:23:27Z</time>
      </trkpt>
      <trkpt lat="36.603167" lon="-5.324349">
        <ele>382.686</ele>
        <time>2015-06-21T11:23:28Z</time>
      </trkpt>
      <trkpt lat="36.603175" lon="-5.324314">
        <ele>383.060</ele>
        <time>2015-06-21T11:23:29Z</time>
      </trkpt>
      <trkpt lat="36.603230" lon="-5.324201">
        <ele>383.026</ele>
        <time>2015-06-21T11:23:33Z</time>
      </trkpt>
      <trkpt lat="36.603272" lon="-5.324044">
        <ele>383.008</ele>
        <time>2015-06-21T11:23:38Z</time>
      </trkpt>
      <trkpt lat="36.603278" lon="-5.324011">
        <ele>383.089</ele>
        <time>2015-06-21T11:23:39Z</time>
      </trkpt>
      <trkpt lat="36.603308" lon="-5.323846">
        <ele>383.075</ele>
        <time>2015-06-21T11:23:44Z</time>
      </trkpt>
      <trkpt lat="36.603330" lon="-5.323719">
        <ele>383.078</ele>
        <time>2015-06-21T11:23:50Z</time>
      </trkpt>
      <trkpt lat="36.603329" lon="-5.323703">
        <ele>383.028</ele>
        <time>2015-06-21T11:23:56Z</time>
      </trkpt>
      <trkpt lat="36.603335" lon="-5.323689">
        <ele>383.032</ele>
        <time>2015-06-21T11:24:04Z</time>
      </trkpt>
      <trkpt lat="36.603335" lon="-5.323691">
        <ele>383.039</ele>
        <time>2015-06-21T11:24:05Z</time>
      </trkpt>
      <trkpt lat="36.603333" lon="-5.323670">
        <ele>383.078</ele>
        <time>2015-06-21T11:24:10Z</time>
      </trkpt>
      <trkpt lat="36.603333" lon="-5.323670">
        <ele>383.040</ele>
        <time>2015-06-21T11:24:11Z</time>
      </trkpt>
      <trkpt lat="36.603333" lon="-5.323670">
        <ele>383.096</ele>
        <time>2015-06-21T11:24:20Z</time>
      </trkpt>
      <trkpt lat="36.603333" lon="-5.323670">
        <ele>383.031</ele>
        <time>2015-06-21T11:24:22Z</time>
      </trkpt>
      <trkpt lat="36.603333" lon="-5.323670">
        <ele>383.024</ele>
        <time>2015-06-21T11:24:34Z</time>
      </trkpt>
      <trkpt lat="36.603333" lon="-5.323670">
        <ele>383.008</ele>
        <time>2015-06-21T11:24:39Z</time>
      </trkpt>
      <trkpt lat="36.603333" lon="-5.323670">
        <ele>383.090</ele>
        <time>2015-06-21T11:24:46Z</time>
      </trkpt>
      <trkpt lat="36.603333" lon="-5.323670">
        <ele>383.046</ele>
        <time>2015-06-21T11:24:50Z</time>
      </trkpt>
      <trkpt lat="36.603333" lon="-5.323670">
        <ele>383.049</ele>
        <time>2015-06-21T11:24:53Z</time>
      </trkpt>
      <trkpt lat="36.603333" lon="-5.323670">
        <ele>383.069</ele>
        <time>2015-06-21T11:24:56Z</time>
      </trkpt>
      <trkpt lat="36.603333" lon="-5.323670">
        <ele>383.013</ele>
        <time>2015-06-21T11:24:59Z</time>
      </trkpt>
      <trkpt lat="36.603333" lon="-5.323670">
        <ele>383.090</ele>
        <time>2015-06-21T11:25:00Z</time>
      </trkpt>
      <trkpt lat="36.603333" lon="-5.323670">
        <ele>383.029</ele>
        <time>2015-06-21T11:25:10Z</time>
      </trkpt>
      <trkpt lat="36.603333" lon="-5.323670">
        <ele>383.091</ele>
        <time>2015-06-21T11:25:13Z</time>
      </trkpt>
      <trkpt lat="36.603333" lon="-5.323670">
        <ele>383.046</ele>
        <time>2015-06-21T11:25:16Z</time>
      </trkpt>
      <trkpt lat="36.603333" lon="-5.323670">
        <ele>383.088</ele>
        <time>2015-06-21T11:25:19Z</time>
      </trkpt>
      <trkpt lat="36.603333" lon="-5.323670">
        <ele>383.016</ele>
        <time>2015-06-21T11:25:23Z</time>
      </trkpt>
      <trkpt lat="36.603333" lon="-5.323670">
        <ele>383.008</ele>
        <time>2015-06-21T11:25:27Z</time>
      </trkpt>
      <trkpt lat="36.603333" lon="-5.323669">
        <ele>383.055</ele>
        <time>2015-06-21T11:25:36Z</time>
      </trkpt>
      <trkpt lat="36.603333" lon="-5.323669">
        <ele>383.081</ele>
        <time>2015-06-21T11:25:48Z</time>
      </trkpt>
      <trkpt lat="36.603333" lon="-5.323669">
        <ele>383.064</ele>
        <time>2015-06-21T11:25:50Z</time>
      </trkpt>
      <trkpt lat="36.603338" lon="-5.323663">
        <ele>383.044</ele>
        <time>2015-06-21T11:25:53Z</time>
      </trkpt>
      <trkpt lat="36.603334" lon="-5.323667">
        <ele>383.058</ele>
        <time>2015-06-21T11:25:55Z</time>
      </trkpt>
      <trkpt lat="36.603334" lon="-5.323667">
        <ele>383.075</ele>
        <time>2015-06-21T11:26:03Z</time>
      </trkpt>
      <trkpt lat="36.603353" lon="-5.323630">
        <ele>383.064</ele>
        <time>2015-06-21T11:26:10Z</time>
      </trkpt>
      <trkpt lat="36.603363" lon="-5.323557">
        <ele>383.096</ele>
        <time>2015-06-21T11:26:16Z</time>
      </trkpt>
      <trkpt lat="36.603372" lon="-5.323547">
        <ele>383.055</ele>
        <time>2015-06-21T11:26:17Z</time>
      </trkpt>
      <trkpt lat="36.603367" lon="-5.323524">
        <ele>383.007</ele>
        <time>2015-06-21T11:26:20Z</time>
      </trkpt>
      <trkpt lat="36.603367" lon="-5.323524">
        <ele>383.017</ele>
        <time>2015-06-21T11:26:24Z</time>
      </trkpt>
      <trkpt lat="36.603367" lon="-5.323524">
        <ele>383.008</ele>
        <time>2015-06-21T11:26:26Z</time>
      </trkpt>
      <trkpt lat="36.603367" lon="-5.323524">
        <ele>383.486</ele>
        <time>2015-06-21T11:26:27Z</time>
      </trkpt>
      <trkpt lat="36.603367" lon="-5.323524">
        <ele>383.862</ele>
        <time>2015-06-21T11:26:28Z</time>
      </trkpt>
      <trkpt lat="36.603367" lon="-5.323524">
        <ele>384.275</ele>
        <time>2015-06-21T11:26:29Z</time>
      </trkpt>
      <trkpt lat="36.603367" lon="-5.323524">
        <ele>384.685</ele>
        <time>2015-06-21T11:26:30Z</time>
      </trkpt>
      <trkpt lat="36.603367" lon="-5.323524">
        <ele>385.219</ele>
        <time>2015-06-21T11:26:31Z</time>
      </trkpt>
      <trkpt lat="36.603354" lon="-5.323486">
        <ele>385.296</ele>
        <time>2015-06-21T11:26:36Z</time>
      </trkpt>
      <trkpt lat="36.603340" lon="-5.323474">
        <ele>385.275</ele>
        <time>2015-06-21T11:26:40Z</time>
      </trkpt>
      <trkpt lat="36.603341" lon="-5.323470">
        <ele>385.287</ele>
        <time>2015-06-21T11:26:46Z</time>
      </trkpt>
      <trkpt lat="36.603341" lon="-5.323470">
        <ele>385.279</ele>
        <time>2015-06-21T11:26:50Z</time>
      </trkpt>
      <trkpt lat="36.603347" lon="-5.323438">
        <ele>385.205</ele>
        <time>2015-06-21T11:26:53Z</time>
      </trkpt>
      <trkpt lat="36.603349" lon="-5.323363">
        <ele>385.225</ele>
        <time>2015-06-21T11:26:59Z</time>
      </trkpt>
      <trkpt lat="36.603370" lon="-5.323298">
        <ele>385.208</ele>
        <time>2015-06-21T11:27:04Z</time>
      </trkpt>
      <trkpt lat="36.603383" lon="-5.323285">
        <ele>385.668</ele>
        <time>2015-06-21T11:27:06Z</time>
      </trkpt>
      <trkpt lat="36.603388" lon="-5.323270">
        <ele>386.024</ele>
        <time>2015-06-21T11:27:07Z</time>
      </trkpt>
      <trkpt lat="36.603398" lon="-5.323256">
        <ele>386.417</ele>
        <time>2015-06-21T11:27:08Z</time>
      </trkpt>
      <trkpt lat="36.603409" lon="-5.323249">
        <ele>387.057</ele>
        <time>2015-06-21T11:27:09Z</time>
      </trkpt>
      <trkpt lat="36.603417" lon="-5.323242">
        <ele>387.411</ele>
        <time>2015-06-21T11:27:10Z</time>
      </trkpt>
      <trkpt lat="36.603424" lon="-5.323231">
        <ele>387.448</ele>
        <time>2015-06-21T11:27:11Z</time>
      </trkpt>
      <trkpt lat="36.603428" lon="-5.323216">
        <ele>387.497</ele>
        <time>2015-06-21T11:27:12Z</time>
      </trkpt>
      <trkpt lat="36.603442" lon="-5.323168">
        <ele>387.449</ele>
        <time>2015-06-21T11:27:16Z</time>
      </trkpt>
      <trkpt lat="36.603461" lon="-5.323142">
        <ele>387.877</ele>
        <time>2015-06-21T11:27:19Z</time>
      </trkpt>
      <trkpt lat="36.603473" lon="-5.323134">
        <ele>388.261</ele>
        <time>2015-06-21T11:27:20Z</time>
      </trkpt>
      <trkpt lat="36.603480" lon="-5.323127">
        <ele>389.027</ele>
        <time>2015-06-21T11:27:21Z</time>
      </trkpt>
      <trkpt lat="36.603490" lon="-5.323119">
        <ele>389.408</ele>
        <time>2015-06-21T11:27:22Z</time>
      </trkpt>
      <trkpt lat="36.603549" lon="-5.323064">
        <ele>389.448</ele>
        <time>2015-06-21T11:27:28Z</time>
      </trkpt>
      <trkpt lat="36.603596" lon="-5.323033">
        <ele>389.414</ele>
        <time>2015-06-21T11:27:32Z</time>
      </trkpt>
      <trkpt lat="36.603623" lon="-5.323014">
        <ele>389.427</ele>
        <time>2015-06-21T11:27:34Z</time>
      </trkpt>
      <trkpt lat="36.603668" lon="-5.322981">
        <ele>390.077</ele>
        <time>2015-06-21T11:27:38Z</time>
      </trkpt>
      <trkpt lat="36.603680" lon="-5.322976">
        <ele>390.651</ele>
        <time>2015-06-21T11:27:39Z</time>
      </trkpt>
      <trkpt lat="36.603693" lon="-5.322968">
        <ele>391.248</ele>
        <time>2015-06-21T11:27:40Z</time>
      </trkpt>
      <trkpt lat="36.603704" lon="-5.322960">
        <ele>391.857</ele>
        <time>2015-06-21T11:27:41Z</time>
      </trkpt>
      <trkpt lat="36.603711" lon="-5.322946">
        <ele>392.469</ele>
        <time>2015-06-21T11:27:42Z</time>
      </trkpt>
      <trkpt lat="36.603737" lon="-5.322928">
        <ele>391.838</ele>
        <time>2015-06-21T11:27:45Z</time>
      </trkpt>
      <trkpt lat="36.603743" lon="-5.322924">
        <ele>391.470</ele>
        <time>2015-06-21T11:27:46Z</time>
      </trkpt>
      <trkpt lat="36.603749" lon="-5.322925">
        <ele>392.017</ele>
        <time>2015-06-21T11:27:47Z</time>
      </trkpt>
      <trkpt lat="36.603746" lon="-5.322924">
        <ele>392.208</ele>
        <time>2015-06-21T11:27:48Z</time>
      </trkpt>
      <trkpt lat="36.603751" lon="-5.322918">
        <ele>392.464</ele>
        <time>2015-06-21T11:27:49Z</time>
      </trkpt>
      <trkpt lat="36.603766" lon="-5.322908">
        <ele>392.840</ele>
        <time>2015-06-21T11:27:50Z</time>
      </trkpt>
      <trkpt lat="36.603791" lon="-5.322894">
        <ele>392.893</ele>
        <time>2015-06-21T11:27:52Z</time>
      </trkpt>
      <trkpt lat="36.603823" lon="-5.322889">
        <ele>392.863</ele>
        <time>2015-06-21T11:27:54Z</time>
      </trkpt>
      <trkpt lat="36.603843" lon="-5.322864">
        <ele>392.857</ele>
        <time>2015-06-21T11:27:57Z</time>
      </trkpt>
      <trkpt lat="36.603860" lon="-5.322843">
        <ele>393.294</ele>
        <time>2015-06-21T11:28:00Z</time>
      </trkpt>
      <trkpt lat="36.603866" lon="-5.322836">
        <ele>393.653</ele>
        <time>2015-06-21T11:28:01Z</time>
      </trkpt>
      <trkpt lat="36.603873" lon="-5.322825">
        <ele>394.035</ele>
        <time>2015-06-21T11:28:02Z</time>
      </trkpt>
      <trkpt lat="36.603884" lon="-5.322821">
        <ele>394.447</ele>
        <time>2015-06-21T11:28:03Z</time>
      </trkpt>
      <trkpt lat="36.603892" lon="-5.322815">
        <ele>395.029</ele>
        <time>2015-06-21T11:28:04Z</time>
      </trkpt>
      <trkpt lat="36.603939" lon="-5.322761">
        <ele>395.021</ele>
        <time>2015-06-21T11:28:09Z</time>
      </trkpt>
      <trkpt lat="36.603961" lon="-5.322713">
        <ele>395.008</ele>
        <time>2015-06-21T11:28:13Z</time>
      </trkpt>
      <trkpt lat="36.603966" lon="-5.322701">
        <ele>395.045</ele>
        <time>2015-06-21T11:28:14Z</time>
      </trkpt>
      <trkpt lat="36.603975" lon="-5.322687">
        <ele>395.431</ele>
        <time>2015-06-21T11:28:15Z</time>
      </trkpt>
      <trkpt lat="36.603979" lon="-5.322669">
        <ele>395.824</ele>
        <time>2015-06-21T11:28:16Z</time>
      </trkpt>
      <trkpt lat="36.603981" lon="-5.322648">
        <ele>396.444</ele>
        <time>2015-06-21T11:28:17Z</time>
      </trkpt>
      <trkpt lat="36.603984" lon="-5.322631">
        <ele>396.868</ele>
        <time>2015-06-21T11:28:18Z</time>
      </trkpt>
      <trkpt lat="36.603996" lon="-5.322618">
        <ele>397.285</ele>
        <time>2015-06-21T11:28:19Z</time>
      </trkpt>
      <trkpt lat="36.604011" lon="-5.322596">
        <ele>397.254</ele>
        <time>2015-06-21T11:28:21Z</time>
      </trkpt>
      <trkpt lat="36.604072" lon="-5.322533">
        <ele>397.216</ele>
        <time>2015-06-21T11:28:27Z</time>
      </trkpt>
      <trkpt lat="36.604148" lon="-5.322414">
        <ele>397.295</ele>
        <time>2015-06-21T11:28:35Z</time>
      </trkpt>
      <trkpt lat="36.604189" lon="-5.322341">
        <ele>397.649</ele>
        <time>2015-06-21T11:28:40Z</time>
      </trkpt>
      <trkpt lat="36.604203" lon="-5.322323">
        <ele>398.023</ele>
        <time>2015-06-21T11:28:41Z</time>
      </trkpt>
      <trkpt lat="36.604213" lon="-5.322310">
        <ele>398.408</ele>
        <time>2015-06-21T11:28:42Z</time>
      </trkpt>
      <trkpt lat="36.604225" lon="-5.322300">
        <ele>398.820</ele>
        <time>2015-06-21T11:28:43Z</time>
      </trkpt>
      <trkpt lat="36.604234" lon="-5.322284">
        <ele>399.456</ele>
        <time>2015-06-21T11:28:44Z</time>
      </trkpt>
      <trkpt lat="36.604302" lon="-5.322226">
        <ele>399.439</ele>
        <time>2015-06-21T11:28:49Z</time>
      </trkpt>
      <trkpt lat="36.604400" lon="-5.322155">
        <ele>399.459</ele>
        <time>2015-06-21T11:28:56Z</time>
      </trkpt>
      <trkpt lat="36.604436" lon="-5.322146">
        <ele>399.813</ele>
        <time>2015-06-21T11:28:58Z</time>
      </trkpt>
      <trkpt lat="36.604454" lon="-5.322145">
        <ele>400.250</ele>
        <time>2015-06-21T11:28:59Z</time>
      </trkpt>
      <trkpt lat="36.604472" lon="-5.322143">
        <ele>400.639</ele>
        <time>2015-06-21T11:29:00Z</time>
      </trkpt>
      <trkpt lat="36.604489" lon="-5.322140">
        <ele>401.031</ele>
        <time>2015-06-21T11:29:01Z</time>
      </trkpt>
      <trkpt lat="36.604509" lon="-5.322136">
        <ele>401.415</ele>
        <time>2015-06-21T11:29:02Z</time>
      </trkpt>
      <trkpt lat="36.604565" lon="-5.322126">
        <ele>401.465</ele>
        <time>2015-06-21T11:29:05Z</time>
      </trkpt>
      <trkpt lat="36.604648" lon="-5.322128">
        <ele>401.811</ele>
        <time>2015-06-21T11:29:10Z</time>
      </trkpt>
      <trkpt lat="36.604669" lon="-5.322119">
        <ele>402.208</ele>
        <time>2015-06-21T11:29:11Z</time>
      </trkpt>
      <trkpt lat="36.604686" lon="-5.322114">
        <ele>402.612</ele>
        <time>2015-06-21T11:29:12Z</time>
      </trkpt>
      <trkpt lat="36.604699" lon="-5.322117">
        <ele>403.068</ele>
        <time>2015-06-21T11:29:13Z</time>
      </trkpt>
      <trkpt lat="36.604717" lon="-5.322120">
        <ele>403.451</ele>
        <time>2015-06-21T11:29:14Z</time>
      </trkpt>
      <trkpt lat="36.604781" lon="-5.322111">
        <ele>403.491</ele>
        <time>2015-06-21T11:29:18Z</time>
      </trkpt>
      <trkpt lat="36.604897" lon="-5.322041">
        <ele>403.425</ele>
        <time>2015-06-21T11:29:25Z</time>
      </trkpt>
      <trkpt lat="36.604936" lon="-5.321941">
        <ele>403.852</ele>
        <time>2015-06-21T11:29:30Z</time>
      </trkpt>
      <trkpt lat="36.604937" lon="-5.321919">
        <ele>404.261</ele>
        <time>2015-06-21T11:29:31Z</time>
      </trkpt>
      <trkpt lat="36.604940" lon="-5.321900">
        <ele>404.693</ele>
        <time>2015-06-21T11:29:32Z</time>
      </trkpt>
      <trkpt lat="36.604939" lon="-5.321882">
        <ele>405.032</ele>
        <time>2015-06-21T11:29:33Z</time>
      </trkpt>
      <trkpt lat="36.604942" lon="-5.321862">
        <ele>405.492</ele>
        <time>2015-06-21T11:29:34Z</time>
      </trkpt>
      <trkpt lat="36.604913" lon="-5.321794">
        <ele>405.411</ele>
        <time>2015-06-21T11:29:38Z</time>
      </trkpt>
      <trkpt lat="36.604903" lon="-5.321759">
        <ele>405.408</ele>
        <time>2015-06-21T11:29:40Z</time>
      </trkpt>
      <trkpt lat="36.604899" lon="-5.321745">
        <ele>405.884</ele>
        <time>2015-06-21T11:29:41Z</time>
      </trkpt>
      <trkpt lat="36.604890" lon="-5.321731">
        <ele>406.250</ele>
        <time>2015-06-21T11:29:42Z</time>
      </trkpt>
      <trkpt lat="36.604876" lon="-5.321716">
        <ele>406.893</ele>
        <time>2015-06-21T11:29:43Z</time>
      </trkpt>
      <trkpt lat="36.604866" lon="-5.321702">
        <ele>407.243</ele>
        <time>2015-06-21T11:29:44Z</time>
      </trkpt>
      <trkpt lat="36.604859" lon="-5.321684">
        <ele>407.617</ele>
        <time>2015-06-21T11:29:45Z</time>
      </trkpt>
      <trkpt lat="36.604848" lon="-5.321669">
        <ele>407.644</ele>
        <time>2015-06-21T11:29:46Z</time>
      </trkpt>
      <trkpt lat="36.604824" lon="-5.321626">
        <ele>407.673</ele>
        <time>2015-06-21T11:29:49Z</time>
      </trkpt>
      <trkpt lat="36.604782" lon="-5.321580">
        <ele>407.665</ele>
        <time>2015-06-21T11:29:53Z</time>
      </trkpt>
      <trkpt lat="36.604773" lon="-5.321568">
        <ele>408.011</ele>
        <time>2015-06-21T11:29:54Z</time>
      </trkpt>
      <trkpt lat="36.604761" lon="-5.321556">
        <ele>408.421</ele>
        <time>2015-06-21T11:29:55Z</time>
      </trkpt>
      <trkpt lat="36.604751" lon="-5.321544">
        <ele>408.803</ele>
        <time>2015-06-21T11:29:56Z</time>
      </trkpt>
      <trkpt lat="36.604741" lon="-5.321530">
        <ele>409.208</ele>
        <time>2015-06-21T11:29:57Z</time>
      </trkpt>
      <trkpt lat="36.604734" lon="-5.321518">
        <ele>409.682</ele>
        <time>2015-06-21T11:29:58Z</time>
      </trkpt>
      <trkpt lat="36.604705" lon="-5.321491">
        <ele>409.658</ele>
        <time>2015-06-21T11:30:01Z</time>
      </trkpt>
      <trkpt lat="36.604667" lon="-5.321459">
        <ele>409.691</ele>
        <time>2015-06-21T11:30:04Z</time>
      </trkpt>
      <trkpt lat="36.604633" lon="-5.321418">
        <ele>410.081</ele>
        <time>2015-06-21T11:30:07Z</time>
      </trkpt>
      <trkpt lat="36.604621" lon="-5.321405">
        <ele>410.495</ele>
        <time>2015-06-21T11:30:08Z</time>
      </trkpt>
      <trkpt lat="36.604611" lon="-5.321387">
        <ele>411.032</ele>
        <time>2015-06-21T11:30:09Z</time>
      </trkpt>
      <trkpt lat="36.604601" lon="-5.321372">
        <ele>411.431</ele>
        <time>2015-06-21T11:30:10Z</time>
      </trkpt>
      <trkpt lat="36.604593" lon="-5.321360">
        <ele>411.813</ele>
        <time>2015-06-21T11:30:11Z</time>
      </trkpt>
      <trkpt lat="36.604553" lon="-5.321325">
        <ele>411.892</ele>
        <time>2015-06-21T11:30:14Z</time>
      </trkpt>
      <trkpt lat="36.604506" lon="-5.321273">
        <ele>412.273</ele>
        <time>2015-06-21T11:30:18Z</time>
      </trkpt>
      <trkpt lat="36.604493" lon="-5.321255">
        <ele>412.620</ele>
        <time>2015-06-21T11:30:19Z</time>
      </trkpt>
      <trkpt lat="36.604482" lon="-5.321241">
        <ele>413.008</ele>
        <time>2015-06-21T11:30:20Z</time>
      </trkpt>
      <trkpt lat="36.604473" lon="-5.321222">
        <ele>413.640</ele>
        <time>2015-06-21T11:30:21Z</time>
      </trkpt>
      <trkpt lat="36.604465" lon="-5.321204">
        <ele>414.026</ele>
        <time>2015-06-21T11:30:22Z</time>
      </trkpt>
      <trkpt lat="36.604417" lon="-5.321091">
        <ele>414.029</ele>
        <time>2015-06-21T11:30:27Z</time>
      </trkpt>
      <trkpt lat="36.604347" lon="-5.320835">
        <ele>414.049</ele>
        <time>2015-06-21T11:30:36Z</time>
      </trkpt>
      <trkpt lat="36.604338" lon="-5.320677">
        <ele>414.083</ele>
        <time>2015-06-21T11:30:41Z</time>
      </trkpt>
      <trkpt lat="36.604329" lon="-5.320643">
        <ele>414.010</ele>
        <time>2015-06-21T11:30:42Z</time>
      </trkpt>
      <trkpt lat="36.604304" lon="-5.320577">
        <ele>414.499</ele>
        <time>2015-06-21T11:30:44Z</time>
      </trkpt>
      <trkpt lat="36.604291" lon="-5.320545">
        <ele>414.851</ele>
        <time>2015-06-21T11:30:45Z</time>
      </trkpt>
      <trkpt lat="36.604275" lon="-5.320514">
        <ele>415.298</ele>
        <time>2015-06-21T11:30:46Z</time>
      </trkpt>
      <trkpt lat="36.604259" lon="-5.320484">
        <ele>415.615</ele>
        <time>2015-06-21T11:30:47Z</time>
      </trkpt>
      <trkpt lat="36.604240" lon="-5.320460">
        <ele>416.026</ele>
        <time>2015-06-21T11:30:48Z</time>
      </trkpt>
      <trkpt lat="36.604139" lon="-5.320337">
        <ele>416.008</ele>
        <time>2015-06-21T11:30:52Z</time>
      </trkpt>
      <trkpt lat="36.604116" lon="-5.320298">
        <ele>416.010</ele>
        <time>2015-06-21T11:30:53Z</time>
      </trkpt>
      <trkpt lat="36.604070" lon="-5.320127">
        <ele>416.026</ele>
        <time>2015-06-21T11:30:56Z</time>
      </trkpt>
      <trkpt lat="36.604072" lon="-5.320056">
        <ele>416.079</ele>
        <time>2015-06-21T11:30:57Z</time>
      </trkpt>
      <trkpt lat="36.604089" lon="-5.319809">
        <ele>416.029</ele>
        <time>2015-06-21T11:31:00Z</time>
      </trkpt>
      <trkpt lat="36.604060" lon="-5.319631">
        <ele>415.683</ele>
        <time>2015-06-21T11:31:02Z</time>
      </trkpt>
      <trkpt lat="36.604040" lon="-5.319547">
        <ele>415.050</ele>
        <time>2015-06-21T11:31:03Z</time>
      </trkpt>
      <trkpt lat="36.604014" lon="-5.319467">
        <ele>414.699</ele>
        <time>2015-06-21T11:31:04Z</time>
      </trkpt>
      <trkpt lat="36.603992" lon="-5.319397">
        <ele>413.841</ele>
        <time>2015-06-21T11:31:05Z</time>
      </trkpt>
      <trkpt lat="36.603928" lon="-5.319225">
        <ele>413.857</ele>
        <time>2015-06-21T11:31:08Z</time>
      </trkpt>
      <trkpt lat="36.603764" lon="-5.319006">
        <ele>413.800</ele>
        <time>2015-06-21T11:31:14Z</time>
      </trkpt>
      <trkpt lat="36.603741" lon="-5.318964">
        <ele>413.820</ele>
        <time>2015-06-21T11:31:15Z</time>
      </trkpt>
      <trkpt lat="36.603730" lon="-5.318869">
        <ele>413.408</ele>
        <time>2015-06-21T11:31:17Z</time>
      </trkpt>
      <trkpt lat="36.603744" lon="-5.318817">
        <ele>413.016</ele>
        <time>2015-06-21T11:31:18Z</time>
      </trkpt>
      <trkpt lat="36.603769" lon="-5.318769">
        <ele>412.662</ele>
        <time>2015-06-21T11:31:19Z</time>
      </trkpt>
      <trkpt lat="36.603796" lon="-5.318724">
        <ele>412.215</ele>
        <time>2015-06-21T11:31:20Z</time>
      </trkpt>
      <trkpt lat="36.603843" lon="-5.318700">
        <ele>411.655</ele>
        <time>2015-06-21T11:31:21Z</time>
      </trkpt>
      <trkpt lat="36.603923" lon="-5.318641">
        <ele>411.669</ele>
        <time>2015-06-21T11:31:23Z</time>
      </trkpt>
      <trkpt lat="36.604046" lon="-5.318507">
        <ele>411.676</ele>
        <time>2015-06-21T11:31:27Z</time>
      </trkpt>
      <trkpt lat="36.604129" lon="-5.318405">
        <ele>411.655</ele>
        <time>2015-06-21T11:31:31Z</time>
      </trkpt>
      <trkpt lat="36.604141" lon="-5.318379">
        <ele>411.687</ele>
        <time>2015-06-21T11:31:32Z</time>
      </trkpt>
      <trkpt lat="36.604177" lon="-5.318300">
        <ele>411.616</ele>
        <time>2015-06-21T11:31:35Z</time>
      </trkpt>
      <trkpt lat="36.604211" lon="-5.318219">
        <ele>411.676</ele>
        <time>2015-06-21T11:31:38Z</time>
      </trkpt>
      <trkpt lat="36.604224" lon="-5.318128">
        <ele>411.613</ele>
        <time>2015-06-21T11:31:41Z</time>
      </trkpt>
      <trkpt lat="36.604230" lon="-5.318039">
        <ele>411.608</ele>
        <time>2015-06-21T11:31:44Z</time>
      </trkpt>
      <trkpt lat="36.604239" lon="-5.317815">
        <ele>411.652</ele>
        <time>2015-06-21T11:31:51Z</time>
      </trkpt>
      <trkpt lat="36.604242" lon="-5.317593">
        <ele>411.668</ele>
        <time>2015-06-21T11:31:57Z</time>
      </trkpt>
      <trkpt lat="36.604279" lon="-5.317353">
        <ele>411.661</ele>
        <time>2015-06-21T11:32:03Z</time>
      </trkpt>
      <trkpt lat="36.604292" lon="-5.317270">
        <ele>411.621</ele>
        <time>2015-06-21T11:32:05Z</time>
      </trkpt>
      <trkpt lat="36.604331" lon="-5.316951">
        <ele>411.665</ele>
        <time>2015-06-21T11:32:12Z</time>
      </trkpt>
      <trkpt lat="36.604354" lon="-5.316835">
        <ele>411.642</ele>
        <time>2015-06-21T11:32:15Z</time>
      </trkpt>
      <trkpt lat="36.604374" lon="-5.316776">
        <ele>411.631</ele>
        <time>2015-06-21T11:32:17Z</time>
      </trkpt>
      <trkpt lat="36.604416" lon="-5.316650">
        <ele>411.693</ele>
        <time>2015-06-21T11:32:23Z</time>
      </trkpt>
      <trkpt lat="36.604429" lon="-5.316602">
        <ele>411.687</ele>
        <time>2015-06-21T11:32:26Z</time>
      </trkpt>
      <trkpt lat="36.604458" lon="-5.316515">
        <ele>411.642</ele>
        <time>2015-06-21T11:32:31Z</time>
      </trkpt>
      <trkpt lat="36.604477" lon="-5.316460">
        <ele>411.626</ele>
        <time>2015-06-21T11:32:34Z</time>
      </trkpt>
      <trkpt lat="36.604487" lon="-5.316399">
        <ele>411.608</ele>
        <time>2015-06-21T11:32:37Z</time>
      </trkpt>
      <trkpt lat="36.604500" lon="-5.316368">
        <ele>411.649</ele>
        <time>2015-06-21T11:32:39Z</time>
      </trkpt>
      <trkpt lat="36.604500" lon="-5.316352">
        <ele>412.215</ele>
        <time>2015-06-21T11:32:40Z</time>
      </trkpt>
      <trkpt lat="36.604496" lon="-5.316333">
        <ele>412.618</ele>
        <time>2015-06-21T11:32:41Z</time>
      </trkpt>
      <trkpt lat="36.604495" lon="-5.316313">
        <ele>413.088</ele>
        <time>2015-06-21T11:32:42Z</time>
      </trkpt>
      <trkpt lat="36.604501" lon="-5.316291">
        <ele>413.872</ele>
        <time>2015-06-21T11:32:43Z</time>
      </trkpt>
      <trkpt lat="36.604509" lon="-5.316272">
        <ele>413.869</ele>
        <time>2015-06-21T11:32:44Z</time>
      </trkpt>
      <trkpt lat="36.604523" lon="-5.316219">
        <ele>413.848</ele>
        <time>2015-06-21T11:32:47Z</time>
      </trkpt>
      <trkpt lat="36.604533" lon="-5.316164">
        <ele>413.880</ele>
        <time>2015-06-21T11:32:50Z</time>
      </trkpt>
      <trkpt lat="36.604555" lon="-5.316074">
        <ele>414.215</ele>
        <time>2015-06-21T11:32:55Z</time>
      </trkpt>
      <trkpt lat="36.604558" lon="-5.316058">
        <ele>414.665</ele>
        <time>2015-06-21T11:32:56Z</time>
      </trkpt>
      <trkpt lat="36.604562" lon="-5.316042">
        <ele>415.011</ele>
        <time>2015-06-21T11:32:57Z</time>
      </trkpt>
      <trkpt lat="36.604565" lon="-5.316028">
        <ele>415.408</ele>
        <time>2015-06-21T11:32:58Z</time>
      </trkpt>
      <trkpt lat="36.604571" lon="-5.316015">
        <ele>415.822</ele>
        <time>2015-06-21T11:32:59Z</time>
      </trkpt>
      <trkpt lat="36.604573" lon="-5.316005">
        <ele>415.898</ele>
        <time>2015-06-21T11:33:00Z</time>
      </trkpt>
      <trkpt lat="36.604566" lon="-5.315981">
        <ele>415.811</ele>
        <time>2015-06-21T11:33:02Z</time>
      </trkpt>
      <trkpt lat="36.604583" lon="-5.315900">
        <ele>415.811</ele>
        <time>2015-06-21T11:33:07Z</time>
      </trkpt>
      <trkpt lat="36.604586" lon="-5.315884">
        <ele>416.635</ele>
        <time>2015-06-21T11:33:08Z</time>
      </trkpt>
      <trkpt lat="36.604590" lon="-5.315869">
        <ele>417.092</ele>
        <time>2015-06-21T11:33:09Z</time>
      </trkpt>
      <trkpt lat="36.604592" lon="-5.315855">
        <ele>417.441</ele>
        <time>2015-06-21T11:33:10Z</time>
      </trkpt>
      <trkpt lat="36.604596" lon="-5.315840">
        <ele>417.863</ele>
        <time>2015-06-21T11:33:11Z</time>
      </trkpt>
      <trkpt lat="36.604609" lon="-5.315762">
        <ele>417.842</ele>
        <time>2015-06-21T11:33:16Z</time>
      </trkpt>
      <trkpt lat="36.604635" lon="-5.315652">
        <ele>417.822</ele>
        <time>2015-06-21T11:33:23Z</time>
      </trkpt>
      <trkpt lat="36.604644" lon="-5.315619">
        <ele>418.414</ele>
        <time>2015-06-21T11:33:25Z</time>
      </trkpt>
      <trkpt lat="36.604646" lon="-5.315602">
        <ele>418.808</ele>
        <time>2015-06-21T11:33:26Z</time>
      </trkpt>
      <trkpt lat="36.604649" lon="-5.315584">
        <ele>419.295</ele>
        <time>2015-06-21T11:33:27Z</time>
      </trkpt>
      <trkpt lat="36.604652" lon="-5.315568">
        <ele>419.611</ele>
        <time>2015-06-21T11:33:28Z</time>
      </trkpt>
      <trkpt lat="36.604658" lon="-5.315554">
        <ele>420.094</ele>
        <time>2015-06-21T11:33:29Z</time>
      </trkpt>
      <trkpt lat="36.604670" lon="-5.315513">
        <ele>420.094</ele>
        <time>2015-06-21T11:33:32Z</time>
      </trkpt>
      <trkpt lat="36.604695" lon="-5.315402">
        <ele>420.488</ele>
        <time>2015-06-21T11:33:39Z</time>
      </trkpt>
      <trkpt lat="36.604701" lon="-5.315383">
        <ele>420.845</ele>
        <time>2015-06-21T11:33:40Z</time>
      </trkpt>
      <trkpt lat="36.604706" lon="-5.315364">
        <ele>421.224</ele>
        <time>2015-06-21T11:33:41Z</time>
      </trkpt>
      <trkpt lat="36.604713" lon="-5.315347">
        <ele>421.676</ele>
        <time>2015-06-21T11:33:42Z</time>
      </trkpt>
      <trkpt lat="36.604721" lon="-5.315331">
        <ele>422.068</ele>
        <time>2015-06-21T11:33:43Z</time>
      </trkpt>
      <trkpt lat="36.604741" lon="-5.315275">
        <ele>422.042</ele>
        <time>2015-06-21T11:33:46Z</time>
      </trkpt>
      <trkpt lat="36.604796" lon="-5.315122">
        <ele>422.026</ele>
        <time>2015-06-21T11:33:54Z</time>
      </trkpt>
      <trkpt lat="36.604801" lon="-5.315105">
        <ele>422.408</ele>
        <time>2015-06-21T11:33:55Z</time>
      </trkpt>
      <trkpt lat="36.604808" lon="-5.315090">
        <ele>422.847</ele>
        <time>2015-06-21T11:33:56Z</time>
      </trkpt>
      <trkpt lat="36.604818" lon="-5.315074">
        <ele>423.643</ele>
        <time>2015-06-21T11:33:57Z</time>
      </trkpt>
      <trkpt lat="36.604827" lon="-5.315058">
        <ele>424.026</ele>
        <time>2015-06-21T11:33:58Z</time>
      </trkpt>
      <trkpt lat="36.604851" lon="-5.315007">
        <ele>424.076</ele>
        <time>2015-06-21T11:34:01Z</time>
      </trkpt>
      <trkpt lat="36.604890" lon="-5.314907">
        <ele>424.060</ele>
        <time>2015-06-21T11:34:06Z</time>
      </trkpt>
      <trkpt lat="36.604905" lon="-5.314892">
        <ele>424.047</ele>
        <time>2015-06-21T11:34:07Z</time>
      </trkpt>
      <trkpt lat="36.604993" lon="-5.314730">
        <ele>424.486</ele>
        <time>2015-06-21T11:34:15Z</time>
      </trkpt>
      <trkpt lat="36.605001" lon="-5.314710">
        <ele>425.028</ele>
        <time>2015-06-21T11:34:16Z</time>
      </trkpt>
      <trkpt lat="36.605011" lon="-5.314688">
        <ele>425.432</ele>
        <time>2015-06-21T11:34:17Z</time>
      </trkpt>
      <trkpt lat="36.605025" lon="-5.314666">
        <ele>425.892</ele>
        <time>2015-06-21T11:34:18Z</time>
      </trkpt>
      <trkpt lat="36.605039" lon="-5.314646">
        <ele>426.211</ele>
        <time>2015-06-21T11:34:19Z</time>
      </trkpt>
      <trkpt lat="36.605089" lon="-5.314575">
        <ele>426.208</ele>
        <time>2015-06-21T11:34:22Z</time>
      </trkpt>
      <trkpt lat="36.605157" lon="-5.314416">
        <ele>426.264</ele>
        <time>2015-06-21T11:34:28Z</time>
      </trkpt>
      <trkpt lat="36.605200" lon="-5.314332">
        <ele>426.680</ele>
        <time>2015-06-21T11:34:32Z</time>
      </trkpt>
      <trkpt lat="36.605210" lon="-5.314311">
        <ele>427.063</ele>
        <time>2015-06-21T11:34:33Z</time>
      </trkpt>
      <trkpt lat="36.605220" lon="-5.314292">
        <ele>427.693</ele>
        <time>2015-06-21T11:34:34Z</time>
      </trkpt>
      <trkpt lat="36.605231" lon="-5.314271">
        <ele>428.017</ele>
        <time>2015-06-21T11:34:35Z</time>
      </trkpt>
      <trkpt lat="36.605244" lon="-5.314248">
        <ele>428.474</ele>
        <time>2015-06-21T11:34:36Z</time>
      </trkpt>
      <trkpt lat="36.605312" lon="-5.314093">
        <ele>428.423</ele>
        <time>2015-06-21T11:34:42Z</time>
      </trkpt>
      <trkpt lat="36.605392" lon="-5.313911">
        <ele>428.445</ele>
        <time>2015-06-21T11:34:49Z</time>
      </trkpt>
      <trkpt lat="36.605421" lon="-5.313841">
        <ele>428.842</ele>
        <time>2015-06-21T11:34:52Z</time>
      </trkpt>
      <trkpt lat="36.605432" lon="-5.313816">
        <ele>429.222</ele>
        <time>2015-06-21T11:34:53Z</time>
      </trkpt>
      <trkpt lat="36.605444" lon="-5.313791">
        <ele>429.614</ele>
        <time>2015-06-21T11:34:54Z</time>
      </trkpt>
      <trkpt lat="36.605455" lon="-5.313768">
        <ele>430.008</ele>
        <time>2015-06-21T11:34:55Z</time>
      </trkpt>
      <trkpt lat="36.605466" lon="-5.313746">
        <ele>430.425</ele>
        <time>2015-06-21T11:34:56Z</time>
      </trkpt>
      <trkpt lat="36.605526" lon="-5.313574">
        <ele>430.461</ele>
        <time>2015-06-21T11:35:03Z</time>
      </trkpt>
      <trkpt lat="36.605550" lon="-5.313500">
        <ele>430.864</ele>
        <time>2015-06-21T11:35:06Z</time>
      </trkpt>
      <trkpt lat="36.605562" lon="-5.313470">
        <ele>431.214</ele>
        <time>2015-06-21T11:35:07Z</time>
      </trkpt>
      <trkpt lat="36.605573" lon="-5.313443">
        <ele>431.688</ele>
        <time>2015-06-21T11:35:08Z</time>
      </trkpt>
      <trkpt lat="36.605582" lon="-5.313416">
        <ele>432.055</ele>
        <time>2015-06-21T11:35:09Z</time>
      </trkpt>
      <trkpt lat="36.605596" lon="-5.313391">
        <ele>432.464</ele>
        <time>2015-06-21T11:35:10Z</time>
      </trkpt>
      <trkpt lat="36.605662" lon="-5.313203">
        <ele>432.466</ele>
        <time>2015-06-21T11:35:17Z</time>
      </trkpt>
      <trkpt lat="36.605707" lon="-5.312972">
        <ele>432.455</ele>
        <time>2015-06-21T11:35:25Z</time>
      </trkpt>
      <trkpt lat="36.605737" lon="-5.312771">
        <ele>432.407</ele>
        <time>2015-06-21T11:35:32Z</time>
      </trkpt>
      <trkpt lat="36.605746" lon="-5.312713">
        <ele>432.817</ele>
        <time>2015-06-21T11:35:34Z</time>
      </trkpt>
      <trkpt lat="36.605748" lon="-5.312686">
        <ele>433.608</ele>
        <time>2015-06-21T11:35:35Z</time>
      </trkpt>
      <trkpt lat="36.605752" lon="-5.312658">
        <ele>434.036</ele>
        <time>2015-06-21T11:35:36Z</time>
      </trkpt>
      <trkpt lat="36.605759" lon="-5.312633">
        <ele>434.492</ele>
        <time>2015-06-21T11:35:37Z</time>
      </trkpt>
      <trkpt lat="36.605784" lon="-5.312559">
        <ele>434.435</ele>
        <time>2015-06-21T11:35:40Z</time>
      </trkpt>
      <trkpt lat="36.605862" lon="-5.312336">
        <ele>435.095</ele>
        <time>2015-06-21T11:35:48Z</time>
      </trkpt>
      <trkpt lat="36.605873" lon="-5.312311">
        <ele>435.429</ele>
        <time>2015-06-21T11:35:49Z</time>
      </trkpt>
      <trkpt lat="36.605886" lon="-5.312285">
        <ele>435.876</ele>
        <time>2015-06-21T11:35:50Z</time>
      </trkpt>
      <trkpt lat="36.605898" lon="-5.312258">
        <ele>436.285</ele>
        <time>2015-06-21T11:35:51Z</time>
      </trkpt>
      <trkpt lat="36.605912" lon="-5.312233">
        <ele>436.627</ele>
        <time>2015-06-21T11:35:52Z</time>
      </trkpt>
      <trkpt lat="36.605945" lon="-5.312147">
        <ele>436.614</ele>
        <time>2015-06-21T11:35:55Z</time>
      </trkpt>
      <trkpt lat="36.606021" lon="-5.311981">
        <ele>436.654</ele>
        <time>2015-06-21T11:36:01Z</time>
      </trkpt>
      <trkpt lat="36.606133" lon="-5.311861">
        <ele>436.609</ele>
        <time>2015-06-21T11:36:06Z</time>
      </trkpt>
      <trkpt lat="36.606311" lon="-5.311783">
        <ele>436.608</ele>
        <time>2015-06-21T11:36:13Z</time>
      </trkpt>
      <trkpt lat="36.606459" lon="-5.311698">
        <ele>436.612</ele>
        <time>2015-06-21T11:36:20Z</time>
      </trkpt>
      <trkpt lat="36.606498" lon="-5.311667">
        <ele>437.068</ele>
        <time>2015-06-21T11:36:22Z</time>
      </trkpt>
      <trkpt lat="36.606517" lon="-5.311650">
        <ele>437.431</ele>
        <time>2015-06-21T11:36:23Z</time>
      </trkpt>
      <trkpt lat="36.606533" lon="-5.311637">
        <ele>437.891</ele>
        <time>2015-06-21T11:36:24Z</time>
      </trkpt>
      <trkpt lat="36.606552" lon="-5.311623">
        <ele>438.625</ele>
        <time>2015-06-21T11:36:25Z</time>
      </trkpt>
      <trkpt lat="36.606572" lon="-5.311607">
        <ele>438.672</ele>
        <time>2015-06-21T11:36:26Z</time>
      </trkpt>
      <trkpt lat="36.606703" lon="-5.311542">
        <ele>438.641</ele>
        <time>2015-06-21T11:36:32Z</time>
      </trkpt>
      <trkpt lat="36.606750" lon="-5.311529">
        <ele>439.053</ele>
        <time>2015-06-21T11:36:34Z</time>
      </trkpt>
      <trkpt lat="36.606774" lon="-5.311521">
        <ele>439.478</ele>
        <time>2015-06-21T11:36:35Z</time>
      </trkpt>
      <trkpt lat="36.606799" lon="-5.311512">
        <ele>439.833</ele>
        <time>2015-06-21T11:36:36Z</time>
      </trkpt>
      <trkpt lat="36.606824" lon="-5.311504">
        <ele>440.226</ele>
        <time>2015-06-21T11:36:37Z</time>
      </trkpt>
      <trkpt lat="36.606845" lon="-5.311501">
        <ele>440.608</ele>
        <time>2015-06-21T11:36:38Z</time>
      </trkpt>
      <trkpt lat="36.606964" lon="-5.311500">
        <ele>440.688</ele>
        <time>2015-06-21T11:36:44Z</time>
      </trkpt>
      <trkpt lat="36.607002" lon="-5.311511">
        <ele>441.244</ele>
        <time>2015-06-21T11:36:46Z</time>
      </trkpt>
      <trkpt lat="36.607019" lon="-5.311513">
        <ele>441.657</ele>
        <time>2015-06-21T11:36:47Z</time>
      </trkpt>
      <trkpt lat="36.607038" lon="-5.311513">
        <ele>442.017</ele>
        <time>2015-06-21T11:36:48Z</time>
      </trkpt>
      <trkpt lat="36.607058" lon="-5.311515">
        <ele>442.481</ele>
        <time>2015-06-21T11:36:49Z</time>
      </trkpt>
      <trkpt lat="36.607079" lon="-5.311518">
        <ele>442.848</ele>
        <time>2015-06-21T11:36:50Z</time>
      </trkpt>
      <trkpt lat="36.607121" lon="-5.311519">
        <ele>442.817</ele>
        <time>2015-06-21T11:36:52Z</time>
      </trkpt>
      <trkpt lat="36.607213" lon="-5.311514">
        <ele>442.889</ele>
        <time>2015-06-21T11:36:57Z</time>
      </trkpt>
      <trkpt lat="36.607232" lon="-5.311505">
        <ele>442.827</ele>
        <time>2015-06-21T11:36:58Z</time>
      </trkpt>
      <trkpt lat="36.607294" lon="-5.311481">
        <ele>443.268</ele>
        <time>2015-06-21T11:37:01Z</time>
      </trkpt>
      <trkpt lat="36.607314" lon="-5.311471">
        <ele>443.614</ele>
        <time>2015-06-21T11:37:02Z</time>
      </trkpt>
      <trkpt lat="36.607335" lon="-5.311459">
        <ele>444.008</ele>
        <time>2015-06-21T11:37:03Z</time>
      </trkpt>
      <trkpt lat="36.607356" lon="-5.311445">
        <ele>444.483</ele>
        <time>2015-06-21T11:37:04Z</time>
      </trkpt>
      <trkpt lat="36.607372" lon="-5.311424">
        <ele>444.869</ele>
        <time>2015-06-21T11:37:05Z</time>
      </trkpt>
      <trkpt lat="36.607447" lon="-5.311273">
        <ele>444.822</ele>
        <time>2015-06-21T11:37:11Z</time>
      </trkpt>
      <trkpt lat="36.607469" lon="-5.311156">
        <ele>444.872</ele>
        <time>2015-06-21T11:37:17Z</time>
      </trkpt>
      <trkpt lat="36.607470" lon="-5.311154">
        <ele>445.476</ele>
        <time>2015-06-21T11:37:18Z</time>
      </trkpt>
      <trkpt lat="36.607470" lon="-5.311154">
        <ele>445.823</ele>
        <time>2015-06-21T11:37:19Z</time>
      </trkpt>
      <trkpt lat="36.607470" lon="-5.311154">
        <ele>446.242</ele>
        <time>2015-06-21T11:37:20Z</time>
      </trkpt>
      <trkpt lat="36.607470" lon="-5.311154">
        <ele>446.694</ele>
        <time>2015-06-21T11:37:21Z</time>
      </trkpt>
      <trkpt lat="36.607470" lon="-5.311154">
        <ele>447.086</ele>
        <time>2015-06-21T11:37:22Z</time>
      </trkpt>
      <trkpt lat="36.607470" lon="-5.311154">
        <ele>447.060</ele>
        <time>2015-06-21T11:37:25Z</time>
      </trkpt>
      <trkpt lat="36.607467" lon="-5.311151">
        <ele>447.026</ele>
        <time>2015-06-21T11:37:33Z</time>
      </trkpt>
      <trkpt lat="36.607467" lon="-5.311151">
        <ele>447.008</ele>
        <time>2015-06-21T11:37:46Z</time>
      </trkpt>
      <trkpt lat="36.607467" lon="-5.311151">
        <ele>447.069</ele>
        <time>2015-06-21T11:37:52Z</time>
      </trkpt>
      <trkpt lat="36.607467" lon="-5.311151">
        <ele>447.015</ele>
        <time>2015-06-21T11:37:55Z</time>
      </trkpt>
      <trkpt lat="36.607467" lon="-5.311151">
        <ele>447.058</ele>
        <time>2015-06-21T11:38:00Z</time>
      </trkpt>
      <trkpt lat="36.607467" lon="-5.311151">
        <ele>447.038</ele>
        <time>2015-06-21T11:38:03Z</time>
      </trkpt>
      <trkpt lat="36.607467" lon="-5.311151">
        <ele>447.052</ele>
        <time>2015-06-21T11:38:06Z</time>
      </trkpt>
      <trkpt lat="36.607466" lon="-5.311152">
        <ele>447.089</ele>
        <time>2015-06-21T11:38:11Z</time>
      </trkpt>
      <trkpt lat="36.607466" lon="-5.311152">
        <ele>447.048</ele>
        <time>2015-06-21T11:38:14Z</time>
      </trkpt>
      <trkpt lat="36.607466" lon="-5.311152">
        <ele>447.090</ele>
        <time>2015-06-21T11:38:24Z</time>
      </trkpt>
      <trkpt lat="36.607466" lon="-5.311152">
        <ele>447.025</ele>
        <time>2015-06-21T11:38:27Z</time>
      </trkpt>
      <trkpt lat="36.607466" lon="-5.311152">
        <ele>447.026</ele>
        <time>2015-06-21T11:38:28Z</time>
      </trkpt>
      <trkpt lat="36.607466" lon="-5.311152">
        <ele>447.008</ele>
        <time>2015-06-21T11:38:42Z</time>
      </trkpt>
      <trkpt lat="36.607466" lon="-5.311152">
        <ele>447.008</ele>
        <time>2015-06-21T11:38:45Z</time>
      </trkpt>
      <trkpt lat="36.607466" lon="-5.311152">
        <ele>447.043</ele>
        <time>2015-06-21T11:38:54Z</time>
      </trkpt>
      <trkpt lat="36.607466" lon="-5.311152">
        <ele>447.079</ele>
        <time>2015-06-21T11:38:57Z</time>
      </trkpt>
      <trkpt lat="36.607466" lon="-5.311152">
        <ele>447.062</ele>
        <time>2015-06-21T11:39:06Z</time>
      </trkpt>
      <trkpt lat="36.607466" lon="-5.311152">
        <ele>447.032</ele>
        <time>2015-06-21T11:39:07Z</time>
      </trkpt>
      <trkpt lat="36.607466" lon="-5.311152">
        <ele>447.086</ele>
        <time>2015-06-21T11:39:08Z</time>
      </trkpt>
      <trkpt lat="36.607479" lon="-5.311099">
        <ele>447.083</ele>
        <time>2015-06-21T11:39:14Z</time>
      </trkpt>
      <trkpt lat="36.607487" lon="-5.310972">
        <ele>447.092</ele>
        <time>2015-06-21T11:39:20Z</time>
      </trkpt>
      <trkpt lat="36.607497" lon="-5.310869">
        <ele>447.054</ele>
        <time>2015-06-21T11:39:25Z</time>
      </trkpt>
      <trkpt lat="36.607494" lon="-5.310848">
        <ele>447.013</ele>
        <time>2015-06-21T11:39:26Z</time>
      </trkpt>
      <trkpt lat="36.607488" lon="-5.310757">
        <ele>447.043</ele>
        <time>2015-06-21T11:39:30Z</time>
      </trkpt>
      <trkpt lat="36.607494" lon="-5.310710">
        <ele>447.007</ele>
        <time>2015-06-21T11:39:32Z</time>
      </trkpt>
      <trkpt lat="36.607496" lon="-5.310687">
        <ele>447.408</ele>
        <time>2015-06-21T11:39:33Z</time>
      </trkpt>
      <trkpt lat="36.607497" lon="-5.310664">
        <ele>447.832</ele>
        <time>2015-06-21T11:39:34Z</time>
      </trkpt>
      <trkpt lat="36.607497" lon="-5.310640">
        <ele>448.228</ele>
        <time>2015-06-21T11:39:35Z</time>
      </trkpt>
      <trkpt lat="36.607495" lon="-5.310614">
        <ele>448.691</ele>
        <time>2015-06-21T11:39:36Z</time>
      </trkpt>
      <trkpt lat="36.607492" lon="-5.310589">
        <ele>449.241</ele>
        <time>2015-06-21T11:39:37Z</time>
      </trkpt>
      <trkpt lat="36.607498" lon="-5.310539">
        <ele>449.215</ele>
        <time>2015-06-21T11:39:39Z</time>
      </trkpt>
      <trkpt lat="36.607501" lon="-5.310494">
        <ele>449.272</ele>
        <time>2015-06-21T11:39:41Z</time>
      </trkpt>
      <trkpt lat="36.607495" lon="-5.310391">
        <ele>449.211</ele>
        <time>2015-06-21T11:39:45Z</time>
      </trkpt>
      <trkpt lat="36.607493" lon="-5.310365">
        <ele>449.663</ele>
        <time>2015-06-21T11:39:46Z</time>
      </trkpt>
      <trkpt lat="36.607491" lon="-5.310340">
        <ele>450.079</ele>
        <time>2015-06-21T11:39:47Z</time>
      </trkpt>
      <trkpt lat="36.607487" lon="-5.310310">
        <ele>450.405</ele>
        <time>2015-06-21T11:39:48Z</time>
      </trkpt>
      <trkpt lat="36.607483" lon="-5.310280">
        <ele>450.825</ele>
        <time>2015-06-21T11:39:49Z</time>
      </trkpt>
      <trkpt lat="36.607480" lon="-5.310252">
        <ele>451.208</ele>
        <time>2015-06-21T11:39:50Z</time>
      </trkpt>
      <trkpt lat="36.607447" lon="-5.310158">
        <ele>451.218</ele>
        <time>2015-06-21T11:39:53Z</time>
      </trkpt>
      <trkpt lat="36.607339" lon="-5.309999">
        <ele>451.254</ele>
        <time>2015-06-21T11:39:57Z</time>
      </trkpt>
      <trkpt lat="36.607310" lon="-5.309943">
        <ele>451.267</ele>
        <time>2015-06-21T11:39:58Z</time>
      </trkpt>
      <trkpt lat="36.607272" lon="-5.309710">
        <ele>451.237</ele>
        <time>2015-06-21T11:40:01Z</time>
      </trkpt>
      <trkpt lat="36.607299" lon="-5.309538">
        <ele>450.811</ele>
        <time>2015-06-21T11:40:03Z</time>
      </trkpt>
      <trkpt lat="36.607329" lon="-5.309456">
        <ele>450.238</ele>
        <time>2015-06-21T11:40:04Z</time>
      </trkpt>
      <trkpt lat="36.607361" lon="-5.309381">
        <ele>449.837</ele>
        <time>2015-06-21T11:40:05Z</time>
      </trkpt>
      <trkpt lat="36.607398" lon="-5.309318">
        <ele>449.289</ele>
        <time>2015-06-21T11:40:06Z</time>
      </trkpt>
      <trkpt lat="36.607431" lon="-5.309270">
        <ele>448.259</ele>
        <time>2015-06-21T11:40:07Z</time>
      </trkpt>
      <trkpt lat="36.607466" lon="-5.309218">
        <ele>447.203</ele>
        <time>2015-06-21T11:40:08Z</time>
      </trkpt>
      <trkpt lat="36.607504" lon="-5.309168">
        <ele>446.423</ele>
        <time>2015-06-21T11:40:09Z</time>
      </trkpt>
      <trkpt lat="36.607547" lon="-5.309121">
        <ele>445.408</ele>
        <time>2015-06-21T11:40:10Z</time>
      </trkpt>
      <trkpt lat="36.607592" lon="-5.309080">
        <ele>445.436</ele>
        <time>2015-06-21T11:40:11Z</time>
      </trkpt>
      <trkpt lat="36.607639" lon="-5.309038">
        <ele>445.632</ele>
        <time>2015-06-21T11:40:12Z</time>
      </trkpt>
      <trkpt lat="36.607688" lon="-5.308995">
        <ele>445.615</ele>
        <time>2015-06-21T11:40:13Z</time>
      </trkpt>
      <trkpt lat="36.607747" lon="-5.308959">
        <ele>445.265</ele>
        <time>2015-06-21T11:40:14Z</time>
      </trkpt>
      <trkpt lat="36.607810" lon="-5.308925">
        <ele>444.649</ele>
        <time>2015-06-21T11:40:15Z</time>
      </trkpt>
      <trkpt lat="36.607883" lon="-5.308897">
        <ele>444.256</ele>
        <time>2015-06-21T11:40:16Z</time>
      </trkpt>
      <trkpt lat="36.607959" lon="-5.308880">
        <ele>443.615</ele>
        <time>2015-06-21T11:40:17Z</time>
      </trkpt>
      <trkpt lat="36.608040" lon="-5.308866">
        <ele>443.017</ele>
        <time>2015-06-21T11:40:18Z</time>
      </trkpt>
      <trkpt lat="36.608130" lon="-5.308841">
        <ele>442.414</ele>
        <time>2015-06-21T11:40:19Z</time>
      </trkpt>
      <trkpt lat="36.608229" lon="-5.308801">
        <ele>441.854</ele>
        <time>2015-06-21T11:40:20Z</time>
      </trkpt>
      <trkpt lat="36.608336" lon="-5.308750">
        <ele>441.209</ele>
        <time>2015-06-21T11:40:21Z</time>
      </trkpt>
      <trkpt lat="36.608437" lon="-5.308700">
        <ele>440.408</ele>
        <time>2015-06-21T11:40:22Z</time>
      </trkpt>
      <trkpt lat="36.608537" lon="-5.308656">
        <ele>439.812</ele>
        <time>2015-06-21T11:40:23Z</time>
      </trkpt>
      <trkpt lat="36.608634" lon="-5.308618">
        <ele>439.088</ele>
        <time>2015-06-21T11:40:24Z</time>
      </trkpt>
      <trkpt lat="36.608724" lon="-5.308585">
        <ele>438.441</ele>
        <time>2015-06-21T11:40:25Z</time>
      </trkpt>
      <trkpt lat="36.608809" lon="-5.308559">
        <ele>437.611</ele>
        <time>2015-06-21T11:40:26Z</time>
      </trkpt>
      <trkpt lat="36.608892" lon="-5.308535">
        <ele>437.045</ele>
        <time>2015-06-21T11:40:27Z</time>
      </trkpt>
      <trkpt lat="36.608975" lon="-5.308522">
        <ele>436.492</ele>
        <time>2015-06-21T11:40:28Z</time>
      </trkpt>
      <trkpt lat="36.609051" lon="-5.308518">
        <ele>436.411</ele>
        <time>2015-06-21T11:40:29Z</time>
      </trkpt>
      <trkpt lat="36.609256" lon="-5.308556">
        <ele>436.473</ele>
        <time>2015-06-21T11:40:32Z</time>
      </trkpt>
      <trkpt lat="36.609316" lon="-5.308577">
        <ele>436.495</ele>
        <time>2015-06-21T11:40:33Z</time>
      </trkpt>
      <trkpt lat="36.609488" lon="-5.308636">
        <ele>436.449</ele>
        <time>2015-06-21T11:40:36Z</time>
      </trkpt>
      <trkpt lat="36.609584" lon="-5.308684">
        <ele>436.423</ele>
        <time>2015-06-21T11:40:38Z</time>
      </trkpt>
      <trkpt lat="36.609632" lon="-5.308708">
        <ele>436.408</ele>
        <time>2015-06-21T11:40:39Z</time>
      </trkpt>
      <trkpt lat="36.609787" lon="-5.308747">
        <ele>436.410</ele>
        <time>2015-06-21T11:40:42Z</time>
      </trkpt>
      <trkpt lat="36.609840" lon="-5.308764">
        <ele>436.426</ele>
        <time>2015-06-21T11:40:43Z</time>
      </trkpt>
      <trkpt lat="36.610046" lon="-5.308850">
        <ele>436.479</ele>
        <time>2015-06-21T11:40:47Z</time>
      </trkpt>
      <trkpt lat="36.610089" lon="-5.308879">
        <ele>436.499</ele>
        <time>2015-06-21T11:40:48Z</time>
      </trkpt>
      <trkpt lat="36.610133" lon="-5.308900">
        <ele>436.443</ele>
        <time>2015-06-21T11:40:49Z</time>
      </trkpt>
      <trkpt lat="36.610233" lon="-5.308938">
        <ele>436.470</ele>
        <time>2015-06-21T11:40:51Z</time>
      </trkpt>
      <trkpt lat="36.610347" lon="-5.308965">
        <ele>436.479</ele>
        <time>2015-06-21T11:40:53Z</time>
      </trkpt>
      <trkpt lat="36.610535" lon="-5.309011">
        <ele>436.031</ele>
        <time>2015-06-21T11:40:56Z</time>
      </trkpt>
      <trkpt lat="36.610601" lon="-5.309030">
        <ele>435.679</ele>
        <time>2015-06-21T11:40:57Z</time>
      </trkpt>
      <trkpt lat="36.610668" lon="-5.309050">
        <ele>435.205</ele>
        <time>2015-06-21T11:40:58Z</time>
      </trkpt>
      <trkpt lat="36.610732" lon="-5.309070">
        <ele>434.625</ele>
        <time>2015-06-21T11:40:59Z</time>
      </trkpt>
      <trkpt lat="36.610801" lon="-5.309091">
        <ele>434.208</ele>
        <time>2015-06-21T11:41:00Z</time>
      </trkpt>
      <trkpt lat="36.611106" lon="-5.309196">
        <ele>434.248</ele>
        <time>2015-06-21T11:41:05Z</time>
      </trkpt>
      <trkpt lat="36.611362" lon="-5.309318">
        <ele>433.854</ele>
        <time>2015-06-21T11:41:10Z</time>
      </trkpt>
      <trkpt lat="36.611407" lon="-5.309339">
        <ele>433.437</ele>
        <time>2015-06-21T11:41:11Z</time>
      </trkpt>
      <trkpt lat="36.611454" lon="-5.309358">
        <ele>433.057</ele>
        <time>2015-06-21T11:41:12Z</time>
      </trkpt>
      <trkpt lat="36.611499" lon="-5.309377">
        <ele>432.641</ele>
        <time>2015-06-21T11:41:13Z</time>
      </trkpt>
      <trkpt lat="36.611543" lon="-5.309396">
        <ele>432.258</ele>
        <time>2015-06-21T11:41:14Z</time>
      </trkpt>
      <trkpt lat="36.611667" lon="-5.309453">
        <ele>432.277</ele>
        <time>2015-06-21T11:41:17Z</time>
      </trkpt>
      <trkpt lat="36.611883" lon="-5.309542">
        <ele>432.219</ele>
        <time>2015-06-21T11:41:22Z</time>
      </trkpt>
      <trkpt lat="36.611996" lon="-5.309604">
        <ele>432.239</ele>
        <time>2015-06-21T11:41:25Z</time>
      </trkpt>
      <trkpt lat="36.612169" lon="-5.309727">
        <ele>432.201</ele>
        <time>2015-06-21T11:41:31Z</time>
      </trkpt>
      <trkpt lat="36.612290" lon="-5.309837">
        <ele>432.221</ele>
        <time>2015-06-21T11:41:36Z</time>
      </trkpt>
      <trkpt lat="36.612416" lon="-5.309903">
        <ele>431.808</ele>
        <time>2015-06-21T11:41:40Z</time>
      </trkpt>
      <trkpt lat="36.612453" lon="-5.309920">
        <ele>431.434</ele>
        <time>2015-06-21T11:41:41Z</time>
      </trkpt>
      <trkpt lat="36.612491" lon="-5.309934">
        <ele>431.030</ele>
        <time>2015-06-21T11:41:42Z</time>
      </trkpt>
      <trkpt lat="36.612531" lon="-5.309946">
        <ele>430.433</ele>
        <time>2015-06-21T11:41:43Z</time>
      </trkpt>
      <trkpt lat="36.612571" lon="-5.309960">
        <ele>430.033</ele>
        <time>2015-06-21T11:41:44Z</time>
      </trkpt>
      <trkpt lat="36.612692" lon="-5.309986">
        <ele>430.067</ele>
        <time>2015-06-21T11:41:47Z</time>
      </trkpt>
      <trkpt lat="36.612825" lon="-5.309987">
        <ele>430.094</ele>
        <time>2015-06-21T11:41:50Z</time>
      </trkpt>
      <trkpt lat="36.612973" lon="-5.309971">
        <ele>430.063</ele>
        <time>2015-06-21T11:41:53Z</time>
      </trkpt>
      <trkpt lat="36.613073" lon="-5.309932">
        <ele>430.045</ele>
        <time>2015-06-21T11:41:55Z</time>
      </trkpt>
      <trkpt lat="36.613167" lon="-5.309886">
        <ele>429.662</ele>
        <time>2015-06-21T11:41:57Z</time>
      </trkpt>
      <trkpt lat="36.613217" lon="-5.309858">
        <ele>429.283</ele>
        <time>2015-06-21T11:41:58Z</time>
      </trkpt>
      <trkpt lat="36.613266" lon="-5.309822">
        <ele>428.811</ele>
        <time>2015-06-21T11:41:59Z</time>
      </trkpt>
      <trkpt lat="36.613316" lon="-5.309784">
        <ele>428.408</ele>
        <time>2015-06-21T11:42:00Z</time>
      </trkpt>
      <trkpt lat="36.613376" lon="-5.309743">
        <ele>427.897</ele>
        <time>2015-06-21T11:42:01Z</time>
      </trkpt>
      <trkpt lat="36.613511" lon="-5.309678">
        <ele>427.873</ele>
        <time>2015-06-21T11:42:03Z</time>
      </trkpt>
      <trkpt lat="36.613659" lon="-5.309651">
        <ele>427.466</ele>
        <time>2015-06-21T11:42:05Z</time>
      </trkpt>
      <trkpt lat="36.613737" lon="-5.309646">
        <ele>427.066</ele>
        <time>2015-06-21T11:42:06Z</time>
      </trkpt>
      <trkpt lat="36.613817" lon="-5.309648">
        <ele>426.420</ele>
        <time>2015-06-21T11:42:07Z</time>
      </trkpt>
      <trkpt lat="36.613900" lon="-5.309662">
        <ele>426.097</ele>
        <time>2015-06-21T11:42:08Z</time>
      </trkpt>
      <trkpt lat="36.613981" lon="-5.309684">
        <ele>425.616</ele>
        <time>2015-06-21T11:42:09Z</time>
      </trkpt>
      <trkpt lat="36.614066" lon="-5.309712">
        <ele>425.088</ele>
        <time>2015-06-21T11:42:10Z</time>
      </trkpt>
      <trkpt lat="36.614155" lon="-5.309746">
        <ele>424.247</ele>
        <time>2015-06-21T11:42:11Z</time>
      </trkpt>
      <trkpt lat="36.614246" lon="-5.309779">
        <ele>423.829</ele>
        <time>2015-06-21T11:42:12Z</time>
      </trkpt>
      <trkpt lat="36.614339" lon="-5.309810">
        <ele>423.421</ele>
        <time>2015-06-21T11:42:13Z</time>
      </trkpt>
      <trkpt lat="36.614431" lon="-5.309835">
        <ele>423.408</ele>
        <time>2015-06-21T11:42:14Z</time>
      </trkpt>
      <trkpt lat="36.614524" lon="-5.309849">
        <ele>423.455</ele>
        <time>2015-06-21T11:42:15Z</time>
      </trkpt>
      <trkpt lat="36.614622" lon="-5.309855">
        <ele>422.861</ele>
        <time>2015-06-21T11:42:16Z</time>
      </trkpt>
      <trkpt lat="36.614714" lon="-5.309858">
        <ele>422.434</ele>
        <time>2015-06-21T11:42:17Z</time>
      </trkpt>
      <trkpt lat="36.614806" lon="-5.309853">
        <ele>422.024</ele>
        <time>2015-06-21T11:42:18Z</time>
      </trkpt>
      <trkpt lat="36.614896" lon="-5.309841">
        <ele>421.698</ele>
        <time>2015-06-21T11:42:19Z</time>
      </trkpt>
      <trkpt lat="36.614985" lon="-5.309824">
        <ele>421.215</ele>
        <time>2015-06-21T11:42:20Z</time>
      </trkpt>
      <trkpt lat="36.615160" lon="-5.309804">
        <ele>421.294</ele>
        <time>2015-06-21T11:42:22Z</time>
      </trkpt>
      <trkpt lat="36.615247" lon="-5.309819">
        <ele>421.256</ele>
        <time>2015-06-21T11:42:23Z</time>
      </trkpt>
      <trkpt lat="36.615330" lon="-5.309845">
        <ele>420.872</ele>
        <time>2015-06-21T11:42:24Z</time>
      </trkpt>
      <trkpt lat="36.615411" lon="-5.309883">
        <ele>420.413</ele>
        <time>2015-06-21T11:42:25Z</time>
      </trkpt>
      <trkpt lat="36.615488" lon="-5.309929">
        <ele>420.014</ele>
        <time>2015-06-21T11:42:26Z</time>
      </trkpt>
      <trkpt lat="36.615560" lon="-5.309978">
        <ele>419.608</ele>
        <time>2015-06-21T11:42:27Z</time>
      </trkpt>
      <trkpt lat="36.615630" lon="-5.310031">
        <ele>419.218</ele>
        <time>2015-06-21T11:42:28Z</time>
      </trkpt>
      <trkpt lat="36.615751" lon="-5.310148">
        <ele>419.284</ele>
        <time>2015-06-21T11:42:30Z</time>
      </trkpt>
      <trkpt lat="36.615808" lon="-5.310223">
        <ele>418.857</ele>
        <time>2015-06-21T11:42:31Z</time>
      </trkpt>
      <trkpt lat="36.615854" lon="-5.310302">
        <ele>418.257</ele>
        <time>2015-06-21T11:42:32Z</time>
      </trkpt>
      <trkpt lat="36.615899" lon="-5.310385">
        <ele>417.851</ele>
        <time>2015-06-21T11:42:33Z</time>
      </trkpt>
      <trkpt lat="36.615936" lon="-5.310475">
        <ele>417.288</ele>
        <time>2015-06-21T11:42:34Z</time>
      </trkpt>
      <trkpt lat="36.615970" lon="-5.310565">
        <ele>416.877</ele>
        <time>2015-06-21T11:42:35Z</time>
      </trkpt>
      <trkpt lat="36.616002" lon="-5.310656">
        <ele>416.449</ele>
        <time>2015-06-21T11:42:36Z</time>
      </trkpt>
      <trkpt lat="36.616031" lon="-5.310745">
        <ele>416.073</ele>
        <time>2015-06-21T11:42:37Z</time>
      </trkpt>
      <trkpt lat="36.616059" lon="-5.310834">
        <ele>415.485</ele>
        <time>2015-06-21T11:42:38Z</time>
      </trkpt>
      <trkpt lat="36.616086" lon="-5.310927">
        <ele>415.013</ele>
        <time>2015-06-21T11:42:39Z</time>
      </trkpt>
      <trkpt lat="36.616119" lon="-5.311015">
        <ele>414.608</ele>
        <time>2015-06-21T11:42:40Z</time>
      </trkpt>
      <trkpt lat="36.616154" lon="-5.311101">
        <ele>414.668</ele>
        <time>2015-06-21T11:42:41Z</time>
      </trkpt>
      <trkpt lat="36.616197" lon="-5.311186">
        <ele>414.244</ele>
        <time>2015-06-21T11:42:42Z</time>
      </trkpt>
      <trkpt lat="36.616249" lon="-5.311268">
        <ele>413.657</ele>
        <time>2015-06-21T11:42:43Z</time>
      </trkpt>
      <trkpt lat="36.616306" lon="-5.311350">
        <ele>413.217</ele>
        <time>2015-06-21T11:42:44Z</time>
      </trkpt>
      <trkpt lat="36.616369" lon="-5.311429">
        <ele>412.821</ele>
        <time>2015-06-21T11:42:45Z</time>
      </trkpt>
      <trkpt lat="36.616446" lon="-5.311508">
        <ele>412.488</ele>
        <time>2015-06-21T11:42:46Z</time>
      </trkpt>
      <trkpt lat="36.616525" lon="-5.311574">
        <ele>412.027</ele>
        <time>2015-06-21T11:42:47Z</time>
      </trkpt>
      <trkpt lat="36.616610" lon="-5.311619">
        <ele>411.639</ele>
        <time>2015-06-21T11:42:48Z</time>
      </trkpt>
      <trkpt lat="36.616689" lon="-5.311650">
        <ele>411.213</ele>
        <time>2015-06-21T11:42:49Z</time>
      </trkpt>
      <trkpt lat="36.616760" lon="-5.311660">
        <ele>410.443</ele>
        <time>2015-06-21T11:42:50Z</time>
      </trkpt>
      <trkpt lat="36.616821" lon="-5.311645">
        <ele>409.607</ele>
        <time>2015-06-21T11:42:51Z</time>
      </trkpt>
      <trkpt lat="36.616881" lon="-5.311605">
        <ele>408.808</ele>
        <time>2015-06-21T11:42:52Z</time>
      </trkpt>
      <trkpt lat="36.616938" lon="-5.311543">
        <ele>408.222</ele>
        <time>2015-06-21T11:42:53Z</time>
      </trkpt>
      <trkpt lat="36.616995" lon="-5.311464">
        <ele>407.468</ele>
        <time>2015-06-21T11:42:54Z</time>
      </trkpt>
      <trkpt lat="36.617047" lon="-5.311373">
        <ele>406.861</ele>
        <time>2015-06-21T11:42:55Z</time>
      </trkpt>
      <trkpt lat="36.617096" lon="-5.311273">
        <ele>406.261</ele>
        <time>2015-06-21T11:42:56Z</time>
      </trkpt>
      <trkpt lat="36.617144" lon="-5.311171">
        <ele>405.685</ele>
        <time>2015-06-21T11:42:57Z</time>
      </trkpt>
      <trkpt lat="36.617194" lon="-5.311063">
        <ele>404.832</ele>
        <time>2015-06-21T11:42:58Z</time>
      </trkpt>
      <trkpt lat="36.617244" lon="-5.310952">
        <ele>404.271</ele>
        <time>2015-06-21T11:42:59Z</time>
      </trkpt>
      <trkpt lat="36.617293" lon="-5.310837">
        <ele>402.863</ele>
        <time>2015-06-21T11:43:00Z</time>
      </trkpt>
      <trkpt lat="36.617340" lon="-5.310722">
        <ele>402.049</ele>
        <time>2015-06-21T11:43:01Z</time>
      </trkpt>
      <trkpt lat="36.617391" lon="-5.310596">
        <ele>401.602</ele>
        <time>2015-06-21T11:43:02Z</time>
      </trkpt>
      <trkpt lat="36.617437" lon="-5.310476">
        <ele>401.222</ele>
        <time>2015-06-21T11:43:03Z</time>
      </trkpt>
      <trkpt lat="36.617480" lon="-5.310354">
        <ele>400.808</ele>
        <time>2015-06-21T11:43:04Z</time>
      </trkpt>
      <trkpt lat="36.617519" lon="-5.310246">
        <ele>400.215</ele>
        <time>2015-06-21T11:43:05Z</time>
      </trkpt>
      <trkpt lat="36.617558" lon="-5.310154">
        <ele>399.861</ele>
        <time>2015-06-21T11:43:06Z</time>
      </trkpt>
      <trkpt lat="36.617600" lon="-5.310076">
        <ele>399.264</ele>
        <time>2015-06-21T11:43:07Z</time>
      </trkpt>
      <trkpt lat="36.617645" lon="-5.310013">
        <ele>398.674</ele>
        <time>2015-06-21T11:43:08Z</time>
      </trkpt>
      <trkpt lat="36.617697" lon="-5.309969">
        <ele>397.848</ele>
        <time>2015-06-21T11:43:09Z</time>
      </trkpt>
      <trkpt lat="36.617751" lon="-5.309951">
        <ele>397.025</ele>
        <time>2015-06-21T11:43:10Z</time>
      </trkpt>
      <trkpt lat="36.617806" lon="-5.309944">
        <ele>396.264</ele>
        <time>2015-06-21T11:43:11Z</time>
      </trkpt>
      <trkpt lat="36.617869" lon="-5.309942">
        <ele>395.436</ele>
        <time>2015-06-21T11:43:12Z</time>
      </trkpt>
      <trkpt lat="36.617935" lon="-5.309948">
        <ele>394.696</ele>
        <time>2015-06-21T11:43:13Z</time>
      </trkpt>
      <trkpt lat="36.618000" lon="-5.309969">
        <ele>393.831</ele>
        <time>2015-06-21T11:43:14Z</time>
      </trkpt>
      <trkpt lat="36.618056" lon="-5.310011">
        <ele>393.024</ele>
        <time>2015-06-21T11:43:15Z</time>
      </trkpt>
      <trkpt lat="36.618106" lon="-5.310060">
        <ele>392.208</ele>
        <time>2015-06-21T11:43:16Z</time>
      </trkpt>
      <trkpt lat="36.618151" lon="-5.310118">
        <ele>391.420</ele>
        <time>2015-06-21T11:43:17Z</time>
      </trkpt>
      <trkpt lat="36.618186" lon="-5.310180">
        <ele>390.816</ele>
        <time>2015-06-21T11:43:18Z</time>
      </trkpt>
      <trkpt lat="36.618215" lon="-5.310252">
        <ele>390.069</ele>
        <time>2015-06-21T11:43:19Z</time>
      </trkpt>
      <trkpt lat="36.618243" lon="-5.310339">
        <ele>389.289</ele>
        <time>2015-06-21T11:43:20Z</time>
      </trkpt>
      <trkpt lat="36.618270" lon="-5.310437">
        <ele>388.433</ele>
        <time>2015-06-21T11:43:21Z</time>
      </trkpt>
      <trkpt lat="36.618295" lon="-5.310539">
        <ele>387.650</ele>
        <time>2015-06-21T11:43:22Z</time>
      </trkpt>
      <trkpt lat="36.618326" lon="-5.310643">
        <ele>386.899</ele>
        <time>2015-06-21T11:43:23Z</time>
      </trkpt>
      <trkpt lat="36.618353" lon="-5.310739">
        <ele>386.051</ele>
        <time>2015-06-21T11:43:24Z</time>
      </trkpt>
      <trkpt lat="36.618381" lon="-5.310818">
        <ele>384.439</ele>
        <time>2015-06-21T11:43:25Z</time>
      </trkpt>
      <trkpt lat="36.618418" lon="-5.310873">
        <ele>383.601</ele>
        <time>2015-06-21T11:43:26Z</time>
      </trkpt>
      <trkpt lat="36.618463" lon="-5.310908">
        <ele>382.821</ele>
        <time>2015-06-21T11:43:27Z</time>
      </trkpt>
      <trkpt lat="36.618508" lon="-5.310926">
        <ele>382.208</ele>
        <time>2015-06-21T11:43:28Z</time>
      </trkpt>
      <trkpt lat="36.618551" lon="-5.310939">
        <ele>381.484</ele>
        <time>2015-06-21T11:43:29Z</time>
      </trkpt>
      <trkpt lat="36.618591" lon="-5.310959">
        <ele>380.690</ele>
        <time>2015-06-21T11:43:30Z</time>
      </trkpt>
      <trkpt lat="36.618628" lon="-5.310992">
        <ele>380.023</ele>
        <time>2015-06-21T11:43:31Z</time>
      </trkpt>
      <trkpt lat="36.618670" lon="-5.311033">
        <ele>379.443</ele>
        <time>2015-06-21T11:43:32Z</time>
      </trkpt>
      <trkpt lat="36.618711" lon="-5.311070">
        <ele>378.877</ele>
        <time>2015-06-21T11:43:33Z</time>
      </trkpt>
      <trkpt lat="36.618754" lon="-5.311114">
        <ele>378.274</ele>
        <time>2015-06-21T11:43:34Z</time>
      </trkpt>
      <trkpt lat="36.618795" lon="-5.311151">
        <ele>377.663</ele>
        <time>2015-06-21T11:43:35Z</time>
      </trkpt>
      <trkpt lat="36.618836" lon="-5.311171">
        <ele>377.295</ele>
        <time>2015-06-21T11:43:36Z</time>
      </trkpt>
      <trkpt lat="36.618876" lon="-5.311180">
        <ele>376.648</ele>
        <time>2015-06-21T11:43:37Z</time>
      </trkpt>
      <trkpt lat="36.618907" lon="-5.311182">
        <ele>376.261</ele>
        <time>2015-06-21T11:43:38Z</time>
      </trkpt>
      <trkpt lat="36.618935" lon="-5.311182">
        <ele>375.617</ele>
        <time>2015-06-21T11:43:39Z</time>
      </trkpt>
      <trkpt lat="36.618963" lon="-5.311190">
        <ele>375.208</ele>
        <time>2015-06-21T11:43:40Z</time>
      </trkpt>
      <trkpt lat="36.618988" lon="-5.311202">
        <ele>374.695</ele>
        <time>2015-06-21T11:43:41Z</time>
      </trkpt>
      <trkpt lat="36.619010" lon="-5.311218">
        <ele>374.271</ele>
        <time>2015-06-21T11:43:42Z</time>
      </trkpt>
      <trkpt lat="36.619026" lon="-5.311242">
        <ele>373.834</ele>
        <time>2015-06-21T11:43:43Z</time>
      </trkpt>
      <trkpt lat="36.619038" lon="-5.311263">
        <ele>373.294</ele>
        <time>2015-06-21T11:43:44Z</time>
      </trkpt>
      <trkpt lat="36.619046" lon="-5.311283">
        <ele>372.858</ele>
        <time>2015-06-21T11:43:45Z</time>
      </trkpt>
      <trkpt lat="36.619054" lon="-5.311306">
        <ele>372.495</ele>
        <time>2015-06-21T11:43:46Z</time>
      </trkpt>
      <trkpt lat="36.619059" lon="-5.311330">
        <ele>372.054</ele>
        <time>2015-06-21T11:43:47Z</time>
      </trkpt>
      <trkpt lat="36.619063" lon="-5.311352">
        <ele>371.426</ele>
        <time>2015-06-21T11:43:48Z</time>
      </trkpt>
      <trkpt lat="36.619071" lon="-5.311373">
        <ele>370.652</ele>
        <time>2015-06-21T11:43:49Z</time>
      </trkpt>
      <trkpt lat="36.619090" lon="-5.311404">
        <ele>370.653</ele>
        <time>2015-06-21T11:43:51Z</time>
      </trkpt>
      <trkpt lat="36.619121" lon="-5.311426">
        <ele>370.608</ele>
        <time>2015-06-21T11:43:54Z</time>
      </trkpt>
      <trkpt lat="36.619140" lon="-5.311439">
        <ele>370.608</ele>
        <time>2015-06-21T11:43:56Z</time>
      </trkpt>
      <trkpt lat="36.619180" lon="-5.311454">
        <ele>370.686</ele>
        <time>2015-06-21T11:43:59Z</time>
      </trkpt>
      <trkpt lat="36.619209" lon="-5.311460">
        <ele>370.672</ele>
        <time>2015-06-21T11:44:01Z</time>
      </trkpt>
      <trkpt lat="36.619234" lon="-5.311458">
        <ele>370.645</ele>
        <time>2015-06-21T11:44:03Z</time>
      </trkpt>
      <trkpt lat="36.619262" lon="-5.311450">
        <ele>370.655</ele>
        <time>2015-06-21T11:44:05Z</time>
      </trkpt>
      <trkpt lat="36.619295" lon="-5.311446">
        <ele>370.669</ele>
        <time>2015-06-21T11:44:07Z</time>
      </trkpt>
      <trkpt lat="36.619322" lon="-5.311455">
        <ele>370.626</ele>
        <time>2015-06-21T11:44:09Z</time>
      </trkpt>
      <trkpt lat="36.619382" lon="-5.311464">
        <ele>370.675</ele>
        <time>2015-06-21T11:44:13Z</time>
      </trkpt>
      <trkpt lat="36.619419" lon="-5.311462">
        <ele>371.057</ele>
        <time>2015-06-21T11:44:15Z</time>
      </trkpt>
      <trkpt lat="36.619436" lon="-5.311454">
        <ele>371.415</ele>
        <time>2015-06-21T11:44:16Z</time>
      </trkpt>
      <trkpt lat="36.619453" lon="-5.311448">
        <ele>371.865</ele>
        <time>2015-06-21T11:44:17Z</time>
      </trkpt>
      <trkpt lat="36.619469" lon="-5.311439">
        <ele>372.211</ele>
        <time>2015-06-21T11:44:18Z</time>
      </trkpt>
      <trkpt lat="36.619487" lon="-5.311435">
        <ele>372.608</ele>
        <time>2015-06-21T11:44:19Z</time>
      </trkpt>
      <trkpt lat="36.619547" lon="-5.311419">
        <ele>372.652</ele>
        <time>2015-06-21T11:44:24Z</time>
      </trkpt>
      <trkpt lat="36.619559" lon="-5.311419">
        <ele>372.688</ele>
        <time>2015-06-21T11:44:25Z</time>
      </trkpt>
      <trkpt lat="36.619677" lon="-5.311423">
        <ele>372.621</ele>
        <time>2015-06-21T11:44:31Z</time>
      </trkpt>
      <trkpt lat="36.619778" lon="-5.311436">
        <ele>373.291</ele>
        <time>2015-06-21T11:44:35Z</time>
      </trkpt>
      <trkpt lat="36.619805" lon="-5.311434">
        <ele>373.635</ele>
        <time>2015-06-21T11:44:36Z</time>
      </trkpt>
      <trkpt lat="36.619839" lon="-5.311433">
        <ele>374.072</ele>
        <time>2015-06-21T11:44:37Z</time>
      </trkpt>
      <trkpt lat="36.619873" lon="-5.311432">
        <ele>374.441</ele>
        <time>2015-06-21T11:44:38Z</time>
      </trkpt>
      <trkpt lat="36.619909" lon="-5.311431">
        <ele>374.863</ele>
        <time>2015-06-21T11:44:39Z</time>
      </trkpt>
      <trkpt lat="36.619989" lon="-5.311426">
        <ele>374.841</ele>
        <time>2015-06-21T11:44:41Z</time>
      </trkpt>
      <trkpt lat="36.620172" lon="-5.311418">
        <ele>374.881</ele>
        <time>2015-06-21T11:44:46Z</time>
      </trkpt>
      <trkpt lat="36.620204" lon="-5.311419">
        <ele>374.809</ele>
        <time>2015-06-21T11:44:47Z</time>
      </trkpt>
      <trkpt lat="36.620336" lon="-5.311447">
        <ele>374.808</ele>
        <time>2015-06-21T11:44:51Z</time>
      </trkpt>
      <trkpt lat="36.620445" lon="-5.311464">
        <ele>374.825</ele>
        <time>2015-06-21T11:44:54Z</time>
      </trkpt>
      <trkpt lat="36.620594" lon="-5.311513">
        <ele>374.851</ele>
        <time>2015-06-21T11:44:58Z</time>
      </trkpt>
      <trkpt lat="36.620631" lon="-5.311522">
        <ele>374.854</ele>
        <time>2015-06-21T11:44:59Z</time>
      </trkpt>
      <trkpt lat="36.620707" lon="-5.311544">
        <ele>374.874</ele>
        <time>2015-06-21T11:45:01Z</time>
      </trkpt>
      <trkpt lat="36.620820" lon="-5.311575">
        <ele>374.838</ele>
        <time>2015-06-21T11:45:04Z</time>
      </trkpt>
      <trkpt lat="36.620907" lon="-5.311615">
        <ele>374.835</ele>
        <time>2015-06-21T11:45:07Z</time>
      </trkpt>
      <trkpt lat="36.620958" lon="-5.311634">
        <ele>374.884</ele>
        <time>2015-06-21T11:45:09Z</time>
      </trkpt>
      <trkpt lat="36.621084" lon="-5.311687">
        <ele>374.836</ele>
        <time>2015-06-21T11:45:13Z</time>
      </trkpt>
      <trkpt lat="36.621314" lon="-5.311804">
        <ele>374.827</ele>
        <time>2015-06-21T11:45:19Z</time>
      </trkpt>
      <trkpt lat="36.621449" lon="-5.311877">
        <ele>374.468</ele>
        <time>2015-06-21T11:45:22Z</time>
      </trkpt>
      <trkpt lat="36.621494" lon="-5.311900">
        <ele>373.814</ele>
        <time>2015-06-21T11:45:23Z</time>
      </trkpt>
      <trkpt lat="36.621541" lon="-5.311922">
        <ele>373.208</ele>
        <time>2015-06-21T11:45:24Z</time>
      </trkpt>
      <trkpt lat="36.621587" lon="-5.311945">
        <ele>372.833</ele>
        <time>2015-06-21T11:45:25Z</time>
      </trkpt>
      <trkpt lat="36.621627" lon="-5.311969">
        <ele>372.279</ele>
        <time>2015-06-21T11:45:26Z</time>
      </trkpt>
      <trkpt lat="36.621665" lon="-5.311992">
        <ele>372.262</ele>
        <time>2015-06-21T11:45:27Z</time>
      </trkpt>
      <trkpt lat="36.621779" lon="-5.312053">
        <ele>372.272</ele>
        <time>2015-06-21T11:45:30Z</time>
      </trkpt>
      <trkpt lat="36.621890" lon="-5.312076">
        <ele>372.296</ele>
        <time>2015-06-21T11:45:33Z</time>
      </trkpt>
      <trkpt lat="36.621923" lon="-5.312070">
        <ele>372.243</ele>
        <time>2015-06-21T11:45:34Z</time>
      </trkpt>
      <trkpt lat="36.622008" lon="-5.312100">
        <ele>372.292</ele>
        <time>2015-06-21T11:45:37Z</time>
      </trkpt>
      <trkpt lat="36.622093" lon="-5.312182">
        <ele>372.244</ele>
        <time>2015-06-21T11:45:40Z</time>
      </trkpt>
      <trkpt lat="36.622129" lon="-5.312216">
        <ele>372.223</ele>
        <time>2015-06-21T11:45:41Z</time>
      </trkpt>
      <trkpt lat="36.622300" lon="-5.312339">
        <ele>372.283</ele>
        <time>2015-06-21T11:45:46Z</time>
      </trkpt>
      <trkpt lat="36.622516" lon="-5.312458">
        <ele>372.211</ele>
        <time>2015-06-21T11:45:52Z</time>
      </trkpt>
      <trkpt lat="36.622721" lon="-5.312532">
        <ele>372.208</ele>
        <time>2015-06-21T11:45:57Z</time>
      </trkpt>
      <trkpt lat="36.622851" lon="-5.312611">
        <ele>372.293</ele>
        <time>2015-06-21T11:46:00Z</time>
      </trkpt>
      <trkpt lat="36.622903" lon="-5.312622">
        <ele>372.239</ele>
        <time>2015-06-21T11:46:01Z</time>
      </trkpt>
      <trkpt lat="36.623055" lon="-5.312613">
        <ele>371.832</ele>
        <time>2015-06-21T11:46:04Z</time>
      </trkpt>
      <trkpt lat="36.623099" lon="-5.312618">
        <ele>371.232</ele>
        <time>2015-06-21T11:46:05Z</time>
      </trkpt>
      <trkpt lat="36.623139" lon="-5.312629">
        <ele>370.866</ele>
        <time>2015-06-21T11:46:06Z</time>
      </trkpt>
      <trkpt lat="36.623175" lon="-5.312638">
        <ele>370.233</ele>
        <time>2015-06-21T11:46:07Z</time>
      </trkpt>
      <trkpt lat="36.623206" lon="-5.312647">
        <ele>369.872</ele>
        <time>2015-06-21T11:46:08Z</time>
      </trkpt>
      <trkpt lat="36.623311" lon="-5.312663">
        <ele>369.864</ele>
        <time>2015-06-21T11:46:11Z</time>
      </trkpt>
      <trkpt lat="36.623464" lon="-5.312677">
        <ele>369.827</ele>
        <time>2015-06-21T11:46:16Z</time>
      </trkpt>
      <trkpt lat="36.623565" lon="-5.312666">
        <ele>369.868</ele>
        <time>2015-06-21T11:46:22Z</time>
      </trkpt>
      <trkpt lat="36.623674" lon="-5.312664">
        <ele>369.814</ele>
        <time>2015-06-21T11:46:27Z</time>
      </trkpt>
      <trkpt lat="36.623737" lon="-5.312671">
        <ele>369.808</ele>
        <time>2015-06-21T11:46:30Z</time>
      </trkpt>
      <trkpt lat="36.623764" lon="-5.312662">
        <ele>369.813</ele>
        <time>2015-06-21T11:46:31Z</time>
      </trkpt>
      <trkpt lat="36.623859" lon="-5.312594">
        <ele>369.859</ele>
        <time>2015-06-21T11:46:36Z</time>
      </trkpt>
      <trkpt lat="36.623892" lon="-5.312556">
        <ele>369.872</ele>
        <time>2015-06-21T11:46:38Z</time>
      </trkpt>
      <trkpt lat="36.623922" lon="-5.312525">
        <ele>369.852</ele>
        <time>2015-06-21T11:46:40Z</time>
      </trkpt>
      <trkpt lat="36.623946" lon="-5.312477">
        <ele>369.866</ele>
        <time>2015-06-21T11:46:42Z</time>
      </trkpt>
      <trkpt lat="36.623974" lon="-5.312395">
        <ele>369.833</ele>
        <time>2015-06-21T11:46:45Z</time>
      </trkpt>
      <trkpt lat="36.623984" lon="-5.312300">
        <ele>369.842</ele>
        <time>2015-06-21T11:46:48Z</time>
      </trkpt>
      <trkpt lat="36.624002" lon="-5.312102">
        <ele>369.864</ele>
        <time>2015-06-21T11:46:55Z</time>
      </trkpt>
      <trkpt lat="36.624011" lon="-5.311953">
        <ele>369.871</ele>
        <time>2015-06-21T11:47:00Z</time>
      </trkpt>
      <trkpt lat="36.624025" lon="-5.311932">
        <ele>369.841</ele>
        <time>2015-06-21T11:47:01Z</time>
      </trkpt>
      <trkpt lat="36.624080" lon="-5.311902">
        <ele>369.815</ele>
        <time>2015-06-21T11:47:04Z</time>
      </trkpt>
      <trkpt lat="36.624147" lon="-5.311899">
        <ele>370.208</ele>
        <time>2015-06-21T11:47:07Z</time>
      </trkpt>
      <trkpt lat="36.624166" lon="-5.311901">
        <ele>371.068</ele>
        <time>2015-06-21T11:47:08Z</time>
      </trkpt>
      <trkpt lat="36.624186" lon="-5.311902">
        <ele>371.494</ele>
        <time>2015-06-21T11:47:09Z</time>
      </trkpt>
      <trkpt lat="36.624206" lon="-5.311905">
        <ele>371.837</ele>
        <time>2015-06-21T11:47:10Z</time>
      </trkpt>
      <trkpt lat="36.624325" lon="-5.311899">
        <ele>371.827</ele>
        <time>2015-06-21T11:47:16Z</time>
      </trkpt>
      <trkpt lat="36.624367" lon="-5.311897">
        <ele>371.821</ele>
        <time>2015-06-21T11:47:18Z</time>
      </trkpt>
      <trkpt lat="36.624426" lon="-5.311896">
        <ele>372.478</ele>
        <time>2015-06-21T11:47:21Z</time>
      </trkpt>
      <trkpt lat="36.624446" lon="-5.311891">
        <ele>372.817</ele>
        <time>2015-06-21T11:47:22Z</time>
      </trkpt>
      <trkpt lat="36.624466" lon="-5.311886">
        <ele>373.279</ele>
        <time>2015-06-21T11:47:23Z</time>
      </trkpt>
      <trkpt lat="36.624484" lon="-5.311880">
        <ele>373.633</ele>
        <time>2015-06-21T11:47:24Z</time>
      </trkpt>
      <trkpt lat="36.624502" lon="-5.311877">
        <ele>374.023</ele>
        <time>2015-06-21T11:47:25Z</time>
      </trkpt>
      <trkpt lat="36.624521" lon="-5.311879">
        <ele>374.015</ele>
        <time>2015-06-21T11:47:26Z</time>
      </trkpt>
      <trkpt lat="36.624573" lon="-5.311881">
        <ele>374.408</ele>
        <time>2015-06-21T11:47:29Z</time>
      </trkpt>
      <trkpt lat="36.624587" lon="-5.311884">
        <ele>374.834</ele>
        <time>2015-06-21T11:47:30Z</time>
      </trkpt>
      <trkpt lat="36.624601" lon="-5.311886">
        <ele>375.290</ele>
        <time>2015-06-21T11:47:31Z</time>
      </trkpt>
      <trkpt lat="36.624619" lon="-5.311886">
        <ele>376.033</ele>
        <time>2015-06-21T11:47:32Z</time>
      </trkpt>
      <trkpt lat="36.624655" lon="-5.311871">
        <ele>376.083</ele>
        <time>2015-06-21T11:47:34Z</time>
      </trkpt>
      <trkpt lat="36.624742" lon="-5.311859">
        <ele>376.497</ele>
        <time>2015-06-21T11:47:39Z</time>
      </trkpt>
      <trkpt lat="36.624766" lon="-5.311854">
        <ele>376.854</ele>
        <time>2015-06-21T11:47:40Z</time>
      </trkpt>
      <trkpt lat="36.624787" lon="-5.311851">
        <ele>377.443</ele>
        <time>2015-06-21T11:47:41Z</time>
      </trkpt>
      <trkpt lat="36.624808" lon="-5.311851">
        <ele>377.845</ele>
        <time>2015-06-21T11:47:42Z</time>
      </trkpt>
      <trkpt lat="36.624830" lon="-5.311850">
        <ele>378.281</ele>
        <time>2015-06-21T11:47:43Z</time>
      </trkpt>
      <trkpt lat="36.624939" lon="-5.311816">
        <ele>378.261</ele>
        <time>2015-06-21T11:47:48Z</time>
      </trkpt>
      <trkpt lat="36.625107" lon="-5.311757">
        <ele>378.217</ele>
        <time>2015-06-21T11:47:55Z</time>
      </trkpt>
      <trkpt lat="36.625195" lon="-5.311733">
        <ele>378.608</ele>
        <time>2015-06-21T11:47:58Z</time>
      </trkpt>
      <trkpt lat="36.625222" lon="-5.311721">
        <ele>379.039</ele>
        <time>2015-06-21T11:47:59Z</time>
      </trkpt>
      <trkpt lat="36.625250" lon="-5.311704">
        <ele>379.425</ele>
        <time>2015-06-21T11:48:00Z</time>
      </trkpt>
      <trkpt lat="36.625278" lon="-5.311690">
        <ele>379.838</ele>
        <time>2015-06-21T11:48:01Z</time>
      </trkpt>
      <trkpt lat="36.625306" lon="-5.311678">
        <ele>380.258</ele>
        <time>2015-06-21T11:48:02Z</time>
      </trkpt>
      <trkpt lat="36.625480" lon="-5.311593">
        <ele>380.272</ele>
        <time>2015-06-21T11:48:07Z</time>
      </trkpt>
      <trkpt lat="36.625706" lon="-5.311495">
        <ele>380.299</ele>
        <time>2015-06-21T11:48:13Z</time>
      </trkpt>
      <trkpt lat="36.625805" lon="-5.311433">
        <ele>380.288</ele>
        <time>2015-06-21T11:48:16Z</time>
      </trkpt>
      <trkpt lat="36.625838" lon="-5.311414">
        <ele>380.290</ele>
        <time>2015-06-21T11:48:17Z</time>
      </trkpt>
      <trkpt lat="36.625899" lon="-5.311381">
        <ele>380.223</ele>
        <time>2015-06-21T11:48:19Z</time>
      </trkpt>
      <trkpt lat="36.626065" lon="-5.311271">
        <ele>380.283</ele>
        <time>2015-06-21T11:48:25Z</time>
      </trkpt>
      <trkpt lat="36.626239" lon="-5.311154">
        <ele>380.211</ele>
        <time>2015-06-21T11:48:30Z</time>
      </trkpt>
      <trkpt lat="36.626286" lon="-5.311130">
        <ele>380.208</ele>
        <time>2015-06-21T11:48:31Z</time>
      </trkpt>
      <trkpt lat="36.626379" lon="-5.311099">
        <ele>380.273</ele>
        <time>2015-06-21T11:48:33Z</time>
      </trkpt>
      <trkpt lat="36.626418" lon="-5.311095">
        <ele>380.229</ele>
        <time>2015-06-21T11:48:34Z</time>
      </trkpt>
      <trkpt lat="36.626529" lon="-5.311060">
        <ele>380.232</ele>
        <time>2015-06-21T11:48:38Z</time>
      </trkpt>
      <trkpt lat="36.626603" lon="-5.311032">
        <ele>380.222</ele>
        <time>2015-06-21T11:48:41Z</time>
      </trkpt>
      <trkpt lat="36.626631" lon="-5.311025">
        <ele>380.246</ele>
        <time>2015-06-21T11:48:42Z</time>
      </trkpt>
      <trkpt lat="36.626681" lon="-5.311006">
        <ele>380.213</ele>
        <time>2015-06-21T11:48:44Z</time>
      </trkpt>
      <trkpt lat="36.626813" lon="-5.310916">
        <ele>380.252</ele>
        <time>2015-06-21T11:48:50Z</time>
      </trkpt>
      <trkpt lat="36.626947" lon="-5.310830">
        <ele>380.294</ele>
        <time>2015-06-21T11:48:56Z</time>
      </trkpt>
      <trkpt lat="36.627119" lon="-5.310737">
        <ele>380.266</ele>
        <time>2015-06-21T11:49:02Z</time>
      </trkpt>
      <trkpt lat="36.627176" lon="-5.310714">
        <ele>380.629</ele>
        <time>2015-06-21T11:49:04Z</time>
      </trkpt>
      <trkpt lat="36.627202" lon="-5.310697">
        <ele>381.021</ele>
        <time>2015-06-21T11:49:05Z</time>
      </trkpt>
      <trkpt lat="36.627232" lon="-5.310684">
        <ele>381.408</ele>
        <time>2015-06-21T11:49:06Z</time>
      </trkpt>
      <trkpt lat="36.627262" lon="-5.310672">
        <ele>382.047</ele>
        <time>2015-06-21T11:49:07Z</time>
      </trkpt>
      <trkpt lat="36.627293" lon="-5.310656">
        <ele>382.443</ele>
        <time>2015-06-21T11:49:08Z</time>
      </trkpt>
      <trkpt lat="36.627450" lon="-5.310570">
        <ele>382.446</ele>
        <time>2015-06-21T11:49:14Z</time>
      </trkpt>
      <trkpt lat="36.627480" lon="-5.310553">
        <ele>382.476</ele>
        <time>2015-06-21T11:49:15Z</time>
      </trkpt>
      <trkpt lat="36.627672" lon="-5.310448">
        <ele>382.470</ele>
        <time>2015-06-21T11:49:21Z</time>
      </trkpt>
      <trkpt lat="36.627848" lon="-5.310332">
        <ele>382.477</ele>
        <time>2015-06-21T11:49:26Z</time>
      </trkpt>
      <trkpt lat="36.627889" lon="-5.310304">
        <ele>382.436</ele>
        <time>2015-06-21T11:49:27Z</time>
      </trkpt>
      <trkpt lat="36.628089" lon="-5.310174">
        <ele>382.498</ele>
        <time>2015-06-21T11:49:32Z</time>
      </trkpt>
      <trkpt lat="36.628141" lon="-5.310145">
        <ele>382.459</ele>
        <time>2015-06-21T11:49:33Z</time>
      </trkpt>
      <trkpt lat="36.628258" lon="-5.310083">
        <ele>382.403</ele>
        <time>2015-06-21T11:49:36Z</time>
      </trkpt>
      <trkpt lat="36.628288" lon="-5.310071">
        <ele>382.423</ele>
        <time>2015-06-21T11:49:37Z</time>
      </trkpt>
      <trkpt lat="36.628506" lon="-5.309994">
        <ele>382.408</ele>
        <time>2015-06-21T11:49:44Z</time>
      </trkpt>
      <trkpt lat="36.628656" lon="-5.309941">
        <ele>382.426</ele>
        <time>2015-06-21T11:49:50Z</time>
      </trkpt>
      <trkpt lat="36.628765" lon="-5.309905">
        <ele>382.482</ele>
        <time>2015-06-21T11:49:54Z</time>
      </trkpt>
      <trkpt lat="36.628865" lon="-5.309869">
        <ele>382.485</ele>
        <time>2015-06-21T11:49:58Z</time>
      </trkpt>
      <trkpt lat="36.629120" lon="-5.309781">
        <ele>382.485</ele>
        <time>2015-06-21T11:50:06Z</time>
      </trkpt>
      <trkpt lat="36.629353" lon="-5.309728">
        <ele>382.859</ele>
        <time>2015-06-21T11:50:13Z</time>
      </trkpt>
      <trkpt lat="36.629382" lon="-5.309718">
        <ele>383.266</ele>
        <time>2015-06-21T11:50:14Z</time>
      </trkpt>
      <trkpt lat="36.629406" lon="-5.309709">
        <ele>383.665</ele>
        <time>2015-06-21T11:50:15Z</time>
      </trkpt>
      <trkpt lat="36.629429" lon="-5.309700">
        <ele>384.057</ele>
        <time>2015-06-21T11:50:16Z</time>
      </trkpt>
      <trkpt lat="36.629449" lon="-5.309692">
        <ele>384.493</ele>
        <time>2015-06-21T11:50:17Z</time>
      </trkpt>
      <trkpt lat="36.629488" lon="-5.309675">
        <ele>384.465</ele>
        <time>2015-06-21T11:50:19Z</time>
      </trkpt>
      <trkpt lat="36.629580" lon="-5.309629">
        <ele>384.421</ele>
        <time>2015-06-21T11:50:23Z</time>
      </trkpt>
      <trkpt lat="36.629625" lon="-5.309596">
        <ele>384.408</ele>
        <time>2015-06-21T11:50:25Z</time>
      </trkpt>
      <trkpt lat="36.629764" lon="-5.309512">
        <ele>384.440</ele>
        <time>2015-06-21T11:50:31Z</time>
      </trkpt>
      <trkpt lat="36.629916" lon="-5.309414">
        <ele>384.446</ele>
        <time>2015-06-21T11:50:37Z</time>
      </trkpt>
      <trkpt lat="36.629944" lon="-5.309399">
        <ele>384.449</ele>
        <time>2015-06-21T11:50:38Z</time>
      </trkpt>
      <trkpt lat="36.629991" lon="-5.309377">
        <ele>384.829</ele>
        <time>2015-06-21T11:50:40Z</time>
      </trkpt>
      <trkpt lat="36.630014" lon="-5.309368">
        <ele>385.253</ele>
        <time>2015-06-21T11:50:41Z</time>
      </trkpt>
      <trkpt lat="36.630038" lon="-5.309359">
        <ele>385.690</ele>
        <time>2015-06-21T11:50:42Z</time>
      </trkpt>
      <trkpt lat="36.630060" lon="-5.309349">
        <ele>386.039</ele>
        <time>2015-06-21T11:50:43Z</time>
      </trkpt>
      <trkpt lat="36.630084" lon="-5.309337">
        <ele>386.471</ele>
        <time>2015-06-21T11:50:44Z</time>
      </trkpt>
      <trkpt lat="36.630108" lon="-5.309327">
        <ele>386.429</ele>
        <time>2015-06-21T11:50:45Z</time>
      </trkpt>
      <trkpt lat="36.630247" lon="-5.309236">
        <ele>386.400</ele>
        <time>2015-06-21T11:50:51Z</time>
      </trkpt>
      <trkpt lat="36.630314" lon="-5.309181">
        <ele>386.820</ele>
        <time>2015-06-21T11:50:54Z</time>
      </trkpt>
      <trkpt lat="36.630332" lon="-5.309161">
        <ele>387.208</ele>
        <time>2015-06-21T11:50:55Z</time>
      </trkpt>
      <trkpt lat="36.630354" lon="-5.309142">
        <ele>387.673</ele>
        <time>2015-06-21T11:50:56Z</time>
      </trkpt>
      <trkpt lat="36.630376" lon="-5.309118">
        <ele>388.029</ele>
        <time>2015-06-21T11:50:57Z</time>
      </trkpt>
      <trkpt lat="36.630397" lon="-5.309094">
        <ele>388.442</ele>
        <time>2015-06-21T11:50:58Z</time>
      </trkpt>
      <trkpt lat="36.630558" lon="-5.308908">
        <ele>388.452</ele>
        <time>2015-06-21T11:51:05Z</time>
      </trkpt>
      <trkpt lat="36.630588" lon="-5.308875">
        <ele>388.496</ele>
        <time>2015-06-21T11:51:06Z</time>
      </trkpt>
      <trkpt lat="36.630692" lon="-5.308733">
        <ele>388.453</ele>
        <time>2015-06-21T11:51:09Z</time>
      </trkpt>
      <trkpt lat="36.630811" lon="-5.308540">
        <ele>388.462</ele>
        <time>2015-06-21T11:51:12Z</time>
      </trkpt>
      <trkpt lat="36.630845" lon="-5.308468">
        <ele>388.494</ele>
        <time>2015-06-21T11:51:13Z</time>
      </trkpt>
      <trkpt lat="36.630878" lon="-5.308401">
        <ele>388.046</ele>
        <time>2015-06-21T11:51:14Z</time>
      </trkpt>
      <trkpt lat="36.630910" lon="-5.308343">
        <ele>387.288</ele>
        <time>2015-06-21T11:51:15Z</time>
      </trkpt>
      <trkpt lat="36.630948" lon="-5.308297">
        <ele>386.816</ele>
        <time>2015-06-21T11:51:16Z</time>
      </trkpt>
      <trkpt lat="36.630988" lon="-5.308254">
        <ele>386.408</ele>
        <time>2015-06-21T11:51:17Z</time>
      </trkpt>
      <trkpt lat="36.631022" lon="-5.308209">
        <ele>385.825</ele>
        <time>2015-06-21T11:51:18Z</time>
      </trkpt>
      <trkpt lat="36.631053" lon="-5.308164">
        <ele>385.481</ele>
        <time>2015-06-21T11:51:19Z</time>
      </trkpt>
      <trkpt lat="36.631084" lon="-5.308120">
        <ele>384.874</ele>
        <time>2015-06-21T11:51:20Z</time>
      </trkpt>
      <trkpt lat="36.631112" lon="-5.308074">
        <ele>384.284</ele>
        <time>2015-06-21T11:51:21Z</time>
      </trkpt>
      <trkpt lat="36.631144" lon="-5.308035">
        <ele>384.248</ele>
        <time>2015-06-21T11:51:22Z</time>
      </trkpt>
      <trkpt lat="36.631238" lon="-5.307924">
        <ele>384.255</ele>
        <time>2015-06-21T11:51:25Z</time>
      </trkpt>
      <trkpt lat="36.631290" lon="-5.307852">
        <ele>384.274</ele>
        <time>2015-06-21T11:51:27Z</time>
      </trkpt>
      <trkpt lat="36.631361" lon="-5.307756">
        <ele>384.236</ele>
        <time>2015-06-21T11:51:30Z</time>
      </trkpt>
      <trkpt lat="36.631441" lon="-5.307660">
        <ele>384.272</ele>
        <time>2015-06-21T11:51:34Z</time>
      </trkpt>
      <trkpt lat="36.631557" lon="-5.307527">
        <ele>384.213</ele>
        <time>2015-06-21T11:51:39Z</time>
      </trkpt>
      <trkpt lat="36.631709" lon="-5.307366">
        <ele>384.214</ele>
        <time>2015-06-21T11:51:45Z</time>
      </trkpt>
      <trkpt lat="36.631783" lon="-5.307281">
        <ele>384.208</ele>
        <time>2015-06-21T11:51:48Z</time>
      </trkpt>
      <trkpt lat="36.631863" lon="-5.307201">
        <ele>384.238</ele>
        <time>2015-06-21T11:51:51Z</time>
      </trkpt>
      <trkpt lat="36.631965" lon="-5.307092">
        <ele>384.284</ele>
        <time>2015-06-21T11:51:56Z</time>
      </trkpt>
      <trkpt lat="36.631984" lon="-5.307070">
        <ele>384.257</ele>
        <time>2015-06-21T11:51:57Z</time>
      </trkpt>
      <trkpt lat="36.632115" lon="-5.306889">
        <ele>384.227</ele>
        <time>2015-06-21T11:52:04Z</time>
      </trkpt>
      <trkpt lat="36.632193" lon="-5.306727">
        <ele>384.251</ele>
        <time>2015-06-21T11:52:08Z</time>
      </trkpt>
      <trkpt lat="36.632223" lon="-5.306691">
        <ele>384.268</ele>
        <time>2015-06-21T11:52:09Z</time>
      </trkpt>
      <trkpt lat="36.632324" lon="-5.306560">
        <ele>384.257</ele>
        <time>2015-06-21T11:52:12Z</time>
      </trkpt>
      <trkpt lat="36.632389" lon="-5.306461">
        <ele>384.249</ele>
        <time>2015-06-21T11:52:14Z</time>
      </trkpt>
      <trkpt lat="36.632426" lon="-5.306418">
        <ele>384.244</ele>
        <time>2015-06-21T11:52:15Z</time>
      </trkpt>
      <trkpt lat="36.632515" lon="-5.306343">
        <ele>384.205</ele>
        <time>2015-06-21T11:52:18Z</time>
      </trkpt>
      <trkpt lat="36.632557" lon="-5.306309">
        <ele>384.215</ele>
        <time>2015-06-21T11:52:20Z</time>
      </trkpt>
      <trkpt lat="36.632665" lon="-5.306211">
        <ele>384.208</ele>
        <time>2015-06-21T11:52:25Z</time>
      </trkpt>
      <trkpt lat="36.632767" lon="-5.306109">
        <ele>384.265</ele>
        <time>2015-06-21T11:52:31Z</time>
      </trkpt>
      <trkpt lat="36.632852" lon="-5.306028">
        <ele>384.231</ele>
        <time>2015-06-21T11:52:36Z</time>
      </trkpt>
      <trkpt lat="36.632954" lon="-5.305912">
        <ele>384.294</ele>
        <time>2015-06-21T11:52:42Z</time>
      </trkpt>
      <trkpt lat="36.633072" lon="-5.305807">
        <ele>384.264</ele>
        <time>2015-06-21T11:52:49Z</time>
      </trkpt>
      <trkpt lat="36.633163" lon="-5.305722">
        <ele>384.218</ele>
        <time>2015-06-21T11:52:55Z</time>
      </trkpt>
      <trkpt lat="36.633251" lon="-5.305661">
        <ele>384.295</ele>
        <time>2015-06-21T11:53:00Z</time>
      </trkpt>
      <trkpt lat="36.633367" lon="-5.305570">
        <ele>384.244</ele>
        <time>2015-06-21T11:53:06Z</time>
      </trkpt>
      <trkpt lat="36.633443" lon="-5.305537">
        <ele>384.296</ele>
        <time>2015-06-21T11:53:09Z</time>
      </trkpt>
      <trkpt lat="36.633464" lon="-5.305530">
        <ele>384.229</ele>
        <time>2015-06-21T11:53:10Z</time>
      </trkpt>
      <trkpt lat="36.633587" lon="-5.305433">
        <ele>384.200</ele>
        <time>2015-06-21T11:53:15Z</time>
      </trkpt>
      <trkpt lat="36.633653" lon="-5.305374">
        <ele>384.220</ele>
        <time>2015-06-21T11:53:18Z</time>
      </trkpt>
      <trkpt lat="36.633696" lon="-5.305346">
        <ele>384.208</ele>
        <time>2015-06-21T11:53:20Z</time>
      </trkpt>
      <trkpt lat="36.633719" lon="-5.305331">
        <ele>384.223</ele>
        <time>2015-06-21T11:53:21Z</time>
      </trkpt>
      <trkpt lat="36.633801" lon="-5.305259">
        <ele>384.259</ele>
        <time>2015-06-21T11:53:25Z</time>
      </trkpt>
      <trkpt lat="36.633852" lon="-5.305219">
        <ele>384.272</ele>
        <time>2015-06-21T11:53:27Z</time>
      </trkpt>
      <trkpt lat="36.633909" lon="-5.305165">
        <ele>384.252</ele>
        <time>2015-06-21T11:53:30Z</time>
      </trkpt>
      <trkpt lat="36.633952" lon="-5.305134">
        <ele>384.296</ele>
        <time>2015-06-21T11:53:32Z</time>
      </trkpt>
      <trkpt lat="36.634070" lon="-5.305089">
        <ele>383.893</ele>
        <time>2015-06-21T11:53:36Z</time>
      </trkpt>
      <trkpt lat="36.634086" lon="-5.305081">
        <ele>383.452</ele>
        <time>2015-06-21T11:53:37Z</time>
      </trkpt>
      <trkpt lat="36.634095" lon="-5.305077">
        <ele>383.074</ele>
        <time>2015-06-21T11:53:38Z</time>
      </trkpt>
      <trkpt lat="36.634109" lon="-5.305067">
        <ele>382.674</ele>
        <time>2015-06-21T11:53:39Z</time>
      </trkpt>
      <trkpt lat="36.634121" lon="-5.305055">
        <ele>382.256</ele>
        <time>2015-06-21T11:53:40Z</time>
      </trkpt>
      <trkpt lat="36.634133" lon="-5.305045">
        <ele>382.221</ele>
        <time>2015-06-21T11:53:41Z</time>
      </trkpt>
      <trkpt lat="36.634246" lon="-5.304945">
        <ele>382.208</ele>
        <time>2015-06-21T11:53:47Z</time>
      </trkpt>
      <trkpt lat="36.634270" lon="-5.304938">
        <ele>382.248</ele>
        <time>2015-06-21T11:53:48Z</time>
      </trkpt>
      <trkpt lat="36.634318" lon="-5.304905">
        <ele>382.224</ele>
        <time>2015-06-21T11:53:51Z</time>
      </trkpt>
      <trkpt lat="36.634337" lon="-5.304887">
        <ele>382.267</ele>
        <time>2015-06-21T11:53:52Z</time>
      </trkpt>
      <trkpt lat="36.634439" lon="-5.304775">
        <ele>382.217</ele>
        <time>2015-06-21T11:53:58Z</time>
      </trkpt>
      <trkpt lat="36.634456" lon="-5.304757">
        <ele>382.271</ele>
        <time>2015-06-21T11:54:03Z</time>
      </trkpt>
      <trkpt lat="36.634471" lon="-5.304744">
        <ele>382.258</ele>
        <time>2015-06-21T11:54:06Z</time>
      </trkpt>
      <trkpt lat="36.634470" lon="-5.304744">
        <ele>382.257</ele>
        <time>2015-06-21T11:54:08Z</time>
      </trkpt>
      <trkpt lat="36.634470" lon="-5.304744">
        <ele>382.239</ele>
        <time>2015-06-21T11:54:11Z</time>
      </trkpt>
      <trkpt lat="36.634474" lon="-5.304738">
        <ele>382.245</ele>
        <time>2015-06-21T11:54:13Z</time>
      </trkpt>
      <trkpt lat="36.634485" lon="-5.304713">
        <ele>382.247</ele>
        <time>2015-06-21T11:54:15Z</time>
      </trkpt>
      <trkpt lat="36.634509" lon="-5.304663">
        <ele>382.211</ele>
        <time>2015-06-21T11:54:21Z</time>
      </trkpt>
      <trkpt lat="36.634519" lon="-5.304635">
        <ele>382.208</ele>
        <time>2015-06-21T11:54:27Z</time>
      </trkpt>
      <trkpt lat="36.634527" lon="-5.304623">
        <ele>382.225</ele>
        <time>2015-06-21T11:54:28Z</time>
      </trkpt>
      <trkpt lat="36.634542" lon="-5.304591">
        <ele>382.261</ele>
        <time>2015-06-21T11:54:33Z</time>
      </trkpt>
      <trkpt lat="36.634545" lon="-5.304584">
        <ele>382.244</ele>
        <time>2015-06-21T11:54:34Z</time>
      </trkpt>
      <trkpt lat="36.634550" lon="-5.304571">
        <ele>382.214</ele>
        <time>2015-06-21T11:54:37Z</time>
      </trkpt>
      <trkpt lat="36.634553" lon="-5.304559">
        <ele>382.698</ele>
        <time>2015-06-21T11:54:39Z</time>
      </trkpt>
      <trkpt lat="36.634556" lon="-5.304552">
        <ele>383.095</ele>
        <time>2015-06-21T11:54:40Z</time>
      </trkpt>
      <trkpt lat="36.634560" lon="-5.304545">
        <ele>383.484</ele>
        <time>2015-06-21T11:54:41Z</time>
      </trkpt>
      <trkpt lat="36.634564" lon="-5.304538">
        <ele>383.826</ele>
        <time>2015-06-21T11:54:42Z</time>
      </trkpt>
      <trkpt lat="36.634567" lon="-5.304527">
        <ele>384.249</ele>
        <time>2015-06-21T11:54:43Z</time>
      </trkpt>
      <trkpt lat="36.634570" lon="-5.304503">
        <ele>384.202</ele>
        <time>2015-06-21T11:54:46Z</time>
      </trkpt>
      <trkpt lat="36.634571" lon="-5.304493">
        <ele>384.222</ele>
        <time>2015-06-21T11:54:48Z</time>
      </trkpt>
      <trkpt lat="36.634580" lon="-5.304473">
        <ele>384.208</ele>
        <time>2015-06-21T11:54:53Z</time>
      </trkpt>
      <trkpt lat="36.634597" lon="-5.304469">
        <ele>384.215</ele>
        <time>2015-06-21T11:54:54Z</time>
      </trkpt>
      <trkpt lat="36.634643" lon="-5.304402">
        <ele>384.671</ele>
        <time>2015-06-21T11:54:59Z</time>
      </trkpt>
      <trkpt lat="36.634654" lon="-5.304381">
        <ele>385.074</ele>
        <time>2015-06-21T11:55:00Z</time>
      </trkpt>
      <trkpt lat="36.634658" lon="-5.304359">
        <ele>385.444</ele>
        <time>2015-06-21T11:55:01Z</time>
      </trkpt>
      <trkpt lat="36.634660" lon="-5.304340">
        <ele>386.038</ele>
        <time>2015-06-21T11:55:02Z</time>
      </trkpt>
      <trkpt lat="36.634660" lon="-5.304323">
        <ele>386.415</ele>
        <time>2015-06-21T11:55:03Z</time>
      </trkpt>
      <trkpt lat="36.634665" lon="-5.304309">
        <ele>386.414</ele>
        <time>2015-06-21T11:55:04Z</time>
      </trkpt>
      <trkpt lat="36.634678" lon="-5.304300">
        <ele>386.446</ele>
        <time>2015-06-21T11:55:05Z</time>
      </trkpt>
      <trkpt lat="36.634732" lon="-5.304269">
        <ele>386.493</ele>
        <time>2015-06-21T11:55:08Z</time>
      </trkpt>
      <trkpt lat="36.634819" lon="-5.304245">
        <ele>386.465</ele>
        <time>2015-06-21T11:55:12Z</time>
      </trkpt>
      <trkpt lat="36.634845" lon="-5.304240">
        <ele>386.421</ele>
        <time>2015-06-21T11:55:13Z</time>
      </trkpt>
      <trkpt lat="36.634965" lon="-5.304187">
        <ele>386.408</ele>
        <time>2015-06-21T11:55:18Z</time>
      </trkpt>
      <trkpt lat="36.634977" lon="-5.304179">
        <ele>386.430</ele>
        <time>2015-06-21T11:55:19Z</time>
      </trkpt>
      <trkpt lat="36.635005" lon="-5.304178">
        <ele>386.486</ele>
        <time>2015-06-21T11:55:21Z</time>
      </trkpt>
      <trkpt lat="36.635042" lon="-5.304172">
        <ele>386.489</ele>
        <time>2015-06-21T11:55:23Z</time>
      </trkpt>
      <trkpt lat="36.635062" lon="-5.304165">
        <ele>386.449</ele>
        <time>2015-06-21T11:55:24Z</time>
      </trkpt>
      <trkpt lat="36.635127" lon="-5.304103">
        <ele>386.463</ele>
        <time>2015-06-21T11:55:27Z</time>
      </trkpt>
      <trkpt lat="36.635143" lon="-5.304089">
        <ele>386.460</ele>
        <time>2015-06-21T11:55:28Z</time>
      </trkpt>
      <trkpt lat="36.635208" lon="-5.304014">
        <ele>386.479</ele>
        <time>2015-06-21T11:55:32Z</time>
      </trkpt>
      <trkpt lat="36.635205" lon="-5.303996">
        <ele>386.431</ele>
        <time>2015-06-21T11:55:33Z</time>
      </trkpt>
      <trkpt lat="36.635250" lon="-5.303956">
        <ele>386.461</ele>
        <time>2015-06-21T11:55:36Z</time>
      </trkpt>
      <trkpt lat="36.635269" lon="-5.303926">
        <ele>386.421</ele>
        <time>2015-06-21T11:55:37Z</time>
      </trkpt>
      <trkpt lat="36.635296" lon="-5.303842">
        <ele>386.413</ele>
        <time>2015-06-21T11:55:41Z</time>
      </trkpt>
      <trkpt lat="36.635310" lon="-5.303827">
        <ele>386.408</ele>
        <time>2015-06-21T11:55:42Z</time>
      </trkpt>
      <trkpt lat="36.635319" lon="-5.303822">
        <ele>387.227</ele>
        <time>2015-06-21T11:55:45Z</time>
      </trkpt>
      <trkpt lat="36.635319" lon="-5.303822">
        <ele>387.673</ele>
        <time>2015-06-21T11:55:46Z</time>
      </trkpt>
      <trkpt lat="36.635318" lon="-5.303824">
        <ele>388.036</ele>
        <time>2015-06-21T11:55:47Z</time>
      </trkpt>
      <trkpt lat="36.635316" lon="-5.303823">
        <ele>388.486</ele>
        <time>2015-06-21T11:55:48Z</time>
      </trkpt>
      <trkpt lat="36.635316" lon="-5.303819">
        <ele>388.460</ele>
        <time>2015-06-21T11:55:51Z</time>
      </trkpt>
      <trkpt lat="36.635321" lon="-5.303818">
        <ele>388.497</ele>
        <time>2015-06-21T11:55:54Z</time>
      </trkpt>
      <trkpt lat="36.635331" lon="-5.303822">
        <ele>388.486</ele>
        <time>2015-06-21T11:55:56Z</time>
      </trkpt>
      <trkpt lat="36.635341" lon="-5.303821">
        <ele>388.438</ele>
        <time>2015-06-21T11:56:01Z</time>
      </trkpt>
      <trkpt lat="36.635341" lon="-5.303821">
        <ele>388.437</ele>
        <time>2015-06-21T11:56:07Z</time>
      </trkpt>
      <trkpt lat="36.635341" lon="-5.303821">
        <ele>388.449</ele>
        <time>2015-06-21T11:56:09Z</time>
      </trkpt>
      <trkpt lat="36.635364" lon="-5.303809">
        <ele>388.413</ele>
        <time>2015-06-21T11:56:15Z</time>
      </trkpt>
      <trkpt lat="36.635373" lon="-5.303808">
        <ele>388.408</ele>
        <time>2015-06-21T11:56:16Z</time>
      </trkpt>
      <trkpt lat="36.635445" lon="-5.303777">
        <ele>388.494</ele>
        <time>2015-06-21T11:56:20Z</time>
      </trkpt>
      <trkpt lat="36.635509" lon="-5.303694">
        <ele>388.440</ele>
        <time>2015-06-21T11:56:25Z</time>
      </trkpt>
      <trkpt lat="36.635599" lon="-5.303596">
        <ele>388.423</ele>
        <time>2015-06-21T11:56:30Z</time>
      </trkpt>
      <trkpt lat="36.635673" lon="-5.303467">
        <ele>388.473</ele>
        <time>2015-06-21T11:56:34Z</time>
      </trkpt>
      <trkpt lat="36.635771" lon="-5.303345">
        <ele>388.467</ele>
        <time>2015-06-21T11:56:39Z</time>
      </trkpt>
      <trkpt lat="36.635874" lon="-5.303261">
        <ele>388.454</ele>
        <time>2015-06-21T11:56:45Z</time>
      </trkpt>
      <trkpt lat="36.635889" lon="-5.303175">
        <ele>388.433</ele>
        <time>2015-06-21T11:56:47Z</time>
      </trkpt>
      <trkpt lat="36.635895" lon="-5.303124">
        <ele>388.485</ele>
        <time>2015-06-21T11:56:48Z</time>
      </trkpt>
      <trkpt lat="36.635910" lon="-5.303102">
        <ele>388.495</ele>
        <time>2015-06-21T11:56:49Z</time>
      </trkpt>
      <trkpt lat="36.635922" lon="-5.303089">
        <ele>388.049</ele>
        <time>2015-06-21T11:56:50Z</time>
      </trkpt>
      <trkpt lat="36.635928" lon="-5.303081">
        <ele>387.423</ele>
        <time>2015-06-21T11:56:51Z</time>
      </trkpt>
      <trkpt lat="36.635929" lon="-5.303083">
        <ele>386.808</ele>
        <time>2015-06-21T11:56:52Z</time>
      </trkpt>
      <trkpt lat="36.635929" lon="-5.303083">
        <ele>386.470</ele>
        <time>2015-06-21T11:56:53Z</time>
      </trkpt>
      <trkpt lat="36.635929" lon="-5.303083">
        <ele>385.836</ele>
        <time>2015-06-21T11:56:54Z</time>
      </trkpt>
      <trkpt lat="36.635929" lon="-5.303083">
        <ele>385.879</ele>
        <time>2015-06-21T11:56:56Z</time>
      </trkpt>
      <trkpt lat="36.635930" lon="-5.303078">
        <ele>385.839</ele>
        <time>2015-06-21T11:56:58Z</time>
      </trkpt>
      <trkpt lat="36.635935" lon="-5.303067">
        <ele>385.893</ele>
        <time>2015-06-21T11:57:01Z</time>
      </trkpt>
      <trkpt lat="36.635941" lon="-5.303050">
        <ele>385.860</ele>
        <time>2015-06-21T11:57:02Z</time>
      </trkpt>
      <trkpt lat="36.635942" lon="-5.303049">
        <ele>385.439</ele>
        <time>2015-06-21T11:57:03Z</time>
      </trkpt>
      <trkpt lat="36.635942" lon="-5.303049">
        <ele>385.031</ele>
        <time>2015-06-21T11:57:04Z</time>
      </trkpt>
      <trkpt lat="36.635942" lon="-5.303049">
        <ele>384.685</ele>
        <time>2015-06-21T11:57:05Z</time>
      </trkpt>
      <trkpt lat="36.635945" lon="-5.303045">
        <ele>384.289</ele>
        <time>2015-06-21T11:57:06Z</time>
      </trkpt>
      <trkpt lat="36.635945" lon="-5.303045">
        <ele>383.817</ele>
        <time>2015-06-21T11:57:07Z</time>
      </trkpt>
      <trkpt lat="36.635949" lon="-5.303043">
        <ele>383.808</ele>
        <time>2015-06-21T11:57:08Z</time>
      </trkpt>
      <trkpt lat="36.635946" lon="-5.303038">
        <ele>383.889</ele>
        <time>2015-06-21T11:57:15Z</time>
      </trkpt>
      <trkpt lat="36.635953" lon="-5.303024">
        <ele>383.855</ele>
        <time>2015-06-21T11:57:20Z</time>
      </trkpt>
      <trkpt lat="36.635953" lon="-5.303024">
        <ele>383.848</ele>
        <time>2015-06-21T11:57:21Z</time>
      </trkpt>
      <trkpt lat="36.635952" lon="-5.303007">
        <ele>383.898</ele>
        <time>2015-06-21T11:57:27Z</time>
      </trkpt>
      <trkpt lat="36.635959" lon="-5.303000">
        <ele>383.452</ele>
        <time>2015-06-21T11:57:30Z</time>
      </trkpt>
      <trkpt lat="36.635959" lon="-5.303000">
        <ele>383.099</ele>
        <time>2015-06-21T11:57:31Z</time>
      </trkpt>
      <trkpt lat="36.635959" lon="-5.303000">
        <ele>382.698</ele>
        <time>2015-06-21T11:57:32Z</time>
      </trkpt>
      <trkpt lat="36.635956" lon="-5.302996">
        <ele>382.260</ele>
        <time>2015-06-21T11:57:33Z</time>
      </trkpt>
      <trkpt lat="36.635953" lon="-5.302994">
        <ele>381.846</ele>
        <time>2015-06-21T11:57:34Z</time>
      </trkpt>
      <trkpt lat="36.635953" lon="-5.302994">
        <ele>381.888</ele>
        <time>2015-06-21T11:57:42Z</time>
      </trkpt>
      <trkpt lat="36.635953" lon="-5.302994">
        <ele>381.816</ele>
        <time>2015-06-21T11:57:51Z</time>
      </trkpt>
      <trkpt lat="36.635953" lon="-5.302994">
        <ele>381.808</ele>
        <time>2015-06-21T11:57:52Z</time>
      </trkpt>
      <trkpt lat="36.635953" lon="-5.302994">
        <ele>381.855</ele>
        <time>2015-06-21T11:57:59Z</time>
      </trkpt>
      <trkpt lat="36.635956" lon="-5.302978">
        <ele>381.891</ele>
        <time>2015-06-21T11:58:06Z</time>
      </trkpt>
      <trkpt lat="36.635955" lon="-5.302976">
        <ele>381.844</ele>
        <time>2015-06-21T11:58:14Z</time>
      </trkpt>
      <trkpt lat="36.635955" lon="-5.302976">
        <ele>381.824</ele>
        <time>2015-06-21T11:58:22Z</time>
      </trkpt>
      <trkpt lat="36.635955" lon="-5.302976">
        <ele>381.898</ele>
        <time>2015-06-21T11:58:29Z</time>
      </trkpt>
      <trkpt lat="36.635955" lon="-5.302976">
        <ele>381.845</ele>
        <time>2015-06-21T11:58:31Z</time>
      </trkpt>
      <trkpt lat="36.635955" lon="-5.302976">
        <ele>381.854</ele>
        <time>2015-06-21T11:58:34Z</time>
      </trkpt>
      <trkpt lat="36.635955" lon="-5.302976">
        <ele>381.836</ele>
        <time>2015-06-21T11:58:37Z</time>
      </trkpt>
      <trkpt lat="36.635952" lon="-5.302975">
        <ele>381.832</ele>
        <time>2015-06-21T11:58:49Z</time>
      </trkpt>
      <trkpt lat="36.635952" lon="-5.302975">
        <ele>381.892</ele>
        <time>2015-06-21T11:58:51Z</time>
      </trkpt>
      <trkpt lat="36.635952" lon="-5.302975">
        <ele>381.811</ele>
        <time>2015-06-21T11:59:04Z</time>
      </trkpt>
      <trkpt lat="36.635952" lon="-5.302975">
        <ele>381.808</ele>
        <time>2015-06-21T11:59:11Z</time>
      </trkpt>
      <trkpt lat="36.635952" lon="-5.302975">
        <ele>381.814</ele>
        <time>2015-06-21T11:59:19Z</time>
      </trkpt>
      <trkpt lat="36.635952" lon="-5.302975">
        <ele>381.880</ele>
        <time>2015-06-21T11:59:24Z</time>
      </trkpt>
      <trkpt lat="36.635955" lon="-5.302974">
        <ele>381.823</ele>
        <time>2015-06-21T11:59:42Z</time>
      </trkpt>
      <trkpt lat="36.635955" lon="-5.302974">
        <ele>381.863</ele>
        <time>2015-06-21T11:59:54Z</time>
      </trkpt>
      <trkpt lat="36.635955" lon="-5.302974">
        <ele>381.827</ele>
        <time>2015-06-21T11:59:58Z</time>
      </trkpt>
      <trkpt lat="36.635955" lon="-5.302972">
        <ele>381.864</ele>
        <time>2015-06-21T12:00:13Z</time>
      </trkpt>
      <trkpt lat="36.635955" lon="-5.302972">
        <ele>381.883</ele>
        <time>2015-06-21T12:00:18Z</time>
      </trkpt>
      <trkpt lat="36.635955" lon="-5.302972">
        <ele>381.835</ele>
        <time>2015-06-21T12:00:21Z</time>
      </trkpt>
      <trkpt lat="36.635955" lon="-5.302972">
        <ele>381.884</ele>
        <time>2015-06-21T12:00:24Z</time>
      </trkpt>
      <trkpt lat="36.635955" lon="-5.302972">
        <ele>381.807</ele>
        <time>2015-06-21T12:00:26Z</time>
      </trkpt>
      <trkpt lat="36.635955" lon="-5.302972">
        <ele>381.817</ele>
        <time>2015-06-21T12:00:32Z</time>
      </trkpt>
      <trkpt lat="36.635955" lon="-5.302972">
        <ele>381.808</ele>
        <time>2015-06-21T12:00:34Z</time>
      </trkpt>
      <trkpt lat="36.635955" lon="-5.302972">
        <ele>381.879</ele>
        <time>2015-06-21T12:00:37Z</time>
      </trkpt>
      <trkpt lat="36.635955" lon="-5.302972">
        <ele>381.885</ele>
        <time>2015-06-21T12:00:41Z</time>
      </trkpt>
      <trkpt lat="36.635955" lon="-5.302972">
        <ele>381.838</ele>
        <time>2015-06-21T12:00:47Z</time>
      </trkpt>
      <trkpt lat="36.635954" lon="-5.302971">
        <ele>381.858</ele>
        <time>2015-06-21T12:00:50Z</time>
      </trkpt>
      <trkpt lat="36.635954" lon="-5.302971">
        <ele>381.882</ele>
        <time>2015-06-21T12:00:52Z</time>
      </trkpt>
      <trkpt lat="36.635954" lon="-5.302971">
        <ele>381.839</ele>
        <time>2015-06-21T12:00:56Z</time>
      </trkpt>
      <trkpt lat="36.635954" lon="-5.302971">
        <ele>381.898</ele>
        <time>2015-06-21T12:00:59Z</time>
      </trkpt>
      <trkpt lat="36.635954" lon="-5.302971">
        <ele>381.820</ele>
        <time>2015-06-21T12:01:02Z</time>
      </trkpt>
      <trkpt lat="36.635954" lon="-5.302971">
        <ele>381.828</ele>
        <time>2015-06-21T12:01:09Z</time>
      </trkpt>
      <trkpt lat="36.635954" lon="-5.302971">
        <ele>381.889</ele>
        <time>2015-06-21T12:01:13Z</time>
      </trkpt>
      <trkpt lat="36.635954" lon="-5.302971">
        <ele>381.817</ele>
        <time>2015-06-21T12:01:16Z</time>
      </trkpt>
      <trkpt lat="36.635954" lon="-5.302971">
        <ele>381.808</ele>
        <time>2015-06-21T12:01:21Z</time>
      </trkpt>
      <trkpt lat="36.635954" lon="-5.302971">
        <ele>381.823</ele>
        <time>2015-06-21T12:01:25Z</time>
      </trkpt>
      <trkpt lat="36.635952" lon="-5.302967">
        <ele>381.849</ele>
        <time>2015-06-21T12:01:29Z</time>
      </trkpt>
      <trkpt lat="36.635952" lon="-5.302967">
        <ele>381.822</ele>
        <time>2015-06-21T12:01:32Z</time>
      </trkpt>
      <trkpt lat="36.635952" lon="-5.302967">
        <ele>381.892</ele>
        <time>2015-06-21T12:01:34Z</time>
      </trkpt>
      <trkpt lat="36.635952" lon="-5.302967">
        <ele>381.896</ele>
        <time>2015-06-21T12:01:35Z</time>
      </trkpt>
      <trkpt lat="36.635952" lon="-5.302967">
        <ele>381.833</ele>
        <time>2015-06-21T12:01:38Z</time>
      </trkpt>
      <trkpt lat="36.635952" lon="-5.302967">
        <ele>381.822</ele>
        <time>2015-06-21T12:01:48Z</time>
      </trkpt>
      <trkpt lat="36.635952" lon="-5.302967">
        <ele>381.854</ele>
        <time>2015-06-21T12:01:49Z</time>
      </trkpt>
      <trkpt lat="36.635952" lon="-5.302967">
        <ele>381.877</ele>
        <time>2015-06-21T12:01:59Z</time>
      </trkpt>
      <trkpt lat="36.635952" lon="-5.302967">
        <ele>381.861</ele>
        <time>2015-06-21T12:02:00Z</time>
      </trkpt>
      <trkpt lat="36.635952" lon="-5.302967">
        <ele>381.827</ele>
        <time>2015-06-21T12:02:03Z</time>
      </trkpt>
      <trkpt lat="36.635951" lon="-5.302968">
        <ele>381.808</ele>
        <time>2015-06-21T12:02:18Z</time>
      </trkpt>
      <trkpt lat="36.635951" lon="-5.302968">
        <ele>381.868</ele>
        <time>2015-06-21T12:02:19Z</time>
      </trkpt>
      <trkpt lat="36.635951" lon="-5.302968">
        <ele>381.834</ele>
        <time>2015-06-21T12:02:20Z</time>
      </trkpt>
      <trkpt lat="36.635951" lon="-5.302968">
        <ele>381.887</ele>
        <time>2015-06-21T12:02:23Z</time>
      </trkpt>
      <trkpt lat="36.635951" lon="-5.302968">
        <ele>381.847</ele>
        <time>2015-06-21T12:02:25Z</time>
      </trkpt>
      <trkpt lat="36.635951" lon="-5.302968">
        <ele>381.881</ele>
        <time>2015-06-21T12:02:28Z</time>
      </trkpt>
      <trkpt lat="36.635951" lon="-5.302968">
        <ele>381.488</ele>
        <time>2015-06-21T12:02:29Z</time>
      </trkpt>
      <trkpt lat="36.635951" lon="-5.302968">
        <ele>381.067</ele>
        <time>2015-06-21T12:02:30Z</time>
      </trkpt>
      <trkpt lat="36.635951" lon="-5.302968">
        <ele>380.639</ele>
        <time>2015-06-21T12:02:31Z</time>
      </trkpt>
      <trkpt lat="36.635951" lon="-5.302968">
        <ele>380.276</ele>
        <time>2015-06-21T12:02:32Z</time>
      </trkpt>
      <trkpt lat="36.635951" lon="-5.302968">
        <ele>379.890</ele>
        <time>2015-06-21T12:02:33Z</time>
      </trkpt>
      <trkpt lat="36.635951" lon="-5.302968">
        <ele>379.819</ele>
        <time>2015-06-21T12:02:35Z</time>
      </trkpt>
      <trkpt lat="36.635951" lon="-5.302968">
        <ele>379.808</ele>
        <time>2015-06-21T12:02:48Z</time>
      </trkpt>
      <trkpt lat="36.635947" lon="-5.302968">
        <ele>379.818</ele>
        <time>2015-06-21T12:02:50Z</time>
      </trkpt>
      <trkpt lat="36.635947" lon="-5.302968">
        <ele>379.884</ele>
        <time>2015-06-21T12:02:54Z</time>
      </trkpt>
      <trkpt lat="36.635947" lon="-5.302968">
        <ele>379.837</ele>
        <time>2015-06-21T12:02:56Z</time>
      </trkpt>
      <trkpt lat="36.635947" lon="-5.302968">
        <ele>379.827</ele>
        <time>2015-06-21T12:03:03Z</time>
      </trkpt>
      <trkpt lat="36.635947" lon="-5.302968">
        <ele>379.821</ele>
        <time>2015-06-21T12:03:06Z</time>
      </trkpt>
      <trkpt lat="36.635947" lon="-5.302968">
        <ele>379.888</ele>
        <time>2015-06-21T12:03:13Z</time>
      </trkpt>
      <trkpt lat="36.635947" lon="-5.302968">
        <ele>379.867</ele>
        <time>2015-06-21T12:03:20Z</time>
      </trkpt>
      <trkpt lat="36.635947" lon="-5.302968">
        <ele>379.859</ele>
        <time>2015-06-21T12:03:22Z</time>
      </trkpt>
      <trkpt lat="36.635947" lon="-5.302968">
        <ele>379.893</ele>
        <time>2015-06-21T12:03:26Z</time>
      </trkpt>
      <trkpt lat="36.635952" lon="-5.302961">
        <ele>379.865</ele>
        <time>2015-06-21T12:03:30Z</time>
      </trkpt>
      <trkpt lat="36.635952" lon="-5.302961">
        <ele>379.821</ele>
        <time>2015-06-21T12:03:36Z</time>
      </trkpt>
      <trkpt lat="36.635952" lon="-5.302961">
        <ele>379.808</ele>
        <time>2015-06-21T12:03:50Z</time>
      </trkpt>
      <trkpt lat="36.635952" lon="-5.302961">
        <ele>379.810</ele>
        <time>2015-06-21T12:03:59Z</time>
      </trkpt>
      <trkpt lat="36.635952" lon="-5.302961">
        <ele>379.856</ele>
        <time>2015-06-21T12:04:04Z</time>
      </trkpt>
      <trkpt lat="36.635952" lon="-5.302955">
        <ele>379.889</ele>
        <time>2015-06-21T12:04:11Z</time>
      </trkpt>
      <trkpt lat="36.635952" lon="-5.302955">
        <ele>379.889</ele>
        <time>2015-06-21T12:04:15Z</time>
      </trkpt>
      <trkpt lat="36.635952" lon="-5.302955">
        <ele>379.813</ele>
        <time>2015-06-21T12:04:31Z</time>
      </trkpt>
      <trkpt lat="36.635952" lon="-5.302955">
        <ele>379.880</ele>
        <time>2015-06-21T12:04:42Z</time>
      </trkpt>
      <trkpt lat="36.635952" lon="-5.302955">
        <ele>379.819</ele>
        <time>2015-06-21T12:04:46Z</time>
      </trkpt>
      <trkpt lat="36.635953" lon="-5.302958">
        <ele>379.891</ele>
        <time>2015-06-21T12:05:01Z</time>
      </trkpt>
      <trkpt lat="36.635953" lon="-5.302958">
        <ele>379.829</ele>
        <time>2015-06-21T12:05:05Z</time>
      </trkpt>
      <trkpt lat="36.635953" lon="-5.302958">
        <ele>379.800</ele>
        <time>2015-06-21T12:05:06Z</time>
      </trkpt>
      <trkpt lat="36.635953" lon="-5.302958">
        <ele>379.820</ele>
        <time>2015-06-21T12:05:13Z</time>
      </trkpt>
      <trkpt lat="36.635953" lon="-5.302958">
        <ele>379.808</ele>
        <time>2015-06-21T12:05:17Z</time>
      </trkpt>
      <trkpt lat="36.635953" lon="-5.302958">
        <ele>379.833</ele>
        <time>2015-06-21T12:05:18Z</time>
      </trkpt>
      <trkpt lat="36.635955" lon="-5.302961">
        <ele>379.889</ele>
        <time>2015-06-21T12:05:29Z</time>
      </trkpt>
      <trkpt lat="36.635955" lon="-5.302961">
        <ele>379.862</ele>
        <time>2015-06-21T12:05:35Z</time>
      </trkpt>
      <trkpt lat="36.635955" lon="-5.302961">
        <ele>379.882</ele>
        <time>2015-06-21T12:05:38Z</time>
      </trkpt>
      <trkpt lat="36.635955" lon="-5.302961">
        <ele>379.876</ele>
        <time>2015-06-21T12:05:40Z</time>
      </trkpt>
      <trkpt lat="36.635955" lon="-5.302961">
        <ele>379.883</ele>
        <time>2015-06-21T12:05:43Z</time>
      </trkpt>
      <trkpt lat="36.635955" lon="-5.302961">
        <ele>379.882</ele>
        <time>2015-06-21T12:05:50Z</time>
      </trkpt>
      <trkpt lat="36.635955" lon="-5.302961">
        <ele>379.864</ele>
        <time>2015-06-21T12:05:57Z</time>
      </trkpt>
      <trkpt lat="36.635955" lon="-5.302959">
        <ele>379.823</ele>
        <time>2015-06-21T12:06:12Z</time>
      </trkpt>
      <trkpt lat="36.635955" lon="-5.302959">
        <ele>379.883</ele>
        <time>2015-06-21T12:06:15Z</time>
      </trkpt>
      <trkpt lat="36.635955" lon="-5.302959">
        <ele>379.811</ele>
        <time>2015-06-21T12:06:24Z</time>
      </trkpt>
      <trkpt lat="36.635955" lon="-5.302959">
        <ele>379.808</ele>
        <time>2015-06-21T12:06:27Z</time>
      </trkpt>
      <trkpt lat="36.635955" lon="-5.302959">
        <ele>379.893</ele>
        <time>2015-06-21T12:06:32Z</time>
      </trkpt>
      <trkpt lat="36.635955" lon="-5.302959">
        <ele>379.849</ele>
        <time>2015-06-21T12:06:42Z</time>
      </trkpt>
      <trkpt lat="36.635955" lon="-5.302959">
        <ele>379.892</ele>
        <time>2015-06-21T12:06:45Z</time>
      </trkpt>
      <trkpt lat="36.635951" lon="-5.302959">
        <ele>379.822</ele>
        <time>2015-06-21T12:06:56Z</time>
      </trkpt>
      <trkpt lat="36.635951" lon="-5.302959">
        <ele>379.856</ele>
        <time>2015-06-21T12:06:59Z</time>
      </trkpt>
      <trkpt lat="36.635951" lon="-5.302959">
        <ele>379.873</ele>
        <time>2015-06-21T12:07:11Z</time>
      </trkpt>
      <trkpt lat="36.635951" lon="-5.302959">
        <ele>379.822</ele>
        <time>2015-06-21T12:07:23Z</time>
      </trkpt>
      <trkpt lat="36.635951" lon="-5.302959">
        <ele>379.874</ele>
        <time>2015-06-21T12:07:26Z</time>
      </trkpt>
      <trkpt lat="36.635955" lon="-5.302959">
        <ele>379.868</ele>
        <time>2015-06-21T12:07:34Z</time>
      </trkpt>
      <trkpt lat="36.635955" lon="-5.302959">
        <ele>379.842</ele>
        <time>2015-06-21T12:07:43Z</time>
      </trkpt>
      <trkpt lat="36.635955" lon="-5.302959">
        <ele>379.826</ele>
        <time>2015-06-21T12:07:57Z</time>
      </trkpt>
      <trkpt lat="36.635955" lon="-5.302959">
        <ele>379.808</ele>
        <time>2015-06-21T12:08:07Z</time>
      </trkpt>
      <trkpt lat="36.635960" lon="-5.302955">
        <ele>379.827</ele>
        <time>2015-06-21T12:08:10Z</time>
      </trkpt>
      <trkpt lat="36.635960" lon="-5.302955">
        <ele>379.873</ele>
        <time>2015-06-21T12:08:14Z</time>
      </trkpt>
      <trkpt lat="36.635960" lon="-5.302955">
        <ele>379.836</ele>
        <time>2015-06-21T12:08:26Z</time>
      </trkpt>
      <trkpt lat="36.635960" lon="-5.302955">
        <ele>379.826</ele>
        <time>2015-06-21T12:08:31Z</time>
      </trkpt>
      <trkpt lat="36.635960" lon="-5.302955">
        <ele>379.860</ele>
        <time>2015-06-21T12:08:34Z</time>
      </trkpt>
      <trkpt lat="36.635960" lon="-5.302955">
        <ele>379.837</ele>
        <time>2015-06-21T12:08:37Z</time>
      </trkpt>
      <trkpt lat="36.635960" lon="-5.302955">
        <ele>379.836</ele>
        <time>2015-06-21T12:08:43Z</time>
      </trkpt>
      <trkpt lat="36.635960" lon="-5.302955">
        <ele>379.878</ele>
        <time>2015-06-21T12:08:46Z</time>
      </trkpt>
      <trkpt lat="36.635974" lon="-5.302952">
        <ele>379.878</ele>
        <time>2015-06-21T12:09:01Z</time>
      </trkpt>
      <trkpt lat="36.635974" lon="-5.302952">
        <ele>379.833</ele>
        <time>2015-06-21T12:09:04Z</time>
      </trkpt>
      <trkpt lat="36.635974" lon="-5.302952">
        <ele>379.826</ele>
        <time>2015-06-21T12:09:07Z</time>
      </trkpt>
      <trkpt lat="36.635974" lon="-5.302952">
        <ele>379.808</ele>
        <time>2015-06-21T12:09:12Z</time>
      </trkpt>
      <trkpt lat="36.635974" lon="-5.302952">
        <ele>379.868</ele>
        <time>2015-06-21T12:09:18Z</time>
      </trkpt>
      <trkpt lat="36.635974" lon="-5.302952">
        <ele>379.894</ele>
        <time>2015-06-21T12:09:21Z</time>
      </trkpt>
      <trkpt lat="36.635970" lon="-5.302948">
        <ele>379.847</ele>
        <time>2015-06-21T12:09:39Z</time>
      </trkpt>
      <trkpt lat="36.635970" lon="-5.302948">
        <ele>379.817</ele>
        <time>2015-06-21T12:09:47Z</time>
      </trkpt>
      <trkpt lat="36.635970" lon="-5.302948">
        <ele>379.841</ele>
        <time>2015-06-21T12:09:50Z</time>
      </trkpt>
      <trkpt lat="36.635970" lon="-5.302948">
        <ele>379.898</ele>
        <time>2015-06-21T12:09:52Z</time>
      </trkpt>
      <trkpt lat="36.635970" lon="-5.302948">
        <ele>379.887</ele>
        <time>2015-06-21T12:09:57Z</time>
      </trkpt>
      <trkpt lat="36.635970" lon="-5.302948">
        <ele>379.889</ele>
        <time>2015-06-21T12:10:05Z</time>
      </trkpt>
      <trkpt lat="36.635970" lon="-5.302948">
        <ele>379.889</ele>
        <time>2015-06-21T12:10:13Z</time>
      </trkpt>
      <trkpt lat="36.635970" lon="-5.302948">
        <ele>379.806</ele>
        <time>2015-06-21T12:10:14Z</time>
      </trkpt>
      <trkpt lat="36.635970" lon="-5.302948">
        <ele>379.826</ele>
        <time>2015-06-21T12:10:27Z</time>
      </trkpt>
      <trkpt lat="36.635970" lon="-5.302948">
        <ele>379.808</ele>
        <time>2015-06-21T12:10:41Z</time>
      </trkpt>
      <trkpt lat="36.635968" lon="-5.302942">
        <ele>379.819</ele>
        <time>2015-06-21T12:10:48Z</time>
      </trkpt>
      <trkpt lat="36.635968" lon="-5.302942">
        <ele>379.885</ele>
        <time>2015-06-21T12:10:52Z</time>
      </trkpt>
      <trkpt lat="36.635968" lon="-5.302942">
        <ele>379.878</ele>
        <time>2015-06-21T12:10:55Z</time>
      </trkpt>
      <trkpt lat="36.635968" lon="-5.302942">
        <ele>379.878</ele>
        <time>2015-06-21T12:10:58Z</time>
      </trkpt>
      <trkpt lat="36.635968" lon="-5.302942">
        <ele>379.892</ele>
        <time>2015-06-21T12:11:07Z</time>
      </trkpt>
      <trkpt lat="36.635968" lon="-5.302942">
        <ele>379.849</ele>
        <time>2015-06-21T12:11:08Z</time>
      </trkpt>
      <trkpt lat="36.635968" lon="-5.302942">
        <ele>379.888</ele>
        <time>2015-06-21T12:11:12Z</time>
      </trkpt>
      <trkpt lat="36.635968" lon="-5.302942">
        <ele>379.430</ele>
        <time>2015-06-21T12:11:18Z</time>
      </trkpt>
      <trkpt lat="36.635968" lon="-5.302942">
        <ele>379.018</ele>
        <time>2015-06-21T12:11:19Z</time>
      </trkpt>
      <trkpt lat="36.635968" lon="-5.302942">
        <ele>378.698</ele>
        <time>2015-06-21T12:11:20Z</time>
      </trkpt>
      <trkpt lat="36.635968" lon="-5.302942">
        <ele>378.217</ele>
        <time>2015-06-21T12:11:21Z</time>
      </trkpt>
      <trkpt lat="36.635968" lon="-5.302942">
        <ele>377.808</ele>
        <time>2015-06-21T12:11:22Z</time>
      </trkpt>
      <trkpt lat="36.635968" lon="-5.302942">
        <ele>377.842</ele>
        <time>2015-06-21T12:11:24Z</time>
      </trkpt>
      <trkpt lat="36.635966" lon="-5.302946">
        <ele>377.828</ele>
        <time>2015-06-21T12:11:37Z</time>
      </trkpt>
      <trkpt lat="36.635966" lon="-5.302946">
        <ele>377.851</ele>
        <time>2015-06-21T12:11:40Z</time>
      </trkpt>
      <trkpt lat="36.635966" lon="-5.302946">
        <ele>377.851</ele>
        <time>2015-06-21T12:11:53Z</time>
      </trkpt>
      <trkpt lat="36.635966" lon="-5.302946">
        <ele>377.865</ele>
        <time>2015-06-21T12:12:01Z</time>
      </trkpt>
      <trkpt lat="36.635966" lon="-5.302946">
        <ele>377.812</ele>
        <time>2015-06-21T12:12:07Z</time>
      </trkpt>
      <trkpt lat="36.635965" lon="-5.302946">
        <ele>377.831</ele>
        <time>2015-06-21T12:12:22Z</time>
      </trkpt>
      <trkpt lat="36.635965" lon="-5.302946">
        <ele>377.813</ele>
        <time>2015-06-21T12:12:26Z</time>
      </trkpt>
      <trkpt lat="36.635965" lon="-5.302946">
        <ele>377.866</ele>
        <time>2015-06-21T12:12:39Z</time>
      </trkpt>
      <trkpt lat="36.635965" lon="-5.302946">
        <ele>377.829</ele>
        <time>2015-06-21T12:12:45Z</time>
      </trkpt>
      <trkpt lat="36.635970" lon="-5.302933">
        <ele>377.821</ele>
        <time>2015-06-21T12:12:53Z</time>
      </trkpt>
      <trkpt lat="36.635970" lon="-5.302933">
        <ele>377.808</ele>
        <time>2015-06-21T12:13:00Z</time>
      </trkpt>
      <trkpt lat="36.635970" lon="-5.302933">
        <ele>377.817</ele>
        <time>2015-06-21T12:13:09Z</time>
      </trkpt>
      <trkpt lat="36.635970" lon="-5.302933">
        <ele>377.813</ele>
        <time>2015-06-21T12:13:22Z</time>
      </trkpt>
      <trkpt lat="36.635970" lon="-5.302933">
        <ele>377.816</ele>
        <time>2015-06-21T12:13:23Z</time>
      </trkpt>
      <trkpt lat="36.635973" lon="-5.302930">
        <ele>377.886</ele>
        <time>2015-06-21T12:13:28Z</time>
      </trkpt>
      <trkpt lat="36.635973" lon="-5.302930">
        <ele>377.830</ele>
        <time>2015-06-21T12:13:37Z</time>
      </trkpt>
      <trkpt lat="36.635973" lon="-5.302930">
        <ele>377.857</ele>
        <time>2015-06-21T12:13:50Z</time>
      </trkpt>
      <trkpt lat="36.635973" lon="-5.302930">
        <ele>377.816</ele>
        <time>2015-06-21T12:14:05Z</time>
      </trkpt>
      <trkpt lat="36.635973" lon="-5.302930">
        <ele>377.838</ele>
        <time>2015-06-21T12:14:14Z</time>
      </trkpt>
      <trkpt lat="36.635973" lon="-5.302930">
        <ele>377.815</ele>
        <time>2015-06-21T12:14:15Z</time>
      </trkpt>
      <trkpt lat="36.635973" lon="-5.302930">
        <ele>377.865</ele>
        <time>2015-06-21T12:14:18Z</time>
      </trkpt>
      <trkpt lat="36.635973" lon="-5.302930">
        <ele>377.811</ele>
        <time>2015-06-21T12:14:19Z</time>
      </trkpt>
      <trkpt lat="36.635973" lon="-5.302930">
        <ele>377.808</ele>
        <time>2015-06-21T12:14:21Z</time>
      </trkpt>
      <trkpt lat="36.635973" lon="-5.302930">
        <ele>377.852</ele>
        <time>2015-06-21T12:14:24Z</time>
      </trkpt>
      <trkpt lat="36.635973" lon="-5.302930">
        <ele>377.838</ele>
        <time>2015-06-21T12:14:31Z</time>
      </trkpt>
      <trkpt lat="36.635973" lon="-5.302930">
        <ele>377.871</ele>
        <time>2015-06-21T12:14:35Z</time>
      </trkpt>
      <trkpt lat="36.635974" lon="-5.302937">
        <ele>377.891</ele>
        <time>2015-06-21T12:14:49Z</time>
      </trkpt>
      <trkpt lat="36.635974" lon="-5.302937">
        <ele>377.875</ele>
        <time>2015-06-21T12:14:54Z</time>
      </trkpt>
      <trkpt lat="36.635974" lon="-5.302937">
        <ele>377.882</ele>
        <time>2015-06-21T12:15:04Z</time>
      </trkpt>
      <trkpt lat="36.635974" lon="-5.302937">
        <ele>377.811</ele>
        <time>2015-06-21T12:15:07Z</time>
      </trkpt>
      <trkpt lat="36.635974" lon="-5.302937">
        <ele>377.893</ele>
        <time>2015-06-21T12:15:16Z</time>
      </trkpt>
      <trkpt lat="36.635974" lon="-5.302937">
        <ele>377.831</ele>
        <time>2015-06-21T12:15:22Z</time>
      </trkpt>
      <trkpt lat="36.635974" lon="-5.302937">
        <ele>377.861</ele>
        <time>2015-06-21T12:15:25Z</time>
      </trkpt>
      <trkpt lat="36.635972" lon="-5.302938">
        <ele>377.807</ele>
        <time>2015-06-21T12:15:38Z</time>
      </trkpt>
      <trkpt lat="36.635972" lon="-5.302938">
        <ele>377.808</ele>
        <time>2015-06-21T12:15:53Z</time>
      </trkpt>
      <trkpt lat="36.635972" lon="-5.302938">
        <ele>377.864</ele>
        <time>2015-06-21T12:16:02Z</time>
      </trkpt>
      <trkpt lat="36.635971" lon="-5.302936">
        <ele>377.890</ele>
        <time>2015-06-21T12:16:09Z</time>
      </trkpt>
      <trkpt lat="36.635971" lon="-5.302936">
        <ele>377.893</ele>
        <time>2015-06-21T12:16:11Z</time>
      </trkpt>
      <trkpt lat="36.635971" lon="-5.302936">
        <ele>377.833</ele>
        <time>2015-06-21T12:16:25Z</time>
      </trkpt>
      <trkpt lat="36.635971" lon="-5.302936">
        <ele>377.817</ele>
        <time>2015-06-21T12:16:29Z</time>
      </trkpt>
      <trkpt lat="36.635971" lon="-5.302936">
        <ele>377.824</ele>
        <time>2015-06-21T12:16:40Z</time>
      </trkpt>
      <trkpt lat="36.635972" lon="-5.302937">
        <ele>377.863</ele>
        <time>2015-06-21T12:16:56Z</time>
      </trkpt>
      <trkpt lat="36.635972" lon="-5.302937">
        <ele>377.865</ele>
        <time>2015-06-21T12:17:03Z</time>
      </trkpt>
      <trkpt lat="36.635972" lon="-5.302937">
        <ele>377.896</ele>
        <time>2015-06-21T12:17:12Z</time>
      </trkpt>
      <trkpt lat="36.635972" lon="-5.302937">
        <ele>377.831</ele>
        <time>2015-06-21T12:17:25Z</time>
      </trkpt>
      <trkpt lat="36.635972" lon="-5.302937">
        <ele>377.824</ele>
        <time>2015-06-21T12:17:26Z</time>
      </trkpt>
      <trkpt lat="36.635968" lon="-5.302934">
        <ele>377.808</ele>
        <time>2015-06-21T12:17:28Z</time>
      </trkpt>
      <trkpt lat="36.635968" lon="-5.302934">
        <ele>377.810</ele>
        <time>2015-06-21T12:17:31Z</time>
      </trkpt>
      <trkpt lat="36.635968" lon="-5.302934">
        <ele>377.856</ele>
        <time>2015-06-21T12:17:37Z</time>
      </trkpt>
      <trkpt lat="36.635968" lon="-5.302934">
        <ele>377.849</ele>
        <time>2015-06-21T12:17:44Z</time>
      </trkpt>
      <trkpt lat="36.635968" lon="-5.302934">
        <ele>377.859</ele>
        <time>2015-06-21T12:17:55Z</time>
      </trkpt>
      <trkpt lat="36.635968" lon="-5.302934">
        <ele>377.883</ele>
        <time>2015-06-21T12:18:00Z</time>
      </trkpt>
      <trkpt lat="36.635968" lon="-5.302934">
        <ele>377.820</ele>
        <time>2015-06-21T12:18:04Z</time>
      </trkpt>
      <trkpt lat="36.635968" lon="-5.302934">
        <ele>377.889</ele>
        <time>2015-06-21T12:18:07Z</time>
      </trkpt>
      <trkpt lat="36.635970" lon="-5.302935">
        <ele>377.861</ele>
        <time>2015-06-21T12:18:12Z</time>
      </trkpt>
      <trkpt lat="36.635970" lon="-5.302935">
        <ele>377.889</ele>
        <time>2015-06-21T12:18:13Z</time>
      </trkpt>
      <trkpt lat="36.635970" lon="-5.302935">
        <ele>377.806</ele>
        <time>2015-06-21T12:18:14Z</time>
      </trkpt>
      <trkpt lat="36.635970" lon="-5.302935">
        <ele>377.826</ele>
        <time>2015-06-21T12:18:20Z</time>
      </trkpt>
      <trkpt lat="36.635970" lon="-5.302935">
        <ele>377.808</ele>
        <time>2015-06-21T12:18:25Z</time>
      </trkpt>
      <trkpt lat="36.635970" lon="-5.302935">
        <ele>377.859</ele>
        <time>2015-06-21T12:18:29Z</time>
      </trkpt>
      <trkpt lat="36.635970" lon="-5.302935">
        <ele>377.875</ele>
        <time>2015-06-21T12:18:33Z</time>
      </trkpt>
      <trkpt lat="36.635970" lon="-5.302935">
        <ele>377.888</ele>
        <time>2015-06-21T12:18:37Z</time>
      </trkpt>
      <trkpt lat="36.635970" lon="-5.302935">
        <ele>377.818</ele>
        <time>2015-06-21T12:18:46Z</time>
      </trkpt>
      <trkpt lat="36.635967" lon="-5.302931">
        <ele>377.852</ele>
        <time>2015-06-21T12:18:49Z</time>
      </trkpt>
      <trkpt lat="36.635967" lon="-5.302931">
        <ele>377.859</ele>
        <time>2015-06-21T12:18:55Z</time>
      </trkpt>
      <trkpt lat="36.635967" lon="-5.302931">
        <ele>377.838</ele>
        <time>2015-06-21T12:19:03Z</time>
      </trkpt>
      <trkpt lat="36.635967" lon="-5.302931">
        <ele>377.830</ele>
        <time>2015-06-21T12:19:08Z</time>
      </trkpt>
      <trkpt lat="36.635967" lon="-5.302931">
        <ele>377.852</ele>
        <time>2015-06-21T12:19:09Z</time>
      </trkpt>
      <trkpt lat="36.635967" lon="-5.302931">
        <ele>377.853</ele>
        <time>2015-06-21T12:19:12Z</time>
      </trkpt>
      <trkpt lat="36.635967" lon="-5.302931">
        <ele>377.808</ele>
        <time>2015-06-21T12:19:18Z</time>
      </trkpt>
      <trkpt lat="36.635967" lon="-5.302931">
        <ele>377.808</ele>
        <time>2015-06-21T12:19:20Z</time>
      </trkpt>
      <trkpt lat="36.635968" lon="-5.302932">
        <ele>377.826</ele>
        <time>2015-06-21T12:19:36Z</time>
      </trkpt>
      <trkpt lat="36.635969" lon="-5.302929">
        <ele>377.872</ele>
        <time>2015-06-21T12:19:43Z</time>
      </trkpt>
      <trkpt lat="36.635967" lon="-5.302927">
        <ele>377.825</ele>
        <time>2015-06-21T12:19:45Z</time>
      </trkpt>
      <trkpt lat="36.635987" lon="-5.302927">
        <ele>377.855</ele>
        <time>2015-06-21T12:19:52Z</time>
      </trkpt>
      <trkpt lat="36.636007" lon="-5.302930">
        <ele>377.899</ele>
        <time>2015-06-21T12:19:59Z</time>
      </trkpt>
      <trkpt lat="36.636052" lon="-5.302942">
        <ele>377.846</ele>
        <time>2015-06-21T12:20:03Z</time>
      </trkpt>
      <trkpt lat="36.636082" lon="-5.302972">
        <ele>377.845</ele>
        <time>2015-06-21T12:20:06Z</time>
      </trkpt>
      <trkpt lat="36.636104" lon="-5.303010">
        <ele>377.857</ele>
        <time>2015-06-21T12:20:09Z</time>
      </trkpt>
      <trkpt lat="36.636109" lon="-5.303019">
        <ele>377.889</ele>
        <time>2015-06-21T12:20:16Z</time>
      </trkpt>
      <trkpt lat="36.636150" lon="-5.303045">
        <ele>377.806</ele>
        <time>2015-06-21T12:20:22Z</time>
      </trkpt>
      <trkpt lat="36.636157" lon="-5.303057">
        <ele>377.826</ele>
        <time>2015-06-21T12:20:23Z</time>
      </trkpt>
      <trkpt lat="36.636193" lon="-5.303118">
        <ele>377.808</ele>
        <time>2015-06-21T12:20:26Z</time>
      </trkpt>
      <trkpt lat="36.636264" lon="-5.303211">
        <ele>377.889</ele>
        <time>2015-06-21T12:20:31Z</time>
      </trkpt>
      <trkpt lat="36.636329" lon="-5.303259">
        <ele>377.895</ele>
        <time>2015-06-21T12:20:36Z</time>
      </trkpt>
      <trkpt lat="36.636370" lon="-5.303302">
        <ele>377.818</ele>
        <time>2015-06-21T12:20:41Z</time>
      </trkpt>
      <trkpt lat="36.636452" lon="-5.303321">
        <ele>377.868</ele>
        <time>2015-06-21T12:20:46Z</time>
      </trkpt>
      <trkpt lat="36.636553" lon="-5.303316">
        <ele>377.862</ele>
        <time>2015-06-21T12:20:52Z</time>
      </trkpt>
      <trkpt lat="36.636607" lon="-5.303314">
        <ele>378.229</ele>
        <time>2015-06-21T12:20:55Z</time>
      </trkpt>
      <trkpt lat="36.636625" lon="-5.303311">
        <ele>378.618</ele>
        <time>2015-06-21T12:20:56Z</time>
      </trkpt>
      <trkpt lat="36.636641" lon="-5.303309">
        <ele>379.030</ele>
        <time>2015-06-21T12:20:57Z</time>
      </trkpt>
      <trkpt lat="36.636658" lon="-5.303306">
        <ele>379.482</ele>
        <time>2015-06-21T12:20:58Z</time>
      </trkpt>
      <trkpt lat="36.636670" lon="-5.303299">
        <ele>379.843</ele>
        <time>2015-06-21T12:20:59Z</time>
      </trkpt>
      <trkpt lat="36.636726" lon="-5.303276">
        <ele>379.817</ele>
        <time>2015-06-21T12:21:03Z</time>
      </trkpt>
      <trkpt lat="36.636828" lon="-5.303210">
        <ele>379.808</ele>
        <time>2015-06-21T12:21:10Z</time>
      </trkpt>
      <trkpt lat="36.636882" lon="-5.303158">
        <ele>379.819</ele>
        <time>2015-06-21T12:21:14Z</time>
      </trkpt>
      <trkpt lat="36.636893" lon="-5.303154">
        <ele>380.245</ele>
        <time>2015-06-21T12:21:15Z</time>
      </trkpt>
      <trkpt lat="36.636907" lon="-5.303148">
        <ele>380.648</ele>
        <time>2015-06-21T12:21:16Z</time>
      </trkpt>
      <trkpt lat="36.636921" lon="-5.303141">
        <ele>381.098</ele>
        <time>2015-06-21T12:21:17Z</time>
      </trkpt>
      <trkpt lat="36.636935" lon="-5.303132">
        <ele>381.462</ele>
        <time>2015-06-21T12:21:18Z</time>
      </trkpt>
      <trkpt lat="36.636950" lon="-5.303123">
        <ele>381.839</ele>
        <time>2015-06-21T12:21:19Z</time>
      </trkpt>
      <trkpt lat="36.636972" lon="-5.303110">
        <ele>381.858</ele>
        <time>2015-06-21T12:21:21Z</time>
      </trkpt>
      <trkpt lat="36.637023" lon="-5.303078">
        <ele>381.810</ele>
        <time>2015-06-21T12:21:26Z</time>
      </trkpt>
      <trkpt lat="36.637043" lon="-5.303072">
        <ele>381.825</ele>
        <time>2015-06-21T12:21:28Z</time>
      </trkpt>
      <trkpt lat="36.637139" lon="-5.303067">
        <ele>381.826</ele>
        <time>2015-06-21T12:21:34Z</time>
      </trkpt>
      <trkpt lat="36.637183" lon="-5.303080">
        <ele>382.208</ele>
        <time>2015-06-21T12:21:36Z</time>
      </trkpt>
      <trkpt lat="36.637205" lon="-5.303087">
        <ele>382.608</ele>
        <time>2015-06-21T12:21:37Z</time>
      </trkpt>
      <trkpt lat="36.637223" lon="-5.303091">
        <ele>383.013</ele>
        <time>2015-06-21T12:21:38Z</time>
      </trkpt>
      <trkpt lat="36.637240" lon="-5.303093">
        <ele>383.899</ele>
        <time>2015-06-21T12:21:39Z</time>
      </trkpt>
      <trkpt lat="36.637255" lon="-5.303096">
        <ele>383.832</ele>
        <time>2015-06-21T12:21:40Z</time>
      </trkpt>
      <trkpt lat="36.637364" lon="-5.303097">
        <ele>383.822</ele>
        <time>2015-06-21T12:21:47Z</time>
      </trkpt>
      <trkpt lat="36.637434" lon="-5.303072">
        <ele>383.876</ele>
        <time>2015-06-21T12:21:51Z</time>
      </trkpt>
      <trkpt lat="36.637449" lon="-5.303070">
        <ele>383.853</ele>
        <time>2015-06-21T12:21:52Z</time>
      </trkpt>
      <trkpt lat="36.637553" lon="-5.303085">
        <ele>383.822</ele>
        <time>2015-06-21T12:21:56Z</time>
      </trkpt>
      <trkpt lat="36.637631" lon="-5.303078">
        <ele>383.824</ele>
        <time>2015-06-21T12:22:00Z</time>
      </trkpt>
      <trkpt lat="36.637766" lon="-5.303088">
        <ele>383.865</ele>
        <time>2015-06-21T12:22:05Z</time>
      </trkpt>
      <trkpt lat="36.637989" lon="-5.303087">
        <ele>383.868</ele>
        <time>2015-06-21T12:22:10Z</time>
      </trkpt>
      <trkpt lat="36.638066" lon="-5.303060">
        <ele>383.814</ele>
        <time>2015-06-21T12:22:12Z</time>
      </trkpt>
      <trkpt lat="36.638103" lon="-5.303048">
        <ele>383.408</ele>
        <time>2015-06-21T12:22:13Z</time>
      </trkpt>
      <trkpt lat="36.638139" lon="-5.303033">
        <ele>383.057</ele>
        <time>2015-06-21T12:22:14Z</time>
      </trkpt>
      <trkpt lat="36.638168" lon="-5.303021">
        <ele>382.693</ele>
        <time>2015-06-21T12:22:15Z</time>
      </trkpt>
      <trkpt lat="36.638202" lon="-5.303011">
        <ele>382.016</ele>
        <time>2015-06-21T12:22:16Z</time>
      </trkpt>
      <trkpt lat="36.638233" lon="-5.303006">
        <ele>381.666</ele>
        <time>2015-06-21T12:22:17Z</time>
      </trkpt>
      <trkpt lat="36.638351" lon="-5.302998">
        <ele>381.630</ele>
        <time>2015-06-21T12:22:20Z</time>
      </trkpt>
      <trkpt lat="36.638549" lon="-5.302945">
        <ele>381.657</ele>
        <time>2015-06-21T12:22:25Z</time>
      </trkpt>
      <trkpt lat="36.638593" lon="-5.302929">
        <ele>381.676</ele>
        <time>2015-06-21T12:22:26Z</time>
      </trkpt>
      <trkpt lat="36.638736" lon="-5.302883">
        <ele>381.698</ele>
        <time>2015-06-21T12:22:29Z</time>
      </trkpt>
      <trkpt lat="36.638782" lon="-5.302876">
        <ele>381.225</ele>
        <time>2015-06-21T12:22:30Z</time>
      </trkpt>
      <trkpt lat="36.638822" lon="-5.302865">
        <ele>380.826</ele>
        <time>2015-06-21T12:22:31Z</time>
      </trkpt>
      <trkpt lat="36.638860" lon="-5.302853">
        <ele>380.408</ele>
        <time>2015-06-21T12:22:32Z</time>
      </trkpt>
      <trkpt lat="36.638892" lon="-5.302838">
        <ele>379.808</ele>
        <time>2015-06-21T12:22:33Z</time>
      </trkpt>
      <trkpt lat="36.638917" lon="-5.302833">
        <ele>379.433</ele>
        <time>2015-06-21T12:22:34Z</time>
      </trkpt>
      <trkpt lat="36.638935" lon="-5.302837">
        <ele>379.439</ele>
        <time>2015-06-21T12:22:35Z</time>
      </trkpt>
      <trkpt lat="36.638953" lon="-5.302833">
        <ele>379.482</ele>
        <time>2015-06-21T12:22:36Z</time>
      </trkpt>
      <trkpt lat="36.639021" lon="-5.302831">
        <ele>379.472</ele>
        <time>2015-06-21T12:22:39Z</time>
      </trkpt>
      <trkpt lat="36.639171" lon="-5.302769">
        <ele>379.416</ele>
        <time>2015-06-21T12:22:46Z</time>
      </trkpt>
      <trkpt lat="36.639280" lon="-5.302740">
        <ele>379.483</ele>
        <time>2015-06-21T12:22:51Z</time>
      </trkpt>
      <trkpt lat="36.639321" lon="-5.302746">
        <ele>379.422</ele>
        <time>2015-06-21T12:22:53Z</time>
      </trkpt>
      <trkpt lat="36.639379" lon="-5.302744">
        <ele>379.494</ele>
        <time>2015-06-21T12:22:56Z</time>
      </trkpt>
      <trkpt lat="36.639494" lon="-5.302729">
        <ele>379.486</ele>
        <time>2015-06-21T12:23:01Z</time>
      </trkpt>
      <trkpt lat="36.639515" lon="-5.302732">
        <ele>379.460</ele>
        <time>2015-06-21T12:23:02Z</time>
      </trkpt>
      <trkpt lat="36.639632" lon="-5.302696">
        <ele>379.426</ele>
        <time>2015-06-21T12:23:07Z</time>
      </trkpt>
      <trkpt lat="36.639717" lon="-5.302656">
        <ele>379.408</ele>
        <time>2015-06-21T12:23:13Z</time>
      </trkpt>
      <trkpt lat="36.639786" lon="-5.302626">
        <ele>379.429</ele>
        <time>2015-06-21T12:23:18Z</time>
      </trkpt>
      <trkpt lat="36.639851" lon="-5.302635">
        <ele>379.435</ele>
        <time>2015-06-21T12:23:22Z</time>
      </trkpt>
      <trkpt lat="36.639884" lon="-5.302641">
        <ele>379.468</ele>
        <time>2015-06-21T12:23:24Z</time>
      </trkpt>
      <trkpt lat="36.639925" lon="-5.302656">
        <ele>379.498</ele>
        <time>2015-06-21T12:23:27Z</time>
      </trkpt>
      <trkpt lat="36.639959" lon="-5.302661">
        <ele>379.462</ele>
        <time>2015-06-21T12:23:29Z</time>
      </trkpt>
      <trkpt lat="36.640009" lon="-5.302636">
        <ele>379.429</ele>
        <time>2015-06-21T12:23:33Z</time>
      </trkpt>
      <trkpt lat="36.640052" lon="-5.302632">
        <ele>379.418</ele>
        <time>2015-06-21T12:23:37Z</time>
      </trkpt>
      <trkpt lat="36.640059" lon="-5.302631">
        <ele>379.460</ele>
        <time>2015-06-21T12:23:42Z</time>
      </trkpt>
      <trkpt lat="36.640076" lon="-5.302629">
        <ele>379.481</ele>
        <time>2015-06-21T12:23:44Z</time>
      </trkpt>
      <trkpt lat="36.640124" lon="-5.302650">
        <ele>379.461</ele>
        <time>2015-06-21T12:23:50Z</time>
      </trkpt>
      <trkpt lat="36.640132" lon="-5.302648">
        <ele>379.417</ele>
        <time>2015-06-21T12:23:51Z</time>
      </trkpt>
      <trkpt lat="36.640155" lon="-5.302646">
        <ele>379.408</ele>
        <time>2015-06-21T12:23:54Z</time>
      </trkpt>
      <trkpt lat="36.640175" lon="-5.302652">
        <ele>379.469</ele>
        <time>2015-06-21T12:23:56Z</time>
      </trkpt>
      <trkpt lat="36.640216" lon="-5.302663">
        <ele>379.415</ele>
        <time>2015-06-21T12:24:01Z</time>
      </trkpt>
      <trkpt lat="36.640236" lon="-5.302657">
        <ele>379.438</ele>
        <time>2015-06-21T12:24:03Z</time>
      </trkpt>
      <trkpt lat="36.640278" lon="-5.302636">
        <ele>379.478</ele>
        <time>2015-06-21T12:24:11Z</time>
      </trkpt>
      <trkpt lat="36.640316" lon="-5.302621">
        <ele>379.412</ele>
        <time>2015-06-21T12:24:17Z</time>
      </trkpt>
      <trkpt lat="36.640387" lon="-5.302598">
        <ele>379.859</ele>
        <time>2015-06-21T12:24:22Z</time>
      </trkpt>
      <trkpt lat="36.640402" lon="-5.302596">
        <ele>380.438</ele>
        <time>2015-06-21T12:24:23Z</time>
      </trkpt>
      <trkpt lat="36.640418" lon="-5.302596">
        <ele>380.830</ele>
        <time>2015-06-21T12:24:24Z</time>
      </trkpt>
      <trkpt lat="36.640435" lon="-5.302589">
        <ele>381.296</ele>
        <time>2015-06-21T12:24:25Z</time>
      </trkpt>
      <trkpt lat="36.640452" lon="-5.302588">
        <ele>381.631</ele>
        <time>2015-06-21T12:24:26Z</time>
      </trkpt>
      <trkpt lat="36.640505" lon="-5.302572">
        <ele>381.624</ele>
        <time>2015-06-21T12:24:29Z</time>
      </trkpt>
      <trkpt lat="36.640578" lon="-5.302561">
        <ele>381.608</ele>
        <time>2015-06-21T12:24:34Z</time>
      </trkpt>
      <trkpt lat="36.640597" lon="-5.302561">
        <ele>381.620</ele>
        <time>2015-06-21T12:24:35Z</time>
      </trkpt>
      <trkpt lat="36.640670" lon="-5.302539">
        <ele>382.076</ele>
        <time>2015-06-21T12:24:39Z</time>
      </trkpt>
      <trkpt lat="36.640687" lon="-5.302531">
        <ele>382.499</ele>
        <time>2015-06-21T12:24:40Z</time>
      </trkpt>
      <trkpt lat="36.640699" lon="-5.302521">
        <ele>382.879</ele>
        <time>2015-06-21T12:24:41Z</time>
      </trkpt>
      <trkpt lat="36.640709" lon="-5.302516">
        <ele>383.443</ele>
        <time>2015-06-21T12:24:42Z</time>
      </trkpt>
      <trkpt lat="36.640716" lon="-5.302511">
        <ele>383.840</ele>
        <time>2015-06-21T12:24:43Z</time>
      </trkpt>
      <trkpt lat="36.640716" lon="-5.302512">
        <ele>383.829</ele>
        <time>2015-06-21T12:24:46Z</time>
      </trkpt>
      <trkpt lat="36.640735" lon="-5.302495">
        <ele>383.881</ele>
        <time>2015-06-21T12:24:55Z</time>
      </trkpt>
      <trkpt lat="36.640734" lon="-5.302505">
        <ele>383.871</ele>
        <time>2015-06-21T12:25:02Z</time>
      </trkpt>
      <trkpt lat="36.640734" lon="-5.302505">
        <ele>383.841</ele>
        <time>2015-06-21T12:25:06Z</time>
      </trkpt>
      <trkpt lat="36.640734" lon="-5.302505">
        <ele>383.815</ele>
        <time>2015-06-21T12:25:09Z</time>
      </trkpt>
      <trkpt lat="36.640734" lon="-5.302505">
        <ele>383.808</ele>
        <time>2015-06-21T12:25:10Z</time>
      </trkpt>
      <trkpt lat="36.640734" lon="-5.302505">
        <ele>383.888</ele>
        <time>2015-06-21T12:25:17Z</time>
      </trkpt>
      <trkpt lat="36.640762" lon="-5.302493">
        <ele>383.874</ele>
        <time>2015-06-21T12:25:19Z</time>
      </trkpt>
      <trkpt lat="36.640793" lon="-5.302481">
        <ele>383.877</ele>
        <time>2015-06-21T12:25:21Z</time>
      </trkpt>
      <trkpt lat="36.640837" lon="-5.302460">
        <ele>383.867</ele>
        <time>2015-06-21T12:25:24Z</time>
      </trkpt>
      <trkpt lat="36.640856" lon="-5.302439">
        <ele>383.831</ele>
        <time>2015-06-21T12:25:26Z</time>
      </trkpt>
      <trkpt lat="36.640872" lon="-5.302429">
        <ele>383.858</ele>
        <time>2015-06-21T12:25:27Z</time>
      </trkpt>
      <trkpt lat="36.640933" lon="-5.302389">
        <ele>383.847</ele>
        <time>2015-06-21T12:25:31Z</time>
      </trkpt>
      <trkpt lat="36.640940" lon="-5.302372">
        <ele>384.269</ele>
        <time>2015-06-21T12:25:32Z</time>
      </trkpt>
      <trkpt lat="36.640951" lon="-5.302364">
        <ele>384.612</ele>
        <time>2015-06-21T12:25:33Z</time>
      </trkpt>
      <trkpt lat="36.640964" lon="-5.302347">
        <ele>385.032</ele>
        <time>2015-06-21T12:25:34Z</time>
      </trkpt>
      <trkpt lat="36.640978" lon="-5.302337">
        <ele>385.405</ele>
        <time>2015-06-21T12:25:35Z</time>
      </trkpt>
      <trkpt lat="36.640992" lon="-5.302328">
        <ele>385.808</ele>
        <time>2015-06-21T12:25:36Z</time>
      </trkpt>
      <trkpt lat="36.641011" lon="-5.302317">
        <ele>385.852</ele>
        <time>2015-06-21T12:25:37Z</time>
      </trkpt>
      <trkpt lat="36.641029" lon="-5.302306">
        <ele>385.888</ele>
        <time>2015-06-21T12:25:38Z</time>
      </trkpt>
      <trkpt lat="36.641081" lon="-5.302267">
        <ele>385.821</ele>
        <time>2015-06-21T12:25:41Z</time>
      </trkpt>
      <trkpt lat="36.641123" lon="-5.302230">
        <ele>385.891</ele>
        <time>2015-06-21T12:25:44Z</time>
      </trkpt>
      <trkpt lat="36.641134" lon="-5.302213">
        <ele>385.875</ele>
        <time>2015-06-21T12:25:45Z</time>
      </trkpt>
      <trkpt lat="36.641201" lon="-5.302114">
        <ele>385.812</ele>
        <time>2015-06-21T12:25:50Z</time>
      </trkpt>
      <trkpt lat="36.641231" lon="-5.302079">
        <ele>386.281</ele>
        <time>2015-06-21T12:25:52Z</time>
      </trkpt>
      <trkpt lat="36.641248" lon="-5.302062">
        <ele>386.823</ele>
        <time>2015-06-21T12:25:53Z</time>
      </trkpt>
      <trkpt lat="36.641267" lon="-5.302045">
        <ele>387.212</ele>
        <time>2015-06-21T12:25:54Z</time>
      </trkpt>
      <trkpt lat="36.641283" lon="-5.302024">
        <ele>387.632</ele>
        <time>2015-06-21T12:25:55Z</time>
      </trkpt>
      <trkpt lat="36.641298" lon="-5.302004">
        <ele>388.005</ele>
        <time>2015-06-21T12:25:56Z</time>
      </trkpt>
      <trkpt lat="36.641319" lon="-5.301971">
        <ele>388.008</ele>
        <time>2015-06-21T12:25:58Z</time>
      </trkpt>
      <trkpt lat="36.641393" lon="-5.301832">
        <ele>388.092</ele>
        <time>2015-06-21T12:26:05Z</time>
      </trkpt>
      <trkpt lat="36.641509" lon="-5.301672">
        <ele>388.068</ele>
        <time>2015-06-21T12:26:13Z</time>
      </trkpt>
      <trkpt lat="36.641580" lon="-5.301565">
        <ele>388.041</ele>
        <time>2015-06-21T12:26:18Z</time>
      </trkpt>
      <trkpt lat="36.641655" lon="-5.301461">
        <ele>388.071</ele>
        <time>2015-06-21T12:26:23Z</time>
      </trkpt>
      <trkpt lat="36.641671" lon="-5.301406">
        <ele>388.095</ele>
        <time>2015-06-21T12:26:26Z</time>
      </trkpt>
      <trkpt lat="36.641725" lon="-5.301300">
        <ele>388.032</ele>
        <time>2015-06-21T12:26:32Z</time>
      </trkpt>
      <trkpt lat="36.641738" lon="-5.301274">
        <ele>388.451</ele>
        <time>2015-06-21T12:26:34Z</time>
      </trkpt>
      <trkpt lat="36.641746" lon="-5.301264">
        <ele>388.833</ele>
        <time>2015-06-21T12:26:35Z</time>
      </trkpt>
      <trkpt lat="36.641756" lon="-5.301252">
        <ele>389.634</ele>
        <time>2015-06-21T12:26:36Z</time>
      </trkpt>
      <trkpt lat="36.641768" lon="-5.301239">
        <ele>390.255</ele>
        <time>2015-06-21T12:26:37Z</time>
      </trkpt>
      <trkpt lat="36.641825" lon="-5.301137">
        <ele>390.210</ele>
        <time>2015-06-21T12:26:44Z</time>
      </trkpt>
      <trkpt lat="36.641866" lon="-5.301089">
        <ele>390.608</ele>
        <time>2015-06-21T12:26:49Z</time>
      </trkpt>
      <trkpt lat="36.641875" lon="-5.301075">
        <ele>391.064</ele>
        <time>2015-06-21T12:26:50Z</time>
      </trkpt>
      <trkpt lat="36.641884" lon="-5.301065">
        <ele>391.460</ele>
        <time>2015-06-21T12:26:51Z</time>
      </trkpt>
      <trkpt lat="36.641889" lon="-5.301059">
        <ele>391.893</ele>
        <time>2015-06-21T12:26:52Z</time>
      </trkpt>
      <trkpt lat="36.641893" lon="-5.301050">
        <ele>392.263</ele>
        <time>2015-06-21T12:26:53Z</time>
      </trkpt>
      <trkpt lat="36.641908" lon="-5.301037">
        <ele>392.277</ele>
        <time>2015-06-21T12:26:55Z</time>
      </trkpt>
      <trkpt lat="36.641927" lon="-5.300997">
        <ele>392.244</ele>
        <time>2015-06-21T12:26:58Z</time>
      </trkpt>
      <trkpt lat="36.641940" lon="-5.300978">
        <ele>392.223</ele>
        <time>2015-06-21T12:27:00Z</time>
      </trkpt>
      <trkpt lat="36.641947" lon="-5.300965">
        <ele>392.285</ele>
        <time>2015-06-21T12:27:01Z</time>
      </trkpt>
      <trkpt lat="36.641980" lon="-5.300932">
        <ele>392.247</ele>
        <time>2015-06-21T12:27:07Z</time>
      </trkpt>
      <trkpt lat="36.641982" lon="-5.300924">
        <ele>392.229</ele>
        <time>2015-06-21T12:27:13Z</time>
      </trkpt>
      <trkpt lat="36.641988" lon="-5.300912">
        <ele>392.221</ele>
        <time>2015-06-21T12:27:15Z</time>
      </trkpt>
      <trkpt lat="36.641987" lon="-5.300913">
        <ele>392.208</ele>
        <time>2015-06-21T12:27:21Z</time>
      </trkpt>
      <trkpt lat="36.641982" lon="-5.300899">
        <ele>392.295</ele>
        <time>2015-06-21T12:27:27Z</time>
      </trkpt>
      <trkpt lat="36.641980" lon="-5.300899">
        <ele>392.271</ele>
        <time>2015-06-21T12:27:31Z</time>
      </trkpt>
      <trkpt lat="36.641980" lon="-5.300899">
        <ele>392.294</ele>
        <time>2015-06-21T12:27:36Z</time>
      </trkpt>
      <trkpt lat="36.641980" lon="-5.300899">
        <ele>392.254</ele>
        <time>2015-06-21T12:27:39Z</time>
      </trkpt>
      <trkpt lat="36.641980" lon="-5.300899">
        <ele>392.238</ele>
        <time>2015-06-21T12:27:42Z</time>
      </trkpt>
      <trkpt lat="36.641980" lon="-5.300899">
        <ele>392.225</ele>
        <time>2015-06-21T12:27:46Z</time>
      </trkpt>
      <trkpt lat="36.641980" lon="-5.300899">
        <ele>392.224</ele>
        <time>2015-06-21T12:27:51Z</time>
      </trkpt>
      <trkpt lat="36.641980" lon="-5.300899">
        <ele>392.256</ele>
        <time>2015-06-21T12:27:56Z</time>
      </trkpt>
      <trkpt lat="36.641980" lon="-5.300893">
        <ele>392.215</ele>
        <time>2015-06-21T12:28:01Z</time>
      </trkpt>
      <trkpt lat="36.641992" lon="-5.300873">
        <ele>392.265</ele>
        <time>2015-06-21T12:28:03Z</time>
      </trkpt>
      <trkpt lat="36.641999" lon="-5.300868">
        <ele>392.211</ele>
        <time>2015-06-21T12:28:09Z</time>
      </trkpt>
      <trkpt lat="36.642005" lon="-5.300852">
        <ele>392.208</ele>
        <time>2015-06-21T12:28:11Z</time>
      </trkpt>
      <trkpt lat="36.642027" lon="-5.300820">
        <ele>392.642</ele>
        <time>2015-06-21T12:28:13Z</time>
      </trkpt>
      <trkpt lat="36.642037" lon="-5.300806">
        <ele>393.078</ele>
        <time>2015-06-21T12:28:14Z</time>
      </trkpt>
      <trkpt lat="36.642047" lon="-5.300791">
        <ele>393.891</ele>
        <time>2015-06-21T12:28:15Z</time>
      </trkpt>
      <trkpt lat="36.642051" lon="-5.300772">
        <ele>394.241</ele>
        <time>2015-06-21T12:28:16Z</time>
      </trkpt>
      <trkpt lat="36.642061" lon="-5.300725">
        <ele>394.225</ele>
        <time>2015-06-21T12:28:19Z</time>
      </trkpt>
      <trkpt lat="36.642067" lon="-5.300698">
        <ele>394.292</ele>
        <time>2015-06-21T12:28:21Z</time>
      </trkpt>
      <trkpt lat="36.642106" lon="-5.300613">
        <ele>394.221</ele>
        <time>2015-06-21T12:28:27Z</time>
      </trkpt>
      <trkpt lat="36.642109" lon="-5.300518">
        <ele>394.253</ele>
        <time>2015-06-21T12:28:32Z</time>
      </trkpt>
      <trkpt lat="36.642113" lon="-5.300504">
        <ele>394.234</ele>
        <time>2015-06-21T12:28:33Z</time>
      </trkpt>
      <trkpt lat="36.642121" lon="-5.300471">
        <ele>394.255</ele>
        <time>2015-06-21T12:28:35Z</time>
      </trkpt>
      <trkpt lat="36.642124" lon="-5.300422">
        <ele>394.210</ele>
        <time>2015-06-21T12:28:38Z</time>
      </trkpt>
      <trkpt lat="36.642131" lon="-5.300406">
        <ele>394.208</ele>
        <time>2015-06-21T12:28:39Z</time>
      </trkpt>
      <trkpt lat="36.642137" lon="-5.300389">
        <ele>395.044</ele>
        <time>2015-06-21T12:28:40Z</time>
      </trkpt>
      <trkpt lat="36.642146" lon="-5.300372">
        <ele>395.650</ele>
        <time>2015-06-21T12:28:41Z</time>
      </trkpt>
      <trkpt lat="36.642153" lon="-5.300352">
        <ele>396.063</ele>
        <time>2015-06-21T12:28:42Z</time>
      </trkpt>
      <trkpt lat="36.642159" lon="-5.300332">
        <ele>396.493</ele>
        <time>2015-06-21T12:28:43Z</time>
      </trkpt>
      <trkpt lat="36.642165" lon="-5.300312">
        <ele>396.417</ele>
        <time>2015-06-21T12:28:44Z</time>
      </trkpt>
      <trkpt lat="36.642180" lon="-5.300275">
        <ele>396.414</ele>
        <time>2015-06-21T12:28:46Z</time>
      </trkpt>
      <trkpt lat="36.642182" lon="-5.300257">
        <ele>396.463</ele>
        <time>2015-06-21T12:28:47Z</time>
      </trkpt>
      <trkpt lat="36.642184" lon="-5.300189">
        <ele>396.435</ele>
        <time>2015-06-21T12:28:51Z</time>
      </trkpt>
      <trkpt lat="36.642223" lon="-5.300131">
        <ele>396.431</ele>
        <time>2015-06-21T12:28:56Z</time>
      </trkpt>
      <trkpt lat="36.642242" lon="-5.300113">
        <ele>396.861</ele>
        <time>2015-06-21T12:28:58Z</time>
      </trkpt>
      <trkpt lat="36.642253" lon="-5.300102">
        <ele>397.207</ele>
        <time>2015-06-21T12:28:59Z</time>
      </trkpt>
      <trkpt lat="36.642265" lon="-5.300090">
        <ele>397.608</ele>
        <time>2015-06-21T12:29:00Z</time>
      </trkpt>
      <trkpt lat="36.642275" lon="-5.300083">
        <ele>398.094</ele>
        <time>2015-06-21T12:29:01Z</time>
      </trkpt>
      <trkpt lat="36.642278" lon="-5.300071">
        <ele>398.460</ele>
        <time>2015-06-21T12:29:02Z</time>
      </trkpt>
      <trkpt lat="36.642309" lon="-5.300033">
        <ele>398.433</ele>
        <time>2015-06-21T12:29:06Z</time>
      </trkpt>
      <trkpt lat="36.642345" lon="-5.299994">
        <ele>398.893</ele>
        <time>2015-06-21T12:29:10Z</time>
      </trkpt>
      <trkpt lat="36.642354" lon="-5.299983">
        <ele>399.217</ele>
        <time>2015-06-21T12:29:11Z</time>
      </trkpt>
      <trkpt lat="36.642363" lon="-5.299974">
        <ele>399.684</ele>
        <time>2015-06-21T12:29:12Z</time>
      </trkpt>
      <trkpt lat="36.642374" lon="-5.299967">
        <ele>400.273</ele>
        <time>2015-06-21T12:29:13Z</time>
      </trkpt>
      <trkpt lat="36.642381" lon="-5.299960">
        <ele>400.665</ele>
        <time>2015-06-21T12:29:14Z</time>
      </trkpt>
      <trkpt lat="36.642393" lon="-5.299957">
        <ele>400.645</ele>
        <time>2015-06-21T12:29:15Z</time>
      </trkpt>
      <trkpt lat="36.642434" lon="-5.299949">
        <ele>400.647</ele>
        <time>2015-06-21T12:29:18Z</time>
      </trkpt>
      <trkpt lat="36.642484" lon="-5.299922">
        <ele>400.611</ele>
        <time>2015-06-21T12:29:22Z</time>
      </trkpt>
      <trkpt lat="36.642504" lon="-5.299898">
        <ele>400.608</ele>
        <time>2015-06-21T12:29:24Z</time>
      </trkpt>
      <trkpt lat="36.642517" lon="-5.299888">
        <ele>401.025</ele>
        <time>2015-06-21T12:29:25Z</time>
      </trkpt>
      <trkpt lat="36.642530" lon="-5.299878">
        <ele>401.421</ele>
        <time>2015-06-21T12:29:26Z</time>
      </trkpt>
      <trkpt lat="36.642542" lon="-5.299868">
        <ele>401.844</ele>
        <time>2015-06-21T12:29:27Z</time>
      </trkpt>
      <trkpt lat="36.642552" lon="-5.299861">
        <ele>402.244</ele>
        <time>2015-06-21T12:29:28Z</time>
      </trkpt>
      <trkpt lat="36.642559" lon="-5.299859">
        <ele>402.628</ele>
        <time>2015-06-21T12:29:29Z</time>
      </trkpt>
      <trkpt lat="36.642580" lon="-5.299861">
        <ele>402.665</ele>
        <time>2015-06-21T12:29:31Z</time>
      </trkpt>
      <trkpt lat="36.642601" lon="-5.299847">
        <ele>402.634</ele>
        <time>2015-06-21T12:29:34Z</time>
      </trkpt>
      <trkpt lat="36.642622" lon="-5.299824">
        <ele>402.676</ele>
        <time>2015-06-21T12:29:36Z</time>
      </trkpt>
      <trkpt lat="36.642646" lon="-5.299789">
        <ele>403.095</ele>
        <time>2015-06-21T12:29:38Z</time>
      </trkpt>
      <trkpt lat="36.642657" lon="-5.299769">
        <ele>403.449</ele>
        <time>2015-06-21T12:29:39Z</time>
      </trkpt>
      <trkpt lat="36.642671" lon="-5.299752">
        <ele>403.823</ele>
        <time>2015-06-21T12:29:40Z</time>
      </trkpt>
      <trkpt lat="36.642687" lon="-5.299738">
        <ele>404.208</ele>
        <time>2015-06-21T12:29:41Z</time>
      </trkpt>
      <trkpt lat="36.642702" lon="-5.299723">
        <ele>404.660</ele>
        <time>2015-06-21T12:29:42Z</time>
      </trkpt>
      <trkpt lat="36.642829" lon="-5.299634">
        <ele>404.656</ele>
        <time>2015-06-21T12:29:47Z</time>
      </trkpt>
      <trkpt lat="36.642909" lon="-5.299582">
        <ele>404.649</ele>
        <time>2015-06-21T12:29:51Z</time>
      </trkpt>
      <trkpt lat="36.642937" lon="-5.299562">
        <ele>404.659</ele>
        <time>2015-06-21T12:29:52Z</time>
      </trkpt>
      <trkpt lat="36.643012" lon="-5.299504">
        <ele>404.613</ele>
        <time>2015-06-21T12:29:55Z</time>
      </trkpt>
      <trkpt lat="36.643053" lon="-5.299475">
        <ele>404.680</ele>
        <time>2015-06-21T12:29:57Z</time>
      </trkpt>
      <trkpt lat="36.643151" lon="-5.299414">
        <ele>404.659</ele>
        <time>2015-06-21T12:30:02Z</time>
      </trkpt>
      <trkpt lat="36.643251" lon="-5.299328">
        <ele>404.631</ele>
        <time>2015-06-21T12:30:07Z</time>
      </trkpt>
      <trkpt lat="36.643383" lon="-5.299193">
        <ele>404.695</ele>
        <time>2015-06-21T12:30:12Z</time>
      </trkpt>
      <trkpt lat="36.643446" lon="-5.299144">
        <ele>404.649</ele>
        <time>2015-06-21T12:30:14Z</time>
      </trkpt>
      <trkpt lat="36.643472" lon="-5.299108">
        <ele>404.623</ele>
        <time>2015-06-21T12:30:16Z</time>
      </trkpt>
      <trkpt lat="36.643535" lon="-5.298991">
        <ele>404.608</ele>
        <time>2015-06-21T12:30:22Z</time>
      </trkpt>
      <trkpt lat="36.643663" lon="-5.298884">
        <ele>404.670</ele>
        <time>2015-06-21T12:30:27Z</time>
      </trkpt>
      <trkpt lat="36.643780" lon="-5.298795">
        <ele>404.646</ele>
        <time>2015-06-21T12:30:32Z</time>
      </trkpt>
      <trkpt lat="36.643850" lon="-5.298744">
        <ele>404.679</ele>
        <time>2015-06-21T12:30:36Z</time>
      </trkpt>
      <trkpt lat="36.643868" lon="-5.298729">
        <ele>404.669</ele>
        <time>2015-06-21T12:30:37Z</time>
      </trkpt>
      <trkpt lat="36.643938" lon="-5.298642">
        <ele>404.633</ele>
        <time>2015-06-21T12:30:41Z</time>
      </trkpt>
      <trkpt lat="36.643954" lon="-5.298621">
        <ele>404.630</ele>
        <time>2015-06-21T12:30:42Z</time>
      </trkpt>
      <trkpt lat="36.644062" lon="-5.298543">
        <ele>404.659</ele>
        <time>2015-06-21T12:30:47Z</time>
      </trkpt>
      <trkpt lat="36.644098" lon="-5.298528">
        <ele>404.651</ele>
        <time>2015-06-21T12:30:49Z</time>
      </trkpt>
      <trkpt lat="36.644205" lon="-5.298463">
        <ele>404.614</ele>
        <time>2015-06-21T12:30:56Z</time>
      </trkpt>
      <trkpt lat="36.644282" lon="-5.298378">
        <ele>404.654</ele>
        <time>2015-06-21T12:31:02Z</time>
      </trkpt>
      <trkpt lat="36.644333" lon="-5.298317">
        <ele>405.009</ele>
        <time>2015-06-21T12:31:06Z</time>
      </trkpt>
      <trkpt lat="36.644347" lon="-5.298302">
        <ele>405.608</ele>
        <time>2015-06-21T12:31:07Z</time>
      </trkpt>
      <trkpt lat="36.644357" lon="-5.298286">
        <ele>406.462</ele>
        <time>2015-06-21T12:31:08Z</time>
      </trkpt>
      <trkpt lat="36.644367" lon="-5.298275">
        <ele>406.838</ele>
        <time>2015-06-21T12:31:09Z</time>
      </trkpt>
      <trkpt lat="36.644381" lon="-5.298269">
        <ele>406.881</ele>
        <time>2015-06-21T12:31:10Z</time>
      </trkpt>
      <trkpt lat="36.644443" lon="-5.298230">
        <ele>406.861</ele>
        <time>2015-06-21T12:31:14Z</time>
      </trkpt>
      <trkpt lat="36.644528" lon="-5.298153">
        <ele>406.855</ele>
        <time>2015-06-21T12:31:19Z</time>
      </trkpt>
      <trkpt lat="36.644608" lon="-5.298028">
        <ele>406.852</ele>
        <time>2015-06-21T12:31:26Z</time>
      </trkpt>
      <trkpt lat="36.644616" lon="-5.298014">
        <ele>406.851</ele>
        <time>2015-06-21T12:31:27Z</time>
      </trkpt>
      <trkpt lat="36.644636" lon="-5.297975">
        <ele>407.213</ele>
        <time>2015-06-21T12:31:30Z</time>
      </trkpt>
      <trkpt lat="36.644640" lon="-5.297959">
        <ele>407.688</ele>
        <time>2015-06-21T12:31:31Z</time>
      </trkpt>
      <trkpt lat="36.644648" lon="-5.297947">
        <ele>408.024</ele>
        <time>2015-06-21T12:31:32Z</time>
      </trkpt>
      <trkpt lat="36.644657" lon="-5.297935">
        <ele>408.826</ele>
        <time>2015-06-21T12:31:33Z</time>
      </trkpt>
      <trkpt lat="36.644732" lon="-5.297850">
        <ele>408.808</ele>
        <time>2015-06-21T12:31:40Z</time>
      </trkpt>
      <trkpt lat="36.644781" lon="-5.297764">
        <ele>408.899</ele>
        <time>2015-06-21T12:31:46Z</time>
      </trkpt>
      <trkpt lat="36.644787" lon="-5.297751">
        <ele>408.825</ele>
        <time>2015-06-21T12:31:47Z</time>
      </trkpt>
      <trkpt lat="36.644804" lon="-5.297727">
        <ele>408.828</ele>
        <time>2015-06-21T12:31:49Z</time>
      </trkpt>
      <trkpt lat="36.644821" lon="-5.297698">
        <ele>409.298</ele>
        <time>2015-06-21T12:31:51Z</time>
      </trkpt>
      <trkpt lat="36.644831" lon="-5.297686">
        <ele>409.872</ele>
        <time>2015-06-21T12:31:52Z</time>
      </trkpt>
      <trkpt lat="36.644840" lon="-5.297669">
        <ele>410.269</ele>
        <time>2015-06-21T12:31:53Z</time>
      </trkpt>
      <trkpt lat="36.644841" lon="-5.297652">
        <ele>410.618</ele>
        <time>2015-06-21T12:31:54Z</time>
      </trkpt>
      <trkpt lat="36.644843" lon="-5.297636">
        <ele>411.030</ele>
        <time>2015-06-21T12:31:55Z</time>
      </trkpt>
      <trkpt lat="36.644849" lon="-5.297623">
        <ele>411.081</ele>
        <time>2015-06-21T12:31:56Z</time>
      </trkpt>
      <trkpt lat="36.644851" lon="-5.297594">
        <ele>411.061</ele>
        <time>2015-06-21T12:31:58Z</time>
      </trkpt>
      <trkpt lat="36.644873" lon="-5.297521">
        <ele>411.017</ele>
        <time>2015-06-21T12:32:03Z</time>
      </trkpt>
      <trkpt lat="36.644883" lon="-5.297504">
        <ele>411.408</ele>
        <time>2015-06-21T12:32:04Z</time>
      </trkpt>
      <trkpt lat="36.644891" lon="-5.297486">
        <ele>411.859</ele>
        <time>2015-06-21T12:32:05Z</time>
      </trkpt>
      <trkpt lat="36.644903" lon="-5.297471">
        <ele>412.215</ele>
        <time>2015-06-21T12:32:06Z</time>
      </trkpt>
      <trkpt lat="36.644914" lon="-5.297460">
        <ele>412.648</ele>
        <time>2015-06-21T12:32:07Z</time>
      </trkpt>
      <trkpt lat="36.644926" lon="-5.297447">
        <ele>413.228</ele>
        <time>2015-06-21T12:32:08Z</time>
      </trkpt>
      <trkpt lat="36.644956" lon="-5.297404">
        <ele>413.272</ele>
        <time>2015-06-21T12:32:11Z</time>
      </trkpt>
      <trkpt lat="36.645036" lon="-5.297256">
        <ele>413.229</ele>
        <time>2015-06-21T12:32:18Z</time>
      </trkpt>
      <trkpt lat="36.645077" lon="-5.297118">
        <ele>413.278</ele>
        <time>2015-06-21T12:32:23Z</time>
      </trkpt>
      <trkpt lat="36.645121" lon="-5.297030">
        <ele>413.260</ele>
        <time>2015-06-21T12:32:26Z</time>
      </trkpt>
      <trkpt lat="36.645138" lon="-5.296956">
        <ele>413.298</ele>
        <time>2015-06-21T12:32:28Z</time>
      </trkpt>
      <trkpt lat="36.645141" lon="-5.296904">
        <ele>413.215</ele>
        <time>2015-06-21T12:32:30Z</time>
      </trkpt>
      <trkpt lat="36.645158" lon="-5.296850">
        <ele>413.226</ele>
        <time>2015-06-21T12:32:32Z</time>
      </trkpt>
      <trkpt lat="36.645201" lon="-5.296748">
        <ele>413.208</ele>
        <time>2015-06-21T12:32:36Z</time>
      </trkpt>
      <trkpt lat="36.645230" lon="-5.296709">
        <ele>413.240</ele>
        <time>2015-06-21T12:32:38Z</time>
      </trkpt>
      <trkpt lat="36.645290" lon="-5.296632">
        <ele>413.246</ele>
        <time>2015-06-21T12:32:43Z</time>
      </trkpt>
      <trkpt lat="36.645382" lon="-5.296528">
        <ele>413.269</ele>
        <time>2015-06-21T12:32:48Z</time>
      </trkpt>
      <trkpt lat="36.645525" lon="-5.296384">
        <ele>413.299</ele>
        <time>2015-06-21T12:32:55Z</time>
      </trkpt>
      <trkpt lat="36.645578" lon="-5.296290">
        <ele>413.283</ele>
        <time>2015-06-21T12:33:00Z</time>
      </trkpt>
      <trkpt lat="36.645627" lon="-5.296258">
        <ele>413.220</ele>
        <time>2015-06-21T12:33:04Z</time>
      </trkpt>
      <trkpt lat="36.645678" lon="-5.296219">
        <ele>413.239</ele>
        <time>2015-06-21T12:33:07Z</time>
      </trkpt>
      <trkpt lat="36.645770" lon="-5.296126">
        <ele>413.231</ele>
        <time>2015-06-21T12:33:13Z</time>
      </trkpt>
      <trkpt lat="36.645856" lon="-5.296031">
        <ele>413.258</ele>
        <time>2015-06-21T12:33:18Z</time>
      </trkpt>
      <trkpt lat="36.645902" lon="-5.295968">
        <ele>413.252</ele>
        <time>2015-06-21T12:33:21Z</time>
      </trkpt>
      <trkpt lat="36.645949" lon="-5.295911">
        <ele>413.217</ele>
        <time>2015-06-21T12:33:23Z</time>
      </trkpt>
      <trkpt lat="36.646007" lon="-5.295837">
        <ele>413.208</ele>
        <time>2015-06-21T12:33:26Z</time>
      </trkpt>
      <trkpt lat="36.646026" lon="-5.295804">
        <ele>412.656</ele>
        <time>2015-06-21T12:33:27Z</time>
      </trkpt>
      <trkpt lat="36.646044" lon="-5.295767">
        <ele>412.272</ele>
        <time>2015-06-21T12:33:28Z</time>
      </trkpt>
      <trkpt lat="36.646060" lon="-5.295742">
        <ele>411.655</ele>
        <time>2015-06-21T12:33:29Z</time>
      </trkpt>
      <trkpt lat="36.646067" lon="-5.295720">
        <ele>411.215</ele>
        <time>2015-06-21T12:33:30Z</time>
      </trkpt>
      <trkpt lat="36.646078" lon="-5.295695">
        <ele>410.889</ele>
        <time>2015-06-21T12:33:31Z</time>
      </trkpt>
      <trkpt lat="36.646096" lon="-5.295675">
        <ele>410.816</ele>
        <time>2015-06-21T12:33:32Z</time>
      </trkpt>
      <trkpt lat="36.646131" lon="-5.295657">
        <ele>410.255</ele>
        <time>2015-06-21T12:33:34Z</time>
      </trkpt>
      <trkpt lat="36.646138" lon="-5.295640">
        <ele>409.847</ele>
        <time>2015-06-21T12:33:35Z</time>
      </trkpt>
      <trkpt lat="36.646150" lon="-5.295623">
        <ele>409.455</ele>
        <time>2015-06-21T12:33:36Z</time>
      </trkpt>
      <trkpt lat="36.646152" lon="-5.295609">
        <ele>408.407</ele>
        <time>2015-06-21T12:33:37Z</time>
      </trkpt>
      <trkpt lat="36.646197" lon="-5.295554">
        <ele>408.417</ele>
        <time>2015-06-21T12:33:40Z</time>
      </trkpt>
      <trkpt lat="36.646262" lon="-5.295503">
        <ele>408.008</ele>
        <time>2015-06-21T12:33:42Z</time>
      </trkpt>
      <trkpt lat="36.646300" lon="-5.295451">
        <ele>407.616</ele>
        <time>2015-06-21T12:33:43Z</time>
      </trkpt>
      <trkpt lat="36.646334" lon="-5.295399">
        <ele>407.252</ele>
        <time>2015-06-21T12:33:44Z</time>
      </trkpt>
      <trkpt lat="36.646370" lon="-5.295365">
        <ele>406.835</ele>
        <time>2015-06-21T12:33:45Z</time>
      </trkpt>
      <trkpt lat="36.646406" lon="-5.295345">
        <ele>406.495</ele>
        <time>2015-06-21T12:33:46Z</time>
      </trkpt>
      <trkpt lat="36.646437" lon="-5.295325">
        <ele>406.419</ele>
        <time>2015-06-21T12:33:47Z</time>
      </trkpt>
      <trkpt lat="36.646468" lon="-5.295287">
        <ele>406.486</ele>
        <time>2015-06-21T12:33:49Z</time>
      </trkpt>
      <trkpt lat="36.646482" lon="-5.295277">
        <ele>406.425</ele>
        <time>2015-06-21T12:33:50Z</time>
      </trkpt>
      <trkpt lat="36.646542" lon="-5.295218">
        <ele>406.487</ele>
        <time>2015-06-21T12:33:54Z</time>
      </trkpt>
      <trkpt lat="36.646577" lon="-5.295135">
        <ele>406.018</ele>
        <time>2015-06-21T12:33:56Z</time>
      </trkpt>
      <trkpt lat="36.646592" lon="-5.295085">
        <ele>405.698</ele>
        <time>2015-06-21T12:33:57Z</time>
      </trkpt>
      <trkpt lat="36.646609" lon="-5.295043">
        <ele>405.217</ele>
        <time>2015-06-21T12:33:58Z</time>
      </trkpt>
      <trkpt lat="36.646630" lon="-5.295015">
        <ele>404.808</ele>
        <time>2015-06-21T12:33:59Z</time>
      </trkpt>
      <trkpt lat="36.646644" lon="-5.294996">
        <ele>404.222</ele>
        <time>2015-06-21T12:34:00Z</time>
      </trkpt>
      <trkpt lat="36.646658" lon="-5.294985">
        <ele>403.878</ele>
        <time>2015-06-21T12:34:01Z</time>
      </trkpt>
      <trkpt lat="36.646670" lon="-5.294964">
        <ele>402.841</ele>
        <time>2015-06-21T12:34:02Z</time>
      </trkpt>
      <trkpt lat="36.646686" lon="-5.294934">
        <ele>402.221</ele>
        <time>2015-06-21T12:34:03Z</time>
      </trkpt>
      <trkpt lat="36.646716" lon="-5.294870">
        <ele>402.275</ele>
        <time>2015-06-21T12:34:06Z</time>
      </trkpt>
      <trkpt lat="36.646784" lon="-5.294772">
        <ele>401.892</ele>
        <time>2015-06-21T12:34:10Z</time>
      </trkpt>
      <trkpt lat="36.646806" lon="-5.294740">
        <ele>401.441</ele>
        <time>2015-06-21T12:34:11Z</time>
      </trkpt>
      <trkpt lat="36.646824" lon="-5.294703">
        <ele>401.013</ele>
        <time>2015-06-21T12:34:12Z</time>
      </trkpt>
      <trkpt lat="36.646844" lon="-5.294664">
        <ele>400.653</ele>
        <time>2015-06-21T12:34:13Z</time>
      </trkpt>
      <trkpt lat="36.646860" lon="-5.294622">
        <ele>400.004</ele>
        <time>2015-06-21T12:34:14Z</time>
      </trkpt>
      <trkpt lat="36.646894" lon="-5.294505">
        <ele>400.014</ele>
        <time>2015-06-21T12:34:17Z</time>
      </trkpt>
      <trkpt lat="36.647004" lon="-5.294314">
        <ele>400.008</ele>
        <time>2015-06-21T12:34:23Z</time>
      </trkpt>
      <trkpt lat="36.647053" lon="-5.294180">
        <ele>400.046</ele>
        <time>2015-06-21T12:34:27Z</time>
      </trkpt>
      <trkpt lat="36.647048" lon="-5.294159">
        <ele>400.042</ele>
        <time>2015-06-21T12:34:28Z</time>
      </trkpt>
      <trkpt lat="36.647048" lon="-5.294128">
        <ele>399.625</ele>
        <time>2015-06-21T12:34:30Z</time>
      </trkpt>
      <trkpt lat="36.647049" lon="-5.294109">
        <ele>399.235</ele>
        <time>2015-06-21T12:34:31Z</time>
      </trkpt>
      <trkpt lat="36.647053" lon="-5.294093">
        <ele>398.859</ele>
        <time>2015-06-21T12:34:32Z</time>
      </trkpt>
      <trkpt lat="36.647056" lon="-5.294083">
        <ele>398.436</ele>
        <time>2015-06-21T12:34:33Z</time>
      </trkpt>
      <trkpt lat="36.647076" lon="-5.294072">
        <ele>397.885</ele>
        <time>2015-06-21T12:34:34Z</time>
      </trkpt>
      <trkpt lat="36.647093" lon="-5.294059">
        <ele>397.817</ele>
        <time>2015-06-21T12:34:35Z</time>
      </trkpt>
      <trkpt lat="36.647131" lon="-5.293974">
        <ele>397.826</ele>
        <time>2015-06-21T12:34:38Z</time>
      </trkpt>
      <trkpt lat="36.647147" lon="-5.293939">
        <ele>397.847</ele>
        <time>2015-06-21T12:34:39Z</time>
      </trkpt>
      <trkpt lat="36.647233" lon="-5.293805">
        <ele>397.811</ele>
        <time>2015-06-21T12:34:44Z</time>
      </trkpt>
      <trkpt lat="36.647333" lon="-5.293669">
        <ele>397.808</ele>
        <time>2015-06-21T12:34:50Z</time>
      </trkpt>
      <trkpt lat="36.647352" lon="-5.293655">
        <ele>397.863</ele>
        <time>2015-06-21T12:34:51Z</time>
      </trkpt>
      <trkpt lat="36.647438" lon="-5.293561">
        <ele>397.869</ele>
        <time>2015-06-21T12:34:56Z</time>
      </trkpt>
      <trkpt lat="36.647526" lon="-5.293445">
        <ele>397.842</ele>
        <time>2015-06-21T12:35:01Z</time>
      </trkpt>
      <trkpt lat="36.647616" lon="-5.293270">
        <ele>397.862</ele>
        <time>2015-06-21T12:35:07Z</time>
      </trkpt>
      <trkpt lat="36.647647" lon="-5.293260">
        <ele>397.816</ele>
        <time>2015-06-21T12:35:08Z</time>
      </trkpt>
      <trkpt lat="36.647742" lon="-5.293204">
        <ele>397.883</ele>
        <time>2015-06-21T12:35:11Z</time>
      </trkpt>
      <trkpt lat="36.647768" lon="-5.293176">
        <ele>397.812</ele>
        <time>2015-06-21T12:35:12Z</time>
      </trkpt>
      <trkpt lat="36.647797" lon="-5.293150">
        <ele>397.444</ele>
        <time>2015-06-21T12:35:13Z</time>
      </trkpt>
      <trkpt lat="36.647819" lon="-5.293113">
        <ele>397.095</ele>
        <time>2015-06-21T12:35:14Z</time>
      </trkpt>
      <trkpt lat="36.647844" lon="-5.293084">
        <ele>396.649</ele>
        <time>2015-06-21T12:35:15Z</time>
      </trkpt>
      <trkpt lat="36.647879" lon="-5.293062">
        <ele>395.823</ele>
        <time>2015-06-21T12:35:16Z</time>
      </trkpt>
      <trkpt lat="36.648006" lon="-5.293003">
        <ele>395.808</ele>
        <time>2015-06-21T12:35:20Z</time>
      </trkpt>
      <trkpt lat="36.648045" lon="-5.292985">
        <ele>395.250</ele>
        <time>2015-06-21T12:35:21Z</time>
      </trkpt>
      <trkpt lat="36.648091" lon="-5.292978">
        <ele>394.856</ele>
        <time>2015-06-21T12:35:22Z</time>
      </trkpt>
      <trkpt lat="36.648142" lon="-5.292974">
        <ele>394.469</ele>
        <time>2015-06-21T12:35:23Z</time>
      </trkpt>
      <trkpt lat="36.648196" lon="-5.292976">
        <ele>393.849</ele>
        <time>2015-06-21T12:35:24Z</time>
      </trkpt>
      <trkpt lat="36.648250" lon="-5.292974">
        <ele>393.493</ele>
        <time>2015-06-21T12:35:25Z</time>
      </trkpt>
      <trkpt lat="36.648299" lon="-5.292963">
        <ele>393.490</ele>
        <time>2015-06-21T12:35:26Z</time>
      </trkpt>
      <trkpt lat="36.648342" lon="-5.292948">
        <ele>393.029</ele>
        <time>2015-06-21T12:35:27Z</time>
      </trkpt>
      <trkpt lat="36.648381" lon="-5.292929">
        <ele>392.641</ele>
        <time>2015-06-21T12:35:28Z</time>
      </trkpt>
      <trkpt lat="36.648416" lon="-5.292903">
        <ele>392.242</ele>
        <time>2015-06-21T12:35:29Z</time>
      </trkpt>
      <trkpt lat="36.648452" lon="-5.292878">
        <ele>391.822</ele>
        <time>2015-06-21T12:35:30Z</time>
      </trkpt>
      <trkpt lat="36.648482" lon="-5.292837">
        <ele>391.414</ele>
        <time>2015-06-21T12:35:31Z</time>
      </trkpt>
      <trkpt lat="36.648533" lon="-5.292726">
        <ele>391.408</ele>
        <time>2015-06-21T12:35:33Z</time>
      </trkpt>
      <trkpt lat="36.648603" lon="-5.292668">
        <ele>391.455</ele>
        <time>2015-06-21T12:35:36Z</time>
      </trkpt>
      <trkpt lat="36.648647" lon="-5.292645">
        <ele>391.061</ele>
        <time>2015-06-21T12:35:38Z</time>
      </trkpt>
      <trkpt lat="36.648671" lon="-5.292633">
        <ele>390.614</ele>
        <time>2015-06-21T12:35:39Z</time>
      </trkpt>
      <trkpt lat="36.648687" lon="-5.292612">
        <ele>389.654</ele>
        <time>2015-06-21T12:35:40Z</time>
      </trkpt>
      <trkpt lat="36.648698" lon="-5.292592">
        <ele>389.248</ele>
        <time>2015-06-21T12:35:41Z</time>
      </trkpt>
      <trkpt lat="36.648710" lon="-5.292566">
        <ele>388.865</ele>
        <time>2015-06-21T12:35:42Z</time>
      </trkpt>
      <trkpt lat="36.648720" lon="-5.292537">
        <ele>388.424</ele>
        <time>2015-06-21T12:35:43Z</time>
      </trkpt>
      <trkpt lat="36.648723" lon="-5.292503">
        <ele>388.036</ele>
        <time>2015-06-21T12:35:44Z</time>
      </trkpt>
      <trkpt lat="36.648727" lon="-5.292469">
        <ele>387.667</ele>
        <time>2015-06-21T12:35:45Z</time>
      </trkpt>
      <trkpt lat="36.648736" lon="-5.292430">
        <ele>387.281</ele>
        <time>2015-06-21T12:35:46Z</time>
      </trkpt>
      <trkpt lat="36.648747" lon="-5.292402">
        <ele>386.619</ele>
        <time>2015-06-21T12:35:47Z</time>
      </trkpt>
      <trkpt lat="36.648764" lon="-5.292388">
        <ele>386.008</ele>
        <time>2015-06-21T12:35:48Z</time>
      </trkpt>
      <trkpt lat="36.648775" lon="-5.292379">
        <ele>385.677</ele>
        <time>2015-06-21T12:35:49Z</time>
      </trkpt>
      <trkpt lat="36.648783" lon="-5.292372">
        <ele>385.063</ele>
        <time>2015-06-21T12:35:50Z</time>
      </trkpt>
      <trkpt lat="36.648790" lon="-5.292365">
        <ele>385.066</ele>
        <time>2015-06-21T12:35:51Z</time>
      </trkpt>
      <trkpt lat="36.648810" lon="-5.292359">
        <ele>385.096</ele>
        <time>2015-06-21T12:35:54Z</time>
      </trkpt>
      <trkpt lat="36.648832" lon="-5.292353">
        <ele>385.050</ele>
        <time>2015-06-21T12:35:56Z</time>
      </trkpt>
      <trkpt lat="36.648844" lon="-5.292345">
        <ele>385.017</ele>
        <time>2015-06-21T12:35:57Z</time>
      </trkpt>
      <trkpt lat="36.648901" lon="-5.292313">
        <ele>385.086</ele>
        <time>2015-06-21T12:36:01Z</time>
      </trkpt>
      <trkpt lat="36.648940" lon="-5.292291">
        <ele>385.028</ele>
        <time>2015-06-21T12:36:03Z</time>
      </trkpt>
      <trkpt lat="36.649025" lon="-5.292196">
        <ele>385.074</ele>
        <time>2015-06-21T12:36:09Z</time>
      </trkpt>
      <trkpt lat="36.649076" lon="-5.292096">
        <ele>385.056</ele>
        <time>2015-06-21T12:36:15Z</time>
      </trkpt>
      <trkpt lat="36.649077" lon="-5.292091">
        <ele>385.021</ele>
        <time>2015-06-21T12:36:22Z</time>
      </trkpt>
      <trkpt lat="36.649092" lon="-5.292079">
        <ele>385.008</ele>
        <time>2015-06-21T12:36:27Z</time>
      </trkpt>
      <trkpt lat="36.649092" lon="-5.292079">
        <ele>385.068</ele>
        <time>2015-06-21T12:36:32Z</time>
      </trkpt>
      <trkpt lat="36.649086" lon="-5.292074">
        <ele>385.084</ele>
        <time>2015-06-21T12:36:33Z</time>
      </trkpt>
      <trkpt lat="36.649088" lon="-5.292076">
        <ele>385.027</ele>
        <time>2015-06-21T12:36:41Z</time>
      </trkpt>
      <trkpt lat="36.649121" lon="-5.292058">
        <ele>385.067</ele>
        <time>2015-06-21T12:36:46Z</time>
      </trkpt>
      <trkpt lat="36.649136" lon="-5.291994">
        <ele>385.081</ele>
        <time>2015-06-21T12:36:49Z</time>
      </trkpt>
      <trkpt lat="36.649127" lon="-5.291972">
        <ele>385.098</ele>
        <time>2015-06-21T12:36:50Z</time>
      </trkpt>
      <trkpt lat="36.649125" lon="-5.291933">
        <ele>385.037</ele>
        <time>2015-06-21T12:36:52Z</time>
      </trkpt>
      <trkpt lat="36.649121" lon="-5.291863">
        <ele>385.039</ele>
        <time>2015-06-21T12:36:55Z</time>
      </trkpt>
      <trkpt lat="36.649128" lon="-5.291738">
        <ele>385.032</ele>
        <time>2015-06-21T12:37:01Z</time>
      </trkpt>
      <trkpt lat="36.649129" lon="-5.291717">
        <ele>385.092</ele>
        <time>2015-06-21T12:37:02Z</time>
      </trkpt>
      <trkpt lat="36.649127" lon="-5.291693">
        <ele>385.411</ele>
        <time>2015-06-21T12:37:03Z</time>
      </trkpt>
      <trkpt lat="36.649123" lon="-5.291670">
        <ele>385.808</ele>
        <time>2015-06-21T12:37:04Z</time>
      </trkpt>
      <trkpt lat="36.649119" lon="-5.291647">
        <ele>386.224</ele>
        <time>2015-06-21T12:37:05Z</time>
      </trkpt>
      <trkpt lat="36.649115" lon="-5.291625">
        <ele>386.660</ele>
        <time>2015-06-21T12:37:06Z</time>
      </trkpt>
      <trkpt lat="36.649111" lon="-5.291607">
        <ele>387.073</ele>
        <time>2015-06-21T12:37:07Z</time>
      </trkpt>
      <trkpt lat="36.649111" lon="-5.291566">
        <ele>387.033</ele>
        <time>2015-06-21T12:37:09Z</time>
      </trkpt>
      <trkpt lat="36.649119" lon="-5.291499">
        <ele>387.017</ele>
        <time>2015-06-21T12:37:12Z</time>
      </trkpt>
      <trkpt lat="36.649134" lon="-5.291453">
        <ele>387.454</ele>
        <time>2015-06-21T12:37:14Z</time>
      </trkpt>
      <trkpt lat="36.649138" lon="-5.291433">
        <ele>387.813</ele>
        <time>2015-06-21T12:37:15Z</time>
      </trkpt>
      <trkpt lat="36.649141" lon="-5.291415">
        <ele>388.215</ele>
        <time>2015-06-21T12:37:16Z</time>
      </trkpt>
      <trkpt lat="36.649137" lon="-5.291399">
        <ele>388.677</ele>
        <time>2015-06-21T12:37:17Z</time>
      </trkpt>
      <trkpt lat="36.649135" lon="-5.291380">
        <ele>389.061</ele>
        <time>2015-06-21T12:37:18Z</time>
      </trkpt>
      <trkpt lat="36.649144" lon="-5.291341">
        <ele>389.027</ele>
        <time>2015-06-21T12:37:20Z</time>
      </trkpt>
      <trkpt lat="36.649149" lon="-5.291318">
        <ele>389.008</ele>
        <time>2015-06-21T12:37:21Z</time>
      </trkpt>
      <trkpt lat="36.649155" lon="-5.291238">
        <ele>389.048</ele>
        <time>2015-06-21T12:37:25Z</time>
      </trkpt>
      <trkpt lat="36.649158" lon="-5.291213">
        <ele>389.694</ele>
        <time>2015-06-21T12:37:26Z</time>
      </trkpt>
      <trkpt lat="36.649157" lon="-5.291190">
        <ele>390.057</ele>
        <time>2015-06-21T12:37:27Z</time>
      </trkpt>
      <trkpt lat="36.649159" lon="-5.291168">
        <ele>390.427</ele>
        <time>2015-06-21T12:37:28Z</time>
      </trkpt>
      <trkpt lat="36.649163" lon="-5.291146">
        <ele>390.871</ele>
        <time>2015-06-21T12:37:29Z</time>
      </trkpt>
      <trkpt lat="36.649166" lon="-5.291123">
        <ele>391.448</ele>
        <time>2015-06-21T12:37:30Z</time>
      </trkpt>
      <trkpt lat="36.649171" lon="-5.291076">
        <ele>391.477</ele>
        <time>2015-06-21T12:37:32Z</time>
      </trkpt>
      <trkpt lat="36.649199" lon="-5.290860">
        <ele>391.439</ele>
        <time>2015-06-21T12:37:38Z</time>
      </trkpt>
      <trkpt lat="36.649284" lon="-5.290790">
        <ele>391.484</ele>
        <time>2015-06-21T12:37:41Z</time>
      </trkpt>
      <trkpt lat="36.649401" lon="-5.290811">
        <ele>391.407</ele>
        <time>2015-06-21T12:37:45Z</time>
      </trkpt>
      <trkpt lat="36.649417" lon="-5.290819">
        <ele>391.417</ele>
        <time>2015-06-21T12:37:46Z</time>
      </trkpt>
      <trkpt lat="36.649472" lon="-5.290849">
        <ele>391.408</ele>
        <time>2015-06-21T12:37:49Z</time>
      </trkpt>
      <trkpt lat="36.649535" lon="-5.290865">
        <ele>391.469</ele>
        <time>2015-06-21T12:37:51Z</time>
      </trkpt>
      <trkpt lat="36.649615" lon="-5.290953">
        <ele>391.435</ele>
        <time>2015-06-21T12:37:54Z</time>
      </trkpt>
      <trkpt lat="36.649614" lon="-5.291003">
        <ele>391.478</ele>
        <time>2015-06-21T12:37:55Z</time>
      </trkpt>
      <trkpt lat="36.649588" lon="-5.291107">
        <ele>390.888</ele>
        <time>2015-06-21T12:37:57Z</time>
      </trkpt>
      <trkpt lat="36.649561" lon="-5.291183">
        <ele>390.412</ele>
        <time>2015-06-21T12:37:58Z</time>
      </trkpt>
      <trkpt lat="36.649534" lon="-5.291266">
        <ele>390.079</ele>
        <time>2015-06-21T12:37:59Z</time>
      </trkpt>
      <trkpt lat="36.649503" lon="-5.291354">
        <ele>389.668</ele>
        <time>2015-06-21T12:38:00Z</time>
      </trkpt>
      <trkpt lat="36.649474" lon="-5.291447">
        <ele>389.270</ele>
        <time>2015-06-21T12:38:01Z</time>
      </trkpt>
      <trkpt lat="36.649450" lon="-5.291526">
        <ele>388.874</ele>
        <time>2015-06-21T12:38:02Z</time>
      </trkpt>
      <trkpt lat="36.649426" lon="-5.291589">
        <ele>388.456</ele>
        <time>2015-06-21T12:38:03Z</time>
      </trkpt>
      <trkpt lat="36.649412" lon="-5.291627">
        <ele>387.821</ele>
        <time>2015-06-21T12:38:04Z</time>
      </trkpt>
      <trkpt lat="36.649401" lon="-5.291670">
        <ele>387.208</ele>
        <time>2015-06-21T12:38:05Z</time>
      </trkpt>
      <trkpt lat="36.649392" lon="-5.291708">
        <ele>386.668</ele>
        <time>2015-06-21T12:38:06Z</time>
      </trkpt>
      <trkpt lat="36.649403" lon="-5.291739">
        <ele>386.014</ele>
        <time>2015-06-21T12:38:07Z</time>
      </trkpt>
      <trkpt lat="36.649419" lon="-5.291739">
        <ele>384.837</ele>
        <time>2015-06-21T12:38:08Z</time>
      </trkpt>
      <trkpt lat="36.649468" lon="-5.291635">
        <ele>384.487</ele>
        <time>2015-06-21T12:38:11Z</time>
      </trkpt>
      <trkpt lat="36.649495" lon="-5.291572">
        <ele>384.061</ele>
        <time>2015-06-21T12:38:12Z</time>
      </trkpt>
      <trkpt lat="36.649525" lon="-5.291493">
        <ele>383.648</ele>
        <time>2015-06-21T12:38:13Z</time>
      </trkpt>
      <trkpt lat="36.649560" lon="-5.291416">
        <ele>383.247</ele>
        <time>2015-06-21T12:38:14Z</time>
      </trkpt>
      <trkpt lat="36.649602" lon="-5.291338">
        <ele>382.889</ele>
        <time>2015-06-21T12:38:15Z</time>
      </trkpt>
      <trkpt lat="36.649645" lon="-5.291255">
        <ele>382.468</ele>
        <time>2015-06-21T12:38:16Z</time>
      </trkpt>
      <trkpt lat="36.649688" lon="-5.291167">
        <ele>382.042</ele>
        <time>2015-06-21T12:38:17Z</time>
      </trkpt>
      <trkpt lat="36.649732" lon="-5.291081">
        <ele>381.626</ele>
        <time>2015-06-21T12:38:18Z</time>
      </trkpt>
      <trkpt lat="36.649768" lon="-5.290989">
        <ele>381.208</ele>
        <time>2015-06-21T12:38:19Z</time>
      </trkpt>
      <trkpt lat="36.649790" lon="-5.290888">
        <ele>380.837</ele>
        <time>2015-06-21T12:38:20Z</time>
      </trkpt>
      <trkpt lat="36.649869" lon="-5.290703">
        <ele>380.433</ele>
        <time>2015-06-21T12:38:22Z</time>
      </trkpt>
      <trkpt lat="36.649910" lon="-5.290624">
        <ele>379.826</ele>
        <time>2015-06-21T12:38:23Z</time>
      </trkpt>
      <trkpt lat="36.649952" lon="-5.290549">
        <ele>379.456</ele>
        <time>2015-06-21T12:38:24Z</time>
      </trkpt>
      <trkpt lat="36.649983" lon="-5.290478">
        <ele>379.080</ele>
        <time>2015-06-21T12:38:25Z</time>
      </trkpt>
      <trkpt lat="36.650024" lon="-5.290407">
        <ele>378.687</ele>
        <time>2015-06-21T12:38:26Z</time>
      </trkpt>
      <trkpt lat="36.650158" lon="-5.290155">
        <ele>378.646</ele>
        <time>2015-06-21T12:38:30Z</time>
      </trkpt>
      <trkpt lat="36.650205" lon="-5.290118">
        <ele>378.618</ele>
        <time>2015-06-21T12:38:31Z</time>
      </trkpt>
      <trkpt lat="36.650421" lon="-5.290050">
        <ele>378.669</ele>
        <time>2015-06-21T12:38:35Z</time>
      </trkpt>
      <trkpt lat="36.650570" lon="-5.289988">
        <ele>378.204</ele>
        <time>2015-06-21T12:38:38Z</time>
      </trkpt>
      <trkpt lat="36.650607" lon="-5.289958">
        <ele>377.824</ele>
        <time>2015-06-21T12:38:39Z</time>
      </trkpt>
      <trkpt lat="36.650642" lon="-5.289933">
        <ele>377.408</ele>
        <time>2015-06-21T12:38:40Z</time>
      </trkpt>
      <trkpt lat="36.650681" lon="-5.289911">
        <ele>377.097</ele>
        <time>2015-06-21T12:38:41Z</time>
      </trkpt>
      <trkpt lat="36.650717" lon="-5.289898">
        <ele>376.683</ele>
        <time>2015-06-21T12:38:42Z</time>
      </trkpt>
      <trkpt lat="36.650835" lon="-5.289843">
        <ele>376.676</ele>
        <time>2015-06-21T12:38:45Z</time>
      </trkpt>
      <trkpt lat="36.651050" lon="-5.289843">
        <ele>376.666</ele>
        <time>2015-06-21T12:38:50Z</time>
      </trkpt>
      <trkpt lat="36.651216" lon="-5.289835">
        <ele>376.610</ele>
        <time>2015-06-21T12:38:54Z</time>
      </trkpt>
      <trkpt lat="36.651258" lon="-5.289829">
        <ele>376.627</ele>
        <time>2015-06-21T12:38:55Z</time>
      </trkpt>
      <trkpt lat="36.651343" lon="-5.289819">
        <ele>376.686</ele>
        <time>2015-06-21T12:38:57Z</time>
      </trkpt>
      <trkpt lat="36.651532" lon="-5.289807">
        <ele>376.668</ele>
        <time>2015-06-21T12:39:01Z</time>
      </trkpt>
      <trkpt lat="36.651621" lon="-5.289793">
        <ele>376.624</ele>
        <time>2015-06-21T12:39:03Z</time>
      </trkpt>
      <trkpt lat="36.651709" lon="-5.289775">
        <ele>376.604</ele>
        <time>2015-06-21T12:39:05Z</time>
      </trkpt>
      <trkpt lat="36.651884" lon="-5.289757">
        <ele>376.614</ele>
        <time>2015-06-21T12:39:09Z</time>
      </trkpt>
      <trkpt lat="36.652085" lon="-5.289741">
        <ele>376.608</ele>
        <time>2015-06-21T12:39:14Z</time>
      </trkpt>
      <trkpt lat="36.652184" lon="-5.289731">
        <ele>376.633</ele>
        <time>2015-06-21T12:39:16Z</time>
      </trkpt>
      <trkpt lat="36.652377" lon="-5.289670">
        <ele>376.619</ele>
        <time>2015-06-21T12:39:20Z</time>
      </trkpt>
      <trkpt lat="36.652510" lon="-5.289603">
        <ele>376.652</ele>
        <time>2015-06-21T12:39:23Z</time>
      </trkpt>
      <trkpt lat="36.652589" lon="-5.289533">
        <ele>376.672</ele>
        <time>2015-06-21T12:39:25Z</time>
      </trkpt>
      <trkpt lat="36.652730" lon="-5.289402">
        <ele>376.616</ele>
        <time>2015-06-21T12:39:30Z</time>
      </trkpt>
      <trkpt lat="36.652870" lon="-5.289291">
        <ele>376.683</ele>
        <time>2015-06-21T12:39:35Z</time>
      </trkpt>
      <trkpt lat="36.652927" lon="-5.289236">
        <ele>376.682</ele>
        <time>2015-06-21T12:39:37Z</time>
      </trkpt>
      <trkpt lat="36.652954" lon="-5.289205">
        <ele>377.094</ele>
        <time>2015-06-21T12:39:38Z</time>
      </trkpt>
      <trkpt lat="36.652985" lon="-5.289176">
        <ele>377.461</ele>
        <time>2015-06-21T12:39:39Z</time>
      </trkpt>
      <trkpt lat="36.653021" lon="-5.289154">
        <ele>377.821</ele>
        <time>2015-06-21T12:39:40Z</time>
      </trkpt>
      <trkpt lat="36.653060" lon="-5.289139">
        <ele>378.213</ele>
        <time>2015-06-21T12:39:41Z</time>
      </trkpt>
      <trkpt lat="36.653093" lon="-5.289121">
        <ele>378.608</ele>
        <time>2015-06-21T12:39:42Z</time>
      </trkpt>
      <trkpt lat="36.653127" lon="-5.289102">
        <ele>378.657</ele>
        <time>2015-06-21T12:39:43Z</time>
      </trkpt>
      <trkpt lat="36.653371" lon="-5.288951">
        <ele>378.663</ele>
        <time>2015-06-21T12:39:50Z</time>
      </trkpt>
      <trkpt lat="36.653412" lon="-5.288930">
        <ele>378.646</ele>
        <time>2015-06-21T12:39:51Z</time>
      </trkpt>
      <trkpt lat="36.653675" lon="-5.288795">
        <ele>378.636</ele>
        <time>2015-06-21T12:39:57Z</time>
      </trkpt>
      <trkpt lat="36.653713" lon="-5.288773">
        <ele>378.650</ele>
        <time>2015-06-21T12:39:58Z</time>
      </trkpt>
      <trkpt lat="36.653944" lon="-5.288609">
        <ele>378.687</ele>
        <time>2015-06-21T12:40:04Z</time>
      </trkpt>
      <trkpt lat="36.654098" lon="-5.288504">
        <ele>378.686</ele>
        <time>2015-06-21T12:40:08Z</time>
      </trkpt>
      <trkpt lat="36.654182" lon="-5.288449">
        <ele>378.638</ele>
        <time>2015-06-21T12:40:10Z</time>
      </trkpt>
      <trkpt lat="36.654429" lon="-5.288306">
        <ele>378.633</ele>
        <time>2015-06-21T12:40:16Z</time>
      </trkpt>
      <trkpt lat="36.654561" lon="-5.288237">
        <ele>378.623</ele>
        <time>2015-06-21T12:40:19Z</time>
      </trkpt>
      <trkpt lat="36.654677" lon="-5.288146">
        <ele>378.615</ele>
        <time>2015-06-21T12:40:22Z</time>
      </trkpt>
      <trkpt lat="36.654714" lon="-5.288113">
        <ele>378.608</ele>
        <time>2015-06-21T12:40:23Z</time>
      </trkpt>
      <trkpt lat="36.654905" lon="-5.287919">
        <ele>378.654</ele>
        <time>2015-06-21T12:40:29Z</time>
      </trkpt>
      <trkpt lat="36.655078" lon="-5.287792">
        <ele>378.670</ele>
        <time>2015-06-21T12:40:35Z</time>
      </trkpt>
      <trkpt lat="36.655234" lon="-5.287679">
        <ele>378.663</ele>
        <time>2015-06-21T12:40:41Z</time>
      </trkpt>
      <trkpt lat="36.655368" lon="-5.287487">
        <ele>378.653</ele>
        <time>2015-06-21T12:40:47Z</time>
      </trkpt>
      <trkpt lat="36.655558" lon="-5.287232">
        <ele>378.667</ele>
        <time>2015-06-21T12:40:57Z</time>
      </trkpt>
      <trkpt lat="36.655604" lon="-5.287111">
        <ele>378.644</ele>
        <time>2015-06-21T12:41:02Z</time>
      </trkpt>
      <trkpt lat="36.655615" lon="-5.287085">
        <ele>378.633</ele>
        <time>2015-06-21T12:41:03Z</time>
      </trkpt>
      <trkpt lat="36.655652" lon="-5.287011">
        <ele>379.085</ele>
        <time>2015-06-21T12:41:06Z</time>
      </trkpt>
      <trkpt lat="36.655659" lon="-5.286987">
        <ele>379.684</ele>
        <time>2015-06-21T12:41:07Z</time>
      </trkpt>
      <trkpt lat="36.655669" lon="-5.286965">
        <ele>380.007</ele>
        <time>2015-06-21T12:41:08Z</time>
      </trkpt>
      <trkpt lat="36.655680" lon="-5.286945">
        <ele>380.417</ele>
        <time>2015-06-21T12:41:09Z</time>
      </trkpt>
      <trkpt lat="36.655687" lon="-5.286924">
        <ele>380.808</ele>
        <time>2015-06-21T12:41:10Z</time>
      </trkpt>
      <trkpt lat="36.655697" lon="-5.286904">
        <ele>380.889</ele>
        <time>2015-06-21T12:41:11Z</time>
      </trkpt>
      <trkpt lat="36.655728" lon="-5.286854">
        <ele>381.235</ele>
        <time>2015-06-21T12:41:14Z</time>
      </trkpt>
      <trkpt lat="36.655738" lon="-5.286834">
        <ele>381.618</ele>
        <time>2015-06-21T12:41:15Z</time>
      </trkpt>
      <trkpt lat="36.655752" lon="-5.286815">
        <ele>382.058</ele>
        <time>2015-06-21T12:41:16Z</time>
      </trkpt>
      <trkpt lat="36.655769" lon="-5.286796">
        <ele>382.432</ele>
        <time>2015-06-21T12:41:17Z</time>
      </trkpt>
      <trkpt lat="36.655784" lon="-5.286776">
        <ele>383.049</ele>
        <time>2015-06-21T12:41:18Z</time>
      </trkpt>
      <trkpt lat="36.655864" lon="-5.286692">
        <ele>383.058</ele>
        <time>2015-06-21T12:41:23Z</time>
      </trkpt>
      <trkpt lat="36.655925" lon="-5.286619">
        <ele>383.830</ele>
        <time>2015-06-21T12:41:27Z</time>
      </trkpt>
      <trkpt lat="36.655937" lon="-5.286601">
        <ele>384.282</ele>
        <time>2015-06-21T12:41:28Z</time>
      </trkpt>
      <trkpt lat="36.655949" lon="-5.286580">
        <ele>384.643</ele>
        <time>2015-06-21T12:41:29Z</time>
      </trkpt>
      <trkpt lat="36.655964" lon="-5.286562">
        <ele>385.017</ele>
        <time>2015-06-21T12:41:30Z</time>
      </trkpt>
      <trkpt lat="36.656037" lon="-5.286449">
        <ele>385.008</ele>
        <time>2015-06-21T12:41:36Z</time>
      </trkpt>
      <trkpt lat="36.656113" lon="-5.286321">
        <ele>385.439</ele>
        <time>2015-06-21T12:41:41Z</time>
      </trkpt>
      <trkpt lat="36.656130" lon="-5.286294">
        <ele>386.085</ele>
        <time>2015-06-21T12:41:42Z</time>
      </trkpt>
      <trkpt lat="36.656146" lon="-5.286263">
        <ele>386.438</ele>
        <time>2015-06-21T12:41:43Z</time>
      </trkpt>
      <trkpt lat="36.656166" lon="-5.286231">
        <ele>386.868</ele>
        <time>2015-06-21T12:41:44Z</time>
      </trkpt>
      <trkpt lat="36.656186" lon="-5.286197">
        <ele>387.292</ele>
        <time>2015-06-21T12:41:45Z</time>
      </trkpt>
      <trkpt lat="36.656230" lon="-5.286124">
        <ele>387.269</ele>
        <time>2015-06-21T12:41:47Z</time>
      </trkpt>
      <trkpt lat="36.656297" lon="-5.285987">
        <ele>387.228</ele>
        <time>2015-06-21T12:41:50Z</time>
      </trkpt>
      <trkpt lat="36.656419" lon="-5.285742">
        <ele>387.240</ele>
        <time>2015-06-21T12:41:55Z</time>
      </trkpt>
      <trkpt lat="36.656514" lon="-5.285591">
        <ele>387.224</ele>
        <time>2015-06-21T12:41:58Z</time>
      </trkpt>
      <trkpt lat="36.656582" lon="-5.285490">
        <ele>386.804</ele>
        <time>2015-06-21T12:42:00Z</time>
      </trkpt>
      <trkpt lat="36.656620" lon="-5.285439">
        <ele>386.414</ele>
        <time>2015-06-21T12:42:01Z</time>
      </trkpt>
      <trkpt lat="36.656664" lon="-5.285400">
        <ele>386.008</ele>
        <time>2015-06-21T12:42:02Z</time>
      </trkpt>
      <trkpt lat="36.656712" lon="-5.285367">
        <ele>385.653</ele>
        <time>2015-06-21T12:42:03Z</time>
      </trkpt>
      <trkpt lat="36.656753" lon="-5.285325">
        <ele>385.219</ele>
        <time>2015-06-21T12:42:04Z</time>
      </trkpt>
      <trkpt lat="36.656874" lon="-5.285203">
        <ele>385.272</ele>
        <time>2015-06-21T12:42:07Z</time>
      </trkpt>
      <trkpt lat="36.656911" lon="-5.285153">
        <ele>385.292</ele>
        <time>2015-06-21T12:42:08Z</time>
      </trkpt>
      <trkpt lat="36.656974" lon="-5.285042">
        <ele>385.266</ele>
        <time>2015-06-21T12:42:10Z</time>
      </trkpt>
      <trkpt lat="36.656999" lon="-5.284977">
        <ele>385.243</ele>
        <time>2015-06-21T12:42:11Z</time>
      </trkpt>
      <trkpt lat="36.657045" lon="-5.284841">
        <ele>385.292</ele>
        <time>2015-06-21T12:42:13Z</time>
      </trkpt>
      <trkpt lat="36.657061" lon="-5.284768">
        <ele>385.244</ele>
        <time>2015-06-21T12:42:14Z</time>
      </trkpt>
      <trkpt lat="36.657095" lon="-5.284614">
        <ele>385.221</ele>
        <time>2015-06-21T12:42:16Z</time>
      </trkpt>
      <trkpt lat="36.657130" lon="-5.284451">
        <ele>384.841</ele>
        <time>2015-06-21T12:42:18Z</time>
      </trkpt>
      <trkpt lat="36.657148" lon="-5.284365">
        <ele>384.205</ele>
        <time>2015-06-21T12:42:19Z</time>
      </trkpt>
      <trkpt lat="36.657167" lon="-5.284283">
        <ele>383.808</ele>
        <time>2015-06-21T12:42:20Z</time>
      </trkpt>
      <trkpt lat="36.657194" lon="-5.284201">
        <ele>383.423</ele>
        <time>2015-06-21T12:42:21Z</time>
      </trkpt>
      <trkpt lat="36.657222" lon="-5.284121">
        <ele>383.029</ele>
        <time>2015-06-21T12:42:22Z</time>
      </trkpt>
      <trkpt lat="36.657290" lon="-5.283971">
        <ele>383.082</ele>
        <time>2015-06-21T12:42:24Z</time>
      </trkpt>
      <trkpt lat="36.657402" lon="-5.283756">
        <ele>383.042</ele>
        <time>2015-06-21T12:42:27Z</time>
      </trkpt>
      <trkpt lat="36.657436" lon="-5.283688">
        <ele>383.056</ele>
        <time>2015-06-21T12:42:28Z</time>
      </trkpt>
      <trkpt lat="36.657681" lon="-5.283269">
        <ele>383.063</ele>
        <time>2015-06-21T12:42:35Z</time>
      </trkpt>
      <trkpt lat="36.657862" lon="-5.282974">
        <ele>383.082</ele>
        <time>2015-06-21T12:42:41Z</time>
      </trkpt>
      <trkpt lat="36.657931" lon="-5.282903">
        <ele>383.054</ele>
        <time>2015-06-21T12:42:43Z</time>
      </trkpt>
      <trkpt lat="36.658087" lon="-5.282823">
        <ele>383.093</ele>
        <time>2015-06-21T12:42:47Z</time>
      </trkpt>
      <trkpt lat="36.658129" lon="-5.282804">
        <ele>383.065</ele>
        <time>2015-06-21T12:42:48Z</time>
      </trkpt>
      <trkpt lat="36.658249" lon="-5.282748">
        <ele>383.021</ele>
        <time>2015-06-21T12:42:51Z</time>
      </trkpt>
      <trkpt lat="36.658404" lon="-5.282653">
        <ele>383.008</ele>
        <time>2015-06-21T12:42:55Z</time>
      </trkpt>
      <trkpt lat="36.658544" lon="-5.282496">
        <ele>383.040</ele>
        <time>2015-06-21T12:43:00Z</time>
      </trkpt>
      <trkpt lat="36.658633" lon="-5.282419">
        <ele>383.056</ele>
        <time>2015-06-21T12:43:04Z</time>
      </trkpt>
      <trkpt lat="36.658658" lon="-5.282404">
        <ele>383.089</ele>
        <time>2015-06-21T12:43:05Z</time>
      </trkpt>
      <trkpt lat="36.658858" lon="-5.282354">
        <ele>383.049</ele>
        <time>2015-06-21T12:43:11Z</time>
      </trkpt>
      <trkpt lat="36.658963" lon="-5.282375">
        <ele>382.673</ele>
        <time>2015-06-21T12:43:14Z</time>
      </trkpt>
      <trkpt lat="36.658996" lon="-5.282376">
        <ele>382.210</ele>
        <time>2015-06-21T12:43:15Z</time>
      </trkpt>
      <trkpt lat="36.659023" lon="-5.282362">
        <ele>381.639</ele>
        <time>2015-06-21T12:43:16Z</time>
      </trkpt>
      <trkpt lat="36.659050" lon="-5.282347">
        <ele>381.251</ele>
        <time>2015-06-21T12:43:17Z</time>
      </trkpt>
      <trkpt lat="36.659081" lon="-5.282344">
        <ele>380.853</ele>
        <time>2015-06-21T12:43:18Z</time>
      </trkpt>
      <trkpt lat="36.659212" lon="-5.282304">
        <ele>380.804</ele>
        <time>2015-06-21T12:43:22Z</time>
      </trkpt>
      <trkpt lat="36.659452" lon="-5.282263">
        <ele>380.814</ele>
        <time>2015-06-21T12:43:29Z</time>
      </trkpt>
      <trkpt lat="36.659495" lon="-5.282249">
        <ele>380.808</ele>
        <time>2015-06-21T12:43:30Z</time>
      </trkpt>
      <trkpt lat="36.659666" lon="-5.282180">
        <ele>380.896</ele>
        <time>2015-06-21T12:43:35Z</time>
      </trkpt>
      <trkpt lat="36.659819" lon="-5.282161">
        <ele>380.812</ele>
        <time>2015-06-21T12:43:40Z</time>
      </trkpt>
      <trkpt lat="36.660023" lon="-5.282075">
        <ele>380.865</ele>
        <time>2015-06-21T12:43:46Z</time>
      </trkpt>
      <trkpt lat="36.660308" lon="-5.282039">
        <ele>380.855</ele>
        <time>2015-06-21T12:43:53Z</time>
      </trkpt>
      <trkpt lat="36.660630" lon="-5.281995">
        <ele>380.899</ele>
        <time>2015-06-21T12:44:00Z</time>
      </trkpt>
      <trkpt lat="36.660921" lon="-5.281956">
        <ele>380.816</ele>
        <time>2015-06-21T12:44:06Z</time>
      </trkpt>
      <trkpt lat="36.661052" lon="-5.281935">
        <ele>380.845</ele>
        <time>2015-06-21T12:44:09Z</time>
      </trkpt>
      <trkpt lat="36.661137" lon="-5.281934">
        <ele>380.897</ele>
        <time>2015-06-21T12:44:11Z</time>
      </trkpt>
      <trkpt lat="36.661224" lon="-5.281916">
        <ele>380.839</ele>
        <time>2015-06-21T12:44:13Z</time>
      </trkpt>
      <trkpt lat="36.661270" lon="-5.281909">
        <ele>380.801</ele>
        <time>2015-06-21T12:44:14Z</time>
      </trkpt>
      <trkpt lat="36.661312" lon="-5.281907">
        <ele>380.821</ele>
        <time>2015-06-21T12:44:15Z</time>
      </trkpt>
      <trkpt lat="36.661455" lon="-5.281899">
        <ele>380.808</ele>
        <time>2015-06-21T12:44:18Z</time>
      </trkpt>
      <trkpt lat="36.661632" lon="-5.281902">
        <ele>380.884</ele>
        <time>2015-06-21T12:44:22Z</time>
      </trkpt>
      <trkpt lat="36.661763" lon="-5.281885">
        <ele>380.850</ele>
        <time>2015-06-21T12:44:25Z</time>
      </trkpt>
      <trkpt lat="36.661894" lon="-5.281859">
        <ele>380.833</ele>
        <time>2015-06-21T12:44:28Z</time>
      </trkpt>
      <trkpt lat="36.661944" lon="-5.281855">
        <ele>380.843</ele>
        <time>2015-06-21T12:44:29Z</time>
      </trkpt>
      <trkpt lat="36.662249" lon="-5.281806">
        <ele>380.837</ele>
        <time>2015-06-21T12:44:35Z</time>
      </trkpt>
      <trkpt lat="36.662297" lon="-5.281790">
        <ele>380.844</ele>
        <time>2015-06-21T12:44:36Z</time>
      </trkpt>
      <trkpt lat="36.662382" lon="-5.281755">
        <ele>380.873</ele>
        <time>2015-06-21T12:44:38Z</time>
      </trkpt>
      <trkpt lat="36.662502" lon="-5.281714">
        <ele>380.875</ele>
        <time>2015-06-21T12:44:41Z</time>
      </trkpt>
      <trkpt lat="36.662588" lon="-5.281688">
        <ele>380.817</ele>
        <time>2015-06-21T12:44:43Z</time>
      </trkpt>
      <trkpt lat="36.662630" lon="-5.281674">
        <ele>380.887</ele>
        <time>2015-06-21T12:44:44Z</time>
      </trkpt>
      <trkpt lat="36.662756" lon="-5.281618">
        <ele>380.815</ele>
        <time>2015-06-21T12:44:47Z</time>
      </trkpt>
      <trkpt lat="36.662885" lon="-5.281547">
        <ele>380.808</ele>
        <time>2015-06-21T12:44:52Z</time>
      </trkpt>
      <trkpt lat="36.663036" lon="-5.281520">
        <ele>380.882</ele>
        <time>2015-06-21T12:44:56Z</time>
      </trkpt>
      <trkpt lat="36.663199" lon="-5.281451">
        <ele>380.868</ele>
        <time>2015-06-21T12:45:01Z</time>
      </trkpt>
      <trkpt lat="36.663458" lon="-5.281384">
        <ele>380.871</ele>
        <time>2015-06-21T12:45:08Z</time>
      </trkpt>
      <trkpt lat="36.663575" lon="-5.281369">
        <ele>380.871</ele>
        <time>2015-06-21T12:45:12Z</time>
      </trkpt>
      <trkpt lat="36.663674" lon="-5.281322">
        <ele>380.875</ele>
        <time>2015-06-21T12:45:18Z</time>
      </trkpt>
      <trkpt lat="36.663701" lon="-5.281290">
        <ele>380.842</ele>
        <time>2015-06-21T12:45:22Z</time>
      </trkpt>
      <trkpt lat="36.663702" lon="-5.281286">
        <ele>380.841</ele>
        <time>2015-06-21T12:45:30Z</time>
      </trkpt>
      <trkpt lat="36.663705" lon="-5.281282">
        <ele>380.893</ele>
        <time>2015-06-21T12:45:38Z</time>
      </trkpt>
      <trkpt lat="36.663705" lon="-5.281282">
        <ele>380.822</ele>
        <time>2015-06-21T12:45:47Z</time>
      </trkpt>
      <trkpt lat="36.663705" lon="-5.281282">
        <ele>380.862</ele>
        <time>2015-06-21T12:45:51Z</time>
      </trkpt>
      <trkpt lat="36.663705" lon="-5.281282">
        <ele>380.808</ele>
        <time>2015-06-21T12:45:54Z</time>
      </trkpt>
      <trkpt lat="36.663705" lon="-5.281282">
        <ele>380.808</ele>
        <time>2015-06-21T12:46:00Z</time>
      </trkpt>
      <trkpt lat="36.663705" lon="-5.281278">
        <ele>380.843</ele>
        <time>2015-06-21T12:46:06Z</time>
      </trkpt>
      <trkpt lat="36.663705" lon="-5.281278">
        <ele>380.869</ele>
        <time>2015-06-21T12:46:08Z</time>
      </trkpt>
      <trkpt lat="36.663705" lon="-5.281278">
        <ele>380.842</ele>
        <time>2015-06-21T12:46:09Z</time>
      </trkpt>
      <trkpt lat="36.663705" lon="-5.281278">
        <ele>380.812</ele>
        <time>2015-06-21T12:46:12Z</time>
      </trkpt>
      <trkpt lat="36.663705" lon="-5.281278">
        <ele>380.846</ele>
        <time>2015-06-21T12:46:17Z</time>
      </trkpt>
      <trkpt lat="36.663705" lon="-5.281278">
        <ele>380.823</ele>
        <time>2015-06-21T12:46:22Z</time>
      </trkpt>
      <trkpt lat="36.663705" lon="-5.281278">
        <ele>380.832</ele>
        <time>2015-06-21T12:46:23Z</time>
      </trkpt>
      <trkpt lat="36.663705" lon="-5.281278">
        <ele>380.844</ele>
        <time>2015-06-21T12:46:26Z</time>
      </trkpt>
      <trkpt lat="36.663705" lon="-5.281278">
        <ele>380.853</ele>
        <time>2015-06-21T12:46:29Z</time>
      </trkpt>
      <trkpt lat="36.663730" lon="-5.281273">
        <ele>380.804</ele>
        <time>2015-06-21T12:46:34Z</time>
      </trkpt>
      <trkpt lat="36.663750" lon="-5.281258">
        <ele>380.814</ele>
        <time>2015-06-21T12:46:39Z</time>
      </trkpt>
      <trkpt lat="36.663806" lon="-5.281232">
        <ele>380.808</ele>
        <time>2015-06-21T12:46:46Z</time>
      </trkpt>
      <trkpt lat="36.663842" lon="-5.281205">
        <ele>380.846</ele>
        <time>2015-06-21T12:46:51Z</time>
      </trkpt>
      <trkpt lat="36.663851" lon="-5.281201">
        <ele>380.842</ele>
        <time>2015-06-21T12:46:52Z</time>
      </trkpt>
      <trkpt lat="36.663877" lon="-5.281192">
        <ele>380.885</ele>
        <time>2015-06-21T12:46:54Z</time>
      </trkpt>
      <trkpt lat="36.663932" lon="-5.281187">
        <ele>380.895</ele>
        <time>2015-06-21T12:46:57Z</time>
      </trkpt>
      <trkpt lat="36.663991" lon="-5.281169">
        <ele>380.859</ele>
        <time>2015-06-21T12:47:02Z</time>
      </trkpt>
      <trkpt lat="36.664059" lon="-5.281112">
        <ele>380.856</ele>
        <time>2015-06-21T12:47:08Z</time>
      </trkpt>
      <trkpt lat="36.664113" lon="-5.281066">
        <ele>380.815</ele>
        <time>2015-06-21T12:47:12Z</time>
      </trkpt>
      <trkpt lat="36.664134" lon="-5.281043">
        <ele>380.857</ele>
        <time>2015-06-21T12:47:14Z</time>
      </trkpt>
      <trkpt lat="36.664166" lon="-5.281024">
        <ele>380.888</ele>
        <time>2015-06-21T12:47:17Z</time>
      </trkpt>
      <trkpt lat="36.664193" lon="-5.280992">
        <ele>380.824</ele>
        <time>2015-06-21T12:47:20Z</time>
      </trkpt>
      <trkpt lat="36.664219" lon="-5.280952">
        <ele>380.826</ele>
        <time>2015-06-21T12:47:23Z</time>
      </trkpt>
      <trkpt lat="36.664258" lon="-5.280915">
        <ele>380.808</ele>
        <time>2015-06-21T12:47:27Z</time>
      </trkpt>
      <trkpt lat="36.664269" lon="-5.280910">
        <ele>381.249</ele>
        <time>2015-06-21T12:47:28Z</time>
      </trkpt>
      <trkpt lat="36.664283" lon="-5.280902">
        <ele>381.615</ele>
        <time>2015-06-21T12:47:29Z</time>
      </trkpt>
      <trkpt lat="36.664294" lon="-5.280890">
        <ele>382.468</ele>
        <time>2015-06-21T12:47:30Z</time>
      </trkpt>
      <trkpt lat="36.664307" lon="-5.280879">
        <ele>382.818</ele>
        <time>2015-06-21T12:47:31Z</time>
      </trkpt>
      <trkpt lat="36.664320" lon="-5.280866">
        <ele>382.892</ele>
        <time>2015-06-21T12:47:32Z</time>
      </trkpt>
      <trkpt lat="36.664347" lon="-5.280857">
        <ele>382.859</ele>
        <time>2015-06-21T12:47:34Z</time>
      </trkpt>
      <trkpt lat="36.664374" lon="-5.280848">
        <ele>382.888</ele>
        <time>2015-06-21T12:47:36Z</time>
      </trkpt>
      <trkpt lat="36.664402" lon="-5.280840">
        <ele>382.880</ele>
        <time>2015-06-21T12:47:38Z</time>
      </trkpt>
      <trkpt lat="36.664463" lon="-5.280824">
        <ele>382.816</ele>
        <time>2015-06-21T12:47:42Z</time>
      </trkpt>
      <trkpt lat="36.664480" lon="-5.280817">
        <ele>382.876</ele>
        <time>2015-06-21T12:47:43Z</time>
      </trkpt>
      <trkpt lat="36.664506" lon="-5.280799">
        <ele>383.213</ele>
        <time>2015-06-21T12:47:45Z</time>
      </trkpt>
      <trkpt lat="36.664520" lon="-5.280793">
        <ele>383.608</ele>
        <time>2015-06-21T12:47:46Z</time>
      </trkpt>
      <trkpt lat="36.664534" lon="-5.280788">
        <ele>384.042</ele>
        <time>2015-06-21T12:47:47Z</time>
      </trkpt>
      <trkpt lat="36.664549" lon="-5.280784">
        <ele>384.448</ele>
        <time>2015-06-21T12:47:48Z</time>
      </trkpt>
      <trkpt lat="36.664562" lon="-5.280779">
        <ele>384.881</ele>
        <time>2015-06-21T12:47:49Z</time>
      </trkpt>
      <trkpt lat="36.664627" lon="-5.280751">
        <ele>385.451</ele>
        <time>2015-06-21T12:47:54Z</time>
      </trkpt>
      <trkpt lat="36.664640" lon="-5.280744">
        <ele>386.285</ele>
        <time>2015-06-21T12:47:55Z</time>
      </trkpt>
      <trkpt lat="36.664654" lon="-5.280737">
        <ele>386.882</ele>
        <time>2015-06-21T12:47:56Z</time>
      </trkpt>
      <trkpt lat="36.664669" lon="-5.280732">
        <ele>387.261</ele>
        <time>2015-06-21T12:47:57Z</time>
      </trkpt>
      <trkpt lat="36.664715" lon="-5.280708">
        <ele>387.213</ele>
        <time>2015-06-21T12:48:00Z</time>
      </trkpt>
      <trkpt lat="36.664759" lon="-5.280681">
        <ele>387.287</ele>
        <time>2015-06-21T12:48:03Z</time>
      </trkpt>
      <trkpt lat="36.664843" lon="-5.280628">
        <ele>387.642</ele>
        <time>2015-06-21T12:48:09Z</time>
      </trkpt>
      <trkpt lat="36.664858" lon="-5.280617">
        <ele>388.026</ele>
        <time>2015-06-21T12:48:10Z</time>
      </trkpt>
      <trkpt lat="36.664870" lon="-5.280605">
        <ele>388.408</ele>
        <time>2015-06-21T12:48:11Z</time>
      </trkpt>
      <trkpt lat="36.664879" lon="-5.280589">
        <ele>388.889</ele>
        <time>2015-06-21T12:48:12Z</time>
      </trkpt>
      <trkpt lat="36.664882" lon="-5.280572">
        <ele>389.265</ele>
        <time>2015-06-21T12:48:13Z</time>
      </trkpt>
      <trkpt lat="36.664892" lon="-5.280525">
        <ele>389.248</ele>
        <time>2015-06-21T12:48:16Z</time>
      </trkpt>
      <trkpt lat="36.664891" lon="-5.280512">
        <ele>389.278</ele>
        <time>2015-06-21T12:48:17Z</time>
      </trkpt>
      <trkpt lat="36.664871" lon="-5.280469">
        <ele>389.252</ele>
        <time>2015-06-21T12:48:20Z</time>
      </trkpt>
      <trkpt lat="36.664867" lon="-5.280419">
        <ele>389.249</ele>
        <time>2015-06-21T12:48:23Z</time>
      </trkpt>
      <trkpt lat="36.664857" lon="-5.280372">
        <ele>389.258</ele>
        <time>2015-06-21T12:48:26Z</time>
      </trkpt>
      <trkpt lat="36.664855" lon="-5.280342">
        <ele>389.680</ele>
        <time>2015-06-21T12:48:28Z</time>
      </trkpt>
      <trkpt lat="36.664853" lon="-5.280321">
        <ele>390.019</ele>
        <time>2015-06-21T12:48:29Z</time>
      </trkpt>
      <trkpt lat="36.664850" lon="-5.280296">
        <ele>390.609</ele>
        <time>2015-06-21T12:48:30Z</time>
      </trkpt>
      <trkpt lat="36.664845" lon="-5.280271">
        <ele>391.019</ele>
        <time>2015-06-21T12:48:31Z</time>
      </trkpt>
      <trkpt lat="36.664840" lon="-5.280240">
        <ele>391.408</ele>
        <time>2015-06-21T12:48:32Z</time>
      </trkpt>
      <trkpt lat="36.664848" lon="-5.280166">
        <ele>391.442</ele>
        <time>2015-06-21T12:48:34Z</time>
      </trkpt>
      <trkpt lat="36.664889" lon="-5.280125">
        <ele>391.458</ele>
        <time>2015-06-21T12:48:36Z</time>
      </trkpt>
      <trkpt lat="36.664918" lon="-5.280119">
        <ele>391.471</ele>
        <time>2015-06-21T12:48:38Z</time>
      </trkpt>
      <trkpt lat="36.664930" lon="-5.280114">
        <ele>391.461</ele>
        <time>2015-06-21T12:48:39Z</time>
      </trkpt>
      <trkpt lat="36.664944" lon="-5.280107">
        <ele>391.415</ele>
        <time>2015-06-21T12:48:40Z</time>
      </trkpt>
      <trkpt lat="36.665026" lon="-5.280057">
        <ele>391.412</ele>
        <time>2015-06-21T12:48:47Z</time>
      </trkpt>
      <trkpt lat="36.665038" lon="-5.280052">
        <ele>391.841</ele>
        <time>2015-06-21T12:48:48Z</time>
      </trkpt>
      <trkpt lat="36.665049" lon="-5.280045">
        <ele>392.283</ele>
        <time>2015-06-21T12:48:49Z</time>
      </trkpt>
      <trkpt lat="36.665061" lon="-5.280037">
        <ele>392.685</ele>
        <time>2015-06-21T12:48:50Z</time>
      </trkpt>
      <trkpt lat="36.665072" lon="-5.280028">
        <ele>393.089</ele>
        <time>2015-06-21T12:48:51Z</time>
      </trkpt>
      <trkpt lat="36.665081" lon="-5.280017">
        <ele>393.417</ele>
        <time>2015-06-21T12:48:52Z</time>
      </trkpt>
      <trkpt lat="36.665107" lon="-5.279991">
        <ele>393.408</ele>
        <time>2015-06-21T12:48:55Z</time>
      </trkpt>
      <trkpt lat="36.665119" lon="-5.279986">
        <ele>393.459</ele>
        <time>2015-06-21T12:48:56Z</time>
      </trkpt>
      <trkpt lat="36.665132" lon="-5.279982">
        <ele>393.815</ele>
        <time>2015-06-21T12:48:57Z</time>
      </trkpt>
      <trkpt lat="36.665143" lon="-5.279973">
        <ele>394.418</ele>
        <time>2015-06-21T12:48:58Z</time>
      </trkpt>
      <trkpt lat="36.665154" lon="-5.279959">
        <ele>394.888</ele>
        <time>2015-06-21T12:48:59Z</time>
      </trkpt>
      <trkpt lat="36.665167" lon="-5.279949">
        <ele>395.292</ele>
        <time>2015-06-21T12:49:00Z</time>
      </trkpt>
      <trkpt lat="36.665180" lon="-5.279938">
        <ele>395.679</ele>
        <time>2015-06-21T12:49:01Z</time>
      </trkpt>
      <trkpt lat="36.665192" lon="-5.279928">
        <ele>395.698</ele>
        <time>2015-06-21T12:49:02Z</time>
      </trkpt>
      <trkpt lat="36.665206" lon="-5.279919">
        <ele>395.670</ele>
        <time>2015-06-21T12:49:03Z</time>
      </trkpt>
      <trkpt lat="36.665273" lon="-5.279902">
        <ele>395.631</ele>
        <time>2015-06-21T12:49:08Z</time>
      </trkpt>
      <trkpt lat="36.665286" lon="-5.279896">
        <ele>396.461</ele>
        <time>2015-06-21T12:49:09Z</time>
      </trkpt>
      <trkpt lat="36.665300" lon="-5.279889">
        <ele>396.807</ele>
        <time>2015-06-21T12:49:10Z</time>
      </trkpt>
      <trkpt lat="36.665315" lon="-5.279883">
        <ele>397.208</ele>
        <time>2015-06-21T12:49:11Z</time>
      </trkpt>
      <trkpt lat="36.665330" lon="-5.279876">
        <ele>397.634</ele>
        <time>2015-06-21T12:49:12Z</time>
      </trkpt>
      <trkpt lat="36.665356" lon="-5.279857">
        <ele>397.690</ele>
        <time>2015-06-21T12:49:14Z</time>
      </trkpt>
      <trkpt lat="36.665463" lon="-5.279780">
        <ele>397.653</ele>
        <time>2015-06-21T12:49:21Z</time>
      </trkpt>
      <trkpt lat="36.665515" lon="-5.279747">
        <ele>398.293</ele>
        <time>2015-06-21T12:49:24Z</time>
      </trkpt>
      <trkpt lat="36.665534" lon="-5.279742">
        <ele>398.667</ele>
        <time>2015-06-21T12:49:25Z</time>
      </trkpt>
      <trkpt lat="36.665551" lon="-5.279731">
        <ele>399.084</ele>
        <time>2015-06-21T12:49:26Z</time>
      </trkpt>
      <trkpt lat="36.665567" lon="-5.279720">
        <ele>399.433</ele>
        <time>2015-06-21T12:49:27Z</time>
      </trkpt>
      <trkpt lat="36.665582" lon="-5.279707">
        <ele>399.835</ele>
        <time>2015-06-21T12:49:28Z</time>
      </trkpt>
      <trkpt lat="36.665672" lon="-5.279617">
        <ele>399.888</ele>
        <time>2015-06-21T12:49:33Z</time>
      </trkpt>
      <trkpt lat="36.665826" lon="-5.279487">
        <ele>399.824</ele>
        <time>2015-06-21T12:49:38Z</time>
      </trkpt>
      <trkpt lat="36.665903" lon="-5.279427">
        <ele>399.826</ele>
        <time>2015-06-21T12:49:40Z</time>
      </trkpt>
      <trkpt lat="36.666015" lon="-5.279325">
        <ele>399.808</ele>
        <time>2015-06-21T12:49:43Z</time>
      </trkpt>
      <trkpt lat="36.666111" lon="-5.279236">
        <ele>399.889</ele>
        <time>2015-06-21T12:49:46Z</time>
      </trkpt>
      <trkpt lat="36.666168" lon="-5.279187">
        <ele>399.855</ele>
        <time>2015-06-21T12:49:48Z</time>
      </trkpt>
      <trkpt lat="36.666238" lon="-5.279104">
        <ele>399.838</ele>
        <time>2015-06-21T12:49:52Z</time>
      </trkpt>
      <trkpt lat="36.666307" lon="-5.278987">
        <ele>399.828</ele>
        <time>2015-06-21T12:49:58Z</time>
      </trkpt>
      <trkpt lat="36.666370" lon="-5.278848">
        <ele>399.832</ele>
        <time>2015-06-21T12:50:04Z</time>
      </trkpt>
      <trkpt lat="36.666380" lon="-5.278829">
        <ele>400.259</ele>
        <time>2015-06-21T12:50:05Z</time>
      </trkpt>
      <trkpt lat="36.666390" lon="-5.278809">
        <ele>400.668</ele>
        <time>2015-06-21T12:50:06Z</time>
      </trkpt>
      <trkpt lat="36.666401" lon="-5.278791">
        <ele>401.090</ele>
        <time>2015-06-21T12:50:07Z</time>
      </trkpt>
      <trkpt lat="36.666411" lon="-5.278775">
        <ele>401.427</ele>
        <time>2015-06-21T12:50:08Z</time>
      </trkpt>
      <trkpt lat="36.666421" lon="-5.278763">
        <ele>401.868</ele>
        <time>2015-06-21T12:50:09Z</time>
      </trkpt>
      <trkpt lat="36.666437" lon="-5.278735">
        <ele>401.814</ele>
        <time>2015-06-21T12:50:11Z</time>
      </trkpt>
      <trkpt lat="36.666512" lon="-5.278648">
        <ele>401.808</ele>
        <time>2015-06-21T12:50:17Z</time>
      </trkpt>
      <trkpt lat="36.666545" lon="-5.278622">
        <ele>402.293</ele>
        <time>2015-06-21T12:50:19Z</time>
      </trkpt>
      <trkpt lat="36.666555" lon="-5.278614">
        <ele>402.699</ele>
        <time>2015-06-21T12:50:20Z</time>
      </trkpt>
      <trkpt lat="36.666563" lon="-5.278602">
        <ele>403.032</ele>
        <time>2015-06-21T12:50:21Z</time>
      </trkpt>
      <trkpt lat="36.666572" lon="-5.278589">
        <ele>403.412</ele>
        <time>2015-06-21T12:50:22Z</time>
      </trkpt>
      <trkpt lat="36.666583" lon="-5.278573">
        <ele>403.816</ele>
        <time>2015-06-21T12:50:23Z</time>
      </trkpt>
      <trkpt lat="36.666633" lon="-5.278528">
        <ele>403.823</ele>
        <time>2015-06-21T12:50:27Z</time>
      </trkpt>
      <trkpt lat="36.666675" lon="-5.278474">
        <ele>403.862</ele>
        <time>2015-06-21T12:50:31Z</time>
      </trkpt>
      <trkpt lat="36.666704" lon="-5.278425">
        <ele>403.864</ele>
        <time>2015-06-21T12:50:34Z</time>
      </trkpt>
      <trkpt lat="36.666730" lon="-5.278390">
        <ele>404.257</ele>
        <time>2015-06-21T12:50:37Z</time>
      </trkpt>
      <trkpt lat="36.666739" lon="-5.278378">
        <ele>404.600</ele>
        <time>2015-06-21T12:50:38Z</time>
      </trkpt>
      <trkpt lat="36.666750" lon="-5.278367">
        <ele>405.020</ele>
        <time>2015-06-21T12:50:39Z</time>
      </trkpt>
      <trkpt lat="36.666764" lon="-5.278354">
        <ele>405.408</ele>
        <time>2015-06-21T12:50:40Z</time>
      </trkpt>
      <trkpt lat="36.666776" lon="-5.278335">
        <ele>405.836</ele>
        <time>2015-06-21T12:50:41Z</time>
      </trkpt>
      <trkpt lat="36.666807" lon="-5.278278">
        <ele>405.842</ele>
        <time>2015-06-21T12:50:44Z</time>
      </trkpt>
      <trkpt lat="36.666877" lon="-5.278208">
        <ele>405.865</ele>
        <time>2015-06-21T12:50:49Z</time>
      </trkpt>
      <trkpt lat="36.666957" lon="-5.278081">
        <ele>406.265</ele>
        <time>2015-06-21T12:50:55Z</time>
      </trkpt>
      <trkpt lat="36.666975" lon="-5.278064">
        <ele>406.699</ele>
        <time>2015-06-21T12:50:56Z</time>
      </trkpt>
      <trkpt lat="36.666993" lon="-5.278047">
        <ele>407.096</ele>
        <time>2015-06-21T12:50:57Z</time>
      </trkpt>
      <trkpt lat="36.667008" lon="-5.278030">
        <ele>407.445</ele>
        <time>2015-06-21T12:50:58Z</time>
      </trkpt>
      <trkpt lat="36.667024" lon="-5.278015">
        <ele>407.867</ele>
        <time>2015-06-21T12:50:59Z</time>
      </trkpt>
      <trkpt lat="36.667062" lon="-5.277965">
        <ele>407.823</ele>
        <time>2015-06-21T12:51:02Z</time>
      </trkpt>
      <trkpt lat="36.667144" lon="-5.277816">
        <ele>407.883</ele>
        <time>2015-06-21T12:51:08Z</time>
      </trkpt>
      <trkpt lat="36.667221" lon="-5.277634">
        <ele>407.811</ele>
        <time>2015-06-21T12:51:15Z</time>
      </trkpt>
      <trkpt lat="36.667238" lon="-5.277589">
        <ele>408.408</ele>
        <time>2015-06-21T12:51:17Z</time>
      </trkpt>
      <trkpt lat="36.667245" lon="-5.277564">
        <ele>408.843</ele>
        <time>2015-06-21T12:51:18Z</time>
      </trkpt>
      <trkpt lat="36.667254" lon="-5.277541">
        <ele>409.249</ele>
        <time>2015-06-21T12:51:19Z</time>
      </trkpt>
      <trkpt lat="36.667260" lon="-5.277517">
        <ele>409.872</ele>
        <time>2015-06-21T12:51:20Z</time>
      </trkpt>
      <trkpt lat="36.667262" lon="-5.277493">
        <ele>410.212</ele>
        <time>2015-06-21T12:51:21Z</time>
      </trkpt>
      <trkpt lat="36.667271" lon="-5.277468">
        <ele>410.286</ele>
        <time>2015-06-21T12:51:22Z</time>
      </trkpt>
      <trkpt lat="36.667344" lon="-5.277317">
        <ele>410.253</ele>
        <time>2015-06-21T12:51:28Z</time>
      </trkpt>
      <trkpt lat="36.667423" lon="-5.277195">
        <ele>410.252</ele>
        <time>2015-06-21T12:51:32Z</time>
      </trkpt>
      <trkpt lat="36.667438" lon="-5.277171">
        <ele>410.234</ele>
        <time>2015-06-21T12:51:33Z</time>
      </trkpt>
      <trkpt lat="36.667492" lon="-5.277142">
        <ele>410.275</ele>
        <time>2015-06-21T12:51:37Z</time>
      </trkpt>
      <trkpt lat="36.667657" lon="-5.277113">
        <ele>410.228</ele>
        <time>2015-06-21T12:51:42Z</time>
      </trkpt>
      <trkpt lat="36.667769" lon="-5.277049">
        <ele>410.220</ele>
        <time>2015-06-21T12:51:45Z</time>
      </trkpt>
      <trkpt lat="36.667887" lon="-5.276978">
        <ele>410.208</ele>
        <time>2015-06-21T12:51:48Z</time>
      </trkpt>
      <trkpt lat="36.667963" lon="-5.276932">
        <ele>410.298</ele>
        <time>2015-06-21T12:51:50Z</time>
      </trkpt>
      <trkpt lat="36.668072" lon="-5.276885">
        <ele>410.284</ele>
        <time>2015-06-21T12:51:53Z</time>
      </trkpt>
      <trkpt lat="36.668111" lon="-5.276868">
        <ele>410.237</ele>
        <time>2015-06-21T12:51:54Z</time>
      </trkpt>
      <trkpt lat="36.668201" lon="-5.276825">
        <ele>410.287</ele>
        <time>2015-06-21T12:51:56Z</time>
      </trkpt>
      <trkpt lat="36.668309" lon="-5.276755">
        <ele>410.231</ele>
        <time>2015-06-21T12:51:59Z</time>
      </trkpt>
      <trkpt lat="36.668364" lon="-5.276674">
        <ele>410.258</ele>
        <time>2015-06-21T12:52:02Z</time>
      </trkpt>
      <trkpt lat="36.668391" lon="-5.276631">
        <ele>410.297</ele>
        <time>2015-06-21T12:52:04Z</time>
      </trkpt>
      <trkpt lat="36.668454" lon="-5.276589">
        <ele>410.229</ele>
        <time>2015-06-21T12:52:07Z</time>
      </trkpt>
      <trkpt lat="36.668479" lon="-5.276573">
        <ele>410.253</ele>
        <time>2015-06-21T12:52:08Z</time>
      </trkpt>
      <trkpt lat="36.668526" lon="-5.276539">
        <ele>410.204</ele>
        <time>2015-06-21T12:52:10Z</time>
      </trkpt>
      <trkpt lat="36.668620" lon="-5.276441">
        <ele>410.214</ele>
        <time>2015-06-21T12:52:15Z</time>
      </trkpt>
      <trkpt lat="36.668729" lon="-5.276417">
        <ele>410.208</ele>
        <time>2015-06-21T12:52:19Z</time>
      </trkpt>
      <trkpt lat="36.668942" lon="-5.276417">
        <ele>410.236</ele>
        <time>2015-06-21T12:52:25Z</time>
      </trkpt>
      <trkpt lat="36.669130" lon="-5.276438">
        <ele>410.242</ele>
        <time>2015-06-21T12:52:30Z</time>
      </trkpt>
      <trkpt lat="36.669265" lon="-5.276438">
        <ele>410.265</ele>
        <time>2015-06-21T12:52:34Z</time>
      </trkpt>
      <trkpt lat="36.669326" lon="-5.276424">
        <ele>410.215</ele>
        <time>2015-06-21T12:52:36Z</time>
      </trkpt>
      <trkpt lat="36.669540" lon="-5.276319">
        <ele>410.249</ele>
        <time>2015-06-21T12:52:42Z</time>
      </trkpt>
      <trkpt lat="36.669611" lon="-5.276284">
        <ele>410.226</ele>
        <time>2015-06-21T12:52:44Z</time>
      </trkpt>
      <trkpt lat="36.669669" lon="-5.276292">
        <ele>410.225</ele>
        <time>2015-06-21T12:52:46Z</time>
      </trkpt>
      <trkpt lat="36.669827" lon="-5.276251">
        <ele>410.237</ele>
        <time>2015-06-21T12:52:51Z</time>
      </trkpt>
      <trkpt lat="36.669984" lon="-5.276164">
        <ele>410.274</ele>
        <time>2015-06-21T12:52:55Z</time>
      </trkpt>
      <trkpt lat="36.670079" lon="-5.276125">
        <ele>410.256</ele>
        <time>2015-06-21T12:52:57Z</time>
      </trkpt>
      <trkpt lat="36.670254" lon="-5.276027">
        <ele>410.221</ele>
        <time>2015-06-21T12:53:01Z</time>
      </trkpt>
      <trkpt lat="36.670298" lon="-5.275991">
        <ele>410.208</ele>
        <time>2015-06-21T12:53:02Z</time>
      </trkpt>
      <trkpt lat="36.670431" lon="-5.275894">
        <ele>410.218</ele>
        <time>2015-06-21T12:53:05Z</time>
      </trkpt>
      <trkpt lat="36.670523" lon="-5.275843">
        <ele>410.224</ele>
        <time>2015-06-21T12:53:07Z</time>
      </trkpt>
      <trkpt lat="36.670654" lon="-5.275750">
        <ele>410.237</ele>
        <time>2015-06-21T12:53:10Z</time>
      </trkpt>
      <trkpt lat="36.670730" lon="-5.275665">
        <ele>410.247</ele>
        <time>2015-06-21T12:53:12Z</time>
      </trkpt>
      <trkpt lat="36.670869" lon="-5.275524">
        <ele>410.271</ele>
        <time>2015-06-21T12:53:16Z</time>
      </trkpt>
      <trkpt lat="36.670890" lon="-5.275478">
        <ele>410.278</ele>
        <time>2015-06-21T12:53:17Z</time>
      </trkpt>
      <trkpt lat="36.670948" lon="-5.275300">
        <ele>410.257</ele>
        <time>2015-06-21T12:53:21Z</time>
      </trkpt>
      <trkpt lat="36.671015" lon="-5.275276">
        <ele>410.259</ele>
        <time>2015-06-21T12:53:24Z</time>
      </trkpt>
      <trkpt lat="36.671053" lon="-5.275264">
        <ele>410.214</ele>
        <time>2015-06-21T12:53:27Z</time>
      </trkpt>
      <trkpt lat="36.671064" lon="-5.275264">
        <ele>410.654</ele>
        <time>2015-06-21T12:53:28Z</time>
      </trkpt>
      <trkpt lat="36.671065" lon="-5.275254">
        <ele>411.009</ele>
        <time>2015-06-21T12:53:29Z</time>
      </trkpt>
      <trkpt lat="36.671074" lon="-5.275250">
        <ele>411.408</ele>
        <time>2015-06-21T12:53:30Z</time>
      </trkpt>
      <trkpt lat="36.671086" lon="-5.275246">
        <ele>411.892</ele>
        <time>2015-06-21T12:53:31Z</time>
      </trkpt>
      <trkpt lat="36.671097" lon="-5.275244">
        <ele>412.298</ele>
        <time>2015-06-21T12:53:32Z</time>
      </trkpt>
      <trkpt lat="36.671106" lon="-5.275240">
        <ele>412.211</ele>
        <time>2015-06-21T12:53:33Z</time>
      </trkpt>
      <trkpt lat="36.671148" lon="-5.275220">
        <ele>412.211</ele>
        <time>2015-06-21T12:53:37Z</time>
      </trkpt>
      <trkpt lat="36.671163" lon="-5.275206">
        <ele>412.625</ele>
        <time>2015-06-21T12:53:39Z</time>
      </trkpt>
      <trkpt lat="36.671174" lon="-5.275197">
        <ele>413.422</ele>
        <time>2015-06-21T12:53:40Z</time>
      </trkpt>
      <trkpt lat="36.671185" lon="-5.275188">
        <ele>413.851</ele>
        <time>2015-06-21T12:53:41Z</time>
      </trkpt>
      <trkpt lat="36.671191" lon="-5.275180">
        <ele>414.233</ele>
        <time>2015-06-21T12:53:42Z</time>
      </trkpt>
      <trkpt lat="36.671203" lon="-5.275170">
        <ele>414.231</ele>
        <time>2015-06-21T12:53:45Z</time>
      </trkpt>
      <trkpt lat="36.671211" lon="-5.275166">
        <ele>414.661</ele>
        <time>2015-06-21T12:53:46Z</time>
      </trkpt>
      <trkpt lat="36.671219" lon="-5.275164">
        <ele>415.207</ele>
        <time>2015-06-21T12:53:47Z</time>
      </trkpt>
      <trkpt lat="36.671226" lon="-5.275159">
        <ele>415.608</ele>
        <time>2015-06-21T12:53:48Z</time>
      </trkpt>
      <trkpt lat="36.671236" lon="-5.275148">
        <ele>416.034</ele>
        <time>2015-06-21T12:53:49Z</time>
      </trkpt>
      <trkpt lat="36.671245" lon="-5.275137">
        <ele>416.440</ele>
        <time>2015-06-21T12:53:50Z</time>
      </trkpt>
      <trkpt lat="36.671275" lon="-5.275107">
        <ele>416.483</ele>
        <time>2015-06-21T12:53:53Z</time>
      </trkpt>
      <trkpt lat="36.671301" lon="-5.275087">
        <ele>416.473</ele>
        <time>2015-06-21T12:53:57Z</time>
      </trkpt>
      <trkpt lat="36.671305" lon="-5.275085">
        <ele>417.097</ele>
        <time>2015-06-21T12:53:58Z</time>
      </trkpt>
      <trkpt lat="36.671305" lon="-5.275085">
        <ele>417.454</ele>
        <time>2015-06-21T12:53:59Z</time>
      </trkpt>
      <trkpt lat="36.671305" lon="-5.275085">
        <ele>417.873</ele>
        <time>2015-06-21T12:54:00Z</time>
      </trkpt>
      <trkpt lat="36.671305" lon="-5.275085">
        <ele>418.215</ele>
        <time>2015-06-21T12:54:01Z</time>
      </trkpt>
      <trkpt lat="36.671305" lon="-5.275085">
        <ele>418.614</ele>
        <time>2015-06-21T12:54:02Z</time>
      </trkpt>
      <trkpt lat="36.671319" lon="-5.275089">
        <ele>418.654</ele>
        <time>2015-06-21T12:54:08Z</time>
      </trkpt>
      <trkpt lat="36.671356" lon="-5.275064">
        <ele>418.609</ele>
        <time>2015-06-21T12:54:14Z</time>
      </trkpt>
      <trkpt lat="36.671390" lon="-5.275028">
        <ele>418.608</ele>
        <time>2015-06-21T12:54:20Z</time>
      </trkpt>
      <trkpt lat="36.671419" lon="-5.275017">
        <ele>418.632</ele>
        <time>2015-06-21T12:54:26Z</time>
      </trkpt>
      <trkpt lat="36.671442" lon="-5.274975">
        <ele>418.618</ele>
        <time>2015-06-21T12:54:33Z</time>
      </trkpt>
      <trkpt lat="36.671460" lon="-5.274958">
        <ele>418.671</ele>
        <time>2015-06-21T12:54:37Z</time>
      </trkpt>
      <trkpt lat="36.671467" lon="-5.274950">
        <ele>419.061</ele>
        <time>2015-06-21T12:54:39Z</time>
      </trkpt>
      <trkpt lat="36.671468" lon="-5.274943">
        <ele>419.415</ele>
        <time>2015-06-21T12:54:40Z</time>
      </trkpt>
      <trkpt lat="36.671471" lon="-5.274939">
        <ele>419.832</ele>
        <time>2015-06-21T12:54:41Z</time>
      </trkpt>
      <trkpt lat="36.671475" lon="-5.274942">
        <ele>420.241</ele>
        <time>2015-06-21T12:54:42Z</time>
      </trkpt>
      <trkpt lat="36.671482" lon="-5.274940">
        <ele>420.623</ele>
        <time>2015-06-21T12:54:43Z</time>
      </trkpt>
      <trkpt lat="36.671510" lon="-5.274922">
        <ele>420.625</ele>
        <time>2015-06-21T12:54:48Z</time>
      </trkpt>
      <trkpt lat="36.671533" lon="-5.274896">
        <ele>421.226</ele>
        <time>2015-06-21T12:54:54Z</time>
      </trkpt>
      <trkpt lat="36.671533" lon="-5.274896">
        <ele>422.008</ele>
        <time>2015-06-21T12:54:55Z</time>
      </trkpt>
      <trkpt lat="36.671536" lon="-5.274890">
        <ele>422.408</ele>
        <time>2015-06-21T12:54:56Z</time>
      </trkpt>
      <trkpt lat="36.671541" lon="-5.274889">
        <ele>422.823</ele>
        <time>2015-06-21T12:54:57Z</time>
      </trkpt>
      <trkpt lat="36.671555" lon="-5.274888">
        <ele>422.889</ele>
        <time>2015-06-21T12:55:00Z</time>
      </trkpt>
      <trkpt lat="36.671560" lon="-5.274882">
        <ele>422.812</ele>
        <time>2015-06-21T12:55:02Z</time>
      </trkpt>
      <trkpt lat="36.671589" lon="-5.274844">
        <ele>422.872</ele>
        <time>2015-06-21T12:55:09Z</time>
      </trkpt>
      <trkpt lat="36.671591" lon="-5.274842">
        <ele>423.416</ele>
        <time>2015-06-21T12:55:10Z</time>
      </trkpt>
      <trkpt lat="36.671594" lon="-5.274836">
        <ele>423.863</ele>
        <time>2015-06-21T12:55:11Z</time>
      </trkpt>
      <trkpt lat="36.671596" lon="-5.274831">
        <ele>424.262</ele>
        <time>2015-06-21T12:55:12Z</time>
      </trkpt>
      <trkpt lat="36.671602" lon="-5.274823">
        <ele>424.664</ele>
        <time>2015-06-21T12:55:13Z</time>
      </trkpt>
      <trkpt lat="36.671607" lon="-5.274818">
        <ele>425.031</ele>
        <time>2015-06-21T12:55:14Z</time>
      </trkpt>
      <trkpt lat="36.671609" lon="-5.274807">
        <ele>425.061</ele>
        <time>2015-06-21T12:55:15Z</time>
      </trkpt>
      <trkpt lat="36.671627" lon="-5.274772">
        <ele>425.007</ele>
        <time>2015-06-21T12:55:21Z</time>
      </trkpt>
      <trkpt lat="36.671636" lon="-5.274754">
        <ele>425.008</ele>
        <time>2015-06-21T12:55:26Z</time>
      </trkpt>
      <trkpt lat="36.671639" lon="-5.274748">
        <ele>425.414</ele>
        <time>2015-06-21T12:55:27Z</time>
      </trkpt>
      <trkpt lat="36.671642" lon="-5.274744">
        <ele>425.820</ele>
        <time>2015-06-21T12:55:28Z</time>
      </trkpt>
      <trkpt lat="36.671642" lon="-5.274744">
        <ele>426.253</ele>
        <time>2015-06-21T12:55:29Z</time>
      </trkpt>
      <trkpt lat="36.671642" lon="-5.274738">
        <ele>426.633</ele>
        <time>2015-06-21T12:55:30Z</time>
      </trkpt>
      <trkpt lat="36.671642" lon="-5.274734">
        <ele>427.097</ele>
        <time>2015-06-21T12:55:31Z</time>
      </trkpt>
      <trkpt lat="36.671642" lon="-5.274734">
        <ele>427.094</ele>
        <time>2015-06-21T12:55:32Z</time>
      </trkpt>
      <trkpt lat="36.671664" lon="-5.274710">
        <ele>427.433</ele>
        <time>2015-06-21T12:55:38Z</time>
      </trkpt>
      <trkpt lat="36.671667" lon="-5.274708">
        <ele>427.875</ele>
        <time>2015-06-21T12:55:39Z</time>
      </trkpt>
      <trkpt lat="36.671673" lon="-5.274706">
        <ele>428.274</ele>
        <time>2015-06-21T12:55:40Z</time>
      </trkpt>
      <trkpt lat="36.671676" lon="-5.274703">
        <ele>428.656</ele>
        <time>2015-06-21T12:55:41Z</time>
      </trkpt>
      <trkpt lat="36.671679" lon="-5.274701">
        <ele>429.021</ele>
        <time>2015-06-21T12:55:42Z</time>
      </trkpt>
      <trkpt lat="36.671699" lon="-5.274679">
        <ele>429.008</ele>
        <time>2015-06-21T12:55:46Z</time>
      </trkpt>
      <trkpt lat="36.671723" lon="-5.274648">
        <ele>429.088</ele>
        <time>2015-06-21T12:55:52Z</time>
      </trkpt>
      <trkpt lat="36.671736" lon="-5.274628">
        <ele>429.044</ele>
        <time>2015-06-21T12:55:55Z</time>
      </trkpt>
      <trkpt lat="36.671745" lon="-5.274607">
        <ele>429.037</ele>
        <time>2015-06-21T12:55:58Z</time>
      </trkpt>
      <trkpt lat="36.671764" lon="-5.274586">
        <ele>429.677</ele>
        <time>2015-06-21T12:56:02Z</time>
      </trkpt>
      <trkpt lat="36.671769" lon="-5.274581">
        <ele>430.091</ele>
        <time>2015-06-21T12:56:03Z</time>
      </trkpt>
      <trkpt lat="36.671774" lon="-5.274573">
        <ele>430.418</ele>
        <time>2015-06-21T12:56:04Z</time>
      </trkpt>
      <trkpt lat="36.671775" lon="-5.274564">
        <ele>431.087</ele>
        <time>2015-06-21T12:56:05Z</time>
      </trkpt>
      <trkpt lat="36.671777" lon="-5.274556">
        <ele>431.449</ele>
        <time>2015-06-21T12:56:06Z</time>
      </trkpt>
      <trkpt lat="36.671780" lon="-5.274542">
        <ele>431.479</ele>
        <time>2015-06-21T12:56:09Z</time>
      </trkpt>
      <trkpt lat="36.671780" lon="-5.274529">
        <ele>431.805</ele>
        <time>2015-06-21T12:56:12Z</time>
      </trkpt>
      <trkpt lat="36.671779" lon="-5.274523">
        <ele>432.225</ele>
        <time>2015-06-21T12:56:13Z</time>
      </trkpt>
      <trkpt lat="36.671778" lon="-5.274518">
        <ele>432.608</ele>
        <time>2015-06-21T12:56:14Z</time>
      </trkpt>
      <trkpt lat="36.671778" lon="-5.274518">
        <ele>433.278</ele>
        <time>2015-06-21T12:56:15Z</time>
      </trkpt>
      <trkpt lat="36.671778" lon="-5.274518">
        <ele>433.694</ele>
        <time>2015-06-21T12:56:16Z</time>
      </trkpt>
      <trkpt lat="36.671778" lon="-5.274518">
        <ele>433.617</ele>
        <time>2015-06-21T12:56:25Z</time>
      </trkpt>
      <trkpt lat="36.671778" lon="-5.274518">
        <ele>433.647</ele>
        <time>2015-06-21T12:56:32Z</time>
      </trkpt>
      <trkpt lat="36.671778" lon="-5.274518">
        <ele>433.621</ele>
        <time>2015-06-21T12:56:34Z</time>
      </trkpt>
      <trkpt lat="36.671802" lon="-5.274488">
        <ele>433.628</ele>
        <time>2015-06-21T12:56:37Z</time>
      </trkpt>
      <trkpt lat="36.671811" lon="-5.274473">
        <ele>433.677</ele>
        <time>2015-06-21T12:56:39Z</time>
      </trkpt>
      <trkpt lat="36.671816" lon="-5.274474">
        <ele>433.629</ele>
        <time>2015-06-21T12:56:41Z</time>
      </trkpt>
      <trkpt lat="36.671816" lon="-5.274474">
        <ele>434.068</ele>
        <time>2015-06-21T12:56:42Z</time>
      </trkpt>
      <trkpt lat="36.671816" lon="-5.274474">
        <ele>434.442</ele>
        <time>2015-06-21T12:56:43Z</time>
      </trkpt>
      <trkpt lat="36.671821" lon="-5.274460">
        <ele>434.826</ele>
        <time>2015-06-21T12:56:44Z</time>
      </trkpt>
      <trkpt lat="36.671821" lon="-5.274451">
        <ele>435.208</ele>
        <time>2015-06-21T12:56:45Z</time>
      </trkpt>
      <trkpt lat="36.671825" lon="-5.274440">
        <ele>435.667</ele>
        <time>2015-06-21T12:56:46Z</time>
      </trkpt>
      <trkpt lat="36.671835" lon="-5.274415">
        <ele>435.613</ele>
        <time>2015-06-21T12:56:48Z</time>
      </trkpt>
      <trkpt lat="36.671856" lon="-5.274373">
        <ele>435.686</ele>
        <time>2015-06-21T12:56:51Z</time>
      </trkpt>
      <trkpt lat="36.671860" lon="-5.274315">
        <ele>435.696</ele>
        <time>2015-06-21T12:56:55Z</time>
      </trkpt>
      <trkpt lat="36.671873" lon="-5.274258">
        <ele>435.680</ele>
        <time>2015-06-21T12:56:59Z</time>
      </trkpt>
      <trkpt lat="36.671877" lon="-5.274234">
        <ele>435.647</ele>
        <time>2015-06-21T12:57:01Z</time>
      </trkpt>
      <trkpt lat="36.671884" lon="-5.274202">
        <ele>435.636</ele>
        <time>2015-06-21T12:57:03Z</time>
      </trkpt>
      <trkpt lat="36.671901" lon="-5.274152">
        <ele>436.098</ele>
        <time>2015-06-21T12:57:07Z</time>
      </trkpt>
      <trkpt lat="36.671902" lon="-5.274138">
        <ele>436.449</ele>
        <time>2015-06-21T12:57:08Z</time>
      </trkpt>
      <trkpt lat="36.671902" lon="-5.274124">
        <ele>436.802</ele>
        <time>2015-06-21T12:57:09Z</time>
      </trkpt>
      <trkpt lat="36.671904" lon="-5.274109">
        <ele>437.222</ele>
        <time>2015-06-21T12:57:10Z</time>
      </trkpt>
      <trkpt lat="36.671906" lon="-5.274095">
        <ele>437.608</ele>
        <time>2015-06-21T12:57:11Z</time>
      </trkpt>
      <trkpt lat="36.671921" lon="-5.274053">
        <ele>437.685</ele>
        <time>2015-06-21T12:57:14Z</time>
      </trkpt>
      <trkpt lat="36.671967" lon="-5.273979">
        <ele>437.611</ele>
        <time>2015-06-21T12:57:20Z</time>
      </trkpt>
      <trkpt lat="36.671982" lon="-5.273949">
        <ele>438.074</ele>
        <time>2015-06-21T12:57:23Z</time>
      </trkpt>
      <trkpt lat="36.671994" lon="-5.273940">
        <ele>438.624</ele>
        <time>2015-06-21T12:57:24Z</time>
      </trkpt>
      <trkpt lat="36.672003" lon="-5.273932">
        <ele>439.038</ele>
        <time>2015-06-21T12:57:26Z</time>
      </trkpt>
      <trkpt lat="36.672008" lon="-5.273929">
        <ele>439.455</ele>
        <time>2015-06-21T12:57:27Z</time>
      </trkpt>
      <trkpt lat="36.672017" lon="-5.273925">
        <ele>439.834</ele>
        <time>2015-06-21T12:57:28Z</time>
      </trkpt>
      <trkpt lat="36.672073" lon="-5.273884">
        <ele>439.876</ele>
        <time>2015-06-21T12:57:34Z</time>
      </trkpt>
      <trkpt lat="36.672094" lon="-5.273862">
        <ele>440.239</ele>
        <time>2015-06-21T12:57:36Z</time>
      </trkpt>
      <trkpt lat="36.672106" lon="-5.273855">
        <ele>440.601</ele>
        <time>2015-06-21T12:57:37Z</time>
      </trkpt>
      <trkpt lat="36.672119" lon="-5.273852">
        <ele>441.021</ele>
        <time>2015-06-21T12:57:38Z</time>
      </trkpt>
      <trkpt lat="36.672128" lon="-5.273844">
        <ele>441.408</ele>
        <time>2015-06-21T12:57:39Z</time>
      </trkpt>
      <trkpt lat="36.672141" lon="-5.273834">
        <ele>441.874</ele>
        <time>2015-06-21T12:57:40Z</time>
      </trkpt>
      <trkpt lat="36.672210" lon="-5.273737">
        <ele>441.810</ele>
        <time>2015-06-21T12:57:46Z</time>
      </trkpt>
      <trkpt lat="36.672301" lon="-5.273600">
        <ele>441.893</ele>
        <time>2015-06-21T12:57:53Z</time>
      </trkpt>
      <trkpt lat="36.672389" lon="-5.273480">
        <ele>441.883</ele>
        <time>2015-06-21T12:57:58Z</time>
      </trkpt>
      <trkpt lat="36.672503" lon="-5.273308">
        <ele>441.857</ele>
        <time>2015-06-21T12:58:02Z</time>
      </trkpt>
      <trkpt lat="36.672583" lon="-5.273234">
        <ele>441.854</ele>
        <time>2015-06-21T12:58:04Z</time>
      </trkpt>
      <trkpt lat="36.672628" lon="-5.273208">
        <ele>441.813</ele>
        <time>2015-06-21T12:58:05Z</time>
      </trkpt>
      <trkpt lat="36.672708" lon="-5.273185">
        <ele>441.875</ele>
        <time>2015-06-21T12:58:07Z</time>
      </trkpt>
      <trkpt lat="36.672738" lon="-5.273173">
        <ele>441.863</ele>
        <time>2015-06-21T12:58:08Z</time>
      </trkpt>
      <trkpt lat="36.672842" lon="-5.273113">
        <ele>441.844</ele>
        <time>2015-06-21T12:58:13Z</time>
      </trkpt>
      <trkpt lat="36.672889" lon="-5.273057">
        <ele>441.818</ele>
        <time>2015-06-21T12:58:16Z</time>
      </trkpt>
      <trkpt lat="36.672951" lon="-5.273002">
        <ele>441.808</ele>
        <time>2015-06-21T12:58:18Z</time>
      </trkpt>
      <trkpt lat="36.673057" lon="-5.272958">
        <ele>441.857</ele>
        <time>2015-06-21T12:58:20Z</time>
      </trkpt>
      <trkpt lat="36.673110" lon="-5.272926">
        <ele>441.873</ele>
        <time>2015-06-21T12:58:21Z</time>
      </trkpt>
      <trkpt lat="36.673156" lon="-5.272894">
        <ele>441.816</ele>
        <time>2015-06-21T12:58:22Z</time>
      </trkpt>
      <trkpt lat="36.673245" lon="-5.272824">
        <ele>441.486</ele>
        <time>2015-06-21T12:58:24Z</time>
      </trkpt>
      <trkpt lat="36.673283" lon="-5.272781">
        <ele>440.870</ele>
        <time>2015-06-21T12:58:25Z</time>
      </trkpt>
      <trkpt lat="36.673319" lon="-5.272739">
        <ele>440.427</ele>
        <time>2015-06-21T12:58:26Z</time>
      </trkpt>
      <trkpt lat="36.673348" lon="-5.272706">
        <ele>440.026</ele>
        <time>2015-06-21T12:58:27Z</time>
      </trkpt>
      <trkpt lat="36.673385" lon="-5.272715">
        <ele>439.698</ele>
        <time>2015-06-21T12:58:28Z</time>
      </trkpt>
      <trkpt lat="36.673427" lon="-5.272724">
        <ele>439.287</ele>
        <time>2015-06-21T12:58:29Z</time>
      </trkpt>
      <trkpt lat="36.673477" lon="-5.272723">
        <ele>438.642</ele>
        <time>2015-06-21T12:58:30Z</time>
      </trkpt>
      <trkpt lat="36.673524" lon="-5.272701">
        <ele>438.226</ele>
        <time>2015-06-21T12:58:31Z</time>
      </trkpt>
      <trkpt lat="36.673576" lon="-5.272686">
        <ele>437.808</ele>
        <time>2015-06-21T12:58:32Z</time>
      </trkpt>
      <trkpt lat="36.673629" lon="-5.272687">
        <ele>437.479</ele>
        <time>2015-06-21T12:58:33Z</time>
      </trkpt>
      <trkpt lat="36.673718" lon="-5.272698">
        <ele>437.415</ele>
        <time>2015-06-21T12:58:35Z</time>
      </trkpt>
      <trkpt lat="36.673744" lon="-5.272697">
        <ele>437.058</ele>
        <time>2015-06-21T12:58:36Z</time>
      </trkpt>
      <trkpt lat="36.673763" lon="-5.272693">
        <ele>436.648</ele>
        <time>2015-06-21T12:58:37Z</time>
      </trkpt>
      <trkpt lat="36.673779" lon="-5.272689">
        <ele>435.612</ele>
        <time>2015-06-21T12:58:38Z</time>
      </trkpt>
      <trkpt lat="36.673790" lon="-5.272679">
        <ele>435.279</ele>
        <time>2015-06-21T12:58:39Z</time>
      </trkpt>
      <trkpt lat="36.673810" lon="-5.272664">
        <ele>435.248</ele>
        <time>2015-06-21T12:58:41Z</time>
      </trkpt>
      <trkpt lat="36.673853" lon="-5.272646">
        <ele>435.290</ele>
        <time>2015-06-21T12:58:44Z</time>
      </trkpt>
      <trkpt lat="36.673863" lon="-5.272636">
        <ele>435.238</ele>
        <time>2015-06-21T12:58:45Z</time>
      </trkpt>
      <trkpt lat="36.673869" lon="-5.272626">
        <ele>435.670</ele>
        <time>2015-06-21T12:58:46Z</time>
      </trkpt>
      <trkpt lat="36.673877" lon="-5.272614">
        <ele>436.017</ele>
        <time>2015-06-21T12:58:47Z</time>
      </trkpt>
      <trkpt lat="36.673887" lon="-5.272604">
        <ele>436.608</ele>
        <time>2015-06-21T12:58:48Z</time>
      </trkpt>
      <trkpt lat="36.673893" lon="-5.272593">
        <ele>437.054</ele>
        <time>2015-06-21T12:58:49Z</time>
      </trkpt>
      <trkpt lat="36.673900" lon="-5.272584">
        <ele>437.440</ele>
        <time>2015-06-21T12:58:50Z</time>
      </trkpt>
      <trkpt lat="36.673905" lon="-5.272576">
        <ele>437.423</ele>
        <time>2015-06-21T12:58:51Z</time>
      </trkpt>
      <trkpt lat="36.673924" lon="-5.272556">
        <ele>437.463</ele>
        <time>2015-06-21T12:58:54Z</time>
      </trkpt>
      <trkpt lat="36.673938" lon="-5.272518">
        <ele>437.447</ele>
        <time>2015-06-21T12:58:57Z</time>
      </trkpt>
      <trkpt lat="36.673944" lon="-5.272505">
        <ele>437.884</ele>
        <time>2015-06-21T12:58:58Z</time>
      </trkpt>
      <trkpt lat="36.673946" lon="-5.272495">
        <ele>438.253</ele>
        <time>2015-06-21T12:58:59Z</time>
      </trkpt>
      <trkpt lat="36.673951" lon="-5.272488">
        <ele>438.675</ele>
        <time>2015-06-21T12:59:00Z</time>
      </trkpt>
      <trkpt lat="36.673958" lon="-5.272478">
        <ele>439.098</ele>
        <time>2015-06-21T12:59:01Z</time>
      </trkpt>
      <trkpt lat="36.673965" lon="-5.272468">
        <ele>439.415</ele>
        <time>2015-06-21T12:59:02Z</time>
      </trkpt>
      <trkpt lat="36.673973" lon="-5.272458">
        <ele>439.426</ele>
        <time>2015-06-21T12:59:03Z</time>
      </trkpt>
      <trkpt lat="36.673984" lon="-5.272430">
        <ele>439.408</ele>
        <time>2015-06-21T12:59:06Z</time>
      </trkpt>
      <trkpt lat="36.673983" lon="-5.272411">
        <ele>439.480</ele>
        <time>2015-06-21T12:59:08Z</time>
      </trkpt>
      <trkpt lat="36.673986" lon="-5.272399">
        <ele>439.446</ele>
        <time>2015-06-21T12:59:09Z</time>
      </trkpt>
      <trkpt lat="36.673984" lon="-5.272370">
        <ele>439.849</ele>
        <time>2015-06-21T12:59:11Z</time>
      </trkpt>
      <trkpt lat="36.673989" lon="-5.272357">
        <ele>440.239</ele>
        <time>2015-06-21T12:59:12Z</time>
      </trkpt>
      <trkpt lat="36.673993" lon="-5.272341">
        <ele>440.623</ele>
        <time>2015-06-21T12:59:13Z</time>
      </trkpt>
      <trkpt lat="36.673995" lon="-5.272326">
        <ele>441.030</ele>
        <time>2015-06-21T12:59:14Z</time>
      </trkpt>
      <trkpt lat="36.673997" lon="-5.272314">
        <ele>441.469</ele>
        <time>2015-06-21T12:59:15Z</time>
      </trkpt>
      <trkpt lat="36.674010" lon="-5.272298">
        <ele>441.471</ele>
        <time>2015-06-21T12:59:17Z</time>
      </trkpt>
      <trkpt lat="36.674026" lon="-5.272285">
        <ele>441.485</ele>
        <time>2015-06-21T12:59:20Z</time>
      </trkpt>
      <trkpt lat="36.674034" lon="-5.272270">
        <ele>441.489</ele>
        <time>2015-06-21T12:59:21Z</time>
      </trkpt>
      <trkpt lat="36.674043" lon="-5.272248">
        <ele>441.817</ele>
        <time>2015-06-21T12:59:23Z</time>
      </trkpt>
      <trkpt lat="36.674048" lon="-5.272235">
        <ele>442.208</ele>
        <time>2015-06-21T12:59:24Z</time>
      </trkpt>
      <trkpt lat="36.674054" lon="-5.272221">
        <ele>442.879</ele>
        <time>2015-06-21T12:59:25Z</time>
      </trkpt>
      <trkpt lat="36.674061" lon="-5.272211">
        <ele>443.285</ele>
        <time>2015-06-21T12:59:26Z</time>
      </trkpt>
      <trkpt lat="36.674067" lon="-5.272199">
        <ele>443.638</ele>
        <time>2015-06-21T12:59:27Z</time>
      </trkpt>
      <trkpt lat="36.674085" lon="-5.272164">
        <ele>443.678</ele>
        <time>2015-06-21T12:59:32Z</time>
      </trkpt>
      <trkpt lat="36.674084" lon="-5.272158">
        <ele>443.682</ele>
        <time>2015-06-21T12:59:37Z</time>
      </trkpt>
      <trkpt lat="36.674089" lon="-5.272150">
        <ele>443.679</ele>
        <time>2015-06-21T12:59:42Z</time>
      </trkpt>
      <trkpt lat="36.674099" lon="-5.272128">
        <ele>443.648</ele>
        <time>2015-06-21T12:59:48Z</time>
      </trkpt>
      <trkpt lat="36.674121" lon="-5.272103">
        <ele>443.660</ele>
        <time>2015-06-21T12:59:55Z</time>
      </trkpt>
      <trkpt lat="36.674127" lon="-5.272100">
        <ele>444.096</ele>
        <time>2015-06-21T12:59:58Z</time>
      </trkpt>
      <trkpt lat="36.674127" lon="-5.272100">
        <ele>444.431</ele>
        <time>2015-06-21T12:59:59Z</time>
      </trkpt>
      <trkpt lat="36.674127" lon="-5.272100">
        <ele>444.824</ele>
        <time>2015-06-21T13:00:00Z</time>
      </trkpt>
      <trkpt lat="36.674127" lon="-5.272100">
        <ele>445.408</ele>
        <time>2015-06-21T13:00:01Z</time>
      </trkpt>
      <trkpt lat="36.674127" lon="-5.272100">
        <ele>445.830</ele>
        <time>2015-06-21T13:00:02Z</time>
      </trkpt>
      <trkpt lat="36.674138" lon="-5.272093">
        <ele>445.876</ele>
        <time>2015-06-21T13:00:03Z</time>
      </trkpt>
      <trkpt lat="36.674175" lon="-5.272047">
        <ele>445.819</ele>
        <time>2015-06-21T13:00:08Z</time>
      </trkpt>
      <trkpt lat="36.674223" lon="-5.272004">
        <ele>445.839</ele>
        <time>2015-06-21T13:00:11Z</time>
      </trkpt>
      <trkpt lat="36.674249" lon="-5.271955">
        <ele>445.863</ele>
        <time>2015-06-21T13:00:14Z</time>
      </trkpt>
      <trkpt lat="36.674260" lon="-5.271946">
        <ele>445.840</ele>
        <time>2015-06-21T13:00:15Z</time>
      </trkpt>
      <trkpt lat="36.674291" lon="-5.271928">
        <ele>445.879</ele>
        <time>2015-06-21T13:00:17Z</time>
      </trkpt>
      <trkpt lat="36.674305" lon="-5.271918">
        <ele>445.851</ele>
        <time>2015-06-21T13:00:18Z</time>
      </trkpt>
      <trkpt lat="36.674347" lon="-5.271862">
        <ele>445.856</ele>
        <time>2015-06-21T13:00:22Z</time>
      </trkpt>
      <trkpt lat="36.674361" lon="-5.271854">
        <ele>446.259</ele>
        <time>2015-06-21T13:00:23Z</time>
      </trkpt>
      <trkpt lat="36.674375" lon="-5.271845">
        <ele>446.614</ele>
        <time>2015-06-21T13:00:24Z</time>
      </trkpt>
      <trkpt lat="36.674388" lon="-5.271839">
        <ele>447.008</ele>
        <time>2015-06-21T13:00:25Z</time>
      </trkpt>
      <trkpt lat="36.674402" lon="-5.271835">
        <ele>447.416</ele>
        <time>2015-06-21T13:00:26Z</time>
      </trkpt>
      <trkpt lat="36.674425" lon="-5.271826">
        <ele>447.812</ele>
        <time>2015-06-21T13:00:27Z</time>
      </trkpt>
      <trkpt lat="36.674472" lon="-5.271813">
        <ele>447.875</ele>
        <time>2015-06-21T13:00:29Z</time>
      </trkpt>
      <trkpt lat="36.674609" lon="-5.271730">
        <ele>447.875</ele>
        <time>2015-06-21T13:00:35Z</time>
      </trkpt>
      <trkpt lat="36.674740" lon="-5.271627">
        <ele>447.819</ele>
        <time>2015-06-21T13:00:40Z</time>
      </trkpt>
      <trkpt lat="36.674815" lon="-5.271502">
        <ele>447.826</ele>
        <time>2015-06-21T13:00:44Z</time>
      </trkpt>
      <trkpt lat="36.674840" lon="-5.271484">
        <ele>447.855</ele>
        <time>2015-06-21T13:00:45Z</time>
      </trkpt>
      <trkpt lat="36.674932" lon="-5.271381">
        <ele>447.827</ele>
        <time>2015-06-21T13:00:48Z</time>
      </trkpt>
      <trkpt lat="36.674961" lon="-5.271333">
        <ele>447.899</ele>
        <time>2015-06-21T13:00:49Z</time>
      </trkpt>
      <trkpt lat="36.674995" lon="-5.271224">
        <ele>447.407</ele>
        <time>2015-06-21T13:00:51Z</time>
      </trkpt>
      <trkpt lat="36.674973" lon="-5.271165">
        <ele>447.027</ele>
        <time>2015-06-21T13:00:52Z</time>
      </trkpt>
      <trkpt lat="36.674945" lon="-5.271108">
        <ele>446.608</ele>
        <time>2015-06-21T13:00:53Z</time>
      </trkpt>
      <trkpt lat="36.674935" lon="-5.271049">
        <ele>446.210</ele>
        <time>2015-06-21T13:00:54Z</time>
      </trkpt>
      <trkpt lat="36.674942" lon="-5.271012">
        <ele>445.896</ele>
        <time>2015-06-21T13:00:55Z</time>
      </trkpt>
      <trkpt lat="36.674985" lon="-5.271003">
        <ele>445.899</ele>
        <time>2015-06-21T13:00:57Z</time>
      </trkpt>
      <trkpt lat="36.675121" lon="-5.270977">
        <ele>445.459</ele>
        <time>2015-06-21T13:01:00Z</time>
      </trkpt>
      <trkpt lat="36.675178" lon="-5.270956">
        <ele>444.823</ele>
        <time>2015-06-21T13:01:01Z</time>
      </trkpt>
      <trkpt lat="36.675243" lon="-5.270942">
        <ele>444.450</ele>
        <time>2015-06-21T13:01:02Z</time>
      </trkpt>
      <trkpt lat="36.675299" lon="-5.270911">
        <ele>443.839</ele>
        <time>2015-06-21T13:01:03Z</time>
      </trkpt>
      <trkpt lat="36.675354" lon="-5.270868">
        <ele>443.231</ele>
        <time>2015-06-21T13:01:04Z</time>
      </trkpt>
      <trkpt lat="36.675403" lon="-5.270816">
        <ele>442.461</ele>
        <time>2015-06-21T13:01:05Z</time>
      </trkpt>
      <trkpt lat="36.675440" lon="-5.270764">
        <ele>441.621</ele>
        <time>2015-06-21T13:01:06Z</time>
      </trkpt>
      <trkpt lat="36.675473" lon="-5.270712">
        <ele>440.213</ele>
        <time>2015-06-21T13:01:07Z</time>
      </trkpt>
      <trkpt lat="36.675495" lon="-5.270655">
        <ele>439.408</ele>
        <time>2015-06-21T13:01:08Z</time>
      </trkpt>
      <trkpt lat="36.675510" lon="-5.270601">
        <ele>438.837</ele>
        <time>2015-06-21T13:01:09Z</time>
      </trkpt>
      <trkpt lat="36.675523" lon="-5.270555">
        <ele>438.233</ele>
        <time>2015-06-21T13:01:10Z</time>
      </trkpt>
      <trkpt lat="36.675534" lon="-5.270516">
        <ele>437.666</ele>
        <time>2015-06-21T13:01:11Z</time>
      </trkpt>
      <trkpt lat="36.675540" lon="-5.270485">
        <ele>436.816</ele>
        <time>2015-06-21T13:01:12Z</time>
      </trkpt>
      <trkpt lat="36.675543" lon="-5.270457">
        <ele>436.830</ele>
        <time>2015-06-21T13:01:13Z</time>
      </trkpt>
      <trkpt lat="36.675549" lon="-5.270400">
        <ele>436.887</ele>
        <time>2015-06-21T13:01:15Z</time>
      </trkpt>
      <trkpt lat="36.675573" lon="-5.270324">
        <ele>437.246</ele>
        <time>2015-06-21T13:01:18Z</time>
      </trkpt>
      <trkpt lat="36.675590" lon="-5.270310">
        <ele>437.688</ele>
        <time>2015-06-21T13:01:19Z</time>
      </trkpt>
      <trkpt lat="36.675612" lon="-5.270298">
        <ele>438.022</ele>
        <time>2015-06-21T13:01:20Z</time>
      </trkpt>
      <trkpt lat="36.675635" lon="-5.270285">
        <ele>438.462</ele>
        <time>2015-06-21T13:01:21Z</time>
      </trkpt>
      <trkpt lat="36.675664" lon="-5.270273">
        <ele>438.808</ele>
        <time>2015-06-21T13:01:22Z</time>
      </trkpt>
      <trkpt lat="36.675708" lon="-5.270234">
        <ele>438.808</ele>
        <time>2015-06-21T13:01:24Z</time>
      </trkpt>
      <trkpt lat="36.675821" lon="-5.270069">
        <ele>438.823</ele>
        <time>2015-06-21T13:01:30Z</time>
      </trkpt>
      <trkpt lat="36.675949" lon="-5.269914">
        <ele>438.879</ele>
        <time>2015-06-21T13:01:36Z</time>
      </trkpt>
      <trkpt lat="36.676113" lon="-5.269762">
        <ele>438.842</ele>
        <time>2015-06-21T13:01:42Z</time>
      </trkpt>
      <trkpt lat="36.676289" lon="-5.269606">
        <ele>438.882</ele>
        <time>2015-06-21T13:01:46Z</time>
      </trkpt>
      <trkpt lat="36.676470" lon="-5.269459">
        <ele>438.886</ele>
        <time>2015-06-21T13:01:49Z</time>
      </trkpt>
      <trkpt lat="36.676519" lon="-5.269426">
        <ele>438.823</ele>
        <time>2015-06-21T13:01:50Z</time>
      </trkpt>
      <trkpt lat="36.676643" lon="-5.269310">
        <ele>438.842</ele>
        <time>2015-06-21T13:01:53Z</time>
      </trkpt>
      <trkpt lat="36.676688" lon="-5.269279">
        <ele>438.434</ele>
        <time>2015-06-21T13:01:54Z</time>
      </trkpt>
      <trkpt lat="36.676725" lon="-5.269252">
        <ele>438.021</ele>
        <time>2015-06-21T13:01:55Z</time>
      </trkpt>
      <trkpt lat="36.676752" lon="-5.269225">
        <ele>437.241</ele>
        <time>2015-06-21T13:01:56Z</time>
      </trkpt>
      <trkpt lat="36.676776" lon="-5.269205">
        <ele>436.805</ele>
        <time>2015-06-21T13:01:57Z</time>
      </trkpt>
      <trkpt lat="36.676809" lon="-5.269194">
        <ele>436.408</ele>
        <time>2015-06-21T13:01:58Z</time>
      </trkpt>
      <trkpt lat="36.676830" lon="-5.269171">
        <ele>436.083</ele>
        <time>2015-06-21T13:01:59Z</time>
      </trkpt>
      <trkpt lat="36.676864" lon="-5.269147">
        <ele>435.499</ele>
        <time>2015-06-21T13:02:00Z</time>
      </trkpt>
      <trkpt lat="36.676908" lon="-5.269120">
        <ele>435.022</ele>
        <time>2015-06-21T13:02:01Z</time>
      </trkpt>
      <trkpt lat="36.676958" lon="-5.269082">
        <ele>434.622</ele>
        <time>2015-06-21T13:02:02Z</time>
      </trkpt>
      <trkpt lat="36.676999" lon="-5.269044">
        <ele>434.056</ele>
        <time>2015-06-21T13:02:03Z</time>
      </trkpt>
      <trkpt lat="36.677019" lon="-5.269002">
        <ele>433.423</ele>
        <time>2015-06-21T13:02:04Z</time>
      </trkpt>
      <trkpt lat="36.677035" lon="-5.268959">
        <ele>433.032</ele>
        <time>2015-06-21T13:02:05Z</time>
      </trkpt>
      <trkpt lat="36.677048" lon="-5.268914">
        <ele>432.274</ele>
        <time>2015-06-21T13:02:06Z</time>
      </trkpt>
      <trkpt lat="36.677052" lon="-5.268875">
        <ele>431.639</ele>
        <time>2015-06-21T13:02:07Z</time>
      </trkpt>
      <trkpt lat="36.677053" lon="-5.268858">
        <ele>431.001</ele>
        <time>2015-06-21T13:02:08Z</time>
      </trkpt>
      <trkpt lat="36.677058" lon="-5.268835">
        <ele>430.221</ele>
        <time>2015-06-21T13:02:09Z</time>
      </trkpt>
      <trkpt lat="36.677059" lon="-5.268808">
        <ele>429.608</ele>
        <time>2015-06-21T13:02:10Z</time>
      </trkpt>
      <trkpt lat="36.677062" lon="-5.268784">
        <ele>429.024</ele>
        <time>2015-06-21T13:02:11Z</time>
      </trkpt>
      <trkpt lat="36.677072" lon="-5.268758">
        <ele>428.660</ele>
        <time>2015-06-21T13:02:12Z</time>
      </trkpt>
      <trkpt lat="36.677066" lon="-5.268742">
        <ele>428.233</ele>
        <time>2015-06-21T13:02:13Z</time>
      </trkpt>
      <trkpt lat="36.677065" lon="-5.268713">
        <ele>427.623</ele>
        <time>2015-06-21T13:02:14Z</time>
      </trkpt>
      <trkpt lat="36.677057" lon="-5.268683">
        <ele>427.247</ele>
        <time>2015-06-21T13:02:15Z</time>
      </trkpt>
      <trkpt lat="36.677024" lon="-5.268596">
        <ele>427.264</ele>
        <time>2015-06-21T13:02:18Z</time>
      </trkpt>
      <trkpt lat="36.677013" lon="-5.268571">
        <ele>426.853</ele>
        <time>2015-06-21T13:02:19Z</time>
      </trkpt>
      <trkpt lat="36.677003" lon="-5.268538">
        <ele>426.485</ele>
        <time>2015-06-21T13:02:20Z</time>
      </trkpt>
      <trkpt lat="36.676978" lon="-5.268516">
        <ele>425.666</ele>
        <time>2015-06-21T13:02:21Z</time>
      </trkpt>
      <trkpt lat="36.676958" lon="-5.268495">
        <ele>425.029</ele>
        <time>2015-06-21T13:02:22Z</time>
      </trkpt>
      <trkpt lat="36.676935" lon="-5.268438">
        <ele>425.021</ele>
        <time>2015-06-21T13:02:25Z</time>
      </trkpt>
      <trkpt lat="36.676941" lon="-5.268414">
        <ele>425.008</ele>
        <time>2015-06-21T13:02:26Z</time>
      </trkpt>
      <trkpt lat="36.676987" lon="-5.268393">
        <ele>425.057</ele>
        <time>2015-06-21T13:02:30Z</time>
      </trkpt>
      <trkpt lat="36.677083" lon="-5.268374">
        <ele>425.053</ele>
        <time>2015-06-21T13:02:35Z</time>
      </trkpt>
      <trkpt lat="36.677175" lon="-5.268370">
        <ele>425.066</ele>
        <time>2015-06-21T13:02:39Z</time>
      </trkpt>
      <trkpt lat="36.677247" lon="-5.268358">
        <ele>425.026</ele>
        <time>2015-06-21T13:02:44Z</time>
      </trkpt>
      <trkpt lat="36.677249" lon="-5.268357">
        <ele>425.040</ele>
        <time>2015-06-21T13:02:48Z</time>
      </trkpt>
      <trkpt lat="36.677249" lon="-5.268357">
        <ele>425.087</ele>
        <time>2015-06-21T13:02:55Z</time>
      </trkpt>
      <trkpt lat="36.677249" lon="-5.268357">
        <ele>424.616</ele>
        <time>2015-06-21T13:02:58Z</time>
      </trkpt>
      <trkpt lat="36.677249" lon="-5.268357">
        <ele>424.248</ele>
        <time>2015-06-21T13:02:59Z</time>
      </trkpt>
      <trkpt lat="36.677249" lon="-5.268357">
        <ele>423.864</ele>
        <time>2015-06-21T13:03:00Z</time>
      </trkpt>
      <trkpt lat="36.677249" lon="-5.268357">
        <ele>423.406</ele>
        <time>2015-06-21T13:03:01Z</time>
      </trkpt>
      <trkpt lat="36.677249" lon="-5.268357">
        <ele>422.816</ele>
        <time>2015-06-21T13:03:02Z</time>
      </trkpt>
      <trkpt lat="36.677260" lon="-5.268356">
        <ele>422.808</ele>
        <time>2015-06-21T13:03:16Z</time>
      </trkpt>
      <trkpt lat="36.677303" lon="-5.268349">
        <ele>422.827</ele>
        <time>2015-06-21T13:03:20Z</time>
      </trkpt>
      <trkpt lat="36.677352" lon="-5.268351">
        <ele>422.893</ele>
        <time>2015-06-21T13:03:23Z</time>
      </trkpt>
      <trkpt lat="36.677392" lon="-5.268368">
        <ele>422.896</ele>
        <time>2015-06-21T13:03:25Z</time>
      </trkpt>
      <trkpt lat="36.677455" lon="-5.268378">
        <ele>422.896</ele>
        <time>2015-06-21T13:03:29Z</time>
      </trkpt>
      <trkpt lat="36.677467" lon="-5.268384">
        <ele>422.820</ele>
        <time>2015-06-21T13:03:30Z</time>
      </trkpt>
      <trkpt lat="36.677495" lon="-5.268402">
        <ele>423.227</ele>
        <time>2015-06-21T13:03:32Z</time>
      </trkpt>
      <trkpt lat="36.677512" lon="-5.268413">
        <ele>423.626</ele>
        <time>2015-06-21T13:03:33Z</time>
      </trkpt>
      <trkpt lat="36.677529" lon="-5.268424">
        <ele>424.658</ele>
        <time>2015-06-21T13:03:34Z</time>
      </trkpt>
      <trkpt lat="36.677549" lon="-5.268427">
        <ele>425.092</ele>
        <time>2015-06-21T13:03:35Z</time>
      </trkpt>
      <trkpt lat="36.677585" lon="-5.268444">
        <ele>425.073</ele>
        <time>2015-06-21T13:03:37Z</time>
      </trkpt>
      <trkpt lat="36.677632" lon="-5.268465">
        <ele>425.020</ele>
        <time>2015-06-21T13:03:40Z</time>
      </trkpt>
      <trkpt lat="36.677655" lon="-5.268478">
        <ele>425.408</ele>
        <time>2015-06-21T13:03:42Z</time>
      </trkpt>
      <trkpt lat="36.677665" lon="-5.268487">
        <ele>425.820</ele>
        <time>2015-06-21T13:03:43Z</time>
      </trkpt>
      <trkpt lat="36.677678" lon="-5.268500">
        <ele>426.296</ele>
        <time>2015-06-21T13:03:44Z</time>
      </trkpt>
      <trkpt lat="36.677691" lon="-5.268511">
        <ele>426.629</ele>
        <time>2015-06-21T13:03:45Z</time>
      </trkpt>
      <trkpt lat="36.677705" lon="-5.268527">
        <ele>427.019</ele>
        <time>2015-06-21T13:03:46Z</time>
      </trkpt>
      <trkpt lat="36.677767" lon="-5.268571">
        <ele>427.093</ele>
        <time>2015-06-21T13:03:50Z</time>
      </trkpt>
      <trkpt lat="36.677853" lon="-5.268620">
        <ele>427.080</ele>
        <time>2015-06-21T13:03:56Z</time>
      </trkpt>
      <trkpt lat="36.677875" lon="-5.268632">
        <ele>427.029</ele>
        <time>2015-06-21T13:03:58Z</time>
      </trkpt>
      <trkpt lat="36.677890" lon="-5.268636">
        <ele>427.481</ele>
        <time>2015-06-21T13:03:59Z</time>
      </trkpt>
      <trkpt lat="36.677902" lon="-5.268645">
        <ele>427.863</ele>
        <time>2015-06-21T13:04:00Z</time>
      </trkpt>
      <trkpt lat="36.677914" lon="-5.268649">
        <ele>428.244</ele>
        <time>2015-06-21T13:04:01Z</time>
      </trkpt>
      <trkpt lat="36.677925" lon="-5.268647">
        <ele>428.618</ele>
        <time>2015-06-21T13:04:02Z</time>
      </trkpt>
      <trkpt lat="36.677937" lon="-5.268644">
        <ele>429.008</ele>
        <time>2015-06-21T13:04:03Z</time>
      </trkpt>
      <trkpt lat="36.677952" lon="-5.268639">
        <ele>429.037</ele>
        <time>2015-06-21T13:04:04Z</time>
      </trkpt>
      <trkpt lat="36.678000" lon="-5.268638">
        <ele>429.433</ele>
        <time>2015-06-21T13:04:08Z</time>
      </trkpt>
      <trkpt lat="36.678002" lon="-5.268635">
        <ele>430.036</ele>
        <time>2015-06-21T13:04:09Z</time>
      </trkpt>
      <trkpt lat="36.678016" lon="-5.268621">
        <ele>430.436</ele>
        <time>2015-06-21T13:04:10Z</time>
      </trkpt>
      <trkpt lat="36.678028" lon="-5.268621">
        <ele>430.810</ele>
        <time>2015-06-21T13:04:11Z</time>
      </trkpt>
      <trkpt lat="36.678041" lon="-5.268620">
        <ele>431.237</ele>
        <time>2015-06-21T13:04:12Z</time>
      </trkpt>
      <trkpt lat="36.678070" lon="-5.268612">
        <ele>431.226</ele>
        <time>2015-06-21T13:04:14Z</time>
      </trkpt>
      <trkpt lat="36.678123" lon="-5.268602">
        <ele>431.658</ele>
        <time>2015-06-21T13:04:18Z</time>
      </trkpt>
      <trkpt lat="36.678134" lon="-5.268593">
        <ele>432.028</ele>
        <time>2015-06-21T13:04:19Z</time>
      </trkpt>
      <trkpt lat="36.678144" lon="-5.268583">
        <ele>432.489</ele>
        <time>2015-06-21T13:04:20Z</time>
      </trkpt>
      <trkpt lat="36.678152" lon="-5.268574">
        <ele>433.017</ele>
        <time>2015-06-21T13:04:21Z</time>
      </trkpt>
      <trkpt lat="36.678160" lon="-5.268562">
        <ele>433.408</ele>
        <time>2015-06-21T13:04:22Z</time>
      </trkpt>
      <trkpt lat="36.678186" lon="-5.268521">
        <ele>433.473</ele>
        <time>2015-06-21T13:04:26Z</time>
      </trkpt>
      <trkpt lat="36.678199" lon="-5.268484">
        <ele>433.819</ele>
        <time>2015-06-21T13:04:29Z</time>
      </trkpt>
      <trkpt lat="36.678202" lon="-5.268475">
        <ele>434.242</ele>
        <time>2015-06-21T13:04:30Z</time>
      </trkpt>
      <trkpt lat="36.678206" lon="-5.268464">
        <ele>434.662</ele>
        <time>2015-06-21T13:04:31Z</time>
      </trkpt>
      <trkpt lat="36.678207" lon="-5.268461">
        <ele>435.026</ele>
        <time>2015-06-21T13:04:32Z</time>
      </trkpt>
      <trkpt lat="36.678210" lon="-5.268452">
        <ele>435.463</ele>
        <time>2015-06-21T13:04:33Z</time>
      </trkpt>
      <trkpt lat="36.678228" lon="-5.268391">
        <ele>435.432</ele>
        <time>2015-06-21T13:04:38Z</time>
      </trkpt>
      <trkpt lat="36.678252" lon="-5.268348">
        <ele>436.094</ele>
        <time>2015-06-21T13:04:42Z</time>
      </trkpt>
      <trkpt lat="36.678261" lon="-5.268337">
        <ele>436.477</ele>
        <time>2015-06-21T13:04:43Z</time>
      </trkpt>
      <trkpt lat="36.678266" lon="-5.268326">
        <ele>436.861</ele>
        <time>2015-06-21T13:04:44Z</time>
      </trkpt>
      <trkpt lat="36.678269" lon="-5.268310">
        <ele>437.227</ele>
        <time>2015-06-21T13:04:45Z</time>
      </trkpt>
      <trkpt lat="36.678276" lon="-5.268296">
        <ele>437.608</ele>
        <time>2015-06-21T13:04:46Z</time>
      </trkpt>
      <trkpt lat="36.678303" lon="-5.268203">
        <ele>438.068</ele>
        <time>2015-06-21T13:04:52Z</time>
      </trkpt>
      <trkpt lat="36.678309" lon="-5.268195">
        <ele>438.444</ele>
        <time>2015-06-21T13:04:53Z</time>
      </trkpt>
      <trkpt lat="36.678316" lon="-5.268186">
        <ele>438.837</ele>
        <time>2015-06-21T13:04:54Z</time>
      </trkpt>
      <trkpt lat="36.678319" lon="-5.268187">
        <ele>439.287</ele>
        <time>2015-06-21T13:04:55Z</time>
      </trkpt>
      <trkpt lat="36.678326" lon="-5.268186">
        <ele>439.621</ele>
        <time>2015-06-21T13:04:56Z</time>
      </trkpt>
      <trkpt lat="36.678344" lon="-5.268187">
        <ele>439.618</ele>
        <time>2015-06-21T13:04:57Z</time>
      </trkpt>
      <trkpt lat="36.678374" lon="-5.268196">
        <ele>439.637</ele>
        <time>2015-06-21T13:04:59Z</time>
      </trkpt>
      <trkpt lat="36.678458" lon="-5.268222">
        <ele>439.679</ele>
        <time>2015-06-21T13:05:04Z</time>
      </trkpt>
      <trkpt lat="36.678469" lon="-5.268228">
        <ele>439.612</ele>
        <time>2015-06-21T13:05:05Z</time>
      </trkpt>
      <trkpt lat="36.678540" lon="-5.268277">
        <ele>439.632</ele>
        <time>2015-06-21T13:05:11Z</time>
      </trkpt>
      <trkpt lat="36.678600" lon="-5.268323">
        <ele>439.605</ele>
        <time>2015-06-21T13:05:16Z</time>
      </trkpt>
      <trkpt lat="36.678615" lon="-5.268333">
        <ele>439.608</ele>
        <time>2015-06-21T13:05:17Z</time>
      </trkpt>
      <trkpt lat="36.678696" lon="-5.268358">
        <ele>439.682</ele>
        <time>2015-06-21T13:05:22Z</time>
      </trkpt>
      <trkpt lat="36.678768" lon="-5.268364">
        <ele>440.278</ele>
        <time>2015-06-21T13:05:28Z</time>
      </trkpt>
      <trkpt lat="36.678779" lon="-5.268361">
        <ele>440.651</ele>
        <time>2015-06-21T13:05:29Z</time>
      </trkpt>
      <trkpt lat="36.678792" lon="-5.268360">
        <ele>441.011</ele>
        <time>2015-06-21T13:05:30Z</time>
      </trkpt>
      <trkpt lat="36.678802" lon="-5.268364">
        <ele>441.485</ele>
        <time>2015-06-21T13:05:31Z</time>
      </trkpt>
      <trkpt lat="36.678804" lon="-5.268363">
        <ele>442.022</ele>
        <time>2015-06-21T13:05:32Z</time>
      </trkpt>
      <trkpt lat="36.678826" lon="-5.268343">
        <ele>442.041</ele>
        <time>2015-06-21T13:05:34Z</time>
      </trkpt>
      <trkpt lat="36.678834" lon="-5.268330">
        <ele>442.023</ele>
        <time>2015-06-21T13:05:35Z</time>
      </trkpt>
      <trkpt lat="36.678833" lon="-5.268332">
        <ele>442.477</ele>
        <time>2015-06-21T13:05:36Z</time>
      </trkpt>
      <trkpt lat="36.678835" lon="-5.268331">
        <ele>443.261</ele>
        <time>2015-06-21T13:05:37Z</time>
      </trkpt>
      <trkpt lat="36.678835" lon="-5.268331">
        <ele>443.627</ele>
        <time>2015-06-21T13:05:38Z</time>
      </trkpt>
      <trkpt lat="36.678835" lon="-5.268331">
        <ele>444.008</ele>
        <time>2015-06-21T13:05:39Z</time>
      </trkpt>
      <trkpt lat="36.678849" lon="-5.268336">
        <ele>444.028</ele>
        <time>2015-06-21T13:05:45Z</time>
      </trkpt>
      <trkpt lat="36.678865" lon="-5.268333">
        <ele>444.684</ele>
        <time>2015-06-21T13:05:48Z</time>
      </trkpt>
      <trkpt lat="36.678872" lon="-5.268332">
        <ele>445.037</ele>
        <time>2015-06-21T13:05:49Z</time>
      </trkpt>
      <trkpt lat="36.678878" lon="-5.268332">
        <ele>445.417</ele>
        <time>2015-06-21T13:05:50Z</time>
      </trkpt>
      <trkpt lat="36.678878" lon="-5.268332">
        <ele>445.851</ele>
        <time>2015-06-21T13:05:51Z</time>
      </trkpt>
      <trkpt lat="36.678884" lon="-5.268329">
        <ele>446.218</ele>
        <time>2015-06-21T13:05:52Z</time>
      </trkpt>
      <trkpt lat="36.678896" lon="-5.268332">
        <ele>446.297</ele>
        <time>2015-06-21T13:05:56Z</time>
      </trkpt>
      <trkpt lat="36.678954" lon="-5.268274">
        <ele>446.219</ele>
        <time>2015-06-21T13:06:01Z</time>
      </trkpt>
      <trkpt lat="36.678983" lon="-5.268245">
        <ele>446.234</ele>
        <time>2015-06-21T13:06:03Z</time>
      </trkpt>
      <trkpt lat="36.679038" lon="-5.268197">
        <ele>446.255</ele>
        <time>2015-06-21T13:06:06Z</time>
      </trkpt>
      <trkpt lat="36.679071" lon="-5.268181">
        <ele>446.210</ele>
        <time>2015-06-21T13:06:07Z</time>
      </trkpt>
      <trkpt lat="36.679193" lon="-5.268092">
        <ele>446.208</ele>
        <time>2015-06-21T13:06:10Z</time>
      </trkpt>
      <trkpt lat="36.679239" lon="-5.268055">
        <ele>446.234</ele>
        <time>2015-06-21T13:06:11Z</time>
      </trkpt>
      <trkpt lat="36.679284" lon="-5.268026">
        <ele>445.860</ele>
        <time>2015-06-21T13:06:12Z</time>
      </trkpt>
      <trkpt lat="36.679329" lon="-5.267982">
        <ele>445.433</ele>
        <time>2015-06-21T13:06:13Z</time>
      </trkpt>
      <trkpt lat="36.679368" lon="-5.267930">
        <ele>445.063</ele>
        <time>2015-06-21T13:06:14Z</time>
      </trkpt>
      <trkpt lat="36.679418" lon="-5.267887">
        <ele>444.677</ele>
        <time>2015-06-21T13:06:15Z</time>
      </trkpt>
      <trkpt lat="36.679481" lon="-5.267833">
        <ele>444.234</ele>
        <time>2015-06-21T13:06:16Z</time>
      </trkpt>
      <trkpt lat="36.679539" lon="-5.267785">
        <ele>443.883</ele>
        <time>2015-06-21T13:06:17Z</time>
      </trkpt>
      <trkpt lat="36.679592" lon="-5.267736">
        <ele>443.235</ele>
        <time>2015-06-21T13:06:18Z</time>
      </trkpt>
      <trkpt lat="36.679631" lon="-5.267692">
        <ele>442.864</ele>
        <time>2015-06-21T13:06:19Z</time>
      </trkpt>
      <trkpt lat="36.679680" lon="-5.267666">
        <ele>442.406</ele>
        <time>2015-06-21T13:06:20Z</time>
      </trkpt>
      <trkpt lat="36.679739" lon="-5.267633">
        <ele>441.816</ele>
        <time>2015-06-21T13:06:21Z</time>
      </trkpt>
      <trkpt lat="36.679803" lon="-5.267593">
        <ele>441.208</ele>
        <time>2015-06-21T13:06:22Z</time>
      </trkpt>
      <trkpt lat="36.679859" lon="-5.267551">
        <ele>440.867</ele>
        <time>2015-06-21T13:06:23Z</time>
      </trkpt>
      <trkpt lat="36.679903" lon="-5.267499">
        <ele>440.273</ele>
        <time>2015-06-21T13:06:24Z</time>
      </trkpt>
      <trkpt lat="36.679945" lon="-5.267435">
        <ele>439.626</ele>
        <time>2015-06-21T13:06:25Z</time>
      </trkpt>
      <trkpt lat="36.679990" lon="-5.267379">
        <ele>438.636</ele>
        <time>2015-06-21T13:06:26Z</time>
      </trkpt>
      <trkpt lat="36.680030" lon="-5.267316">
        <ele>438.220</ele>
        <time>2015-06-21T13:06:27Z</time>
      </trkpt>
      <trkpt lat="36.680064" lon="-5.267254">
        <ele>437.867</ele>
        <time>2015-06-21T13:06:28Z</time>
      </trkpt>
      <trkpt lat="36.680105" lon="-5.267201">
        <ele>437.456</ele>
        <time>2015-06-21T13:06:29Z</time>
      </trkpt>
      <trkpt lat="36.680159" lon="-5.267152">
        <ele>437.458</ele>
        <time>2015-06-21T13:06:30Z</time>
      </trkpt>
      <trkpt lat="36.680301" lon="-5.266948">
        <ele>437.469</ele>
        <time>2015-06-21T13:06:33Z</time>
      </trkpt>
      <trkpt lat="36.680325" lon="-5.266890">
        <ele>436.804</ele>
        <time>2015-06-21T13:06:34Z</time>
      </trkpt>
      <trkpt lat="36.680350" lon="-5.266841">
        <ele>436.424</ele>
        <time>2015-06-21T13:06:35Z</time>
      </trkpt>
      <trkpt lat="36.680387" lon="-5.266797">
        <ele>436.008</ele>
        <time>2015-06-21T13:06:36Z</time>
      </trkpt>
      <trkpt lat="36.680422" lon="-5.266747">
        <ele>435.667</ele>
        <time>2015-06-21T13:06:37Z</time>
      </trkpt>
      <trkpt lat="36.680451" lon="-5.266701">
        <ele>435.213</ele>
        <time>2015-06-21T13:06:38Z</time>
      </trkpt>
      <trkpt lat="36.680481" lon="-5.266673">
        <ele>435.256</ele>
        <time>2015-06-21T13:06:39Z</time>
      </trkpt>
      <trkpt lat="36.680587" lon="-5.266626">
        <ele>435.246</ele>
        <time>2015-06-21T13:06:42Z</time>
      </trkpt>
      <trkpt lat="36.680629" lon="-5.266614">
        <ele>435.230</ele>
        <time>2015-06-21T13:06:43Z</time>
      </trkpt>
      <trkpt lat="36.680706" lon="-5.266586">
        <ele>434.897</ele>
        <time>2015-06-21T13:06:45Z</time>
      </trkpt>
      <trkpt lat="36.680721" lon="-5.266545">
        <ele>434.446</ele>
        <time>2015-06-21T13:06:46Z</time>
      </trkpt>
      <trkpt lat="36.680746" lon="-5.266499">
        <ele>433.838</ele>
        <time>2015-06-21T13:06:47Z</time>
      </trkpt>
      <trkpt lat="36.680775" lon="-5.266439">
        <ele>433.497</ele>
        <time>2015-06-21T13:06:48Z</time>
      </trkpt>
      <trkpt lat="36.680806" lon="-5.266384">
        <ele>433.023</ele>
        <time>2015-06-21T13:06:49Z</time>
      </trkpt>
      <trkpt lat="36.680890" lon="-5.266226">
        <ele>433.025</ele>
        <time>2015-06-21T13:06:52Z</time>
      </trkpt>
      <trkpt lat="36.680918" lon="-5.266168">
        <ele>432.608</ele>
        <time>2015-06-21T13:06:53Z</time>
      </trkpt>
      <trkpt lat="36.680958" lon="-5.266114">
        <ele>432.210</ele>
        <time>2015-06-21T13:06:54Z</time>
      </trkpt>
      <trkpt lat="36.681007" lon="-5.266049">
        <ele>431.636</ele>
        <time>2015-06-21T13:06:55Z</time>
      </trkpt>
      <trkpt lat="36.681052" lon="-5.265979">
        <ele>431.289</ele>
        <time>2015-06-21T13:06:56Z</time>
      </trkpt>
      <trkpt lat="36.681105" lon="-5.265919">
        <ele>430.849</ele>
        <time>2015-06-21T13:06:57Z</time>
      </trkpt>
      <trkpt lat="36.681157" lon="-5.265850">
        <ele>430.253</ele>
        <time>2015-06-21T13:06:58Z</time>
      </trkpt>
      <trkpt lat="36.681206" lon="-5.265782">
        <ele>429.890</ele>
        <time>2015-06-21T13:06:59Z</time>
      </trkpt>
      <trkpt lat="36.681253" lon="-5.265716">
        <ele>429.459</ele>
        <time>2015-06-21T13:07:00Z</time>
      </trkpt>
      <trkpt lat="36.681287" lon="-5.265642">
        <ele>428.821</ele>
        <time>2015-06-21T13:07:01Z</time>
      </trkpt>
      <trkpt lat="36.681319" lon="-5.265582">
        <ele>428.453</ele>
        <time>2015-06-21T13:07:02Z</time>
      </trkpt>
      <trkpt lat="36.681393" lon="-5.265463">
        <ele>428.004</ele>
        <time>2015-06-21T13:07:04Z</time>
      </trkpt>
      <trkpt lat="36.681436" lon="-5.265411">
        <ele>427.414</ele>
        <time>2015-06-21T13:07:05Z</time>
      </trkpt>
      <trkpt lat="36.681486" lon="-5.265352">
        <ele>427.008</ele>
        <time>2015-06-21T13:07:06Z</time>
      </trkpt>
      <trkpt lat="36.681538" lon="-5.265282">
        <ele>426.656</ele>
        <time>2015-06-21T13:07:07Z</time>
      </trkpt>
      <trkpt lat="36.681594" lon="-5.265215">
        <ele>426.262</ele>
        <time>2015-06-21T13:07:08Z</time>
      </trkpt>
      <trkpt lat="36.681653" lon="-5.265144">
        <ele>425.825</ele>
        <time>2015-06-21T13:07:09Z</time>
      </trkpt>
      <trkpt lat="36.681706" lon="-5.265059">
        <ele>425.435</ele>
        <time>2015-06-21T13:07:10Z</time>
      </trkpt>
      <trkpt lat="36.681738" lon="-5.264975">
        <ele>425.069</ele>
        <time>2015-06-21T13:07:11Z</time>
      </trkpt>
      <trkpt lat="36.681786" lon="-5.264921">
        <ele>424.436</ele>
        <time>2015-06-21T13:07:12Z</time>
      </trkpt>
      <trkpt lat="36.681834" lon="-5.264873">
        <ele>424.065</ele>
        <time>2015-06-21T13:07:13Z</time>
      </trkpt>
      <trkpt lat="36.681875" lon="-5.264824">
        <ele>424.087</ele>
        <time>2015-06-21T13:07:14Z</time>
      </trkpt>
      <trkpt lat="36.681961" lon="-5.264732">
        <ele>424.063</ele>
        <time>2015-06-21T13:07:16Z</time>
      </trkpt>
      <trkpt lat="36.682201" lon="-5.264466">
        <ele>423.644</ele>
        <time>2015-06-21T13:07:21Z</time>
      </trkpt>
      <trkpt lat="36.682253" lon="-5.264410">
        <ele>423.218</ele>
        <time>2015-06-21T13:07:22Z</time>
      </trkpt>
      <trkpt lat="36.682309" lon="-5.264351">
        <ele>422.808</ele>
        <time>2015-06-21T13:07:23Z</time>
      </trkpt>
      <trkpt lat="36.682367" lon="-5.264287">
        <ele>422.497</ele>
        <time>2015-06-21T13:07:24Z</time>
      </trkpt>
      <trkpt lat="36.682413" lon="-5.264223">
        <ele>422.093</ele>
        <time>2015-06-21T13:07:25Z</time>
      </trkpt>
      <trkpt lat="36.682469" lon="-5.264172">
        <ele>422.086</ele>
        <time>2015-06-21T13:07:26Z</time>
      </trkpt>
      <trkpt lat="36.682575" lon="-5.264063">
        <ele>421.646</ele>
        <time>2015-06-21T13:07:28Z</time>
      </trkpt>
      <trkpt lat="36.682620" lon="-5.264015">
        <ele>421.250</ele>
        <time>2015-06-21T13:07:29Z</time>
      </trkpt>
      <trkpt lat="36.682671" lon="-5.263971">
        <ele>420.887</ele>
        <time>2015-06-21T13:07:30Z</time>
      </trkpt>
      <trkpt lat="36.682727" lon="-5.263939">
        <ele>420.446</ele>
        <time>2015-06-21T13:07:31Z</time>
      </trkpt>
      <trkpt lat="36.682775" lon="-5.263907">
        <ele>420.058</ele>
        <time>2015-06-21T13:07:32Z</time>
      </trkpt>
      <trkpt lat="36.682819" lon="-5.263868">
        <ele>420.054</ele>
        <time>2015-06-21T13:07:33Z</time>
      </trkpt>
      <trkpt lat="36.682929" lon="-5.263814">
        <ele>419.656</ele>
        <time>2015-06-21T13:07:35Z</time>
      </trkpt>
      <trkpt lat="36.682982" lon="-5.263800">
        <ele>419.211</ele>
        <time>2015-06-21T13:07:36Z</time>
      </trkpt>
      <trkpt lat="36.683030" lon="-5.263776">
        <ele>418.808</ele>
        <time>2015-06-21T13:07:37Z</time>
      </trkpt>
      <trkpt lat="36.683065" lon="-5.263740">
        <ele>418.446</ele>
        <time>2015-06-21T13:07:38Z</time>
      </trkpt>
      <trkpt lat="36.683119" lon="-5.263732">
        <ele>418.042</ele>
        <time>2015-06-21T13:07:39Z</time>
      </trkpt>
      <trkpt lat="36.683176" lon="-5.263715">
        <ele>417.685</ele>
        <time>2015-06-21T13:07:40Z</time>
      </trkpt>
      <trkpt lat="36.683232" lon="-5.263685">
        <ele>416.895</ele>
        <time>2015-06-21T13:07:41Z</time>
      </trkpt>
      <trkpt lat="36.683285" lon="-5.263662">
        <ele>416.459</ele>
        <time>2015-06-21T13:07:42Z</time>
      </trkpt>
      <trkpt lat="36.683341" lon="-5.263650">
        <ele>416.066</ele>
        <time>2015-06-21T13:07:43Z</time>
      </trkpt>
      <trkpt lat="36.683386" lon="-5.263637">
        <ele>416.075</ele>
        <time>2015-06-21T13:07:44Z</time>
      </trkpt>
      <trkpt lat="36.683426" lon="-5.263634">
        <ele>415.447</ele>
        <time>2015-06-21T13:07:45Z</time>
      </trkpt>
      <trkpt lat="36.683456" lon="-5.263621">
        <ele>415.093</ele>
        <time>2015-06-21T13:07:46Z</time>
      </trkpt>
      <trkpt lat="36.683484" lon="-5.263603">
        <ele>414.665</ele>
        <time>2015-06-21T13:07:47Z</time>
      </trkpt>
      <trkpt lat="36.683513" lon="-5.263581">
        <ele>414.221</ele>
        <time>2015-06-21T13:07:48Z</time>
      </trkpt>
      <trkpt lat="36.683546" lon="-5.263557">
        <ele>413.808</ele>
        <time>2015-06-21T13:07:49Z</time>
      </trkpt>
      <trkpt lat="36.683637" lon="-5.263450">
        <ele>413.850</ele>
        <time>2015-06-21T13:07:53Z</time>
      </trkpt>
      <trkpt lat="36.683716" lon="-5.263359">
        <ele>413.426</ele>
        <time>2015-06-21T13:07:57Z</time>
      </trkpt>
      <trkpt lat="36.683727" lon="-5.263343">
        <ele>413.079</ele>
        <time>2015-06-21T13:07:58Z</time>
      </trkpt>
      <trkpt lat="36.683732" lon="-5.263320">
        <ele>412.659</ele>
        <time>2015-06-21T13:07:59Z</time>
      </trkpt>
      <trkpt lat="36.683730" lon="-5.263310">
        <ele>412.283</ele>
        <time>2015-06-21T13:08:00Z</time>
      </trkpt>
      <trkpt lat="36.683728" lon="-5.263293">
        <ele>411.840</ele>
        <time>2015-06-21T13:08:01Z</time>
      </trkpt>
      <trkpt lat="36.683720" lon="-5.263283">
        <ele>411.859</ele>
        <time>2015-06-21T13:08:02Z</time>
      </trkpt>
      <trkpt lat="36.683738" lon="-5.263252">
        <ele>411.821</ele>
        <time>2015-06-21T13:08:04Z</time>
      </trkpt>
      <trkpt lat="36.683744" lon="-5.263179">
        <ele>411.831</ele>
        <time>2015-06-21T13:08:06Z</time>
      </trkpt>
      <trkpt lat="36.683738" lon="-5.263132">
        <ele>411.461</ele>
        <time>2015-06-21T13:08:07Z</time>
      </trkpt>
      <trkpt lat="36.683735" lon="-5.263095">
        <ele>411.007</ele>
        <time>2015-06-21T13:08:08Z</time>
      </trkpt>
      <trkpt lat="36.683721" lon="-5.263075">
        <ele>410.608</ele>
        <time>2015-06-21T13:08:09Z</time>
      </trkpt>
      <trkpt lat="36.683713" lon="-5.263052">
        <ele>410.234</ele>
        <time>2015-06-21T13:08:10Z</time>
      </trkpt>
      <trkpt lat="36.683703" lon="-5.263028">
        <ele>409.880</ele>
        <time>2015-06-21T13:08:11Z</time>
      </trkpt>
      <trkpt lat="36.683695" lon="-5.262997">
        <ele>409.443</ele>
        <time>2015-06-21T13:08:12Z</time>
      </trkpt>
      <trkpt lat="36.683689" lon="-5.262955">
        <ele>408.823</ele>
        <time>2015-06-21T13:08:13Z</time>
      </trkpt>
      <trkpt lat="36.683673" lon="-5.262905">
        <ele>408.437</ele>
        <time>2015-06-21T13:08:14Z</time>
      </trkpt>
      <trkpt lat="36.683657" lon="-5.262856">
        <ele>408.024</ele>
        <time>2015-06-21T13:08:15Z</time>
      </trkpt>
      <trkpt lat="36.683632" lon="-5.262835">
        <ele>407.693</ele>
        <time>2015-06-21T13:08:16Z</time>
      </trkpt>
      <trkpt lat="36.683570" lon="-5.262779">
        <ele>407.255</ele>
        <time>2015-06-21T13:08:18Z</time>
      </trkpt>
      <trkpt lat="36.683532" lon="-5.262743">
        <ele>406.885</ele>
        <time>2015-06-21T13:08:19Z</time>
      </trkpt>
      <trkpt lat="36.683492" lon="-5.262721">
        <ele>406.489</ele>
        <time>2015-06-21T13:08:20Z</time>
      </trkpt>
      <trkpt lat="36.683457" lon="-5.262700">
        <ele>405.817</ele>
        <time>2015-06-21T13:08:21Z</time>
      </trkpt>
      <trkpt lat="36.683430" lon="-5.262688">
        <ele>405.408</ele>
        <time>2015-06-21T13:08:22Z</time>
      </trkpt>
      <trkpt lat="36.683362" lon="-5.262665">
        <ele>405.439</ele>
        <time>2015-06-21T13:08:25Z</time>
      </trkpt>
      <trkpt lat="36.683349" lon="-5.262667">
        <ele>405.425</ele>
        <time>2015-06-21T13:08:26Z</time>
      </trkpt>
      <trkpt lat="36.683337" lon="-5.262643">
        <ele>405.068</ele>
        <time>2015-06-21T13:08:30Z</time>
      </trkpt>
      <trkpt lat="36.683335" lon="-5.262637">
        <ele>404.278</ele>
        <time>2015-06-21T13:08:31Z</time>
      </trkpt>
      <trkpt lat="36.683333" lon="-5.262625">
        <ele>403.852</ele>
        <time>2015-06-21T13:08:32Z</time>
      </trkpt>
      <trkpt lat="36.683332" lon="-5.262615">
        <ele>403.499</ele>
        <time>2015-06-21T13:08:33Z</time>
      </trkpt>
      <trkpt lat="36.683349" lon="-5.262595">
        <ele>403.488</ele>
        <time>2015-06-21T13:08:35Z</time>
      </trkpt>
      <trkpt lat="36.683352" lon="-5.262584">
        <ele>403.430</ele>
        <time>2015-06-21T13:08:40Z</time>
      </trkpt>
      <trkpt lat="36.683352" lon="-5.262584">
        <ele>403.498</ele>
        <time>2015-06-21T13:08:43Z</time>
      </trkpt>
      <trkpt lat="36.683358" lon="-5.262560">
        <ele>403.415</ele>
        <time>2015-06-21T13:08:47Z</time>
      </trkpt>
      <trkpt lat="36.683375" lon="-5.262547">
        <ele>403.426</ele>
        <time>2015-06-21T13:08:54Z</time>
      </trkpt>
      <trkpt lat="36.683394" lon="-5.262543">
        <ele>403.808</ele>
        <time>2015-06-21T13:08:57Z</time>
      </trkpt>
      <trkpt lat="36.683400" lon="-5.262539">
        <ele>404.250</ele>
        <time>2015-06-21T13:08:58Z</time>
      </trkpt>
      <trkpt lat="36.683406" lon="-5.262534">
        <ele>404.646</ele>
        <time>2015-06-21T13:08:59Z</time>
      </trkpt>
      <trkpt lat="36.683419" lon="-5.262525">
        <ele>405.069</ele>
        <time>2015-06-21T13:09:00Z</time>
      </trkpt>
      <trkpt lat="36.683422" lon="-5.262524">
        <ele>405.459</ele>
        <time>2015-06-21T13:09:01Z</time>
      </trkpt>
      <trkpt lat="36.683445" lon="-5.262506">
        <ele>405.473</ele>
        <time>2015-06-21T13:09:06Z</time>
      </trkpt>
      <trkpt lat="36.683490" lon="-5.262492">
        <ele>405.470</ele>
        <time>2015-06-21T13:09:14Z</time>
      </trkpt>
      <trkpt lat="36.683490" lon="-5.262492">
        <ele>405.879</ele>
        <time>2015-06-21T13:09:16Z</time>
      </trkpt>
      <trkpt lat="36.683490" lon="-5.262492">
        <ele>406.451</ele>
        <time>2015-06-21T13:09:17Z</time>
      </trkpt>
      <trkpt lat="36.683490" lon="-5.262492">
        <ele>406.847</ele>
        <time>2015-06-21T13:09:18Z</time>
      </trkpt>
      <trkpt lat="36.683490" lon="-5.262492">
        <ele>407.229</ele>
        <time>2015-06-21T13:09:19Z</time>
      </trkpt>
      <trkpt lat="36.683490" lon="-5.262492">
        <ele>407.621</ele>
        <time>2015-06-21T13:09:20Z</time>
      </trkpt>
      <trkpt lat="36.683509" lon="-5.262510">
        <ele>407.608</ele>
        <time>2015-06-21T13:09:22Z</time>
      </trkpt>
      <trkpt lat="36.683614" lon="-5.262530">
        <ele>407.665</ele>
        <time>2015-06-21T13:09:26Z</time>
      </trkpt>
      <trkpt lat="36.683695" lon="-5.262533">
        <ele>407.691</ele>
        <time>2015-06-21T13:09:31Z</time>
      </trkpt>
      <trkpt lat="36.683743" lon="-5.262514">
        <ele>407.614</ele>
        <time>2015-06-21T13:09:35Z</time>
      </trkpt>
      <trkpt lat="36.683765" lon="-5.262504">
        <ele>407.684</ele>
        <time>2015-06-21T13:09:37Z</time>
      </trkpt>
      <trkpt lat="36.683809" lon="-5.262490">
        <ele>407.678</ele>
        <time>2015-06-21T13:09:42Z</time>
      </trkpt>
      <trkpt lat="36.683839" lon="-5.262506">
        <ele>407.665</ele>
        <time>2015-06-21T13:09:45Z</time>
      </trkpt>
      <trkpt lat="36.683852" lon="-5.262510">
        <ele>408.274</ele>
        <time>2015-06-21T13:09:46Z</time>
      </trkpt>
      <trkpt lat="36.683868" lon="-5.262515">
        <ele>408.656</ele>
        <time>2015-06-21T13:09:47Z</time>
      </trkpt>
      <trkpt lat="36.683880" lon="-5.262519">
        <ele>409.257</ele>
        <time>2015-06-21T13:09:48Z</time>
      </trkpt>
      <trkpt lat="36.683890" lon="-5.262525">
        <ele>408.800</ele>
        <time>2015-06-21T13:09:49Z</time>
      </trkpt>
      <trkpt lat="36.683898" lon="-5.262529">
        <ele>408.620</ele>
        <time>2015-06-21T13:09:50Z</time>
      </trkpt>
      <trkpt lat="36.683912" lon="-5.262539">
        <ele>408.208</ele>
        <time>2015-06-21T13:09:51Z</time>
      </trkpt>
      <trkpt lat="36.683923" lon="-5.262551">
        <ele>408.826</ele>
        <time>2015-06-21T13:09:52Z</time>
      </trkpt>
      <trkpt lat="36.683932" lon="-5.262556">
        <ele>409.442</ele>
        <time>2015-06-21T13:09:53Z</time>
      </trkpt>
      <trkpt lat="36.683938" lon="-5.262568">
        <ele>410.015</ele>
        <time>2015-06-21T13:09:54Z</time>
      </trkpt>
      <trkpt lat="36.683946" lon="-5.262577">
        <ele>410.495</ele>
        <time>2015-06-21T13:09:55Z</time>
      </trkpt>
      <trkpt lat="36.683952" lon="-5.262583">
        <ele>411.039</ele>
        <time>2015-06-21T13:09:56Z</time>
      </trkpt>
      <trkpt lat="36.683953" lon="-5.262598">
        <ele>411.046</ele>
        <time>2015-06-21T13:10:00Z</time>
      </trkpt>
      <trkpt lat="36.683957" lon="-5.262653">
        <ele>411.035</ele>
        <time>2015-06-21T13:10:06Z</time>
      </trkpt>
      <trkpt lat="36.683961" lon="-5.262657">
        <ele>411.067</ele>
        <time>2015-06-21T13:10:12Z</time>
      </trkpt>
      <trkpt lat="36.683966" lon="-5.262668">
        <ele>411.044</ele>
        <time>2015-06-21T13:10:19Z</time>
      </trkpt>
      <trkpt lat="36.683977" lon="-5.262680">
        <ele>411.005</ele>
        <time>2015-06-21T13:10:24Z</time>
      </trkpt>
      <trkpt lat="36.684000" lon="-5.262692">
        <ele>411.015</ele>
        <time>2015-06-21T13:10:30Z</time>
      </trkpt>
      <trkpt lat="36.684018" lon="-5.262696">
        <ele>411.008</ele>
        <time>2015-06-21T13:10:36Z</time>
      </trkpt>
      <trkpt lat="36.684039" lon="-5.262708">
        <ele>411.475</ele>
        <time>2015-06-21T13:10:39Z</time>
      </trkpt>
      <trkpt lat="36.684047" lon="-5.262712">
        <ele>411.871</ele>
        <time>2015-06-21T13:10:40Z</time>
      </trkpt>
      <trkpt lat="36.684061" lon="-5.262721">
        <ele>412.224</ele>
        <time>2015-06-21T13:10:41Z</time>
      </trkpt>
      <trkpt lat="36.684069" lon="-5.262724">
        <ele>412.654</ele>
        <time>2015-06-21T13:10:42Z</time>
      </trkpt>
      <trkpt lat="36.684076" lon="-5.262727">
        <ele>413.088</ele>
        <time>2015-06-21T13:10:43Z</time>
      </trkpt>
      <trkpt lat="36.684092" lon="-5.262737">
        <ele>413.045</ele>
        <time>2015-06-21T13:10:46Z</time>
      </trkpt>
      <trkpt lat="36.684144" lon="-5.262775">
        <ele>413.454</ele>
        <time>2015-06-21T13:10:53Z</time>
      </trkpt>
      <trkpt lat="36.684151" lon="-5.262780">
        <ele>413.826</ele>
        <time>2015-06-21T13:10:54Z</time>
      </trkpt>
      <trkpt lat="36.684157" lon="-5.262786">
        <ele>414.234</ele>
        <time>2015-06-21T13:10:55Z</time>
      </trkpt>
      <trkpt lat="36.684164" lon="-5.262791">
        <ele>414.655</ele>
        <time>2015-06-21T13:10:56Z</time>
      </trkpt>
      <trkpt lat="36.684170" lon="-5.262795">
        <ele>415.210</ele>
        <time>2015-06-21T13:10:57Z</time>
      </trkpt>
      <trkpt lat="36.684195" lon="-5.262813">
        <ele>415.208</ele>
        <time>2015-06-21T13:11:01Z</time>
      </trkpt>
      <trkpt lat="36.684231" lon="-5.262836">
        <ele>415.214</ele>
        <time>2015-06-21T13:11:08Z</time>
      </trkpt>
      <trkpt lat="36.684245" lon="-5.262840">
        <ele>415.680</ele>
        <time>2015-06-21T13:11:11Z</time>
      </trkpt>
      <trkpt lat="36.684245" lon="-5.262840">
        <ele>416.083</ele>
        <time>2015-06-21T13:11:12Z</time>
      </trkpt>
      <trkpt lat="36.684245" lon="-5.262840">
        <ele>416.453</ele>
        <time>2015-06-21T13:11:13Z</time>
      </trkpt>
      <trkpt lat="36.684249" lon="-5.262843">
        <ele>416.877</ele>
        <time>2015-06-21T13:11:14Z</time>
      </trkpt>
      <trkpt lat="36.684263" lon="-5.262851">
        <ele>417.294</ele>
        <time>2015-06-21T13:11:15Z</time>
      </trkpt>
      <trkpt lat="36.684288" lon="-5.262872">
        <ele>417.273</ele>
        <time>2015-06-21T13:11:21Z</time>
      </trkpt>
      <trkpt lat="36.684314" lon="-5.262893">
        <ele>417.665</ele>
        <time>2015-06-21T13:11:26Z</time>
      </trkpt>
      <trkpt lat="36.684321" lon="-5.262894">
        <ele>418.032</ele>
        <time>2015-06-21T13:11:27Z</time>
      </trkpt>
      <trkpt lat="36.684331" lon="-5.262895">
        <ele>418.492</ele>
        <time>2015-06-21T13:11:28Z</time>
      </trkpt>
      <trkpt lat="36.684341" lon="-5.262894">
        <ele>418.811</ele>
        <time>2015-06-21T13:11:29Z</time>
      </trkpt>
      <trkpt lat="36.684352" lon="-5.262891">
        <ele>419.408</ele>
        <time>2015-06-21T13:11:30Z</time>
      </trkpt>
      <trkpt lat="36.684392" lon="-5.262872">
        <ele>419.464</ele>
        <time>2015-06-21T13:11:35Z</time>
      </trkpt>
      <trkpt lat="36.684444" lon="-5.262845">
        <ele>419.440</ele>
        <time>2015-06-21T13:11:42Z</time>
      </trkpt>
      <trkpt lat="36.684463" lon="-5.262829">
        <ele>419.863</ele>
        <time>2015-06-21T13:11:45Z</time>
      </trkpt>
      <trkpt lat="36.684469" lon="-5.262824">
        <ele>420.233</ele>
        <time>2015-06-21T13:11:46Z</time>
      </trkpt>
      <trkpt lat="36.684472" lon="-5.262820">
        <ele>420.687</ele>
        <time>2015-06-21T13:11:47Z</time>
      </trkpt>
      <trkpt lat="36.684472" lon="-5.262820">
        <ele>421.284</ele>
        <time>2015-06-21T13:11:48Z</time>
      </trkpt>
      <trkpt lat="36.684477" lon="-5.262812">
        <ele>421.623</ele>
        <time>2015-06-21T13:11:49Z</time>
      </trkpt>
      <trkpt lat="36.684517" lon="-5.262799">
        <ele>421.645</ele>
        <time>2015-06-21T13:11:56Z</time>
      </trkpt>
      <trkpt lat="36.684517" lon="-5.262799">
        <ele>422.055</ele>
        <time>2015-06-21T13:11:57Z</time>
      </trkpt>
      <trkpt lat="36.684523" lon="-5.262800">
        <ele>422.407</ele>
        <time>2015-06-21T13:11:58Z</time>
      </trkpt>
      <trkpt lat="36.684527" lon="-5.262799">
        <ele>422.817</ele>
        <time>2015-06-21T13:11:59Z</time>
      </trkpt>
      <trkpt lat="36.684533" lon="-5.262795">
        <ele>423.208</ele>
        <time>2015-06-21T13:12:00Z</time>
      </trkpt>
      <trkpt lat="36.684537" lon="-5.262793">
        <ele>423.896</ele>
        <time>2015-06-21T13:12:01Z</time>
      </trkpt>
      <trkpt lat="36.684537" lon="-5.262789">
        <ele>423.882</ele>
        <time>2015-06-21T13:12:02Z</time>
      </trkpt>
      <trkpt lat="36.684561" lon="-5.262770">
        <ele>423.835</ele>
        <time>2015-06-21T13:12:08Z</time>
      </trkpt>
      <trkpt lat="36.684587" lon="-5.262774">
        <ele>423.835</ele>
        <time>2015-06-21T13:12:15Z</time>
      </trkpt>
      <trkpt lat="36.684587" lon="-5.262774">
        <ele>423.839</ele>
        <time>2015-06-21T13:12:21Z</time>
      </trkpt>
      <trkpt lat="36.684598" lon="-5.262774">
        <ele>423.896</ele>
        <time>2015-06-21T13:12:24Z</time>
      </trkpt>
      <trkpt lat="36.684621" lon="-5.262758">
        <ele>423.865</ele>
        <time>2015-06-21T13:12:28Z</time>
      </trkpt>
      <trkpt lat="36.684657" lon="-5.262725">
        <ele>423.867</ele>
        <time>2015-06-21T13:12:33Z</time>
      </trkpt>
      <trkpt lat="36.684670" lon="-5.262711">
        <ele>424.274</ele>
        <time>2015-06-21T13:12:34Z</time>
      </trkpt>
      <trkpt lat="36.684672" lon="-5.262693">
        <ele>424.656</ele>
        <time>2015-06-21T13:12:35Z</time>
      </trkpt>
      <trkpt lat="36.684683" lon="-5.262699">
        <ele>425.021</ele>
        <time>2015-06-21T13:12:36Z</time>
      </trkpt>
      <trkpt lat="36.684697" lon="-5.262697">
        <ele>425.408</ele>
        <time>2015-06-21T13:12:37Z</time>
      </trkpt>
      <trkpt lat="36.684705" lon="-5.262691">
        <ele>426.018</ele>
        <time>2015-06-21T13:12:38Z</time>
      </trkpt>
      <trkpt lat="36.684748" lon="-5.262667">
        <ele>426.084</ele>
        <time>2015-06-21T13:12:42Z</time>
      </trkpt>
      <trkpt lat="36.684804" lon="-5.262630">
        <ele>426.017</ele>
        <time>2015-06-21T13:12:47Z</time>
      </trkpt>
      <trkpt lat="36.684818" lon="-5.262617">
        <ele>426.067</ele>
        <time>2015-06-21T13:12:48Z</time>
      </trkpt>
      <trkpt lat="36.684928" lon="-5.262530">
        <ele>426.071</ele>
        <time>2015-06-21T13:12:56Z</time>
      </trkpt>
      <trkpt lat="36.684953" lon="-5.262501">
        <ele>426.468</ele>
        <time>2015-06-21T13:12:59Z</time>
      </trkpt>
      <trkpt lat="36.684966" lon="-5.262494">
        <ele>426.867</ele>
        <time>2015-06-21T13:13:00Z</time>
      </trkpt>
      <trkpt lat="36.684977" lon="-5.262481">
        <ele>427.239</ele>
        <time>2015-06-21T13:13:01Z</time>
      </trkpt>
      <trkpt lat="36.684989" lon="-5.262467">
        <ele>427.634</ele>
        <time>2015-06-21T13:13:02Z</time>
      </trkpt>
      <trkpt lat="36.684998" lon="-5.262459">
        <ele>428.055</ele>
        <time>2015-06-21T13:13:03Z</time>
      </trkpt>
      <trkpt lat="36.685026" lon="-5.262405">
        <ele>428.010</ele>
        <time>2015-06-21T13:13:07Z</time>
      </trkpt>
      <trkpt lat="36.685072" lon="-5.262333">
        <ele>428.408</ele>
        <time>2015-06-21T13:13:13Z</time>
      </trkpt>
      <trkpt lat="36.685086" lon="-5.262321">
        <ele>428.884</ele>
        <time>2015-06-21T13:13:14Z</time>
      </trkpt>
      <trkpt lat="36.685096" lon="-5.262309">
        <ele>429.220</ele>
        <time>2015-06-21T13:13:15Z</time>
      </trkpt>
      <trkpt lat="36.685111" lon="-5.262293">
        <ele>429.623</ele>
        <time>2015-06-21T13:13:16Z</time>
      </trkpt>
      <trkpt lat="36.685120" lon="-5.262293">
        <ele>430.083</ele>
        <time>2015-06-21T13:13:17Z</time>
      </trkpt>
      <trkpt lat="36.685122" lon="-5.262286">
        <ele>430.037</ele>
        <time>2015-06-21T13:13:19Z</time>
      </trkpt>
      <trkpt lat="36.685122" lon="-5.262286">
        <ele>430.054</ele>
        <time>2015-06-21T13:13:29Z</time>
      </trkpt>
      <trkpt lat="36.685122" lon="-5.262286">
        <ele>430.033</ele>
        <time>2015-06-21T13:13:40Z</time>
      </trkpt>
      <trkpt lat="36.685136" lon="-5.262276">
        <ele>430.025</ele>
        <time>2015-06-21T13:13:46Z</time>
      </trkpt>
      <trkpt lat="36.685163" lon="-5.262227">
        <ele>430.068</ele>
        <time>2015-06-21T13:13:50Z</time>
      </trkpt>
      <trkpt lat="36.685271" lon="-5.262130">
        <ele>430.042</ele>
        <time>2015-06-21T13:13:56Z</time>
      </trkpt>
      <trkpt lat="36.685368" lon="-5.261993">
        <ele>430.026</ele>
        <time>2015-06-21T13:14:02Z</time>
      </trkpt>
      <trkpt lat="36.685433" lon="-5.261909">
        <ele>430.008</ele>
        <time>2015-06-21T13:14:06Z</time>
      </trkpt>
      <trkpt lat="36.685481" lon="-5.261844">
        <ele>430.037</ele>
        <time>2015-06-21T13:14:08Z</time>
      </trkpt>
      <trkpt lat="36.685506" lon="-5.261775">
        <ele>430.043</ele>
        <time>2015-06-21T13:14:10Z</time>
      </trkpt>
      <trkpt lat="36.685520" lon="-5.261619">
        <ele>430.096</ele>
        <time>2015-06-21T13:14:13Z</time>
      </trkpt>
      <trkpt lat="36.685551" lon="-5.261431">
        <ele>430.026</ele>
        <time>2015-06-21T13:14:16Z</time>
      </trkpt>
      <trkpt lat="36.685566" lon="-5.261375">
        <ele>430.040</ele>
        <time>2015-06-21T13:14:17Z</time>
      </trkpt>
      <trkpt lat="36.685574" lon="-5.261274">
        <ele>430.067</ele>
        <time>2015-06-21T13:14:20Z</time>
      </trkpt>
      <trkpt lat="36.685564" lon="-5.261254">
        <ele>430.026</ele>
        <time>2015-06-21T13:14:23Z</time>
      </trkpt>
      <trkpt lat="36.685560" lon="-5.261239">
        <ele>430.098</ele>
        <time>2015-06-21T13:14:24Z</time>
      </trkpt>
      <trkpt lat="36.685571" lon="-5.261202">
        <ele>430.695</ele>
        <time>2015-06-21T13:14:26Z</time>
      </trkpt>
      <trkpt lat="36.685580" lon="-5.261178">
        <ele>431.049</ele>
        <time>2015-06-21T13:14:27Z</time>
      </trkpt>
      <trkpt lat="36.685583" lon="-5.261157">
        <ele>431.423</ele>
        <time>2015-06-21T13:14:28Z</time>
      </trkpt>
      <trkpt lat="36.685594" lon="-5.261134">
        <ele>431.808</ele>
        <time>2015-06-21T13:14:29Z</time>
      </trkpt>
      <trkpt lat="36.685600" lon="-5.261114">
        <ele>432.290</ele>
        <time>2015-06-21T13:14:30Z</time>
      </trkpt>
      <trkpt lat="36.685631" lon="-5.260945">
        <ele>432.256</ele>
        <time>2015-06-21T13:14:37Z</time>
      </trkpt>
      <trkpt lat="36.685644" lon="-5.260923">
        <ele>432.269</ele>
        <time>2015-06-21T13:14:38Z</time>
      </trkpt>
      <trkpt lat="36.685690" lon="-5.260847">
        <ele>432.259</ele>
        <time>2015-06-21T13:14:41Z</time>
      </trkpt>
      <trkpt lat="36.685762" lon="-5.260676">
        <ele>432.273</ele>
        <time>2015-06-21T13:14:47Z</time>
      </trkpt>
      <trkpt lat="36.685851" lon="-5.260516">
        <ele>432.260</ele>
        <time>2015-06-21T13:14:53Z</time>
      </trkpt>
      <trkpt lat="36.685910" lon="-5.260441">
        <ele>432.659</ele>
        <time>2015-06-21T13:14:57Z</time>
      </trkpt>
      <trkpt lat="36.685925" lon="-5.260414">
        <ele>433.091</ele>
        <time>2015-06-21T13:14:58Z</time>
      </trkpt>
      <trkpt lat="36.685944" lon="-5.260384">
        <ele>433.497</ele>
        <time>2015-06-21T13:14:59Z</time>
      </trkpt>
      <trkpt lat="36.685963" lon="-5.260353">
        <ele>433.823</ele>
        <time>2015-06-21T13:15:00Z</time>
      </trkpt>
      <trkpt lat="36.685980" lon="-5.260323">
        <ele>434.225</ele>
        <time>2015-06-21T13:15:01Z</time>
      </trkpt>
      <trkpt lat="36.686064" lon="-5.260188">
        <ele>434.208</ele>
        <time>2015-06-21T13:15:05Z</time>
      </trkpt>
      <trkpt lat="36.686090" lon="-5.260104">
        <ele>434.280</ele>
        <time>2015-06-21T13:15:07Z</time>
      </trkpt>
      <trkpt lat="36.686136" lon="-5.260021">
        <ele>434.216</ele>
        <time>2015-06-21T13:15:09Z</time>
      </trkpt>
      <trkpt lat="36.686163" lon="-5.259978">
        <ele>434.229</ele>
        <time>2015-06-21T13:15:10Z</time>
      </trkpt>
      <trkpt lat="36.686194" lon="-5.259912">
        <ele>434.229</ele>
        <time>2015-06-21T13:15:11Z</time>
      </trkpt>
      <trkpt lat="36.686279" lon="-5.259731">
        <ele>434.293</ele>
        <time>2015-06-21T13:15:14Z</time>
      </trkpt>
      <trkpt lat="36.686373" lon="-5.259518">
        <ele>434.240</ele>
        <time>2015-06-21T13:15:18Z</time>
      </trkpt>
      <trkpt lat="36.686403" lon="-5.259470">
        <ele>434.259</ele>
        <time>2015-06-21T13:15:19Z</time>
      </trkpt>
      <trkpt lat="36.686478" lon="-5.259400">
        <ele>433.831</ele>
        <time>2015-06-21T13:15:21Z</time>
      </trkpt>
      <trkpt lat="36.686518" lon="-5.259365">
        <ele>433.432</ele>
        <time>2015-06-21T13:15:22Z</time>
      </trkpt>
      <trkpt lat="36.686551" lon="-5.259327">
        <ele>433.092</ele>
        <time>2015-06-21T13:15:23Z</time>
      </trkpt>
      <trkpt lat="36.686591" lon="-5.259281">
        <ele>432.611</ele>
        <time>2015-06-21T13:15:24Z</time>
      </trkpt>
      <trkpt lat="36.686624" lon="-5.259241">
        <ele>432.208</ele>
        <time>2015-06-21T13:15:25Z</time>
      </trkpt>
      <trkpt lat="36.686695" lon="-5.259158">
        <ele>432.214</ele>
        <time>2015-06-21T13:15:27Z</time>
      </trkpt>
      <trkpt lat="36.686732" lon="-5.259114">
        <ele>432.260</ele>
        <time>2015-06-21T13:15:28Z</time>
      </trkpt>
      <trkpt lat="36.686879" lon="-5.258952">
        <ele>432.293</ele>
        <time>2015-06-21T13:15:32Z</time>
      </trkpt>
      <trkpt lat="36.686982" lon="-5.258832">
        <ele>432.273</ele>
        <time>2015-06-21T13:15:35Z</time>
      </trkpt>
      <trkpt lat="36.687087" lon="-5.258735">
        <ele>432.267</ele>
        <time>2015-06-21T13:15:38Z</time>
      </trkpt>
      <trkpt lat="36.687124" lon="-5.258697">
        <ele>432.264</ele>
        <time>2015-06-21T13:15:39Z</time>
      </trkpt>
      <trkpt lat="36.687224" lon="-5.258607">
        <ele>432.233</ele>
        <time>2015-06-21T13:15:43Z</time>
      </trkpt>
      <trkpt lat="36.687251" lon="-5.258579">
        <ele>432.215</ele>
        <time>2015-06-21T13:15:45Z</time>
      </trkpt>
      <trkpt lat="36.687279" lon="-5.258556">
        <ele>432.258</ele>
        <time>2015-06-21T13:15:47Z</time>
      </trkpt>
      <trkpt lat="36.687294" lon="-5.258543">
        <ele>432.252</ele>
        <time>2015-06-21T13:15:48Z</time>
      </trkpt>
      <trkpt lat="36.687385" lon="-5.258483">
        <ele>432.217</ele>
        <time>2015-06-21T13:15:52Z</time>
      </trkpt>
      <trkpt lat="36.687430" lon="-5.258441">
        <ele>432.208</ele>
        <time>2015-06-21T13:15:54Z</time>
      </trkpt>
      <trkpt lat="36.687562" lon="-5.258365">
        <ele>432.266</ele>
        <time>2015-06-21T13:16:00Z</time>
      </trkpt>
      <trkpt lat="36.687691" lon="-5.258329">
        <ele>432.252</ele>
        <time>2015-06-21T13:16:06Z</time>
      </trkpt>
      <trkpt lat="36.687710" lon="-5.258331">
        <ele>432.285</ele>
        <time>2015-06-21T13:16:07Z</time>
      </trkpt>
      <trkpt lat="36.687798" lon="-5.258304">
        <ele>432.285</ele>
        <time>2015-06-21T13:16:11Z</time>
      </trkpt>
      <trkpt lat="36.687837" lon="-5.258280">
        <ele>432.219</ele>
        <time>2015-06-21T13:16:13Z</time>
      </trkpt>
      <trkpt lat="36.687930" lon="-5.258219">
        <ele>432.246</ele>
        <time>2015-06-21T13:16:18Z</time>
      </trkpt>
      <trkpt lat="36.687963" lon="-5.258190">
        <ele>432.615</ele>
        <time>2015-06-21T13:16:20Z</time>
      </trkpt>
      <trkpt lat="36.687978" lon="-5.258177">
        <ele>433.077</ele>
        <time>2015-06-21T13:16:21Z</time>
      </trkpt>
      <trkpt lat="36.687993" lon="-5.258162">
        <ele>433.483</ele>
        <time>2015-06-21T13:16:22Z</time>
      </trkpt>
      <trkpt lat="36.688007" lon="-5.258147">
        <ele>433.825</ele>
        <time>2015-06-21T13:16:23Z</time>
      </trkpt>
      <trkpt lat="36.688019" lon="-5.258134">
        <ele>434.417</ele>
        <time>2015-06-21T13:16:24Z</time>
      </trkpt>
      <trkpt lat="36.688039" lon="-5.258097">
        <ele>434.408</ele>
        <time>2015-06-21T13:16:26Z</time>
      </trkpt>
      <trkpt lat="36.688053" lon="-5.258086">
        <ele>434.419</ele>
        <time>2015-06-21T13:16:27Z</time>
      </trkpt>
      <trkpt lat="36.688135" lon="-5.258021">
        <ele>434.445</ele>
        <time>2015-06-21T13:16:33Z</time>
      </trkpt>
      <trkpt lat="36.688175" lon="-5.258013">
        <ele>434.448</ele>
        <time>2015-06-21T13:16:35Z</time>
      </trkpt>
      <trkpt lat="36.688210" lon="-5.258032">
        <ele>434.478</ele>
        <time>2015-06-21T13:16:37Z</time>
      </trkpt>
      <trkpt lat="36.688301" lon="-5.258081">
        <ele>434.472</ele>
        <time>2015-06-21T13:16:42Z</time>
      </trkpt>
      <trkpt lat="36.688324" lon="-5.258080">
        <ele>434.429</ele>
        <time>2015-06-21T13:16:43Z</time>
      </trkpt>
      <trkpt lat="36.688405" lon="-5.258053">
        <ele>434.878</ele>
        <time>2015-06-21T13:16:47Z</time>
      </trkpt>
      <trkpt lat="36.688422" lon="-5.258040">
        <ele>435.280</ele>
        <time>2015-06-21T13:16:48Z</time>
      </trkpt>
      <trkpt lat="36.688433" lon="-5.258031">
        <ele>435.681</ele>
        <time>2015-06-21T13:16:49Z</time>
      </trkpt>
      <trkpt lat="36.688444" lon="-5.258026">
        <ele>436.061</ele>
        <time>2015-06-21T13:16:50Z</time>
      </trkpt>
      <trkpt lat="36.688452" lon="-5.258021">
        <ele>436.417</ele>
        <time>2015-06-21T13:16:51Z</time>
      </trkpt>
      <trkpt lat="36.688469" lon="-5.258006">
        <ele>436.408</ele>
        <time>2015-06-21T13:16:53Z</time>
      </trkpt>
      <trkpt lat="36.688491" lon="-5.257991">
        <ele>436.459</ele>
        <time>2015-06-21T13:16:55Z</time>
      </trkpt>
      <trkpt lat="36.688546" lon="-5.257971">
        <ele>436.415</ele>
        <time>2015-06-21T13:16:59Z</time>
      </trkpt>
      <trkpt lat="36.688572" lon="-5.257947">
        <ele>436.868</ele>
        <time>2015-06-21T13:17:02Z</time>
      </trkpt>
      <trkpt lat="36.688577" lon="-5.257933">
        <ele>437.258</ele>
        <time>2015-06-21T13:17:03Z</time>
      </trkpt>
      <trkpt lat="36.688588" lon="-5.257923">
        <ele>437.692</ele>
        <time>2015-06-21T13:17:04Z</time>
      </trkpt>
      <trkpt lat="36.688598" lon="-5.257916">
        <ele>438.049</ele>
        <time>2015-06-21T13:17:05Z</time>
      </trkpt>
      <trkpt lat="36.688606" lon="-5.257910">
        <ele>438.448</ele>
        <time>2015-06-21T13:17:06Z</time>
      </trkpt>
      <trkpt lat="36.688673" lon="-5.257827">
        <ele>438.830</ele>
        <time>2015-06-21T13:17:14Z</time>
      </trkpt>
      <trkpt lat="36.688683" lon="-5.257819">
        <ele>439.231</ele>
        <time>2015-06-21T13:17:15Z</time>
      </trkpt>
      <trkpt lat="36.688692" lon="-5.257811">
        <ele>439.661</ele>
        <time>2015-06-21T13:17:16Z</time>
      </trkpt>
      <trkpt lat="36.688702" lon="-5.257805">
        <ele>440.007</ele>
        <time>2015-06-21T13:17:17Z</time>
      </trkpt>
      <trkpt lat="36.688713" lon="-5.257798">
        <ele>440.408</ele>
        <time>2015-06-21T13:17:18Z</time>
      </trkpt>
      <trkpt lat="36.688746" lon="-5.257773">
        <ele>440.444</ele>
        <time>2015-06-21T13:17:21Z</time>
      </trkpt>
      <trkpt lat="36.688790" lon="-5.257734">
        <ele>440.880</ele>
        <time>2015-06-21T13:17:26Z</time>
      </trkpt>
      <trkpt lat="36.688797" lon="-5.257726">
        <ele>441.423</ele>
        <time>2015-06-21T13:17:27Z</time>
      </trkpt>
      <trkpt lat="36.688805" lon="-5.257719">
        <ele>441.893</ele>
        <time>2015-06-21T13:17:28Z</time>
      </trkpt>
      <trkpt lat="36.688814" lon="-5.257713">
        <ele>442.297</ele>
        <time>2015-06-21T13:17:29Z</time>
      </trkpt>
      <trkpt lat="36.688825" lon="-5.257708">
        <ele>442.654</ele>
        <time>2015-06-21T13:17:30Z</time>
      </trkpt>
      <trkpt lat="36.688848" lon="-5.257700">
        <ele>442.623</ele>
        <time>2015-06-21T13:17:33Z</time>
      </trkpt>
      <trkpt lat="36.688880" lon="-5.257693">
        <ele>443.015</ele>
        <time>2015-06-21T13:17:36Z</time>
      </trkpt>
      <trkpt lat="36.688893" lon="-5.257693">
        <ele>443.425</ele>
        <time>2015-06-21T13:17:37Z</time>
      </trkpt>
      <trkpt lat="36.688903" lon="-5.257692">
        <ele>443.826</ele>
        <time>2015-06-21T13:17:38Z</time>
      </trkpt>
      <trkpt lat="36.688910" lon="-5.257687">
        <ele>444.208</ele>
        <time>2015-06-21T13:17:39Z</time>
      </trkpt>
      <trkpt lat="36.688920" lon="-5.257685">
        <ele>444.608</ele>
        <time>2015-06-21T13:17:40Z</time>
      </trkpt>
      <trkpt lat="36.688924" lon="-5.257688">
        <ele>444.663</ele>
        <time>2015-06-21T13:17:43Z</time>
      </trkpt>
      <trkpt lat="36.688928" lon="-5.257688">
        <ele>444.679</ele>
        <time>2015-06-21T13:17:49Z</time>
      </trkpt>
      <trkpt lat="36.688928" lon="-5.257688">
        <ele>444.642</ele>
        <time>2015-06-21T13:17:50Z</time>
      </trkpt>
      <trkpt lat="36.688942" lon="-5.257690">
        <ele>444.662</ele>
        <time>2015-06-21T13:17:55Z</time>
      </trkpt>
      <trkpt lat="36.688951" lon="-5.257688">
        <ele>445.036</ele>
        <time>2015-06-21T13:17:57Z</time>
      </trkpt>
      <trkpt lat="36.688951" lon="-5.257688">
        <ele>445.493</ele>
        <time>2015-06-21T13:17:58Z</time>
      </trkpt>
      <trkpt lat="36.688958" lon="-5.257689">
        <ele>445.882</ele>
        <time>2015-06-21T13:17:59Z</time>
      </trkpt>
      <trkpt lat="36.688964" lon="-5.257687">
        <ele>446.634</ele>
        <time>2015-06-21T13:18:00Z</time>
      </trkpt>
      <trkpt lat="36.688975" lon="-5.257675">
        <ele>446.693</ele>
        <time>2015-06-21T13:18:03Z</time>
      </trkpt>
      <trkpt lat="36.689013" lon="-5.257672">
        <ele>446.665</ele>
        <time>2015-06-21T13:18:10Z</time>
      </trkpt>
      <trkpt lat="36.689018" lon="-5.257676">
        <ele>447.021</ele>
        <time>2015-06-21T13:18:13Z</time>
      </trkpt>
      <trkpt lat="36.689023" lon="-5.257680">
        <ele>447.408</ele>
        <time>2015-06-21T13:18:14Z</time>
      </trkpt>
      <trkpt lat="36.689026" lon="-5.257686">
        <ele>447.880</ele>
        <time>2015-06-21T13:18:15Z</time>
      </trkpt>
      <trkpt lat="36.689032" lon="-5.257688">
        <ele>448.496</ele>
        <time>2015-06-21T13:18:16Z</time>
      </trkpt>
      <trkpt lat="36.689036" lon="-5.257690">
        <ele>448.899</ele>
        <time>2015-06-21T13:18:17Z</time>
      </trkpt>
      <trkpt lat="36.689062" lon="-5.257695">
        <ele>448.869</ele>
        <time>2015-06-21T13:18:23Z</time>
      </trkpt>
      <trkpt lat="36.689083" lon="-5.257709">
        <ele>449.213</ele>
        <time>2015-06-21T13:18:28Z</time>
      </trkpt>
      <trkpt lat="36.689089" lon="-5.257710">
        <ele>449.690</ele>
        <time>2015-06-21T13:18:29Z</time>
      </trkpt>
      <trkpt lat="36.689095" lon="-5.257711">
        <ele>450.029</ele>
        <time>2015-06-21T13:18:30Z</time>
      </trkpt>
      <trkpt lat="36.689100" lon="-5.257710">
        <ele>450.421</ele>
        <time>2015-06-21T13:18:31Z</time>
      </trkpt>
      <trkpt lat="36.689105" lon="-5.257711">
        <ele>450.845</ele>
        <time>2015-06-21T13:18:32Z</time>
      </trkpt>
      <trkpt lat="36.689117" lon="-5.257711">
        <ele>450.847</ele>
        <time>2015-06-21T13:18:37Z</time>
      </trkpt>
      <trkpt lat="36.689121" lon="-5.257713">
        <ele>450.811</ele>
        <time>2015-06-21T13:18:42Z</time>
      </trkpt>
      <trkpt lat="36.689159" lon="-5.257707">
        <ele>450.808</ele>
        <time>2015-06-21T13:18:49Z</time>
      </trkpt>
      <trkpt lat="36.689159" lon="-5.257707">
        <ele>451.215</ele>
        <time>2015-06-21T13:18:50Z</time>
      </trkpt>
      <trkpt lat="36.689159" lon="-5.257707">
        <ele>451.631</ele>
        <time>2015-06-21T13:18:51Z</time>
      </trkpt>
      <trkpt lat="36.689159" lon="-5.257707">
        <ele>452.044</ele>
        <time>2015-06-21T13:18:52Z</time>
      </trkpt>
      <trkpt lat="36.689159" lon="-5.257707">
        <ele>452.494</ele>
        <time>2015-06-21T13:18:53Z</time>
      </trkpt>
      <trkpt lat="36.689159" lon="-5.257707">
        <ele>452.888</ele>
        <time>2015-06-21T13:18:54Z</time>
      </trkpt>
      <trkpt lat="36.689159" lon="-5.257707">
        <ele>452.875</ele>
        <time>2015-06-21T13:18:57Z</time>
      </trkpt>
      <trkpt lat="36.689166" lon="-5.257707">
        <ele>452.854</ele>
        <time>2015-06-21T13:19:05Z</time>
      </trkpt>
      <trkpt lat="36.689166" lon="-5.257707">
        <ele>452.856</ele>
        <time>2015-06-21T13:19:08Z</time>
      </trkpt>
      <trkpt lat="36.689166" lon="-5.257707">
        <ele>452.847</ele>
        <time>2015-06-21T13:19:11Z</time>
      </trkpt>
      <trkpt lat="36.689166" lon="-5.257707">
        <ele>452.829</ele>
        <time>2015-06-21T13:19:16Z</time>
      </trkpt>
      <trkpt lat="36.689166" lon="-5.257707">
        <ele>452.821</ele>
        <time>2015-06-21T13:19:19Z</time>
      </trkpt>
      <trkpt lat="36.689166" lon="-5.257707">
        <ele>452.808</ele>
        <time>2015-06-21T13:19:22Z</time>
      </trkpt>
      <trkpt lat="36.689175" lon="-5.257705">
        <ele>452.865</ele>
        <time>2015-06-21T13:19:28Z</time>
      </trkpt>
      <trkpt lat="36.689175" lon="-5.257705">
        <ele>452.811</ele>
        <time>2015-06-21T13:19:37Z</time>
      </trkpt>
      <trkpt lat="36.689185" lon="-5.257699">
        <ele>452.844</ele>
        <time>2015-06-21T13:19:39Z</time>
      </trkpt>
      <trkpt lat="36.689241" lon="-5.257689">
        <ele>452.894</ele>
        <time>2015-06-21T13:19:43Z</time>
      </trkpt>
      <trkpt lat="36.689263" lon="-5.257682">
        <ele>452.828</ele>
        <time>2015-06-21T13:19:45Z</time>
      </trkpt>
      <trkpt lat="36.689318" lon="-5.257682">
        <ele>452.895</ele>
        <time>2015-06-21T13:19:49Z</time>
      </trkpt>
      <trkpt lat="36.689380" lon="-5.257692">
        <ele>453.264</ele>
        <time>2015-06-21T13:19:53Z</time>
      </trkpt>
      <trkpt lat="36.689397" lon="-5.257699">
        <ele>453.646</ele>
        <time>2015-06-21T13:19:54Z</time>
      </trkpt>
      <trkpt lat="36.689412" lon="-5.257708">
        <ele>454.011</ele>
        <time>2015-06-21T13:19:55Z</time>
      </trkpt>
      <trkpt lat="36.689423" lon="-5.257713">
        <ele>454.421</ele>
        <time>2015-06-21T13:19:56Z</time>
      </trkpt>
      <trkpt lat="36.689432" lon="-5.257716">
        <ele>454.803</ele>
        <time>2015-06-21T13:19:57Z</time>
      </trkpt>
      <trkpt lat="36.689469" lon="-5.257728">
        <ele>454.808</ele>
        <time>2015-06-21T13:20:01Z</time>
      </trkpt>
      <trkpt lat="36.689517" lon="-5.257741">
        <ele>454.872</ele>
        <time>2015-06-21T13:20:06Z</time>
      </trkpt>
      <trkpt lat="36.689604" lon="-5.257768">
        <ele>454.838</ele>
        <time>2015-06-21T13:20:09Z</time>
      </trkpt>
      <trkpt lat="36.689655" lon="-5.257792">
        <ele>454.871</ele>
        <time>2015-06-21T13:20:10Z</time>
      </trkpt>
      <trkpt lat="36.689804" lon="-5.257891">
        <ele>454.841</ele>
        <time>2015-06-21T13:20:14Z</time>
      </trkpt>
      <trkpt lat="36.689836" lon="-5.257918">
        <ele>454.435</ele>
        <time>2015-06-21T13:20:15Z</time>
      </trkpt>
      <trkpt lat="36.689872" lon="-5.257945">
        <ele>454.082</ele>
        <time>2015-06-21T13:20:16Z</time>
      </trkpt>
      <trkpt lat="36.689921" lon="-5.257957">
        <ele>453.651</ele>
        <time>2015-06-21T13:20:17Z</time>
      </trkpt>
      <trkpt lat="36.689971" lon="-5.257954">
        <ele>453.293</ele>
        <time>2015-06-21T13:20:18Z</time>
      </trkpt>
      <trkpt lat="36.690022" lon="-5.257944">
        <ele>452.692</ele>
        <time>2015-06-21T13:20:19Z</time>
      </trkpt>
      <trkpt lat="36.690077" lon="-5.257923">
        <ele>452.273</ele>
        <time>2015-06-21T13:20:20Z</time>
      </trkpt>
      <trkpt lat="36.690134" lon="-5.257895">
        <ele>451.620</ele>
        <time>2015-06-21T13:20:21Z</time>
      </trkpt>
      <trkpt lat="36.690188" lon="-5.257863">
        <ele>451.008</ele>
        <time>2015-06-21T13:20:22Z</time>
      </trkpt>
      <trkpt lat="36.690242" lon="-5.257827">
        <ele>450.480</ele>
        <time>2015-06-21T13:20:23Z</time>
      </trkpt>
      <trkpt lat="36.690288" lon="-5.257787">
        <ele>450.476</ele>
        <time>2015-06-21T13:20:24Z</time>
      </trkpt>
      <trkpt lat="36.690360" lon="-5.257683">
        <ele>450.479</ele>
        <time>2015-06-21T13:20:26Z</time>
      </trkpt>
      <trkpt lat="36.690409" lon="-5.257537">
        <ele>449.679</ele>
        <time>2015-06-21T13:20:28Z</time>
      </trkpt>
      <trkpt lat="36.690437" lon="-5.257456">
        <ele>449.283</ele>
        <time>2015-06-21T13:20:29Z</time>
      </trkpt>
      <trkpt lat="36.690466" lon="-5.257373">
        <ele>448.860</ele>
        <time>2015-06-21T13:20:30Z</time>
      </trkpt>
      <trkpt lat="36.690493" lon="-5.257289">
        <ele>448.439</ele>
        <time>2015-06-21T13:20:31Z</time>
      </trkpt>
      <trkpt lat="36.690562" lon="-5.257022">
        <ele>448.051</ele>
        <time>2015-06-21T13:20:34Z</time>
      </trkpt>
      <trkpt lat="36.690575" lon="-5.256939">
        <ele>447.431</ele>
        <time>2015-06-21T13:20:35Z</time>
      </trkpt>
      <trkpt lat="36.690586" lon="-5.256860">
        <ele>447.061</ele>
        <time>2015-06-21T13:20:36Z</time>
      </trkpt>
      <trkpt lat="36.690599" lon="-5.256783">
        <ele>446.607</ele>
        <time>2015-06-21T13:20:37Z</time>
      </trkpt>
      <trkpt lat="36.690612" lon="-5.256708">
        <ele>446.008</ele>
        <time>2015-06-21T13:20:38Z</time>
      </trkpt>
      <trkpt lat="36.690623" lon="-5.256636">
        <ele>445.454</ele>
        <time>2015-06-21T13:20:39Z</time>
      </trkpt>
      <trkpt lat="36.690634" lon="-5.256572">
        <ele>444.870</ele>
        <time>2015-06-21T13:20:40Z</time>
      </trkpt>
      <trkpt lat="36.690644" lon="-5.256503">
        <ele>444.473</ele>
        <time>2015-06-21T13:20:41Z</time>
      </trkpt>
      <trkpt lat="36.690647" lon="-5.256437">
        <ele>443.813</ele>
        <time>2015-06-21T13:20:42Z</time>
      </trkpt>
      <trkpt lat="36.690655" lon="-5.256312">
        <ele>443.457</ele>
        <time>2015-06-21T13:20:44Z</time>
      </trkpt>
      <trkpt lat="36.690666" lon="-5.256243">
        <ele>443.084</ele>
        <time>2015-06-21T13:20:45Z</time>
      </trkpt>
      <trkpt lat="36.690687" lon="-5.256173">
        <ele>442.633</ele>
        <time>2015-06-21T13:20:46Z</time>
      </trkpt>
      <trkpt lat="36.690726" lon="-5.256124">
        <ele>442.095</ele>
        <time>2015-06-21T13:20:47Z</time>
      </trkpt>
      <trkpt lat="36.690775" lon="-5.256083">
        <ele>441.671</ele>
        <time>2015-06-21T13:20:48Z</time>
      </trkpt>
      <trkpt lat="36.690824" lon="-5.256027">
        <ele>441.041</ele>
        <time>2015-06-21T13:20:49Z</time>
      </trkpt>
      <trkpt lat="36.690875" lon="-5.255965">
        <ele>440.615</ele>
        <time>2015-06-21T13:20:50Z</time>
      </trkpt>
      <trkpt lat="36.690931" lon="-5.255909">
        <ele>440.208</ele>
        <time>2015-06-21T13:20:51Z</time>
      </trkpt>
      <trkpt lat="36.690979" lon="-5.255849">
        <ele>439.678</ele>
        <time>2015-06-21T13:20:52Z</time>
      </trkpt>
      <trkpt lat="36.691018" lon="-5.255782">
        <ele>438.624</ele>
        <time>2015-06-21T13:20:53Z</time>
      </trkpt>
      <trkpt lat="36.691049" lon="-5.255719">
        <ele>438.097</ele>
        <time>2015-06-21T13:20:54Z</time>
      </trkpt>
      <trkpt lat="36.691081" lon="-5.255668">
        <ele>437.267</ele>
        <time>2015-06-21T13:20:55Z</time>
      </trkpt>
      <trkpt lat="36.691116" lon="-5.255630">
        <ele>436.671</ele>
        <time>2015-06-21T13:20:56Z</time>
      </trkpt>
      <trkpt lat="36.691142" lon="-5.255606">
        <ele>435.838</ele>
        <time>2015-06-21T13:20:57Z</time>
      </trkpt>
      <trkpt lat="36.691162" lon="-5.255591">
        <ele>435.217</ele>
        <time>2015-06-21T13:20:58Z</time>
      </trkpt>
      <trkpt lat="36.691170" lon="-5.255585">
        <ele>434.689</ele>
        <time>2015-06-21T13:20:59Z</time>
      </trkpt>
      <trkpt lat="36.691167" lon="-5.255582">
        <ele>434.253</ele>
        <time>2015-06-21T13:21:00Z</time>
      </trkpt>
      <trkpt lat="36.691167" lon="-5.255582">
        <ele>433.604</ele>
        <time>2015-06-21T13:21:01Z</time>
      </trkpt>
      <trkpt lat="36.691167" lon="-5.255582">
        <ele>433.014</ele>
        <time>2015-06-21T13:21:02Z</time>
      </trkpt>
      <trkpt lat="36.691167" lon="-5.255582">
        <ele>432.608</ele>
        <time>2015-06-21T13:21:03Z</time>
      </trkpt>
      <trkpt lat="36.691167" lon="-5.255582">
        <ele>432.676</ele>
        <time>2015-06-21T13:21:05Z</time>
      </trkpt>
      <trkpt lat="36.691167" lon="-5.255582">
        <ele>432.252</ele>
        <time>2015-06-21T13:21:07Z</time>
      </trkpt>
      <trkpt lat="36.691167" lon="-5.255582">
        <ele>431.825</ele>
        <time>2015-06-21T13:21:08Z</time>
      </trkpt>
      <trkpt lat="36.691167" lon="-5.255582">
        <ele>431.475</ele>
        <time>2015-06-21T13:21:09Z</time>
      </trkpt>
      <trkpt lat="36.691167" lon="-5.255582">
        <ele>431.049</ele>
        <time>2015-06-21T13:21:10Z</time>
      </trkpt>
      <trkpt lat="36.691167" lon="-5.255582">
        <ele>430.626</ele>
        <time>2015-06-21T13:21:11Z</time>
      </trkpt>
      <trkpt lat="36.691167" lon="-5.255582">
        <ele>430.635</ele>
        <time>2015-06-21T13:21:14Z</time>
      </trkpt>
      <trkpt lat="36.691176" lon="-5.255568">
        <ele>430.667</ele>
        <time>2015-06-21T13:21:25Z</time>
      </trkpt>
      <trkpt lat="36.691226" lon="-5.255511">
        <ele>430.699</ele>
        <time>2015-06-21T13:21:27Z</time>
      </trkpt>
      <trkpt lat="36.691260" lon="-5.255479">
        <ele>430.607</ele>
        <time>2015-06-21T13:21:28Z</time>
      </trkpt>
      <trkpt lat="36.691301" lon="-5.255447">
        <ele>430.627</ele>
        <time>2015-06-21T13:21:29Z</time>
      </trkpt>
      <trkpt lat="36.691379" lon="-5.255372">
        <ele>430.008</ele>
        <time>2015-06-21T13:21:31Z</time>
      </trkpt>
      <trkpt lat="36.691417" lon="-5.255314">
        <ele>429.630</ele>
        <time>2015-06-21T13:21:32Z</time>
      </trkpt>
      <trkpt lat="36.691449" lon="-5.255249">
        <ele>429.026</ele>
        <time>2015-06-21T13:21:33Z</time>
      </trkpt>
      <trkpt lat="36.691481" lon="-5.255192">
        <ele>428.629</ele>
        <time>2015-06-21T13:21:34Z</time>
      </trkpt>
      <trkpt lat="36.691517" lon="-5.255161">
        <ele>428.069</ele>
        <time>2015-06-21T13:21:35Z</time>
      </trkpt>
      <trkpt lat="36.691553" lon="-5.255151">
        <ele>427.653</ele>
        <time>2015-06-21T13:21:36Z</time>
      </trkpt>
      <trkpt lat="36.691585" lon="-5.255159">
        <ele>427.040</ele>
        <time>2015-06-21T13:21:37Z</time>
      </trkpt>
      <trkpt lat="36.691619" lon="-5.255175">
        <ele>426.649</ele>
        <time>2015-06-21T13:21:38Z</time>
      </trkpt>
      <trkpt lat="36.691661" lon="-5.255185">
        <ele>426.081</ele>
        <time>2015-06-21T13:21:39Z</time>
      </trkpt>
      <trkpt lat="36.691707" lon="-5.255189">
        <ele>426.062</ele>
        <time>2015-06-21T13:21:40Z</time>
      </trkpt>
      <trkpt lat="36.691808" lon="-5.255181">
        <ele>426.083</ele>
        <time>2015-06-21T13:21:42Z</time>
      </trkpt>
      <trkpt lat="36.691858" lon="-5.255170">
        <ele>425.611</ele>
        <time>2015-06-21T13:21:43Z</time>
      </trkpt>
      <trkpt lat="36.691907" lon="-5.255157">
        <ele>425.208</ele>
        <time>2015-06-21T13:21:44Z</time>
      </trkpt>
      <trkpt lat="36.691955" lon="-5.255145">
        <ele>424.867</ele>
        <time>2015-06-21T13:21:45Z</time>
      </trkpt>
      <trkpt lat="36.692002" lon="-5.255134">
        <ele>424.443</ele>
        <time>2015-06-21T13:21:46Z</time>
      </trkpt>
      <trkpt lat="36.692050" lon="-5.255124">
        <ele>424.026</ele>
        <time>2015-06-21T13:21:47Z</time>
      </trkpt>
      <trkpt lat="36.692141" lon="-5.255093">
        <ele>424.026</ele>
        <time>2015-06-21T13:21:49Z</time>
      </trkpt>
      <trkpt lat="36.692233" lon="-5.255058">
        <ele>424.070</ele>
        <time>2015-06-21T13:21:51Z</time>
      </trkpt>
      <trkpt lat="36.692338" lon="-5.255028">
        <ele>424.047</ele>
        <time>2015-06-21T13:21:53Z</time>
      </trkpt>
      <trkpt lat="36.692406" lon="-5.255013">
        <ele>423.646</ele>
        <time>2015-06-21T13:21:54Z</time>
      </trkpt>
      <trkpt lat="36.692478" lon="-5.254996">
        <ele>423.068</ele>
        <time>2015-06-21T13:21:55Z</time>
      </trkpt>
      <trkpt lat="36.692555" lon="-5.254980">
        <ele>422.669</ele>
        <time>2015-06-21T13:21:56Z</time>
      </trkpt>
      <trkpt lat="36.692628" lon="-5.254967">
        <ele>422.204</ele>
        <time>2015-06-21T13:21:57Z</time>
      </trkpt>
      <trkpt lat="36.692701" lon="-5.254956">
        <ele>421.824</ele>
        <time>2015-06-21T13:21:58Z</time>
      </trkpt>
      <trkpt lat="36.692775" lon="-5.254949">
        <ele>421.208</ele>
        <time>2015-06-21T13:21:59Z</time>
      </trkpt>
      <trkpt lat="36.692846" lon="-5.254946">
        <ele>420.897</ele>
        <time>2015-06-21T13:22:00Z</time>
      </trkpt>
      <trkpt lat="36.692909" lon="-5.254940">
        <ele>420.253</ele>
        <time>2015-06-21T13:22:01Z</time>
      </trkpt>
      <trkpt lat="36.692963" lon="-5.254923">
        <ele>419.636</ele>
        <time>2015-06-21T13:22:02Z</time>
      </trkpt>
      <trkpt lat="36.693013" lon="-5.254901">
        <ele>418.826</ele>
        <time>2015-06-21T13:22:03Z</time>
      </trkpt>
      <trkpt lat="36.693064" lon="-5.254878">
        <ele>418.260</ele>
        <time>2015-06-21T13:22:04Z</time>
      </trkpt>
      <trkpt lat="36.693116" lon="-5.254855">
        <ele>417.677</ele>
        <time>2015-06-21T13:22:05Z</time>
      </trkpt>
      <trkpt lat="36.693167" lon="-5.254834">
        <ele>417.086</ele>
        <time>2015-06-21T13:22:06Z</time>
      </trkpt>
      <trkpt lat="36.693220" lon="-5.254818">
        <ele>417.048</ele>
        <time>2015-06-21T13:22:07Z</time>
      </trkpt>
      <trkpt lat="36.693337" lon="-5.254778">
        <ele>416.466</ele>
        <time>2015-06-21T13:22:09Z</time>
      </trkpt>
      <trkpt lat="36.693397" lon="-5.254742">
        <ele>416.029</ele>
        <time>2015-06-21T13:22:10Z</time>
      </trkpt>
      <trkpt lat="36.693460" lon="-5.254698">
        <ele>415.621</ele>
        <time>2015-06-21T13:22:11Z</time>
      </trkpt>
      <trkpt lat="36.693523" lon="-5.254657">
        <ele>415.008</ele>
        <time>2015-06-21T13:22:12Z</time>
      </trkpt>
      <trkpt lat="36.693589" lon="-5.254617">
        <ele>414.657</ele>
        <time>2015-06-21T13:22:13Z</time>
      </trkpt>
      <trkpt lat="36.693719" lon="-5.254541">
        <ele>414.223</ele>
        <time>2015-06-21T13:22:15Z</time>
      </trkpt>
      <trkpt lat="36.693774" lon="-5.254502">
        <ele>413.816</ele>
        <time>2015-06-21T13:22:16Z</time>
      </trkpt>
      <trkpt lat="36.693829" lon="-5.254478">
        <ele>413.486</ele>
        <time>2015-06-21T13:22:17Z</time>
      </trkpt>
      <trkpt lat="36.693883" lon="-5.254467">
        <ele>412.820</ele>
        <time>2015-06-21T13:22:18Z</time>
      </trkpt>
      <trkpt lat="36.693942" lon="-5.254461">
        <ele>412.427</ele>
        <time>2015-06-21T13:22:19Z</time>
      </trkpt>
      <trkpt lat="36.694004" lon="-5.254452">
        <ele>412.076</ele>
        <time>2015-06-21T13:22:20Z</time>
      </trkpt>
      <trkpt lat="36.694066" lon="-5.254428">
        <ele>411.648</ele>
        <time>2015-06-21T13:22:21Z</time>
      </trkpt>
      <trkpt lat="36.694124" lon="-5.254392">
        <ele>411.264</ele>
        <time>2015-06-21T13:22:22Z</time>
      </trkpt>
      <trkpt lat="36.694181" lon="-5.254355">
        <ele>410.806</ele>
        <time>2015-06-21T13:22:23Z</time>
      </trkpt>
      <trkpt lat="36.694238" lon="-5.254318">
        <ele>410.416</ele>
        <time>2015-06-21T13:22:24Z</time>
      </trkpt>
      <trkpt lat="36.694348" lon="-5.254259">
        <ele>410.408</ele>
        <time>2015-06-21T13:22:26Z</time>
      </trkpt>
      <trkpt lat="36.694441" lon="-5.254218">
        <ele>410.447</ele>
        <time>2015-06-21T13:22:28Z</time>
      </trkpt>
      <trkpt lat="36.694526" lon="-5.254195">
        <ele>410.413</ele>
        <time>2015-06-21T13:22:30Z</time>
      </trkpt>
      <trkpt lat="36.694653" lon="-5.254118">
        <ele>410.426</ele>
        <time>2015-06-21T13:22:34Z</time>
      </trkpt>
      <trkpt lat="36.694676" lon="-5.254097">
        <ele>410.436</ele>
        <time>2015-06-21T13:22:35Z</time>
      </trkpt>
      <trkpt lat="36.694781" lon="-5.254018">
        <ele>410.430</ele>
        <time>2015-06-21T13:22:41Z</time>
      </trkpt>
      <trkpt lat="36.694803" lon="-5.254006">
        <ele>410.487</ele>
        <time>2015-06-21T13:22:42Z</time>
      </trkpt>
      <trkpt lat="36.694884" lon="-5.254005">
        <ele>410.476</ele>
        <time>2015-06-21T13:22:44Z</time>
      </trkpt>
      <trkpt lat="36.694990" lon="-5.254003">
        <ele>410.478</ele>
        <time>2015-06-21T13:22:46Z</time>
      </trkpt>
      <trkpt lat="36.695061" lon="-5.253965">
        <ele>410.072</ele>
        <time>2015-06-21T13:22:48Z</time>
      </trkpt>
      <trkpt lat="36.695088" lon="-5.253936">
        <ele>409.413</ele>
        <time>2015-06-21T13:22:49Z</time>
      </trkpt>
      <trkpt lat="36.695117" lon="-5.253907">
        <ele>409.014</ele>
        <time>2015-06-21T13:22:50Z</time>
      </trkpt>
      <trkpt lat="36.695151" lon="-5.253869">
        <ele>408.608</ele>
        <time>2015-06-21T13:22:51Z</time>
      </trkpt>
      <trkpt lat="36.695177" lon="-5.253834">
        <ele>408.018</ele>
        <time>2015-06-21T13:22:52Z</time>
      </trkpt>
      <trkpt lat="36.695207" lon="-5.253802">
        <ele>408.084</ele>
        <time>2015-06-21T13:22:55Z</time>
      </trkpt>
      <trkpt lat="36.695207" lon="-5.253802">
        <ele>408.047</ele>
        <time>2015-06-21T13:22:59Z</time>
      </trkpt>
      <trkpt lat="36.695213" lon="-5.253795">
        <ele>407.617</ele>
        <time>2015-06-21T13:23:00Z</time>
      </trkpt>
      <trkpt lat="36.695219" lon="-5.253791">
        <ele>407.221</ele>
        <time>2015-06-21T13:23:01Z</time>
      </trkpt>
      <trkpt lat="36.695223" lon="-5.253788">
        <ele>406.828</ele>
        <time>2015-06-21T13:23:02Z</time>
      </trkpt>
      <trkpt lat="36.695233" lon="-5.253780">
        <ele>406.417</ele>
        <time>2015-06-21T13:23:03Z</time>
      </trkpt>
      <trkpt lat="36.695240" lon="-5.253778">
        <ele>406.059</ele>
        <time>2015-06-21T13:23:04Z</time>
      </trkpt>
      <trkpt lat="36.695240" lon="-5.253778">
        <ele>406.029</ele>
        <time>2015-06-21T13:23:05Z</time>
      </trkpt>
      <trkpt lat="36.695240" lon="-5.253778">
        <ele>406.000</ele>
        <time>2015-06-21T13:23:09Z</time>
      </trkpt>
      <trkpt lat="36.695240" lon="-5.253778">
        <ele>406.020</ele>
        <time>2015-06-21T13:23:12Z</time>
      </trkpt>
      <trkpt lat="36.695252" lon="-5.253778">
        <ele>406.008</ele>
        <time>2015-06-21T13:23:17Z</time>
      </trkpt>
      <trkpt lat="36.695258" lon="-5.253756">
        <ele>406.063</ele>
        <time>2015-06-21T13:23:24Z</time>
      </trkpt>
      <trkpt lat="36.695270" lon="-5.253717">
        <ele>406.089</ele>
        <time>2015-06-21T13:23:27Z</time>
      </trkpt>
      <trkpt lat="36.695273" lon="-5.253697">
        <ele>406.042</ele>
        <time>2015-06-21T13:23:29Z</time>
      </trkpt>
      <trkpt lat="36.695272" lon="-5.253638">
        <ele>406.032</ele>
        <time>2015-06-21T13:23:34Z</time>
      </trkpt>
      <trkpt lat="36.695282" lon="-5.253583">
        <ele>406.066</ele>
        <time>2015-06-21T13:23:39Z</time>
      </trkpt>
      <trkpt lat="36.695289" lon="-5.253567">
        <ele>406.023</ele>
        <time>2015-06-21T13:23:40Z</time>
      </trkpt>
      <trkpt lat="36.695294" lon="-5.253506">
        <ele>406.022</ele>
        <time>2015-06-21T13:23:45Z</time>
      </trkpt>
      <trkpt lat="36.695306" lon="-5.253466">
        <ele>406.074</ele>
        <time>2015-06-21T13:23:51Z</time>
      </trkpt>
      <trkpt lat="36.695310" lon="-5.253452">
        <ele>406.019</ele>
        <time>2015-06-21T13:23:57Z</time>
      </trkpt>
      <trkpt lat="36.695324" lon="-5.253430">
        <ele>406.009</ele>
        <time>2015-06-21T13:24:01Z</time>
      </trkpt>
      <trkpt lat="36.695333" lon="-5.253411">
        <ele>406.019</ele>
        <time>2015-06-21T13:24:04Z</time>
      </trkpt>
      <trkpt lat="36.695337" lon="-5.253370">
        <ele>406.008</ele>
        <time>2015-06-21T13:24:11Z</time>
      </trkpt>
      <trkpt lat="36.695337" lon="-5.253361">
        <ele>406.062</ele>
        <time>2015-06-21T13:24:20Z</time>
      </trkpt>
      <trkpt lat="36.695333" lon="-5.253387">
        <ele>406.068</ele>
        <time>2015-06-21T13:24:26Z</time>
      </trkpt>
      <trkpt lat="36.695333" lon="-5.253387">
        <ele>406.061</ele>
        <time>2015-06-21T13:24:32Z</time>
      </trkpt>
      <trkpt lat="36.695341" lon="-5.253393">
        <ele>406.051</ele>
        <time>2015-06-21T13:24:35Z</time>
      </trkpt>
      <trkpt lat="36.695341" lon="-5.253393">
        <ele>406.065</ele>
        <time>2015-06-21T13:24:39Z</time>
      </trkpt>
      <trkpt lat="36.695341" lon="-5.253393">
        <ele>406.072</ele>
        <time>2015-06-21T13:24:50Z</time>
      </trkpt>
      <trkpt lat="36.695341" lon="-5.253393">
        <ele>406.061</ele>
        <time>2015-06-21T13:25:03Z</time>
      </trkpt>
      <trkpt lat="36.695341" lon="-5.253393">
        <ele>406.053</ele>
        <time>2015-06-21T13:25:17Z</time>
      </trkpt>
      <trkpt lat="36.695341" lon="-5.253393">
        <ele>406.013</ele>
        <time>2015-06-21T13:25:33Z</time>
      </trkpt>
      <trkpt lat="36.695341" lon="-5.253393">
        <ele>406.043</ele>
        <time>2015-06-21T13:25:49Z</time>
      </trkpt>
      <trkpt lat="36.695339" lon="-5.253388">
        <ele>406.007</ele>
        <time>2015-06-21T13:26:05Z</time>
      </trkpt>
      <trkpt lat="36.695339" lon="-5.253388">
        <ele>406.008</ele>
        <time>2015-06-21T13:26:20Z</time>
      </trkpt>
      <trkpt lat="36.695339" lon="-5.253390">
        <ele>406.092</ele>
        <time>2015-06-21T13:26:34Z</time>
      </trkpt>
      <trkpt lat="36.695339" lon="-5.253390">
        <ele>406.038</ele>
        <time>2015-06-21T13:26:44Z</time>
      </trkpt>
      <trkpt lat="36.695339" lon="-5.253390">
        <ele>406.021</ele>
        <time>2015-06-21T13:26:50Z</time>
      </trkpt>
      <trkpt lat="36.695339" lon="-5.253390">
        <ele>406.081</ele>
        <time>2015-06-21T13:27:06Z</time>
      </trkpt>
      <trkpt lat="36.695334" lon="-5.253390">
        <ele>406.025</ele>
        <time>2015-06-21T13:27:19Z</time>
      </trkpt>
      <trkpt lat="36.695334" lon="-5.253390">
        <ele>406.052</ele>
        <time>2015-06-21T13:27:34Z</time>
      </trkpt>
      <trkpt lat="36.695334" lon="-5.253390">
        <ele>406.071</ele>
        <time>2015-06-21T13:27:49Z</time>
      </trkpt>
      <trkpt lat="36.695337" lon="-5.253389">
        <ele>406.093</ele>
        <time>2015-06-21T13:28:06Z</time>
      </trkpt>
      <trkpt lat="36.695337" lon="-5.253389">
        <ele>406.072</ele>
        <time>2015-06-21T13:28:21Z</time>
      </trkpt>
      <trkpt lat="36.695340" lon="-5.253391">
        <ele>406.013</ele>
        <time>2015-06-21T13:28:36Z</time>
      </trkpt>
      <trkpt lat="36.695340" lon="-5.253391">
        <ele>406.014</ele>
        <time>2015-06-21T13:28:41Z</time>
      </trkpt>
      <trkpt lat="36.695340" lon="-5.253391">
        <ele>406.008</ele>
        <time>2015-06-21T13:28:50Z</time>
      </trkpt>
      <trkpt lat="36.695340" lon="-5.253391">
        <ele>406.048</ele>
        <time>2015-06-21T13:29:06Z</time>
      </trkpt>
      <trkpt lat="36.695336" lon="-5.253390">
        <ele>406.064</ele>
        <time>2015-06-21T13:29:21Z</time>
      </trkpt>
      <trkpt lat="36.695336" lon="-5.253390">
        <ele>406.047</ele>
        <time>2015-06-21T13:29:36Z</time>
      </trkpt>
      <trkpt lat="36.695336" lon="-5.253390">
        <ele>406.027</ele>
        <time>2015-06-21T13:29:53Z</time>
      </trkpt>
      <trkpt lat="36.695330" lon="-5.253384">
        <ele>406.051</ele>
        <time>2015-06-21T13:30:07Z</time>
      </trkpt>
      <trkpt lat="36.695330" lon="-5.253384">
        <ele>406.038</ele>
        <time>2015-06-21T13:30:09Z</time>
      </trkpt>
      <trkpt lat="36.695330" lon="-5.253384">
        <ele>406.077</ele>
        <time>2015-06-21T13:30:24Z</time>
      </trkpt>
      <trkpt lat="36.695329" lon="-5.253385">
        <ele>406.029</ele>
        <time>2015-06-21T13:30:37Z</time>
      </trkpt>
      <trkpt lat="36.695329" lon="-5.253385">
        <ele>406.074</ele>
        <time>2015-06-21T13:30:54Z</time>
      </trkpt>
      <trkpt lat="36.695329" lon="-5.253385">
        <ele>406.056</ele>
        <time>2015-06-21T13:31:10Z</time>
      </trkpt>
      <trkpt lat="36.695328" lon="-5.253380">
        <ele>406.021</ele>
        <time>2015-06-21T13:31:27Z</time>
      </trkpt>
      <trkpt lat="36.695328" lon="-5.253380">
        <ele>406.008</ele>
        <time>2015-06-21T13:31:41Z</time>
      </trkpt>
      <trkpt lat="36.695328" lon="-5.253380">
        <ele>406.038</ele>
        <time>2015-06-21T13:31:54Z</time>
      </trkpt>
      <trkpt lat="36.695328" lon="-5.253380">
        <ele>406.024</ele>
        <time>2015-06-21T13:31:57Z</time>
      </trkpt>
      <trkpt lat="36.695328" lon="-5.253380">
        <ele>406.057</ele>
        <time>2015-06-21T13:32:10Z</time>
      </trkpt>
      <trkpt lat="36.695328" lon="-5.253380">
        <ele>406.017</ele>
        <time>2015-06-21T13:32:26Z</time>
      </trkpt>
      <trkpt lat="36.695336" lon="-5.253378">
        <ele>406.091</ele>
        <time>2015-06-21T13:32:44Z</time>
      </trkpt>
      <trkpt lat="36.695336" lon="-5.253378">
        <ele>406.038</ele>
        <time>2015-06-21T13:32:59Z</time>
      </trkpt>
      <trkpt lat="36.695340" lon="-5.253379">
        <ele>406.017</ele>
        <time>2015-06-21T13:33:16Z</time>
      </trkpt>
      <trkpt lat="36.695340" lon="-5.253379">
        <ele>406.019</ele>
        <time>2015-06-21T13:33:33Z</time>
      </trkpt>
      <trkpt lat="36.695340" lon="-5.253379">
        <ele>406.061</ele>
        <time>2015-06-21T13:33:49Z</time>
      </trkpt>
      <trkpt lat="36.695340" lon="-5.253385">
        <ele>406.021</ele>
        <time>2015-06-21T13:34:09Z</time>
      </trkpt>
      <trkpt lat="36.695340" lon="-5.253385">
        <ele>406.013</ele>
        <time>2015-06-21T13:34:27Z</time>
      </trkpt>
      <trkpt lat="36.695344" lon="-5.253385">
        <ele>406.008</ele>
        <time>2015-06-21T13:34:46Z</time>
      </trkpt>
      <trkpt lat="36.695344" lon="-5.253385">
        <ele>406.087</ele>
        <time>2015-06-21T13:35:06Z</time>
      </trkpt>
      <trkpt lat="36.695344" lon="-5.253382">
        <ele>406.083</ele>
        <time>2015-06-21T13:35:23Z</time>
      </trkpt>
      <trkpt lat="36.695344" lon="-5.253382">
        <ele>406.036</ele>
        <time>2015-06-21T13:35:43Z</time>
      </trkpt>
      <trkpt lat="36.695346" lon="-5.253381">
        <ele>406.026</ele>
        <time>2015-06-21T13:36:04Z</time>
      </trkpt>
      <trkpt lat="36.695346" lon="-5.253381">
        <ele>406.040</ele>
        <time>2015-06-21T13:36:23Z</time>
      </trkpt>
      <trkpt lat="36.695346" lon="-5.253384">
        <ele>406.087</ele>
        <time>2015-06-21T13:36:40Z</time>
      </trkpt>
      <trkpt lat="36.695346" lon="-5.253384">
        <ele>406.076</ele>
        <time>2015-06-21T13:36:55Z</time>
      </trkpt>
      <trkpt lat="36.695346" lon="-5.253384">
        <ele>406.088</ele>
        <time>2015-06-21T13:37:07Z</time>
      </trkpt>
      <trkpt lat="36.695345" lon="-5.253381">
        <ele>406.024</ele>
        <time>2015-06-21T13:37:21Z</time>
      </trkpt>
      <trkpt lat="36.695345" lon="-5.253381">
        <ele>406.004</ele>
        <time>2015-06-21T13:37:25Z</time>
      </trkpt>
      <trkpt lat="36.695345" lon="-5.253381">
        <ele>406.014</ele>
        <time>2015-06-21T13:37:32Z</time>
      </trkpt>
      <trkpt lat="36.695345" lon="-5.253381">
        <ele>406.008</ele>
        <time>2015-06-21T13:37:46Z</time>
      </trkpt>
      <trkpt lat="36.695345" lon="-5.253382">
        <ele>406.053</ele>
        <time>2015-06-21T13:37:56Z</time>
      </trkpt>
      <trkpt lat="36.695345" lon="-5.253382">
        <ele>406.089</ele>
        <time>2015-06-21T13:37:57Z</time>
      </trkpt>
      <trkpt lat="36.695345" lon="-5.253382">
        <ele>406.032</ele>
        <time>2015-06-21T13:37:58Z</time>
      </trkpt>
      <trkpt lat="36.695345" lon="-5.253382">
        <ele>406.042</ele>
        <time>2015-06-21T13:37:59Z</time>
      </trkpt>
      <trkpt lat="36.695345" lon="-5.253382">
        <ele>406.026</ele>
        <time>2015-06-21T13:38:02Z</time>
      </trkpt>
      <trkpt lat="36.695345" lon="-5.253382">
        <ele>406.093</ele>
        <time>2015-06-21T13:38:05Z</time>
      </trkpt>
      <trkpt lat="36.695345" lon="-5.253382">
        <ele>406.042</ele>
        <time>2015-06-21T13:38:10Z</time>
      </trkpt>
      <trkpt lat="36.695345" lon="-5.253382">
        <ele>406.014</ele>
        <time>2015-06-21T13:38:20Z</time>
      </trkpt>
      <trkpt lat="36.695345" lon="-5.253382">
        <ele>406.081</ele>
        <time>2015-06-21T13:38:21Z</time>
      </trkpt>
      <trkpt lat="36.695345" lon="-5.253382">
        <ele>406.061</ele>
        <time>2015-06-21T13:38:32Z</time>
      </trkpt>
      <trkpt lat="36.695346" lon="-5.253355">
        <ele>406.017</ele>
        <time>2015-06-21T13:38:38Z</time>
      </trkpt>
      <trkpt lat="36.695344" lon="-5.253323">
        <ele>406.008</ele>
        <time>2015-06-21T13:38:40Z</time>
      </trkpt>
      <trkpt lat="36.695347" lon="-5.253258">
        <ele>406.089</ele>
        <time>2015-06-21T13:38:44Z</time>
      </trkpt>
      <trkpt lat="36.695358" lon="-5.253239">
        <ele>406.015</ele>
        <time>2015-06-21T13:38:45Z</time>
      </trkpt>
      <trkpt lat="36.695407" lon="-5.253132">
        <ele>406.098</ele>
        <time>2015-06-21T13:38:49Z</time>
      </trkpt>
      <trkpt lat="36.695470" lon="-5.253037">
        <ele>406.078</ele>
        <time>2015-06-21T13:38:54Z</time>
      </trkpt>
      <trkpt lat="36.695500" lon="-5.252945">
        <ele>406.072</ele>
        <time>2015-06-21T13:39:00Z</time>
      </trkpt>
      <trkpt lat="36.695500" lon="-5.252945">
        <ele>406.039</ele>
        <time>2015-06-21T13:39:06Z</time>
      </trkpt>
      <trkpt lat="36.695500" lon="-5.252945">
        <ele>406.048</ele>
        <time>2015-06-21T13:39:12Z</time>
      </trkpt>
      <trkpt lat="36.695500" lon="-5.252945">
        <ele>406.070</ele>
        <time>2015-06-21T13:39:15Z</time>
      </trkpt>
      <trkpt lat="36.695500" lon="-5.252945">
        <ele>406.076</ele>
        <time>2015-06-21T13:39:18Z</time>
      </trkpt>
      <trkpt lat="36.695500" lon="-5.252955">
        <ele>406.090</ele>
        <time>2015-06-21T13:39:20Z</time>
      </trkpt>
      <trkpt lat="36.695503" lon="-5.253019">
        <ele>406.019</ele>
        <time>2015-06-21T13:39:22Z</time>
      </trkpt>
      <trkpt lat="36.695467" lon="-5.253178">
        <ele>406.008</ele>
        <time>2015-06-21T13:39:26Z</time>
      </trkpt>
      <trkpt lat="36.695396" lon="-5.253271">
        <ele>406.018</ele>
        <time>2015-06-21T13:39:30Z</time>
      </trkpt>
      <trkpt lat="36.695367" lon="-5.253336">
        <ele>406.034</ele>
        <time>2015-06-21T13:39:35Z</time>
      </trkpt>
      <trkpt lat="36.695314" lon="-5.253349">
        <ele>406.047</ele>
        <time>2015-06-21T13:39:43Z</time>
      </trkpt>
      <trkpt lat="36.695282" lon="-5.253351">
        <ele>406.037</ele>
        <time>2015-06-21T13:39:52Z</time>
      </trkpt>
      <trkpt lat="36.695282" lon="-5.253351">
        <ele>406.081</ele>
        <time>2015-06-21T13:40:04Z</time>
      </trkpt>
      <trkpt lat="36.695282" lon="-5.253351">
        <ele>406.018</ele>
        <time>2015-06-21T13:40:16Z</time>
      </trkpt>
      <trkpt lat="36.695282" lon="-5.253351">
        <ele>406.027</ele>
        <time>2015-06-21T13:40:24Z</time>
      </trkpt>
      <trkpt lat="36.695282" lon="-5.253351">
        <ele>406.019</ele>
        <time>2015-06-21T13:40:25Z</time>
      </trkpt>
      <trkpt lat="36.695282" lon="-5.253351">
        <ele>406.086</ele>
        <time>2015-06-21T13:40:26Z</time>
      </trkpt>
      <trkpt lat="36.695292" lon="-5.253355">
        <ele>406.060</ele>
        <time>2015-06-21T13:40:38Z</time>
      </trkpt>
      <trkpt lat="36.695292" lon="-5.253355">
        <ele>406.026</ele>
        <time>2015-06-21T13:40:39Z</time>
      </trkpt>
      <trkpt lat="36.695289" lon="-5.253343">
        <ele>406.008</ele>
        <time>2015-06-21T13:40:45Z</time>
      </trkpt>
      <trkpt lat="36.695291" lon="-5.253335">
        <ele>406.099</ele>
        <time>2015-06-21T13:40:48Z</time>
      </trkpt>
      <trkpt lat="36.695304" lon="-5.253303">
        <ele>406.075</ele>
        <time>2015-06-21T13:40:52Z</time>
      </trkpt>
      <trkpt lat="36.695312" lon="-5.253283">
        <ele>406.078</ele>
        <time>2015-06-21T13:40:53Z</time>
      </trkpt>
      <trkpt lat="36.695330" lon="-5.253236">
        <ele>406.098</ele>
        <time>2015-06-21T13:40:57Z</time>
      </trkpt>
      <trkpt lat="36.695365" lon="-5.253198">
        <ele>406.022</ele>
        <time>2015-06-21T13:40:59Z</time>
      </trkpt>
      <trkpt lat="36.695413" lon="-5.253133">
        <ele>406.019</ele>
        <time>2015-06-21T13:41:01Z</time>
      </trkpt>
      <trkpt lat="36.695515" lon="-5.253006">
        <ele>406.098</ele>
        <time>2015-06-21T13:41:07Z</time>
      </trkpt>
      <trkpt lat="36.695591" lon="-5.252902">
        <ele>406.060</ele>
        <time>2015-06-21T13:41:13Z</time>
      </trkpt>
      <trkpt lat="36.695614" lon="-5.252856">
        <ele>406.047</ele>
        <time>2015-06-21T13:41:15Z</time>
      </trkpt>
      <trkpt lat="36.695638" lon="-5.252807">
        <ele>406.029</ele>
        <time>2015-06-21T13:41:17Z</time>
      </trkpt>
      <trkpt lat="36.695670" lon="-5.252784">
        <ele>406.021</ele>
        <time>2015-06-21T13:41:19Z</time>
      </trkpt>
      <trkpt lat="36.695711" lon="-5.252739">
        <ele>406.008</ele>
        <time>2015-06-21T13:41:22Z</time>
      </trkpt>
      <trkpt lat="36.695750" lon="-5.252716">
        <ele>406.035</ele>
        <time>2015-06-21T13:41:24Z</time>
      </trkpt>
      <trkpt lat="36.695831" lon="-5.252700">
        <ele>406.031</ele>
        <time>2015-06-21T13:41:27Z</time>
      </trkpt>
      <trkpt lat="36.695845" lon="-5.252683">
        <ele>406.084</ele>
        <time>2015-06-21T13:41:28Z</time>
      </trkpt>
      <trkpt lat="36.695901" lon="-5.252620">
        <ele>406.054</ele>
        <time>2015-06-21T13:41:32Z</time>
      </trkpt>
      <trkpt lat="36.695945" lon="-5.252599">
        <ele>406.048</ele>
        <time>2015-06-21T13:41:35Z</time>
      </trkpt>
      <trkpt lat="36.695987" lon="-5.252561">
        <ele>406.025</ele>
        <time>2015-06-21T13:41:37Z</time>
      </trkpt>
      <trkpt lat="36.696011" lon="-5.252525">
        <ele>406.064</ele>
        <time>2015-06-21T13:41:39Z</time>
      </trkpt>
      <trkpt lat="36.696037" lon="-5.252504">
        <ele>406.026</ele>
        <time>2015-06-21T13:41:41Z</time>
      </trkpt>
      <trkpt lat="36.696047" lon="-5.252494">
        <ele>406.075</ele>
        <time>2015-06-21T13:41:42Z</time>
      </trkpt>
      <trkpt lat="36.696082" lon="-5.252462">
        <ele>406.028</ele>
        <time>2015-06-21T13:41:47Z</time>
      </trkpt>
      <trkpt lat="36.696121" lon="-5.252439">
        <ele>406.020</ele>
        <time>2015-06-21T13:41:49Z</time>
      </trkpt>
      <trkpt lat="36.696151" lon="-5.252447">
        <ele>406.008</ele>
        <time>2015-06-21T13:41:50Z</time>
      </trkpt>
      <trkpt lat="36.696312" lon="-5.252395">
        <ele>406.088</ele>
        <time>2015-06-21T13:41:54Z</time>
      </trkpt>
      <trkpt lat="36.696397" lon="-5.252355">
        <ele>406.054</ele>
        <time>2015-06-21T13:41:58Z</time>
      </trkpt>
      <trkpt lat="36.696425" lon="-5.252336">
        <ele>406.057</ele>
        <time>2015-06-21T13:42:00Z</time>
      </trkpt>
      <trkpt lat="36.696496" lon="-5.252322">
        <ele>406.087</ele>
        <time>2015-06-21T13:42:04Z</time>
      </trkpt>
      <trkpt lat="36.696579" lon="-5.252318">
        <ele>406.431</ele>
        <time>2015-06-21T13:42:09Z</time>
      </trkpt>
      <trkpt lat="36.696595" lon="-5.252319">
        <ele>406.848</ele>
        <time>2015-06-21T13:42:10Z</time>
      </trkpt>
      <trkpt lat="36.696613" lon="-5.252314">
        <ele>407.237</ele>
        <time>2015-06-21T13:42:11Z</time>
      </trkpt>
      <trkpt lat="36.696632" lon="-5.252320">
        <ele>407.839</ele>
        <time>2015-06-21T13:42:12Z</time>
      </trkpt>
      <trkpt lat="36.696648" lon="-5.252321">
        <ele>408.268</ele>
        <time>2015-06-21T13:42:13Z</time>
      </trkpt>
      <trkpt lat="36.696705" lon="-5.252306">
        <ele>408.242</ele>
        <time>2015-06-21T13:42:17Z</time>
      </trkpt>
      <trkpt lat="36.696775" lon="-5.252268">
        <ele>408.626</ele>
        <time>2015-06-21T13:42:22Z</time>
      </trkpt>
      <trkpt lat="36.696790" lon="-5.252261">
        <ele>409.008</ele>
        <time>2015-06-21T13:42:23Z</time>
      </trkpt>
      <trkpt lat="36.696798" lon="-5.252264">
        <ele>409.427</ele>
        <time>2015-06-21T13:42:24Z</time>
      </trkpt>
      <trkpt lat="36.696810" lon="-5.252266">
        <ele>409.853</ele>
        <time>2015-06-21T13:42:25Z</time>
      </trkpt>
      <trkpt lat="36.696820" lon="-5.252267">
        <ele>410.296</ele>
        <time>2015-06-21T13:42:26Z</time>
      </trkpt>
      <trkpt lat="36.696847" lon="-5.252275">
        <ele>410.296</ele>
        <time>2015-06-21T13:42:28Z</time>
      </trkpt>
      <trkpt lat="36.696962" lon="-5.252273">
        <ele>410.210</ele>
        <time>2015-06-21T13:42:35Z</time>
      </trkpt>
      <trkpt lat="36.697026" lon="-5.252257">
        <ele>410.627</ele>
        <time>2015-06-21T13:42:39Z</time>
      </trkpt>
      <trkpt lat="36.697037" lon="-5.252254">
        <ele>411.056</ele>
        <time>2015-06-21T13:42:40Z</time>
      </trkpt>
      <trkpt lat="36.697048" lon="-5.252252">
        <ele>411.478</ele>
        <time>2015-06-21T13:42:41Z</time>
      </trkpt>
      <trkpt lat="36.697061" lon="-5.252255">
        <ele>411.811</ele>
        <time>2015-06-21T13:42:42Z</time>
      </trkpt>
      <trkpt lat="36.697074" lon="-5.252251">
        <ele>412.221</ele>
        <time>2015-06-21T13:42:43Z</time>
      </trkpt>
      <trkpt lat="36.697178" lon="-5.252266">
        <ele>412.603</ele>
        <time>2015-06-21T13:42:51Z</time>
      </trkpt>
      <trkpt lat="36.697192" lon="-5.252270">
        <ele>413.008</ele>
        <time>2015-06-21T13:42:52Z</time>
      </trkpt>
      <trkpt lat="36.697205" lon="-5.252278">
        <ele>413.472</ele>
        <time>2015-06-21T13:42:53Z</time>
      </trkpt>
      <trkpt lat="36.697219" lon="-5.252280">
        <ele>413.848</ele>
        <time>2015-06-21T13:42:54Z</time>
      </trkpt>
      <trkpt lat="36.697232" lon="-5.252284">
        <ele>414.271</ele>
        <time>2015-06-21T13:42:55Z</time>
      </trkpt>
      <trkpt lat="36.697264" lon="-5.252292">
        <ele>414.211</ele>
        <time>2015-06-21T13:42:58Z</time>
      </trkpt>
      <trkpt lat="36.697308" lon="-5.252307">
        <ele>414.255</ele>
        <time>2015-06-21T13:43:02Z</time>
      </trkpt>
      <trkpt lat="36.697323" lon="-5.252312">
        <ele>414.682</ele>
        <time>2015-06-21T13:43:03Z</time>
      </trkpt>
      <trkpt lat="36.697337" lon="-5.252309">
        <ele>415.031</ele>
        <time>2015-06-21T13:43:04Z</time>
      </trkpt>
      <trkpt lat="36.697350" lon="-5.252307">
        <ele>415.413</ele>
        <time>2015-06-21T13:43:05Z</time>
      </trkpt>
      <trkpt lat="36.697360" lon="-5.252309">
        <ele>415.842</ele>
        <time>2015-06-21T13:43:06Z</time>
      </trkpt>
      <trkpt lat="36.697375" lon="-5.252314">
        <ele>416.222</ele>
        <time>2015-06-21T13:43:07Z</time>
      </trkpt>
      <trkpt lat="36.697415" lon="-5.252343">
        <ele>416.214</ele>
        <time>2015-06-21T13:43:11Z</time>
      </trkpt>
      <trkpt lat="36.697452" lon="-5.252371">
        <ele>416.808</ele>
        <time>2015-06-21T13:43:14Z</time>
      </trkpt>
      <trkpt lat="36.697466" lon="-5.252380">
        <ele>417.225</ele>
        <time>2015-06-21T13:43:15Z</time>
      </trkpt>
      <trkpt lat="36.697477" lon="-5.252387">
        <ele>417.691</ele>
        <time>2015-06-21T13:43:16Z</time>
      </trkpt>
      <trkpt lat="36.697486" lon="-5.252392">
        <ele>418.094</ele>
        <time>2015-06-21T13:43:17Z</time>
      </trkpt>
      <trkpt lat="36.697497" lon="-5.252400">
        <ele>418.434</ele>
        <time>2015-06-21T13:43:18Z</time>
      </trkpt>
      <trkpt lat="36.697568" lon="-5.252487">
        <ele>418.478</ele>
        <time>2015-06-21T13:43:26Z</time>
      </trkpt>
      <trkpt lat="36.697576" lon="-5.252500">
        <ele>418.835</ele>
        <time>2015-06-21T13:43:27Z</time>
      </trkpt>
      <trkpt lat="36.697581" lon="-5.252511">
        <ele>419.244</ele>
        <time>2015-06-21T13:43:28Z</time>
      </trkpt>
      <trkpt lat="36.697586" lon="-5.252521">
        <ele>419.676</ele>
        <time>2015-06-21T13:43:29Z</time>
      </trkpt>
      <trkpt lat="36.697585" lon="-5.252524">
        <ele>420.074</ele>
        <time>2015-06-21T13:43:30Z</time>
      </trkpt>
      <trkpt lat="36.697584" lon="-5.252531">
        <ele>420.456</ele>
        <time>2015-06-21T13:43:31Z</time>
      </trkpt>
      <trkpt lat="36.697584" lon="-5.252531">
        <ele>420.421</ele>
        <time>2015-06-21T13:43:33Z</time>
      </trkpt>
      <trkpt lat="36.697589" lon="-5.252545">
        <ele>420.408</ele>
        <time>2015-06-21T13:43:38Z</time>
      </trkpt>
      <trkpt lat="36.697600" lon="-5.252581">
        <ele>421.058</ele>
        <time>2015-06-21T13:43:43Z</time>
      </trkpt>
      <trkpt lat="36.697608" lon="-5.252585">
        <ele>421.484</ele>
        <time>2015-06-21T13:43:44Z</time>
      </trkpt>
      <trkpt lat="36.697615" lon="-5.252590">
        <ele>421.887</ele>
        <time>2015-06-21T13:43:45Z</time>
      </trkpt>
      <trkpt lat="36.697620" lon="-5.252598">
        <ele>422.247</ele>
        <time>2015-06-21T13:43:46Z</time>
      </trkpt>
      <trkpt lat="36.697627" lon="-5.252608">
        <ele>422.631</ele>
        <time>2015-06-21T13:43:47Z</time>
      </trkpt>
      <trkpt lat="36.697656" lon="-5.252642">
        <ele>422.688</ele>
        <time>2015-06-21T13:43:52Z</time>
      </trkpt>
      <trkpt lat="36.697666" lon="-5.252660">
        <ele>422.637</ele>
        <time>2015-06-21T13:43:54Z</time>
      </trkpt>
      <trkpt lat="36.697675" lon="-5.252673">
        <ele>422.619</ele>
        <time>2015-06-21T13:43:59Z</time>
      </trkpt>
      <trkpt lat="36.697675" lon="-5.252673">
        <ele>422.664</ele>
        <time>2015-06-21T13:44:12Z</time>
      </trkpt>
      <trkpt lat="36.697675" lon="-5.252673">
        <ele>422.606</ele>
        <time>2015-06-21T13:44:19Z</time>
      </trkpt>
      <trkpt lat="36.697675" lon="-5.252673">
        <ele>422.616</ele>
        <time>2015-06-21T13:44:22Z</time>
      </trkpt>
      <trkpt lat="36.697675" lon="-5.252673">
        <ele>422.608</ele>
        <time>2015-06-21T13:44:25Z</time>
      </trkpt>
      <trkpt lat="36.697675" lon="-5.252673">
        <ele>422.647</ele>
        <time>2015-06-21T13:44:28Z</time>
      </trkpt>
      <trkpt lat="36.697675" lon="-5.252673">
        <ele>422.623</ele>
        <time>2015-06-21T13:44:30Z</time>
      </trkpt>
      <trkpt lat="36.697675" lon="-5.252673">
        <ele>422.626</ele>
        <time>2015-06-21T13:44:33Z</time>
      </trkpt>
      <trkpt lat="36.697675" lon="-5.252673">
        <ele>422.616</ele>
        <time>2015-06-21T13:44:36Z</time>
      </trkpt>
      <trkpt lat="36.697680" lon="-5.252671">
        <ele>422.650</ele>
        <time>2015-06-21T13:44:40Z</time>
      </trkpt>
      <trkpt lat="36.697680" lon="-5.252671">
        <ele>422.677</ele>
        <time>2015-06-21T13:44:45Z</time>
      </trkpt>
      <trkpt lat="36.697680" lon="-5.252671">
        <ele>422.696</ele>
        <time>2015-06-21T13:44:46Z</time>
      </trkpt>
      <trkpt lat="36.697680" lon="-5.252671">
        <ele>422.668</ele>
        <time>2015-06-21T13:44:52Z</time>
      </trkpt>
      <trkpt lat="36.697680" lon="-5.252671">
        <ele>422.653</ele>
        <time>2015-06-21T13:44:58Z</time>
      </trkpt>
      <trkpt lat="36.697680" lon="-5.252671">
        <ele>422.604</ele>
        <time>2015-06-21T13:45:02Z</time>
      </trkpt>
      <trkpt lat="36.697680" lon="-5.252671">
        <ele>422.614</ele>
        <time>2015-06-21T13:45:10Z</time>
      </trkpt>
      <trkpt lat="36.697680" lon="-5.252671">
        <ele>423.008</ele>
        <time>2015-06-21T13:45:16Z</time>
      </trkpt>
      <trkpt lat="36.697680" lon="-5.252671">
        <ele>423.446</ele>
        <time>2015-06-21T13:45:17Z</time>
      </trkpt>
      <trkpt lat="36.697681" lon="-5.252672">
        <ele>423.822</ele>
        <time>2015-06-21T13:45:18Z</time>
      </trkpt>
      <trkpt lat="36.697681" lon="-5.252672">
        <ele>424.225</ele>
        <time>2015-06-21T13:45:19Z</time>
      </trkpt>
      <trkpt lat="36.697681" lon="-5.252672">
        <ele>424.655</ele>
        <time>2015-06-21T13:45:20Z</time>
      </trkpt>
      <trkpt lat="36.697681" lon="-5.252672">
        <ele>424.639</ele>
        <time>2015-06-21T13:45:27Z</time>
      </trkpt>
      <trkpt lat="36.697681" lon="-5.252672">
        <ele>424.646</ele>
        <time>2015-06-21T13:45:28Z</time>
      </trkpt>
      <trkpt lat="36.697681" lon="-5.252672">
        <ele>424.695</ele>
        <time>2015-06-21T13:45:35Z</time>
      </trkpt>
      <trkpt lat="36.697681" lon="-5.252672">
        <ele>424.627</ele>
        <time>2015-06-21T13:45:39Z</time>
      </trkpt>
      <trkpt lat="36.697681" lon="-5.252672">
        <ele>424.675</ele>
        <time>2015-06-21T13:45:44Z</time>
      </trkpt>
      <trkpt lat="36.697681" lon="-5.252672">
        <ele>424.628</ele>
        <time>2015-06-21T13:45:58Z</time>
      </trkpt>
      <trkpt lat="36.697681" lon="-5.252672">
        <ele>424.620</ele>
        <time>2015-06-21T13:46:02Z</time>
      </trkpt>
      <trkpt lat="36.697709" lon="-5.252699">
        <ele>424.608</ele>
        <time>2015-06-21T13:46:06Z</time>
      </trkpt>
      <trkpt lat="36.697725" lon="-5.252709">
        <ele>424.688</ele>
        <time>2015-06-21T13:46:07Z</time>
      </trkpt>
      <trkpt lat="36.697789" lon="-5.252726">
        <ele>424.634</ele>
        <time>2015-06-21T13:46:10Z</time>
      </trkpt>
      <trkpt lat="36.697858" lon="-5.252737">
        <ele>424.657</ele>
        <time>2015-06-21T13:46:14Z</time>
      </trkpt>
      <trkpt lat="36.697888" lon="-5.252756">
        <ele>424.627</ele>
        <time>2015-06-21T13:46:16Z</time>
      </trkpt>
      <trkpt lat="36.697976" lon="-5.252818">
        <ele>424.611</ele>
        <time>2015-06-21T13:46:22Z</time>
      </trkpt>
      <trkpt lat="36.697998" lon="-5.252838">
        <ele>424.628</ele>
        <time>2015-06-21T13:46:24Z</time>
      </trkpt>
      <trkpt lat="36.698045" lon="-5.252886">
        <ele>424.677</ele>
        <time>2015-06-21T13:46:28Z</time>
      </trkpt>
      <trkpt lat="36.698079" lon="-5.252924">
        <ele>424.679</ele>
        <time>2015-06-21T13:46:31Z</time>
      </trkpt>
      <trkpt lat="36.698086" lon="-5.252933">
        <ele>424.693</ele>
        <time>2015-06-21T13:46:36Z</time>
      </trkpt>
      <trkpt lat="36.698086" lon="-5.252933">
        <ele>424.665</ele>
        <time>2015-06-21T13:46:37Z</time>
      </trkpt>
      <trkpt lat="36.698096" lon="-5.252968">
        <ele>424.621</ele>
        <time>2015-06-21T13:46:40Z</time>
      </trkpt>
      <trkpt lat="36.698097" lon="-5.252975">
        <ele>424.608</ele>
        <time>2015-06-21T13:46:42Z</time>
      </trkpt>
      <trkpt lat="36.698097" lon="-5.252975">
        <ele>425.010</ele>
        <time>2015-06-21T13:46:43Z</time>
      </trkpt>
      <trkpt lat="36.698100" lon="-5.252983">
        <ele>425.486</ele>
        <time>2015-06-21T13:46:44Z</time>
      </trkpt>
      <trkpt lat="36.698105" lon="-5.252997">
        <ele>425.899</ele>
        <time>2015-06-21T13:46:45Z</time>
      </trkpt>
      <trkpt lat="36.698107" lon="-5.252995">
        <ele>426.299</ele>
        <time>2015-06-21T13:46:46Z</time>
      </trkpt>
      <trkpt lat="36.698116" lon="-5.253006">
        <ele>426.863</ele>
        <time>2015-06-21T13:46:47Z</time>
      </trkpt>
      <trkpt lat="36.698122" lon="-5.253010">
        <ele>426.870</ele>
        <time>2015-06-21T13:46:49Z</time>
      </trkpt>
      <trkpt lat="36.698132" lon="-5.253025">
        <ele>426.869</ele>
        <time>2015-06-21T13:46:55Z</time>
      </trkpt>
      <trkpt lat="36.698164" lon="-5.253057">
        <ele>426.871</ele>
        <time>2015-06-21T13:47:03Z</time>
      </trkpt>
      <trkpt lat="36.698169" lon="-5.253062">
        <ele>426.831</ele>
        <time>2015-06-21T13:47:10Z</time>
      </trkpt>
      <trkpt lat="36.698176" lon="-5.253066">
        <ele>426.861</ele>
        <time>2015-06-21T13:47:11Z</time>
      </trkpt>
      <trkpt lat="36.698192" lon="-5.253093">
        <ele>426.807</ele>
        <time>2015-06-21T13:47:15Z</time>
      </trkpt>
      <trkpt lat="36.698198" lon="-5.253112">
        <ele>426.808</ele>
        <time>2015-06-21T13:47:16Z</time>
      </trkpt>
      <trkpt lat="36.698245" lon="-5.253217">
        <ele>426.894</ele>
        <time>2015-06-21T13:47:22Z</time>
      </trkpt>
      <trkpt lat="36.698289" lon="-5.253251">
        <ele>427.290</ele>
        <time>2015-06-21T13:47:25Z</time>
      </trkpt>
      <trkpt lat="36.698293" lon="-5.253265">
        <ele>427.683</ele>
        <time>2015-06-21T13:47:26Z</time>
      </trkpt>
      <trkpt lat="36.698301" lon="-5.253278">
        <ele>428.063</ele>
        <time>2015-06-21T13:47:27Z</time>
      </trkpt>
      <trkpt lat="36.698309" lon="-5.253293">
        <ele>428.447</ele>
        <time>2015-06-21T13:47:28Z</time>
      </trkpt>
      <trkpt lat="36.698314" lon="-5.253307">
        <ele>428.884</ele>
        <time>2015-06-21T13:47:29Z</time>
      </trkpt>
      <trkpt lat="36.698320" lon="-5.253322">
        <ele>428.823</ele>
        <time>2015-06-21T13:47:33Z</time>
      </trkpt>
      <trkpt lat="36.698323" lon="-5.253326">
        <ele>429.285</ele>
        <time>2015-06-21T13:47:37Z</time>
      </trkpt>
      <trkpt lat="36.698323" lon="-5.253326">
        <ele>429.618</ele>
        <time>2015-06-21T13:47:38Z</time>
      </trkpt>
      <trkpt lat="36.698326" lon="-5.253330">
        <ele>430.298</ele>
        <time>2015-06-21T13:47:39Z</time>
      </trkpt>
      <trkpt lat="36.698330" lon="-5.253332">
        <ele>430.617</ele>
        <time>2015-06-21T13:47:40Z</time>
      </trkpt>
      <trkpt lat="36.698330" lon="-5.253332">
        <ele>431.008</ele>
        <time>2015-06-21T13:47:41Z</time>
      </trkpt>
      <trkpt lat="36.698334" lon="-5.253344">
        <ele>431.052</ele>
        <time>2015-06-21T13:47:45Z</time>
      </trkpt>
      <trkpt lat="36.698338" lon="-5.253376">
        <ele>431.048</ele>
        <time>2015-06-21T13:47:51Z</time>
      </trkpt>
      <trkpt lat="36.698339" lon="-5.253416">
        <ele>431.021</ele>
        <time>2015-06-21T13:47:54Z</time>
      </trkpt>
      <trkpt lat="36.698338" lon="-5.253445">
        <ele>431.011</ele>
        <time>2015-06-21T13:47:57Z</time>
      </trkpt>
      <trkpt lat="36.698342" lon="-5.253455">
        <ele>431.455</ele>
        <time>2015-06-21T13:47:58Z</time>
      </trkpt>
      <trkpt lat="36.698340" lon="-5.253464">
        <ele>431.872</ele>
        <time>2015-06-21T13:47:59Z</time>
      </trkpt>
      <trkpt lat="36.698339" lon="-5.253456">
        <ele>432.291</ele>
        <time>2015-06-21T13:48:00Z</time>
      </trkpt>
      <trkpt lat="36.698339" lon="-5.253456">
        <ele>432.643</ele>
        <time>2015-06-21T13:48:01Z</time>
      </trkpt>
      <trkpt lat="36.698339" lon="-5.253456">
        <ele>433.052</ele>
        <time>2015-06-21T13:48:02Z</time>
      </trkpt>
      <trkpt lat="36.698339" lon="-5.253456">
        <ele>433.053</ele>
        <time>2015-06-21T13:48:03Z</time>
      </trkpt>
      <trkpt lat="36.698339" lon="-5.253456">
        <ele>433.008</ele>
        <time>2015-06-21T13:48:11Z</time>
      </trkpt>
      <trkpt lat="36.698342" lon="-5.253464">
        <ele>433.008</ele>
        <time>2015-06-21T13:48:15Z</time>
      </trkpt>
      <trkpt lat="36.698346" lon="-5.253463">
        <ele>433.096</ele>
        <time>2015-06-21T13:48:20Z</time>
      </trkpt>
      <trkpt lat="36.698367" lon="-5.253496">
        <ele>433.012</ele>
        <time>2015-06-21T13:48:22Z</time>
      </trkpt>
      <trkpt lat="36.698398" lon="-5.253541">
        <ele>433.045</ele>
        <time>2015-06-21T13:48:25Z</time>
      </trkpt>
      <trkpt lat="36.698422" lon="-5.253554">
        <ele>433.095</ele>
        <time>2015-06-21T13:48:27Z</time>
      </trkpt>
      <trkpt lat="36.698437" lon="-5.253567">
        <ele>433.039</ele>
        <time>2015-06-21T13:48:29Z</time>
      </trkpt>
      <trkpt lat="36.698447" lon="-5.253591">
        <ele>433.046</ele>
        <time>2015-06-21T13:48:30Z</time>
      </trkpt>
      <trkpt lat="36.698460" lon="-5.253597">
        <ele>433.065</ele>
        <time>2015-06-21T13:48:31Z</time>
      </trkpt>
      <trkpt lat="36.698486" lon="-5.253629">
        <ele>433.017</ele>
        <time>2015-06-21T13:48:33Z</time>
      </trkpt>
      <trkpt lat="36.698544" lon="-5.253673">
        <ele>433.057</ele>
        <time>2015-06-21T13:48:36Z</time>
      </trkpt>
      <trkpt lat="36.698586" lon="-5.253677">
        <ele>433.000</ele>
        <time>2015-06-21T13:48:38Z</time>
      </trkpt>
      <trkpt lat="36.698593" lon="-5.253674">
        <ele>433.020</ele>
        <time>2015-06-21T13:48:42Z</time>
      </trkpt>
      <trkpt lat="36.698610" lon="-5.253671">
        <ele>433.008</ele>
        <time>2015-06-21T13:48:45Z</time>
      </trkpt>
      <trkpt lat="36.698621" lon="-5.253684">
        <ele>433.046</ele>
        <time>2015-06-21T13:48:47Z</time>
      </trkpt>
      <trkpt lat="36.698627" lon="-5.253692">
        <ele>433.012</ele>
        <time>2015-06-21T13:48:48Z</time>
      </trkpt>
      <trkpt lat="36.698631" lon="-5.253702">
        <ele>433.425</ele>
        <time>2015-06-21T13:48:50Z</time>
      </trkpt>
      <trkpt lat="36.698631" lon="-5.253708">
        <ele>434.465</ele>
        <time>2015-06-21T13:48:51Z</time>
      </trkpt>
      <trkpt lat="36.698644" lon="-5.253715">
        <ele>434.829</ele>
        <time>2015-06-21T13:48:52Z</time>
      </trkpt>
      <trkpt lat="36.698652" lon="-5.253723">
        <ele>435.236</ele>
        <time>2015-06-21T13:48:53Z</time>
      </trkpt>
      <trkpt lat="36.698675" lon="-5.253727">
        <ele>435.255</ele>
        <time>2015-06-21T13:48:58Z</time>
      </trkpt>
      <trkpt lat="36.698688" lon="-5.253735">
        <ele>435.297</ele>
        <time>2015-06-21T13:49:01Z</time>
      </trkpt>
      <trkpt lat="36.698695" lon="-5.253735">
        <ele>435.254</ele>
        <time>2015-06-21T13:49:02Z</time>
      </trkpt>
      <trkpt lat="36.698696" lon="-5.253738">
        <ele>435.256</ele>
        <time>2015-06-21T13:49:07Z</time>
      </trkpt>
      <trkpt lat="36.698716" lon="-5.253754">
        <ele>435.211</ele>
        <time>2015-06-21T13:49:08Z</time>
      </trkpt>
      <trkpt lat="36.698759" lon="-5.253779">
        <ele>434.608</ele>
        <time>2015-06-21T13:49:10Z</time>
      </trkpt>
      <trkpt lat="36.698779" lon="-5.253784">
        <ele>434.246</ele>
        <time>2015-06-21T13:49:11Z</time>
      </trkpt>
      <trkpt lat="36.698794" lon="-5.253784">
        <ele>433.872</ele>
        <time>2015-06-21T13:49:12Z</time>
      </trkpt>
      <trkpt lat="36.698806" lon="-5.253783">
        <ele>433.415</ele>
        <time>2015-06-21T13:49:13Z</time>
      </trkpt>
      <trkpt lat="36.698809" lon="-5.253788">
        <ele>433.065</ele>
        <time>2015-06-21T13:49:14Z</time>
      </trkpt>
      <trkpt lat="36.698832" lon="-5.253812">
        <ele>433.079</ele>
        <time>2015-06-21T13:49:16Z</time>
      </trkpt>
      <trkpt lat="36.698899" lon="-5.253865">
        <ele>432.696</ele>
        <time>2015-06-21T13:49:19Z</time>
      </trkpt>
      <trkpt lat="36.698919" lon="-5.253871">
        <ele>432.285</ele>
        <time>2015-06-21T13:49:20Z</time>
      </trkpt>
      <trkpt lat="36.698934" lon="-5.253884">
        <ele>431.887</ele>
        <time>2015-06-21T13:49:21Z</time>
      </trkpt>
      <trkpt lat="36.698956" lon="-5.253889">
        <ele>431.418</ele>
        <time>2015-06-21T13:49:22Z</time>
      </trkpt>
      <trkpt lat="36.698980" lon="-5.253883">
        <ele>430.898</ele>
        <time>2015-06-21T13:49:23Z</time>
      </trkpt>
      <trkpt lat="36.699007" lon="-5.253862">
        <ele>430.817</ele>
        <time>2015-06-21T13:49:24Z</time>
      </trkpt>
      <trkpt lat="36.699049" lon="-5.253853">
        <ele>430.808</ele>
        <time>2015-06-21T13:49:27Z</time>
      </trkpt>
      <trkpt lat="36.699061" lon="-5.253854">
        <ele>430.872</ele>
        <time>2015-06-21T13:49:28Z</time>
      </trkpt>
      <trkpt lat="36.699056" lon="-5.253853">
        <ele>430.818</ele>
        <time>2015-06-21T13:49:33Z</time>
      </trkpt>
      <trkpt lat="36.699052" lon="-5.253850">
        <ele>430.871</ele>
        <time>2015-06-21T13:49:39Z</time>
      </trkpt>
      <trkpt lat="36.699055" lon="-5.253847">
        <ele>430.861</ele>
        <time>2015-06-21T13:49:45Z</time>
      </trkpt>
      <trkpt lat="36.699070" lon="-5.253842">
        <ele>430.855</ele>
        <time>2015-06-21T13:49:46Z</time>
      </trkpt>
      <trkpt lat="36.699088" lon="-5.253842">
        <ele>430.882</ele>
        <time>2015-06-21T13:49:52Z</time>
      </trkpt>
      <trkpt lat="36.699090" lon="-5.253839">
        <ele>430.461</ele>
        <time>2015-06-21T13:49:53Z</time>
      </trkpt>
      <trkpt lat="36.699094" lon="-5.253835">
        <ele>430.093</ele>
        <time>2015-06-21T13:49:54Z</time>
      </trkpt>
      <trkpt lat="36.699107" lon="-5.253824">
        <ele>429.695</ele>
        <time>2015-06-21T13:49:55Z</time>
      </trkpt>
      <trkpt lat="36.699115" lon="-5.253819">
        <ele>429.249</ele>
        <time>2015-06-21T13:49:56Z</time>
      </trkpt>
      <trkpt lat="36.699121" lon="-5.253819">
        <ele>428.823</ele>
        <time>2015-06-21T13:49:57Z</time>
      </trkpt>
      <trkpt lat="36.699141" lon="-5.253813">
        <ele>428.808</ele>
        <time>2015-06-21T13:49:59Z</time>
      </trkpt>
      <trkpt lat="36.699181" lon="-5.253808">
        <ele>428.870</ele>
        <time>2015-06-21T13:50:06Z</time>
      </trkpt>
      <trkpt lat="36.699184" lon="-5.253810">
        <ele>428.416</ele>
        <time>2015-06-21T13:50:07Z</time>
      </trkpt>
      <trkpt lat="36.699184" lon="-5.253810">
        <ele>428.099</ele>
        <time>2015-06-21T13:50:08Z</time>
      </trkpt>
      <trkpt lat="36.699190" lon="-5.253811">
        <ele>427.429</ele>
        <time>2015-06-21T13:50:09Z</time>
      </trkpt>
      <trkpt lat="36.699194" lon="-5.253818">
        <ele>427.023</ele>
        <time>2015-06-21T13:50:10Z</time>
      </trkpt>
      <trkpt lat="36.699199" lon="-5.253822">
        <ele>426.690</ele>
        <time>2015-06-21T13:50:11Z</time>
      </trkpt>
      <trkpt lat="36.699207" lon="-5.253823">
        <ele>426.639</ele>
        <time>2015-06-21T13:50:13Z</time>
      </trkpt>
      <trkpt lat="36.699234" lon="-5.253812">
        <ele>426.661</ele>
        <time>2015-06-21T13:50:17Z</time>
      </trkpt>
      <trkpt lat="36.699266" lon="-5.253811">
        <ele>426.612</ele>
        <time>2015-06-21T13:50:19Z</time>
      </trkpt>
      <trkpt lat="36.699298" lon="-5.253786">
        <ele>426.632</ele>
        <time>2015-06-21T13:50:21Z</time>
      </trkpt>
      <trkpt lat="36.699309" lon="-5.253799">
        <ele>426.605</ele>
        <time>2015-06-21T13:50:24Z</time>
      </trkpt>
      <trkpt lat="36.699333" lon="-5.253806">
        <ele>426.608</ele>
        <time>2015-06-21T13:50:30Z</time>
      </trkpt>
      <trkpt lat="36.699337" lon="-5.253813">
        <ele>426.272</ele>
        <time>2015-06-21T13:50:31Z</time>
      </trkpt>
      <trkpt lat="36.699346" lon="-5.253811">
        <ele>425.888</ele>
        <time>2015-06-21T13:50:32Z</time>
      </trkpt>
      <trkpt lat="36.699357" lon="-5.253812">
        <ele>425.491</ele>
        <time>2015-06-21T13:50:33Z</time>
      </trkpt>
      <trkpt lat="36.699350" lon="-5.253814">
        <ele>425.051</ele>
        <time>2015-06-21T13:50:34Z</time>
      </trkpt>
      <trkpt lat="36.699350" lon="-5.253814">
        <ele>424.675</ele>
        <time>2015-06-21T13:50:35Z</time>
      </trkpt>
      <trkpt lat="36.699350" lon="-5.253814">
        <ele>424.642</ele>
        <time>2015-06-21T13:50:36Z</time>
      </trkpt>
      <trkpt lat="36.699432" lon="-5.253792">
        <ele>424.611</ele>
        <time>2015-06-21T13:50:40Z</time>
      </trkpt>
      <trkpt lat="36.699557" lon="-5.253811">
        <ele>424.673</ele>
        <time>2015-06-21T13:50:43Z</time>
      </trkpt>
      <trkpt lat="36.699612" lon="-5.253830">
        <ele>424.252</ele>
        <time>2015-06-21T13:50:44Z</time>
      </trkpt>
      <trkpt lat="36.699651" lon="-5.253858">
        <ele>423.853</ele>
        <time>2015-06-21T13:50:45Z</time>
      </trkpt>
      <trkpt lat="36.699675" lon="-5.253873">
        <ele>423.408</ele>
        <time>2015-06-21T13:50:46Z</time>
      </trkpt>
      <trkpt lat="36.699681" lon="-5.253874">
        <ele>422.808</ele>
        <time>2015-06-21T13:50:47Z</time>
      </trkpt>
      <trkpt lat="36.699675" lon="-5.253874">
        <ele>422.466</ele>
        <time>2015-06-21T13:50:48Z</time>
      </trkpt>
      <trkpt lat="36.699683" lon="-5.253881">
        <ele>422.412</ele>
        <time>2015-06-21T13:50:51Z</time>
      </trkpt>
      <trkpt lat="36.699698" lon="-5.253889">
        <ele>422.015</ele>
        <time>2015-06-21T13:50:55Z</time>
      </trkpt>
      <trkpt lat="36.699698" lon="-5.253888">
        <ele>421.675</ele>
        <time>2015-06-21T13:50:56Z</time>
      </trkpt>
      <trkpt lat="36.699703" lon="-5.253889">
        <ele>421.289</ele>
        <time>2015-06-21T13:50:57Z</time>
      </trkpt>
      <trkpt lat="36.699712" lon="-5.253893">
        <ele>420.856</ele>
        <time>2015-06-21T13:50:58Z</time>
      </trkpt>
      <trkpt lat="36.699721" lon="-5.253899">
        <ele>420.255</ele>
        <time>2015-06-21T13:50:59Z</time>
      </trkpt>
      <trkpt lat="36.699751" lon="-5.253919">
        <ele>420.297</ele>
        <time>2015-06-21T13:51:04Z</time>
      </trkpt>
      <trkpt lat="36.699770" lon="-5.253926">
        <ele>419.845</ele>
        <time>2015-06-21T13:51:10Z</time>
      </trkpt>
      <trkpt lat="36.699787" lon="-5.253923">
        <ele>419.447</ele>
        <time>2015-06-21T13:51:11Z</time>
      </trkpt>
      <trkpt lat="36.699787" lon="-5.253924">
        <ele>419.011</ele>
        <time>2015-06-21T13:51:12Z</time>
      </trkpt>
      <trkpt lat="36.699793" lon="-5.253924">
        <ele>418.608</ele>
        <time>2015-06-21T13:51:13Z</time>
      </trkpt>
      <trkpt lat="36.699799" lon="-5.253922">
        <ele>418.265</ele>
        <time>2015-06-21T13:51:14Z</time>
      </trkpt>
      <trkpt lat="36.699799" lon="-5.253922">
        <ele>418.261</ele>
        <time>2015-06-21T13:51:15Z</time>
      </trkpt>
      <trkpt lat="36.699821" lon="-5.253921">
        <ele>418.264</ele>
        <time>2015-06-21T13:51:22Z</time>
      </trkpt>
      <trkpt lat="36.699855" lon="-5.253915">
        <ele>418.284</ele>
        <time>2015-06-21T13:51:27Z</time>
      </trkpt>
      <trkpt lat="36.699889" lon="-5.253905">
        <ele>418.218</ele>
        <time>2015-06-21T13:51:34Z</time>
      </trkpt>
      <trkpt lat="36.699946" lon="-5.253897">
        <ele>418.255</ele>
        <time>2015-06-21T13:51:40Z</time>
      </trkpt>
      <trkpt lat="36.699978" lon="-5.253867">
        <ele>418.264</ele>
        <time>2015-06-21T13:51:41Z</time>
      </trkpt>
      <trkpt lat="36.700016" lon="-5.253832">
        <ele>417.886</ele>
        <time>2015-06-21T13:51:42Z</time>
      </trkpt>
      <trkpt lat="36.700051" lon="-5.253790">
        <ele>417.227</ele>
        <time>2015-06-21T13:51:43Z</time>
      </trkpt>
      <trkpt lat="36.700077" lon="-5.253740">
        <ele>416.468</ele>
        <time>2015-06-21T13:51:44Z</time>
      </trkpt>
      <trkpt lat="36.700111" lon="-5.253689">
        <ele>416.014</ele>
        <time>2015-06-21T13:51:45Z</time>
      </trkpt>
      <trkpt lat="36.700202" lon="-5.253545">
        <ele>416.008</ele>
        <time>2015-06-21T13:51:48Z</time>
      </trkpt>
      <trkpt lat="36.700310" lon="-5.253447">
        <ele>416.083</ele>
        <time>2015-06-21T13:51:52Z</time>
      </trkpt>
      <trkpt lat="36.700471" lon="-5.253317">
        <ele>416.099</ele>
        <time>2015-06-21T13:51:57Z</time>
      </trkpt>
      <trkpt lat="36.700539" lon="-5.253243">
        <ele>416.012</ele>
        <time>2015-06-21T13:51:59Z</time>
      </trkpt>
      <trkpt lat="36.700656" lon="-5.253095">
        <ele>416.082</ele>
        <time>2015-06-21T13:52:04Z</time>
      </trkpt>
      <trkpt lat="36.700693" lon="-5.252975">
        <ele>416.026</ele>
        <time>2015-06-21T13:52:09Z</time>
      </trkpt>
      <trkpt lat="36.700736" lon="-5.252867">
        <ele>416.093</ele>
        <time>2015-06-21T13:52:14Z</time>
      </trkpt>
      <trkpt lat="36.700759" lon="-5.252830">
        <ele>416.462</ele>
        <time>2015-06-21T13:52:16Z</time>
      </trkpt>
      <trkpt lat="36.700765" lon="-5.252813">
        <ele>416.834</ele>
        <time>2015-06-21T13:52:17Z</time>
      </trkpt>
      <trkpt lat="36.700770" lon="-5.252796">
        <ele>417.264</ele>
        <time>2015-06-21T13:52:18Z</time>
      </trkpt>
      <trkpt lat="36.700777" lon="-5.252774">
        <ele>417.606</ele>
        <time>2015-06-21T13:52:19Z</time>
      </trkpt>
      <trkpt lat="36.700793" lon="-5.252748">
        <ele>418.016</ele>
        <time>2015-06-21T13:52:20Z</time>
      </trkpt>
      <trkpt lat="36.700824" lon="-5.252690">
        <ele>418.008</ele>
        <time>2015-06-21T13:52:22Z</time>
      </trkpt>
      <trkpt lat="36.700939" lon="-5.252551">
        <ele>418.067</ele>
        <time>2015-06-21T13:52:28Z</time>
      </trkpt>
      <trkpt lat="36.701015" lon="-5.252438">
        <ele>418.093</ele>
        <time>2015-06-21T13:52:33Z</time>
      </trkpt>
      <trkpt lat="36.701099" lon="-5.252301">
        <ele>418.056</ele>
        <time>2015-06-21T13:52:38Z</time>
      </trkpt>
      <trkpt lat="36.701209" lon="-5.252099">
        <ele>418.056</ele>
        <time>2015-06-21T13:52:45Z</time>
      </trkpt>
      <trkpt lat="36.701260" lon="-5.251899">
        <ele>418.070</ele>
        <time>2015-06-21T13:52:49Z</time>
      </trkpt>
      <trkpt lat="36.701253" lon="-5.251832">
        <ele>418.067</ele>
        <time>2015-06-21T13:52:50Z</time>
      </trkpt>
      <trkpt lat="36.701240" lon="-5.251766">
        <ele>418.096</ele>
        <time>2015-06-21T13:52:52Z</time>
      </trkpt>
      <trkpt lat="36.701294" lon="-5.251746">
        <ele>418.088</ele>
        <time>2015-06-21T13:52:55Z</time>
      </trkpt>
      <trkpt lat="36.701309" lon="-5.251753">
        <ele>417.656</ele>
        <time>2015-06-21T13:52:56Z</time>
      </trkpt>
      <trkpt lat="36.701321" lon="-5.251764">
        <ele>417.259</ele>
        <time>2015-06-21T13:52:57Z</time>
      </trkpt>
      <trkpt lat="36.701333" lon="-5.251782">
        <ele>416.214</ele>
        <time>2015-06-21T13:52:58Z</time>
      </trkpt>
      <trkpt lat="36.701342" lon="-5.251805">
        <ele>415.808</ele>
        <time>2015-06-21T13:52:59Z</time>
      </trkpt>
      <trkpt lat="36.701353" lon="-5.251841">
        <ele>415.866</ele>
        <time>2015-06-21T13:53:01Z</time>
      </trkpt>
      <trkpt lat="36.701375" lon="-5.251860">
        <ele>415.812</ele>
        <time>2015-06-21T13:53:03Z</time>
      </trkpt>
      <trkpt lat="36.701407" lon="-5.251888">
        <ele>415.885</ele>
        <time>2015-06-21T13:53:06Z</time>
      </trkpt>
      <trkpt lat="36.701417" lon="-5.251888">
        <ele>415.825</ele>
        <time>2015-06-21T13:53:07Z</time>
      </trkpt>
      <trkpt lat="36.701453" lon="-5.251873">
        <ele>415.899</ele>
        <time>2015-06-21T13:53:10Z</time>
      </trkpt>
      <trkpt lat="36.701477" lon="-5.251855">
        <ele>415.866</ele>
        <time>2015-06-21T13:53:12Z</time>
      </trkpt>
      <trkpt lat="36.701489" lon="-5.251845">
        <ele>416.235</ele>
        <time>2015-06-21T13:53:13Z</time>
      </trkpt>
      <trkpt lat="36.701496" lon="-5.251845">
        <ele>416.667</ele>
        <time>2015-06-21T13:53:14Z</time>
      </trkpt>
      <trkpt lat="36.701507" lon="-5.251847">
        <ele>417.028</ele>
        <time>2015-06-21T13:53:15Z</time>
      </trkpt>
      <trkpt lat="36.701519" lon="-5.251849">
        <ele>417.489</ele>
        <time>2015-06-21T13:53:16Z</time>
      </trkpt>
      <trkpt lat="36.701531" lon="-5.251843">
        <ele>418.017</ele>
        <time>2015-06-21T13:53:17Z</time>
      </trkpt>
      <trkpt lat="36.701576" lon="-5.251838">
        <ele>418.008</ele>
        <time>2015-06-21T13:53:20Z</time>
      </trkpt>
      <trkpt lat="36.701591" lon="-5.251839">
        <ele>418.093</ele>
        <time>2015-06-21T13:53:21Z</time>
      </trkpt>
      <trkpt lat="36.701604" lon="-5.251839">
        <ele>418.019</ele>
        <time>2015-06-21T13:53:22Z</time>
      </trkpt>
      <trkpt lat="36.701619" lon="-5.251841">
        <ele>418.422</ele>
        <time>2015-06-21T13:53:23Z</time>
      </trkpt>
      <trkpt lat="36.701632" lon="-5.251847">
        <ele>418.812</ele>
        <time>2015-06-21T13:53:24Z</time>
      </trkpt>
      <trkpt lat="36.701646" lon="-5.251851">
        <ele>419.276</ele>
        <time>2015-06-21T13:53:25Z</time>
      </trkpt>
      <trkpt lat="36.701660" lon="-5.251851">
        <ele>419.653</ele>
        <time>2015-06-21T13:53:26Z</time>
      </trkpt>
      <trkpt lat="36.701676" lon="-5.251853">
        <ele>420.082</ele>
        <time>2015-06-21T13:53:27Z</time>
      </trkpt>
      <trkpt lat="36.701690" lon="-5.251856">
        <ele>420.014</ele>
        <time>2015-06-21T13:53:28Z</time>
      </trkpt>
      <trkpt lat="36.701766" lon="-5.251824">
        <ele>420.091</ele>
        <time>2015-06-21T13:53:34Z</time>
      </trkpt>
      <trkpt lat="36.701779" lon="-5.251821">
        <ele>420.681</ele>
        <time>2015-06-21T13:53:35Z</time>
      </trkpt>
      <trkpt lat="36.701792" lon="-5.251820">
        <ele>421.019</ele>
        <time>2015-06-21T13:53:36Z</time>
      </trkpt>
      <trkpt lat="36.701806" lon="-5.251821">
        <ele>421.408</ele>
        <time>2015-06-21T13:53:37Z</time>
      </trkpt>
      <trkpt lat="36.701822" lon="-5.251823">
        <ele>421.830</ele>
        <time>2015-06-21T13:53:38Z</time>
      </trkpt>
      <trkpt lat="36.701834" lon="-5.251822">
        <ele>422.276</ele>
        <time>2015-06-21T13:53:39Z</time>
      </trkpt>
      <trkpt lat="36.701859" lon="-5.251817">
        <ele>422.279</ele>
        <time>2015-06-21T13:53:41Z</time>
      </trkpt>
      <trkpt lat="36.701945" lon="-5.251797">
        <ele>422.259</ele>
        <time>2015-06-21T13:53:48Z</time>
      </trkpt>
      <trkpt lat="36.701981" lon="-5.251794">
        <ele>422.853</ele>
        <time>2015-06-21T13:53:51Z</time>
      </trkpt>
      <trkpt lat="36.701988" lon="-5.251796">
        <ele>423.290</ele>
        <time>2015-06-21T13:53:52Z</time>
      </trkpt>
      <trkpt lat="36.701997" lon="-5.251795">
        <ele>423.899</ele>
        <time>2015-06-21T13:53:53Z</time>
      </trkpt>
      <trkpt lat="36.702005" lon="-5.251795">
        <ele>424.221</ele>
        <time>2015-06-21T13:53:54Z</time>
      </trkpt>
      <trkpt lat="36.702012" lon="-5.251793">
        <ele>424.632</ele>
        <time>2015-06-21T13:53:55Z</time>
      </trkpt>
      <trkpt lat="36.702057" lon="-5.251783">
        <ele>424.692</ele>
        <time>2015-06-21T13:54:00Z</time>
      </trkpt>
      <trkpt lat="36.702151" lon="-5.251759">
        <ele>424.611</ele>
        <time>2015-06-21T13:54:07Z</time>
      </trkpt>
      <trkpt lat="36.702188" lon="-5.251746">
        <ele>425.008</ele>
        <time>2015-06-21T13:54:10Z</time>
      </trkpt>
      <trkpt lat="36.702200" lon="-5.251741">
        <ele>425.414</ele>
        <time>2015-06-21T13:54:11Z</time>
      </trkpt>
      <trkpt lat="36.702213" lon="-5.251737">
        <ele>426.480</ele>
        <time>2015-06-21T13:54:12Z</time>
      </trkpt>
      <trkpt lat="36.702226" lon="-5.251731">
        <ele>426.833</ele>
        <time>2015-06-21T13:54:13Z</time>
      </trkpt>
      <trkpt lat="36.702251" lon="-5.251721">
        <ele>426.873</ele>
        <time>2015-06-21T13:54:15Z</time>
      </trkpt>
      <trkpt lat="36.702317" lon="-5.251677">
        <ele>427.257</ele>
        <time>2015-06-21T13:54:21Z</time>
      </trkpt>
      <trkpt lat="36.702325" lon="-5.251669">
        <ele>427.694</ele>
        <time>2015-06-21T13:54:22Z</time>
      </trkpt>
      <trkpt lat="36.702334" lon="-5.251659">
        <ele>428.063</ele>
        <time>2015-06-21T13:54:23Z</time>
      </trkpt>
      <trkpt lat="36.702344" lon="-5.251650">
        <ele>428.485</ele>
        <time>2015-06-21T13:54:24Z</time>
      </trkpt>
      <trkpt lat="36.702352" lon="-5.251638">
        <ele>428.824</ele>
        <time>2015-06-21T13:54:25Z</time>
      </trkpt>
      <trkpt lat="36.702380" lon="-5.251617">
        <ele>428.804</ele>
        <time>2015-06-21T13:54:28Z</time>
      </trkpt>
      <trkpt lat="36.702452" lon="-5.251567">
        <ele>428.814</ele>
        <time>2015-06-21T13:54:35Z</time>
      </trkpt>
      <trkpt lat="36.702472" lon="-5.251551">
        <ele>429.608</ele>
        <time>2015-06-21T13:54:37Z</time>
      </trkpt>
      <trkpt lat="36.702479" lon="-5.251540">
        <ele>430.073</ele>
        <time>2015-06-21T13:54:38Z</time>
      </trkpt>
      <trkpt lat="36.702487" lon="-5.251531">
        <ele>430.499</ele>
        <time>2015-06-21T13:54:39Z</time>
      </trkpt>
      <trkpt lat="36.702494" lon="-5.251525">
        <ele>431.062</ele>
        <time>2015-06-21T13:54:40Z</time>
      </trkpt>
      <trkpt lat="36.702510" lon="-5.251518">
        <ele>431.092</ele>
        <time>2015-06-21T13:54:42Z</time>
      </trkpt>
      <trkpt lat="36.702518" lon="-5.251520">
        <ele>431.016</ele>
        <time>2015-06-21T13:54:43Z</time>
      </trkpt>
      <trkpt lat="36.702534" lon="-5.251518">
        <ele>431.083</ele>
        <time>2015-06-21T13:54:45Z</time>
      </trkpt>
      <trkpt lat="36.702560" lon="-5.251490">
        <ele>431.072</ele>
        <time>2015-06-21T13:54:48Z</time>
      </trkpt>
      <trkpt lat="36.702570" lon="-5.251480">
        <ele>431.424</ele>
        <time>2015-06-21T13:54:49Z</time>
      </trkpt>
      <trkpt lat="36.702580" lon="-5.251474">
        <ele>431.854</ele>
        <time>2015-06-21T13:54:50Z</time>
      </trkpt>
      <trkpt lat="36.702589" lon="-5.251469">
        <ele>432.256</ele>
        <time>2015-06-21T13:54:51Z</time>
      </trkpt>
      <trkpt lat="36.702601" lon="-5.251463">
        <ele>432.611</ele>
        <time>2015-06-21T13:54:52Z</time>
      </trkpt>
      <trkpt lat="36.702614" lon="-5.251457">
        <ele>433.008</ele>
        <time>2015-06-21T13:54:53Z</time>
      </trkpt>
      <trkpt lat="36.702637" lon="-5.251445">
        <ele>433.096</ele>
        <time>2015-06-21T13:54:55Z</time>
      </trkpt>
      <trkpt lat="36.702685" lon="-5.251422">
        <ele>433.092</ele>
        <time>2015-06-21T13:55:00Z</time>
      </trkpt>
      <trkpt lat="36.702704" lon="-5.251412">
        <ele>433.865</ele>
        <time>2015-06-21T13:55:02Z</time>
      </trkpt>
      <trkpt lat="36.702713" lon="-5.251411">
        <ele>434.215</ele>
        <time>2015-06-21T13:55:03Z</time>
      </trkpt>
      <trkpt lat="36.702723" lon="-5.251408">
        <ele>434.679</ele>
        <time>2015-06-21T13:55:04Z</time>
      </trkpt>
      <trkpt lat="36.702732" lon="-5.251405">
        <ele>435.046</ele>
        <time>2015-06-21T13:55:05Z</time>
      </trkpt>
      <trkpt lat="36.702759" lon="-5.251391">
        <ele>435.045</ele>
        <time>2015-06-21T13:55:08Z</time>
      </trkpt>
      <trkpt lat="36.702804" lon="-5.251379">
        <ele>435.667</ele>
        <time>2015-06-21T13:55:12Z</time>
      </trkpt>
      <trkpt lat="36.702812" lon="-5.251377">
        <ele>436.024</ele>
        <time>2015-06-21T13:55:13Z</time>
      </trkpt>
      <trkpt lat="36.702820" lon="-5.251375">
        <ele>436.404</ele>
        <time>2015-06-21T13:55:14Z</time>
      </trkpt>
      <trkpt lat="36.702830" lon="-5.251368">
        <ele>436.814</ele>
        <time>2015-06-21T13:55:15Z</time>
      </trkpt>
      <trkpt lat="36.702837" lon="-5.251361">
        <ele>437.408</ele>
        <time>2015-06-21T13:55:16Z</time>
      </trkpt>
      <trkpt lat="36.702878" lon="-5.251342">
        <ele>437.473</ele>
        <time>2015-06-21T13:55:21Z</time>
      </trkpt>
      <trkpt lat="36.702899" lon="-5.251335">
        <ele>437.899</ele>
        <time>2015-06-21T13:55:23Z</time>
      </trkpt>
      <trkpt lat="36.702907" lon="-5.251340">
        <ele>438.222</ele>
        <time>2015-06-21T13:55:24Z</time>
      </trkpt>
      <trkpt lat="36.702917" lon="-5.251343">
        <ele>438.642</ele>
        <time>2015-06-21T13:55:25Z</time>
      </trkpt>
      <trkpt lat="36.702929" lon="-5.251347">
        <ele>439.026</ele>
        <time>2015-06-21T13:55:26Z</time>
      </trkpt>
      <trkpt lat="36.702943" lon="-5.251351">
        <ele>439.433</ele>
        <time>2015-06-21T13:55:27Z</time>
      </trkpt>
      <trkpt lat="36.702953" lon="-5.251349">
        <ele>439.442</ele>
        <time>2015-06-21T13:55:28Z</time>
      </trkpt>
      <trkpt lat="36.703006" lon="-5.251331">
        <ele>439.484</ele>
        <time>2015-06-21T13:55:33Z</time>
      </trkpt>
      <trkpt lat="36.703021" lon="-5.251318">
        <ele>439.856</ele>
        <time>2015-06-21T13:55:35Z</time>
      </trkpt>
      <trkpt lat="36.703027" lon="-5.251310">
        <ele>440.459</ele>
        <time>2015-06-21T13:55:36Z</time>
      </trkpt>
      <trkpt lat="36.703033" lon="-5.251299">
        <ele>440.814</ele>
        <time>2015-06-21T13:55:37Z</time>
      </trkpt>
      <trkpt lat="36.703041" lon="-5.251289">
        <ele>441.208</ele>
        <time>2015-06-21T13:55:38Z</time>
      </trkpt>
      <trkpt lat="36.703050" lon="-5.251279">
        <ele>441.696</ele>
        <time>2015-06-21T13:55:39Z</time>
      </trkpt>
      <trkpt lat="36.703061" lon="-5.251273">
        <ele>441.632</ele>
        <time>2015-06-21T13:55:40Z</time>
      </trkpt>
      <trkpt lat="36.703126" lon="-5.251252">
        <ele>441.655</ele>
        <time>2015-06-21T13:55:46Z</time>
      </trkpt>
      <trkpt lat="36.703170" lon="-5.251230">
        <ele>442.015</ele>
        <time>2015-06-21T13:55:50Z</time>
      </trkpt>
      <trkpt lat="36.703180" lon="-5.251227">
        <ele>442.869</ele>
        <time>2015-06-21T13:55:51Z</time>
      </trkpt>
      <trkpt lat="36.703192" lon="-5.251220">
        <ele>443.276</ele>
        <time>2015-06-21T13:55:52Z</time>
      </trkpt>
      <trkpt lat="36.703202" lon="-5.251219">
        <ele>443.635</ele>
        <time>2015-06-21T13:55:53Z</time>
      </trkpt>
      <trkpt lat="36.703263" lon="-5.251192">
        <ele>443.687</ele>
        <time>2015-06-21T13:55:59Z</time>
      </trkpt>
      <trkpt lat="36.703272" lon="-5.251188">
        <ele>444.028</ele>
        <time>2015-06-21T13:56:00Z</time>
      </trkpt>
      <trkpt lat="36.703280" lon="-5.251184">
        <ele>444.489</ele>
        <time>2015-06-21T13:56:01Z</time>
      </trkpt>
      <trkpt lat="36.703289" lon="-5.251181">
        <ele>445.017</ele>
        <time>2015-06-21T13:56:02Z</time>
      </trkpt>
      <trkpt lat="36.703298" lon="-5.251177">
        <ele>445.408</ele>
        <time>2015-06-21T13:56:03Z</time>
      </trkpt>
      <trkpt lat="36.703307" lon="-5.251174">
        <ele>445.883</ele>
        <time>2015-06-21T13:56:04Z</time>
      </trkpt>
      <trkpt lat="36.703327" lon="-5.251170">
        <ele>445.819</ele>
        <time>2015-06-21T13:56:06Z</time>
      </trkpt>
      <trkpt lat="36.703369" lon="-5.251154">
        <ele>446.212</ele>
        <time>2015-06-21T13:56:10Z</time>
      </trkpt>
      <trkpt lat="36.703379" lon="-5.251146">
        <ele>446.682</ele>
        <time>2015-06-21T13:56:11Z</time>
      </trkpt>
      <trkpt lat="36.703387" lon="-5.251139">
        <ele>447.056</ele>
        <time>2015-06-21T13:56:12Z</time>
      </trkpt>
      <trkpt lat="36.703397" lon="-5.251132">
        <ele>447.423</ele>
        <time>2015-06-21T13:56:13Z</time>
      </trkpt>
      <trkpt lat="36.703404" lon="-5.251128">
        <ele>448.042</ele>
        <time>2015-06-21T13:56:14Z</time>
      </trkpt>
      <trkpt lat="36.703444" lon="-5.251115">
        <ele>448.024</ele>
        <time>2015-06-21T13:56:18Z</time>
      </trkpt>
      <trkpt lat="36.703479" lon="-5.251105">
        <ele>448.093</ele>
        <time>2015-06-21T13:56:21Z</time>
      </trkpt>
      <trkpt lat="36.703531" lon="-5.251099">
        <ele>448.065</ele>
        <time>2015-06-21T13:56:24Z</time>
      </trkpt>
      <trkpt lat="36.703549" lon="-5.251092">
        <ele>448.421</ele>
        <time>2015-06-21T13:56:25Z</time>
      </trkpt>
      <trkpt lat="36.703568" lon="-5.251085">
        <ele>448.808</ele>
        <time>2015-06-21T13:56:26Z</time>
      </trkpt>
      <trkpt lat="36.703587" lon="-5.251082">
        <ele>449.210</ele>
        <time>2015-06-21T13:56:27Z</time>
      </trkpt>
      <trkpt lat="36.703603" lon="-5.251076">
        <ele>449.666</ele>
        <time>2015-06-21T13:56:28Z</time>
      </trkpt>
      <trkpt lat="36.703618" lon="-5.251067">
        <ele>450.079</ele>
        <time>2015-06-21T13:56:29Z</time>
      </trkpt>
      <trkpt lat="36.703644" lon="-5.251055">
        <ele>450.039</ele>
        <time>2015-06-21T13:56:31Z</time>
      </trkpt>
      <trkpt lat="36.703748" lon="-5.251005">
        <ele>450.043</ele>
        <time>2015-06-21T13:56:39Z</time>
      </trkpt>
      <trkpt lat="36.703785" lon="-5.250990">
        <ele>450.430</ele>
        <time>2015-06-21T13:56:42Z</time>
      </trkpt>
      <trkpt lat="36.703798" lon="-5.250982">
        <ele>450.839</ele>
        <time>2015-06-21T13:56:43Z</time>
      </trkpt>
      <trkpt lat="36.703810" lon="-5.250975">
        <ele>451.231</ele>
        <time>2015-06-21T13:56:44Z</time>
      </trkpt>
      <trkpt lat="36.703820" lon="-5.250966">
        <ele>451.617</ele>
        <time>2015-06-21T13:56:45Z</time>
      </trkpt>
      <trkpt lat="36.703824" lon="-5.250957">
        <ele>452.087</ele>
        <time>2015-06-21T13:56:46Z</time>
      </trkpt>
      <trkpt lat="36.703848" lon="-5.250934">
        <ele>452.015</ele>
        <time>2015-06-21T13:56:49Z</time>
      </trkpt>
      <trkpt lat="36.703858" lon="-5.250930">
        <ele>452.008</ele>
        <time>2015-06-21T13:56:50Z</time>
      </trkpt>
      <trkpt lat="36.703870" lon="-5.250922">
        <ele>452.492</ele>
        <time>2015-06-21T13:56:51Z</time>
      </trkpt>
      <trkpt lat="36.703884" lon="-5.250915">
        <ele>452.878</ele>
        <time>2015-06-21T13:56:52Z</time>
      </trkpt>
      <trkpt lat="36.703898" lon="-5.250911">
        <ele>453.271</ele>
        <time>2015-06-21T13:56:53Z</time>
      </trkpt>
      <trkpt lat="36.703916" lon="-5.250905">
        <ele>453.691</ele>
        <time>2015-06-21T13:56:54Z</time>
      </trkpt>
      <trkpt lat="36.703932" lon="-5.250897">
        <ele>454.055</ele>
        <time>2015-06-21T13:56:55Z</time>
      </trkpt>
      <trkpt lat="36.703945" lon="-5.250888">
        <ele>454.072</ele>
        <time>2015-06-21T13:56:56Z</time>
      </trkpt>
      <trkpt lat="36.704046" lon="-5.250839">
        <ele>454.031</ele>
        <time>2015-06-21T13:57:03Z</time>
      </trkpt>
      <trkpt lat="36.704164" lon="-5.250783">
        <ele>454.053</ele>
        <time>2015-06-21T13:57:10Z</time>
      </trkpt>
      <trkpt lat="36.704251" lon="-5.250743">
        <ele>454.031</ele>
        <time>2015-06-21T13:57:16Z</time>
      </trkpt>
      <trkpt lat="36.704365" lon="-5.250697">
        <ele>454.461</ele>
        <time>2015-06-21T13:57:22Z</time>
      </trkpt>
      <trkpt lat="36.704381" lon="-5.250690">
        <ele>454.807</ele>
        <time>2015-06-21T13:57:23Z</time>
      </trkpt>
      <trkpt lat="36.704394" lon="-5.250682">
        <ele>455.208</ele>
        <time>2015-06-21T13:57:24Z</time>
      </trkpt>
      <trkpt lat="36.704409" lon="-5.250672">
        <ele>455.634</ele>
        <time>2015-06-21T13:57:25Z</time>
      </trkpt>
      <trkpt lat="36.704426" lon="-5.250659">
        <ele>456.080</ele>
        <time>2015-06-21T13:57:26Z</time>
      </trkpt>
      <trkpt lat="36.704492" lon="-5.250630">
        <ele>456.043</ele>
        <time>2015-06-21T13:57:29Z</time>
      </trkpt>
      <trkpt lat="36.704651" lon="-5.250572">
        <ele>456.013</ele>
        <time>2015-06-21T13:57:35Z</time>
      </trkpt>
      <trkpt lat="36.704807" lon="-5.250488">
        <ele>456.087</ele>
        <time>2015-06-21T13:57:41Z</time>
      </trkpt>
      <trkpt lat="36.704911" lon="-5.250435">
        <ele>456.694</ele>
        <time>2015-06-21T13:57:45Z</time>
      </trkpt>
      <trkpt lat="36.704930" lon="-5.250424">
        <ele>457.063</ele>
        <time>2015-06-21T13:57:46Z</time>
      </trkpt>
      <trkpt lat="36.704944" lon="-5.250409">
        <ele>457.495</ele>
        <time>2015-06-21T13:57:47Z</time>
      </trkpt>
      <trkpt lat="36.704960" lon="-5.250394">
        <ele>457.846</ele>
        <time>2015-06-21T13:57:48Z</time>
      </trkpt>
      <trkpt lat="36.704975" lon="-5.250380">
        <ele>458.288</ele>
        <time>2015-06-21T13:57:49Z</time>
      </trkpt>
      <trkpt lat="36.705074" lon="-5.250311">
        <ele>458.216</ele>
        <time>2015-06-21T13:57:54Z</time>
      </trkpt>
      <trkpt lat="36.705280" lon="-5.250226">
        <ele>458.208</ele>
        <time>2015-06-21T13:57:59Z</time>
      </trkpt>
      <trkpt lat="36.705532" lon="-5.250191">
        <ele>458.255</ele>
        <time>2015-06-21T13:58:03Z</time>
      </trkpt>
      <trkpt lat="36.705611" lon="-5.250169">
        <ele>457.831</ele>
        <time>2015-06-21T13:58:04Z</time>
      </trkpt>
      <trkpt lat="36.705694" lon="-5.250141">
        <ele>457.224</ele>
        <time>2015-06-21T13:58:05Z</time>
      </trkpt>
      <trkpt lat="36.705780" lon="-5.250100">
        <ele>456.864</ele>
        <time>2015-06-21T13:58:06Z</time>
      </trkpt>
      <trkpt lat="36.705873" lon="-5.250045">
        <ele>456.058</ele>
        <time>2015-06-21T13:58:07Z</time>
      </trkpt>
      <trkpt lat="36.705956" lon="-5.249983">
        <ele>455.475</ele>
        <time>2015-06-21T13:58:08Z</time>
      </trkpt>
      <trkpt lat="36.706029" lon="-5.249923">
        <ele>454.884</ele>
        <time>2015-06-21T13:58:09Z</time>
      </trkpt>
      <trkpt lat="36.706092" lon="-5.249863">
        <ele>454.056</ele>
        <time>2015-06-21T13:58:10Z</time>
      </trkpt>
      <trkpt lat="36.706149" lon="-5.249801">
        <ele>453.625</ele>
        <time>2015-06-21T13:58:11Z</time>
      </trkpt>
      <trkpt lat="36.706204" lon="-5.249745">
        <ele>453.026</ele>
        <time>2015-06-21T13:58:12Z</time>
      </trkpt>
      <trkpt lat="36.706263" lon="-5.249694">
        <ele>452.408</ele>
        <time>2015-06-21T13:58:13Z</time>
      </trkpt>
      <trkpt lat="36.706323" lon="-5.249635">
        <ele>451.808</ele>
        <time>2015-06-21T13:58:14Z</time>
      </trkpt>
      <trkpt lat="36.706381" lon="-5.249574">
        <ele>451.483</ele>
        <time>2015-06-21T13:58:15Z</time>
      </trkpt>
      <trkpt lat="36.706442" lon="-5.249516">
        <ele>451.479</ele>
        <time>2015-06-21T13:58:16Z</time>
      </trkpt>
      <trkpt lat="36.706677" lon="-5.249341">
        <ele>450.462</ele>
        <time>2015-06-21T13:58:19Z</time>
      </trkpt>
      <trkpt lat="36.706755" lon="-5.249271">
        <ele>450.092</ele>
        <time>2015-06-21T13:58:20Z</time>
      </trkpt>
      <trkpt lat="36.706828" lon="-5.249201">
        <ele>449.416</ele>
        <time>2015-06-21T13:58:21Z</time>
      </trkpt>
      <trkpt lat="36.706901" lon="-5.249128">
        <ele>449.043</ele>
        <time>2015-06-21T13:58:22Z</time>
      </trkpt>
      <trkpt lat="36.706961" lon="-5.249062">
        <ele>449.062</ele>
        <time>2015-06-21T13:58:23Z</time>
      </trkpt>
      <trkpt lat="36.707138" lon="-5.248876">
        <ele>449.044</ele>
        <time>2015-06-21T13:58:27Z</time>
      </trkpt>
      <trkpt lat="36.707261" lon="-5.248747">
        <ele>449.082</ele>
        <time>2015-06-21T13:58:32Z</time>
      </trkpt>
      <trkpt lat="36.707342" lon="-5.248658">
        <ele>449.043</ele>
        <time>2015-06-21T13:58:36Z</time>
      </trkpt>
      <trkpt lat="36.707410" lon="-5.248606">
        <ele>449.017</ele>
        <time>2015-06-21T13:58:39Z</time>
      </trkpt>
      <trkpt lat="36.707470" lon="-5.248557">
        <ele>449.008</ele>
        <time>2015-06-21T13:58:41Z</time>
      </trkpt>
      <trkpt lat="36.707547" lon="-5.248494">
        <ele>449.019</ele>
        <time>2015-06-21T13:58:43Z</time>
      </trkpt>
      <trkpt lat="36.707672" lon="-5.248395">
        <ele>449.035</ele>
        <time>2015-06-21T13:58:47Z</time>
      </trkpt>
      <trkpt lat="36.707704" lon="-5.248351">
        <ele>449.058</ele>
        <time>2015-06-21T13:58:50Z</time>
      </trkpt>
      <trkpt lat="36.707730" lon="-5.248284">
        <ele>449.018</ele>
        <time>2015-06-21T13:58:54Z</time>
      </trkpt>
      <trkpt lat="36.707749" lon="-5.248236">
        <ele>449.062</ele>
        <time>2015-06-21T13:58:57Z</time>
      </trkpt>
      <trkpt lat="36.707766" lon="-5.248213">
        <ele>449.479</ele>
        <time>2015-06-21T13:58:59Z</time>
      </trkpt>
      <trkpt lat="36.707771" lon="-5.248198">
        <ele>450.048</ele>
        <time>2015-06-21T13:59:00Z</time>
      </trkpt>
      <trkpt lat="36.707777" lon="-5.248184">
        <ele>450.450</ele>
        <time>2015-06-21T13:59:01Z</time>
      </trkpt>
      <trkpt lat="36.707784" lon="-5.248175">
        <ele>450.853</ele>
        <time>2015-06-21T13:59:02Z</time>
      </trkpt>
      <trkpt lat="36.707790" lon="-5.248163">
        <ele>451.204</ele>
        <time>2015-06-21T13:59:03Z</time>
      </trkpt>
      <trkpt lat="36.707826" lon="-5.248114">
        <ele>451.214</ele>
        <time>2015-06-21T13:59:08Z</time>
      </trkpt>
      <trkpt lat="36.707850" lon="-5.248051">
        <ele>451.608</ele>
        <time>2015-06-21T13:59:12Z</time>
      </trkpt>
      <trkpt lat="36.707851" lon="-5.248031">
        <ele>452.026</ele>
        <time>2015-06-21T13:59:13Z</time>
      </trkpt>
      <trkpt lat="36.707855" lon="-5.248009">
        <ele>452.482</ele>
        <time>2015-06-21T13:59:14Z</time>
      </trkpt>
      <trkpt lat="36.707857" lon="-5.247985">
        <ele>453.035</ele>
        <time>2015-06-21T13:59:15Z</time>
      </trkpt>
      <trkpt lat="36.707855" lon="-5.247957">
        <ele>453.425</ele>
        <time>2015-06-21T13:59:16Z</time>
      </trkpt>
      <trkpt lat="36.707837" lon="-5.247829">
        <ele>453.459</ele>
        <time>2015-06-21T13:59:19Z</time>
      </trkpt>
      <trkpt lat="36.707887" lon="-5.247625">
        <ele>453.426</ele>
        <time>2015-06-21T13:59:23Z</time>
      </trkpt>
      <trkpt lat="36.707940" lon="-5.247528">
        <ele>453.435</ele>
        <time>2015-06-21T13:59:27Z</time>
      </trkpt>
      <trkpt lat="36.707994" lon="-5.247480">
        <ele>453.427</ele>
        <time>2015-06-21T13:59:31Z</time>
      </trkpt>
      <trkpt lat="36.708047" lon="-5.247466">
        <ele>453.423</ele>
        <time>2015-06-21T13:59:33Z</time>
      </trkpt>
      <trkpt lat="36.708083" lon="-5.247446">
        <ele>453.483</ele>
        <time>2015-06-21T13:59:34Z</time>
      </trkpt>
      <trkpt lat="36.708172" lon="-5.247357">
        <ele>453.411</ele>
        <time>2015-06-21T13:59:36Z</time>
      </trkpt>
      <trkpt lat="36.708225" lon="-5.247300">
        <ele>452.808</ele>
        <time>2015-06-21T13:59:37Z</time>
      </trkpt>
      <trkpt lat="36.708278" lon="-5.247242">
        <ele>452.483</ele>
        <time>2015-06-21T13:59:38Z</time>
      </trkpt>
      <trkpt lat="36.708326" lon="-5.247192">
        <ele>451.859</ele>
        <time>2015-06-21T13:59:39Z</time>
      </trkpt>
      <trkpt lat="36.708369" lon="-5.247148">
        <ele>451.462</ele>
        <time>2015-06-21T13:59:40Z</time>
      </trkpt>
      <trkpt lat="36.708420" lon="-5.247125">
        <ele>450.842</ele>
        <time>2015-06-21T13:59:41Z</time>
      </trkpt>
      <trkpt lat="36.708476" lon="-5.247114">
        <ele>450.246</ele>
        <time>2015-06-21T13:59:42Z</time>
      </trkpt>
      <trkpt lat="36.708528" lon="-5.247106">
        <ele>449.693</ele>
        <time>2015-06-21T13:59:43Z</time>
      </trkpt>
      <trkpt lat="36.708576" lon="-5.247102">
        <ele>449.232</ele>
        <time>2015-06-21T13:59:44Z</time>
      </trkpt>
      <trkpt lat="36.708610" lon="-5.247108">
        <ele>448.674</ele>
        <time>2015-06-21T13:59:45Z</time>
      </trkpt>
      <trkpt lat="36.708633" lon="-5.247113">
        <ele>448.664</ele>
        <time>2015-06-21T13:59:46Z</time>
      </trkpt>
      <trkpt lat="36.708686" lon="-5.247111">
        <ele>448.606</ele>
        <time>2015-06-21T13:59:49Z</time>
      </trkpt>
      <trkpt lat="36.708705" lon="-5.247100">
        <ele>448.616</ele>
        <time>2015-06-21T13:59:50Z</time>
      </trkpt>
      <trkpt lat="36.708727" lon="-5.247073">
        <ele>448.608</ele>
        <time>2015-06-21T13:59:51Z</time>
      </trkpt>
      <trkpt lat="36.708830" lon="-5.246977">
        <ele>448.687</ele>
        <time>2015-06-21T13:59:54Z</time>
      </trkpt>
      <trkpt lat="36.708869" lon="-5.246942">
        <ele>448.623</ele>
        <time>2015-06-21T13:59:55Z</time>
      </trkpt>
      <trkpt lat="36.708915" lon="-5.246905">
        <ele>448.056</ele>
        <time>2015-06-21T13:59:56Z</time>
      </trkpt>
      <trkpt lat="36.708963" lon="-5.246866">
        <ele>447.676</ele>
        <time>2015-06-21T13:59:57Z</time>
      </trkpt>
      <trkpt lat="36.709027" lon="-5.246828">
        <ele>447.220</ele>
        <time>2015-06-21T13:59:58Z</time>
      </trkpt>
      <trkpt lat="36.709100" lon="-5.246803">
        <ele>446.627</ele>
        <time>2015-06-21T13:59:59Z</time>
      </trkpt>
      <trkpt lat="36.709169" lon="-5.246773">
        <ele>446.056</ele>
        <time>2015-06-21T14:00:00Z</time>
      </trkpt>
      <trkpt lat="36.709244" lon="-5.246739">
        <ele>445.498</ele>
        <time>2015-06-21T14:00:01Z</time>
      </trkpt>
      <trkpt lat="36.709322" lon="-5.246702">
        <ele>444.838</ele>
        <time>2015-06-21T14:00:02Z</time>
      </trkpt>
      <trkpt lat="36.709404" lon="-5.246670">
        <ele>444.270</ele>
        <time>2015-06-21T14:00:03Z</time>
      </trkpt>
      <trkpt lat="36.709494" lon="-5.246649">
        <ele>443.817</ele>
        <time>2015-06-21T14:00:04Z</time>
      </trkpt>
      <trkpt lat="36.709586" lon="-5.246634">
        <ele>443.208</ele>
        <time>2015-06-21T14:00:05Z</time>
      </trkpt>
      <trkpt lat="36.709675" lon="-5.246630">
        <ele>442.854</ele>
        <time>2015-06-21T14:00:06Z</time>
      </trkpt>
      <trkpt lat="36.709743" lon="-5.246629">
        <ele>442.220</ele>
        <time>2015-06-21T14:00:07Z</time>
      </trkpt>
      <trkpt lat="36.709800" lon="-5.246629">
        <ele>441.693</ele>
        <time>2015-06-21T14:00:08Z</time>
      </trkpt>
      <trkpt lat="36.709858" lon="-5.246626">
        <ele>441.063</ele>
        <time>2015-06-21T14:00:09Z</time>
      </trkpt>
      <trkpt lat="36.709909" lon="-5.246609">
        <ele>440.467</ele>
        <time>2015-06-21T14:00:10Z</time>
      </trkpt>
      <trkpt lat="36.709939" lon="-5.246573">
        <ele>439.864</ele>
        <time>2015-06-21T14:00:11Z</time>
      </trkpt>
      <trkpt lat="36.710030" lon="-5.246477">
        <ele>439.423</ele>
        <time>2015-06-21T14:00:14Z</time>
      </trkpt>
      <trkpt lat="36.710059" lon="-5.246477">
        <ele>438.825</ele>
        <time>2015-06-21T14:00:15Z</time>
      </trkpt>
      <trkpt lat="36.710086" lon="-5.246476">
        <ele>438.468</ele>
        <time>2015-06-21T14:00:16Z</time>
      </trkpt>
      <trkpt lat="36.710120" lon="-5.246465">
        <ele>437.842</ele>
        <time>2015-06-21T14:00:17Z</time>
      </trkpt>
      <trkpt lat="36.710160" lon="-5.246458">
        <ele>437.426</ele>
        <time>2015-06-21T14:00:18Z</time>
      </trkpt>
      <trkpt lat="36.710213" lon="-5.246451">
        <ele>437.008</ele>
        <time>2015-06-21T14:00:19Z</time>
      </trkpt>
      <trkpt lat="36.710273" lon="-5.246428">
        <ele>436.077</ele>
        <time>2015-06-21T14:00:20Z</time>
      </trkpt>
      <trkpt lat="36.710331" lon="-5.246391">
        <ele>435.693</ele>
        <time>2015-06-21T14:00:21Z</time>
      </trkpt>
      <trkpt lat="36.710380" lon="-5.246353">
        <ele>435.066</ele>
        <time>2015-06-21T14:00:22Z</time>
      </trkpt>
      <trkpt lat="36.710425" lon="-5.246314">
        <ele>434.436</ele>
        <time>2015-06-21T14:00:23Z</time>
      </trkpt>
      <trkpt lat="36.710461" lon="-5.246279">
        <ele>434.080</ele>
        <time>2015-06-21T14:00:24Z</time>
      </trkpt>
      <trkpt lat="36.710495" lon="-5.246253">
        <ele>433.427</ele>
        <time>2015-06-21T14:00:25Z</time>
      </trkpt>
      <trkpt lat="36.710530" lon="-5.246231">
        <ele>432.826</ele>
        <time>2015-06-21T14:00:26Z</time>
      </trkpt>
      <trkpt lat="36.710562" lon="-5.246217">
        <ele>432.238</ele>
        <time>2015-06-21T14:00:27Z</time>
      </trkpt>
      <trkpt lat="36.710589" lon="-5.246195">
        <ele>431.485</ele>
        <time>2015-06-21T14:00:28Z</time>
      </trkpt>
      <trkpt lat="36.710612" lon="-5.246159">
        <ele>430.889</ele>
        <time>2015-06-21T14:00:29Z</time>
      </trkpt>
      <trkpt lat="36.710633" lon="-5.246121">
        <ele>430.217</ele>
        <time>2015-06-21T14:00:30Z</time>
      </trkpt>
      <trkpt lat="36.710679" lon="-5.246055">
        <ele>430.208</ele>
        <time>2015-06-21T14:00:32Z</time>
      </trkpt>
      <trkpt lat="36.710720" lon="-5.246045">
        <ele>429.889</ele>
        <time>2015-06-21T14:00:33Z</time>
      </trkpt>
      <trkpt lat="36.710770" lon="-5.246039">
        <ele>429.485</ele>
        <time>2015-06-21T14:00:34Z</time>
      </trkpt>
      <trkpt lat="36.710822" lon="-5.246033">
        <ele>429.058</ele>
        <time>2015-06-21T14:00:35Z</time>
      </trkpt>
      <trkpt lat="36.710881" lon="-5.246028">
        <ele>428.628</ele>
        <time>2015-06-21T14:00:36Z</time>
      </trkpt>
      <trkpt lat="36.710946" lon="-5.246026">
        <ele>428.022</ele>
        <time>2015-06-21T14:00:37Z</time>
      </trkpt>
      <trkpt lat="36.711013" lon="-5.246029">
        <ele>427.689</ele>
        <time>2015-06-21T14:00:38Z</time>
      </trkpt>
      <trkpt lat="36.711083" lon="-5.246035">
        <ele>427.068</ele>
        <time>2015-06-21T14:00:39Z</time>
      </trkpt>
      <trkpt lat="36.711146" lon="-5.246039">
        <ele>426.430</ele>
        <time>2015-06-21T14:00:40Z</time>
      </trkpt>
      <trkpt lat="36.711200" lon="-5.246039">
        <ele>426.096</ele>
        <time>2015-06-21T14:00:41Z</time>
      </trkpt>
      <trkpt lat="36.711245" lon="-5.246030">
        <ele>426.031</ele>
        <time>2015-06-21T14:00:42Z</time>
      </trkpt>
      <trkpt lat="36.711288" lon="-5.246018">
        <ele>426.024</ele>
        <time>2015-06-21T14:00:43Z</time>
      </trkpt>
      <trkpt lat="36.711331" lon="-5.246014">
        <ele>426.008</ele>
        <time>2015-06-21T14:00:44Z</time>
      </trkpt>
      <trkpt lat="36.711424" lon="-5.246049">
        <ele>426.010</ele>
        <time>2015-06-21T14:00:46Z</time>
      </trkpt>
      <trkpt lat="36.711469" lon="-5.246073">
        <ele>425.436</ele>
        <time>2015-06-21T14:00:47Z</time>
      </trkpt>
      <trkpt lat="36.711510" lon="-5.246093">
        <ele>425.049</ele>
        <time>2015-06-21T14:00:48Z</time>
      </trkpt>
      <trkpt lat="36.711549" lon="-5.246109">
        <ele>424.639</ele>
        <time>2015-06-21T14:00:49Z</time>
      </trkpt>
      <trkpt lat="36.711582" lon="-5.246126">
        <ele>424.293</ele>
        <time>2015-06-21T14:00:50Z</time>
      </trkpt>
      <trkpt lat="36.711612" lon="-5.246148">
        <ele>423.890</ele>
        <time>2015-06-21T14:00:51Z</time>
      </trkpt>
      <trkpt lat="36.711736" lon="-5.246213">
        <ele>423.879</ele>
        <time>2015-06-21T14:00:55Z</time>
      </trkpt>
      <trkpt lat="36.711778" lon="-5.246220">
        <ele>423.861</ele>
        <time>2015-06-21T14:00:56Z</time>
      </trkpt>
      <trkpt lat="36.711869" lon="-5.246229">
        <ele>423.265</ele>
        <time>2015-06-21T14:00:58Z</time>
      </trkpt>
      <trkpt lat="36.711924" lon="-5.246232">
        <ele>422.868</ele>
        <time>2015-06-21T14:00:59Z</time>
      </trkpt>
      <trkpt lat="36.711974" lon="-5.246226">
        <ele>422.414</ele>
        <time>2015-06-21T14:01:00Z</time>
      </trkpt>
      <trkpt lat="36.712020" lon="-5.246218">
        <ele>421.808</ele>
        <time>2015-06-21T14:01:01Z</time>
      </trkpt>
      <trkpt lat="36.712061" lon="-5.246211">
        <ele>421.487</ele>
        <time>2015-06-21T14:01:02Z</time>
      </trkpt>
      <trkpt lat="36.712161" lon="-5.246161">
        <ele>421.053</ele>
        <time>2015-06-21T14:01:05Z</time>
      </trkpt>
      <trkpt lat="36.712189" lon="-5.246139">
        <ele>420.656</ele>
        <time>2015-06-21T14:01:06Z</time>
      </trkpt>
      <trkpt lat="36.712217" lon="-5.246117">
        <ele>420.266</ele>
        <time>2015-06-21T14:01:07Z</time>
      </trkpt>
      <trkpt lat="36.712241" lon="-5.246095">
        <ele>419.860</ele>
        <time>2015-06-21T14:01:08Z</time>
      </trkpt>
      <trkpt lat="36.712265" lon="-5.246075">
        <ele>419.457</ele>
        <time>2015-06-21T14:01:09Z</time>
      </trkpt>
      <trkpt lat="36.712290" lon="-5.246058">
        <ele>419.436</ele>
        <time>2015-06-21T14:01:10Z</time>
      </trkpt>
      <trkpt lat="36.712372" lon="-5.246005">
        <ele>419.488</ele>
        <time>2015-06-21T14:01:14Z</time>
      </trkpt>
      <trkpt lat="36.712384" lon="-5.246005">
        <ele>419.435</ele>
        <time>2015-06-21T14:01:15Z</time>
      </trkpt>
      <trkpt lat="36.712465" lon="-5.245929">
        <ele>420.886</ele>
        <time>2015-06-21T14:36:57Z</time>
      </trkpt>
      <trkpt lat="36.712507" lon="-5.245889">
        <ele>420.814</ele>
        <time>2015-06-21T14:36:58Z</time>
      </trkpt>
      <trkpt lat="36.712608" lon="-5.245839">
        <ele>420.408</ele>
        <time>2015-06-21T14:37:00Z</time>
      </trkpt>
      <trkpt lat="36.712661" lon="-5.245815">
        <ele>420.034</ele>
        <time>2015-06-21T14:37:01Z</time>
      </trkpt>
      <trkpt lat="36.712708" lon="-5.245794">
        <ele>419.660</ele>
        <time>2015-06-21T14:37:02Z</time>
      </trkpt>
      <trkpt lat="36.712754" lon="-5.245774">
        <ele>419.223</ele>
        <time>2015-06-21T14:37:03Z</time>
      </trkpt>
      <trkpt lat="36.712797" lon="-5.245747">
        <ele>418.863</ele>
        <time>2015-06-21T14:37:04Z</time>
      </trkpt>
      <trkpt lat="36.712874" lon="-5.245690">
        <ele>418.867</ele>
        <time>2015-06-21T14:37:06Z</time>
      </trkpt>
      <trkpt lat="36.712943" lon="-5.245619">
        <ele>418.874</ele>
        <time>2015-06-21T14:37:08Z</time>
      </trkpt>
      <trkpt lat="36.713103" lon="-5.245443">
        <ele>418.893</ele>
        <time>2015-06-21T14:37:13Z</time>
      </trkpt>
      <trkpt lat="36.713154" lon="-5.245366">
        <ele>418.875</ele>
        <time>2015-06-21T14:37:15Z</time>
      </trkpt>
      <trkpt lat="36.713232" lon="-5.245195">
        <ele>418.822</ele>
        <time>2015-06-21T14:37:19Z</time>
      </trkpt>
      <trkpt lat="36.713285" lon="-5.245034">
        <ele>418.862</ele>
        <time>2015-06-21T14:37:23Z</time>
      </trkpt>
      <trkpt lat="36.713322" lon="-5.244916">
        <ele>418.808</ele>
        <time>2015-06-21T14:37:26Z</time>
      </trkpt>
      <trkpt lat="36.713371" lon="-5.244744">
        <ele>418.808</ele>
        <time>2015-06-21T14:37:30Z</time>
      </trkpt>
      <trkpt lat="36.713380" lon="-5.244701">
        <ele>418.823</ele>
        <time>2015-06-21T14:37:31Z</time>
      </trkpt>
      <trkpt lat="36.713386" lon="-5.244420">
        <ele>418.899</ele>
        <time>2015-06-21T14:37:37Z</time>
      </trkpt>
      <trkpt lat="36.713379" lon="-5.244370">
        <ele>418.832</ele>
        <time>2015-06-21T14:37:38Z</time>
      </trkpt>
      <trkpt lat="36.713372" lon="-5.244265">
        <ele>418.892</ele>
        <time>2015-06-21T14:37:40Z</time>
      </trkpt>
      <trkpt lat="36.713377" lon="-5.244156">
        <ele>418.886</ele>
        <time>2015-06-21T14:37:42Z</time>
      </trkpt>
      <trkpt lat="36.713433" lon="-5.243727">
        <ele>418.833</ele>
        <time>2015-06-21T14:37:50Z</time>
      </trkpt>
      <trkpt lat="36.713488" lon="-5.243290">
        <ele>418.852</ele>
        <time>2015-06-21T14:37:58Z</time>
      </trkpt>
      <trkpt lat="36.713520" lon="-5.242894">
        <ele>418.884</ele>
        <time>2015-06-21T14:38:06Z</time>
      </trkpt>
      <trkpt lat="36.713576" lon="-5.242687">
        <ele>418.854</ele>
        <time>2015-06-21T14:38:11Z</time>
      </trkpt>
      <trkpt lat="36.713652" lon="-5.242476">
        <ele>418.856</ele>
        <time>2015-06-21T14:38:17Z</time>
      </trkpt>
      <trkpt lat="36.713742" lon="-5.242272">
        <ele>418.811</ele>
        <time>2015-06-21T14:38:24Z</time>
      </trkpt>
      <trkpt lat="36.713751" lon="-5.242252">
        <ele>419.208</ele>
        <time>2015-06-21T14:38:25Z</time>
      </trkpt>
      <trkpt lat="36.713757" lon="-5.242234">
        <ele>419.616</ele>
        <time>2015-06-21T14:38:26Z</time>
      </trkpt>
      <trkpt lat="36.713763" lon="-5.242214">
        <ele>420.062</ele>
        <time>2015-06-21T14:38:27Z</time>
      </trkpt>
      <trkpt lat="36.713771" lon="-5.242196">
        <ele>420.655</ele>
        <time>2015-06-21T14:38:28Z</time>
      </trkpt>
      <trkpt lat="36.713780" lon="-5.242178">
        <ele>421.065</ele>
        <time>2015-06-21T14:38:29Z</time>
      </trkpt>
      <trkpt lat="36.713824" lon="-5.242080">
        <ele>421.449</ele>
        <time>2015-06-21T14:38:35Z</time>
      </trkpt>
      <trkpt lat="36.713823" lon="-5.242063">
        <ele>422.216</ele>
        <time>2015-06-21T14:38:36Z</time>
      </trkpt>
      <trkpt lat="36.713826" lon="-5.242048">
        <ele>422.695</ele>
        <time>2015-06-21T14:38:37Z</time>
      </trkpt>
      <trkpt lat="36.713832" lon="-5.242037">
        <ele>423.097</ele>
        <time>2015-06-21T14:38:38Z</time>
      </trkpt>
      <trkpt lat="36.713840" lon="-5.242026">
        <ele>423.087</ele>
        <time>2015-06-21T14:38:39Z</time>
      </trkpt>
      <trkpt lat="36.713861" lon="-5.242001">
        <ele>423.042</ele>
        <time>2015-06-21T14:38:41Z</time>
      </trkpt>
      <trkpt lat="36.713887" lon="-5.241903">
        <ele>423.026</ele>
        <time>2015-06-21T14:38:46Z</time>
      </trkpt>
      <trkpt lat="36.713894" lon="-5.241884">
        <ele>423.008</ele>
        <time>2015-06-21T14:38:47Z</time>
      </trkpt>
      <trkpt lat="36.713905" lon="-5.241852">
        <ele>423.439</ele>
        <time>2015-06-21T14:38:49Z</time>
      </trkpt>
      <trkpt lat="36.713911" lon="-5.241842">
        <ele>423.845</ele>
        <time>2015-06-21T14:38:50Z</time>
      </trkpt>
      <trkpt lat="36.713912" lon="-5.241839">
        <ele>424.228</ele>
        <time>2015-06-21T14:38:51Z</time>
      </trkpt>
      <trkpt lat="36.713909" lon="-5.241839">
        <ele>424.638</ele>
        <time>2015-06-21T14:38:52Z</time>
      </trkpt>
      <trkpt lat="36.713909" lon="-5.241839">
        <ele>425.292</ele>
        <time>2015-06-21T14:38:53Z</time>
      </trkpt>
      <trkpt lat="36.713909" lon="-5.241839">
        <ele>425.219</ele>
        <time>2015-06-21T14:39:03Z</time>
      </trkpt>
      <trkpt lat="36.713909" lon="-5.241839">
        <ele>425.268</ele>
        <time>2015-06-21T14:39:09Z</time>
      </trkpt>
      <trkpt lat="36.713909" lon="-5.241839">
        <ele>425.280</ele>
        <time>2015-06-21T14:39:16Z</time>
      </trkpt>
      <trkpt lat="36.713909" lon="-5.241839">
        <ele>425.263</ele>
        <time>2015-06-21T14:39:17Z</time>
      </trkpt>
      <trkpt lat="36.713909" lon="-5.241839">
        <ele>425.244</ele>
        <time>2015-06-21T14:39:21Z</time>
      </trkpt>
      <trkpt lat="36.713909" lon="-5.241839">
        <ele>425.218</ele>
        <time>2015-06-21T14:39:25Z</time>
      </trkpt>
      <trkpt lat="36.713909" lon="-5.241839">
        <ele>425.208</ele>
        <time>2015-06-21T14:39:26Z</time>
      </trkpt>
      <trkpt lat="36.713909" lon="-5.241839">
        <ele>425.247</ele>
        <time>2015-06-21T14:39:28Z</time>
      </trkpt>
      <trkpt lat="36.713913" lon="-5.241843">
        <ele>425.273</ele>
        <time>2015-06-21T14:39:33Z</time>
      </trkpt>
      <trkpt lat="36.713924" lon="-5.241819">
        <ele>425.256</ele>
        <time>2015-06-21T14:39:36Z</time>
      </trkpt>
      <trkpt lat="36.713989" lon="-5.241709">
        <ele>425.276</ele>
        <time>2015-06-21T14:39:41Z</time>
      </trkpt>
      <trkpt lat="36.714047" lon="-5.241628">
        <ele>425.220</ele>
        <time>2015-06-21T14:39:44Z</time>
      </trkpt>
      <trkpt lat="36.714100" lon="-5.241549">
        <ele>425.287</ele>
        <time>2015-06-21T14:39:47Z</time>
      </trkpt>
      <trkpt lat="36.714207" lon="-5.241436">
        <ele>425.236</ele>
        <time>2015-06-21T14:39:52Z</time>
      </trkpt>
      <trkpt lat="36.714317" lon="-5.241275">
        <ele>425.228</ele>
        <time>2015-06-21T14:39:58Z</time>
      </trkpt>
      <trkpt lat="36.714415" lon="-5.241103">
        <ele>425.274</ele>
        <time>2015-06-21T14:40:02Z</time>
      </trkpt>
      <trkpt lat="36.714554" lon="-5.240973">
        <ele>425.256</ele>
        <time>2015-06-21T14:40:05Z</time>
      </trkpt>
      <trkpt lat="36.714607" lon="-5.240953">
        <ele>425.221</ele>
        <time>2015-06-21T14:40:06Z</time>
      </trkpt>
      <trkpt lat="36.714701" lon="-5.240941">
        <ele>424.608</ele>
        <time>2015-06-21T14:40:08Z</time>
      </trkpt>
      <trkpt lat="36.714745" lon="-5.240934">
        <ele>424.238</ele>
        <time>2015-06-21T14:40:09Z</time>
      </trkpt>
      <trkpt lat="36.714787" lon="-5.240928">
        <ele>423.824</ele>
        <time>2015-06-21T14:40:10Z</time>
      </trkpt>
      <trkpt lat="36.714828" lon="-5.240927">
        <ele>423.457</ele>
        <time>2015-06-21T14:40:11Z</time>
      </trkpt>
      <trkpt lat="36.714865" lon="-5.240928">
        <ele>423.067</ele>
        <time>2015-06-21T14:40:12Z</time>
      </trkpt>
      <trkpt lat="36.714958" lon="-5.240934">
        <ele>423.091</ele>
        <time>2015-06-21T14:40:15Z</time>
      </trkpt>
      <trkpt lat="36.715125" lon="-5.240947">
        <ele>423.048</ele>
        <time>2015-06-21T14:40:22Z</time>
      </trkpt>
      <trkpt lat="36.715250" lon="-5.240930">
        <ele>423.017</ele>
        <time>2015-06-21T14:40:27Z</time>
      </trkpt>
      <trkpt lat="36.715374" lon="-5.240931">
        <ele>423.029</ele>
        <time>2015-06-21T14:40:32Z</time>
      </trkpt>
      <trkpt lat="36.715492" lon="-5.241012">
        <ele>423.092</ele>
        <time>2015-06-21T14:40:37Z</time>
      </trkpt>
      <trkpt lat="36.715681" lon="-5.241112">
        <ele>423.073</ele>
        <time>2015-06-21T14:40:44Z</time>
      </trkpt>
      <trkpt lat="36.715896" lon="-5.241003">
        <ele>423.020</ele>
        <time>2015-06-21T14:40:50Z</time>
      </trkpt>
      <trkpt lat="36.716132" lon="-5.240957">
        <ele>423.008</ele>
        <time>2015-06-21T14:40:57Z</time>
      </trkpt>
      <trkpt lat="36.716285" lon="-5.240927">
        <ele>423.080</ele>
        <time>2015-06-21T14:41:03Z</time>
      </trkpt>
      <trkpt lat="36.716465" lon="-5.240958">
        <ele>423.026</ele>
        <time>2015-06-21T14:41:09Z</time>
      </trkpt>
      <trkpt lat="36.716644" lon="-5.241004">
        <ele>423.059</ele>
        <time>2015-06-21T14:41:16Z</time>
      </trkpt>
      <trkpt lat="36.716780" lon="-5.241062">
        <ele>423.029</ele>
        <time>2015-06-21T14:41:22Z</time>
      </trkpt>
      <trkpt lat="36.716943" lon="-5.241099">
        <ele>423.063</ele>
        <time>2015-06-21T14:41:28Z</time>
      </trkpt>
      <trkpt lat="36.717200" lon="-5.241118">
        <ele>423.070</ele>
        <time>2015-06-21T14:41:36Z</time>
      </trkpt>
      <trkpt lat="36.717296" lon="-5.241113">
        <ele>423.079</ele>
        <time>2015-06-21T14:41:40Z</time>
      </trkpt>
      <trkpt lat="36.717316" lon="-5.241099">
        <ele>423.021</ele>
        <time>2015-06-21T14:41:42Z</time>
      </trkpt>
      <trkpt lat="36.717370" lon="-5.241088">
        <ele>423.052</ele>
        <time>2015-06-21T14:41:46Z</time>
      </trkpt>
      <trkpt lat="36.717539" lon="-5.241062">
        <ele>423.053</ele>
        <time>2015-06-21T14:41:52Z</time>
      </trkpt>
      <trkpt lat="36.717727" lon="-5.241017">
        <ele>423.008</ele>
        <time>2015-06-21T14:41:58Z</time>
      </trkpt>
      <trkpt lat="36.717843" lon="-5.241026">
        <ele>423.008</ele>
        <time>2015-06-21T14:42:02Z</time>
      </trkpt>
      <trkpt lat="36.717960" lon="-5.240997">
        <ele>423.026</ele>
        <time>2015-06-21T14:42:06Z</time>
      </trkpt>
      <trkpt lat="36.718132" lon="-5.240937">
        <ele>423.062</ele>
        <time>2015-06-21T14:42:11Z</time>
      </trkpt>
      <trkpt lat="36.718346" lon="-5.240829">
        <ele>423.065</ele>
        <time>2015-06-21T14:42:17Z</time>
      </trkpt>
      <trkpt lat="36.718375" lon="-5.240814">
        <ele>423.045</ele>
        <time>2015-06-21T14:42:18Z</time>
      </trkpt>
      <trkpt lat="36.718520" lon="-5.240758">
        <ele>423.079</ele>
        <time>2015-06-21T14:42:23Z</time>
      </trkpt>
      <trkpt lat="36.718722" lon="-5.240703">
        <ele>423.066</ele>
        <time>2015-06-21T14:42:30Z</time>
      </trkpt>
      <trkpt lat="36.718906" lon="-5.240585">
        <ele>423.055</ele>
        <time>2015-06-21T14:42:38Z</time>
      </trkpt>
      <trkpt lat="36.718969" lon="-5.240536">
        <ele>423.647</ele>
        <time>2015-06-21T14:42:42Z</time>
      </trkpt>
      <trkpt lat="36.718986" lon="-5.240531">
        <ele>424.645</ele>
        <time>2015-06-21T14:42:43Z</time>
      </trkpt>
      <trkpt lat="36.719003" lon="-5.240525">
        <ele>425.247</ele>
        <time>2015-06-21T14:42:44Z</time>
      </trkpt>
      <trkpt lat="36.719019" lon="-5.240520">
        <ele>425.611</ele>
        <time>2015-06-21T14:42:45Z</time>
      </trkpt>
      <trkpt lat="36.719048" lon="-5.240505">
        <ele>425.608</ele>
        <time>2015-06-21T14:42:47Z</time>
      </trkpt>
      <trkpt lat="36.719070" lon="-5.240462">
        <ele>425.675</ele>
        <time>2015-06-21T14:42:50Z</time>
      </trkpt>
      <trkpt lat="36.719072" lon="-5.240444">
        <ele>425.651</ele>
        <time>2015-06-21T14:42:51Z</time>
      </trkpt>
      <trkpt lat="36.719104" lon="-5.240398">
        <ele>425.634</ele>
        <time>2015-06-21T14:42:55Z</time>
      </trkpt>
      <trkpt lat="36.719108" lon="-5.240387">
        <ele>425.614</ele>
        <time>2015-06-21T14:42:56Z</time>
      </trkpt>
      <trkpt lat="36.719127" lon="-5.240362">
        <ele>425.628</ele>
        <time>2015-06-21T14:42:58Z</time>
      </trkpt>
      <trkpt lat="36.719138" lon="-5.240347">
        <ele>425.645</ele>
        <time>2015-06-21T14:42:59Z</time>
      </trkpt>
      <trkpt lat="36.719190" lon="-5.240277">
        <ele>426.224</ele>
        <time>2015-06-21T14:43:04Z</time>
      </trkpt>
      <trkpt lat="36.719198" lon="-5.240268">
        <ele>426.696</ele>
        <time>2015-06-21T14:43:05Z</time>
      </trkpt>
      <trkpt lat="36.719209" lon="-5.240259">
        <ele>427.046</ele>
        <time>2015-06-21T14:43:06Z</time>
      </trkpt>
      <trkpt lat="36.719221" lon="-5.240253">
        <ele>427.888</ele>
        <time>2015-06-21T14:43:07Z</time>
      </trkpt>
      <trkpt lat="36.719274" lon="-5.240248">
        <ele>427.816</ele>
        <time>2015-06-21T14:43:11Z</time>
      </trkpt>
      <trkpt lat="36.719336" lon="-5.240234">
        <ele>428.208</ele>
        <time>2015-06-21T14:43:16Z</time>
      </trkpt>
      <trkpt lat="36.719347" lon="-5.240232">
        <ele>428.665</ele>
        <time>2015-06-21T14:43:17Z</time>
      </trkpt>
      <trkpt lat="36.719358" lon="-5.240231">
        <ele>429.271</ele>
        <time>2015-06-21T14:43:18Z</time>
      </trkpt>
      <trkpt lat="36.719369" lon="-5.240226">
        <ele>429.634</ele>
        <time>2015-06-21T14:43:19Z</time>
      </trkpt>
      <trkpt lat="36.719377" lon="-5.240223">
        <ele>430.014</ele>
        <time>2015-06-21T14:43:20Z</time>
      </trkpt>
      <trkpt lat="36.719396" lon="-5.240212">
        <ele>430.048</ele>
        <time>2015-06-21T14:43:24Z</time>
      </trkpt>
      <trkpt lat="36.719396" lon="-5.240212">
        <ele>430.455</ele>
        <time>2015-06-21T14:43:27Z</time>
      </trkpt>
      <trkpt lat="36.719401" lon="-5.240209">
        <ele>430.834</ele>
        <time>2015-06-21T14:43:28Z</time>
      </trkpt>
      <trkpt lat="36.719404" lon="-5.240206">
        <ele>431.296</ele>
        <time>2015-06-21T14:43:29Z</time>
      </trkpt>
      <trkpt lat="36.719404" lon="-5.240206">
        <ele>431.676</ele>
        <time>2015-06-21T14:43:30Z</time>
      </trkpt>
      <trkpt lat="36.719404" lon="-5.240206">
        <ele>432.090</ele>
        <time>2015-06-21T14:43:31Z</time>
      </trkpt>
      <trkpt lat="36.719404" lon="-5.240206">
        <ele>432.019</ele>
        <time>2015-06-21T14:43:41Z</time>
      </trkpt>
      <trkpt lat="36.719404" lon="-5.240206">
        <ele>432.008</ele>
        <time>2015-06-21T14:43:50Z</time>
      </trkpt>
      <trkpt lat="36.719404" lon="-5.240206">
        <ele>432.048</ele>
        <time>2015-06-21T14:43:51Z</time>
      </trkpt>
      <trkpt lat="36.719404" lon="-5.240206">
        <ele>432.044</ele>
        <time>2015-06-21T14:43:59Z</time>
      </trkpt>
      <trkpt lat="36.719404" lon="-5.240206">
        <ele>432.037</ele>
        <time>2015-06-21T14:44:02Z</time>
      </trkpt>
      <trkpt lat="36.719404" lon="-5.240206">
        <ele>432.097</ele>
        <time>2015-06-21T14:44:05Z</time>
      </trkpt>
      <trkpt lat="36.719404" lon="-5.240206">
        <ele>432.061</ele>
        <time>2015-06-21T14:44:07Z</time>
      </trkpt>
      <trkpt lat="36.719402" lon="-5.240207">
        <ele>432.078</ele>
        <time>2015-06-21T14:44:13Z</time>
      </trkpt>
      <trkpt lat="36.719402" lon="-5.240207">
        <ele>432.097</ele>
        <time>2015-06-21T14:44:14Z</time>
      </trkpt>
      <trkpt lat="36.719402" lon="-5.240207">
        <ele>432.089</ele>
        <time>2015-06-21T14:44:16Z</time>
      </trkpt>
      <trkpt lat="36.719402" lon="-5.240207">
        <ele>432.079</ele>
        <time>2015-06-21T14:44:18Z</time>
      </trkpt>
      <trkpt lat="36.719402" lon="-5.240207">
        <ele>432.005</ele>
        <time>2015-06-21T14:44:20Z</time>
      </trkpt>
      <trkpt lat="36.719402" lon="-5.240207">
        <ele>432.025</ele>
        <time>2015-06-21T14:44:24Z</time>
      </trkpt>
      <trkpt lat="36.719402" lon="-5.240207">
        <ele>432.008</ele>
        <time>2015-06-21T14:44:29Z</time>
      </trkpt>
      <trkpt lat="36.719402" lon="-5.240207">
        <ele>432.048</ele>
        <time>2015-06-21T14:44:39Z</time>
      </trkpt>
      <trkpt lat="36.719402" lon="-5.240207">
        <ele>432.054</ele>
        <time>2015-06-21T14:44:42Z</time>
      </trkpt>
      <trkpt lat="36.719429" lon="-5.240199">
        <ele>432.067</ele>
        <time>2015-06-21T14:44:45Z</time>
      </trkpt>
      <trkpt lat="36.719461" lon="-5.240170">
        <ele>432.037</ele>
        <time>2015-06-21T14:44:51Z</time>
      </trkpt>
      <trkpt lat="36.719462" lon="-5.240168">
        <ele>432.081</ele>
        <time>2015-06-21T14:44:52Z</time>
      </trkpt>
      <trkpt lat="36.719477" lon="-5.240146">
        <ele>432.018</ele>
        <time>2015-06-21T14:44:55Z</time>
      </trkpt>
      <trkpt lat="36.719483" lon="-5.240138">
        <ele>432.477</ele>
        <time>2015-06-21T14:44:57Z</time>
      </trkpt>
      <trkpt lat="36.719488" lon="-5.240134">
        <ele>432.829</ele>
        <time>2015-06-21T14:44:58Z</time>
      </trkpt>
      <trkpt lat="36.719492" lon="-5.240130">
        <ele>433.244</ele>
        <time>2015-06-21T14:44:59Z</time>
      </trkpt>
      <trkpt lat="36.719493" lon="-5.240128">
        <ele>433.605</ele>
        <time>2015-06-21T14:45:00Z</time>
      </trkpt>
      <trkpt lat="36.719493" lon="-5.240128">
        <ele>434.015</ele>
        <time>2015-06-21T14:45:01Z</time>
      </trkpt>
      <trkpt lat="36.719516" lon="-5.240117">
        <ele>434.008</ele>
        <time>2015-06-21T14:45:05Z</time>
      </trkpt>
      <trkpt lat="36.719560" lon="-5.240094">
        <ele>434.075</ele>
        <time>2015-06-21T14:45:11Z</time>
      </trkpt>
      <trkpt lat="36.719565" lon="-5.240091">
        <ele>434.031</ele>
        <time>2015-06-21T14:45:12Z</time>
      </trkpt>
      <trkpt lat="36.719575" lon="-5.240080">
        <ele>434.484</ele>
        <time>2015-06-21T14:45:14Z</time>
      </trkpt>
      <trkpt lat="36.719576" lon="-5.240075">
        <ele>434.834</ele>
        <time>2015-06-21T14:45:15Z</time>
      </trkpt>
      <trkpt lat="36.719583" lon="-5.240067">
        <ele>435.238</ele>
        <time>2015-06-21T14:45:16Z</time>
      </trkpt>
      <trkpt lat="36.719591" lon="-5.240064">
        <ele>435.655</ele>
        <time>2015-06-21T14:45:17Z</time>
      </trkpt>
      <trkpt lat="36.719599" lon="-5.240060">
        <ele>436.034</ele>
        <time>2015-06-21T14:45:18Z</time>
      </trkpt>
      <trkpt lat="36.719606" lon="-5.240058">
        <ele>436.066</ele>
        <time>2015-06-21T14:45:20Z</time>
      </trkpt>
      <trkpt lat="36.719632" lon="-5.240033">
        <ele>436.082</ele>
        <time>2015-06-21T14:45:29Z</time>
      </trkpt>
      <trkpt lat="36.719686" lon="-5.239988">
        <ele>436.043</ele>
        <time>2015-06-21T14:45:34Z</time>
      </trkpt>
      <trkpt lat="36.719710" lon="-5.239963">
        <ele>436.017</ele>
        <time>2015-06-21T14:45:36Z</time>
      </trkpt>
      <trkpt lat="36.719738" lon="-5.239927">
        <ele>436.008</ele>
        <time>2015-06-21T14:45:39Z</time>
      </trkpt>
      <trkpt lat="36.719800" lon="-5.239871">
        <ele>436.019</ele>
        <time>2015-06-21T14:45:43Z</time>
      </trkpt>
      <trkpt lat="36.719913" lon="-5.239805">
        <ele>436.025</ele>
        <time>2015-06-21T14:45:47Z</time>
      </trkpt>
      <trkpt lat="36.719958" lon="-5.239752">
        <ele>436.028</ele>
        <time>2015-06-21T14:45:50Z</time>
      </trkpt>
      <trkpt lat="36.719981" lon="-5.239725">
        <ele>436.038</ele>
        <time>2015-06-21T14:45:52Z</time>
      </trkpt>
      <trkpt lat="36.720089" lon="-5.239634">
        <ele>436.022</ele>
        <time>2015-06-21T14:45:58Z</time>
      </trkpt>
      <trkpt lat="36.720159" lon="-5.239588">
        <ele>436.099</ele>
        <time>2015-06-21T14:46:00Z</time>
      </trkpt>
      <trkpt lat="36.720200" lon="-5.239553">
        <ele>436.028</ele>
        <time>2015-06-21T14:46:01Z</time>
      </trkpt>
      <trkpt lat="36.720302" lon="-5.239489">
        <ele>436.080</ele>
        <time>2015-06-21T14:46:05Z</time>
      </trkpt>
      <trkpt lat="36.720350" lon="-5.239467">
        <ele>436.442</ele>
        <time>2015-06-21T14:46:08Z</time>
      </trkpt>
      <trkpt lat="36.720367" lon="-5.239458">
        <ele>436.822</ele>
        <time>2015-06-21T14:46:09Z</time>
      </trkpt>
      <trkpt lat="36.720380" lon="-5.239452">
        <ele>437.214</ele>
        <time>2015-06-21T14:46:10Z</time>
      </trkpt>
      <trkpt lat="36.720393" lon="-5.239443">
        <ele>437.608</ele>
        <time>2015-06-21T14:46:11Z</time>
      </trkpt>
      <trkpt lat="36.720407" lon="-5.239437">
        <ele>438.045</ele>
        <time>2015-06-21T14:46:12Z</time>
      </trkpt>
      <trkpt lat="36.720482" lon="-5.239384">
        <ele>438.091</ele>
        <time>2015-06-21T14:46:17Z</time>
      </trkpt>
      <trkpt lat="36.720542" lon="-5.239340">
        <ele>438.434</ele>
        <time>2015-06-21T14:46:21Z</time>
      </trkpt>
      <trkpt lat="36.720558" lon="-5.239329">
        <ele>439.024</ele>
        <time>2015-06-21T14:46:22Z</time>
      </trkpt>
      <trkpt lat="36.720579" lon="-5.239310">
        <ele>439.428</ele>
        <time>2015-06-21T14:46:23Z</time>
      </trkpt>
      <trkpt lat="36.720604" lon="-5.239285">
        <ele>439.865</ele>
        <time>2015-06-21T14:46:24Z</time>
      </trkpt>
      <trkpt lat="36.720632" lon="-5.239257">
        <ele>440.264</ele>
        <time>2015-06-21T14:46:25Z</time>
      </trkpt>
      <trkpt lat="36.720709" lon="-5.239180">
        <ele>440.226</ele>
        <time>2015-06-21T14:46:27Z</time>
      </trkpt>
      <trkpt lat="36.720823" lon="-5.239095">
        <ele>440.237</ele>
        <time>2015-06-21T14:46:29Z</time>
      </trkpt>
      <trkpt lat="36.720889" lon="-5.239055">
        <ele>440.249</ele>
        <time>2015-06-21T14:46:30Z</time>
      </trkpt>
      <trkpt lat="36.720954" lon="-5.239017">
        <ele>439.813</ele>
        <time>2015-06-21T14:46:31Z</time>
      </trkpt>
      <trkpt lat="36.721017" lon="-5.238980">
        <ele>439.208</ele>
        <time>2015-06-21T14:46:32Z</time>
      </trkpt>
      <trkpt lat="36.721072" lon="-5.238944">
        <ele>438.814</ele>
        <time>2015-06-21T14:46:33Z</time>
      </trkpt>
      <trkpt lat="36.721126" lon="-5.238907">
        <ele>438.470</ele>
        <time>2015-06-21T14:46:34Z</time>
      </trkpt>
      <trkpt lat="36.721172" lon="-5.238872">
        <ele>438.053</ele>
        <time>2015-06-21T14:46:35Z</time>
      </trkpt>
      <trkpt lat="36.721219" lon="-5.238841">
        <ele>438.043</ele>
        <time>2015-06-21T14:46:36Z</time>
      </trkpt>
      <trkpt lat="36.721270" lon="-5.238812">
        <ele>437.627</ele>
        <time>2015-06-21T14:46:37Z</time>
      </trkpt>
      <trkpt lat="36.721323" lon="-5.238792">
        <ele>437.244</ele>
        <time>2015-06-21T14:46:38Z</time>
      </trkpt>
      <trkpt lat="36.721376" lon="-5.238774">
        <ele>436.623</ele>
        <time>2015-06-21T14:46:39Z</time>
      </trkpt>
      <trkpt lat="36.721425" lon="-5.238749">
        <ele>436.275</ele>
        <time>2015-06-21T14:46:40Z</time>
      </trkpt>
      <trkpt lat="36.721465" lon="-5.238719">
        <ele>435.896</ele>
        <time>2015-06-21T14:46:41Z</time>
      </trkpt>
      <trkpt lat="36.721592" lon="-5.238671">
        <ele>435.831</ele>
        <time>2015-06-21T14:46:44Z</time>
      </trkpt>
      <trkpt lat="36.721724" lon="-5.238663">
        <ele>435.824</ele>
        <time>2015-06-21T14:46:47Z</time>
      </trkpt>
      <trkpt lat="36.721767" lon="-5.238642">
        <ele>435.408</ele>
        <time>2015-06-21T14:46:48Z</time>
      </trkpt>
      <trkpt lat="36.721810" lon="-5.238629">
        <ele>434.630</ele>
        <time>2015-06-21T14:46:49Z</time>
      </trkpt>
      <trkpt lat="36.721853" lon="-5.238632">
        <ele>434.226</ele>
        <time>2015-06-21T14:46:50Z</time>
      </trkpt>
      <trkpt lat="36.721895" lon="-5.238634">
        <ele>433.869</ele>
        <time>2015-06-21T14:46:51Z</time>
      </trkpt>
      <trkpt lat="36.721939" lon="-5.238632">
        <ele>433.869</ele>
        <time>2015-06-21T14:46:52Z</time>
      </trkpt>
      <trkpt lat="36.722027" lon="-5.238619">
        <ele>433.843</ele>
        <time>2015-06-21T14:46:54Z</time>
      </trkpt>
      <trkpt lat="36.722138" lon="-5.238580">
        <ele>433.850</ele>
        <time>2015-06-21T14:46:57Z</time>
      </trkpt>
      <trkpt lat="36.722165" lon="-5.238566">
        <ele>433.459</ele>
        <time>2015-06-21T14:46:58Z</time>
      </trkpt>
      <trkpt lat="36.722187" lon="-5.238556">
        <ele>433.021</ele>
        <time>2015-06-21T14:46:59Z</time>
      </trkpt>
      <trkpt lat="36.722205" lon="-5.238548">
        <ele>432.655</ele>
        <time>2015-06-21T14:47:00Z</time>
      </trkpt>
      <trkpt lat="36.722216" lon="-5.238539">
        <ele>432.207</ele>
        <time>2015-06-21T14:47:01Z</time>
      </trkpt>
      <trkpt lat="36.722233" lon="-5.238532">
        <ele>431.817</ele>
        <time>2015-06-21T14:47:02Z</time>
      </trkpt>
      <trkpt lat="36.722305" lon="-5.238514">
        <ele>431.808</ele>
        <time>2015-06-21T14:47:06Z</time>
      </trkpt>
      <trkpt lat="36.722354" lon="-5.238507">
        <ele>431.856</ele>
        <time>2015-06-21T14:47:09Z</time>
      </trkpt>
      <trkpt lat="36.722445" lon="-5.238480">
        <ele>431.822</ele>
        <time>2015-06-21T14:47:13Z</time>
      </trkpt>
      <trkpt lat="36.722506" lon="-5.238432">
        <ele>431.865</ele>
        <time>2015-06-21T14:47:16Z</time>
      </trkpt>
      <trkpt lat="36.722656" lon="-5.238367">
        <ele>431.875</ele>
        <time>2015-06-21T14:47:22Z</time>
      </trkpt>
      <trkpt lat="36.722801" lon="-5.238308">
        <ele>431.859</ele>
        <time>2015-06-21T14:47:28Z</time>
      </trkpt>
      <trkpt lat="36.722939" lon="-5.238253">
        <ele>431.866</ele>
        <time>2015-06-21T14:47:35Z</time>
      </trkpt>
      <trkpt lat="36.723064" lon="-5.238127">
        <ele>431.885</ele>
        <time>2015-06-21T14:47:41Z</time>
      </trkpt>
      <trkpt lat="36.723130" lon="-5.238102">
        <ele>431.827</ele>
        <time>2015-06-21T14:47:44Z</time>
      </trkpt>
      <trkpt lat="36.723172" lon="-5.238079">
        <ele>431.842</ele>
        <time>2015-06-21T14:47:46Z</time>
      </trkpt>
      <trkpt lat="36.723294" lon="-5.238025">
        <ele>431.822</ele>
        <time>2015-06-21T14:47:50Z</time>
      </trkpt>
      <trkpt lat="36.723395" lon="-5.238032">
        <ele>431.814</ele>
        <time>2015-06-21T14:47:55Z</time>
      </trkpt>
      <trkpt lat="36.723550" lon="-5.238055">
        <ele>431.808</ele>
        <time>2015-06-21T14:48:01Z</time>
      </trkpt>
      <trkpt lat="36.723670" lon="-5.238046">
        <ele>431.885</ele>
        <time>2015-06-21T14:48:06Z</time>
      </trkpt>
      <trkpt lat="36.723720" lon="-5.238037">
        <ele>431.821</ele>
        <time>2015-06-21T14:48:08Z</time>
      </trkpt>
      <trkpt lat="36.723913" lon="-5.238028">
        <ele>431.814</ele>
        <time>2015-06-21T14:48:15Z</time>
      </trkpt>
      <trkpt lat="36.724085" lon="-5.238052">
        <ele>431.844</ele>
        <time>2015-06-21T14:48:23Z</time>
      </trkpt>
      <trkpt lat="36.724179" lon="-5.238056">
        <ele>431.858</ele>
        <time>2015-06-21T14:48:28Z</time>
      </trkpt>
      <trkpt lat="36.724374" lon="-5.238069">
        <ele>431.835</ele>
        <time>2015-06-21T14:48:35Z</time>
      </trkpt>
      <trkpt lat="36.724465" lon="-5.238074">
        <ele>432.274</ele>
        <time>2015-06-21T14:48:39Z</time>
      </trkpt>
      <trkpt lat="36.724488" lon="-5.238071">
        <ele>432.826</ele>
        <time>2015-06-21T14:48:40Z</time>
      </trkpt>
      <trkpt lat="36.724513" lon="-5.238071">
        <ele>433.293</ele>
        <time>2015-06-21T14:48:41Z</time>
      </trkpt>
      <trkpt lat="36.724541" lon="-5.238068">
        <ele>433.665</ele>
        <time>2015-06-21T14:48:42Z</time>
      </trkpt>
      <trkpt lat="36.724566" lon="-5.238061">
        <ele>434.021</ele>
        <time>2015-06-21T14:48:43Z</time>
      </trkpt>
      <trkpt lat="36.724594" lon="-5.238062">
        <ele>434.008</ele>
        <time>2015-06-21T14:48:44Z</time>
      </trkpt>
      <trkpt lat="36.724693" lon="-5.238042">
        <ele>434.080</ele>
        <time>2015-06-21T14:48:49Z</time>
      </trkpt>
      <trkpt lat="36.724703" lon="-5.238033">
        <ele>434.026</ele>
        <time>2015-06-21T14:48:50Z</time>
      </trkpt>
      <trkpt lat="36.724714" lon="-5.238033">
        <ele>434.049</ele>
        <time>2015-06-21T14:48:51Z</time>
      </trkpt>
      <trkpt lat="36.724755" lon="-5.238004">
        <ele>434.049</ele>
        <time>2015-06-21T14:48:55Z</time>
      </trkpt>
      <trkpt lat="36.724781" lon="-5.237944">
        <ele>434.613</ele>
        <time>2015-06-21T14:48:57Z</time>
      </trkpt>
      <trkpt lat="36.724798" lon="-5.237888">
        <ele>435.020</ele>
        <time>2015-06-21T14:48:58Z</time>
      </trkpt>
      <trkpt lat="36.724809" lon="-5.237820">
        <ele>435.479</ele>
        <time>2015-06-21T14:48:59Z</time>
      </trkpt>
      <trkpt lat="36.724809" lon="-5.237743">
        <ele>436.061</ele>
        <time>2015-06-21T14:49:00Z</time>
      </trkpt>
      <trkpt lat="36.724819" lon="-5.237668">
        <ele>436.425</ele>
        <time>2015-06-21T14:49:01Z</time>
      </trkpt>
      <trkpt lat="36.724847" lon="-5.237533">
        <ele>436.426</ele>
        <time>2015-06-21T14:49:03Z</time>
      </trkpt>
      <trkpt lat="36.724874" lon="-5.237432">
        <ele>436.408</ele>
        <time>2015-06-21T14:49:05Z</time>
      </trkpt>
      <trkpt lat="36.724963" lon="-5.237309">
        <ele>436.408</ele>
        <time>2015-06-21T14:49:09Z</time>
      </trkpt>
      <trkpt lat="36.725037" lon="-5.237214">
        <ele>436.483</ele>
        <time>2015-06-21T14:49:12Z</time>
      </trkpt>
      <trkpt lat="36.725067" lon="-5.237193">
        <ele>436.059</ele>
        <time>2015-06-21T14:49:13Z</time>
      </trkpt>
      <trkpt lat="36.725100" lon="-5.237178">
        <ele>435.642</ele>
        <time>2015-06-21T14:49:14Z</time>
      </trkpt>
      <trkpt lat="36.725133" lon="-5.237159">
        <ele>435.272</ele>
        <time>2015-06-21T14:49:15Z</time>
      </trkpt>
      <trkpt lat="36.725164" lon="-5.237143">
        <ele>434.836</ele>
        <time>2015-06-21T14:49:16Z</time>
      </trkpt>
      <trkpt lat="36.725194" lon="-5.237131">
        <ele>434.293</ele>
        <time>2015-06-21T14:49:17Z</time>
      </trkpt>
      <trkpt lat="36.725267" lon="-5.237096">
        <ele>434.242</ele>
        <time>2015-06-21T14:49:20Z</time>
      </trkpt>
      <trkpt lat="36.725373" lon="-5.237054">
        <ele>434.214</ele>
        <time>2015-06-21T14:49:26Z</time>
      </trkpt>
      <trkpt lat="36.725468" lon="-5.237032">
        <ele>434.291</ele>
        <time>2015-06-21T14:49:31Z</time>
      </trkpt>
      <trkpt lat="36.725602" lon="-5.237000">
        <ele>434.281</ele>
        <time>2015-06-21T14:49:37Z</time>
      </trkpt>
      <trkpt lat="36.725701" lon="-5.236952">
        <ele>434.219</ele>
        <time>2015-06-21T14:49:43Z</time>
      </trkpt>
      <trkpt lat="36.725764" lon="-5.236915">
        <ele>434.208</ele>
        <time>2015-06-21T14:49:47Z</time>
      </trkpt>
      <trkpt lat="36.725799" lon="-5.236888">
        <ele>434.260</ele>
        <time>2015-06-21T14:49:49Z</time>
      </trkpt>
      <trkpt lat="36.725925" lon="-5.236818">
        <ele>434.256</ele>
        <time>2015-06-21T14:49:56Z</time>
      </trkpt>
      <trkpt lat="36.726074" lon="-5.236709">
        <ele>434.249</ele>
        <time>2015-06-21T14:50:01Z</time>
      </trkpt>
      <trkpt lat="36.726275" lon="-5.236664">
        <ele>434.229</ele>
        <time>2015-06-21T14:50:07Z</time>
      </trkpt>
      <trkpt lat="36.726374" lon="-5.236664">
        <ele>434.213</ele>
        <time>2015-06-21T14:50:12Z</time>
      </trkpt>
      <trkpt lat="36.726458" lon="-5.236680">
        <ele>434.280</ele>
        <time>2015-06-21T14:50:16Z</time>
      </trkpt>
      <trkpt lat="36.726553" lon="-5.236707">
        <ele>434.239</ele>
        <time>2015-06-21T14:50:21Z</time>
      </trkpt>
      <trkpt lat="36.726638" lon="-5.236750">
        <ele>434.221</ele>
        <time>2015-06-21T14:50:28Z</time>
      </trkpt>
      <trkpt lat="36.726758" lon="-5.236842">
        <ele>436.286</ele>
        <time>2015-06-21T14:59:11Z</time>
      </trkpt>
      <trkpt lat="36.726780" lon="-5.236838">
        <ele>436.260</ele>
        <time>2015-06-21T14:59:54Z</time>
      </trkpt>
      <trkpt lat="36.726886" lon="-5.236825">
        <ele>436.226</ele>
        <time>2015-06-21T15:00:00Z</time>
      </trkpt>
      <trkpt lat="36.726952" lon="-5.236777">
        <ele>436.208</ele>
        <time>2015-06-21T15:00:06Z</time>
      </trkpt>
      <trkpt lat="36.727059" lon="-5.236713">
        <ele>436.229</ele>
        <time>2015-06-21T15:00:12Z</time>
      </trkpt>
      <trkpt lat="36.727177" lon="-5.236622">
        <ele>436.225</ele>
        <time>2015-06-21T15:00:18Z</time>
      </trkpt>
      <trkpt lat="36.727273" lon="-5.236536">
        <ele>436.228</ele>
        <time>2015-06-21T15:00:24Z</time>
      </trkpt>
      <trkpt lat="36.727288" lon="-5.236527">
        <ele>436.298</ele>
        <time>2015-06-21T15:00:25Z</time>
      </trkpt>
      <trkpt lat="36.727330" lon="-5.236484">
        <ele>436.612</ele>
        <time>2015-06-21T15:00:28Z</time>
      </trkpt>
      <trkpt lat="36.727353" lon="-5.236466">
        <ele>437.039</ele>
        <time>2015-06-21T15:00:29Z</time>
      </trkpt>
      <trkpt lat="36.727380" lon="-5.236448">
        <ele>437.428</ele>
        <time>2015-06-21T15:00:30Z</time>
      </trkpt>
      <trkpt lat="36.727412" lon="-5.236419">
        <ele>438.040</ele>
        <time>2015-06-21T15:00:31Z</time>
      </trkpt>
      <trkpt lat="36.727444" lon="-5.236391">
        <ele>438.433</ele>
        <time>2015-06-21T15:00:32Z</time>
      </trkpt>
      <trkpt lat="36.727481" lon="-5.236350">
        <ele>438.423</ele>
        <time>2015-06-21T15:00:33Z</time>
      </trkpt>
      <trkpt lat="36.727509" lon="-5.236303">
        <ele>438.415</ele>
        <time>2015-06-21T15:00:34Z</time>
      </trkpt>
      <trkpt lat="36.727575" lon="-5.236139">
        <ele>438.408</ele>
        <time>2015-06-21T15:00:37Z</time>
      </trkpt>
      <trkpt lat="36.727610" lon="-5.236103">
        <ele>438.464</ele>
        <time>2015-06-21T15:00:38Z</time>
      </trkpt>
      <trkpt lat="36.727673" lon="-5.236048">
        <ele>438.090</ele>
        <time>2015-06-21T15:00:41Z</time>
      </trkpt>
      <trkpt lat="36.727680" lon="-5.236027">
        <ele>437.433</ele>
        <time>2015-06-21T15:00:42Z</time>
      </trkpt>
      <trkpt lat="36.727694" lon="-5.236003">
        <ele>437.053</ele>
        <time>2015-06-21T15:00:43Z</time>
      </trkpt>
      <trkpt lat="36.727715" lon="-5.235982">
        <ele>436.627</ele>
        <time>2015-06-21T15:00:44Z</time>
      </trkpt>
      <trkpt lat="36.727734" lon="-5.235956">
        <ele>436.074</ele>
        <time>2015-06-21T15:00:45Z</time>
      </trkpt>
      <trkpt lat="36.727759" lon="-5.235935">
        <ele>436.013</ele>
        <time>2015-06-21T15:00:46Z</time>
      </trkpt>
      <trkpt lat="36.727809" lon="-5.235899">
        <ele>436.065</ele>
        <time>2015-06-21T15:00:50Z</time>
      </trkpt>
      <trkpt lat="36.727915" lon="-5.235819">
        <ele>436.051</ele>
        <time>2015-06-21T15:00:55Z</time>
      </trkpt>
      <trkpt lat="36.728043" lon="-5.235737">
        <ele>436.001</ele>
        <time>2015-06-21T15:01:00Z</time>
      </trkpt>
      <trkpt lat="36.728174" lon="-5.235610">
        <ele>436.011</ele>
        <time>2015-06-21T15:01:07Z</time>
      </trkpt>
      <trkpt lat="36.728294" lon="-5.235517">
        <ele>436.008</ele>
        <time>2015-06-21T15:01:12Z</time>
      </trkpt>
      <trkpt lat="36.728414" lon="-5.235439">
        <ele>436.066</ele>
        <time>2015-06-21T15:01:17Z</time>
      </trkpt>
      <trkpt lat="36.728501" lon="-5.235362">
        <ele>436.092</ele>
        <time>2015-06-21T15:01:22Z</time>
      </trkpt>
      <trkpt lat="36.728532" lon="-5.235297">
        <ele>436.055</ele>
        <time>2015-06-21T15:01:26Z</time>
      </trkpt>
      <trkpt lat="36.728597" lon="-5.235284">
        <ele>436.035</ele>
        <time>2015-06-21T15:01:31Z</time>
      </trkpt>
      <trkpt lat="36.728642" lon="-5.235269">
        <ele>436.059</ele>
        <time>2015-06-21T15:01:33Z</time>
      </trkpt>
      <trkpt lat="36.728664" lon="-5.235258">
        <ele>436.066</ele>
        <time>2015-06-21T15:01:35Z</time>
      </trkpt>
      <trkpt lat="36.728687" lon="-5.235250">
        <ele>436.065</ele>
        <time>2015-06-21T15:01:37Z</time>
      </trkpt>
      <trkpt lat="36.728691" lon="-5.235243">
        <ele>436.097</ele>
        <time>2015-06-21T15:01:40Z</time>
      </trkpt>
      <trkpt lat="36.728701" lon="-5.235241">
        <ele>436.073</ele>
        <time>2015-06-21T15:01:45Z</time>
      </trkpt>
      <trkpt lat="36.728705" lon="-5.235239">
        <ele>436.685</ele>
        <time>2015-06-21T15:01:46Z</time>
      </trkpt>
      <trkpt lat="36.728710" lon="-5.235241">
        <ele>437.013</ele>
        <time>2015-06-21T15:01:47Z</time>
      </trkpt>
      <trkpt lat="36.728723" lon="-5.235233">
        <ele>437.408</ele>
        <time>2015-06-21T15:01:48Z</time>
      </trkpt>
      <trkpt lat="36.728732" lon="-5.235220">
        <ele>437.878</ele>
        <time>2015-06-21T15:01:49Z</time>
      </trkpt>
      <trkpt lat="36.728746" lon="-5.235209">
        <ele>438.264</ele>
        <time>2015-06-21T15:01:50Z</time>
      </trkpt>
      <trkpt lat="36.728752" lon="-5.235207">
        <ele>438.247</ele>
        <time>2015-06-21T15:01:51Z</time>
      </trkpt>
      <trkpt lat="36.728830" lon="-5.235142">
        <ele>438.257</ele>
        <time>2015-06-21T15:01:54Z</time>
      </trkpt>
      <trkpt lat="36.728847" lon="-5.235125">
        <ele>438.231</ele>
        <time>2015-06-21T15:01:57Z</time>
      </trkpt>
      <trkpt lat="36.728885" lon="-5.235082">
        <ele>438.238</ele>
        <time>2015-06-21T15:02:00Z</time>
      </trkpt>
      <trkpt lat="36.728945" lon="-5.235002">
        <ele>438.277</ele>
        <time>2015-06-21T15:02:05Z</time>
      </trkpt>
      <trkpt lat="36.729011" lon="-5.234935">
        <ele>437.899</ele>
        <time>2015-06-21T15:02:08Z</time>
      </trkpt>
      <trkpt lat="36.729035" lon="-5.234931">
        <ele>437.469</ele>
        <time>2015-06-21T15:02:09Z</time>
      </trkpt>
      <trkpt lat="36.729056" lon="-5.234925">
        <ele>437.004</ele>
        <time>2015-06-21T15:02:10Z</time>
      </trkpt>
      <trkpt lat="36.729077" lon="-5.234917">
        <ele>436.624</ele>
        <time>2015-06-21T15:02:11Z</time>
      </trkpt>
      <trkpt lat="36.729097" lon="-5.234902">
        <ele>436.208</ele>
        <time>2015-06-21T15:02:12Z</time>
      </trkpt>
      <trkpt lat="36.729187" lon="-5.234869">
        <ele>436.217</ele>
        <time>2015-06-21T15:02:16Z</time>
      </trkpt>
      <trkpt lat="36.729299" lon="-5.234828">
        <ele>436.263</ele>
        <time>2015-06-21T15:02:21Z</time>
      </trkpt>
      <trkpt lat="36.729344" lon="-5.234815">
        <ele>436.226</ele>
        <time>2015-06-21T15:02:23Z</time>
      </trkpt>
      <trkpt lat="36.729482" lon="-5.234762">
        <ele>436.236</ele>
        <time>2015-06-21T15:02:29Z</time>
      </trkpt>
      <trkpt lat="36.729643" lon="-5.234731">
        <ele>436.230</ele>
        <time>2015-06-21T15:02:36Z</time>
      </trkpt>
      <trkpt lat="36.729743" lon="-5.234710">
        <ele>436.237</ele>
        <time>2015-06-21T15:02:42Z</time>
      </trkpt>
      <trkpt lat="36.729762" lon="-5.234708">
        <ele>436.226</ele>
        <time>2015-06-21T15:02:48Z</time>
      </trkpt>
      <trkpt lat="36.729797" lon="-5.234676">
        <ele>436.258</ele>
        <time>2015-06-21T15:02:50Z</time>
      </trkpt>
      <trkpt lat="36.729834" lon="-5.234669">
        <ele>436.282</ele>
        <time>2015-06-21T15:02:52Z</time>
      </trkpt>
      <trkpt lat="36.729926" lon="-5.234630">
        <ele>436.243</ele>
        <time>2015-06-21T15:02:57Z</time>
      </trkpt>
      <trkpt lat="36.729965" lon="-5.234611">
        <ele>436.217</ele>
        <time>2015-06-21T15:02:59Z</time>
      </trkpt>
      <trkpt lat="36.730046" lon="-5.234570">
        <ele>436.208</ele>
        <time>2015-06-21T15:03:03Z</time>
      </trkpt>
      <trkpt lat="36.730071" lon="-5.234547">
        <ele>436.249</ele>
        <time>2015-06-21T15:03:04Z</time>
      </trkpt>
      <trkpt lat="36.730173" lon="-5.234483">
        <ele>436.245</ele>
        <time>2015-06-21T15:03:09Z</time>
      </trkpt>
      <trkpt lat="36.730268" lon="-5.234438">
        <ele>436.288</ele>
        <time>2015-06-21T15:03:15Z</time>
      </trkpt>
      <trkpt lat="36.730319" lon="-5.234417">
        <ele>436.278</ele>
        <time>2015-06-21T15:03:19Z</time>
      </trkpt>
      <trkpt lat="36.730344" lon="-5.234401">
        <ele>436.232</ele>
        <time>2015-06-21T15:03:21Z</time>
      </trkpt>
      <trkpt lat="36.730417" lon="-5.234346">
        <ele>436.279</ele>
        <time>2015-06-21T15:03:27Z</time>
      </trkpt>
      <trkpt lat="36.730433" lon="-5.234327">
        <ele>436.648</ele>
        <time>2015-06-21T15:03:30Z</time>
      </trkpt>
      <trkpt lat="36.730433" lon="-5.234321">
        <ele>437.240</ele>
        <time>2015-06-21T15:03:31Z</time>
      </trkpt>
      <trkpt lat="36.730433" lon="-5.234312">
        <ele>437.615</ele>
        <time>2015-06-21T15:03:32Z</time>
      </trkpt>
      <trkpt lat="36.730434" lon="-5.234300">
        <ele>438.065</ele>
        <time>2015-06-21T15:03:33Z</time>
      </trkpt>
      <trkpt lat="36.730439" lon="-5.234289">
        <ele>438.411</ele>
        <time>2015-06-21T15:03:34Z</time>
      </trkpt>
      <trkpt lat="36.730463" lon="-5.234273">
        <ele>438.408</ele>
        <time>2015-06-21T15:03:37Z</time>
      </trkpt>
      <trkpt lat="36.730484" lon="-5.234261">
        <ele>438.442</ele>
        <time>2015-06-21T15:03:39Z</time>
      </trkpt>
      <trkpt lat="36.730554" lon="-5.234257">
        <ele>438.418</ele>
        <time>2015-06-21T15:03:44Z</time>
      </trkpt>
      <trkpt lat="36.730683" lon="-5.234230">
        <ele>438.431</ele>
        <time>2015-06-21T15:03:51Z</time>
      </trkpt>
      <trkpt lat="36.730784" lon="-5.234211">
        <ele>438.411</ele>
        <time>2015-06-21T15:03:58Z</time>
      </trkpt>
      <trkpt lat="36.730854" lon="-5.234174">
        <ele>438.435</ele>
        <time>2015-06-21T15:04:03Z</time>
      </trkpt>
      <trkpt lat="36.730881" lon="-5.234159">
        <ele>438.412</ele>
        <time>2015-06-21T15:04:05Z</time>
      </trkpt>
      <trkpt lat="36.730955" lon="-5.234126">
        <ele>438.461</ele>
        <time>2015-06-21T15:04:10Z</time>
      </trkpt>
      <trkpt lat="36.730983" lon="-5.234113">
        <ele>438.433</ele>
        <time>2015-06-21T15:04:12Z</time>
      </trkpt>
      <trkpt lat="36.731045" lon="-5.234082">
        <ele>438.466</ele>
        <time>2015-06-21T15:04:16Z</time>
      </trkpt>
      <trkpt lat="36.731102" lon="-5.234037">
        <ele>438.829</ele>
        <time>2015-06-21T15:04:20Z</time>
      </trkpt>
      <trkpt lat="36.731113" lon="-5.234022">
        <ele>439.221</ele>
        <time>2015-06-21T15:04:21Z</time>
      </trkpt>
      <trkpt lat="36.731129" lon="-5.234010">
        <ele>439.808</ele>
        <time>2015-06-21T15:04:22Z</time>
      </trkpt>
      <trkpt lat="36.731142" lon="-5.234002">
        <ele>440.217</ele>
        <time>2015-06-21T15:04:23Z</time>
      </trkpt>
      <trkpt lat="36.731154" lon="-5.233993">
        <ele>440.643</ele>
        <time>2015-06-21T15:04:24Z</time>
      </trkpt>
      <trkpt lat="36.731196" lon="-5.233956">
        <ele>440.696</ele>
        <time>2015-06-21T15:04:29Z</time>
      </trkpt>
      <trkpt lat="36.731250" lon="-5.233900">
        <ele>441.066</ele>
        <time>2015-06-21T15:04:34Z</time>
      </trkpt>
      <trkpt lat="36.731266" lon="-5.233892">
        <ele>441.450</ele>
        <time>2015-06-21T15:04:35Z</time>
      </trkpt>
      <trkpt lat="36.731288" lon="-5.233879">
        <ele>442.237</ele>
        <time>2015-06-21T15:04:36Z</time>
      </trkpt>
      <trkpt lat="36.731303" lon="-5.233860">
        <ele>442.656</ele>
        <time>2015-06-21T15:04:37Z</time>
      </trkpt>
      <trkpt lat="36.731326" lon="-5.233846">
        <ele>442.628</ele>
        <time>2015-06-21T15:04:39Z</time>
      </trkpt>
      <trkpt lat="36.731418" lon="-5.233761">
        <ele>442.621</ele>
        <time>2015-06-21T15:04:46Z</time>
      </trkpt>
      <trkpt lat="36.731495" lon="-5.233682">
        <ele>442.641</ele>
        <time>2015-06-21T15:04:53Z</time>
      </trkpt>
      <trkpt lat="36.731561" lon="-5.233585">
        <ele>442.605</ele>
        <time>2015-06-21T15:05:00Z</time>
      </trkpt>
      <trkpt lat="36.731563" lon="-5.233574">
        <ele>443.008</ele>
        <time>2015-06-21T15:05:01Z</time>
      </trkpt>
      <trkpt lat="36.731567" lon="-5.233562">
        <ele>443.443</ele>
        <time>2015-06-21T15:05:02Z</time>
      </trkpt>
      <trkpt lat="36.731576" lon="-5.233552">
        <ele>443.889</ele>
        <time>2015-06-21T15:05:03Z</time>
      </trkpt>
      <trkpt lat="36.731581" lon="-5.233539">
        <ele>444.212</ele>
        <time>2015-06-21T15:05:04Z</time>
      </trkpt>
      <trkpt lat="36.731583" lon="-5.233527">
        <ele>444.612</ele>
        <time>2015-06-21T15:05:05Z</time>
      </trkpt>
      <trkpt lat="36.731580" lon="-5.233512">
        <ele>444.636</ele>
        <time>2015-06-21T15:05:06Z</time>
      </trkpt>
      <trkpt lat="36.731581" lon="-5.233486">
        <ele>444.673</ele>
        <time>2015-06-21T15:05:08Z</time>
      </trkpt>
      <trkpt lat="36.731594" lon="-5.233457">
        <ele>445.262</ele>
        <time>2015-06-21T15:05:11Z</time>
      </trkpt>
      <trkpt lat="36.731598" lon="-5.233448">
        <ele>445.624</ele>
        <time>2015-06-21T15:05:12Z</time>
      </trkpt>
      <trkpt lat="36.731598" lon="-5.233434">
        <ele>446.299</ele>
        <time>2015-06-21T15:05:13Z</time>
      </trkpt>
      <trkpt lat="36.731607" lon="-5.233421">
        <ele>446.607</ele>
        <time>2015-06-21T15:05:14Z</time>
      </trkpt>
      <trkpt lat="36.731608" lon="-5.233417">
        <ele>447.027</ele>
        <time>2015-06-21T15:05:15Z</time>
      </trkpt>
      <trkpt lat="36.731628" lon="-5.233396">
        <ele>447.008</ele>
        <time>2015-06-21T15:05:17Z</time>
      </trkpt>
      <trkpt lat="36.731691" lon="-5.233325">
        <ele>447.060</ele>
        <time>2015-06-21T15:05:23Z</time>
      </trkpt>
      <trkpt lat="36.731742" lon="-5.233293">
        <ele>447.016</ele>
        <time>2015-06-21T15:05:29Z</time>
      </trkpt>
      <trkpt lat="36.731824" lon="-5.233270">
        <ele>447.079</ele>
        <time>2015-06-21T15:05:35Z</time>
      </trkpt>
      <trkpt lat="36.731868" lon="-5.233236">
        <ele>447.059</ele>
        <time>2015-06-21T15:05:39Z</time>
      </trkpt>
      <trkpt lat="36.731896" lon="-5.233233">
        <ele>447.023</ele>
        <time>2015-06-21T15:05:41Z</time>
      </trkpt>
      <trkpt lat="36.731935" lon="-5.233228">
        <ele>447.490</ele>
        <time>2015-06-21T15:05:44Z</time>
      </trkpt>
      <trkpt lat="36.731945" lon="-5.233217">
        <ele>447.889</ele>
        <time>2015-06-21T15:05:45Z</time>
      </trkpt>
      <trkpt lat="36.731953" lon="-5.233214">
        <ele>448.221</ele>
        <time>2015-06-21T15:05:46Z</time>
      </trkpt>
      <trkpt lat="36.731968" lon="-5.233210">
        <ele>448.629</ele>
        <time>2015-06-21T15:05:47Z</time>
      </trkpt>
      <trkpt lat="36.731982" lon="-5.233208">
        <ele>449.000</ele>
        <time>2015-06-21T15:05:48Z</time>
      </trkpt>
      <trkpt lat="36.732030" lon="-5.233163">
        <ele>449.020</ele>
        <time>2015-06-21T15:05:52Z</time>
      </trkpt>
      <trkpt lat="36.732042" lon="-5.233160">
        <ele>449.008</ele>
        <time>2015-06-21T15:05:53Z</time>
      </trkpt>
      <trkpt lat="36.732087" lon="-5.233125">
        <ele>449.023</ele>
        <time>2015-06-21T15:05:57Z</time>
      </trkpt>
      <trkpt lat="36.732134" lon="-5.233118">
        <ele>449.029</ele>
        <time>2015-06-21T15:06:01Z</time>
      </trkpt>
      <trkpt lat="36.732223" lon="-5.233056">
        <ele>449.092</ele>
        <time>2015-06-21T15:06:09Z</time>
      </trkpt>
      <trkpt lat="36.732249" lon="-5.232965">
        <ele>449.452</ele>
        <time>2015-06-21T15:06:15Z</time>
      </trkpt>
      <trkpt lat="36.732258" lon="-5.232951">
        <ele>449.816</ele>
        <time>2015-06-21T15:06:16Z</time>
      </trkpt>
      <trkpt lat="36.732257" lon="-5.232940">
        <ele>450.283</ele>
        <time>2015-06-21T15:06:17Z</time>
      </trkpt>
      <trkpt lat="36.732255" lon="-5.232928">
        <ele>450.662</ele>
        <time>2015-06-21T15:06:18Z</time>
      </trkpt>
      <trkpt lat="36.732263" lon="-5.232913">
        <ele>451.044</ele>
        <time>2015-06-21T15:06:19Z</time>
      </trkpt>
      <trkpt lat="36.732277" lon="-5.232903">
        <ele>451.046</ele>
        <time>2015-06-21T15:06:20Z</time>
      </trkpt>
      <trkpt lat="36.732290" lon="-5.232889">
        <ele>451.088</ele>
        <time>2015-06-21T15:06:21Z</time>
      </trkpt>
      <trkpt lat="36.732406" lon="-5.232831">
        <ele>451.016</ele>
        <time>2015-06-21T15:06:26Z</time>
      </trkpt>
      <trkpt lat="36.732510" lon="-5.232754">
        <ele>451.008</ele>
        <time>2015-06-21T15:06:31Z</time>
      </trkpt>
      <trkpt lat="36.732555" lon="-5.232675">
        <ele>451.065</ele>
        <time>2015-06-21T15:06:36Z</time>
      </trkpt>
      <trkpt lat="36.732567" lon="-5.232659">
        <ele>451.051</ele>
        <time>2015-06-21T15:06:37Z</time>
      </trkpt>
      <trkpt lat="36.732600" lon="-5.232586">
        <ele>451.084</ele>
        <time>2015-06-21T15:06:41Z</time>
      </trkpt>
      <trkpt lat="36.732615" lon="-5.232575">
        <ele>451.094</ele>
        <time>2015-06-21T15:06:42Z</time>
      </trkpt>
      <trkpt lat="36.732643" lon="-5.232553">
        <ele>451.058</ele>
        <time>2015-06-21T15:06:44Z</time>
      </trkpt>
      <trkpt lat="36.732689" lon="-5.232523">
        <ele>450.675</ele>
        <time>2015-06-21T15:06:47Z</time>
      </trkpt>
      <trkpt lat="36.732697" lon="-5.232514">
        <ele>450.074</ele>
        <time>2015-06-21T15:06:48Z</time>
      </trkpt>
      <trkpt lat="36.732711" lon="-5.232507">
        <ele>449.696</ele>
        <time>2015-06-21T15:06:49Z</time>
      </trkpt>
      <trkpt lat="36.732721" lon="-5.232500">
        <ele>450.456</ele>
        <time>2015-06-21T15:06:50Z</time>
      </trkpt>
      <trkpt lat="36.732728" lon="-5.232484">
        <ele>451.259</ele>
        <time>2015-06-21T15:06:51Z</time>
      </trkpt>
      <trkpt lat="36.732743" lon="-5.232477">
        <ele>452.014</ele>
        <time>2015-06-21T15:06:52Z</time>
      </trkpt>
      <trkpt lat="36.732747" lon="-5.232463">
        <ele>452.808</ele>
        <time>2015-06-21T15:06:53Z</time>
      </trkpt>
      <trkpt lat="36.732747" lon="-5.232455">
        <ele>453.616</ele>
        <time>2015-06-21T15:06:54Z</time>
      </trkpt>
      <trkpt lat="36.732751" lon="-5.232457">
        <ele>453.692</ele>
        <time>2015-06-21T15:06:55Z</time>
      </trkpt>
      <trkpt lat="36.732747" lon="-5.232456">
        <ele>453.615</ele>
        <time>2015-06-21T15:07:00Z</time>
      </trkpt>
      <trkpt lat="36.732747" lon="-5.232456">
        <ele>453.615</ele>
        <time>2015-06-21T15:07:08Z</time>
      </trkpt>
      <trkpt lat="36.732747" lon="-5.232456">
        <ele>453.689</ele>
        <time>2015-06-21T15:07:09Z</time>
      </trkpt>
      <trkpt lat="36.732747" lon="-5.232456">
        <ele>453.696</ele>
        <time>2015-06-21T15:07:12Z</time>
      </trkpt>
      <trkpt lat="36.732747" lon="-5.232456">
        <ele>453.615</ele>
        <time>2015-06-21T15:07:19Z</time>
      </trkpt>
      <trkpt lat="36.732748" lon="-5.232455">
        <ele>453.667</ele>
        <time>2015-06-21T15:07:26Z</time>
      </trkpt>
      <trkpt lat="36.732745" lon="-5.232446">
        <ele>453.654</ele>
        <time>2015-06-21T15:07:30Z</time>
      </trkpt>
      <trkpt lat="36.732740" lon="-5.232425">
        <ele>453.656</ele>
        <time>2015-06-21T15:07:32Z</time>
      </trkpt>
      <trkpt lat="36.732746" lon="-5.232401">
        <ele>453.611</ele>
        <time>2015-06-21T15:07:35Z</time>
      </trkpt>
      <trkpt lat="36.732753" lon="-5.232377">
        <ele>453.608</ele>
        <time>2015-06-21T15:07:37Z</time>
      </trkpt>
      <trkpt lat="36.732836" lon="-5.232271">
        <ele>453.666</ele>
        <time>2015-06-21T15:07:42Z</time>
      </trkpt>
      <trkpt lat="36.732844" lon="-5.232244">
        <ele>453.252</ele>
        <time>2015-06-21T15:07:43Z</time>
      </trkpt>
      <trkpt lat="36.732848" lon="-5.232230">
        <ele>452.825</ele>
        <time>2015-06-21T15:07:44Z</time>
      </trkpt>
      <trkpt lat="36.732860" lon="-5.232201">
        <ele>452.495</ele>
        <time>2015-06-21T15:07:45Z</time>
      </trkpt>
      <trkpt lat="36.732870" lon="-5.232170">
        <ele>451.859</ele>
        <time>2015-06-21T15:07:46Z</time>
      </trkpt>
      <trkpt lat="36.732885" lon="-5.232142">
        <ele>451.436</ele>
        <time>2015-06-21T15:07:47Z</time>
      </trkpt>
      <trkpt lat="36.732909" lon="-5.232104">
        <ele>451.025</ele>
        <time>2015-06-21T15:07:49Z</time>
      </trkpt>
      <trkpt lat="36.732927" lon="-5.232086">
        <ele>450.637</ele>
        <time>2015-06-21T15:07:50Z</time>
      </trkpt>
      <trkpt lat="36.732937" lon="-5.232063">
        <ele>450.234</ele>
        <time>2015-06-21T15:07:51Z</time>
      </trkpt>
      <trkpt lat="36.732941" lon="-5.232053">
        <ele>449.655</ele>
        <time>2015-06-21T15:07:52Z</time>
      </trkpt>
      <trkpt lat="36.732945" lon="-5.232042">
        <ele>449.210</ele>
        <time>2015-06-21T15:07:53Z</time>
      </trkpt>
      <trkpt lat="36.733000" lon="-5.231918">
        <ele>449.208</ele>
        <time>2015-06-21T15:08:00Z</time>
      </trkpt>
      <trkpt lat="36.733010" lon="-5.231872">
        <ele>449.244</ele>
        <time>2015-06-21T15:08:03Z</time>
      </trkpt>
      <trkpt lat="36.733011" lon="-5.231863">
        <ele>449.260</ele>
        <time>2015-06-21T15:08:04Z</time>
      </trkpt>
      <trkpt lat="36.733029" lon="-5.231821">
        <ele>449.293</ele>
        <time>2015-06-21T15:08:08Z</time>
      </trkpt>
      <trkpt lat="36.733049" lon="-5.231752">
        <ele>449.243</ele>
        <time>2015-06-21T15:08:13Z</time>
      </trkpt>
      <trkpt lat="36.733090" lon="-5.231716">
        <ele>449.297</ele>
        <time>2015-06-21T15:08:18Z</time>
      </trkpt>
      <trkpt lat="36.733098" lon="-5.231680">
        <ele>449.264</ele>
        <time>2015-06-21T15:08:25Z</time>
      </trkpt>
      <trkpt lat="36.733104" lon="-5.231668">
        <ele>449.293</ele>
        <time>2015-06-21T15:08:26Z</time>
      </trkpt>
      <trkpt lat="36.733116" lon="-5.231643">
        <ele>449.255</ele>
        <time>2015-06-21T15:08:29Z</time>
      </trkpt>
      <trkpt lat="36.733118" lon="-5.231632">
        <ele>449.267</ele>
        <time>2015-06-21T15:08:32Z</time>
      </trkpt>
      <trkpt lat="36.733120" lon="-5.231615">
        <ele>449.281</ele>
        <time>2015-06-21T15:08:39Z</time>
      </trkpt>
      <trkpt lat="36.733123" lon="-5.231564">
        <ele>449.219</ele>
        <time>2015-06-21T15:08:45Z</time>
      </trkpt>
      <trkpt lat="36.733123" lon="-5.231553">
        <ele>449.208</ele>
        <time>2015-06-21T15:08:46Z</time>
      </trkpt>
      <trkpt lat="36.733121" lon="-5.231535">
        <ele>449.217</ele>
        <time>2015-06-21T15:08:48Z</time>
      </trkpt>
      <trkpt lat="36.733116" lon="-5.231490">
        <ele>449.233</ele>
        <time>2015-06-21T15:08:52Z</time>
      </trkpt>
      <trkpt lat="36.733124" lon="-5.231441">
        <ele>449.216</ele>
        <time>2015-06-21T15:08:58Z</time>
      </trkpt>
      <trkpt lat="36.733126" lon="-5.231413">
        <ele>449.656</ele>
        <time>2015-06-21T15:09:02Z</time>
      </trkpt>
      <trkpt lat="36.733128" lon="-5.231399">
        <ele>450.090</ele>
        <time>2015-06-21T15:09:03Z</time>
      </trkpt>
      <trkpt lat="36.733126" lon="-5.231390">
        <ele>450.447</ele>
        <time>2015-06-21T15:09:04Z</time>
      </trkpt>
      <trkpt lat="36.733125" lon="-5.231381">
        <ele>451.086</ele>
        <time>2015-06-21T15:09:05Z</time>
      </trkpt>
      <trkpt lat="36.733124" lon="-5.231373">
        <ele>451.448</ele>
        <time>2015-06-21T15:09:06Z</time>
      </trkpt>
      <trkpt lat="36.733127" lon="-5.231360">
        <ele>451.417</ele>
        <time>2015-06-21T15:09:07Z</time>
      </trkpt>
      <trkpt lat="36.733114" lon="-5.231332">
        <ele>451.487</ele>
        <time>2015-06-21T15:09:10Z</time>
      </trkpt>
      <trkpt lat="36.733121" lon="-5.231319">
        <ele>451.415</ele>
        <time>2015-06-21T15:09:12Z</time>
      </trkpt>
      <trkpt lat="36.733143" lon="-5.231259">
        <ele>451.408</ele>
        <time>2015-06-21T15:09:18Z</time>
      </trkpt>
      <trkpt lat="36.733149" lon="-5.231241">
        <ele>451.872</ele>
        <time>2015-06-21T15:09:20Z</time>
      </trkpt>
      <trkpt lat="36.733152" lon="-5.231235">
        <ele>452.278</ele>
        <time>2015-06-21T15:09:21Z</time>
      </trkpt>
      <trkpt lat="36.733157" lon="-5.231229">
        <ele>452.681</ele>
        <time>2015-06-21T15:09:22Z</time>
      </trkpt>
      <trkpt lat="36.733161" lon="-5.231219">
        <ele>453.271</ele>
        <time>2015-06-21T15:09:23Z</time>
      </trkpt>
      <trkpt lat="36.733166" lon="-5.231209">
        <ele>453.645</ele>
        <time>2015-06-21T15:09:24Z</time>
      </trkpt>
      <trkpt lat="36.733194" lon="-5.231164">
        <ele>453.652</ele>
        <time>2015-06-21T15:09:28Z</time>
      </trkpt>
      <trkpt lat="36.733242" lon="-5.231079">
        <ele>453.691</ele>
        <time>2015-06-21T15:09:38Z</time>
      </trkpt>
      <trkpt lat="36.733271" lon="-5.231037">
        <ele>453.643</ele>
        <time>2015-06-21T15:09:43Z</time>
      </trkpt>
      <trkpt lat="36.733280" lon="-5.231008">
        <ele>453.666</ele>
        <time>2015-06-21T15:09:46Z</time>
      </trkpt>
      <trkpt lat="36.733309" lon="-5.230968">
        <ele>454.029</ele>
        <time>2015-06-21T15:09:52Z</time>
      </trkpt>
      <trkpt lat="36.733312" lon="-5.230966">
        <ele>454.421</ele>
        <time>2015-06-21T15:09:53Z</time>
      </trkpt>
      <trkpt lat="36.733312" lon="-5.230966">
        <ele>454.808</ele>
        <time>2015-06-21T15:09:54Z</time>
      </trkpt>
      <trkpt lat="36.733313" lon="-5.230960">
        <ele>455.237</ele>
        <time>2015-06-21T15:09:55Z</time>
      </trkpt>
      <trkpt lat="36.733313" lon="-5.230953">
        <ele>455.643</ele>
        <time>2015-06-21T15:09:56Z</time>
      </trkpt>
      <trkpt lat="36.733320" lon="-5.230890">
        <ele>455.696</ele>
        <time>2015-06-21T15:10:02Z</time>
      </trkpt>
      <trkpt lat="36.733321" lon="-5.230871">
        <ele>456.086</ele>
        <time>2015-06-21T15:10:04Z</time>
      </trkpt>
      <trkpt lat="36.733322" lon="-5.230861">
        <ele>456.470</ele>
        <time>2015-06-21T15:10:05Z</time>
      </trkpt>
      <trkpt lat="36.733322" lon="-5.230851">
        <ele>456.847</ele>
        <time>2015-06-21T15:10:06Z</time>
      </trkpt>
      <trkpt lat="36.733319" lon="-5.230846">
        <ele>457.236</ele>
        <time>2015-06-21T15:10:07Z</time>
      </trkpt>
      <trkpt lat="36.733319" lon="-5.230846">
        <ele>457.688</ele>
        <time>2015-06-21T15:10:08Z</time>
      </trkpt>
      <trkpt lat="36.733319" lon="-5.230846">
        <ele>457.623</ele>
        <time>2015-06-21T15:10:10Z</time>
      </trkpt>
      <trkpt lat="36.733313" lon="-5.230837">
        <ele>457.683</ele>
        <time>2015-06-21T15:10:12Z</time>
      </trkpt>
      <trkpt lat="36.733316" lon="-5.230816">
        <ele>457.611</ele>
        <time>2015-06-21T15:10:14Z</time>
      </trkpt>
      <trkpt lat="36.733342" lon="-5.230701">
        <ele>457.608</ele>
        <time>2015-06-21T15:10:21Z</time>
      </trkpt>
      <trkpt lat="36.733367" lon="-5.230553">
        <ele>457.663</ele>
        <time>2015-06-21T15:10:27Z</time>
      </trkpt>
      <trkpt lat="36.733464" lon="-5.230280">
        <ele>457.689</ele>
        <time>2015-06-21T15:10:35Z</time>
      </trkpt>
      <trkpt lat="36.733585" lon="-5.230041">
        <ele>457.622</ele>
        <time>2015-06-21T15:10:42Z</time>
      </trkpt>
      <trkpt lat="36.733601" lon="-5.230009">
        <ele>457.672</ele>
        <time>2015-06-21T15:10:43Z</time>
      </trkpt>
      <trkpt lat="36.733618" lon="-5.229979">
        <ele>457.636</ele>
        <time>2015-06-21T15:10:44Z</time>
      </trkpt>
      <trkpt lat="36.733775" lon="-5.229662">
        <ele>457.623</ele>
        <time>2015-06-21T15:10:54Z</time>
      </trkpt>
      <trkpt lat="36.733875" lon="-5.229444">
        <ele>457.632</ele>
        <time>2015-06-21T15:11:00Z</time>
      </trkpt>
      <trkpt lat="36.734013" lon="-5.229196">
        <ele>458.294</ele>
        <time>2015-06-21T15:11:07Z</time>
      </trkpt>
      <trkpt lat="36.734030" lon="-5.229162">
        <ele>458.866</ele>
        <time>2015-06-21T15:11:08Z</time>
      </trkpt>
      <trkpt lat="36.734044" lon="-5.229129">
        <ele>459.229</ele>
        <time>2015-06-21T15:11:09Z</time>
      </trkpt>
      <trkpt lat="36.734058" lon="-5.229095">
        <ele>460.421</ele>
        <time>2015-06-21T15:11:10Z</time>
      </trkpt>
      <trkpt lat="36.734137" lon="-5.228926">
        <ele>460.408</ele>
        <time>2015-06-21T15:11:15Z</time>
      </trkpt>
      <trkpt lat="36.734192" lon="-5.228830">
        <ele>460.447</ele>
        <time>2015-06-21T15:11:18Z</time>
      </trkpt>
      <trkpt lat="36.734340" lon="-5.228544">
        <ele>460.413</ele>
        <time>2015-06-21T15:11:27Z</time>
      </trkpt>
      <trkpt lat="36.734421" lon="-5.228541">
        <ele>460.446</ele>
        <time>2015-06-21T15:11:30Z</time>
      </trkpt>
      <trkpt lat="36.734523" lon="-5.228425">
        <ele>460.416</ele>
        <time>2015-06-21T15:11:35Z</time>
      </trkpt>
      <trkpt lat="36.734581" lon="-5.228400">
        <ele>460.450</ele>
        <time>2015-06-21T15:11:37Z</time>
      </trkpt>
      <trkpt lat="36.734643" lon="-5.228370">
        <ele>460.417</ele>
        <time>2015-06-21T15:11:39Z</time>
      </trkpt>
      <trkpt lat="36.734680" lon="-5.228338">
        <ele>460.416</ele>
        <time>2015-06-21T15:11:40Z</time>
      </trkpt>
      <trkpt lat="36.734794" lon="-5.228201">
        <ele>460.438</ele>
        <time>2015-06-21T15:11:43Z</time>
      </trkpt>
      <trkpt lat="36.734823" lon="-5.228152">
        <ele>459.859</ele>
        <time>2015-06-21T15:11:44Z</time>
      </trkpt>
      <trkpt lat="36.734846" lon="-5.228104">
        <ele>459.403</ele>
        <time>2015-06-21T15:11:45Z</time>
      </trkpt>
      <trkpt lat="36.734863" lon="-5.228062">
        <ele>458.823</ele>
        <time>2015-06-21T15:11:46Z</time>
      </trkpt>
      <trkpt lat="36.734880" lon="-5.228025">
        <ele>458.408</ele>
        <time>2015-06-21T15:11:47Z</time>
      </trkpt>
      <trkpt lat="36.734897" lon="-5.227995">
        <ele>457.876</ele>
        <time>2015-06-21T15:11:48Z</time>
      </trkpt>
      <trkpt lat="36.734917" lon="-5.227967">
        <ele>457.812</ele>
        <time>2015-06-21T15:11:49Z</time>
      </trkpt>
      <trkpt lat="36.735007" lon="-5.227872">
        <ele>457.875</ele>
        <time>2015-06-21T15:11:54Z</time>
      </trkpt>
      <trkpt lat="36.735159" lon="-5.227741">
        <ele>457.825</ele>
        <time>2015-06-21T15:12:00Z</time>
      </trkpt>
      <trkpt lat="36.735192" lon="-5.227708">
        <ele>457.899</ele>
        <time>2015-06-21T15:12:01Z</time>
      </trkpt>
      <trkpt lat="36.735228" lon="-5.227672">
        <ele>457.416</ele>
        <time>2015-06-21T15:12:02Z</time>
      </trkpt>
      <trkpt lat="36.735267" lon="-5.227633">
        <ele>457.045</ele>
        <time>2015-06-21T15:12:03Z</time>
      </trkpt>
      <trkpt lat="36.735310" lon="-5.227595">
        <ele>456.657</ele>
        <time>2015-06-21T15:12:04Z</time>
      </trkpt>
      <trkpt lat="36.735355" lon="-5.227558">
        <ele>456.297</ele>
        <time>2015-06-21T15:12:05Z</time>
      </trkpt>
      <trkpt lat="36.735400" lon="-5.227518">
        <ele>455.823</ele>
        <time>2015-06-21T15:12:06Z</time>
      </trkpt>
      <trkpt lat="36.735444" lon="-5.227476">
        <ele>455.225</ele>
        <time>2015-06-21T15:12:07Z</time>
      </trkpt>
      <trkpt lat="36.735485" lon="-5.227436">
        <ele>454.608</ele>
        <time>2015-06-21T15:12:08Z</time>
      </trkpt>
      <trkpt lat="36.735521" lon="-5.227397">
        <ele>454.220</ele>
        <time>2015-06-21T15:12:09Z</time>
      </trkpt>
      <trkpt lat="36.735561" lon="-5.227361">
        <ele>453.686</ele>
        <time>2015-06-21T15:12:10Z</time>
      </trkpt>
      <trkpt lat="36.735606" lon="-5.227329">
        <ele>453.289</ele>
        <time>2015-06-21T15:12:11Z</time>
      </trkpt>
      <trkpt lat="36.735651" lon="-5.227301">
        <ele>452.839</ele>
        <time>2015-06-21T15:12:12Z</time>
      </trkpt>
      <trkpt lat="36.735694" lon="-5.227275">
        <ele>452.283</ele>
        <time>2015-06-21T15:12:13Z</time>
      </trkpt>
      <trkpt lat="36.735738" lon="-5.227248">
        <ele>451.870</ele>
        <time>2015-06-21T15:12:14Z</time>
      </trkpt>
      <trkpt lat="36.735781" lon="-5.227223">
        <ele>451.439</ele>
        <time>2015-06-21T15:12:15Z</time>
      </trkpt>
      <trkpt lat="36.735830" lon="-5.227200">
        <ele>450.811</ele>
        <time>2015-06-21T15:12:16Z</time>
      </trkpt>
      <trkpt lat="36.735882" lon="-5.227178">
        <ele>450.247</ele>
        <time>2015-06-21T15:12:17Z</time>
      </trkpt>
      <trkpt lat="36.735933" lon="-5.227160">
        <ele>449.629</ele>
        <time>2015-06-21T15:12:18Z</time>
      </trkpt>
      <trkpt lat="36.735981" lon="-5.227146">
        <ele>449.221</ele>
        <time>2015-06-21T15:12:19Z</time>
      </trkpt>
      <trkpt lat="36.736023" lon="-5.227139">
        <ele>448.808</ele>
        <time>2015-06-21T15:12:20Z</time>
      </trkpt>
      <trkpt lat="36.736060" lon="-5.227145">
        <ele>448.445</ele>
        <time>2015-06-21T15:12:21Z</time>
      </trkpt>
      <trkpt lat="36.736089" lon="-5.227163">
        <ele>447.811</ele>
        <time>2015-06-21T15:12:22Z</time>
      </trkpt>
      <trkpt lat="36.736116" lon="-5.227193">
        <ele>447.484</ele>
        <time>2015-06-21T15:12:23Z</time>
      </trkpt>
      <trkpt lat="36.736139" lon="-5.227235">
        <ele>447.044</ele>
        <time>2015-06-21T15:12:24Z</time>
      </trkpt>
      <trkpt lat="36.736163" lon="-5.227277">
        <ele>446.248</ele>
        <time>2015-06-21T15:12:25Z</time>
      </trkpt>
      <trkpt lat="36.736192" lon="-5.227310">
        <ele>445.855</ele>
        <time>2015-06-21T15:12:26Z</time>
      </trkpt>
      <trkpt lat="36.736227" lon="-5.227334">
        <ele>445.254</ele>
        <time>2015-06-21T15:12:27Z</time>
      </trkpt>
      <trkpt lat="36.736260" lon="-5.227334">
        <ele>444.896</ele>
        <time>2015-06-21T15:12:28Z</time>
      </trkpt>
      <trkpt lat="36.736352" lon="-5.227221">
        <ele>444.854</ele>
        <time>2015-06-21T15:12:32Z</time>
      </trkpt>
      <trkpt lat="36.736389" lon="-5.227114">
        <ele>444.856</ele>
        <time>2015-06-21T15:12:36Z</time>
      </trkpt>
      <trkpt lat="36.736394" lon="-5.227091">
        <ele>444.811</ele>
        <time>2015-06-21T15:12:37Z</time>
      </trkpt>
      <trkpt lat="36.736458" lon="-5.227015">
        <ele>444.808</ele>
        <time>2015-06-21T15:12:41Z</time>
      </trkpt>
      <trkpt lat="36.736484" lon="-5.227001">
        <ele>444.496</ele>
        <time>2015-06-21T15:12:43Z</time>
      </trkpt>
      <trkpt lat="36.736487" lon="-5.226997">
        <ele>444.032</ele>
        <time>2015-06-21T15:12:44Z</time>
      </trkpt>
      <trkpt lat="36.736487" lon="-5.226997">
        <ele>443.645</ele>
        <time>2015-06-21T15:12:45Z</time>
      </trkpt>
      <trkpt lat="36.736487" lon="-5.226997">
        <ele>443.215</ele>
        <time>2015-06-21T15:12:46Z</time>
      </trkpt>
      <trkpt lat="36.736481" lon="-5.226996">
        <ele>442.879</ele>
        <time>2015-06-21T15:13:08Z</time>
      </trkpt>
      <trkpt lat="36.736474" lon="-5.226993">
        <ele>442.896</ele>
        <time>2015-06-21T15:13:09Z</time>
      </trkpt>
      <trkpt lat="36.736469" lon="-5.226969">
        <ele>442.845</ele>
        <time>2015-06-21T15:13:12Z</time>
      </trkpt>
      <trkpt lat="36.736463" lon="-5.226943">
        <ele>442.837</ele>
        <time>2015-06-21T15:13:18Z</time>
      </trkpt>
      <trkpt lat="36.736463" lon="-5.226924">
        <ele>442.839</ele>
        <time>2015-06-21T15:13:22Z</time>
      </trkpt>
      <trkpt lat="36.736464" lon="-5.226885">
        <ele>442.801</ele>
        <time>2015-06-21T15:13:24Z</time>
      </trkpt>
      <trkpt lat="36.736480" lon="-5.226827">
        <ele>442.821</ele>
        <time>2015-06-21T15:13:28Z</time>
      </trkpt>
      <trkpt lat="36.736479" lon="-5.226811">
        <ele>442.808</ele>
        <time>2015-06-21T15:13:29Z</time>
      </trkpt>
      <trkpt lat="36.736502" lon="-5.226743">
        <ele>442.864</ele>
        <time>2015-06-21T15:13:34Z</time>
      </trkpt>
      <trkpt lat="36.736514" lon="-5.226734">
        <ele>442.850</ele>
        <time>2015-06-21T15:13:41Z</time>
      </trkpt>
      <trkpt lat="36.736518" lon="-5.226733">
        <ele>442.833</ele>
        <time>2015-06-21T15:13:49Z</time>
      </trkpt>
      <trkpt lat="36.736523" lon="-5.226727">
        <ele>442.813</ele>
        <time>2015-06-21T15:13:56Z</time>
      </trkpt>
      <trkpt lat="36.736553" lon="-5.226723">
        <ele>442.887</ele>
        <time>2015-06-21T15:14:03Z</time>
      </trkpt>
      <trkpt lat="36.736556" lon="-5.226721">
        <ele>442.874</ele>
        <time>2015-06-21T15:14:07Z</time>
      </trkpt>
      <trkpt lat="36.736580" lon="-5.226714">
        <ele>442.823</ele>
        <time>2015-06-21T15:14:11Z</time>
      </trkpt>
      <trkpt lat="36.736588" lon="-5.226717">
        <ele>442.845</ele>
        <time>2015-06-21T15:14:13Z</time>
      </trkpt>
      <trkpt lat="36.736618" lon="-5.226726">
        <ele>442.898</ele>
        <time>2015-06-21T15:14:16Z</time>
      </trkpt>
      <trkpt lat="36.736624" lon="-5.226733">
        <ele>442.815</ele>
        <time>2015-06-21T15:14:17Z</time>
      </trkpt>
      <trkpt lat="36.736641" lon="-5.226772">
        <ele>442.826</ele>
        <time>2015-06-21T15:14:21Z</time>
      </trkpt>
      <trkpt lat="36.736643" lon="-5.226774">
        <ele>442.408</ele>
        <time>2015-06-21T15:14:24Z</time>
      </trkpt>
      <trkpt lat="36.736643" lon="-5.226774">
        <ele>442.050</ele>
        <time>2015-06-21T15:14:25Z</time>
      </trkpt>
      <trkpt lat="36.736643" lon="-5.226774">
        <ele>441.646</ele>
        <time>2015-06-21T15:14:26Z</time>
      </trkpt>
      <trkpt lat="36.736643" lon="-5.226774">
        <ele>442.269</ele>
        <time>2015-06-21T15:14:27Z</time>
      </trkpt>
      <trkpt lat="36.736643" lon="-5.226774">
        <ele>442.679</ele>
        <time>2015-06-21T15:14:28Z</time>
      </trkpt>
      <trkpt lat="36.736643" lon="-5.226774">
        <ele>443.053</ele>
        <time>2015-06-21T15:14:29Z</time>
      </trkpt>
      <trkpt lat="36.736643" lon="-5.226774">
        <ele>443.260</ele>
        <time>2015-06-21T15:14:30Z</time>
      </trkpt>
      <trkpt lat="36.736644" lon="-5.226775">
        <ele>443.299</ele>
        <time>2015-06-21T15:14:37Z</time>
      </trkpt>
      <trkpt lat="36.736713" lon="-5.226828">
        <ele>443.231</ele>
        <time>2015-06-21T15:14:43Z</time>
      </trkpt>
      <trkpt lat="36.736742" lon="-5.226844">
        <ele>443.254</ele>
        <time>2015-06-21T15:14:45Z</time>
      </trkpt>
      <trkpt lat="36.736768" lon="-5.226853">
        <ele>443.256</ele>
        <time>2015-06-21T15:14:47Z</time>
      </trkpt>
      <trkpt lat="36.736794" lon="-5.226868">
        <ele>443.211</ele>
        <time>2015-06-21T15:14:49Z</time>
      </trkpt>
      <trkpt lat="36.736831" lon="-5.226879">
        <ele>443.208</ele>
        <time>2015-06-21T15:14:52Z</time>
      </trkpt>
      <trkpt lat="36.736865" lon="-5.226889">
        <ele>443.276</ele>
        <time>2015-06-21T15:14:54Z</time>
      </trkpt>
      <trkpt lat="36.736974" lon="-5.226890">
        <ele>443.232</ele>
        <time>2015-06-21T15:14:59Z</time>
      </trkpt>
      <trkpt lat="36.737084" lon="-5.226821">
        <ele>443.265</ele>
        <time>2015-06-21T15:15:05Z</time>
      </trkpt>
      <trkpt lat="36.737141" lon="-5.226745">
        <ele>443.295</ele>
        <time>2015-06-21T15:15:10Z</time>
      </trkpt>
      <trkpt lat="36.737152" lon="-5.226728">
        <ele>443.659</ele>
        <time>2015-06-21T15:15:11Z</time>
      </trkpt>
      <trkpt lat="36.737164" lon="-5.226711">
        <ele>444.216</ele>
        <time>2015-06-21T15:15:12Z</time>
      </trkpt>
      <trkpt lat="36.737175" lon="-5.226693">
        <ele>444.635</ele>
        <time>2015-06-21T15:15:13Z</time>
      </trkpt>
      <trkpt lat="36.737187" lon="-5.226674">
        <ele>445.047</ele>
        <time>2015-06-21T15:15:14Z</time>
      </trkpt>
      <trkpt lat="36.737199" lon="-5.226655">
        <ele>445.461</ele>
        <time>2015-06-21T15:15:15Z</time>
      </trkpt>
      <trkpt lat="36.737246" lon="-5.226580">
        <ele>445.421</ele>
        <time>2015-06-21T15:15:19Z</time>
      </trkpt>
      <trkpt lat="36.737347" lon="-5.226432">
        <ele>445.413</ele>
        <time>2015-06-21T15:15:26Z</time>
      </trkpt>
      <trkpt lat="36.737458" lon="-5.226314">
        <ele>445.408</ele>
        <time>2015-06-21T15:15:32Z</time>
      </trkpt>
      <trkpt lat="36.737548" lon="-5.226202">
        <ele>445.847</ele>
        <time>2015-06-21T15:15:37Z</time>
      </trkpt>
      <trkpt lat="36.737564" lon="-5.226176">
        <ele>446.213</ele>
        <time>2015-06-21T15:15:38Z</time>
      </trkpt>
      <trkpt lat="36.737579" lon="-5.226149">
        <ele>446.666</ele>
        <time>2015-06-21T15:15:39Z</time>
      </trkpt>
      <trkpt lat="36.737594" lon="-5.226123">
        <ele>447.076</ele>
        <time>2015-06-21T15:15:40Z</time>
      </trkpt>
      <trkpt lat="36.737610" lon="-5.226095">
        <ele>447.630</ele>
        <time>2015-06-21T15:15:41Z</time>
      </trkpt>
      <trkpt lat="36.737671" lon="-5.225986">
        <ele>447.677</ele>
        <time>2015-06-21T15:15:45Z</time>
      </trkpt>
      <trkpt lat="36.737691" lon="-5.225939">
        <ele>447.666</ele>
        <time>2015-06-21T15:15:47Z</time>
      </trkpt>
      <trkpt lat="36.737712" lon="-5.225897">
        <ele>447.638</ele>
        <time>2015-06-21T15:15:49Z</time>
      </trkpt>
      <trkpt lat="36.737826" lon="-5.225708">
        <ele>447.626</ele>
        <time>2015-06-21T15:15:56Z</time>
      </trkpt>
      <trkpt lat="36.737843" lon="-5.225683">
        <ele>448.047</ele>
        <time>2015-06-21T15:15:57Z</time>
      </trkpt>
      <trkpt lat="36.737858" lon="-5.225658">
        <ele>448.411</ele>
        <time>2015-06-21T15:15:58Z</time>
      </trkpt>
      <trkpt lat="36.737871" lon="-5.225632">
        <ele>448.808</ele>
        <time>2015-06-21T15:15:59Z</time>
      </trkpt>
      <trkpt lat="36.737881" lon="-5.225603">
        <ele>449.253</ele>
        <time>2015-06-21T15:16:00Z</time>
      </trkpt>
      <trkpt lat="36.737893" lon="-5.225574">
        <ele>449.639</ele>
        <time>2015-06-21T15:16:01Z</time>
      </trkpt>
      <trkpt lat="36.737906" lon="-5.225545">
        <ele>449.692</ele>
        <time>2015-06-21T15:16:02Z</time>
      </trkpt>
      <trkpt lat="36.738000" lon="-5.225403">
        <ele>449.692</ele>
        <time>2015-06-21T15:16:08Z</time>
      </trkpt>
      <trkpt lat="36.738024" lon="-5.225396">
        <ele>449.636</ele>
        <time>2015-06-21T15:16:09Z</time>
      </trkpt>
      <trkpt lat="36.738095" lon="-5.225437">
        <ele>449.633</ele>
        <time>2015-06-21T15:16:13Z</time>
      </trkpt>
      <trkpt lat="36.738127" lon="-5.225498">
        <ele>449.612</ele>
        <time>2015-06-21T15:16:16Z</time>
      </trkpt>
      <trkpt lat="36.738151" lon="-5.225531">
        <ele>449.664</ele>
        <time>2015-06-21T15:16:18Z</time>
      </trkpt>
      <trkpt lat="36.738239" lon="-5.225609">
        <ele>450.016</ele>
        <time>2015-06-21T15:16:24Z</time>
      </trkpt>
      <trkpt lat="36.738253" lon="-5.225619">
        <ele>450.476</ele>
        <time>2015-06-21T15:16:25Z</time>
      </trkpt>
      <trkpt lat="36.738267" lon="-5.225629">
        <ele>450.813</ele>
        <time>2015-06-21T15:16:26Z</time>
      </trkpt>
      <trkpt lat="36.738279" lon="-5.225638">
        <ele>451.208</ele>
        <time>2015-06-21T15:16:27Z</time>
      </trkpt>
      <trkpt lat="36.738292" lon="-5.225648">
        <ele>451.882</ele>
        <time>2015-06-21T15:16:28Z</time>
      </trkpt>
      <trkpt lat="36.738350" lon="-5.225694">
        <ele>451.818</ele>
        <time>2015-06-21T15:16:33Z</time>
      </trkpt>
      <trkpt lat="36.738393" lon="-5.225696">
        <ele>452.241</ele>
        <time>2015-06-21T15:16:36Z</time>
      </trkpt>
      <trkpt lat="36.738409" lon="-5.225696">
        <ele>452.621</ele>
        <time>2015-06-21T15:16:37Z</time>
      </trkpt>
      <trkpt lat="36.738425" lon="-5.225693">
        <ele>453.085</ele>
        <time>2015-06-21T15:16:38Z</time>
      </trkpt>
      <trkpt lat="36.738442" lon="-5.225692">
        <ele>453.442</ele>
        <time>2015-06-21T15:16:39Z</time>
      </trkpt>
      <trkpt lat="36.738462" lon="-5.225691">
        <ele>453.821</ele>
        <time>2015-06-21T15:16:40Z</time>
      </trkpt>
      <trkpt lat="36.738522" lon="-5.225667">
        <ele>453.893</ele>
        <time>2015-06-21T15:16:43Z</time>
      </trkpt>
      <trkpt lat="36.738554" lon="-5.225634">
        <ele>453.863</ele>
        <time>2015-06-21T15:16:45Z</time>
      </trkpt>
      <trkpt lat="36.738570" lon="-5.225527">
        <ele>453.844</ele>
        <time>2015-06-21T15:16:49Z</time>
      </trkpt>
      <trkpt lat="36.738573" lon="-5.225496">
        <ele>453.818</ele>
        <time>2015-06-21T15:16:50Z</time>
      </trkpt>
      <trkpt lat="36.738590" lon="-5.225254">
        <ele>453.808</ele>
        <time>2015-06-21T15:16:57Z</time>
      </trkpt>
      <trkpt lat="36.738591" lon="-5.225183">
        <ele>454.257</ele>
        <time>2015-06-21T15:16:59Z</time>
      </trkpt>
      <trkpt lat="36.738590" lon="-5.225147">
        <ele>454.663</ele>
        <time>2015-06-21T15:17:00Z</time>
      </trkpt>
      <trkpt lat="36.738589" lon="-5.225112">
        <ele>455.016</ele>
        <time>2015-06-21T15:17:01Z</time>
      </trkpt>
      <trkpt lat="36.738587" lon="-5.225077">
        <ele>455.686</ele>
        <time>2015-06-21T15:17:02Z</time>
      </trkpt>
      <trkpt lat="36.738587" lon="-5.225042">
        <ele>456.080</ele>
        <time>2015-06-21T15:17:03Z</time>
      </trkpt>
      <trkpt lat="36.738584" lon="-5.224937">
        <ele>456.027</ele>
        <time>2015-06-21T15:17:06Z</time>
      </trkpt>
      <trkpt lat="36.738577" lon="-5.224685">
        <ele>456.016</ele>
        <time>2015-06-21T15:17:13Z</time>
      </trkpt>
      <trkpt lat="36.738585" lon="-5.224333">
        <ele>456.098</ele>
        <time>2015-06-21T15:17:21Z</time>
      </trkpt>
      <trkpt lat="36.738588" lon="-5.224072">
        <ele>456.076</ele>
        <time>2015-06-21T15:17:27Z</time>
      </trkpt>
      <trkpt lat="36.738585" lon="-5.223873">
        <ele>456.090</ele>
        <time>2015-06-21T15:17:31Z</time>
      </trkpt>
      <trkpt lat="36.738574" lon="-5.223719">
        <ele>456.019</ele>
        <time>2015-06-21T15:17:34Z</time>
      </trkpt>
      <trkpt lat="36.738571" lon="-5.223438">
        <ele>456.008</ele>
        <time>2015-06-21T15:17:41Z</time>
      </trkpt>
      <trkpt lat="36.738587" lon="-5.223289">
        <ele>457.268</ele>
        <time>2015-06-21T15:17:45Z</time>
      </trkpt>
      <trkpt lat="36.738588" lon="-5.223263">
        <ele>457.634</ele>
        <time>2015-06-21T15:17:47Z</time>
      </trkpt>
      <trkpt lat="36.738590" lon="-5.223237">
        <ele>458.027</ele>
        <time>2015-06-21T15:17:48Z</time>
      </trkpt>
      <trkpt lat="36.738628" lon="-5.223012">
        <ele>458.047</ele>
        <time>2015-06-21T15:17:56Z</time>
      </trkpt>
      <trkpt lat="36.738647" lon="-5.222925">
        <ele>458.421</ele>
        <time>2015-06-21T15:17:59Z</time>
      </trkpt>
      <trkpt lat="36.738654" lon="-5.222896">
        <ele>458.818</ele>
        <time>2015-06-21T15:18:00Z</time>
      </trkpt>
      <trkpt lat="36.738658" lon="-5.222869">
        <ele>459.247</ele>
        <time>2015-06-21T15:18:01Z</time>
      </trkpt>
      <trkpt lat="36.738660" lon="-5.222838">
        <ele>459.629</ele>
        <time>2015-06-21T15:18:02Z</time>
      </trkpt>
      <trkpt lat="36.738666" lon="-5.222807">
        <ele>460.097</ele>
        <time>2015-06-21T15:18:03Z</time>
      </trkpt>
      <trkpt lat="36.738673" lon="-5.222775">
        <ele>460.023</ele>
        <time>2015-06-21T15:18:04Z</time>
      </trkpt>
      <trkpt lat="36.738734" lon="-5.222501">
        <ele>460.025</ele>
        <time>2015-06-21T15:18:12Z</time>
      </trkpt>
      <trkpt lat="36.738810" lon="-5.222186">
        <ele>460.008</ele>
        <time>2015-06-21T15:18:18Z</time>
      </trkpt>
      <trkpt lat="36.738884" lon="-5.221942">
        <ele>460.050</ele>
        <time>2015-06-21T15:18:22Z</time>
      </trkpt>
      <trkpt lat="36.738956" lon="-5.221761">
        <ele>460.036</ele>
        <time>2015-06-21T15:18:25Z</time>
      </trkpt>
      <trkpt lat="36.739050" lon="-5.221596">
        <ele>460.079</ele>
        <time>2015-06-21T15:18:28Z</time>
      </trkpt>
      <trkpt lat="36.739141" lon="-5.221442">
        <ele>460.049</ele>
        <time>2015-06-21T15:18:31Z</time>
      </trkpt>
      <trkpt lat="36.739259" lon="-5.221271">
        <ele>460.023</ele>
        <time>2015-06-21T15:18:35Z</time>
      </trkpt>
      <trkpt lat="36.739289" lon="-5.221233">
        <ele>460.080</ele>
        <time>2015-06-21T15:18:36Z</time>
      </trkpt>
      <trkpt lat="36.739383" lon="-5.221106">
        <ele>460.059</ele>
        <time>2015-06-21T15:18:39Z</time>
      </trkpt>
      <trkpt lat="36.739473" lon="-5.221005">
        <ele>460.011</ele>
        <time>2015-06-21T15:18:42Z</time>
      </trkpt>
      <trkpt lat="36.739620" lon="-5.220855">
        <ele>460.023</ele>
        <time>2015-06-21T15:18:47Z</time>
      </trkpt>
      <trkpt lat="36.739668" lon="-5.220794">
        <ele>460.083</ele>
        <time>2015-06-21T15:18:49Z</time>
      </trkpt>
      <trkpt lat="36.739800" lon="-5.220699">
        <ele>460.011</ele>
        <time>2015-06-21T15:18:54Z</time>
      </trkpt>
      <trkpt lat="36.739854" lon="-5.220662">
        <ele>460.008</ele>
        <time>2015-06-21T15:18:56Z</time>
      </trkpt>
      <trkpt lat="36.740061" lon="-5.220496">
        <ele>460.073</ele>
        <time>2015-06-21T15:19:03Z</time>
      </trkpt>
      <trkpt lat="36.740232" lon="-5.220369">
        <ele>460.099</ele>
        <time>2015-06-21T15:19:09Z</time>
      </trkpt>
      <trkpt lat="36.740399" lon="-5.220214">
        <ele>460.072</ele>
        <time>2015-06-21T15:19:14Z</time>
      </trkpt>
      <trkpt lat="36.740496" lon="-5.220135">
        <ele>460.052</ele>
        <time>2015-06-21T15:19:16Z</time>
      </trkpt>
      <trkpt lat="36.740587" lon="-5.220053">
        <ele>460.076</ele>
        <time>2015-06-21T15:19:18Z</time>
      </trkpt>
      <trkpt lat="36.740676" lon="-5.219971">
        <ele>460.053</ele>
        <time>2015-06-21T15:19:20Z</time>
      </trkpt>
      <trkpt lat="36.740831" lon="-5.219867">
        <ele>460.052</ele>
        <time>2015-06-21T15:19:23Z</time>
      </trkpt>
      <trkpt lat="36.740891" lon="-5.219834">
        <ele>460.014</ele>
        <time>2015-06-21T15:19:24Z</time>
      </trkpt>
      <trkpt lat="36.740949" lon="-5.219789">
        <ele>460.027</ele>
        <time>2015-06-21T15:19:25Z</time>
      </trkpt>
      <trkpt lat="36.741059" lon="-5.219700">
        <ele>460.068</ele>
        <time>2015-06-21T15:19:27Z</time>
      </trkpt>
      <trkpt lat="36.741114" lon="-5.219663">
        <ele>460.014</ele>
        <time>2015-06-21T15:19:28Z</time>
      </trkpt>
      <trkpt lat="36.741171" lon="-5.219629">
        <ele>459.608</ele>
        <time>2015-06-21T15:19:29Z</time>
      </trkpt>
      <trkpt lat="36.741229" lon="-5.219593">
        <ele>459.243</ele>
        <time>2015-06-21T15:19:30Z</time>
      </trkpt>
      <trkpt lat="36.741286" lon="-5.219557">
        <ele>458.869</ele>
        <time>2015-06-21T15:19:31Z</time>
      </trkpt>
      <trkpt lat="36.741344" lon="-5.219517">
        <ele>458.482</ele>
        <time>2015-06-21T15:19:32Z</time>
      </trkpt>
      <trkpt lat="36.741402" lon="-5.219480">
        <ele>457.822</ele>
        <time>2015-06-21T15:19:33Z</time>
      </trkpt>
      <trkpt lat="36.741609" lon="-5.219349">
        <ele>457.886</ele>
        <time>2015-06-21T15:19:37Z</time>
      </trkpt>
      <trkpt lat="36.741692" lon="-5.219294">
        <ele>457.823</ele>
        <time>2015-06-21T15:19:39Z</time>
      </trkpt>
      <trkpt lat="36.741988" lon="-5.219054">
        <ele>457.852</ele>
        <time>2015-06-21T15:19:47Z</time>
      </trkpt>
      <trkpt lat="36.742118" lon="-5.218971">
        <ele>457.874</ele>
        <time>2015-06-21T15:19:50Z</time>
      </trkpt>
      <trkpt lat="36.742208" lon="-5.218941">
        <ele>457.815</ele>
        <time>2015-06-21T15:19:52Z</time>
      </trkpt>
      <trkpt lat="36.742287" lon="-5.218900">
        <ele>457.865</ele>
        <time>2015-06-21T15:19:54Z</time>
      </trkpt>
      <trkpt lat="36.742339" lon="-5.218817">
        <ele>457.811</ele>
        <time>2015-06-21T15:19:56Z</time>
      </trkpt>
      <trkpt lat="36.742426" lon="-5.218659">
        <ele>457.808</ele>
        <time>2015-06-21T15:20:01Z</time>
      </trkpt>
      <trkpt lat="36.742492" lon="-5.218567">
        <ele>457.862</ele>
        <time>2015-06-21T15:20:05Z</time>
      </trkpt>
      <trkpt lat="36.742561" lon="-5.218499">
        <ele>457.878</ele>
        <time>2015-06-21T15:20:08Z</time>
      </trkpt>
      <trkpt lat="36.742735" lon="-5.218336">
        <ele>457.861</ele>
        <time>2015-06-21T15:20:14Z</time>
      </trkpt>
      <trkpt lat="36.742941" lon="-5.218124">
        <ele>457.851</ele>
        <time>2015-06-21T15:20:20Z</time>
      </trkpt>
      <trkpt lat="36.743087" lon="-5.217953">
        <ele>457.885</ele>
        <time>2015-06-21T15:20:24Z</time>
      </trkpt>
      <trkpt lat="36.743149" lon="-5.217872">
        <ele>457.872</ele>
        <time>2015-06-21T15:20:26Z</time>
      </trkpt>
      <trkpt lat="36.743313" lon="-5.217731">
        <ele>457.821</ele>
        <time>2015-06-21T15:20:31Z</time>
      </trkpt>
      <trkpt lat="36.743340" lon="-5.217709">
        <ele>457.883</ele>
        <time>2015-06-21T15:20:32Z</time>
      </trkpt>
      <trkpt lat="36.743497" lon="-5.217603">
        <ele>457.862</ele>
        <time>2015-06-21T15:20:38Z</time>
      </trkpt>
      <trkpt lat="36.743593" lon="-5.217533">
        <ele>457.883</ele>
        <time>2015-06-21T15:20:42Z</time>
      </trkpt>
      <trkpt lat="36.743681" lon="-5.217473">
        <ele>457.811</ele>
        <time>2015-06-21T15:20:46Z</time>
      </trkpt>
      <trkpt lat="36.743773" lon="-5.217399">
        <ele>457.808</ele>
        <time>2015-06-21T15:20:50Z</time>
      </trkpt>
      <trkpt lat="36.743854" lon="-5.217327">
        <ele>457.827</ele>
        <time>2015-06-21T15:20:53Z</time>
      </trkpt>
      <trkpt lat="36.743937" lon="-5.217261">
        <ele>458.293</ele>
        <time>2015-06-21T15:20:56Z</time>
      </trkpt>
      <trkpt lat="36.743959" lon="-5.217240">
        <ele>458.676</ele>
        <time>2015-06-21T15:20:57Z</time>
      </trkpt>
      <trkpt lat="36.743979" lon="-5.217219">
        <ele>459.236</ele>
        <time>2015-06-21T15:20:58Z</time>
      </trkpt>
      <trkpt lat="36.743998" lon="-5.217202">
        <ele>459.620</ele>
        <time>2015-06-21T15:20:59Z</time>
      </trkpt>
      <trkpt lat="36.744018" lon="-5.217183">
        <ele>460.077</ele>
        <time>2015-06-21T15:21:00Z</time>
      </trkpt>
      <trkpt lat="36.744138" lon="-5.217086">
        <ele>460.046</ele>
        <time>2015-06-21T15:21:04Z</time>
      </trkpt>
      <trkpt lat="36.744378" lon="-5.216913">
        <ele>460.058</ele>
        <time>2015-06-21T15:21:10Z</time>
      </trkpt>
      <trkpt lat="36.744540" lon="-5.216854">
        <ele>460.092</ele>
        <time>2015-06-21T15:21:14Z</time>
      </trkpt>
      <trkpt lat="36.744626" lon="-5.216745">
        <ele>460.073</ele>
        <time>2015-06-21T15:21:17Z</time>
      </trkpt>
      <trkpt lat="36.744653" lon="-5.216709">
        <ele>460.020</ele>
        <time>2015-06-21T15:21:18Z</time>
      </trkpt>
      <trkpt lat="36.744859" lon="-5.216496">
        <ele>460.008</ele>
        <time>2015-06-21T15:21:24Z</time>
      </trkpt>
      <trkpt lat="36.744897" lon="-5.216467">
        <ele>460.010</ele>
        <time>2015-06-21T15:21:25Z</time>
      </trkpt>
      <trkpt lat="36.745000" lon="-5.216396">
        <ele>460.036</ele>
        <time>2015-06-21T15:21:28Z</time>
      </trkpt>
      <trkpt lat="36.745030" lon="-5.216375">
        <ele>460.079</ele>
        <time>2015-06-21T15:21:29Z</time>
      </trkpt>
      <trkpt lat="36.745155" lon="-5.216216">
        <ele>460.079</ele>
        <time>2015-06-21T15:21:34Z</time>
      </trkpt>
      <trkpt lat="36.745282" lon="-5.216107">
        <ele>460.033</ele>
        <time>2015-06-21T15:21:38Z</time>
      </trkpt>
      <trkpt lat="36.745313" lon="-5.216072">
        <ele>460.070</ele>
        <time>2015-06-21T15:21:39Z</time>
      </trkpt>
      <trkpt lat="36.745341" lon="-5.216035">
        <ele>460.029</ele>
        <time>2015-06-21T15:21:40Z</time>
      </trkpt>
      <trkpt lat="36.745403" lon="-5.215954">
        <ele>460.011</ele>
        <time>2015-06-21T15:21:42Z</time>
      </trkpt>
      <trkpt lat="36.745441" lon="-5.215920">
        <ele>459.433</ele>
        <time>2015-06-21T15:21:43Z</time>
      </trkpt>
      <trkpt lat="36.745475" lon="-5.215885">
        <ele>458.823</ele>
        <time>2015-06-21T15:21:44Z</time>
      </trkpt>
      <trkpt lat="36.745509" lon="-5.215849">
        <ele>458.215</ele>
        <time>2015-06-21T15:21:45Z</time>
      </trkpt>
      <trkpt lat="36.745545" lon="-5.215811">
        <ele>458.608</ele>
        <time>2015-06-21T15:21:46Z</time>
      </trkpt>
      <trkpt lat="36.745582" lon="-5.215770">
        <ele>459.064</ele>
        <time>2015-06-21T15:21:47Z</time>
      </trkpt>
      <trkpt lat="36.745613" lon="-5.215728">
        <ele>459.210</ele>
        <time>2015-06-21T15:21:48Z</time>
      </trkpt>
      <trkpt lat="36.745645" lon="-5.215687">
        <ele>459.633</ele>
        <time>2015-06-21T15:21:49Z</time>
      </trkpt>
      <trkpt lat="36.745678" lon="-5.215648">
        <ele>460.093</ele>
        <time>2015-06-21T15:21:50Z</time>
      </trkpt>
      <trkpt lat="36.745743" lon="-5.215568">
        <ele>460.097</ele>
        <time>2015-06-21T15:21:52Z</time>
      </trkpt>
      <trkpt lat="36.746023" lon="-5.215278">
        <ele>460.054</ele>
        <time>2015-06-21T15:22:00Z</time>
      </trkpt>
      <trkpt lat="36.746241" lon="-5.215065">
        <ele>460.093</ele>
        <time>2015-06-21T15:22:07Z</time>
      </trkpt>
      <trkpt lat="36.746511" lon="-5.214787">
        <ele>460.055</ele>
        <time>2015-06-21T15:22:16Z</time>
      </trkpt>
      <trkpt lat="36.746594" lon="-5.214693">
        <ele>460.469</ele>
        <time>2015-06-21T15:22:19Z</time>
      </trkpt>
      <trkpt lat="36.746624" lon="-5.214666">
        <ele>460.804</ele>
        <time>2015-06-21T15:22:20Z</time>
      </trkpt>
      <trkpt lat="36.746658" lon="-5.214641">
        <ele>461.224</ele>
        <time>2015-06-21T15:22:21Z</time>
      </trkpt>
      <trkpt lat="36.746692" lon="-5.214614">
        <ele>461.608</ele>
        <time>2015-06-21T15:22:22Z</time>
      </trkpt>
      <trkpt lat="36.746727" lon="-5.214584">
        <ele>462.237</ele>
        <time>2015-06-21T15:22:23Z</time>
      </trkpt>
      <trkpt lat="36.746793" lon="-5.214514">
        <ele>462.263</ele>
        <time>2015-06-21T15:22:25Z</time>
      </trkpt>
      <trkpt lat="36.746942" lon="-5.214328">
        <ele>462.296</ele>
        <time>2015-06-21T15:22:30Z</time>
      </trkpt>
      <trkpt lat="36.747122" lon="-5.214138">
        <ele>462.216</ele>
        <time>2015-06-21T15:22:36Z</time>
      </trkpt>
      <trkpt lat="36.747243" lon="-5.214013">
        <ele>462.230</ele>
        <time>2015-06-21T15:22:40Z</time>
      </trkpt>
      <trkpt lat="36.747302" lon="-5.213953">
        <ele>463.027</ele>
        <time>2015-06-21T15:22:42Z</time>
      </trkpt>
      <trkpt lat="36.747335" lon="-5.213922">
        <ele>463.446</ele>
        <time>2015-06-21T15:22:43Z</time>
      </trkpt>
      <trkpt lat="36.747367" lon="-5.213887">
        <ele>463.818</ele>
        <time>2015-06-21T15:22:44Z</time>
      </trkpt>
      <trkpt lat="36.747402" lon="-5.213851">
        <ele>464.269</ele>
        <time>2015-06-21T15:22:45Z</time>
      </trkpt>
      <trkpt lat="36.747466" lon="-5.213777">
        <ele>464.204</ele>
        <time>2015-06-21T15:22:47Z</time>
      </trkpt>
      <trkpt lat="36.747642" lon="-5.213572">
        <ele>464.224</ele>
        <time>2015-06-21T15:22:53Z</time>
      </trkpt>
      <trkpt lat="36.747888" lon="-5.213299">
        <ele>464.208</ele>
        <time>2015-06-21T15:23:00Z</time>
      </trkpt>
      <trkpt lat="36.747966" lon="-5.213220">
        <ele>464.257</ele>
        <time>2015-06-21T15:23:02Z</time>
      </trkpt>
      <trkpt lat="36.748077" lon="-5.213096">
        <ele>464.293</ele>
        <time>2015-06-21T15:23:05Z</time>
      </trkpt>
      <trkpt lat="36.748349" lon="-5.212831">
        <ele>464.236</ele>
        <time>2015-06-21T15:23:12Z</time>
      </trkpt>
      <trkpt lat="36.748542" lon="-5.212659">
        <ele>464.246</ele>
        <time>2015-06-21T15:23:17Z</time>
      </trkpt>
      <trkpt lat="36.748606" lon="-5.212576">
        <ele>464.250</ele>
        <time>2015-06-21T15:23:19Z</time>
      </trkpt>
      <trkpt lat="36.748843" lon="-5.212344">
        <ele>464.217</ele>
        <time>2015-06-21T15:23:25Z</time>
      </trkpt>
      <trkpt lat="36.749085" lon="-5.212080">
        <ele>464.246</ele>
        <time>2015-06-21T15:23:31Z</time>
      </trkpt>
      <trkpt lat="36.749189" lon="-5.211953">
        <ele>464.288</ele>
        <time>2015-06-21T15:23:34Z</time>
      </trkpt>
      <trkpt lat="36.749290" lon="-5.211824">
        <ele>464.254</ele>
        <time>2015-06-21T15:23:37Z</time>
      </trkpt>
      <trkpt lat="36.749323" lon="-5.211781">
        <ele>464.256</ele>
        <time>2015-06-21T15:23:38Z</time>
      </trkpt>
      <trkpt lat="36.749470" lon="-5.211637">
        <ele>464.211</ele>
        <time>2015-06-21T15:23:42Z</time>
      </trkpt>
      <trkpt lat="36.749503" lon="-5.211601">
        <ele>464.208</ele>
        <time>2015-06-21T15:23:43Z</time>
      </trkpt>
      <trkpt lat="36.749790" lon="-5.211298">
        <ele>464.286</ele>
        <time>2015-06-21T15:23:52Z</time>
      </trkpt>
      <trkpt lat="36.750023" lon="-5.211046">
        <ele>464.262</ele>
        <time>2015-06-21T15:23:57Z</time>
      </trkpt>
      <trkpt lat="36.750153" lon="-5.210906">
        <ele>464.215</ele>
        <time>2015-06-21T15:24:01Z</time>
      </trkpt>
      <trkpt lat="36.750212" lon="-5.210856">
        <ele>464.645</ele>
        <time>2015-06-21T15:24:04Z</time>
      </trkpt>
      <trkpt lat="36.750232" lon="-5.210839">
        <ele>465.069</ele>
        <time>2015-06-21T15:24:05Z</time>
      </trkpt>
      <trkpt lat="36.750252" lon="-5.210821">
        <ele>465.436</ele>
        <time>2015-06-21T15:24:06Z</time>
      </trkpt>
      <trkpt lat="36.750272" lon="-5.210802">
        <ele>465.825</ele>
        <time>2015-06-21T15:24:07Z</time>
      </trkpt>
      <trkpt lat="36.750294" lon="-5.210784">
        <ele>466.427</ele>
        <time>2015-06-21T15:24:08Z</time>
      </trkpt>
      <trkpt lat="36.750396" lon="-5.210695">
        <ele>466.415</ele>
        <time>2015-06-21T15:24:12Z</time>
      </trkpt>
      <trkpt lat="36.750429" lon="-5.210673">
        <ele>466.465</ele>
        <time>2015-06-21T15:24:13Z</time>
      </trkpt>
      <trkpt lat="36.750632" lon="-5.210522">
        <ele>466.411</ele>
        <time>2015-06-21T15:24:18Z</time>
      </trkpt>
      <trkpt lat="36.750679" lon="-5.210481">
        <ele>466.408</ele>
        <time>2015-06-21T15:24:19Z</time>
      </trkpt>
      <trkpt lat="36.750822" lon="-5.210354">
        <ele>466.492</ele>
        <time>2015-06-21T15:24:22Z</time>
      </trkpt>
      <trkpt lat="36.750914" lon="-5.210274">
        <ele>466.448</ele>
        <time>2015-06-21T15:24:24Z</time>
      </trkpt>
      <trkpt lat="36.751060" lon="-5.210165">
        <ele>466.481</ele>
        <time>2015-06-21T15:24:27Z</time>
      </trkpt>
      <trkpt lat="36.751150" lon="-5.210073">
        <ele>466.481</ele>
        <time>2015-06-21T15:24:29Z</time>
      </trkpt>
      <trkpt lat="36.751245" lon="-5.209997">
        <ele>466.475</ele>
        <time>2015-06-21T15:24:31Z</time>
      </trkpt>
      <trkpt lat="36.751401" lon="-5.209877">
        <ele>466.482</ele>
        <time>2015-06-21T15:24:34Z</time>
      </trkpt>
      <trkpt lat="36.751663" lon="-5.209671">
        <ele>466.471</ele>
        <time>2015-06-21T15:24:39Z</time>
      </trkpt>
      <trkpt lat="36.751710" lon="-5.209629">
        <ele>466.453</ele>
        <time>2015-06-21T15:24:40Z</time>
      </trkpt>
      <trkpt lat="36.751901" lon="-5.209490">
        <ele>466.482</ele>
        <time>2015-06-21T15:24:44Z</time>
      </trkpt>
      <trkpt lat="36.751990" lon="-5.209439">
        <ele>466.443</ele>
        <time>2015-06-21T15:24:46Z</time>
      </trkpt>
      <trkpt lat="36.752115" lon="-5.209339">
        <ele>466.417</ele>
        <time>2015-06-21T15:24:49Z</time>
      </trkpt>
      <trkpt lat="36.752195" lon="-5.209264">
        <ele>466.408</ele>
        <time>2015-06-21T15:24:51Z</time>
      </trkpt>
      <trkpt lat="36.752459" lon="-5.209052">
        <ele>466.479</ele>
        <time>2015-06-21T15:24:57Z</time>
      </trkpt>
      <trkpt lat="36.752909" lon="-5.208706">
        <ele>466.465</ele>
        <time>2015-06-21T15:25:07Z</time>
      </trkpt>
      <trkpt lat="36.752950" lon="-5.208673">
        <ele>465.848</ele>
        <time>2015-06-21T15:25:08Z</time>
      </trkpt>
      <trkpt lat="36.752987" lon="-5.208641">
        <ele>465.478</ele>
        <time>2015-06-21T15:25:09Z</time>
      </trkpt>
      <trkpt lat="36.753011" lon="-5.208611">
        <ele>464.442</ele>
        <time>2015-06-21T15:25:10Z</time>
      </trkpt>
      <trkpt lat="36.753028" lon="-5.208581">
        <ele>463.849</ele>
        <time>2015-06-21T15:25:11Z</time>
      </trkpt>
      <trkpt lat="36.753033" lon="-5.208508">
        <ele>463.838</ele>
        <time>2015-06-21T15:25:13Z</time>
      </trkpt>
      <trkpt lat="36.753014" lon="-5.208472">
        <ele>463.820</ele>
        <time>2015-06-21T15:25:14Z</time>
      </trkpt>
      <trkpt lat="36.752989" lon="-5.208272">
        <ele>463.855</ele>
        <time>2015-06-21T15:25:18Z</time>
      </trkpt>
      <trkpt lat="36.753000" lon="-5.208197">
        <ele>463.807</ele>
        <time>2015-06-21T15:25:19Z</time>
      </trkpt>
      <trkpt lat="36.753046" lon="-5.208039">
        <ele>463.817</ele>
        <time>2015-06-21T15:25:21Z</time>
      </trkpt>
      <trkpt lat="36.753215" lon="-5.207450">
        <ele>463.808</ele>
        <time>2015-06-21T15:25:28Z</time>
      </trkpt>
      <trkpt lat="36.753251" lon="-5.207320">
        <ele>463.426</ele>
        <time>2015-06-21T15:25:30Z</time>
      </trkpt>
      <trkpt lat="36.753263" lon="-5.207253">
        <ele>463.012</ele>
        <time>2015-06-21T15:25:31Z</time>
      </trkpt>
      <trkpt lat="36.753276" lon="-5.207185">
        <ele>462.675</ele>
        <time>2015-06-21T15:25:32Z</time>
      </trkpt>
      <trkpt lat="36.753286" lon="-5.207115">
        <ele>462.275</ele>
        <time>2015-06-21T15:25:33Z</time>
      </trkpt>
      <trkpt lat="36.753295" lon="-5.207043">
        <ele>461.839</ele>
        <time>2015-06-21T15:25:34Z</time>
      </trkpt>
      <trkpt lat="36.753315" lon="-5.206846">
        <ele>461.886</ele>
        <time>2015-06-21T15:25:37Z</time>
      </trkpt>
      <trkpt lat="36.753332" lon="-5.206733">
        <ele>461.825</ele>
        <time>2015-06-21T15:25:39Z</time>
      </trkpt>
      <trkpt lat="36.753354" lon="-5.206631">
        <ele>461.897</ele>
        <time>2015-06-21T15:25:41Z</time>
      </trkpt>
      <trkpt lat="36.753411" lon="-5.206512">
        <ele>461.865</ele>
        <time>2015-06-21T15:25:44Z</time>
      </trkpt>
      <trkpt lat="36.753567" lon="-5.206314">
        <ele>465.068</ele>
        <time>2015-06-21T15:29:24Z</time>
      </trkpt>
      <trkpt lat="36.753567" lon="-5.206314">
        <ele>465.014</ele>
        <time>2015-06-21T15:29:25Z</time>
      </trkpt>
      <trkpt lat="36.753572" lon="-5.206321">
        <ele>465.008</ele>
        <time>2015-06-21T15:29:38Z</time>
      </trkpt>
      <trkpt lat="36.753572" lon="-5.206321">
        <ele>465.077</ele>
        <time>2015-06-21T15:29:45Z</time>
      </trkpt>
      <trkpt lat="36.753572" lon="-5.206321">
        <ele>465.073</ele>
        <time>2015-06-21T15:29:51Z</time>
      </trkpt>
      <trkpt lat="36.753572" lon="-5.206321">
        <ele>465.096</ele>
        <time>2015-06-21T15:30:02Z</time>
      </trkpt>
      <trkpt lat="36.753572" lon="-5.206321">
        <ele>465.096</ele>
        <time>2015-06-21T15:30:12Z</time>
      </trkpt>
      <trkpt lat="36.753572" lon="-5.206321">
        <ele>465.030</ele>
        <time>2015-06-21T15:30:15Z</time>
      </trkpt>
      <trkpt lat="36.753573" lon="-5.206319">
        <ele>465.017</ele>
        <time>2015-06-21T15:30:19Z</time>
      </trkpt>
      <trkpt lat="36.753573" lon="-5.206319">
        <ele>465.026</ele>
        <time>2015-06-21T15:30:24Z</time>
      </trkpt>
      <trkpt lat="36.753573" lon="-5.206319">
        <ele>465.038</ele>
        <time>2015-06-21T15:30:28Z</time>
      </trkpt>
      <trkpt lat="36.753573" lon="-5.206319">
        <ele>465.017</ele>
        <time>2015-06-21T15:30:29Z</time>
      </trkpt>
      <trkpt lat="36.753573" lon="-5.206319">
        <ele>465.087</ele>
        <time>2015-06-21T15:30:32Z</time>
      </trkpt>
      <trkpt lat="36.753573" lon="-5.206319">
        <ele>465.015</ele>
        <time>2015-06-21T15:30:35Z</time>
      </trkpt>
      <trkpt lat="36.753573" lon="-5.206319">
        <ele>465.008</ele>
        <time>2015-06-21T15:30:40Z</time>
      </trkpt>
      <trkpt lat="36.753572" lon="-5.206318">
        <ele>465.032</ele>
        <time>2015-06-21T15:30:44Z</time>
      </trkpt>
      <trkpt lat="36.753563" lon="-5.206285">
        <ele>465.068</ele>
        <time>2015-06-21T15:30:46Z</time>
      </trkpt>
      <trkpt lat="36.753566" lon="-5.206238">
        <ele>465.091</ele>
        <time>2015-06-21T15:30:48Z</time>
      </trkpt>
      <trkpt lat="36.753592" lon="-5.206165">
        <ele>465.031</ele>
        <time>2015-06-21T15:30:51Z</time>
      </trkpt>
      <trkpt lat="36.753599" lon="-5.206147">
        <ele>465.095</ele>
        <time>2015-06-21T15:30:52Z</time>
      </trkpt>
      <trkpt lat="36.753645" lon="-5.206023">
        <ele>465.012</ele>
        <time>2015-06-21T15:30:58Z</time>
      </trkpt>
      <trkpt lat="36.753706" lon="-5.205842">
        <ele>465.061</ele>
        <time>2015-06-21T15:31:05Z</time>
      </trkpt>
      <trkpt lat="36.753777" lon="-5.205685">
        <ele>465.043</ele>
        <time>2015-06-21T15:31:11Z</time>
      </trkpt>
      <trkpt lat="36.753892" lon="-5.205476">
        <ele>465.065</ele>
        <time>2015-06-21T15:31:17Z</time>
      </trkpt>
      <trkpt lat="36.754071" lon="-5.205215">
        <ele>465.068</ele>
        <time>2015-06-21T15:31:25Z</time>
      </trkpt>
      <trkpt lat="36.754218" lon="-5.204990">
        <ele>465.014</ele>
        <time>2015-06-21T15:31:32Z</time>
      </trkpt>
      <trkpt lat="36.754318" lon="-5.204761">
        <ele>465.008</ele>
        <time>2015-06-21T15:31:38Z</time>
      </trkpt>
      <trkpt lat="36.754349" lon="-5.204725">
        <ele>465.027</ele>
        <time>2015-06-21T15:31:39Z</time>
      </trkpt>
      <trkpt lat="36.754450" lon="-5.204625">
        <ele>465.073</ele>
        <time>2015-06-21T15:31:42Z</time>
      </trkpt>
      <trkpt lat="36.754589" lon="-5.204518">
        <ele>465.016</ele>
        <time>2015-06-21T15:31:46Z</time>
      </trkpt>
      <trkpt lat="36.754748" lon="-5.204363">
        <ele>465.086</ele>
        <time>2015-06-21T15:31:52Z</time>
      </trkpt>
      <trkpt lat="36.754809" lon="-5.204166">
        <ele>465.030</ele>
        <time>2015-06-21T15:31:57Z</time>
      </trkpt>
      <trkpt lat="36.754787" lon="-5.203953">
        <ele>465.077</ele>
        <time>2015-06-21T15:32:02Z</time>
      </trkpt>
      <trkpt lat="36.754710" lon="-5.203651">
        <ele>465.036</ele>
        <time>2015-06-21T15:32:10Z</time>
      </trkpt>
      <trkpt lat="36.754658" lon="-5.203458">
        <ele>465.498</ele>
        <time>2015-06-21T15:32:16Z</time>
      </trkpt>
      <trkpt lat="36.754657" lon="-5.203427">
        <ele>465.858</ele>
        <time>2015-06-21T15:32:17Z</time>
      </trkpt>
      <trkpt lat="36.754653" lon="-5.203397">
        <ele>466.652</ele>
        <time>2015-06-21T15:32:18Z</time>
      </trkpt>
      <trkpt lat="36.754648" lon="-5.203367">
        <ele>467.017</ele>
        <time>2015-06-21T15:32:19Z</time>
      </trkpt>
      <trkpt lat="36.754614" lon="-5.203287">
        <ele>467.008</ele>
        <time>2015-06-21T15:32:22Z</time>
      </trkpt>
      <trkpt lat="36.754602" lon="-5.203260">
        <ele>467.096</ele>
        <time>2015-06-21T15:32:23Z</time>
      </trkpt>
      <trkpt lat="36.754560" lon="-5.203120">
        <ele>467.092</ele>
        <time>2015-06-21T15:32:28Z</time>
      </trkpt>
      <trkpt lat="36.754545" lon="-5.203067">
        <ele>467.455</ele>
        <time>2015-06-21T15:32:30Z</time>
      </trkpt>
      <trkpt lat="36.754537" lon="-5.203044">
        <ele>467.855</ele>
        <time>2015-06-21T15:32:31Z</time>
      </trkpt>
      <trkpt lat="36.754530" lon="-5.203020">
        <ele>468.249</ele>
        <time>2015-06-21T15:32:32Z</time>
      </trkpt>
      <trkpt lat="36.754524" lon="-5.202991">
        <ele>468.626</ele>
        <time>2015-06-21T15:32:33Z</time>
      </trkpt>
      <trkpt lat="36.754522" lon="-5.202958">
        <ele>469.055</ele>
        <time>2015-06-21T15:32:34Z</time>
      </trkpt>
      <trkpt lat="36.754522" lon="-5.202863">
        <ele>469.067</ele>
        <time>2015-06-21T15:32:37Z</time>
      </trkpt>
      <trkpt lat="36.754495" lon="-5.202654">
        <ele>469.075</ele>
        <time>2015-06-21T15:32:44Z</time>
      </trkpt>
      <trkpt lat="36.754506" lon="-5.202426">
        <ele>469.428</ele>
        <time>2015-06-21T15:32:51Z</time>
      </trkpt>
      <trkpt lat="36.754509" lon="-5.202393">
        <ele>469.820</ele>
        <time>2015-06-21T15:32:52Z</time>
      </trkpt>
      <trkpt lat="36.754513" lon="-5.202360">
        <ele>470.208</ele>
        <time>2015-06-21T15:32:53Z</time>
      </trkpt>
      <trkpt lat="36.754515" lon="-5.202326">
        <ele>470.628</ele>
        <time>2015-06-21T15:32:54Z</time>
      </trkpt>
      <trkpt lat="36.754517" lon="-5.202291">
        <ele>471.074</ele>
        <time>2015-06-21T15:32:55Z</time>
      </trkpt>
      <trkpt lat="36.754521" lon="-5.202115">
        <ele>471.047</ele>
        <time>2015-06-21T15:33:00Z</time>
      </trkpt>
      <trkpt lat="36.754555" lon="-5.201825">
        <ele>471.057</ele>
        <time>2015-06-21T15:33:08Z</time>
      </trkpt>
      <trkpt lat="36.754573" lon="-5.201525">
        <ele>471.091</ele>
        <time>2015-06-21T15:33:16Z</time>
      </trkpt>
      <trkpt lat="36.754579" lon="-5.201489">
        <ele>471.078</ele>
        <time>2015-06-21T15:33:17Z</time>
      </trkpt>
      <trkpt lat="36.754582" lon="-5.201417">
        <ele>471.077</ele>
        <time>2015-06-21T15:33:19Z</time>
      </trkpt>
      <trkpt lat="36.754579" lon="-5.201347">
        <ele>471.429</ele>
        <time>2015-06-21T15:33:21Z</time>
      </trkpt>
      <trkpt lat="36.754575" lon="-5.201313">
        <ele>471.851</ele>
        <time>2015-06-21T15:33:22Z</time>
      </trkpt>
      <trkpt lat="36.754573" lon="-5.201279">
        <ele>472.201</ele>
        <time>2015-06-21T15:33:23Z</time>
      </trkpt>
      <trkpt lat="36.754569" lon="-5.201245">
        <ele>472.611</ele>
        <time>2015-06-21T15:33:24Z</time>
      </trkpt>
      <trkpt lat="36.754563" lon="-5.201212">
        <ele>473.008</ele>
        <time>2015-06-21T15:33:25Z</time>
      </trkpt>
      <trkpt lat="36.754525" lon="-5.200955">
        <ele>473.026</ele>
        <time>2015-06-21T15:33:33Z</time>
      </trkpt>
      <trkpt lat="36.754522" lon="-5.200766">
        <ele>473.062</ele>
        <time>2015-06-21T15:33:38Z</time>
      </trkpt>
      <trkpt lat="36.754529" lon="-5.200619">
        <ele>473.055</ele>
        <time>2015-06-21T15:33:42Z</time>
      </trkpt>
      <trkpt lat="36.754528" lon="-5.200549">
        <ele>473.095</ele>
        <time>2015-06-21T15:33:44Z</time>
      </trkpt>
      <trkpt lat="36.754534" lon="-5.200420">
        <ele>473.669</ele>
        <time>2015-06-21T15:33:48Z</time>
      </trkpt>
      <trkpt lat="36.754530" lon="-5.200389">
        <ele>474.046</ele>
        <time>2015-06-21T15:33:49Z</time>
      </trkpt>
      <trkpt lat="36.754524" lon="-5.200356">
        <ele>474.465</ele>
        <time>2015-06-21T15:33:50Z</time>
      </trkpt>
      <trkpt lat="36.754520" lon="-5.200322">
        <ele>474.887</ele>
        <time>2015-06-21T15:33:51Z</time>
      </trkpt>
      <trkpt lat="36.754517" lon="-5.200289">
        <ele>475.291</ele>
        <time>2015-06-21T15:33:52Z</time>
      </trkpt>
      <trkpt lat="36.754500" lon="-5.200137">
        <ele>475.281</ele>
        <time>2015-06-21T15:33:58Z</time>
      </trkpt>
      <trkpt lat="36.754459" lon="-5.199987">
        <ele>475.219</ele>
        <time>2015-06-21T15:34:05Z</time>
      </trkpt>
      <trkpt lat="36.754452" lon="-5.199967">
        <ele>475.608</ele>
        <time>2015-06-21T15:34:06Z</time>
      </trkpt>
      <trkpt lat="36.754445" lon="-5.199946">
        <ele>476.030</ele>
        <time>2015-06-21T15:34:07Z</time>
      </trkpt>
      <trkpt lat="36.754439" lon="-5.199925">
        <ele>476.466</ele>
        <time>2015-06-21T15:34:08Z</time>
      </trkpt>
      <trkpt lat="36.754431" lon="-5.199907">
        <ele>476.879</ele>
        <time>2015-06-21T15:34:09Z</time>
      </trkpt>
      <trkpt lat="36.754424" lon="-5.199891">
        <ele>477.219</ele>
        <time>2015-06-21T15:34:10Z</time>
      </trkpt>
      <trkpt lat="36.754403" lon="-5.199839">
        <ele>477.233</ele>
        <time>2015-06-21T15:34:13Z</time>
      </trkpt>
      <trkpt lat="36.754371" lon="-5.199761">
        <ele>477.250</ele>
        <time>2015-06-21T15:34:17Z</time>
      </trkpt>
      <trkpt lat="36.754350" lon="-5.199706">
        <ele>477.249</ele>
        <time>2015-06-21T15:34:20Z</time>
      </trkpt>
      <trkpt lat="36.754342" lon="-5.199688">
        <ele>477.651</ele>
        <time>2015-06-21T15:34:21Z</time>
      </trkpt>
      <trkpt lat="36.754335" lon="-5.199670">
        <ele>478.693</ele>
        <time>2015-06-21T15:34:22Z</time>
      </trkpt>
      <trkpt lat="36.754329" lon="-5.199650">
        <ele>479.065</ele>
        <time>2015-06-21T15:34:23Z</time>
      </trkpt>
      <trkpt lat="36.754325" lon="-5.199631">
        <ele>479.421</ele>
        <time>2015-06-21T15:34:24Z</time>
      </trkpt>
      <trkpt lat="36.754296" lon="-5.199556">
        <ele>479.408</ele>
        <time>2015-06-21T15:34:28Z</time>
      </trkpt>
      <trkpt lat="36.754277" lon="-5.199504">
        <ele>479.850</ele>
        <time>2015-06-21T15:34:31Z</time>
      </trkpt>
      <trkpt lat="36.754272" lon="-5.199489">
        <ele>480.216</ele>
        <time>2015-06-21T15:34:32Z</time>
      </trkpt>
      <trkpt lat="36.754267" lon="-5.199471">
        <ele>480.619</ele>
        <time>2015-06-21T15:34:33Z</time>
      </trkpt>
      <trkpt lat="36.754257" lon="-5.199455">
        <ele>481.019</ele>
        <time>2015-06-21T15:34:34Z</time>
      </trkpt>
      <trkpt lat="36.754249" lon="-5.199440">
        <ele>481.443</ele>
        <time>2015-06-21T15:34:35Z</time>
      </trkpt>
      <trkpt lat="36.754243" lon="-5.199424">
        <ele>481.490</ele>
        <time>2015-06-21T15:34:36Z</time>
      </trkpt>
      <trkpt lat="36.754224" lon="-5.199369">
        <ele>481.499</ele>
        <time>2015-06-21T15:34:39Z</time>
      </trkpt>
      <trkpt lat="36.754218" lon="-5.199350">
        <ele>481.821</ele>
        <time>2015-06-21T15:34:40Z</time>
      </trkpt>
      <trkpt lat="36.754213" lon="-5.199333">
        <ele>482.245</ele>
        <time>2015-06-21T15:34:41Z</time>
      </trkpt>
      <trkpt lat="36.754208" lon="-5.199315">
        <ele>482.647</ele>
        <time>2015-06-21T15:34:42Z</time>
      </trkpt>
      <trkpt lat="36.754202" lon="-5.199296">
        <ele>483.011</ele>
        <time>2015-06-21T15:34:43Z</time>
      </trkpt>
      <trkpt lat="36.754196" lon="-5.199280">
        <ele>483.408</ele>
        <time>2015-06-21T15:34:44Z</time>
      </trkpt>
      <trkpt lat="36.754190" lon="-5.199262">
        <ele>483.415</ele>
        <time>2015-06-21T15:34:45Z</time>
      </trkpt>
      <trkpt lat="36.754184" lon="-5.199220">
        <ele>483.491</ele>
        <time>2015-06-21T15:34:47Z</time>
      </trkpt>
      <trkpt lat="36.754190" lon="-5.199152">
        <ele>483.414</ele>
        <time>2015-06-21T15:34:50Z</time>
      </trkpt>
      <trkpt lat="36.754142" lon="-5.199061">
        <ele>483.474</ele>
        <time>2015-06-21T15:34:55Z</time>
      </trkpt>
      <trkpt lat="36.754122" lon="-5.198983">
        <ele>483.858</ele>
        <time>2015-06-21T15:34:58Z</time>
      </trkpt>
      <trkpt lat="36.754115" lon="-5.198957">
        <ele>484.275</ele>
        <time>2015-06-21T15:34:59Z</time>
      </trkpt>
      <trkpt lat="36.754107" lon="-5.198929">
        <ele>484.644</ele>
        <time>2015-06-21T15:35:00Z</time>
      </trkpt>
      <trkpt lat="36.754098" lon="-5.198895">
        <ele>485.266</ele>
        <time>2015-06-21T15:35:01Z</time>
      </trkpt>
      <trkpt lat="36.754092" lon="-5.198862">
        <ele>485.654</ele>
        <time>2015-06-21T15:35:02Z</time>
      </trkpt>
      <trkpt lat="36.754089" lon="-5.198830">
        <ele>485.656</ele>
        <time>2015-06-21T15:35:03Z</time>
      </trkpt>
      <trkpt lat="36.754084" lon="-5.198796">
        <ele>485.611</ele>
        <time>2015-06-21T15:35:04Z</time>
      </trkpt>
      <trkpt lat="36.754045" lon="-5.198556">
        <ele>485.608</ele>
        <time>2015-06-21T15:35:11Z</time>
      </trkpt>
      <trkpt lat="36.754038" lon="-5.198488">
        <ele>486.056</ele>
        <time>2015-06-21T15:35:13Z</time>
      </trkpt>
      <trkpt lat="36.754034" lon="-5.198457">
        <ele>486.442</ele>
        <time>2015-06-21T15:35:14Z</time>
      </trkpt>
      <trkpt lat="36.754028" lon="-5.198425">
        <ele>487.035</ele>
        <time>2015-06-21T15:35:15Z</time>
      </trkpt>
      <trkpt lat="36.754021" lon="-5.198393">
        <ele>487.435</ele>
        <time>2015-06-21T15:35:16Z</time>
      </trkpt>
      <trkpt lat="36.754017" lon="-5.198359">
        <ele>487.899</ele>
        <time>2015-06-21T15:35:17Z</time>
      </trkpt>
      <trkpt lat="36.754015" lon="-5.198324">
        <ele>487.886</ele>
        <time>2015-06-21T15:35:18Z</time>
      </trkpt>
      <trkpt lat="36.753978" lon="-5.198082">
        <ele>487.855</ele>
        <time>2015-06-21T15:35:25Z</time>
      </trkpt>
      <trkpt lat="36.753940" lon="-5.197879">
        <ele>487.887</ele>
        <time>2015-06-21T15:35:31Z</time>
      </trkpt>
      <trkpt lat="36.753935" lon="-5.197844">
        <ele>487.876</ele>
        <time>2015-06-21T15:35:32Z</time>
      </trkpt>
      <trkpt lat="36.753892" lon="-5.197606">
        <ele>487.890</ele>
        <time>2015-06-21T15:35:39Z</time>
      </trkpt>
      <trkpt lat="36.753831" lon="-5.197288">
        <ele>487.819</ele>
        <time>2015-06-21T15:35:48Z</time>
      </trkpt>
      <trkpt lat="36.753802" lon="-5.197152">
        <ele>488.208</ele>
        <time>2015-06-21T15:35:52Z</time>
      </trkpt>
      <trkpt lat="36.753795" lon="-5.197119">
        <ele>488.648</ele>
        <time>2015-06-21T15:35:53Z</time>
      </trkpt>
      <trkpt lat="36.753788" lon="-5.197085">
        <ele>489.084</ele>
        <time>2015-06-21T15:35:54Z</time>
      </trkpt>
      <trkpt lat="36.753782" lon="-5.197050">
        <ele>489.477</ele>
        <time>2015-06-21T15:35:55Z</time>
      </trkpt>
      <trkpt lat="36.753775" lon="-5.197017">
        <ele>489.837</ele>
        <time>2015-06-21T15:35:56Z</time>
      </trkpt>
      <trkpt lat="36.753767" lon="-5.196983">
        <ele>489.851</ele>
        <time>2015-06-21T15:35:57Z</time>
      </trkpt>
      <trkpt lat="36.753727" lon="-5.196736">
        <ele>489.828</ele>
        <time>2015-06-21T15:36:04Z</time>
      </trkpt>
      <trkpt lat="36.753669" lon="-5.196476">
        <ele>489.827</ele>
        <time>2015-06-21T15:36:11Z</time>
      </trkpt>
      <trkpt lat="36.753624" lon="-5.196213">
        <ele>489.849</ele>
        <time>2015-06-21T15:36:18Z</time>
      </trkpt>
      <trkpt lat="36.753562" lon="-5.195956">
        <ele>490.259</ele>
        <time>2015-06-21T15:36:25Z</time>
      </trkpt>
      <trkpt lat="36.753556" lon="-5.195920">
        <ele>490.603</ele>
        <time>2015-06-21T15:36:26Z</time>
      </trkpt>
      <trkpt lat="36.753541" lon="-5.195896">
        <ele>491.623</ele>
        <time>2015-06-21T15:36:27Z</time>
      </trkpt>
      <trkpt lat="36.753523" lon="-5.195876">
        <ele>492.008</ele>
        <time>2015-06-21T15:36:28Z</time>
      </trkpt>
      <trkpt lat="36.753512" lon="-5.195854">
        <ele>492.076</ele>
        <time>2015-06-21T15:36:29Z</time>
      </trkpt>
      <trkpt lat="36.753494" lon="-5.195783">
        <ele>492.012</ele>
        <time>2015-06-21T15:36:32Z</time>
      </trkpt>
      <trkpt lat="36.753467" lon="-5.195743">
        <ele>492.075</ele>
        <time>2015-06-21T15:36:34Z</time>
      </trkpt>
      <trkpt lat="36.753419" lon="-5.195673">
        <ele>492.035</ele>
        <time>2015-06-21T15:36:39Z</time>
      </trkpt>
      <trkpt lat="36.753412" lon="-5.195618">
        <ele>492.019</ele>
        <time>2015-06-21T15:36:46Z</time>
      </trkpt>
      <trkpt lat="36.753412" lon="-5.195618">
        <ele>492.076</ele>
        <time>2015-06-21T15:36:51Z</time>
      </trkpt>
      <trkpt lat="36.753412" lon="-5.195618">
        <ele>492.085</ele>
        <time>2015-06-21T15:36:54Z</time>
      </trkpt>
      <trkpt lat="36.753412" lon="-5.195618">
        <ele>492.017</ele>
        <time>2015-06-21T15:37:01Z</time>
      </trkpt>
      <trkpt lat="36.753412" lon="-5.195618">
        <ele>492.043</ele>
        <time>2015-06-21T15:37:06Z</time>
      </trkpt>
      <trkpt lat="36.753412" lon="-5.195618">
        <ele>492.064</ele>
        <time>2015-06-21T15:37:08Z</time>
      </trkpt>
      <trkpt lat="36.753412" lon="-5.195618">
        <ele>492.010</ele>
        <time>2015-06-21T15:37:10Z</time>
      </trkpt>
      <trkpt lat="36.753412" lon="-5.195618">
        <ele>492.008</ele>
        <time>2015-06-21T15:37:12Z</time>
      </trkpt>
      <trkpt lat="36.753412" lon="-5.195618">
        <ele>492.085</ele>
        <time>2015-06-21T15:37:13Z</time>
      </trkpt>
      <trkpt lat="36.753412" lon="-5.195618">
        <ele>492.021</ele>
        <time>2015-06-21T15:37:17Z</time>
      </trkpt>
      <trkpt lat="36.753412" lon="-5.195618">
        <ele>492.084</ele>
        <time>2015-06-21T15:37:20Z</time>
      </trkpt>
      <trkpt lat="36.753414" lon="-5.195619">
        <ele>492.024</ele>
        <time>2015-06-21T15:37:33Z</time>
      </trkpt>
      <trkpt lat="36.753414" lon="-5.195619">
        <ele>492.028</ele>
        <time>2015-06-21T15:37:35Z</time>
      </trkpt>
      <trkpt lat="36.753414" lon="-5.195619">
        <ele>492.055</ele>
        <time>2015-06-21T15:37:40Z</time>
      </trkpt>
      <trkpt lat="36.753414" lon="-5.195619">
        <ele>492.024</ele>
        <time>2015-06-21T15:37:42Z</time>
      </trkpt>
      <trkpt lat="36.753414" lon="-5.195619">
        <ele>492.076</ele>
        <time>2015-06-21T15:37:45Z</time>
      </trkpt>
      <trkpt lat="36.753441" lon="-5.195652">
        <ele>492.082</ele>
        <time>2015-06-21T15:37:50Z</time>
      </trkpt>
      <trkpt lat="36.753453" lon="-5.195666">
        <ele>492.043</ele>
        <time>2015-06-21T15:37:51Z</time>
      </trkpt>
      <trkpt lat="36.753490" lon="-5.195670">
        <ele>492.017</ele>
        <time>2015-06-21T15:37:54Z</time>
      </trkpt>
      <trkpt lat="36.753496" lon="-5.195661">
        <ele>492.008</ele>
        <time>2015-06-21T15:37:55Z</time>
      </trkpt>
      <trkpt lat="36.753467" lon="-5.195589">
        <ele>492.089</ele>
        <time>2015-06-21T15:37:59Z</time>
      </trkpt>
      <trkpt lat="36.753460" lon="-5.195567">
        <ele>492.095</ele>
        <time>2015-06-21T15:38:00Z</time>
      </trkpt>
      <trkpt lat="36.753417" lon="-5.195444">
        <ele>492.028</ele>
        <time>2015-06-21T15:38:05Z</time>
      </trkpt>
      <trkpt lat="36.753383" lon="-5.195363">
        <ele>492.018</ele>
        <time>2015-06-21T15:38:08Z</time>
      </trkpt>
      <trkpt lat="36.753345" lon="-5.195280">
        <ele>492.012</ele>
        <time>2015-06-21T15:38:11Z</time>
      </trkpt>
      <trkpt lat="36.753268" lon="-5.195085">
        <ele>492.029</ele>
        <time>2015-06-21T15:38:18Z</time>
      </trkpt>
      <trkpt lat="36.753202" lon="-5.194898">
        <ele>492.068</ele>
        <time>2015-06-21T15:38:24Z</time>
      </trkpt>
      <trkpt lat="36.753184" lon="-5.194836">
        <ele>492.090</ele>
        <time>2015-06-21T15:38:26Z</time>
      </trkpt>
      <trkpt lat="36.753171" lon="-5.194769">
        <ele>492.427</ele>
        <time>2015-06-21T15:38:28Z</time>
      </trkpt>
      <trkpt lat="36.753163" lon="-5.194736">
        <ele>492.868</ele>
        <time>2015-06-21T15:38:29Z</time>
      </trkpt>
      <trkpt lat="36.753157" lon="-5.194703">
        <ele>493.614</ele>
        <time>2015-06-21T15:38:30Z</time>
      </trkpt>
      <trkpt lat="36.753148" lon="-5.194670">
        <ele>494.008</ele>
        <time>2015-06-21T15:38:31Z</time>
      </trkpt>
      <trkpt lat="36.753118" lon="-5.194572">
        <ele>494.013</ele>
        <time>2015-06-21T15:38:34Z</time>
      </trkpt>
      <trkpt lat="36.753057" lon="-5.194387">
        <ele>494.089</ele>
        <time>2015-06-21T15:38:40Z</time>
      </trkpt>
      <trkpt lat="36.752993" lon="-5.194132">
        <ele>494.082</ele>
        <time>2015-06-21T15:38:48Z</time>
      </trkpt>
      <trkpt lat="36.752921" lon="-5.193909">
        <ele>494.042</ele>
        <time>2015-06-21T15:38:55Z</time>
      </trkpt>
      <trkpt lat="36.752855" lon="-5.193684">
        <ele>494.446</ele>
        <time>2015-06-21T15:39:02Z</time>
      </trkpt>
      <trkpt lat="36.752847" lon="-5.193650">
        <ele>494.863</ele>
        <time>2015-06-21T15:39:03Z</time>
      </trkpt>
      <trkpt lat="36.752838" lon="-5.193618">
        <ele>495.212</ele>
        <time>2015-06-21T15:39:04Z</time>
      </trkpt>
      <trkpt lat="36.752829" lon="-5.193587">
        <ele>495.694</ele>
        <time>2015-06-21T15:39:05Z</time>
      </trkpt>
      <trkpt lat="36.752819" lon="-5.193554">
        <ele>496.252</ele>
        <time>2015-06-21T15:39:06Z</time>
      </trkpt>
      <trkpt lat="36.752763" lon="-5.193395">
        <ele>496.253</ele>
        <time>2015-06-21T15:39:11Z</time>
      </trkpt>
      <trkpt lat="36.752708" lon="-5.193213">
        <ele>496.208</ele>
        <time>2015-06-21T15:39:17Z</time>
      </trkpt>
      <trkpt lat="36.752640" lon="-5.193006">
        <ele>496.208</ele>
        <time>2015-06-21T15:39:25Z</time>
      </trkpt>
      <trkpt lat="36.752619" lon="-5.192952">
        <ele>496.656</ele>
        <time>2015-06-21T15:39:27Z</time>
      </trkpt>
      <trkpt lat="36.752610" lon="-5.192922">
        <ele>497.062</ele>
        <time>2015-06-21T15:39:28Z</time>
      </trkpt>
      <trkpt lat="36.752600" lon="-5.192894">
        <ele>497.445</ele>
        <time>2015-06-21T15:39:29Z</time>
      </trkpt>
      <trkpt lat="36.752590" lon="-5.192868">
        <ele>497.875</ele>
        <time>2015-06-21T15:39:30Z</time>
      </trkpt>
      <trkpt lat="36.752581" lon="-5.192843">
        <ele>498.219</ele>
        <time>2015-06-21T15:39:31Z</time>
      </trkpt>
      <trkpt lat="36.752551" lon="-5.192730">
        <ele>498.226</ele>
        <time>2015-06-21T15:39:35Z</time>
      </trkpt>
      <trkpt lat="36.752475" lon="-5.192463">
        <ele>498.295</ele>
        <time>2015-06-21T15:39:44Z</time>
      </trkpt>
      <trkpt lat="36.752432" lon="-5.192318">
        <ele>498.267</ele>
        <time>2015-06-21T15:39:49Z</time>
      </trkpt>
      <trkpt lat="36.752408" lon="-5.192239">
        <ele>498.855</ele>
        <time>2015-06-21T15:39:52Z</time>
      </trkpt>
      <trkpt lat="36.752402" lon="-5.192213">
        <ele>499.207</ele>
        <time>2015-06-21T15:39:53Z</time>
      </trkpt>
      <trkpt lat="36.752394" lon="-5.192186">
        <ele>499.617</ele>
        <time>2015-06-21T15:39:54Z</time>
      </trkpt>
      <trkpt lat="36.752386" lon="-5.192160">
        <ele>500.008</ele>
        <time>2015-06-21T15:39:55Z</time>
      </trkpt>
      <trkpt lat="36.752381" lon="-5.192135">
        <ele>500.476</ele>
        <time>2015-06-21T15:39:56Z</time>
      </trkpt>
      <trkpt lat="36.752378" lon="-5.192113">
        <ele>500.432</ele>
        <time>2015-06-21T15:39:57Z</time>
      </trkpt>
      <trkpt lat="36.752410" lon="-5.192019">
        <ele>500.485</ele>
        <time>2015-06-21T15:40:02Z</time>
      </trkpt>
      <trkpt lat="36.752412" lon="-5.191998">
        <ele>500.465</ele>
        <time>2015-06-21T15:40:03Z</time>
      </trkpt>
      <trkpt lat="36.752395" lon="-5.191935">
        <ele>500.429</ele>
        <time>2015-06-21T15:40:07Z</time>
      </trkpt>
      <trkpt lat="36.752387" lon="-5.191919">
        <ele>500.416</ele>
        <time>2015-06-21T15:40:08Z</time>
      </trkpt>
      <trkpt lat="36.752339" lon="-5.191812">
        <ele>500.495</ele>
        <time>2015-06-21T15:40:13Z</time>
      </trkpt>
      <trkpt lat="36.752314" lon="-5.191755">
        <ele>500.857</ele>
        <time>2015-06-21T15:40:16Z</time>
      </trkpt>
      <trkpt lat="36.752305" lon="-5.191738">
        <ele>501.268</ele>
        <time>2015-06-21T15:40:17Z</time>
      </trkpt>
      <trkpt lat="36.752294" lon="-5.191719">
        <ele>501.842</ele>
        <time>2015-06-21T15:40:18Z</time>
      </trkpt>
      <trkpt lat="36.752284" lon="-5.191703">
        <ele>502.226</ele>
        <time>2015-06-21T15:40:19Z</time>
      </trkpt>
      <trkpt lat="36.752276" lon="-5.191688">
        <ele>502.608</ele>
        <time>2015-06-21T15:40:20Z</time>
      </trkpt>
      <trkpt lat="36.752224" lon="-5.191602">
        <ele>502.637</ele>
        <time>2015-06-21T15:40:25Z</time>
      </trkpt>
      <trkpt lat="36.752171" lon="-5.191465">
        <ele>502.663</ele>
        <time>2015-06-21T15:40:31Z</time>
      </trkpt>
      <trkpt lat="36.752155" lon="-5.191395">
        <ele>503.036</ele>
        <time>2015-06-21T15:40:34Z</time>
      </trkpt>
      <trkpt lat="36.752148" lon="-5.191373">
        <ele>503.476</ele>
        <time>2015-06-21T15:40:35Z</time>
      </trkpt>
      <trkpt lat="36.752141" lon="-5.191354">
        <ele>503.880</ele>
        <time>2015-06-21T15:40:36Z</time>
      </trkpt>
      <trkpt lat="36.752137" lon="-5.191332">
        <ele>504.227</ele>
        <time>2015-06-21T15:40:37Z</time>
      </trkpt>
      <trkpt lat="36.752132" lon="-5.191306">
        <ele>504.626</ele>
        <time>2015-06-21T15:40:38Z</time>
      </trkpt>
      <trkpt lat="36.752118" lon="-5.191176">
        <ele>504.678</ele>
        <time>2015-06-21T15:40:43Z</time>
      </trkpt>
      <trkpt lat="36.752092" lon="-5.191007">
        <ele>504.633</ele>
        <time>2015-06-21T15:40:50Z</time>
      </trkpt>
      <trkpt lat="36.752047" lon="-5.190890">
        <ele>504.623</ele>
        <time>2015-06-21T15:40:56Z</time>
      </trkpt>
      <trkpt lat="36.751972" lon="-5.190778">
        <ele>505.015</ele>
        <time>2015-06-21T15:41:03Z</time>
      </trkpt>
      <trkpt lat="36.751963" lon="-5.190769">
        <ele>505.408</ele>
        <time>2015-06-21T15:41:04Z</time>
      </trkpt>
      <trkpt lat="36.751951" lon="-5.190757">
        <ele>505.834</ele>
        <time>2015-06-21T15:41:05Z</time>
      </trkpt>
      <trkpt lat="36.751939" lon="-5.190743">
        <ele>506.230</ele>
        <time>2015-06-21T15:41:06Z</time>
      </trkpt>
      <trkpt lat="36.751924" lon="-5.190729">
        <ele>506.853</ele>
        <time>2015-06-21T15:41:07Z</time>
      </trkpt>
      <trkpt lat="36.751873" lon="-5.190698">
        <ele>506.823</ele>
        <time>2015-06-21T15:41:10Z</time>
      </trkpt>
      <trkpt lat="36.751797" lon="-5.190647">
        <ele>506.887</ele>
        <time>2015-06-21T15:41:16Z</time>
      </trkpt>
      <trkpt lat="36.751725" lon="-5.190559">
        <ele>506.864</ele>
        <time>2015-06-21T15:41:22Z</time>
      </trkpt>
      <trkpt lat="36.751717" lon="-5.190545">
        <ele>507.613</ele>
        <time>2015-06-21T15:41:23Z</time>
      </trkpt>
      <trkpt lat="36.751712" lon="-5.190531">
        <ele>508.035</ele>
        <time>2015-06-21T15:41:24Z</time>
      </trkpt>
      <trkpt lat="36.751705" lon="-5.190515">
        <ele>508.445</ele>
        <time>2015-06-21T15:41:25Z</time>
      </trkpt>
      <trkpt lat="36.751696" lon="-5.190500">
        <ele>508.847</ele>
        <time>2015-06-21T15:41:26Z</time>
      </trkpt>
      <trkpt lat="36.751686" lon="-5.190466">
        <ele>508.811</ele>
        <time>2015-06-21T15:41:28Z</time>
      </trkpt>
      <trkpt lat="36.751658" lon="-5.190364">
        <ele>508.808</ele>
        <time>2015-06-21T15:41:34Z</time>
      </trkpt>
      <trkpt lat="36.751658" lon="-5.190350">
        <ele>509.275</ele>
        <time>2015-06-21T15:41:35Z</time>
      </trkpt>
      <trkpt lat="36.751650" lon="-5.190339">
        <ele>509.641</ele>
        <time>2015-06-21T15:41:36Z</time>
      </trkpt>
      <trkpt lat="36.751645" lon="-5.190324">
        <ele>510.074</ele>
        <time>2015-06-21T15:41:37Z</time>
      </trkpt>
      <trkpt lat="36.751643" lon="-5.190308">
        <ele>510.474</ele>
        <time>2015-06-21T15:41:38Z</time>
      </trkpt>
      <trkpt lat="36.751641" lon="-5.190292">
        <ele>511.018</ele>
        <time>2015-06-21T15:41:39Z</time>
      </trkpt>
      <trkpt lat="36.751639" lon="-5.190271">
        <ele>511.035</ele>
        <time>2015-06-21T15:41:40Z</time>
      </trkpt>
      <trkpt lat="36.751636" lon="-5.190248">
        <ele>511.054</ele>
        <time>2015-06-21T15:41:41Z</time>
      </trkpt>
      <trkpt lat="36.751626" lon="-5.190137">
        <ele>511.046</ele>
        <time>2015-06-21T15:41:47Z</time>
      </trkpt>
      <trkpt lat="36.751621" lon="-5.190121">
        <ele>511.834</ele>
        <time>2015-06-21T15:41:48Z</time>
      </trkpt>
      <trkpt lat="36.751618" lon="-5.190106">
        <ele>512.255</ele>
        <time>2015-06-21T15:41:49Z</time>
      </trkpt>
      <trkpt lat="36.751614" lon="-5.190088">
        <ele>512.610</ele>
        <time>2015-06-21T15:41:50Z</time>
      </trkpt>
      <trkpt lat="36.751610" lon="-5.190070">
        <ele>513.008</ele>
        <time>2015-06-21T15:41:51Z</time>
      </trkpt>
      <trkpt lat="36.751592" lon="-5.189973">
        <ele>513.044</ele>
        <time>2015-06-21T15:41:56Z</time>
      </trkpt>
      <trkpt lat="36.751578" lon="-5.189889">
        <ele>513.080</ele>
        <time>2015-06-21T15:42:00Z</time>
      </trkpt>
      <trkpt lat="36.751575" lon="-5.189873">
        <ele>513.413</ele>
        <time>2015-06-21T15:42:01Z</time>
      </trkpt>
      <trkpt lat="36.751573" lon="-5.189858">
        <ele>513.823</ele>
        <time>2015-06-21T15:42:02Z</time>
      </trkpt>
      <trkpt lat="36.751571" lon="-5.189840">
        <ele>514.227</ele>
        <time>2015-06-21T15:42:03Z</time>
      </trkpt>
      <trkpt lat="36.751567" lon="-5.189824">
        <ele>514.624</ele>
        <time>2015-06-21T15:42:04Z</time>
      </trkpt>
      <trkpt lat="36.751567" lon="-5.189807">
        <ele>515.083</ele>
        <time>2015-06-21T15:42:05Z</time>
      </trkpt>
      <trkpt lat="36.751553" lon="-5.189665">
        <ele>515.055</ele>
        <time>2015-06-21T15:42:12Z</time>
      </trkpt>
      <trkpt lat="36.751552" lon="-5.189628">
        <ele>515.497</ele>
        <time>2015-06-21T15:42:14Z</time>
      </trkpt>
      <trkpt lat="36.751550" lon="-5.189609">
        <ele>515.823</ele>
        <time>2015-06-21T15:42:15Z</time>
      </trkpt>
      <trkpt lat="36.751555" lon="-5.189591">
        <ele>516.225</ele>
        <time>2015-06-21T15:42:16Z</time>
      </trkpt>
      <trkpt lat="36.751557" lon="-5.189572">
        <ele>516.608</ele>
        <time>2015-06-21T15:42:17Z</time>
      </trkpt>
      <trkpt lat="36.751558" lon="-5.189552">
        <ele>517.270</ele>
        <time>2015-06-21T15:42:18Z</time>
      </trkpt>
      <trkpt lat="36.751539" lon="-5.189413">
        <ele>517.256</ele>
        <time>2015-06-21T15:42:25Z</time>
      </trkpt>
      <trkpt lat="36.751525" lon="-5.189346">
        <ele>517.669</ele>
        <time>2015-06-21T15:42:29Z</time>
      </trkpt>
      <trkpt lat="36.751528" lon="-5.189333">
        <ele>518.019</ele>
        <time>2015-06-21T15:42:30Z</time>
      </trkpt>
      <trkpt lat="36.751529" lon="-5.189319">
        <ele>518.483</ele>
        <time>2015-06-21T15:42:31Z</time>
      </trkpt>
      <trkpt lat="36.751528" lon="-5.189304">
        <ele>518.830</ele>
        <time>2015-06-21T15:42:32Z</time>
      </trkpt>
      <trkpt lat="36.751526" lon="-5.189289">
        <ele>519.299</ele>
        <time>2015-06-21T15:42:33Z</time>
      </trkpt>
      <trkpt lat="36.751535" lon="-5.189232">
        <ele>519.211</ele>
        <time>2015-06-21T15:42:37Z</time>
      </trkpt>
      <trkpt lat="36.751543" lon="-5.189213">
        <ele>519.241</ele>
        <time>2015-06-21T15:42:38Z</time>
      </trkpt>
      <trkpt lat="36.751596" lon="-5.189132">
        <ele>519.281</ele>
        <time>2015-06-21T15:42:43Z</time>
      </trkpt>
      <trkpt lat="36.751597" lon="-5.189115">
        <ele>519.209</ele>
        <time>2015-06-21T15:42:44Z</time>
      </trkpt>
      <trkpt lat="36.751603" lon="-5.189097">
        <ele>519.808</ele>
        <time>2015-06-21T15:42:45Z</time>
      </trkpt>
      <trkpt lat="36.751610" lon="-5.189082">
        <ele>520.215</ele>
        <time>2015-06-21T15:42:46Z</time>
      </trkpt>
      <trkpt lat="36.751615" lon="-5.189068">
        <ele>520.631</ele>
        <time>2015-06-21T15:42:47Z</time>
      </trkpt>
      <trkpt lat="36.751623" lon="-5.189053">
        <ele>521.034</ele>
        <time>2015-06-21T15:42:48Z</time>
      </trkpt>
      <trkpt lat="36.751631" lon="-5.189038">
        <ele>521.664</ele>
        <time>2015-06-21T15:42:49Z</time>
      </trkpt>
      <trkpt lat="36.751646" lon="-5.188953">
        <ele>521.638</ele>
        <time>2015-06-21T15:42:53Z</time>
      </trkpt>
      <trkpt lat="36.751656" lon="-5.188899">
        <ele>522.055</ele>
        <time>2015-06-21T15:42:56Z</time>
      </trkpt>
      <trkpt lat="36.751658" lon="-5.188882">
        <ele>522.474</ele>
        <time>2015-06-21T15:42:57Z</time>
      </trkpt>
      <trkpt lat="36.751660" lon="-5.188861">
        <ele>522.886</ele>
        <time>2015-06-21T15:42:58Z</time>
      </trkpt>
      <trkpt lat="36.751663" lon="-5.188843">
        <ele>523.241</ele>
        <time>2015-06-21T15:42:59Z</time>
      </trkpt>
      <trkpt lat="36.751663" lon="-5.188827">
        <ele>523.681</ele>
        <time>2015-06-21T15:43:00Z</time>
      </trkpt>
      <trkpt lat="36.751643" lon="-5.188716">
        <ele>523.609</ele>
        <time>2015-06-21T15:43:06Z</time>
      </trkpt>
      <trkpt lat="36.751580" lon="-5.188588">
        <ele>523.608</ele>
        <time>2015-06-21T15:43:14Z</time>
      </trkpt>
      <trkpt lat="36.751574" lon="-5.188572">
        <ele>524.025</ele>
        <time>2015-06-21T15:43:15Z</time>
      </trkpt>
      <trkpt lat="36.751566" lon="-5.188562">
        <ele>524.461</ele>
        <time>2015-06-21T15:43:16Z</time>
      </trkpt>
      <trkpt lat="36.751558" lon="-5.188551">
        <ele>524.874</ele>
        <time>2015-06-21T15:43:17Z</time>
      </trkpt>
      <trkpt lat="36.751549" lon="-5.188542">
        <ele>525.244</ele>
        <time>2015-06-21T15:43:18Z</time>
      </trkpt>
      <trkpt lat="36.751539" lon="-5.188530">
        <ele>525.638</ele>
        <time>2015-06-21T15:43:19Z</time>
      </trkpt>
      <trkpt lat="36.751488" lon="-5.188467">
        <ele>525.685</ele>
        <time>2015-06-21T15:43:25Z</time>
      </trkpt>
      <trkpt lat="36.751425" lon="-5.188423">
        <ele>525.694</ele>
        <time>2015-06-21T15:43:32Z</time>
      </trkpt>
      <trkpt lat="36.751372" lon="-5.188375">
        <ele>526.076</ele>
        <time>2015-06-21T15:43:38Z</time>
      </trkpt>
      <trkpt lat="36.751365" lon="-5.188364">
        <ele>526.669</ele>
        <time>2015-06-21T15:43:39Z</time>
      </trkpt>
      <trkpt lat="36.751359" lon="-5.188354">
        <ele>527.004</ele>
        <time>2015-06-21T15:43:40Z</time>
      </trkpt>
      <trkpt lat="36.751353" lon="-5.188342">
        <ele>527.424</ele>
        <time>2015-06-21T15:43:41Z</time>
      </trkpt>
      <trkpt lat="36.751345" lon="-5.188333">
        <ele>527.808</ele>
        <time>2015-06-21T15:43:42Z</time>
      </trkpt>
      <trkpt lat="36.751315" lon="-5.188306">
        <ele>527.827</ele>
        <time>2015-06-21T15:43:45Z</time>
      </trkpt>
      <trkpt lat="36.751290" lon="-5.188266">
        <ele>527.893</ele>
        <time>2015-06-21T15:43:49Z</time>
      </trkpt>
      <trkpt lat="36.751283" lon="-5.188255">
        <ele>527.826</ele>
        <time>2015-06-21T15:43:50Z</time>
      </trkpt>
      <trkpt lat="36.751280" lon="-5.188242">
        <ele>528.626</ele>
        <time>2015-06-21T15:43:51Z</time>
      </trkpt>
      <trkpt lat="36.751276" lon="-5.188227">
        <ele>529.070</ele>
        <time>2015-06-21T15:43:52Z</time>
      </trkpt>
      <trkpt lat="36.751271" lon="-5.188214">
        <ele>529.497</ele>
        <time>2015-06-21T15:43:53Z</time>
      </trkpt>
      <trkpt lat="36.751265" lon="-5.188201">
        <ele>529.886</ele>
        <time>2015-06-21T15:43:54Z</time>
      </trkpt>
      <trkpt lat="36.751262" lon="-5.188187">
        <ele>529.828</ele>
        <time>2015-06-21T15:43:55Z</time>
      </trkpt>
      <trkpt lat="36.751256" lon="-5.188157">
        <ele>530.262</ele>
        <time>2015-06-21T15:43:57Z</time>
      </trkpt>
      <trkpt lat="36.751256" lon="-5.188144">
        <ele>530.683</ele>
        <time>2015-06-21T15:43:58Z</time>
      </trkpt>
      <trkpt lat="36.751259" lon="-5.188130">
        <ele>531.011</ele>
        <time>2015-06-21T15:43:59Z</time>
      </trkpt>
      <trkpt lat="36.751258" lon="-5.188113">
        <ele>531.408</ele>
        <time>2015-06-21T15:44:00Z</time>
      </trkpt>
      <trkpt lat="36.751259" lon="-5.188096">
        <ele>531.847</ele>
        <time>2015-06-21T15:44:01Z</time>
      </trkpt>
      <trkpt lat="36.751268" lon="-5.188060">
        <ele>531.853</ele>
        <time>2015-06-21T15:44:05Z</time>
      </trkpt>
      <trkpt lat="36.751271" lon="-5.188034">
        <ele>531.826</ele>
        <time>2015-06-21T15:44:07Z</time>
      </trkpt>
      <trkpt lat="36.751283" lon="-5.188002">
        <ele>532.426</ele>
        <time>2015-06-21T15:44:09Z</time>
      </trkpt>
      <trkpt lat="36.751287" lon="-5.187984">
        <ele>532.820</ele>
        <time>2015-06-21T15:44:10Z</time>
      </trkpt>
      <trkpt lat="36.751288" lon="-5.187969">
        <ele>533.267</ele>
        <time>2015-06-21T15:44:11Z</time>
      </trkpt>
      <trkpt lat="36.751290" lon="-5.187955">
        <ele>533.696</ele>
        <time>2015-06-21T15:44:12Z</time>
      </trkpt>
      <trkpt lat="36.751293" lon="-5.187941">
        <ele>534.088</ele>
        <time>2015-06-21T15:44:13Z</time>
      </trkpt>
      <trkpt lat="36.751298" lon="-5.187927">
        <ele>534.014</ele>
        <time>2015-06-21T15:44:14Z</time>
      </trkpt>
      <trkpt lat="36.751297" lon="-5.187912">
        <ele>534.054</ele>
        <time>2015-06-21T15:44:15Z</time>
      </trkpt>
      <trkpt lat="36.751301" lon="-5.187848">
        <ele>534.009</ele>
        <time>2015-06-21T15:44:20Z</time>
      </trkpt>
      <trkpt lat="36.751301" lon="-5.187813">
        <ele>534.408</ele>
        <time>2015-06-21T15:44:23Z</time>
      </trkpt>
      <trkpt lat="36.751299" lon="-5.187802">
        <ele>534.882</ele>
        <time>2015-06-21T15:44:24Z</time>
      </trkpt>
      <trkpt lat="36.751299" lon="-5.187790">
        <ele>535.438</ele>
        <time>2015-06-21T15:44:25Z</time>
      </trkpt>
      <trkpt lat="36.751297" lon="-5.187777">
        <ele>535.871</ele>
        <time>2015-06-21T15:44:26Z</time>
      </trkpt>
      <trkpt lat="36.751297" lon="-5.187761">
        <ele>536.251</ele>
        <time>2015-06-21T15:44:27Z</time>
      </trkpt>
      <trkpt lat="36.751294" lon="-5.187748">
        <ele>536.285</ele>
        <time>2015-06-21T15:44:28Z</time>
      </trkpt>
      <trkpt lat="36.751298" lon="-5.187705">
        <ele>536.232</ele>
        <time>2015-06-21T15:44:31Z</time>
      </trkpt>
      <trkpt lat="36.751300" lon="-5.187693">
        <ele>536.261</ele>
        <time>2015-06-21T15:44:32Z</time>
      </trkpt>
      <trkpt lat="36.751297" lon="-5.187664">
        <ele>536.643</ele>
        <time>2015-06-21T15:44:34Z</time>
      </trkpt>
      <trkpt lat="36.751294" lon="-5.187649">
        <ele>537.096</ele>
        <time>2015-06-21T15:44:35Z</time>
      </trkpt>
      <trkpt lat="36.751293" lon="-5.187636">
        <ele>537.431</ele>
        <time>2015-06-21T15:44:36Z</time>
      </trkpt>
      <trkpt lat="36.751294" lon="-5.187619">
        <ele>537.824</ele>
        <time>2015-06-21T15:44:37Z</time>
      </trkpt>
      <trkpt lat="36.751291" lon="-5.187606">
        <ele>538.208</ele>
        <time>2015-06-21T15:44:38Z</time>
      </trkpt>
      <trkpt lat="36.751284" lon="-5.187560">
        <ele>538.290</ele>
        <time>2015-06-21T15:44:42Z</time>
      </trkpt>
      <trkpt lat="36.751280" lon="-5.187547">
        <ele>538.296</ele>
        <time>2015-06-21T15:44:43Z</time>
      </trkpt>
      <trkpt lat="36.751270" lon="-5.187525">
        <ele>538.669</ele>
        <time>2015-06-21T15:44:45Z</time>
      </trkpt>
      <trkpt lat="36.751266" lon="-5.187515">
        <ele>539.059</ele>
        <time>2015-06-21T15:44:46Z</time>
      </trkpt>
      <trkpt lat="36.751262" lon="-5.187504">
        <ele>539.413</ele>
        <time>2015-06-21T15:44:47Z</time>
      </trkpt>
      <trkpt lat="36.751259" lon="-5.187497">
        <ele>539.840</ele>
        <time>2015-06-21T15:44:48Z</time>
      </trkpt>
      <trkpt lat="36.751259" lon="-5.187488">
        <ele>540.289</ele>
        <time>2015-06-21T15:44:49Z</time>
      </trkpt>
      <trkpt lat="36.751259" lon="-5.187484">
        <ele>540.261</ele>
        <time>2015-06-21T15:44:50Z</time>
      </trkpt>
      <trkpt lat="36.751242" lon="-5.187444">
        <ele>540.269</ele>
        <time>2015-06-21T15:44:56Z</time>
      </trkpt>
      <trkpt lat="36.751238" lon="-5.187437">
        <ele>540.604</ele>
        <time>2015-06-21T15:44:57Z</time>
      </trkpt>
      <trkpt lat="36.751234" lon="-5.187429">
        <ele>541.024</ele>
        <time>2015-06-21T15:44:58Z</time>
      </trkpt>
      <trkpt lat="36.751227" lon="-5.187414">
        <ele>541.408</ele>
        <time>2015-06-21T15:44:59Z</time>
      </trkpt>
      <trkpt lat="36.751220" lon="-5.187402">
        <ele>541.877</ele>
        <time>2015-06-21T15:45:00Z</time>
      </trkpt>
      <trkpt lat="36.751212" lon="-5.187393">
        <ele>542.273</ele>
        <time>2015-06-21T15:45:01Z</time>
      </trkpt>
      <trkpt lat="36.751198" lon="-5.187372">
        <ele>542.266</ele>
        <time>2015-06-21T15:45:03Z</time>
      </trkpt>
      <trkpt lat="36.751155" lon="-5.187289">
        <ele>542.216</ele>
        <time>2015-06-21T15:45:09Z</time>
      </trkpt>
      <trkpt lat="36.751131" lon="-5.187261">
        <ele>542.630</ele>
        <time>2015-06-21T15:45:12Z</time>
      </trkpt>
      <trkpt lat="36.751128" lon="-5.187250">
        <ele>543.227</ele>
        <time>2015-06-21T15:45:13Z</time>
      </trkpt>
      <trkpt lat="36.751126" lon="-5.187237">
        <ele>543.686</ele>
        <time>2015-06-21T15:45:14Z</time>
      </trkpt>
      <trkpt lat="36.751116" lon="-5.187227">
        <ele>544.088</ele>
        <time>2015-06-21T15:45:15Z</time>
      </trkpt>
      <trkpt lat="36.751108" lon="-5.187223">
        <ele>544.491</ele>
        <time>2015-06-21T15:45:16Z</time>
      </trkpt>
      <trkpt lat="36.751082" lon="-5.187170">
        <ele>544.481</ele>
        <time>2015-06-21T15:45:20Z</time>
      </trkpt>
      <trkpt lat="36.751069" lon="-5.187138">
        <ele>544.419</ele>
        <time>2015-06-21T15:45:22Z</time>
      </trkpt>
      <trkpt lat="36.751067" lon="-5.187121">
        <ele>544.808</ele>
        <time>2015-06-21T15:45:23Z</time>
      </trkpt>
      <trkpt lat="36.751067" lon="-5.187102">
        <ele>545.270</ele>
        <time>2015-06-21T15:45:24Z</time>
      </trkpt>
      <trkpt lat="36.751066" lon="-5.187088">
        <ele>545.626</ele>
        <time>2015-06-21T15:45:25Z</time>
      </trkpt>
      <trkpt lat="36.751065" lon="-5.187073">
        <ele>546.089</ele>
        <time>2015-06-21T15:45:26Z</time>
      </trkpt>
      <trkpt lat="36.751065" lon="-5.187058">
        <ele>546.449</ele>
        <time>2015-06-21T15:45:27Z</time>
      </trkpt>
      <trkpt lat="36.751061" lon="-5.187016">
        <ele>546.893</ele>
        <time>2015-06-21T15:45:30Z</time>
      </trkpt>
      <trkpt lat="36.751058" lon="-5.187003">
        <ele>547.280</ele>
        <time>2015-06-21T15:45:31Z</time>
      </trkpt>
      <trkpt lat="36.751052" lon="-5.186988">
        <ele>547.699</ele>
        <time>2015-06-21T15:45:32Z</time>
      </trkpt>
      <trkpt lat="36.751050" lon="-5.186973">
        <ele>548.041</ele>
        <time>2015-06-21T15:45:33Z</time>
      </trkpt>
      <trkpt lat="36.751049" lon="-5.186957">
        <ele>548.624</ele>
        <time>2015-06-21T15:45:34Z</time>
      </trkpt>
      <trkpt lat="36.751048" lon="-5.186943">
        <ele>548.604</ele>
        <time>2015-06-21T15:45:35Z</time>
      </trkpt>
      <trkpt lat="36.751060" lon="-5.186904">
        <ele>548.614</ele>
        <time>2015-06-21T15:45:38Z</time>
      </trkpt>
      <trkpt lat="36.751067" lon="-5.186858">
        <ele>548.608</ele>
        <time>2015-06-21T15:45:41Z</time>
      </trkpt>
      <trkpt lat="36.751065" lon="-5.186842">
        <ele>549.023</ele>
        <time>2015-06-21T15:45:42Z</time>
      </trkpt>
      <trkpt lat="36.751068" lon="-5.186827">
        <ele>549.469</ele>
        <time>2015-06-21T15:45:43Z</time>
      </trkpt>
      <trkpt lat="36.751069" lon="-5.186814">
        <ele>549.892</ele>
        <time>2015-06-21T15:45:44Z</time>
      </trkpt>
      <trkpt lat="36.751067" lon="-5.186800">
        <ele>550.282</ele>
        <time>2015-06-21T15:45:45Z</time>
      </trkpt>
      <trkpt lat="36.751059" lon="-5.186790">
        <ele>550.636</ele>
        <time>2015-06-21T15:45:46Z</time>
      </trkpt>
      <trkpt lat="36.751019" lon="-5.186803">
        <ele>550.623</ele>
        <time>2015-06-21T15:45:51Z</time>
      </trkpt>
      <trkpt lat="36.751021" lon="-5.186777">
        <ele>550.642</ele>
        <time>2015-06-21T15:45:56Z</time>
      </trkpt>
      <trkpt lat="36.751084" lon="-5.186727">
        <ele>550.664</ele>
        <time>2015-06-21T15:46:00Z</time>
      </trkpt>
      <trkpt lat="36.751081" lon="-5.186658">
        <ele>550.627</ele>
        <time>2015-06-21T15:46:05Z</time>
      </trkpt>
      <trkpt lat="36.751074" lon="-5.186622">
        <ele>551.068</ele>
        <time>2015-06-21T15:46:07Z</time>
      </trkpt>
      <trkpt lat="36.751071" lon="-5.186604">
        <ele>551.414</ele>
        <time>2015-06-21T15:46:08Z</time>
      </trkpt>
      <trkpt lat="36.751071" lon="-5.186584">
        <ele>552.008</ele>
        <time>2015-06-21T15:46:09Z</time>
      </trkpt>
      <trkpt lat="36.751072" lon="-5.186565">
        <ele>552.443</ele>
        <time>2015-06-21T15:46:10Z</time>
      </trkpt>
      <trkpt lat="36.751071" lon="-5.186548">
        <ele>552.849</ele>
        <time>2015-06-21T15:46:11Z</time>
      </trkpt>
      <trkpt lat="36.751067" lon="-5.186446">
        <ele>552.812</ele>
        <time>2015-06-21T15:46:17Z</time>
      </trkpt>
      <trkpt lat="36.751067" lon="-5.186429">
        <ele>552.872</ele>
        <time>2015-06-21T15:46:18Z</time>
      </trkpt>
      <trkpt lat="36.751069" lon="-5.186395">
        <ele>553.676</ele>
        <time>2015-06-21T15:46:20Z</time>
      </trkpt>
      <trkpt lat="36.751071" lon="-5.186375">
        <ele>554.043</ele>
        <time>2015-06-21T15:46:21Z</time>
      </trkpt>
      <trkpt lat="36.751071" lon="-5.186356">
        <ele>554.472</ele>
        <time>2015-06-21T15:46:22Z</time>
      </trkpt>
      <trkpt lat="36.751070" lon="-5.186337">
        <ele>555.024</ele>
        <time>2015-06-21T15:46:23Z</time>
      </trkpt>
      <trkpt lat="36.751074" lon="-5.186297">
        <ele>555.045</ele>
        <time>2015-06-21T15:46:25Z</time>
      </trkpt>
      <trkpt lat="36.751103" lon="-5.186175">
        <ele>555.447</ele>
        <time>2015-06-21T15:46:32Z</time>
      </trkpt>
      <trkpt lat="36.751103" lon="-5.186157">
        <ele>555.811</ele>
        <time>2015-06-21T15:46:33Z</time>
      </trkpt>
      <trkpt lat="36.751101" lon="-5.186140">
        <ele>556.208</ele>
        <time>2015-06-21T15:46:34Z</time>
      </trkpt>
      <trkpt lat="36.751103" lon="-5.186125">
        <ele>556.675</ele>
        <time>2015-06-21T15:46:35Z</time>
      </trkpt>
      <trkpt lat="36.751107" lon="-5.186109">
        <ele>557.051</ele>
        <time>2015-06-21T15:46:36Z</time>
      </trkpt>
      <trkpt lat="36.751107" lon="-5.186095">
        <ele>557.024</ele>
        <time>2015-06-21T15:46:37Z</time>
      </trkpt>
      <trkpt lat="36.751101" lon="-5.186065">
        <ele>557.054</ele>
        <time>2015-06-21T15:46:39Z</time>
      </trkpt>
      <trkpt lat="36.751092" lon="-5.186054">
        <ele>557.098</ele>
        <time>2015-06-21T15:46:40Z</time>
      </trkpt>
      <trkpt lat="36.751039" lon="-5.186034">
        <ele>557.035</ele>
        <time>2015-06-21T15:46:44Z</time>
      </trkpt>
      <trkpt lat="36.750965" lon="-5.186041">
        <ele>557.414</ele>
        <time>2015-06-21T15:46:48Z</time>
      </trkpt>
      <trkpt lat="36.750946" lon="-5.186048">
        <ele>557.886</ele>
        <time>2015-06-21T15:46:49Z</time>
      </trkpt>
      <trkpt lat="36.750925" lon="-5.186053">
        <ele>558.217</ele>
        <time>2015-06-21T15:46:50Z</time>
      </trkpt>
      <trkpt lat="36.750902" lon="-5.186060">
        <ele>558.687</ele>
        <time>2015-06-21T15:46:51Z</time>
      </trkpt>
      <trkpt lat="36.750881" lon="-5.186066">
        <ele>559.015</ele>
        <time>2015-06-21T15:46:52Z</time>
      </trkpt>
      <trkpt lat="36.750767" lon="-5.186070">
        <ele>559.008</ele>
        <time>2015-06-21T15:46:57Z</time>
      </trkpt>
      <trkpt lat="36.750747" lon="-5.186072">
        <ele>559.042</ele>
        <time>2015-06-21T15:46:58Z</time>
      </trkpt>
      <trkpt lat="36.750671" lon="-5.186067">
        <ele>559.038</ele>
        <time>2015-06-21T15:47:01Z</time>
      </trkpt>
      <trkpt lat="36.750607" lon="-5.186081">
        <ele>559.051</ele>
        <time>2015-06-21T15:47:03Z</time>
      </trkpt>
      <trkpt lat="36.750518" lon="-5.186114">
        <ele>559.051</ele>
        <time>2015-06-21T15:47:06Z</time>
      </trkpt>
      <trkpt lat="36.750438" lon="-5.186159">
        <ele>559.035</ele>
        <time>2015-06-21T15:47:09Z</time>
      </trkpt>
      <trkpt lat="36.750328" lon="-5.186210">
        <ele>559.092</ele>
        <time>2015-06-21T15:47:14Z</time>
      </trkpt>
      <trkpt lat="36.750222" lon="-5.186202">
        <ele>559.041</ele>
        <time>2015-06-21T15:47:20Z</time>
      </trkpt>
      <trkpt lat="36.750202" lon="-5.186195">
        <ele>559.013</ele>
        <time>2015-06-21T15:47:21Z</time>
      </trkpt>
      <trkpt lat="36.750086" lon="-5.186107">
        <ele>559.013</ele>
        <time>2015-06-21T15:47:28Z</time>
      </trkpt>
      <trkpt lat="36.749980" lon="-5.186016">
        <ele>559.043</ele>
        <time>2015-06-21T15:47:35Z</time>
      </trkpt>
      <trkpt lat="36.749967" lon="-5.186004">
        <ele>559.007</ele>
        <time>2015-06-21T15:47:36Z</time>
      </trkpt>
      <trkpt lat="36.749864" lon="-5.185950">
        <ele>559.008</ele>
        <time>2015-06-21T15:47:42Z</time>
      </trkpt>
      <trkpt lat="36.749777" lon="-5.185896">
        <ele>559.092</ele>
        <time>2015-06-21T15:47:48Z</time>
      </trkpt>
      <trkpt lat="36.749761" lon="-5.185885">
        <ele>559.488</ele>
        <time>2015-06-21T15:47:49Z</time>
      </trkpt>
      <trkpt lat="36.749744" lon="-5.185873">
        <ele>559.831</ele>
        <time>2015-06-21T15:47:50Z</time>
      </trkpt>
      <trkpt lat="36.749729" lon="-5.185865">
        <ele>560.251</ele>
        <time>2015-06-21T15:47:51Z</time>
      </trkpt>
      <trkpt lat="36.749714" lon="-5.185858">
        <ele>560.655</ele>
        <time>2015-06-21T15:47:52Z</time>
      </trkpt>
      <trkpt lat="36.749701" lon="-5.185847">
        <ele>561.022</ele>
        <time>2015-06-21T15:47:53Z</time>
      </trkpt>
      <trkpt lat="36.749679" lon="-5.185833">
        <ele>561.011</ele>
        <time>2015-06-21T15:47:55Z</time>
      </trkpt>
      <trkpt lat="36.749625" lon="-5.185796">
        <ele>561.033</ele>
        <time>2015-06-21T15:47:59Z</time>
      </trkpt>
      <trkpt lat="36.749613" lon="-5.185794">
        <ele>561.064</ele>
        <time>2015-06-21T15:48:00Z</time>
      </trkpt>
      <trkpt lat="36.749600" lon="-5.185786">
        <ele>561.006</ele>
        <time>2015-06-21T15:48:01Z</time>
      </trkpt>
      <trkpt lat="36.749559" lon="-5.185771">
        <ele>561.416</ele>
        <time>2015-06-21T15:48:04Z</time>
      </trkpt>
      <trkpt lat="36.749545" lon="-5.185768">
        <ele>561.808</ele>
        <time>2015-06-21T15:48:05Z</time>
      </trkpt>
      <trkpt lat="36.749529" lon="-5.185768">
        <ele>562.247</ele>
        <time>2015-06-21T15:48:06Z</time>
      </trkpt>
      <trkpt lat="36.749513" lon="-5.185767">
        <ele>562.873</ele>
        <time>2015-06-21T15:48:07Z</time>
      </trkpt>
      <trkpt lat="36.749496" lon="-5.185769">
        <ele>563.236</ele>
        <time>2015-06-21T15:48:08Z</time>
      </trkpt>
      <trkpt lat="36.749480" lon="-5.185773">
        <ele>563.226</ele>
        <time>2015-06-21T15:48:09Z</time>
      </trkpt>
      <trkpt lat="36.749348" lon="-5.185777">
        <ele>563.290</ele>
        <time>2015-06-21T15:48:16Z</time>
      </trkpt>
      <trkpt lat="36.749271" lon="-5.185760">
        <ele>563.657</ele>
        <time>2015-06-21T15:48:20Z</time>
      </trkpt>
      <trkpt lat="36.749255" lon="-5.185756">
        <ele>564.076</ele>
        <time>2015-06-21T15:48:21Z</time>
      </trkpt>
      <trkpt lat="36.749238" lon="-5.185757">
        <ele>564.448</ele>
        <time>2015-06-21T15:48:22Z</time>
      </trkpt>
      <trkpt lat="36.749222" lon="-5.185758">
        <ele>565.283</ele>
        <time>2015-06-21T15:48:23Z</time>
      </trkpt>
      <trkpt lat="36.749122" lon="-5.185768">
        <ele>565.225</ele>
        <time>2015-06-21T15:48:28Z</time>
      </trkpt>
      <trkpt lat="36.748989" lon="-5.185797">
        <ele>565.217</ele>
        <time>2015-06-21T15:48:34Z</time>
      </trkpt>
      <trkpt lat="36.748858" lon="-5.185822">
        <ele>565.208</ele>
        <time>2015-06-21T15:48:41Z</time>
      </trkpt>
      <trkpt lat="36.748839" lon="-5.185818">
        <ele>565.219</ele>
        <time>2015-06-21T15:48:42Z</time>
      </trkpt>
      <trkpt lat="36.748803" lon="-5.185803">
        <ele>565.635</ele>
        <time>2015-06-21T15:48:45Z</time>
      </trkpt>
      <trkpt lat="36.748795" lon="-5.185797">
        <ele>566.018</ele>
        <time>2015-06-21T15:48:46Z</time>
      </trkpt>
      <trkpt lat="36.748791" lon="-5.185792">
        <ele>566.448</ele>
        <time>2015-06-21T15:48:47Z</time>
      </trkpt>
      <trkpt lat="36.748779" lon="-5.185787">
        <ele>567.272</ele>
        <time>2015-06-21T15:48:48Z</time>
      </trkpt>
      <trkpt lat="36.748750" lon="-5.185772">
        <ele>567.279</ele>
        <time>2015-06-21T15:48:50Z</time>
      </trkpt>
      <trkpt lat="36.748710" lon="-5.185753">
        <ele>567.258</ele>
        <time>2015-06-21T15:48:53Z</time>
      </trkpt>
      <trkpt lat="36.748647" lon="-5.185717">
        <ele>567.260</ele>
        <time>2015-06-21T15:48:59Z</time>
      </trkpt>
      <trkpt lat="36.748634" lon="-5.185705">
        <ele>567.639</ele>
        <time>2015-06-21T15:49:00Z</time>
      </trkpt>
      <trkpt lat="36.748623" lon="-5.185693">
        <ele>568.001</ele>
        <time>2015-06-21T15:49:01Z</time>
      </trkpt>
      <trkpt lat="36.748612" lon="-5.185682">
        <ele>568.421</ele>
        <time>2015-06-21T15:49:02Z</time>
      </trkpt>
      <trkpt lat="36.748602" lon="-5.185675">
        <ele>568.808</ele>
        <time>2015-06-21T15:49:03Z</time>
      </trkpt>
      <trkpt lat="36.748591" lon="-5.185667">
        <ele>569.484</ele>
        <time>2015-06-21T15:49:04Z</time>
      </trkpt>
      <trkpt lat="36.748568" lon="-5.185664">
        <ele>569.470</ele>
        <time>2015-06-21T15:49:05Z</time>
      </trkpt>
      <trkpt lat="36.748461" lon="-5.185627">
        <ele>569.473</ele>
        <time>2015-06-21T15:49:11Z</time>
      </trkpt>
      <trkpt lat="36.748405" lon="-5.185628">
        <ele>569.463</ele>
        <time>2015-06-21T15:49:16Z</time>
      </trkpt>
      <trkpt lat="36.748376" lon="-5.185623">
        <ele>569.887</ele>
        <time>2015-06-21T15:49:18Z</time>
      </trkpt>
      <trkpt lat="36.748362" lon="-5.185619">
        <ele>570.214</ele>
        <time>2015-06-21T15:49:19Z</time>
      </trkpt>
      <trkpt lat="36.748351" lon="-5.185614">
        <ele>570.653</ele>
        <time>2015-06-21T15:49:20Z</time>
      </trkpt>
      <trkpt lat="36.748342" lon="-5.185602">
        <ele>571.035</ele>
        <time>2015-06-21T15:49:21Z</time>
      </trkpt>
      <trkpt lat="36.748331" lon="-5.185599">
        <ele>571.452</ele>
        <time>2015-06-21T15:49:22Z</time>
      </trkpt>
      <trkpt lat="36.748319" lon="-5.185591">
        <ele>571.453</ele>
        <time>2015-06-21T15:49:23Z</time>
      </trkpt>
      <trkpt lat="36.748249" lon="-5.185536">
        <ele>571.408</ele>
        <time>2015-06-21T15:49:29Z</time>
      </trkpt>
      <trkpt lat="36.748173" lon="-5.185485">
        <ele>571.808</ele>
        <time>2015-06-21T15:49:35Z</time>
      </trkpt>
      <trkpt lat="36.748160" lon="-5.185479">
        <ele>572.236</ele>
        <time>2015-06-21T15:49:36Z</time>
      </trkpt>
      <trkpt lat="36.748142" lon="-5.185472">
        <ele>573.282</ele>
        <time>2015-06-21T15:49:37Z</time>
      </trkpt>
      <trkpt lat="36.748128" lon="-5.185464">
        <ele>573.625</ele>
        <time>2015-06-21T15:49:38Z</time>
      </trkpt>
      <trkpt lat="36.748073" lon="-5.185439">
        <ele>573.655</ele>
        <time>2015-06-21T15:49:42Z</time>
      </trkpt>
      <trkpt lat="36.747930" lon="-5.185408">
        <ele>573.669</ele>
        <time>2015-06-21T15:49:48Z</time>
      </trkpt>
      <trkpt lat="36.747810" lon="-5.185371">
        <ele>573.676</ele>
        <time>2015-06-21T15:49:55Z</time>
      </trkpt>
      <trkpt lat="36.747791" lon="-5.185370">
        <ele>574.055</ele>
        <time>2015-06-21T15:49:56Z</time>
      </trkpt>
      <trkpt lat="36.747773" lon="-5.185366">
        <ele>574.457</ele>
        <time>2015-06-21T15:49:57Z</time>
      </trkpt>
      <trkpt lat="36.747755" lon="-5.185368">
        <ele>574.888</ele>
        <time>2015-06-21T15:49:58Z</time>
      </trkpt>
      <trkpt lat="36.747744" lon="-5.185368">
        <ele>575.224</ele>
        <time>2015-06-21T15:49:59Z</time>
      </trkpt>
      <trkpt lat="36.747733" lon="-5.185364">
        <ele>575.626</ele>
        <time>2015-06-21T15:50:00Z</time>
      </trkpt>
      <trkpt lat="36.747724" lon="-5.185363">
        <ele>575.608</ele>
        <time>2015-06-21T15:50:01Z</time>
      </trkpt>
      <trkpt lat="36.747624" lon="-5.185326">
        <ele>576.099</ele>
        <time>2015-06-21T15:50:08Z</time>
      </trkpt>
      <trkpt lat="36.747607" lon="-5.185321">
        <ele>576.465</ele>
        <time>2015-06-21T15:50:09Z</time>
      </trkpt>
      <trkpt lat="36.747590" lon="-5.185315">
        <ele>576.898</ele>
        <time>2015-06-21T15:50:10Z</time>
      </trkpt>
      <trkpt lat="36.747575" lon="-5.185306">
        <ele>577.298</ele>
        <time>2015-06-21T15:50:11Z</time>
      </trkpt>
      <trkpt lat="36.747560" lon="-5.185296">
        <ele>577.682</ele>
        <time>2015-06-21T15:50:12Z</time>
      </trkpt>
      <trkpt lat="36.747517" lon="-5.185258">
        <ele>577.669</ele>
        <time>2015-06-21T15:50:16Z</time>
      </trkpt>
      <trkpt lat="36.747455" lon="-5.185200">
        <ele>578.038</ele>
        <time>2015-06-21T15:50:21Z</time>
      </trkpt>
      <trkpt lat="36.747444" lon="-5.185187">
        <ele>578.470</ele>
        <time>2015-06-21T15:50:22Z</time>
      </trkpt>
      <trkpt lat="36.747437" lon="-5.185172">
        <ele>578.886</ele>
        <time>2015-06-21T15:50:23Z</time>
      </trkpt>
      <trkpt lat="36.747429" lon="-5.185158">
        <ele>579.260</ele>
        <time>2015-06-21T15:50:24Z</time>
      </trkpt>
      <trkpt lat="36.747422" lon="-5.185139">
        <ele>579.826</ele>
        <time>2015-06-21T15:50:25Z</time>
      </trkpt>
      <trkpt lat="36.747372" lon="-5.185096">
        <ele>579.808</ele>
        <time>2015-06-21T15:50:30Z</time>
      </trkpt>
      <trkpt lat="36.747310" lon="-5.185052">
        <ele>580.299</ele>
        <time>2015-06-21T15:50:35Z</time>
      </trkpt>
      <trkpt lat="36.747302" lon="-5.185047">
        <ele>580.625</ele>
        <time>2015-06-21T15:50:36Z</time>
      </trkpt>
      <trkpt lat="36.747292" lon="-5.185044">
        <ele>581.018</ele>
        <time>2015-06-21T15:50:37Z</time>
      </trkpt>
      <trkpt lat="36.747285" lon="-5.185038">
        <ele>581.418</ele>
        <time>2015-06-21T15:50:38Z</time>
      </trkpt>
      <trkpt lat="36.747277" lon="-5.185026">
        <ele>581.832</ele>
        <time>2015-06-21T15:50:39Z</time>
      </trkpt>
      <trkpt lat="36.747224" lon="-5.184989">
        <ele>581.879</ele>
        <time>2015-06-21T15:50:43Z</time>
      </trkpt>
      <trkpt lat="36.747198" lon="-5.184954">
        <ele>581.838</ele>
        <time>2015-06-21T15:50:46Z</time>
      </trkpt>
      <trkpt lat="36.747158" lon="-5.184901">
        <ele>581.880</ele>
        <time>2015-06-21T15:50:49Z</time>
      </trkpt>
      <trkpt lat="36.747098" lon="-5.184833">
        <ele>581.861</ele>
        <time>2015-06-21T15:50:52Z</time>
      </trkpt>
      <trkpt lat="36.747071" lon="-5.184804">
        <ele>581.821</ele>
        <time>2015-06-21T15:50:53Z</time>
      </trkpt>
      <trkpt lat="36.747028" lon="-5.184745">
        <ele>581.813</ele>
        <time>2015-06-21T15:50:55Z</time>
      </trkpt>
      <trkpt lat="36.746969" lon="-5.184645">
        <ele>581.408</ele>
        <time>2015-06-21T15:50:58Z</time>
      </trkpt>
      <trkpt lat="36.746962" lon="-5.184626">
        <ele>581.047</ele>
        <time>2015-06-21T15:50:59Z</time>
      </trkpt>
      <trkpt lat="36.746957" lon="-5.184617">
        <ele>580.663</ele>
        <time>2015-06-21T15:51:00Z</time>
      </trkpt>
      <trkpt lat="36.746957" lon="-5.184615">
        <ele>580.276</ele>
        <time>2015-06-21T15:51:01Z</time>
      </trkpt>
      <trkpt lat="36.746957" lon="-5.184615">
        <ele>579.896</ele>
        <time>2015-06-21T15:51:02Z</time>
      </trkpt>
      <trkpt lat="36.746955" lon="-5.184618">
        <ele>579.830</ele>
        <time>2015-06-21T15:51:09Z</time>
      </trkpt>
      <trkpt lat="36.746955" lon="-5.184618">
        <ele>579.417</ele>
        <time>2015-06-21T15:51:18Z</time>
      </trkpt>
      <trkpt lat="36.746955" lon="-5.184618">
        <ele>579.086</ele>
        <time>2015-06-21T15:51:19Z</time>
      </trkpt>
      <trkpt lat="36.746955" lon="-5.184618">
        <ele>578.648</ele>
        <time>2015-06-21T15:51:20Z</time>
      </trkpt>
      <trkpt lat="36.746955" lon="-5.184618">
        <ele>578.273</ele>
        <time>2015-06-21T15:51:21Z</time>
      </trkpt>
      <trkpt lat="36.746960" lon="-5.184619">
        <ele>577.885</ele>
        <time>2015-06-21T15:51:22Z</time>
      </trkpt>
      <trkpt lat="36.746962" lon="-5.184644">
        <ele>577.813</ele>
        <time>2015-06-21T15:51:28Z</time>
      </trkpt>
      <trkpt lat="36.746960" lon="-5.184665">
        <ele>577.808</ele>
        <time>2015-06-21T15:51:33Z</time>
      </trkpt>
      <trkpt lat="36.746960" lon="-5.184669">
        <ele>577.888</ele>
        <time>2015-06-21T15:51:37Z</time>
      </trkpt>
      <trkpt lat="36.746960" lon="-5.184669">
        <ele>577.874</ele>
        <time>2015-06-21T15:51:41Z</time>
      </trkpt>
      <trkpt lat="36.746960" lon="-5.184669">
        <ele>577.867</ele>
        <time>2015-06-21T15:51:48Z</time>
      </trkpt>
      <trkpt lat="36.746960" lon="-5.184669">
        <ele>577.897</ele>
        <time>2015-06-21T15:51:53Z</time>
      </trkpt>
      <trkpt lat="36.746960" lon="-5.184669">
        <ele>577.821</ele>
        <time>2015-06-21T15:51:56Z</time>
      </trkpt>
      <trkpt lat="36.746960" lon="-5.184669">
        <ele>577.838</ele>
        <time>2015-06-21T15:51:58Z</time>
      </trkpt>
      <trkpt lat="36.746960" lon="-5.184669">
        <ele>577.897</ele>
        <time>2015-06-21T15:52:06Z</time>
      </trkpt>
      <trkpt lat="36.746960" lon="-5.184669">
        <ele>577.839</ele>
        <time>2015-06-21T15:52:08Z</time>
      </trkpt>
      <trkpt lat="36.746960" lon="-5.184669">
        <ele>577.885</ele>
        <time>2015-06-21T15:52:11Z</time>
      </trkpt>
      <trkpt lat="36.746960" lon="-5.184671">
        <ele>577.889</ele>
        <time>2015-06-21T15:52:19Z</time>
      </trkpt>
      <trkpt lat="36.746960" lon="-5.184671">
        <ele>577.817</ele>
        <time>2015-06-21T15:52:33Z</time>
      </trkpt>
      <trkpt lat="36.746960" lon="-5.184671">
        <ele>577.808</ele>
        <time>2015-06-21T15:52:41Z</time>
      </trkpt>
      <trkpt lat="36.746960" lon="-5.184671">
        <ele>577.869</ele>
        <time>2015-06-21T15:52:48Z</time>
      </trkpt>
      <trkpt lat="36.746960" lon="-5.184670">
        <ele>577.895</ele>
        <time>2015-06-21T15:53:01Z</time>
      </trkpt>
      <trkpt lat="36.746960" lon="-5.184670">
        <ele>577.838</ele>
        <time>2015-06-21T15:53:04Z</time>
      </trkpt>
      <trkpt lat="36.746960" lon="-5.184670">
        <ele>577.848</ele>
        <time>2015-06-21T15:53:16Z</time>
      </trkpt>
      <trkpt lat="36.746960" lon="-5.184670">
        <ele>577.892</ele>
        <time>2015-06-21T15:53:32Z</time>
      </trkpt>
      <trkpt lat="36.746960" lon="-5.184672">
        <ele>577.879</ele>
        <time>2015-06-21T15:53:46Z</time>
      </trkpt>
      <trkpt lat="36.746960" lon="-5.184672">
        <ele>577.828</ele>
        <time>2015-06-21T15:53:58Z</time>
      </trkpt>
      <trkpt lat="36.746960" lon="-5.184672">
        <ele>577.850</ele>
        <time>2015-06-21T15:54:00Z</time>
      </trkpt>
      <trkpt lat="36.746960" lon="-5.184672">
        <ele>577.868</ele>
        <time>2015-06-21T15:54:02Z</time>
      </trkpt>
      <trkpt lat="36.746960" lon="-5.184672">
        <ele>577.842</ele>
        <time>2015-06-21T15:54:15Z</time>
      </trkpt>
      <trkpt lat="36.746962" lon="-5.184674">
        <ele>577.826</ele>
        <time>2015-06-21T15:54:22Z</time>
      </trkpt>
      <trkpt lat="36.746962" lon="-5.184674">
        <ele>577.808</ele>
        <time>2015-06-21T15:54:30Z</time>
      </trkpt>
      <trkpt lat="36.746962" lon="-5.184674">
        <ele>577.857</ele>
        <time>2015-06-21T15:54:38Z</time>
      </trkpt>
      <trkpt lat="36.746962" lon="-5.184674">
        <ele>577.813</ele>
        <time>2015-06-21T15:54:44Z</time>
      </trkpt>
      <trkpt lat="36.746962" lon="-5.184674">
        <ele>577.866</ele>
        <time>2015-06-21T15:54:55Z</time>
      </trkpt>
      <trkpt lat="36.746963" lon="-5.184676">
        <ele>577.816</ele>
        <time>2015-06-21T15:54:57Z</time>
      </trkpt>
      <trkpt lat="36.746963" lon="-5.184676">
        <ele>577.860</ele>
        <time>2015-06-21T15:55:02Z</time>
      </trkpt>
      <trkpt lat="36.746963" lon="-5.184676">
        <ele>577.837</ele>
        <time>2015-06-21T15:55:06Z</time>
      </trkpt>
      <trkpt lat="36.746963" lon="-5.184676">
        <ele>577.816</ele>
        <time>2015-06-21T15:55:10Z</time>
      </trkpt>
      <trkpt lat="36.746963" lon="-5.184676">
        <ele>577.858</ele>
        <time>2015-06-21T15:55:12Z</time>
      </trkpt>
      <trkpt lat="36.746963" lon="-5.184676">
        <ele>577.865</ele>
        <time>2015-06-21T15:55:28Z</time>
      </trkpt>
      <trkpt lat="36.746963" lon="-5.184676">
        <ele>578.268</ele>
        <time>2015-06-21T15:55:35Z</time>
      </trkpt>
      <trkpt lat="36.746963" lon="-5.184677">
        <ele>578.614</ele>
        <time>2015-06-21T15:55:36Z</time>
      </trkpt>
      <trkpt lat="36.746963" lon="-5.184677">
        <ele>579.008</ele>
        <time>2015-06-21T15:55:37Z</time>
      </trkpt>
      <trkpt lat="36.746963" lon="-5.184677">
        <ele>579.417</ele>
        <time>2015-06-21T15:55:38Z</time>
      </trkpt>
      <trkpt lat="36.746963" lon="-5.184677">
        <ele>579.893</ele>
        <time>2015-06-21T15:55:39Z</time>
      </trkpt>
      <trkpt lat="36.746963" lon="-5.184677">
        <ele>579.886</ele>
        <time>2015-06-21T15:55:41Z</time>
      </trkpt>
      <trkpt lat="36.746963" lon="-5.184677">
        <ele>579.836</ele>
        <time>2015-06-21T15:55:50Z</time>
      </trkpt>
      <trkpt lat="36.746963" lon="-5.184677">
        <ele>579.870</ele>
        <time>2015-06-21T15:55:54Z</time>
      </trkpt>
      <trkpt lat="36.746963" lon="-5.184677">
        <ele>579.857</ele>
        <time>2015-06-21T15:56:00Z</time>
      </trkpt>
      <trkpt lat="36.746963" lon="-5.184677">
        <ele>579.896</ele>
        <time>2015-06-21T15:56:05Z</time>
      </trkpt>
      <trkpt lat="36.746963" lon="-5.184677">
        <ele>579.858</ele>
        <time>2015-06-21T15:56:13Z</time>
      </trkpt>
      <trkpt lat="36.746964" lon="-5.184678">
        <ele>579.896</ele>
        <time>2015-06-21T15:56:17Z</time>
      </trkpt>
      <trkpt lat="36.746964" lon="-5.184678">
        <ele>579.831</ele>
        <time>2015-06-21T15:56:34Z</time>
      </trkpt>
      <trkpt lat="36.746964" lon="-5.184678">
        <ele>579.824</ele>
        <time>2015-06-21T15:56:44Z</time>
      </trkpt>
      <trkpt lat="36.746964" lon="-5.184678">
        <ele>579.808</ele>
        <time>2015-06-21T15:56:48Z</time>
      </trkpt>
      <trkpt lat="36.746964" lon="-5.184680">
        <ele>579.870</ele>
        <time>2015-06-21T15:57:02Z</time>
      </trkpt>
      <trkpt lat="36.746964" lon="-5.184680">
        <ele>579.856</ele>
        <time>2015-06-21T15:57:11Z</time>
      </trkpt>
      <trkpt lat="36.746964" lon="-5.184680">
        <ele>579.879</ele>
        <time>2015-06-21T15:57:17Z</time>
      </trkpt>
      <trkpt lat="36.746964" lon="-5.184680">
        <ele>579.839</ele>
        <time>2015-06-21T15:57:34Z</time>
      </trkpt>
      <trkpt lat="36.746963" lon="-5.184680">
        <ele>579.833</ele>
        <time>2015-06-21T15:57:48Z</time>
      </trkpt>
      <trkpt lat="36.746963" lon="-5.184680">
        <ele>579.870</ele>
        <time>2015-06-21T15:58:04Z</time>
      </trkpt>
      <trkpt lat="36.746963" lon="-5.184680">
        <ele>579.849</ele>
        <time>2015-06-21T15:58:14Z</time>
      </trkpt>
      <trkpt lat="36.746963" lon="-5.184679">
        <ele>579.851</ele>
        <time>2015-06-21T15:58:22Z</time>
      </trkpt>
      <trkpt lat="36.746963" lon="-5.184679">
        <ele>579.893</ele>
        <time>2015-06-21T15:58:34Z</time>
      </trkpt>
      <trkpt lat="36.746963" lon="-5.184679">
        <ele>579.865</ele>
        <time>2015-06-21T15:58:39Z</time>
      </trkpt>
      <trkpt lat="36.746963" lon="-5.184679">
        <ele>579.821</ele>
        <time>2015-06-21T15:58:47Z</time>
      </trkpt>
      <trkpt lat="36.746963" lon="-5.184679">
        <ele>579.808</ele>
        <time>2015-06-21T15:58:55Z</time>
      </trkpt>
      <trkpt lat="36.746965" lon="-5.184681">
        <ele>579.870</ele>
        <time>2015-06-21T15:59:09Z</time>
      </trkpt>
      <trkpt lat="36.746965" lon="-5.184681">
        <ele>579.826</ele>
        <time>2015-06-21T15:59:24Z</time>
      </trkpt>
      <trkpt lat="36.746965" lon="-5.184681">
        <ele>579.859</ele>
        <time>2015-06-21T15:59:35Z</time>
      </trkpt>
      <trkpt lat="36.746966" lon="-5.184681">
        <ele>579.869</ele>
        <time>2015-06-21T15:59:36Z</time>
      </trkpt>
      <trkpt lat="36.746966" lon="-5.184681">
        <ele>579.843</ele>
        <time>2015-06-21T15:59:55Z</time>
      </trkpt>
      <trkpt lat="36.746966" lon="-5.184681">
        <ele>579.850</ele>
        <time>2015-06-21T16:00:09Z</time>
      </trkpt>
      <trkpt lat="36.746966" lon="-5.184681">
        <ele>579.899</ele>
        <time>2015-06-21T16:00:15Z</time>
      </trkpt>
      <trkpt lat="36.746965" lon="-5.184682">
        <ele>579.841</ele>
        <time>2015-06-21T16:00:22Z</time>
      </trkpt>
      <trkpt lat="36.746965" lon="-5.184682">
        <ele>579.887</ele>
        <time>2015-06-21T16:00:37Z</time>
      </trkpt>
      <trkpt lat="36.746965" lon="-5.184682">
        <ele>579.842</ele>
        <time>2015-06-21T16:00:51Z</time>
      </trkpt>
      <trkpt lat="36.746965" lon="-5.184682">
        <ele>579.826</ele>
        <time>2015-06-21T16:00:55Z</time>
      </trkpt>
      <trkpt lat="36.746963" lon="-5.184681">
        <ele>579.808</ele>
        <time>2015-06-21T16:01:03Z</time>
      </trkpt>
      <trkpt lat="36.746963" lon="-5.184681">
        <ele>579.889</ele>
        <time>2015-06-21T16:01:15Z</time>
      </trkpt>
      <trkpt lat="36.746963" lon="-5.184681">
        <ele>579.835</ele>
        <time>2015-06-21T16:01:24Z</time>
      </trkpt>
      <trkpt lat="36.746963" lon="-5.184681">
        <ele>579.838</ele>
        <time>2015-06-21T16:01:29Z</time>
      </trkpt>
      <trkpt lat="36.746963" lon="-5.184681">
        <ele>579.858</ele>
        <time>2015-06-21T16:01:30Z</time>
      </trkpt>
      <trkpt lat="36.746965" lon="-5.184679">
        <ele>579.882</ele>
        <time>2015-06-21T16:01:44Z</time>
      </trkpt>
      <trkpt lat="36.746965" lon="-5.184679">
        <ele>579.889</ele>
        <time>2015-06-21T16:01:56Z</time>
      </trkpt>
      <trkpt lat="36.746965" lon="-5.184679">
        <ele>579.858</ele>
        <time>2015-06-21T16:02:00Z</time>
      </trkpt>
      <trkpt lat="36.746965" lon="-5.184679">
        <ele>579.810</ele>
        <time>2015-06-21T16:02:11Z</time>
      </trkpt>
      <trkpt lat="36.746965" lon="-5.184679">
        <ele>579.814</ele>
        <time>2015-06-21T16:02:15Z</time>
      </trkpt>
      <trkpt lat="36.746963" lon="-5.184680">
        <ele>579.854</ele>
        <time>2015-06-21T16:02:23Z</time>
      </trkpt>
      <trkpt lat="36.746963" lon="-5.184680">
        <ele>579.809</ele>
        <time>2015-06-21T16:02:24Z</time>
      </trkpt>
      <trkpt lat="36.746963" lon="-5.184680">
        <ele>579.808</ele>
        <time>2015-06-21T16:02:27Z</time>
      </trkpt>
      <trkpt lat="36.746963" lon="-5.184680">
        <ele>579.822</ele>
        <time>2015-06-21T16:02:33Z</time>
      </trkpt>
      <trkpt lat="36.746963" lon="-5.184680">
        <ele>579.878</ele>
        <time>2015-06-21T16:02:43Z</time>
      </trkpt>
      <trkpt lat="36.746963" lon="-5.184680">
        <ele>579.891</ele>
        <time>2015-06-21T16:02:47Z</time>
      </trkpt>
      <trkpt lat="36.746963" lon="-5.184680">
        <ele>579.841</ele>
        <time>2015-06-21T16:02:52Z</time>
      </trkpt>
      <trkpt lat="36.746961" lon="-5.184678">
        <ele>579.855</ele>
        <time>2015-06-21T16:03:00Z</time>
      </trkpt>
      <trkpt lat="36.746961" lon="-5.184678">
        <ele>579.872</ele>
        <time>2015-06-21T16:03:16Z</time>
      </trkpt>
      <trkpt lat="36.746961" lon="-5.184678">
        <ele>579.861</ele>
        <time>2015-06-21T16:03:33Z</time>
      </trkpt>
      <trkpt lat="36.746960" lon="-5.184678">
        <ele>579.883</ele>
        <time>2015-06-21T16:03:45Z</time>
      </trkpt>
      <trkpt lat="36.746960" lon="-5.184678">
        <ele>579.877</ele>
        <time>2015-06-21T16:03:48Z</time>
      </trkpt>
      <trkpt lat="36.746960" lon="-5.184678">
        <ele>579.861</ele>
        <time>2015-06-21T16:04:01Z</time>
      </trkpt>
      <trkpt lat="36.746960" lon="-5.184678">
        <ele>579.827</ele>
        <time>2015-06-21T16:04:04Z</time>
      </trkpt>
      <trkpt lat="36.746964" lon="-5.184677">
        <ele>579.808</ele>
        <time>2015-06-21T16:04:16Z</time>
      </trkpt>
      <trkpt lat="36.746964" lon="-5.184677">
        <ele>579.878</ele>
        <time>2015-06-21T16:04:32Z</time>
      </trkpt>
      <trkpt lat="36.746964" lon="-5.184677">
        <ele>579.884</ele>
        <time>2015-06-21T16:04:48Z</time>
      </trkpt>
      <trkpt lat="36.746964" lon="-5.184677">
        <ele>579.817</ele>
        <time>2015-06-21T16:04:51Z</time>
      </trkpt>
      <trkpt lat="36.746964" lon="-5.184677">
        <ele>579.857</ele>
        <time>2015-06-21T16:04:53Z</time>
      </trkpt>
      <trkpt lat="36.746962" lon="-5.184676">
        <ele>579.821</ele>
        <time>2015-06-21T16:04:59Z</time>
      </trkpt>
      <trkpt lat="36.746962" lon="-5.184676">
        <ele>579.878</ele>
        <time>2015-06-21T16:05:13Z</time>
      </trkpt>
      <trkpt lat="36.746962" lon="-5.184676">
        <ele>579.877</ele>
        <time>2015-06-21T16:05:25Z</time>
      </trkpt>
      <trkpt lat="36.746959" lon="-5.184672">
        <ele>579.899</ele>
        <time>2015-06-21T16:05:39Z</time>
      </trkpt>
      <trkpt lat="36.746959" lon="-5.184672">
        <ele>579.877</ele>
        <time>2015-06-21T16:05:55Z</time>
      </trkpt>
      <trkpt lat="36.746959" lon="-5.184672">
        <ele>579.861</ele>
        <time>2015-06-21T16:05:58Z</time>
      </trkpt>
      <trkpt lat="36.746959" lon="-5.184672">
        <ele>579.827</ele>
        <time>2015-06-21T16:06:10Z</time>
      </trkpt>
      <trkpt lat="36.746961" lon="-5.184673">
        <ele>579.808</ele>
        <time>2015-06-21T16:06:22Z</time>
      </trkpt>
      <trkpt lat="36.746961" lon="-5.184673">
        <ele>579.878</ele>
        <time>2015-06-21T16:06:25Z</time>
      </trkpt>
      <trkpt lat="36.746961" lon="-5.184673">
        <ele>579.814</ele>
        <time>2015-06-21T16:06:42Z</time>
      </trkpt>
      <trkpt lat="36.746961" lon="-5.184673">
        <ele>579.847</ele>
        <time>2015-06-21T16:06:54Z</time>
      </trkpt>
      <trkpt lat="36.746963" lon="-5.184672">
        <ele>579.877</ele>
        <time>2015-06-21T16:06:57Z</time>
      </trkpt>
      <trkpt lat="36.746963" lon="-5.184672">
        <ele>579.861</ele>
        <time>2015-06-21T16:07:11Z</time>
      </trkpt>
      <trkpt lat="36.746963" lon="-5.184672">
        <ele>579.828</ele>
        <time>2015-06-21T16:07:19Z</time>
      </trkpt>
      <trkpt lat="36.746962" lon="-5.184660">
        <ele>579.877</ele>
        <time>2015-06-21T16:07:25Z</time>
      </trkpt>
      <trkpt lat="36.746966" lon="-5.184630">
        <ele>579.839</ele>
        <time>2015-06-21T16:07:29Z</time>
      </trkpt>
      <trkpt lat="36.747003" lon="-5.184595">
        <ele>579.812</ele>
        <time>2015-06-21T16:07:31Z</time>
      </trkpt>
      <trkpt lat="36.747104" lon="-5.184514">
        <ele>579.832</ele>
        <time>2015-06-21T16:07:34Z</time>
      </trkpt>
      <trkpt lat="36.747159" lon="-5.184472">
        <ele>579.805</ele>
        <time>2015-06-21T16:07:35Z</time>
      </trkpt>
      <trkpt lat="36.747276" lon="-5.184338">
        <ele>579.808</ele>
        <time>2015-06-21T16:07:37Z</time>
      </trkpt>
      <trkpt lat="36.747315" lon="-5.184250">
        <ele>579.892</ele>
        <time>2015-06-21T16:07:38Z</time>
      </trkpt>
      <trkpt lat="36.747344" lon="-5.184174">
        <ele>579.238</ele>
        <time>2015-06-21T16:07:39Z</time>
      </trkpt>
      <trkpt lat="36.747374" lon="-5.184102">
        <ele>578.631</ele>
        <time>2015-06-21T16:07:40Z</time>
      </trkpt>
      <trkpt lat="36.747393" lon="-5.184041">
        <ele>578.011</ele>
        <time>2015-06-21T16:07:41Z</time>
      </trkpt>
      <trkpt lat="36.747393" lon="-5.183966">
        <ele>577.285</ele>
        <time>2015-06-21T16:07:42Z</time>
      </trkpt>
      <trkpt lat="36.747376" lon="-5.183887">
        <ele>576.412</ele>
        <time>2015-06-21T16:07:43Z</time>
      </trkpt>
      <trkpt lat="36.747350" lon="-5.183818">
        <ele>575.051</ele>
        <time>2015-06-21T16:07:44Z</time>
      </trkpt>
      <trkpt lat="36.747317" lon="-5.183758">
        <ele>574.243</ele>
        <time>2015-06-21T16:07:45Z</time>
      </trkpt>
      <trkpt lat="36.747281" lon="-5.183693">
        <ele>573.497</ele>
        <time>2015-06-21T16:07:46Z</time>
      </trkpt>
      <trkpt lat="36.747241" lon="-5.183615">
        <ele>572.823</ele>
        <time>2015-06-21T16:07:47Z</time>
      </trkpt>
      <trkpt lat="36.747205" lon="-5.183519">
        <ele>572.225</ele>
        <time>2015-06-21T16:07:48Z</time>
      </trkpt>
      <trkpt lat="36.747183" lon="-5.183433">
        <ele>571.608</ele>
        <time>2015-06-21T16:07:49Z</time>
      </trkpt>
      <trkpt lat="36.747147" lon="-5.183352">
        <ele>570.860</ele>
        <time>2015-06-21T16:07:50Z</time>
      </trkpt>
      <trkpt lat="36.747096" lon="-5.183282">
        <ele>570.016</ele>
        <time>2015-06-21T16:07:51Z</time>
      </trkpt>
      <trkpt lat="36.747045" lon="-5.183214">
        <ele>568.839</ele>
        <time>2015-06-21T16:07:52Z</time>
      </trkpt>
      <trkpt lat="36.746999" lon="-5.183152">
        <ele>567.889</ele>
        <time>2015-06-21T16:07:53Z</time>
      </trkpt>
      <trkpt lat="36.746962" lon="-5.183091">
        <ele>566.813</ele>
        <time>2015-06-21T16:07:54Z</time>
      </trkpt>
      <trkpt lat="36.746931" lon="-5.183012">
        <ele>565.650</ele>
        <time>2015-06-21T16:07:55Z</time>
      </trkpt>
      <trkpt lat="36.746905" lon="-5.182933">
        <ele>564.469</ele>
        <time>2015-06-21T16:07:56Z</time>
      </trkpt>
      <trkpt lat="36.746879" lon="-5.182857">
        <ele>563.281</ele>
        <time>2015-06-21T16:07:57Z</time>
      </trkpt>
      <trkpt lat="36.746859" lon="-5.182794">
        <ele>562.234</ele>
        <time>2015-06-21T16:07:58Z</time>
      </trkpt>
      <trkpt lat="36.746839" lon="-5.182756">
        <ele>561.255</ele>
        <time>2015-06-21T16:07:59Z</time>
      </trkpt>
      <trkpt lat="36.746823" lon="-5.182746">
        <ele>560.210</ele>
        <time>2015-06-21T16:08:00Z</time>
      </trkpt>
      <trkpt lat="36.746825" lon="-5.182722">
        <ele>559.208</ele>
        <time>2015-06-21T16:08:01Z</time>
      </trkpt>
      <trkpt lat="36.746831" lon="-5.182701">
        <ele>558.444</ele>
        <time>2015-06-21T16:08:02Z</time>
      </trkpt>
      <trkpt lat="36.746840" lon="-5.182687">
        <ele>557.610</ele>
        <time>2015-06-21T16:08:03Z</time>
      </trkpt>
      <trkpt lat="36.746850" lon="-5.182682">
        <ele>556.893</ele>
        <time>2015-06-21T16:08:04Z</time>
      </trkpt>
      <trkpt lat="36.746855" lon="-5.182667">
        <ele>556.013</ele>
        <time>2015-06-21T16:08:05Z</time>
      </trkpt>
      <trkpt lat="36.746861" lon="-5.182655">
        <ele>555.227</ele>
        <time>2015-06-21T16:08:06Z</time>
      </trkpt>
      <trkpt lat="36.746875" lon="-5.182611">
        <ele>555.274</ele>
        <time>2015-06-21T16:08:08Z</time>
      </trkpt>
      <trkpt lat="36.746878" lon="-5.182589">
        <ele>555.253</ele>
        <time>2015-06-21T16:08:09Z</time>
      </trkpt>
      <trkpt lat="36.746883" lon="-5.182533">
        <ele>555.255</ele>
        <time>2015-06-21T16:08:11Z</time>
      </trkpt>
      <trkpt lat="36.746904" lon="-5.182476">
        <ele>555.237</ele>
        <time>2015-06-21T16:08:14Z</time>
      </trkpt>
      <trkpt lat="36.746923" lon="-5.182436">
        <ele>555.249</ele>
        <time>2015-06-21T16:08:16Z</time>
      </trkpt>
      <trkpt lat="36.746934" lon="-5.182335">
        <ele>555.213</ele>
        <time>2015-06-21T16:08:19Z</time>
      </trkpt>
      <trkpt lat="36.746946" lon="-5.182286">
        <ele>555.208</ele>
        <time>2015-06-21T16:08:20Z</time>
      </trkpt>
      <trkpt lat="36.746960" lon="-5.182151">
        <ele>555.224</ele>
        <time>2015-06-21T16:08:22Z</time>
      </trkpt>
      <trkpt lat="36.746957" lon="-5.182070">
        <ele>555.230</ele>
        <time>2015-06-21T16:08:23Z</time>
      </trkpt>
      <trkpt lat="36.746912" lon="-5.181793">
        <ele>555.263</ele>
        <time>2015-06-21T16:08:26Z</time>
      </trkpt>
      <trkpt lat="36.746908" lon="-5.181699">
        <ele>554.843</ele>
        <time>2015-06-21T16:08:27Z</time>
      </trkpt>
      <trkpt lat="36.746911" lon="-5.181623">
        <ele>554.477</ele>
        <time>2015-06-21T16:08:28Z</time>
      </trkpt>
      <trkpt lat="36.746915" lon="-5.181544">
        <ele>554.074</ele>
        <time>2015-06-21T16:08:29Z</time>
      </trkpt>
      <trkpt lat="36.746929" lon="-5.181459">
        <ele>553.653</ele>
        <time>2015-06-21T16:08:30Z</time>
      </trkpt>
      <trkpt lat="36.746946" lon="-5.181374">
        <ele>553.255</ele>
        <time>2015-06-21T16:08:31Z</time>
      </trkpt>
      <trkpt lat="36.746956" lon="-5.181288">
        <ele>552.881</ele>
        <time>2015-06-21T16:08:32Z</time>
      </trkpt>
      <trkpt lat="36.746964" lon="-5.181187">
        <ele>552.261</ele>
        <time>2015-06-21T16:08:33Z</time>
      </trkpt>
      <trkpt lat="36.746978" lon="-5.181084">
        <ele>551.817</ele>
        <time>2015-06-21T16:08:34Z</time>
      </trkpt>
      <trkpt lat="36.746992" lon="-5.180976">
        <ele>551.408</ele>
        <time>2015-06-21T16:08:35Z</time>
      </trkpt>
      <trkpt lat="36.746989" lon="-5.180873">
        <ele>550.819</ele>
        <time>2015-06-21T16:08:36Z</time>
      </trkpt>
      <trkpt lat="36.746961" lon="-5.180785">
        <ele>550.435</ele>
        <time>2015-06-21T16:08:37Z</time>
      </trkpt>
      <trkpt lat="36.746932" lon="-5.180695">
        <ele>549.828</ele>
        <time>2015-06-21T16:08:38Z</time>
      </trkpt>
      <trkpt lat="36.746921" lon="-5.180607">
        <ele>549.248</ele>
        <time>2015-06-21T16:08:39Z</time>
      </trkpt>
      <trkpt lat="36.746913" lon="-5.180515">
        <ele>548.812</ele>
        <time>2015-06-21T16:08:40Z</time>
      </trkpt>
      <trkpt lat="36.746917" lon="-5.180429">
        <ele>548.279</ele>
        <time>2015-06-21T16:08:41Z</time>
      </trkpt>
      <trkpt lat="36.746926" lon="-5.180346">
        <ele>547.878</ele>
        <time>2015-06-21T16:08:42Z</time>
      </trkpt>
      <trkpt lat="36.746940" lon="-5.180266">
        <ele>547.490</ele>
        <time>2015-06-21T16:08:43Z</time>
      </trkpt>
      <trkpt lat="36.746960" lon="-5.180182">
        <ele>547.049</ele>
        <time>2015-06-21T16:08:44Z</time>
      </trkpt>
      <trkpt lat="36.746973" lon="-5.180101">
        <ele>546.602</ele>
        <time>2015-06-21T16:08:45Z</time>
      </trkpt>
      <trkpt lat="36.746974" lon="-5.180036">
        <ele>546.622</ele>
        <time>2015-06-21T16:08:46Z</time>
      </trkpt>
      <trkpt lat="36.746973" lon="-5.179970">
        <ele>546.608</ele>
        <time>2015-06-21T16:08:47Z</time>
      </trkpt>
      <trkpt lat="36.746968" lon="-5.179832">
        <ele>546.265</ele>
        <time>2015-06-21T16:08:49Z</time>
      </trkpt>
      <trkpt lat="36.746967" lon="-5.179764">
        <ele>545.881</ele>
        <time>2015-06-21T16:08:50Z</time>
      </trkpt>
      <trkpt lat="36.746966" lon="-5.179701">
        <ele>545.414</ele>
        <time>2015-06-21T16:08:51Z</time>
      </trkpt>
      <trkpt lat="36.746966" lon="-5.179643">
        <ele>544.854</ele>
        <time>2015-06-21T16:08:52Z</time>
      </trkpt>
      <trkpt lat="36.746960" lon="-5.179577">
        <ele>544.458</ele>
        <time>2015-06-21T16:08:53Z</time>
      </trkpt>
      <trkpt lat="36.746950" lon="-5.179510">
        <ele>544.455</ele>
        <time>2015-06-21T16:08:54Z</time>
      </trkpt>
      <trkpt lat="36.746937" lon="-5.179455">
        <ele>544.484</ele>
        <time>2015-06-21T16:08:55Z</time>
      </trkpt>
      <trkpt lat="36.746832" lon="-5.179286">
        <ele>544.066</ele>
        <time>2015-06-21T16:08:58Z</time>
      </trkpt>
      <trkpt lat="36.746803" lon="-5.179209">
        <ele>543.688</ele>
        <time>2015-06-21T16:08:59Z</time>
      </trkpt>
      <trkpt lat="36.746785" lon="-5.179141">
        <ele>543.024</ele>
        <time>2015-06-21T16:09:00Z</time>
      </trkpt>
      <trkpt lat="36.746771" lon="-5.179087">
        <ele>542.626</ele>
        <time>2015-06-21T16:09:01Z</time>
      </trkpt>
      <trkpt lat="36.746759" lon="-5.179048">
        <ele>542.208</ele>
        <time>2015-06-21T16:09:02Z</time>
      </trkpt>
      <trkpt lat="36.746723" lon="-5.178979">
        <ele>541.819</ele>
        <time>2015-06-21T16:09:04Z</time>
      </trkpt>
      <trkpt lat="36.746672" lon="-5.178947">
        <ele>541.225</ele>
        <time>2015-06-21T16:09:05Z</time>
      </trkpt>
      <trkpt lat="36.746621" lon="-5.178911">
        <ele>540.838</ele>
        <time>2015-06-21T16:09:06Z</time>
      </trkpt>
      <trkpt lat="36.746576" lon="-5.178859">
        <ele>540.488</ele>
        <time>2015-06-21T16:09:07Z</time>
      </trkpt>
      <trkpt lat="36.746552" lon="-5.178797">
        <ele>540.022</ele>
        <time>2015-06-21T16:09:08Z</time>
      </trkpt>
      <trkpt lat="36.746540" lon="-5.178745">
        <ele>540.029</ele>
        <time>2015-06-21T16:09:09Z</time>
      </trkpt>
      <trkpt lat="36.746529" lon="-5.178703">
        <ele>539.618</ele>
        <time>2015-06-21T16:09:10Z</time>
      </trkpt>
      <trkpt lat="36.746519" lon="-5.178670">
        <ele>539.250</ele>
        <time>2015-06-21T16:09:11Z</time>
      </trkpt>
      <trkpt lat="36.746514" lon="-5.178641">
        <ele>538.651</ele>
        <time>2015-06-21T16:09:12Z</time>
      </trkpt>
      <trkpt lat="36.746515" lon="-5.178615">
        <ele>538.201</ele>
        <time>2015-06-21T16:09:13Z</time>
      </trkpt>
      <trkpt lat="36.746514" lon="-5.178588">
        <ele>537.811</ele>
        <time>2015-06-21T16:09:14Z</time>
      </trkpt>
      <trkpt lat="36.746505" lon="-5.178536">
        <ele>537.808</ele>
        <time>2015-06-21T16:09:16Z</time>
      </trkpt>
      <trkpt lat="36.746484" lon="-5.178441">
        <ele>537.836</ele>
        <time>2015-06-21T16:09:20Z</time>
      </trkpt>
      <trkpt lat="36.746466" lon="-5.178283">
        <ele>537.872</ele>
        <time>2015-06-21T16:09:25Z</time>
      </trkpt>
      <trkpt lat="36.746444" lon="-5.178218">
        <ele>537.865</ele>
        <time>2015-06-21T16:09:27Z</time>
      </trkpt>
      <trkpt lat="36.746418" lon="-5.178097">
        <ele>537.825</ele>
        <time>2015-06-21T16:09:32Z</time>
      </trkpt>
      <trkpt lat="36.746395" lon="-5.178044">
        <ele>537.889</ele>
        <time>2015-06-21T16:09:34Z</time>
      </trkpt>
      <trkpt lat="36.746397" lon="-5.177964">
        <ele>537.886</ele>
        <time>2015-06-21T16:09:36Z</time>
      </trkpt>
      <trkpt lat="36.746395" lon="-5.177809">
        <ele>537.835</ele>
        <time>2015-06-21T16:09:39Z</time>
      </trkpt>
      <trkpt lat="36.746406" lon="-5.177690">
        <ele>537.837</ele>
        <time>2015-06-21T16:09:41Z</time>
      </trkpt>
      <trkpt lat="36.746441" lon="-5.177457">
        <ele>537.845</ele>
        <time>2015-06-21T16:09:47Z</time>
      </trkpt>
      <trkpt lat="36.746465" lon="-5.177264">
        <ele>537.847</ele>
        <time>2015-06-21T16:09:54Z</time>
      </trkpt>
      <trkpt lat="36.746495" lon="-5.177058">
        <ele>537.811</ele>
        <time>2015-06-21T16:09:59Z</time>
      </trkpt>
      <trkpt lat="36.746490" lon="-5.176890">
        <ele>537.808</ele>
        <time>2015-06-21T16:10:04Z</time>
      </trkpt>
      <trkpt lat="36.746486" lon="-5.176842">
        <ele>538.225</ele>
        <time>2015-06-21T16:10:06Z</time>
      </trkpt>
      <trkpt lat="36.746485" lon="-5.176817">
        <ele>538.611</ele>
        <time>2015-06-21T16:10:07Z</time>
      </trkpt>
      <trkpt lat="36.746481" lon="-5.176789">
        <ele>539.064</ele>
        <time>2015-06-21T16:10:08Z</time>
      </trkpt>
      <trkpt lat="36.746477" lon="-5.176763">
        <ele>539.434</ele>
        <time>2015-06-21T16:10:09Z</time>
      </trkpt>
      <trkpt lat="36.746481" lon="-5.176735">
        <ele>540.068</ele>
        <time>2015-06-21T16:10:10Z</time>
      </trkpt>
      <trkpt lat="36.746467" lon="-5.176650">
        <ele>540.055</ele>
        <time>2015-06-21T16:10:13Z</time>
      </trkpt>
      <trkpt lat="36.746454" lon="-5.176508">
        <ele>540.034</ele>
        <time>2015-06-21T16:10:19Z</time>
      </trkpt>
      <trkpt lat="36.746450" lon="-5.176486">
        <ele>540.496</ele>
        <time>2015-06-21T16:10:20Z</time>
      </trkpt>
      <trkpt lat="36.746445" lon="-5.176462">
        <ele>540.862</ele>
        <time>2015-06-21T16:10:21Z</time>
      </trkpt>
      <trkpt lat="36.746438" lon="-5.176439">
        <ele>541.283</ele>
        <time>2015-06-21T16:10:22Z</time>
      </trkpt>
      <trkpt lat="36.746439" lon="-5.176411">
        <ele>541.611</ele>
        <time>2015-06-21T16:10:23Z</time>
      </trkpt>
      <trkpt lat="36.746438" lon="-5.176382">
        <ele>542.008</ele>
        <time>2015-06-21T16:10:24Z</time>
      </trkpt>
      <trkpt lat="36.746434" lon="-5.176321">
        <ele>542.057</ele>
        <time>2015-06-21T16:10:26Z</time>
      </trkpt>
      <trkpt lat="36.746434" lon="-5.176292">
        <ele>542.063</ele>
        <time>2015-06-21T16:10:27Z</time>
      </trkpt>
      <trkpt lat="36.746440" lon="-5.176136">
        <ele>542.036</ele>
        <time>2015-06-21T16:10:32Z</time>
      </trkpt>
      <trkpt lat="36.746435" lon="-5.176044">
        <ele>542.036</ele>
        <time>2015-06-21T16:10:35Z</time>
      </trkpt>
      <trkpt lat="36.746428" lon="-5.175935">
        <ele>542.420</ele>
        <time>2015-06-21T16:10:39Z</time>
      </trkpt>
      <trkpt lat="36.746423" lon="-5.175901">
        <ele>543.087</ele>
        <time>2015-06-21T16:10:40Z</time>
      </trkpt>
      <trkpt lat="36.746418" lon="-5.175866">
        <ele>543.436</ele>
        <time>2015-06-21T16:10:41Z</time>
      </trkpt>
      <trkpt lat="36.746416" lon="-5.175828">
        <ele>544.038</ele>
        <time>2015-06-21T16:10:42Z</time>
      </trkpt>
      <trkpt lat="36.746414" lon="-5.175792">
        <ele>544.479</ele>
        <time>2015-06-21T16:10:43Z</time>
      </trkpt>
      <trkpt lat="36.746450" lon="-5.175596">
        <ele>544.405</ele>
        <time>2015-06-21T16:10:49Z</time>
      </trkpt>
      <trkpt lat="36.746517" lon="-5.175491">
        <ele>544.425</ele>
        <time>2015-06-21T16:10:55Z</time>
      </trkpt>
      <trkpt lat="36.746560" lon="-5.175389">
        <ele>544.808</ele>
        <time>2015-06-21T16:11:01Z</time>
      </trkpt>
      <trkpt lat="36.746564" lon="-5.175371">
        <ele>545.268</ele>
        <time>2015-06-21T16:11:02Z</time>
      </trkpt>
      <trkpt lat="36.746564" lon="-5.175341">
        <ele>545.654</ele>
        <time>2015-06-21T16:11:03Z</time>
      </trkpt>
      <trkpt lat="36.746563" lon="-5.175314">
        <ele>546.097</ele>
        <time>2015-06-21T16:11:04Z</time>
      </trkpt>
      <trkpt lat="36.746556" lon="-5.175288">
        <ele>546.657</ele>
        <time>2015-06-21T16:11:05Z</time>
      </trkpt>
      <trkpt lat="36.746537" lon="-5.175238">
        <ele>546.611</ele>
        <time>2015-06-21T16:11:07Z</time>
      </trkpt>
      <trkpt lat="36.746451" lon="-5.174968">
        <ele>546.638</ele>
        <time>2015-06-21T16:11:17Z</time>
      </trkpt>
      <trkpt lat="36.746405" lon="-5.174808">
        <ele>546.637</ele>
        <time>2015-06-21T16:11:23Z</time>
      </trkpt>
      <trkpt lat="36.746386" lon="-5.174702">
        <ele>547.019</ele>
        <time>2015-06-21T16:11:28Z</time>
      </trkpt>
      <trkpt lat="36.746383" lon="-5.174685">
        <ele>547.422</ele>
        <time>2015-06-21T16:11:29Z</time>
      </trkpt>
      <trkpt lat="36.746377" lon="-5.174674">
        <ele>547.862</ele>
        <time>2015-06-21T16:11:30Z</time>
      </trkpt>
      <trkpt lat="36.746372" lon="-5.174662">
        <ele>548.208</ele>
        <time>2015-06-21T16:11:31Z</time>
      </trkpt>
      <trkpt lat="36.746370" lon="-5.174649">
        <ele>548.608</ele>
        <time>2015-06-21T16:11:32Z</time>
      </trkpt>
      <trkpt lat="36.746344" lon="-5.174618">
        <ele>548.613</ele>
        <time>2015-06-21T16:11:35Z</time>
      </trkpt>
      <trkpt lat="36.746322" lon="-5.174596">
        <ele>548.669</ele>
        <time>2015-06-21T16:11:37Z</time>
      </trkpt>
      <trkpt lat="36.746282" lon="-5.174543">
        <ele>549.062</ele>
        <time>2015-06-21T16:11:41Z</time>
      </trkpt>
      <trkpt lat="36.746270" lon="-5.174531">
        <ele>549.442</ele>
        <time>2015-06-21T16:11:42Z</time>
      </trkpt>
      <trkpt lat="36.746260" lon="-5.174519">
        <ele>549.876</ele>
        <time>2015-06-21T16:11:43Z</time>
      </trkpt>
      <trkpt lat="36.746248" lon="-5.174505">
        <ele>550.223</ele>
        <time>2015-06-21T16:11:44Z</time>
      </trkpt>
      <trkpt lat="36.746237" lon="-5.174490">
        <ele>550.672</ele>
        <time>2015-06-21T16:11:45Z</time>
      </trkpt>
      <trkpt lat="36.746224" lon="-5.174471">
        <ele>550.654</ele>
        <time>2015-06-21T16:11:46Z</time>
      </trkpt>
      <trkpt lat="36.746099" lon="-5.174349">
        <ele>550.624</ele>
        <time>2015-06-21T16:11:53Z</time>
      </trkpt>
      <trkpt lat="36.746002" lon="-5.174266">
        <ele>550.604</ele>
        <time>2015-06-21T16:11:59Z</time>
      </trkpt>
      <trkpt lat="36.745923" lon="-5.174180">
        <ele>551.014</ele>
        <time>2015-06-21T16:12:04Z</time>
      </trkpt>
      <trkpt lat="36.745912" lon="-5.174156">
        <ele>551.608</ele>
        <time>2015-06-21T16:12:05Z</time>
      </trkpt>
      <trkpt lat="36.745900" lon="-5.174130">
        <ele>552.023</ele>
        <time>2015-06-21T16:12:06Z</time>
      </trkpt>
      <trkpt lat="36.745889" lon="-5.174103">
        <ele>552.489</ele>
        <time>2015-06-21T16:12:07Z</time>
      </trkpt>
      <trkpt lat="36.745879" lon="-5.174076">
        <ele>552.882</ele>
        <time>2015-06-21T16:12:08Z</time>
      </trkpt>
      <trkpt lat="36.745818" lon="-5.173926">
        <ele>552.892</ele>
        <time>2015-06-21T16:12:13Z</time>
      </trkpt>
      <trkpt lat="36.745724" lon="-5.173734">
        <ele>552.846</ele>
        <time>2015-06-21T16:12:19Z</time>
      </trkpt>
      <trkpt lat="36.745647" lon="-5.173614">
        <ele>552.893</ele>
        <time>2015-06-21T16:12:22Z</time>
      </trkpt>
      <trkpt lat="36.745615" lon="-5.173581">
        <ele>552.842</ele>
        <time>2015-06-21T16:12:23Z</time>
      </trkpt>
      <trkpt lat="36.745464" lon="-5.173532">
        <ele>552.864</ele>
        <time>2015-06-21T16:12:26Z</time>
      </trkpt>
      <trkpt lat="36.745348" lon="-5.173545">
        <ele>552.822</ele>
        <time>2015-06-21T16:12:28Z</time>
      </trkpt>
      <trkpt lat="36.745232" lon="-5.173572">
        <ele>552.462</ele>
        <time>2015-06-21T16:12:30Z</time>
      </trkpt>
      <trkpt lat="36.745173" lon="-5.173593">
        <ele>552.008</ele>
        <time>2015-06-21T16:12:31Z</time>
      </trkpt>
      <trkpt lat="36.745108" lon="-5.173615">
        <ele>551.608</ele>
        <time>2015-06-21T16:12:32Z</time>
      </trkpt>
      <trkpt lat="36.745041" lon="-5.173627">
        <ele>551.093</ele>
        <time>2015-06-21T16:12:33Z</time>
      </trkpt>
      <trkpt lat="36.744976" lon="-5.173623">
        <ele>550.659</ele>
        <time>2015-06-21T16:12:34Z</time>
      </trkpt>
      <trkpt lat="36.744919" lon="-5.173605">
        <ele>550.612</ele>
        <time>2015-06-21T16:12:35Z</time>
      </trkpt>
      <trkpt lat="36.744867" lon="-5.173575">
        <ele>550.262</ele>
        <time>2015-06-21T16:12:36Z</time>
      </trkpt>
      <trkpt lat="36.744823" lon="-5.173524">
        <ele>549.846</ele>
        <time>2015-06-21T16:12:37Z</time>
      </trkpt>
      <trkpt lat="36.744793" lon="-5.173464">
        <ele>549.273</ele>
        <time>2015-06-21T16:12:38Z</time>
      </trkpt>
      <trkpt lat="36.744778" lon="-5.173403">
        <ele>548.462</ele>
        <time>2015-06-21T16:12:39Z</time>
      </trkpt>
      <trkpt lat="36.744768" lon="-5.173288">
        <ele>548.054</ele>
        <time>2015-06-21T16:12:41Z</time>
      </trkpt>
      <trkpt lat="36.744761" lon="-5.173236">
        <ele>547.615</ele>
        <time>2015-06-21T16:12:42Z</time>
      </trkpt>
      <trkpt lat="36.744751" lon="-5.173195">
        <ele>547.265</ele>
        <time>2015-06-21T16:12:43Z</time>
      </trkpt>
      <trkpt lat="36.744737" lon="-5.173165">
        <ele>546.811</ele>
        <time>2015-06-21T16:12:44Z</time>
      </trkpt>
      <trkpt lat="36.744712" lon="-5.173141">
        <ele>546.408</ele>
        <time>2015-06-21T16:12:45Z</time>
      </trkpt>
      <trkpt lat="36.744554" lon="-5.173114">
        <ele>546.462</ele>
        <time>2015-06-21T16:12:48Z</time>
      </trkpt>
      <trkpt lat="36.744440" lon="-5.173070">
        <ele>546.048</ele>
        <time>2015-06-21T16:12:50Z</time>
      </trkpt>
      <trkpt lat="36.744386" lon="-5.173038">
        <ele>545.461</ele>
        <time>2015-06-21T16:12:51Z</time>
      </trkpt>
      <trkpt lat="36.744327" lon="-5.173006">
        <ele>545.011</ele>
        <time>2015-06-21T16:12:52Z</time>
      </trkpt>
      <trkpt lat="36.744271" lon="-5.172981">
        <ele>544.665</ele>
        <time>2015-06-21T16:12:53Z</time>
      </trkpt>
      <trkpt lat="36.744218" lon="-5.172962">
        <ele>544.072</ele>
        <time>2015-06-21T16:12:54Z</time>
      </trkpt>
      <trkpt lat="36.744170" lon="-5.172937">
        <ele>544.051</ele>
        <time>2015-06-21T16:12:55Z</time>
      </trkpt>
      <trkpt lat="36.744129" lon="-5.172907">
        <ele>544.053</ele>
        <time>2015-06-21T16:12:56Z</time>
      </trkpt>
      <trkpt lat="36.744067" lon="-5.172819">
        <ele>543.634</ele>
        <time>2015-06-21T16:12:58Z</time>
      </trkpt>
      <trkpt lat="36.744036" lon="-5.172753">
        <ele>543.255</ele>
        <time>2015-06-21T16:12:59Z</time>
      </trkpt>
      <trkpt lat="36.744009" lon="-5.172681">
        <ele>542.810</ele>
        <time>2015-06-21T16:13:00Z</time>
      </trkpt>
      <trkpt lat="36.743976" lon="-5.172610">
        <ele>542.408</ele>
        <time>2015-06-21T16:13:01Z</time>
      </trkpt>
      <trkpt lat="36.743934" lon="-5.172552">
        <ele>542.064</ele>
        <time>2015-06-21T16:13:02Z</time>
      </trkpt>
      <trkpt lat="36.743885" lon="-5.172502">
        <ele>541.470</ele>
        <time>2015-06-21T16:13:03Z</time>
      </trkpt>
      <trkpt lat="36.743832" lon="-5.172463">
        <ele>540.423</ele>
        <time>2015-06-21T16:13:04Z</time>
      </trkpt>
      <trkpt lat="36.743777" lon="-5.172430">
        <ele>539.823</ele>
        <time>2015-06-21T16:13:05Z</time>
      </trkpt>
      <trkpt lat="36.743677" lon="-5.172345">
        <ele>539.877</ele>
        <time>2015-06-21T16:13:07Z</time>
      </trkpt>
      <trkpt lat="36.743606" lon="-5.172233">
        <ele>539.884</ele>
        <time>2015-06-21T16:13:09Z</time>
      </trkpt>
      <trkpt lat="36.743543" lon="-5.172115">
        <ele>539.873</ele>
        <time>2015-06-21T16:13:11Z</time>
      </trkpt>
      <trkpt lat="36.743473" lon="-5.171996">
        <ele>539.455</ele>
        <time>2015-06-21T16:13:13Z</time>
      </trkpt>
      <trkpt lat="36.743427" lon="-5.171935">
        <ele>539.037</ele>
        <time>2015-06-21T16:13:14Z</time>
      </trkpt>
      <trkpt lat="36.743371" lon="-5.171876">
        <ele>538.649</ele>
        <time>2015-06-21T16:13:15Z</time>
      </trkpt>
      <trkpt lat="36.743300" lon="-5.171814">
        <ele>538.013</ele>
        <time>2015-06-21T16:13:16Z</time>
      </trkpt>
      <trkpt lat="36.743227" lon="-5.171751">
        <ele>537.608</ele>
        <time>2015-06-21T16:13:17Z</time>
      </trkpt>
      <trkpt lat="36.743167" lon="-5.171683">
        <ele>537.664</ele>
        <time>2015-06-21T16:13:18Z</time>
      </trkpt>
      <trkpt lat="36.743126" lon="-5.171622">
        <ele>537.210</ele>
        <time>2015-06-21T16:13:19Z</time>
      </trkpt>
      <trkpt lat="36.743103" lon="-5.171566">
        <ele>536.873</ele>
        <time>2015-06-21T16:13:20Z</time>
      </trkpt>
      <trkpt lat="36.743084" lon="-5.171517">
        <ele>536.293</ele>
        <time>2015-06-21T16:13:21Z</time>
      </trkpt>
      <trkpt lat="36.743056" lon="-5.171470">
        <ele>535.817</ele>
        <time>2015-06-21T16:13:22Z</time>
      </trkpt>
      <trkpt lat="36.743021" lon="-5.171420">
        <ele>535.254</ele>
        <time>2015-06-21T16:13:23Z</time>
      </trkpt>
      <trkpt lat="36.742914" lon="-5.171322">
        <ele>534.823</ele>
        <time>2015-06-21T16:13:25Z</time>
      </trkpt>
      <trkpt lat="36.742850" lon="-5.171287">
        <ele>534.465</ele>
        <time>2015-06-21T16:13:26Z</time>
      </trkpt>
      <trkpt lat="36.742786" lon="-5.171267">
        <ele>534.017</ele>
        <time>2015-06-21T16:13:27Z</time>
      </trkpt>
      <trkpt lat="36.742728" lon="-5.171263">
        <ele>533.287</ele>
        <time>2015-06-21T16:13:28Z</time>
      </trkpt>
      <trkpt lat="36.742663" lon="-5.171325">
        <ele>532.815</ele>
        <time>2015-06-21T16:13:30Z</time>
      </trkpt>
      <trkpt lat="36.742657" lon="-5.171364">
        <ele>532.408</ele>
        <time>2015-06-21T16:13:31Z</time>
      </trkpt>
      <trkpt lat="36.742653" lon="-5.171389">
        <ele>532.092</ele>
        <time>2015-06-21T16:13:32Z</time>
      </trkpt>
      <trkpt lat="36.742649" lon="-5.171414">
        <ele>531.668</ele>
        <time>2015-06-21T16:13:33Z</time>
      </trkpt>
      <trkpt lat="36.742644" lon="-5.171437">
        <ele>531.251</ele>
        <time>2015-06-21T16:13:34Z</time>
      </trkpt>
      <trkpt lat="36.742642" lon="-5.171461">
        <ele>531.211</ele>
        <time>2015-06-21T16:13:35Z</time>
      </trkpt>
      <trkpt lat="36.742637" lon="-5.171520">
        <ele>531.295</ele>
        <time>2015-06-21T16:13:38Z</time>
      </trkpt>
      <trkpt lat="36.742637" lon="-5.171577">
        <ele>531.292</ele>
        <time>2015-06-21T16:13:41Z</time>
      </trkpt>
      <trkpt lat="36.742628" lon="-5.171619">
        <ele>531.661</ele>
        <time>2015-06-21T16:13:44Z</time>
      </trkpt>
      <trkpt lat="36.742627" lon="-5.171635">
        <ele>532.073</ele>
        <time>2015-06-21T16:13:45Z</time>
      </trkpt>
      <trkpt lat="36.742628" lon="-5.171649">
        <ele>532.437</ele>
        <time>2015-06-21T16:13:46Z</time>
      </trkpt>
      <trkpt lat="36.742628" lon="-5.171663">
        <ele>532.849</ele>
        <time>2015-06-21T16:13:47Z</time>
      </trkpt>
      <trkpt lat="36.742627" lon="-5.171677">
        <ele>533.213</ele>
        <time>2015-06-21T16:13:48Z</time>
      </trkpt>
      <trkpt lat="36.742620" lon="-5.171720">
        <ele>533.208</ele>
        <time>2015-06-21T16:13:51Z</time>
      </trkpt>
      <trkpt lat="36.742616" lon="-5.171733">
        <ele>533.284</ele>
        <time>2015-06-21T16:13:52Z</time>
      </trkpt>
      <trkpt lat="36.742615" lon="-5.171749">
        <ele>534.040</ele>
        <time>2015-06-21T16:13:53Z</time>
      </trkpt>
      <trkpt lat="36.742616" lon="-5.171764">
        <ele>534.413</ele>
        <time>2015-06-21T16:13:54Z</time>
      </trkpt>
      <trkpt lat="36.742617" lon="-5.171774">
        <ele>535.093</ele>
        <time>2015-06-21T16:13:55Z</time>
      </trkpt>
      <trkpt lat="36.742618" lon="-5.171788">
        <ele>535.477</ele>
        <time>2015-06-21T16:13:56Z</time>
      </trkpt>
      <trkpt lat="36.742620" lon="-5.171803">
        <ele>535.444</ele>
        <time>2015-06-21T16:13:57Z</time>
      </trkpt>
      <trkpt lat="36.742636" lon="-5.171852">
        <ele>535.483</ele>
        <time>2015-06-21T16:14:01Z</time>
      </trkpt>
      <trkpt lat="36.742635" lon="-5.171864">
        <ele>535.445</ele>
        <time>2015-06-21T16:14:02Z</time>
      </trkpt>
      <trkpt lat="36.742634" lon="-5.171877">
        <ele>535.875</ele>
        <time>2015-06-21T16:14:03Z</time>
      </trkpt>
      <trkpt lat="36.742633" lon="-5.171892">
        <ele>536.228</ele>
        <time>2015-06-21T16:14:04Z</time>
      </trkpt>
      <trkpt lat="36.742635" lon="-5.171907">
        <ele>536.620</ele>
        <time>2015-06-21T16:14:05Z</time>
      </trkpt>
      <trkpt lat="36.742640" lon="-5.171920">
        <ele>537.008</ele>
        <time>2015-06-21T16:14:06Z</time>
      </trkpt>
      <trkpt lat="36.742643" lon="-5.171932">
        <ele>537.448</ele>
        <time>2015-06-21T16:14:07Z</time>
      </trkpt>
      <trkpt lat="36.742645" lon="-5.171946">
        <ele>537.474</ele>
        <time>2015-06-21T16:14:08Z</time>
      </trkpt>
      <trkpt lat="36.742633" lon="-5.172020">
        <ele>537.477</ele>
        <time>2015-06-21T16:14:14Z</time>
      </trkpt>
      <trkpt lat="36.742633" lon="-5.172034">
        <ele>537.887</ele>
        <time>2015-06-21T16:14:15Z</time>
      </trkpt>
      <trkpt lat="36.742633" lon="-5.172046">
        <ele>538.221</ele>
        <time>2015-06-21T16:14:16Z</time>
      </trkpt>
      <trkpt lat="36.742632" lon="-5.172046">
        <ele>538.678</ele>
        <time>2015-06-21T16:14:17Z</time>
      </trkpt>
      <trkpt lat="36.742626" lon="-5.172058">
        <ele>539.447</ele>
        <time>2015-06-21T16:14:18Z</time>
      </trkpt>
      <trkpt lat="36.742605" lon="-5.172089">
        <ele>539.419</ele>
        <time>2015-06-21T16:14:21Z</time>
      </trkpt>
      <trkpt lat="36.742592" lon="-5.172142">
        <ele>540.016</ele>
        <time>2015-06-21T16:14:26Z</time>
      </trkpt>
      <trkpt lat="36.742588" lon="-5.172150">
        <ele>540.476</ele>
        <time>2015-06-21T16:14:27Z</time>
      </trkpt>
      <trkpt lat="36.742583" lon="-5.172160">
        <ele>540.813</ele>
        <time>2015-06-21T16:14:28Z</time>
      </trkpt>
      <trkpt lat="36.742575" lon="-5.172169">
        <ele>541.208</ele>
        <time>2015-06-21T16:14:29Z</time>
      </trkpt>
      <trkpt lat="36.742566" lon="-5.172178">
        <ele>541.642</ele>
        <time>2015-06-21T16:14:30Z</time>
      </trkpt>
      <trkpt lat="36.742549" lon="-5.172211">
        <ele>541.648</ele>
        <time>2015-06-21T16:14:33Z</time>
      </trkpt>
      <trkpt lat="36.742542" lon="-5.172229">
        <ele>541.611</ele>
        <time>2015-06-21T16:14:34Z</time>
      </trkpt>
      <trkpt lat="36.742528" lon="-5.172248">
        <ele>542.071</ele>
        <time>2015-06-21T16:14:36Z</time>
      </trkpt>
      <trkpt lat="36.742523" lon="-5.172252">
        <ele>542.675</ele>
        <time>2015-06-21T16:14:37Z</time>
      </trkpt>
      <trkpt lat="36.742516" lon="-5.172252">
        <ele>543.092</ele>
        <time>2015-06-21T16:14:38Z</time>
      </trkpt>
      <trkpt lat="36.742507" lon="-5.172252">
        <ele>543.491</ele>
        <time>2015-06-21T16:14:39Z</time>
      </trkpt>
      <trkpt lat="36.742499" lon="-5.172255">
        <ele>543.873</ele>
        <time>2015-06-21T16:14:40Z</time>
      </trkpt>
      <trkpt lat="36.742460" lon="-5.172268">
        <ele>543.825</ele>
        <time>2015-06-21T16:14:46Z</time>
      </trkpt>
      <trkpt lat="36.742459" lon="-5.172211">
        <ele>543.826</ele>
        <time>2015-06-21T16:14:52Z</time>
      </trkpt>
      <trkpt lat="36.742453" lon="-5.172182">
        <ele>544.208</ele>
        <time>2015-06-21T16:14:54Z</time>
      </trkpt>
      <trkpt lat="36.742453" lon="-5.172174">
        <ele>544.608</ele>
        <time>2015-06-21T16:14:55Z</time>
      </trkpt>
      <trkpt lat="36.742456" lon="-5.172167">
        <ele>545.023</ele>
        <time>2015-06-21T16:14:56Z</time>
      </trkpt>
      <trkpt lat="36.742462" lon="-5.172155">
        <ele>545.469</ele>
        <time>2015-06-21T16:14:57Z</time>
      </trkpt>
      <trkpt lat="36.742469" lon="-5.172142">
        <ele>545.812</ele>
        <time>2015-06-21T16:14:58Z</time>
      </trkpt>
      <trkpt lat="36.742487" lon="-5.172095">
        <ele>545.852</ele>
        <time>2015-06-21T16:15:01Z</time>
      </trkpt>
      <trkpt lat="36.742504" lon="-5.172015">
        <ele>545.856</ele>
        <time>2015-06-21T16:15:06Z</time>
      </trkpt>
      <trkpt lat="36.742502" lon="-5.172001">
        <ele>545.883</ele>
        <time>2015-06-21T16:15:07Z</time>
      </trkpt>
      <trkpt lat="36.742477" lon="-5.171933">
        <ele>545.862</ele>
        <time>2015-06-21T16:15:11Z</time>
      </trkpt>
      <trkpt lat="36.742471" lon="-5.171901">
        <ele>545.864</ele>
        <time>2015-06-21T16:15:13Z</time>
      </trkpt>
      <trkpt lat="36.742467" lon="-5.171887">
        <ele>546.282</ele>
        <time>2015-06-21T16:15:14Z</time>
      </trkpt>
      <trkpt lat="36.742460" lon="-5.171872">
        <ele>546.643</ele>
        <time>2015-06-21T16:15:15Z</time>
      </trkpt>
      <trkpt lat="36.742455" lon="-5.171856">
        <ele>547.017</ele>
        <time>2015-06-21T16:15:16Z</time>
      </trkpt>
      <trkpt lat="36.742450" lon="-5.171835">
        <ele>547.408</ele>
        <time>2015-06-21T16:15:17Z</time>
      </trkpt>
      <trkpt lat="36.742448" lon="-5.171813">
        <ele>548.039</ele>
        <time>2015-06-21T16:15:18Z</time>
      </trkpt>
      <trkpt lat="36.742439" lon="-5.171741">
        <ele>548.025</ele>
        <time>2015-06-21T16:15:21Z</time>
      </trkpt>
      <trkpt lat="36.742407" lon="-5.171653">
        <ele>548.088</ele>
        <time>2015-06-21T16:15:25Z</time>
      </trkpt>
      <trkpt lat="36.742391" lon="-5.171600">
        <ele>548.078</ele>
        <time>2015-06-21T16:15:27Z</time>
      </trkpt>
      <trkpt lat="36.742332" lon="-5.171473">
        <ele>548.072</ele>
        <time>2015-06-21T16:15:32Z</time>
      </trkpt>
      <trkpt lat="36.742247" lon="-5.171377">
        <ele>548.069</ele>
        <time>2015-06-21T16:15:37Z</time>
      </trkpt>
      <trkpt lat="36.742229" lon="-5.171361">
        <ele>548.018</ele>
        <time>2015-06-21T16:15:38Z</time>
      </trkpt>
      <trkpt lat="36.742129" lon="-5.171284">
        <ele>548.050</ele>
        <time>2015-06-21T16:15:44Z</time>
      </trkpt>
      <trkpt lat="36.742009" lon="-5.171174">
        <ele>548.053</ele>
        <time>2015-06-21T16:15:51Z</time>
      </trkpt>
      <trkpt lat="36.741896" lon="-5.171018">
        <ele>548.004</ele>
        <time>2015-06-21T16:15:58Z</time>
      </trkpt>
      <trkpt lat="36.741824" lon="-5.170902">
        <ele>548.014</ele>
        <time>2015-06-21T16:16:02Z</time>
      </trkpt>
      <trkpt lat="36.741770" lon="-5.170775">
        <ele>548.008</ele>
        <time>2015-06-21T16:16:05Z</time>
      </trkpt>
      <trkpt lat="36.741731" lon="-5.170704">
        <ele>548.096</ele>
        <time>2015-06-21T16:16:07Z</time>
      </trkpt>
      <trkpt lat="36.741708" lon="-5.170683">
        <ele>548.012</ele>
        <time>2015-06-21T16:16:08Z</time>
      </trkpt>
      <trkpt lat="36.741609" lon="-5.170666">
        <ele>548.065</ele>
        <time>2015-06-21T16:16:12Z</time>
      </trkpt>
      <trkpt lat="36.741520" lon="-5.170694">
        <ele>548.035</ele>
        <time>2015-06-21T16:16:17Z</time>
      </trkpt>
      <trkpt lat="36.741438" lon="-5.170717">
        <ele>548.469</ele>
        <time>2015-06-21T16:16:21Z</time>
      </trkpt>
      <trkpt lat="36.741406" lon="-5.170704">
        <ele>549.266</ele>
        <time>2015-06-21T16:16:22Z</time>
      </trkpt>
      <trkpt lat="36.741370" lon="-5.170673">
        <ele>549.665</ele>
        <time>2015-06-21T16:16:23Z</time>
      </trkpt>
      <trkpt lat="36.741336" lon="-5.170626">
        <ele>550.017</ele>
        <time>2015-06-21T16:16:24Z</time>
      </trkpt>
      <trkpt lat="36.741302" lon="-5.170581">
        <ele>550.044</ele>
        <time>2015-06-21T16:16:25Z</time>
      </trkpt>
      <trkpt lat="36.741124" lon="-5.170494">
        <ele>550.005</ele>
        <time>2015-06-21T16:16:29Z</time>
      </trkpt>
      <trkpt lat="36.741072" lon="-5.170478">
        <ele>549.615</ele>
        <time>2015-06-21T16:16:30Z</time>
      </trkpt>
      <trkpt lat="36.741021" lon="-5.170463">
        <ele>549.208</ele>
        <time>2015-06-21T16:16:31Z</time>
      </trkpt>
      <trkpt lat="36.740974" lon="-5.170452">
        <ele>548.615</ele>
        <time>2015-06-21T16:16:32Z</time>
      </trkpt>
      <trkpt lat="36.740925" lon="-5.170439">
        <ele>548.261</ele>
        <time>2015-06-21T16:16:33Z</time>
      </trkpt>
      <trkpt lat="36.740888" lon="-5.170430">
        <ele>547.814</ele>
        <time>2015-06-21T16:16:34Z</time>
      </trkpt>
      <trkpt lat="36.740861" lon="-5.170419">
        <ele>547.834</ele>
        <time>2015-06-21T16:16:35Z</time>
      </trkpt>
      <trkpt lat="36.740816" lon="-5.170403">
        <ele>547.868</ele>
        <time>2015-06-21T16:16:38Z</time>
      </trkpt>
      <trkpt lat="36.740802" lon="-5.170402">
        <ele>547.835</ele>
        <time>2015-06-21T16:16:39Z</time>
      </trkpt>
      <trkpt lat="36.740780" lon="-5.170398">
        <ele>547.894</ele>
        <time>2015-06-21T16:16:41Z</time>
      </trkpt>
      <trkpt lat="36.740760" lon="-5.170406">
        <ele>547.866</ele>
        <time>2015-06-21T16:16:43Z</time>
      </trkpt>
      <trkpt lat="36.740751" lon="-5.170412">
        <ele>547.832</ele>
        <time>2015-06-21T16:16:44Z</time>
      </trkpt>
      <trkpt lat="36.740740" lon="-5.170417">
        <ele>547.892</ele>
        <time>2015-06-21T16:16:45Z</time>
      </trkpt>
      <trkpt lat="36.740696" lon="-5.170420">
        <ele>547.811</ele>
        <time>2015-06-21T16:16:49Z</time>
      </trkpt>
      <trkpt lat="36.740684" lon="-5.170424">
        <ele>547.808</ele>
        <time>2015-06-21T16:16:50Z</time>
      </trkpt>
      <trkpt lat="36.740675" lon="-5.170428">
        <ele>548.234</ele>
        <time>2015-06-21T16:16:51Z</time>
      </trkpt>
      <trkpt lat="36.740665" lon="-5.170434">
        <ele>548.660</ele>
        <time>2015-06-21T16:16:52Z</time>
      </trkpt>
      <trkpt lat="36.740655" lon="-5.170444">
        <ele>549.013</ele>
        <time>2015-06-21T16:16:53Z</time>
      </trkpt>
      <trkpt lat="36.740644" lon="-5.170452">
        <ele>549.443</ele>
        <time>2015-06-21T16:16:54Z</time>
      </trkpt>
      <trkpt lat="36.740633" lon="-5.170456">
        <ele>549.857</ele>
        <time>2015-06-21T16:16:55Z</time>
      </trkpt>
      <trkpt lat="36.740608" lon="-5.170465">
        <ele>549.824</ele>
        <time>2015-06-21T16:16:57Z</time>
      </trkpt>
      <trkpt lat="36.740558" lon="-5.170487">
        <ele>549.863</ele>
        <time>2015-06-21T16:17:02Z</time>
      </trkpt>
      <trkpt lat="36.740535" lon="-5.170495">
        <ele>549.875</ele>
        <time>2015-06-21T16:17:04Z</time>
      </trkpt>
      <trkpt lat="36.740524" lon="-5.170504">
        <ele>550.294</ele>
        <time>2015-06-21T16:17:05Z</time>
      </trkpt>
      <trkpt lat="36.740512" lon="-5.170513">
        <ele>550.657</ele>
        <time>2015-06-21T16:17:06Z</time>
      </trkpt>
      <trkpt lat="36.740500" lon="-5.170518">
        <ele>551.222</ele>
        <time>2015-06-21T16:17:07Z</time>
      </trkpt>
      <trkpt lat="36.740489" lon="-5.170522">
        <ele>551.608</ele>
        <time>2015-06-21T16:17:08Z</time>
      </trkpt>
      <trkpt lat="36.740479" lon="-5.170524">
        <ele>552.080</ele>
        <time>2015-06-21T16:17:09Z</time>
      </trkpt>
      <trkpt lat="36.740460" lon="-5.170523">
        <ele>552.096</ele>
        <time>2015-06-21T16:17:11Z</time>
      </trkpt>
      <trkpt lat="36.740451" lon="-5.170517">
        <ele>552.019</ele>
        <time>2015-06-21T16:17:12Z</time>
      </trkpt>
      <trkpt lat="36.740417" lon="-5.170478">
        <ele>552.029</ele>
        <time>2015-06-21T16:17:17Z</time>
      </trkpt>
      <trkpt lat="36.740409" lon="-5.170472">
        <ele>552.443</ele>
        <time>2015-06-21T16:17:18Z</time>
      </trkpt>
      <trkpt lat="36.740399" lon="-5.170468">
        <ele>552.860</ele>
        <time>2015-06-21T16:17:19Z</time>
      </trkpt>
      <trkpt lat="36.740389" lon="-5.170462">
        <ele>553.489</ele>
        <time>2015-06-21T16:17:20Z</time>
      </trkpt>
      <trkpt lat="36.740382" lon="-5.170455">
        <ele>553.811</ele>
        <time>2015-06-21T16:17:21Z</time>
      </trkpt>
      <trkpt lat="36.740374" lon="-5.170449">
        <ele>554.214</ele>
        <time>2015-06-21T16:17:22Z</time>
      </trkpt>
      <trkpt lat="36.740367" lon="-5.170443">
        <ele>554.254</ele>
        <time>2015-06-21T16:17:23Z</time>
      </trkpt>
      <trkpt lat="36.740328" lon="-5.170435">
        <ele>554.209</ele>
        <time>2015-06-21T16:17:28Z</time>
      </trkpt>
      <trkpt lat="36.740320" lon="-5.170432">
        <ele>554.608</ele>
        <time>2015-06-21T16:17:29Z</time>
      </trkpt>
      <trkpt lat="36.740309" lon="-5.170431">
        <ele>555.062</ele>
        <time>2015-06-21T16:17:30Z</time>
      </trkpt>
      <trkpt lat="36.740300" lon="-5.170434">
        <ele>555.428</ele>
        <time>2015-06-21T16:17:31Z</time>
      </trkpt>
      <trkpt lat="36.740293" lon="-5.170433">
        <ele>555.811</ele>
        <time>2015-06-21T16:17:32Z</time>
      </trkpt>
      <trkpt lat="36.740283" lon="-5.170429">
        <ele>556.441</ele>
        <time>2015-06-21T16:17:33Z</time>
      </trkpt>
      <trkpt lat="36.740270" lon="-5.170413">
        <ele>556.425</ele>
        <time>2015-06-21T16:17:35Z</time>
      </trkpt>
      <trkpt lat="36.740253" lon="-5.170400">
        <ele>556.432</ele>
        <time>2015-06-21T16:17:37Z</time>
      </trkpt>
      <trkpt lat="36.740232" lon="-5.170409">
        <ele>556.871</ele>
        <time>2015-06-21T16:17:39Z</time>
      </trkpt>
      <trkpt lat="36.740222" lon="-5.170412">
        <ele>557.253</ele>
        <time>2015-06-21T16:17:40Z</time>
      </trkpt>
      <trkpt lat="36.740213" lon="-5.170407">
        <ele>557.697</ele>
        <time>2015-06-21T16:17:41Z</time>
      </trkpt>
      <trkpt lat="36.740205" lon="-5.170400">
        <ele>558.023</ele>
        <time>2015-06-21T16:17:42Z</time>
      </trkpt>
      <trkpt lat="36.740197" lon="-5.170392">
        <ele>558.425</ele>
        <time>2015-06-21T16:17:43Z</time>
      </trkpt>
      <trkpt lat="36.740183" lon="-5.170380">
        <ele>558.408</ele>
        <time>2015-06-21T16:17:45Z</time>
      </trkpt>
      <trkpt lat="36.740157" lon="-5.170365">
        <ele>558.430</ele>
        <time>2015-06-21T16:17:48Z</time>
      </trkpt>
      <trkpt lat="36.740142" lon="-5.170367">
        <ele>558.896</ele>
        <time>2015-06-21T16:17:50Z</time>
      </trkpt>
      <trkpt lat="36.740131" lon="-5.170366">
        <ele>559.289</ele>
        <time>2015-06-21T16:17:51Z</time>
      </trkpt>
      <trkpt lat="36.740121" lon="-5.170363">
        <ele>559.669</ele>
        <time>2015-06-21T16:17:52Z</time>
      </trkpt>
      <trkpt lat="36.740110" lon="-5.170358">
        <ele>560.093</ele>
        <time>2015-06-21T16:17:53Z</time>
      </trkpt>
      <trkpt lat="36.740099" lon="-5.170358">
        <ele>560.420</ele>
        <time>2015-06-21T16:17:54Z</time>
      </trkpt>
      <trkpt lat="36.740063" lon="-5.170356">
        <ele>560.429</ele>
        <time>2015-06-21T16:17:57Z</time>
      </trkpt>
      <trkpt lat="36.740015" lon="-5.170361">
        <ele>560.491</ele>
        <time>2015-06-21T16:18:01Z</time>
      </trkpt>
      <trkpt lat="36.739996" lon="-5.170369">
        <ele>560.882</ele>
        <time>2015-06-21T16:18:03Z</time>
      </trkpt>
      <trkpt lat="36.739990" lon="-5.170374">
        <ele>561.243</ele>
        <time>2015-06-21T16:18:04Z</time>
      </trkpt>
      <trkpt lat="36.739981" lon="-5.170380">
        <ele>561.617</ele>
        <time>2015-06-21T16:18:05Z</time>
      </trkpt>
      <trkpt lat="36.739972" lon="-5.170386">
        <ele>562.208</ele>
        <time>2015-06-21T16:18:06Z</time>
      </trkpt>
      <trkpt lat="36.739964" lon="-5.170394">
        <ele>562.669</ele>
        <time>2015-06-21T16:18:07Z</time>
      </trkpt>
      <trkpt lat="36.739944" lon="-5.170399">
        <ele>562.685</ele>
        <time>2015-06-21T16:18:09Z</time>
      </trkpt>
      <trkpt lat="36.739908" lon="-5.170397">
        <ele>562.648</ele>
        <time>2015-06-21T16:18:14Z</time>
      </trkpt>
      <trkpt lat="36.739900" lon="-5.170390">
        <ele>562.698</ele>
        <time>2015-06-21T16:18:15Z</time>
      </trkpt>
      <trkpt lat="36.739846" lon="-5.170361">
        <ele>562.692</ele>
        <time>2015-06-21T16:18:20Z</time>
      </trkpt>
      <trkpt lat="36.739838" lon="-5.170367">
        <ele>563.079</ele>
        <time>2015-06-21T16:18:21Z</time>
      </trkpt>
      <trkpt lat="36.739831" lon="-5.170376">
        <ele>563.488</ele>
        <time>2015-06-21T16:18:22Z</time>
      </trkpt>
      <trkpt lat="36.739822" lon="-5.170383">
        <ele>563.850</ele>
        <time>2015-06-21T16:18:23Z</time>
      </trkpt>
      <trkpt lat="36.739810" lon="-5.170388">
        <ele>564.224</ele>
        <time>2015-06-21T16:18:24Z</time>
      </trkpt>
      <trkpt lat="36.739801" lon="-5.170387">
        <ele>564.604</ele>
        <time>2015-06-21T16:18:25Z</time>
      </trkpt>
      <trkpt lat="36.739790" lon="-5.170384">
        <ele>564.614</ele>
        <time>2015-06-21T16:18:26Z</time>
      </trkpt>
      <trkpt lat="36.739734" lon="-5.170390">
        <ele>564.608</ele>
        <time>2015-06-21T16:18:31Z</time>
      </trkpt>
      <trkpt lat="36.739712" lon="-5.170394">
        <ele>565.043</ele>
        <time>2015-06-21T16:18:33Z</time>
      </trkpt>
      <trkpt lat="36.739697" lon="-5.170396">
        <ele>565.469</ele>
        <time>2015-06-21T16:18:34Z</time>
      </trkpt>
      <trkpt lat="36.739686" lon="-5.170398">
        <ele>565.852</ele>
        <time>2015-06-21T16:18:35Z</time>
      </trkpt>
      <trkpt lat="36.739678" lon="-5.170398">
        <ele>566.242</ele>
        <time>2015-06-21T16:18:36Z</time>
      </trkpt>
      <trkpt lat="36.739669" lon="-5.170396">
        <ele>566.656</ele>
        <time>2015-06-21T16:18:37Z</time>
      </trkpt>
      <trkpt lat="36.739658" lon="-5.170396">
        <ele>566.643</ele>
        <time>2015-06-21T16:18:38Z</time>
      </trkpt>
      <trkpt lat="36.739623" lon="-5.170396">
        <ele>566.632</ele>
        <time>2015-06-21T16:18:41Z</time>
      </trkpt>
      <trkpt lat="36.739596" lon="-5.170399">
        <ele>566.684</ele>
        <time>2015-06-21T16:18:44Z</time>
      </trkpt>
      <trkpt lat="36.739552" lon="-5.170366">
        <ele>567.023</ele>
        <time>2015-06-21T16:18:49Z</time>
      </trkpt>
      <trkpt lat="36.739543" lon="-5.170356">
        <ele>567.683</ele>
        <time>2015-06-21T16:18:50Z</time>
      </trkpt>
      <trkpt lat="36.739538" lon="-5.170346">
        <ele>568.411</ele>
        <time>2015-06-21T16:18:51Z</time>
      </trkpt>
      <trkpt lat="36.739536" lon="-5.170337">
        <ele>568.808</ele>
        <time>2015-06-21T16:18:52Z</time>
      </trkpt>
      <trkpt lat="36.739523" lon="-5.170277">
        <ele>569.283</ele>
        <time>2015-06-21T16:18:57Z</time>
      </trkpt>
      <trkpt lat="36.739516" lon="-5.170271">
        <ele>569.619</ele>
        <time>2015-06-21T16:18:58Z</time>
      </trkpt>
      <trkpt lat="36.739511" lon="-5.170265">
        <ele>570.082</ele>
        <time>2015-06-21T16:18:59Z</time>
      </trkpt>
      <trkpt lat="36.739503" lon="-5.170263">
        <ele>570.412</ele>
        <time>2015-06-21T16:19:00Z</time>
      </trkpt>
      <trkpt lat="36.739492" lon="-5.170259">
        <ele>570.826</ele>
        <time>2015-06-21T16:19:01Z</time>
      </trkpt>
      <trkpt lat="36.739475" lon="-5.170255">
        <ele>570.873</ele>
        <time>2015-06-21T16:19:03Z</time>
      </trkpt>
      <trkpt lat="36.739467" lon="-5.170259">
        <ele>570.872</ele>
        <time>2015-06-21T16:19:04Z</time>
      </trkpt>
      <trkpt lat="36.739454" lon="-5.170256">
        <ele>571.284</ele>
        <time>2015-06-21T16:19:08Z</time>
      </trkpt>
      <trkpt lat="36.739454" lon="-5.170256">
        <ele>571.611</ele>
        <time>2015-06-21T16:19:09Z</time>
      </trkpt>
      <trkpt lat="36.739454" lon="-5.170256">
        <ele>572.021</ele>
        <time>2015-06-21T16:19:10Z</time>
      </trkpt>
      <trkpt lat="36.739454" lon="-5.170256">
        <ele>572.403</ele>
        <time>2015-06-21T16:19:11Z</time>
      </trkpt>
      <trkpt lat="36.739454" lon="-5.170256">
        <ele>572.808</ele>
        <time>2015-06-21T16:19:12Z</time>
      </trkpt>
      <trkpt lat="36.739454" lon="-5.170256">
        <ele>572.892</ele>
        <time>2015-06-21T16:19:19Z</time>
      </trkpt>
      <trkpt lat="36.739454" lon="-5.170256">
        <ele>572.818</ele>
        <time>2015-06-21T16:19:29Z</time>
      </trkpt>
      <trkpt lat="36.739454" lon="-5.170256">
        <ele>572.891</ele>
        <time>2015-06-21T16:19:32Z</time>
      </trkpt>
      <trkpt lat="36.739454" lon="-5.170256">
        <ele>572.881</ele>
        <time>2015-06-21T16:19:38Z</time>
      </trkpt>
      <trkpt lat="36.739454" lon="-5.170256">
        <ele>572.825</ele>
        <time>2015-06-21T16:19:42Z</time>
      </trkpt>
      <trkpt lat="36.739454" lon="-5.170256">
        <ele>572.882</ele>
        <time>2015-06-21T16:19:45Z</time>
      </trkpt>
      <trkpt lat="36.739455" lon="-5.170256">
        <ele>572.811</ele>
        <time>2015-06-21T16:19:48Z</time>
      </trkpt>
      <trkpt lat="36.739455" lon="-5.170256">
        <ele>572.813</ele>
        <time>2015-06-21T16:19:50Z</time>
      </trkpt>
      <trkpt lat="36.739455" lon="-5.170256">
        <ele>572.816</ele>
        <time>2015-06-21T16:19:53Z</time>
      </trkpt>
      <trkpt lat="36.739455" lon="-5.170256">
        <ele>572.876</ele>
        <time>2015-06-21T16:19:54Z</time>
      </trkpt>
      <trkpt lat="36.739455" lon="-5.170256">
        <ele>572.813</ele>
        <time>2015-06-21T16:19:57Z</time>
      </trkpt>
      <trkpt lat="36.739455" lon="-5.170256">
        <ele>572.808</ele>
        <time>2015-06-21T16:19:59Z</time>
      </trkpt>
      <trkpt lat="36.739455" lon="-5.170256">
        <ele>572.822</ele>
        <time>2015-06-21T16:20:02Z</time>
      </trkpt>
      <trkpt lat="36.739447" lon="-5.170251">
        <ele>572.838</ele>
        <time>2015-06-21T16:20:04Z</time>
      </trkpt>
      <trkpt lat="36.739405" lon="-5.170263">
        <ele>572.891</ele>
        <time>2015-06-21T16:20:09Z</time>
      </trkpt>
      <trkpt lat="36.739365" lon="-5.170302">
        <ele>572.871</ele>
        <time>2015-06-21T16:20:13Z</time>
      </trkpt>
      <trkpt lat="36.739349" lon="-5.170320">
        <ele>573.245</ele>
        <time>2015-06-21T16:20:15Z</time>
      </trkpt>
      <trkpt lat="36.739343" lon="-5.170334">
        <ele>573.642</ele>
        <time>2015-06-21T16:20:16Z</time>
      </trkpt>
      <trkpt lat="36.739336" lon="-5.170348">
        <ele>574.071</ele>
        <time>2015-06-21T16:20:17Z</time>
      </trkpt>
      <trkpt lat="36.739331" lon="-5.170364">
        <ele>574.443</ele>
        <time>2015-06-21T16:20:18Z</time>
      </trkpt>
      <trkpt lat="36.739328" lon="-5.170378">
        <ele>574.864</ele>
        <time>2015-06-21T16:20:19Z</time>
      </trkpt>
      <trkpt lat="36.739307" lon="-5.170425">
        <ele>574.806</ele>
        <time>2015-06-21T16:20:23Z</time>
      </trkpt>
      <trkpt lat="36.739302" lon="-5.170437">
        <ele>574.816</ele>
        <time>2015-06-21T16:20:24Z</time>
      </trkpt>
      <trkpt lat="36.739287" lon="-5.170481">
        <ele>575.408</ele>
        <time>2015-06-21T16:20:27Z</time>
      </trkpt>
      <trkpt lat="36.739282" lon="-5.170495">
        <ele>575.867</ele>
        <time>2015-06-21T16:20:28Z</time>
      </trkpt>
      <trkpt lat="36.739274" lon="-5.170510">
        <ele>576.693</ele>
        <time>2015-06-21T16:20:29Z</time>
      </trkpt>
      <trkpt lat="36.739268" lon="-5.170524">
        <ele>577.256</ele>
        <time>2015-06-21T16:20:30Z</time>
      </trkpt>
      <trkpt lat="36.739242" lon="-5.170578">
        <ele>577.246</ele>
        <time>2015-06-21T16:20:34Z</time>
      </trkpt>
      <trkpt lat="36.739238" lon="-5.170588">
        <ele>577.290</ele>
        <time>2015-06-21T16:20:35Z</time>
      </trkpt>
      <trkpt lat="36.739229" lon="-5.170609">
        <ele>577.677</ele>
        <time>2015-06-21T16:20:37Z</time>
      </trkpt>
      <trkpt lat="36.739224" lon="-5.170621">
        <ele>578.086</ele>
        <time>2015-06-21T16:20:38Z</time>
      </trkpt>
      <trkpt lat="36.739223" lon="-5.170624">
        <ele>578.448</ele>
        <time>2015-06-21T16:20:39Z</time>
      </trkpt>
      <trkpt lat="36.739221" lon="-5.170624">
        <ele>578.861</ele>
        <time>2015-06-21T16:20:40Z</time>
      </trkpt>
      <trkpt lat="36.739221" lon="-5.170624">
        <ele>579.421</ele>
        <time>2015-06-21T16:20:41Z</time>
      </trkpt>
      <trkpt lat="36.739221" lon="-5.170624">
        <ele>579.413</ele>
        <time>2015-06-21T16:20:48Z</time>
      </trkpt>
      <trkpt lat="36.739221" lon="-5.170624">
        <ele>579.408</ele>
        <time>2015-06-21T16:20:51Z</time>
      </trkpt>
      <trkpt lat="36.739221" lon="-5.170624">
        <ele>579.467</ele>
        <time>2015-06-21T16:20:54Z</time>
      </trkpt>
      <trkpt lat="36.739217" lon="-5.170634">
        <ele>579.423</ele>
        <time>2015-06-21T16:21:03Z</time>
      </trkpt>
      <trkpt lat="36.739217" lon="-5.170634">
        <ele>579.466</ele>
        <time>2015-06-21T16:21:11Z</time>
      </trkpt>
      <trkpt lat="36.739217" lon="-5.170634">
        <ele>579.456</ele>
        <time>2015-06-21T16:21:14Z</time>
      </trkpt>
      <trkpt lat="36.739217" lon="-5.170634">
        <ele>579.430</ele>
        <time>2015-06-21T16:21:15Z</time>
      </trkpt>
      <trkpt lat="36.739217" lon="-5.170634">
        <ele>579.497</ele>
        <time>2015-06-21T16:21:17Z</time>
      </trkpt>
      <trkpt lat="36.739217" lon="-5.170634">
        <ele>579.476</ele>
        <time>2015-06-21T16:21:19Z</time>
      </trkpt>
      <trkpt lat="36.739217" lon="-5.170634">
        <ele>579.498</ele>
        <time>2015-06-21T16:21:22Z</time>
      </trkpt>
      <trkpt lat="36.739217" lon="-5.170634">
        <ele>579.485</ele>
        <time>2015-06-21T16:21:24Z</time>
      </trkpt>
      <trkpt lat="36.739217" lon="-5.170634">
        <ele>579.489</ele>
        <time>2015-06-21T16:21:27Z</time>
      </trkpt>
      <trkpt lat="36.739217" lon="-5.170634">
        <ele>579.417</ele>
        <time>2015-06-21T16:21:29Z</time>
      </trkpt>
      <trkpt lat="36.739217" lon="-5.170630">
        <ele>579.408</ele>
        <time>2015-06-21T16:21:46Z</time>
      </trkpt>
      <trkpt lat="36.739217" lon="-5.170630">
        <ele>579.489</ele>
        <time>2015-06-21T16:22:00Z</time>
      </trkpt>
      <trkpt lat="36.739217" lon="-5.170630">
        <ele>579.445</ele>
        <time>2015-06-21T16:22:05Z</time>
      </trkpt>
      <trkpt lat="36.739217" lon="-5.170630">
        <ele>579.448</ele>
        <time>2015-06-21T16:22:10Z</time>
      </trkpt>
      <trkpt lat="36.739217" lon="-5.170630">
        <ele>579.498</ele>
        <time>2015-06-21T16:22:17Z</time>
      </trkpt>
      <trkpt lat="36.739213" lon="-5.170634">
        <ele>579.482</ele>
        <time>2015-06-21T16:22:22Z</time>
      </trkpt>
      <trkpt lat="36.739213" lon="-5.170634">
        <ele>579.469</ele>
        <time>2015-06-21T16:22:23Z</time>
      </trkpt>
      <trkpt lat="36.739207" lon="-5.170636">
        <ele>579.488</ele>
        <time>2015-06-21T16:22:27Z</time>
      </trkpt>
      <trkpt lat="36.739207" lon="-5.170636">
        <ele>579.450</ele>
        <time>2015-06-21T16:22:29Z</time>
      </trkpt>
      <trkpt lat="36.739207" lon="-5.170636">
        <ele>579.422</ele>
        <time>2015-06-21T16:22:39Z</time>
      </trkpt>
      <trkpt lat="36.739205" lon="-5.170635">
        <ele>579.462</ele>
        <time>2015-06-21T16:22:41Z</time>
      </trkpt>
      <trkpt lat="36.739195" lon="-5.170637">
        <ele>579.408</ele>
        <time>2015-06-21T16:22:42Z</time>
      </trkpt>
      <trkpt lat="36.739174" lon="-5.170636">
        <ele>579.408</ele>
        <time>2015-06-21T16:22:44Z</time>
      </trkpt>
      <trkpt lat="36.739112" lon="-5.170617">
        <ele>579.853</ele>
        <time>2015-06-21T16:22:50Z</time>
      </trkpt>
      <trkpt lat="36.739108" lon="-5.170601">
        <ele>580.219</ele>
        <time>2015-06-21T16:22:51Z</time>
      </trkpt>
      <trkpt lat="36.739102" lon="-5.170589">
        <ele>580.692</ele>
        <time>2015-06-21T16:22:52Z</time>
      </trkpt>
      <trkpt lat="36.739094" lon="-5.170577">
        <ele>581.242</ele>
        <time>2015-06-21T16:22:53Z</time>
      </trkpt>
      <trkpt lat="36.739085" lon="-5.170568">
        <ele>581.676</ele>
        <time>2015-06-21T16:22:54Z</time>
      </trkpt>
      <trkpt lat="36.739075" lon="-5.170559">
        <ele>581.693</ele>
        <time>2015-06-21T16:22:55Z</time>
      </trkpt>
      <trkpt lat="36.739059" lon="-5.170539">
        <ele>581.642</ele>
        <time>2015-06-21T16:22:57Z</time>
      </trkpt>
      <trkpt lat="36.739033" lon="-5.170501">
        <ele>582.074</ele>
        <time>2015-06-21T16:23:00Z</time>
      </trkpt>
      <trkpt lat="36.739025" lon="-5.170492">
        <ele>582.437</ele>
        <time>2015-06-21T16:23:01Z</time>
      </trkpt>
      <trkpt lat="36.739019" lon="-5.170482">
        <ele>582.849</ele>
        <time>2015-06-21T16:23:02Z</time>
      </trkpt>
      <trkpt lat="36.739013" lon="-5.170472">
        <ele>583.213</ele>
        <time>2015-06-21T16:23:03Z</time>
      </trkpt>
      <trkpt lat="36.739005" lon="-5.170460">
        <ele>583.608</ele>
        <time>2015-06-21T16:23:04Z</time>
      </trkpt>
      <trkpt lat="36.738991" lon="-5.170442">
        <ele>583.694</ele>
        <time>2015-06-21T16:23:06Z</time>
      </trkpt>
      <trkpt lat="36.738976" lon="-5.170423">
        <ele>583.620</ele>
        <time>2015-06-21T16:23:08Z</time>
      </trkpt>
      <trkpt lat="36.738969" lon="-5.170415">
        <ele>583.633</ele>
        <time>2015-06-21T16:23:09Z</time>
      </trkpt>
      <trkpt lat="36.738957" lon="-5.170394">
        <ele>583.683</ele>
        <time>2015-06-21T16:23:12Z</time>
      </trkpt>
      <trkpt lat="36.738958" lon="-5.170373">
        <ele>584.067</ele>
        <time>2015-06-21T16:23:14Z</time>
      </trkpt>
      <trkpt lat="36.738956" lon="-5.170360">
        <ele>584.634</ele>
        <time>2015-06-21T16:23:15Z</time>
      </trkpt>
      <trkpt lat="36.738956" lon="-5.170348">
        <ele>585.043</ele>
        <time>2015-06-21T16:23:16Z</time>
      </trkpt>
      <trkpt lat="36.738957" lon="-5.170337">
        <ele>585.455</ele>
        <time>2015-06-21T16:23:17Z</time>
      </trkpt>
      <trkpt lat="36.738955" lon="-5.170322">
        <ele>585.842</ele>
        <time>2015-06-21T16:23:18Z</time>
      </trkpt>
      <trkpt lat="36.738943" lon="-5.170306">
        <ele>585.822</ele>
        <time>2015-06-21T16:23:20Z</time>
      </trkpt>
      <trkpt lat="36.738931" lon="-5.170299">
        <ele>585.814</ele>
        <time>2015-06-21T16:23:21Z</time>
      </trkpt>
      <trkpt lat="36.738878" lon="-5.170286">
        <ele>585.808</ele>
        <time>2015-06-21T16:23:26Z</time>
      </trkpt>
      <trkpt lat="36.738869" lon="-5.170280">
        <ele>585.825</ele>
        <time>2015-06-21T16:23:27Z</time>
      </trkpt>
      <trkpt lat="36.738855" lon="-5.170266">
        <ele>585.861</ele>
        <time>2015-06-21T16:23:29Z</time>
      </trkpt>
      <trkpt lat="36.738854" lon="-5.170253">
        <ele>586.464</ele>
        <time>2015-06-21T16:23:30Z</time>
      </trkpt>
      <trkpt lat="36.738847" lon="-5.170243">
        <ele>586.854</ele>
        <time>2015-06-21T16:23:31Z</time>
      </trkpt>
      <trkpt lat="36.738838" lon="-5.170232">
        <ele>587.258</ele>
        <time>2015-06-21T16:23:32Z</time>
      </trkpt>
      <trkpt lat="36.738832" lon="-5.170221">
        <ele>587.635</ele>
        <time>2015-06-21T16:23:33Z</time>
      </trkpt>
      <trkpt lat="36.738824" lon="-5.170212">
        <ele>588.014</ele>
        <time>2015-06-21T16:23:34Z</time>
      </trkpt>
      <trkpt lat="36.738768" lon="-5.170169">
        <ele>588.026</ele>
        <time>2015-06-21T16:23:40Z</time>
      </trkpt>
      <trkpt lat="36.738757" lon="-5.170165">
        <ele>588.028</ele>
        <time>2015-06-21T16:23:41Z</time>
      </trkpt>
      <trkpt lat="36.738736" lon="-5.170162">
        <ele>588.689</ele>
        <time>2015-06-21T16:23:43Z</time>
      </trkpt>
      <trkpt lat="36.738726" lon="-5.170162">
        <ele>589.017</ele>
        <time>2015-06-21T16:23:44Z</time>
      </trkpt>
      <trkpt lat="36.738717" lon="-5.170162">
        <ele>589.408</ele>
        <time>2015-06-21T16:23:45Z</time>
      </trkpt>
      <trkpt lat="36.738705" lon="-5.170162">
        <ele>589.883</ele>
        <time>2015-06-21T16:23:46Z</time>
      </trkpt>
      <trkpt lat="36.738692" lon="-5.170163">
        <ele>590.269</ele>
        <time>2015-06-21T16:23:47Z</time>
      </trkpt>
      <trkpt lat="36.738669" lon="-5.170174">
        <ele>590.692</ele>
        <time>2015-06-21T16:23:49Z</time>
      </trkpt>
      <trkpt lat="36.738664" lon="-5.170176">
        <ele>591.022</ele>
        <time>2015-06-21T16:23:50Z</time>
      </trkpt>
      <trkpt lat="36.738658" lon="-5.170176">
        <ele>591.456</ele>
        <time>2015-06-21T16:23:51Z</time>
      </trkpt>
      <trkpt lat="36.738649" lon="-5.170171">
        <ele>591.883</ele>
        <time>2015-06-21T16:23:52Z</time>
      </trkpt>
      <trkpt lat="36.738640" lon="-5.170171">
        <ele>592.222</ele>
        <time>2015-06-21T16:23:53Z</time>
      </trkpt>
      <trkpt lat="36.738630" lon="-5.170175">
        <ele>592.244</ele>
        <time>2015-06-21T16:23:54Z</time>
      </trkpt>
      <trkpt lat="36.738605" lon="-5.170205">
        <ele>592.274</ele>
        <time>2015-06-21T16:23:57Z</time>
      </trkpt>
      <trkpt lat="36.738587" lon="-5.170222">
        <ele>592.256</ele>
        <time>2015-06-21T16:23:59Z</time>
      </trkpt>
      <trkpt lat="36.738568" lon="-5.170238">
        <ele>592.821</ele>
        <time>2015-06-21T16:24:01Z</time>
      </trkpt>
      <trkpt lat="36.738559" lon="-5.170242">
        <ele>593.208</ele>
        <time>2015-06-21T16:24:02Z</time>
      </trkpt>
      <trkpt lat="36.738548" lon="-5.170244">
        <ele>593.618</ele>
        <time>2015-06-21T16:24:03Z</time>
      </trkpt>
      <trkpt lat="36.738535" lon="-5.170247">
        <ele>594.054</ele>
        <time>2015-06-21T16:24:04Z</time>
      </trkpt>
      <trkpt lat="36.738523" lon="-5.170251">
        <ele>594.497</ele>
        <time>2015-06-21T16:24:05Z</time>
      </trkpt>
      <trkpt lat="36.738471" lon="-5.170280">
        <ele>594.457</ele>
        <time>2015-06-21T16:24:11Z</time>
      </trkpt>
      <trkpt lat="36.738459" lon="-5.170282">
        <ele>594.871</ele>
        <time>2015-06-21T16:24:12Z</time>
      </trkpt>
      <trkpt lat="36.738447" lon="-5.170287">
        <ele>595.238</ele>
        <time>2015-06-21T16:24:13Z</time>
      </trkpt>
      <trkpt lat="36.738436" lon="-5.170291">
        <ele>595.627</ele>
        <time>2015-06-21T16:24:14Z</time>
      </trkpt>
      <trkpt lat="36.738427" lon="-5.170293">
        <ele>596.099</ele>
        <time>2015-06-21T16:24:15Z</time>
      </trkpt>
      <trkpt lat="36.738420" lon="-5.170291">
        <ele>596.476</ele>
        <time>2015-06-21T16:24:16Z</time>
      </trkpt>
      <trkpt lat="36.738401" lon="-5.170289">
        <ele>596.490</ele>
        <time>2015-06-21T16:24:18Z</time>
      </trkpt>
      <trkpt lat="36.738369" lon="-5.170283">
        <ele>596.419</ele>
        <time>2015-06-21T16:24:21Z</time>
      </trkpt>
      <trkpt lat="36.738339" lon="-5.170275">
        <ele>596.408</ele>
        <time>2015-06-21T16:24:24Z</time>
      </trkpt>
      <trkpt lat="36.738302" lon="-5.170250">
        <ele>596.438</ele>
        <time>2015-06-21T16:24:28Z</time>
      </trkpt>
      <trkpt lat="36.738281" lon="-5.170242">
        <ele>596.424</ele>
        <time>2015-06-21T16:24:30Z</time>
      </trkpt>
      <trkpt lat="36.738270" lon="-5.170238">
        <ele>596.847</ele>
        <time>2015-06-21T16:24:31Z</time>
      </trkpt>
      <trkpt lat="36.738259" lon="-5.170233">
        <ele>597.277</ele>
        <time>2015-06-21T16:24:32Z</time>
      </trkpt>
      <trkpt lat="36.738246" lon="-5.170226">
        <ele>597.651</ele>
        <time>2015-06-21T16:24:33Z</time>
      </trkpt>
      <trkpt lat="36.738234" lon="-5.170218">
        <ele>598.038</ele>
        <time>2015-06-21T16:24:34Z</time>
      </trkpt>
      <trkpt lat="36.738223" lon="-5.170210">
        <ele>598.627</ele>
        <time>2015-06-21T16:24:35Z</time>
      </trkpt>
      <trkpt lat="36.738190" lon="-5.170194">
        <ele>598.629</ele>
        <time>2015-06-21T16:24:38Z</time>
      </trkpt>
      <trkpt lat="36.738139" lon="-5.170153">
        <ele>598.684</ele>
        <time>2015-06-21T16:24:43Z</time>
      </trkpt>
      <trkpt lat="36.738126" lon="-5.170146">
        <ele>598.607</ele>
        <time>2015-06-21T16:24:44Z</time>
      </trkpt>
      <trkpt lat="36.738089" lon="-5.170122">
        <ele>599.017</ele>
        <time>2015-06-21T16:24:47Z</time>
      </trkpt>
      <trkpt lat="36.738076" lon="-5.170115">
        <ele>599.408</ele>
        <time>2015-06-21T16:24:48Z</time>
      </trkpt>
      <trkpt lat="36.738066" lon="-5.170108">
        <ele>599.829</ele>
        <time>2015-06-21T16:24:49Z</time>
      </trkpt>
      <trkpt lat="36.738056" lon="-5.170100">
        <ele>600.235</ele>
        <time>2015-06-21T16:24:50Z</time>
      </trkpt>
      <trkpt lat="36.738048" lon="-5.170092">
        <ele>600.648</ele>
        <time>2015-06-21T16:24:51Z</time>
      </trkpt>
      <trkpt lat="36.738041" lon="-5.170079">
        <ele>600.698</ele>
        <time>2015-06-21T16:24:52Z</time>
      </trkpt>
      <trkpt lat="36.738029" lon="-5.170072">
        <ele>600.632</ele>
        <time>2015-06-21T16:24:53Z</time>
      </trkpt>
      <trkpt lat="36.737983" lon="-5.170047">
        <ele>600.679</ele>
        <time>2015-06-21T16:24:57Z</time>
      </trkpt>
      <trkpt lat="36.737934" lon="-5.170011">
        <ele>600.688</ele>
        <time>2015-06-21T16:25:02Z</time>
      </trkpt>
      <trkpt lat="36.737924" lon="-5.170003">
        <ele>600.660</ele>
        <time>2015-06-21T16:25:03Z</time>
      </trkpt>
      <trkpt lat="36.737914" lon="-5.169996">
        <ele>601.063</ele>
        <time>2015-06-21T16:25:04Z</time>
      </trkpt>
      <trkpt lat="36.737904" lon="-5.169992">
        <ele>601.444</ele>
        <time>2015-06-21T16:25:05Z</time>
      </trkpt>
      <trkpt lat="36.737894" lon="-5.169994">
        <ele>601.818</ele>
        <time>2015-06-21T16:25:06Z</time>
      </trkpt>
      <trkpt lat="36.737883" lon="-5.169995">
        <ele>602.208</ele>
        <time>2015-06-21T16:25:07Z</time>
      </trkpt>
      <trkpt lat="36.737871" lon="-5.169995">
        <ele>602.637</ele>
        <time>2015-06-21T16:25:08Z</time>
      </trkpt>
      <trkpt lat="36.737847" lon="-5.169992">
        <ele>602.623</ele>
        <time>2015-06-21T16:25:10Z</time>
      </trkpt>
      <trkpt lat="36.737783" lon="-5.169982">
        <ele>603.296</ele>
        <time>2015-06-21T16:25:15Z</time>
      </trkpt>
      <trkpt lat="36.737773" lon="-5.169984">
        <ele>603.696</ele>
        <time>2015-06-21T16:25:16Z</time>
      </trkpt>
      <trkpt lat="36.737761" lon="-5.169984">
        <ele>604.050</ele>
        <time>2015-06-21T16:25:17Z</time>
      </trkpt>
      <trkpt lat="36.737749" lon="-5.169990">
        <ele>604.457</ele>
        <time>2015-06-21T16:25:18Z</time>
      </trkpt>
      <trkpt lat="36.737736" lon="-5.169999">
        <ele>604.876</ele>
        <time>2015-06-21T16:25:19Z</time>
      </trkpt>
      <trkpt lat="36.737691" lon="-5.170018">
        <ele>604.838</ele>
        <time>2015-06-21T16:25:23Z</time>
      </trkpt>
      <trkpt lat="36.737630" lon="-5.170055">
        <ele>605.212</ele>
        <time>2015-06-21T16:25:29Z</time>
      </trkpt>
      <trkpt lat="36.737621" lon="-5.170057">
        <ele>605.632</ele>
        <time>2015-06-21T16:25:30Z</time>
      </trkpt>
      <trkpt lat="36.737611" lon="-5.170060">
        <ele>606.205</ele>
        <time>2015-06-21T16:25:31Z</time>
      </trkpt>
      <trkpt lat="36.737600" lon="-5.170063">
        <ele>606.608</ele>
        <time>2015-06-21T16:25:32Z</time>
      </trkpt>
      <trkpt lat="36.737590" lon="-5.170064">
        <ele>607.212</ele>
        <time>2015-06-21T16:25:33Z</time>
      </trkpt>
      <trkpt lat="36.737550" lon="-5.170099">
        <ele>607.248</ele>
        <time>2015-06-21T16:25:37Z</time>
      </trkpt>
      <trkpt lat="36.737516" lon="-5.170111">
        <ele>607.631</ele>
        <time>2015-06-21T16:25:40Z</time>
      </trkpt>
      <trkpt lat="36.737505" lon="-5.170114">
        <ele>608.041</ele>
        <time>2015-06-21T16:25:41Z</time>
      </trkpt>
      <trkpt lat="36.737494" lon="-5.170119">
        <ele>608.415</ele>
        <time>2015-06-21T16:25:42Z</time>
      </trkpt>
      <trkpt lat="36.737485" lon="-5.170127">
        <ele>608.852</ele>
        <time>2015-06-21T16:25:43Z</time>
      </trkpt>
      <trkpt lat="36.737474" lon="-5.170132">
        <ele>609.211</ele>
        <time>2015-06-21T16:25:44Z</time>
      </trkpt>
      <trkpt lat="36.737445" lon="-5.170127">
        <ele>609.273</ele>
        <time>2015-06-21T16:25:47Z</time>
      </trkpt>
      <trkpt lat="36.737428" lon="-5.170116">
        <ele>609.279</ele>
        <time>2015-06-21T16:25:49Z</time>
      </trkpt>
      <trkpt lat="36.737411" lon="-5.170105">
        <ele>609.605</ele>
        <time>2015-06-21T16:25:51Z</time>
      </trkpt>
      <trkpt lat="36.737402" lon="-5.170102">
        <ele>610.225</ele>
        <time>2015-06-21T16:25:52Z</time>
      </trkpt>
      <trkpt lat="36.737393" lon="-5.170095">
        <ele>610.608</ele>
        <time>2015-06-21T16:25:53Z</time>
      </trkpt>
      <trkpt lat="36.737385" lon="-5.170087">
        <ele>611.028</ele>
        <time>2015-06-21T16:25:54Z</time>
      </trkpt>
      <trkpt lat="36.737376" lon="-5.170081">
        <ele>611.444</ele>
        <time>2015-06-21T16:25:55Z</time>
      </trkpt>
      <trkpt lat="36.737371" lon="-5.170072">
        <ele>611.487</ele>
        <time>2015-06-21T16:25:56Z</time>
      </trkpt>
      <trkpt lat="36.737339" lon="-5.170012">
        <ele>611.427</ele>
        <time>2015-06-21T16:26:01Z</time>
      </trkpt>
      <trkpt lat="36.737336" lon="-5.170001">
        <ele>611.861</ele>
        <time>2015-06-21T16:26:02Z</time>
      </trkpt>
      <trkpt lat="36.737334" lon="-5.169991">
        <ele>612.458</ele>
        <time>2015-06-21T16:26:03Z</time>
      </trkpt>
      <trkpt lat="36.737331" lon="-5.169981">
        <ele>612.887</ele>
        <time>2015-06-21T16:26:04Z</time>
      </trkpt>
      <trkpt lat="36.737332" lon="-5.169970">
        <ele>613.269</ele>
        <time>2015-06-21T16:26:05Z</time>
      </trkpt>
      <trkpt lat="36.737332" lon="-5.169959">
        <ele>613.653</ele>
        <time>2015-06-21T16:26:06Z</time>
      </trkpt>
      <trkpt lat="36.737328" lon="-5.169949">
        <ele>613.604</ele>
        <time>2015-06-21T16:26:07Z</time>
      </trkpt>
      <trkpt lat="36.737317" lon="-5.169911">
        <ele>614.014</ele>
        <time>2015-06-21T16:26:10Z</time>
      </trkpt>
      <trkpt lat="36.737313" lon="-5.169899">
        <ele>614.408</ele>
        <time>2015-06-21T16:26:11Z</time>
      </trkpt>
      <trkpt lat="36.737307" lon="-5.169888">
        <ele>614.826</ele>
        <time>2015-06-21T16:26:12Z</time>
      </trkpt>
      <trkpt lat="36.737300" lon="-5.169878">
        <ele>615.212</ele>
        <time>2015-06-21T16:26:13Z</time>
      </trkpt>
      <trkpt lat="36.737294" lon="-5.169868">
        <ele>615.625</ele>
        <time>2015-06-21T16:26:14Z</time>
      </trkpt>
      <trkpt lat="36.737287" lon="-5.169860">
        <ele>615.645</ele>
        <time>2015-06-21T16:26:15Z</time>
      </trkpt>
      <trkpt lat="36.737268" lon="-5.169836">
        <ele>615.649</ele>
        <time>2015-06-21T16:26:18Z</time>
      </trkpt>
      <trkpt lat="36.737228" lon="-5.169809">
        <ele>616.026</ele>
        <time>2015-06-21T16:26:22Z</time>
      </trkpt>
      <trkpt lat="36.737222" lon="-5.169797">
        <ele>616.465</ele>
        <time>2015-06-21T16:26:23Z</time>
      </trkpt>
      <trkpt lat="36.737221" lon="-5.169784">
        <ele>616.847</ele>
        <time>2015-06-21T16:26:24Z</time>
      </trkpt>
      <trkpt lat="36.737221" lon="-5.169772">
        <ele>617.278</ele>
        <time>2015-06-21T16:26:25Z</time>
      </trkpt>
      <trkpt lat="36.737217" lon="-5.169759">
        <ele>617.633</ele>
        <time>2015-06-21T16:26:26Z</time>
      </trkpt>
      <trkpt lat="36.737206" lon="-5.169713">
        <ele>617.626</ele>
        <time>2015-06-21T16:26:30Z</time>
      </trkpt>
      <trkpt lat="36.737202" lon="-5.169705">
        <ele>617.608</ele>
        <time>2015-06-21T16:26:31Z</time>
      </trkpt>
      <trkpt lat="36.737191" lon="-5.169687">
        <ele>618.018</ele>
        <time>2015-06-21T16:26:33Z</time>
      </trkpt>
      <trkpt lat="36.737191" lon="-5.169685">
        <ele>618.414</ele>
        <time>2015-06-21T16:26:34Z</time>
      </trkpt>
      <trkpt lat="36.737191" lon="-5.169685">
        <ele>619.017</ele>
        <time>2015-06-21T16:26:35Z</time>
      </trkpt>
      <trkpt lat="36.737191" lon="-5.169685">
        <ele>619.447</ele>
        <time>2015-06-21T16:26:36Z</time>
      </trkpt>
      <trkpt lat="36.737189" lon="-5.169690">
        <ele>619.861</ele>
        <time>2015-06-21T16:26:37Z</time>
      </trkpt>
      <trkpt lat="36.737189" lon="-5.169690">
        <ele>619.818</ele>
        <time>2015-06-21T16:26:42Z</time>
      </trkpt>
      <trkpt lat="36.737189" lon="-5.169690">
        <ele>619.817</ele>
        <time>2015-06-21T16:26:51Z</time>
      </trkpt>
      <trkpt lat="36.737189" lon="-5.169690">
        <ele>619.839</ele>
        <time>2015-06-21T16:26:58Z</time>
      </trkpt>
      <trkpt lat="36.737189" lon="-5.169690">
        <ele>619.899</ele>
        <time>2015-06-21T16:26:59Z</time>
      </trkpt>
      <trkpt lat="36.737189" lon="-5.169690">
        <ele>619.807</ele>
        <time>2015-06-21T16:27:10Z</time>
      </trkpt>
      <trkpt lat="36.737189" lon="-5.169690">
        <ele>619.827</ele>
        <time>2015-06-21T16:27:12Z</time>
      </trkpt>
      <trkpt lat="36.737189" lon="-5.169690">
        <ele>619.808</ele>
        <time>2015-06-21T16:27:15Z</time>
      </trkpt>
      <trkpt lat="36.737189" lon="-5.169691">
        <ele>619.810</ele>
        <time>2015-06-21T16:27:18Z</time>
      </trkpt>
      <trkpt lat="36.737189" lon="-5.169691">
        <ele>619.856</ele>
        <time>2015-06-21T16:27:20Z</time>
      </trkpt>
      <trkpt lat="36.737189" lon="-5.169691">
        <ele>619.869</ele>
        <time>2015-06-21T16:27:22Z</time>
      </trkpt>
      <trkpt lat="36.737189" lon="-5.169691">
        <ele>619.889</ele>
        <time>2015-06-21T16:27:24Z</time>
      </trkpt>
      <trkpt lat="36.737189" lon="-5.169691">
        <ele>619.893</ele>
        <time>2015-06-21T16:27:27Z</time>
      </trkpt>
      <trkpt lat="36.737189" lon="-5.169691">
        <ele>619.880</ele>
        <time>2015-06-21T16:27:31Z</time>
      </trkpt>
      <trkpt lat="36.737189" lon="-5.169691">
        <ele>619.889</ele>
        <time>2015-06-21T16:27:36Z</time>
      </trkpt>
      <trkpt lat="36.737192" lon="-5.169687">
        <ele>619.891</ele>
        <time>2015-06-21T16:27:41Z</time>
      </trkpt>
      <trkpt lat="36.737195" lon="-5.169679">
        <ele>619.899</ele>
        <time>2015-06-21T16:27:45Z</time>
      </trkpt>
      <trkpt lat="36.737192" lon="-5.169670">
        <ele>619.807</ele>
        <time>2015-06-21T16:27:52Z</time>
      </trkpt>
      <trkpt lat="36.737190" lon="-5.169658">
        <ele>619.827</ele>
        <time>2015-06-21T16:27:55Z</time>
      </trkpt>
      <trkpt lat="36.737180" lon="-5.169628">
        <ele>619.808</ele>
        <time>2015-06-21T16:27:58Z</time>
      </trkpt>
      <trkpt lat="36.737183" lon="-5.169608">
        <ele>619.840</ele>
        <time>2015-06-21T16:28:00Z</time>
      </trkpt>
      <trkpt lat="36.737183" lon="-5.169567">
        <ele>619.896</ele>
        <time>2015-06-21T16:28:03Z</time>
      </trkpt>
      <trkpt lat="36.737167" lon="-5.169546">
        <ele>619.839</ele>
        <time>2015-06-21T16:28:05Z</time>
      </trkpt>
      <trkpt lat="36.737142" lon="-5.169524">
        <ele>620.269</ele>
        <time>2015-06-21T16:28:08Z</time>
      </trkpt>
      <trkpt lat="36.737134" lon="-5.169512">
        <ele>620.623</ele>
        <time>2015-06-21T16:28:09Z</time>
      </trkpt>
      <trkpt lat="36.737128" lon="-5.169499">
        <ele>621.020</ele>
        <time>2015-06-21T16:28:10Z</time>
      </trkpt>
      <trkpt lat="36.737124" lon="-5.169486">
        <ele>621.499</ele>
        <time>2015-06-21T16:28:11Z</time>
      </trkpt>
      <trkpt lat="36.737121" lon="-5.169474">
        <ele>621.861</ele>
        <time>2015-06-21T16:28:12Z</time>
      </trkpt>
      <trkpt lat="36.737101" lon="-5.169429">
        <ele>621.856</ele>
        <time>2015-06-21T16:28:16Z</time>
      </trkpt>
      <trkpt lat="36.737075" lon="-5.169388">
        <ele>622.259</ele>
        <time>2015-06-21T16:28:20Z</time>
      </trkpt>
      <trkpt lat="36.737071" lon="-5.169374">
        <ele>622.614</ele>
        <time>2015-06-21T16:28:21Z</time>
      </trkpt>
      <trkpt lat="36.737067" lon="-5.169361">
        <ele>623.008</ele>
        <time>2015-06-21T16:28:22Z</time>
      </trkpt>
      <trkpt lat="36.737061" lon="-5.169349">
        <ele>623.696</ele>
        <time>2015-06-21T16:28:23Z</time>
      </trkpt>
      <trkpt lat="36.737057" lon="-5.169336">
        <ele>624.032</ele>
        <time>2015-06-21T16:28:24Z</time>
      </trkpt>
      <trkpt lat="36.737071" lon="-5.169278">
        <ele>624.095</ele>
        <time>2015-06-21T16:28:28Z</time>
      </trkpt>
      <trkpt lat="36.737080" lon="-5.169267">
        <ele>624.085</ele>
        <time>2015-06-21T16:28:29Z</time>
      </trkpt>
      <trkpt lat="36.737122" lon="-5.169215">
        <ele>624.489</ele>
        <time>2015-06-21T16:28:34Z</time>
      </trkpt>
      <trkpt lat="36.737128" lon="-5.169200">
        <ele>624.836</ele>
        <time>2015-06-21T16:28:35Z</time>
      </trkpt>
      <trkpt lat="36.737135" lon="-5.169188">
        <ele>625.295</ele>
        <time>2015-06-21T16:28:36Z</time>
      </trkpt>
      <trkpt lat="36.737142" lon="-5.169175">
        <ele>625.647</ele>
        <time>2015-06-21T16:28:37Z</time>
      </trkpt>
      <trkpt lat="36.737154" lon="-5.169164">
        <ele>626.058</ele>
        <time>2015-06-21T16:28:38Z</time>
      </trkpt>
      <trkpt lat="36.737195" lon="-5.169133">
        <ele>626.052</ele>
        <time>2015-06-21T16:28:42Z</time>
      </trkpt>
      <trkpt lat="36.737217" lon="-5.169121">
        <ele>626.817</ele>
        <time>2015-06-21T16:28:44Z</time>
      </trkpt>
      <trkpt lat="36.737220" lon="-5.169109">
        <ele>627.408</ele>
        <time>2015-06-21T16:28:45Z</time>
      </trkpt>
      <trkpt lat="36.737228" lon="-5.169101">
        <ele>627.856</ele>
        <time>2015-06-21T16:28:46Z</time>
      </trkpt>
      <trkpt lat="36.737238" lon="-5.169096">
        <ele>628.262</ele>
        <time>2015-06-21T16:28:47Z</time>
      </trkpt>
      <trkpt lat="36.737250" lon="-5.169088">
        <ele>628.235</ele>
        <time>2015-06-21T16:28:48Z</time>
      </trkpt>
      <trkpt lat="36.737277" lon="-5.169067">
        <ele>628.235</ele>
        <time>2015-06-21T16:28:51Z</time>
      </trkpt>
      <trkpt lat="36.737303" lon="-5.169065">
        <ele>628.699</ele>
        <time>2015-06-21T16:28:53Z</time>
      </trkpt>
      <trkpt lat="36.737315" lon="-5.169060">
        <ele>629.016</ele>
        <time>2015-06-21T16:28:54Z</time>
      </trkpt>
      <trkpt lat="36.737326" lon="-5.169051">
        <ele>629.425</ele>
        <time>2015-06-21T16:28:55Z</time>
      </trkpt>
      <trkpt lat="36.737334" lon="-5.169043">
        <ele>629.857</ele>
        <time>2015-06-21T16:28:56Z</time>
      </trkpt>
      <trkpt lat="36.737343" lon="-5.169036">
        <ele>630.284</ele>
        <time>2015-06-21T16:28:57Z</time>
      </trkpt>
      <trkpt lat="36.737387" lon="-5.169024">
        <ele>630.207</ele>
        <time>2015-06-21T16:29:01Z</time>
      </trkpt>
      <trkpt lat="36.737465" lon="-5.169010">
        <ele>630.617</ele>
        <time>2015-06-21T16:29:07Z</time>
      </trkpt>
      <trkpt lat="36.737477" lon="-5.169007">
        <ele>631.408</ele>
        <time>2015-06-21T16:29:08Z</time>
      </trkpt>
      <trkpt lat="36.737490" lon="-5.169003">
        <ele>631.839</ele>
        <time>2015-06-21T16:29:09Z</time>
      </trkpt>
      <trkpt lat="36.737504" lon="-5.168997">
        <ele>632.275</ele>
        <time>2015-06-21T16:29:10Z</time>
      </trkpt>
      <trkpt lat="36.737554" lon="-5.168980">
        <ele>632.238</ele>
        <time>2015-06-21T16:29:15Z</time>
      </trkpt>
      <trkpt lat="36.737583" lon="-5.168972">
        <ele>632.648</ele>
        <time>2015-06-21T16:29:18Z</time>
      </trkpt>
      <trkpt lat="36.737592" lon="-5.168967">
        <ele>633.052</ele>
        <time>2015-06-21T16:29:19Z</time>
      </trkpt>
      <trkpt lat="36.737602" lon="-5.168963">
        <ele>633.479</ele>
        <time>2015-06-21T16:29:20Z</time>
      </trkpt>
      <trkpt lat="36.737612" lon="-5.168960">
        <ele>633.868</ele>
        <time>2015-06-21T16:29:21Z</time>
      </trkpt>
      <trkpt lat="36.737622" lon="-5.168957">
        <ele>634.220</ele>
        <time>2015-06-21T16:29:22Z</time>
      </trkpt>
      <trkpt lat="36.737647" lon="-5.168936">
        <ele>634.247</ele>
        <time>2015-06-21T16:29:25Z</time>
      </trkpt>
      <trkpt lat="36.737656" lon="-5.168896">
        <ele>634.829</ele>
        <time>2015-06-21T16:29:28Z</time>
      </trkpt>
      <trkpt lat="36.737650" lon="-5.168886">
        <ele>635.221</ele>
        <time>2015-06-21T16:29:29Z</time>
      </trkpt>
      <trkpt lat="36.737640" lon="-5.168873">
        <ele>635.608</ele>
        <time>2015-06-21T16:29:30Z</time>
      </trkpt>
      <trkpt lat="36.737633" lon="-5.168862">
        <ele>636.065</ele>
        <time>2015-06-21T16:29:31Z</time>
      </trkpt>
      <trkpt lat="36.737625" lon="-5.168855">
        <ele>636.441</ele>
        <time>2015-06-21T16:29:32Z</time>
      </trkpt>
      <trkpt lat="36.737622" lon="-5.168845">
        <ele>636.424</ele>
        <time>2015-06-21T16:29:33Z</time>
      </trkpt>
      <trkpt lat="36.737587" lon="-5.168795">
        <ele>636.464</ele>
        <time>2015-06-21T16:29:38Z</time>
      </trkpt>
      <trkpt lat="36.737577" lon="-5.168791">
        <ele>636.418</ele>
        <time>2015-06-21T16:29:39Z</time>
      </trkpt>
      <trkpt lat="36.737569" lon="-5.168784">
        <ele>636.475</ele>
        <time>2015-06-21T16:29:40Z</time>
      </trkpt>
      <trkpt lat="36.737538" lon="-5.168760">
        <ele>636.864</ele>
        <time>2015-06-21T16:29:43Z</time>
      </trkpt>
      <trkpt lat="36.737528" lon="-5.168750">
        <ele>637.266</ele>
        <time>2015-06-21T16:29:44Z</time>
      </trkpt>
      <trkpt lat="36.737516" lon="-5.168747">
        <ele>637.886</ele>
        <time>2015-06-21T16:29:45Z</time>
      </trkpt>
      <trkpt lat="36.737505" lon="-5.168738">
        <ele>638.260</ele>
        <time>2015-06-21T16:29:46Z</time>
      </trkpt>
      <trkpt lat="36.737492" lon="-5.168731">
        <ele>638.626</ele>
        <time>2015-06-21T16:29:47Z</time>
      </trkpt>
      <trkpt lat="36.737481" lon="-5.168721">
        <ele>638.608</ele>
        <time>2015-06-21T16:29:48Z</time>
      </trkpt>
      <trkpt lat="36.737452" lon="-5.168697">
        <ele>638.659</ele>
        <time>2015-06-21T16:29:52Z</time>
      </trkpt>
      <trkpt lat="36.737440" lon="-5.168680">
        <ele>638.665</ele>
        <time>2015-06-21T16:29:54Z</time>
      </trkpt>
      <trkpt lat="36.737428" lon="-5.168660">
        <ele>638.688</ele>
        <time>2015-06-21T16:29:56Z</time>
      </trkpt>
      <trkpt lat="36.737403" lon="-5.168634">
        <ele>639.088</ele>
        <time>2015-06-21T16:29:59Z</time>
      </trkpt>
      <trkpt lat="36.737395" lon="-5.168629">
        <ele>639.442</ele>
        <time>2015-06-21T16:30:00Z</time>
      </trkpt>
      <trkpt lat="36.737386" lon="-5.168627">
        <ele>639.869</ele>
        <time>2015-06-21T16:30:01Z</time>
      </trkpt>
      <trkpt lat="36.737378" lon="-5.168631">
        <ele>640.238</ele>
        <time>2015-06-21T16:30:02Z</time>
      </trkpt>
      <trkpt lat="36.737368" lon="-5.168627">
        <ele>640.660</ele>
        <time>2015-06-21T16:30:03Z</time>
      </trkpt>
      <trkpt lat="36.737340" lon="-5.168600">
        <ele>640.667</ele>
        <time>2015-06-21T16:30:07Z</time>
      </trkpt>
      <trkpt lat="36.737296" lon="-5.168569">
        <ele>640.681</ele>
        <time>2015-06-21T16:30:13Z</time>
      </trkpt>
      <trkpt lat="36.737266" lon="-5.168557">
        <ele>641.019</ele>
        <time>2015-06-21T16:30:16Z</time>
      </trkpt>
      <trkpt lat="36.737259" lon="-5.168550">
        <ele>641.408</ele>
        <time>2015-06-21T16:30:17Z</time>
      </trkpt>
      <trkpt lat="36.737254" lon="-5.168544">
        <ele>641.857</ele>
        <time>2015-06-21T16:30:18Z</time>
      </trkpt>
      <trkpt lat="36.737247" lon="-5.168536">
        <ele>642.283</ele>
        <time>2015-06-21T16:30:19Z</time>
      </trkpt>
      <trkpt lat="36.737241" lon="-5.168534">
        <ele>642.676</ele>
        <time>2015-06-21T16:30:20Z</time>
      </trkpt>
      <trkpt lat="36.737221" lon="-5.168495">
        <ele>643.446</ele>
        <time>2015-06-21T16:30:24Z</time>
      </trkpt>
      <trkpt lat="36.737215" lon="-5.168487">
        <ele>644.050</ele>
        <time>2015-06-21T16:30:25Z</time>
      </trkpt>
      <trkpt lat="36.737207" lon="-5.168484">
        <ele>644.467</ele>
        <time>2015-06-21T16:30:26Z</time>
      </trkpt>
      <trkpt lat="36.737198" lon="-5.168482">
        <ele>644.846</ele>
        <time>2015-06-21T16:30:27Z</time>
      </trkpt>
      <trkpt lat="36.737170" lon="-5.168480">
        <ele>644.898</ele>
        <time>2015-06-21T16:30:30Z</time>
      </trkpt>
      <trkpt lat="36.737159" lon="-5.168477">
        <ele>644.884</ele>
        <time>2015-06-21T16:30:31Z</time>
      </trkpt>
      <trkpt lat="36.737089" lon="-5.168417">
        <ele>644.807</ele>
        <time>2015-06-21T16:30:39Z</time>
      </trkpt>
      <trkpt lat="36.737061" lon="-5.168376">
        <ele>645.217</ele>
        <time>2015-06-21T16:30:44Z</time>
      </trkpt>
      <trkpt lat="36.737051" lon="-5.168371">
        <ele>645.808</ele>
        <time>2015-06-21T16:30:45Z</time>
      </trkpt>
      <trkpt lat="36.737038" lon="-5.168364">
        <ele>646.419</ele>
        <time>2015-06-21T16:30:46Z</time>
      </trkpt>
      <trkpt lat="36.737029" lon="-5.168355">
        <ele>647.035</ele>
        <time>2015-06-21T16:30:47Z</time>
      </trkpt>
      <trkpt lat="36.737025" lon="-5.168347">
        <ele>647.448</ele>
        <time>2015-06-21T16:30:48Z</time>
      </trkpt>
      <trkpt lat="36.736992" lon="-5.168316">
        <ele>647.438</ele>
        <time>2015-06-21T16:30:52Z</time>
      </trkpt>
      <trkpt lat="36.736934" lon="-5.168266">
        <ele>647.422</ele>
        <time>2015-06-21T16:30:58Z</time>
      </trkpt>
      <trkpt lat="36.736868" lon="-5.168211">
        <ele>647.899</ele>
        <time>2015-06-21T16:31:05Z</time>
      </trkpt>
      <trkpt lat="36.736856" lon="-5.168207">
        <ele>648.438</ele>
        <time>2015-06-21T16:31:06Z</time>
      </trkpt>
      <trkpt lat="36.736847" lon="-5.168198">
        <ele>648.810</ele>
        <time>2015-06-21T16:31:07Z</time>
      </trkpt>
      <trkpt lat="36.736837" lon="-5.168191">
        <ele>649.262</ele>
        <time>2015-06-21T16:31:08Z</time>
      </trkpt>
      <trkpt lat="36.736827" lon="-5.168186">
        <ele>649.683</ele>
        <time>2015-06-21T16:31:09Z</time>
      </trkpt>
      <trkpt lat="36.736783" lon="-5.168150">
        <ele>649.611</ele>
        <time>2015-06-21T16:31:13Z</time>
      </trkpt>
      <trkpt lat="36.736731" lon="-5.168116">
        <ele>649.608</ele>
        <time>2015-06-21T16:31:18Z</time>
      </trkpt>
      <trkpt lat="36.736714" lon="-5.168105">
        <ele>649.637</ele>
        <time>2015-06-21T16:31:20Z</time>
      </trkpt>
      <trkpt lat="36.736707" lon="-5.168100">
        <ele>650.013</ele>
        <time>2015-06-21T16:31:21Z</time>
      </trkpt>
      <trkpt lat="36.736699" lon="-5.168090">
        <ele>650.426</ele>
        <time>2015-06-21T16:31:22Z</time>
      </trkpt>
      <trkpt lat="36.736691" lon="-5.168084">
        <ele>650.816</ele>
        <time>2015-06-21T16:31:23Z</time>
      </trkpt>
      <trkpt lat="36.736680" lon="-5.168086">
        <ele>651.240</ele>
        <time>2015-06-21T16:31:24Z</time>
      </trkpt>
      <trkpt lat="36.736674" lon="-5.168092">
        <ele>651.697</ele>
        <time>2015-06-21T16:31:25Z</time>
      </trkpt>
      <trkpt lat="36.736665" lon="-5.168100">
        <ele>651.666</ele>
        <time>2015-06-21T16:31:26Z</time>
      </trkpt>
      <trkpt lat="36.736616" lon="-5.168088">
        <ele>651.618</ele>
        <time>2015-06-21T16:31:31Z</time>
      </trkpt>
      <trkpt lat="36.736607" lon="-5.168081">
        <ele>651.678</ele>
        <time>2015-06-21T16:31:32Z</time>
      </trkpt>
      <trkpt lat="36.736601" lon="-5.168078">
        <ele>652.033</ele>
        <time>2015-06-21T16:31:33Z</time>
      </trkpt>
      <trkpt lat="36.736598" lon="-5.168071">
        <ele>652.426</ele>
        <time>2015-06-21T16:31:34Z</time>
      </trkpt>
      <trkpt lat="36.736592" lon="-5.168061">
        <ele>652.808</ele>
        <time>2015-06-21T16:31:35Z</time>
      </trkpt>
      <trkpt lat="36.736585" lon="-5.168049">
        <ele>653.298</ele>
        <time>2015-06-21T16:31:36Z</time>
      </trkpt>
      <trkpt lat="36.736579" lon="-5.168040">
        <ele>653.814</ele>
        <time>2015-06-21T16:31:37Z</time>
      </trkpt>
      <trkpt lat="36.736549" lon="-5.167994">
        <ele>654.267</ele>
        <time>2015-06-21T16:31:42Z</time>
      </trkpt>
      <trkpt lat="36.736545" lon="-5.167981">
        <ele>654.697</ele>
        <time>2015-06-21T16:31:43Z</time>
      </trkpt>
      <trkpt lat="36.736543" lon="-5.167964">
        <ele>655.011</ele>
        <time>2015-06-21T16:31:44Z</time>
      </trkpt>
      <trkpt lat="36.736541" lon="-5.167949">
        <ele>655.418</ele>
        <time>2015-06-21T16:31:45Z</time>
      </trkpt>
      <trkpt lat="36.736540" lon="-5.167936">
        <ele>655.877</ele>
        <time>2015-06-21T16:31:46Z</time>
      </trkpt>
      <trkpt lat="36.736545" lon="-5.167833">
        <ele>655.839</ele>
        <time>2015-06-21T16:31:53Z</time>
      </trkpt>
      <trkpt lat="36.736548" lon="-5.167817">
        <ele>656.221</ele>
        <time>2015-06-21T16:31:54Z</time>
      </trkpt>
      <trkpt lat="36.736551" lon="-5.167805">
        <ele>656.641</ele>
        <time>2015-06-21T16:31:55Z</time>
      </trkpt>
      <trkpt lat="36.736557" lon="-5.167791">
        <ele>657.005</ele>
        <time>2015-06-21T16:31:56Z</time>
      </trkpt>
      <trkpt lat="36.736563" lon="-5.167775">
        <ele>657.608</ele>
        <time>2015-06-21T16:31:57Z</time>
      </trkpt>
      <trkpt lat="36.736568" lon="-5.167759">
        <ele>658.063</ele>
        <time>2015-06-21T16:31:58Z</time>
      </trkpt>
      <trkpt lat="36.736575" lon="-5.167728">
        <ele>658.069</ele>
        <time>2015-06-21T16:32:00Z</time>
      </trkpt>
      <trkpt lat="36.736595" lon="-5.167640">
        <ele>658.052</ele>
        <time>2015-06-21T16:32:06Z</time>
      </trkpt>
      <trkpt lat="36.736609" lon="-5.167611">
        <ele>658.472</ele>
        <time>2015-06-21T16:32:08Z</time>
      </trkpt>
      <trkpt lat="36.736614" lon="-5.167597">
        <ele>658.866</ele>
        <time>2015-06-21T16:32:09Z</time>
      </trkpt>
      <trkpt lat="36.736612" lon="-5.167583">
        <ele>659.253</ele>
        <time>2015-06-21T16:32:10Z</time>
      </trkpt>
      <trkpt lat="36.736611" lon="-5.167570">
        <ele>659.692</ele>
        <time>2015-06-21T16:32:11Z</time>
      </trkpt>
      <trkpt lat="36.736609" lon="-5.167554">
        <ele>660.014</ele>
        <time>2015-06-21T16:32:12Z</time>
      </trkpt>
      <trkpt lat="36.736611" lon="-5.167538">
        <ele>660.055</ele>
        <time>2015-06-21T16:32:13Z</time>
      </trkpt>
      <trkpt lat="36.736601" lon="-5.167461">
        <ele>660.007</ele>
        <time>2015-06-21T16:32:19Z</time>
      </trkpt>
      <trkpt lat="36.736596" lon="-5.167360">
        <ele>660.417</ele>
        <time>2015-06-21T16:32:25Z</time>
      </trkpt>
      <trkpt lat="36.736594" lon="-5.167345">
        <ele>660.808</ele>
        <time>2015-06-21T16:32:26Z</time>
      </trkpt>
      <trkpt lat="36.736588" lon="-5.167328">
        <ele>661.256</ele>
        <time>2015-06-21T16:32:27Z</time>
      </trkpt>
      <trkpt lat="36.736587" lon="-5.167308">
        <ele>662.092</ele>
        <time>2015-06-21T16:32:28Z</time>
      </trkpt>
      <trkpt lat="36.736567" lon="-5.167239">
        <ele>662.065</ele>
        <time>2015-06-21T16:32:33Z</time>
      </trkpt>
      <trkpt lat="36.736519" lon="-5.167137">
        <ele>662.085</ele>
        <time>2015-06-21T16:32:40Z</time>
      </trkpt>
      <trkpt lat="36.736504" lon="-5.167115">
        <ele>662.489</ele>
        <time>2015-06-21T16:32:42Z</time>
      </trkpt>
      <trkpt lat="36.736497" lon="-5.167103">
        <ele>662.826</ele>
        <time>2015-06-21T16:32:43Z</time>
      </trkpt>
      <trkpt lat="36.736487" lon="-5.167090">
        <ele>663.465</ele>
        <time>2015-06-21T16:32:44Z</time>
      </trkpt>
      <trkpt lat="36.736478" lon="-5.167077">
        <ele>663.827</ele>
        <time>2015-06-21T16:32:45Z</time>
      </trkpt>
      <trkpt lat="36.736472" lon="-5.167062">
        <ele>664.284</ele>
        <time>2015-06-21T16:32:46Z</time>
      </trkpt>
      <trkpt lat="36.736464" lon="-5.167053">
        <ele>664.207</ele>
        <time>2015-06-21T16:32:47Z</time>
      </trkpt>
      <trkpt lat="36.736401" lon="-5.166977">
        <ele>664.217</ele>
        <time>2015-06-21T16:32:54Z</time>
      </trkpt>
      <trkpt lat="36.736359" lon="-5.166946">
        <ele>664.608</ele>
        <time>2015-06-21T16:32:58Z</time>
      </trkpt>
      <trkpt lat="36.736348" lon="-5.166944">
        <ele>665.069</ele>
        <time>2015-06-21T16:32:59Z</time>
      </trkpt>
      <trkpt lat="36.736340" lon="-5.166935">
        <ele>665.425</ele>
        <time>2015-06-21T16:33:00Z</time>
      </trkpt>
      <trkpt lat="36.736329" lon="-5.166927">
        <ele>665.858</ele>
        <time>2015-06-21T16:33:01Z</time>
      </trkpt>
      <trkpt lat="36.736320" lon="-5.166918">
        <ele>666.298</ele>
        <time>2015-06-21T16:33:02Z</time>
      </trkpt>
      <trkpt lat="36.736285" lon="-5.166873">
        <ele>666.252</ele>
        <time>2015-06-21T16:33:06Z</time>
      </trkpt>
      <trkpt lat="36.736252" lon="-5.166803">
        <ele>666.879</ele>
        <time>2015-06-21T16:33:13Z</time>
      </trkpt>
      <trkpt lat="36.736247" lon="-5.166787">
        <ele>667.298</ele>
        <time>2015-06-21T16:33:14Z</time>
      </trkpt>
      <trkpt lat="36.736243" lon="-5.166774">
        <ele>667.630</ele>
        <time>2015-06-21T16:33:15Z</time>
      </trkpt>
      <trkpt lat="36.736237" lon="-5.166758">
        <ele>668.064</ele>
        <time>2015-06-21T16:33:16Z</time>
      </trkpt>
      <trkpt lat="36.736232" lon="-5.166745">
        <ele>668.606</ele>
        <time>2015-06-21T16:33:17Z</time>
      </trkpt>
      <trkpt lat="36.736234" lon="-5.166728">
        <ele>668.616</ele>
        <time>2015-06-21T16:33:20Z</time>
      </trkpt>
      <trkpt lat="36.736236" lon="-5.166704">
        <ele>668.608</ele>
        <time>2015-06-21T16:33:23Z</time>
      </trkpt>
      <trkpt lat="36.736223" lon="-5.166686">
        <ele>668.697</ele>
        <time>2015-06-21T16:33:25Z</time>
      </trkpt>
      <trkpt lat="36.736216" lon="-5.166675">
        <ele>668.623</ele>
        <time>2015-06-21T16:33:26Z</time>
      </trkpt>
      <trkpt lat="36.736183" lon="-5.166630">
        <ele>669.066</ele>
        <time>2015-06-21T16:33:30Z</time>
      </trkpt>
      <trkpt lat="36.736173" lon="-5.166620">
        <ele>669.486</ele>
        <time>2015-06-21T16:33:31Z</time>
      </trkpt>
      <trkpt lat="36.736165" lon="-5.166609">
        <ele>669.820</ele>
        <time>2015-06-21T16:33:32Z</time>
      </trkpt>
      <trkpt lat="36.736155" lon="-5.166598">
        <ele>670.247</ele>
        <time>2015-06-21T16:33:33Z</time>
      </trkpt>
      <trkpt lat="36.736143" lon="-5.166591">
        <ele>670.616</ele>
        <time>2015-06-21T16:33:34Z</time>
      </trkpt>
      <trkpt lat="36.736132" lon="-5.166581">
        <ele>670.658</ele>
        <time>2015-06-21T16:33:35Z</time>
      </trkpt>
      <trkpt lat="36.736074" lon="-5.166547">
        <ele>670.619</ele>
        <time>2015-06-21T16:33:40Z</time>
      </trkpt>
      <trkpt lat="36.736051" lon="-5.166558">
        <ele>670.609</ele>
        <time>2015-06-21T16:33:42Z</time>
      </trkpt>
      <trkpt lat="36.736034" lon="-5.166548">
        <ele>670.619</ele>
        <time>2015-06-21T16:33:44Z</time>
      </trkpt>
      <trkpt lat="36.736028" lon="-5.166539">
        <ele>671.008</ele>
        <time>2015-06-21T16:33:45Z</time>
      </trkpt>
      <trkpt lat="36.736018" lon="-5.166529">
        <ele>671.412</ele>
        <time>2015-06-21T16:33:46Z</time>
      </trkpt>
      <trkpt lat="36.736009" lon="-5.166517">
        <ele>672.078</ele>
        <time>2015-06-21T16:33:47Z</time>
      </trkpt>
      <trkpt lat="36.735999" lon="-5.166505">
        <ele>672.471</ele>
        <time>2015-06-21T16:33:48Z</time>
      </trkpt>
      <trkpt lat="36.735990" lon="-5.166494">
        <ele>672.871</ele>
        <time>2015-06-21T16:33:49Z</time>
      </trkpt>
      <trkpt lat="36.735893" lon="-5.166407">
        <ele>672.865</ele>
        <time>2015-06-21T16:33:58Z</time>
      </trkpt>
      <trkpt lat="36.735840" lon="-5.166343">
        <ele>673.232</ele>
        <time>2015-06-21T16:34:04Z</time>
      </trkpt>
      <trkpt lat="36.735830" lon="-5.166333">
        <ele>673.671</ele>
        <time>2015-06-21T16:34:05Z</time>
      </trkpt>
      <trkpt lat="36.735817" lon="-5.166325">
        <ele>674.063</ele>
        <time>2015-06-21T16:34:06Z</time>
      </trkpt>
      <trkpt lat="36.735807" lon="-5.166314">
        <ele>675.095</ele>
        <time>2015-06-21T16:34:07Z</time>
      </trkpt>
      <trkpt lat="36.735753" lon="-5.166254">
        <ele>675.049</ele>
        <time>2015-06-21T16:34:13Z</time>
      </trkpt>
      <trkpt lat="36.735743" lon="-5.166247">
        <ele>675.023</ele>
        <time>2015-06-21T16:34:14Z</time>
      </trkpt>
      <trkpt lat="36.735700" lon="-5.166195">
        <ele>675.008</ele>
        <time>2015-06-21T16:34:19Z</time>
      </trkpt>
      <trkpt lat="36.735687" lon="-5.166191">
        <ele>675.070</ele>
        <time>2015-06-21T16:34:20Z</time>
      </trkpt>
      <trkpt lat="36.735668" lon="-5.166169">
        <ele>675.426</ele>
        <time>2015-06-21T16:34:22Z</time>
      </trkpt>
      <trkpt lat="36.735658" lon="-5.166158">
        <ele>675.829</ele>
        <time>2015-06-21T16:34:23Z</time>
      </trkpt>
      <trkpt lat="36.735646" lon="-5.166146">
        <ele>676.239</ele>
        <time>2015-06-21T16:34:24Z</time>
      </trkpt>
      <trkpt lat="36.735633" lon="-5.166137">
        <ele>676.653</ele>
        <time>2015-06-21T16:34:25Z</time>
      </trkpt>
      <trkpt lat="36.735619" lon="-5.166128">
        <ele>677.060</ele>
        <time>2015-06-21T16:34:26Z</time>
      </trkpt>
      <trkpt lat="36.735537" lon="-5.166049">
        <ele>677.019</ele>
        <time>2015-06-21T16:34:34Z</time>
      </trkpt>
      <trkpt lat="36.735476" lon="-5.166008">
        <ele>677.461</ele>
        <time>2015-06-21T16:34:39Z</time>
      </trkpt>
      <trkpt lat="36.735466" lon="-5.165998">
        <ele>677.863</ele>
        <time>2015-06-21T16:34:40Z</time>
      </trkpt>
      <trkpt lat="36.735455" lon="-5.165990">
        <ele>678.244</ele>
        <time>2015-06-21T16:34:41Z</time>
      </trkpt>
      <trkpt lat="36.735445" lon="-5.165980">
        <ele>678.618</ele>
        <time>2015-06-21T16:34:42Z</time>
      </trkpt>
      <trkpt lat="36.735436" lon="-5.165972">
        <ele>679.008</ele>
        <time>2015-06-21T16:34:43Z</time>
      </trkpt>
      <trkpt lat="36.735375" lon="-5.165903">
        <ele>679.077</ele>
        <time>2015-06-21T16:34:50Z</time>
      </trkpt>
      <trkpt lat="36.735355" lon="-5.165888">
        <ele>679.493</ele>
        <time>2015-06-21T16:34:52Z</time>
      </trkpt>
      <trkpt lat="36.735345" lon="-5.165879">
        <ele>679.826</ele>
        <time>2015-06-21T16:34:53Z</time>
      </trkpt>
      <trkpt lat="36.735336" lon="-5.165869">
        <ele>680.256</ele>
        <time>2015-06-21T16:34:54Z</time>
      </trkpt>
      <trkpt lat="36.735332" lon="-5.165853">
        <ele>680.630</ele>
        <time>2015-06-21T16:34:55Z</time>
      </trkpt>
      <trkpt lat="36.735326" lon="-5.165843">
        <ele>681.027</ele>
        <time>2015-06-21T16:34:56Z</time>
      </trkpt>
      <trkpt lat="36.735316" lon="-5.165832">
        <ele>681.066</ele>
        <time>2015-06-21T16:34:57Z</time>
      </trkpt>
      <trkpt lat="36.735298" lon="-5.165814">
        <ele>681.088</ele>
        <time>2015-06-21T16:34:59Z</time>
      </trkpt>
      <trkpt lat="36.735272" lon="-5.165786">
        <ele>681.615</ele>
        <time>2015-06-21T16:35:02Z</time>
      </trkpt>
      <trkpt lat="36.735261" lon="-5.165778">
        <ele>682.065</ele>
        <time>2015-06-21T16:35:03Z</time>
      </trkpt>
      <trkpt lat="36.735255" lon="-5.165768">
        <ele>682.411</ele>
        <time>2015-06-21T16:35:04Z</time>
      </trkpt>
      <trkpt lat="36.735246" lon="-5.165761">
        <ele>682.808</ele>
        <time>2015-06-21T16:35:05Z</time>
      </trkpt>
      <trkpt lat="36.735239" lon="-5.165753">
        <ele>683.422</ele>
        <time>2015-06-21T16:35:06Z</time>
      </trkpt>
      <trkpt lat="36.735187" lon="-5.165705">
        <ele>683.498</ele>
        <time>2015-06-21T16:35:12Z</time>
      </trkpt>
      <trkpt lat="36.735152" lon="-5.165689">
        <ele>683.491</ele>
        <time>2015-06-21T16:35:15Z</time>
      </trkpt>
      <trkpt lat="36.735134" lon="-5.165680">
        <ele>683.871</ele>
        <time>2015-06-21T16:35:17Z</time>
      </trkpt>
      <trkpt lat="36.735129" lon="-5.165666">
        <ele>684.255</ele>
        <time>2015-06-21T16:35:18Z</time>
      </trkpt>
      <trkpt lat="36.735124" lon="-5.165653">
        <ele>684.662</ele>
        <time>2015-06-21T16:35:19Z</time>
      </trkpt>
      <trkpt lat="36.735119" lon="-5.165643">
        <ele>685.031</ele>
        <time>2015-06-21T16:35:20Z</time>
      </trkpt>
      <trkpt lat="36.735109" lon="-5.165633">
        <ele>685.413</ele>
        <time>2015-06-21T16:35:21Z</time>
      </trkpt>
      <trkpt lat="36.735098" lon="-5.165622">
        <ele>685.433</ele>
        <time>2015-06-21T16:35:22Z</time>
      </trkpt>
      <trkpt lat="36.735054" lon="-5.165584">
        <ele>685.423</ele>
        <time>2015-06-21T16:35:26Z</time>
      </trkpt>
      <trkpt lat="36.735030" lon="-5.165579">
        <ele>686.015</ele>
        <time>2015-06-21T16:35:28Z</time>
      </trkpt>
      <trkpt lat="36.735021" lon="-5.165571">
        <ele>686.408</ele>
        <time>2015-06-21T16:35:29Z</time>
      </trkpt>
      <trkpt lat="36.735009" lon="-5.165563">
        <ele>686.814</ele>
        <time>2015-06-21T16:35:30Z</time>
      </trkpt>
      <trkpt lat="36.734999" lon="-5.165550">
        <ele>687.460</ele>
        <time>2015-06-21T16:35:31Z</time>
      </trkpt>
      <trkpt lat="36.734988" lon="-5.165541">
        <ele>687.893</ele>
        <time>2015-06-21T16:35:32Z</time>
      </trkpt>
      <trkpt lat="36.734951" lon="-5.165502">
        <ele>687.823</ele>
        <time>2015-06-21T16:35:36Z</time>
      </trkpt>
      <trkpt lat="36.734927" lon="-5.165480">
        <ele>687.857</ele>
        <time>2015-06-21T16:35:38Z</time>
      </trkpt>
      <trkpt lat="36.734914" lon="-5.165460">
        <ele>688.214</ele>
        <time>2015-06-21T16:35:40Z</time>
      </trkpt>
      <trkpt lat="36.734907" lon="-5.165452">
        <ele>688.863</ele>
        <time>2015-06-21T16:35:41Z</time>
      </trkpt>
      <trkpt lat="36.734897" lon="-5.165444">
        <ele>689.225</ele>
        <time>2015-06-21T16:35:42Z</time>
      </trkpt>
      <trkpt lat="36.734888" lon="-5.165439">
        <ele>689.645</ele>
        <time>2015-06-21T16:35:43Z</time>
      </trkpt>
      <trkpt lat="36.734877" lon="-5.165434">
        <ele>690.047</ele>
        <time>2015-06-21T16:35:44Z</time>
      </trkpt>
      <trkpt lat="36.734833" lon="-5.165402">
        <ele>690.011</ele>
        <time>2015-06-21T16:35:49Z</time>
      </trkpt>
      <trkpt lat="36.734826" lon="-5.165395">
        <ele>690.008</ele>
        <time>2015-06-21T16:35:50Z</time>
      </trkpt>
      <trkpt lat="36.734774" lon="-5.165335">
        <ele>690.035</ele>
        <time>2015-06-21T16:35:57Z</time>
      </trkpt>
      <trkpt lat="36.734724" lon="-5.165285">
        <ele>690.091</ele>
        <time>2015-06-21T16:36:02Z</time>
      </trkpt>
      <trkpt lat="36.734704" lon="-5.165265">
        <ele>690.624</ele>
        <time>2015-06-21T16:36:04Z</time>
      </trkpt>
      <trkpt lat="36.734695" lon="-5.165251">
        <ele>691.064</ele>
        <time>2015-06-21T16:36:05Z</time>
      </trkpt>
      <trkpt lat="36.734687" lon="-5.165239">
        <ele>691.458</ele>
        <time>2015-06-21T16:36:06Z</time>
      </trkpt>
      <trkpt lat="36.734675" lon="-5.165230">
        <ele>692.085</ele>
        <time>2015-06-21T16:36:07Z</time>
      </trkpt>
      <trkpt lat="36.734663" lon="-5.165225">
        <ele>692.454</ele>
        <time>2015-06-21T16:36:08Z</time>
      </trkpt>
      <trkpt lat="36.734648" lon="-5.165222">
        <ele>692.416</ele>
        <time>2015-06-21T16:36:09Z</time>
      </trkpt>
      <trkpt lat="36.734594" lon="-5.165149">
        <ele>692.419</ele>
        <time>2015-06-21T16:36:16Z</time>
      </trkpt>
      <trkpt lat="36.734517" lon="-5.165102">
        <ele>692.409</ele>
        <time>2015-06-21T16:36:23Z</time>
      </trkpt>
      <trkpt lat="36.734491" lon="-5.165087">
        <ele>692.819</ele>
        <time>2015-06-21T16:36:25Z</time>
      </trkpt>
      <trkpt lat="36.734477" lon="-5.165077">
        <ele>693.208</ele>
        <time>2015-06-21T16:36:26Z</time>
      </trkpt>
      <trkpt lat="36.734463" lon="-5.165065">
        <ele>693.622</ele>
        <time>2015-06-21T16:36:27Z</time>
      </trkpt>
      <trkpt lat="36.734453" lon="-5.165050">
        <ele>694.038</ele>
        <time>2015-06-21T16:36:28Z</time>
      </trkpt>
      <trkpt lat="36.734441" lon="-5.165041">
        <ele>694.491</ele>
        <time>2015-06-21T16:36:29Z</time>
      </trkpt>
      <trkpt lat="36.734436" lon="-5.165023">
        <ele>694.441</ele>
        <time>2015-06-21T16:36:30Z</time>
      </trkpt>
      <trkpt lat="36.734403" lon="-5.164962">
        <ele>694.455</ele>
        <time>2015-06-21T16:36:34Z</time>
      </trkpt>
      <trkpt lat="36.734379" lon="-5.164936">
        <ele>694.432</ele>
        <time>2015-06-21T16:36:36Z</time>
      </trkpt>
      <trkpt lat="36.734368" lon="-5.164925">
        <ele>694.461</ele>
        <time>2015-06-21T16:36:37Z</time>
      </trkpt>
      <trkpt lat="36.734352" lon="-5.164875">
        <ele>694.413</ele>
        <time>2015-06-21T16:36:41Z</time>
      </trkpt>
      <trkpt lat="36.734343" lon="-5.164859">
        <ele>694.431</ele>
        <time>2015-06-21T16:36:42Z</time>
      </trkpt>
      <trkpt lat="36.734304" lon="-5.164817">
        <ele>694.461</ele>
        <time>2015-06-21T16:36:46Z</time>
      </trkpt>
      <trkpt lat="36.734305" lon="-5.164803">
        <ele>694.407</ele>
        <time>2015-06-21T16:36:47Z</time>
      </trkpt>
      <trkpt lat="36.734359" lon="-5.164783">
        <ele>694.408</ele>
        <time>2015-06-21T16:36:52Z</time>
      </trkpt>
      <trkpt lat="36.734389" lon="-5.164795">
        <ele>694.424</ele>
        <time>2015-06-21T16:36:54Z</time>
      </trkpt>
      <trkpt lat="36.734455" lon="-5.164828">
        <ele>694.420</ele>
        <time>2015-06-21T16:36:59Z</time>
      </trkpt>
      <trkpt lat="36.734481" lon="-5.164833">
        <ele>694.493</ele>
        <time>2015-06-21T16:37:01Z</time>
      </trkpt>
      <trkpt lat="36.734517" lon="-5.164857">
        <ele>694.413</ele>
        <time>2015-06-21T16:37:04Z</time>
      </trkpt>
      <trkpt lat="36.734538" lon="-5.164885">
        <ele>694.437</ele>
        <time>2015-06-21T16:37:06Z</time>
      </trkpt>
      <trkpt lat="36.734570" lon="-5.164929">
        <ele>694.494</ele>
        <time>2015-06-21T16:37:09Z</time>
      </trkpt>
      <trkpt lat="36.734607" lon="-5.164969">
        <ele>694.433</ele>
        <time>2015-06-21T16:37:12Z</time>
      </trkpt>
      <trkpt lat="36.734620" lon="-5.164980">
        <ele>694.895</ele>
        <time>2015-06-21T16:37:13Z</time>
      </trkpt>
      <trkpt lat="36.734633" lon="-5.164991">
        <ele>695.284</ele>
        <time>2015-06-21T16:37:14Z</time>
      </trkpt>
      <trkpt lat="36.734644" lon="-5.165004">
        <ele>695.607</ele>
        <time>2015-06-21T16:37:15Z</time>
      </trkpt>
      <trkpt lat="36.734656" lon="-5.165014">
        <ele>696.017</ele>
        <time>2015-06-21T16:37:16Z</time>
      </trkpt>
      <trkpt lat="36.734669" lon="-5.165025">
        <ele>696.408</ele>
        <time>2015-06-21T16:37:17Z</time>
      </trkpt>
      <trkpt lat="36.734723" lon="-5.165082">
        <ele>696.419</ele>
        <time>2015-06-21T16:37:21Z</time>
      </trkpt>
      <trkpt lat="36.734792" lon="-5.165188">
        <ele>696.445</ele>
        <time>2015-06-21T16:37:27Z</time>
      </trkpt>
      <trkpt lat="36.734856" lon="-5.165190">
        <ele>696.838</ele>
        <time>2015-06-21T16:37:31Z</time>
      </trkpt>
      <trkpt lat="36.734870" lon="-5.165171">
        <ele>697.228</ele>
        <time>2015-06-21T16:37:32Z</time>
      </trkpt>
      <trkpt lat="36.734889" lon="-5.165159">
        <ele>697.692</ele>
        <time>2015-06-21T16:37:33Z</time>
      </trkpt>
      <trkpt lat="36.734908" lon="-5.165151">
        <ele>698.239</ele>
        <time>2015-06-21T16:37:34Z</time>
      </trkpt>
      <trkpt lat="36.734927" lon="-5.165149">
        <ele>698.648</ele>
        <time>2015-06-21T16:37:35Z</time>
      </trkpt>
      <trkpt lat="36.734957" lon="-5.165132">
        <ele>698.680</ele>
        <time>2015-06-21T16:37:37Z</time>
      </trkpt>
      <trkpt lat="36.734974" lon="-5.165124">
        <ele>698.625</ele>
        <time>2015-06-21T16:37:38Z</time>
      </trkpt>
      <trkpt lat="36.734986" lon="-5.165107">
        <ele>698.626</ele>
        <time>2015-06-21T16:37:39Z</time>
      </trkpt>
      <trkpt lat="36.735048" lon="-5.165024">
        <ele>698.608</ele>
        <time>2015-06-21T16:37:44Z</time>
      </trkpt>
      <trkpt lat="36.735065" lon="-5.164996">
        <ele>699.008</ele>
        <time>2015-06-21T16:37:46Z</time>
      </trkpt>
      <trkpt lat="36.735074" lon="-5.164981">
        <ele>699.413</ele>
        <time>2015-06-21T16:37:47Z</time>
      </trkpt>
      <trkpt lat="36.735079" lon="-5.164965">
        <ele>699.859</ele>
        <time>2015-06-21T16:37:48Z</time>
      </trkpt>
      <trkpt lat="36.735087" lon="-5.164945">
        <ele>700.622</ele>
        <time>2015-06-21T16:37:49Z</time>
      </trkpt>
      <trkpt lat="36.735097" lon="-5.164921">
        <ele>700.662</ele>
        <time>2015-06-21T16:37:50Z</time>
      </trkpt>
      <trkpt lat="36.735147" lon="-5.164796">
        <ele>700.616</ele>
        <time>2015-06-21T16:37:56Z</time>
      </trkpt>
      <trkpt lat="36.735176" lon="-5.164686">
        <ele>701.093</ele>
        <time>2015-06-21T16:38:01Z</time>
      </trkpt>
      <trkpt lat="36.735181" lon="-5.164661">
        <ele>701.412</ele>
        <time>2015-06-21T16:38:02Z</time>
      </trkpt>
      <trkpt lat="36.735187" lon="-5.164639">
        <ele>701.814</ele>
        <time>2015-06-21T16:38:03Z</time>
      </trkpt>
      <trkpt lat="36.735192" lon="-5.164618">
        <ele>702.293</ele>
        <time>2015-06-21T16:38:04Z</time>
      </trkpt>
      <trkpt lat="36.735200" lon="-5.164601">
        <ele>702.665</ele>
        <time>2015-06-21T16:38:05Z</time>
      </trkpt>
      <trkpt lat="36.735248" lon="-5.164522">
        <ele>702.621</ele>
        <time>2015-06-21T16:38:10Z</time>
      </trkpt>
      <trkpt lat="36.735255" lon="-5.164503">
        <ele>702.608</ele>
        <time>2015-06-21T16:38:11Z</time>
      </trkpt>
      <trkpt lat="36.735287" lon="-5.164437">
        <ele>702.640</ele>
        <time>2015-06-21T16:38:15Z</time>
      </trkpt>
      <trkpt lat="36.735298" lon="-5.164425">
        <ele>703.026</ele>
        <time>2015-06-21T16:38:16Z</time>
      </trkpt>
      <trkpt lat="36.735308" lon="-5.164411">
        <ele>703.639</ele>
        <time>2015-06-21T16:38:17Z</time>
      </trkpt>
      <trkpt lat="36.735320" lon="-5.164399">
        <ele>704.069</ele>
        <time>2015-06-21T16:38:18Z</time>
      </trkpt>
      <trkpt lat="36.735335" lon="-5.164391">
        <ele>704.473</ele>
        <time>2015-06-21T16:38:19Z</time>
      </trkpt>
      <trkpt lat="36.735350" lon="-5.164376">
        <ele>704.890</ele>
        <time>2015-06-21T16:38:20Z</time>
      </trkpt>
      <trkpt lat="36.735365" lon="-5.164364">
        <ele>704.869</ele>
        <time>2015-06-21T16:38:21Z</time>
      </trkpt>
      <trkpt lat="36.735452" lon="-5.164253">
        <ele>704.891</ele>
        <time>2015-06-21T16:38:28Z</time>
      </trkpt>
      <trkpt lat="36.735465" lon="-5.164237">
        <ele>705.298</ele>
        <time>2015-06-21T16:38:29Z</time>
      </trkpt>
      <trkpt lat="36.735474" lon="-5.164222">
        <ele>705.615</ele>
        <time>2015-06-21T16:38:30Z</time>
      </trkpt>
      <trkpt lat="36.735488" lon="-5.164208">
        <ele>706.026</ele>
        <time>2015-06-21T16:38:31Z</time>
      </trkpt>
      <trkpt lat="36.735503" lon="-5.164198">
        <ele>706.408</ele>
        <time>2015-06-21T16:38:32Z</time>
      </trkpt>
      <trkpt lat="36.735518" lon="-5.164186">
        <ele>706.810</ele>
        <time>2015-06-21T16:38:33Z</time>
      </trkpt>
      <trkpt lat="36.735570" lon="-5.164164">
        <ele>706.896</ele>
        <time>2015-06-21T16:38:36Z</time>
      </trkpt>
      <trkpt lat="36.735691" lon="-5.164172">
        <ele>706.859</ele>
        <time>2015-06-21T16:38:43Z</time>
      </trkpt>
      <trkpt lat="36.735741" lon="-5.164186">
        <ele>707.229</ele>
        <time>2015-06-21T16:38:46Z</time>
      </trkpt>
      <trkpt lat="36.735758" lon="-5.164190">
        <ele>707.683</ele>
        <time>2015-06-21T16:38:47Z</time>
      </trkpt>
      <trkpt lat="36.735776" lon="-5.164197">
        <ele>708.030</ele>
        <time>2015-06-21T16:38:48Z</time>
      </trkpt>
      <trkpt lat="36.735795" lon="-5.164202">
        <ele>708.469</ele>
        <time>2015-06-21T16:38:49Z</time>
      </trkpt>
      <trkpt lat="36.735813" lon="-5.164208">
        <ele>708.871</ele>
        <time>2015-06-21T16:38:50Z</time>
      </trkpt>
      <trkpt lat="36.735958" lon="-5.164247">
        <ele>708.893</ele>
        <time>2015-06-21T16:38:58Z</time>
      </trkpt>
      <trkpt lat="36.736024" lon="-5.164260">
        <ele>709.265</ele>
        <time>2015-06-21T16:39:02Z</time>
      </trkpt>
      <trkpt lat="36.736038" lon="-5.164265">
        <ele>710.021</ele>
        <time>2015-06-21T16:39:03Z</time>
      </trkpt>
      <trkpt lat="36.736054" lon="-5.164271">
        <ele>710.408</ele>
        <time>2015-06-21T16:39:04Z</time>
      </trkpt>
      <trkpt lat="36.736071" lon="-5.164274">
        <ele>710.830</ele>
        <time>2015-06-21T16:39:05Z</time>
      </trkpt>
      <trkpt lat="36.736087" lon="-5.164274">
        <ele>710.876</ele>
        <time>2015-06-21T16:39:06Z</time>
      </trkpt>
      <trkpt lat="36.736103" lon="-5.164284">
        <ele>710.819</ele>
        <time>2015-06-21T16:39:07Z</time>
      </trkpt>
      <trkpt lat="36.736176" lon="-5.164296">
        <ele>710.849</ele>
        <time>2015-06-21T16:39:11Z</time>
      </trkpt>
      <trkpt lat="36.736257" lon="-5.164317">
        <ele>711.253</ele>
        <time>2015-06-21T16:39:16Z</time>
      </trkpt>
      <trkpt lat="36.736272" lon="-5.164322">
        <ele>711.630</ele>
        <time>2015-06-21T16:39:17Z</time>
      </trkpt>
      <trkpt lat="36.736288" lon="-5.164331">
        <ele>712.239</ele>
        <time>2015-06-21T16:39:18Z</time>
      </trkpt>
      <trkpt lat="36.736304" lon="-5.164340">
        <ele>712.611</ele>
        <time>2015-06-21T16:39:19Z</time>
      </trkpt>
      <trkpt lat="36.736320" lon="-5.164353">
        <ele>713.086</ele>
        <time>2015-06-21T16:39:20Z</time>
      </trkpt>
      <trkpt lat="36.736413" lon="-5.164416">
        <ele>713.060</ele>
        <time>2015-06-21T16:39:27Z</time>
      </trkpt>
      <trkpt lat="36.736442" lon="-5.164442">
        <ele>713.426</ele>
        <time>2015-06-21T16:39:29Z</time>
      </trkpt>
      <trkpt lat="36.736456" lon="-5.164449">
        <ele>713.808</ele>
        <time>2015-06-21T16:39:30Z</time>
      </trkpt>
      <trkpt lat="36.736467" lon="-5.164466">
        <ele>714.259</ele>
        <time>2015-06-21T16:39:31Z</time>
      </trkpt>
      <trkpt lat="36.736481" lon="-5.164480">
        <ele>714.615</ele>
        <time>2015-06-21T16:39:32Z</time>
      </trkpt>
      <trkpt lat="36.736492" lon="-5.164490">
        <ele>715.068</ele>
        <time>2015-06-21T16:39:33Z</time>
      </trkpt>
      <trkpt lat="36.736554" lon="-5.164548">
        <ele>715.018</ele>
        <time>2015-06-21T16:39:37Z</time>
      </trkpt>
      <trkpt lat="36.736660" lon="-5.164600">
        <ele>715.082</ele>
        <time>2015-06-21T16:39:43Z</time>
      </trkpt>
      <trkpt lat="36.736753" lon="-5.164623">
        <ele>715.039</ele>
        <time>2015-06-21T16:39:47Z</time>
      </trkpt>
      <trkpt lat="36.736794" lon="-5.164628">
        <ele>715.078</ele>
        <time>2015-06-21T16:39:49Z</time>
      </trkpt>
      <trkpt lat="36.736861" lon="-5.164637">
        <ele>715.450</ele>
        <time>2015-06-21T16:39:52Z</time>
      </trkpt>
      <trkpt lat="36.736884" lon="-5.164631">
        <ele>715.835</ele>
        <time>2015-06-21T16:39:53Z</time>
      </trkpt>
      <trkpt lat="36.736911" lon="-5.164637">
        <ele>716.286</ele>
        <time>2015-06-21T16:39:54Z</time>
      </trkpt>
      <trkpt lat="36.736931" lon="-5.164648">
        <ele>716.614</ele>
        <time>2015-06-21T16:39:55Z</time>
      </trkpt>
      <trkpt lat="36.736949" lon="-5.164660">
        <ele>717.008</ele>
        <time>2015-06-21T16:39:56Z</time>
      </trkpt>
      <trkpt lat="36.737010" lon="-5.164686">
        <ele>717.024</ele>
        <time>2015-06-21T16:39:59Z</time>
      </trkpt>
      <trkpt lat="36.737187" lon="-5.164761">
        <ele>717.490</ele>
        <time>2015-06-21T16:40:08Z</time>
      </trkpt>
      <trkpt lat="36.737204" lon="-5.164772">
        <ele>717.843</ele>
        <time>2015-06-21T16:40:09Z</time>
      </trkpt>
      <trkpt lat="36.737219" lon="-5.164787">
        <ele>718.223</ele>
        <time>2015-06-21T16:40:10Z</time>
      </trkpt>
      <trkpt lat="36.737240" lon="-5.164797">
        <ele>718.647</ele>
        <time>2015-06-21T16:40:11Z</time>
      </trkpt>
      <trkpt lat="36.737258" lon="-5.164807">
        <ele>719.014</ele>
        <time>2015-06-21T16:40:12Z</time>
      </trkpt>
      <trkpt lat="36.737367" lon="-5.164812">
        <ele>719.093</ele>
        <time>2015-06-21T16:40:17Z</time>
      </trkpt>
      <trkpt lat="36.737453" lon="-5.164809">
        <ele>719.035</ele>
        <time>2015-06-21T16:40:21Z</time>
      </trkpt>
      <trkpt lat="36.737571" lon="-5.164753">
        <ele>719.053</ele>
        <time>2015-06-21T16:40:23Z</time>
      </trkpt>
      <trkpt lat="36.737672" lon="-5.164735">
        <ele>719.004</ele>
        <time>2015-06-21T16:40:25Z</time>
      </trkpt>
      <trkpt lat="36.737803" lon="-5.164742">
        <ele>719.014</ele>
        <time>2015-06-21T16:40:28Z</time>
      </trkpt>
      <trkpt lat="36.737871" lon="-5.164742">
        <ele>719.008</ele>
        <time>2015-06-21T16:40:30Z</time>
      </trkpt>
      <trkpt lat="36.737956" lon="-5.164749">
        <ele>719.046</ele>
        <time>2015-06-21T16:40:33Z</time>
      </trkpt>
      <trkpt lat="36.738015" lon="-5.164774">
        <ele>719.082</ele>
        <time>2015-06-21T16:40:36Z</time>
      </trkpt>
      <trkpt lat="36.738058" lon="-5.164794">
        <ele>719.035</ele>
        <time>2015-06-21T16:40:38Z</time>
      </trkpt>
      <trkpt lat="36.738176" lon="-5.164868">
        <ele>719.435</ele>
        <time>2015-06-21T16:40:44Z</time>
      </trkpt>
      <trkpt lat="36.738197" lon="-5.164884">
        <ele>719.859</ele>
        <time>2015-06-21T16:40:45Z</time>
      </trkpt>
      <trkpt lat="36.738213" lon="-5.164904">
        <ele>720.466</ele>
        <time>2015-06-21T16:40:46Z</time>
      </trkpt>
      <trkpt lat="36.738232" lon="-5.164925">
        <ele>720.835</ele>
        <time>2015-06-21T16:40:47Z</time>
      </trkpt>
      <trkpt lat="36.738249" lon="-5.164939">
        <ele>721.227</ele>
        <time>2015-06-21T16:40:48Z</time>
      </trkpt>
      <trkpt lat="36.738344" lon="-5.165014">
        <ele>721.246</ele>
        <time>2015-06-21T16:40:53Z</time>
      </trkpt>
      <trkpt lat="36.738382" lon="-5.165042">
        <ele>721.288</ele>
        <time>2015-06-21T16:40:55Z</time>
      </trkpt>
      <trkpt lat="36.738468" lon="-5.165094">
        <ele>721.616</ele>
        <time>2015-06-21T16:40:59Z</time>
      </trkpt>
      <trkpt lat="36.738487" lon="-5.165108">
        <ele>722.008</ele>
        <time>2015-06-21T16:41:00Z</time>
      </trkpt>
      <trkpt lat="36.738505" lon="-5.165117">
        <ele>722.415</ele>
        <time>2015-06-21T16:41:01Z</time>
      </trkpt>
      <trkpt lat="36.738530" lon="-5.165126">
        <ele>722.831</ele>
        <time>2015-06-21T16:41:02Z</time>
      </trkpt>
      <trkpt lat="36.738554" lon="-5.165133">
        <ele>723.214</ele>
        <time>2015-06-21T16:41:03Z</time>
      </trkpt>
      <trkpt lat="36.738730" lon="-5.165163">
        <ele>723.244</ele>
        <time>2015-06-21T16:41:09Z</time>
      </trkpt>
      <trkpt lat="36.738985" lon="-5.165229">
        <ele>723.238</ele>
        <time>2015-06-21T16:41:16Z</time>
      </trkpt>
      <trkpt lat="36.739136" lon="-5.165248">
        <ele>723.215</ele>
        <time>2015-06-21T16:41:21Z</time>
      </trkpt>
      <trkpt lat="36.739271" lon="-5.165316">
        <ele>723.214</ele>
        <time>2015-06-21T16:41:26Z</time>
      </trkpt>
      <trkpt lat="36.739422" lon="-5.165407">
        <ele>723.246</ele>
        <time>2015-06-21T16:41:31Z</time>
      </trkpt>
      <trkpt lat="36.739451" lon="-5.165432">
        <ele>723.245</ele>
        <time>2015-06-21T16:41:32Z</time>
      </trkpt>
      <trkpt lat="36.739512" lon="-5.165466">
        <ele>723.247</ele>
        <time>2015-06-21T16:41:34Z</time>
      </trkpt>
      <trkpt lat="36.739593" lon="-5.165506">
        <ele>723.211</ele>
        <time>2015-06-21T16:41:36Z</time>
      </trkpt>
      <trkpt lat="36.739898" lon="-5.165615">
        <ele>723.208</ele>
        <time>2015-06-21T16:41:41Z</time>
      </trkpt>
      <trkpt lat="36.740110" lon="-5.165699">
        <ele>723.255</ele>
        <time>2015-06-21T16:41:44Z</time>
      </trkpt>
      <trkpt lat="36.740244" lon="-5.165746">
        <ele>723.261</ele>
        <time>2015-06-21T16:41:46Z</time>
      </trkpt>
      <trkpt lat="36.740293" lon="-5.165747">
        <ele>722.864</ele>
        <time>2015-06-21T16:41:47Z</time>
      </trkpt>
      <trkpt lat="36.740344" lon="-5.165735">
        <ele>722.454</ele>
        <time>2015-06-21T16:41:48Z</time>
      </trkpt>
      <trkpt lat="36.740380" lon="-5.165741">
        <ele>722.068</ele>
        <time>2015-06-21T16:41:49Z</time>
      </trkpt>
      <trkpt lat="36.740422" lon="-5.165741">
        <ele>721.675</ele>
        <time>2015-06-21T16:41:50Z</time>
      </trkpt>
      <trkpt lat="36.740464" lon="-5.165742">
        <ele>721.214</ele>
        <time>2015-06-21T16:41:51Z</time>
      </trkpt>
      <trkpt lat="36.740499" lon="-5.165747">
        <ele>720.896</ele>
        <time>2015-06-21T16:41:52Z</time>
      </trkpt>
      <trkpt lat="36.740523" lon="-5.165759">
        <ele>720.413</ele>
        <time>2015-06-21T16:41:53Z</time>
      </trkpt>
      <trkpt lat="36.740546" lon="-5.165774">
        <ele>720.043</ele>
        <time>2015-06-21T16:41:54Z</time>
      </trkpt>
      <trkpt lat="36.740570" lon="-5.165791">
        <ele>719.607</ele>
        <time>2015-06-21T16:41:55Z</time>
      </trkpt>
      <trkpt lat="36.740576" lon="-5.165813">
        <ele>719.208</ele>
        <time>2015-06-21T16:41:56Z</time>
      </trkpt>
      <trkpt lat="36.740564" lon="-5.165841">
        <ele>719.272</ele>
        <time>2015-06-21T16:41:58Z</time>
      </trkpt>
      <trkpt lat="36.740565" lon="-5.165844">
        <ele>719.228</ele>
        <time>2015-06-21T16:42:01Z</time>
      </trkpt>
      <trkpt lat="36.740566" lon="-5.165839">
        <ele>719.241</ele>
        <time>2015-06-21T16:42:02Z</time>
      </trkpt>
      <trkpt lat="36.740566" lon="-5.165839">
        <ele>719.261</ele>
        <time>2015-06-21T16:42:04Z</time>
      </trkpt>
      <trkpt lat="36.740594" lon="-5.165850">
        <ele>719.225</ele>
        <time>2015-06-21T16:42:07Z</time>
      </trkpt>
      <trkpt lat="36.740596" lon="-5.165850">
        <ele>719.212</ele>
        <time>2015-06-21T16:42:08Z</time>
      </trkpt>
      <trkpt lat="36.740598" lon="-5.165853">
        <ele>719.231</ele>
        <time>2015-06-21T16:42:17Z</time>
      </trkpt>
      <trkpt lat="36.740598" lon="-5.165853">
        <ele>719.263</ele>
        <time>2015-06-21T16:42:22Z</time>
      </trkpt>
      <trkpt lat="36.740598" lon="-5.165853">
        <ele>719.265</ele>
        <time>2015-06-21T16:42:24Z</time>
      </trkpt>
      <trkpt lat="36.740599" lon="-5.165852">
        <ele>719.268</ele>
        <time>2015-06-21T16:42:28Z</time>
      </trkpt>
      <trkpt lat="36.740599" lon="-5.165852">
        <ele>719.214</ele>
        <time>2015-06-21T16:42:30Z</time>
      </trkpt>
      <trkpt lat="36.740612" lon="-5.165858">
        <ele>719.208</ele>
        <time>2015-06-21T16:42:32Z</time>
      </trkpt>
      <trkpt lat="36.740621" lon="-5.165858">
        <ele>719.277</ele>
        <time>2015-06-21T16:42:36Z</time>
      </trkpt>
      <trkpt lat="36.740663" lon="-5.165879">
        <ele>719.253</ele>
        <time>2015-06-21T16:42:41Z</time>
      </trkpt>
      <trkpt lat="36.740735" lon="-5.165924">
        <ele>719.216</ele>
        <time>2015-06-21T16:42:46Z</time>
      </trkpt>
      <trkpt lat="36.740748" lon="-5.165939">
        <ele>719.256</ele>
        <time>2015-06-21T16:42:47Z</time>
      </trkpt>
      <trkpt lat="36.740794" lon="-5.165969">
        <ele>719.250</ele>
        <time>2015-06-21T16:42:50Z</time>
      </trkpt>
      <trkpt lat="36.740843" lon="-5.165977">
        <ele>719.287</ele>
        <time>2015-06-21T16:42:54Z</time>
      </trkpt>
      <trkpt lat="36.740896" lon="-5.165989">
        <ele>719.216</ele>
        <time>2015-06-21T16:42:58Z</time>
      </trkpt>
      <trkpt lat="36.740907" lon="-5.165996">
        <ele>719.268</ele>
        <time>2015-06-21T16:42:59Z</time>
      </trkpt>
      <trkpt lat="36.740935" lon="-5.165999">
        <ele>719.242</ele>
        <time>2015-06-21T16:43:05Z</time>
      </trkpt>
      <trkpt lat="36.740973" lon="-5.166027">
        <ele>719.222</ele>
        <time>2015-06-21T16:43:11Z</time>
      </trkpt>
      <trkpt lat="36.741088" lon="-5.166037">
        <ele>719.214</ele>
        <time>2015-06-21T16:43:16Z</time>
      </trkpt>
      <trkpt lat="36.741213" lon="-5.166080">
        <ele>719.208</ele>
        <time>2015-06-21T16:43:21Z</time>
      </trkpt>
      <trkpt lat="36.741343" lon="-5.166117">
        <ele>719.235</ele>
        <time>2015-06-21T16:43:26Z</time>
      </trkpt>
      <trkpt lat="36.741398" lon="-5.166144">
        <ele>719.291</ele>
        <time>2015-06-21T16:43:28Z</time>
      </trkpt>
      <trkpt lat="36.741561" lon="-5.166214">
        <ele>719.264</ele>
        <time>2015-06-21T16:43:34Z</time>
      </trkpt>
      <trkpt lat="36.741809" lon="-5.166316">
        <ele>719.254</ele>
        <time>2015-06-21T16:43:41Z</time>
      </trkpt>
      <trkpt lat="36.741931" lon="-5.166377">
        <ele>719.218</ele>
        <time>2015-06-21T16:43:44Z</time>
      </trkpt>
      <trkpt lat="36.742015" lon="-5.166419">
        <ele>719.285</ele>
        <time>2015-06-21T16:43:46Z</time>
      </trkpt>
      <trkpt lat="36.742055" lon="-5.166411">
        <ele>719.224</ele>
        <time>2015-06-21T16:43:47Z</time>
      </trkpt>
      <trkpt lat="36.742130" lon="-5.166369">
        <ele>719.276</ele>
        <time>2015-06-21T16:43:49Z</time>
      </trkpt>
      <trkpt lat="36.742148" lon="-5.166315">
        <ele>719.215</ele>
        <time>2015-06-21T16:43:50Z</time>
      </trkpt>
      <trkpt lat="36.742171" lon="-5.166273">
        <ele>719.265</ele>
        <time>2015-06-21T16:43:51Z</time>
      </trkpt>
      <trkpt lat="36.742288" lon="-5.166101">
        <ele>719.211</ele>
        <time>2015-06-21T16:43:56Z</time>
      </trkpt>
      <trkpt lat="36.742439" lon="-5.165864">
        <ele>719.208</ele>
        <time>2015-06-21T16:44:03Z</time>
      </trkpt>
      <trkpt lat="36.742545" lon="-5.165628">
        <ele>719.222</ele>
        <time>2015-06-21T16:44:09Z</time>
      </trkpt>
      <trkpt lat="36.742666" lon="-5.165430">
        <ele>719.248</ele>
        <time>2015-06-21T16:44:15Z</time>
      </trkpt>
      <trkpt lat="36.742733" lon="-5.165279">
        <ele>719.261</ele>
        <time>2015-06-21T16:44:20Z</time>
      </trkpt>
      <trkpt lat="36.742804" lon="-5.165157">
        <ele>719.241</ele>
        <time>2015-06-21T16:44:25Z</time>
      </trkpt>
      <trkpt lat="36.742817" lon="-5.165133">
        <ele>719.245</ele>
        <time>2015-06-21T16:44:26Z</time>
      </trkpt>
      <trkpt lat="36.742872" lon="-5.165031">
        <ele>719.252</ele>
        <time>2015-06-21T16:44:31Z</time>
      </trkpt>
      <trkpt lat="36.742885" lon="-5.164988">
        <ele>719.251</ele>
        <time>2015-06-21T16:44:33Z</time>
      </trkpt>
      <trkpt lat="36.742950" lon="-5.164877">
        <ele>719.263</ele>
        <time>2015-06-21T16:44:37Z</time>
      </trkpt>
      <trkpt lat="36.742969" lon="-5.164848">
        <ele>719.271</ele>
        <time>2015-06-21T16:44:38Z</time>
      </trkpt>
      <trkpt lat="36.743066" lon="-5.164647">
        <ele>719.241</ele>
        <time>2015-06-21T16:44:44Z</time>
      </trkpt>
      <trkpt lat="36.743082" lon="-5.164622">
        <ele>719.215</ele>
        <time>2015-06-21T16:44:45Z</time>
      </trkpt>
      <trkpt lat="36.743206" lon="-5.164498">
        <ele>719.208</ele>
        <time>2015-06-21T16:44:50Z</time>
      </trkpt>
      <trkpt lat="36.743246" lon="-5.164500">
        <ele>719.218</ele>
        <time>2015-06-21T16:44:51Z</time>
      </trkpt>
      <trkpt lat="36.743330" lon="-5.164518">
        <ele>719.254</ele>
        <time>2015-06-21T16:44:53Z</time>
      </trkpt>
      <trkpt lat="36.743390" lon="-5.164554">
        <ele>719.247</ele>
        <time>2015-06-21T16:44:55Z</time>
      </trkpt>
      <trkpt lat="36.743412" lon="-5.164574">
        <ele>719.257</ele>
        <time>2015-06-21T16:44:56Z</time>
      </trkpt>
      <trkpt lat="36.743481" lon="-5.164650">
        <ele>719.291</ele>
        <time>2015-06-21T16:44:59Z</time>
      </trkpt>
      <trkpt lat="36.743536" lon="-5.164710">
        <ele>719.218</ele>
        <time>2015-06-21T16:45:02Z</time>
      </trkpt>
      <trkpt lat="36.743670" lon="-5.164851">
        <ele>719.297</ele>
        <time>2015-06-21T16:45:09Z</time>
      </trkpt>
      <trkpt lat="36.743732" lon="-5.164905">
        <ele>719.299</ele>
        <time>2015-06-21T16:45:12Z</time>
      </trkpt>
      <trkpt lat="36.743771" lon="-5.164940">
        <ele>719.699</ele>
        <time>2015-06-21T16:45:14Z</time>
      </trkpt>
      <trkpt lat="36.743789" lon="-5.164959">
        <ele>720.407</ele>
        <time>2015-06-21T16:45:15Z</time>
      </trkpt>
      <trkpt lat="36.743809" lon="-5.164975">
        <ele>720.827</ele>
        <time>2015-06-21T16:45:16Z</time>
      </trkpt>
      <trkpt lat="36.743823" lon="-5.164993">
        <ele>721.208</ele>
        <time>2015-06-21T16:45:17Z</time>
      </trkpt>
      <trkpt lat="36.743936" lon="-5.165124">
        <ele>721.250</ele>
        <time>2015-06-21T16:45:25Z</time>
      </trkpt>
      <trkpt lat="36.744021" lon="-5.165241">
        <ele>721.276</ele>
        <time>2015-06-21T16:45:32Z</time>
      </trkpt>
      <trkpt lat="36.744082" lon="-5.165300">
        <ele>721.669</ele>
        <time>2015-06-21T16:45:36Z</time>
      </trkpt>
      <trkpt lat="36.744101" lon="-5.165318">
        <ele>722.089</ele>
        <time>2015-06-21T16:45:37Z</time>
      </trkpt>
      <trkpt lat="36.744116" lon="-5.165344">
        <ele>722.433</ele>
        <time>2015-06-21T16:45:38Z</time>
      </trkpt>
      <trkpt lat="36.744130" lon="-5.165366">
        <ele>723.270</ele>
        <time>2015-06-21T16:45:39Z</time>
      </trkpt>
      <trkpt lat="36.744205" lon="-5.165417">
        <ele>723.229</ele>
        <time>2015-06-21T16:45:42Z</time>
      </trkpt>
      <trkpt lat="36.744246" lon="-5.165452">
        <ele>723.221</ele>
        <time>2015-06-21T16:45:44Z</time>
      </trkpt>
      <trkpt lat="36.744369" lon="-5.165560">
        <ele>723.299</ele>
        <time>2015-06-21T16:45:49Z</time>
      </trkpt>
      <trkpt lat="36.744500" lon="-5.165645">
        <ele>723.207</ele>
        <time>2015-06-21T16:45:54Z</time>
      </trkpt>
      <trkpt lat="36.744665" lon="-5.165787">
        <ele>723.227</ele>
        <time>2015-06-21T16:46:01Z</time>
      </trkpt>
      <trkpt lat="36.744688" lon="-5.165811">
        <ele>723.608</ele>
        <time>2015-06-21T16:46:02Z</time>
      </trkpt>
      <trkpt lat="36.744712" lon="-5.165832">
        <ele>724.020</ele>
        <time>2015-06-21T16:46:03Z</time>
      </trkpt>
      <trkpt lat="36.744737" lon="-5.165852">
        <ele>725.066</ele>
        <time>2015-06-21T16:46:04Z</time>
      </trkpt>
      <trkpt lat="36.744766" lon="-5.165873">
        <ele>725.449</ele>
        <time>2015-06-21T16:46:05Z</time>
      </trkpt>
      <trkpt lat="36.744869" lon="-5.165961">
        <ele>725.499</ele>
        <time>2015-06-21T16:46:09Z</time>
      </trkpt>
      <trkpt lat="36.744950" lon="-5.166025">
        <ele>725.493</ele>
        <time>2015-06-21T16:46:12Z</time>
      </trkpt>
      <trkpt lat="36.745039" lon="-5.166088">
        <ele>725.450</ele>
        <time>2015-06-21T16:46:15Z</time>
      </trkpt>
      <trkpt lat="36.745273" lon="-5.166265">
        <ele>725.459</ele>
        <time>2015-06-21T16:46:23Z</time>
      </trkpt>
      <trkpt lat="36.745510" lon="-5.166430">
        <ele>725.451</ele>
        <time>2015-06-21T16:46:31Z</time>
      </trkpt>
      <trkpt lat="36.745712" lon="-5.166567">
        <ele>725.431</ele>
        <time>2015-06-21T16:46:39Z</time>
      </trkpt>
      <trkpt lat="36.745800" lon="-5.166653">
        <ele>725.461</ele>
        <time>2015-06-21T16:46:44Z</time>
      </trkpt>
      <trkpt lat="36.745865" lon="-5.166698">
        <ele>725.807</ele>
        <time>2015-06-21T16:46:47Z</time>
      </trkpt>
      <trkpt lat="36.745885" lon="-5.166708">
        <ele>726.208</ele>
        <time>2015-06-21T16:46:48Z</time>
      </trkpt>
      <trkpt lat="36.745901" lon="-5.166724">
        <ele>726.614</ele>
        <time>2015-06-21T16:46:49Z</time>
      </trkpt>
      <trkpt lat="36.745918" lon="-5.166737">
        <ele>727.070</ele>
        <time>2015-06-21T16:46:50Z</time>
      </trkpt>
      <trkpt lat="36.745935" lon="-5.166756">
        <ele>727.473</ele>
        <time>2015-06-21T16:46:51Z</time>
      </trkpt>
      <trkpt lat="36.745977" lon="-5.166771">
        <ele>727.413</ele>
        <time>2015-06-21T16:46:53Z</time>
      </trkpt>
      <trkpt lat="36.746024" lon="-5.166786">
        <ele>727.427</ele>
        <time>2015-06-21T16:46:55Z</time>
      </trkpt>
      <trkpt lat="36.746117" lon="-5.166829">
        <ele>728.054</ele>
        <time>2015-06-21T16:46:59Z</time>
      </trkpt>
      <trkpt lat="36.746140" lon="-5.166839">
        <ele>728.443</ele>
        <time>2015-06-21T16:47:00Z</time>
      </trkpt>
      <trkpt lat="36.746167" lon="-5.166841">
        <ele>729.055</ele>
        <time>2015-06-21T16:47:01Z</time>
      </trkpt>
      <trkpt lat="36.746193" lon="-5.166848">
        <ele>729.646</ele>
        <time>2015-06-21T16:47:02Z</time>
      </trkpt>
      <trkpt lat="36.746220" lon="-5.166846">
        <ele>730.288</ele>
        <time>2015-06-21T16:47:03Z</time>
      </trkpt>
      <trkpt lat="36.746313" lon="-5.166834">
        <ele>730.216</ele>
        <time>2015-06-21T16:47:06Z</time>
      </trkpt>
      <trkpt lat="36.746399" lon="-5.166881">
        <ele>730.208</ele>
        <time>2015-06-21T16:47:10Z</time>
      </trkpt>
      <trkpt lat="36.746474" lon="-5.167024">
        <ele>730.635</ele>
        <time>2015-06-21T16:47:16Z</time>
      </trkpt>
      <trkpt lat="36.746481" lon="-5.167055">
        <ele>731.421</ele>
        <time>2015-06-21T16:47:17Z</time>
      </trkpt>
      <trkpt lat="36.746494" lon="-5.167082">
        <ele>732.014</ele>
        <time>2015-06-21T16:47:18Z</time>
      </trkpt>
      <trkpt lat="36.746509" lon="-5.167109">
        <ele>732.474</ele>
        <time>2015-06-21T16:47:19Z</time>
      </trkpt>
      <trkpt lat="36.746578" lon="-5.167148">
        <ele>732.468</ele>
        <time>2015-06-21T16:47:22Z</time>
      </trkpt>
      <trkpt lat="36.746622" lon="-5.167172">
        <ele>732.475</ele>
        <time>2015-06-21T16:47:24Z</time>
      </trkpt>
      <trkpt lat="36.746787" lon="-5.167192">
        <ele>732.424</ele>
        <time>2015-06-21T16:47:30Z</time>
      </trkpt>
      <trkpt lat="36.746869" lon="-5.167209">
        <ele>732.896</ele>
        <time>2015-06-21T16:47:33Z</time>
      </trkpt>
      <trkpt lat="36.746891" lon="-5.167224">
        <ele>733.286</ele>
        <time>2015-06-21T16:47:34Z</time>
      </trkpt>
      <trkpt lat="36.746912" lon="-5.167235">
        <ele>733.660</ele>
        <time>2015-06-21T16:47:35Z</time>
      </trkpt>
      <trkpt lat="36.746935" lon="-5.167245">
        <ele>734.026</ele>
        <time>2015-06-21T16:47:36Z</time>
      </trkpt>
      <trkpt lat="36.746956" lon="-5.167252">
        <ele>734.408</ele>
        <time>2015-06-21T16:47:37Z</time>
      </trkpt>
      <trkpt lat="36.747049" lon="-5.167303">
        <ele>734.489</ele>
        <time>2015-06-21T16:47:41Z</time>
      </trkpt>
      <trkpt lat="36.747175" lon="-5.167385">
        <ele>734.465</ele>
        <time>2015-06-21T16:47:47Z</time>
      </trkpt>
      <trkpt lat="36.747234" lon="-5.167445">
        <ele>734.858</ele>
        <time>2015-06-21T16:47:51Z</time>
      </trkpt>
      <trkpt lat="36.747252" lon="-5.167452">
        <ele>735.238</ele>
        <time>2015-06-21T16:47:52Z</time>
      </trkpt>
      <trkpt lat="36.747272" lon="-5.167470">
        <ele>735.632</ele>
        <time>2015-06-21T16:47:53Z</time>
      </trkpt>
      <trkpt lat="36.747291" lon="-5.167483">
        <ele>736.069</ele>
        <time>2015-06-21T16:47:54Z</time>
      </trkpt>
      <trkpt lat="36.747312" lon="-5.167499">
        <ele>736.418</ele>
        <time>2015-06-21T16:47:55Z</time>
      </trkpt>
      <trkpt lat="36.747356" lon="-5.167532">
        <ele>736.460</ele>
        <time>2015-06-21T16:47:57Z</time>
      </trkpt>
      <trkpt lat="36.747511" lon="-5.167600">
        <ele>736.454</ele>
        <time>2015-06-21T16:48:04Z</time>
      </trkpt>
      <trkpt lat="36.747602" lon="-5.167648">
        <ele>736.456</ele>
        <time>2015-06-21T16:48:09Z</time>
      </trkpt>
      <trkpt lat="36.747676" lon="-5.167656">
        <ele>736.811</ele>
        <time>2015-06-21T16:48:14Z</time>
      </trkpt>
      <trkpt lat="36.747665" lon="-5.167673">
        <ele>737.208</ele>
        <time>2015-06-21T16:48:15Z</time>
      </trkpt>
      <trkpt lat="36.747667" lon="-5.167672">
        <ele>737.616</ele>
        <time>2015-06-21T16:48:16Z</time>
      </trkpt>
      <trkpt lat="36.747671" lon="-5.167664">
        <ele>738.012</ele>
        <time>2015-06-21T16:48:17Z</time>
      </trkpt>
      <trkpt lat="36.747674" lon="-5.167651">
        <ele>738.455</ele>
        <time>2015-06-21T16:48:18Z</time>
      </trkpt>
      <trkpt lat="36.747687" lon="-5.167620">
        <ele>738.465</ele>
        <time>2015-06-21T16:48:20Z</time>
      </trkpt>
      <trkpt lat="36.747742" lon="-5.167509">
        <ele>738.429</ele>
        <time>2015-06-21T16:48:26Z</time>
      </trkpt>
      <trkpt lat="36.747761" lon="-5.167367">
        <ele>738.476</ele>
        <time>2015-06-21T16:48:32Z</time>
      </trkpt>
      <trkpt lat="36.747748" lon="-5.167282">
        <ele>738.445</ele>
        <time>2015-06-21T16:48:37Z</time>
      </trkpt>
      <trkpt lat="36.747768" lon="-5.167286">
        <ele>738.427</ele>
        <time>2015-06-21T16:48:38Z</time>
      </trkpt>
      <trkpt lat="36.747802" lon="-5.167319">
        <ele>738.429</ele>
        <time>2015-06-21T16:48:40Z</time>
      </trkpt>
      <trkpt lat="36.747838" lon="-5.167265">
        <ele>738.400</ele>
        <time>2015-06-21T16:48:43Z</time>
      </trkpt>
      <trkpt lat="36.747844" lon="-5.167205">
        <ele>739.020</ele>
        <time>2015-06-21T16:48:46Z</time>
      </trkpt>
      <trkpt lat="36.747847" lon="-5.167183">
        <ele>739.408</ele>
        <time>2015-06-21T16:48:47Z</time>
      </trkpt>
      <trkpt lat="36.747852" lon="-5.167162">
        <ele>739.843</ele>
        <time>2015-06-21T16:48:48Z</time>
      </trkpt>
      <trkpt lat="36.747858" lon="-5.167137">
        <ele>740.269</ele>
        <time>2015-06-21T16:48:49Z</time>
      </trkpt>
      <trkpt lat="36.747866" lon="-5.167112">
        <ele>740.682</ele>
        <time>2015-06-21T16:48:50Z</time>
      </trkpt>
      <trkpt lat="36.747943" lon="-5.167005">
        <ele>740.692</ele>
        <time>2015-06-21T16:48:55Z</time>
      </trkpt>
      <trkpt lat="36.747958" lon="-5.166995">
        <ele>740.616</ele>
        <time>2015-06-21T16:48:56Z</time>
      </trkpt>
      <trkpt lat="36.748011" lon="-5.166944">
        <ele>741.233</ele>
        <time>2015-06-21T16:48:59Z</time>
      </trkpt>
      <trkpt lat="36.748040" lon="-5.166921">
        <ele>741.622</ele>
        <time>2015-06-21T16:49:00Z</time>
      </trkpt>
      <trkpt lat="36.748070" lon="-5.166896">
        <ele>742.294</ele>
        <time>2015-06-21T16:49:01Z</time>
      </trkpt>
      <trkpt lat="36.748088" lon="-5.166866">
        <ele>742.627</ele>
        <time>2015-06-21T16:49:02Z</time>
      </trkpt>
      <trkpt lat="36.748110" lon="-5.166842">
        <ele>743.268</ele>
        <time>2015-06-21T16:49:03Z</time>
      </trkpt>
      <trkpt lat="36.748175" lon="-5.166832">
        <ele>743.214</ele>
        <time>2015-06-21T16:49:05Z</time>
      </trkpt>
      <trkpt lat="36.748202" lon="-5.166855">
        <ele>743.208</ele>
        <time>2015-06-21T16:49:06Z</time>
      </trkpt>
      <trkpt lat="36.748272" lon="-5.166937">
        <ele>743.223</ele>
        <time>2015-06-21T16:49:10Z</time>
      </trkpt>
      <trkpt lat="36.748291" lon="-5.166956">
        <ele>743.289</ele>
        <time>2015-06-21T16:49:11Z</time>
      </trkpt>
      <trkpt lat="36.748385" lon="-5.167018">
        <ele>743.292</ele>
        <time>2015-06-21T16:49:16Z</time>
      </trkpt>
      <trkpt lat="36.748479" lon="-5.167077">
        <ele>743.632</ele>
        <time>2015-06-21T16:49:21Z</time>
      </trkpt>
      <trkpt lat="36.748501" lon="-5.167087">
        <ele>744.016</ele>
        <time>2015-06-21T16:49:22Z</time>
      </trkpt>
      <trkpt lat="36.748522" lon="-5.167096">
        <ele>744.473</ele>
        <time>2015-06-21T16:49:23Z</time>
      </trkpt>
      <trkpt lat="36.748545" lon="-5.167101">
        <ele>744.852</ele>
        <time>2015-06-21T16:49:24Z</time>
      </trkpt>
      <trkpt lat="36.748569" lon="-5.167112">
        <ele>745.224</ele>
        <time>2015-06-21T16:49:25Z</time>
      </trkpt>
      <trkpt lat="36.748694" lon="-5.167195">
        <ele>745.253</ele>
        <time>2015-06-21T16:49:31Z</time>
      </trkpt>
      <trkpt lat="36.748819" lon="-5.167275">
        <ele>745.204</ele>
        <time>2015-06-21T16:49:37Z</time>
      </trkpt>
      <trkpt lat="36.748840" lon="-5.167288">
        <ele>745.614</ele>
        <time>2015-06-21T16:49:38Z</time>
      </trkpt>
      <trkpt lat="36.748861" lon="-5.167297">
        <ele>746.008</ele>
        <time>2015-06-21T16:49:39Z</time>
      </trkpt>
      <trkpt lat="36.748879" lon="-5.167308">
        <ele>746.686</ele>
        <time>2015-06-21T16:49:40Z</time>
      </trkpt>
      <trkpt lat="36.748893" lon="-5.167325">
        <ele>747.052</ele>
        <time>2015-06-21T16:49:41Z</time>
      </trkpt>
      <trkpt lat="36.748914" lon="-5.167336">
        <ele>747.475</ele>
        <time>2015-06-21T16:49:42Z</time>
      </trkpt>
      <trkpt lat="36.748937" lon="-5.167348">
        <ele>747.425</ele>
        <time>2015-06-21T16:49:43Z</time>
      </trkpt>
      <trkpt lat="36.749070" lon="-5.167418">
        <ele>747.439</ele>
        <time>2015-06-21T16:49:49Z</time>
      </trkpt>
      <trkpt lat="36.749113" lon="-5.167432">
        <ele>747.426</ele>
        <time>2015-06-21T16:49:51Z</time>
      </trkpt>
      <trkpt lat="36.749181" lon="-5.167471">
        <ele>747.835</ele>
        <time>2015-06-21T16:49:54Z</time>
      </trkpt>
      <trkpt lat="36.749197" lon="-5.167488">
        <ele>748.257</ele>
        <time>2015-06-21T16:49:55Z</time>
      </trkpt>
      <trkpt lat="36.749216" lon="-5.167492">
        <ele>748.643</ele>
        <time>2015-06-21T16:49:56Z</time>
      </trkpt>
      <trkpt lat="36.749239" lon="-5.167500">
        <ele>749.064</ele>
        <time>2015-06-21T16:49:57Z</time>
      </trkpt>
      <trkpt lat="36.749260" lon="-5.167509">
        <ele>749.410</ele>
        <time>2015-06-21T16:49:58Z</time>
      </trkpt>
      <trkpt lat="36.749346" lon="-5.167558">
        <ele>749.408</ele>
        <time>2015-06-21T16:50:02Z</time>
      </trkpt>
      <trkpt lat="36.749398" lon="-5.167574">
        <ele>749.495</ele>
        <time>2015-06-21T16:50:04Z</time>
      </trkpt>
      <trkpt lat="36.749599" lon="-5.167629">
        <ele>749.861</ele>
        <time>2015-06-21T16:50:12Z</time>
      </trkpt>
      <trkpt lat="36.749622" lon="-5.167628">
        <ele>750.254</ele>
        <time>2015-06-21T16:50:13Z</time>
      </trkpt>
      <trkpt lat="36.749649" lon="-5.167631">
        <ele>750.624</ele>
        <time>2015-06-21T16:50:14Z</time>
      </trkpt>
      <trkpt lat="36.749673" lon="-5.167629">
        <ele>751.028</ele>
        <time>2015-06-21T16:50:15Z</time>
      </trkpt>
      <trkpt lat="36.749701" lon="-5.167633">
        <ele>751.625</ele>
        <time>2015-06-21T16:50:16Z</time>
      </trkpt>
      <trkpt lat="36.749780" lon="-5.167628">
        <ele>751.644</ele>
        <time>2015-06-21T16:50:19Z</time>
      </trkpt>
      <trkpt lat="36.749886" lon="-5.167593">
        <ele>752.066</ele>
        <time>2015-06-21T16:50:24Z</time>
      </trkpt>
      <trkpt lat="36.749905" lon="-5.167596">
        <ele>752.457</ele>
        <time>2015-06-21T16:50:25Z</time>
      </trkpt>
      <trkpt lat="36.749935" lon="-5.167596">
        <ele>752.800</ele>
        <time>2015-06-21T16:50:26Z</time>
      </trkpt>
      <trkpt lat="36.749953" lon="-5.167599">
        <ele>753.220</ele>
        <time>2015-06-21T16:50:27Z</time>
      </trkpt>
      <trkpt lat="36.749976" lon="-5.167604">
        <ele>753.608</ele>
        <time>2015-06-21T16:50:28Z</time>
      </trkpt>
      <trkpt lat="36.750075" lon="-5.167559">
        <ele>753.676</ele>
        <time>2015-06-21T16:50:33Z</time>
      </trkpt>
      <trkpt lat="36.750115" lon="-5.167546">
        <ele>754.042</ele>
        <time>2015-06-21T16:50:35Z</time>
      </trkpt>
      <trkpt lat="36.750136" lon="-5.167540">
        <ele>754.485</ele>
        <time>2015-06-21T16:50:36Z</time>
      </trkpt>
      <trkpt lat="36.750151" lon="-5.167529">
        <ele>754.895</ele>
        <time>2015-06-21T16:50:37Z</time>
      </trkpt>
      <trkpt lat="36.750172" lon="-5.167517">
        <ele>755.469</ele>
        <time>2015-06-21T16:50:38Z</time>
      </trkpt>
      <trkpt lat="36.750189" lon="-5.167504">
        <ele>755.886</ele>
        <time>2015-06-21T16:50:39Z</time>
      </trkpt>
      <trkpt lat="36.750233" lon="-5.167474">
        <ele>755.825</ele>
        <time>2015-06-21T16:50:41Z</time>
      </trkpt>
      <trkpt lat="36.750399" lon="-5.167381">
        <ele>756.297</ele>
        <time>2015-06-21T16:50:49Z</time>
      </trkpt>
      <trkpt lat="36.750419" lon="-5.167369">
        <ele>756.694</ele>
        <time>2015-06-21T16:50:51Z</time>
      </trkpt>
      <trkpt lat="36.750437" lon="-5.167356">
        <ele>757.057</ele>
        <time>2015-06-21T16:50:52Z</time>
      </trkpt>
      <trkpt lat="36.750454" lon="-5.167344">
        <ele>757.422</ele>
        <time>2015-06-21T16:50:53Z</time>
      </trkpt>
      <trkpt lat="36.750470" lon="-5.167334">
        <ele>757.808</ele>
        <time>2015-06-21T16:50:54Z</time>
      </trkpt>
      <trkpt lat="36.750533" lon="-5.167280">
        <ele>757.890</ele>
        <time>2015-06-21T16:50:58Z</time>
      </trkpt>
      <trkpt lat="36.750566" lon="-5.167199">
        <ele>757.856</ele>
        <time>2015-06-21T16:51:01Z</time>
      </trkpt>
      <trkpt lat="36.750567" lon="-5.167164">
        <ele>757.839</ele>
        <time>2015-06-21T16:51:02Z</time>
      </trkpt>
      <trkpt lat="36.750581" lon="-5.166917">
        <ele>757.869</ele>
        <time>2015-06-21T16:51:09Z</time>
      </trkpt>
      <trkpt lat="36.750593" lon="-5.166796">
        <ele>757.893</ele>
        <time>2015-06-21T16:51:12Z</time>
      </trkpt>
      <trkpt lat="36.750591" lon="-5.166755">
        <ele>758.270</ele>
        <time>2015-06-21T16:51:13Z</time>
      </trkpt>
      <trkpt lat="36.750591" lon="-5.166715">
        <ele>758.689</ele>
        <time>2015-06-21T16:51:14Z</time>
      </trkpt>
      <trkpt lat="36.750590" lon="-5.166673">
        <ele>759.061</ele>
        <time>2015-06-21T16:51:15Z</time>
      </trkpt>
      <trkpt lat="36.750591" lon="-5.166630">
        <ele>759.438</ele>
        <time>2015-06-21T16:51:16Z</time>
      </trkpt>
      <trkpt lat="36.750595" lon="-5.166589">
        <ele>759.870</ele>
        <time>2015-06-21T16:51:17Z</time>
      </trkpt>
      <trkpt lat="36.750614" lon="-5.166497">
        <ele>759.817</ele>
        <time>2015-06-21T16:51:19Z</time>
      </trkpt>
      <trkpt lat="36.750616" lon="-5.166398">
        <ele>759.808</ele>
        <time>2015-06-21T16:51:21Z</time>
      </trkpt>
      <trkpt lat="36.750625" lon="-5.166296">
        <ele>759.844</ele>
        <time>2015-06-21T16:51:23Z</time>
      </trkpt>
      <trkpt lat="36.750644" lon="-5.165983">
        <ele>759.860</ele>
        <time>2015-06-21T16:51:28Z</time>
      </trkpt>
      <trkpt lat="36.750657" lon="-5.165847">
        <ele>759.893</ele>
        <time>2015-06-21T16:51:30Z</time>
      </trkpt>
      <trkpt lat="36.750664" lon="-5.165772">
        <ele>759.413</ele>
        <time>2015-06-21T16:51:31Z</time>
      </trkpt>
      <trkpt lat="36.750672" lon="-5.165686">
        <ele>759.077</ele>
        <time>2015-06-21T16:51:32Z</time>
      </trkpt>
      <trkpt lat="36.750680" lon="-5.165604">
        <ele>758.664</ele>
        <time>2015-06-21T16:51:33Z</time>
      </trkpt>
      <trkpt lat="36.750680" lon="-5.165528">
        <ele>758.223</ele>
        <time>2015-06-21T16:51:34Z</time>
      </trkpt>
      <trkpt lat="36.750681" lon="-5.165466">
        <ele>757.815</ele>
        <time>2015-06-21T16:51:35Z</time>
      </trkpt>
      <trkpt lat="36.750679" lon="-5.165419">
        <ele>757.416</ele>
        <time>2015-06-21T16:51:36Z</time>
      </trkpt>
      <trkpt lat="36.750674" lon="-5.165384">
        <ele>757.076</ele>
        <time>2015-06-21T16:51:37Z</time>
      </trkpt>
      <trkpt lat="36.750672" lon="-5.165359">
        <ele>756.413</ele>
        <time>2015-06-21T16:51:38Z</time>
      </trkpt>
      <trkpt lat="36.750462" lon="-5.165254">
        <ele>757.28</ele>
        <time>2019-01-17T06:18:41Z</time>
      </trkpt>
      <trkpt lat="36.750603" lon="-5.165297">
        <ele>759.09</ele>
        <time>2019-01-17T06:18:58Z</time>
      </trkpt>
      <trkpt lat="36.750631" lon="-5.16482">
        <ele>754.69</ele>
        <time>2019-01-17T06:19:09Z</time>
      </trkpt>
      <trkpt lat="36.750461" lon="-5.164683">
        <ele>753.09</ele>
        <time>2019-01-17T06:19:12Z</time>
      </trkpt>
      <trkpt lat="36.747564" lon="-5.165029">
        <ele>742.89</ele>
        <time>2019-01-17T06:19:54Z</time>
      </trkpt>
      <trkpt lat="36.747267" lon="-5.163978">
        <ele>741.24</ele>
        <time>2019-01-17T06:20:24Z</time>
      </trkpt>
      <trkpt lat="36.744527" lon="-5.162303">
        <ele>734.64</ele>
        <time>2019-01-17T06:21:58Z</time>
      </trkpt>
      <trkpt lat="36.745685" lon="-5.160024">
        <ele>742.42</ele>
        <time>2019-01-17T06:23:21Z</time>
      </trkpt>
      <trkpt lat="36.747002" lon="-5.157887">
        <ele>748.01</ele>
        <time>2019-01-17T06:24:31Z</time>
      </trkpt>
      <trkpt lat="36.749835" lon="-5.152778">
        <ele>736.88</ele>
        <time>2019-01-17T06:26:08Z</time>
      </trkpt>
      <trkpt lat="36.750681" lon="-5.151777">
        <ele>731.83</ele>
        <time>2019-01-17T06:26:21Z</time>
      </trkpt>
      <trkpt lat="36.753453" lon="-5.149435">
        <ele>724.04</ele>
        <time>2019-01-17T06:27:04Z</time>
      </trkpt>
      <trkpt lat="36.753578" lon="-5.148238">
        <ele>722.22</ele>
        <time>2019-01-17T06:27:19Z</time>
      </trkpt>
      <trkpt lat="36.752928" lon="-5.147546">
        <ele>721.04</ele>
        <time>2019-01-17T06:27:33Z</time>
      </trkpt>
      <trkpt lat="36.751539" lon="-5.146779">
        <ele>715.05</ele>
        <time>2019-01-17T06:28:27Z</time>
      </trkpt>
      <trkpt lat="36.752822" lon="-5.147735">
        <ele>721.02</ele>
        <time>2019-01-17T06:30:10Z</time>
      </trkpt>
      <trkpt lat="36.753048" lon="-5.147418">
        <ele>721.06</ele>
        <time>2019-01-17T06:30:31Z</time>
      </trkpt>
      <trkpt lat="36.753235" lon="-5.147374">
        <ele>721.27</ele>
        <time>2019-01-17T06:30:37Z</time>
      </trkpt>
      <trkpt lat="36.752996" lon="-5.147094">
        <ele>720.82</ele>
        <time>2019-01-17T06:30:44Z</time>
      </trkpt>
      <trkpt lat="36.752388" lon="-5.146834">
        <ele>721.06</ele>
        <time>2019-01-17T06:30:54Z</time>
      </trkpt>
      <trkpt lat="36.751787" lon="-5.145955">
        <ele>717.83</ele>
        <time>2019-01-17T06:31:11Z</time>
      </trkpt>
      <trkpt lat="36.750995" lon="-5.143318">
        <ele>714.48</ele>
        <time>2019-01-17T06:31:52Z</time>
      </trkpt>
      <trkpt lat="36.751571" lon="-5.141532">
        <ele>712.41</ele>
        <time>2019-01-17T06:32:25Z</time>
      </trkpt>
      <trkpt lat="36.750547" lon="-5.141842">
        <ele>710.46</ele>
        <time>2019-01-17T06:33:01Z</time>
      </trkpt>
      <trkpt lat="36.750162" lon="-5.141244">
        <ele>712.22</ele>
        <time>2019-01-17T06:33:23Z</time>
      </trkpt>
      <trkpt lat="36.749389" lon="-5.138486">
        <ele>719.06</ele>
        <time>2019-01-17T06:38:31Z</time>
      </trkpt>
      <trkpt lat="36.74918" lon="-5.135484">
        <ele>743.63</ele>
        <time>2019-01-17T06:41:18Z</time>
      </trkpt>
      <trkpt lat="36.748335" lon="-5.133571">
        <ele>761.25</ele>
        <time>2019-01-17T06:42:53Z</time>
      </trkpt>
      <trkpt lat="36.74769" lon="-5.132631">
        <ele>773.22</ele>
        <time>2019-01-17T06:43:54Z</time>
      </trkpt>
      <trkpt lat="36.745314" lon="-5.127807">
        <ele>780.27</ele>
        <time>2019-01-17T06:46:38Z</time>
      </trkpt>
      <trkpt lat="36.745105" lon="-5.125955">
        <ele>779.23</ele>
        <time>2019-01-17T06:47:09Z</time>
      </trkpt>
      <trkpt lat="36.744229" lon="-5.123433">
        <ele>768.85</ele>
        <time>2019-01-17T06:47:39Z</time>
      </trkpt>
      <trkpt lat="36.743473" lon="-5.122239">
        <ele>766.21</ele>
        <time>2019-01-17T06:48:02Z</time>
      </trkpt>
      <trkpt lat="36.743129" lon="-5.12124">
        <ele>769.01</ele>
        <time>2019-01-17T06:48:23Z</time>
      </trkpt>
      <trkpt lat="36.742937" lon="-5.11595">
        <ele>767.07</ele>
        <time>2019-01-17T06:49:53Z</time>
      </trkpt>
      <trkpt lat="36.742299" lon="-5.110693">
        <ele>775.87</ele>
        <time>2019-01-17T06:52:02Z</time>
      </trkpt>
      <trkpt lat="36.742545" lon="-5.104602">
        <ele>789.63</ele>
        <time>2019-01-17T06:54:52Z</time>
      </trkpt>
      <trkpt lat="36.742953" lon="-5.10262">
        <ele>793.64</ele>
        <time>2019-01-17T06:55:53Z</time>
      </trkpt>
      <trkpt lat="36.742981" lon="-5.101496">
        <ele>796.88</ele>
        <time>2019-01-17T06:56:28Z</time>
      </trkpt>
      <trkpt lat="36.744411" lon="-5.096929">
        <ele>824.03</ele>
        <time>2019-01-17T06:59:27Z</time>
      </trkpt>
      <trkpt lat="36.744637" lon="-5.096067">
        <ele>830.42</ele>
        <time>2019-01-17T07:00:39Z</time>
      </trkpt>
      <trkpt lat="36.744569" lon="-5.09365">
        <ele>849.64</ele>
        <time>2019-01-17T07:03:02Z</time>
      </trkpt>
      <trkpt lat="36.745409" lon="-5.090987">
        <ele>877.9</ele>
        <time>2019-01-17T07:08:50Z</time>
      </trkpt>
      <trkpt lat="36.745336" lon="-5.089083">
        <ele>898.41</ele>
        <time>2019-01-17T07:10:24Z</time>
      </trkpt>
      <trkpt lat="36.745041" lon="-5.088042">
        <ele>898.49</ele>
        <time>2019-01-17T07:11:10Z</time>
      </trkpt>
      <trkpt lat="36.744296" lon="-5.08704">
        <ele>897.27</ele>
        <time>2019-01-17T07:12:22Z</time>
      </trkpt>
      <trkpt lat="36.74387" lon="-5.085659">
        <ele>918.44</ele>
        <time>2019-01-17T07:13:53Z</time>
      </trkpt>
      <trkpt lat="36.744038" lon="-5.084873">
        <ele>933.66</ele>
        <time>2019-01-17T07:14:43Z</time>
      </trkpt>
      <trkpt lat="36.744053" lon="-5.083872">
        <ele>942.87</ele>
        <time>2019-01-17T07:15:42Z</time>
      </trkpt>
      <trkpt lat="36.743743" lon="-5.083039">
        <ele>942.84</ele>
        <time>2019-01-17T07:16:34Z</time>
      </trkpt>
      <trkpt lat="36.743972" lon="-5.080532">
        <ele>975.2</ele>
        <time>2019-01-17T07:19:24Z</time>
      </trkpt>
      <trkpt lat="36.744327" lon="-5.080016">
        <ele>996.22</ele>
        <time>2019-01-17T07:20:09Z</time>
      </trkpt>
      <trkpt lat="36.744328" lon="-5.07872">
        <ele>1009.27</ele>
        <time>2019-01-17T07:21:39Z</time>
      </trkpt>
      <trkpt lat="36.744151" lon="-5.077707">
        <ele>1006.49</ele>
        <time>2019-01-17T07:23:00Z</time>
      </trkpt>
      <trkpt lat="36.74431" lon="-5.076766">
        <ele>1016.65</ele>
        <time>2019-01-17T07:23:44Z</time>
      </trkpt>
      <trkpt lat="36.743859" lon="-5.07598">
        <ele>1011.04</ele>
        <time>2019-01-17T07:24:19Z</time>
      </trkpt>
      <trkpt lat="36.743419" lon="-5.075755">
        <ele>1006.48</ele>
        <time>2019-01-17T07:24:40Z</time>
      </trkpt>
      <trkpt lat="36.742595" lon="-5.074169">
        <ele>1037.24</ele>
        <time>2019-01-17T07:27:19Z</time>
      </trkpt>
      <trkpt lat="36.742433" lon="-5.07342">
        <ele>1044</ele>
        <time>2019-01-17T07:27:46Z</time>
      </trkpt>
      <trkpt lat="36.742479" lon="-5.071494">
        <ele>1056.42</ele>
        <time>2019-01-17T07:28:59Z</time>
      </trkpt>
      <trkpt lat="36.742578" lon="-5.069497">
        <ele>1070.03</ele>
        <time>2019-01-17T07:30:32Z</time>
      </trkpt>
      <trkpt lat="36.743022" lon="-5.067543">
        <ele>1085.05</ele>
        <time>2019-01-17T07:32:01Z</time>
      </trkpt>
      <trkpt lat="36.742986" lon="-5.066861">
        <ele>1082.44</ele>
        <time>2019-01-17T07:32:25Z</time>
      </trkpt>
      <trkpt lat="36.74256" lon="-5.065983">
        <ele>1073.47</ele>
        <time>2019-01-17T07:32:51Z</time>
      </trkpt>
      <trkpt lat="36.742284" lon="-5.064445">
        <ele>1083.01</ele>
        <time>2019-01-17T07:33:34Z</time>
      </trkpt>
      <trkpt lat="36.742587" lon="-5.061006">
        <ele>1088.42</ele>
        <time>2019-01-17T07:35:04Z</time>
      </trkpt>
      <trkpt lat="36.742932" lon="-5.058858">
        <ele>1109.85</ele>
        <time>2019-01-17T07:36:49Z</time>
      </trkpt>
      <trkpt lat="36.743414" lon="-5.057621">
        <ele>1121.42</ele>
        <time>2019-01-17T07:38:14Z</time>
      </trkpt>
      <trkpt lat="36.745007" lon="-5.055943">
        <ele>1152.02</ele>
        <time>2019-01-17T07:40:29Z</time>
      </trkpt>
      <trkpt lat="36.745349" lon="-5.054222">
        <ele>1154.28</ele>
        <time>2019-01-17T07:42:03Z</time>
      </trkpt>
      <trkpt lat="36.745822" lon="-5.053136">
        <ele>1164.43</ele>
        <time>2019-01-17T07:43:05Z</time>
      </trkpt>
      <trkpt lat="36.746639" lon="-5.052103">
        <ele>1162.61</ele>
        <time>2019-01-17T07:44:46Z</time>
      </trkpt>
      <trkpt lat="36.748323" lon="-5.048145">
        <ele>1147.29</ele>
        <time>2019-01-17T07:45:52Z</time>
      </trkpt>
      <trkpt lat="36.748091" lon="-5.047215">
        <ele>1144.22</ele>
        <time>2019-01-17T07:46:08Z</time>
      </trkpt>
      <trkpt lat="36.74893" lon="-5.045712">
        <ele>1119.66</ele>
        <time>2019-01-17T07:46:31Z</time>
      </trkpt>
      <trkpt lat="36.749161" lon="-5.046869">
        <ele>1129.81</ele>
        <time>2019-01-17T07:46:49Z</time>
      </trkpt>
      <trkpt lat="36.749448" lon="-5.04652">
        <ele>1123.2</ele>
        <time>2019-01-17T07:46:55Z</time>
      </trkpt>
      <trkpt lat="36.74967" lon="-5.045721">
        <ele>1108.61</ele>
        <time>2019-01-17T07:47:03Z</time>
      </trkpt>
      <trkpt lat="36.749503" lon="-5.045165">
        <ele>1104.85</ele>
        <time>2019-01-17T07:47:13Z</time>
      </trkpt>
      <trkpt lat="36.750007" lon="-5.044525">
        <ele>1087.44</ele>
        <time>2019-01-17T07:47:25Z</time>
      </trkpt>
      <trkpt lat="36.750303" lon="-5.043633">
        <ele>1075.02</ele>
        <time>2019-01-17T07:47:36Z</time>
      </trkpt>
      <trkpt lat="36.750287" lon="-5.042625">
        <ele>1066.05</ele>
        <time>2019-01-17T07:47:46Z</time>
      </trkpt>
      <trkpt lat="36.749977" lon="-5.041354">
        <ele>1061.49</ele>
        <time>2019-01-17T07:48:02Z</time>
      </trkpt>
      <trkpt lat="36.750345" lon="-5.041485">
        <ele>1054.07</ele>
        <time>2019-01-17T07:48:10Z</time>
      </trkpt>
      <trkpt lat="36.750639" lon="-5.041971">
        <ele>1050.88</ele>
        <time>2019-01-17T07:48:17Z</time>
      </trkpt>
      <trkpt lat="36.751421" lon="-5.042542">
        <ele>1052.61</ele>
        <time>2019-01-17T07:48:30Z</time>
      </trkpt>
      <trkpt lat="36.751592" lon="-5.042455">
        <ele>1051.89</ele>
        <time>2019-01-17T07:48:34Z</time>
      </trkpt>
      <trkpt lat="36.751843" lon="-5.040848">
        <ele>1039.07</ele>
        <time>2019-01-17T07:48:50Z</time>
      </trkpt>
      <trkpt lat="36.752542" lon="-5.03913">
        <ele>1023.68</ele>
        <time>2019-01-17T07:49:05Z</time>
      </trkpt>
      <trkpt lat="36.753731" lon="-5.037847">
        <ele>1005.65</ele>
        <time>2019-01-17T07:49:23Z</time>
      </trkpt>
      <trkpt lat="36.754813" lon="-5.034812">
        <ele>997.82</ele>
        <time>2019-01-17T07:50:58Z</time>
      </trkpt>
      <trkpt lat="36.754541" lon="-5.034258">
        <ele>994.61</ele>
        <time>2019-01-17T07:51:14Z</time>
      </trkpt>
      <trkpt lat="36.754887" lon="-5.034786">
        <ele>998.08</ele>
        <time>2019-01-17T07:51:35Z</time>
      </trkpt>
      <trkpt lat="36.755453" lon="-5.033795">
        <ele>995.67</ele>
        <time>2019-01-17T07:52:29Z</time>
      </trkpt>
      <trkpt lat="36.755608" lon="-5.032897">
        <ele>992.02</ele>
        <time>2019-01-17T07:53:12Z</time>
      </trkpt>
      <trkpt lat="36.756101" lon="-5.032117">
        <ele>993.41</ele>
        <time>2019-01-17T07:54:19Z</time>
      </trkpt>
      <trkpt lat="36.75701" lon="-5.031499">
        <ele>1000.86</ele>
        <time>2019-01-17T07:55:40Z</time>
      </trkpt>
      <trkpt lat="36.757064" lon="-5.029731">
        <ele>991.04</ele>
        <time>2019-01-17T07:56:41Z</time>
      </trkpt>
      <trkpt lat="36.75681" lon="-5.028328">
        <ele>973.41</ele>
        <time>2019-01-17T07:58:08Z</time>
      </trkpt>
      <trkpt lat="36.757188" lon="-5.028055">
        <ele>983.22</ele>
        <time>2019-01-17T07:58:24Z</time>
      </trkpt>
      <trkpt lat="36.757887" lon="-5.025247">
        <ele>926.81</ele>
        <time>2019-01-17T08:02:50Z</time>
      </trkpt>
      <trkpt lat="36.758588" lon="-5.024164">
        <ele>922.88</ele>
        <time>2019-01-17T08:05:01Z</time>
      </trkpt>
      <trkpt lat="36.758854" lon="-5.023463">
        <ele>924.22</ele>
        <time>2019-01-17T08:05:27Z</time>
      </trkpt>
      <trkpt lat="36.758943" lon="-5.022713">
        <ele>915.43</ele>
        <time>2019-01-17T08:05:51Z</time>
      </trkpt>
      <trkpt lat="36.76046" lon="-5.019467">
        <ele>933.22</ele>
        <time>2019-01-17T08:08:59Z</time>
      </trkpt>
      <trkpt lat="36.761249" lon="-5.017427">
        <ele>895.62</ele>
        <time>2019-01-17T08:10:09Z</time>
      </trkpt>
      <trkpt lat="36.761598" lon="-5.017144">
        <ele>900.02</ele>
        <time>2019-01-17T08:10:42Z</time>
      </trkpt>
      <trkpt lat="36.761108" lon="-5.016209">
        <ele>858.22</ele>
        <time>2019-01-17T08:20:18Z</time>
      </trkpt>
      <trkpt lat="36.761244" lon="-5.015476">
        <ele>844.84</ele>
        <time>2019-01-17T08:21:19Z</time>
      </trkpt>
      <trkpt lat="36.761205" lon="-5.014431">
        <ele>819.85</ele>
        <time>2019-01-17T08:21:57Z</time>
      </trkpt>
      <trkpt lat="36.761614" lon="-5.013968">
        <ele>817.81</ele>
        <time>2019-01-17T08:23:30Z</time>
      </trkpt>
      <trkpt lat="36.761843" lon="-5.01318">
        <ele>804.02</ele>
        <time>2019-01-17T08:25:02Z</time>
      </trkpt>
      <trkpt lat="36.761521" lon="-5.012513">
        <ele>784.04</ele>
        <time>2019-01-17T08:25:21Z</time>
      </trkpt>
      <trkpt lat="36.760974" lon="-5.012464">
        <ele>772.02</ele>
        <time>2019-01-17T08:25:43Z</time>
      </trkpt>
      <trkpt lat="36.759856" lon="-5.013284">
        <ele>760.07</ele>
        <time>2019-01-17T08:26:38Z</time>
      </trkpt>
      <trkpt lat="36.759614" lon="-5.01273">
        <ele>748.67</ele>
        <time>2019-01-17T08:26:56Z</time>
      </trkpt>
      <trkpt lat="36.759456" lon="-5.012675">
        <ele>745.24</ele>
        <time>2019-01-17T08:27:01Z</time>
      </trkpt>
      <trkpt lat="36.759364" lon="-5.012061">
        <ele>734.01</ele>
        <time>2019-01-17T08:27:15Z</time>
      </trkpt>
      <trkpt lat="36.759521" lon="-5.011195">
        <ele>728.21</ele>
        <time>2019-01-17T08:27:31Z</time>
      </trkpt>
      <trkpt lat="36.760042" lon="-5.010616">
        <ele>727.46</ele>
        <time>2019-01-17T08:27:51Z</time>
      </trkpt>
      <trkpt lat="36.761063" lon="-5.009093">
        <ele>713.82</ele>
        <time>2019-01-17T08:28:38Z</time>
      </trkpt>
      <trkpt lat="36.761331" lon="-5.008092">
        <ele>700.67</ele>
        <time>2019-01-17T08:28:56Z</time>
      </trkpt>
      <trkpt lat="36.761024" lon="-5.006479">
        <ele>682.45</ele>
        <time>2019-01-17T08:29:29Z</time>
      </trkpt>
      <trkpt lat="36.761105" lon="-5.006184">
        <ele>680.01</ele>
        <time>2019-01-17T08:29:37Z</time>
      </trkpt>
      <trkpt lat="36.761453" lon="-5.006069">
        <ele>680.41</ele>
        <time>2019-01-17T08:29:55Z</time>
      </trkpt>
      <trkpt lat="36.760458" lon="-5.006158">
        <ele>680.87</ele>
        <time>2019-01-17T08:32:57Z</time>
      </trkpt>
      <trkpt lat="36.761158" lon="-5.005518">
        <ele>678.02</ele>
        <time>2019-01-17T08:35:01Z</time>
      </trkpt>
      <trkpt lat="36.761145" lon="-5.004364">
        <ele>704.65</ele>
        <time>2019-01-17T08:37:31Z</time>
      </trkpt>
      <trkpt lat="36.761476" lon="-5.004462">
        <ele>699.06</ele>
        <time>2019-01-17T08:39:52Z</time>
      </trkpt>
      <trkpt lat="36.76154" lon="-5.00414">
        <ele>710.67</ele>
        <time>2019-01-17T08:41:08Z</time>
      </trkpt>
      <trkpt lat="36.762" lon="-5.004056">
        <ele>702.69</ele>
        <time>2019-01-17T08:41:54Z</time>
      </trkpt>
      <trkpt lat="36.762456" lon="-5.002928">
        <ele>722.47</ele>
        <time>2019-01-17T08:42:11Z</time>
      </trkpt>
      <trkpt lat="36.763084" lon="-5.003884">
        <ele>720.69</ele>
        <time>2019-01-17T08:42:43Z</time>
      </trkpt>
      <trkpt lat="36.763471" lon="-5.005079">
        <ele>701.84</ele>
        <time>2019-01-17T08:42:59Z</time>
      </trkpt>
      <trkpt lat="36.763875" lon="-5.00575">
        <ele>695.23</ele>
        <time>2019-01-17T08:43:09Z</time>
      </trkpt>
      <trkpt lat="36.764183" lon="-5.005942">
        <ele>685.61</ele>
        <time>2019-01-17T08:43:19Z</time>
      </trkpt>
      <trkpt lat="36.764502" lon="-5.004956">
        <ele>697.46</ele>
        <time>2019-01-17T08:43:32Z</time>
      </trkpt>
      <trkpt lat="36.764788" lon="-5.004554">
        <ele>695.44</ele>
        <time>2019-01-17T08:43:37Z</time>
      </trkpt>
      <trkpt lat="36.765286" lon="-5.004358">
        <ele>687.03</ele>
        <time>2019-01-17T08:43:44Z</time>
      </trkpt>
      <trkpt lat="36.765743" lon="-5.004587">
        <ele>670.66</ele>
        <time>2019-01-17T08:43:53Z</time>
      </trkpt>
      <trkpt lat="36.766056" lon="-5.004188">
        <ele>671.48</ele>
        <time>2019-01-17T08:44:01Z</time>
      </trkpt>
      <trkpt lat="36.766357" lon="-5.001475">
        <ele>679.01</ele>
        <time>2019-01-17T08:44:26Z</time>
      </trkpt>
      <trkpt lat="36.767792" lon="-5.000156">
        <ele>677.81</ele>
        <time>2019-01-17T08:44:49Z</time>
      </trkpt>
      <trkpt lat="36.76875" lon="-4.99977">
        <ele>665.02</ele>
        <time>2019-01-17T08:45:15Z</time>
      </trkpt>
      <trkpt lat="36.769076" lon="-4.998551">
        <ele>689.66</ele>
        <time>2019-01-17T08:45:37Z</time>
      </trkpt>
      <trkpt lat="36.769596" lon="-4.998159">
        <ele>698.68</ele>
        <time>2019-01-17T08:45:46Z</time>
      </trkpt>
      <trkpt lat="36.771565" lon="-4.997847">
        <ele>676.46</ele>
        <time>2019-01-17T08:47:14Z</time>
      </trkpt>
      <trkpt lat="36.772084" lon="-4.9973">
        <ele>665.28</ele>
        <time>2019-01-17T08:47:47Z</time>
      </trkpt>
      <trkpt lat="36.772215" lon="-4.995781">
        <ele>682.23</ele>
        <time>2019-01-17T08:49:04Z</time>
      </trkpt>
      <trkpt lat="36.773113" lon="-4.994372">
        <ele>657.63</ele>
        <time>2019-01-17T08:49:29Z</time>
      </trkpt>
      <trkpt lat="36.772847" lon="-4.994024">
        <ele>659.82</ele>
        <time>2019-01-17T08:49:37Z</time>
      </trkpt>
      <trkpt lat="36.772367" lon="-4.993583">
        <ele>668.03</ele>
        <time>2019-01-17T08:49:52Z</time>
      </trkpt>
      <trkpt lat="36.772452" lon="-4.991949">
        <ele>661.66</ele>
        <time>2019-01-17T08:50:18Z</time>
      </trkpt>
      <trkpt lat="36.772767" lon="-4.990443">
        <ele>684.66</ele>
        <time>2019-01-17T08:50:39Z</time>
      </trkpt>
      <trkpt lat="36.773373" lon="-4.990086">
        <ele>674.66</ele>
        <time>2019-01-17T08:51:09Z</time>
      </trkpt>
      <trkpt lat="36.773901" lon="-4.98934">
        <ele>671.41</ele>
        <time>2019-01-17T08:51:45Z</time>
      </trkpt>
      <trkpt lat="36.774767" lon="-4.986863">
        <ele>672.69</ele>
        <time>2019-01-17T08:53:05Z</time>
      </trkpt>
      <trkpt lat="36.775065" lon="-4.986424">
        <ele>662.09</ele>
        <time>2019-01-17T08:53:23Z</time>
      </trkpt>
      <trkpt lat="36.774654" lon="-4.985141">
        <ele>677.29</ele>
        <time>2019-01-17T08:53:44Z</time>
      </trkpt>
      <trkpt lat="36.773881" lon="-4.984219">
        <ele>692.29</ele>
        <time>2019-01-17T08:54:00Z</time>
      </trkpt>
      <trkpt lat="36.774796" lon="-4.984082">
        <ele>696.84</ele>
        <time>2019-01-17T08:54:32Z</time>
      </trkpt>
      <trkpt lat="36.775899" lon="-4.984612">
        <ele>686.61</ele>
        <time>2019-01-17T08:55:40Z</time>
      </trkpt>
      <trkpt lat="36.776785" lon="-4.984008">
        <ele>656.61</ele>
        <time>2019-01-17T08:56:26Z</time>
      </trkpt>
      <trkpt lat="36.776052" lon="-4.983035">
        <ele>683.63</ele>
        <time>2019-01-17T08:56:41Z</time>
      </trkpt>
      <trkpt lat="36.775724" lon="-4.982349">
        <ele>695.23</ele>
        <time>2019-01-17T08:56:50Z</time>
      </trkpt>
      <trkpt lat="36.776626" lon="-4.982462">
        <ele>675.83</ele>
        <time>2019-01-17T08:57:06Z</time>
      </trkpt>
      <trkpt lat="36.777823" lon="-4.980877">
        <ele>639.01</ele>
        <time>2019-01-17T08:57:29Z</time>
      </trkpt>
      <trkpt lat="36.777582" lon="-4.980401">
        <ele>634.01</ele>
        <time>2019-01-17T08:57:35Z</time>
      </trkpt>
      <trkpt lat="36.777046" lon="-4.980109">
        <ele>646.66</ele>
        <time>2019-01-17T08:57:43Z</time>
      </trkpt>
      <trkpt lat="36.776624" lon="-4.977982">
        <ele>657.01</ele>
        <time>2019-01-17T08:58:11Z</time>
      </trkpt>
      <trkpt lat="36.777539" lon="-4.978253">
        <ele>634.09</ele>
        <time>2019-01-17T08:58:27Z</time>
      </trkpt>
      <trkpt lat="36.778327" lon="-4.977119">
        <ele>640.01</ele>
        <time>2019-01-17T08:58:42Z</time>
      </trkpt>
      <trkpt lat="36.77858" lon="-4.976965">
        <ele>639.62</ele>
        <time>2019-01-17T08:58:46Z</time>
      </trkpt>
      <trkpt lat="36.779699" lon="-4.977334">
        <ele>604.48</ele>
        <time>2019-01-17T08:59:04Z</time>
      </trkpt>
      <trkpt lat="36.780004" lon="-4.977311">
        <ele>600.27</ele>
        <time>2019-01-17T08:59:08Z</time>
      </trkpt>
      <trkpt lat="36.780127" lon="-4.977113">
        <ele>596.64</ele>
        <time>2019-01-17T08:59:11Z</time>
      </trkpt>
      <trkpt lat="36.779951" lon="-4.976345">
        <ele>594.28</ele>
        <time>2019-01-17T08:59:18Z</time>
      </trkpt>
      <trkpt lat="36.779716" lon="-4.975545">
        <ele>614.03</ele>
        <time>2019-01-17T08:59:26Z</time>
      </trkpt>
      <trkpt lat="36.78031" lon="-4.974735">
        <ele>626.07</ele>
        <time>2019-01-17T08:59:36Z</time>
      </trkpt>
      <trkpt lat="36.780682" lon="-4.974608">
        <ele>620.69</ele>
        <time>2019-01-17T08:59:40Z</time>
      </trkpt>
      <trkpt lat="36.781665" lon="-4.974775">
        <ele>590.81</ele>
        <time>2019-01-17T08:59:53Z</time>
      </trkpt>
      <trkpt lat="36.781826" lon="-4.974134">
        <ele>591.84</ele>
        <time>2019-01-17T09:00:00Z</time>
      </trkpt>
      <trkpt lat="36.781824" lon="-4.972804">
        <ele>611.02</ele>
        <time>2019-01-17T09:00:11Z</time>
      </trkpt>
      <trkpt lat="36.782131" lon="-4.972406">
        <ele>617.06</ele>
        <time>2019-01-17T09:00:16Z</time>
      </trkpt>
      <trkpt lat="36.783715" lon="-4.971555">
        <ele>614.21</ele>
        <time>2019-01-17T09:01:44Z</time>
      </trkpt>
      <trkpt lat="36.784824" lon="-4.97172">
        <ele>587.22</ele>
        <time>2019-01-17T09:02:24Z</time>
      </trkpt>
      <trkpt lat="36.785256" lon="-4.971202">
        <ele>583.25</ele>
        <time>2019-01-17T09:02:33Z</time>
      </trkpt>
      <trkpt lat="36.784986" lon="-4.969543">
        <ele>570.86</ele>
        <time>2019-01-17T09:02:52Z</time>
      </trkpt>
      <trkpt lat="36.784405" lon="-4.969402">
        <ele>577.85</ele>
        <time>2019-01-17T09:03:01Z</time>
      </trkpt>
      <trkpt lat="36.784139" lon="-4.968848">
        <ele>575.46</ele>
        <time>2019-01-17T09:03:07Z</time>
      </trkpt>
      <trkpt lat="36.784297" lon="-4.967677">
        <ele>574.28</ele>
        <time>2019-01-17T09:03:20Z</time>
      </trkpt>
      <trkpt lat="36.784079" lon="-4.966547">
        <ele>572.1</ele>
        <time>2019-01-17T09:03:41Z</time>
      </trkpt>
      <trkpt lat="36.784742" lon="-4.963798">
        <ele>571.5</ele>
        <time>2019-01-17T09:04:35Z</time>
      </trkpt>
      <trkpt lat="36.784758" lon="-4.962411">
        <ele>571.01</ele>
        <time>2019-01-17T09:05:11Z</time>
      </trkpt>
      <trkpt lat="36.785059" lon="-4.961699">
        <ele>564.65</ele>
        <time>2019-01-17T09:05:29Z</time>
      </trkpt>
      <trkpt lat="36.784879" lon="-4.959933">
        <ele>577.22</ele>
        <time>2019-01-17T09:05:51Z</time>
      </trkpt>
      <trkpt lat="36.785164" lon="-4.959638">
        <ele>582.65</ele>
        <time>2019-01-17T09:05:57Z</time>
      </trkpt>
      <trkpt lat="36.786543" lon="-4.959702">
        <ele>563.29</ele>
        <time>2019-01-17T09:06:35Z</time>
      </trkpt>
      <trkpt lat="36.786742" lon="-4.95955">
        <ele>562.26</ele>
        <time>2019-01-17T09:06:41Z</time>
      </trkpt>
      <trkpt lat="36.78709" lon="-4.957715">
        <ele>558.3</ele>
        <time>2019-01-17T09:07:13Z</time>
      </trkpt>
      <trkpt lat="36.787948" lon="-4.955078">
        <ele>558.45</ele>
        <time>2019-01-17T09:08:26Z</time>
      </trkpt>
      <trkpt lat="36.787931" lon="-4.952704">
        <ele>555.49</ele>
        <time>2019-01-17T09:08:57Z</time>
      </trkpt>
      <trkpt lat="36.787461" lon="-4.9516">
        <ele>553.24</ele>
        <time>2019-01-17T09:09:13Z</time>
      </trkpt>
      <trkpt lat="36.787532" lon="-4.951066">
        <ele>553.45</ele>
        <time>2019-01-17T09:09:24Z</time>
      </trkpt>
      <trkpt lat="36.788011" lon="-4.950302">
        <ele>552.49</ele>
        <time>2019-01-17T09:09:40Z</time>
      </trkpt>
      <trkpt lat="36.788413" lon="-4.950274">
        <ele>549.87</ele>
        <time>2019-01-17T09:09:59Z</time>
      </trkpt>
      <trkpt lat="36.788752" lon="-4.949501">
        <ele>553.22</ele>
        <time>2019-01-17T09:10:24Z</time>
      </trkpt>
      <trkpt lat="36.790225" lon="-4.949953">
        <ele>557.61</ele>
        <time>2019-01-17T09:11:30Z</time>
      </trkpt>
      <trkpt lat="36.790609" lon="-4.949704">
        <ele>558.63</ele>
        <time>2019-01-17T09:11:48Z</time>
      </trkpt>
      <trkpt lat="36.789904" lon="-4.947901">
        <ele>566.52</ele>
        <time>2019-01-17T10:04:59Z</time>
      </trkpt>
      <trkpt lat="36.789712" lon="-4.947058">
        <ele>576.54</ele>
        <time>2019-01-17T10:05:27.07Z</time>
      </trkpt>
      <trkpt lat="36.789103" lon="-4.945804">
        <ele>579.94</ele>
        <time>2019-01-17T10:06:14.05Z</time>
      </trkpt>
      <trkpt lat="36.789648" lon="-4.944198">
        <ele>569.92</ele>
        <time>2019-01-17T10:07:09.93Z</time>
      </trkpt>
      <trkpt lat="36.790101" lon="-4.944176">
        <ele>565.69</ele>
        <time>2019-01-17T10:07:28.06Z</time>
      </trkpt>
      <trkpt lat="36.7909" lon="-4.94453">
        <ele>554.03</ele>
        <time>2019-01-17T10:08:01.97Z</time>
      </trkpt>
      <trkpt lat="36.792748" lon="-4.94374">
        <ele>539.52</ele>
        <time>2019-01-17T10:09:20.10Z</time>
      </trkpt>
      <trkpt lat="36.793391" lon="-4.942947">
        <ele>538.47</ele>
        <time>2019-01-17T10:09:56.25Z</time>
      </trkpt>
      <trkpt lat="36.79463" lon="-4.94252">
        <ele>539.51</ele>
        <time>2019-01-17T10:10:47.67Z</time>
      </trkpt>
      <trkpt lat="36.795308" lon="-4.941502">
        <ele>544.04</ele>
        <time>2019-01-17T10:11:30.08Z</time>
      </trkpt>
      <trkpt lat="36.79557" lon="-4.93966">
        <ele>535.63</ele>
        <time>2019-01-17T10:12:30.29Z</time>
      </trkpt>
      <trkpt lat="36.796057" lon="-4.938786">
        <ele>533.2</ele>
        <time>2019-01-17T10:13:04.40Z</time>
      </trkpt>
      <trkpt lat="36.796667" lon="-4.938374">
        <ele>530.44</ele>
        <time>2019-01-17T10:13:32.14Z</time>
      </trkpt>
      <trkpt lat="36.797606" lon="-4.938841">
        <ele>530.76</ele>
        <time>2019-01-17T10:14:12.57Z</time>
      </trkpt>
      <trkpt lat="36.7983" lon="-4.938721">
        <ele>531.14</ele>
        <time>2019-01-17T10:14:40.59Z</time>
      </trkpt>
      <trkpt lat="36.799733" lon="-4.939281">
        <ele>540.3</ele>
        <time>2019-01-17T10:15:40.66Z</time>
      </trkpt>
      <trkpt lat="36.801724" lon="-4.939521">
        <ele>543.99</ele>
        <time>2019-01-17T10:17:00.67Z</time>
      </trkpt>
      <trkpt lat="36.804026" lon="-4.940697">
        <ele>549.78</ele>
        <time>2019-01-17T10:18:40.15Z</time>
      </trkpt>
      <trkpt lat="36.805357" lon="-4.940578">
        <ele>553.67</ele>
        <time>2019-01-17T10:19:33.99Z</time>
      </trkpt>
      <trkpt lat="36.80732" lon="-4.94145">
        <ele>560.11</ele>
        <time>2019-01-17T10:20:57.71Z</time>
      </trkpt>
      <trkpt lat="36.809317" lon="-4.941785">
        <ele>560.7</ele>
        <time>2019-01-17T10:22:18.55Z</time>
      </trkpt>
      <trkpt lat="36.812391" lon="-4.942176">
        <ele>572.84</ele>
        <time>2019-01-17T10:24:22.15Z</time>
      </trkpt>
      <trkpt lat="36.813256" lon="-4.942063">
        <ele>578.83</ele>
        <time>2019-01-17T10:24:56.93Z</time>
      </trkpt>
      <trkpt lat="36.814814" lon="-4.942191">
        <ele>583.96</ele>
        <time>2019-01-17T10:25:59.39Z</time>
      </trkpt>
      <trkpt lat="36.815494" lon="-4.942592">
        <ele>589.52</ele>
        <time>2019-01-17T10:26:29.47Z</time>
      </trkpt>
      <trkpt lat="36.816146" lon="-4.942638">
        <ele>589.5</ele>
        <time>2019-01-17T10:26:55.59Z</time>
      </trkpt>
      <trkpt lat="36.816915" lon="-4.943264">
        <ele>596.94</ele>
        <time>2019-01-17T10:27:32.30Z</time>
      </trkpt>
      <trkpt lat="36.818018" lon="-4.942991">
        <ele>595.37</ele>
        <time>2019-01-17T10:28:17.61Z</time>
      </trkpt>
      <trkpt lat="36.819216" lon="-4.942423">
        <ele>604.12</ele>
        <time>2019-01-17T10:29:09.26Z</time>
      </trkpt>
      <trkpt lat="36.820037" lon="-4.941789">
        <ele>608.35</ele>
        <time>2019-01-17T10:29:47.87Z</time>
      </trkpt>
      <trkpt lat="36.820446" lon="-4.941133">
        <ele>609.68</ele>
        <time>2019-01-17T10:30:14.49Z</time>
      </trkpt>
      <trkpt lat="36.820919" lon="-4.940878">
        <ele>609.68</ele>
        <time>2019-01-17T10:30:35.10Z</time>
      </trkpt>
      <trkpt lat="36.821931" lon="-4.941092">
        <ele>617.74</ele>
        <time>2019-01-17T10:31:16.16Z</time>
      </trkpt>
      <trkpt lat="36.822177" lon="-4.940898">
        <ele>621.22</ele>
        <time>2019-01-17T10:31:27.79Z</time>
      </trkpt>
      <trkpt lat="36.822476" lon="-4.940236">
        <ele>626.14</ele>
        <time>2019-01-17T10:31:52.13Z</time>
      </trkpt>
      <trkpt lat="36.822732" lon="-4.940048">
        <ele>628.15</ele>
        <time>2019-01-17T10:32:04.01Z</time>
      </trkpt>
      <trkpt lat="36.823869" lon="-4.939998">
        <ele>635.76</ele>
        <time>2019-01-17T10:32:49.52Z</time>
      </trkpt>
      <trkpt lat="36.824767" lon="-4.940328">
        <ele>640.62</ele>
        <time>2019-01-17T10:33:27.52Z</time>
      </trkpt>
      <trkpt lat="36.824897" lon="-4.939771">
        <ele>643.45</ele>
        <time>2019-01-17T10:33:46.09Z</time>
      </trkpt>
      <trkpt lat="36.82503" lon="-4.939802">
        <ele>645.73</ele>
        <time>2019-01-17T10:33:51.51Z</time>
      </trkpt>
      <trkpt lat="36.825137" lon="-4.940264">
        <ele>646.07</ele>
        <time>2019-01-17T10:34:06.91Z</time>
      </trkpt>
      <trkpt lat="36.82558" lon="-4.940173">
        <ele>654.61</ele>
        <time>2019-01-17T10:34:25.23Z</time>
      </trkpt>
      <trkpt lat="36.826064" lon="-4.940513">
        <ele>658.76</ele>
        <time>2019-01-17T10:34:47.44Z</time>
      </trkpt>
      <trkpt lat="36.826436" lon="-4.94043">
        <ele>666.11</ele>
        <time>2019-01-17T10:35:02.55Z</time>
      </trkpt>
      <trkpt lat="36.828144" lon="-4.940852">
        <ele>681.37</ele>
        <time>2019-01-17T10:36:12.62Z</time>
      </trkpt>
      <trkpt lat="36.830383" lon="-4.940256">
        <ele>695.79</ele>
        <time>2019-01-17T10:37:44.57Z</time>
      </trkpt>
      <trkpt lat="36.831502" lon="-4.940567">
        <ele>712.71</ele>
        <time>2019-01-17T10:38:30.42Z</time>
      </trkpt>
      <trkpt lat="36.832829" lon="-4.940294">
        <ele>726.63</ele>
        <time>2019-01-17T10:39:24.22Z</time>
      </trkpt>
      <trkpt lat="36.833647" lon="-4.941694">
        <ele>708.3</ele>
        <time>2019-01-17T10:40:19.71Z</time>
      </trkpt>
      <trkpt lat="36.83456" lon="-4.94265">
        <ele>696.98</ele>
        <time>2019-01-17T10:41:07.57Z</time>
      </trkpt>
      <trkpt lat="36.835113" lon="-4.94289">
        <ele>695.57</ele>
        <time>2019-01-17T10:41:30.98Z</time>
      </trkpt>
      <trkpt lat="36.835497" lon="-4.942594">
        <ele>693.54</ele>
        <time>2019-01-17T10:41:49.03Z</time>
      </trkpt>
      <trkpt lat="36.837519" lon="-4.942232">
        <ele>707.14</ele>
        <time>2019-01-17T10:43:10.74Z</time>
      </trkpt>
      <trkpt lat="36.837866" lon="-4.942382">
        <ele>709.33</ele>
        <time>2019-01-17T10:43:25.42Z</time>
      </trkpt>
      <trkpt lat="36.839754" lon="-4.94194">
        <ele>723.97</ele>
        <time>2019-01-17T10:44:42.40Z</time>
      </trkpt>
      <trkpt lat="36.840904" lon="-4.942275">
        <ele>724.9</ele>
        <time>2019-01-17T10:45:30.06Z</time>
      </trkpt>
      <trkpt lat="36.842007" lon="-4.943152">
        <ele>733.32</ele>
        <time>2019-01-17T10:46:22.40Z</time>
      </trkpt>
      <trkpt lat="36.842832" lon="-4.943602">
        <ele>747.74</ele>
        <time>2019-01-17T10:46:58.40Z</time>
      </trkpt>
      <trkpt lat="36.843789" lon="-4.943353">
        <ele>750.03</ele>
        <time>2019-01-17T10:47:37.51Z</time>
      </trkpt>
      <trkpt lat="36.84392" lon="-4.94346">
        <ele>749.98</ele>
        <time>2019-01-17T10:47:43.77Z</time>
      </trkpt>
      <trkpt lat="36.843829" lon="-4.944713">
        <ele>763.39</ele>
        <time>2019-01-17T10:48:24.04Z</time>
      </trkpt>
      <trkpt lat="36.843997" lon="-4.944872">
        <ele>762.96</ele>
        <time>2019-01-17T10:48:32.47Z</time>
      </trkpt>
      <trkpt lat="36.844809" lon="-4.944903">
        <ele>755.06</ele>
        <time>2019-01-17T10:49:05.36Z</time>
      </trkpt>
      <trkpt lat="36.845064" lon="-4.944747">
        <ele>753.08</ele>
        <time>2019-01-17T10:49:16.72Z</time>
      </trkpt>
      <trkpt lat="36.845397" lon="-4.944189">
        <ele>747.04</ele>
        <time>2019-01-17T10:49:39Z</time>
      </trkpt>
      <trkpt lat="36.846268" lon="-4.943458">
        <ele>746.07</ele>
        <time>2019-01-17T10:50:20.97Z</time>
      </trkpt>
      <trkpt lat="36.846763" lon="-4.9434">
        <ele>753.82</ele>
        <time>2019-01-17T10:50:40.86Z</time>
      </trkpt>
      <trkpt lat="36.846971" lon="-4.943078">
        <ele>752.72</ele>
        <time>2019-01-17T10:50:54.10Z</time>
      </trkpt>
      <trkpt lat="36.846967" lon="-4.942457">
        <ele>749.91</ele>
        <time>2019-01-17T10:51:13.98Z</time>
      </trkpt>
      <trkpt lat="36.847239" lon="-4.942503">
        <ele>751.1</ele>
        <time>2019-01-17T10:51:24.96Z</time>
      </trkpt>
      <trkpt lat="36.848124" lon="-4.943382">
        <ele>756.63</ele>
        <time>2019-01-17T10:52:10.18Z</time>
      </trkpt>
      <trkpt lat="36.848307" lon="-4.94389">
        <ele>754.76</ele>
        <time>2019-01-17T10:52:28.01Z</time>
      </trkpt>
      <trkpt lat="36.848346" lon="-4.9446">
        <ele>757.64</ele>
        <time>2019-01-17T10:52:50.79Z</time>
      </trkpt>
      <trkpt lat="36.8494" lon="-4.945067">
        <ele>768.93</ele>
        <time>2019-01-17T10:53:35.71Z</time>
      </trkpt>
      <trkpt lat="36.849883" lon="-4.945114">
        <ele>768.52</ele>
        <time>2019-01-17T10:53:56.22Z</time>
      </trkpt>
      <trkpt lat="36.850154" lon="-4.946183">
        <ele>773.93</ele>
        <time>2019-01-17T10:54:32.11Z</time>
      </trkpt>
      <trkpt lat="36.850901" lon="-4.946087">
        <ele>773.5</ele>
        <time>2019-01-17T10:55:03.50Z</time>
      </trkpt>
      <trkpt lat="36.851919" lon="-4.945357">
        <ele>766.48</ele>
        <time>2019-01-17T10:55:50.68Z</time>
      </trkpt>
      <trkpt lat="36.852087" lon="-4.945428">
        <ele>767.99</ele>
        <time>2019-01-17T10:55:57.77Z</time>
      </trkpt>
      <trkpt lat="36.852336" lon="-4.947473">
        <ele>785.95</ele>
        <time>2019-01-17T10:57:04.31Z</time>
      </trkpt>
      <trkpt lat="36.852494" lon="-4.947574">
        <ele>786.9</ele>
        <time>2019-01-17T10:57:11.41Z</time>
      </trkpt>
      <trkpt lat="36.85377" lon="-4.94642">
        <ele>778.91</ele>
        <time>2019-01-17T10:58:14.76Z</time>
      </trkpt>
      <trkpt lat="36.85406" lon="-4.946077">
        <ele>781.74</ele>
        <time>2019-01-17T10:58:32.45Z</time>
      </trkpt>
      <trkpt lat="36.85424" lon="-4.946349">
        <ele>781.11</ele>
        <time>2019-01-17T10:58:43.75Z</time>
      </trkpt>
      <trkpt lat="36.854418" lon="-4.94753">
        <ele>772.41</ele>
        <time>2019-01-17T10:59:22.21Z</time>
      </trkpt>
      <trkpt lat="36.855097" lon="-4.947649">
        <ele>768.72</ele>
        <time>2019-01-17T10:59:50.43Z</time>
      </trkpt>
      <trkpt lat="36.855479" lon="-4.947283">
        <ele>765.16</ele>
        <time>2019-01-17T11:00:09.68Z</time>
      </trkpt>
      <trkpt lat="36.856222" lon="-4.946071">
        <ele>769.99</ele>
        <time>2019-01-17T11:00:58.55Z</time>
      </trkpt>
      <trkpt lat="36.856541" lon="-4.945929">
        <ele>775.37</ele>
        <time>2019-01-17T11:01:12.09Z</time>
      </trkpt>
      <trkpt lat="36.856813" lon="-4.945057">
        <ele>764.79</ele>
        <time>2019-01-17T11:01:42.52Z</time>
      </trkpt>
      <trkpt lat="36.857056" lon="-4.944812">
        <ele>766.98</ele>
        <time>2019-01-17T11:01:55.01Z</time>
      </trkpt>
      <trkpt lat="36.857313" lon="-4.944836">
        <ele>767.44</ele>
        <time>2019-01-17T11:02:05.32Z</time>
      </trkpt>
      <trkpt lat="36.858383" lon="-4.946144">
        <ele>763.56</ele>
        <time>2019-01-17T11:03:05.37Z</time>
      </trkpt>
      <trkpt lat="36.859014" lon="-4.945815">
        <ele>761.02</ele>
        <time>2019-01-17T11:03:33.59Z</time>
      </trkpt>
      <trkpt lat="36.859466" lon="-4.945113">
        <ele>763.58</ele>
        <time>2019-01-17T11:04:02.43Z</time>
      </trkpt>
      <trkpt lat="36.860509" lon="-4.944285">
        <ele>761.34</ele>
        <time>2019-01-17T11:04:52.14Z</time>
      </trkpt>
      <trkpt lat="36.861033" lon="-4.9434">
        <ele>764.69</ele>
        <time>2019-01-17T11:05:27.37Z</time>
      </trkpt>
      <trkpt lat="36.861036" lon="-4.94239">
        <ele>771.09</ele>
        <time>2019-01-17T11:06:00.41Z</time>
      </trkpt>
      <trkpt lat="36.860542" lon="-4.94225">
        <ele>767.4</ele>
        <time>2019-01-17T11:06:20.67Z</time>
      </trkpt>
      <trkpt lat="36.860344" lon="-4.94199">
        <ele>767.46</ele>
        <time>2019-01-17T11:06:32.16Z</time>
      </trkpt>
      <trkpt lat="36.860363" lon="-4.941611">
        <ele>768.78</ele>
        <time>2019-01-17T11:06:44.31Z</time>
      </trkpt>
      <trkpt lat="36.861674" lon="-4.941206">
        <ele>764.97</ele>
        <time>2019-01-17T11:07:39.70Z</time>
      </trkpt>
      <trkpt lat="36.862667" lon="-4.941322">
        <ele>754.22</ele>
        <time>2019-01-17T11:08:20.22Z</time>
      </trkpt>
      <trkpt lat="36.863293" lon="-4.940854">
        <ele>752.58</ele>
        <time>2019-01-17T11:08:49.40Z</time>
      </trkpt>
      <trkpt lat="36.863433" lon="-4.940503">
        <ele>755.86</ele>
        <time>2019-01-17T11:09:01.95Z</time>
      </trkpt>
      <trkpt lat="36.863569" lon="-4.938748">
        <ele>769.43</ele>
        <time>2019-01-17T11:09:58.55Z</time>
      </trkpt>
      <trkpt lat="36.863783" lon="-4.938495">
        <ele>773.29</ele>
        <time>2019-01-17T11:10:10.34Z</time>
      </trkpt>
      <trkpt lat="36.864702" lon="-4.93808">
        <ele>780.85</ele>
        <time>2019-01-17T11:10:49.82Z</time>
      </trkpt>
      <trkpt lat="36.865713" lon="-4.938038">
        <ele>786.07</ele>
        <time>2019-01-17T11:11:30.28Z</time>
      </trkpt>
      <trkpt lat="36.867634" lon="-4.936938">
        <ele>802.49</ele>
        <time>2019-01-17T11:12:55.13Z</time>
      </trkpt>
      <trkpt lat="36.868866" lon="-4.936618">
        <ele>799.49</ele>
        <time>2019-01-17T11:13:45.68Z</time>
      </trkpt>
      <trkpt lat="36.869576" lon="-4.936">
        <ele>800.54</ele>
        <time>2019-01-17T11:14:20.29Z</time>
      </trkpt>
      <trkpt lat="36.870676" lon="-4.934344">
        <ele>806.24</ele>
        <time>2019-01-17T11:15:29.49Z</time>
      </trkpt>
      <trkpt lat="36.87107" lon="-4.933924">
        <ele>811.26</ele>
        <time>2019-01-17T11:15:50.41Z</time>
      </trkpt>
      <trkpt lat="36.871243" lon="-4.933316">
        <ele>808.22</ele>
        <time>2019-01-17T11:16:11.06Z</time>
      </trkpt>
      <trkpt lat="36.871966" lon="-4.932241">
        <ele>811.59</ele>
        <time>2019-01-17T11:16:56Z</time>
      </trkpt>
      <trkpt lat="36.871823" lon="-4.931599">
        <ele>809.76</ele>
        <time>2019-01-17T11:17:17.33Z</time>
      </trkpt>
      <trkpt lat="36.871894" lon="-4.93119">
        <ele>810.84</ele>
        <time>2019-01-17T11:17:30.72Z</time>
      </trkpt>
      <trkpt lat="36.8726" lon="-4.930025">
        <ele>802.86</ele>
        <time>2019-01-17T11:18:17.49Z</time>
      </trkpt>
      <trkpt lat="36.872567" lon="-4.929525">
        <ele>798.74</ele>
        <time>2019-01-17T11:18:33.54Z</time>
      </trkpt>
      <trkpt lat="36.872793" lon="-4.928699">
        <ele>798.79</ele>
        <time>2019-01-17T11:19:01.84Z</time>
      </trkpt>
      <trkpt lat="36.873237" lon="-4.927821">
        <ele>801.73</ele>
        <time>2019-01-17T11:19:35.08Z</time>
      </trkpt>
      <trkpt lat="36.873697" lon="-4.927287">
        <ele>799.86</ele>
        <time>2019-01-17T11:20:00.19Z</time>
      </trkpt>
      <trkpt lat="36.874067" lon="-4.927301">
        <ele>797.49</ele>
        <time>2019-01-17T11:20:15Z</time>
      </trkpt>
      <trkpt lat="36.874017" lon="-4.926939">
        <ele>791.52</ele>
        <time>2019-01-17T11:20:28.83Z</time>
      </trkpt>
      <trkpt lat="36.873591" lon="-4.926667">
        <ele>789.15</ele>
        <time>2019-01-17T11:20:47.96Z</time>
      </trkpt>
      <trkpt lat="36.8733" lon="-4.926182">
        <ele>786.53</ele>
        <time>2019-01-17T11:21:07.36Z</time>
      </trkpt>
      <trkpt lat="36.873233" lon="-4.925677">
        <ele>786.28</ele>
        <time>2019-01-17T11:21:23.74Z</time>
      </trkpt>
      <trkpt lat="36.872911" lon="-4.925514">
        <ele>790.33</ele>
        <time>2019-01-17T11:21:37.64Z</time>
      </trkpt>
      <trkpt lat="36.871898" lon="-4.924303">
        <ele>788.17</ele>
        <time>2019-01-17T11:22:33.71Z</time>
      </trkpt>
      <trkpt lat="36.871641" lon="-4.92355">
        <ele>785.39</ele>
        <time>2019-01-17T11:22:59.90Z</time>
      </trkpt>
      <trkpt lat="36.871649" lon="-4.923161">
        <ele>782.82</ele>
        <time>2019-01-17T11:23:12.35Z</time>
      </trkpt>
      <trkpt lat="36.871963" lon="-4.92264">
        <ele>786.84</ele>
        <time>2019-01-17T11:23:33.23Z</time>
      </trkpt>
      <trkpt lat="36.871994" lon="-4.921848">
        <ele>786.7</ele>
        <time>2019-01-17T11:23:59.28Z</time>
      </trkpt>
      <trkpt lat="36.8725" lon="-4.92193">
        <ele>790.64</ele>
        <time>2019-01-17T11:24:19.69Z</time>
      </trkpt>
      <trkpt lat="36.873666" lon="-4.921542">
        <ele>786.32</ele>
        <time>2019-01-17T11:25:08.83Z</time>
      </trkpt>
      <trkpt lat="36.87411" lon="-4.9211">
        <ele>778.55</ele>
        <time>2019-01-17T11:25:32.71Z</time>
      </trkpt>
      <trkpt lat="36.874377" lon="-4.921304">
        <ele>780.31</ele>
        <time>2019-01-17T11:25:45.23Z</time>
      </trkpt>
      <trkpt lat="36.875172" lon="-4.9212">
        <ele>769.9</ele>
        <time>2019-01-17T11:26:17.20Z</time>
      </trkpt>
      <trkpt lat="36.875789" lon="-4.920852">
        <ele>768.01</ele>
        <time>2019-01-17T11:26:44.28Z</time>
      </trkpt>
      <trkpt lat="36.876819" lon="-4.920791">
        <ele>765.44</ele>
        <time>2019-01-17T11:27:25.52Z</time>
      </trkpt>
      <trkpt lat="36.878248" lon="-4.919796">
        <ele>748.25</ele>
        <time>2019-01-17T11:28:30.95Z</time>
      </trkpt>
      <trkpt lat="36.878947" lon="-4.91975">
        <ele>735.67</ele>
        <time>2019-01-17T11:28:58.95Z</time>
      </trkpt>
      <trkpt lat="36.880534" lon="-4.918637">
        <ele>722.06</ele>
        <time>2019-01-17T11:30:11.95Z</time>
      </trkpt>
      <trkpt lat="36.881518" lon="-4.917321">
        <ele>723.01</ele>
        <time>2019-01-17T11:31:09.98Z</time>
      </trkpt>
      <trkpt lat="36.882527" lon="-4.91584">
        <ele>725.31</ele>
        <time>2019-01-17T11:32:12.23Z</time>
      </trkpt>
      <trkpt lat="36.882833" lon="-4.915084">
        <ele>727.11</ele>
        <time>2019-01-17T11:32:39.33Z</time>
      </trkpt>
      <trkpt lat="36.884534" lon="-4.912366">
        <ele>698.35</ele>
        <time>2019-01-17T11:34:30.16Z</time>
      </trkpt>
      <trkpt lat="36.884904" lon="-4.911562">
        <ele>692.35</ele>
        <time>2019-01-17T11:34:59.83Z</time>
      </trkpt>
      <trkpt lat="36.884854" lon="-4.910584">
        <ele>680.57</ele>
        <time>2019-01-17T11:35:31.50Z</time>
      </trkpt>
      <trkpt lat="36.885039" lon="-4.910143">
        <ele>671.87</ele>
        <time>2019-01-17T11:35:47.43Z</time>
      </trkpt>
      <trkpt lat="36.886" lon="-4.90943">
        <ele>677.63</ele>
        <time>2019-01-17T11:36:32.45Z</time>
      </trkpt>
      <trkpt lat="36.886332" lon="-4.908793">
        <ele>674.64</ele>
        <time>2019-01-17T11:36:56.78Z</time>
      </trkpt>
      <trkpt lat="36.886793" lon="-4.90674">
        <ele>650.67</ele>
        <time>2019-01-17T11:38:05.12Z</time>
      </trkpt>
      <trkpt lat="36.887149" lon="-4.906341">
        <ele>649.87</ele>
        <time>2019-01-17T11:38:24.24Z</time>
      </trkpt>
      <trkpt lat="36.888004" lon="-4.906412">
        <ele>639.15</ele>
        <time>2019-01-17T11:38:58.77Z</time>
      </trkpt>
      <trkpt lat="36.88869" lon="-4.904449">
        <ele>620.59</ele>
        <time>2019-01-17T11:40:07.72Z</time>
      </trkpt>
      <trkpt lat="36.889009" lon="-4.902846">
        <ele>612.06</ele>
        <time>2019-01-17T11:41:00.56Z</time>
      </trkpt>
      <trkpt lat="36.889329" lon="-4.90198">
        <ele>605.69</ele>
        <time>2019-01-17T11:41:31.08Z</time>
      </trkpt>
      <trkpt lat="36.889981" lon="-4.896588">
        <ele>608.39</ele>
        <time>2019-01-17T11:44:26.06Z</time>
      </trkpt>
      <trkpt lat="36.889973" lon="-4.895191">
        <ele>608.4</ele>
        <time>2019-01-17T11:45:10.90Z</time>
      </trkpt>
      <trkpt lat="36.88956" lon="-4.89207">
        <ele>601.36</ele>
        <time>2019-01-17T11:46:52.40Z</time>
      </trkpt>
      <trkpt lat="36.890163" lon="-4.889968">
        <ele>587.57</ele>
        <time>2019-01-17T11:48:04.30Z</time>
      </trkpt>
      <trkpt lat="36.890083" lon="-4.889143">
        <ele>578.87</ele>
        <time>2019-01-17T11:48:30.88Z</time>
      </trkpt>
      <trkpt lat="36.890546" lon="-4.886361">
        <ele>548.24</ele>
        <time>2019-01-17T11:50:01.88Z</time>
      </trkpt>
      <trkpt lat="36.89089" lon="-4.885647">
        <ele>538.46</ele>
        <time>2019-01-17T11:50:28.55Z</time>
      </trkpt>
      <trkpt lat="36.89051" lon="-4.883456">
        <ele>515.83</ele>
        <time>2019-01-17T11:51:40.27Z</time>
      </trkpt>
      <trkpt lat="36.89027" lon="-4.88327">
        <ele>511</ele>
        <time>2019-01-17T11:51:51.56Z</time>
      </trkpt>
      <trkpt lat="36.889824" lon="-4.883381">
        <ele>505.09</ele>
        <time>2019-01-17T11:52:10.81Z</time>
      </trkpt>
      <trkpt lat="36.889714" lon="-4.883095">
        <ele>501.19</ele>
        <time>2019-01-17T11:52:20.96Z</time>
      </trkpt>
      <trkpt lat="36.890276" lon="-4.882455">
        <ele>497.16</ele>
        <time>2019-01-17T11:52:51.82Z</time>
      </trkpt>
      <trkpt lat="36.889951" lon="-4.880707">
        <ele>476.84</ele>
        <time>2019-01-17T11:53:49.65Z</time>
      </trkpt>
      <trkpt lat="36.88954" lon="-4.879814">
        <ele>470.79</ele>
        <time>2019-01-17T11:54:22.61Z</time>
      </trkpt>
      <trkpt lat="36.889346" lon="-4.878772">
        <ele>470.66</ele>
        <time>2019-01-17T11:54:56.84Z</time>
      </trkpt>
      <trkpt lat="36.889337" lon="-4.876775">
        <ele>453.22</ele>
        <time>2019-01-17T11:56:01.02Z</time>
      </trkpt>
      <trkpt lat="36.889466" lon="-4.874686">
        <ele>442.82</ele>
        <time>2019-01-17T11:57:08.05Z</time>
      </trkpt>
      <trkpt lat="36.888716" lon="-4.873723">
        <ele>431.5</ele>
        <time>2019-01-17T11:57:51.05Z</time>
      </trkpt>
      <trkpt lat="36.888441" lon="-4.871372">
        <ele>420.59</ele>
        <time>2019-01-17T11:59:07.46Z</time>
      </trkpt>
      <trkpt lat="36.888304" lon="-4.87017">
        <ele>415.7</ele>
        <time>2019-01-17T11:59:46.31Z</time>
      </trkpt>
      <trkpt lat="36.888474" lon="-4.868585">
        <ele>399.32</ele>
        <time>2019-01-17T12:00:37.61Z</time>
      </trkpt>
      <trkpt lat="36.88826" lon="-4.868077">
        <ele>392.97</ele>
        <time>2019-01-17T12:00:55.98Z</time>
      </trkpt>
      <trkpt lat="36.888234" lon="-4.867575">
        <ele>391.9</ele>
        <time>2019-01-17T12:01:12.07Z</time>
      </trkpt>
      <trkpt lat="36.887696" lon="-4.866626">
        <ele>391.97</ele>
        <time>2019-01-17T12:01:49.29Z</time>
      </trkpt>
      <trkpt lat="36.887557" lon="-4.865688">
        <ele>391.87</ele>
        <time>2019-01-17T12:02:19.81Z</time>
      </trkpt>
      <trkpt lat="36.88723" lon="-4.865037">
        <ele>399.37</ele>
        <time>2019-01-17T12:02:44.40Z</time>
      </trkpt>
      <trkpt lat="36.886691" lon="-4.864443">
        <ele>401.1</ele>
        <time>2019-01-17T12:03:13.14Z</time>
      </trkpt>
      <trkpt lat="36.886411" lon="-4.863562">
        <ele>400.73</ele>
        <time>2019-01-17T12:03:43.47Z</time>
      </trkpt>
      <trkpt lat="36.886454" lon="-4.862782">
        <ele>394.48</ele>
        <time>2019-01-17T12:04:08.48Z</time>
      </trkpt>
      <trkpt lat="36.886133" lon="-4.862002">
        <ele>388.62</ele>
        <time>2019-01-17T12:04:36.55Z</time>
      </trkpt>
      <trkpt lat="36.885803" lon="-4.859032">
        <ele>371.27</ele>
        <time>2019-01-17T12:06:12.87Z</time>
      </trkpt>
      <trkpt lat="36.885116" lon="-4.856714">
        <ele>373.51</ele>
        <time>2019-01-17T12:07:32.01Z</time>
      </trkpt>
      <trkpt lat="36.885022" lon="-4.855917">
        <ele>373</ele>
        <time>2019-01-17T12:07:57.79Z</time>
      </trkpt>
      <trkpt lat="36.884649" lon="-4.854722">
        <ele>369.74</ele>
        <time>2019-01-17T12:08:38.83Z</time>
      </trkpt>
      <trkpt lat="36.883948" lon="-4.854143">
        <ele>361.24</ele>
        <time>2019-01-17T12:09:12.43Z</time>
      </trkpt>
      <trkpt lat="36.883317" lon="-4.853162">
        <ele>353.71</ele>
        <time>2019-01-17T12:09:52.71Z</time>
      </trkpt>
      <trkpt lat="36.882833" lon="-4.851852">
        <ele>349.4</ele>
        <time>2019-01-17T12:10:38.88Z</time>
      </trkpt>
      <trkpt lat="36.882839" lon="-4.851038">
        <ele>348.78</ele>
        <time>2019-01-17T12:11:04.92Z</time>
      </trkpt>
      <trkpt lat="36.882419" lon="-4.850794">
        <ele>352.45</ele>
        <time>2019-01-17T12:11:23.45Z</time>
      </trkpt>
      <trkpt lat="36.881751" lon="-4.850037">
        <ele>361.36</ele>
        <time>2019-01-17T12:11:59.52Z</time>
      </trkpt>
      <trkpt lat="36.881797" lon="-4.849618">
        <ele>363.65</ele>
        <time>2019-01-17T12:13:59Z</time>
      </trkpt>
      <trkpt lat="36.882471" lon="-4.848711">
        <ele>362.49</ele>
        <time>2019-01-17T12:14:14Z</time>
      </trkpt>
      <trkpt lat="36.882741" lon="-4.847696">
        <ele>360.43</ele>
        <time>2019-01-17T12:14:29Z</time>
      </trkpt>
      <trkpt lat="36.882821" lon="-4.846739">
        <ele>363.27</ele>
        <time>2019-01-17T12:14:56Z</time>
      </trkpt>
      <trkpt lat="36.882187" lon="-4.845629">
        <ele>369.81</ele>
        <time>2019-01-17T12:15:37Z</time>
      </trkpt>
      <trkpt lat="36.88298" lon="-4.845687">
        <ele>370.61</ele>
        <time>2019-01-17T12:16:25Z</time>
      </trkpt>
      <trkpt lat="36.882436" lon="-4.845379">
        <ele>372.24</ele>
        <time>2019-01-17T12:16:58Z</time>
      </trkpt>
      <trkpt lat="36.881" lon="-4.842508">
        <ele>381.03</ele>
        <time>2019-01-17T12:30:25Z</time>
      </trkpt>
      <trkpt lat="36.880818" lon="-4.84172">
        <ele>384.22</ele>
        <time>2019-01-17T12:30:51Z</time>
      </trkpt>
      <trkpt lat="36.880869" lon="-4.840686">
        <ele>393.25</ele>
        <time>2019-01-17T12:31:28Z</time>
      </trkpt>
      <trkpt lat="36.880068" lon="-4.839466">
        <ele>399.46</ele>
        <time>2019-01-17T12:32:39Z</time>
      </trkpt>
      <trkpt lat="36.879764" lon="-4.839249">
        <ele>397.84</ele>
        <time>2019-01-17T12:32:54Z</time>
      </trkpt>
      <trkpt lat="36.879446" lon="-4.837791">
        <ele>402.69</ele>
        <time>2019-01-17T12:33:45Z</time>
      </trkpt>
      <trkpt lat="36.879783" lon="-4.836961">
        <ele>408.63</ele>
        <time>2019-01-17T12:42:33Z</time>
      </trkpt>
      <trkpt lat="36.879963" lon="-4.837741">
        <ele>411.02</ele>
        <time>2019-01-17T12:43:11Z</time>
      </trkpt>
      <trkpt lat="36.880211" lon="-4.837982">
        <ele>416.41</ele>
        <time>2019-01-17T12:43:31Z</time>
      </trkpt>
      <trkpt lat="36.880433" lon="-4.83684">
        <ele>423.66</ele>
        <time>2019-01-17T12:44:47Z</time>
      </trkpt>
      <trkpt lat="36.881229" lon="-4.835747">
        <ele>441.25</ele>
        <time>2019-01-17T12:46:12Z</time>
      </trkpt>
      <trkpt lat="36.881597" lon="-4.834996">
        <ele>455.62</ele>
        <time>2019-01-17T12:47:30Z</time>
      </trkpt>
      <trkpt lat="36.882178" lon="-4.834837">
        <ele>463.27</ele>
        <time>2019-01-17T12:48:37Z</time>
      </trkpt>
      <trkpt lat="36.882027" lon="-4.834561">
        <ele>465.43</ele>
        <time>2019-01-17T12:48:59Z</time>
      </trkpt>
      <trkpt lat="36.881825" lon="-4.83313">
        <ele>475.43</ele>
        <time>2019-01-17T12:50:48Z</time>
      </trkpt>
      <trkpt lat="36.881847" lon="-4.828487">
        <ele>493.85</ele>
        <time>2019-01-17T12:56:47Z</time>
      </trkpt>
      <trkpt lat="36.88108" lon="-4.828468">
        <ele>493.65</ele>
        <time>2019-01-17T12:57:15Z</time>
      </trkpt>
      <trkpt lat="36.880989" lon="-4.827545">
        <ele>493.61</ele>
        <time>2019-01-17T12:57:45Z</time>
      </trkpt>
      <trkpt lat="36.880815" lon="-4.827178">
        <ele>498.01</ele>
        <time>2019-01-17T12:58:01Z</time>
      </trkpt>
      <trkpt lat="36.879878" lon="-4.826856">
        <ele>519.44</ele>
        <time>2019-01-17T12:59:24Z</time>
      </trkpt>
      <trkpt lat="36.879566" lon="-4.826932">
        <ele>515.45</ele>
        <time>2019-01-17T12:59:53Z</time>
      </trkpt>
      <trkpt lat="36.87952" lon="-4.826371">
        <ele>523.84</ele>
        <time>2019-01-17T13:06:56Z</time>
      </trkpt>
      <trkpt lat="36.879071" lon="-4.825409">
        <ele>525.1</ele>
        <time>2019-01-17T13:07:40Z</time>
      </trkpt>
      <trkpt lat="36.879384" lon="-4.824597">
        <ele>537.3</ele>
        <time>2019-01-17T13:08:07Z</time>
      </trkpt>
      <trkpt lat="36.879212" lon="-4.824183">
        <ele>532.81</ele>
        <time>2019-01-17T13:08:22Z</time>
      </trkpt>
      <trkpt lat="36.876654" lon="-4.822592">
        <ele>531.68</ele>
        <time>2019-01-17T13:10:33Z</time>
      </trkpt>
      <trkpt lat="36.875058" lon="-4.822365">
        <ele>551.7</ele>
        <time>2019-01-17T13:12:28Z</time>
      </trkpt>
      <trkpt lat="36.87477" lon="-4.821875">
        <ele>550.46</ele>
        <time>2019-01-17T13:12:36Z</time>
      </trkpt>
      <trkpt lat="36.874642" lon="-4.82077">
        <ele>537.21</ele>
        <time>2019-01-17T13:12:47Z</time>
      </trkpt>
      <trkpt lat="36.874333" lon="-4.820398">
        <ele>542.85</ele>
        <time>2019-01-17T13:12:54Z</time>
      </trkpt>
      <trkpt lat="36.874414" lon="-4.819979">
        <ele>534.08</ele>
        <time>2019-01-17T13:13:01Z</time>
      </trkpt>
      <trkpt lat="36.874294" lon="-4.819668">
        <ele>532.88</ele>
        <time>2019-01-17T13:13:07Z</time>
      </trkpt>
      <trkpt lat="36.874298" lon="-4.819335">
        <ele>530.82</ele>
        <time>2019-01-17T13:13:13Z</time>
      </trkpt>
      <trkpt lat="36.873814" lon="-4.818933">
        <ele>537.48</ele>
        <time>2019-01-17T13:13:25Z</time>
      </trkpt>
      <trkpt lat="36.873633" lon="-4.818312">
        <ele>536.24</ele>
        <time>2019-01-17T13:13:32Z</time>
      </trkpt>
      <trkpt lat="36.873316" lon="-4.817958">
        <ele>544.85</ele>
        <time>2019-01-17T13:13:38Z</time>
      </trkpt>
      <trkpt lat="36.873353" lon="-4.817796">
        <ele>545.25</ele>
        <time>2019-01-17T13:13:41Z</time>
      </trkpt>
      <trkpt lat="36.873786" lon="-4.817697">
        <ele>537.01</ele>
        <time>2019-01-17T13:13:59Z</time>
      </trkpt>
      <trkpt lat="36.873942" lon="-4.817418">
        <ele>536.61</ele>
        <time>2019-01-17T13:14:13Z</time>
      </trkpt>
      <trkpt lat="36.873965" lon="-4.816627">
        <ele>545.86</ele>
        <time>2019-01-17T13:14:53Z</time>
      </trkpt>
      <trkpt lat="36.873797" lon="-4.816287">
        <ele>555.24</ele>
        <time>2019-01-17T13:15:15Z</time>
      </trkpt>
      <trkpt lat="36.874169" lon="-4.81509">
        <ele>562.84</ele>
        <time>2019-01-17T13:16:23Z</time>
      </trkpt>
      <trkpt lat="36.874595" lon="-4.815109">
        <ele>549.62</ele>
        <time>2019-01-17T13:16:42Z</time>
      </trkpt>
      <trkpt lat="36.874752" lon="-4.814871">
        <ele>546.03</ele>
        <time>2019-01-17T13:16:52Z</time>
      </trkpt>
      <trkpt lat="36.874703" lon="-4.814583">
        <ele>549.68</ele>
        <time>2019-01-17T13:17:04Z</time>
      </trkpt>
      <trkpt lat="36.874417" lon="-4.814244">
        <ele>562.89</ele>
        <time>2019-01-17T13:17:22Z</time>
      </trkpt>
      <trkpt lat="36.874565" lon="-4.813626">
        <ele>560.08</ele>
        <time>2019-01-17T13:17:50Z</time>
      </trkpt>
      <trkpt lat="36.874052" lon="-4.813243">
        <ele>574.81</ele>
        <time>2019-01-17T13:18:08Z</time>
      </trkpt>
      <trkpt lat="36.874368" lon="-4.812637">
        <ele>575.68</ele>
        <time>2019-01-17T13:18:41Z</time>
      </trkpt>
      <trkpt lat="36.874662" lon="-4.812391">
        <ele>574.25</ele>
        <time>2019-01-17T13:19:01Z</time>
      </trkpt>
      <trkpt lat="36.874773" lon="-4.811535">
        <ele>574.47</ele>
        <time>2019-01-17T13:19:46Z</time>
      </trkpt>
      <trkpt lat="36.876052" lon="-4.809472">
        <ele>583.04</ele>
        <time>2019-01-17T13:21:24Z</time>
      </trkpt>
      <trkpt lat="36.876263" lon="-4.808859">
        <ele>583.48</ele>
        <time>2019-01-17T13:21:33Z</time>
      </trkpt>
      <trkpt lat="36.875386" lon="-4.807328">
        <ele>545.65</ele>
        <time>2019-01-17T13:21:58Z</time>
      </trkpt>
      <trkpt lat="36.876395" lon="-4.807606">
        <ele>559.29</ele>
        <time>2019-01-17T13:22:15Z</time>
      </trkpt>
      <trkpt lat="36.87658" lon="-4.807423">
        <ele>557.82</ele>
        <time>2019-01-17T13:22:19Z</time>
      </trkpt>
      <trkpt lat="36.876628" lon="-4.806496">
        <ele>547.01</ele>
        <time>2019-01-17T13:22:28Z</time>
      </trkpt>
      <trkpt lat="36.876421" lon="-4.805629">
        <ele>537.49</ele>
        <time>2019-01-17T13:22:42Z</time>
      </trkpt>
      <trkpt lat="36.876086" lon="-4.80521">
        <ele>526.46</ele>
        <time>2019-01-17T13:22:49Z</time>
      </trkpt>
      <trkpt lat="36.875601" lon="-4.803935">
        <ele>506.47</ele>
        <time>2019-01-17T13:23:12Z</time>
      </trkpt>
      <trkpt lat="36.875361" lon="-4.803723">
        <ele>501.88</ele>
        <time>2019-01-17T13:23:18Z</time>
      </trkpt>
      <trkpt lat="36.875651" lon="-4.803351">
        <ele>495.26</ele>
        <time>2019-01-17T13:23:27Z</time>
      </trkpt>
      <trkpt lat="36.876404" lon="-4.804092">
        <ele>500.61</ele>
        <time>2019-01-17T13:23:42Z</time>
      </trkpt>
      <trkpt lat="36.876726" lon="-4.803271">
        <ele>479.41</ele>
        <time>2019-01-17T13:23:54Z</time>
      </trkpt>
      <trkpt lat="36.877006" lon="-4.802954">
        <ele>472.82</ele>
        <time>2019-01-17T13:24:02Z</time>
      </trkpt>
      <trkpt lat="36.877325" lon="-4.802236">
        <ele>485.07</ele>
        <time>2019-01-17T13:24:16Z</time>
      </trkpt>
      <trkpt lat="36.877603" lon="-4.802367">
        <ele>479.04</ele>
        <time>2019-01-17T13:24:24Z</time>
      </trkpt>
      <trkpt lat="36.87787" lon="-4.802041">
        <ele>483.41</ele>
        <time>2019-01-17T13:25:01Z</time>
      </trkpt>
      <trkpt lat="36.878384" lon="-4.801916">
        <ele>477.22</ele>
        <time>2019-01-17T13:25:45Z</time>
      </trkpt>
      <trkpt lat="36.878169" lon="-4.801176">
        <ele>498.22</ele>
        <time>2019-01-17T13:26:30Z</time>
      </trkpt>
      <trkpt lat="36.878347" lon="-4.800334">
        <ele>506.83</ele>
        <time>2019-01-17T13:27:27Z</time>
      </trkpt>
      <trkpt lat="36.878554" lon="-4.800209">
        <ele>502.42</ele>
        <time>2019-01-17T13:27:44Z</time>
      </trkpt>
      <trkpt lat="36.878913" lon="-4.798605">
        <ele>520.89</ele>
        <time>2019-01-17T13:42:56Z</time>
      </trkpt>
      <trkpt lat="36.87916" lon="-4.798229">
        <ele>523.5</ele>
        <time>2019-01-17T13:43:24Z</time>
      </trkpt>
      <trkpt lat="36.879116" lon="-4.797909">
        <ele>531.08</ele>
        <time>2019-01-17T13:43:45Z</time>
      </trkpt>
      <trkpt lat="36.879538" lon="-4.797388">
        <ele>522.23</ele>
        <time>2019-01-17T13:44:06Z</time>
      </trkpt>
      <trkpt lat="36.880246" lon="-4.795284">
        <ele>500.81</ele>
        <time>2019-01-17T13:44:51Z</time>
      </trkpt>
      <trkpt lat="36.880087" lon="-4.794349">
        <ele>482.43</ele>
        <time>2019-01-17T13:45:05Z</time>
      </trkpt>
      <trkpt lat="36.880457" lon="-4.79447">
        <ele>478.81</ele>
        <time>2019-01-17T13:45:12Z</time>
      </trkpt>
      <trkpt lat="36.881158" lon="-4.795253">
        <ele>474.86</ele>
        <time>2019-01-17T13:45:25Z</time>
      </trkpt>
      <trkpt lat="36.881088" lon="-4.795623">
        <ele>477.28</ele>
        <time>2019-01-17T13:45:31Z</time>
      </trkpt>
      <trkpt lat="36.881969" lon="-4.794479">
        <ele>454.64</ele>
        <time>2019-01-17T13:45:47Z</time>
      </trkpt>
      <trkpt lat="36.882419" lon="-4.793084">
        <ele>443.61</ele>
        <time>2019-01-17T13:46:02Z</time>
      </trkpt>
      <trkpt lat="36.882835" lon="-4.791037">
        <ele>449.28</ele>
        <time>2019-01-17T13:46:36Z</time>
      </trkpt>
      <trkpt lat="36.883003" lon="-4.79069">
        <ele>455.09</ele>
        <time>2019-01-17T13:46:47Z</time>
      </trkpt>
      <trkpt lat="36.884381" lon="-4.789576">
        <ele>453.62</ele>
        <time>2019-01-17T13:48:31Z</time>
      </trkpt>
      <trkpt lat="36.885073" lon="-4.789607">
        <ele>468.08</ele>
        <time>2019-01-17T13:49:04Z</time>
      </trkpt>
      <trkpt lat="36.886201" lon="-4.789008">
        <ele>478.63</ele>
        <time>2019-01-17T13:50:21Z</time>
      </trkpt>
      <trkpt lat="36.886515" lon="-4.788864">
        <ele>478.69</ele>
        <time>2019-01-17T13:50:45Z</time>
      </trkpt>
      <trkpt lat="36.886862" lon="-4.788414">
        <ele>483.81</ele>
        <time>2019-01-17T13:51:19Z</time>
      </trkpt>
      <trkpt lat="36.887707" lon="-4.788287">
        <ele>493.41</ele>
        <time>2019-01-17T13:52:28Z</time>
      </trkpt>
      <trkpt lat="36.888221" lon="-4.787825">
        <ele>495.01</ele>
        <time>2019-01-17T13:53:11Z</time>
      </trkpt>
      <trkpt lat="36.888748" lon="-4.787712">
        <ele>498.25</ele>
        <time>2019-01-17T13:53:21Z</time>
      </trkpt>
      <trkpt lat="36.889201" lon="-4.786802">
        <ele>503.1</ele>
        <time>2019-01-17T13:54:02Z</time>
      </trkpt>
      <trkpt lat="36.889497" lon="-4.785518">
        <ele>502.4</ele>
        <time>2019-01-17T13:54:39Z</time>
      </trkpt>
      <trkpt lat="36.889976" lon="-4.784915">
        <ele>492.01</ele>
        <time>2019-01-17T13:54:48Z</time>
      </trkpt>
      <trkpt lat="36.890362" lon="-4.78477">
        <ele>485.45</ele>
        <time>2019-01-17T13:54:52Z</time>
      </trkpt>
      <trkpt lat="36.892052" lon="-4.784834">
        <ele>494.62</ele>
        <time>2019-01-17T13:55:16Z</time>
      </trkpt>
      <trkpt lat="36.892697" lon="-4.784356">
        <ele>493.84</ele>
        <time>2019-01-17T13:55:34Z</time>
      </trkpt>
      <trkpt lat="36.892777" lon="-4.783704">
        <ele>496.42</ele>
        <time>2019-01-17T13:56:01Z</time>
      </trkpt>
      <trkpt lat="36.895158" lon="-4.7831">
        <ele>486.81</ele>
        <time>2019-01-17T13:56:50Z</time>
      </trkpt>
      <trkpt lat="36.895592" lon="-4.782808">
        <ele>487.22</ele>
        <time>2019-01-17T13:56:58Z</time>
      </trkpt>
      <trkpt lat="36.89637" lon="-4.783049">
        <ele>478.21</ele>
        <time>2019-01-17T13:57:12Z</time>
      </trkpt>
      <trkpt lat="36.897164" lon="-4.782071">
        <ele>471.84</ele>
        <time>2019-01-17T13:57:39Z</time>
      </trkpt>
      <trkpt lat="36.898037" lon="-4.781912">
        <ele>469.87</ele>
        <time>2019-01-17T13:58:05Z</time>
      </trkpt>
      <trkpt lat="36.898565" lon="-4.781567">
        <ele>471.62</ele>
        <time>2019-01-17T13:59:09Z</time>
      </trkpt>
      <trkpt lat="36.898712" lon="-4.781136">
        <ele>472.65</ele>
        <time>2019-01-17T13:59:51Z</time>
      </trkpt>
      <trkpt lat="36.899535" lon="-4.780843">
        <ele>489.08</ele>
        <time>2019-01-17T14:00:37Z</time>
      </trkpt>
      <trkpt lat="36.899795" lon="-4.7803">
        <ele>500.68</ele>
        <time>2019-01-17T14:01:06Z</time>
      </trkpt>
      <trkpt lat="36.89956" lon="-4.778603">
        <ele>529.01</ele>
        <time>2019-01-17T14:02:38Z</time>
      </trkpt>
      <trkpt lat="36.89918" lon="-4.777935">
        <ele>534.5</ele>
        <time>2019-01-17T14:03:16Z</time>
      </trkpt>
      <trkpt lat="36.898631" lon="-4.777567">
        <ele>527.89</ele>
        <time>2019-01-17T14:03:59Z</time>
      </trkpt>
      <trkpt lat="36.898668" lon="-4.777395">
        <ele>536.23</ele>
        <time>2019-01-17T14:04:10Z</time>
      </trkpt>
      <trkpt lat="36.899377" lon="-4.777714">
        <ele>544.02</ele>
        <time>2019-01-17T14:58:12Z</time>
      </trkpt>
      <trkpt lat="36.90014" lon="-4.778745">
        <ele>551.03</ele>
        <time>2019-01-17T14:59:31Z</time>
      </trkpt>
      <trkpt lat="36.900741" lon="-4.779663">
        <ele>557.01</ele>
        <time>2019-01-17T15:00:42Z</time>
      </trkpt>
      <trkpt lat="36.901005" lon="-4.779749">
        <ele>555.21</ele>
        <time>2019-01-17T15:01:03Z</time>
      </trkpt>
      <trkpt lat="36.901576" lon="-4.779292">
        <ele>564.7</ele>
        <time>2019-01-17T15:01:55Z</time>
      </trkpt>
      <trkpt lat="36.903249" lon="-4.778957">
        <ele>564.86</ele>
        <time>2019-01-17T15:03:42Z</time>
      </trkpt>
      <trkpt lat="36.905207" lon="-4.779242">
        <ele>570.49</ele>
        <time>2019-01-17T15:04:40Z</time>
      </trkpt>
      <trkpt lat="36.906242" lon="-4.779986">
        <ele>570.22</ele>
        <time>2019-01-17T15:05:05Z</time>
      </trkpt>
      <trkpt lat="36.905886" lon="-4.779749">
        <ele>569.41</ele>
        <time>2019-01-17T15:05:19Z</time>
      </trkpt>
      <trkpt lat="36.905825" lon="-4.779871">
        <ele>569.06</ele>
        <time>2019-01-17T15:05:23Z</time>
      </trkpt>
      <trkpt lat="36.906301" lon="-4.780458">
        <ele>572.83</ele>
        <time>2019-01-17T15:06:18Z</time>
      </trkpt>
      <trkpt lat="36.907036" lon="-4.780814">
        <ele>572.65</ele>
        <time>2019-01-17T15:06:42Z</time>
      </trkpt>
      <trkpt lat="36.907566" lon="-4.78072">
        <ele>568.26</ele>
        <time>2019-01-17T15:06:56Z</time>
      </trkpt>
      <trkpt lat="36.907953" lon="-4.779962">
        <ele>559.46</ele>
        <time>2019-01-17T15:07:21Z</time>
      </trkpt>
      <trkpt lat="36.907789" lon="-4.779348">
        <ele>557.46</ele>
        <time>2019-01-17T15:07:36Z</time>
      </trkpt>
      <trkpt lat="36.90708" lon="-4.778472">
        <ele>556.82</ele>
        <time>2019-01-17T15:07:51Z</time>
      </trkpt>
      <trkpt lat="36.906725" lon="-4.778259">
        <ele>559.43</ele>
        <time>2019-01-17T15:07:58Z</time>
      </trkpt>
      <trkpt lat="36.907463" lon="-4.776148">
        <ele>557.26</ele>
        <time>2019-01-17T15:09:31Z</time>
      </trkpt>
      <trkpt lat="36.907251" lon="-4.774657">
        <ele>552.28</ele>
        <time>2019-01-17T15:13:22Z</time>
      </trkpt>
      <trkpt lat="36.906874" lon="-4.773703">
        <ele>542.05</ele>
        <time>2019-01-17T15:13:58Z</time>
      </trkpt>
      <trkpt lat="36.905598" lon="-4.776184">
        <ele>568.62</ele>
        <time>2019-01-17T15:15:55Z</time>
      </trkpt>
      <trkpt lat="36.904973" lon="-4.776745">
        <ele>565.26</ele>
        <time>2019-01-17T15:16:12Z</time>
      </trkpt>
      <trkpt lat="36.904516" lon="-4.777106">
        <ele>561.47</ele>
        <time>2019-01-17T15:16:22Z</time>
      </trkpt>
      <trkpt lat="36.904627" lon="-4.776366">
        <ele>555.25</ele>
        <time>2019-01-17T15:17:15Z</time>
      </trkpt>
      <trkpt lat="36.904623" lon="-4.775602">
        <ele>532.89</ele>
        <time>2019-01-17T15:17:26Z</time>
      </trkpt>
      <trkpt lat="36.904233" lon="-4.775836">
        <ele>533.42</ele>
        <time>2019-01-17T15:17:36Z</time>
      </trkpt>
      <trkpt lat="36.903578" lon="-4.77556">
        <ele>529.65</ele>
        <time>2019-01-17T15:17:48Z</time>
      </trkpt>
      <trkpt lat="36.903599" lon="-4.775337">
        <ele>524.63</ele>
        <time>2019-01-17T15:17:53Z</time>
      </trkpt>
      <trkpt lat="36.903026" lon="-4.774191">
        <ele>502.42</ele>
        <time>2019-01-17T15:18:39Z</time>
      </trkpt>
      <trkpt lat="36.902969" lon="-4.773771">
        <ele>489.61</ele>
        <time>2019-01-17T15:18:47Z</time>
      </trkpt>
      <trkpt lat="36.903386" lon="-4.774228">
        <ele>487.03</ele>
        <time>2019-01-17T15:19:14Z</time>
      </trkpt>
      <trkpt lat="36.903238" lon="-4.773564">
        <ele>466.21</ele>
        <time>2019-01-17T15:19:33Z</time>
      </trkpt>
      <trkpt lat="36.903764" lon="-4.774313">
        <ele>483.81</ele>
        <time>2019-01-17T15:22:08Z</time>
      </trkpt>
      <trkpt lat="36.904074" lon="-4.773859">
        <ele>455.86</ele>
        <time>2019-01-17T15:22:29Z</time>
      </trkpt>
      <trkpt lat="36.905002" lon="-4.773567">
        <ele>452.49</ele>
        <time>2019-01-17T15:23:06Z</time>
      </trkpt>
      <trkpt lat="36.905231" lon="-4.772922">
        <ele>441.85</ele>
        <time>2019-01-17T15:23:46Z</time>
      </trkpt>
      <trkpt lat="36.905185" lon="-4.77192">
        <ele>401.44</ele>
        <time>2019-01-17T15:24:31Z</time>
      </trkpt>
      <trkpt lat="36.905138" lon="-4.772086">
        <ele>404.26</ele>
        <time>2019-01-17T15:24:39Z</time>
      </trkpt>
      <trkpt lat="36.905106" lon="-4.771942">
        <ele>398.25</ele>
        <time>2019-01-17T15:24:48Z</time>
      </trkpt>
      <trkpt lat="36.905581" lon="-4.771307">
        <ele>403.22</ele>
        <time>2019-01-17T15:26:37Z</time>
      </trkpt>
      <trkpt lat="36.905601" lon="-4.770489">
        <ele>383.23</ele>
        <time>2019-01-17T15:27:49Z</time>
      </trkpt>
      <trkpt lat="36.905536" lon="-4.770232">
        <ele>370.29</ele>
        <time>2019-01-17T15:28:06Z</time>
      </trkpt>
      <trkpt lat="36.906053" lon="-4.769617">
        <ele>370.68</ele>
        <time>2019-01-17T15:29:21Z</time>
      </trkpt>
      <trkpt lat="36.906006" lon="-4.769284">
        <ele>347.05</ele>
        <time>2019-01-17T15:29:48Z</time>
      </trkpt>
      <trkpt lat="36.906672" lon="-4.768616">
        <ele>350.01</ele>
        <time>2019-01-17T15:30:28Z</time>
      </trkpt>
      <trkpt lat="36.907552" lon="-4.767756">
        <ele>337.69</ele>
        <time>2019-01-17T15:31:13Z</time>
      </trkpt>
      <trkpt lat="36.90587" lon="-4.768245">
        <ele>301.26</ele>
        <time>2019-01-17T15:32:13Z</time>
      </trkpt>
      <trkpt lat="36.905629" lon="-4.768488">
        <ele>307.05</ele>
        <time>2019-01-17T15:32:27Z</time>
      </trkpt>
      <trkpt lat="36.906015" lon="-4.767372">
        <ele>269.7</ele>
        <time>2019-01-17T15:33:05Z</time>
      </trkpt>
      <trkpt lat="36.906219" lon="-4.767321">
        <ele>271.89</ele>
        <time>2019-01-17T15:33:15Z</time>
      </trkpt>
      <trkpt lat="36.907403" lon="-4.765806">
        <ele>248.02</ele>
        <time>2019-01-17T15:34:29Z</time>
      </trkpt>
      <trkpt lat="36.907853" lon="-4.765233">
        <ele>231.22</ele>
        <time>2019-01-17T15:35:00Z</time>
      </trkpt>
      <trkpt lat="36.907144" lon="-4.765358">
        <ele>228.08</ele>
        <time>2019-01-17T15:35:17Z</time>
      </trkpt>
      <trkpt lat="36.906812" lon="-4.765651">
        <ele>231.27</ele>
        <time>2019-01-17T15:35:23Z</time>
      </trkpt>
      <trkpt lat="36.906422" lon="-4.765433">
        <ele>228.66</ele>
        <time>2019-01-17T15:35:33Z</time>
      </trkpt>
      <trkpt lat="36.906534" lon="-4.765127">
        <ele>223.42</ele>
        <time>2019-01-17T15:35:40Z</time>
      </trkpt>
      <trkpt lat="36.90679" lon="-4.764869">
        <ele>217.48</ele>
        <time>2019-01-17T15:35:45Z</time>
      </trkpt>
      <trkpt lat="36.907073" lon="-4.764096">
        <ele>205.02</ele>
        <time>2019-01-17T15:35:58Z</time>
      </trkpt>
      <trkpt lat="36.906026" lon="-4.762759">
        <ele>207.08</ele>
        <time>2019-01-17T15:36:59Z</time>
      </trkpt>
      <trkpt lat="36.904827" lon="-4.761433">
        <ele>184.46</ele>
        <time>2019-01-17T15:37:23Z</time>
      </trkpt>
      <trkpt lat="36.904853" lon="-4.761179">
        <ele>180.45</ele>
        <time>2019-01-17T15:37:26Z</time>
      </trkpt>
      <trkpt lat="36.90543" lon="-4.759859">
        <ele>216.8</ele>
        <time>2019-01-17T15:38:02Z</time>
      </trkpt>
      <trkpt lat="36.906041" lon="-4.759909">
        <ele>216.41</ele>
        <time>2019-01-17T15:38:34Z</time>
      </trkpt>
      <trkpt lat="36.906533" lon="-4.759704">
        <ele>224.21</ele>
        <time>2019-01-17T15:40:00Z</time>
      </trkpt>
      <trkpt lat="36.907694" lon="-4.759999">
        <ele>227.68</ele>
        <time>2019-01-17T15:40:47Z</time>
      </trkpt>
      <trkpt lat="36.908258" lon="-4.760408">
        <ele>228.02</ele>
        <time>2019-01-17T15:41:13Z</time>
      </trkpt>
      <trkpt lat="36.908828" lon="-4.76042">
        <ele>229.07</ele>
        <time>2019-01-17T15:44:29Z</time>
      </trkpt>
      <trkpt lat="36.907845" lon="-4.759629">
        <ele>237.29</ele>
        <time>2019-01-17T15:45:32Z</time>
      </trkpt>
      <trkpt lat="36.906978" lon="-4.759416">
        <ele>236.29</ele>
        <time>2019-01-17T15:46:12Z</time>
      </trkpt>
      <trkpt lat="36.906869" lon="-4.759211">
        <ele>241.62</ele>
        <time>2019-01-17T15:46:23Z</time>
      </trkpt>
      <trkpt lat="36.907908" lon="-4.759436">
        <ele>242.8</ele>
        <time>2019-01-17T15:47:02Z</time>
      </trkpt>
      <trkpt lat="36.908545" lon="-4.759935">
        <ele>238.21</ele>
        <time>2019-01-17T15:47:32Z</time>
      </trkpt>
      <trkpt lat="36.909259" lon="-4.759593">
        <ele>246.67</ele>
        <time>2019-01-17T15:48:07Z</time>
      </trkpt>
      <trkpt lat="36.909353" lon="-4.759253">
        <ele>252.68</ele>
        <time>2019-01-17T15:48:30Z</time>
      </trkpt>
      <trkpt lat="36.909853" lon="-4.759286">
        <ele>250.83</ele>
        <time>2019-01-17T15:48:51Z</time>
      </trkpt>
      <trkpt lat="36.910255" lon="-4.758903">
        <ele>252.42</ele>
        <time>2019-01-17T15:49:20Z</time>
      </trkpt>
      <trkpt lat="36.910202" lon="-4.758422">
        <ele>262.63</ele>
        <time>2019-01-17T15:49:48Z</time>
      </trkpt>
      <trkpt lat="36.910696" lon="-4.757554">
        <ele>273.29</ele>
        <time>2019-01-17T15:50:53Z</time>
      </trkpt>
      <trkpt lat="36.910541" lon="-4.757443">
        <ele>278.25</ele>
        <time>2019-01-17T15:51:16Z</time>
      </trkpt>
      <trkpt lat="36.910126" lon="-4.757737">
        <ele>279.04</ele>
        <time>2019-01-17T15:51:55Z</time>
      </trkpt>
      <trkpt lat="36.909951" lon="-4.757565">
        <ele>286.43</ele>
        <time>2019-01-17T15:52:19Z</time>
      </trkpt>
      <trkpt lat="36.910269" lon="-4.757204">
        <ele>288.62</ele>
        <time>2019-01-17T15:52:49Z</time>
      </trkpt>
      <trkpt lat="36.910393" lon="-4.756456">
        <ele>304.82</ele>
        <time>2019-01-17T15:53:37Z</time>
      </trkpt>
      <trkpt lat="36.910899" lon="-4.755661">
        <ele>317.41</ele>
        <time>2019-01-17T15:54:38Z</time>
      </trkpt>
      <trkpt lat="36.911548" lon="-4.756305">
        <ele>305.82</ele>
        <time>2019-01-17T15:55:16Z</time>
      </trkpt>
      <trkpt lat="36.912205" lon="-4.756093">
        <ele>319.07</ele>
        <time>2019-01-17T15:56:07Z</time>
      </trkpt>
      <trkpt lat="36.912458" lon="-4.756212">
        <ele>321.81</ele>
        <time>2019-01-17T15:56:30Z</time>
      </trkpt>
      <trkpt lat="36.911775" lon="-4.755297">
        <ele>332.3</ele>
        <time>2019-01-17T16:01:28Z</time>
      </trkpt>
      <trkpt lat="36.911049" lon="-4.754191">
        <ele>346.41</ele>
        <time>2019-01-17T16:02:39Z</time>
      </trkpt>
      <trkpt lat="36.910759" lon="-4.754123">
        <ele>350.81</ele>
        <time>2019-01-17T16:02:48Z</time>
      </trkpt>
      <trkpt lat="36.910512" lon="-4.75483">
        <ele>339.87</ele>
        <time>2019-01-17T16:03:23Z</time>
      </trkpt>
      <trkpt lat="36.90975" lon="-4.755515">
        <ele>345.42</ele>
        <time>2019-01-17T16:04:23Z</time>
      </trkpt>
      <trkpt lat="36.910092" lon="-4.754824">
        <ele>352.22</ele>
        <time>2019-01-17T16:05:07Z</time>
      </trkpt>
      <trkpt lat="36.910339" lon="-4.753782">
        <ele>369.67</ele>
        <time>2019-01-17T16:06:04Z</time>
      </trkpt>
      <trkpt lat="36.910818" lon="-4.753308">
        <ele>372.68</ele>
        <time>2019-01-17T16:06:45Z</time>
      </trkpt>
      <trkpt lat="36.911211" lon="-4.751861">
        <ele>396.42</ele>
        <time>2019-01-17T16:08:07Z</time>
      </trkpt>
      <trkpt lat="36.911426" lon="-4.751564">
        <ele>395.21</ele>
        <time>2019-01-17T16:08:23Z</time>
      </trkpt>
      <trkpt lat="36.91215" lon="-4.751223">
        <ele>396.04</ele>
        <time>2019-01-17T16:09:03Z</time>
      </trkpt>
      <trkpt lat="36.912713" lon="-4.752135">
        <ele>392.89</ele>
        <time>2019-01-17T16:10:01Z</time>
      </trkpt>
      <trkpt lat="36.91301" lon="-4.752229">
        <ele>397.27</ele>
        <time>2019-01-17T16:10:20Z</time>
      </trkpt>
      <trkpt lat="36.914007" lon="-4.753263">
        <ele>406.67</ele>
        <time>2019-01-17T16:12:06Z</time>
      </trkpt>
      <trkpt lat="36.914166" lon="-4.753068">
        <ele>422.06</ele>
        <time>2019-01-17T16:12:29Z</time>
      </trkpt>
      <trkpt lat="36.914027" lon="-4.752747">
        <ele>413.81</ele>
        <time>2019-01-17T16:13:08Z</time>
      </trkpt>
      <trkpt lat="36.914254" lon="-4.751448">
        <ele>441.04</ele>
        <time>2019-01-17T16:15:31Z</time>
      </trkpt>
      <trkpt lat="36.914138" lon="-4.750706">
        <ele>444.05</ele>
        <time>2019-01-17T16:16:17Z</time>
      </trkpt>
      <trkpt lat="36.914346" lon="-4.749785">
        <ele>452.45</ele>
        <time>2019-01-17T16:17:21Z</time>
      </trkpt>
      <trkpt lat="36.914715" lon="-4.751065">
        <ele>460.08</ele>
        <time>2019-01-17T16:18:24Z</time>
      </trkpt>
      <trkpt lat="36.914903" lon="-4.749873">
        <ele>467.83</ele>
        <time>2019-01-17T16:19:43Z</time>
      </trkpt>
      <trkpt lat="36.915123" lon="-4.749102">
        <ele>491.26</ele>
        <time>2019-01-17T16:21:37Z</time>
      </trkpt>
      <trkpt lat="36.915416" lon="-4.74725">
        <ele>505.02</ele>
        <time>2019-01-17T16:24:15Z</time>
      </trkpt>
      <trkpt lat="36.915988" lon="-4.745415">
        <ele>539.61</ele>
        <time>2019-01-17T16:28:38Z</time>
      </trkpt>
      <trkpt lat="36.916212" lon="-4.743931">
        <ele>550.81</ele>
        <time>2019-01-17T16:30:31Z</time>
      </trkpt>
      <trkpt lat="36.91633" lon="-4.743877">
        <ele>553.07</ele>
        <time>2019-01-17T16:30:47Z</time>
      </trkpt>
      <trkpt lat="36.916535" lon="-4.744276">
        <ele>557.25</ele>
        <time>2019-01-17T16:31:32Z</time>
      </trkpt>
      <trkpt lat="36.916793" lon="-4.74408">
        <ele>579.29</ele>
        <time>2019-01-17T16:31:59Z</time>
      </trkpt>
      <trkpt lat="36.917094" lon="-4.742">
        <ele>599.89</ele>
        <time>2019-01-17T16:36:04Z</time>
      </trkpt>
      <trkpt lat="36.917855" lon="-4.740583">
        <ele>611.01</ele>
        <time>2019-01-17T16:38:27Z</time>
      </trkpt>
      <trkpt lat="36.918784" lon="-4.739422">
        <ele>619.44</ele>
        <time>2019-01-17T16:40:03Z</time>
      </trkpt>
      <trkpt lat="36.919632" lon="-4.739506">
        <ele>633.41</ele>
        <time>2019-01-17T16:42:23Z</time>
      </trkpt>
      <trkpt lat="36.920538" lon="-4.738873">
        <ele>641.62</ele>
        <time>2019-01-17T16:43:55Z</time>
      </trkpt>
      <trkpt lat="36.920048" lon="-4.738266">
        <ele>628.66</ele>
        <time>2019-01-17T16:44:28Z</time>
      </trkpt>
      <trkpt lat="36.91952" lon="-4.736569">
        <ele>611.24</ele>
        <time>2019-01-17T16:44:52Z</time>
      </trkpt>
      <trkpt lat="36.919588" lon="-4.736097">
        <ele>610.27</ele>
        <time>2019-01-17T16:44:58Z</time>
      </trkpt>
      <trkpt lat="36.920931" lon="-4.736222">
        <ele>634.84</ele>
        <time>2019-01-17T16:46:57Z</time>
      </trkpt>
      <trkpt lat="36.921044" lon="-4.735742">
        <ele>636.68</ele>
        <time>2019-01-17T16:47:21Z</time>
      </trkpt>
      <trkpt lat="36.922705" lon="-4.732974">
        <ele>683.01</ele>
        <time>2019-01-17T16:51:27Z</time>
      </trkpt>
      <trkpt lat="36.923327" lon="-4.730314">
        <ele>683.03</ele>
        <time>2019-01-17T16:52:58Z</time>
      </trkpt>
      <trkpt lat="36.92383" lon="-4.729215">
        <ele>675.21</ele>
        <time>2019-01-17T16:53:28Z</time>
      </trkpt>
      <trkpt lat="36.924826" lon="-4.728197">
        <ele>680.21</ele>
        <time>2019-01-17T16:54:19Z</time>
      </trkpt>
      <trkpt lat="36.925187" lon="-4.72717">
        <ele>682.27</ele>
        <time>2019-01-17T16:54:42Z</time>
      </trkpt>
      <trkpt lat="36.92487" lon="-4.72611">
        <ele>671.41</ele>
        <time>2019-01-17T16:54:53Z</time>
      </trkpt>
      <trkpt lat="36.924298" lon="-4.724521">
        <ele>645.63</ele>
        <time>2019-01-17T16:55:10Z</time>
      </trkpt>
      <trkpt lat="36.925441" lon="-4.723126">
        <ele>632.3</ele>
        <time>2019-01-17T16:55:35Z</time>
      </trkpt>
      <trkpt lat="36.925866" lon="-4.722238">
        <ele>625.9</ele>
        <time>2019-01-17T16:55:44Z</time>
      </trkpt>
      <trkpt lat="36.926793" lon="-4.721353">
        <ele>615.87</ele>
        <time>2019-01-17T16:56:09Z</time>
      </trkpt>
      <trkpt lat="36.926844" lon="-4.720634">
        <ele>602.46</ele>
        <time>2019-01-17T16:56:18Z</time>
      </trkpt>
      <trkpt lat="36.927121" lon="-4.720296">
        <ele>600.09</ele>
        <time>2019-01-17T16:56:24Z</time>
      </trkpt>
      <trkpt lat="36.927141" lon="-4.720004">
        <ele>599.29</ele>
        <time>2019-01-17T16:56:28Z</time>
      </trkpt>
      <trkpt lat="36.926676" lon="-4.719684">
        <ele>590.03</ele>
        <time>2019-01-17T16:56:36Z</time>
      </trkpt>
      <trkpt lat="36.926881" lon="-4.718331">
        <ele>596.66</ele>
        <time>2019-01-17T16:56:57Z</time>
      </trkpt>
      <trkpt lat="36.926704" lon="-4.717799">
        <ele>595.22</ele>
        <time>2019-01-17T16:57:28Z</time>
      </trkpt>
      <trkpt lat="36.926595" lon="-4.717131">
        <ele>595.22</ele>
        <time>2019-01-17T16:57:49Z</time>
      </trkpt>
      <trkpt lat="36.9274" lon="-4.716844">
        <ele>611.42</ele>
        <time>2019-01-17T16:59:07Z</time>
      </trkpt>
      <trkpt lat="36.927574" lon="-4.716147">
        <ele>623.09</ele>
        <time>2019-01-17T16:59:35Z</time>
      </trkpt>
      <trkpt lat="36.927359" lon="-4.71461">
        <ele>608.82</ele>
        <time>2019-01-17T16:59:51Z</time>
      </trkpt>
      <trkpt lat="36.927329" lon="-4.713763">
        <ele>642.21</ele>
        <time>2019-01-17T16:59:59Z</time>
      </trkpt>
      <trkpt lat="36.926697" lon="-4.713073">
        <ele>594.69</ele>
        <time>2019-01-17T17:00:07Z</time>
      </trkpt>
      <trkpt lat="36.926212" lon="-4.712418">
        <ele>578.06</ele>
        <time>2019-01-17T17:00:15Z</time>
      </trkpt>
      <trkpt lat="36.9259" lon="-4.711395">
        <ele>570.85</ele>
        <time>2019-01-17T17:00:25Z</time>
      </trkpt>
      <trkpt lat="36.925214" lon="-4.710748">
        <ele>551.87</ele>
        <time>2019-01-17T17:00:34Z</time>
      </trkpt>
      <trkpt lat="36.925013" lon="-4.710079">
        <ele>544.65</ele>
        <time>2019-01-17T17:00:42Z</time>
      </trkpt>
      <trkpt lat="36.925534" lon="-4.708303">
        <ele>534.02</ele>
        <time>2019-01-17T17:00:59Z</time>
      </trkpt>
      <trkpt lat="36.925665" lon="-4.706807">
        <ele>520.81</ele>
        <time>2019-01-17T17:01:11Z</time>
      </trkpt>
      <trkpt lat="36.926367" lon="-4.704397">
        <ele>510.67</ele>
        <time>2019-01-17T17:01:33Z</time>
      </trkpt>
      <trkpt lat="36.92694" lon="-4.703277">
        <ele>505.45</ele>
        <time>2019-01-17T17:01:43Z</time>
      </trkpt>
      <trkpt lat="36.927408" lon="-4.701478">
        <ele>491.45</ele>
        <time>2019-01-17T17:01:58Z</time>
      </trkpt>
      <trkpt lat="36.927686" lon="-4.700011">
        <ele>481.1</ele>
        <time>2019-01-17T17:02:08Z</time>
      </trkpt>
      <trkpt lat="36.927572" lon="-4.697812">
        <ele>463.85</ele>
        <time>2019-01-17T17:02:29Z</time>
      </trkpt>
      <trkpt lat="36.927862" lon="-4.696337">
        <ele>455.89</ele>
        <time>2019-01-17T17:02:44Z</time>
      </trkpt>
      <trkpt lat="36.927906" lon="-4.692967">
        <ele>412.27</ele>
        <time>2019-01-17T17:03:25Z</time>
      </trkpt>
      <trkpt lat="36.928284" lon="-4.691426">
        <ele>405.47</ele>
        <time>2019-01-17T17:03:38Z</time>
      </trkpt>
      <trkpt lat="36.928119" lon="-4.690861">
        <ele>399.66</ele>
        <time>2019-01-17T17:03:45Z</time>
      </trkpt>
      <trkpt lat="36.928188" lon="-4.690158">
        <ele>396.68</ele>
        <time>2019-01-17T17:03:53Z</time>
      </trkpt>
      <trkpt lat="36.929194" lon="-4.687971">
        <ele>377.89</ele>
        <time>2019-01-17T17:04:14Z</time>
      </trkpt>
      <trkpt lat="36.930871" lon="-4.684708">
        <ele>359.83</ele>
        <time>2019-01-17T17:04:58Z</time>
      </trkpt>
      <trkpt lat="36.931302" lon="-4.684263">
        <ele>360.62</ele>
        <time>2019-01-17T17:05:21Z</time>
      </trkpt>
      <trkpt lat="36.931943" lon="-4.683951">
        <ele>367.28</ele>
        <time>2019-01-17T17:06:08Z</time>
      </trkpt>
      <trkpt lat="36.932651" lon="-4.683189">
        <ele>367.48</ele>
        <time>2019-01-17T17:06:48Z</time>
      </trkpt>
      <trkpt lat="36.933849" lon="-4.682516">
        <ele>371.07</ele>
        <time>2019-01-17T17:07:38Z</time>
      </trkpt>
      <trkpt lat="36.935135" lon="-4.682416">
        <ele>370.87</ele>
        <time>2019-01-17T17:08:30Z</time>
      </trkpt>
      <trkpt lat="36.936626" lon="-4.683588">
        <ele>370.01</ele>
        <time>2019-01-17T17:09:18Z</time>
      </trkpt>
      <trkpt lat="36.937165" lon="-4.684265">
        <ele>378.83</ele>
        <time>2019-01-17T17:09:47Z</time>
      </trkpt>
      <trkpt lat="36.93859" lon="-4.684264">
        <ele>380.66</ele>
        <time>2019-01-17T17:10:41Z</time>
      </trkpt>
      <trkpt lat="36.938996" lon="-4.684006">
        <ele>378.09</ele>
        <time>2019-01-17T17:11:06Z</time>
      </trkpt>
      <trkpt lat="36.939726" lon="-4.684432">
        <ele>384.88</ele>
        <time>2019-01-17T17:12:02Z</time>
      </trkpt>
      <trkpt lat="36.94102" lon="-4.684861">
        <ele>385.3</ele>
        <time>2019-01-17T17:23:25Z</time>
      </trkpt>
      <trkpt lat="36.942747" lon="-4.68427">
        <ele>382.08</ele>
        <time>2019-01-17T17:24:20Z</time>
      </trkpt>
      <trkpt lat="36.943822" lon="-4.684638">
        <ele>385.22</ele>
        <time>2019-01-17T17:24:49Z</time>
      </trkpt>
      <trkpt lat="36.944357" lon="-4.685051">
        <ele>383.81</ele>
        <time>2019-01-17T17:25:03Z</time>
      </trkpt>
      <trkpt lat="36.945131" lon="-4.686055">
        <ele>388.45</ele>
        <time>2019-01-17T17:25:31Z</time>
      </trkpt>
      <trkpt lat="36.946084" lon="-4.685904">
        <ele>387.84</ele>
        <time>2019-01-17T17:25:57Z</time>
      </trkpt>
      <trkpt lat="36.946301" lon="-4.685724">
        <ele>385.26</ele>
        <time>2019-01-17T17:26:06Z</time>
      </trkpt>
      <trkpt lat="36.947143" lon="-4.685881">
        <ele>390.68</ele>
        <time>2019-01-17T17:26:37Z</time>
      </trkpt>
      <trkpt lat="36.948692" lon="-4.685546">
        <ele>393.84</ele>
        <time>2019-01-17T17:27:38Z</time>
      </trkpt>
      <trkpt lat="36.949747" lon="-4.686118">
        <ele>398.85</ele>
        <time>2019-01-17T17:28:21Z</time>
      </trkpt>
      <trkpt lat="36.952046" lon="-4.685453">
        <ele>394.62</ele>
        <time>2019-01-17T17:29:04Z</time>
      </trkpt>
      <trkpt lat="36.952559" lon="-4.685667">
        <ele>398.22</ele>
        <time>2019-01-17T17:29:17Z</time>
      </trkpt>
      <trkpt lat="36.953153" lon="-4.685606">
        <ele>408.02</ele>
        <time>2019-01-17T17:29:57Z</time>
      </trkpt>
      <trkpt lat="36.953397" lon="-4.686505">
        <ele>403.42</ele>
        <time>2019-01-17T17:30:39Z</time>
      </trkpt>
      <trkpt lat="36.953675" lon="-4.686986">
        <ele>404.81</ele>
        <time>2019-01-17T17:30:58Z</time>
      </trkpt>
      <trkpt lat="36.954864" lon="-4.687278">
        <ele>410.63</ele>
        <time>2019-01-17T17:31:48Z</time>
      </trkpt>
      <trkpt lat="36.954435" lon="-4.686549">
        <ele>421.48</ele>
        <time>2019-01-17T17:32:52Z</time>
      </trkpt>
      <trkpt lat="36.955373" lon="-4.685694">
        <ele>435.62</ele>
        <time>2019-01-17T17:34:24Z</time>
      </trkpt>
      <trkpt lat="36.954747" lon="-4.685696">
        <ele>435.24</ele>
        <time>2019-01-17T17:35:13Z</time>
      </trkpt>
      <trkpt lat="36.954713" lon="-4.68536">
        <ele>438.64</ele>
        <time>2019-01-17T17:35:37Z</time>
      </trkpt>
      <trkpt lat="36.954919" lon="-4.68482">
        <ele>447.48</ele>
        <time>2019-01-17T17:36:15Z</time>
      </trkpt>
      <trkpt lat="36.954737" lon="-4.683977">
        <ele>453.41</ele>
        <time>2019-01-17T17:37:12Z</time>
      </trkpt>
      <trkpt lat="36.955046" lon="-4.683308">
        <ele>459.42</ele>
        <time>2019-01-17T17:37:50Z</time>
      </trkpt>
      <trkpt lat="36.955421" lon="-4.681622">
        <ele>469.01</ele>
        <time>2019-01-17T17:39:04Z</time>
      </trkpt>
      <trkpt lat="36.95545" lon="-4.679722">
        <ele>476.47</ele>
        <time>2019-01-17T17:40:33Z</time>
      </trkpt>
      <trkpt lat="36.956085" lon="-4.67803">
        <ele>497.01</ele>
        <time>2019-01-17T17:42:21Z</time>
      </trkpt>
      <trkpt lat="36.956201" lon="-4.67704">
        <ele>512.26</ele>
        <time>2019-01-17T17:44:14Z</time>
      </trkpt>
      <trkpt lat="36.955762" lon="-4.676492">
        <ele>522.63</ele>
        <time>2019-01-17T17:45:20Z</time>
      </trkpt>
      <trkpt lat="36.956161" lon="-4.676057">
        <ele>532.45</ele>
        <time>2019-01-17T17:46:45Z</time>
      </trkpt>
      <trkpt lat="36.95663" lon="-4.676058">
        <ele>533.47</ele>
        <time>2019-01-17T17:47:23Z</time>
      </trkpt>
      <trkpt lat="36.956817" lon="-4.675552">
        <ele>542.63</ele>
        <time>2019-01-17T17:48:09Z</time>
      </trkpt>
      <trkpt lat="36.956929" lon="-4.674833">
        <ele>554.44</ele>
        <time>2019-01-17T17:49:15Z</time>
      </trkpt>
      <trkpt lat="36.957286" lon="-4.674346">
        <ele>566.08</ele>
        <time>2019-01-17T17:50:06Z</time>
      </trkpt>
      <trkpt lat="36.956742" lon="-4.672464">
        <ele>578.28</ele>
        <time>2019-01-17T17:52:42Z</time>
      </trkpt>
      <trkpt lat="36.957005" lon="-4.671071">
        <ele>573.42</ele>
        <time>2019-01-17T17:54:07Z</time>
      </trkpt>
      <trkpt lat="36.957686" lon="-4.670521">
        <ele>583.25</ele>
        <time>2019-01-17T17:54:49Z</time>
      </trkpt>
      <trkpt lat="36.957818" lon="-4.67008">
        <ele>584.84</ele>
        <time>2019-01-17T17:55:05Z</time>
      </trkpt>
      <trkpt lat="36.957736" lon="-4.669304">
        <ele>592.28</ele>
        <time>2019-01-17T17:55:42Z</time>
      </trkpt>
      <trkpt lat="36.957548" lon="-4.669144">
        <ele>593.01</ele>
        <time>2019-01-17T17:56:06Z</time>
      </trkpt>
      <trkpt lat="36.957217" lon="-4.667845">
        <ele>609.48</ele>
        <time>2019-01-17T17:57:33Z</time>
      </trkpt>
      <trkpt lat="36.95671" lon="-4.66704">
        <ele>619.84</ele>
        <time>2019-01-17T17:59:25Z</time>
      </trkpt>
      <trkpt lat="36.956288" lon="-4.665936">
        <ele>632.41</ele>
        <time>2019-01-17T18:00:24Z</time>
      </trkpt>
      <trkpt lat="36.955714" lon="-4.662528">
        <ele>654.83</ele>
        <time>2019-01-17T18:03:28Z</time>
      </trkpt>
      <trkpt lat="36.95567" lon="-4.66162">
        <ele>655.48</ele>
        <time>2019-01-17T18:04:11Z</time>
      </trkpt>
      <trkpt lat="36.956121" lon="-4.660003">
        <ele>659.81</ele>
        <time>2019-01-17T18:05:33Z</time>
      </trkpt>
      <trkpt lat="36.956658" lon="-4.65962">
        <ele>673.88</ele>
        <time>2019-01-17T18:06:26Z</time>
      </trkpt>
      <trkpt lat="36.956856" lon="-4.658796">
        <ele>683.28</ele>
        <time>2019-01-17T18:08:06Z</time>
      </trkpt>
      <trkpt lat="36.957747" lon="-4.659614">
        <ele>697.09</ele>
        <time>2019-01-17T18:09:47Z</time>
      </trkpt>
      <trkpt lat="36.958321" lon="-4.65847">
        <ele>713.03</ele>
        <time>2019-01-17T18:12:12Z</time>
      </trkpt>
      <trkpt lat="36.958508" lon="-4.658515">
        <ele>715.06</ele>
        <time>2019-01-17T18:12:27Z</time>
      </trkpt>
      <trkpt lat="36.958787" lon="-4.659085">
        <ele>716.24</ele>
        <time>2019-01-17T18:13:12Z</time>
      </trkpt>
      <trkpt lat="36.958851" lon="-4.659986">
        <ele>718.41</ele>
        <time>2019-01-17T18:14:12Z</time>
      </trkpt>
      <trkpt lat="36.959661" lon="-4.660405">
        <ele>721.25</ele>
        <time>2019-01-17T18:14:53Z</time>
      </trkpt>
      <trkpt lat="36.959983" lon="-4.660308">
        <ele>722.62</ele>
        <time>2019-01-17T18:15:00Z</time>
      </trkpt>
      <trkpt lat="36.960636" lon="-4.659617">
        <ele>719.61</ele>
        <time>2019-01-17T18:15:24Z</time>
      </trkpt>
      <trkpt lat="36.960823" lon="-4.659103">
        <ele>717.46</ele>
        <time>2019-01-17T18:15:35Z</time>
      </trkpt>
      <trkpt lat="36.960994" lon="-4.656865">
        <ele>721.61</ele>
        <time>2019-01-17T18:16:18Z</time>
      </trkpt>
      <trkpt lat="36.96182" lon="-4.655545">
        <ele>726.07</ele>
        <time>2019-01-17T18:16:58Z</time>
      </trkpt>
      <trkpt lat="36.962369" lon="-4.654956">
        <ele>723.66</ele>
        <time>2019-01-17T18:17:17Z</time>
      </trkpt>
      <trkpt lat="36.963646" lon="-4.652177">
        <ele>724.88</ele>
        <time>2019-01-17T18:18:18Z</time>
      </trkpt>
      <trkpt lat="36.964055" lon="-4.64981">
        <ele>726.65</ele>
        <time>2019-01-17T18:19:01Z</time>
      </trkpt>
      <trkpt lat="36.96453" lon="-4.648391">
        <ele>724.05</ele>
        <time>2019-01-17T18:19:31Z</time>
      </trkpt>
      <trkpt lat="36.9642" lon="-4.647966">
        <ele>726.69</ele>
        <time>2019-01-17T18:19:49Z</time>
      </trkpt>
      <trkpt lat="36.963374" lon="-4.647628">
        <ele>736.61</ele>
        <time>2019-01-17T18:20:48Z</time>
      </trkpt>
      <trkpt lat="36.963066" lon="-4.647344">
        <ele>740.5</ele>
        <time>2019-01-17T18:21:08Z</time>
      </trkpt>
      <trkpt lat="36.963034" lon="-4.646352">
        <ele>737.61</ele>
        <time>2019-01-17T18:21:39Z</time>
      </trkpt>
      <trkpt lat="36.962658" lon="-4.644918">
        <ele>744.64</ele>
        <time>2019-01-17T18:22:19Z</time>
      </trkpt>
      <trkpt lat="36.962622" lon="-4.643771">
        <ele>745.42</ele>
        <time>2019-01-17T18:23:08Z</time>
      </trkpt>
      <trkpt lat="36.96201" lon="-4.643143">
        <ele>758.88</ele>
        <time>2019-01-17T18:23:52Z</time>
      </trkpt>
      <trkpt lat="36.962037" lon="-4.642501">
        <ele>756.47</ele>
        <time>2019-01-17T18:24:24Z</time>
      </trkpt>
      <trkpt lat="36.961598" lon="-4.640744">
        <ele>767.61</ele>
        <time>2019-01-17T18:25:56Z</time>
      </trkpt>
      <trkpt lat="36.96171" lon="-4.639632">
        <ele>768.61</ele>
        <time>2019-01-17T18:26:21Z</time>
      </trkpt>
      <trkpt lat="36.962712" lon="-4.639348">
        <ele>762.68</ele>
        <time>2019-01-17T18:26:35Z</time>
      </trkpt>
      <trkpt lat="36.963376" lon="-4.637961">
        <ele>770.83</ele>
        <time>2019-01-17T18:27:09Z</time>
      </trkpt>
      <trkpt lat="36.965367" lon="-4.635196">
        <ele>747.61</ele>
        <time>2019-01-17T18:27:47Z</time>
      </trkpt>
      <trkpt lat="36.966318" lon="-4.634365">
        <ele>731.01</ele>
        <time>2019-01-17T18:27:55Z</time>
      </trkpt>
      <trkpt lat="36.967244" lon="-4.633246">
        <ele>713.82</ele>
        <time>2019-01-17T18:28:07Z</time>
      </trkpt>
      <trkpt lat="36.967652" lon="-4.63381">
        <ele>705.83</ele>
        <time>2019-01-17T18:28:14Z</time>
      </trkpt>
      <trkpt lat="36.968281" lon="-4.633601">
        <ele>695.01</ele>
        <time>2019-01-17T18:28:20Z</time>
      </trkpt>
      <trkpt lat="36.968569" lon="-4.632952">
        <ele>687.63</ele>
        <time>2019-01-17T18:28:25Z</time>
      </trkpt>
      <trkpt lat="36.968685" lon="-4.632055">
        <ele>682.66</ele>
        <time>2019-01-17T18:28:31Z</time>
      </trkpt>
      <trkpt lat="36.968893" lon="-4.63159">
        <ele>679.69</ele>
        <time>2019-01-17T18:28:35Z</time>
      </trkpt>
      <trkpt lat="36.969712" lon="-4.631359">
        <ele>671.23</ele>
        <time>2019-01-17T18:28:42Z</time>
      </trkpt>
      <trkpt lat="36.970313" lon="-4.631288">
        <ele>669.01</ele>
        <time>2019-01-17T18:28:46Z</time>
      </trkpt>
      <trkpt lat="36.971481" lon="-4.630391">
        <ele>670.45</ele>
        <time>2019-01-17T18:28:58Z</time>
      </trkpt>
      <trkpt lat="36.972781" lon="-4.630014">
        <ele>666.24</ele>
        <time>2019-01-17T18:29:16Z</time>
      </trkpt>
      <trkpt lat="36.973798" lon="-4.628304">
        <ele>674.47</ele>
        <time>2019-01-17T18:29:55Z</time>
      </trkpt>
      <trkpt lat="36.974644" lon="-4.628386">
        <ele>666.83</ele>
        <time>2019-01-17T18:30:10Z</time>
      </trkpt>
      <trkpt lat="36.978831" lon="-4.626503">
        <ele>650.41</ele>
        <time>2019-01-17T18:31:02Z</time>
      </trkpt>
      <trkpt lat="36.979484" lon="-4.62508">
        <ele>648.21</ele>
        <time>2019-01-17T18:31:31Z</time>
      </trkpt>
      <trkpt lat="36.980132" lon="-4.624138">
        <ele>645.28</ele>
        <time>2019-01-17T18:31:49Z</time>
      </trkpt>
      <trkpt lat="36.982457" lon="-4.621824">
        <ele>640.66</ele>
        <time>2019-01-17T18:32:40Z</time>
      </trkpt>
      <trkpt lat="36.983765" lon="-4.621427">
        <ele>636.09</ele>
        <time>2019-01-17T18:33:01Z</time>
      </trkpt>
      <trkpt lat="36.984781" lon="-4.621253">
        <ele>633.7</ele>
        <time>2019-01-17T18:33:16Z</time>
      </trkpt>
      <trkpt lat="36.988633" lon="-4.617991">
        <ele>627.81</ele>
        <time>2019-01-17T18:34:30Z</time>
      </trkpt>
      <trkpt lat="36.99044" lon="-4.61496">
        <ele>624.81</ele>
        <time>2019-01-17T18:35:30Z</time>
      </trkpt>
      <trkpt lat="36.991424" lon="-4.611495">
        <ele>624.66</ele>
        <time>2019-01-17T18:36:22Z</time>
      </trkpt>
      <trkpt lat="36.995005" lon="-4.605879">
        <ele>617.42</ele>
        <time>2019-01-17T18:37:57Z</time>
      </trkpt>
      <trkpt lat="36.996543" lon="-4.604382">
        <ele>610.01</ele>
        <time>2019-01-17T18:38:28Z</time>
      </trkpt>
      <trkpt lat="36.99758" lon="-4.603805">
        <ele>609.42</ele>
        <time>2019-01-17T18:38:43Z</time>
      </trkpt>
      <trkpt lat="36.998431" lon="-4.601823">
        <ele>607.41</ele>
        <time>2019-01-17T18:39:14Z</time>
      </trkpt>
      <trkpt lat="36.998834" lon="-4.599865">
        <ele>611.21</ele>
        <time>2019-01-17T18:40:03Z</time>
      </trkpt>
      <trkpt lat="36.999366" lon="-4.594542">
        <ele>625.23</ele>
        <time>2019-01-17T18:42:12Z</time>
      </trkpt>
      <trkpt lat="36.999548" lon="-4.593915">
        <ele>626.62</ele>
        <time>2019-01-17T18:42:29Z</time>
      </trkpt>
      <trkpt lat="37.000242" lon="-4.59463">
        <ele>630.45</ele>
        <time>2019-01-17T18:42:55Z</time>
      </trkpt>
      <trkpt lat="37.000759" lon="-4.595726">
        <ele>629.61</ele>
        <time>2019-01-17T18:43:20Z</time>
      </trkpt>
      <trkpt lat="37.001212" lon="-4.599221">
        <ele>626.62</ele>
        <time>2019-01-17T18:44:26Z</time>
      </trkpt>
      <trkpt lat="37.001955" lon="-4.600806">
        <ele>623.05</ele>
        <time>2019-01-17T18:44:51Z</time>
      </trkpt>
      <trkpt lat="37.00474" lon="-4.602785">
        <ele>618.46</ele>
        <time>2019-01-17T18:45:58Z</time>
      </trkpt>
      <trkpt lat="37.005371" lon="-4.603631">
        <ele>621.46</ele>
        <time>2019-01-17T18:46:36Z</time>
      </trkpt>
      <trkpt lat="37.006344" lon="-4.603672">
        <ele>628.01</ele>
        <time>2019-01-17T18:47:06Z</time>
      </trkpt>
      <trkpt lat="37.006873" lon="-4.603833">
        <ele>612.21</ele>
        <time>2019-01-17T18:47:19Z</time>
      </trkpt>
      <trkpt lat="37.007165" lon="-4.60372">
        <ele>606.67</ele>
        <time>2019-01-17T18:47:26Z</time>
      </trkpt>
      <trkpt lat="37.007579" lon="-4.602841">
        <ele>604.65</ele>
        <time>2019-01-17T18:47:47Z</time>
      </trkpt>
      <trkpt lat="37.00766" lon="-4.601758">
        <ele>615.7</ele>
        <time>2019-01-17T18:48:13Z</time>
      </trkpt>
      <trkpt lat="37.007998" lon="-4.600381">
        <ele>614.28</ele>
        <time>2019-01-17T18:48:39Z</time>
      </trkpt>
      <trkpt lat="37.008991" lon="-4.59834">
        <ele>603.46</ele>
        <time>2019-01-17T18:49:22Z</time>
      </trkpt>
      <trkpt lat="37.008979" lon="-4.597747">
        <ele>608.41</ele>
        <time>2019-01-17T18:49:34Z</time>
      </trkpt>
      <trkpt lat="37.008987" lon="-4.597133">
        <ele>612.48</ele>
        <time>2019-01-17T18:49:47Z</time>
      </trkpt>
      <trkpt lat="37.009203" lon="-4.596786">
        <ele>601.29</ele>
        <time>2019-01-17T18:49:54Z</time>
      </trkpt>
      <trkpt lat="37.009376" lon="-4.595672">
        <ele>596.25</ele>
        <time>2019-01-17T18:50:27Z</time>
      </trkpt>
      <trkpt lat="37.00917" lon="-4.595242">
        <ele>609.22</ele>
        <time>2019-01-17T18:50:46Z</time>
      </trkpt>
      <trkpt lat="37.009561" lon="-4.594494">
        <ele>587.21</ele>
        <time>2019-01-17T18:51:01Z</time>
      </trkpt>
      <trkpt lat="37.009167" lon="-4.593882">
        <ele>610.42</ele>
        <time>2019-01-17T18:51:15Z</time>
      </trkpt>
      <trkpt lat="37.009153" lon="-4.593539">
        <ele>610.01</ele>
        <time>2019-01-17T18:51:21Z</time>
      </trkpt>
      <trkpt lat="37.009446" lon="-4.593216">
        <ele>590.65</ele>
        <time>2019-01-17T18:51:29Z</time>
      </trkpt>
      <trkpt lat="37.009176" lon="-4.591957">
        <ele>607.01</ele>
        <time>2019-01-17T18:51:53Z</time>
      </trkpt>
      <trkpt lat="37.00934" lon="-4.591576">
        <ele>602.28</ele>
        <time>2019-01-17T18:52:01Z</time>
      </trkpt>
      <trkpt lat="37.009336" lon="-4.59102">
        <ele>609.27</ele>
        <time>2019-01-17T18:52:11Z</time>
      </trkpt>
      <trkpt lat="37.009892" lon="-4.590172">
        <ele>584.68</ele>
        <time>2019-01-17T18:52:28Z</time>
      </trkpt>
      <trkpt lat="37.00988" lon="-4.58895">
        <ele>605.85</ele>
        <time>2019-01-17T18:52:48Z</time>
      </trkpt>
      <trkpt lat="37.010152" lon="-4.588671">
        <ele>590.66</ele>
        <time>2019-01-17T18:52:56Z</time>
      </trkpt>
      <trkpt lat="37.010198" lon="-4.588073">
        <ele>590.61</ele>
        <time>2019-01-17T18:53:06Z</time>
      </trkpt>
      <trkpt lat="37.009998" lon="-4.587032">
        <ele>616.63</ele>
        <time>2019-01-17T18:53:26Z</time>
      </trkpt>
      <trkpt lat="37.010419" lon="-4.586697">
        <ele>607.46</ele>
        <time>2019-01-17T18:53:38Z</time>
      </trkpt>
      <trkpt lat="37.010536" lon="-4.586118">
        <ele>622.65</ele>
        <time>2019-01-17T18:53:50Z</time>
      </trkpt>
      <trkpt lat="37.011206" lon="-4.585835">
        <ele>590.03</ele>
        <time>2019-01-17T18:54:06Z</time>
      </trkpt>
      <trkpt lat="37.011404" lon="-4.585501">
        <ele>584.86</ele>
        <time>2019-01-17T18:54:15Z</time>
      </trkpt>
      <trkpt lat="37.011257" lon="-4.58483">
        <ele>602.24</ele>
        <time>2019-01-17T18:54:34Z</time>
      </trkpt>
      <trkpt lat="37.011705" lon="-4.583805">
        <ele>581.26</ele>
        <time>2019-01-17T18:55:00Z</time>
      </trkpt>
      <trkpt lat="37.011124" lon="-4.582747">
        <ele>612.61</ele>
        <time>2019-01-17T18:55:23Z</time>
      </trkpt>
      <trkpt lat="37.011487" lon="-4.582393">
        <ele>604.24</ele>
        <time>2019-01-17T18:55:36Z</time>
      </trkpt>
      <trkpt lat="37.011513" lon="-4.58194">
        <ele>614.28</ele>
        <time>2019-01-17T18:55:45Z</time>
      </trkpt>
      <trkpt lat="37.012063" lon="-4.581705">
        <ele>595.24</ele>
        <time>2019-01-17T18:55:59Z</time>
      </trkpt>
      <trkpt lat="37.012211" lon="-4.581486">
        <ele>591.84</ele>
        <time>2019-01-17T18:56:05Z</time>
      </trkpt>
      <trkpt lat="37.012548" lon="-4.57976">
        <ele>586.03</ele>
        <time>2019-01-17T18:56:36Z</time>
      </trkpt>
      <trkpt lat="37.012333" lon="-4.579091">
        <ele>600.27</ele>
        <time>2019-01-17T18:56:48Z</time>
      </trkpt>
      <trkpt lat="37.012501" lon="-4.57841">
        <ele>603.68</ele>
        <time>2019-01-17T18:57:00Z</time>
      </trkpt>
      <trkpt lat="37.012797" lon="-4.57801">
        <ele>604.46</ele>
        <time>2019-01-17T18:57:10Z</time>
      </trkpt>
      <trkpt lat="37.013181" lon="-4.577906">
        <ele>596.6</ele>
        <time>2019-01-17T18:57:35Z</time>
      </trkpt>
      <trkpt lat="37.013444" lon="-4.577488">
        <ele>591.02</ele>
        <time>2019-01-17T18:57:51Z</time>
      </trkpt>
      <trkpt lat="37.013665" lon="-4.577447">
        <ele>584.01</ele>
        <time>2019-01-17T18:58:06Z</time>
      </trkpt>
      <trkpt lat="37.014166" lon="-4.575114">
        <ele>580.87</ele>
        <time>2019-01-17T18:58:30Z</time>
      </trkpt>
      <trkpt lat="37.014433" lon="-4.575161">
        <ele>572.22</ele>
        <time>2019-01-17T18:58:35Z</time>
      </trkpt>
      <trkpt lat="37.014329" lon="-4.575775">
        <ele>566.44</ele>
        <time>2019-01-17T18:58:45Z</time>
      </trkpt>
      <trkpt lat="37.015144" lon="-4.574883">
        <ele>554.41</ele>
        <time>2019-01-17T18:59:01Z</time>
      </trkpt>
      <trkpt lat="37.015271" lon="-4.573539">
        <ele>554.29</ele>
        <time>2019-01-17T18:59:24Z</time>
      </trkpt>
      <trkpt lat="37.015148" lon="-4.572757">
        <ele>556.28</ele>
        <time>2019-01-17T18:59:34Z</time>
      </trkpt>
      <trkpt lat="37.015536" lon="-4.572466">
        <ele>551.61</ele>
        <time>2019-01-17T18:59:40Z</time>
      </trkpt>
      <trkpt lat="37.017132" lon="-4.571977">
        <ele>525.5</ele>
        <time>2019-01-17T18:59:57Z</time>
      </trkpt>
      <trkpt lat="37.017286" lon="-4.570166">
        <ele>523.6</ele>
        <time>2019-01-17T19:00:27Z</time>
      </trkpt>
      <trkpt lat="37.016505" lon="-4.567965">
        <ele>535.62</ele>
        <time>2019-01-17T19:01:34Z</time>
      </trkpt>
      <trkpt lat="37.017412" lon="-4.567025">
        <ele>530.01</ele>
        <time>2019-01-17T19:02:01Z</time>
      </trkpt>
      <trkpt lat="37.017181" lon="-4.56612">
        <ele>532.84</ele>
        <time>2019-01-17T19:02:20Z</time>
      </trkpt>
      <trkpt lat="37.019019" lon="-4.565113">
        <ele>518.46</ele>
        <time>2019-01-17T19:02:48Z</time>
      </trkpt>
      <trkpt lat="37.020314" lon="-4.565435">
        <ele>515.24</ele>
        <time>2019-01-17T19:03:09Z</time>
      </trkpt>
      <trkpt lat="37.020089" lon="-4.564637">
        <ele>516.66</ele>
        <time>2019-01-17T19:03:39Z</time>
      </trkpt>
      <trkpt lat="37.020832" lon="-4.563993">
        <ele>515.82</ele>
        <time>2019-01-17T19:03:58Z</time>
      </trkpt>
      <trkpt lat="37.020631" lon="-4.563485">
        <ele>516.61</ele>
        <time>2019-01-17T19:04:11Z</time>
      </trkpt>
      <trkpt lat="37.018939" lon="-4.562287">
        <ele>518.04</ele>
        <time>2019-01-17T19:05:27Z</time>
      </trkpt>
      <trkpt lat="37.018952" lon="-4.562225">
        <ele>518.05</ele>
        <time>2019-01-17T19:05:36Z</time>
      </trkpt>
      <trkpt lat="37.019311" lon="-4.562411">
        <ele>511.44</ele>
        <time>2019-01-18T06:24:40Z</time>
      </trkpt>
      <trkpt lat="37.018975" lon="-4.562383">
        <ele>511.89</ele>
        <time>2019-01-18T06:24:53Z</time>
      </trkpt>
      <trkpt lat="37.01813" lon="-4.561347">
        <ele>513.84</ele>
        <time>2019-01-18T06:26:06Z</time>
      </trkpt>
      <trkpt lat="37.016874" lon="-4.559785">
        <ele>515.86</ele>
        <time>2019-01-18T06:27:00Z</time>
      </trkpt>
      <trkpt lat="37.016328" lon="-4.559434">
        <ele>515.82</ele>
        <time>2019-01-18T06:27:11Z</time>
      </trkpt>
      <trkpt lat="37.016317" lon="-4.559122">
        <ele>515.07</ele>
        <time>2019-01-18T06:27:16Z</time>
      </trkpt>
      <trkpt lat="37.016733" lon="-4.557928">
        <ele>510.46</ele>
        <time>2019-01-18T06:27:35Z</time>
      </trkpt>
      <trkpt lat="37.016296" lon="-4.557571">
        <ele>511.67</ele>
        <time>2019-01-18T06:28:02Z</time>
      </trkpt>
      <trkpt lat="37.01652" lon="-4.557002">
        <ele>511.69</ele>
        <time>2019-01-18T06:28:17Z</time>
      </trkpt>
      <trkpt lat="37.016823" lon="-4.55679">
        <ele>509.44</ele>
        <time>2019-01-18T06:28:26Z</time>
      </trkpt>
      <trkpt lat="37.016522" lon="-4.556321">
        <ele>509.42</ele>
        <time>2019-01-18T06:28:49Z</time>
      </trkpt>
      <trkpt lat="37.01603" lon="-4.555662">
        <ele>517.44</ele>
        <time>2019-01-18T06:29:45Z</time>
      </trkpt>
      <trkpt lat="37.015948" lon="-4.555359">
        <ele>520.01</ele>
        <time>2019-01-18T06:30:04Z</time>
      </trkpt>
      <trkpt lat="37.015909" lon="-4.555149">
        <ele>520.88</ele>
        <time>2019-01-18T06:30:15Z</time>
      </trkpt>
      <trkpt lat="37.015268" lon="-4.554979">
        <ele>521.61</ele>
        <time>2019-01-18T06:30:43Z</time>
      </trkpt>
      <trkpt lat="37.014926" lon="-4.554946">
        <ele>518.62</ele>
        <time>2019-01-18T06:30:49Z</time>
      </trkpt>
      <trkpt lat="37.014523" lon="-4.554838">
        <ele>515.04</ele>
        <time>2019-01-18T06:30:57Z</time>
      </trkpt>
      <trkpt lat="37.014026" lon="-4.555114">
        <ele>513.46</ele>
        <time>2019-01-18T06:31:10Z</time>
      </trkpt>
      <trkpt lat="37.01347" lon="-4.555003">
        <ele>513.41</ele>
        <time>2019-01-18T06:31:31Z</time>
      </trkpt>
      <trkpt lat="37.012587" lon="-4.5558">
        <ele>511.48</ele>
        <time>2019-01-18T06:32:14Z</time>
      </trkpt>
      <trkpt lat="37.01209" lon="-4.556206">
        <ele>512.63</ele>
        <time>2019-01-18T06:32:36Z</time>
      </trkpt>
      <trkpt lat="37.012019" lon="-4.556891">
        <ele>517.62</ele>
        <time>2019-01-18T06:33:07Z</time>
      </trkpt>
      <trkpt lat="37.011888" lon="-4.556975">
        <ele>517.61</ele>
        <time>2019-01-18T06:33:12Z</time>
      </trkpt>
      <trkpt lat="37.011589" lon="-4.556692">
        <ele>517.62</ele>
        <time>2019-01-18T06:33:21Z</time>
      </trkpt>
      <trkpt lat="37.011397" lon="-4.556293">
        <ele>517.65</ele>
        <time>2019-01-18T06:33:37Z</time>
      </trkpt>
      <trkpt lat="37.010975" lon="-4.555971">
        <ele>517.61</ele>
        <time>2019-01-18T06:34:29Z</time>
      </trkpt>
      <trkpt lat="37.010705" lon="-4.555419">
        <ele>519.61</ele>
        <time>2019-01-18T06:39:40Z</time>
      </trkpt>
      <trkpt lat="37.010183" lon="-4.554948">
        <ele>521.82</ele>
        <time>2019-01-18T06:39:59Z</time>
      </trkpt>
      <trkpt lat="37.00926" lon="-4.554564">
        <ele>526.04</ele>
        <time>2019-01-18T06:40:40Z</time>
      </trkpt>
      <trkpt lat="37.008631" lon="-4.554816">
        <ele>528.27</ele>
        <time>2019-01-18T06:41:07Z</time>
      </trkpt>
      <trkpt lat="37.008224" lon="-4.55523">
        <ele>530.28</ele>
        <time>2019-01-18T06:41:25Z</time>
      </trkpt>
      <trkpt lat="37.007804" lon="-4.555257">
        <ele>530.22</ele>
        <time>2019-01-18T06:41:40Z</time>
      </trkpt>
      <trkpt lat="37.007228" lon="-4.554964">
        <ele>530.22</ele>
        <time>2019-01-18T06:41:57Z</time>
      </trkpt>
      <trkpt lat="37.006689" lon="-4.55433">
        <ele>532.24</ele>
        <time>2019-01-18T06:42:27Z</time>
      </trkpt>
      <trkpt lat="37.006147" lon="-4.554002">
        <ele>534.41</ele>
        <time>2019-01-18T06:42:48Z</time>
      </trkpt>
      <trkpt lat="37.004843" lon="-4.553652">
        <ele>534.5</ele>
        <time>2019-01-18T06:43:24Z</time>
      </trkpt>
      <trkpt lat="37.004131" lon="-4.552855">
        <ele>536.49</ele>
        <time>2019-01-18T06:43:55Z</time>
      </trkpt>
      <trkpt lat="37.003753" lon="-4.552744">
        <ele>538.62</ele>
        <time>2019-01-18T06:44:12Z</time>
      </trkpt>
      <trkpt lat="37.003035" lon="-4.552933">
        <ele>542.83</ele>
        <time>2019-01-18T06:44:40Z</time>
      </trkpt>
      <trkpt lat="37.002864" lon="-4.55323">
        <ele>542.89</ele>
        <time>2019-01-18T06:44:54Z</time>
      </trkpt>
      <trkpt lat="37.002667" lon="-4.553919">
        <ele>542.85</ele>
        <time>2019-01-18T06:45:13Z</time>
      </trkpt>
      <trkpt lat="37.002251" lon="-4.554023">
        <ele>542.9</ele>
        <time>2019-01-18T06:45:27Z</time>
      </trkpt>
      <trkpt lat="37.00193" lon="-4.55398">
        <ele>542.86</ele>
        <time>2019-01-18T06:45:38Z</time>
      </trkpt>
      <trkpt lat="37.001281" lon="-4.554201">
        <ele>542.81</ele>
        <time>2019-01-18T06:45:58Z</time>
      </trkpt>
      <trkpt lat="37.001097" lon="-4.554372">
        <ele>542.84</ele>
        <time>2019-01-18T06:46:05Z</time>
      </trkpt>
      <trkpt lat="37.00103" lon="-4.554925">
        <ele>545.08</ele>
        <time>2019-01-18T06:46:25Z</time>
      </trkpt>
      <trkpt lat="37.000583" lon="-4.554534">
        <ele>545.06</ele>
        <time>2019-01-18T06:46:44Z</time>
      </trkpt>
      <trkpt lat="36.998495" lon="-4.553962">
        <ele>549.81</ele>
        <time>2019-01-18T06:47:52Z</time>
      </trkpt>
      <trkpt lat="36.998001" lon="-4.553837">
        <ele>553.26</ele>
        <time>2019-01-18T06:48:13Z</time>
      </trkpt>
      <trkpt lat="36.997363" lon="-4.553435">
        <ele>555.24</ele>
        <time>2019-01-18T06:48:41Z</time>
      </trkpt>
      <trkpt lat="36.997088" lon="-4.553307">
        <ele>557.21</ele>
        <time>2019-01-18T06:48:52Z</time>
      </trkpt>
      <trkpt lat="36.996559" lon="-4.552598">
        <ele>559.47</ele>
        <time>2019-01-18T06:49:23Z</time>
      </trkpt>
      <trkpt lat="36.996318" lon="-4.551729">
        <ele>565.82</ele>
        <time>2019-01-18T06:49:55Z</time>
      </trkpt>
      <trkpt lat="36.995892" lon="-4.55119">
        <ele>568.07</ele>
        <time>2019-01-18T06:50:20Z</time>
      </trkpt>
      <trkpt lat="36.995337" lon="-4.550849">
        <ele>570.04</ele>
        <time>2019-01-18T06:50:50Z</time>
      </trkpt>
      <trkpt lat="36.995297" lon="-4.550735">
        <ele>570.05</ele>
        <time>2019-01-18T06:50:56Z</time>
      </trkpt>
      <trkpt lat="36.995665" lon="-4.550376">
        <ele>570.07</ele>
        <time>2019-01-18T06:51:14Z</time>
      </trkpt>
      <trkpt lat="36.996274" lon="-4.550294">
        <ele>570.01</ele>
        <time>2019-01-18T06:51:41Z</time>
      </trkpt>
      <trkpt lat="36.996397" lon="-4.549705">
        <ele>574.27</ele>
        <time>2019-01-18T06:52:10Z</time>
      </trkpt>
      <trkpt lat="36.995777" lon="-4.549832">
        <ele>576.04</ele>
        <time>2019-01-18T06:54:57Z</time>
      </trkpt>
      <trkpt lat="36.995591" lon="-4.549748">
        <ele>576.09</ele>
        <time>2019-01-18T06:55:11Z</time>
      </trkpt>
      <trkpt lat="36.995231" lon="-4.549271">
        <ele>576.03</ele>
        <time>2019-01-18T06:55:40Z</time>
      </trkpt>
      <trkpt lat="36.99436" lon="-4.548329">
        <ele>576.06</ele>
        <time>2019-01-18T06:57:41Z</time>
      </trkpt>
      <trkpt lat="36.993766" lon="-4.547349">
        <ele>576.09</ele>
        <time>2019-01-18T06:58:27Z</time>
      </trkpt>
      <trkpt lat="36.99335" lon="-4.546147">
        <ele>578.01</ele>
        <time>2019-01-18T06:59:14Z</time>
      </trkpt>
      <trkpt lat="36.993105" lon="-4.54592">
        <ele>578.04</ele>
        <time>2019-01-18T06:59:27Z</time>
      </trkpt>
      <trkpt lat="36.992874" lon="-4.545917">
        <ele>578.03</ele>
        <time>2019-01-18T06:59:34Z</time>
      </trkpt>
      <trkpt lat="36.992679" lon="-4.546137">
        <ele>578.1</ele>
        <time>2019-01-18T06:59:40Z</time>
      </trkpt>
      <trkpt lat="36.992767" lon="-4.546494">
        <ele>576.01</ele>
        <time>2019-01-18T06:59:53Z</time>
      </trkpt>
      <trkpt lat="36.992025" lon="-4.545251">
        <ele>580.21</ele>
        <time>2019-01-18T07:00:36Z</time>
      </trkpt>
      <trkpt lat="36.991877" lon="-4.544108">
        <ele>580.21</ele>
        <time>2019-01-18T07:01:06Z</time>
      </trkpt>
      <trkpt lat="36.990697" lon="-4.542336">
        <ele>580.21</ele>
        <time>2019-01-18T07:01:55Z</time>
      </trkpt>
      <trkpt lat="36.989736" lon="-4.542107">
        <ele>582.26</ele>
        <time>2019-01-18T07:02:25Z</time>
      </trkpt>
      <trkpt lat="36.988704" lon="-4.541848">
        <ele>584.29</ele>
        <time>2019-01-18T07:03:00Z</time>
      </trkpt>
      <trkpt lat="36.987611" lon="-4.541276">
        <ele>584.24</ele>
        <time>2019-01-18T07:03:31Z</time>
      </trkpt>
      <trkpt lat="36.986986" lon="-4.541405">
        <ele>584.28</ele>
        <time>2019-01-18T07:03:51Z</time>
      </trkpt>
      <trkpt lat="36.986772" lon="-4.541523">
        <ele>584.26</ele>
        <time>2019-01-18T07:03:58Z</time>
      </trkpt>
      <trkpt lat="36.986592" lon="-4.541499">
        <ele>584.3</ele>
        <time>2019-01-18T07:04:03Z</time>
      </trkpt>
      <trkpt lat="36.986354" lon="-4.540121">
        <ele>586.48</ele>
        <time>2019-01-18T07:04:34Z</time>
      </trkpt>
      <trkpt lat="36.986066" lon="-4.539636">
        <ele>586.4</ele>
        <time>2019-01-18T07:04:53Z</time>
      </trkpt>
      <trkpt lat="36.985707" lon="-4.539213">
        <ele>586.5</ele>
        <time>2019-01-18T07:05:20Z</time>
      </trkpt>
      <trkpt lat="36.985185" lon="-4.536883">
        <ele>586.41</ele>
        <time>2019-01-18T07:06:44Z</time>
      </trkpt>
      <trkpt lat="36.984697" lon="-4.536005">
        <ele>588.43</ele>
        <time>2019-01-18T07:07:23Z</time>
      </trkpt>
      <trkpt lat="36.984178" lon="-4.534636">
        <ele>592.42</ele>
        <time>2019-01-18T07:08:09Z</time>
      </trkpt>
      <trkpt lat="36.983994" lon="-4.53398">
        <ele>594.45</ele>
        <time>2019-01-18T07:08:36Z</time>
      </trkpt>
      <trkpt lat="36.98372" lon="-4.533747">
        <ele>594.48</ele>
        <time>2019-01-18T07:08:59Z</time>
      </trkpt>
      <trkpt lat="36.983718" lon="-4.533943">
        <ele>596.21</ele>
        <time>2019-01-18T07:09:14Z</time>
      </trkpt>
      <trkpt lat="36.983838" lon="-4.534196">
        <ele>598.61</ele>
        <time>2019-01-18T07:10:53Z</time>
      </trkpt>
      <trkpt lat="36.983395" lon="-4.533983">
        <ele>602.82</ele>
        <time>2019-01-18T07:11:23Z</time>
      </trkpt>
      <trkpt lat="36.983242" lon="-4.533594">
        <ele>605.27</ele>
        <time>2019-01-18T07:11:45Z</time>
      </trkpt>
      <trkpt lat="36.983488" lon="-4.53274">
        <ele>611.46</ele>
        <time>2019-01-18T07:12:28Z</time>
      </trkpt>
      <trkpt lat="36.983663" lon="-4.532279">
        <ele>615.05</ele>
        <time>2019-01-18T07:12:47Z</time>
      </trkpt>
      <trkpt lat="36.983738" lon="-4.531516">
        <ele>615.01</ele>
        <time>2019-01-18T07:13:09Z</time>
      </trkpt>
      <trkpt lat="36.983963" lon="-4.530624">
        <ele>619.24</ele>
        <time>2019-01-18T07:13:39Z</time>
      </trkpt>
      <trkpt lat="36.984025" lon="-4.529189">
        <ele>623.25</ele>
        <time>2019-01-18T07:14:29Z</time>
      </trkpt>
      <trkpt lat="36.98423" lon="-4.527287">
        <ele>633.61</ele>
        <time>2019-01-18T07:15:56Z</time>
      </trkpt>
      <trkpt lat="36.984417" lon="-4.526585">
        <ele>637.89</ele>
        <time>2019-01-18T07:16:27Z</time>
      </trkpt>
      <trkpt lat="36.984443" lon="-4.525717">
        <ele>639.88</ele>
        <time>2019-01-18T07:16:59Z</time>
      </trkpt>
      <trkpt lat="36.984454" lon="-4.524186">
        <ele>644.02</ele>
        <time>2019-01-18T07:17:47Z</time>
      </trkpt>
      <trkpt lat="36.984091" lon="-4.522433">
        <ele>648.21</ele>
        <time>2019-01-18T07:18:44Z</time>
      </trkpt>
      <trkpt lat="36.983467" lon="-4.520163">
        <ele>656.49</ele>
        <time>2019-01-18T07:19:54Z</time>
      </trkpt>
      <trkpt lat="36.983275" lon="-4.5178">
        <ele>667.65</ele>
        <time>2019-01-18T07:21:13Z</time>
      </trkpt>
      <trkpt lat="36.983339" lon="-4.516847">
        <ele>673.02</ele>
        <time>2019-01-18T07:21:45Z</time>
      </trkpt>
      <trkpt lat="36.983382" lon="-4.516132">
        <ele>675.06</ele>
        <time>2019-01-18T07:22:05Z</time>
      </trkpt>
      <trkpt lat="36.982994" lon="-4.513065">
        <ele>681.09</ele>
        <time>2019-01-18T07:23:31Z</time>
      </trkpt>
      <trkpt lat="36.982693" lon="-4.511503">
        <ele>689.49</ele>
        <time>2019-01-18T07:24:32Z</time>
      </trkpt>
      <trkpt lat="36.982782" lon="-4.510918">
        <ele>691.42</ele>
        <time>2019-01-18T07:24:51Z</time>
      </trkpt>
      <trkpt lat="36.982723" lon="-4.510383">
        <ele>693.67</ele>
        <time>2019-01-18T07:25:10Z</time>
      </trkpt>
      <trkpt lat="36.982871" lon="-4.50956">
        <ele>697.64</ele>
        <time>2019-01-18T07:25:43Z</time>
      </trkpt>
      <trkpt lat="36.983161" lon="-4.509095">
        <ele>701.85</ele>
        <time>2019-01-18T07:26:08Z</time>
      </trkpt>
      <trkpt lat="36.983129" lon="-4.508059">
        <ele>703.87</ele>
        <time>2019-01-18T07:26:42Z</time>
      </trkpt>
      <trkpt lat="36.982795" lon="-4.507582">
        <ele>703.89</ele>
        <time>2019-01-18T07:26:51Z</time>
      </trkpt>
      <trkpt lat="36.982428" lon="-4.507177">
        <ele>701.85</ele>
        <time>2019-01-18T07:26:57Z</time>
      </trkpt>
      <trkpt lat="36.981877" lon="-4.506158">
        <ele>697.21</ele>
        <time>2019-01-18T07:27:09Z</time>
      </trkpt>
      <trkpt lat="36.981735" lon="-4.505447">
        <ele>696.09</ele>
        <time>2019-01-18T07:27:19Z</time>
      </trkpt>
      <trkpt lat="36.98166" lon="-4.504829">
        <ele>694.81</ele>
        <time>2019-01-18T07:27:29Z</time>
      </trkpt>
      <trkpt lat="36.981633" lon="-4.504594">
        <ele>693.23</ele>
        <time>2019-01-18T07:27:36Z</time>
      </trkpt>
      <trkpt lat="36.98176" lon="-4.503858">
        <ele>693.27</ele>
        <time>2019-01-18T07:27:57Z</time>
      </trkpt>
      <trkpt lat="36.981733" lon="-4.503082">
        <ele>693.26</ele>
        <time>2019-01-18T07:28:22Z</time>
      </trkpt>
      <trkpt lat="36.981594" lon="-4.502911">
        <ele>693.26</ele>
        <time>2019-01-18T07:28:32Z</time>
      </trkpt>
      <trkpt lat="36.981428" lon="-4.502763">
        <ele>693.22</ele>
        <time>2019-01-18T07:28:40Z</time>
      </trkpt>
      <trkpt lat="36.981688" lon="-4.502593">
        <ele>695.21</ele>
        <time>2019-01-18T07:31:19Z</time>
      </trkpt>
      <trkpt lat="36.982272" lon="-4.5025">
        <ele>695.22</ele>
        <time>2019-01-18T07:31:39Z</time>
      </trkpt>
      <trkpt lat="36.982769" lon="-4.502172">
        <ele>695.27</ele>
        <time>2019-01-18T07:31:57Z</time>
      </trkpt>
      <trkpt lat="36.982814" lon="-4.501718">
        <ele>696.81</ele>
        <time>2019-01-18T07:39:27Z</time>
      </trkpt>
      <trkpt lat="36.983182" lon="-4.501356">
        <ele>701.48</ele>
        <time>2019-01-18T07:40:03Z</time>
      </trkpt>
      <trkpt lat="36.983643" lon="-4.501117">
        <ele>703.62</ele>
        <time>2019-01-18T07:40:32Z</time>
      </trkpt>
      <trkpt lat="36.984078" lon="-4.500863">
        <ele>705.29</ele>
        <time>2019-01-18T07:40:57Z</time>
      </trkpt>
      <trkpt lat="36.984555" lon="-4.500345">
        <ele>710.26</ele>
        <time>2019-01-18T07:41:36Z</time>
      </trkpt>
      <trkpt lat="36.984604" lon="-4.49958">
        <ele>717.21</ele>
        <time>2019-01-18T07:42:18Z</time>
      </trkpt>
      <trkpt lat="36.984617" lon="-4.499168">
        <ele>720.01</ele>
        <time>2019-01-18T07:42:41Z</time>
      </trkpt>
      <trkpt lat="36.984811" lon="-4.498569">
        <ele>718.03</ele>
        <time>2019-01-18T07:42:53Z</time>
      </trkpt>
      <trkpt lat="36.985049" lon="-4.498429">
        <ele>715.28</ele>
        <time>2019-01-18T07:43:00Z</time>
      </trkpt>
      <trkpt lat="36.985394" lon="-4.497882">
        <ele>713.22</ele>
        <time>2019-01-18T07:43:14Z</time>
      </trkpt>
      <trkpt lat="36.985704" lon="-4.497747">
        <ele>713.29</ele>
        <time>2019-01-18T07:43:26Z</time>
      </trkpt>
      <trkpt lat="36.986058" lon="-4.49793">
        <ele>711.09</ele>
        <time>2019-01-18T07:43:38Z</time>
      </trkpt>
      <trkpt lat="36.986662" lon="-4.498268">
        <ele>708.49</ele>
        <time>2019-01-18T07:43:51Z</time>
      </trkpt>
      <trkpt lat="36.987328" lon="-4.497992">
        <ele>704.62</ele>
        <time>2019-01-18T07:44:04Z</time>
      </trkpt>
      <trkpt lat="36.987632" lon="-4.497694">
        <ele>703.01</ele>
        <time>2019-01-18T07:44:12Z</time>
      </trkpt>
      <trkpt lat="36.987951" lon="-4.497462">
        <ele>700.46</ele>
        <time>2019-01-18T07:44:20Z</time>
      </trkpt>
      <trkpt lat="36.988255" lon="-4.497124">
        <ele>700.46</ele>
        <time>2019-01-18T07:44:28Z</time>
      </trkpt>
      <trkpt lat="36.988538" lon="-4.497047">
        <ele>700.41</ele>
        <time>2019-01-18T07:44:34Z</time>
      </trkpt>
      <trkpt lat="36.988882" lon="-4.496372">
        <ele>698.28</ele>
        <time>2019-01-18T07:44:46Z</time>
      </trkpt>
      <trkpt lat="36.989097" lon="-4.495629">
        <ele>698.21</ele>
        <time>2019-01-18T07:44:58Z</time>
      </trkpt>
      <trkpt lat="36.988866" lon="-4.495197">
        <ele>696.88</ele>
        <time>2019-01-18T07:45:05Z</time>
      </trkpt>
      <trkpt lat="36.988685" lon="-4.494867">
        <ele>693.62</ele>
        <time>2019-01-18T07:45:13Z</time>
      </trkpt>
      <trkpt lat="36.988696" lon="-4.49453">
        <ele>693.7</ele>
        <time>2019-01-18T07:45:21Z</time>
      </trkpt>
      <trkpt lat="36.988905" lon="-4.494466">
        <ele>693.67</ele>
        <time>2019-01-18T07:45:30Z</time>
      </trkpt>
      <trkpt lat="36.989145" lon="-4.494123">
        <ele>693.64</ele>
        <time>2019-01-18T07:45:46Z</time>
      </trkpt>
      <trkpt lat="36.989302" lon="-4.493574">
        <ele>693.69</ele>
        <time>2019-01-18T07:46:03Z</time>
      </trkpt>
      <trkpt lat="36.989694" lon="-4.49324">
        <ele>693.68</ele>
        <time>2019-01-18T07:46:22Z</time>
      </trkpt>
      <trkpt lat="36.99019" lon="-4.492896">
        <ele>693.68</ele>
        <time>2019-01-18T07:46:41Z</time>
      </trkpt>
      <trkpt lat="36.990554" lon="-4.492072">
        <ele>693.64</ele>
        <time>2019-01-18T07:47:07Z</time>
      </trkpt>
      <trkpt lat="36.990385" lon="-4.491639">
        <ele>692.41</ele>
        <time>2019-01-18T07:47:15Z</time>
      </trkpt>
      <trkpt lat="36.990116" lon="-4.491261">
        <ele>689.85</ele>
        <time>2019-01-18T07:47:23Z</time>
      </trkpt>
      <trkpt lat="36.990474" lon="-4.490959">
        <ele>689.43</ele>
        <time>2019-01-18T07:47:46Z</time>
      </trkpt>
      <trkpt lat="36.990839" lon="-4.49022">
        <ele>691.49</ele>
        <time>2019-01-18T07:48:12Z</time>
      </trkpt>
      <trkpt lat="36.990741" lon="-4.489728">
        <ele>686.89</ele>
        <time>2019-01-18T07:48:28Z</time>
      </trkpt>
      <trkpt lat="36.99091" lon="-4.489355">
        <ele>686.83</ele>
        <time>2019-01-18T07:48:48Z</time>
      </trkpt>
      <trkpt lat="36.991195" lon="-4.489147">
        <ele>688.87</ele>
        <time>2019-01-18T07:49:04Z</time>
      </trkpt>
      <trkpt lat="36.991671" lon="-4.488047">
        <ele>693.23</ele>
        <time>2019-01-18T07:49:41Z</time>
      </trkpt>
      <trkpt lat="36.991703" lon="-4.487484">
        <ele>693.26</ele>
        <time>2019-01-18T07:49:51Z</time>
      </trkpt>
      <trkpt lat="36.991666" lon="-4.487026">
        <ele>693.24</ele>
        <time>2019-01-18T07:50:07Z</time>
      </trkpt>
      <trkpt lat="36.991935" lon="-4.485477">
        <ele>697.29</ele>
        <time>2019-01-18T07:51:03Z</time>
      </trkpt>
      <trkpt lat="36.992179" lon="-4.484587">
        <ele>701.43</ele>
        <time>2019-01-18T07:51:35Z</time>
      </trkpt>
      <trkpt lat="36.992224" lon="-4.482861">
        <ele>701.43</ele>
        <time>2019-01-18T07:52:27Z</time>
      </trkpt>
      <trkpt lat="36.992008" lon="-4.481971">
        <ele>703.47</ele>
        <time>2019-01-18T07:53:16Z</time>
      </trkpt>
      <trkpt lat="36.991622" lon="-4.481507">
        <ele>708.22</ele>
        <time>2019-01-18T07:53:42Z</time>
      </trkpt>
      <trkpt lat="36.991524" lon="-4.480993">
        <ele>708.28</ele>
        <time>2019-01-18T07:54:02Z</time>
      </trkpt>
      <trkpt lat="36.991553" lon="-4.480621">
        <ele>710.22</ele>
        <time>2019-01-18T07:54:16Z</time>
      </trkpt>
      <trkpt lat="36.991389" lon="-4.479682">
        <ele>715.66</ele>
        <time>2019-01-18T07:54:56Z</time>
      </trkpt>
      <trkpt lat="36.991935" lon="-4.479116">
        <ele>716.63</ele>
        <time>2019-01-18T07:55:12Z</time>
      </trkpt>
      <trkpt lat="36.992346" lon="-4.479184">
        <ele>714.5</ele>
        <time>2019-01-18T07:55:19Z</time>
      </trkpt>
      <trkpt lat="36.992549" lon="-4.479174">
        <ele>714.44</ele>
        <time>2019-01-18T07:55:23Z</time>
      </trkpt>
      <trkpt lat="36.99271" lon="-4.478534">
        <ele>712.89</ele>
        <time>2019-01-18T07:55:33Z</time>
      </trkpt>
      <trkpt lat="36.992965" lon="-4.47782">
        <ele>712.42</ele>
        <time>2019-01-18T07:55:46Z</time>
      </trkpt>
      <trkpt lat="36.992837" lon="-4.477413">
        <ele>712.47</ele>
        <time>2019-01-18T07:56:00Z</time>
      </trkpt>
      <trkpt lat="36.992436" lon="-4.476893">
        <ele>712.49</ele>
        <time>2019-01-18T07:56:19Z</time>
      </trkpt>
      <trkpt lat="36.992413" lon="-4.476117">
        <ele>712.42</ele>
        <time>2019-01-18T07:56:31Z</time>
      </trkpt>
      <trkpt lat="36.992341" lon="-4.475268">
        <ele>712.47</ele>
        <time>2019-01-18T07:56:47Z</time>
      </trkpt>
      <trkpt lat="36.992412" lon="-4.474521">
        <ele>714.45</ele>
        <time>2019-01-18T07:57:04Z</time>
      </trkpt>
      <trkpt lat="36.9923" lon="-4.473763">
        <ele>716.44</ele>
        <time>2019-01-18T07:57:23Z</time>
      </trkpt>
      <trkpt lat="36.992034" lon="-4.472921">
        <ele>719.87</ele>
        <time>2019-01-18T07:57:56Z</time>
      </trkpt>
      <trkpt lat="36.991905" lon="-4.472812">
        <ele>720.81</ele>
        <time>2019-01-18T07:58:06Z</time>
      </trkpt>
      <trkpt lat="36.990971" lon="-4.472742">
        <ele>724.86</ele>
        <time>2019-01-18T07:58:47Z</time>
      </trkpt>
      <trkpt lat="36.988843" lon="-4.471054">
        <ele>735.03</ele>
        <time>2019-01-18T08:00:14Z</time>
      </trkpt>
      <trkpt lat="36.988229" lon="-4.470196">
        <ele>737.23</ele>
        <time>2019-01-18T08:00:40Z</time>
      </trkpt>
      <trkpt lat="36.986671" lon="-4.466896">
        <ele>747.29</ele>
        <time>2019-01-18T08:02:51Z</time>
      </trkpt>
      <trkpt lat="36.985108" lon="-4.463664">
        <ele>753.43</ele>
        <time>2019-01-18T08:04:12Z</time>
      </trkpt>
      <trkpt lat="36.985697" lon="-4.463262">
        <ele>753.82</ele>
        <time>2019-01-18T08:04:26Z</time>
      </trkpt>
      <trkpt lat="36.985983" lon="-4.463433">
        <ele>752.63</ele>
        <time>2019-01-18T08:04:32Z</time>
      </trkpt>
      <trkpt lat="36.987301" lon="-4.465875">
        <ele>743.01</ele>
        <time>2019-01-18T08:05:01Z</time>
      </trkpt>
      <trkpt lat="36.988211" lon="-4.467951">
        <ele>732.66</ele>
        <time>2019-01-18T08:05:20Z</time>
      </trkpt>
      <trkpt lat="36.989058" lon="-4.469813">
        <ele>731.84</ele>
        <time>2019-01-18T08:05:58Z</time>
      </trkpt>
      <trkpt lat="36.989624" lon="-4.470632">
        <ele>733.89</ele>
        <time>2019-01-18T08:06:17Z</time>
      </trkpt>
      <trkpt lat="36.99025" lon="-4.471218">
        <ele>733.82</ele>
        <time>2019-01-18T08:06:30Z</time>
      </trkpt>
      <trkpt lat="36.991161" lon="-4.471684">
        <ele>733.81</ele>
        <time>2019-01-18T08:06:52Z</time>
      </trkpt>
      <trkpt lat="36.992008" lon="-4.472166">
        <ele>730.01</ele>
        <time>2019-01-18T08:07:03Z</time>
      </trkpt>
      <trkpt lat="36.993013" lon="-4.472266">
        <ele>725.26</ele>
        <time>2019-01-18T08:07:14Z</time>
      </trkpt>
      <trkpt lat="36.994662" lon="-4.472165">
        <ele>728.3</ele>
        <time>2019-01-18T08:08:02Z</time>
      </trkpt>
      <trkpt lat="36.995052" lon="-4.472139">
        <ele>732.41</ele>
        <time>2019-01-18T08:08:18Z</time>
      </trkpt>
      <trkpt lat="36.995667" lon="-4.472096">
        <ele>733.21</ele>
        <time>2019-01-18T08:08:40Z</time>
      </trkpt>
      <trkpt lat="36.995764" lon="-4.472097">
        <ele>737.22</ele>
        <time>2019-01-18T08:10:01Z</time>
      </trkpt>
      <trkpt lat="36.996649" lon="-4.472157">
        <ele>733.61</ele>
        <time>2019-01-18T08:10:16Z</time>
      </trkpt>
      <trkpt lat="36.997039" lon="-4.471726">
        <ele>730.46</ele>
        <time>2019-01-18T08:10:22Z</time>
      </trkpt>
      <trkpt lat="36.997233" lon="-4.471172">
        <ele>727.21</ele>
        <time>2019-01-18T08:10:27Z</time>
      </trkpt>
      <trkpt lat="36.99739" lon="-4.470409">
        <ele>723.48</ele>
        <time>2019-01-18T08:10:34Z</time>
      </trkpt>
      <trkpt lat="36.997629" lon="-4.469773">
        <ele>723.04</ele>
        <time>2019-01-18T08:10:42Z</time>
      </trkpt>
      <trkpt lat="36.997948" lon="-4.469594">
        <ele>721.49</ele>
        <time>2019-01-18T08:10:47Z</time>
      </trkpt>
      <trkpt lat="36.998899" lon="-4.469424">
        <ele>719.21</ele>
        <time>2019-01-18T08:11:03Z</time>
      </trkpt>
      <trkpt lat="36.999876" lon="-4.469157">
        <ele>714.49</ele>
        <time>2019-01-18T08:11:15Z</time>
      </trkpt>
      <trkpt lat="36.999866" lon="-4.468823">
        <ele>714.41</ele>
        <time>2019-01-18T08:11:20Z</time>
      </trkpt>
      <trkpt lat="36.999488" lon="-4.468447">
        <ele>714.44</ele>
        <time>2019-01-18T08:11:35Z</time>
      </trkpt>
      <trkpt lat="36.999272" lon="-4.467952">
        <ele>716.41</ele>
        <time>2019-01-18T08:11:51Z</time>
      </trkpt>
      <trkpt lat="36.998763" lon="-4.467411">
        <ele>718.47</ele>
        <time>2019-01-18T08:12:12Z</time>
      </trkpt>
      <trkpt lat="36.998329" lon="-4.466345">
        <ele>720.48</ele>
        <time>2019-01-18T08:12:42Z</time>
      </trkpt>
      <trkpt lat="36.997958" lon="-4.464796">
        <ele>720.47</ele>
        <time>2019-01-18T08:13:07Z</time>
      </trkpt>
      <trkpt lat="36.997496" lon="-4.464142">
        <ele>720.44</ele>
        <time>2019-01-18T08:13:21Z</time>
      </trkpt>
      <trkpt lat="36.996417" lon="-4.463153">
        <ele>716.1</ele>
        <time>2019-01-18T08:13:37Z</time>
      </trkpt>
      <trkpt lat="36.99492" lon="-4.461529">
        <ele>706.66</ele>
        <time>2019-01-18T08:13:57Z</time>
      </trkpt>
      <trkpt lat="36.994646" lon="-4.461133">
        <ele>706</ele>
        <time>2019-01-18T08:14:02Z</time>
      </trkpt>
      <trkpt lat="36.993753" lon="-4.460437">
        <ele>702.63</ele>
        <time>2019-01-18T08:14:16Z</time>
      </trkpt>
      <trkpt lat="36.993459" lon="-4.459001">
        <ele>697.07</ele>
        <time>2019-01-18T08:14:28Z</time>
      </trkpt>
      <trkpt lat="36.993031" lon="-4.458563">
        <ele>693.01</ele>
        <time>2019-01-18T08:14:34Z</time>
      </trkpt>
      <trkpt lat="36.992866" lon="-4.458301">
        <ele>690.49</ele>
        <time>2019-01-18T08:14:38Z</time>
      </trkpt>
      <trkpt lat="36.993197" lon="-4.456284">
        <ele>680.69</ele>
        <time>2019-01-18T08:14:55Z</time>
      </trkpt>
      <trkpt lat="36.994047" lon="-4.454682">
        <ele>676.41</ele>
        <time>2019-01-18T08:15:15Z</time>
      </trkpt>
      <trkpt lat="36.994438" lon="-4.454309">
        <ele>674.23</ele>
        <time>2019-01-18T08:15:24Z</time>
      </trkpt>
      <trkpt lat="36.995105" lon="-4.453887">
        <ele>674.22</ele>
        <time>2019-01-18T08:15:36Z</time>
      </trkpt>
      <trkpt lat="36.996318" lon="-4.451014">
        <ele>668.42</ele>
        <time>2019-01-18T08:16:10Z</time>
      </trkpt>
      <trkpt lat="36.996888" lon="-4.450431">
        <ele>664.69</ele>
        <time>2019-01-18T08:16:18Z</time>
      </trkpt>
      <trkpt lat="36.997108" lon="-4.449663">
        <ele>662.88</ele>
        <time>2019-01-18T08:16:27Z</time>
      </trkpt>
      <trkpt lat="36.998502" lon="-4.448604">
        <ele>662.84</ele>
        <time>2019-01-18T08:16:59Z</time>
      </trkpt>
      <trkpt lat="36.998828" lon="-4.448143">
        <ele>662.84</ele>
        <time>2019-01-18T08:17:08Z</time>
      </trkpt>
      <trkpt lat="36.998845" lon="-4.447738">
        <ele>662.02</ele>
        <time>2019-01-18T08:17:13Z</time>
      </trkpt>
      <trkpt lat="36.998777" lon="-4.447193">
        <ele>660.66</ele>
        <time>2019-01-18T08:17:20Z</time>
      </trkpt>
      <trkpt lat="36.99903" lon="-4.446659">
        <ele>658.41</ele>
        <time>2019-01-18T08:17:28Z</time>
      </trkpt>
      <trkpt lat="36.999787" lon="-4.445653">
        <ele>656.43</ele>
        <time>2019-01-18T08:18:49Z</time>
      </trkpt>
      <trkpt lat="37.000108" lon="-4.444478">
        <ele>652.01</ele>
        <time>2019-01-18T08:19:07Z</time>
      </trkpt>
      <trkpt lat="37.000422" lon="-4.443841">
        <ele>650.03</ele>
        <time>2019-01-18T08:19:18Z</time>
      </trkpt>
      <trkpt lat="37.000709" lon="-4.443098">
        <ele>652.02</ele>
        <time>2019-01-18T08:19:38Z</time>
      </trkpt>
      <trkpt lat="37.001448" lon="-4.442106">
        <ele>651.07</ele>
        <time>2019-01-18T08:19:59Z</time>
      </trkpt>
      <trkpt lat="37.001777" lon="-4.441558">
        <ele>649.8</ele>
        <time>2019-01-18T08:20:12Z</time>
      </trkpt>
      <trkpt lat="37.002791" lon="-4.440744">
        <ele>647.66</ele>
        <time>2019-01-18T08:20:29Z</time>
      </trkpt>
      <trkpt lat="37.002939" lon="-4.440214">
        <ele>645.81</ele>
        <time>2019-01-18T08:20:34Z</time>
      </trkpt>
      <trkpt lat="37.002993" lon="-4.439702">
        <ele>643.26</ele>
        <time>2019-01-18T08:20:39Z</time>
      </trkpt>
      <trkpt lat="37.004062" lon="-4.438056">
        <ele>640.48</ele>
        <time>2019-01-18T08:21:06Z</time>
      </trkpt>
      <trkpt lat="37.004724" lon="-4.436811">
        <ele>637.06</ele>
        <time>2019-01-18T08:21:28Z</time>
      </trkpt>
      <trkpt lat="37.005449" lon="-4.435528">
        <ele>635.04</ele>
        <time>2019-01-18T08:21:56Z</time>
      </trkpt>
      <trkpt lat="37.005758" lon="-4.434952">
        <ele>635.01</ele>
        <time>2019-01-18T08:22:08Z</time>
      </trkpt>
      <trkpt lat="37.005885" lon="-4.434289">
        <ele>633.26</ele>
        <time>2019-01-18T08:22:19Z</time>
      </trkpt>
      <trkpt lat="37.005945" lon="-4.433431">
        <ele>632.82</ele>
        <time>2019-01-18T08:22:34Z</time>
      </trkpt>
      <trkpt lat="37.006184" lon="-4.43282">
        <ele>632.84</ele>
        <time>2019-01-18T08:22:46Z</time>
      </trkpt>
      <trkpt lat="37.006689" lon="-4.432125">
        <ele>632.89</ele>
        <time>2019-01-18T08:23:01Z</time>
      </trkpt>
      <trkpt lat="37.00698" lon="-4.431321">
        <ele>631.64</ele>
        <time>2019-01-18T08:23:12Z</time>
      </trkpt>
      <trkpt lat="37.006928" lon="-4.430887">
        <ele>630.83</ele>
        <time>2019-01-18T08:23:21Z</time>
      </trkpt>
      <trkpt lat="37.007244" lon="-4.430197">
        <ele>630.49</ele>
        <time>2019-01-18T08:23:34Z</time>
      </trkpt>
      <trkpt lat="37.008215" lon="-4.429225">
        <ele>626.41</ele>
        <time>2019-01-18T08:23:55Z</time>
      </trkpt>
      <trkpt lat="37.008389" lon="-4.428769">
        <ele>626.46</ele>
        <time>2019-01-18T08:24:05Z</time>
      </trkpt>
      <trkpt lat="37.008475" lon="-4.427992">
        <ele>626.41</ele>
        <time>2019-01-18T08:24:24Z</time>
      </trkpt>
      <trkpt lat="37.008739" lon="-4.427698">
        <ele>626.48</ele>
        <time>2019-01-18T08:24:31Z</time>
      </trkpt>
      <trkpt lat="37.009551" lon="-4.427273">
        <ele>622.29</ele>
        <time>2019-01-18T08:24:42Z</time>
      </trkpt>
      <trkpt lat="37.009913" lon="-4.426789">
        <ele>622.21</ele>
        <time>2019-01-18T08:24:51Z</time>
      </trkpt>
      <trkpt lat="37.00999" lon="-4.426275">
        <ele>620.41</ele>
        <time>2019-01-18T08:24:57Z</time>
      </trkpt>
      <trkpt lat="37.010612" lon="-4.425452">
        <ele>615.8</ele>
        <time>2019-01-18T08:25:09Z</time>
      </trkpt>
      <trkpt lat="37.010774" lon="-4.425012">
        <ele>615.82</ele>
        <time>2019-01-18T08:25:15Z</time>
      </trkpt>
      <trkpt lat="37.01075" lon="-4.424646">
        <ele>615.07</ele>
        <time>2019-01-18T08:25:20Z</time>
      </trkpt>
      <trkpt lat="37.010521" lon="-4.424481">
        <ele>613.84</ele>
        <time>2019-01-18T08:25:26Z</time>
      </trkpt>
      <trkpt lat="37.010922" lon="-4.423355">
        <ele>611.89</ele>
        <time>2019-01-18T08:25:49Z</time>
      </trkpt>
      <trkpt lat="37.011502" lon="-4.422528">
        <ele>611.83</ele>
        <time>2019-01-18T08:26:09Z</time>
      </trkpt>
      <trkpt lat="37.011466" lon="-4.421728">
        <ele>613.01</ele>
        <time>2019-01-18T08:26:31Z</time>
      </trkpt>
      <trkpt lat="37.011511" lon="-4.421202">
        <ele>617.66</ele>
        <time>2019-01-18T08:26:51Z</time>
      </trkpt>
      <trkpt lat="37.01121" lon="-4.420365">
        <ele>618.08</ele>
        <time>2019-01-18T08:27:14Z</time>
      </trkpt>
      <trkpt lat="37.010947" lon="-4.419809">
        <ele>618.02</ele>
        <time>2019-01-18T08:27:24Z</time>
      </trkpt>
      <trkpt lat="37.010657" lon="-4.418807">
        <ele>615.88</ele>
        <time>2019-01-18T08:27:38Z</time>
      </trkpt>
      <trkpt lat="37.010786" lon="-4.417731">
        <ele>615.83</ele>
        <time>2019-01-18T08:27:55Z</time>
      </trkpt>
      <trkpt lat="37.010554" lon="-4.415461">
        <ele>620.28</ele>
        <time>2019-01-18T08:28:42Z</time>
      </trkpt>
      <trkpt lat="37.010547" lon="-4.414873">
        <ele>620.27</ele>
        <time>2019-01-18T08:28:55Z</time>
      </trkpt>
      <trkpt lat="37.009619" lon="-4.41309">
        <ele>624.45</ele>
        <time>2019-01-18T08:29:38Z</time>
      </trkpt>
      <trkpt lat="37.009117" lon="-4.411941">
        <ele>624.48</ele>
        <time>2019-01-18T08:29:59Z</time>
      </trkpt>
      <trkpt lat="37.00848" lon="-4.409814">
        <ele>624.45</ele>
        <time>2019-01-18T08:30:35Z</time>
      </trkpt>
      <trkpt lat="37.008482" lon="-4.409202">
        <ele>624.44</ele>
        <time>2019-01-18T08:30:46Z</time>
      </trkpt>
      <trkpt lat="37.008125" lon="-4.408852">
        <ele>626.41</ele>
        <time>2019-01-18T08:31:02Z</time>
      </trkpt>
      <trkpt lat="37.008067" lon="-4.407169">
        <ele>637.08</ele>
        <time>2019-01-18T08:32:05Z</time>
      </trkpt>
      <trkpt lat="37.008262" lon="-4.406197">
        <ele>639.07</ele>
        <time>2019-01-18T08:32:33Z</time>
      </trkpt>
      <trkpt lat="37.008435" lon="-4.405548">
        <ele>639.07</ele>
        <time>2019-01-18T08:32:46Z</time>
      </trkpt>
      <trkpt lat="37.008242" lon="-4.404366">
        <ele>639.04</ele>
        <time>2019-01-18T08:33:10Z</time>
      </trkpt>
      <trkpt lat="37.008571" lon="-4.403289">
        <ele>641.02</ele>
        <time>2019-01-18T08:33:39Z</time>
      </trkpt>
      <trkpt lat="37.008756" lon="-4.402821">
        <ele>643.07</ele>
        <time>2019-01-18T08:33:56Z</time>
      </trkpt>
      <trkpt lat="37.009005" lon="-4.402745">
        <ele>643.01</ele>
        <time>2019-01-18T08:34:04Z</time>
      </trkpt>
      <trkpt lat="37.009396" lon="-4.403309">
        <ele>647.26</ele>
        <time>2019-01-18T08:34:32Z</time>
      </trkpt>
      <trkpt lat="37.009725" lon="-4.4034">
        <ele>648.01</ele>
        <time>2019-01-18T08:34:45Z</time>
      </trkpt>
      <trkpt lat="37.010421" lon="-4.403141">
        <ele>649.27</ele>
        <time>2019-01-18T08:35:05Z</time>
      </trkpt>
      <trkpt lat="37.010998" lon="-4.402696">
        <ele>650.62</ele>
        <time>2019-01-18T08:35:27Z</time>
      </trkpt>
      <trkpt lat="37.012022" lon="-4.402154">
        <ele>647.41</ele>
        <time>2019-01-18T08:35:44Z</time>
      </trkpt>
      <trkpt lat="37.012237" lon="-4.402034">
        <ele>644.86</ele>
        <time>2019-01-18T08:36:03Z</time>
      </trkpt>
      <trkpt lat="37.012644" lon="-4.401743">
        <ele>642.29</ele>
        <time>2019-01-18T08:36:20Z</time>
      </trkpt>
      <trkpt lat="37.012694" lon="-4.400764">
        <ele>650.23</ele>
        <time>2019-01-18T08:37:21Z</time>
      </trkpt>
      <trkpt lat="37.012702" lon="-4.399939">
        <ele>659.46</ele>
        <time>2019-01-18T08:38:11Z</time>
      </trkpt>
      <trkpt lat="37.012894" lon="-4.398467">
        <ele>670.41</ele>
        <time>2019-01-18T08:39:28Z</time>
      </trkpt>
      <trkpt lat="37.013655" lon="-4.396737">
        <ele>676.23</ele>
        <time>2019-01-18T08:40:29Z</time>
      </trkpt>
      <trkpt lat="37.013927" lon="-4.396383">
        <ele>676.22</ele>
        <time>2019-01-18T08:40:39Z</time>
      </trkpt>
      <trkpt lat="37.014206" lon="-4.395124">
        <ele>678.25</ele>
        <time>2019-01-18T08:41:04Z</time>
      </trkpt>
      <trkpt lat="37.015133" lon="-4.393151">
        <ele>675.05</ele>
        <time>2019-01-18T08:41:48Z</time>
      </trkpt>
      <trkpt lat="37.015512" lon="-4.392375">
        <ele>672.24</ele>
        <time>2019-01-18T08:41:59Z</time>
      </trkpt>
      <trkpt lat="37.015959" lon="-4.39128">
        <ele>667.41</ele>
        <time>2019-01-18T08:42:10Z</time>
      </trkpt>
      <trkpt lat="37.016454" lon="-4.389999">
        <ele>663.87</ele>
        <time>2019-01-18T08:42:32Z</time>
      </trkpt>
      <trkpt lat="37.016844" lon="-4.389556">
        <ele>662.27</ele>
        <time>2019-01-18T08:42:42Z</time>
      </trkpt>
      <trkpt lat="37.016631" lon="-4.389316">
        <ele>659.82</ele>
        <time>2019-01-18T08:42:51Z</time>
      </trkpt>
      <trkpt lat="37.01661" lon="-4.388955">
        <ele>659.07</ele>
        <time>2019-01-18T08:42:58Z</time>
      </trkpt>
      <trkpt lat="37.016689" lon="-4.388746">
        <ele>657.65</ele>
        <time>2019-01-18T08:43:02Z</time>
      </trkpt>
      <trkpt lat="37.017143" lon="-4.38878">
        <ele>659.83</ele>
        <time>2019-01-18T08:43:25Z</time>
      </trkpt>
      <trkpt lat="37.017807" lon="-4.387829">
        <ele>661.82</ele>
        <time>2019-01-18T08:43:59Z</time>
      </trkpt>
      <trkpt lat="37.017426" lon="-4.387257">
        <ele>661.81</ele>
        <time>2019-01-18T08:44:09Z</time>
      </trkpt>
      <trkpt lat="37.016585" lon="-4.386729">
        <ele>657.81</ele>
        <time>2019-01-18T08:44:19Z</time>
      </trkpt>
      <trkpt lat="37.015422" lon="-4.384662">
        <ele>657.28</ele>
        <time>2019-01-18T08:45:08Z</time>
      </trkpt>
      <trkpt lat="37.014982" lon="-4.383538">
        <ele>657.24</ele>
        <time>2019-01-18T08:45:32Z</time>
      </trkpt>
      <trkpt lat="37.014433" lon="-4.382499">
        <ele>659.43</ele>
        <time>2019-01-18T08:46:03Z</time>
      </trkpt>
      <trkpt lat="37.014067" lon="-4.381633">
        <ele>658.45</ele>
        <time>2019-01-18T08:46:14Z</time>
      </trkpt>
      <trkpt lat="37.013198" lon="-4.380156">
        <ele>654.63</ele>
        <time>2019-01-18T08:46:35Z</time>
      </trkpt>
      <trkpt lat="37.012539" lon="-4.37799">
        <ele>652.62</ele>
        <time>2019-01-18T08:47:18Z</time>
      </trkpt>
      <trkpt lat="37.012077" lon="-4.376903">
        <ele>654.66</ele>
        <time>2019-01-18T08:47:41Z</time>
      </trkpt>
      <trkpt lat="37.011819" lon="-4.376877">
        <ele>654.64</ele>
        <time>2019-01-18T08:47:46Z</time>
      </trkpt>
      <trkpt lat="37.011063" lon="-4.377187">
        <ele>650.42</ele>
        <time>2019-01-18T08:47:56Z</time>
      </trkpt>
      <trkpt lat="37.010787" lon="-4.376964">
        <ele>648.87</ele>
        <time>2019-01-18T08:48:00Z</time>
      </trkpt>
      <trkpt lat="37.010356" lon="-4.376012">
        <ele>645.88</ele>
        <time>2019-01-18T08:48:14Z</time>
      </trkpt>
      <trkpt lat="37.009012" lon="-4.375096">
        <ele>650.08</ele>
        <time>2019-01-18T08:48:54Z</time>
      </trkpt>
      <trkpt lat="37.008593" lon="-4.374696">
        <ele>652.02</ele>
        <time>2019-01-18T08:49:12Z</time>
      </trkpt>
      <trkpt lat="37.006889" lon="-4.374032">
        <ele>658.22</ele>
        <time>2019-01-18T08:50:10Z</time>
      </trkpt>
      <trkpt lat="37.006085" lon="-4.373811">
        <ele>658.26</ele>
        <time>2019-01-18T08:50:30Z</time>
      </trkpt>
      <trkpt lat="37.005319" lon="-4.373057">
        <ele>662.43</ele>
        <time>2019-01-18T08:51:03Z</time>
      </trkpt>
      <trkpt lat="37.004879" lon="-4.372553">
        <ele>662.43</ele>
        <time>2019-01-18T08:51:26Z</time>
      </trkpt>
      <trkpt lat="37.004191" lon="-4.372246">
        <ele>669.43</ele>
        <time>2019-01-18T08:52:09Z</time>
      </trkpt>
      <trkpt lat="37.002999" lon="-4.37105">
        <ele>677.46</ele>
        <time>2019-01-18T08:53:20Z</time>
      </trkpt>
      <trkpt lat="37.001058" lon="-4.369219">
        <ele>685.25</ele>
        <time>2019-01-18T08:54:44Z</time>
      </trkpt>
      <trkpt lat="37.000429" lon="-4.368628">
        <ele>687.43</ele>
        <time>2019-01-18T08:55:12Z</time>
      </trkpt>
      <trkpt lat="37.000344" lon="-4.367551">
        <ele>691.84</ele>
        <time>2019-01-18T08:55:47Z</time>
      </trkpt>
      <trkpt lat="37.001747" lon="-4.367053">
        <ele>693.47</ele>
        <time>2019-01-18T08:56:33Z</time>
      </trkpt>
      <trkpt lat="37.00296" lon="-4.366365">
        <ele>693.49</ele>
        <time>2019-01-18T08:57:01Z</time>
      </trkpt>
      <trkpt lat="37.005224" lon="-4.363984">
        <ele>691.42</ele>
        <time>2019-01-18T08:58:00Z</time>
      </trkpt>
      <trkpt lat="37.005624" lon="-4.363394">
        <ele>690.27</ele>
        <time>2019-01-18T08:58:11Z</time>
      </trkpt>
      <trkpt lat="37.005837" lon="-4.362981">
        <ele>689.22</ele>
        <time>2019-01-18T08:58:17Z</time>
      </trkpt>
      <trkpt lat="37.00677" lon="-4.362568">
        <ele>685.68</ele>
        <time>2019-01-18T08:58:30Z</time>
      </trkpt>
      <trkpt lat="37.007172" lon="-4.362383">
        <ele>684.89</ele>
        <time>2019-01-18T08:58:37Z</time>
      </trkpt>
      <trkpt lat="37.007588" lon="-4.361806">
        <ele>688.64</ele>
        <time>2019-01-18T08:59:14Z</time>
      </trkpt>
      <trkpt lat="37.008427" lon="-4.360453">
        <ele>699.47</ele>
        <time>2019-01-18T09:00:25Z</time>
      </trkpt>
      <trkpt lat="37.00881" lon="-4.359846">
        <ele>701.46</ele>
        <time>2019-01-18T09:00:48Z</time>
      </trkpt>
      <trkpt lat="37.009164" lon="-4.358824">
        <ele>699.22</ele>
        <time>2019-01-18T09:01:01Z</time>
      </trkpt>
      <trkpt lat="37.009647" lon="-4.357954">
        <ele>690.48</ele>
        <time>2019-01-18T09:01:09Z</time>
      </trkpt>
      <trkpt lat="37.009936" lon="-4.357775">
        <ele>682.61</ele>
        <time>2019-01-18T09:01:21Z</time>
      </trkpt>
      <trkpt lat="37.010792" lon="-4.35674">
        <ele>697.68</ele>
        <time>2019-01-18T09:02:43Z</time>
      </trkpt>
      <trkpt lat="37.012175" lon="-4.354618">
        <ele>701.81</ele>
        <time>2019-01-18T09:04:05Z</time>
      </trkpt>
      <trkpt lat="37.012702" lon="-4.354126">
        <ele>707.68</ele>
        <time>2019-01-18T09:04:44Z</time>
      </trkpt>
      <trkpt lat="37.012975" lon="-4.353735">
        <ele>714.21</ele>
        <time>2019-01-18T09:05:20Z</time>
      </trkpt>
      <trkpt lat="37.013322" lon="-4.353059">
        <ele>718.22</ele>
        <time>2019-01-18T09:05:57Z</time>
      </trkpt>
      <trkpt lat="37.014583" lon="-4.351648">
        <ele>729.47</ele>
        <time>2019-01-18T09:07:31Z</time>
      </trkpt>
      <trkpt lat="37.014922" lon="-4.350998">
        <ele>735.01</ele>
        <time>2019-01-18T09:08:07Z</time>
      </trkpt>
      <trkpt lat="37.015341" lon="-4.349603">
        <ele>741.23</ele>
        <time>2019-01-18T09:08:56Z</time>
      </trkpt>
      <trkpt lat="37.016261" lon="-4.347893">
        <ele>739.08</ele>
        <time>2019-01-18T09:09:34Z</time>
      </trkpt>
      <trkpt lat="37.016881" lon="-4.347226">
        <ele>739.07</ele>
        <time>2019-01-18T09:09:53Z</time>
      </trkpt>
      <trkpt lat="37.017384" lon="-4.346375">
        <ele>735.64</ele>
        <time>2019-01-18T09:10:03Z</time>
      </trkpt>
      <trkpt lat="37.017801" lon="-4.345886">
        <ele>727.81</ele>
        <time>2019-01-18T09:10:09Z</time>
      </trkpt>
      <trkpt lat="37.018289" lon="-4.345921">
        <ele>718.09</ele>
        <time>2019-01-18T09:10:15Z</time>
      </trkpt>
      <trkpt lat="37.020102" lon="-4.344581">
        <ele>706.43</ele>
        <time>2019-01-18T09:10:44Z</time>
      </trkpt>
      <trkpt lat="37.020642" lon="-4.343403">
        <ele>706.41</ele>
        <time>2019-01-18T09:11:10Z</time>
      </trkpt>
      <trkpt lat="37.021002" lon="-4.342737">
        <ele>708.68</ele>
        <time>2019-01-18T09:11:23Z</time>
      </trkpt>
      <trkpt lat="37.022845" lon="-4.341668">
        <ele>702.43</ele>
        <time>2019-01-18T09:11:48Z</time>
      </trkpt>
      <trkpt lat="37.025383" lon="-4.340925">
        <ele>689.81</ele>
        <time>2019-01-18T09:12:26Z</time>
      </trkpt>
      <trkpt lat="37.026135" lon="-4.340576">
        <ele>689.82</ele>
        <time>2019-01-18T09:12:45Z</time>
      </trkpt>
      <trkpt lat="37.02662" lon="-4.340665">
        <ele>689.02</ele>
        <time>2019-01-18T09:12:57Z</time>
      </trkpt>
      <trkpt lat="37.026952" lon="-4.339607">
        <ele>687.82</ele>
        <time>2019-01-18T09:13:24Z</time>
      </trkpt>
      <trkpt lat="37.027869" lon="-4.33854">
        <ele>689.81</ele>
        <time>2019-01-18T09:14:07Z</time>
      </trkpt>
      <trkpt lat="37.027876" lon="-4.338413">
        <ele>689.83</ele>
        <time>2019-01-18T09:14:11Z</time>
      </trkpt>
      <trkpt lat="37.027333" lon="-4.337394">
        <ele>689.88</ele>
        <time>2019-01-18T09:45:03Z</time>
      </trkpt>
      <trkpt lat="37.027134" lon="-4.337073">
        <ele>692.02</ele>
        <time>2019-01-18T09:45:14Z</time>
      </trkpt>
      <trkpt lat="37.027959" lon="-4.335231">
        <ele>694.41</ele>
        <time>2019-01-18T09:46:02Z</time>
      </trkpt>
      <trkpt lat="37.02806" lon="-4.334307">
        <ele>694.41</ele>
        <time>2019-01-18T09:46:20Z</time>
      </trkpt>
      <trkpt lat="37.027931" lon="-4.333349">
        <ele>694.43</ele>
        <time>2019-01-18T09:46:38Z</time>
      </trkpt>
      <trkpt lat="37.028013" lon="-4.33261">
        <ele>694.49</ele>
        <time>2019-01-18T09:46:51Z</time>
      </trkpt>
      <trkpt lat="37.027102" lon="-4.33237">
        <ele>704.61</ele>
        <time>2019-01-18T09:47:41Z</time>
      </trkpt>
      <trkpt lat="37.025956" lon="-4.332191">
        <ele>708.82</ele>
        <time>2019-01-18T09:48:35Z</time>
      </trkpt>
      <trkpt lat="37.025705" lon="-4.332079">
        <ele>708.82</ele>
        <time>2019-01-18T09:48:44Z</time>
      </trkpt>
      <trkpt lat="37.025524" lon="-4.331648">
        <ele>710.5</ele>
        <time>2019-01-18T09:49:01Z</time>
      </trkpt>
      <trkpt lat="37.024887" lon="-4.331206">
        <ele>712.81</ele>
        <time>2019-01-18T09:49:26Z</time>
      </trkpt>
      <trkpt lat="37.024206" lon="-4.330414">
        <ele>715.03</ele>
        <time>2019-01-18T09:49:55Z</time>
      </trkpt>
      <trkpt lat="37.023607" lon="-4.329251">
        <ele>719.05</ele>
        <time>2019-01-18T09:50:29Z</time>
      </trkpt>
      <trkpt lat="37.022888" lon="-4.328128">
        <ele>722.45</ele>
        <time>2019-01-18T09:51:06Z</time>
      </trkpt>
      <trkpt lat="37.022503" lon="-4.32716">
        <ele>726.29</ele>
        <time>2019-01-18T09:51:37Z</time>
      </trkpt>
      <trkpt lat="37.021723" lon="-4.325984">
        <ele>733.66</ele>
        <time>2019-01-18T09:52:28Z</time>
      </trkpt>
      <trkpt lat="37.021179" lon="-4.325335">
        <ele>737.42</ele>
        <time>2019-01-18T09:53:01Z</time>
      </trkpt>
      <trkpt lat="37.020379" lon="-4.324114">
        <ele>745.04</ele>
        <time>2019-01-18T09:54:01Z</time>
      </trkpt>
      <trkpt lat="37.019937" lon="-4.323353">
        <ele>750.03</ele>
        <time>2019-01-18T09:54:40Z</time>
      </trkpt>
      <trkpt lat="37.019696" lon="-4.322605">
        <ele>759.08</ele>
        <time>2019-01-18T09:55:30Z</time>
      </trkpt>
      <trkpt lat="37.019779" lon="-4.321863">
        <ele>767.61</ele>
        <time>2019-01-18T09:56:32Z</time>
      </trkpt>
      <trkpt lat="37.019603" lon="-4.321119">
        <ele>776.82</ele>
        <time>2019-01-18T09:57:27Z</time>
      </trkpt>
      <trkpt lat="37.019381" lon="-4.320473">
        <ele>784.83</ele>
        <time>2019-01-18T09:58:09Z</time>
      </trkpt>
      <trkpt lat="37.019257" lon="-4.319655">
        <ele>788.88</ele>
        <time>2019-01-18T10:02:08Z</time>
      </trkpt>
      <trkpt lat="37.018804" lon="-4.318799">
        <ele>795.03</ele>
        <time>2019-01-18T10:03:05Z</time>
      </trkpt>
      <trkpt lat="37.018492" lon="-4.318365">
        <ele>802.61</ele>
        <time>2019-01-18T10:03:51Z</time>
      </trkpt>
      <trkpt lat="37.017997" lon="-4.318074">
        <ele>805.47</ele>
        <time>2019-01-18T10:04:17Z</time>
      </trkpt>
      <trkpt lat="37.017508" lon="-4.317518">
        <ele>805.45</ele>
        <time>2019-01-18T10:04:38Z</time>
      </trkpt>
      <trkpt lat="37.017039" lon="-4.315875">
        <ele>811.82</ele>
        <time>2019-01-18T10:05:31Z</time>
      </trkpt>
      <trkpt lat="37.017088" lon="-4.31526">
        <ele>811.85</ele>
        <time>2019-01-18T10:05:46Z</time>
      </trkpt>
      <trkpt lat="37.017295" lon="-4.314922">
        <ele>811.81</ele>
        <time>2019-01-18T10:05:59Z</time>
      </trkpt>
      <trkpt lat="37.017772" lon="-4.314293">
        <ele>813.83</ele>
        <time>2019-01-18T10:06:21Z</time>
      </trkpt>
      <trkpt lat="37.018128" lon="-4.31395">
        <ele>813.82</ele>
        <time>2019-01-18T10:06:34Z</time>
      </trkpt>
      <trkpt lat="37.01826" lon="-4.312969">
        <ele>815.9</ele>
        <time>2019-01-18T10:06:59Z</time>
      </trkpt>
      <trkpt lat="37.018431" lon="-4.312482">
        <ele>815.87</ele>
        <time>2019-01-18T10:07:11Z</time>
      </trkpt>
      <trkpt lat="37.018358" lon="-4.311964">
        <ele>815.81</ele>
        <time>2019-01-18T10:07:21Z</time>
      </trkpt>
      <trkpt lat="37.018011" lon="-4.311193">
        <ele>815.85</ele>
        <time>2019-01-18T10:07:40Z</time>
      </trkpt>
      <trkpt lat="37.017195" lon="-4.310533">
        <ele>817.86</ele>
        <time>2019-01-18T10:08:05Z</time>
      </trkpt>
      <trkpt lat="37.016302" lon="-4.309965">
        <ele>817.84</ele>
        <time>2019-01-18T10:08:11Z</time>
      </trkpt>
      <trkpt lat="37.016185" lon="-4.308028">
        <ele>818.69</ele>
        <time>2019-01-18T10:08:18Z</time>
      </trkpt>
      <trkpt lat="37.015808" lon="-4.306535">
        <ele>819.29</ele>
        <time>2019-01-18T10:08:19Z</time>
      </trkpt>
      <trkpt lat="37.015538" lon="-4.304576">
        <ele>819.67</ele>
        <time>2019-01-18T10:08:20Z</time>
      </trkpt>
      <trkpt lat="37.015916" lon="-4.303348">
        <ele>820.08</ele>
        <time>2019-01-18T10:08:21Z</time>
      </trkpt>
      <trkpt lat="37.015943" lon="-4.302607">
        <ele>820.07</ele>
        <time>2019-01-18T10:08:27Z</time>
      </trkpt>
      <trkpt lat="37.015691" lon="-4.30212">
        <ele>820.08</ele>
        <time>2019-01-18T10:08:33Z</time>
      </trkpt>
      <trkpt lat="37.015646" lon="-4.301301">
        <ele>820.46</ele>
        <time>2019-01-18T10:08:38Z</time>
      </trkpt>
      <trkpt lat="37.015826" lon="-4.301191">
        <ele>821.03</ele>
        <time>2019-01-18T10:08:39Z</time>
      </trkpt>
      <trkpt lat="37.015075" lon="-4.300862">
        <ele>839.47</ele>
        <time>2019-01-18T10:21:28Z</time>
      </trkpt>
      <trkpt lat="37.014433" lon="-4.300368">
        <ele>850.47</ele>
        <time>2019-01-18T10:22:27Z</time>
      </trkpt>
      <trkpt lat="37.01421" lon="-4.299143">
        <ele>860.86</ele>
        <time>2019-01-18T10:23:40Z</time>
      </trkpt>
      <trkpt lat="37.014159" lon="-4.298336">
        <ele>867.02</ele>
        <time>2019-01-18T10:24:17Z</time>
      </trkpt>
      <trkpt lat="37.013846" lon="-4.297261">
        <ele>870.1</ele>
        <time>2019-01-18T10:24:57Z</time>
      </trkpt>
      <trkpt lat="37.013683" lon="-4.296754">
        <ele>875.49</ele>
        <time>2019-01-18T10:25:24Z</time>
      </trkpt>
      <trkpt lat="37.013466" lon="-4.295298">
        <ele>884.28</ele>
        <time>2019-01-18T10:26:38Z</time>
      </trkpt>
      <trkpt lat="37.013466" lon="-4.294405">
        <ele>892.23</ele>
        <time>2019-01-18T10:27:26Z</time>
      </trkpt>
      <trkpt lat="37.013687" lon="-4.294092">
        <ele>892.28</ele>
        <time>2019-01-18T10:27:38Z</time>
      </trkpt>
      <trkpt lat="37.01379" lon="-4.293861">
        <ele>892.25</ele>
        <time>2019-01-18T10:27:44Z</time>
      </trkpt>
      <trkpt lat="37.014481" lon="-4.293923">
        <ele>890.04</ele>
        <time>2019-01-18T10:27:58Z</time>
      </trkpt>
      <trkpt lat="37.014848" lon="-4.293314">
        <ele>892.05</ele>
        <time>2019-01-18T10:28:35Z</time>
      </trkpt>
      <trkpt lat="37.01397" lon="-4.292795">
        <ele>908.04</ele>
        <time>2019-01-18T10:30:10Z</time>
      </trkpt>
      <trkpt lat="37.013545" lon="-4.292695">
        <ele>917.02</ele>
        <time>2019-01-18T10:30:51Z</time>
      </trkpt>
      <trkpt lat="37.01334" lon="-4.29247">
        <ele>922.69</ele>
        <time>2019-01-18T10:31:17Z</time>
      </trkpt>
      <trkpt lat="37.012918" lon="-4.291921">
        <ele>931.49</ele>
        <time>2019-01-18T10:32:11Z</time>
      </trkpt>
      <trkpt lat="37.012715" lon="-4.291681">
        <ele>936.06</ele>
        <time>2019-01-18T10:32:38Z</time>
      </trkpt>
      <trkpt lat="37.012198" lon="-4.290909">
        <ele>952.81</ele>
        <time>2019-01-18T10:35:53Z</time>
      </trkpt>
      <trkpt lat="37.012169" lon="-4.290578">
        <ele>957.21</ele>
        <time>2019-01-18T10:36:21Z</time>
      </trkpt>
      <trkpt lat="37.012096" lon="-4.290255">
        <ele>962.44</ele>
        <time>2019-01-18T10:36:49Z</time>
      </trkpt>
      <trkpt lat="37.011997" lon="-4.289989">
        <ele>967.86</ele>
        <time>2019-01-18T10:37:11Z</time>
      </trkpt>
      <trkpt lat="37.012178" lon="-4.289911">
        <ele>969.81</ele>
        <time>2019-01-18T10:37:25Z</time>
      </trkpt>
      <trkpt lat="37.01266" lon="-4.290438">
        <ele>976.25</ele>
        <time>2019-01-18T10:38:05Z</time>
      </trkpt>
      <trkpt lat="37.012753" lon="-4.290331">
        <ele>977.29</ele>
        <time>2019-01-18T10:38:16Z</time>
      </trkpt>
      <trkpt lat="37.012366" lon="-4.289291">
        <ele>991.01</ele>
        <time>2019-01-18T10:39:32Z</time>
      </trkpt>
      <trkpt lat="37.012041" lon="-4.288726">
        <ele>998.48</ele>
        <time>2019-01-18T10:40:23Z</time>
      </trkpt>
      <trkpt lat="37.011718" lon="-4.288253">
        <ele>1007.67</ele>
        <time>2019-01-18T10:41:11Z</time>
      </trkpt>
      <trkpt lat="37.011667" lon="-4.287897">
        <ele>1013.82</ele>
        <time>2019-01-18T10:44:21Z</time>
      </trkpt>
      <trkpt lat="37.01155" lon="-4.287219">
        <ele>1022.29</ele>
        <time>2019-01-18T10:45:12Z</time>
      </trkpt>
      <trkpt lat="37.011552" lon="-4.286239">
        <ele>1034.83</ele>
        <time>2019-01-18T10:46:27Z</time>
      </trkpt>
      <trkpt lat="37.011393" lon="-4.285495">
        <ele>1044.69</ele>
        <time>2019-01-18T10:47:25Z</time>
      </trkpt>
      <trkpt lat="37.011234" lon="-4.284706">
        <ele>1054.28</ele>
        <time>2019-01-18T10:48:24Z</time>
      </trkpt>
      <trkpt lat="37.011012" lon="-4.284038">
        <ele>1062.69</ele>
        <time>2019-01-18T10:49:12Z</time>
      </trkpt>
      <trkpt lat="37.010388" lon="-4.282931">
        <ele>1079.45</ele>
        <time>2019-01-18T10:50:43Z</time>
      </trkpt>
      <trkpt lat="37.009465" lon="-4.281101">
        <ele>1106.05</ele>
        <time>2019-01-18T10:53:14Z</time>
      </trkpt>
      <trkpt lat="37.009236" lon="-4.28091">
        <ele>1110.89</ele>
        <time>2019-01-18T10:53:40Z</time>
      </trkpt>
      <trkpt lat="37.008866" lon="-4.280948">
        <ele>1115.03</ele>
        <time>2019-01-18T10:54:03Z</time>
      </trkpt>
      <trkpt lat="37.008479" lon="-4.280179">
        <ele>1115.01</ele>
        <time>2019-01-18T10:54:28Z</time>
      </trkpt>
      <trkpt lat="37.008422" lon="-4.27922">
        <ele>1119.22</ele>
        <time>2019-01-18T10:54:52Z</time>
      </trkpt>
      <trkpt lat="37.008119" lon="-4.2768">
        <ele>1119.21</ele>
        <time>2019-01-18T10:54:58Z</time>
      </trkpt>
      <trkpt lat="37.007634" lon="-4.276816">
        <ele>1119.61</ele>
        <time>2019-01-18T10:55:03Z</time>
      </trkpt>
      <trkpt lat="37.007324" lon="-4.277463">
        <ele>1120.27</ele>
        <time>2019-01-18T10:55:04Z</time>
      </trkpt>
      <trkpt lat="37.007229" lon="-4.278692">
        <ele>1120.83</ele>
        <time>2019-01-18T10:55:05Z</time>
      </trkpt>
      <trkpt lat="37.00696" lon="-4.278907">
        <ele>1121.45</ele>
        <time>2019-01-18T10:55:06Z</time>
      </trkpt>
      <trkpt lat="37.006461" lon="-4.278874">
        <ele>1121.82</ele>
        <time>2019-01-18T10:55:07Z</time>
      </trkpt>
      <trkpt lat="37.005114" lon="-4.278376">
        <ele>1121.83</ele>
        <time>2019-01-18T10:55:08Z</time>
      </trkpt>
      <trkpt lat="37.004704" lon="-4.279027">
        <ele>1053.28</ele>
        <time>2019-01-18T11:00:55Z</time>
      </trkpt>
      <trkpt lat="37.004433" lon="-4.279317">
        <ele>1053.28</ele>
        <time>2019-01-18T11:01:39Z</time>
      </trkpt>
      <trkpt lat="37.00393" lon="-4.279672">
        <ele>1045.83</ele>
        <time>2019-01-18T11:02:32Z</time>
      </trkpt>
      <trkpt lat="37.003776" lon="-4.280364">
        <ele>1040.21</ele>
        <time>2019-01-18T11:03:23Z</time>
      </trkpt>
      <trkpt lat="37.003667" lon="-4.280253">
        <ele>1036.02</ele>
        <time>2019-01-18T11:03:36Z</time>
      </trkpt>
      <trkpt lat="37.003717" lon="-4.279224">
        <ele>1025.48</ele>
        <time>2019-01-18T11:05:01Z</time>
      </trkpt>
      <trkpt lat="37.003853" lon="-4.279059">
        <ele>1020.07</ele>
        <time>2019-01-18T12:07:10Z</time>
      </trkpt>
      <trkpt lat="37.004115" lon="-4.278572">
        <ele>1019.66</ele>
        <time>2019-01-18T12:25:06Z</time>
      </trkpt>
      <trkpt lat="37.004319" lon="-4.277657">
        <ele>1007.89</ele>
        <time>2019-01-18T12:25:24Z</time>
      </trkpt>
      <trkpt lat="37.004689" lon="-4.27676">
        <ele>995.23</ele>
        <time>2019-01-18T12:25:38Z</time>
      </trkpt>
      <trkpt lat="37.005146" lon="-4.276329">
        <ele>983.84</ele>
        <time>2019-01-18T12:25:48Z</time>
      </trkpt>
      <trkpt lat="37.005263" lon="-4.275898">
        <ele>975.48</ele>
        <time>2019-01-18T12:25:55Z</time>
      </trkpt>
      <trkpt lat="37.004936" lon="-4.275897">
        <ele>966.01</ele>
        <time>2019-01-18T12:26:04Z</time>
      </trkpt>
      <trkpt lat="37.004639" lon="-4.275819">
        <ele>960.05</ele>
        <time>2019-01-18T12:26:10Z</time>
      </trkpt>
      <trkpt lat="37.004115" lon="-4.275634">
        <ele>949.28</ele>
        <time>2019-01-18T12:26:20Z</time>
      </trkpt>
      <trkpt lat="37.003885" lon="-4.275614">
        <ele>943.88</ele>
        <time>2019-01-18T12:26:25Z</time>
      </trkpt>
      <trkpt lat="37.003998" lon="-4.275208">
        <ele>935.25</ele>
        <time>2019-01-18T12:26:32Z</time>
      </trkpt>
      <trkpt lat="37.004213" lon="-4.274869">
        <ele>929.01</ele>
        <time>2019-01-18T12:26:39Z</time>
      </trkpt>
      <trkpt lat="37.003761" lon="-4.274916">
        <ele>919.68</ele>
        <time>2019-01-18T12:26:49Z</time>
      </trkpt>
      <trkpt lat="37.00287" lon="-4.273523">
        <ele>902.63</ele>
        <time>2019-01-18T12:27:08Z</time>
      </trkpt>
      <trkpt lat="37.002472" lon="-4.273027">
        <ele>898.61</ele>
        <time>2019-01-18T12:27:17Z</time>
      </trkpt>
      <trkpt lat="37.001721" lon="-4.271797">
        <ele>893.03</ele>
        <time>2019-01-18T12:27:39Z</time>
      </trkpt>
      <trkpt lat="37.000203" lon="-4.270349">
        <ele>890.86</ele>
        <time>2019-01-18T12:28:12Z</time>
      </trkpt>
      <trkpt lat="36.999901" lon="-4.269564">
        <ele>888.9</ele>
        <time>2019-01-18T12:28:23Z</time>
      </trkpt>
      <trkpt lat="36.999352" lon="-4.266901">
        <ele>888.88</ele>
        <time>2019-01-18T12:28:59Z</time>
      </trkpt>
      <trkpt lat="36.998963" lon="-4.264532">
        <ele>886.82</ele>
        <time>2019-01-18T12:29:29Z</time>
      </trkpt>
      <trkpt lat="36.998808" lon="-4.262887">
        <ele>884.64</ele>
        <time>2019-01-18T12:29:52Z</time>
      </trkpt>
      <trkpt lat="36.998482" lon="-4.261075">
        <ele>884.69</ele>
        <time>2019-01-18T12:30:31Z</time>
      </trkpt>
      <trkpt lat="36.998355" lon="-4.259609">
        <ele>893.05</ele>
        <time>2019-01-18T12:31:20Z</time>
      </trkpt>
      <trkpt lat="36.998101" lon="-4.259148">
        <ele>893.01</ele>
        <time>2019-01-18T12:31:34Z</time>
      </trkpt>
      <trkpt lat="36.996966" lon="-4.25853">
        <ele>899.45</ele>
        <time>2019-01-18T12:32:17Z</time>
      </trkpt>
      <trkpt lat="36.995909" lon="-4.258183">
        <ele>899.44</ele>
        <time>2019-01-18T12:32:43Z</time>
      </trkpt>
      <trkpt lat="36.99553" lon="-4.25818">
        <ele>899.46</ele>
        <time>2019-01-18T12:32:50Z</time>
      </trkpt>
      <trkpt lat="36.994718" lon="-4.258955">
        <ele>897.45</ele>
        <time>2019-01-18T12:33:13Z</time>
      </trkpt>
      <trkpt lat="36.994398" lon="-4.259287">
        <ele>897.42</ele>
        <time>2019-01-18T12:33:24Z</time>
      </trkpt>
      <trkpt lat="36.994091" lon="-4.259815">
        <ele>897.42</ele>
        <time>2019-01-18T12:33:36Z</time>
      </trkpt>
      <trkpt lat="36.994713" lon="-4.260712">
        <ele>897.49</ele>
        <time>2019-01-18T12:33:58Z</time>
      </trkpt>
      <trkpt lat="36.994727" lon="-4.261138">
        <ele>897.43</ele>
        <time>2019-01-18T12:34:06Z</time>
      </trkpt>
      <trkpt lat="36.994234" lon="-4.262208">
        <ele>897.44</ele>
        <time>2019-01-18T12:34:26Z</time>
      </trkpt>
      <trkpt lat="36.993824" lon="-4.262461">
        <ele>896.02</ele>
        <time>2019-01-18T12:34:35Z</time>
      </trkpt>
      <trkpt lat="36.993477" lon="-4.262648">
        <ele>895.21</ele>
        <time>2019-01-18T12:34:41Z</time>
      </trkpt>
      <trkpt lat="36.993006" lon="-4.263502">
        <ele>893.27</ele>
        <time>2019-01-18T12:34:54Z</time>
      </trkpt>
      <trkpt lat="36.992342" lon="-4.265025">
        <ele>893.27</ele>
        <time>2019-01-18T12:35:22Z</time>
      </trkpt>
      <trkpt lat="36.992316" lon="-4.265826">
        <ele>893.24</ele>
        <time>2019-01-18T12:35:33Z</time>
      </trkpt>
      <trkpt lat="36.992695" lon="-4.267444">
        <ele>889.08</ele>
        <time>2019-01-18T12:35:53Z</time>
      </trkpt>
      <trkpt lat="36.992744" lon="-4.268077">
        <ele>889.01</ele>
        <time>2019-01-18T12:36:01Z</time>
      </trkpt>
      <trkpt lat="36.992992" lon="-4.268335">
        <ele>887.62</ele>
        <time>2019-01-18T12:36:06Z</time>
      </trkpt>
      <trkpt lat="36.993489" lon="-4.26839">
        <ele>884.45</ele>
        <time>2019-01-18T12:36:14Z</time>
      </trkpt>
      <trkpt lat="36.994411" lon="-4.269453">
        <ele>880.01</ele>
        <time>2019-01-18T12:36:34Z</time>
      </trkpt>
      <trkpt lat="36.994747" lon="-4.269943">
        <ele>880.08</ele>
        <time>2019-01-18T12:36:43Z</time>
      </trkpt>
      <trkpt lat="36.994734" lon="-4.270454">
        <ele>880.03</ele>
        <time>2019-01-18T12:36:50Z</time>
      </trkpt>
      <trkpt lat="36.991979" lon="-4.275066">
        <ele>878.04</ele>
        <time>2019-01-18T12:38:16Z</time>
      </trkpt>
      <trkpt lat="36.991896" lon="-4.275693">
        <ele>878.07</ele>
        <time>2019-01-18T12:38:27Z</time>
      </trkpt>
      <trkpt lat="36.991856" lon="-4.276588">
        <ele>877.48</ele>
        <time>2019-01-18T12:38:40Z</time>
      </trkpt>
      <trkpt lat="36.991447" lon="-4.277511">
        <ele>872.67</ele>
        <time>2019-01-18T12:38:51Z</time>
      </trkpt>
      <trkpt lat="36.991005" lon="-4.27795">
        <ele>869.23</ele>
        <time>2019-01-18T12:38:57Z</time>
      </trkpt>
      <trkpt lat="36.990236" lon="-4.278107">
        <ele>865.26</ele>
        <time>2019-01-18T12:39:05Z</time>
      </trkpt>
      <trkpt lat="36.989844" lon="-4.277842">
        <ele>863.67</ele>
        <time>2019-01-18T12:39:09Z</time>
      </trkpt>
      <trkpt lat="36.9895" lon="-4.277461">
        <ele>862.22</ele>
        <time>2019-01-18T12:39:13Z</time>
      </trkpt>
      <trkpt lat="36.988986" lon="-4.277479">
        <ele>861.25</ele>
        <time>2019-01-18T12:39:18Z</time>
      </trkpt>
      <trkpt lat="36.988096" lon="-4.277462">
        <ele>861.48</ele>
        <time>2019-01-18T12:39:37Z</time>
      </trkpt>
      <trkpt lat="36.986955" lon="-4.276983">
        <ele>867.48</ele>
        <time>2019-01-18T12:40:13Z</time>
      </trkpt>
      <trkpt lat="36.98653" lon="-4.276833">
        <ele>869.44</ele>
        <time>2019-01-18T12:40:25Z</time>
      </trkpt>
      <trkpt lat="36.985642" lon="-4.275957">
        <ele>869.41</ele>
        <time>2019-01-18T12:40:44Z</time>
      </trkpt>
      <trkpt lat="36.985067" lon="-4.275494">
        <ele>869.41</ele>
        <time>2019-01-18T12:40:53Z</time>
      </trkpt>
      <trkpt lat="36.982733" lon="-4.272286">
        <ele>869.44</ele>
        <time>2019-01-18T12:41:44Z</time>
      </trkpt>
      <trkpt lat="36.982267" lon="-4.272227">
        <ele>869.5</ele>
        <time>2019-01-18T12:41:52Z</time>
      </trkpt>
      <trkpt lat="36.981167" lon="-4.272591">
        <ele>867.22</ele>
        <time>2019-01-18T12:42:07Z</time>
      </trkpt>
      <trkpt lat="36.9803" lon="-4.273386">
        <ele>861.02</ele>
        <time>2019-01-18T12:42:16Z</time>
      </trkpt>
      <trkpt lat="36.979232" lon="-4.274208">
        <ele>853.09</ele>
        <time>2019-01-18T12:42:25Z</time>
      </trkpt>
      <trkpt lat="36.978472" lon="-4.274604">
        <ele>849.28</ele>
        <time>2019-01-18T12:42:31Z</time>
      </trkpt>
      <trkpt lat="36.978067" lon="-4.274558">
        <ele>847.49</ele>
        <time>2019-01-18T12:42:34Z</time>
      </trkpt>
      <trkpt lat="36.977327" lon="-4.273918">
        <ele>843.81</ele>
        <time>2019-01-18T12:42:41Z</time>
      </trkpt>
      <trkpt lat="36.976991" lon="-4.273513">
        <ele>843.81</ele>
        <time>2019-01-18T12:42:45Z</time>
      </trkpt>
      <trkpt lat="36.976159" lon="-4.271404">
        <ele>839.22</ele>
        <time>2019-01-18T12:43:03Z</time>
      </trkpt>
      <trkpt lat="36.974864" lon="-4.269396">
        <ele>833.08</ele>
        <time>2019-01-18T12:43:24Z</time>
      </trkpt>
      <trkpt lat="36.9738" lon="-4.268176">
        <ele>830.81</ele>
        <time>2019-01-18T12:43:39Z</time>
      </trkpt>
      <trkpt lat="36.973135" lon="-4.267808">
        <ele>830.85</ele>
        <time>2019-01-18T12:43:48Z</time>
      </trkpt>
      <trkpt lat="36.971999" lon="-4.266763">
        <ele>830.85</ele>
        <time>2019-01-18T12:44:08Z</time>
      </trkpt>
      <trkpt lat="36.971339" lon="-4.265485">
        <ele>830.88</ele>
        <time>2019-01-18T12:44:23Z</time>
      </trkpt>
      <trkpt lat="36.970923" lon="-4.264741">
        <ele>828.67</ele>
        <time>2019-01-18T12:44:31Z</time>
      </trkpt>
      <trkpt lat="36.970037" lon="-4.263699">
        <ele>828.7</ele>
        <time>2019-01-18T12:44:45Z</time>
      </trkpt>
      <trkpt lat="36.969319" lon="-4.26317">
        <ele>826.66</ele>
        <time>2019-01-18T12:44:54Z</time>
      </trkpt>
      <trkpt lat="36.968292" lon="-4.262043">
        <ele>822.03</ele>
        <time>2019-01-18T12:45:07Z</time>
      </trkpt>
      <trkpt lat="36.967973" lon="-4.26134">
        <ele>822.03</ele>
        <time>2019-01-18T12:45:13Z</time>
      </trkpt>
      <trkpt lat="36.967646" lon="-4.260516">
        <ele>820.84</ele>
        <time>2019-01-18T12:45:20Z</time>
      </trkpt>
      <trkpt lat="36.966818" lon="-4.259443">
        <ele>818.69</ele>
        <time>2019-01-18T12:45:31Z</time>
      </trkpt>
      <trkpt lat="36.966298" lon="-4.259043">
        <ele>816.64</ele>
        <time>2019-01-18T12:45:36Z</time>
      </trkpt>
      <trkpt lat="36.966011" lon="-4.258156">
        <ele>813.03</ele>
        <time>2019-01-18T12:45:42Z</time>
      </trkpt>
      <trkpt lat="36.965139" lon="-4.257091">
        <ele>806.41</ele>
        <time>2019-01-18T12:45:51Z</time>
      </trkpt>
      <trkpt lat="36.964747" lon="-4.256604">
        <ele>802.84</ele>
        <time>2019-01-18T12:45:55Z</time>
      </trkpt>
      <trkpt lat="36.964194" lon="-4.256148">
        <ele>798.86</ele>
        <time>2019-01-18T12:46:00Z</time>
      </trkpt>
      <trkpt lat="36.963406" lon="-4.255017">
        <ele>800.07</ele>
        <time>2019-01-18T12:46:15Z</time>
      </trkpt>
      <trkpt lat="36.963196" lon="-4.254125">
        <ele>801.03</ele>
        <time>2019-01-18T12:46:34Z</time>
      </trkpt>
      <trkpt lat="36.963131" lon="-4.253806">
        <ele>798.83</ele>
        <time>2019-01-18T12:46:55Z</time>
      </trkpt>
      <trkpt lat="36.962964" lon="-4.252928">
        <ele>805.47</ele>
        <time>2019-01-18T12:47:48Z</time>
      </trkpt>
      <trkpt lat="36.962975" lon="-4.251976">
        <ele>811.46</ele>
        <time>2019-01-18T12:48:34Z</time>
      </trkpt>
      <trkpt lat="36.962761" lon="-4.251508">
        <ele>817.21</ele>
        <time>2019-01-18T12:49:06Z</time>
      </trkpt>
      <trkpt lat="36.962495" lon="-4.2504">
        <ele>829.08</ele>
        <time>2019-01-18T12:50:19Z</time>
      </trkpt>
      <trkpt lat="36.962057" lon="-4.249666">
        <ele>832.27</ele>
        <time>2019-01-18T12:50:54Z</time>
      </trkpt>
      <trkpt lat="36.961634" lon="-4.248355">
        <ele>836.82</ele>
        <time>2019-01-18T12:51:50Z</time>
      </trkpt>
      <trkpt lat="36.961512" lon="-4.248163">
        <ele>838.43</ele>
        <time>2019-01-18T12:52:00Z</time>
      </trkpt>
      <trkpt lat="36.960426" lon="-4.247549">
        <ele>838.41</ele>
        <time>2019-01-18T12:52:24Z</time>
      </trkpt>
      <trkpt lat="36.960004" lon="-4.246763">
        <ele>837.04</ele>
        <time>2019-01-18T12:52:35Z</time>
      </trkpt>
      <trkpt lat="36.95962" lon="-4.246295">
        <ele>831.89</ele>
        <time>2019-01-18T12:52:41Z</time>
      </trkpt>
      <trkpt lat="36.958876" lon="-4.244911">
        <ele>826.86</ele>
        <time>2019-01-18T12:53:01Z</time>
      </trkpt>
      <trkpt lat="36.958524" lon="-4.244421">
        <ele>826.81</ele>
        <time>2019-01-18T12:53:14Z</time>
      </trkpt>
      <trkpt lat="36.95843" lon="-4.244464">
        <ele>826.41</ele>
        <time>2019-01-18T12:53:18Z</time>
      </trkpt>
      <trkpt lat="36.958629" lon="-4.245313">
        <ele>821.84</ele>
        <time>2019-01-18T12:53:29Z</time>
      </trkpt>
      <trkpt lat="36.958803" lon="-4.246021">
        <ele>813.64</ele>
        <time>2019-01-18T12:53:38Z</time>
      </trkpt>
      <trkpt lat="36.958925" lon="-4.246655">
        <ele>812.82</ele>
        <time>2019-01-18T12:53:49Z</time>
      </trkpt>
      <trkpt lat="36.958842" lon="-4.246919">
        <ele>809.69</ele>
        <time>2019-01-18T12:53:54Z</time>
      </trkpt>
      <trkpt lat="36.958141" lon="-4.246475">
        <ele>799.29</ele>
        <time>2019-01-18T12:54:05Z</time>
      </trkpt>
      <trkpt lat="36.957882" lon="-4.245615">
        <ele>794.24</ele>
        <time>2019-01-18T12:54:17Z</time>
      </trkpt>
      <trkpt lat="36.957859" lon="-4.245373">
        <ele>794.26</ele>
        <time>2019-01-18T12:54:21Z</time>
      </trkpt>
      <trkpt lat="36.957964" lon="-4.245012">
        <ele>792.28</ele>
        <time>2019-01-18T12:54:26Z</time>
      </trkpt>
      <trkpt lat="36.957442" lon="-4.244135">
        <ele>781.86</ele>
        <time>2019-01-18T12:54:39Z</time>
      </trkpt>
      <trkpt lat="36.957172" lon="-4.243861">
        <ele>778.89</ele>
        <time>2019-01-18T12:54:44Z</time>
      </trkpt>
      <trkpt lat="36.956967" lon="-4.243505">
        <ele>775.86</ele>
        <time>2019-01-18T12:54:49Z</time>
      </trkpt>
      <trkpt lat="36.956546" lon="-4.243542">
        <ele>772.43</ele>
        <time>2019-01-18T12:54:56Z</time>
      </trkpt>
      <trkpt lat="36.955861" lon="-4.243668">
        <ele>768.23</ele>
        <time>2019-01-18T12:55:04Z</time>
      </trkpt>
      <trkpt lat="36.955621" lon="-4.243245">
        <ele>766.42</ele>
        <time>2019-01-18T12:55:12Z</time>
      </trkpt>
      <trkpt lat="36.955237" lon="-4.243102">
        <ele>765.1</ele>
        <time>2019-01-18T12:55:18Z</time>
      </trkpt>
      <trkpt lat="36.95476" lon="-4.243338">
        <ele>758.48</ele>
        <time>2019-01-18T12:55:25Z</time>
      </trkpt>
      <trkpt lat="36.954403" lon="-4.243308">
        <ele>755.89</ele>
        <time>2019-01-18T12:55:30Z</time>
      </trkpt>
      <trkpt lat="36.953162" lon="-4.242556">
        <ele>747.63</ele>
        <time>2019-01-18T12:55:46Z</time>
      </trkpt>
      <trkpt lat="36.952508" lon="-4.241851">
        <ele>746.87</ele>
        <time>2019-01-18T12:56:01Z</time>
      </trkpt>
      <trkpt lat="36.951831" lon="-4.241389">
        <ele>742.21</ele>
        <time>2019-01-18T12:56:09Z</time>
      </trkpt>
      <trkpt lat="36.951512" lon="-4.241019">
        <ele>739.41</ele>
        <time>2019-01-18T12:56:17Z</time>
      </trkpt>
      <trkpt lat="36.951382" lon="-4.240611">
        <ele>743.41</ele>
        <time>2019-01-18T12:56:46Z</time>
      </trkpt>
      <trkpt lat="36.950788" lon="-4.240337">
        <ele>747.67</ele>
        <time>2019-01-18T12:57:17Z</time>
      </trkpt>
      <trkpt lat="36.950441" lon="-4.240367">
        <ele>747.22</ele>
        <time>2019-01-18T12:57:23Z</time>
      </trkpt>
      <trkpt lat="36.95021" lon="-4.239969">
        <ele>745.48</ele>
        <time>2019-01-18T12:57:31Z</time>
      </trkpt>
      <trkpt lat="36.949639" lon="-4.239138">
        <ele>747.41</ele>
        <time>2019-01-18T12:57:50Z</time>
      </trkpt>
      <trkpt lat="36.949069" lon="-4.238208">
        <ele>740.42</ele>
        <time>2019-01-18T12:58:01Z</time>
      </trkpt>
      <trkpt lat="36.948703" lon="-4.237937">
        <ele>735.9</ele>
        <time>2019-01-18T12:58:08Z</time>
      </trkpt>
      <trkpt lat="36.948291" lon="-4.236882">
        <ele>734.03</ele>
        <time>2019-01-18T12:58:44Z</time>
      </trkpt>
      <trkpt lat="36.947895" lon="-4.236526">
        <ele>737.26</ele>
        <time>2019-01-18T12:59:00Z</time>
      </trkpt>
      <trkpt lat="36.947754" lon="-4.236111">
        <ele>736.85</ele>
        <time>2019-01-18T12:59:08Z</time>
      </trkpt>
      <trkpt lat="36.947934" lon="-4.23534">
        <ele>733.08</ele>
        <time>2019-01-18T12:59:26Z</time>
      </trkpt>
      <trkpt lat="36.947704" lon="-4.234495">
        <ele>724.41</ele>
        <time>2019-01-18T12:59:57Z</time>
      </trkpt>
      <trkpt lat="36.947369" lon="-4.233998">
        <ele>724.42</ele>
        <time>2019-01-18T13:00:25Z</time>
      </trkpt>
      <trkpt lat="36.947544" lon="-4.233311">
        <ele>719.28</ele>
        <time>2019-01-18T13:00:33Z</time>
      </trkpt>
      <trkpt lat="36.947686" lon="-4.232971">
        <ele>714.21</ele>
        <time>2019-01-18T13:00:38Z</time>
      </trkpt>
      <trkpt lat="36.947683" lon="-4.232486">
        <ele>709.49</ele>
        <time>2019-01-18T13:00:45Z</time>
      </trkpt>
      <trkpt lat="36.948267" lon="-4.231517">
        <ele>702.62</ele>
        <time>2019-01-18T13:01:05Z</time>
      </trkpt>
      <trkpt lat="36.948317" lon="-4.23108">
        <ele>697.63</ele>
        <time>2019-01-18T13:01:16Z</time>
      </trkpt>
      <trkpt lat="36.94855" lon="-4.231293">
        <ele>697.68</ele>
        <time>2019-01-18T13:01:38Z</time>
      </trkpt>
      <trkpt lat="36.948773" lon="-4.231126">
        <ele>701.87</ele>
        <time>2019-01-18T13:01:56Z</time>
      </trkpt>
      <trkpt lat="36.948901" lon="-4.23078">
        <ele>703.88</ele>
        <time>2019-01-18T13:02:16Z</time>
      </trkpt>
      <trkpt lat="36.948939" lon="-4.229869">
        <ele>710.21</ele>
        <time>2019-01-18T13:03:04Z</time>
      </trkpt>
      <trkpt lat="36.94917" lon="-4.229158">
        <ele>716.63</ele>
        <time>2019-01-18T13:03:44Z</time>
      </trkpt>
      <trkpt lat="36.949187" lon="-4.22888">
        <ele>716.61</ele>
        <time>2019-01-18T13:04:02Z</time>
      </trkpt>
      <trkpt lat="36.949097" lon="-4.228387">
        <ele>724.84</ele>
        <time>2019-01-18T13:04:45Z</time>
      </trkpt>
      <trkpt lat="36.949177" lon="-4.22804">
        <ele>729.09</ele>
        <time>2019-01-18T13:05:10Z</time>
      </trkpt>
      <trkpt lat="36.949111" lon="-4.227672">
        <ele>735.61</ele>
        <time>2019-01-18T13:05:41Z</time>
      </trkpt>
      <trkpt lat="36.94935" lon="-4.227306">
        <ele>740.1</ele>
        <time>2019-01-18T13:06:08Z</time>
      </trkpt>
      <trkpt lat="36.949622" lon="-4.22618">
        <ele>744.03</ele>
        <time>2019-01-18T13:06:55Z</time>
      </trkpt>
      <trkpt lat="36.949617" lon="-4.225589">
        <ele>750.45</ele>
        <time>2019-01-18T13:07:33Z</time>
      </trkpt>
      <trkpt lat="36.949518" lon="-4.224569">
        <ele>756.7</ele>
        <time>2019-01-18T13:08:23Z</time>
      </trkpt>
      <trkpt lat="36.9495" lon="-4.224357">
        <ele>756.66</ele>
        <time>2019-01-18T13:08:31Z</time>
      </trkpt>
      <trkpt lat="36.949871" lon="-4.223511">
        <ele>758.81</ele>
        <time>2019-01-18T13:08:56Z</time>
      </trkpt>
      <trkpt lat="36.949975" lon="-4.223188">
        <ele>758.84</ele>
        <time>2019-01-18T13:09:03Z</time>
      </trkpt>
      <trkpt lat="36.950337" lon="-4.223052">
        <ele>758.85</ele>
        <time>2019-01-18T13:09:11Z</time>
      </trkpt>
      <trkpt lat="36.950518" lon="-4.223136">
        <ele>758.85</ele>
        <time>2019-01-18T13:09:14Z</time>
      </trkpt>
      <trkpt lat="36.950734" lon="-4.223055">
        <ele>758.1</ele>
        <time>2019-01-18T13:09:18Z</time>
      </trkpt>
      <trkpt lat="36.950524" lon="-4.221974">
        <ele>746.43</ele>
        <time>2019-01-18T13:09:35Z</time>
      </trkpt>
      <trkpt lat="36.950498" lon="-4.221309">
        <ele>737.81</ele>
        <time>2019-01-18T13:09:51Z</time>
      </trkpt>
      <trkpt lat="36.95073" lon="-4.220469">
        <ele>737.81</ele>
        <time>2019-01-18T13:10:09Z</time>
      </trkpt>
      <trkpt lat="36.950652" lon="-4.219611">
        <ele>737.89</ele>
        <time>2019-01-18T13:10:28Z</time>
      </trkpt>
      <trkpt lat="36.950805" lon="-4.219045">
        <ele>737.82</ele>
        <time>2019-01-18T13:10:38Z</time>
      </trkpt>
      <trkpt lat="36.951198" lon="-4.218303">
        <ele>735.85</ele>
        <time>2019-01-18T13:10:50Z</time>
      </trkpt>
      <trkpt lat="36.951484" lon="-4.217037">
        <ele>733.47</ele>
        <time>2019-01-18T13:11:09Z</time>
      </trkpt>
      <trkpt lat="36.951515" lon="-4.216558">
        <ele>730.62</ele>
        <time>2019-01-18T13:11:15Z</time>
      </trkpt>
      <trkpt lat="36.951756" lon="-4.215939">
        <ele>729.26</ele>
        <time>2019-01-18T13:11:24Z</time>
      </trkpt>
      <trkpt lat="36.951815" lon="-4.21474">
        <ele>725.86</ele>
        <time>2019-01-18T13:11:48Z</time>
      </trkpt>
      <trkpt lat="36.951778" lon="-4.214164">
        <ele>729.28</ele>
        <time>2019-01-18T13:12:23Z</time>
      </trkpt>
      <trkpt lat="36.952439" lon="-4.213131">
        <ele>738.42</ele>
        <time>2019-01-18T13:13:35Z</time>
      </trkpt>
      <trkpt lat="36.95257" lon="-4.212423">
        <ele>747.03</ele>
        <time>2019-01-18T13:14:24Z</time>
      </trkpt>
      <trkpt lat="36.952958" lon="-4.21186">
        <ele>750.24</ele>
        <time>2019-01-18T13:14:53Z</time>
      </trkpt>
      <trkpt lat="36.95321" lon="-4.211039">
        <ele>755.26</ele>
        <time>2019-01-18T13:15:39Z</time>
      </trkpt>
      <trkpt lat="36.953388" lon="-4.21089">
        <ele>756.49</ele>
        <time>2019-01-18T13:16:13Z</time>
      </trkpt>
      <trkpt lat="36.954133" lon="-4.210629">
        <ele>756.45</ele>
        <time>2019-01-18T13:16:30Z</time>
      </trkpt>
      <trkpt lat="36.95463" lon="-4.210564">
        <ele>752.05</ele>
        <time>2019-01-18T13:16:39Z</time>
      </trkpt>
      <trkpt lat="36.955019" lon="-4.210303">
        <ele>749.29</ele>
        <time>2019-01-18T13:16:48Z</time>
      </trkpt>
      <trkpt lat="36.956033" lon="-4.210121">
        <ele>741.82</ele>
        <time>2019-01-18T13:17:03Z</time>
      </trkpt>
      <trkpt lat="36.95714" lon="-4.208728">
        <ele>732.21</ele>
        <time>2019-01-18T13:18:39Z</time>
      </trkpt>
      <trkpt lat="36.95719" lon="-4.20855">
        <ele>728.25</ele>
        <time>2019-01-18T13:22:47Z</time>
      </trkpt>
      <trkpt lat="36.957225" lon="-4.208667">
        <ele>730.21</ele>
        <time>2019-01-18T13:23:03Z</time>
      </trkpt>
      <trkpt lat="36.957641" lon="-4.208362">
        <ele>732.21</ele>
        <time>2019-01-18T13:23:24Z</time>
      </trkpt>
      <trkpt lat="36.957771" lon="-4.208136">
        <ele>732.25</ele>
        <time>2019-01-18T13:23:30Z</time>
      </trkpt>
      <trkpt lat="36.957725" lon="-4.207493">
        <ele>732.28</ele>
        <time>2019-01-18T13:23:41Z</time>
      </trkpt>
      <trkpt lat="36.958118" lon="-4.206428">
        <ele>727.86</ele>
        <time>2019-01-18T13:24:01Z</time>
      </trkpt>
      <trkpt lat="36.95785" lon="-4.205323">
        <ele>725.46</ele>
        <time>2019-01-18T13:24:25Z</time>
      </trkpt>
      <trkpt lat="36.957948" lon="-4.204432">
        <ele>721.41</ele>
        <time>2019-01-18T13:24:35Z</time>
      </trkpt>
      <trkpt lat="36.9577" lon="-4.20394">
        <ele>721.44</ele>
        <time>2019-01-18T13:24:50Z</time>
      </trkpt>
      <trkpt lat="36.957626" lon="-4.20331">
        <ele>727.81</ele>
        <time>2019-01-18T13:25:19Z</time>
      </trkpt>
      <trkpt lat="36.957807" lon="-4.202626">
        <ele>731.07</ele>
        <time>2019-01-18T13:25:50Z</time>
      </trkpt>
      <trkpt lat="36.9577" lon="-4.202256">
        <ele>733.81</ele>
        <time>2019-01-18T13:26:07Z</time>
      </trkpt>
      <trkpt lat="36.957977" lon="-4.201319">
        <ele>740.5</ele>
        <time>2019-01-18T13:26:52Z</time>
      </trkpt>
      <trkpt lat="36.958299" lon="-4.200927">
        <ele>745.41</ele>
        <time>2019-01-18T13:27:19Z</time>
      </trkpt>
      <trkpt lat="36.958436" lon="-4.20009">
        <ele>750.47</ele>
        <time>2019-01-18T13:27:55Z</time>
      </trkpt>
      <trkpt lat="36.958338" lon="-4.199679">
        <ele>752.49</ele>
        <time>2019-01-18T13:28:09Z</time>
      </trkpt>
      <trkpt lat="36.958167" lon="-4.199407">
        <ele>752.4</ele>
        <time>2019-01-18T13:28:21Z</time>
      </trkpt>
      <trkpt lat="36.958379" lon="-4.199051">
        <ele>752.42</ele>
        <time>2019-01-18T13:28:32Z</time>
      </trkpt>
      <trkpt lat="36.958527" lon="-4.198857">
        <ele>752.46</ele>
        <time>2019-01-18T13:28:37Z</time>
      </trkpt>
      <trkpt lat="36.958679" lon="-4.198483">
        <ele>752.41</ele>
        <time>2019-01-18T13:28:46Z</time>
      </trkpt>
      <trkpt lat="36.959515" lon="-4.197185">
        <ele>749.08</ele>
        <time>2019-01-18T13:29:19Z</time>
      </trkpt>
      <trkpt lat="36.959661" lon="-4.196674">
        <ele>746.41</ele>
        <time>2019-01-18T13:29:27Z</time>
      </trkpt>
      <trkpt lat="36.959947" lon="-4.195812">
        <ele>745.24</ele>
        <time>2019-01-18T13:29:36Z</time>
      </trkpt>
      <trkpt lat="36.960357" lon="-4.194">
        <ele>738.63</ele>
        <time>2019-01-18T13:29:53Z</time>
      </trkpt>
      <trkpt lat="36.960348" lon="-4.19328">
        <ele>737.21</ele>
        <time>2019-01-18T13:30:05Z</time>
      </trkpt>
      <trkpt lat="36.960458" lon="-4.191625">
        <ele>733.87</ele>
        <time>2019-01-18T13:30:37Z</time>
      </trkpt>
      <trkpt lat="36.960393" lon="-4.190584">
        <ele>735.47</ele>
        <time>2019-01-18T13:31:09Z</time>
      </trkpt>
      <trkpt lat="36.960267" lon="-4.189513">
        <ele>731.89</ele>
        <time>2019-01-18T13:31:20Z</time>
      </trkpt>
      <trkpt lat="36.960244" lon="-4.189172">
        <ele>731.23</ele>
        <time>2019-01-18T13:31:24Z</time>
      </trkpt>
      <trkpt lat="36.959961" lon="-4.188745">
        <ele>729.05</ele>
        <time>2019-01-18T13:31:32Z</time>
      </trkpt>
      <trkpt lat="36.959853" lon="-4.188226">
        <ele>733.41</ele>
        <time>2019-01-18T13:33:50Z</time>
      </trkpt>
      <trkpt lat="36.959606" lon="-4.187714">
        <ele>736.85</ele>
        <time>2019-01-18T13:34:25Z</time>
      </trkpt>
      <trkpt lat="36.95934" lon="-4.187467">
        <ele>741.88</ele>
        <time>2019-01-18T13:34:55Z</time>
      </trkpt>
      <trkpt lat="36.959292" lon="-4.186936">
        <ele>747.62</ele>
        <time>2019-01-18T13:35:30Z</time>
      </trkpt>
      <trkpt lat="36.958995" lon="-4.185614">
        <ele>754.48</ele>
        <time>2019-01-18T13:36:31Z</time>
      </trkpt>
      <trkpt lat="36.958461" lon="-4.18396">
        <ele>756.41</ele>
        <time>2019-01-18T13:37:27Z</time>
      </trkpt>
      <trkpt lat="36.95814" lon="-4.183667">
        <ele>758.45</ele>
        <time>2019-01-18T13:37:45Z</time>
      </trkpt>
      <trkpt lat="36.957766" lon="-4.183178">
        <ele>764.81</ele>
        <time>2019-01-18T13:38:21Z</time>
      </trkpt>
      <trkpt lat="36.957255" lon="-4.181808">
        <ele>777.07</ele>
        <time>2019-01-18T13:39:34Z</time>
      </trkpt>
      <trkpt lat="36.956482" lon="-4.180642">
        <ele>788.42</ele>
        <time>2019-01-18T13:40:54Z</time>
      </trkpt>
      <trkpt lat="36.95549" lon="-4.17972">
        <ele>803.89</ele>
        <time>2019-01-18T13:42:31Z</time>
      </trkpt>
      <trkpt lat="36.955142" lon="-4.179264">
        <ele>808.62</ele>
        <time>2019-01-18T13:43:01Z</time>
      </trkpt>
      <trkpt lat="36.954604" lon="-4.17873">
        <ele>813.5</ele>
        <time>2019-01-18T13:43:37Z</time>
      </trkpt>
      <trkpt lat="36.95428" lon="-4.178112">
        <ele>819.05</ele>
        <time>2019-01-18T13:44:16Z</time>
      </trkpt>
      <trkpt lat="36.954131" lon="-4.177777">
        <ele>822.09</ele>
        <time>2019-01-18T13:44:38Z</time>
      </trkpt>
      <trkpt lat="36.953652" lon="-4.177359">
        <ele>828.87</ele>
        <time>2019-01-18T13:45:16Z</time>
      </trkpt>
      <trkpt lat="36.953189" lon="-4.176969">
        <ele>834.89</ele>
        <time>2019-01-18T13:45:49Z</time>
      </trkpt>
      <trkpt lat="36.95259" lon="-4.176212">
        <ele>838.83</ele>
        <time>2019-01-18T13:46:35Z</time>
      </trkpt>
      <trkpt lat="36.952354" lon="-4.175502">
        <ele>846.82</ele>
        <time>2019-01-18T13:47:25Z</time>
      </trkpt>
      <trkpt lat="36.95227" lon="-4.173581">
        <ele>870.28</ele>
        <time>2019-01-18T13:49:40Z</time>
      </trkpt>
      <trkpt lat="36.951986" lon="-4.17296">
        <ele>882.01</ele>
        <time>2019-01-18T13:50:34Z</time>
      </trkpt>
      <trkpt lat="36.951386" lon="-4.173604">
        <ele>881.47</ele>
        <time>2019-01-18T13:50:59Z</time>
      </trkpt>
      <trkpt lat="36.950896" lon="-4.17441">
        <ele>879.23</ele>
        <time>2019-01-18T13:51:17Z</time>
      </trkpt>
      <trkpt lat="36.950631" lon="-4.174247">
        <ele>879.28</ele>
        <time>2019-01-18T13:51:27Z</time>
      </trkpt>
      <trkpt lat="36.950164" lon="-4.173625">
        <ele>881.06</ele>
        <time>2019-01-18T13:51:50Z</time>
      </trkpt>
      <trkpt lat="36.949716" lon="-4.173405">
        <ele>886.28</ele>
        <time>2019-01-18T13:52:20Z</time>
      </trkpt>
      <trkpt lat="36.949435" lon="-4.173143">
        <ele>888.22</ele>
        <time>2019-01-18T13:52:39Z</time>
      </trkpt>
      <trkpt lat="36.948663" lon="-4.172999">
        <ele>894.04</ele>
        <time>2019-01-18T13:53:07Z</time>
      </trkpt>
      <trkpt lat="36.947901" lon="-4.173368">
        <ele>894.02</ele>
        <time>2019-01-18T13:53:33Z</time>
      </trkpt>
      <trkpt lat="36.94786" lon="-4.173252">
        <ele>896.01</ele>
        <time>2019-01-18T13:53:40Z</time>
      </trkpt>
      <trkpt lat="36.949227" lon="-4.171664">
        <ele>898.21</ele>
        <time>2019-01-18T13:54:28Z</time>
      </trkpt>
      <trkpt lat="36.949528" lon="-4.171194">
        <ele>898.28</ele>
        <time>2019-01-18T13:54:39Z</time>
      </trkpt>
      <trkpt lat="36.950603" lon="-4.168183">
        <ele>904.42</ele>
        <time>2019-01-18T13:56:00Z</time>
      </trkpt>
      <trkpt lat="36.950578" lon="-4.167186">
        <ele>904.44</ele>
        <time>2019-01-18T13:56:28Z</time>
      </trkpt>
      <trkpt lat="36.950406" lon="-4.166085">
        <ele>908.43</ele>
        <time>2019-01-18T14:05:07Z</time>
      </trkpt>
      <trkpt lat="36.950519" lon="-4.16366">
        <ele>910.61</ele>
        <time>2019-01-18T14:06:09Z</time>
      </trkpt>
      <trkpt lat="36.950394" lon="-4.162785">
        <ele>912.88</ele>
        <time>2019-01-18T14:06:32Z</time>
      </trkpt>
      <trkpt lat="36.950069" lon="-4.161671">
        <ele>915.09</ele>
        <time>2019-01-18T14:07:01Z</time>
      </trkpt>
      <trkpt lat="36.949975" lon="-4.160342">
        <ele>917.08</ele>
        <time>2019-01-18T14:07:31Z</time>
      </trkpt>
      <trkpt lat="36.949225" lon="-4.158189">
        <ele>921.23</ele>
        <time>2019-01-18T14:08:29Z</time>
      </trkpt>
      <trkpt lat="36.94832" lon="-4.157381">
        <ele>923.41</ele>
        <time>2019-01-18T14:08:59Z</time>
      </trkpt>
      <trkpt lat="36.946714" lon="-4.156852">
        <ele>927.62</ele>
        <time>2019-01-18T14:09:49Z</time>
      </trkpt>
      <trkpt lat="36.946531" lon="-4.156699">
        <ele>933.21</ele>
        <time>2019-01-18T14:11:07Z</time>
      </trkpt>
      <trkpt lat="36.946138" lon="-4.156199">
        <ele>929.42</ele>
        <time>2019-01-18T14:15:57Z</time>
      </trkpt>
      <trkpt lat="36.945603" lon="-4.155554">
        <ele>929.42</ele>
        <time>2019-01-18T14:16:15Z</time>
      </trkpt>
      <trkpt lat="36.944957" lon="-4.154965">
        <ele>932.62</ele>
        <time>2019-01-18T14:16:52Z</time>
      </trkpt>
      <trkpt lat="36.944691" lon="-4.154243">
        <ele>933.47</ele>
        <time>2019-01-18T14:17:12Z</time>
      </trkpt>
      <trkpt lat="36.944615" lon="-4.15227">
        <ele>937.82</ele>
        <time>2019-01-18T14:17:59Z</time>
      </trkpt>
      <trkpt lat="36.944856" lon="-4.150853">
        <ele>939.82</ele>
        <time>2019-01-18T14:18:32Z</time>
      </trkpt>
      <trkpt lat="36.944802" lon="-4.15014">
        <ele>939.87</ele>
        <time>2019-01-18T14:18:49Z</time>
      </trkpt>
      <trkpt lat="36.94467" lon="-4.149272">
        <ele>941.83</ele>
        <time>2019-01-18T14:19:09Z</time>
      </trkpt>
      <trkpt lat="36.944881" lon="-4.14824">
        <ele>947.49</ele>
        <time>2019-01-18T14:19:32Z</time>
      </trkpt>
      <trkpt lat="36.945241" lon="-4.146842">
        <ele>950.49</ele>
        <time>2019-01-18T14:20:02Z</time>
      </trkpt>
      <trkpt lat="36.945217" lon="-4.144953">
        <ele>953.21</ele>
        <time>2019-01-18T14:20:49Z</time>
      </trkpt>
      <trkpt lat="36.944754" lon="-4.143233">
        <ele>955.41</ele>
        <time>2019-01-18T14:21:24Z</time>
      </trkpt>
      <trkpt lat="36.944349" lon="-4.141581">
        <ele>955.42</ele>
        <time>2019-01-18T14:21:52Z</time>
      </trkpt>
      <trkpt lat="36.94411" lon="-4.140652">
        <ele>955.21</ele>
        <time>2019-01-18T14:22:08Z</time>
      </trkpt>
      <trkpt lat="36.944084" lon="-4.139729">
        <ele>956.63</ele>
        <time>2019-01-18T14:22:22Z</time>
      </trkpt>
      <trkpt lat="36.944226" lon="-4.138991">
        <ele>957.42</ele>
        <time>2019-01-18T14:22:34Z</time>
      </trkpt>
      <trkpt lat="36.944636" lon="-4.138209">
        <ele>957.45</ele>
        <time>2019-01-18T14:22:48Z</time>
      </trkpt>
      <trkpt lat="36.945888" lon="-4.136871">
        <ele>955.42</ele>
        <time>2019-01-18T14:23:18Z</time>
      </trkpt>
      <trkpt lat="36.946533" lon="-4.13611">
        <ele>953.46</ele>
        <time>2019-01-18T14:23:31Z</time>
      </trkpt>
      <trkpt lat="36.947268" lon="-4.134627">
        <ele>953.42</ele>
        <time>2019-01-18T14:23:48Z</time>
      </trkpt>
      <trkpt lat="36.947753" lon="-4.132162">
        <ele>949.04</ele>
        <time>2019-01-18T14:24:18Z</time>
      </trkpt>
      <trkpt lat="36.948349" lon="-4.13043">
        <ele>947.26</ele>
        <time>2019-01-18T14:24:52Z</time>
      </trkpt>
      <trkpt lat="36.949008" lon="-4.127283">
        <ele>942.67</ele>
        <time>2019-01-18T14:25:44Z</time>
      </trkpt>
      <trkpt lat="36.949246" lon="-4.126747">
        <ele>940.68</ele>
        <time>2019-01-18T14:27:37Z</time>
      </trkpt>
      <trkpt lat="36.949888" lon="-4.125692">
        <ele>940.62</ele>
        <time>2019-01-18T14:28:18Z</time>
      </trkpt>
      <trkpt lat="36.950816" lon="-4.124932">
        <ele>940.25</ele>
        <time>2019-01-18T14:28:39Z</time>
      </trkpt>
      <trkpt lat="36.951968" lon="-4.124175">
        <ele>936.46</ele>
        <time>2019-01-18T14:29:07Z</time>
      </trkpt>
      <trkpt lat="36.952624" lon="-4.123505">
        <ele>934.07</ele>
        <time>2019-01-18T14:31:00Z</time>
      </trkpt>
      <trkpt lat="36.952689" lon="-4.123228">
        <ele>931.08</ele>
        <time>2019-01-18T14:31:07Z</time>
      </trkpt>
      <trkpt lat="36.953748" lon="-4.12267">
        <ele>923.85</ele>
        <time>2019-01-18T14:34:31Z</time>
      </trkpt>
      <trkpt lat="36.955545" lon="-4.122063">
        <ele>921.29</ele>
        <time>2019-01-18T15:04:16Z</time>
      </trkpt>
      <trkpt lat="36.956604" lon="-4.121716">
        <ele>898.64</ele>
        <time>2019-01-18T15:04:45Z</time>
      </trkpt>
      <trkpt lat="36.958106" lon="-4.120973">
        <ele>869.23</ele>
        <time>2019-01-18T15:05:24Z</time>
      </trkpt>
      <trkpt lat="36.958209" lon="-4.120474">
        <ele>864.27</ele>
        <time>2019-01-18T15:05:33Z</time>
      </trkpt>
      <trkpt lat="36.958413" lon="-4.116199">
        <ele>869.45</ele>
        <time>2019-01-18T15:06:43Z</time>
      </trkpt>
      <trkpt lat="36.958365" lon="-4.115922">
        <ele>870.83</ele>
        <time>2019-01-18T15:06:48Z</time>
      </trkpt>
      <trkpt lat="36.957802" lon="-4.115819">
        <ele>868.62</ele>
        <time>2019-01-18T15:07:02Z</time>
      </trkpt>
      <trkpt lat="36.957519" lon="-4.114523">
        <ele>866.42</ele>
        <time>2019-01-18T15:07:27Z</time>
      </trkpt>
      <trkpt lat="36.957958" lon="-4.110673">
        <ele>875.04</ele>
        <time>2019-01-18T15:08:25Z</time>
      </trkpt>
      <trkpt lat="36.95806" lon="-4.109769">
        <ele>876.65</ele>
        <time>2019-01-18T15:08:37Z</time>
      </trkpt>
      <trkpt lat="36.958047" lon="-4.105914">
        <ele>883.81</ele>
        <time>2019-01-18T15:09:27Z</time>
      </trkpt>
      <trkpt lat="36.958276" lon="-4.104912">
        <ele>885.01</ele>
        <time>2019-01-18T15:09:41Z</time>
      </trkpt>
      <trkpt lat="36.958918" lon="-4.101338">
        <ele>889.23</ele>
        <time>2019-01-18T15:10:30Z</time>
      </trkpt>
      <trkpt lat="36.959183" lon="-4.10023">
        <ele>891.25</ele>
        <time>2019-01-18T15:10:49Z</time>
      </trkpt>
      <trkpt lat="36.959192" lon="-4.098568">
        <ele>893.42</ele>
        <time>2019-01-18T15:11:15Z</time>
      </trkpt>
      <trkpt lat="36.958304" lon="-4.092883">
        <ele>896.48</ele>
        <time>2019-01-18T15:12:37Z</time>
      </trkpt>
      <trkpt lat="36.957671" lon="-4.091992">
        <ele>889.04</ele>
        <time>2019-01-18T15:12:57Z</time>
      </trkpt>
      <trkpt lat="36.95681" lon="-4.091449">
        <ele>875.29</ele>
        <time>2019-01-18T15:13:27Z</time>
      </trkpt>
      <trkpt lat="36.956138" lon="-4.09103">
        <ele>880.83</ele>
        <time>2019-01-18T15:14:07Z</time>
      </trkpt>
      <trkpt lat="36.956138" lon="-4.09103">
        <ele>887.44</ele>
        <time>2019-01-18T15:14:35Z</time>
      </trkpt>
      <trkpt lat="36.955573" lon="-4.090306">
        <ele>888.21</ele>
        <time>2019-01-18T15:15:04Z</time>
      </trkpt>
      <trkpt lat="36.953851" lon="-4.089728">
        <ele>911.47</ele>
        <time>2019-01-18T15:16:49Z</time>
      </trkpt>
      <trkpt lat="36.953857" lon="-4.08949">
        <ele>911.46</ele>
        <time>2019-01-18T15:16:54Z</time>
      </trkpt>
      <trkpt lat="36.954187" lon="-4.088624">
        <ele>915.61</ele>
        <time>2019-01-18T15:17:18Z</time>
      </trkpt>
      <trkpt lat="36.954496" lon="-4.087209">
        <ele>923.46</ele>
        <time>2019-01-18T15:17:48Z</time>
      </trkpt>
      <trkpt lat="36.954106" lon="-4.085697">
        <ele>929.25</ele>
        <time>2019-01-18T15:18:08Z</time>
      </trkpt>
      <trkpt lat="36.953293" lon="-4.083489">
        <ele>928.29</ele>
        <time>2019-01-18T15:19:15Z</time>
      </trkpt>
      <trkpt lat="36.95307" lon="-4.082156">
        <ele>928.22</ele>
        <time>2019-01-18T15:19:31Z</time>
      </trkpt>
      <trkpt lat="36.952234" lon="-4.080491">
        <ele>930.42</ele>
        <time>2019-01-18T15:19:48Z</time>
      </trkpt>
      <trkpt lat="36.951915" lon="-4.080397">
        <ele>930.42</ele>
        <time>2019-01-18T15:19:56Z</time>
      </trkpt>
      <trkpt lat="36.951605" lon="-4.080028">
        <ele>930.45</ele>
        <time>2019-01-18T15:20:06Z</time>
      </trkpt>
      <trkpt lat="36.951399" lon="-4.079354">
        <ele>928.41</ele>
        <time>2019-01-18T15:20:21Z</time>
      </trkpt>
      <trkpt lat="36.951304" lon="-4.078539">
        <ele>932.63</ele>
        <time>2019-01-18T15:20:45Z</time>
      </trkpt>
      <trkpt lat="36.951494" lon="-4.077681">
        <ele>937.01</ele>
        <time>2019-01-18T15:21:13Z</time>
      </trkpt>
      <trkpt lat="36.951446" lon="-4.076963">
        <ele>939.03</ele>
        <time>2019-01-18T15:21:25Z</time>
      </trkpt>
      <trkpt lat="36.950775" lon="-4.074168">
        <ele>954.24</ele>
        <time>2019-01-18T15:22:27Z</time>
      </trkpt>
      <trkpt lat="36.950329" lon="-4.073175">
        <ele>949.87</ele>
        <time>2019-01-18T15:22:58Z</time>
      </trkpt>
      <trkpt lat="36.950178" lon="-4.071994">
        <ele>949.81</ele>
        <time>2019-01-18T15:23:11Z</time>
      </trkpt>
      <trkpt lat="36.949823" lon="-4.070353">
        <ele>954.04</ele>
        <time>2019-01-18T15:23:39Z</time>
      </trkpt>
      <trkpt lat="36.949613" lon="-4.068858">
        <ele>959.42</ele>
        <time>2019-01-18T15:24:11Z</time>
      </trkpt>
      <trkpt lat="36.949868" lon="-4.067281">
        <ele>964.43</ele>
        <time>2019-01-18T15:24:40Z</time>
      </trkpt>
      <trkpt lat="36.949306" lon="-4.066272">
        <ele>956.09</ele>
        <time>2019-01-18T15:25:13Z</time>
      </trkpt>
      <trkpt lat="36.94892" lon="-4.065175">
        <ele>949.41</ele>
        <time>2019-01-18T15:25:48Z</time>
      </trkpt>
      <trkpt lat="36.948929" lon="-4.064689">
        <ele>949.48</ele>
        <time>2019-01-18T15:26:01Z</time>
      </trkpt>
      <trkpt lat="36.949141" lon="-4.06412">
        <ele>949.47</ele>
        <time>2019-01-18T15:26:22Z</time>
      </trkpt>
      <trkpt lat="36.949198" lon="-4.063485">
        <ele>953.4</ele>
        <time>2019-01-18T15:26:51Z</time>
      </trkpt>
      <trkpt lat="36.949154" lon="-4.062934">
        <ele>959.88</ele>
        <time>2019-01-18T15:27:15Z</time>
      </trkpt>
      <trkpt lat="36.948707" lon="-4.062991">
        <ele>955.27</ele>
        <time>2019-01-18T15:27:38Z</time>
      </trkpt>
      <trkpt lat="36.947858" lon="-4.06172">
        <ele>953.27</ele>
        <time>2019-01-18T15:28:31Z</time>
      </trkpt>
      <trkpt lat="36.947837" lon="-4.061276">
        <ele>959.21</ele>
        <time>2019-01-18T15:28:55Z</time>
      </trkpt>
      <trkpt lat="36.94811" lon="-4.060793">
        <ele>962.67</ele>
        <time>2019-01-18T15:29:21Z</time>
      </trkpt>
      <trkpt lat="36.948062" lon="-4.06008">
        <ele>967.7</ele>
        <time>2019-01-18T15:29:42Z</time>
      </trkpt>
      <trkpt lat="36.948805" lon="-4.058087">
        <ele>983.42</ele>
        <time>2019-01-18T15:30:31Z</time>
      </trkpt>
      <trkpt lat="36.949177" lon="-4.057215">
        <ele>988.8</ele>
        <time>2019-01-18T15:30:48Z</time>
      </trkpt>
      <trkpt lat="36.949283" lon="-4.056417">
        <ele>992.26</ele>
        <time>2019-01-18T15:31:00Z</time>
      </trkpt>
      <trkpt lat="36.949649" lon="-4.054901">
        <ele>997.66</ele>
        <time>2019-01-18T15:31:20Z</time>
      </trkpt>
      <trkpt lat="36.949528" lon="-4.053434">
        <ele>1004.47</ele>
        <time>2019-01-18T15:31:43Z</time>
      </trkpt>
      <trkpt lat="36.94926" lon="-4.052165">
        <ele>1009.86</ele>
        <time>2019-01-18T15:32:05Z</time>
      </trkpt>
      <trkpt lat="36.949716" lon="-4.050335">
        <ele>1016.27</ele>
        <time>2019-01-18T15:32:36Z</time>
      </trkpt>
      <trkpt lat="36.949673" lon="-4.049808">
        <ele>1018.41</ele>
        <time>2019-01-18T15:32:48Z</time>
      </trkpt>
      <trkpt lat="36.950127" lon="-4.047638">
        <ele>1022.81</ele>
        <time>2019-01-18T15:33:31Z</time>
      </trkpt>
      <trkpt lat="36.950699" lon="-4.045573">
        <ele>1031.1</ele>
        <time>2019-01-18T15:34:04Z</time>
      </trkpt>
      <trkpt lat="36.950911" lon="-4.045442">
        <ele>1031.03</ele>
        <time>2019-01-18T15:34:09Z</time>
      </trkpt>
      <trkpt lat="36.95152" lon="-4.044004">
        <ele>1033.08</ele>
        <time>2019-01-18T15:34:34Z</time>
      </trkpt>
      <trkpt lat="36.952302" lon="-4.041166">
        <ele>1037.46</ele>
        <time>2019-01-18T15:35:16Z</time>
      </trkpt>
      <trkpt lat="36.952662" lon="-4.039938">
        <ele>1039.05</ele>
        <time>2019-01-18T15:35:41Z</time>
      </trkpt>
      <trkpt lat="36.9533" lon="-4.037885">
        <ele>1041.49</ele>
        <time>2019-01-18T15:36:25Z</time>
      </trkpt>
      <trkpt lat="36.954236" lon="-4.036007">
        <ele>1044.01</ele>
        <time>2019-01-18T15:37:15Z</time>
      </trkpt>
      <trkpt lat="36.95445" lon="-4.03502">
        <ele>1045.64</ele>
        <time>2019-01-18T15:37:31Z</time>
      </trkpt>
      <trkpt lat="36.954438" lon="-4.034872">
        <ele>1045.7</ele>
        <time>2019-01-18T15:37:33Z</time>
      </trkpt>
      <trkpt lat="36.955666" lon="-4.033199">
        <ele>1043.61</ele>
        <time>2019-01-18T15:38:08Z</time>
      </trkpt>
      <trkpt lat="36.956077" lon="-4.032982">
        <ele>1038.24</ele>
        <time>2019-01-18T15:38:20Z</time>
      </trkpt>
      <trkpt lat="36.956292" lon="-4.032512">
        <ele>1034.82</ele>
        <time>2019-01-18T15:38:36Z</time>
      </trkpt>
      <trkpt lat="36.955954" lon="-4.032068">
        <ele>1031.28</ele>
        <time>2019-01-18T15:38:52Z</time>
      </trkpt>
      <trkpt lat="36.954386" lon="-4.03123">
        <ele>1008.01</ele>
        <time>2019-01-18T15:39:35Z</time>
      </trkpt>
      <trkpt lat="36.954253" lon="-4.031112">
        <ele>1005.22</ele>
        <time>2019-01-18T15:39:41Z</time>
      </trkpt>
      <trkpt lat="36.954117" lon="-4.030149">
        <ele>1001.04</ele>
        <time>2019-01-18T15:40:16Z</time>
      </trkpt>
      <trkpt lat="36.954114" lon="-4.028296">
        <ele>1003.41</ele>
        <time>2019-01-18T15:41:01Z</time>
      </trkpt>
      <trkpt lat="36.953806" lon="-4.026533">
        <ele>1011.68</ele>
        <time>2019-01-18T15:41:32Z</time>
      </trkpt>
      <trkpt lat="36.953071" lon="-4.024728">
        <ele>1016.25</ele>
        <time>2019-01-18T15:41:58Z</time>
      </trkpt>
      <trkpt lat="36.952171" lon="-4.022835">
        <ele>1017.88</ele>
        <time>2019-01-18T15:42:25Z</time>
      </trkpt>
      <trkpt lat="36.951834" lon="-4.021231">
        <ele>1015.81</ele>
        <time>2019-01-18T15:43:06Z</time>
      </trkpt>
      <trkpt lat="36.951936" lon="-4.020013">
        <ele>1015.83</ele>
        <time>2019-01-18T15:43:34Z</time>
      </trkpt>
      <trkpt lat="36.952906" lon="-4.016627">
        <ele>1022.22</ele>
        <time>2019-01-18T15:44:52Z</time>
      </trkpt>
      <trkpt lat="36.95301" lon="-4.01531">
        <ele>1028.41</ele>
        <time>2019-01-18T15:45:40Z</time>
      </trkpt>
      <trkpt lat="36.952774" lon="-4.013818">
        <ele>1028.44</ele>
        <time>2019-01-18T15:46:09Z</time>
      </trkpt>
      <trkpt lat="36.952661" lon="-4.012945">
        <ele>1028.49</ele>
        <time>2019-01-18T15:46:27Z</time>
      </trkpt>
      <trkpt lat="36.951938" lon="-4.011307">
        <ele>1030.7</ele>
        <time>2019-01-18T15:46:55Z</time>
      </trkpt>
      <trkpt lat="36.951387" lon="-4.009358">
        <ele>1039.03</ele>
        <time>2019-01-18T15:47:37Z</time>
      </trkpt>
      <trkpt lat="36.950901" lon="-4.008147">
        <ele>1043.07</ele>
        <time>2019-01-18T15:48:14Z</time>
      </trkpt>
      <trkpt lat="36.950387" lon="-4.007625">
        <ele>1038.63</ele>
        <time>2019-01-18T15:48:37Z</time>
      </trkpt>
      <trkpt lat="36.949136" lon="-4.007007">
        <ele>1036.66</ele>
        <time>2019-01-18T15:49:11Z</time>
      </trkpt>
      <trkpt lat="36.948709" lon="-4.006415">
        <ele>1036.63</ele>
        <time>2019-01-18T15:49:25Z</time>
      </trkpt>
      <trkpt lat="36.948621" lon="-4.006216">
        <ele>1038.61</ele>
        <time>2019-01-18T15:49:53Z</time>
      </trkpt>
      <trkpt lat="36.948751" lon="-4.004955">
        <ele>1045.09</ele>
        <time>2019-01-18T15:50:30Z</time>
      </trkpt>
      <trkpt lat="36.94931" lon="-4.003654">
        <ele>1051.5</ele>
        <time>2019-01-18T15:51:10Z</time>
      </trkpt>
      <trkpt lat="36.949745" lon="-4.002673">
        <ele>1049.26</ele>
        <time>2019-01-18T15:51:52Z</time>
      </trkpt>
      <trkpt lat="36.949903" lon="-4.001353">
        <ele>1049.21</ele>
        <time>2019-01-18T15:52:41Z</time>
      </trkpt>
      <trkpt lat="36.9513" lon="-3.998081">
        <ele>1059.64</ele>
        <time>2019-01-18T15:54:59Z</time>
      </trkpt>
      <trkpt lat="36.951432" lon="-3.997053">
        <ele>1063.86</ele>
        <time>2019-01-18T15:55:38Z</time>
      </trkpt>
      <trkpt lat="36.951623" lon="-3.996569">
        <ele>1070.25</ele>
        <time>2019-01-18T15:56:34Z</time>
      </trkpt>
      <trkpt lat="36.951741" lon="-3.996156">
        <ele>1105.67</ele>
        <time>2019-01-18T16:02:33Z</time>
      </trkpt>
      <trkpt lat="36.952174" lon="-3.995109">
        <ele>1105.61</ele>
        <time>2019-01-18T16:03:09Z</time>
      </trkpt>
      <trkpt lat="36.952748" lon="-3.994498">
        <ele>1103.49</ele>
        <time>2019-01-18T16:03:23Z</time>
      </trkpt>
      <trkpt lat="36.953218" lon="-3.99422">
        <ele>1100.64</ele>
        <time>2019-01-18T16:03:31Z</time>
      </trkpt>
      <trkpt lat="36.9542" lon="-3.9927">
        <ele>1097.22</ele>
        <time>2019-01-18T16:03:47Z</time>
      </trkpt>
      <trkpt lat="36.955269" lon="-3.99222">
        <ele>1093.01</ele>
        <time>2019-01-18T16:03:58Z</time>
      </trkpt>
      <trkpt lat="36.957959" lon="-3.991636">
        <ele>1081.61</ele>
        <time>2019-01-18T16:04:26Z</time>
      </trkpt>
      <trkpt lat="36.958909" lon="-3.991477">
        <ele>1077.62</ele>
        <time>2019-01-18T16:04:34Z</time>
      </trkpt>
      <trkpt lat="36.959537" lon="-3.991033">
        <ele>1076.08</ele>
        <time>2019-01-18T16:04:41Z</time>
      </trkpt>
      <trkpt lat="36.96041" lon="-3.991186">
        <ele>1073.45</ele>
        <time>2019-01-18T16:04:50Z</time>
      </trkpt>
      <trkpt lat="36.960926" lon="-3.990952">
        <ele>1071.08</ele>
        <time>2019-01-18T16:04:55Z</time>
      </trkpt>
      <trkpt lat="36.961231" lon="-3.990564">
        <ele>1070.02</ele>
        <time>2019-01-18T16:04:59Z</time>
      </trkpt>
      <trkpt lat="36.961509" lon="-3.990186">
        <ele>1068.43</ele>
        <time>2019-01-18T16:05:03Z</time>
      </trkpt>
      <trkpt lat="36.963045" lon="-3.98969">
        <ele>1058.83</ele>
        <time>2019-01-18T16:05:26Z</time>
      </trkpt>
      <trkpt lat="36.963521" lon="-3.989786">
        <ele>1056.81</ele>
        <time>2019-01-18T16:05:32Z</time>
      </trkpt>
      <trkpt lat="36.964052" lon="-3.989512">
        <ele>1055.28</ele>
        <time>2019-01-18T16:05:39Z</time>
      </trkpt>
      <trkpt lat="36.96543" lon="-3.99005">
        <ele>1048.84</ele>
        <time>2019-01-18T16:05:55Z</time>
      </trkpt>
      <trkpt lat="36.965892" lon="-3.99039">
        <ele>1046.27</ele>
        <time>2019-01-18T16:06:01Z</time>
      </trkpt>
      <trkpt lat="36.966768" lon="-3.989674">
        <ele>1041.21</ele>
        <time>2019-01-18T16:06:12Z</time>
      </trkpt>
      <trkpt lat="36.967473" lon="-3.989343">
        <ele>1038.63</ele>
        <time>2019-01-18T16:06:18Z</time>
      </trkpt>
      <trkpt lat="36.968743" lon="-3.98937">
        <ele>1033.42</ele>
        <time>2019-01-18T16:06:28Z</time>
      </trkpt>
      <trkpt lat="36.969157" lon="-3.9898">
        <ele>1031.02</ele>
        <time>2019-01-18T16:06:34Z</time>
      </trkpt>
      <trkpt lat="36.969764" lon="-3.990763">
        <ele>1028.03</ele>
        <time>2019-01-18T16:06:45Z</time>
      </trkpt>
      <trkpt lat="36.970593" lon="-3.991439">
        <ele>1024.69</ele>
        <time>2019-01-18T16:06:54Z</time>
      </trkpt>
      <trkpt lat="36.97172" lon="-3.99214">
        <ele>1022.65</ele>
        <time>2019-01-18T16:07:06Z</time>
      </trkpt>
      <trkpt lat="36.972588" lon="-3.992108">
        <ele>1022.63</ele>
        <time>2019-01-18T16:07:16Z</time>
      </trkpt>
      <trkpt lat="36.973178" lon="-3.992287">
        <ele>1020.84</ele>
        <time>2019-01-18T16:07:24Z</time>
      </trkpt>
      <trkpt lat="36.973697" lon="-3.99192">
        <ele>1019.7</ele>
        <time>2019-01-18T16:07:32Z</time>
      </trkpt>
      <trkpt lat="36.974203" lon="-3.99179">
        <ele>1017.43</ele>
        <time>2019-01-18T16:07:39Z</time>
      </trkpt>
      <trkpt lat="36.974477" lon="-3.991534">
        <ele>1016.02</ele>
        <time>2019-01-18T16:07:44Z</time>
      </trkpt>
      <trkpt lat="36.974916" lon="-3.991495">
        <ele>1013.68</ele>
        <time>2019-01-18T16:07:50Z</time>
      </trkpt>
      <trkpt lat="36.975343" lon="-3.991672">
        <ele>1010.24</ele>
        <time>2019-01-18T16:07:55Z</time>
      </trkpt>
      <trkpt lat="36.975804" lon="-3.991501">
        <ele>1009.27</ele>
        <time>2019-01-18T16:08:00Z</time>
      </trkpt>
      <trkpt lat="36.976486" lon="-3.990896">
        <ele>1007.41</ele>
        <time>2019-01-18T16:08:08Z</time>
      </trkpt>
      <trkpt lat="36.976787" lon="-3.99023">
        <ele>1005.42</ele>
        <time>2019-01-18T16:08:14Z</time>
      </trkpt>
      <trkpt lat="36.977356" lon="-3.989818">
        <ele>1005.06</ele>
        <time>2019-01-18T16:08:22Z</time>
      </trkpt>
      <trkpt lat="36.977516" lon="-3.989238">
        <ele>1003.29</ele>
        <time>2019-01-18T16:08:27Z</time>
      </trkpt>
      <trkpt lat="36.977757" lon="-3.988067">
        <ele>1002.82</ele>
        <time>2019-01-18T16:08:38Z</time>
      </trkpt>
      <trkpt lat="36.978606" lon="-3.987509">
        <ele>1002.83</ele>
        <time>2019-01-18T16:08:52Z</time>
      </trkpt>
      <trkpt lat="36.979843" lon="-3.985737">
        <ele>1002.81</ele>
        <time>2019-01-18T16:09:09Z</time>
      </trkpt>
      <trkpt lat="36.981097" lon="-3.985025">
        <ele>1002.82</ele>
        <time>2019-01-18T16:09:22Z</time>
      </trkpt>
      <trkpt lat="36.981769" lon="-3.984947">
        <ele>1002.82</ele>
        <time>2019-01-18T16:09:31Z</time>
      </trkpt>
      <trkpt lat="36.982736" lon="-3.985758">
        <ele>998.62</ele>
        <time>2019-01-18T16:10:08Z</time>
      </trkpt>
      <trkpt lat="36.983448" lon="-3.986445">
        <ele>972.88</ele>
        <time>2019-01-18T16:11:02Z</time>
      </trkpt>
      <trkpt lat="36.984787" lon="-3.986986">
        <ele>916.68</ele>
        <time>2019-01-18T16:11:57Z</time>
      </trkpt>
      <trkpt lat="36.985534" lon="-3.987918">
        <ele>900.83</ele>
        <time>2019-01-18T16:12:16Z</time>
      </trkpt>
      <trkpt lat="36.985955" lon="-3.987773">
        <ele>893.28</ele>
        <time>2019-01-18T16:12:24Z</time>
      </trkpt>
      <trkpt lat="36.986079" lon="-3.987507">
        <ele>888.42</ele>
        <time>2019-01-18T16:12:31Z</time>
      </trkpt>
      <trkpt lat="36.985949" lon="-3.986771">
        <ele>886.41</ele>
        <time>2019-01-18T16:12:40Z</time>
      </trkpt>
      <trkpt lat="36.986026" lon="-3.986341">
        <ele>885.03</ele>
        <time>2019-01-18T16:12:44Z</time>
      </trkpt>
      <trkpt lat="36.986355" lon="-3.985662">
        <ele>881.46</ele>
        <time>2019-01-18T16:12:51Z</time>
      </trkpt>
      <trkpt lat="36.98626" lon="-3.984902">
        <ele>877.81</ele>
        <time>2019-01-18T16:12:58Z</time>
      </trkpt>
      <trkpt lat="36.98591" lon="-3.983842">
        <ele>873.21</ele>
        <time>2019-01-18T16:13:14Z</time>
      </trkpt>
      <trkpt lat="36.985986" lon="-3.983756">
        <ele>868.05</ele>
        <time>2019-01-18T16:19:54Z</time>
      </trkpt>
      <trkpt lat="36.985905" lon="-3.983906">
        <ele>868.04</ele>
        <time>2019-01-18T16:20:15Z</time>
      </trkpt>
      <trkpt lat="36.985577" lon="-3.983592">
        <ele>869.88</ele>
        <time>2019-01-18T16:20:33Z</time>
      </trkpt>
      <trkpt lat="36.983942" lon="-3.983034">
        <ele>874.45</ele>
        <time>2019-01-18T16:21:52Z</time>
      </trkpt>
      <trkpt lat="36.9838" lon="-3.982808">
        <ele>874.45</ele>
        <time>2019-01-18T16:22:04Z</time>
      </trkpt>
      <trkpt lat="36.983731" lon="-3.981859">
        <ele>874.43</ele>
        <time>2019-01-18T16:22:44Z</time>
      </trkpt>
      <trkpt lat="36.983816" lon="-3.981377">
        <ele>874.49</ele>
        <time>2019-01-18T16:23:05Z</time>
      </trkpt>
      <trkpt lat="36.983794" lon="-3.980504">
        <ele>874.42</ele>
        <time>2019-01-18T16:23:37Z</time>
      </trkpt>
      <trkpt lat="36.983518" lon="-3.980664">
        <ele>876.62</ele>
        <time>2019-01-18T16:23:54Z</time>
      </trkpt>
      <trkpt lat="36.982671" lon="-3.98173">
        <ele>883.03</ele>
        <time>2019-01-18T16:24:49Z</time>
      </trkpt>
      <trkpt lat="36.982454" lon="-3.982144">
        <ele>885.21</ele>
        <time>2019-01-18T16:25:04Z</time>
      </trkpt>
      <trkpt lat="36.982232" lon="-3.982258">
        <ele>885.26</ele>
        <time>2019-01-18T16:25:11Z</time>
      </trkpt>
      <trkpt lat="36.981696" lon="-3.982134">
        <ele>886.69</ele>
        <time>2019-01-18T16:25:23Z</time>
      </trkpt>
      <trkpt lat="36.98136" lon="-3.982375">
        <ele>887.41</ele>
        <time>2019-01-18T16:25:32Z</time>
      </trkpt>
      <trkpt lat="36.980931" lon="-3.982164">
        <ele>887.49</ele>
        <time>2019-01-18T16:25:42Z</time>
      </trkpt>
      <trkpt lat="36.980577" lon="-3.982275">
        <ele>887.46</ele>
        <time>2019-01-18T16:25:49Z</time>
      </trkpt>
      <trkpt lat="36.979732" lon="-3.982053">
        <ele>885.43</ele>
        <time>2019-01-18T16:26:01Z</time>
      </trkpt>
      <trkpt lat="36.979161" lon="-3.981616">
        <ele>883.22</ele>
        <time>2019-01-18T16:26:08Z</time>
      </trkpt>
      <trkpt lat="36.978448" lon="-3.981351">
        <ele>881.08</ele>
        <time>2019-01-18T16:26:17Z</time>
      </trkpt>
      <trkpt lat="36.978189" lon="-3.98105">
        <ele>881.03</ele>
        <time>2019-01-18T16:26:22Z</time>
      </trkpt>
      <trkpt lat="36.97801" lon="-3.980985">
        <ele>881.01</ele>
        <time>2019-01-18T16:26:25Z</time>
      </trkpt>
      <trkpt lat="36.977544" lon="-3.98141">
        <ele>885.27</ele>
        <time>2019-01-18T16:26:57Z</time>
      </trkpt>
      <trkpt lat="36.977244" lon="-3.98123">
        <ele>889.42</ele>
        <time>2019-01-18T16:27:15Z</time>
      </trkpt>
      <trkpt lat="36.976727" lon="-3.980547">
        <ele>889.42</ele>
        <time>2019-01-18T16:27:33Z</time>
      </trkpt>
      <trkpt lat="36.975446" lon="-3.980182">
        <ele>891.42</ele>
        <time>2019-01-18T16:28:10Z</time>
      </trkpt>
      <trkpt lat="36.974387" lon="-3.980321">
        <ele>889.48</ele>
        <time>2019-01-18T16:28:33Z</time>
      </trkpt>
      <trkpt lat="36.973945" lon="-3.980474">
        <ele>891.47</ele>
        <time>2019-01-18T16:28:47Z</time>
      </trkpt>
      <trkpt lat="36.973699" lon="-3.980426">
        <ele>891.41</ele>
        <time>2019-01-18T16:28:54Z</time>
      </trkpt>
      <trkpt lat="36.973091" lon="-3.979846">
        <ele>891.46</ele>
        <time>2019-01-18T16:29:06Z</time>
      </trkpt>
      <trkpt lat="36.972711" lon="-3.979846">
        <ele>891.47</ele>
        <time>2019-01-18T16:29:14Z</time>
      </trkpt>
      <trkpt lat="36.972354" lon="-3.979902">
        <ele>893.61</ele>
        <time>2019-01-18T16:29:32Z</time>
      </trkpt>
      <trkpt lat="36.972078" lon="-3.979648">
        <ele>897.83</ele>
        <time>2019-01-18T16:29:48Z</time>
      </trkpt>
      <trkpt lat="36.972176" lon="-3.978861">
        <ele>899.84</ele>
        <time>2019-01-18T16:30:09Z</time>
      </trkpt>
      <trkpt lat="36.972321" lon="-3.978302">
        <ele>899.86</ele>
        <time>2019-01-18T16:30:22Z</time>
      </trkpt>
      <trkpt lat="36.972214" lon="-3.977971">
        <ele>899.9</ele>
        <time>2019-01-18T16:30:29Z</time>
      </trkpt>
      <trkpt lat="36.971608" lon="-3.976997">
        <ele>897.63</ele>
        <time>2019-01-18T16:30:44Z</time>
      </trkpt>
      <trkpt lat="36.970338" lon="-3.976084">
        <ele>898.05</ele>
        <time>2019-01-18T16:31:20Z</time>
      </trkpt>
      <trkpt lat="36.96947" lon="-3.97552">
        <ele>908.65</ele>
        <time>2019-01-18T16:32:17Z</time>
      </trkpt>
      <trkpt lat="36.968838" lon="-3.974798">
        <ele>908.25</ele>
        <time>2019-01-18T16:32:29Z</time>
      </trkpt>
      <trkpt lat="36.967771" lon="-3.97442">
        <ele>901.44</ele>
        <time>2019-01-18T16:32:42Z</time>
      </trkpt>
      <trkpt lat="36.967309" lon="-3.973862">
        <ele>901.47</ele>
        <time>2019-01-18T16:32:54Z</time>
      </trkpt>
      <trkpt lat="36.966721" lon="-3.973653">
        <ele>901.41</ele>
        <time>2019-01-18T16:33:04Z</time>
      </trkpt>
      <trkpt lat="36.966383" lon="-3.973852">
        <ele>901.45</ele>
        <time>2019-01-18T16:33:10Z</time>
      </trkpt>
      <trkpt lat="36.96618" lon="-3.974152">
        <ele>901.47</ele>
        <time>2019-01-18T16:33:16Z</time>
      </trkpt>
      <trkpt lat="36.965917" lon="-3.974123">
        <ele>901.45</ele>
        <time>2019-01-18T16:33:21Z</time>
      </trkpt>
      <trkpt lat="36.965466" lon="-3.973348">
        <ele>899.29</ele>
        <time>2019-01-18T16:33:35Z</time>
      </trkpt>
      <trkpt lat="36.965208" lon="-3.97247">
        <ele>899.23</ele>
        <time>2019-01-18T16:33:52Z</time>
      </trkpt>
      <trkpt lat="36.964768" lon="-3.971655">
        <ele>901.45</ele>
        <time>2019-01-18T16:34:09Z</time>
      </trkpt>
      <trkpt lat="36.964688" lon="-3.971108">
        <ele>901.45</ele>
        <time>2019-01-18T16:34:19Z</time>
      </trkpt>
      <trkpt lat="36.965046" lon="-3.970398">
        <ele>901.5</ele>
        <time>2019-01-18T16:34:34Z</time>
      </trkpt>
      <trkpt lat="36.965053" lon="-3.969729">
        <ele>903.02</ele>
        <time>2019-01-18T16:34:47Z</time>
      </trkpt>
      <trkpt lat="36.96479" lon="-3.969006">
        <ele>904.06</ele>
        <time>2019-01-18T16:35:01Z</time>
      </trkpt>
      <trkpt lat="36.964428" lon="-3.968204">
        <ele>904.07</ele>
        <time>2019-01-18T16:35:16Z</time>
      </trkpt>
      <trkpt lat="36.963798" lon="-3.967427">
        <ele>904.04</ele>
        <time>2019-01-18T16:35:34Z</time>
      </trkpt>
      <trkpt lat="36.96369" lon="-3.966663">
        <ele>908.08</ele>
        <time>2019-01-18T16:35:57Z</time>
      </trkpt>
      <trkpt lat="36.963741" lon="-3.965887">
        <ele>914.21</ele>
        <time>2019-01-18T16:36:28Z</time>
      </trkpt>
      <trkpt lat="36.964417" lon="-3.964628">
        <ele>920.63</ele>
        <time>2019-01-18T16:37:17Z</time>
      </trkpt>
      <trkpt lat="36.964705" lon="-3.96344">
        <ele>920.7</ele>
        <time>2019-01-18T16:37:42Z</time>
      </trkpt>
      <trkpt lat="36.964527" lon="-3.962667">
        <ele>920.62</ele>
        <time>2019-01-18T16:37:54Z</time>
      </trkpt>
      <trkpt lat="36.964359" lon="-3.962334">
        <ele>920.61</ele>
        <time>2019-01-18T16:38:01Z</time>
      </trkpt>
      <trkpt lat="36.963676" lon="-3.961707">
        <ele>920.7</ele>
        <time>2019-01-18T16:38:19Z</time>
      </trkpt>
      <trkpt lat="36.963409" lon="-3.961287">
        <ele>920.7</ele>
        <time>2019-01-18T16:38:28Z</time>
      </trkpt>
      <trkpt lat="36.96308" lon="-3.960724">
        <ele>923.05</ele>
        <time>2019-01-18T16:38:45Z</time>
      </trkpt>
      <trkpt lat="36.962946" lon="-3.960122">
        <ele>928.81</ele>
        <time>2019-01-18T16:39:08Z</time>
      </trkpt>
      <trkpt lat="36.962853" lon="-3.959172">
        <ele>930.86</ele>
        <time>2019-01-18T16:39:35Z</time>
      </trkpt>
      <trkpt lat="36.962785" lon="-3.958639">
        <ele>933.09</ele>
        <time>2019-01-18T16:39:48Z</time>
      </trkpt>
      <trkpt lat="36.962915" lon="-3.957613">
        <ele>933.07</ele>
        <time>2019-01-18T16:40:07Z</time>
      </trkpt>
      <trkpt lat="36.962632" lon="-3.957079">
        <ele>932.63</ele>
        <time>2019-01-18T16:40:15Z</time>
      </trkpt>
      <trkpt lat="36.962121" lon="-3.956631">
        <ele>935.42</ele>
        <time>2019-01-18T16:40:31Z</time>
      </trkpt>
      <trkpt lat="36.961755" lon="-3.956001">
        <ele>935.42</ele>
        <time>2019-01-18T16:40:44Z</time>
      </trkpt>
      <trkpt lat="36.961526" lon="-3.955964">
        <ele>935.44</ele>
        <time>2019-01-18T16:40:51Z</time>
      </trkpt>
      <trkpt lat="36.961024" lon="-3.955951">
        <ele>938.02</ele>
        <time>2019-01-18T16:41:08Z</time>
      </trkpt>
      <trkpt lat="36.960698" lon="-3.955701">
        <ele>938.09</ele>
        <time>2019-01-18T16:41:19Z</time>
      </trkpt>
      <trkpt lat="36.960537" lon="-3.955872">
        <ele>936.44</ele>
        <time>2019-01-18T16:41:25Z</time>
      </trkpt>
      <trkpt lat="36.96043" lon="-3.955938">
        <ele>933.63</ele>
        <time>2019-01-18T16:41:30Z</time>
      </trkpt>
      <trkpt lat="36.960047" lon="-3.955376">
        <ele>932.87</ele>
        <time>2019-01-18T16:41:57Z</time>
      </trkpt>
      <trkpt lat="36.959696" lon="-3.955358">
        <ele>932.81</ele>
        <time>2019-01-18T16:42:05Z</time>
      </trkpt>
      <trkpt lat="36.95938" lon="-3.955397">
        <ele>930.84</ele>
        <time>2019-01-18T16:42:20Z</time>
      </trkpt>
      <trkpt lat="36.959028" lon="-3.954882">
        <ele>932.87</ele>
        <time>2019-01-18T16:42:39Z</time>
      </trkpt>
      <trkpt lat="36.958894" lon="-3.954475">
        <ele>932.81</ele>
        <time>2019-01-18T16:42:57Z</time>
      </trkpt>
      <trkpt lat="36.958076" lon="-3.953636">
        <ele>936.89</ele>
        <time>2019-01-18T16:44:24Z</time>
      </trkpt>
      <trkpt lat="36.957501" lon="-3.953538">
        <ele>948.25</ele>
        <time>2019-01-18T16:46:35Z</time>
      </trkpt>
      <trkpt lat="36.957156" lon="-3.953672">
        <ele>958.08</ele>
        <time>2019-01-18T16:48:17Z</time>
      </trkpt>
      <trkpt lat="36.956981" lon="-3.953853">
        <ele>965.86</ele>
        <time>2019-01-18T16:50:10Z</time>
      </trkpt>
      <trkpt lat="36.956137" lon="-3.953381">
        <ele>974.43</ele>
        <time>2019-01-18T16:52:34Z</time>
      </trkpt>
      <trkpt lat="36.955068" lon="-3.953145">
        <ele>988.63</ele>
        <time>2019-01-18T16:54:03Z</time>
      </trkpt>
      <trkpt lat="36.954866" lon="-3.953221">
        <ele>992.88</ele>
        <time>2019-01-18T16:54:23Z</time>
      </trkpt>
      <trkpt lat="36.954699" lon="-3.952945">
        <ele>990.65</ele>
        <time>2019-01-18T16:54:31Z</time>
      </trkpt>
      <trkpt lat="36.954489" lon="-3.952717">
        <ele>988.22</ele>
        <time>2019-01-18T16:54:36Z</time>
      </trkpt>
      <trkpt lat="36.954372" lon="-3.952439">
        <ele>986.47</ele>
        <time>2019-01-18T16:54:45Z</time>
      </trkpt>
      <trkpt lat="36.95381" lon="-3.95192">
        <ele>989.89</ele>
        <time>2019-01-18T16:55:23Z</time>
      </trkpt>
      <trkpt lat="36.953357" lon="-3.951344">
        <ele>997.07</ele>
        <time>2019-01-18T16:56:03Z</time>
      </trkpt>
      <trkpt lat="36.952843" lon="-3.951174">
        <ele>999.01</ele>
        <time>2019-01-18T16:56:25Z</time>
      </trkpt>
      <trkpt lat="36.952586" lon="-3.950614">
        <ele>997.29</ele>
        <time>2019-01-18T16:56:33Z</time>
      </trkpt>
      <trkpt lat="36.951571" lon="-3.948529">
        <ele>989.82</ele>
        <time>2019-01-18T16:56:56Z</time>
      </trkpt>
      <trkpt lat="36.951312" lon="-3.948019">
        <ele>986.22</ele>
        <time>2019-01-18T16:57:01Z</time>
      </trkpt>
      <trkpt lat="36.950887" lon="-3.94791">
        <ele>982.22</ele>
        <time>2019-01-18T16:57:07Z</time>
      </trkpt>
      <trkpt lat="36.950218" lon="-3.949072">
        <ele>977.61</ele>
        <time>2019-01-18T16:57:25Z</time>
      </trkpt>
      <trkpt lat="36.949996" lon="-3.949714">
        <ele>974.48</ele>
        <time>2019-01-18T16:57:30Z</time>
      </trkpt>
      <trkpt lat="36.949851" lon="-3.950207">
        <ele>971.69</ele>
        <time>2019-01-18T16:57:34Z</time>
      </trkpt>
      <trkpt lat="36.949777" lon="-3.950944">
        <ele>967.44</ele>
        <time>2019-01-18T16:57:40Z</time>
      </trkpt>
      <trkpt lat="36.94945" lon="-3.951944">
        <ele>963.26</ele>
        <time>2019-01-18T16:57:49Z</time>
      </trkpt>
      <trkpt lat="36.949351" lon="-3.952872">
        <ele>958.85</ele>
        <time>2019-01-18T16:57:58Z</time>
      </trkpt>
      <trkpt lat="36.949168" lon="-3.953671">
        <ele>956.28</ele>
        <time>2019-01-18T16:58:07Z</time>
      </trkpt>
      <trkpt lat="36.948827" lon="-3.954329">
        <ele>954.44</ele>
        <time>2019-01-18T16:58:20Z</time>
      </trkpt>
      <trkpt lat="36.948857" lon="-3.954169">
        <ele>954.03</ele>
        <time>2019-01-18T16:58:31Z</time>
      </trkpt>
      <trkpt lat="36.948661" lon="-3.954342">
        <ele>954.49</ele>
        <time>2019-01-18T16:58:55Z</time>
      </trkpt>
      <trkpt lat="36.948607" lon="-3.954104">
        <ele>958.86</ele>
        <time>2019-01-18T16:59:13Z</time>
      </trkpt>
      <trkpt lat="36.948782" lon="-3.953073">
        <ele>969.41</ele>
        <time>2019-01-18T17:00:17Z</time>
      </trkpt>
      <trkpt lat="36.948746" lon="-3.952371">
        <ele>977.83</ele>
        <time>2019-01-18T17:00:59Z</time>
      </trkpt>
      <trkpt lat="36.948336" lon="-3.95133">
        <ele>993.02</ele>
        <time>2019-01-18T17:02:28Z</time>
      </trkpt>
      <trkpt lat="36.948339" lon="-3.951319">
        <ele>1001.1</ele>
        <time>2019-01-18T17:02:29Z</time>
      </trkpt>
      <trkpt lat="36.948302" lon="-3.95096">
        <ele>1001.42</ele>
        <time>2019-01-18T17:02:49Z</time>
      </trkpt>
      <trkpt lat="36.948048" lon="-3.950186">
        <ele>1001.48</ele>
        <time>2019-01-18T17:03:17Z</time>
      </trkpt>
      <trkpt lat="36.947763" lon="-3.949859">
        <ele>999.02</ele>
        <time>2019-01-18T17:03:27Z</time>
      </trkpt>
      <trkpt lat="36.947681" lon="-3.948817">
        <ele>999.02</ele>
        <time>2019-01-18T17:03:43Z</time>
      </trkpt>
      <trkpt lat="36.947395" lon="-3.94838">
        <ele>1002.23</ele>
        <time>2019-01-18T17:04:16Z</time>
      </trkpt>
      <trkpt lat="36.947272" lon="-3.947937">
        <ele>1005.22</ele>
        <time>2019-01-18T17:04:37Z</time>
      </trkpt>
      <trkpt lat="36.946132" lon="-3.946164">
        <ele>1024.69</ele>
        <time>2019-01-18T17:06:37Z</time>
      </trkpt>
      <trkpt lat="36.945855" lon="-3.945419">
        <ele>1028.82</ele>
        <time>2019-01-18T17:07:11Z</time>
      </trkpt>
      <trkpt lat="36.94494" lon="-3.944564">
        <ele>1028.81</ele>
        <time>2019-01-18T17:07:47Z</time>
      </trkpt>
      <trkpt lat="36.944596" lon="-3.94439">
        <ele>1028.82</ele>
        <time>2019-01-18T17:08:03Z</time>
      </trkpt>
      <trkpt lat="36.94428" lon="-3.943704">
        <ele>1033.02</ele>
        <time>2019-01-18T17:08:31Z</time>
      </trkpt>
      <trkpt lat="36.944253" lon="-3.943135">
        <ele>1033.04</ele>
        <time>2019-01-18T17:08:45Z</time>
      </trkpt>
      <trkpt lat="36.944096" lon="-3.942655">
        <ele>1037.22</ele>
        <time>2019-01-18T17:09:13Z</time>
      </trkpt>
      <trkpt lat="36.94397" lon="-3.942358">
        <ele>1040.27</ele>
        <time>2019-01-18T17:09:25Z</time>
      </trkpt>
      <trkpt lat="36.943519" lon="-3.941888">
        <ele>1038.06</ele>
        <time>2019-01-18T17:09:36Z</time>
      </trkpt>
      <trkpt lat="36.942532" lon="-3.941092">
        <ele>1038.25</ele>
        <time>2019-01-18T17:10:05Z</time>
      </trkpt>
      <trkpt lat="36.941901" lon="-3.94095">
        <ele>1035.63</ele>
        <time>2019-01-18T17:10:18Z</time>
      </trkpt>
      <trkpt lat="36.9412" lon="-3.940352">
        <ele>1035.63</ele>
        <time>2019-01-18T17:10:32Z</time>
      </trkpt>
      <trkpt lat="36.940273" lon="-3.94019">
        <ele>1034.88</ele>
        <time>2019-01-18T17:10:50Z</time>
      </trkpt>
      <trkpt lat="36.939849" lon="-3.939787">
        <ele>1033.47</ele>
        <time>2019-01-18T17:10:58Z</time>
      </trkpt>
      <trkpt lat="36.939654" lon="-3.939337">
        <ele>1033.42</ele>
        <time>2019-01-18T17:11:06Z</time>
      </trkpt>
      <trkpt lat="36.939704" lon="-3.938499">
        <ele>1033.43</ele>
        <time>2019-01-18T17:11:23Z</time>
      </trkpt>
      <trkpt lat="36.940405" lon="-3.937403">
        <ele>1033.44</ele>
        <time>2019-01-18T17:11:47Z</time>
      </trkpt>
      <trkpt lat="36.941128" lon="-3.936793">
        <ele>1030.26</ele>
        <time>2019-01-18T17:11:58Z</time>
      </trkpt>
      <trkpt lat="36.94184" lon="-3.935473">
        <ele>1029.84</ele>
        <time>2019-01-18T17:12:16Z</time>
      </trkpt>
      <trkpt lat="36.942504" lon="-3.93465">
        <ele>1028.03</ele>
        <time>2019-01-18T17:12:32Z</time>
      </trkpt>
      <trkpt lat="36.942544" lon="-3.934344">
        <ele>1028.09</ele>
        <time>2019-01-18T17:12:36Z</time>
      </trkpt>
      <trkpt lat="36.942472" lon="-3.933618">
        <ele>1028.05</ele>
        <time>2019-01-18T17:12:44Z</time>
      </trkpt>
      <trkpt lat="36.942649" lon="-3.932668">
        <ele>1028.04</ele>
        <time>2019-01-18T17:13:00Z</time>
      </trkpt>
      <trkpt lat="36.942994" lon="-3.930837">
        <ele>1032.81</ele>
        <time>2019-01-18T17:13:58Z</time>
      </trkpt>
      <trkpt lat="36.943094" lon="-3.929958">
        <ele>1041.02</ele>
        <time>2019-01-18T17:14:34Z</time>
      </trkpt>
      <trkpt lat="36.943148" lon="-3.929593">
        <ele>1043.22</ele>
        <time>2019-01-18T17:14:52Z</time>
      </trkpt>
      <trkpt lat="36.943037" lon="-3.929767">
        <ele>1043.22</ele>
        <time>2019-01-18T17:15:08Z</time>
      </trkpt>
      <trkpt lat="36.943053" lon="-3.929841">
        <ele>1043.26</ele>
        <time>2019-01-18T17:15:17Z</time>
      </trkpt>
      <trkpt lat="36.942847" lon="-3.929622">
        <ele>1043.24</ele>
        <time>2019-01-18T17:15:26Z</time>
      </trkpt>
      <trkpt lat="36.942275" lon="-3.928565">
        <ele>1039.88</ele>
        <time>2019-01-18T17:15:40Z</time>
      </trkpt>
      <trkpt lat="36.941528" lon="-3.927787">
        <ele>1037.65</ele>
        <time>2019-01-18T17:15:55Z</time>
      </trkpt>
      <trkpt lat="36.941349" lon="-3.927662">
        <ele>1037.65</ele>
        <time>2019-01-18T17:15:59Z</time>
      </trkpt>
      <trkpt lat="36.94093" lon="-3.926973">
        <ele>1038.85</ele>
        <time>2019-01-18T17:17:06Z</time>
      </trkpt>
      <trkpt lat="36.940722" lon="-3.926126">
        <ele>1032.81</ele>
        <time>2019-01-18T17:17:16Z</time>
      </trkpt>
      <trkpt lat="36.940623" lon="-3.925051">
        <ele>1027.83</ele>
        <time>2019-01-18T17:17:25Z</time>
      </trkpt>
      <trkpt lat="36.940244" lon="-3.923419">
        <ele>1016.41</ele>
        <time>2019-01-18T17:17:40Z</time>
      </trkpt>
      <trkpt lat="36.939827" lon="-3.921307">
        <ele>1007.24</ele>
        <time>2019-01-18T17:18:05Z</time>
      </trkpt>
      <trkpt lat="36.939695" lon="-3.920562">
        <ele>1004.25</ele>
        <time>2019-01-18T17:18:13Z</time>
      </trkpt>
      <trkpt lat="36.939827" lon="-3.919626">
        <ele>999.01</ele>
        <time>2019-01-18T17:18:25Z</time>
      </trkpt>
      <trkpt lat="36.940267" lon="-3.918574">
        <ele>1000.01</ele>
        <time>2019-01-18T17:18:48Z</time>
      </trkpt>
      <trkpt lat="36.939988" lon="-3.918646">
        <ele>997.89</ele>
        <time>2019-01-18T17:18:56Z</time>
      </trkpt>
      <trkpt lat="36.939548" lon="-3.918941">
        <ele>996.06</ele>
        <time>2019-01-18T17:19:03Z</time>
      </trkpt>
      <trkpt lat="36.93792" lon="-3.918635">
        <ele>988.86</ele>
        <time>2019-01-18T17:19:20Z</time>
      </trkpt>
      <trkpt lat="36.937531" lon="-3.918422">
        <ele>988.08</ele>
        <time>2019-01-18T17:19:24Z</time>
      </trkpt>
      <trkpt lat="36.937367" lon="-3.917889">
        <ele>985.88</ele>
        <time>2019-01-18T17:19:29Z</time>
      </trkpt>
      <trkpt lat="36.937263" lon="-3.917492">
        <ele>984.48</ele>
        <time>2019-01-18T17:19:33Z</time>
      </trkpt>
      <trkpt lat="36.936526" lon="-3.916714">
        <ele>984.48</ele>
        <time>2019-01-18T17:19:45Z</time>
      </trkpt>
      <trkpt lat="36.936209" lon="-3.915434">
        <ele>988.83</ele>
        <time>2019-01-18T17:20:14Z</time>
      </trkpt>
      <trkpt lat="36.936462" lon="-3.914235">
        <ele>993.06</ele>
        <time>2019-01-18T17:20:49Z</time>
      </trkpt>
      <trkpt lat="36.936398" lon="-3.913719">
        <ele>993.05</ele>
        <time>2019-01-18T17:20:58Z</time>
      </trkpt>
      <trkpt lat="36.93585" lon="-3.912558">
        <ele>988.81</ele>
        <time>2019-01-18T17:21:14Z</time>
      </trkpt>
      <trkpt lat="36.93585" lon="-3.911711">
        <ele>988.47</ele>
        <time>2019-01-18T17:21:25Z</time>
      </trkpt>
      <trkpt lat="36.935451" lon="-3.911154">
        <ele>985.49</ele>
        <time>2019-01-18T17:21:33Z</time>
      </trkpt>
      <trkpt lat="36.934545" lon="-3.910496">
        <ele>980.42</ele>
        <time>2019-01-18T17:35:50Z</time>
      </trkpt>
      <trkpt lat="36.934399" lon="-3.910059">
        <ele>980.48</ele>
        <time>2019-01-18T17:36:06Z</time>
      </trkpt>
      <trkpt lat="36.934558" lon="-3.909514">
        <ele>980.41</ele>
        <time>2019-01-18T17:36:15Z</time>
      </trkpt>
      <trkpt lat="36.935002" lon="-3.909665">
        <ele>977.21</ele>
        <time>2019-01-18T17:37:00Z</time>
      </trkpt>
      <trkpt lat="36.935494" lon="-3.908388">
        <ele>971.84</ele>
        <time>2019-01-18T17:37:16Z</time>
      </trkpt>
      <trkpt lat="36.93552" lon="-3.907939">
        <ele>967.01</ele>
        <time>2019-01-18T17:37:21Z</time>
      </trkpt>
      <trkpt lat="36.935329" lon="-3.906936">
        <ele>959.9</ele>
        <time>2019-01-18T17:37:31Z</time>
      </trkpt>
      <trkpt lat="36.935397" lon="-3.906204">
        <ele>953.02</ele>
        <time>2019-01-18T17:37:39Z</time>
      </trkpt>
      <trkpt lat="36.9352" lon="-3.905698">
        <ele>945.01</ele>
        <time>2019-01-18T17:37:46Z</time>
      </trkpt>
      <trkpt lat="36.935218" lon="-3.904694">
        <ele>934.86</ele>
        <time>2019-01-18T17:37:56Z</time>
      </trkpt>
      <trkpt lat="36.935218" lon="-3.904172">
        <ele>925.82</ele>
        <time>2019-01-18T17:38:03Z</time>
      </trkpt>
      <trkpt lat="36.935088" lon="-3.904061">
        <ele>914.61</ele>
        <time>2019-01-18T17:38:10Z</time>
      </trkpt>
      <trkpt lat="36.935228" lon="-3.903669">
        <ele>911.02</ele>
        <time>2019-01-18T17:38:33Z</time>
      </trkpt>
      <trkpt lat="36.935184" lon="-3.903093">
        <ele>915.04</ele>
        <time>2019-01-18T17:39:03Z</time>
      </trkpt>
      <trkpt lat="36.935341" lon="-3.902709">
        <ele>921.03</ele>
        <time>2019-01-18T17:39:29Z</time>
      </trkpt>
      <trkpt lat="36.935443" lon="-3.902536">
        <ele>923.48</ele>
        <time>2019-01-18T17:39:44Z</time>
      </trkpt>
      <trkpt lat="36.935294" lon="-3.902104">
        <ele>925.5</ele>
        <time>2019-01-18T17:40:09Z</time>
      </trkpt>
      <trkpt lat="36.9348" lon="-3.901694">
        <ele>930.63</ele>
        <time>2019-01-18T17:40:42Z</time>
      </trkpt>
      <trkpt lat="36.934498" lon="-3.901603">
        <ele>933.63</ele>
        <time>2019-01-18T17:41:03Z</time>
      </trkpt>
      <trkpt lat="36.93427" lon="-3.901355">
        <ele>935.84</ele>
        <time>2019-01-18T17:41:21Z</time>
      </trkpt>
      <trkpt lat="36.933831" lon="-3.901254">
        <ele>940.01</ele>
        <time>2019-01-18T17:41:48Z</time>
      </trkpt>
      <trkpt lat="36.933347" lon="-3.901022">
        <ele>946.42</ele>
        <time>2019-01-18T17:44:03Z</time>
      </trkpt>
      <trkpt lat="36.933073" lon="-3.900825">
        <ele>948.49</ele>
        <time>2019-01-18T17:44:19Z</time>
      </trkpt>
      <trkpt lat="36.931942" lon="-3.900562">
        <ele>952.43</ele>
        <time>2019-01-18T17:45:08Z</time>
      </trkpt>
      <trkpt lat="36.93073" lon="-3.900134">
        <ele>960.65</ele>
        <time>2019-01-18T17:46:17Z</time>
      </trkpt>
      <trkpt lat="36.930344" lon="-3.900197">
        <ele>960.6</ele>
        <time>2019-01-18T17:46:42Z</time>
      </trkpt>
      <trkpt lat="36.930126" lon="-3.900095">
        <ele>960.66</ele>
        <time>2019-01-18T17:46:50Z</time>
      </trkpt>
      <trkpt lat="36.930159" lon="-3.89956">
        <ele>964.04</ele>
        <time>2019-01-18T17:47:20Z</time>
      </trkpt>
      <trkpt lat="36.929751" lon="-3.898962">
        <ele>967.08</ele>
        <time>2019-01-18T17:47:57Z</time>
      </trkpt>
      <trkpt lat="36.928875" lon="-3.898137">
        <ele>975.81</ele>
        <time>2019-01-18T17:49:41Z</time>
      </trkpt>
      <trkpt lat="36.928023" lon="-3.898034">
        <ele>981.89</ele>
        <time>2019-01-18T17:50:22Z</time>
      </trkpt>
      <trkpt lat="36.927494" lon="-3.898054">
        <ele>981.9</ele>
        <time>2019-01-18T17:50:40Z</time>
      </trkpt>
      <trkpt lat="36.926965" lon="-3.898167">
        <ele>983.83</ele>
        <time>2019-01-18T17:51:05Z</time>
      </trkpt>
      <trkpt lat="36.926805" lon="-3.898053">
        <ele>983.83</ele>
        <time>2019-01-18T17:51:13Z</time>
      </trkpt>
      <trkpt lat="36.926909" lon="-3.897822">
        <ele>986.07</ele>
        <time>2019-01-18T17:51:31Z</time>
      </trkpt>
      <trkpt lat="36.927343" lon="-3.897426">
        <ele>992.41</ele>
        <time>2019-01-18T17:52:08Z</time>
      </trkpt>
      <trkpt lat="36.92749" lon="-3.897022">
        <ele>994.42</ele>
        <time>2019-01-18T17:52:28Z</time>
      </trkpt>
      <trkpt lat="36.927497" lon="-3.89636">
        <ele>998.89</ele>
        <time>2019-01-18T17:52:56Z</time>
      </trkpt>
      <trkpt lat="36.928732" lon="-3.895872">
        <ele>998.81</ele>
        <time>2019-01-18T17:53:38Z</time>
      </trkpt>
      <trkpt lat="36.931191" lon="-3.894208">
        <ele>1003.08</ele>
        <time>2019-01-18T17:55:00Z</time>
      </trkpt>
      <trkpt lat="36.932115" lon="-3.893352">
        <ele>1000.63</ele>
        <time>2019-01-18T17:55:30Z</time>
      </trkpt>
      <trkpt lat="36.931045" lon="-3.891711">
        <ele>994.21</ele>
        <time>2019-01-18T17:55:59Z</time>
      </trkpt>
      <trkpt lat="36.930479" lon="-3.891311">
        <ele>990.89</ele>
        <time>2019-01-18T17:56:07Z</time>
      </trkpt>
      <trkpt lat="36.930112" lon="-3.891048">
        <ele>988.81</ele>
        <time>2019-01-18T17:56:12Z</time>
      </trkpt>
      <trkpt lat="36.929746" lon="-3.889894">
        <ele>978.42</ele>
        <time>2019-01-18T17:56:24Z</time>
      </trkpt>
      <trkpt lat="36.929504" lon="-3.889551">
        <ele>973.69</ele>
        <time>2019-01-18T17:56:29Z</time>
      </trkpt>
      <trkpt lat="36.929253" lon="-3.888656">
        <ele>967.02</ele>
        <time>2019-01-18T17:56:38Z</time>
      </trkpt>
      <trkpt lat="36.928509" lon="-3.887202">
        <ele>947.89</ele>
        <time>2019-01-18T17:56:54Z</time>
      </trkpt>
      <trkpt lat="36.928316" lon="-3.887148">
        <ele>942.23</ele>
        <time>2019-01-18T17:56:58Z</time>
      </trkpt>
      <trkpt lat="36.928193" lon="-3.886297">
        <ele>931.9</ele>
        <time>2019-01-18T17:57:08Z</time>
      </trkpt>
      <trkpt lat="36.928201" lon="-3.885172">
        <ele>920.63</ele>
        <time>2019-01-18T17:57:21Z</time>
      </trkpt>
      <trkpt lat="36.928161" lon="-3.88448">
        <ele>913.86</ele>
        <time>2019-01-18T17:57:28Z</time>
      </trkpt>
      <trkpt lat="36.928142" lon="-3.884114">
        <ele>906.03</ele>
        <time>2019-01-18T17:57:33Z</time>
      </trkpt>
      <trkpt lat="36.929053" lon="-3.884004">
        <ele>898.24</ele>
        <time>2019-01-18T17:57:53Z</time>
      </trkpt>
      <trkpt lat="36.929699" lon="-3.883811">
        <ele>897.21</ele>
        <time>2019-01-18T17:58:04Z</time>
      </trkpt>
      <trkpt lat="36.930286" lon="-3.883501">
        <ele>894.65</ele>
        <time>2019-01-18T17:58:13Z</time>
      </trkpt>
      <trkpt lat="36.931982" lon="-3.883085">
        <ele>892.64</ele>
        <time>2019-01-18T17:58:45Z</time>
      </trkpt>
      <trkpt lat="36.934245" lon="-3.88278">
        <ele>888.66</ele>
        <time>2019-01-18T17:59:26Z</time>
      </trkpt>
      <trkpt lat="36.935517" lon="-3.882459">
        <ele>886.64</ele>
        <time>2019-01-18T17:59:52Z</time>
      </trkpt>
      <trkpt lat="36.937027" lon="-3.882286">
        <ele>884.21</ele>
        <time>2019-01-18T18:00:20Z</time>
      </trkpt>
      <trkpt lat="36.938098" lon="-3.882238">
        <ele>882.26</ele>
        <time>2019-01-18T18:00:39Z</time>
      </trkpt>
      <trkpt lat="36.939185" lon="-3.881704">
        <ele>877.49</ele>
        <time>2019-01-18T18:01:03Z</time>
      </trkpt>
      <trkpt lat="36.939286" lon="-3.881493">
        <ele>877.48</ele>
        <time>2019-01-18T18:01:06Z</time>
      </trkpt>
      <trkpt lat="36.939665" lon="-3.88123">
        <ele>876.47</ele>
        <time>2019-01-18T18:01:12Z</time>
      </trkpt>
      <trkpt lat="36.940048" lon="-3.880938">
        <ele>868.06</ele>
        <time>2019-01-18T18:03:02Z</time>
      </trkpt>
      <trkpt lat="36.940066" lon="-3.880708">
        <ele>868.01</ele>
        <time>2019-01-18T18:03:15Z</time>
      </trkpt>
      <trkpt lat="36.939815" lon="-3.880429">
        <ele>872.24</ele>
        <time>2019-01-18T18:03:44Z</time>
      </trkpt>
      <trkpt lat="36.939112" lon="-3.880584">
        <ele>882.47</ele>
        <time>2019-01-18T18:04:49Z</time>
      </trkpt>
      <trkpt lat="36.938049" lon="-3.880075">
        <ele>895.23</ele>
        <time>2019-01-18T18:06:20Z</time>
      </trkpt>
      <trkpt lat="36.937443" lon="-3.879964">
        <ele>895.24</ele>
        <time>2019-01-18T18:06:34Z</time>
      </trkpt>
      <trkpt lat="36.937243" lon="-3.879876">
        <ele>895.29</ele>
        <time>2019-01-18T18:06:41Z</time>
      </trkpt>
      <trkpt lat="36.937033" lon="-3.880063">
        <ele>895.22</ele>
        <time>2019-01-18T18:06:49Z</time>
      </trkpt>
      <trkpt lat="36.936606" lon="-3.87978">
        <ele>895.26</ele>
        <time>2019-01-18T18:07:02Z</time>
      </trkpt>
      <trkpt lat="36.936245" lon="-3.879654">
        <ele>895.24</ele>
        <time>2019-01-18T18:07:12Z</time>
      </trkpt>
      <trkpt lat="36.935809" lon="-3.879289">
        <ele>893.22</ele>
        <time>2019-01-18T18:07:28Z</time>
      </trkpt>
      <trkpt lat="36.935231" lon="-3.878969">
        <ele>895.86</ele>
        <time>2019-01-18T18:07:55Z</time>
      </trkpt>
      <trkpt lat="36.934908" lon="-3.878608">
        <ele>897.42</ele>
        <time>2019-01-18T18:08:15Z</time>
      </trkpt>
      <trkpt lat="36.93447" lon="-3.878569">
        <ele>900.85</ele>
        <time>2019-01-18T18:08:41Z</time>
      </trkpt>
      <trkpt lat="36.932419" lon="-3.877605">
        <ele>918.41</ele>
        <time>2019-01-18T18:10:52Z</time>
      </trkpt>
      <trkpt lat="36.932039" lon="-3.87715">
        <ele>922.69</ele>
        <time>2019-01-18T18:11:23Z</time>
      </trkpt>
      <trkpt lat="36.93189" lon="-3.876857">
        <ele>927.04</ele>
        <time>2019-01-18T18:11:46Z</time>
      </trkpt>
      <trkpt lat="36.931403" lon="-3.876686">
        <ele>931.25</ele>
        <time>2019-01-18T18:12:22Z</time>
      </trkpt>
      <trkpt lat="36.930975" lon="-3.876375">
        <ele>933.62</ele>
        <time>2019-01-18T18:12:46Z</time>
      </trkpt>
      <trkpt lat="36.930848" lon="-3.876181">
        <ele>934.01</ele>
        <time>2019-01-18T18:13:13Z</time>
      </trkpt>
      <trkpt lat="36.930592" lon="-3.876035">
        <ele>937.81</ele>
        <time>2019-01-18T18:13:37Z</time>
      </trkpt>
      <trkpt lat="36.930076" lon="-3.875564">
        <ele>950.46</ele>
        <time>2019-01-18T18:15:13Z</time>
      </trkpt>
      <trkpt lat="36.929324" lon="-3.875159">
        <ele>959.05</ele>
        <time>2019-01-18T18:16:10Z</time>
      </trkpt>
      <trkpt lat="36.928342" lon="-3.873911">
        <ele>971.22</ele>
        <time>2019-01-18T18:17:51Z</time>
      </trkpt>
      <trkpt lat="36.927851" lon="-3.873405">
        <ele>980.43</ele>
        <time>2019-01-18T18:18:45Z</time>
      </trkpt>
      <trkpt lat="36.927331" lon="-3.873175">
        <ele>989.42</ele>
        <time>2019-01-18T18:19:42Z</time>
      </trkpt>
      <trkpt lat="36.92712" lon="-3.873233">
        <ele>991.63</ele>
        <time>2019-01-18T18:19:56Z</time>
      </trkpt>
      <trkpt lat="36.926878" lon="-3.873869">
        <ele>991.65</ele>
        <time>2019-01-18T18:20:23Z</time>
      </trkpt>
      <trkpt lat="36.927493" lon="-3.874627">
        <ele>991.69</ele>
        <time>2019-01-18T18:20:42Z</time>
      </trkpt>
      <trkpt lat="36.927744" lon="-3.875232">
        <ele>990.22</ele>
        <time>2019-01-18T18:20:53Z</time>
      </trkpt>
      <trkpt lat="36.927533" lon="-3.875634">
        <ele>987.43</ele>
        <time>2019-01-18T18:21:05Z</time>
      </trkpt>
      <trkpt lat="36.927532" lon="-3.876202">
        <ele>987.43</ele>
        <time>2019-01-18T18:21:23Z</time>
      </trkpt>
      <trkpt lat="36.927875" lon="-3.876637">
        <ele>990.49</ele>
        <time>2019-01-18T18:21:44Z</time>
      </trkpt>
      <trkpt lat="36.92828" lon="-3.877118">
        <ele>993.63</ele>
        <time>2019-01-18T18:22:08Z</time>
      </trkpt>
      <trkpt lat="36.928079" lon="-3.877285">
        <ele>993.68</ele>
        <time>2019-01-18T18:22:31Z</time>
      </trkpt>
      <trkpt lat="36.928204" lon="-3.877153">
        <ele>993.65</ele>
        <time>2019-01-18T18:22:42Z</time>
      </trkpt>
      <trkpt lat="36.927643" lon="-3.877162">
        <ele>1002.28</ele>
        <time>2019-01-18T18:23:28Z</time>
      </trkpt>
      <trkpt lat="36.927258" lon="-3.877601">
        <ele>1006.27</ele>
        <time>2019-01-18T18:24:01Z</time>
      </trkpt>
      <trkpt lat="36.926919" lon="-3.876127">
        <ele>1015.89</ele>
        <time>2019-01-18T18:25:08Z</time>
      </trkpt>
      <trkpt lat="36.926734" lon="-3.875913">
        <ele>1016.66</ele>
        <time>2019-01-18T18:25:19Z</time>
      </trkpt>
      <trkpt lat="36.92606" lon="-3.875335">
        <ele>1016.62</ele>
        <time>2019-01-18T18:25:44Z</time>
      </trkpt>
      <trkpt lat="36.925316" lon="-3.874423">
        <ele>1018.61</ele>
        <time>2019-01-18T18:26:17Z</time>
      </trkpt>
      <trkpt lat="36.925026" lon="-3.874115">
        <ele>1020.64</ele>
        <time>2019-01-18T18:26:27Z</time>
      </trkpt>
      <trkpt lat="36.924599" lon="-3.873474">
        <ele>1022.85</ele>
        <time>2019-01-18T18:26:46Z</time>
      </trkpt>
      <trkpt lat="36.92427" lon="-3.8732">
        <ele>1024.82</ele>
        <time>2019-01-18T18:27:05Z</time>
      </trkpt>
      <trkpt lat="36.923889" lon="-3.872479">
        <ele>1029.01</ele>
        <time>2019-01-18T18:27:35Z</time>
      </trkpt>
      <trkpt lat="36.923551" lon="-3.871971">
        <ele>1029.05</ele>
        <time>2019-01-18T18:27:52Z</time>
      </trkpt>
      <trkpt lat="36.923422" lon="-3.871901">
        <ele>1029.07</ele>
        <time>2019-01-18T18:27:57Z</time>
      </trkpt>
      <trkpt lat="36.923071" lon="-3.8721">
        <ele>1029.04</ele>
        <time>2019-01-18T18:28:08Z</time>
      </trkpt>
      <trkpt lat="36.922552" lon="-3.871917">
        <ele>1031.09</ele>
        <time>2019-01-18T18:28:24Z</time>
      </trkpt>
      <trkpt lat="36.922342" lon="-3.872051">
        <ele>1030.26</ele>
        <time>2019-01-18T18:28:29Z</time>
      </trkpt>
      <trkpt lat="36.922257" lon="-3.872398">
        <ele>1026.41</ele>
        <time>2019-01-18T18:28:35Z</time>
      </trkpt>
      <trkpt lat="36.922023" lon="-3.87248">
        <ele>1022.85</ele>
        <time>2019-01-18T18:28:40Z</time>
      </trkpt>
      <trkpt lat="36.921872" lon="-3.871886">
        <ele>1018.49</ele>
        <time>2019-01-18T18:28:48Z</time>
      </trkpt>
      <trkpt lat="36.921979" lon="-3.871594">
        <ele>1017.62</ele>
        <time>2019-01-18T18:28:52Z</time>
      </trkpt>
      <trkpt lat="36.922221" lon="-3.871242">
        <ele>1015.68</ele>
        <time>2019-01-18T18:28:58Z</time>
      </trkpt>
      <trkpt lat="36.922693" lon="-3.871056">
        <ele>1014.29</ele>
        <time>2019-01-18T18:29:07Z</time>
      </trkpt>
      <trkpt lat="36.923066" lon="-3.87029">
        <ele>1013.46</ele>
        <time>2019-01-18T18:29:20Z</time>
      </trkpt>
      <trkpt lat="36.923242" lon="-3.870048">
        <ele>1011.85</ele>
        <time>2019-01-18T18:29:24Z</time>
      </trkpt>
      <trkpt lat="36.923327" lon="-3.86982">
        <ele>1010.81</ele>
        <time>2019-01-18T18:29:27Z</time>
      </trkpt>
      <trkpt lat="36.923932" lon="-3.869678">
        <ele>1008.48</ele>
        <time>2019-01-18T18:29:36Z</time>
      </trkpt>
      <trkpt lat="36.9242" lon="-3.868923">
        <ele>1005.28</ele>
        <time>2019-01-18T18:29:45Z</time>
      </trkpt>
      <trkpt lat="36.924077" lon="-3.867714">
        <ele>1001.3</ele>
        <time>2019-01-18T18:29:57Z</time>
      </trkpt>
      <trkpt lat="36.924319" lon="-3.867089">
        <ele>997.67</ele>
        <time>2019-01-18T18:30:04Z</time>
      </trkpt>
      <trkpt lat="36.924318" lon="-3.866671">
        <ele>995.41</ele>
        <time>2019-01-18T18:30:08Z</time>
      </trkpt>
      <trkpt lat="36.924481" lon="-3.86647">
        <ele>995.04</ele>
        <time>2019-01-18T18:30:11Z</time>
      </trkpt>
      <trkpt lat="36.925162" lon="-3.866661">
        <ele>990.41</ele>
        <time>2019-01-18T18:30:21Z</time>
      </trkpt>
      <trkpt lat="36.925746" lon="-3.866338">
        <ele>987.06</ele>
        <time>2019-01-18T18:30:28Z</time>
      </trkpt>
      <trkpt lat="36.926015" lon="-3.865757">
        <ele>983.82</ele>
        <time>2019-01-18T18:30:34Z</time>
      </trkpt>
      <trkpt lat="36.926359" lon="-3.865301">
        <ele>979.48</ele>
        <time>2019-01-18T18:30:41Z</time>
      </trkpt>
      <trkpt lat="36.926962" lon="-3.865313">
        <ele>974.29</ele>
        <time>2019-01-18T18:30:49Z</time>
      </trkpt>
      <trkpt lat="36.927297" lon="-3.865269">
        <ele>972.1</ele>
        <time>2019-01-18T18:30:53Z</time>
      </trkpt>
      <trkpt lat="36.927835" lon="-3.865757">
        <ele>966.84</ele>
        <time>2019-01-18T18:31:02Z</time>
      </trkpt>
      <trkpt lat="36.928457" lon="-3.865029">
        <ele>960.49</ele>
        <time>2019-01-18T18:31:15Z</time>
      </trkpt>
      <trkpt lat="36.928816" lon="-3.864803">
        <ele>958.22</ele>
        <time>2019-01-18T18:31:20Z</time>
      </trkpt>
      <trkpt lat="36.929049" lon="-3.864421">
        <ele>955.66</ele>
        <time>2019-01-18T18:31:25Z</time>
      </trkpt>
      <trkpt lat="36.92937" lon="-3.864301">
        <ele>952.26</ele>
        <time>2019-01-18T18:31:30Z</time>
      </trkpt>
      <trkpt lat="36.929401" lon="-3.863694">
        <ele>948.26</ele>
        <time>2019-01-18T18:31:37Z</time>
      </trkpt>
      <trkpt lat="36.929554" lon="-3.863521">
        <ele>947.24</ele>
        <time>2019-01-18T18:31:40Z</time>
      </trkpt>
      <trkpt lat="36.930595" lon="-3.862833">
        <ele>939.24</ele>
        <time>2019-01-18T18:31:54Z</time>
      </trkpt>
      <trkpt lat="36.931697" lon="-3.863343">
        <ele>930.28</ele>
        <time>2019-01-18T18:32:07Z</time>
      </trkpt>
      <trkpt lat="36.931989" lon="-3.863134">
        <ele>926.05</ele>
        <time>2019-01-18T18:32:11Z</time>
      </trkpt>
      <trkpt lat="36.932229" lon="-3.86287">
        <ele>922.27</ele>
        <time>2019-01-18T18:32:15Z</time>
      </trkpt>
      <trkpt lat="36.932554" lon="-3.862934">
        <ele>917.84</ele>
        <time>2019-01-18T18:32:19Z</time>
      </trkpt>
      <trkpt lat="36.932803" lon="-3.863129">
        <ele>914.63</ele>
        <time>2019-01-18T18:32:23Z</time>
      </trkpt>
      <trkpt lat="36.933584" lon="-3.862583">
        <ele>906.61</ele>
        <time>2019-01-18T18:32:34Z</time>
      </trkpt>
      <trkpt lat="36.93366" lon="-3.862046">
        <ele>902.05</ele>
        <time>2019-01-18T18:32:40Z</time>
      </trkpt>
      <trkpt lat="36.934047" lon="-3.86192">
        <ele>898.62</ele>
        <time>2019-01-18T18:32:45Z</time>
      </trkpt>
      <trkpt lat="36.935157" lon="-3.862069">
        <ele>889.21</ele>
        <time>2019-01-18T18:32:57Z</time>
      </trkpt>
      <trkpt lat="36.937098" lon="-3.862182">
        <ele>880.45</ele>
        <time>2019-01-18T18:33:20Z</time>
      </trkpt>
      <trkpt lat="36.937031" lon="-3.861957">
        <ele>878.01</ele>
        <time>2019-01-18T18:33:25Z</time>
      </trkpt>
      <trkpt lat="36.936783" lon="-3.861463">
        <ele>875.87</ele>
        <time>2019-01-18T18:33:34Z</time>
      </trkpt>
      <trkpt lat="36.936501" lon="-3.861046">
        <ele>873.43</ele>
        <time>2019-01-18T18:33:41Z</time>
      </trkpt>
      <trkpt lat="36.935953" lon="-3.860126">
        <ele>869.4</ele>
        <time>2019-01-18T18:33:53Z</time>
      </trkpt>
      <trkpt lat="36.935462" lon="-3.859985">
        <ele>866.82</ele>
        <time>2019-01-18T18:34:04Z</time>
      </trkpt>
      <trkpt lat="36.934644" lon="-3.859953">
        <ele>869.24</ele>
        <time>2019-01-18T18:34:34Z</time>
      </trkpt>
      <trkpt lat="36.934412" lon="-3.859687">
        <ele>869.23</ele>
        <time>2019-01-18T18:34:47Z</time>
      </trkpt>
      <trkpt lat="36.934155" lon="-3.858559">
        <ele>872.48</ele>
        <time>2019-01-18T18:35:25Z</time>
      </trkpt>
      <trkpt lat="36.934346" lon="-3.85788">
        <ele>874.1</ele>
        <time>2019-01-18T18:35:47Z</time>
      </trkpt>
      <trkpt lat="36.934766" lon="-3.857194">
        <ele>877.26</ele>
        <time>2019-01-18T18:36:16Z</time>
      </trkpt>
      <trkpt lat="36.934767" lon="-3.856667">
        <ele>879.49</ele>
        <time>2019-01-18T18:36:33Z</time>
      </trkpt>
      <trkpt lat="36.934234" lon="-3.855133">
        <ele>880.68</ele>
        <time>2019-01-18T18:37:09Z</time>
      </trkpt>
      <trkpt lat="36.93379" lon="-3.85476">
        <ele>881.49</ele>
        <time>2019-01-18T18:37:24Z</time>
      </trkpt>
      <trkpt lat="36.932621" lon="-3.854877">
        <ele>883.61</ele>
        <time>2019-01-18T18:37:55Z</time>
      </trkpt>
      <trkpt lat="36.93055" lon="-3.854308">
        <ele>883.61</ele>
        <time>2019-01-18T18:38:47Z</time>
      </trkpt>
      <trkpt lat="36.929817" lon="-3.854245">
        <ele>881.45</ele>
        <time>2019-01-18T18:39:05Z</time>
      </trkpt>
      <trkpt lat="36.929625" lon="-3.853894">
        <ele>881.41</ele>
        <time>2019-01-18T18:40:17Z</time>
      </trkpt>
      <trkpt lat="36.929575" lon="-3.853339">
        <ele>883.47</ele>
        <time>2019-01-18T18:40:37Z</time>
      </trkpt>
      <trkpt lat="36.929625" lon="-3.852866">
        <ele>883.42</ele>
        <time>2019-01-18T18:40:51Z</time>
      </trkpt>
      <trkpt lat="36.929713" lon="-3.852747">
        <ele>883.41</ele>
        <time>2019-01-18T18:40:56Z</time>
      </trkpt>
      <trkpt lat="36.929803" lon="-3.852906">
        <ele>885.64</ele>
        <time>2019-01-18T18:41:05Z</time>
      </trkpt>
      <trkpt lat="36.929865" lon="-3.853777">
        <ele>887.64</ele>
        <time>2019-01-18T18:41:35Z</time>
      </trkpt>
      <trkpt lat="36.930182" lon="-3.853888">
        <ele>887.62</ele>
        <time>2019-01-18T18:41:45Z</time>
      </trkpt>
      <trkpt lat="36.931316" lon="-3.853742">
        <ele>889.86</ele>
        <time>2019-01-18T18:42:19Z</time>
      </trkpt>
      <trkpt lat="36.931511" lon="-3.853483">
        <ele>889.82</ele>
        <time>2019-01-18T18:42:30Z</time>
      </trkpt>
      <trkpt lat="36.931388" lon="-3.852837">
        <ele>894.08</ele>
        <time>2019-01-18T18:42:57Z</time>
      </trkpt>
      <trkpt lat="36.930925" lon="-3.851971">
        <ele>900.27</ele>
        <time>2019-01-18T18:43:46Z</time>
      </trkpt>
      <trkpt lat="36.93051" lon="-3.85155">
        <ele>904.5</ele>
        <time>2019-01-18T18:44:14Z</time>
      </trkpt>
      <trkpt lat="36.930107" lon="-3.850783">
        <ele>910.49</ele>
        <time>2019-01-18T18:44:55Z</time>
      </trkpt>
      <trkpt lat="36.930095" lon="-3.850449">
        <ele>912.47</ele>
        <time>2019-01-18T18:45:10Z</time>
      </trkpt>
      <trkpt lat="36.929168" lon="-3.848779">
        <ele>918.83</ele>
        <time>2019-01-18T18:46:22Z</time>
      </trkpt>
      <trkpt lat="36.929151" lon="-3.847636">
        <ele>925.68</ele>
        <time>2019-01-18T18:47:16Z</time>
      </trkpt>
      <trkpt lat="36.929684" lon="-3.846363">
        <ele>938.08</ele>
        <time>2019-01-18T18:48:35Z</time>
      </trkpt>
      <trkpt lat="36.929974" lon="-3.845363">
        <ele>951.01</ele>
        <time>2019-01-18T18:49:50Z</time>
      </trkpt>
      <trkpt lat="36.930604" lon="-3.844803">
        <ele>963.45</ele>
        <time>2019-01-18T18:50:58Z</time>
      </trkpt>
      <trkpt lat="36.931217" lon="-3.843711">
        <ele>980.09</ele>
        <time>2019-01-18T18:52:54Z</time>
      </trkpt>
      <trkpt lat="36.931286" lon="-3.843495">
        <ele>982.03</ele>
        <time>2019-01-18T18:53:13Z</time>
      </trkpt>
      <trkpt lat="36.931318" lon="-3.843356">
        <ele>984.09</ele>
        <time>2019-01-18T18:53:25Z</time>
      </trkpt>
      <trkpt lat="36.93095" lon="-3.843276">
        <ele>990.47</ele>
        <time>2019-01-18T18:54:03Z</time>
      </trkpt>
      <trkpt lat="36.930582" lon="-3.843476">
        <ele>994.61</ele>
        <time>2019-01-18T18:54:34Z</time>
      </trkpt>
      <trkpt lat="36.930371" lon="-3.843214">
        <ele>998.29</ele>
        <time>2019-01-18T18:54:55Z</time>
      </trkpt>
      <trkpt lat="36.930257" lon="-3.843055">
        <ele>1000.22</ele>
        <time>2019-01-18T18:55:08Z</time>
      </trkpt>
      <trkpt lat="36.929904" lon="-3.843131">
        <ele>1005.48</ele>
        <time>2019-01-18T18:55:34Z</time>
      </trkpt>
      <trkpt lat="36.929596" lon="-3.843301">
        <ele>1010.06</ele>
        <time>2019-01-18T18:55:59Z</time>
      </trkpt>
      <trkpt lat="36.929351" lon="-3.842927">
        <ele>1012.25</ele>
        <time>2019-01-18T18:56:21Z</time>
      </trkpt>
      <trkpt lat="36.928925" lon="-3.842847">
        <ele>1012.22</ele>
        <time>2019-01-18T18:56:41Z</time>
      </trkpt>
      <trkpt lat="36.928571" lon="-3.842936">
        <ele>1014.26</ele>
        <time>2019-01-18T18:56:55Z</time>
      </trkpt>
      <trkpt lat="36.928293" lon="-3.842705">
        <ele>1016.23</ele>
        <time>2019-01-18T18:57:12Z</time>
      </trkpt>
      <trkpt lat="36.928252" lon="-3.842233">
        <ele>1023.07</ele>
        <time>2019-01-18T18:57:47Z</time>
      </trkpt>
      <trkpt lat="36.928591" lon="-3.842234">
        <ele>1027.26</ele>
        <time>2019-01-18T18:58:13Z</time>
      </trkpt>
      <trkpt lat="36.928864" lon="-3.842237">
        <ele>1031.09</ele>
        <time>2019-01-18T18:58:32Z</time>
      </trkpt>
      <trkpt lat="36.92902" lon="-3.841979">
        <ele>1034.83</ele>
        <time>2019-01-18T18:58:55Z</time>
      </trkpt>
      <trkpt lat="36.929012" lon="-3.840872">
        <ele>1047.61</ele>
        <time>2019-01-18T19:00:09Z</time>
      </trkpt>
      <trkpt lat="36.929175" lon="-3.840545">
        <ele>1051.82</ele>
        <time>2019-01-18T19:00:28Z</time>
      </trkpt>
      <trkpt lat="36.929488" lon="-3.840179">
        <ele>1054.06</ele>
        <time>2019-01-18T19:00:51Z</time>
      </trkpt>
      <trkpt lat="36.929769" lon="-3.839178">
        <ele>1056.03</ele>
        <time>2019-01-18T19:01:17Z</time>
      </trkpt>
      <trkpt lat="36.930164" lon="-3.838305">
        <ele>1056.01</ele>
        <time>2019-01-18T19:01:38Z</time>
      </trkpt>
      <trkpt lat="36.930434" lon="-3.834676">
        <ele>1062.44</ele>
        <time>2019-01-18T19:03:01Z</time>
      </trkpt>
      <trkpt lat="36.930382" lon="-3.834252">
        <ele>1062.49</ele>
        <time>2019-01-18T19:03:08Z</time>
      </trkpt>
      <trkpt lat="36.927078" lon="-3.827184">
        <ele>1075.02</ele>
        <time>2019-01-18T19:06:20Z</time>
      </trkpt>
      <trkpt lat="36.927232" lon="-3.826824">
        <ele>1075.08</ele>
        <time>2019-01-18T19:06:29Z</time>
      </trkpt>
      <trkpt lat="36.928239" lon="-3.825415">
        <ele>1077.07</ele>
        <time>2019-01-18T19:07:08Z</time>
      </trkpt>
      <trkpt lat="36.928662" lon="-3.824686">
        <ele>1077.05</ele>
        <time>2019-01-18T19:07:26Z</time>
      </trkpt>
      <trkpt lat="36.929485" lon="-3.824717">
        <ele>1077.04</ele>
        <time>2019-01-18T19:07:43Z</time>
      </trkpt>
      <trkpt lat="36.93103" lon="-3.824586">
        <ele>1079</ele>
        <time>2019-01-18T19:08:19Z</time>
      </trkpt>
      <trkpt lat="36.931815" lon="-3.82485">
        <ele>1079.02</ele>
        <time>2019-01-18T19:08:38Z</time>
      </trkpt>
      <trkpt lat="36.932283" lon="-3.825259">
        <ele>1077.02</ele>
        <time>2019-01-18T19:08:52Z</time>
      </trkpt>
      <trkpt lat="36.932677" lon="-3.825976">
        <ele>1077.04</ele>
        <time>2019-01-18T19:09:11Z</time>
      </trkpt>
      <trkpt lat="36.933272" lon="-3.826708">
        <ele>1077.02</ele>
        <time>2019-01-18T19:09:28Z</time>
      </trkpt>
      <trkpt lat="36.933477" lon="-3.827468">
        <ele>1077.06</ele>
        <time>2019-01-18T19:09:42Z</time>
      </trkpt>
      <trkpt lat="36.933616" lon="-3.827478">
        <ele>1075.48</ele>
        <time>2019-01-18T19:09:46Z</time>
      </trkpt>
      <trkpt lat="36.933894" lon="-3.827336">
        <ele>1073.01</ele>
        <time>2019-01-18T19:09:53Z</time>
      </trkpt>
      <trkpt lat="36.934233" lon="-3.827531">
        <ele>1070.46</ele>
        <time>2019-01-18T19:09:59Z</time>
      </trkpt>
      <trkpt lat="36.934626" lon="-3.828014">
        <ele>1065.89</ele>
        <time>2019-01-18T19:10:08Z</time>
      </trkpt>
      <trkpt lat="36.934996" lon="-3.828482">
        <ele>1058.86</ele>
        <time>2019-01-18T19:10:15Z</time>
      </trkpt>
      <trkpt lat="36.935345" lon="-3.829101">
        <ele>1050.88</ele>
        <time>2019-01-18T19:10:37Z</time>
      </trkpt>
      <trkpt lat="36.93569" lon="-3.829378">
        <ele>1048.67</ele>
        <time>2019-01-18T19:10:53Z</time>
      </trkpt>
      <trkpt lat="36.936065" lon="-3.829414">
        <ele>1042.62</ele>
        <time>2019-01-18T19:11:35Z</time>
      </trkpt>
      <trkpt lat="36.936287" lon="-3.829597">
        <ele>1039.05</ele>
        <time>2019-01-18T19:11:52Z</time>
      </trkpt>
      <trkpt lat="36.936692" lon="-3.829379">
        <ele>1033.22</ele>
        <time>2019-01-18T19:12:08Z</time>
      </trkpt>
      <trkpt lat="36.93741" lon="-3.82919">
        <ele>1029.06</ele>
        <time>2019-01-18T19:12:34Z</time>
      </trkpt>
      <trkpt lat="36.937625" lon="-3.829228">
        <ele>1026.84</ele>
        <time>2019-01-18T19:12:55Z</time>
      </trkpt>
      <trkpt lat="36.937883" lon="-3.828971">
        <ele>1024.21</ele>
        <time>2019-01-18T19:13:09Z</time>
      </trkpt>
      <trkpt lat="36.938249" lon="-3.829125">
        <ele>1019.24</ele>
        <time>2019-01-18T19:13:24Z</time>
      </trkpt>
      <trkpt lat="36.938584" lon="-3.829153">
        <ele>1014.23</ele>
        <time>2019-01-18T19:13:32Z</time>
      </trkpt>
      <trkpt lat="36.938832" lon="-3.829222">
        <ele>1008.61</ele>
        <time>2019-01-18T19:13:42Z</time>
      </trkpt>
      <trkpt lat="36.939237" lon="-3.828756">
        <ele>1004.81</ele>
        <time>2019-01-18T19:13:51Z</time>
      </trkpt>
      <trkpt lat="36.939711" lon="-3.828471">
        <ele>1001.65</ele>
        <time>2019-01-18T19:13:58Z</time>
      </trkpt>
      <trkpt lat="36.940126" lon="-3.827835">
        <ele>992.64</ele>
        <time>2019-01-18T19:14:09Z</time>
      </trkpt>
      <trkpt lat="36.940924" lon="-3.82751">
        <ele>977.64</ele>
        <time>2019-01-18T19:14:27Z</time>
      </trkpt>
      <trkpt lat="36.941915" lon="-3.827056">
        <ele>963.23</ele>
        <time>2019-01-18T19:14:44Z</time>
      </trkpt>
      <trkpt lat="36.94235" lon="-3.826971">
        <ele>957.81</ele>
        <time>2019-01-18T19:14:52Z</time>
      </trkpt>
      <trkpt lat="36.942387" lon="-3.82646">
        <ele>952.44</ele>
        <time>2019-01-18T19:15:00Z</time>
      </trkpt>
      <trkpt lat="36.942369" lon="-3.825995">
        <ele>947.26</ele>
        <time>2019-01-18T19:15:07Z</time>
      </trkpt>
      <trkpt lat="36.942548" lon="-3.825525">
        <ele>939.85</ele>
        <time>2019-01-18T19:15:15Z</time>
      </trkpt>
      <trkpt lat="36.942542" lon="-3.825125">
        <ele>932.84</ele>
        <time>2019-01-18T19:15:22Z</time>
      </trkpt>
      <trkpt lat="36.942798" lon="-3.824314">
        <ele>921.05</ele>
        <time>2019-01-18T19:15:36Z</time>
      </trkpt>
      <trkpt lat="36.942805" lon="-3.823964">
        <ele>916.21</ele>
        <time>2019-01-18T19:15:42Z</time>
      </trkpt>
      <trkpt lat="36.943011" lon="-3.823885">
        <ele>913.86</ele>
        <time>2019-01-18T19:15:46Z</time>
      </trkpt>
      <trkpt lat="36.943819" lon="-3.824228">
        <ele>901.65</ele>
        <time>2019-01-18T19:16:00Z</time>
      </trkpt>
      <trkpt lat="36.944284" lon="-3.823934">
        <ele>897.03</ele>
        <time>2019-01-18T19:16:11Z</time>
      </trkpt>
      <trkpt lat="36.944449" lon="-3.823838">
        <ele>895.83</ele>
        <time>2019-01-18T19:16:21Z</time>
      </trkpt>
      <trkpt lat="36.945233" lon="-3.82517">
        <ele>895.21</ele>
        <time>2019-01-18T19:17:02Z</time>
      </trkpt>
      <trkpt lat="36.945418" lon="-3.825279">
        <ele>893.07</ele>
        <time>2019-01-18T19:17:11Z</time>
      </trkpt>
      <trkpt lat="36.946034" lon="-3.824839">
        <ele>895</ele>
        <time>2019-01-18T19:18:21Z</time>
      </trkpt>
      <trkpt lat="36.945987" lon="-3.824728">
        <ele>893.83</ele>
        <time>2019-01-18T19:18:27Z</time>
      </trkpt>
      <trkpt lat="36.94609" lon="-3.824451">
        <ele>893.08</ele>
        <time>2019-01-18T19:19:34Z</time>
      </trkpt>
      <trkpt lat="36.947138" lon="-3.823027">
        <ele>897.08</ele>
        <time>2019-01-18T19:20:34Z</time>
      </trkpt>
      <trkpt lat="36.947344" lon="-3.822666">
        <ele>899.01</ele>
        <time>2019-01-18T19:20:58Z</time>
      </trkpt>
      <trkpt lat="36.947622" lon="-3.822846">
        <ele>901.27</ele>
        <time>2019-01-18T19:21:20Z</time>
      </trkpt>
      <trkpt lat="36.947852" lon="-3.82276">
        <ele>904.41</ele>
        <time>2019-01-18T19:21:35Z</time>
      </trkpt>
      <trkpt lat="36.948159" lon="-3.823014">
        <ele>911.9</ele>
        <time>2019-01-18T19:22:03Z</time>
      </trkpt>
      <trkpt lat="36.948615" lon="-3.823697">
        <ele>914.1</ele>
        <time>2019-01-18T19:22:37Z</time>
      </trkpt>
      <trkpt lat="36.948811" lon="-3.823745">
        <ele>915.28</ele>
        <time>2019-01-18T19:22:44Z</time>
      </trkpt>
      <trkpt lat="36.949081" lon="-3.824589">
        <ele>916.22</ele>
        <time>2019-01-18T19:23:02Z</time>
      </trkpt>
      <trkpt lat="36.949291" lon="-3.825438">
        <ele>913.68</ele>
        <time>2019-01-18T19:23:14Z</time>
      </trkpt>
      <trkpt lat="36.949272" lon="-3.825797">
        <ele>909.24</ele>
        <time>2019-01-18T19:23:31Z</time>
      </trkpt>
      <trkpt lat="36.949317" lon="-3.825778">
        <ele>904.871</ele>
        <time>2015-06-24T07:08:09Z</time>
      </trkpt>
      <trkpt lat="36.949355" lon="-3.825741">
        <ele>904.893</ele>
        <time>2015-06-24T07:08:15Z</time>
      </trkpt>
      <trkpt lat="36.94928" lon="-3.82533">
        <ele>904.814</ele>
        <time>2015-06-24T07:08:35Z</time>
      </trkpt>
      <trkpt lat="36.949225" lon="-3.825021">
        <ele>906.897</ele>
        <time>2015-06-24T07:08:49Z</time>
      </trkpt>
      <trkpt lat="36.948962" lon="-3.824291">
        <ele>911.032</ele>
        <time>2015-06-24T07:09:22Z</time>
      </trkpt>
      <trkpt lat="36.948883" lon="-3.824103">
        <ele>911.065</ele>
        <time>2015-06-24T07:09:29Z</time>
      </trkpt>
      <trkpt lat="36.94881" lon="-3.823456">
        <ele>913.057</ele>
        <time>2015-06-24T07:09:48Z</time>
      </trkpt>
      <trkpt lat="36.948862" lon="-3.823206">
        <ele>913.082</ele>
        <time>2015-06-24T07:09:55Z</time>
      </trkpt>
      <trkpt lat="36.948794" lon="-3.822624">
        <ele>913.067</ele>
        <time>2015-06-24T07:10:08Z</time>
      </trkpt>
      <trkpt lat="36.948655" lon="-3.822451">
        <ele>913.068</ele>
        <time>2015-06-24T07:10:12Z</time>
      </trkpt>
      <trkpt lat="36.948575" lon="-3.82228">
        <ele>913.008</ele>
        <time>2015-06-24T07:10:16Z</time>
      </trkpt>
      <trkpt lat="36.948436" lon="-3.822315">
        <ele>910.84</ele>
        <time>2015-06-24T07:10:21Z</time>
      </trkpt>
      <trkpt lat="36.947845" lon="-3.821821">
        <ele>904.875</ele>
        <time>2015-06-24T07:10:35Z</time>
      </trkpt>
      <trkpt lat="36.947358" lon="-3.821645">
        <ele>902.074</ele>
        <time>2015-06-24T07:10:45Z</time>
      </trkpt>
      <trkpt lat="36.947212" lon="-3.821734">
        <ele>899.63</ele>
        <time>2015-06-24T07:10:50Z</time>
      </trkpt>
      <trkpt lat="36.947163" lon="-3.821854">
        <ele>897.481</ele>
        <time>2015-06-24T07:10:54Z</time>
      </trkpt>
      <trkpt lat="36.947198" lon="-3.822385">
        <ele>897.46</ele>
        <time>2015-06-24T07:11:18Z</time>
      </trkpt>
      <trkpt lat="36.947146" lon="-3.82245">
        <ele>897.473</ele>
        <time>2015-06-24T07:11:22Z</time>
      </trkpt>
      <trkpt lat="36.946493" lon="-3.82188">
        <ele>900.656</ele>
        <time>2015-06-24T07:12:04Z</time>
      </trkpt>
      <trkpt lat="36.946173" lon="-3.821547">
        <ele>905.211</ele>
        <time>2015-06-24T07:12:27Z</time>
      </trkpt>
      <trkpt lat="36.945862" lon="-3.821148">
        <ele>909.808</ele>
        <time>2015-06-24T07:12:51Z</time>
      </trkpt>
      <trkpt lat="36.94579" lon="-3.820998">
        <ele>910.628</ele>
        <time>2015-06-24T07:12:59Z</time>
      </trkpt>
      <trkpt lat="36.945713" lon="-3.820945">
        <ele>911.899</ele>
        <time>2015-06-24T07:13:04Z</time>
      </trkpt>
      <trkpt lat="36.945405" lon="-3.820483">
        <ele>913.858</ele>
        <time>2015-06-24T07:13:28Z</time>
      </trkpt>
      <trkpt lat="36.945162" lon="-3.82019">
        <ele>916.039</ele>
        <time>2015-06-24T07:13:42Z</time>
      </trkpt>
      <trkpt lat="36.944638" lon="-3.819649">
        <ele>918.07</ele>
        <time>2015-06-24T07:14:09Z</time>
      </trkpt>
      <trkpt lat="36.94411" lon="-3.818698">
        <ele>918.048</ele>
        <time>2015-06-24T07:14:32Z</time>
      </trkpt>
      <trkpt lat="36.94355" lon="-3.818159">
        <ele>918.011</ele>
        <time>2015-06-24T07:14:51Z</time>
      </trkpt>
      <trkpt lat="36.94247" lon="-3.816657">
        <ele>919.61</ele>
        <time>2015-06-24T07:15:48Z</time>
      </trkpt>
      <trkpt lat="36.942133" lon="-3.816026">
        <ele>921.608</ele>
        <time>2015-06-24T07:16:20Z</time>
      </trkpt>
      <trkpt lat="36.941724" lon="-3.815351">
        <ele>926.247</ele>
        <time>2015-06-24T07:17:01Z</time>
      </trkpt>
      <trkpt lat="36.94111" lon="-3.814966">
        <ele>926.631</ele>
        <time>2015-06-24T07:17:30Z</time>
      </trkpt>
      <trkpt lat="36.940804" lon="-3.814587">
        <ele>928.262</ele>
        <time>2015-06-24T07:17:43Z</time>
      </trkpt>
      <trkpt lat="36.93992" lon="-3.814116">
        <ele>931.299</ele>
        <time>2015-06-24T07:18:23Z</time>
      </trkpt>
      <trkpt lat="36.939663" lon="-3.813959">
        <ele>934.226</ele>
        <time>2015-06-24T07:18:36Z</time>
      </trkpt>
      <trkpt lat="36.939201" lon="-3.813739">
        <ele>936.833</ele>
        <time>2015-06-24T07:19:01Z</time>
      </trkpt>
      <trkpt lat="36.938954" lon="-3.813677">
        <ele>938.811</ele>
        <time>2015-06-24T07:19:11Z</time>
      </trkpt>
      <trkpt lat="36.93865" lon="-3.813406">
        <ele>938.868</ele>
        <time>2015-06-24T07:19:21Z</time>
      </trkpt>
      <trkpt lat="36.93796" lon="-3.812754">
        <ele>936.608</ele>
        <time>2015-06-24T07:19:33Z</time>
      </trkpt>
      <trkpt lat="36.937678" lon="-3.812652">
        <ele>934.888</ele>
        <time>2015-06-24T07:19:37Z</time>
      </trkpt>
      <trkpt lat="36.937404" lon="-3.812664">
        <ele>934.415</ele>
        <time>2015-06-24T07:19:42Z</time>
      </trkpt>
      <trkpt lat="36.936918" lon="-3.81251">
        <ele>934.429</ele>
        <time>2015-06-24T07:19:54Z</time>
      </trkpt>
      <trkpt lat="36.935598" lon="-3.811979">
        <ele>932.254</ele>
        <time>2015-06-24T07:20:28Z</time>
      </trkpt>
      <trkpt lat="36.93508" lon="-3.811569">
        <ele>933.868</ele>
        <time>2015-06-24T07:20:51Z</time>
      </trkpt>
      <trkpt lat="36.934753" lon="-3.811416">
        <ele>937.668</ele>
        <time>2015-06-24T07:21:12Z</time>
      </trkpt>
      <trkpt lat="36.934638" lon="-3.81125">
        <ele>939.408</ele>
        <time>2015-06-24T07:21:22Z</time>
      </trkpt>
      <trkpt lat="36.934462" lon="-3.810624">
        <ele>942.608</ele>
        <time>2015-06-24T07:21:45Z</time>
      </trkpt>
      <trkpt lat="36.934272" lon="-3.809629">
        <ele>942.673</ele>
        <time>2015-06-24T07:22:01Z</time>
      </trkpt>
      <trkpt lat="36.934172" lon="-3.809484">
        <ele>942.663</ele>
        <time>2015-06-24T07:22:06Z</time>
      </trkpt>
      <trkpt lat="36.933836" lon="-3.809253">
        <ele>943.22</ele>
        <time>2015-06-24T07:22:23Z</time>
      </trkpt>
      <trkpt lat="36.933582" lon="-3.808669">
        <ele>944.886</ele>
        <time>2015-06-24T07:22:40Z</time>
      </trkpt>
      <trkpt lat="36.933255" lon="-3.807466">
        <ele>944.858</ele>
        <time>2015-06-24T07:23:03Z</time>
      </trkpt>
      <trkpt lat="36.93316" lon="-3.806075">
        <ele>940.671</ele>
        <time>2015-06-24T07:23:21Z</time>
      </trkpt>
      <trkpt lat="36.933143" lon="-3.805685">
        <ele>940.662</ele>
        <time>2015-06-24T07:23:28Z</time>
      </trkpt>
      <trkpt lat="36.933018" lon="-3.805145">
        <ele>940.651</ele>
        <time>2015-06-24T07:23:41Z</time>
      </trkpt>
      <trkpt lat="36.932709" lon="-3.80397">
        <ele>940.669</ele>
        <time>2015-06-24T07:24:07Z</time>
      </trkpt>
      <trkpt lat="36.932354" lon="-3.802327">
        <ele>940.614</ele>
        <time>2015-06-24T07:24:43Z</time>
      </trkpt>
      <trkpt lat="36.932042" lon="-3.801792">
        <ele>940.692</ele>
        <time>2015-06-24T07:24:53Z</time>
      </trkpt>
      <trkpt lat="36.931674" lon="-3.8014">
        <ele>940.635</ele>
        <time>2015-06-24T07:25:02Z</time>
      </trkpt>
      <trkpt lat="36.93138" lon="-3.80139">
        <ele>939.008</ele>
        <time>2015-06-24T07:25:08Z</time>
      </trkpt>
      <trkpt lat="36.930776" lon="-3.80155">
        <ele>938.663</ele>
        <time>2015-06-24T07:25:48Z</time>
      </trkpt>
      <trkpt lat="36.930458" lon="-3.801408">
        <ele>944.627</ele>
        <time>2015-06-24T07:26:14Z</time>
      </trkpt>
      <trkpt lat="36.930307" lon="-3.801454">
        <ele>945.838</ele>
        <time>2015-06-24T07:26:26Z</time>
      </trkpt>
      <trkpt lat="36.930086" lon="-3.801416">
        <ele>947.094</ele>
        <time>2015-06-24T07:26:40Z</time>
      </trkpt>
      <trkpt lat="36.929915" lon="-3.801355">
        <ele>948.835</ele>
        <time>2015-06-24T07:26:50Z</time>
      </trkpt>
      <trkpt lat="36.929245" lon="-3.801432">
        <ele>953.281</ele>
        <time>2015-06-24T07:27:29Z</time>
      </trkpt>
      <trkpt lat="36.928759" lon="-3.801483">
        <ele>957.883</ele>
        <time>2015-06-24T07:27:57Z</time>
      </trkpt>
      <trkpt lat="36.92833" lon="-3.80126">
        <ele>961.233</ele>
        <time>2015-06-24T07:28:19Z</time>
      </trkpt>
      <trkpt lat="36.927959" lon="-3.80116">
        <ele>963.261</ele>
        <time>2015-06-24T07:28:37Z</time>
      </trkpt>
      <trkpt lat="36.927495" lon="-3.800942">
        <ele>967.07</ele>
        <time>2015-06-24T07:29:03Z</time>
      </trkpt>
      <trkpt lat="36.927151" lon="-3.80083">
        <ele>967.485</ele>
        <time>2015-06-24T07:29:20Z</time>
      </trkpt>
      <trkpt lat="36.926701" lon="-3.800527">
        <ele>971.641</ele>
        <time>2015-06-24T07:29:45Z</time>
      </trkpt>
      <trkpt lat="36.926398" lon="-3.800364">
        <ele>971.609</ele>
        <time>2015-06-24T07:30:00Z</time>
      </trkpt>
      <trkpt lat="36.925856" lon="-3.799941">
        <ele>973.698</ele>
        <time>2015-06-24T07:30:32Z</time>
      </trkpt>
      <trkpt lat="36.925083" lon="-3.799544">
        <ele>977.846</ele>
        <time>2015-06-24T07:31:15Z</time>
      </trkpt>
      <trkpt lat="36.924543" lon="-3.799032">
        <ele>980.608</ele>
        <time>2015-06-24T07:31:47Z</time>
      </trkpt>
      <trkpt lat="36.924419" lon="-3.798936">
        <ele>981.863</ele>
        <time>2015-06-24T07:31:54Z</time>
      </trkpt>
      <trkpt lat="36.924336" lon="-3.798792">
        <ele>981.843</ele>
        <time>2015-06-24T07:32:01Z</time>
      </trkpt>
      <trkpt lat="36.924317" lon="-3.798632">
        <ele>981.866</ele>
        <time>2015-06-24T07:32:06Z</time>
      </trkpt>
      <trkpt lat="36.924131" lon="-3.798362">
        <ele>981.808</ele>
        <time>2015-06-24T07:32:27Z</time>
      </trkpt>
      <trkpt lat="36.924004" lon="-3.798004">
        <ele>986.097</ele>
        <time>2015-06-24T07:32:52Z</time>
      </trkpt>
      <trkpt lat="36.924042" lon="-3.797712">
        <ele>988.259</ele>
        <time>2015-06-24T07:33:10Z</time>
      </trkpt>
      <trkpt lat="36.923987" lon="-3.797529">
        <ele>989.431</ele>
        <time>2015-06-24T07:33:20Z</time>
      </trkpt>
      <trkpt lat="36.923237" lon="-3.796457">
        <ele>994.273</ele>
        <time>2015-06-24T07:34:30Z</time>
      </trkpt>
      <trkpt lat="36.923063" lon="-3.796211">
        <ele>996.408</ele>
        <time>2015-06-24T07:34:51Z</time>
      </trkpt>
      <trkpt lat="36.922914" lon="-3.796014">
        <ele>998.448</ele>
        <time>2015-06-24T07:38:33Z</time>
      </trkpt>
      <trkpt lat="36.922671" lon="-3.795639">
        <ele>1000.665</ele>
        <time>2015-06-24T07:38:56Z</time>
      </trkpt>
      <trkpt lat="36.922449" lon="-3.795306">
        <ele>1004.223</ele>
        <time>2015-06-24T07:39:18Z</time>
      </trkpt>
      <trkpt lat="36.922179" lon="-3.794974">
        <ele>1006.831</ele>
        <time>2015-06-24T07:39:38Z</time>
      </trkpt>
      <trkpt lat="36.922066" lon="-3.794806">
        <ele>1006.83</ele>
        <time>2015-06-24T07:39:49Z</time>
      </trkpt>
      <trkpt lat="36.921564" lon="-3.794327">
        <ele>1010.822</ele>
        <time>2015-06-24T07:40:22Z</time>
      </trkpt>
      <trkpt lat="36.921075" lon="-3.794055">
        <ele>1012.821</ele>
        <time>2015-06-24T07:40:45Z</time>
      </trkpt>
      <trkpt lat="36.920606" lon="-3.793674">
        <ele>1014.886</ele>
        <time>2015-06-24T07:41:15Z</time>
      </trkpt>
      <trkpt lat="36.920365" lon="-3.793384">
        <ele>1017.269</ele>
        <time>2015-06-24T07:41:35Z</time>
      </trkpt>
      <trkpt lat="36.919994" lon="-3.793227">
        <ele>1019.055</ele>
        <time>2015-06-24T07:41:54Z</time>
      </trkpt>
      <trkpt lat="36.91991" lon="-3.793159">
        <ele>1020.224</ele>
        <time>2015-06-24T07:41:59Z</time>
      </trkpt>
      <trkpt lat="36.919796" lon="-3.793098">
        <ele>1021.047</ele>
        <time>2015-06-24T07:42:06Z</time>
      </trkpt>
      <trkpt lat="36.919554" lon="-3.792872">
        <ele>1023.01</ele>
        <time>2015-06-24T07:42:23Z</time>
      </trkpt>
      <trkpt lat="36.919274" lon="-3.792742">
        <ele>1025.271</ele>
        <time>2015-06-24T07:42:41Z</time>
      </trkpt>
      <trkpt lat="36.918748" lon="-3.7923">
        <ele>1028.808</ele>
        <time>2015-06-24T07:43:23Z</time>
      </trkpt>
      <trkpt lat="36.918645" lon="-3.792161">
        <ele>1029.238</ele>
        <time>2015-06-24T07:43:32Z</time>
      </trkpt>
      <trkpt lat="36.918394" lon="-3.79201">
        <ele>1029.607</ele>
        <time>2015-06-24T07:43:48Z</time>
      </trkpt>
      <trkpt lat="36.918366" lon="-3.791909">
        <ele>1031.434</ele>
        <time>2015-06-24T07:43:53Z</time>
      </trkpt>
      <trkpt lat="36.918457" lon="-3.791895">
        <ele>1031.432</ele>
        <time>2015-06-24T07:44:00Z</time>
      </trkpt>
      <trkpt lat="36.918629" lon="-3.792082">
        <ele>1033.45</ele>
        <time>2015-06-24T07:44:15Z</time>
      </trkpt>
      <trkpt lat="36.918841" lon="-3.792066">
        <ele>1035.671</ele>
        <time>2015-06-24T07:44:35Z</time>
      </trkpt>
      <trkpt lat="36.919147" lon="-3.792234">
        <ele>1039.614</ele>
        <time>2015-06-24T07:45:02Z</time>
      </trkpt>
      <trkpt lat="36.919299" lon="-3.792275">
        <ele>1039.609</ele>
        <time>2015-06-24T07:45:14Z</time>
      </trkpt>
      <trkpt lat="36.919444" lon="-3.792437">
        <ele>1041.818</ele>
        <time>2015-06-24T07:45:27Z</time>
      </trkpt>
      <trkpt lat="36.91975" lon="-3.792552">
        <ele>1043.83</ele>
        <time>2015-06-24T07:45:46Z</time>
      </trkpt>
      <trkpt lat="36.919889" lon="-3.792448">
        <ele>1045.413</ele>
        <time>2015-06-24T07:45:56Z</time>
      </trkpt>
      <trkpt lat="36.920027" lon="-3.792396">
        <ele>1045.856</ele>
        <time>2015-06-24T07:46:07Z</time>
      </trkpt>
      <trkpt lat="36.920136" lon="-3.792519">
        <ele>1046.221</ele>
        <time>2015-06-24T07:46:16Z</time>
      </trkpt>
      <trkpt lat="36.920262" lon="-3.792645">
        <ele>1047.823</ele>
        <time>2015-06-24T07:46:25Z</time>
      </trkpt>
      <trkpt lat="36.920529" lon="-3.792605">
        <ele>1050.017</ele>
        <time>2015-06-24T07:46:39Z</time>
      </trkpt>
      <trkpt lat="36.920922" lon="-3.792828">
        <ele>1051.645</ele>
        <time>2015-06-24T07:47:03Z</time>
      </trkpt>
      <trkpt lat="36.921237" lon="-3.792951">
        <ele>1054.292</ele>
        <time>2015-06-24T07:47:21Z</time>
      </trkpt>
      <trkpt lat="36.921335" lon="-3.793034">
        <ele>1054.275</ele>
        <time>2015-06-24T07:47:27Z</time>
      </trkpt>
      <trkpt lat="36.921527" lon="-3.793057">
        <ele>1056.224</ele>
        <time>2015-06-24T07:47:39Z</time>
      </trkpt>
      <trkpt lat="36.921742" lon="-3.793073">
        <ele>1058.226</ele>
        <time>2015-06-24T07:47:52Z</time>
      </trkpt>
      <trkpt lat="36.922024" lon="-3.793279">
        <ele>1060.445</ele>
        <time>2015-06-24T07:48:11Z</time>
      </trkpt>
      <trkpt lat="36.92221" lon="-3.793495">
        <ele>1062.625</ele>
        <time>2015-06-24T07:48:25Z</time>
      </trkpt>
      <trkpt lat="36.92253" lon="-3.79363">
        <ele>1064.647</ele>
        <time>2015-06-24T07:48:45Z</time>
      </trkpt>
      <trkpt lat="36.922806" lon="-3.793933">
        <ele>1066.856</ele>
        <time>2015-06-24T07:49:08Z</time>
      </trkpt>
      <trkpt lat="36.922948" lon="-3.79394">
        <ele>1070.435</ele>
        <time>2015-06-24T07:50:36Z</time>
      </trkpt>
      <trkpt lat="36.922935" lon="-3.793726">
        <ele>1072.025</ele>
        <time>2015-06-24T07:58:34Z</time>
      </trkpt>
      <trkpt lat="36.92263" lon="-3.793104">
        <ele>1077.075</ele>
        <time>2015-06-24T07:59:10Z</time>
      </trkpt>
      <trkpt lat="36.92235" lon="-3.792566">
        <ele>1081.639</ele>
        <time>2015-06-24T07:59:49Z</time>
      </trkpt>
      <trkpt lat="36.922082" lon="-3.792229">
        <ele>1087.809</ele>
        <time>2015-06-24T08:00:21Z</time>
      </trkpt>
      <trkpt lat="36.921885" lon="-3.792026">
        <ele>1091.228</ele>
        <time>2015-06-24T08:00:42Z</time>
      </trkpt>
      <trkpt lat="36.921632" lon="-3.791723">
        <ele>1096.621</ele>
        <time>2015-06-24T08:01:10Z</time>
      </trkpt>
      <trkpt lat="36.921464" lon="-3.791568">
        <ele>1098.82</ele>
        <time>2015-06-24T08:01:29Z</time>
      </trkpt>
      <trkpt lat="36.921155" lon="-3.791385">
        <ele>1103.03</ele>
        <time>2015-06-24T08:01:57Z</time>
      </trkpt>
      <trkpt lat="36.920421" lon="-3.790567">
        <ele>1113.414</ele>
        <time>2015-06-24T08:03:12Z</time>
      </trkpt>
      <trkpt lat="36.920233" lon="-3.790446">
        <ele>1115.433</ele>
        <time>2015-06-24T08:03:26Z</time>
      </trkpt>
      <trkpt lat="36.919885" lon="-3.790379">
        <ele>1118.299</ele>
        <time>2015-06-24T08:03:51Z</time>
      </trkpt>
      <trkpt lat="36.919664" lon="-3.790327">
        <ele>1120.023</ele>
        <time>2015-06-24T08:04:06Z</time>
      </trkpt>
      <trkpt lat="36.919426" lon="-3.789994">
        <ele>1124.665</ele>
        <time>2015-06-24T08:04:32Z</time>
      </trkpt>
      <trkpt lat="36.919174" lon="-3.789753">
        <ele>1128.229</ele>
        <time>2015-06-24T08:04:57Z</time>
      </trkpt>
      <trkpt lat="36.919184" lon="-3.789643">
        <ele>1130.07</ele>
        <time>2015-06-24T08:05:04Z</time>
      </trkpt>
      <trkpt lat="36.919522" lon="-3.789534">
        <ele>1132.897</ele>
        <time>2015-06-24T08:05:30Z</time>
      </trkpt>
      <trkpt lat="36.919694" lon="-3.789477">
        <ele>1134.468</ele>
        <time>2015-06-24T08:05:43Z</time>
      </trkpt>
      <trkpt lat="36.919721" lon="-3.789423">
        <ele>1136.008</ele>
        <time>2015-06-24T08:05:47Z</time>
      </trkpt>
      <trkpt lat="36.919684" lon="-3.789274">
        <ele>1137.643</ele>
        <time>2015-06-24T08:05:57Z</time>
      </trkpt>
      <trkpt lat="36.919206" lon="-3.788571">
        <ele>1144.232</ele>
        <time>2015-06-24T08:06:51Z</time>
      </trkpt>
      <trkpt lat="36.919097" lon="-3.788414">
        <ele>1146.417</ele>
        <time>2015-06-24T08:07:01Z</time>
      </trkpt>
      <trkpt lat="36.918564" lon="-3.787872">
        <ele>1153.07</ele>
        <time>2015-06-24T08:07:45Z</time>
      </trkpt>
      <trkpt lat="36.918324" lon="-3.787747">
        <ele>1153.049</ele>
        <time>2015-06-24T08:08:00Z</time>
      </trkpt>
      <trkpt lat="36.917995" lon="-3.787751">
        <ele>1153.808</ele>
        <time>2015-06-24T08:10:39Z</time>
      </trkpt>
      <trkpt lat="36.917801" lon="-3.787775">
        <ele>1155.097</ele>
        <time>2015-06-24T08:11:59Z</time>
      </trkpt>
      <trkpt lat="36.917326" lon="-3.787554">
        <ele>1155.017</ele>
        <time>2015-06-24T08:12:48Z</time>
      </trkpt>
      <trkpt lat="36.916905" lon="-3.787656">
        <ele>1156.689</ele>
        <time>2015-06-24T08:13:06Z</time>
      </trkpt>
      <trkpt lat="36.916527" lon="-3.787638">
        <ele>1157.004</ele>
        <time>2015-06-24T08:13:16Z</time>
      </trkpt>
      <trkpt lat="36.916111" lon="-3.787576">
        <ele>1155.836</ele>
        <time>2015-06-24T08:13:25Z</time>
      </trkpt>
      <trkpt lat="36.915285" lon="-3.78734">
        <ele>1152.859</ele>
        <time>2015-06-24T08:13:42Z</time>
      </trkpt>
      <trkpt lat="36.914988" lon="-3.787277">
        <ele>1152.86</ele>
        <time>2015-06-24T08:13:54Z</time>
      </trkpt>
      <trkpt lat="36.914355" lon="-3.787032">
        <ele>1153.213</ele>
        <time>2015-06-24T08:14:18Z</time>
      </trkpt>
      <trkpt lat="36.913116" lon="-3.786871">
        <ele>1157.035</ele>
        <time>2015-06-24T08:14:59Z</time>
      </trkpt>
      <trkpt lat="36.912598" lon="-3.786817">
        <ele>1157.088</ele>
        <time>2015-06-24T08:15:14Z</time>
      </trkpt>
      <trkpt lat="36.911519" lon="-3.786618">
        <ele>1157.422</ele>
        <time>2015-06-24T08:15:47Z</time>
      </trkpt>
      <trkpt lat="36.91118" lon="-3.786386">
        <ele>1159.633</ele>
        <time>2015-06-24T08:16:03Z</time>
      </trkpt>
      <trkpt lat="36.911003" lon="-3.786293">
        <ele>1160.461</ele>
        <time>2015-06-24T08:16:14Z</time>
      </trkpt>
      <trkpt lat="36.910747" lon="-3.786002">
        <ele>1164.237</ele>
        <time>2015-06-24T08:16:31Z</time>
      </trkpt>
      <trkpt lat="36.910441" lon="-3.785844">
        <ele>1166.408</ele>
        <time>2015-06-24T08:16:50Z</time>
      </trkpt>
      <trkpt lat="36.910244" lon="-3.785817">
        <ele>1168.081</ele>
        <time>2015-06-24T08:17:03Z</time>
      </trkpt>
      <trkpt lat="36.909406" lon="-3.785518">
        <ele>1176.873</ele>
        <time>2015-06-24T08:18:00Z</time>
      </trkpt>
      <trkpt lat="36.909338" lon="-3.785378">
        <ele>1177.222</ele>
        <time>2015-06-24T08:18:12Z</time>
      </trkpt>
      <trkpt lat="36.90925" lon="-3.785113">
        <ele>1180.653</ele>
        <time>2015-06-24T08:18:29Z</time>
      </trkpt>
      <trkpt lat="36.909023" lon="-3.784869">
        <ele>1182.654</ele>
        <time>2015-06-24T08:19:21Z</time>
      </trkpt>
      <trkpt lat="36.908824" lon="-3.784231">
        <ele>1187.248</ele>
        <time>2015-06-24T08:19:53Z</time>
      </trkpt>
      <trkpt lat="36.908706" lon="-3.784012">
        <ele>1189.276</ele>
        <time>2015-06-24T08:20:05Z</time>
      </trkpt>
      <trkpt lat="36.908571" lon="-3.783895">
        <ele>1189.208</ele>
        <time>2015-06-24T08:20:14Z</time>
      </trkpt>
      <trkpt lat="36.908108" lon="-3.783752">
        <ele>1191.462</ele>
        <time>2015-06-24T08:20:34Z</time>
      </trkpt>
      <trkpt lat="36.907484" lon="-3.783601">
        <ele>1195.433</ele>
        <time>2015-06-24T08:21:00Z</time>
      </trkpt>
      <trkpt lat="36.907366" lon="-3.783522">
        <ele>1195.498</ele>
        <time>2015-06-24T08:22:22Z</time>
      </trkpt>
      <trkpt lat="36.907171" lon="-3.783134">
        <ele>1195.464</ele>
        <time>2015-06-24T08:22:39Z</time>
      </trkpt>
      <trkpt lat="36.906846" lon="-3.782876">
        <ele>1197.676</ele>
        <time>2015-06-24T08:22:57Z</time>
      </trkpt>
      <trkpt lat="36.906443" lon="-3.782635">
        <ele>1202.226</ele>
        <time>2015-06-24T08:23:22Z</time>
      </trkpt>
      <trkpt lat="36.905887" lon="-3.782165">
        <ele>1206.408</ele>
        <time>2015-06-24T08:23:54Z</time>
      </trkpt>
      <trkpt lat="36.905462" lon="-3.78167">
        <ele>1210.867</ele>
        <time>2015-06-24T08:24:24Z</time>
      </trkpt>
      <trkpt lat="36.905064" lon="-3.781065">
        <ele>1214.835</ele>
        <time>2015-06-24T08:24:53Z</time>
      </trkpt>
      <trkpt lat="36.904703" lon="-3.780811">
        <ele>1216.828</ele>
        <time>2015-06-24T08:25:12Z</time>
      </trkpt>
      <trkpt lat="36.903911" lon="-3.780395">
        <ele>1223.046</ele>
        <time>2015-06-24T08:25:57Z</time>
      </trkpt>
      <trkpt lat="36.903386" lon="-3.779573">
        <ele>1227.282</ele>
        <time>2015-06-24T08:26:29Z</time>
      </trkpt>
      <trkpt lat="36.903035" lon="-3.779025">
        <ele>1228.491</ele>
        <time>2015-06-24T08:26:47Z</time>
      </trkpt>
      <trkpt lat="36.902926" lon="-3.77881">
        <ele>1229.288</ele>
        <time>2015-06-24T08:26:53Z</time>
      </trkpt>
      <trkpt lat="36.902771" lon="-3.778081">
        <ele>1230.008</ele>
        <time>2015-06-24T08:27:11Z</time>
      </trkpt>
      <trkpt lat="36.902771" lon="-3.77787">
        <ele>1231.479</ele>
        <time>2015-06-24T08:27:16Z</time>
      </trkpt>
      <trkpt lat="36.902873" lon="-3.777428">
        <ele>1231.436</ele>
        <time>2015-06-24T08:27:26Z</time>
      </trkpt>
      <trkpt lat="36.902741" lon="-3.776891">
        <ele>1232.653</ele>
        <time>2015-06-24T08:27:41Z</time>
      </trkpt>
      <trkpt lat="36.902568" lon="-3.77633">
        <ele>1235.048</ele>
        <time>2015-06-24T08:27:59Z</time>
      </trkpt>
      <trkpt lat="36.902544" lon="-3.77619">
        <ele>1235.408</ele>
        <time>2015-06-24T08:28:03Z</time>
      </trkpt>
      <trkpt lat="36.902833" lon="-3.775659">
        <ele>1235.498</ele>
        <time>2015-06-24T08:28:19Z</time>
      </trkpt>
      <trkpt lat="36.902981" lon="-3.77476">
        <ele>1237.487</ele>
        <time>2015-06-24T08:28:42Z</time>
      </trkpt>
      <trkpt lat="36.902965" lon="-3.774497">
        <ele>1237.432</ele>
        <time>2015-06-24T08:28:48Z</time>
      </trkpt>
      <trkpt lat="36.90284" lon="-3.774146">
        <ele>1237.48</ele>
        <time>2015-06-24T08:28:56Z</time>
      </trkpt>
      <trkpt lat="36.902169" lon="-3.773395">
        <ele>1237.414</ele>
        <time>2015-06-24T08:29:15Z</time>
      </trkpt>
      <trkpt lat="36.901216" lon="-3.772643">
        <ele>1237.437</ele>
        <time>2015-06-24T08:29:34Z</time>
      </trkpt>
      <trkpt lat="36.900362" lon="-3.771732">
        <ele>1233.288</ele>
        <time>2015-06-24T08:29:50Z</time>
      </trkpt>
      <trkpt lat="36.899937" lon="-3.771155">
        <ele>1230.625</ele>
        <time>2015-06-24T08:30:00Z</time>
      </trkpt>
      <trkpt lat="36.899817" lon="-3.771119">
        <ele>1228.808</ele>
        <time>2015-06-24T08:30:03Z</time>
      </trkpt>
      <trkpt lat="36.899696" lon="-3.771222">
        <ele>1227.678</ele>
        <time>2015-06-24T08:30:06Z</time>
      </trkpt>
      <trkpt lat="36.8996" lon="-3.771518">
        <ele>1226.873</ele>
        <time>2015-06-24T08:30:11Z</time>
      </trkpt>
      <trkpt lat="36.899572" lon="-3.77169">
        <ele>1226.819</ele>
        <time>2015-06-24T08:30:14Z</time>
      </trkpt>
      <trkpt lat="36.899253" lon="-3.772264">
        <ele>1225.613</ele>
        <time>2015-06-24T08:30:24Z</time>
      </trkpt>
      <trkpt lat="36.899139" lon="-3.772313">
        <ele>1224.638</ele>
        <time>2015-06-24T08:30:26Z</time>
      </trkpt>
      <trkpt lat="36.898814" lon="-3.772227">
        <ele>1222.439</ele>
        <time>2015-06-24T08:30:31Z</time>
      </trkpt>
      <trkpt lat="36.898285" lon="-3.772399">
        <ele>1220.643</ele>
        <time>2015-06-24T08:30:38Z</time>
      </trkpt>
      <trkpt lat="36.897888" lon="-3.772276">
        <ele>1220.043</ele>
        <time>2015-06-24T08:30:49Z</time>
      </trkpt>
      <trkpt lat="36.897532" lon="-3.772506">
        <ele>1220.008</ele>
        <time>2015-06-24T08:31:03Z</time>
      </trkpt>
      <trkpt lat="36.897461" lon="-3.772603">
        <ele>1222.035</ele>
        <time>2015-06-24T08:31:08Z</time>
      </trkpt>
      <trkpt lat="36.897469" lon="-3.772852">
        <ele>1224.223</ele>
        <time>2015-06-24T08:31:18Z</time>
      </trkpt>
      <trkpt lat="36.897543" lon="-3.773195">
        <ele>1226.28</ele>
        <time>2015-06-24T08:31:34Z</time>
      </trkpt>
      <trkpt lat="36.897476" lon="-3.773493">
        <ele>1228.411</ele>
        <time>2015-06-24T08:31:47Z</time>
      </trkpt>
      <trkpt lat="36.897272" lon="-3.773937">
        <ele>1231.675</ele>
        <time>2015-06-24T08:32:10Z</time>
      </trkpt>
      <trkpt lat="36.897082" lon="-3.774118">
        <ele>1232.453</ele>
        <time>2015-06-24T08:32:21Z</time>
      </trkpt>
      <trkpt lat="36.896738" lon="-3.774295">
        <ele>1236.452</ele>
        <time>2015-06-24T08:32:41Z</time>
      </trkpt>
      <trkpt lat="36.89672" lon="-3.774393">
        <ele>1236.487</ele>
        <time>2015-06-24T08:32:46Z</time>
      </trkpt>
      <trkpt lat="36.896808" lon="-3.774523">
        <ele>1236.445</ele>
        <time>2015-06-24T08:32:52Z</time>
      </trkpt>
      <trkpt lat="36.897146" lon="-3.774855">
        <ele>1236.4</ele>
        <time>2015-06-24T08:33:09Z</time>
      </trkpt>
      <trkpt lat="36.897419" lon="-3.775026">
        <ele>1238.068</ele>
        <time>2015-06-24T08:33:18Z</time>
      </trkpt>
      <trkpt lat="36.897491" lon="-3.775033">
        <ele>1238.496</ele>
        <time>2015-06-24T08:33:20Z</time>
      </trkpt>
      <trkpt lat="36.89782" lon="-3.774877">
        <ele>1238.413</ele>
        <time>2015-06-24T08:33:30Z</time>
      </trkpt>
      <trkpt lat="36.897971" lon="-3.774921">
        <ele>1238.439</ele>
        <time>2015-06-24T08:33:34Z</time>
      </trkpt>
      <trkpt lat="36.898037" lon="-3.775061">
        <ele>1238.47</ele>
        <time>2015-06-24T08:33:38Z</time>
      </trkpt>
      <trkpt lat="36.89793" lon="-3.775353">
        <ele>1238.429</ele>
        <time>2015-06-24T08:33:46Z</time>
      </trkpt>
      <trkpt lat="36.89789" lon="-3.775546">
        <ele>1240.644</ele>
        <time>2015-06-24T08:33:51Z</time>
      </trkpt>
      <trkpt lat="36.898029" lon="-3.775817">
        <ele>1240.698</ele>
        <time>2015-06-24T08:33:58Z</time>
      </trkpt>
      <trkpt lat="36.898411" lon="-3.776413">
        <ele>1242.643</ele>
        <time>2015-06-24T08:34:15Z</time>
      </trkpt>
      <trkpt lat="36.898841" lon="-3.776826">
        <ele>1242.688</ele>
        <time>2015-06-24T08:34:29Z</time>
      </trkpt>
      <trkpt lat="36.898941" lon="-3.777079">
        <ele>1242.608</ele>
        <time>2015-06-24T08:34:35Z</time>
      </trkpt>
      <trkpt lat="36.898943" lon="-3.777281">
        <ele>1242.655</ele>
        <time>2015-06-24T08:34:40Z</time>
      </trkpt>
      <trkpt lat="36.898874" lon="-3.777456">
        <ele>1242.68</ele>
        <time>2015-06-24T08:34:46Z</time>
      </trkpt>
      <trkpt lat="36.898734" lon="-3.777571">
        <ele>1242.648</ele>
        <time>2015-06-24T08:34:51Z</time>
      </trkpt>
      <trkpt lat="36.898475" lon="-3.777618">
        <ele>1244.838</ele>
        <time>2015-06-24T08:35:00Z</time>
      </trkpt>
      <trkpt lat="36.897303" lon="-3.777379">
        <ele>1253.005</ele>
        <time>2015-06-24T08:35:54Z</time>
      </trkpt>
      <trkpt lat="36.897054" lon="-3.77712">
        <ele>1254.855</ele>
        <time>2015-06-24T08:36:09Z</time>
      </trkpt>
      <trkpt lat="36.89686" lon="-3.776866">
        <ele>1257.224</ele>
        <time>2015-06-24T08:36:25Z</time>
      </trkpt>
      <trkpt lat="36.896738" lon="-3.776823">
        <ele>1257.612</ele>
        <time>2015-06-24T08:36:32Z</time>
      </trkpt>
      <trkpt lat="36.896619" lon="-3.776906">
        <ele>1257.619</ele>
        <time>2015-06-24T08:36:39Z</time>
      </trkpt>
      <trkpt lat="36.896537" lon="-3.777107">
        <ele>1259.859</ele>
        <time>2015-06-24T08:36:47Z</time>
      </trkpt>
      <trkpt lat="36.896414" lon="-3.777918">
        <ele>1261.831</ele>
        <time>2015-06-24T08:37:08Z</time>
      </trkpt>
      <trkpt lat="36.896354" lon="-3.778085">
        <ele>1261.861</ele>
        <time>2015-06-24T08:37:13Z</time>
      </trkpt>
      <trkpt lat="36.896227" lon="-3.778278">
        <ele>1261.808</ele>
        <time>2015-06-24T08:37:19Z</time>
      </trkpt>
      <trkpt lat="36.896164" lon="-3.778442">
        <ele>1261.814</ele>
        <time>2015-06-24T08:37:22Z</time>
      </trkpt>
      <trkpt lat="36.896025" lon="-3.778546">
        <ele>1261.869</ele>
        <time>2015-06-24T08:37:25Z</time>
      </trkpt>
      <trkpt lat="36.895688" lon="-3.778612">
        <ele>1258.259</ele>
        <time>2015-06-24T08:37:33Z</time>
      </trkpt>
      <trkpt lat="36.895709" lon="-3.778736">
        <ele>1259.869</ele>
        <time>2015-06-24T08:37:41Z</time>
      </trkpt>
      <trkpt lat="36.895671" lon="-3.779165">
        <ele>1259.822</ele>
        <time>2015-06-24T08:37:56Z</time>
      </trkpt>
      <trkpt lat="36.895543" lon="-3.779285">
        <ele>1259.862</ele>
        <time>2015-06-24T08:38:01Z</time>
      </trkpt>
      <trkpt lat="36.895316" lon="-3.779337">
        <ele>1259.808</ele>
        <time>2015-06-24T08:38:09Z</time>
      </trkpt>
      <trkpt lat="36.894853" lon="-3.779169">
        <ele>1262.803</ele>
        <time>2015-06-24T08:38:35Z</time>
      </trkpt>
      <trkpt lat="36.894517" lon="-3.779033">
        <ele>1265.868</ele>
        <time>2015-06-24T08:38:55Z</time>
      </trkpt>
      <trkpt lat="36.894348" lon="-3.77898">
        <ele>1267.208</ele>
        <time>2015-06-24T08:39:07Z</time>
      </trkpt>
      <trkpt lat="36.894133" lon="-3.778912">
        <ele>1270.423</ele>
        <time>2015-06-24T08:39:27Z</time>
      </trkpt>
      <trkpt lat="36.894032" lon="-3.778835">
        <ele>1272.035</ele>
        <time>2015-06-24T08:39:35Z</time>
      </trkpt>
      <trkpt lat="36.893891" lon="-3.778794">
        <ele>1273.616</ele>
        <time>2015-06-24T08:39:44Z</time>
      </trkpt>
      <trkpt lat="36.893649" lon="-3.778722">
        <ele>1276.693</ele>
        <time>2015-06-24T08:40:01Z</time>
      </trkpt>
      <trkpt lat="36.89344" lon="-3.778667">
        <ele>1280.853</ele>
        <time>2015-06-24T08:40:18Z</time>
      </trkpt>
      <trkpt lat="36.893253" lon="-3.778657">
        <ele>1282.064</ele>
        <time>2015-06-24T08:40:29Z</time>
      </trkpt>
      <trkpt lat="36.893145" lon="-3.778629">
        <ele>1282.808</ele>
        <time>2015-06-24T08:40:37Z</time>
      </trkpt>
      <trkpt lat="36.893042" lon="-3.778661">
        <ele>1285.03</ele>
        <time>2015-06-24T08:40:43Z</time>
      </trkpt>
      <trkpt lat="36.89274" lon="-3.778623">
        <ele>1287.016</ele>
        <time>2015-06-24T08:40:56Z</time>
      </trkpt>
      <trkpt lat="36.892533" lon="-3.778488">
        <ele>1287.047</ele>
        <time>2015-06-24T08:41:03Z</time>
      </trkpt>
      <trkpt lat="36.891983" lon="-3.778415">
        <ele>1286.243</ele>
        <time>2015-06-24T08:41:14Z</time>
      </trkpt>
      <trkpt lat="36.891641" lon="-3.778545">
        <ele>1284.821</ele>
        <time>2015-06-24T08:41:19Z</time>
      </trkpt>
      <trkpt lat="36.891337" lon="-3.778458">
        <ele>1282.862</ele>
        <time>2015-06-24T08:41:24Z</time>
      </trkpt>
      <trkpt lat="36.890879" lon="-3.778105">
        <ele>1282.827</ele>
        <time>2015-06-24T08:41:33Z</time>
      </trkpt>
      <trkpt lat="36.890608" lon="-3.777968">
        <ele>1282.859</ele>
        <time>2015-06-24T08:41:40Z</time>
      </trkpt>
      <trkpt lat="36.890196" lon="-3.777651">
        <ele>1282.829</ele>
        <time>2015-06-24T08:41:58Z</time>
      </trkpt>
      <trkpt lat="36.890075" lon="-3.77751">
        <ele>1286.076</ele>
        <time>2015-06-24T08:42:04Z</time>
      </trkpt>
      <trkpt lat="36.890022" lon="-3.777377">
        <ele>1286.09</ele>
        <time>2015-06-24T08:42:09Z</time>
      </trkpt>
      <trkpt lat="36.890012" lon="-3.777221">
        <ele>1286.019</ele>
        <time>2015-06-24T08:42:14Z</time>
      </trkpt>
      <trkpt lat="36.889882" lon="-3.776983">
        <ele>1288.041</ele>
        <time>2015-06-24T08:42:23Z</time>
      </trkpt>
      <trkpt lat="36.889665" lon="-3.776807">
        <ele>1290.283</ele>
        <time>2015-06-24T08:42:34Z</time>
      </trkpt>
      <trkpt lat="36.88952" lon="-3.776772">
        <ele>1290.211</ele>
        <time>2015-06-24T08:42:39Z</time>
      </trkpt>
      <trkpt lat="36.889366" lon="-3.776584">
        <ele>1291.482</ele>
        <time>2015-06-24T08:42:47Z</time>
      </trkpt>
      <trkpt lat="36.889193" lon="-3.776301">
        <ele>1292.283</ele>
        <time>2015-06-24T08:42:55Z</time>
      </trkpt>
      <trkpt lat="36.88902" lon="-3.776107">
        <ele>1292.206</ele>
        <time>2015-06-24T08:43:01Z</time>
      </trkpt>
      <trkpt lat="36.888776" lon="-3.775944">
        <ele>1292.237</ele>
        <time>2015-06-24T08:43:07Z</time>
      </trkpt>
      <trkpt lat="36.888645" lon="-3.775716">
        <ele>1291.41</ele>
        <time>2015-06-24T08:43:11Z</time>
      </trkpt>
      <trkpt lat="36.888542" lon="-3.77489">
        <ele>1288.208</ele>
        <time>2015-06-24T08:43:54Z</time>
      </trkpt>
      <trkpt lat="36.8886" lon="-3.774524">
        <ele>1288.257</ele>
        <time>2015-06-24T08:44:07Z</time>
      </trkpt>
      <trkpt lat="36.888533" lon="-3.774357">
        <ele>1288.274</ele>
        <time>2015-06-24T08:44:11Z</time>
      </trkpt>
      <trkpt lat="36.888213" lon="-3.773999">
        <ele>1286.446</ele>
        <time>2015-06-24T08:44:20Z</time>
      </trkpt>
      <trkpt lat="36.888093" lon="-3.773736">
        <ele>1286.041</ele>
        <time>2015-06-24T08:44:25Z</time>
      </trkpt>
      <trkpt lat="36.888091" lon="-3.773178">
        <ele>1286.022</ele>
        <time>2015-06-24T08:44:35Z</time>
      </trkpt>
      <trkpt lat="36.88817" lon="-3.772814">
        <ele>1286.027</ele>
        <time>2015-06-24T08:44:44Z</time>
      </trkpt>
      <trkpt lat="36.888046" lon="-3.77236">
        <ele>1286.063</ele>
        <time>2015-06-24T08:44:56Z</time>
      </trkpt>
      <trkpt lat="36.887997" lon="-3.772212">
        <ele>1286.026</ele>
        <time>2015-06-24T08:45:00Z</time>
      </trkpt>
      <trkpt lat="36.888047" lon="-3.7718">
        <ele>1286.054</ele>
        <time>2015-06-24T08:45:08Z</time>
      </trkpt>
      <trkpt lat="36.888033" lon="-3.771583">
        <ele>1286.056</ele>
        <time>2015-06-24T08:45:12Z</time>
      </trkpt>
      <trkpt lat="36.887784" lon="-3.77075">
        <ele>1288.282</ele>
        <time>2015-06-24T08:45:36Z</time>
      </trkpt>
      <trkpt lat="36.887376" lon="-3.770016">
        <ele>1292.466</ele>
        <time>2015-06-24T08:46:01Z</time>
      </trkpt>
      <trkpt lat="36.887268" lon="-3.769924">
        <ele>1292.482</ele>
        <time>2015-06-24T08:46:06Z</time>
      </trkpt>
      <trkpt lat="36.886794" lon="-3.76976">
        <ele>1293.208</ele>
        <time>2015-06-24T08:46:20Z</time>
      </trkpt>
      <trkpt lat="36.886339" lon="-3.76907">
        <ele>1296.608</ele>
        <time>2015-06-24T08:46:53Z</time>
      </trkpt>
      <trkpt lat="36.886226" lon="-3.769016">
        <ele>1298.615</ele>
        <time>2015-06-24T08:46:59Z</time>
      </trkpt>
      <trkpt lat="36.886158" lon="-3.768961">
        <ele>1298.622</ele>
        <time>2015-06-24T08:47:07Z</time>
      </trkpt>
      <trkpt lat="36.886091" lon="-3.769019">
        <ele>1298.648</ele>
        <time>2015-06-24T08:47:12Z</time>
      </trkpt>
      <trkpt lat="36.885948" lon="-3.768973">
        <ele>1298.608</ele>
        <time>2015-06-24T08:47:21Z</time>
      </trkpt>
      <trkpt lat="36.885982" lon="-3.768928">
        <ele>1298.645</ele>
        <time>2015-06-24T08:47:24Z</time>
      </trkpt>
      <trkpt lat="36.886169" lon="-3.768925">
        <ele>1298.61</ele>
        <time>2015-06-24T08:47:31Z</time>
      </trkpt>
      <trkpt lat="36.886223" lon="-3.768945">
        <ele>1298.645</ele>
        <time>2015-06-24T08:47:44Z</time>
      </trkpt>
      <trkpt lat="36.886217" lon="-3.768973">
        <ele>1298.691</ele>
        <time>2015-06-24T08:47:48Z</time>
      </trkpt>
      <trkpt lat="36.886096" lon="-3.76889">
        <ele>1298.614</ele>
        <time>2015-06-24T08:47:54Z</time>
      </trkpt>
      <trkpt lat="36.88594" lon="-3.76881">
        <ele>1298.608</ele>
        <time>2015-06-24T08:48:01Z</time>
      </trkpt>
      <trkpt lat="36.885691" lon="-3.76855">
        <ele>1298.671</ele>
        <time>2015-06-24T08:48:10Z</time>
      </trkpt>
      <trkpt lat="36.88524" lon="-3.767871">
        <ele>1298.679</ele>
        <time>2015-06-24T08:48:21Z</time>
      </trkpt>
      <trkpt lat="36.885192" lon="-3.767715">
        <ele>1297.876</ele>
        <time>2015-06-24T08:48:23Z</time>
      </trkpt>
      <trkpt lat="36.885232" lon="-3.767297">
        <ele>1296.408</ele>
        <time>2015-06-24T08:48:28Z</time>
      </trkpt>
      <trkpt lat="36.885204" lon="-3.76651">
        <ele>1295.271</ele>
        <time>2015-06-24T08:48:38Z</time>
      </trkpt>
      <trkpt lat="36.885168" lon="-3.766144">
        <ele>1294.452</ele>
        <time>2015-06-24T08:48:43Z</time>
      </trkpt>
      <trkpt lat="36.885282" lon="-3.765698">
        <ele>1294.008</ele>
        <time>2015-06-24T08:48:49Z</time>
      </trkpt>
      <trkpt lat="36.885269" lon="-3.764796">
        <ele>1291.282</ele>
        <time>2015-06-24T08:48:59Z</time>
      </trkpt>
      <trkpt lat="36.885209" lon="-3.764632">
        <ele>1290.449</ele>
        <time>2015-06-24T08:49:01Z</time>
      </trkpt>
      <trkpt lat="36.884939" lon="-3.764306">
        <ele>1289.095</ele>
        <time>2015-06-24T08:49:06Z</time>
      </trkpt>
      <trkpt lat="36.884528" lon="-3.763789">
        <ele>1286.836</ele>
        <time>2015-06-24T08:49:14Z</time>
      </trkpt>
      <trkpt lat="36.88436" lon="-3.763542">
        <ele>1286.008</ele>
        <time>2015-06-24T08:49:21Z</time>
      </trkpt>
      <trkpt lat="36.883929" lon="-3.76316">
        <ele>1286.034</ele>
        <time>2015-06-24T08:49:40Z</time>
      </trkpt>
      <trkpt lat="36.883528" lon="-3.762995">
        <ele>1288.078</ele>
        <time>2015-06-24T08:49:54Z</time>
      </trkpt>
      <trkpt lat="36.8833" lon="-3.762821">
        <ele>1289.441</ele>
        <time>2015-06-24T08:50:04Z</time>
      </trkpt>
      <trkpt lat="36.882868" lon="-3.762221">
        <ele>1292.49</ele>
        <time>2015-06-24T08:50:31Z</time>
      </trkpt>
      <trkpt lat="36.882622" lon="-3.761754">
        <ele>1294.408</ele>
        <time>2015-06-24T08:50:45Z</time>
      </trkpt>
      <trkpt lat="36.882534" lon="-3.761429">
        <ele>1294.899</ele>
        <time>2015-06-24T08:50:57Z</time>
      </trkpt>
      <trkpt lat="36.882392" lon="-3.760908">
        <ele>1298.636</ele>
        <time>2015-06-24T08:51:17Z</time>
      </trkpt>
      <trkpt lat="36.882235" lon="-3.760561">
        <ele>1298.659</ele>
        <time>2015-06-24T08:51:30Z</time>
      </trkpt>
      <trkpt lat="36.881937" lon="-3.75953">
        <ele>1298.608</ele>
        <time>2015-06-24T08:51:54Z</time>
      </trkpt>
      <trkpt lat="36.881646" lon="-3.758258">
        <ele>1298.624</ele>
        <time>2015-06-24T08:52:18Z</time>
      </trkpt>
      <trkpt lat="36.881637" lon="-3.75779">
        <ele>1298.633</ele>
        <time>2015-06-24T08:52:28Z</time>
      </trkpt>
      <trkpt lat="36.88184" lon="-3.756947">
        <ele>1298.636</ele>
        <time>2015-06-24T08:52:45Z</time>
      </trkpt>
      <trkpt lat="36.881795" lon="-3.756208">
        <ele>1298.655</ele>
        <time>2015-06-24T08:52:59Z</time>
      </trkpt>
      <trkpt lat="36.881812" lon="-3.755891">
        <ele>1298.61</ele>
        <time>2015-06-24T08:53:05Z</time>
      </trkpt>
      <trkpt lat="36.881875" lon="-3.755606">
        <ele>1298.624</ele>
        <time>2015-06-24T08:53:11Z</time>
      </trkpt>
      <trkpt lat="36.882245" lon="-3.755276">
        <ele>1298.697</ele>
        <time>2015-06-24T08:53:20Z</time>
      </trkpt>
      <trkpt lat="36.882287" lon="-3.755145">
        <ele>1298.614</ele>
        <time>2015-06-24T08:53:22Z</time>
      </trkpt>
      <trkpt lat="36.882274" lon="-3.754985">
        <ele>1298.67</ele>
        <time>2015-06-24T08:53:24Z</time>
      </trkpt>
      <trkpt lat="36.882159" lon="-3.754594">
        <ele>1296.208</ele>
        <time>2015-06-24T08:53:29Z</time>
      </trkpt>
      <trkpt lat="36.88168" lon="-3.752872">
        <ele>1289.442</ele>
        <time>2015-06-24T08:53:47Z</time>
      </trkpt>
      <trkpt lat="36.881436" lon="-3.752286">
        <ele>1286.898</ele>
        <time>2015-06-24T08:53:54Z</time>
      </trkpt>
      <trkpt lat="36.881161" lon="-3.751846">
        <ele>1285.223</ele>
        <time>2015-06-24T08:54:01Z</time>
      </trkpt>
      <trkpt lat="36.881046" lon="-3.751472">
        <ele>1284.251</ele>
        <time>2015-06-24T08:54:06Z</time>
      </trkpt>
      <trkpt lat="36.880735" lon="-3.75011">
        <ele>1278.473</ele>
        <time>2015-06-24T08:54:20Z</time>
      </trkpt>
      <trkpt lat="36.880413" lon="-3.749505">
        <ele>1275.433</ele>
        <time>2015-06-24T08:54:27Z</time>
      </trkpt>
      <trkpt lat="36.879631" lon="-3.748222">
        <ele>1269.414</ele>
        <time>2015-06-24T08:54:41Z</time>
      </trkpt>
      <trkpt lat="36.87954" lon="-3.748085">
        <ele>1268.274</ele>
        <time>2015-06-24T08:54:43Z</time>
      </trkpt>
      <trkpt lat="36.87934" lon="-3.748045">
        <ele>1265.213</ele>
        <time>2015-06-24T08:54:46Z</time>
      </trkpt>
      <trkpt lat="36.879034" lon="-3.747979">
        <ele>1263.492</ele>
        <time>2015-06-24T08:54:50Z</time>
      </trkpt>
      <trkpt lat="36.878813" lon="-3.747852">
        <ele>1261.823</ele>
        <time>2015-06-24T08:54:53Z</time>
      </trkpt>
      <trkpt lat="36.878717" lon="-3.747606">
        <ele>1260.256</ele>
        <time>2015-06-24T08:54:56Z</time>
      </trkpt>
      <trkpt lat="36.878677" lon="-3.746551">
        <ele>1253.222</ele>
        <time>2015-06-24T08:55:05Z</time>
      </trkpt>
      <trkpt lat="36.878772" lon="-3.746063">
        <ele>1247.816</ele>
        <time>2015-06-24T08:55:10Z</time>
      </trkpt>
      <trkpt lat="36.878679" lon="-3.745191">
        <ele>1241.495</ele>
        <time>2015-06-24T08:55:18Z</time>
      </trkpt>
      <trkpt lat="36.878612" lon="-3.744515">
        <ele>1238.208</ele>
        <time>2015-06-24T08:55:23Z</time>
      </trkpt>
      <trkpt lat="36.878608" lon="-3.743874">
        <ele>1234.682</ele>
        <time>2015-06-24T08:55:29Z</time>
      </trkpt>
      <trkpt lat="36.878641" lon="-3.743461">
        <ele>1233.44</ele>
        <time>2015-06-24T08:55:44Z</time>
      </trkpt>
      <trkpt lat="36.878588" lon="-3.743296">
        <ele>1235.631</ele>
        <time>2015-06-24T08:55:51Z</time>
      </trkpt>
      <trkpt lat="36.878301" lon="-3.742874">
        <ele>1235.614</ele>
        <time>2015-06-24T08:56:06Z</time>
      </trkpt>
      <trkpt lat="36.878003" lon="-3.742615">
        <ele>1235.629</ele>
        <time>2015-06-24T08:56:21Z</time>
      </trkpt>
      <trkpt lat="36.877702" lon="-3.742174">
        <ele>1237.663</ele>
        <time>2015-06-24T08:56:42Z</time>
      </trkpt>
      <trkpt lat="36.877635" lon="-3.74196">
        <ele>1237.644</ele>
        <time>2015-06-24T08:56:48Z</time>
      </trkpt>
      <trkpt lat="36.877611" lon="-3.7413">
        <ele>1239.613</ele>
        <time>2015-06-24T08:57:03Z</time>
      </trkpt>
      <trkpt lat="36.877584" lon="-3.741142">
        <ele>1239.653</ele>
        <time>2015-06-24T08:57:07Z</time>
      </trkpt>
      <trkpt lat="36.877511" lon="-3.740971">
        <ele>1239.612</ele>
        <time>2015-06-24T08:57:14Z</time>
      </trkpt>
      <trkpt lat="36.877494" lon="-3.740706">
        <ele>1241.837</ele>
        <time>2015-06-24T08:57:24Z</time>
      </trkpt>
      <trkpt lat="36.877618" lon="-3.740034">
        <ele>1246.212</ele>
        <time>2015-06-24T08:57:55Z</time>
      </trkpt>
      <trkpt lat="36.877845" lon="-3.739524">
        <ele>1252.617</ele>
        <time>2015-06-24T08:58:29Z</time>
      </trkpt>
      <trkpt lat="36.877876" lon="-3.739174">
        <ele>1254.615</ele>
        <time>2015-06-24T08:58:49Z</time>
      </trkpt>
      <trkpt lat="36.877783" lon="-3.73876">
        <ele>1255.034</ele>
        <time>2015-06-24T08:59:03Z</time>
      </trkpt>
      <trkpt lat="36.877762" lon="-3.738595">
        <ele>1256.89</ele>
        <time>2015-06-24T08:59:08Z</time>
      </trkpt>
      <trkpt lat="36.877566" lon="-3.73793">
        <ele>1256.804</ele>
        <time>2015-06-24T08:59:27Z</time>
      </trkpt>
      <trkpt lat="36.87753" lon="-3.737623">
        <ele>1256.808</ele>
        <time>2015-06-24T08:59:38Z</time>
      </trkpt>
      <trkpt lat="36.877371" lon="-3.737167">
        <ele>1258.866</ele>
        <time>2015-06-24T08:59:51Z</time>
      </trkpt>
      <trkpt lat="36.87725" lon="-3.736958">
        <ele>1258.832</ele>
        <time>2015-06-24T08:59:58Z</time>
      </trkpt>
      <trkpt lat="36.87713" lon="-3.736602">
        <ele>1258.808</ele>
        <time>2015-06-24T09:00:11Z</time>
      </trkpt>
      <trkpt lat="36.877055" lon="-3.736453">
        <ele>1258.808</ele>
        <time>2015-06-24T09:00:17Z</time>
      </trkpt>
      <trkpt lat="36.877026" lon="-3.736253">
        <ele>1258.896</ele>
        <time>2015-06-24T09:00:23Z</time>
      </trkpt>
      <trkpt lat="36.877144" lon="-3.735827">
        <ele>1259.619</ele>
        <time>2015-06-24T09:00:34Z</time>
      </trkpt>
      <trkpt lat="36.87721" lon="-3.735682">
        <ele>1261.012</ele>
        <time>2015-06-24T09:00:38Z</time>
      </trkpt>
      <trkpt lat="36.877372" lon="-3.735052">
        <ele>1261.008</ele>
        <time>2015-06-24T09:00:52Z</time>
      </trkpt>
      <trkpt lat="36.877339" lon="-3.734598">
        <ele>1261.097</ele>
        <time>2015-06-24T09:01:01Z</time>
      </trkpt>
      <trkpt lat="36.877253" lon="-3.734036">
        <ele>1261.088</ele>
        <time>2015-06-24T09:01:14Z</time>
      </trkpt>
      <trkpt lat="36.877301" lon="-3.733756">
        <ele>1261.028</ele>
        <time>2015-06-24T09:01:20Z</time>
      </trkpt>
      <trkpt lat="36.877539" lon="-3.733245">
        <ele>1263.047</ele>
        <time>2015-06-24T09:01:38Z</time>
      </trkpt>
      <trkpt lat="36.878231" lon="-3.732005">
        <ele>1271.611</ele>
        <time>2015-06-24T09:02:27Z</time>
      </trkpt>
      <trkpt lat="36.878434" lon="-3.731436">
        <ele>1273.608</ele>
        <time>2015-06-24T09:02:46Z</time>
      </trkpt>
      <trkpt lat="36.878614" lon="-3.730842">
        <ele>1278.008</ele>
        <time>2015-06-24T09:03:07Z</time>
      </trkpt>
      <trkpt lat="36.878928" lon="-3.730147">
        <ele>1281.218</ele>
        <time>2015-06-24T09:03:33Z</time>
      </trkpt>
      <trkpt lat="36.879532" lon="-3.728893">
        <ele>1284.22</ele>
        <time>2015-06-24T09:04:14Z</time>
      </trkpt>
      <trkpt lat="36.879478" lon="-3.728642">
        <ele>1284.278</ele>
        <time>2015-06-24T09:04:20Z</time>
      </trkpt>
      <trkpt lat="36.879387" lon="-3.728538">
        <ele>1284.268</ele>
        <time>2015-06-24T09:04:24Z</time>
      </trkpt>
      <trkpt lat="36.879342" lon="-3.728396">
        <ele>1284.266</ele>
        <time>2015-06-24T09:04:29Z</time>
      </trkpt>
      <trkpt lat="36.879511" lon="-3.727655">
        <ele>1289.622</ele>
        <time>2015-06-24T09:05:06Z</time>
      </trkpt>
      <trkpt lat="36.879544" lon="-3.727425">
        <ele>1292.639</ele>
        <time>2015-06-24T09:05:21Z</time>
      </trkpt>
      <trkpt lat="36.879571" lon="-3.727133">
        <ele>1294.893</ele>
        <time>2015-06-24T09:05:38Z</time>
      </trkpt>
      <trkpt lat="36.879602" lon="-3.726947">
        <ele>1294.844</ele>
        <time>2015-06-24T09:05:49Z</time>
      </trkpt>
      <trkpt lat="36.879603" lon="-3.72679">
        <ele>1294.815</ele>
        <time>2015-06-24T09:05:53Z</time>
      </trkpt>
      <trkpt lat="36.879741" lon="-3.726325">
        <ele>1299.018</ele>
        <time>2015-06-24T09:06:16Z</time>
      </trkpt>
      <trkpt lat="36.879937" lon="-3.725929">
        <ele>1303.208</ele>
        <time>2015-06-24T09:06:45Z</time>
      </trkpt>
      <trkpt lat="36.880144" lon="-3.725244">
        <ele>1310.075</ele>
        <time>2015-06-24T09:11:15Z</time>
      </trkpt>
      <trkpt lat="36.880381" lon="-3.724401">
        <ele>1317.825</ele>
        <time>2015-06-24T09:12:08Z</time>
      </trkpt>
      <trkpt lat="36.880318" lon="-3.724029">
        <ele>1323.212</ele>
        <time>2015-06-24T09:12:38Z</time>
      </trkpt>
      <trkpt lat="36.880433" lon="-3.7238">
        <ele>1326.658</ele>
        <time>2015-06-24T09:12:55Z</time>
      </trkpt>
      <trkpt lat="36.880932" lon="-3.723265">
        <ele>1331.219</ele>
        <time>2015-06-24T09:13:34Z</time>
      </trkpt>
      <trkpt lat="36.881406" lon="-3.722528">
        <ele>1331.28</ele>
        <time>2015-06-24T09:13:57Z</time>
      </trkpt>
      <trkpt lat="36.881454" lon="-3.722302">
        <ele>1331.216</ele>
        <time>2015-06-24T09:14:02Z</time>
      </trkpt>
      <trkpt lat="36.881163" lon="-3.721647">
        <ele>1331.458</ele>
        <time>2015-06-24T09:14:15Z</time>
      </trkpt>
      <trkpt lat="36.88089" lon="-3.721243">
        <ele>1329.215</ele>
        <time>2015-06-24T09:14:21Z</time>
      </trkpt>
      <trkpt lat="36.880669" lon="-3.721126">
        <ele>1328.05</ele>
        <time>2015-06-24T09:14:24Z</time>
      </trkpt>
      <trkpt lat="36.88052" lon="-3.721078">
        <ele>1327.248</ele>
        <time>2015-06-24T09:14:26Z</time>
      </trkpt>
      <trkpt lat="36.880388" lon="-3.720927">
        <ele>1326.241</ele>
        <time>2015-06-24T09:14:29Z</time>
      </trkpt>
      <trkpt lat="36.880304" lon="-3.720346">
        <ele>1322.88</ele>
        <time>2015-06-24T09:14:36Z</time>
      </trkpt>
      <trkpt lat="36.880154" lon="-3.720015">
        <ele>1321.845</ele>
        <time>2015-06-24T09:14:40Z</time>
      </trkpt>
      <trkpt lat="36.879961" lon="-3.719854">
        <ele>1320.696</ele>
        <time>2015-06-24T09:14:43Z</time>
      </trkpt>
      <trkpt lat="36.879729" lon="-3.719875">
        <ele>1319.225</ele>
        <time>2015-06-24T09:14:46Z</time>
      </trkpt>
      <trkpt lat="36.879245" lon="-3.7201">
        <ele>1316.218</ele>
        <time>2015-06-24T09:14:52Z</time>
      </trkpt>
      <trkpt lat="36.878994" lon="-3.720037">
        <ele>1314.489</ele>
        <time>2015-06-24T09:14:55Z</time>
      </trkpt>
      <trkpt lat="36.878709" lon="-3.719779">
        <ele>1312.232</ele>
        <time>2015-06-24T09:14:59Z</time>
      </trkpt>
      <trkpt lat="36.878437" lon="-3.719747">
        <ele>1309.862</ele>
        <time>2015-06-24T09:15:02Z</time>
      </trkpt>
      <trkpt lat="36.877899" lon="-3.719933">
        <ele>1306.032</ele>
        <time>2015-06-24T09:15:08Z</time>
      </trkpt>
      <trkpt lat="36.877734" lon="-3.71991">
        <ele>1304.695</ele>
        <time>2015-06-24T09:15:10Z</time>
      </trkpt>
      <trkpt lat="36.877324" lon="-3.719636">
        <ele>1302.093</ele>
        <time>2015-06-24T09:15:18Z</time>
      </trkpt>
      <trkpt lat="36.877223" lon="-3.71931">
        <ele>1302.046</ele>
        <time>2015-06-24T09:15:23Z</time>
      </trkpt>
      <trkpt lat="36.877572" lon="-3.718556">
        <ele>1299.608</ele>
        <time>2015-06-24T09:15:33Z</time>
      </trkpt>
      <trkpt lat="36.877802" lon="-3.718153">
        <ele>1298.824</ele>
        <time>2015-06-24T09:15:38Z</time>
      </trkpt>
      <trkpt lat="36.87789" lon="-3.717082">
        <ele>1295.208</ele>
        <time>2015-06-24T09:15:48Z</time>
      </trkpt>
      <trkpt lat="36.877833" lon="-3.716922">
        <ele>1294.477</ele>
        <time>2015-06-24T09:15:50Z</time>
      </trkpt>
      <trkpt lat="36.877723" lon="-3.716829">
        <ele>1292.835</ele>
        <time>2015-06-24T09:15:52Z</time>
      </trkpt>
      <trkpt lat="36.877437" lon="-3.716814">
        <ele>1291.058</ele>
        <time>2015-06-24T09:15:56Z</time>
      </trkpt>
      <trkpt lat="36.876918" lon="-3.71687">
        <ele>1288.867</ele>
        <time>2015-06-24T09:16:03Z</time>
      </trkpt>
      <trkpt lat="36.87646" lon="-3.717044">
        <ele>1286.823</ele>
        <time>2015-06-24T09:16:09Z</time>
      </trkpt>
      <trkpt lat="36.8762" lon="-3.717294">
        <ele>1285.893</ele>
        <time>2015-06-24T09:16:13Z</time>
      </trkpt>
      <trkpt lat="36.876052" lon="-3.717548">
        <ele>1284.226</ele>
        <time>2015-06-24T09:16:16Z</time>
      </trkpt>
      <trkpt lat="36.87595" lon="-3.718007">
        <ele>1282.072</ele>
        <time>2015-06-24T09:16:21Z</time>
      </trkpt>
      <trkpt lat="36.875853" lon="-3.718065">
        <ele>1281.265</ele>
        <time>2015-06-24T09:16:23Z</time>
      </trkpt>
      <trkpt lat="36.875734" lon="-3.718017">
        <ele>1280.275</ele>
        <time>2015-06-24T09:16:25Z</time>
      </trkpt>
      <trkpt lat="36.875571" lon="-3.717587">
        <ele>1277.039</ele>
        <time>2015-06-24T09:16:31Z</time>
      </trkpt>
      <trkpt lat="36.875425" lon="-3.717385">
        <ele>1275.837</ele>
        <time>2015-06-24T09:16:34Z</time>
      </trkpt>
      <trkpt lat="36.875228" lon="-3.717226">
        <ele>1274.854</ele>
        <time>2015-06-24T09:16:37Z</time>
      </trkpt>
      <trkpt lat="36.875001" lon="-3.717164">
        <ele>1273.617</ele>
        <time>2015-06-24T09:16:40Z</time>
      </trkpt>
      <trkpt lat="36.874165" lon="-3.717093">
        <ele>1271.43</ele>
        <time>2015-06-24T09:16:55Z</time>
      </trkpt>
      <trkpt lat="36.873958" lon="-3.717137">
        <ele>1271.447</ele>
        <time>2015-06-24T09:17:03Z</time>
      </trkpt>
      <trkpt lat="36.873344" lon="-3.717524">
        <ele>1275.808</ele>
        <time>2015-06-24T09:17:33Z</time>
      </trkpt>
      <trkpt lat="36.873292" lon="-3.717576">
        <ele>1275.818</ele>
        <time>2015-06-24T09:17:37Z</time>
      </trkpt>
      <trkpt lat="36.873088" lon="-3.717604">
        <ele>1278.028</ele>
        <time>2015-06-24T09:17:50Z</time>
      </trkpt>
      <trkpt lat="36.87256" lon="-3.717242">
        <ele>1282.286</ele>
        <time>2015-06-24T09:18:22Z</time>
      </trkpt>
      <trkpt lat="36.872261" lon="-3.717146">
        <ele>1284.683</ele>
        <time>2015-06-24T09:18:38Z</time>
      </trkpt>
      <trkpt lat="36.872123" lon="-3.717152">
        <ele>1284.693</ele>
        <time>2015-06-24T09:18:45Z</time>
      </trkpt>
      <trkpt lat="36.871734" lon="-3.717332">
        <ele>1288.868</ele>
        <time>2015-06-24T09:19:05Z</time>
      </trkpt>
      <trkpt lat="36.871498" lon="-3.717339">
        <ele>1288.876</ele>
        <time>2015-06-24T09:19:13Z</time>
      </trkpt>
      <trkpt lat="36.871157" lon="-3.717198">
        <ele>1288.846</ele>
        <time>2015-06-24T09:19:19Z</time>
      </trkpt>
      <trkpt lat="36.870927" lon="-3.717126">
        <ele>1287.408</ele>
        <time>2015-06-24T09:19:22Z</time>
      </trkpt>
      <trkpt lat="36.870835" lon="-3.716991">
        <ele>1286.25</ele>
        <time>2015-06-24T09:19:24Z</time>
      </trkpt>
      <trkpt lat="36.870835" lon="-3.716808">
        <ele>1284.828</ele>
        <time>2015-06-24T09:19:26Z</time>
      </trkpt>
      <trkpt lat="36.870909" lon="-3.716653">
        <ele>1283.621</ele>
        <time>2015-06-24T09:19:28Z</time>
      </trkpt>
      <trkpt lat="36.87112" lon="-3.71646">
        <ele>1281.268</ele>
        <time>2015-06-24T09:19:32Z</time>
      </trkpt>
      <trkpt lat="36.871152" lon="-3.716271">
        <ele>1278.667</ele>
        <time>2015-06-24T09:19:35Z</time>
      </trkpt>
      <trkpt lat="36.871073" lon="-3.716141">
        <ele>1277.452</ele>
        <time>2015-06-24T09:19:37Z</time>
      </trkpt>
      <trkpt lat="36.870654" lon="-3.715792">
        <ele>1273.696</ele>
        <time>2015-06-24T09:19:43Z</time>
      </trkpt>
      <trkpt lat="36.870278" lon="-3.715218">
        <ele>1270.885</ele>
        <time>2015-06-24T09:19:49Z</time>
      </trkpt>
      <trkpt lat="36.870175" lon="-3.714831">
        <ele>1269.026</ele>
        <time>2015-06-24T09:19:52Z</time>
      </trkpt>
      <trkpt lat="36.869996" lon="-3.712816">
        <ele>1258.472</ele>
        <time>2015-06-24T09:20:06Z</time>
      </trkpt>
      <trkpt lat="36.86995" lon="-3.712308">
        <ele>1256.008</ele>
        <time>2015-06-24T09:20:10Z</time>
      </trkpt>
      <trkpt lat="36.870029" lon="-3.71199">
        <ele>1254.631</ele>
        <time>2015-06-24T09:20:14Z</time>
      </trkpt>
      <trkpt lat="36.87015" lon="-3.711873">
        <ele>1253.879</ele>
        <time>2015-06-24T09:20:16Z</time>
      </trkpt>
      <trkpt lat="36.870401" lon="-3.711832">
        <ele>1252.866</ele>
        <time>2015-06-24T09:20:19Z</time>
      </trkpt>
      <trkpt lat="36.870826" lon="-3.711866">
        <ele>1250.208</ele>
        <time>2015-06-24T09:20:24Z</time>
      </trkpt>
      <trkpt lat="36.87099" lon="-3.711812">
        <ele>1249.488</ele>
        <time>2015-06-24T09:20:26Z</time>
      </trkpt>
      <trkpt lat="36.871238" lon="-3.711593">
        <ele>1249.096</ele>
        <time>2015-06-24T09:20:30Z</time>
      </trkpt>
      <trkpt lat="36.871652" lon="-3.71098">
        <ele>1247.486</ele>
        <time>2015-06-24T09:20:39Z</time>
      </trkpt>
      <trkpt lat="36.87212" lon="-3.710135">
        <ele>1245.257</ele>
        <time>2015-06-24T09:20:51Z</time>
      </trkpt>
      <trkpt lat="36.872395" lon="-3.709901">
        <ele>1244.08</ele>
        <time>2015-06-24T09:20:56Z</time>
      </trkpt>
      <trkpt lat="36.872854" lon="-3.709639">
        <ele>1241.045</ele>
        <time>2015-06-24T09:21:03Z</time>
      </trkpt>
      <trkpt lat="36.873101" lon="-3.70946">
        <ele>1241.033</ele>
        <time>2015-06-24T09:21:07Z</time>
      </trkpt>
      <trkpt lat="36.8734" lon="-3.70897">
        <ele>1239.493</ele>
        <time>2015-06-24T09:21:14Z</time>
      </trkpt>
      <trkpt lat="36.87373" lon="-3.708763">
        <ele>1239.008</ele>
        <time>2015-06-24T09:21:19Z</time>
      </trkpt>
      <trkpt lat="36.874067" lon="-3.708735">
        <ele>1238.245</ele>
        <time>2015-06-24T09:21:24Z</time>
      </trkpt>
      <trkpt lat="36.874246" lon="-3.708721">
        <ele>1237.076</ele>
        <time>2015-06-24T09:21:27Z</time>
      </trkpt>
      <trkpt lat="36.87435" lon="-3.708643">
        <ele>1237.08</ele>
        <time>2015-06-24T09:21:29Z</time>
      </trkpt>
      <trkpt lat="36.874521" lon="-3.708299">
        <ele>1237.057</ele>
        <time>2015-06-24T09:21:35Z</time>
      </trkpt>
      <trkpt lat="36.874826" lon="-3.708108">
        <ele>1236.48</ele>
        <time>2015-06-24T09:21:40Z</time>
      </trkpt>
      <trkpt lat="36.875032" lon="-3.708159">
        <ele>1235.013</ele>
        <time>2015-06-24T09:21:43Z</time>
      </trkpt>
      <trkpt lat="36.875266" lon="-3.708341">
        <ele>1233.49</ele>
        <time>2015-06-24T09:21:46Z</time>
      </trkpt>
      <trkpt lat="36.875649" lon="-3.708416">
        <ele>1231.215</ele>
        <time>2015-06-24T09:21:50Z</time>
      </trkpt>
      <trkpt lat="36.876083" lon="-3.708465">
        <ele>1230.047</ele>
        <time>2015-06-24T09:21:57Z</time>
      </trkpt>
      <trkpt lat="36.876432" lon="-3.708642">
        <ele>1230.01</ele>
        <time>2015-06-24T09:22:05Z</time>
      </trkpt>
      <trkpt lat="36.876796" lon="-3.708589">
        <ele>1230.008</ele>
        <time>2015-06-24T09:22:12Z</time>
      </trkpt>
      <trkpt lat="36.87718" lon="-3.708898">
        <ele>1229.268</ele>
        <time>2015-06-24T09:22:18Z</time>
      </trkpt>
      <trkpt lat="36.877339" lon="-3.709203">
        <ele>1227.885</ele>
        <time>2015-06-24T09:22:21Z</time>
      </trkpt>
      <trkpt lat="36.877491" lon="-3.709499">
        <ele>1226.005</ele>
        <time>2015-06-24T09:22:24Z</time>
      </trkpt>
      <trkpt lat="36.877707" lon="-3.709641">
        <ele>1223.478</ele>
        <time>2015-06-24T09:22:27Z</time>
      </trkpt>
      <trkpt lat="36.877958" lon="-3.709635">
        <ele>1221.421</ele>
        <time>2015-06-24T09:22:30Z</time>
      </trkpt>
      <trkpt lat="36.878201" lon="-3.709512">
        <ele>1219.848</ele>
        <time>2015-06-24T09:22:33Z</time>
      </trkpt>
      <trkpt lat="36.878602" lon="-3.709188">
        <ele>1217.408</ele>
        <time>2015-06-24T09:22:38Z</time>
      </trkpt>
      <trkpt lat="36.879412" lon="-3.708871">
        <ele>1214.038</ele>
        <time>2015-06-24T09:22:47Z</time>
      </trkpt>
      <trkpt lat="36.879669" lon="-3.708793">
        <ele>1212.614</ele>
        <time>2015-06-24T09:22:50Z</time>
      </trkpt>
      <trkpt lat="36.879922" lon="-3.708661">
        <ele>1210.868</ele>
        <time>2015-06-24T09:22:53Z</time>
      </trkpt>
      <trkpt lat="36.880487" lon="-3.708661">
        <ele>1206.839</ele>
        <time>2015-06-24T09:22:59Z</time>
      </trkpt>
      <trkpt lat="36.880842" lon="-3.708536">
        <ele>1205.21</ele>
        <time>2015-06-24T09:23:03Z</time>
      </trkpt>
      <trkpt lat="36.881054" lon="-3.70834">
        <ele>1203.649</ele>
        <time>2015-06-24T09:23:06Z</time>
      </trkpt>
      <trkpt lat="36.881447" lon="-3.707726">
        <ele>1199.442</ele>
        <time>2015-06-24T09:23:13Z</time>
      </trkpt>
      <trkpt lat="36.881634" lon="-3.707232">
        <ele>1196.85</ele>
        <time>2015-06-24T09:23:18Z</time>
      </trkpt>
      <trkpt lat="36.881868" lon="-3.706735">
        <ele>1194.465</ele>
        <time>2015-06-24T09:23:23Z</time>
      </trkpt>
      <trkpt lat="36.882174" lon="-3.70637">
        <ele>1192.817</ele>
        <time>2015-06-24T09:23:28Z</time>
      </trkpt>
      <trkpt lat="36.882398" lon="-3.705972">
        <ele>1192.011</ele>
        <time>2015-06-24T09:23:33Z</time>
      </trkpt>
      <trkpt lat="36.882822" lon="-3.705515">
        <ele>1190.262</ele>
        <time>2015-06-24T09:23:40Z</time>
      </trkpt>
      <trkpt lat="36.883481" lon="-3.705187">
        <ele>1185.273</ele>
        <time>2015-06-24T09:23:49Z</time>
      </trkpt>
      <trkpt lat="36.883804" lon="-3.705142">
        <ele>1184.21</ele>
        <time>2015-06-24T09:23:53Z</time>
      </trkpt>
      <trkpt lat="36.884132" lon="-3.704951">
        <ele>1181.82</ele>
        <time>2015-06-24T09:23:57Z</time>
      </trkpt>
      <trkpt lat="36.884692" lon="-3.704895">
        <ele>1178.693</ele>
        <time>2015-06-24T09:24:03Z</time>
      </trkpt>
      <trkpt lat="36.885059" lon="-3.704786">
        <ele>1177.226</ele>
        <time>2015-06-24T09:24:08Z</time>
      </trkpt>
      <trkpt lat="36.885174" lon="-3.704731">
        <ele>1176.024</ele>
        <time>2015-06-24T09:24:10Z</time>
      </trkpt>
      <trkpt lat="36.885312" lon="-3.704763">
        <ele>1174.608</ele>
        <time>2015-06-24T09:24:12Z</time>
      </trkpt>
      <trkpt lat="36.885779" lon="-3.705224">
        <ele>1170.259</ele>
        <time>2015-06-24T09:24:19Z</time>
      </trkpt>
      <trkpt lat="36.886116" lon="-3.705345">
        <ele>1168.211</ele>
        <time>2015-06-24T09:24:23Z</time>
      </trkpt>
      <trkpt lat="36.887006" lon="-3.705595">
        <ele>1164.665</ele>
        <time>2015-06-24T09:24:34Z</time>
      </trkpt>
      <trkpt lat="36.88785" lon="-3.706113">
        <ele>1160.646</ele>
        <time>2015-06-24T09:24:47Z</time>
      </trkpt>
      <trkpt lat="36.88799" lon="-3.706148">
        <ele>1160.689</ele>
        <time>2015-06-24T09:24:57Z</time>
      </trkpt>
      <trkpt lat="36.888015" lon="-3.706275">
        <ele>1160.664</ele>
        <time>2015-06-24T09:25:02Z</time>
      </trkpt>
      <trkpt lat="36.888093" lon="-3.706381">
        <ele>1159.485</ele>
        <time>2015-06-24T09:25:07Z</time>
      </trkpt>
      <trkpt lat="36.888129" lon="-3.706346">
        <ele>1158.648</ele>
        <time>2015-06-24T09:25:14Z</time>
      </trkpt>
      <trkpt lat="36.888293" lon="-3.706102">
        <ele>1158.261</ele>
        <time>2015-06-24T09:28:58Z</time>
      </trkpt>
      <trkpt lat="36.888373" lon="-3.705881">
        <ele>1157.498</ele>
        <time>2015-06-24T09:29:11Z</time>
      </trkpt>
      <trkpt lat="36.888468" lon="-3.705808">
        <ele>1158.848</ele>
        <time>2015-06-24T09:29:18Z</time>
      </trkpt>
      <trkpt lat="36.888735" lon="-3.705767">
        <ele>1158.805</ele>
        <time>2015-06-24T09:29:34Z</time>
      </trkpt>
      <trkpt lat="36.888911" lon="-3.7057">
        <ele>1158.808</ele>
        <time>2015-06-24T09:29:41Z</time>
      </trkpt>
      <trkpt lat="36.88908" lon="-3.705512">
        <ele>1158.83</ele>
        <time>2015-06-24T09:29:48Z</time>
      </trkpt>
      <trkpt lat="36.889399" lon="-3.704973">
        <ele>1158.855</ele>
        <time>2015-06-24T09:30:01Z</time>
      </trkpt>
      <trkpt lat="36.889598" lon="-3.704781">
        <ele>1158.808</ele>
        <time>2015-06-24T09:30:06Z</time>
      </trkpt>
      <trkpt lat="36.88985" lon="-3.704717">
        <ele>1158.841</ele>
        <time>2015-06-24T09:30:11Z</time>
      </trkpt>
      <trkpt lat="36.889998" lon="-3.704772">
        <ele>1158.849</ele>
        <time>2015-06-24T09:30:14Z</time>
      </trkpt>
      <trkpt lat="36.890184" lon="-3.704981">
        <ele>1156.472</ele>
        <time>2015-06-24T09:30:19Z</time>
      </trkpt>
      <trkpt lat="36.890342" lon="-3.704949">
        <ele>1156.447</ele>
        <time>2015-06-24T09:30:22Z</time>
      </trkpt>
      <trkpt lat="36.890713" lon="-3.70456">
        <ele>1156.021</ele>
        <time>2015-06-24T09:30:29Z</time>
      </trkpt>
      <trkpt lat="36.891363" lon="-3.704522">
        <ele>1152.821</ele>
        <time>2015-06-24T09:30:38Z</time>
      </trkpt>
      <trkpt lat="36.891537" lon="-3.70444">
        <ele>1150.428</ele>
        <time>2015-06-24T09:30:41Z</time>
      </trkpt>
      <trkpt lat="36.891588" lon="-3.704335">
        <ele>1149.017</ele>
        <time>2015-06-24T09:30:43Z</time>
      </trkpt>
      <trkpt lat="36.89149" lon="-3.703997">
        <ele>1146.418</ele>
        <time>2015-06-24T09:30:49Z</time>
      </trkpt>
      <trkpt lat="36.891412" lon="-3.703766">
        <ele>1144.843</ele>
        <time>2015-06-24T09:30:53Z</time>
      </trkpt>
      <trkpt lat="36.89143" lon="-3.703527">
        <ele>1143.864</ele>
        <time>2015-06-24T09:30:56Z</time>
      </trkpt>
      <trkpt lat="36.891622" lon="-3.703123">
        <ele>1142.627</ele>
        <time>2015-06-24T09:31:01Z</time>
      </trkpt>
      <trkpt lat="36.891818" lon="-3.702882">
        <ele>1142.672</ele>
        <time>2015-06-24T09:31:05Z</time>
      </trkpt>
      <trkpt lat="36.892146" lon="-3.702693">
        <ele>1140.463</ele>
        <time>2015-06-24T09:31:10Z</time>
      </trkpt>
      <trkpt lat="36.892801" lon="-3.702406">
        <ele>1137.641</ele>
        <time>2015-06-24T09:31:19Z</time>
      </trkpt>
      <trkpt lat="36.892901" lon="-3.702271">
        <ele>1136.092</ele>
        <time>2015-06-24T09:31:22Z</time>
      </trkpt>
      <trkpt lat="36.892904" lon="-3.701991">
        <ele>1133.029</ele>
        <time>2015-06-24T09:31:26Z</time>
      </trkpt>
      <trkpt lat="36.89276" lon="-3.701695">
        <ele>1132.008</ele>
        <time>2015-06-24T09:31:29Z</time>
      </trkpt>
      <trkpt lat="36.892442" lon="-3.701223">
        <ele>1128.41</ele>
        <time>2015-06-24T09:31:34Z</time>
      </trkpt>
      <trkpt lat="36.892363" lon="-3.700884">
        <ele>1125.463</ele>
        <time>2015-06-24T09:31:38Z</time>
      </trkpt>
      <trkpt lat="36.892259" lon="-3.700783">
        <ele>1123.408</ele>
        <time>2015-06-24T09:31:41Z</time>
      </trkpt>
      <trkpt lat="36.892161" lon="-3.700729">
        <ele>1122.072</ele>
        <time>2015-06-24T09:31:43Z</time>
      </trkpt>
      <trkpt lat="36.892149" lon="-3.700476">
        <ele>1120.07</ele>
        <time>2015-06-24T09:31:46Z</time>
      </trkpt>
      <trkpt lat="36.892204" lon="-3.700338">
        <ele>1118.857</ele>
        <time>2015-06-24T09:31:48Z</time>
      </trkpt>
      <trkpt lat="36.892638" lon="-3.700051">
        <ele>1116.808</ele>
        <time>2015-06-24T09:31:54Z</time>
      </trkpt>
      <trkpt lat="36.893385" lon="-3.699786">
        <ele>1111.445</ele>
        <time>2015-06-24T09:32:02Z</time>
      </trkpt>
      <trkpt lat="36.893743" lon="-3.699648">
        <ele>1110.8</ele>
        <time>2015-06-24T09:32:07Z</time>
      </trkpt>
      <trkpt lat="36.894118" lon="-3.699382">
        <ele>1107.452</ele>
        <time>2015-06-24T09:32:15Z</time>
      </trkpt>
      <trkpt lat="36.894227" lon="-3.699246">
        <ele>1107.072</ele>
        <time>2015-06-24T09:32:18Z</time>
      </trkpt>
      <trkpt lat="36.894414" lon="-3.698761">
        <ele>1106.608</ele>
        <time>2015-06-24T09:32:26Z</time>
      </trkpt>
      <trkpt lat="36.89459" lon="-3.698631">
        <ele>1105.265</ele>
        <time>2015-06-24T09:32:29Z</time>
      </trkpt>
      <trkpt lat="36.895428" lon="-3.698429">
        <ele>1101.482</ele>
        <time>2015-06-24T09:32:41Z</time>
      </trkpt>
      <trkpt lat="36.89576" lon="-3.698195">
        <ele>1099.258</ele>
        <time>2015-06-24T09:32:47Z</time>
      </trkpt>
      <trkpt lat="36.89575" lon="-3.69798">
        <ele>1098.077</ele>
        <time>2015-06-24T09:32:50Z</time>
      </trkpt>
      <trkpt lat="36.895665" lon="-3.697796">
        <ele>1097.661</ele>
        <time>2015-06-24T09:32:51Z</time>
      </trkpt>
      <trkpt lat="36.89566" lon="-3.697472">
        <ele>1096.228</ele>
        <time>2015-06-24T09:32:54Z</time>
      </trkpt>
      <trkpt lat="36.895727" lon="-3.697191">
        <ele>1096.281</ele>
        <time>2015-06-24T09:32:57Z</time>
      </trkpt>
      <trkpt lat="36.895865" lon="-3.696895">
        <ele>1094.624</ele>
        <time>2015-06-24T09:33:01Z</time>
      </trkpt>
      <trkpt lat="36.895875" lon="-3.696511">
        <ele>1094.21</ele>
        <time>2015-06-24T09:33:05Z</time>
      </trkpt>
      <trkpt lat="36.895675" lon="-3.695507">
        <ele>1089.802</ele>
        <time>2015-06-24T09:33:16Z</time>
      </trkpt>
      <trkpt lat="36.895394" lon="-3.69454">
        <ele>1088.218</ele>
        <time>2015-06-24T09:33:31Z</time>
      </trkpt>
      <trkpt lat="36.895242" lon="-3.69409">
        <ele>1087.204</ele>
        <time>2015-06-24T09:33:37Z</time>
      </trkpt>
      <trkpt lat="36.894995" lon="-3.693555">
        <ele>1085.631</ele>
        <time>2015-06-24T09:33:45Z</time>
      </trkpt>
      <trkpt lat="36.894947" lon="-3.693276">
        <ele>1085.649</ele>
        <time>2015-06-24T09:33:50Z</time>
      </trkpt>
      <trkpt lat="36.895036" lon="-3.692673">
        <ele>1085.657</ele>
        <time>2015-06-24T09:34:02Z</time>
      </trkpt>
      <trkpt lat="36.895213" lon="-3.691964">
        <ele>1084.415</ele>
        <time>2015-06-24T09:34:13Z</time>
      </trkpt>
      <trkpt lat="36.895373" lon="-3.691642">
        <ele>1082.436</ele>
        <time>2015-06-24T09:34:17Z</time>
      </trkpt>
      <trkpt lat="36.895751" lon="-3.691435">
        <ele>1080.609</ele>
        <time>2015-06-24T09:34:22Z</time>
      </trkpt>
      <trkpt lat="36.896287" lon="-3.691296">
        <ele>1077.845</ele>
        <time>2015-06-24T09:34:28Z</time>
      </trkpt>
      <trkpt lat="36.896988" lon="-3.691229">
        <ele>1074.408</ele>
        <time>2015-06-24T09:34:36Z</time>
      </trkpt>
      <trkpt lat="36.897697" lon="-3.690966">
        <ele>1070.663</ele>
        <time>2015-06-24T09:34:45Z</time>
      </trkpt>
      <trkpt lat="36.898222" lon="-3.690612">
        <ele>1070.208</ele>
        <time>2015-06-24T09:34:53Z</time>
      </trkpt>
      <trkpt lat="36.898484" lon="-3.690576">
        <ele>1068.43</ele>
        <time>2015-06-24T09:34:57Z</time>
      </trkpt>
      <trkpt lat="36.898885" lon="-3.690656">
        <ele>1067.637</ele>
        <time>2015-06-24T09:35:03Z</time>
      </trkpt>
      <trkpt lat="36.899118" lon="-3.690761">
        <ele>1066.455</ele>
        <time>2015-06-24T09:35:06Z</time>
      </trkpt>
      <trkpt lat="36.899284" lon="-3.690739">
        <ele>1066.408</ele>
        <time>2015-06-24T09:35:08Z</time>
      </trkpt>
      <trkpt lat="36.899432" lon="-3.690551">
        <ele>1065.689</ele>
        <time>2015-06-24T09:35:11Z</time>
      </trkpt>
      <trkpt lat="36.899603" lon="-3.690005">
        <ele>1062.64</ele>
        <time>2015-06-24T09:35:17Z</time>
      </trkpt>
      <trkpt lat="36.899813" lon="-3.689748">
        <ele>1061.616</ele>
        <time>2015-06-24T09:35:21Z</time>
      </trkpt>
      <trkpt lat="36.900048" lon="-3.689556">
        <ele>1060.01</ele>
        <time>2015-06-24T09:35:25Z</time>
      </trkpt>
      <trkpt lat="36.900523" lon="-3.689147">
        <ele>1058.291</ele>
        <time>2015-06-24T09:35:33Z</time>
      </trkpt>
      <trkpt lat="36.900575" lon="-3.689082">
        <ele>1057.629</ele>
        <time>2015-06-24T09:35:34Z</time>
      </trkpt>
      <trkpt lat="36.900593" lon="-3.688707">
        <ele>1057.22</ele>
        <time>2015-06-24T09:35:38Z</time>
      </trkpt>
      <trkpt lat="36.900477" lon="-3.688249">
        <ele>1055.438</ele>
        <time>2015-06-24T09:35:43Z</time>
      </trkpt>
      <trkpt lat="36.900463" lon="-3.687507">
        <ele>1053.244</ele>
        <time>2015-06-24T09:35:51Z</time>
      </trkpt>
      <trkpt lat="36.900234" lon="-3.6868">
        <ele>1051.038</ele>
        <time>2015-06-24T09:36:00Z</time>
      </trkpt>
      <trkpt lat="36.900264" lon="-3.686465">
        <ele>1050.248</ele>
        <time>2015-06-24T09:36:04Z</time>
      </trkpt>
      <trkpt lat="36.900418" lon="-3.686222">
        <ele>1049.018</ele>
        <time>2015-06-24T09:36:08Z</time>
      </trkpt>
      <trkpt lat="36.900916" lon="-3.685868">
        <ele>1048.667</ele>
        <time>2015-06-24T09:36:17Z</time>
      </trkpt>
      <trkpt lat="36.901124" lon="-3.685567">
        <ele>1046.668</ele>
        <time>2015-06-24T09:36:21Z</time>
      </trkpt>
      <trkpt lat="36.901563" lon="-3.685114">
        <ele>1045.821</ele>
        <time>2015-06-24T09:36:28Z</time>
      </trkpt>
      <trkpt lat="36.901641" lon="-3.684554">
        <ele>1044.622</ele>
        <time>2015-06-24T09:36:35Z</time>
      </trkpt>
      <trkpt lat="36.901638" lon="-3.683954">
        <ele>1042.422</ele>
        <time>2015-06-24T09:36:41Z</time>
      </trkpt>
      <trkpt lat="36.90156" lon="-3.68354">
        <ele>1042.418</ele>
        <time>2015-06-24T09:36:46Z</time>
      </trkpt>
      <trkpt lat="36.901586" lon="-3.683281">
        <ele>1042.47</ele>
        <time>2015-06-24T09:36:50Z</time>
      </trkpt>
      <trkpt lat="36.901658" lon="-3.683102">
        <ele>1040.47</ele>
        <time>2015-06-24T09:37:02Z</time>
      </trkpt>
      <trkpt lat="36.901718" lon="-3.683007">
        <ele>1040.425</ele>
        <time>2015-06-24T09:37:34Z</time>
      </trkpt>
      <trkpt lat="36.901812" lon="-3.682544">
        <ele>1039.665</ele>
        <time>2015-06-24T09:37:43Z</time>
      </trkpt>
      <trkpt lat="36.90202" lon="-3.681029">
        <ele>1034.019</ele>
        <time>2015-06-24T09:38:01Z</time>
      </trkpt>
      <trkpt lat="36.902152" lon="-3.680244">
        <ele>1034.093</ele>
        <time>2015-06-24T09:38:26Z</time>
      </trkpt>
      <trkpt lat="36.902439" lon="-3.679359">
        <ele>1038.256</ele>
        <time>2015-06-24T09:39:09Z</time>
      </trkpt>
      <trkpt lat="36.902516" lon="-3.679238">
        <ele>1040.291</ele>
        <time>2015-06-24T09:39:16Z</time>
      </trkpt>
      <trkpt lat="36.902862" lon="-3.67892">
        <ele>1044.816</ele>
        <time>2015-06-24T09:39:43Z</time>
      </trkpt>
      <trkpt lat="36.902985" lon="-3.678709">
        <ele>1044.859</ele>
        <time>2015-06-24T09:39:54Z</time>
      </trkpt>
      <trkpt lat="36.903044" lon="-3.678421">
        <ele>1046.808</ele>
        <time>2015-06-24T09:40:08Z</time>
      </trkpt>
      <trkpt lat="36.903068" lon="-3.678134">
        <ele>1046.897</ele>
        <time>2015-06-24T09:40:19Z</time>
      </trkpt>
      <trkpt lat="36.903124" lon="-3.677901">
        <ele>1046.845</ele>
        <time>2015-06-24T09:40:23Z</time>
      </trkpt>
      <trkpt lat="36.903286" lon="-3.677675">
        <ele>1046.228</ele>
        <time>2015-06-24T09:40:27Z</time>
      </trkpt>
      <trkpt lat="36.903576" lon="-3.677501">
        <ele>1042.441</ele>
        <time>2015-06-24T09:40:33Z</time>
      </trkpt>
      <trkpt lat="36.903774" lon="-3.67734">
        <ele>1039.062</ele>
        <time>2015-06-24T09:40:37Z</time>
      </trkpt>
      <trkpt lat="36.904101" lon="-3.677183">
        <ele>1033.617</ele>
        <time>2015-06-24T09:40:44Z</time>
      </trkpt>
      <trkpt lat="36.90424" lon="-3.676981">
        <ele>1031.66</ele>
        <time>2015-06-24T09:40:49Z</time>
      </trkpt>
      <trkpt lat="36.904069" lon="-3.676668">
        <ele>1029.817</ele>
        <time>2015-06-24T09:40:51Z</time>
      </trkpt>
      <trkpt lat="36.904036" lon="-3.676453">
        <ele>1026.898</ele>
        <time>2015-06-24T09:40:54Z</time>
      </trkpt>
      <trkpt lat="36.904095" lon="-3.676219">
        <ele>1026.817</ele>
        <time>2015-06-24T09:40:59Z</time>
      </trkpt>
      <trkpt lat="36.904191" lon="-3.676005">
        <ele>1024.825</ele>
        <time>2015-06-24T09:41:06Z</time>
      </trkpt>
      <trkpt lat="36.904234" lon="-3.675472">
        <ele>1020.808</ele>
        <time>2015-06-24T09:41:15Z</time>
      </trkpt>
      <trkpt lat="36.904422" lon="-3.674998">
        <ele>1018.483</ele>
        <time>2015-06-24T09:41:21Z</time>
      </trkpt>
      <trkpt lat="36.904484" lon="-3.674842">
        <ele>1016.891</ele>
        <time>2015-06-24T09:41:24Z</time>
      </trkpt>
      <trkpt lat="36.904368" lon="-3.674865">
        <ele>1014.608</ele>
        <time>2015-06-24T09:41:27Z</time>
      </trkpt>
      <trkpt lat="36.904019" lon="-3.67528">
        <ele>1010.896</ele>
        <time>2015-06-24T09:41:35Z</time>
      </trkpt>
      <trkpt lat="36.903926" lon="-3.675295">
        <ele>1009.404</ele>
        <time>2015-06-24T09:41:37Z</time>
      </trkpt>
      <trkpt lat="36.903888" lon="-3.67522">
        <ele>1007.808</ele>
        <time>2015-06-24T09:41:39Z</time>
      </trkpt>
      <trkpt lat="36.903981" lon="-3.674869">
        <ele>1003.079</ele>
        <time>2015-06-24T09:41:45Z</time>
      </trkpt>
      <trkpt lat="36.904203" lon="-3.674584">
        <ele>1002.423</ele>
        <time>2015-06-24T09:41:50Z</time>
      </trkpt>
      <trkpt lat="36.905078" lon="-3.673834">
        <ele>995.816</ele>
        <time>2015-06-24T09:42:06Z</time>
      </trkpt>
      <trkpt lat="36.905237" lon="-3.673831">
        <ele>992.632</ele>
        <time>2015-06-24T09:42:10Z</time>
      </trkpt>
      <trkpt lat="36.905467" lon="-3.673746">
        <ele>991.85</ele>
        <time>2015-06-24T09:42:15Z</time>
      </trkpt>
      <trkpt lat="36.906204" lon="-3.673921">
        <ele>989.027</ele>
        <time>2015-06-24T09:42:21Z</time>
      </trkpt>
      <trkpt lat="36.906501" lon="-3.673878">
        <ele>987.435</ele>
        <time>2015-06-24T09:42:24Z</time>
      </trkpt>
      <trkpt lat="36.906952" lon="-3.673597">
        <ele>983.69</ele>
        <time>2015-06-24T09:42:29Z</time>
      </trkpt>
      <trkpt lat="36.90734" lon="-3.673283">
        <ele>979.008</ele>
        <time>2015-06-24T09:42:34Z</time>
      </trkpt>
      <trkpt lat="36.907772" lon="-3.673">
        <ele>973.053</ele>
        <time>2015-06-24T09:42:41Z</time>
      </trkpt>
      <trkpt lat="36.908081" lon="-3.673001">
        <ele>970.868</ele>
        <time>2015-06-24T09:42:44Z</time>
      </trkpt>
      <trkpt lat="36.908388" lon="-3.673065">
        <ele>968.633</ele>
        <time>2015-06-24T09:42:47Z</time>
      </trkpt>
      <trkpt lat="36.908677" lon="-3.67326">
        <ele>966.036</ele>
        <time>2015-06-24T09:42:50Z</time>
      </trkpt>
      <trkpt lat="36.90902" lon="-3.673564">
        <ele>962.619</ele>
        <time>2015-06-24T09:42:54Z</time>
      </trkpt>
      <trkpt lat="36.909372" lon="-3.673632">
        <ele>959.408</ele>
        <time>2015-06-24T09:42:58Z</time>
      </trkpt>
      <trkpt lat="36.909606" lon="-3.673546">
        <ele>955.425</ele>
        <time>2015-06-24T09:43:01Z</time>
      </trkpt>
      <trkpt lat="36.910301" lon="-3.672596">
        <ele>947.429</ele>
        <time>2015-06-24T09:43:12Z</time>
      </trkpt>
      <trkpt lat="36.910525" lon="-3.672296">
        <ele>943.67</ele>
        <time>2015-06-24T09:43:16Z</time>
      </trkpt>
      <trkpt lat="36.910701" lon="-3.672122">
        <ele>941.094</ele>
        <time>2015-06-24T09:43:19Z</time>
      </trkpt>
      <trkpt lat="36.911019" lon="-3.671374">
        <ele>935.083</ele>
        <time>2015-06-24T09:43:26Z</time>
      </trkpt>
      <trkpt lat="36.91146" lon="-3.670638">
        <ele>929.008</ele>
        <time>2015-06-24T09:43:34Z</time>
      </trkpt>
      <trkpt lat="36.912216" lon="-3.671429">
        <ele>928.046</ele>
        <time>2015-06-24T09:43:35Z</time>
      </trkpt>
      <trkpt lat="36.913221" lon="-3.670981">
        <ele>917.808</ele>
        <time>2015-06-24T09:43:46Z</time>
      </trkpt>
      <trkpt lat="36.913768" lon="-3.670945">
        <ele>910.43</ele>
        <time>2015-06-24T09:43:53Z</time>
      </trkpt>
      <trkpt lat="36.913816" lon="-3.670897">
        <ele>908.621</ele>
        <time>2015-06-24T09:43:55Z</time>
      </trkpt>
      <trkpt lat="36.913728" lon="-3.670731">
        <ele>905.073</ele>
        <time>2015-06-24T09:43:59Z</time>
      </trkpt>
      <trkpt lat="36.913398" lon="-3.670245">
        <ele>905.096</ele>
        <time>2015-06-24T09:44:10Z</time>
      </trkpt>
      <trkpt lat="36.913359" lon="-3.669889">
        <ele>905.098</ele>
        <time>2015-06-24T09:44:18Z</time>
      </trkpt>
      <trkpt lat="36.91344" lon="-3.669604">
        <ele>905.015</ele>
        <time>2015-06-24T09:44:22Z</time>
      </trkpt>
      <trkpt lat="36.913748" lon="-3.669084">
        <ele>902.825</ele>
        <time>2015-06-24T09:44:28Z</time>
      </trkpt>
      <trkpt lat="36.914617" lon="-3.667873">
        <ele>895.242</ele>
        <time>2015-06-24T09:44:41Z</time>
      </trkpt>
      <trkpt lat="36.914687" lon="-3.667659">
        <ele>894.455</ele>
        <time>2015-06-24T09:44:43Z</time>
      </trkpt>
      <trkpt lat="36.914731" lon="-3.666972">
        <ele>892.801</ele>
        <time>2015-06-24T09:44:49Z</time>
      </trkpt>
      <trkpt lat="36.91459" lon="-3.66625">
        <ele>890.257</ele>
        <time>2015-06-24T09:44:56Z</time>
      </trkpt>
      <trkpt lat="36.914316" lon="-3.665037">
        <ele>885.881</ele>
        <time>2015-06-24T09:45:09Z</time>
      </trkpt>
      <trkpt lat="36.914166" lon="-3.664641">
        <ele>885.449</ele>
        <time>2015-06-24T09:45:14Z</time>
      </trkpt>
      <trkpt lat="36.913857" lon="-3.664219">
        <ele>883.614</ele>
        <time>2015-06-24T09:45:24Z</time>
      </trkpt>
      <trkpt lat="36.913775" lon="-3.663954">
        <ele>883.626</ele>
        <time>2015-06-24T09:45:35Z</time>
      </trkpt>
      <trkpt lat="36.913766" lon="-3.663501">
        <ele>887.881</ele>
        <time>2015-06-24T09:46:02Z</time>
      </trkpt>
      <trkpt lat="36.913758" lon="-3.663064">
        <ele>891.875</ele>
        <time>2015-06-24T09:46:27Z</time>
      </trkpt>
      <trkpt lat="36.913738" lon="-3.662963">
        <ele>892.224</ele>
        <time>2015-06-24T09:46:34Z</time>
      </trkpt>
      <trkpt lat="36.913811" lon="-3.662759">
        <ele>894.235</ele>
        <time>2015-06-24T09:46:53Z</time>
      </trkpt>
      <trkpt lat="36.914014" lon="-3.662552">
        <ele>894.217</ele>
        <time>2015-06-24T09:47:10Z</time>
      </trkpt>
      <trkpt lat="36.914279" lon="-3.662178">
        <ele>896.477</ele>
        <time>2015-06-24T09:47:32Z</time>
      </trkpt>
      <trkpt lat="36.914689" lon="-3.661779">
        <ele>898.429</ele>
        <time>2015-06-24T09:47:56Z</time>
      </trkpt>
      <trkpt lat="36.915123" lon="-3.661403">
        <ele>901.048</ele>
        <time>2015-06-24T09:48:19Z</time>
      </trkpt>
      <trkpt lat="36.91537" lon="-3.661245">
        <ele>902.685</ele>
        <time>2015-06-24T09:48:29Z</time>
      </trkpt>
      <trkpt lat="36.915776" lon="-3.660811">
        <ele>902.688</ele>
        <time>2015-06-24T09:48:44Z</time>
      </trkpt>
      <trkpt lat="36.916157" lon="-3.660615">
        <ele>902.681</ele>
        <time>2015-06-24T09:48:53Z</time>
      </trkpt>
      <trkpt lat="36.916541" lon="-3.660335">
        <ele>902.617</ele>
        <time>2015-06-24T09:49:00Z</time>
      </trkpt>
      <trkpt lat="36.916882" lon="-3.66026">
        <ele>901.416</ele>
        <time>2015-06-24T09:49:06Z</time>
      </trkpt>
      <trkpt lat="36.916973" lon="-3.6602">
        <ele>900.679</ele>
        <time>2015-06-24T09:49:08Z</time>
      </trkpt>
      <trkpt lat="36.917136" lon="-3.659859">
        <ele>899.421</ele>
        <time>2015-06-24T09:49:14Z</time>
      </trkpt>
      <trkpt lat="36.917734" lon="-3.659149">
        <ele>896.256</ele>
        <time>2015-06-24T09:49:27Z</time>
      </trkpt>
      <trkpt lat="36.918569" lon="-3.65797">
        <ele>890.653</ele>
        <time>2015-06-24T09:49:43Z</time>
      </trkpt>
      <trkpt lat="36.918848" lon="-3.657445">
        <ele>887.861</ele>
        <time>2015-06-24T09:49:48Z</time>
      </trkpt>
      <trkpt lat="36.918978" lon="-3.657206">
        <ele>886.029</ele>
        <time>2015-06-24T09:49:50Z</time>
      </trkpt>
      <trkpt lat="36.919054" lon="-3.656955">
        <ele>883.812</ele>
        <time>2015-06-24T09:49:52Z</time>
      </trkpt>
      <trkpt lat="36.919055" lon="-3.656516">
        <ele>880.086</ele>
        <time>2015-06-24T09:49:55Z</time>
      </trkpt>
      <trkpt lat="36.919071" lon="-3.65574">
        <ele>871.864</ele>
        <time>2015-06-24T09:50:00Z</time>
      </trkpt>
      <trkpt lat="36.918998" lon="-3.655234">
        <ele>865.665</ele>
        <time>2015-06-24T09:50:04Z</time>
      </trkpt>
      <trkpt lat="36.918766" lon="-3.654558">
        <ele>857.008</ele>
        <time>2015-06-24T09:50:10Z</time>
      </trkpt>
      <trkpt lat="36.918736" lon="-3.654121">
        <ele>851.687</ele>
        <time>2015-06-24T09:50:14Z</time>
      </trkpt>
      <trkpt lat="36.918475" lon="-3.653446">
        <ele>844.208</ele>
        <time>2015-06-24T09:50:22Z</time>
      </trkpt>
      <trkpt lat="36.918314" lon="-3.652751">
        <ele>839.851</ele>
        <time>2015-06-24T09:50:28Z</time>
      </trkpt>
      <trkpt lat="36.918372" lon="-3.652206">
        <ele>837.043</ele>
        <time>2015-06-24T09:50:32Z</time>
      </trkpt>
      <trkpt lat="36.918701" lon="-3.651132">
        <ele>831.888</ele>
        <time>2015-06-24T09:50:42Z</time>
      </trkpt>
      <trkpt lat="36.918864" lon="-3.650674">
        <ele>831.812</ele>
        <time>2015-06-24T09:50:48Z</time>
      </trkpt>
      <trkpt lat="36.919033" lon="-3.65046">
        <ele>831.832</ele>
        <time>2015-06-24T09:50:53Z</time>
      </trkpt>
      <trkpt lat="36.91931" lon="-3.650213">
        <ele>831.808</ele>
        <time>2015-06-24T09:51:00Z</time>
      </trkpt>
      <trkpt lat="36.91974" lon="-3.649969">
        <ele>831.845</ele>
        <time>2015-06-24T09:51:13Z</time>
      </trkpt>
      <trkpt lat="36.920188" lon="-3.649624">
        <ele>831.846</ele>
        <time>2015-06-24T09:51:26Z</time>
      </trkpt>
      <trkpt lat="36.920441" lon="-3.649483">
        <ele>831.888</ele>
        <time>2015-06-24T09:51:33Z</time>
      </trkpt>
      <trkpt lat="36.920637" lon="-3.649272">
        <ele>831.808</ele>
        <time>2015-06-24T09:51:40Z</time>
      </trkpt>
      <trkpt lat="36.920886" lon="-3.648998">
        <ele>831.81</ele>
        <time>2015-06-24T09:51:49Z</time>
      </trkpt>
      <trkpt lat="36.920974" lon="-3.648736">
        <ele>831.888</ele>
        <time>2015-06-24T09:51:55Z</time>
      </trkpt>
      <trkpt lat="36.921001" lon="-3.648525">
        <ele>831.881</ele>
        <time>2015-06-24T09:51:59Z</time>
      </trkpt>
      <trkpt lat="36.921085" lon="-3.648261">
        <ele>831.855</ele>
        <time>2015-06-24T09:52:05Z</time>
      </trkpt>
      <trkpt lat="36.921596" lon="-3.647122">
        <ele>834.616</ele>
        <time>2015-06-24T09:52:45Z</time>
      </trkpt>
      <trkpt lat="36.921815" lon="-3.646638">
        <ele>838.01</ele>
        <time>2015-06-24T09:53:06Z</time>
      </trkpt>
      <trkpt lat="36.922106" lon="-3.646143">
        <ele>840.448</ele>
        <time>2015-06-24T09:53:32Z</time>
      </trkpt>
      <trkpt lat="36.922359" lon="-3.645446">
        <ele>846.262</ele>
        <time>2015-06-24T09:54:06Z</time>
      </trkpt>
      <trkpt lat="36.922532" lon="-3.64466">
        <ele>850.291</ele>
        <time>2015-06-24T09:54:40Z</time>
      </trkpt>
      <trkpt lat="36.922847" lon="-3.644046">
        <ele>852.433</ele>
        <time>2015-06-24T09:55:07Z</time>
      </trkpt>
      <trkpt lat="36.922978" lon="-3.643843">
        <ele>854.673</ele>
        <time>2015-06-24T09:55:16Z</time>
      </trkpt>
      <trkpt lat="36.923134" lon="-3.643672">
        <ele>854.608</ele>
        <time>2015-06-24T09:55:24Z</time>
      </trkpt>
      <trkpt lat="36.923382" lon="-3.643093">
        <ele>856.63</ele>
        <time>2015-06-24T09:55:42Z</time>
      </trkpt>
      <trkpt lat="36.92356" lon="-3.642456">
        <ele>855.408</ele>
        <time>2015-06-24T09:55:54Z</time>
      </trkpt>
      <trkpt lat="36.92379" lon="-3.641564">
        <ele>852.03</ele>
        <time>2015-06-24T09:56:03Z</time>
      </trkpt>
      <trkpt lat="36.924258" lon="-3.64029">
        <ele>845.085</ele>
        <time>2015-06-24T09:56:14Z</time>
      </trkpt>
      <trkpt lat="36.924406" lon="-3.639654">
        <ele>842.208</ele>
        <time>2015-06-24T09:56:19Z</time>
      </trkpt>
      <trkpt lat="36.924545" lon="-3.638862">
        <ele>839.26</ele>
        <time>2015-06-24T09:56:26Z</time>
      </trkpt>
      <trkpt lat="36.924664" lon="-3.63857">
        <ele>838.057</ele>
        <time>2015-06-24T09:56:29Z</time>
      </trkpt>
      <trkpt lat="36.925179" lon="-3.637556">
        <ele>834.486</ele>
        <time>2015-06-24T09:56:40Z</time>
      </trkpt>
      <trkpt lat="36.925719" lon="-3.636991">
        <ele>830.648</ele>
        <time>2015-06-24T09:56:47Z</time>
      </trkpt>
      <trkpt lat="36.925869" lon="-3.636759">
        <ele>829.453</ele>
        <time>2015-06-24T09:56:49Z</time>
      </trkpt>
      <trkpt lat="36.925979" lon="-3.636342">
        <ele>827.084</ele>
        <time>2015-06-24T09:56:52Z</time>
      </trkpt>
      <trkpt lat="36.926011" lon="-3.636062">
        <ele>825.274</ele>
        <time>2015-06-24T09:56:54Z</time>
      </trkpt>
      <trkpt lat="36.925989" lon="-3.635979">
        <ele>819.256</ele>
        <time>2015-06-24T09:57:27Z</time>
      </trkpt>
      <trkpt lat="36.925972" lon="-3.635826">
        <ele>817.493</ele>
        <time>2015-06-24T09:57:31Z</time>
      </trkpt>
      <trkpt lat="36.925907" lon="-3.635623">
        <ele>815.028</ele>
        <time>2015-06-24T09:57:36Z</time>
      </trkpt>
      <trkpt lat="36.92582" lon="-3.635408">
        <ele>810.008</ele>
        <time>2015-06-24T09:57:41Z</time>
      </trkpt>
      <trkpt lat="36.925836" lon="-3.635161">
        <ele>806.076</ele>
        <time>2015-06-24T09:57:45Z</time>
      </trkpt>
      <trkpt lat="36.925864" lon="-3.634982">
        <ele>800.839</ele>
        <time>2015-06-24T09:57:49Z</time>
      </trkpt>
      <trkpt lat="36.925846" lon="-3.634841">
        <ele>797.407</ele>
        <time>2015-06-24T09:57:52Z</time>
      </trkpt>
      <trkpt lat="36.925883" lon="-3.634631">
        <ele>794.077</ele>
        <time>2015-06-24T09:57:56Z</time>
      </trkpt>
      <trkpt lat="36.925851" lon="-3.634534">
        <ele>792.275</ele>
        <time>2015-06-24T09:57:58Z</time>
      </trkpt>
      <trkpt lat="36.925992" lon="-3.634091">
        <ele>786.808</ele>
        <time>2015-06-24T09:58:05Z</time>
      </trkpt>
      <trkpt lat="36.926051" lon="-3.633879">
        <ele>783.075</ele>
        <time>2015-06-24T09:58:09Z</time>
      </trkpt>
      <trkpt lat="36.926135" lon="-3.633733">
        <ele>780.648</ele>
        <time>2015-06-24T09:58:11Z</time>
      </trkpt>
      <trkpt lat="36.926445" lon="-3.633545">
        <ele>773.617</ele>
        <time>2015-06-24T09:58:16Z</time>
      </trkpt>
      <trkpt lat="36.926616" lon="-3.633354">
        <ele>769.059</ele>
        <time>2015-06-24T09:58:21Z</time>
      </trkpt>
      <trkpt lat="36.926655" lon="-3.633254">
        <ele>767.046</ele>
        <time>2015-06-24T09:58:24Z</time>
      </trkpt>
      <trkpt lat="36.926622" lon="-3.633134">
        <ele>764.261</ele>
        <time>2015-06-24T09:58:27Z</time>
      </trkpt>
      <trkpt lat="36.926684" lon="-3.633078">
        <ele>759.007</ele>
        <time>2015-06-24T10:01:06Z</time>
      </trkpt>
      <trkpt lat="36.926753" lon="-3.63295">
        <ele>758.608</ele>
        <time>2015-06-24T10:01:09Z</time>
      </trkpt>
      <trkpt lat="36.926735" lon="-3.632678">
        <ele>756.877</ele>
        <time>2015-06-24T10:01:14Z</time>
      </trkpt>
      <trkpt lat="36.926681" lon="-3.632562">
        <ele>756.89</ele>
        <time>2015-06-24T10:01:19Z</time>
      </trkpt>
      <trkpt lat="36.92668" lon="-3.632491">
        <ele>756.274</ele>
        <time>2015-06-24T10:01:24Z</time>
      </trkpt>
      <trkpt lat="36.927056" lon="-3.632459">
        <ele>754.235</ele>
        <time>2015-06-24T10:01:36Z</time>
      </trkpt>
      <trkpt lat="36.927225" lon="-3.632278">
        <ele>752.601</ele>
        <time>2015-06-24T10:01:46Z</time>
      </trkpt>
      <trkpt lat="36.927373" lon="-3.631988">
        <ele>752.676</ele>
        <time>2015-06-24T10:01:57Z</time>
      </trkpt>
      <trkpt lat="36.927514" lon="-3.631814">
        <ele>752.681</ele>
        <time>2015-06-24T10:02:04Z</time>
      </trkpt>
      <trkpt lat="36.928051" lon="-3.631591">
        <ele>752.632</ele>
        <time>2015-06-24T10:02:22Z</time>
      </trkpt>
      <trkpt lat="36.928186" lon="-3.631543">
        <ele>750.26</ele>
        <time>2015-06-24T10:02:40Z</time>
      </trkpt>
      <trkpt lat="36.928253" lon="-3.631468">
        <ele>750.248</ele>
        <time>2015-06-24T10:02:44Z</time>
      </trkpt>
      <trkpt lat="36.928495" lon="-3.631319">
        <ele>750.235</ele>
        <time>2015-06-24T10:02:54Z</time>
      </trkpt>
      <trkpt lat="36.928601" lon="-3.631062">
        <ele>749.068</ele>
        <time>2015-06-24T10:03:01Z</time>
      </trkpt>
      <trkpt lat="36.928614" lon="-3.63095">
        <ele>748.297</ele>
        <time>2015-06-24T10:03:04Z</time>
      </trkpt>
      <trkpt lat="36.928506" lon="-3.630458">
        <ele>748.282</ele>
        <time>2015-06-24T10:03:13Z</time>
      </trkpt>
      <trkpt lat="36.928654" lon="-3.630353">
        <ele>748.25</ele>
        <time>2015-06-24T10:03:15Z</time>
      </trkpt>
      <trkpt lat="36.928785" lon="-3.630039">
        <ele>746.233</ele>
        <time>2015-06-24T10:03:21Z</time>
      </trkpt>
      <trkpt lat="36.92874" lon="-3.629897">
        <ele>746.226</ele>
        <time>2015-06-24T10:03:24Z</time>
      </trkpt>
      <trkpt lat="36.928666" lon="-3.629805">
        <ele>746.208</ele>
        <time>2015-06-24T10:03:25Z</time>
      </trkpt>
      <trkpt lat="36.92869" lon="-3.629389">
        <ele>744.641</ele>
        <time>2015-06-24T10:03:30Z</time>
      </trkpt>
      <trkpt lat="36.92892" lon="-3.62888">
        <ele>742.607</ele>
        <time>2015-06-24T10:03:38Z</time>
      </trkpt>
      <trkpt lat="36.928933" lon="-3.628707">
        <ele>742.064</ele>
        <time>2015-06-24T10:03:41Z</time>
      </trkpt>
      <trkpt lat="36.928864" lon="-3.628292">
        <ele>742.027</ele>
        <time>2015-06-24T10:03:51Z</time>
      </trkpt>
      <trkpt lat="36.929108" lon="-3.62666">
        <ele>742.049</ele>
        <time>2015-06-24T10:04:28Z</time>
      </trkpt>
      <trkpt lat="36.929054" lon="-3.62639">
        <ele>742.029</ele>
        <time>2015-06-24T10:04:34Z</time>
      </trkpt>
      <trkpt lat="36.928961" lon="-3.626151">
        <ele>742.086</ele>
        <time>2015-06-24T10:04:52Z</time>
      </trkpt>
      <trkpt lat="36.928802" lon="-3.625655">
        <ele>734.024</ele>
        <time>2015-06-24T10:30:58Z</time>
      </trkpt>
      <trkpt lat="36.928646" lon="-3.625239">
        <ele>734.028</ele>
        <time>2015-06-24T10:31:17Z</time>
      </trkpt>
      <trkpt lat="36.9285" lon="-3.624584">
        <ele>735.249</ele>
        <time>2015-06-24T10:31:43Z</time>
      </trkpt>
      <trkpt lat="36.928526" lon="-3.624394">
        <ele>736.085</ele>
        <time>2015-06-24T10:31:51Z</time>
      </trkpt>
      <trkpt lat="36.928425" lon="-3.624019">
        <ele>736.026</ele>
        <time>2015-06-24T10:32:04Z</time>
      </trkpt>
      <trkpt lat="36.928413" lon="-3.623722">
        <ele>736.001</ele>
        <time>2015-06-24T10:32:13Z</time>
      </trkpt>
      <trkpt lat="36.928315" lon="-3.62356">
        <ele>735.244</ele>
        <time>2015-06-24T10:32:18Z</time>
      </trkpt>
      <trkpt lat="36.928182" lon="-3.623067">
        <ele>733.814</ele>
        <time>2015-06-24T10:32:26Z</time>
      </trkpt>
      <trkpt lat="36.928156" lon="-3.62282">
        <ele>733.86</ele>
        <time>2015-06-24T10:32:31Z</time>
      </trkpt>
      <trkpt lat="36.928122" lon="-3.622741">
        <ele>733.426</ele>
        <time>2015-06-24T10:32:34Z</time>
      </trkpt>
      <trkpt lat="36.928019" lon="-3.622799">
        <ele>731.222</ele>
        <time>2015-06-24T10:32:39Z</time>
      </trkpt>
      <trkpt lat="36.927925" lon="-3.622653">
        <ele>729.487</ele>
        <time>2015-06-24T10:32:44Z</time>
      </trkpt>
      <trkpt lat="36.927589" lon="-3.622547">
        <ele>724.642</ele>
        <time>2015-06-24T10:32:53Z</time>
      </trkpt>
      <trkpt lat="36.927532" lon="-3.622802">
        <ele>722.608</ele>
        <time>2015-06-24T10:33:00Z</time>
      </trkpt>
      <trkpt lat="36.927383" lon="-3.622627">
        <ele>718.604</ele>
        <time>2015-06-24T10:33:10Z</time>
      </trkpt>
      <trkpt lat="36.927188" lon="-3.622701">
        <ele>715.616</ele>
        <time>2015-06-24T10:33:18Z</time>
      </trkpt>
      <trkpt lat="36.927107" lon="-3.622719">
        <ele>714.459</ele>
        <time>2015-06-24T10:33:23Z</time>
      </trkpt>
      <trkpt lat="36.927052" lon="-3.622617">
        <ele>712.616</ele>
        <time>2015-06-24T10:33:27Z</time>
      </trkpt>
      <trkpt lat="36.927099" lon="-3.622331">
        <ele>711.659</ele>
        <time>2015-06-24T10:33:33Z</time>
      </trkpt>
      <trkpt lat="36.927056" lon="-3.622217">
        <ele>710.466</ele>
        <time>2015-06-24T10:33:36Z</time>
      </trkpt>
      <trkpt lat="36.927057" lon="-3.622151">
        <ele>710.022</ele>
        <time>2015-06-24T10:33:37Z</time>
      </trkpt>
      <trkpt lat="36.927148" lon="-3.622001">
        <ele>710.057</ele>
        <time>2015-06-24T10:33:40Z</time>
      </trkpt>
      <trkpt lat="36.92716" lon="-3.621812">
        <ele>710</ele>
        <time>2015-06-24T10:33:43Z</time>
      </trkpt>
      <trkpt lat="36.927097" lon="-3.621637">
        <ele>708.656</ele>
        <time>2015-06-24T10:33:47Z</time>
      </trkpt>
      <trkpt lat="36.927023" lon="-3.621581">
        <ele>707.861</ele>
        <time>2015-06-24T10:33:49Z</time>
      </trkpt>
      <trkpt lat="36.927017" lon="-3.621464">
        <ele>706.889</ele>
        <time>2015-06-24T10:33:51Z</time>
      </trkpt>
      <trkpt lat="36.927105" lon="-3.62124">
        <ele>703.208</ele>
        <time>2015-06-24T10:33:59Z</time>
      </trkpt>
      <trkpt lat="36.927093" lon="-3.621059">
        <ele>701.046</ele>
        <time>2015-06-24T10:34:06Z</time>
      </trkpt>
      <trkpt lat="36.927129" lon="-3.620901">
        <ele>701.083</ele>
        <time>2015-06-24T10:34:10Z</time>
      </trkpt>
      <trkpt lat="36.927175" lon="-3.620318">
        <ele>701.031</ele>
        <time>2015-06-24T10:34:23Z</time>
      </trkpt>
      <trkpt lat="36.927098" lon="-3.619176">
        <ele>699.05</ele>
        <time>2015-06-24T10:34:46Z</time>
      </trkpt>
      <trkpt lat="36.927192" lon="-3.618253">
        <ele>699.072</ele>
        <time>2015-06-24T10:34:59Z</time>
      </trkpt>
      <trkpt lat="36.927293" lon="-3.617921">
        <ele>699.014</ele>
        <time>2015-06-24T10:35:05Z</time>
      </trkpt>
      <trkpt lat="36.927628" lon="-3.617716">
        <ele>699.033</ele>
        <time>2015-06-24T10:35:13Z</time>
      </trkpt>
      <trkpt lat="36.927797" lon="-3.617514">
        <ele>698.071</ele>
        <time>2015-06-24T10:35:18Z</time>
      </trkpt>
      <trkpt lat="36.927864" lon="-3.617358">
        <ele>696.884</ele>
        <time>2015-06-24T10:35:21Z</time>
      </trkpt>
      <trkpt lat="36.927881" lon="-3.617059">
        <ele>696.849</ele>
        <time>2015-06-24T10:35:26Z</time>
      </trkpt>
      <trkpt lat="36.927778" lon="-3.617008">
        <ele>696.408</ele>
        <time>2015-06-24T10:35:29Z</time>
      </trkpt>
      <trkpt lat="36.92762" lon="-3.616921">
        <ele>694.865</ele>
        <time>2015-06-24T10:35:32Z</time>
      </trkpt>
      <trkpt lat="36.927499" lon="-3.616783">
        <ele>694.076</ele>
        <time>2015-06-24T10:35:35Z</time>
      </trkpt>
      <trkpt lat="36.927278" lon="-3.616629">
        <ele>694.408</ele>
        <time>2015-06-24T10:36:15Z</time>
      </trkpt>
      <trkpt lat="36.927217" lon="-3.616588">
        <ele>694.456</ele>
        <time>2015-06-24T10:36:41Z</time>
      </trkpt>
      <trkpt lat="36.927158" lon="-3.616483">
        <ele>694.472</ele>
        <time>2015-06-24T10:36:46Z</time>
      </trkpt>
      <trkpt lat="36.927173" lon="-3.616317">
        <ele>694.492</ele>
        <time>2015-06-24T10:36:51Z</time>
      </trkpt>
      <trkpt lat="36.927271" lon="-3.616035">
        <ele>694.408</ele>
        <time>2015-06-24T10:36:57Z</time>
      </trkpt>
      <trkpt lat="36.927264" lon="-3.615869">
        <ele>694.45</ele>
        <time>2015-06-24T10:36:59Z</time>
      </trkpt>
      <trkpt lat="36.927128" lon="-3.615585">
        <ele>692.293</ele>
        <time>2015-06-24T10:37:03Z</time>
      </trkpt>
      <trkpt lat="36.927008" lon="-3.615317">
        <ele>687.675</ele>
        <time>2015-06-24T10:37:13Z</time>
      </trkpt>
      <trkpt lat="36.926901" lon="-3.615024">
        <ele>685.24</ele>
        <time>2015-06-24T10:37:22Z</time>
      </trkpt>
      <trkpt lat="36.92688" lon="-3.614865">
        <ele>683.208</ele>
        <time>2015-06-24T10:37:28Z</time>
      </trkpt>
      <trkpt lat="36.926677" lon="-3.61419">
        <ele>683.229</ele>
        <time>2015-06-24T10:45:34Z</time>
      </trkpt>
      <trkpt lat="36.926688" lon="-3.614192">
        <ele>681.275</ele>
        <time>2015-06-24T10:51:33Z</time>
      </trkpt>
      <trkpt lat="36.926684" lon="-3.61419">
        <ele>679.683</ele>
        <time>2015-06-24T10:56:45Z</time>
      </trkpt>
      <trkpt lat="36.926584" lon="-3.61404">
        <ele>677.008</ele>
        <time>2015-06-24T11:03:57Z</time>
      </trkpt>
      <trkpt lat="36.926512" lon="-3.613688">
        <ele>675.489</ele>
        <time>2015-06-24T11:04:04Z</time>
      </trkpt>
      <trkpt lat="36.926513" lon="-3.613498">
        <ele>672.421</ele>
        <time>2015-06-24T11:04:08Z</time>
      </trkpt>
      <trkpt lat="36.926446" lon="-3.613259">
        <ele>670.447</ele>
        <time>2015-06-24T11:04:13Z</time>
      </trkpt>
      <trkpt lat="36.926424" lon="-3.612987">
        <ele>669.658</ele>
        <time>2015-06-24T11:04:20Z</time>
      </trkpt>
      <trkpt lat="36.926469" lon="-3.612627">
        <ele>666.037</ele>
        <time>2015-06-24T11:04:30Z</time>
      </trkpt>
      <trkpt lat="36.926393" lon="-3.612363">
        <ele>666.072</ele>
        <time>2015-06-24T11:04:37Z</time>
      </trkpt>
      <trkpt lat="36.92658" lon="-3.611888">
        <ele>666.069</ele>
        <time>2015-06-24T11:05:04Z</time>
      </trkpt>
      <trkpt lat="36.926788" lon="-3.611627">
        <ele>666.059</ele>
        <time>2015-06-24T11:05:18Z</time>
      </trkpt>
      <trkpt lat="36.926839" lon="-3.611538">
        <ele>664.419</ele>
        <time>2015-06-24T11:05:23Z</time>
      </trkpt>
      <trkpt lat="36.927012" lon="-3.611572">
        <ele>664.083</ele>
        <time>2015-06-24T11:05:33Z</time>
      </trkpt>
      <trkpt lat="36.927052" lon="-3.611311">
        <ele>661.826</ele>
        <time>2015-06-24T11:05:45Z</time>
      </trkpt>
      <trkpt lat="36.927147" lon="-3.611175">
        <ele>661.862</ele>
        <time>2015-06-24T11:05:58Z</time>
      </trkpt>
      <trkpt lat="36.927006" lon="-3.610965">
        <ele>661.842</ele>
        <time>2015-06-24T11:09:00Z</time>
      </trkpt>
      <trkpt lat="36.927027" lon="-3.610623">
        <ele>661.427</ele>
        <time>2015-06-24T11:09:16Z</time>
      </trkpt>
      <trkpt lat="36.927001" lon="-3.61012">
        <ele>658.035</ele>
        <time>2015-06-24T11:09:30Z</time>
      </trkpt>
      <trkpt lat="36.926894" lon="-3.609927">
        <ele>656.472</ele>
        <time>2015-06-24T11:09:38Z</time>
      </trkpt>
      <trkpt lat="36.926745" lon="-3.609792">
        <ele>653.821</ele>
        <time>2015-06-24T11:09:46Z</time>
      </trkpt>
      <trkpt lat="36.926645" lon="-3.609447">
        <ele>650.843</ele>
        <time>2015-06-24T11:10:01Z</time>
      </trkpt>
      <trkpt lat="36.926705" lon="-3.609216">
        <ele>648.433</ele>
        <time>2015-06-24T11:10:26Z</time>
      </trkpt>
      <trkpt lat="36.926423" lon="-3.608741">
        <ele>647.279</ele>
        <time>2015-06-24T11:10:45Z</time>
      </trkpt>
      <trkpt lat="36.926319" lon="-3.608673">
        <ele>644.893</ele>
        <time>2015-06-24T11:10:50Z</time>
      </trkpt>
      <trkpt lat="36.926183" lon="-3.608468">
        <ele>640.023</ele>
        <time>2015-06-24T11:11:00Z</time>
      </trkpt>
      <trkpt lat="36.92625" lon="-3.607728">
        <ele>639.266</ele>
        <time>2015-06-24T11:11:21Z</time>
      </trkpt>
      <trkpt lat="36.926201" lon="-3.60706">
        <ele>637.808</ele>
        <time>2015-06-24T11:11:30Z</time>
      </trkpt>
      <trkpt lat="36.926217" lon="-3.606536">
        <ele>636.847</ele>
        <time>2015-06-24T11:11:37Z</time>
      </trkpt>
      <trkpt lat="36.926464" lon="-3.605962">
        <ele>636.801</ele>
        <time>2015-06-24T11:11:52Z</time>
      </trkpt>
      <trkpt lat="36.926592" lon="-3.605757">
        <ele>636.821</ele>
        <time>2015-06-24T11:11:57Z</time>
      </trkpt>
      <trkpt lat="36.926739" lon="-3.605109">
        <ele>636.869</ele>
        <time>2015-06-24T11:12:06Z</time>
      </trkpt>
      <trkpt lat="36.926719" lon="-3.604722">
        <ele>634.894</ele>
        <time>2015-06-24T11:12:12Z</time>
      </trkpt>
      <trkpt lat="36.926745" lon="-3.604338">
        <ele>634.822</ele>
        <time>2015-06-24T11:12:19Z</time>
      </trkpt>
      <trkpt lat="36.926826" lon="-3.604238">
        <ele>634.86</ele>
        <time>2015-06-24T11:12:23Z</time>
      </trkpt>
      <trkpt lat="36.927117" lon="-3.604248">
        <ele>634.823</ele>
        <time>2015-06-24T11:12:31Z</time>
      </trkpt>
      <trkpt lat="36.927345" lon="-3.604162">
        <ele>634.826</ele>
        <time>2015-06-24T11:12:39Z</time>
      </trkpt>
      <trkpt lat="36.927463" lon="-3.603981">
        <ele>634.81</ele>
        <time>2015-06-24T11:12:45Z</time>
      </trkpt>
      <trkpt lat="36.927432" lon="-3.603588">
        <ele>634.86</ele>
        <time>2015-06-24T11:12:53Z</time>
      </trkpt>
      <trkpt lat="36.927409" lon="-3.603518">
        <ele>634.826</ele>
        <time>2015-06-24T11:12:54Z</time>
      </trkpt>
      <trkpt lat="36.927566" lon="-3.60318">
        <ele>632.492</ele>
        <time>2015-06-24T11:13:01Z</time>
      </trkpt>
      <trkpt lat="36.927858" lon="-3.603">
        <ele>631.899</ele>
        <time>2015-06-24T11:13:07Z</time>
      </trkpt>
      <trkpt lat="36.927938" lon="-3.602809">
        <ele>630.026</ele>
        <time>2015-06-24T11:13:10Z</time>
      </trkpt>
      <trkpt lat="36.928061" lon="-3.602558">
        <ele>629.633</ele>
        <time>2015-06-24T11:13:15Z</time>
      </trkpt>
      <trkpt lat="36.928234" lon="-3.602405">
        <ele>628.076</ele>
        <time>2015-06-24T11:13:19Z</time>
      </trkpt>
      <trkpt lat="36.928395" lon="-3.602093">
        <ele>628.079</ele>
        <time>2015-06-24T11:13:24Z</time>
      </trkpt>
      <trkpt lat="36.928473" lon="-3.601467">
        <ele>624.045</ele>
        <time>2015-06-24T11:13:31Z</time>
      </trkpt>
      <trkpt lat="36.928466" lon="-3.601262">
        <ele>620.876</ele>
        <time>2015-06-24T11:13:34Z</time>
      </trkpt>
      <trkpt lat="36.928538" lon="-3.60104">
        <ele>615.208</ele>
        <time>2015-06-24T11:13:40Z</time>
      </trkpt>
      <trkpt lat="36.928449" lon="-3.601">
        <ele>612.64</ele>
        <time>2015-06-24T11:13:43Z</time>
      </trkpt>
      <trkpt lat="36.928332" lon="-3.601094">
        <ele>610.891</ele>
        <time>2015-06-24T11:13:46Z</time>
      </trkpt>
      <trkpt lat="36.928214" lon="-3.60122">
        <ele>609.626</ele>
        <time>2015-06-24T11:13:49Z</time>
      </trkpt>
      <trkpt lat="36.928004" lon="-3.601327">
        <ele>607.023</ele>
        <time>2015-06-24T11:13:53Z</time>
      </trkpt>
      <trkpt lat="36.927938" lon="-3.601237">
        <ele>605.488</ele>
        <time>2015-06-24T11:13:55Z</time>
      </trkpt>
      <trkpt lat="36.927851" lon="-3.600849">
        <ele>600.623</ele>
        <time>2015-06-24T11:13:59Z</time>
      </trkpt>
      <trkpt lat="36.927846" lon="-3.600524">
        <ele>596.608</ele>
        <time>2015-06-24T11:14:04Z</time>
      </trkpt>
      <trkpt lat="36.927778" lon="-3.60022">
        <ele>596.22</ele>
        <time>2015-06-24T11:14:10Z</time>
      </trkpt>
      <trkpt lat="36.92787" lon="-3.599794">
        <ele>593.435</ele>
        <time>2015-06-24T11:14:15Z</time>
      </trkpt>
      <trkpt lat="36.928014" lon="-3.599501">
        <ele>589.808</ele>
        <time>2015-06-24T11:14:20Z</time>
      </trkpt>
      <trkpt lat="36.928339" lon="-3.599374">
        <ele>583.078</ele>
        <time>2015-06-24T11:14:28Z</time>
      </trkpt>
      <trkpt lat="36.928486" lon="-3.599262">
        <ele>579.032</ele>
        <time>2015-06-24T11:14:46Z</time>
      </trkpt>
      <trkpt lat="36.92879" lon="-3.598928">
        <ele>574.411</ele>
        <time>2015-06-24T11:15:02Z</time>
      </trkpt>
      <trkpt lat="36.929018" lon="-3.598119">
        <ele>570.01</ele>
        <time>2015-06-24T11:15:12Z</time>
      </trkpt>
      <trkpt lat="36.929118" lon="-3.597986">
        <ele>567.425</ele>
        <time>2015-06-24T11:15:16Z</time>
      </trkpt>
      <trkpt lat="36.929055" lon="-3.597802">
        <ele>566.233</ele>
        <time>2015-06-24T11:15:19Z</time>
      </trkpt>
      <trkpt lat="36.929045" lon="-3.597391">
        <ele>564.273</ele>
        <time>2015-06-24T11:15:24Z</time>
      </trkpt>
      <trkpt lat="36.929129" lon="-3.596973">
        <ele>561.834</ele>
        <time>2015-06-24T11:15:29Z</time>
      </trkpt>
      <trkpt lat="36.929186" lon="-3.596454">
        <ele>560.084</ele>
        <time>2015-06-24T11:15:36Z</time>
      </trkpt>
      <trkpt lat="36.929155" lon="-3.596383">
        <ele>559.239</ele>
        <time>2015-06-24T11:15:38Z</time>
      </trkpt>
      <trkpt lat="36.929112" lon="-3.596394">
        <ele>559.247</ele>
        <time>2015-06-24T11:15:40Z</time>
      </trkpt>
      <trkpt lat="36.929012" lon="-3.596619">
        <ele>557.864</ele>
        <time>2015-06-24T11:15:45Z</time>
      </trkpt>
      <trkpt lat="36.928861" lon="-3.59664">
        <ele>557.019</ele>
        <time>2015-06-24T11:15:51Z</time>
      </trkpt>
      <trkpt lat="36.928792" lon="-3.596561">
        <ele>557.073</ele>
        <time>2015-06-24T11:16:00Z</time>
      </trkpt>
      <trkpt lat="36.928754" lon="-3.596584">
        <ele>557.094</ele>
        <time>2015-06-24T11:16:06Z</time>
      </trkpt>
      <trkpt lat="36.928686" lon="-3.596556">
        <ele>559.095</ele>
        <time>2015-06-24T11:16:13Z</time>
      </trkpt>
      <trkpt lat="36.928508" lon="-3.596441">
        <ele>563.265</ele>
        <time>2015-06-24T11:16:35Z</time>
      </trkpt>
      <trkpt lat="36.928466" lon="-3.596397">
        <ele>563.278</ele>
        <time>2015-06-24T11:16:41Z</time>
      </trkpt>
      <trkpt lat="36.92835" lon="-3.596298">
        <ele>565.24</ele>
        <time>2015-06-24T11:16:54Z</time>
      </trkpt>
      <trkpt lat="36.928278" lon="-3.59602">
        <ele>567.443</ele>
        <time>2015-06-24T11:17:10Z</time>
      </trkpt>
      <trkpt lat="36.928238" lon="-3.595778">
        <ele>569.47</ele>
        <time>2015-06-24T11:17:22Z</time>
      </trkpt>
      <trkpt lat="36.928192" lon="-3.595742">
        <ele>569.49</ele>
        <time>2015-06-24T11:17:25Z</time>
      </trkpt>
      <trkpt lat="36.928166" lon="-3.595502">
        <ele>571.458</ele>
        <time>2015-06-24T11:17:37Z</time>
      </trkpt>
      <trkpt lat="36.928156" lon="-3.595135">
        <ele>573.499</ele>
        <time>2015-06-24T11:17:55Z</time>
      </trkpt>
      <trkpt lat="36.928092" lon="-3.594966">
        <ele>573.422</ele>
        <time>2015-06-24T11:18:05Z</time>
      </trkpt>
      <trkpt lat="36.927985" lon="-3.594725">
        <ele>575.621</ele>
        <time>2015-06-24T11:18:20Z</time>
      </trkpt>
      <trkpt lat="36.927883" lon="-3.594286">
        <ele>579.645</ele>
        <time>2015-06-24T11:18:43Z</time>
      </trkpt>
      <trkpt lat="36.927833" lon="-3.593889">
        <ele>580.422</ele>
        <time>2015-06-24T11:19:03Z</time>
      </trkpt>
      <trkpt lat="36.927407" lon="-3.593437">
        <ele>587.628</ele>
        <time>2015-06-24T11:19:43Z</time>
      </trkpt>
      <trkpt lat="36.927332" lon="-3.593134">
        <ele>589.61</ele>
        <time>2015-06-24T11:20:00Z</time>
      </trkpt>
      <trkpt lat="36.927282" lon="-3.592594">
        <ele>588.665</ele>
        <time>2015-06-24T11:20:06Z</time>
      </trkpt>
      <trkpt lat="36.92723" lon="-3.592389">
        <ele>585.243</ele>
        <time>2015-06-24T11:20:09Z</time>
      </trkpt>
      <trkpt lat="36.927278" lon="-3.59232">
        <ele>583.608</ele>
        <time>2015-06-24T11:20:11Z</time>
      </trkpt>
      <trkpt lat="36.9275" lon="-3.592336">
        <ele>580.455</ele>
        <time>2015-06-24T11:20:17Z</time>
      </trkpt>
      <trkpt lat="36.927712" lon="-3.592272">
        <ele>579.815</ele>
        <time>2015-06-24T11:20:22Z</time>
      </trkpt>
      <trkpt lat="36.927861" lon="-3.592016">
        <ele>577.408</ele>
        <time>2015-06-24T11:20:26Z</time>
      </trkpt>
      <trkpt lat="36.928089" lon="-3.591464">
        <ele>570.299</ele>
        <time>2015-06-24T11:20:33Z</time>
      </trkpt>
      <trkpt lat="36.928452" lon="-3.591151">
        <ele>569.097</ele>
        <time>2015-06-24T11:20:50Z</time>
      </trkpt>
      <trkpt lat="36.928613" lon="-3.591048">
        <ele>572.475</ele>
        <time>2015-06-24T11:21:04Z</time>
      </trkpt>
      <trkpt lat="36.928794" lon="-3.590458">
        <ele>573.094</ele>
        <time>2015-06-24T11:27:54Z</time>
      </trkpt>
      <trkpt lat="36.92869" lon="-3.589981">
        <ele>573.813</ele>
        <time>2015-06-24T11:28:17Z</time>
      </trkpt>
      <trkpt lat="36.928535" lon="-3.589506">
        <ele>575.051</ele>
        <time>2015-06-24T11:28:29Z</time>
      </trkpt>
      <trkpt lat="36.928459" lon="-3.588814">
        <ele>572.679</ele>
        <time>2015-06-24T11:28:40Z</time>
      </trkpt>
      <trkpt lat="36.92846" lon="-3.588508">
        <ele>572.636</ele>
        <time>2015-06-24T11:28:47Z</time>
      </trkpt>
      <trkpt lat="36.92838" lon="-3.58844">
        <ele>572.684</ele>
        <time>2015-06-24T11:28:50Z</time>
      </trkpt>
      <trkpt lat="36.928098" lon="-3.588388">
        <ele>572.608</ele>
        <time>2015-06-24T11:29:01Z</time>
      </trkpt>
      <trkpt lat="36.927808" lon="-3.587934">
        <ele>572.662</ele>
        <time>2015-06-24T11:29:12Z</time>
      </trkpt>
      <trkpt lat="36.927597" lon="-3.58782">
        <ele>572.669</ele>
        <time>2015-06-24T11:29:17Z</time>
      </trkpt>
      <trkpt lat="36.927534" lon="-3.587755">
        <ele>572.625</ele>
        <time>2015-06-24T11:29:19Z</time>
      </trkpt>
      <trkpt lat="36.927576" lon="-3.58769">
        <ele>572.685</ele>
        <time>2015-06-24T11:29:21Z</time>
      </trkpt>
      <trkpt lat="36.927708" lon="-3.587684">
        <ele>571.408</ele>
        <time>2015-06-24T11:29:24Z</time>
      </trkpt>
      <trkpt lat="36.927806" lon="-3.587614">
        <ele>570.434</ele>
        <time>2015-06-24T11:29:26Z</time>
      </trkpt>
      <trkpt lat="36.927866" lon="-3.58746">
        <ele>570.092</ele>
        <time>2015-06-24T11:29:28Z</time>
      </trkpt>
      <trkpt lat="36.927976" lon="-3.58739">
        <ele>569.025</ele>
        <time>2015-06-24T11:29:30Z</time>
      </trkpt>
      <trkpt lat="36.928033" lon="-3.587518">
        <ele>567.059</ele>
        <time>2015-06-24T11:29:34Z</time>
      </trkpt>
      <trkpt lat="36.928035" lon="-3.587594">
        <ele>566.036</ele>
        <time>2015-06-24T11:29:38Z</time>
      </trkpt>
      <trkpt lat="36.928053" lon="-3.587648">
        <ele>566.091</ele>
        <time>2015-06-24T11:29:40Z</time>
      </trkpt>
      <trkpt lat="36.928154" lon="-3.587681">
        <ele>566.079</ele>
        <time>2015-06-24T11:29:43Z</time>
      </trkpt>
      <trkpt lat="36.928755" lon="-3.587207">
        <ele>565.026</ele>
        <time>2015-06-24T11:29:55Z</time>
      </trkpt>
      <trkpt lat="36.928965" lon="-3.58679">
        <ele>562.036</ele>
        <time>2015-06-24T11:30:02Z</time>
      </trkpt>
      <trkpt lat="36.928982" lon="-3.586658">
        <ele>561.679</ele>
        <time>2015-06-24T11:30:04Z</time>
      </trkpt>
      <trkpt lat="36.928881" lon="-3.58648">
        <ele>559.621</ele>
        <time>2015-06-24T11:30:07Z</time>
      </trkpt>
      <trkpt lat="36.928285" lon="-3.586605">
        <ele>552.069</ele>
        <time>2015-06-24T11:30:16Z</time>
      </trkpt>
      <trkpt lat="36.928151" lon="-3.58654">
        <ele>549.299</ele>
        <time>2015-06-24T11:30:18Z</time>
      </trkpt>
      <trkpt lat="36.928039" lon="-3.586433">
        <ele>546.229</ele>
        <time>2015-06-24T11:30:20Z</time>
      </trkpt>
      <trkpt lat="36.927903" lon="-3.586106">
        <ele>541.072</ele>
        <time>2015-06-24T11:30:24Z</time>
      </trkpt>
      <trkpt lat="36.927923" lon="-3.586026">
        <ele>538.87</ele>
        <time>2015-06-24T11:30:26Z</time>
      </trkpt>
      <trkpt lat="36.92804" lon="-3.586039">
        <ele>536.642</ele>
        <time>2015-06-24T11:30:34Z</time>
      </trkpt>
      <trkpt lat="36.928277" lon="-3.585816">
        <ele>538.685</ele>
        <time>2015-06-24T11:30:53Z</time>
      </trkpt>
      <trkpt lat="36.928518" lon="-3.585652">
        <ele>538.623</ele>
        <time>2015-06-24T11:31:07Z</time>
      </trkpt>
      <trkpt lat="36.928797" lon="-3.58537">
        <ele>540.892</ele>
        <time>2015-06-24T11:31:26Z</time>
      </trkpt>
      <trkpt lat="36.929022" lon="-3.585166">
        <ele>541.285</ele>
        <time>2015-06-24T11:31:42Z</time>
      </trkpt>
      <trkpt lat="36.929201" lon="-3.585112">
        <ele>544.898</ele>
        <time>2015-06-24T11:31:55Z</time>
      </trkpt>
      <trkpt lat="36.929373" lon="-3.585119">
        <ele>547.024</ele>
        <time>2015-06-24T11:32:08Z</time>
      </trkpt>
      <trkpt lat="36.92943" lon="-3.584973">
        <ele>549.055</ele>
        <time>2015-06-24T11:32:17Z</time>
      </trkpt>
      <trkpt lat="36.929456" lon="-3.584452">
        <ele>549.029</ele>
        <time>2015-06-24T11:32:41Z</time>
      </trkpt>
      <trkpt lat="36.929449" lon="-3.58435">
        <ele>549.047</ele>
        <time>2015-06-24T11:32:46Z</time>
      </trkpt>
      <trkpt lat="36.929477" lon="-3.584253">
        <ele>549.04</ele>
        <time>2015-06-24T11:32:51Z</time>
      </trkpt>
      <trkpt lat="36.929371" lon="-3.583902">
        <ele>549.472</ele>
        <time>2015-06-24T11:33:08Z</time>
      </trkpt>
      <trkpt lat="36.929382" lon="-3.583703">
        <ele>551.268</ele>
        <time>2015-06-24T11:33:13Z</time>
      </trkpt>
      <trkpt lat="36.929373" lon="-3.583476">
        <ele>551.288</ele>
        <time>2015-06-24T11:33:22Z</time>
      </trkpt>
      <trkpt lat="36.929551" lon="-3.583313">
        <ele>551.286</ele>
        <time>2015-06-24T11:33:39Z</time>
      </trkpt>
      <trkpt lat="36.929719" lon="-3.583276">
        <ele>551.241</ele>
        <time>2015-06-24T11:33:44Z</time>
      </trkpt>
      <trkpt lat="36.930136" lon="-3.58352">
        <ele>549.014</ele>
        <time>2015-06-24T11:33:57Z</time>
      </trkpt>
      <trkpt lat="36.930289" lon="-3.583419">
        <ele>548.658</ele>
        <time>2015-06-24T11:34:03Z</time>
      </trkpt>
      <trkpt lat="36.930393" lon="-3.583156">
        <ele>547.043</ele>
        <time>2015-06-24T11:34:08Z</time>
      </trkpt>
      <trkpt lat="36.930431" lon="-3.582753">
        <ele>546.262</ele>
        <time>2015-06-24T11:34:13Z</time>
      </trkpt>
      <trkpt lat="36.930328" lon="-3.582324">
        <ele>544.032</ele>
        <time>2015-06-24T11:34:19Z</time>
      </trkpt>
      <trkpt lat="36.930373" lon="-3.582319">
        <ele>542.653</ele>
        <time>2015-06-24T11:34:22Z</time>
      </trkpt>
      <trkpt lat="36.930417" lon="-3.582352">
        <ele>542.273</ele>
        <time>2015-06-24T11:34:24Z</time>
      </trkpt>
      <trkpt lat="36.930455" lon="-3.582212">
        <ele>540.208</ele>
        <time>2015-06-24T11:34:28Z</time>
      </trkpt>
      <trkpt lat="36.930469" lon="-3.582074">
        <ele>538.032</ele>
        <time>2015-06-24T11:34:32Z</time>
      </trkpt>
      <trkpt lat="36.930526" lon="-3.582081">
        <ele>536.875</ele>
        <time>2015-06-24T11:34:34Z</time>
      </trkpt>
      <trkpt lat="36.930605" lon="-3.582239">
        <ele>533.656</ele>
        <time>2015-06-24T11:34:38Z</time>
      </trkpt>
      <trkpt lat="36.930717" lon="-3.58225">
        <ele>532.808</ele>
        <time>2015-06-24T11:34:40Z</time>
      </trkpt>
      <trkpt lat="36.930807" lon="-3.582105">
        <ele>532.021</ele>
        <time>2015-06-24T11:34:42Z</time>
      </trkpt>
      <trkpt lat="36.93089" lon="-3.581628">
        <ele>530.026</ele>
        <time>2015-06-24T11:34:47Z</time>
      </trkpt>
      <trkpt lat="36.930821" lon="-3.580637">
        <ele>527.422</ele>
        <time>2015-06-24T11:34:56Z</time>
      </trkpt>
      <trkpt lat="36.930862" lon="-3.5804">
        <ele>526.82</ele>
        <time>2015-06-24T11:34:58Z</time>
      </trkpt>
      <trkpt lat="36.93098" lon="-3.580202">
        <ele>525.893</ele>
        <time>2015-06-24T11:35:00Z</time>
      </trkpt>
      <trkpt lat="36.931338" lon="-3.580027">
        <ele>522.606</ele>
        <time>2015-06-24T11:35:04Z</time>
      </trkpt>
      <trkpt lat="36.931747" lon="-3.579882">
        <ele>520.214</ele>
        <time>2015-06-24T11:35:09Z</time>
      </trkpt>
      <trkpt lat="36.931983" lon="-3.580036">
        <ele>520.245</ele>
        <time>2015-06-24T11:35:15Z</time>
      </trkpt>
      <trkpt lat="36.932438" lon="-3.58029">
        <ele>518.808</ele>
        <time>2015-06-24T11:35:24Z</time>
      </trkpt>
      <trkpt lat="36.932508" lon="-3.580295">
        <ele>518.055</ele>
        <time>2015-06-24T11:35:26Z</time>
      </trkpt>
      <trkpt lat="36.932642" lon="-3.580011">
        <ele>518</ele>
        <time>2015-06-24T11:35:42Z</time>
      </trkpt>
      <trkpt lat="36.93273" lon="-3.579839">
        <ele>520.072</ele>
        <time>2015-06-24T11:35:56Z</time>
      </trkpt>
      <trkpt lat="36.933004" lon="-3.57974">
        <ele>522.498</ele>
        <time>2015-06-24T11:36:18Z</time>
      </trkpt>
      <trkpt lat="36.933086" lon="-3.579852">
        <ele>524.438</ele>
        <time>2015-06-24T11:36:25Z</time>
      </trkpt>
      <trkpt lat="36.933604" lon="-3.580051">
        <ele>526.608</ele>
        <time>2015-06-24T11:37:14Z</time>
      </trkpt>
      <trkpt lat="36.93382" lon="-3.580094">
        <ele>526.664</ele>
        <time>2015-06-24T11:37:27Z</time>
      </trkpt>
      <trkpt lat="36.934062" lon="-3.580165">
        <ele>526.612</ele>
        <time>2015-06-24T11:37:37Z</time>
      </trkpt>
      <trkpt lat="36.934297" lon="-3.580117">
        <ele>526.659</ele>
        <time>2015-06-24T11:37:48Z</time>
      </trkpt>
      <trkpt lat="36.934499" lon="-3.580162">
        <ele>528.638</ele>
        <time>2015-06-24T11:38:02Z</time>
      </trkpt>
      <trkpt lat="36.934589" lon="-3.580047">
        <ele>528.616</ele>
        <time>2015-06-24T11:38:10Z</time>
      </trkpt>
      <trkpt lat="36.934763" lon="-3.579968">
        <ele>528.643</ele>
        <time>2015-06-24T11:38:19Z</time>
      </trkpt>
      <trkpt lat="36.934888" lon="-3.57997">
        <ele>530.608</ele>
        <time>2015-06-24T11:38:24Z</time>
      </trkpt>
      <trkpt lat="36.935074" lon="-3.579911">
        <ele>530.672</ele>
        <time>2015-06-24T11:38:32Z</time>
      </trkpt>
      <trkpt lat="36.93618" lon="-3.579858">
        <ele>531.84</ele>
        <time>2015-06-24T11:39:13Z</time>
      </trkpt>
      <trkpt lat="36.936352" lon="-3.579906">
        <ele>529.265</ele>
        <time>2015-06-24T11:39:17Z</time>
      </trkpt>
      <trkpt lat="36.936503" lon="-3.579975">
        <ele>525.408</ele>
        <time>2015-06-24T11:39:22Z</time>
      </trkpt>
      <trkpt lat="36.93679" lon="-3.579863">
        <ele>521.428</ele>
        <time>2015-06-24T11:39:35Z</time>
      </trkpt>
      <trkpt lat="36.937426" lon="-3.579422">
        <ele>521.871</ele>
        <time>2015-06-24T11:40:04Z</time>
      </trkpt>
      <trkpt lat="36.937839" lon="-3.579061">
        <ele>523.417</ele>
        <time>2015-06-24T11:40:26Z</time>
      </trkpt>
      <trkpt lat="36.938121" lon="-3.578644">
        <ele>524.264</ele>
        <time>2015-06-24T11:40:41Z</time>
      </trkpt>
      <trkpt lat="36.938389" lon="-3.578462">
        <ele>525.695</ele>
        <time>2015-06-24T11:40:52Z</time>
      </trkpt>
      <trkpt lat="36.938675" lon="-3.578377">
        <ele>525.614</ele>
        <time>2015-06-24T11:41:02Z</time>
      </trkpt>
      <trkpt lat="36.938863" lon="-3.578278">
        <ele>525.608</ele>
        <time>2015-06-24T11:41:09Z</time>
      </trkpt>
      <trkpt lat="36.938893" lon="-3.578426">
        <ele>527.629</ele>
        <time>2015-06-24T11:41:44Z</time>
      </trkpt>
      <trkpt lat="36.939035" lon="-3.578399">
        <ele>527.697</ele>
        <time>2015-06-24T11:41:48Z</time>
      </trkpt>
      <trkpt lat="36.93937" lon="-3.578156">
        <ele>525.411</ele>
        <time>2015-06-24T11:42:00Z</time>
      </trkpt>
      <trkpt lat="36.9397" lon="-3.578182">
        <ele>525.819</ele>
        <time>2015-06-24T11:42:16Z</time>
      </trkpt>
      <trkpt lat="36.939874" lon="-3.578271">
        <ele>527.619</ele>
        <time>2015-06-24T11:42:24Z</time>
      </trkpt>
      <trkpt lat="36.940221" lon="-3.578687">
        <ele>527.608</ele>
        <time>2015-06-24T11:42:42Z</time>
      </trkpt>
      <trkpt lat="36.940373" lon="-3.578766">
        <ele>527.672</ele>
        <time>2015-06-24T11:42:48Z</time>
      </trkpt>
      <trkpt lat="36.940699" lon="-3.578782">
        <ele>528.835</ele>
        <time>2015-06-24T11:43:01Z</time>
      </trkpt>
      <trkpt lat="36.941687" lon="-3.578664">
        <ele>529.608</ele>
        <time>2015-06-24T11:43:36Z</time>
      </trkpt>
      <trkpt lat="36.942349" lon="-3.578577">
        <ele>531.695</ele>
        <time>2015-06-24T11:44:00Z</time>
      </trkpt>
      <trkpt lat="36.94267" lon="-3.578467">
        <ele>531.623</ele>
        <time>2015-06-24T11:44:11Z</time>
      </trkpt>
      <trkpt lat="36.94295" lon="-3.578411">
        <ele>531.62</ele>
        <time>2015-06-24T11:44:23Z</time>
      </trkpt>
      <trkpt lat="36.942977" lon="-3.578311">
        <ele>531.675</ele>
        <time>2015-06-24T11:44:27Z</time>
      </trkpt>
      <trkpt lat="36.942906" lon="-3.578098">
        <ele>533.886</ele>
        <time>2015-06-24T11:44:37Z</time>
      </trkpt>
      <trkpt lat="36.942825" lon="-3.577712">
        <ele>535.877</ele>
        <time>2015-06-24T11:44:56Z</time>
      </trkpt>
      <trkpt lat="36.942704" lon="-3.577606">
        <ele>537.499</ele>
        <time>2015-06-24T11:45:07Z</time>
      </trkpt>
      <trkpt lat="36.942633" lon="-3.577606">
        <ele>538.672</ele>
        <time>2015-06-24T11:57:01Z</time>
      </trkpt>
      <trkpt lat="36.942071" lon="-3.577258">
        <ele>543.014</ele>
        <time>2015-06-24T11:58:35Z</time>
      </trkpt>
      <trkpt lat="36.941948" lon="-3.577304">
        <ele>544.427</ele>
        <time>2015-06-24T11:58:48Z</time>
      </trkpt>
      <trkpt lat="36.941728" lon="-3.577282">
        <ele>548.885</ele>
        <time>2015-06-24T11:59:08Z</time>
      </trkpt>
      <trkpt lat="36.94148" lon="-3.577223">
        <ele>550.868</ele>
        <time>2015-06-24T11:59:30Z</time>
      </trkpt>
      <trkpt lat="36.941195" lon="-3.577002">
        <ele>554.625</ele>
        <time>2015-06-24T11:59:57Z</time>
      </trkpt>
      <trkpt lat="36.941073" lon="-3.576757">
        <ele>557.444</ele>
        <time>2015-06-24T12:00:15Z</time>
      </trkpt>
      <trkpt lat="36.940913" lon="-3.576528">
        <ele>557.499</ele>
        <time>2015-06-24T12:00:31Z</time>
      </trkpt>
      <trkpt lat="36.940775" lon="-3.576222">
        <ele>560.696</ele>
        <time>2015-06-24T12:00:49Z</time>
      </trkpt>
      <trkpt lat="36.94048" lon="-3.575668">
        <ele>561.614</ele>
        <time>2015-06-24T12:01:17Z</time>
      </trkpt>
      <trkpt lat="36.940124" lon="-3.575166">
        <ele>563.698</ele>
        <time>2015-06-24T12:04:56Z</time>
      </trkpt>
      <trkpt lat="36.93996" lon="-3.575014">
        <ele>565.695</ele>
        <time>2015-06-24T12:05:08Z</time>
      </trkpt>
      <trkpt lat="36.93994" lon="-3.574852">
        <ele>565.641</ele>
        <time>2015-06-24T12:05:17Z</time>
      </trkpt>
      <trkpt lat="36.940216" lon="-3.574503">
        <ele>567.851</ele>
        <time>2015-06-24T12:05:45Z</time>
      </trkpt>
      <trkpt lat="36.940308" lon="-3.574219">
        <ele>570.084</ele>
        <time>2015-06-24T12:06:00Z</time>
      </trkpt>
      <trkpt lat="36.940429" lon="-3.574047">
        <ele>571.639</ele>
        <time>2015-06-24T12:06:13Z</time>
      </trkpt>
      <trkpt lat="36.940517" lon="-3.573628">
        <ele>575.043</ele>
        <time>2015-06-24T12:06:42Z</time>
      </trkpt>
      <trkpt lat="36.940638" lon="-3.573467">
        <ele>578.446</ele>
        <time>2015-06-24T12:06:56Z</time>
      </trkpt>
      <trkpt lat="36.940796" lon="-3.573343">
        <ele>580.227</ele>
        <time>2015-06-24T12:07:10Z</time>
      </trkpt>
      <trkpt lat="36.940953" lon="-3.573147">
        <ele>583.054</ele>
        <time>2015-06-24T12:07:28Z</time>
      </trkpt>
      <trkpt lat="36.941043" lon="-3.572727">
        <ele>587.617</ele>
        <time>2015-06-24T12:07:59Z</time>
      </trkpt>
      <trkpt lat="36.941088" lon="-3.572562">
        <ele>587.618</ele>
        <time>2015-06-24T12:08:10Z</time>
      </trkpt>
      <trkpt lat="36.941193" lon="-3.572075">
        <ele>587.649</ele>
        <time>2015-06-24T12:08:25Z</time>
      </trkpt>
      <trkpt lat="36.941278" lon="-3.571846">
        <ele>587.604</ele>
        <time>2015-06-24T12:08:32Z</time>
      </trkpt>
      <trkpt lat="36.941332" lon="-3.571204">
        <ele>589.64</ele>
        <time>2015-06-24T12:08:47Z</time>
      </trkpt>
      <trkpt lat="36.94138" lon="-3.571003">
        <ele>589.63</ele>
        <time>2015-06-24T12:08:52Z</time>
      </trkpt>
      <trkpt lat="36.941812" lon="-3.569991">
        <ele>591.638</ele>
        <time>2015-06-24T12:09:25Z</time>
      </trkpt>
      <trkpt lat="36.94199" lon="-3.569647">
        <ele>593.629</ele>
        <time>2015-06-24T12:09:40Z</time>
      </trkpt>
      <trkpt lat="36.942237" lon="-3.568907">
        <ele>595.625</ele>
        <time>2015-06-24T12:10:10Z</time>
      </trkpt>
      <trkpt lat="36.942526" lon="-3.568704">
        <ele>599.886</ele>
        <time>2015-06-24T12:10:26Z</time>
      </trkpt>
      <trkpt lat="36.942718" lon="-3.568547">
        <ele>600.243</ele>
        <time>2015-06-24T12:10:38Z</time>
      </trkpt>
      <trkpt lat="36.942801" lon="-3.568408">
        <ele>601.808</ele>
        <time>2015-06-24T12:10:46Z</time>
      </trkpt>
      <trkpt lat="36.942876" lon="-3.568085">
        <ele>603.877</ele>
        <time>2015-06-24T12:11:03Z</time>
      </trkpt>
      <trkpt lat="36.943073" lon="-3.567798">
        <ele>605.808</ele>
        <time>2015-06-24T12:11:20Z</time>
      </trkpt>
      <trkpt lat="36.943169" lon="-3.56758">
        <ele>608.092</ele>
        <time>2015-06-24T12:11:31Z</time>
      </trkpt>
      <trkpt lat="36.943357" lon="-3.567369">
        <ele>610.226</ele>
        <time>2015-06-24T12:11:45Z</time>
      </trkpt>
      <trkpt lat="36.943418" lon="-3.567227">
        <ele>610.208</ele>
        <time>2015-06-24T12:11:52Z</time>
      </trkpt>
      <trkpt lat="36.943696" lon="-3.566984">
        <ele>614.056</ele>
        <time>2015-06-24T12:12:12Z</time>
      </trkpt>
      <trkpt lat="36.943748" lon="-3.566779">
        <ele>614.463</ele>
        <time>2015-06-24T12:12:24Z</time>
      </trkpt>
      <trkpt lat="36.943731" lon="-3.566705">
        <ele>617.626</ele>
        <time>2015-06-24T12:16:53Z</time>
      </trkpt>
      <trkpt lat="36.943658" lon="-3.56649">
        <ele>618.425</ele>
        <time>2015-06-24T12:24:39Z</time>
      </trkpt>
      <trkpt lat="36.943708" lon="-3.566335">
        <ele>618.492</ele>
        <time>2015-06-24T12:24:47Z</time>
      </trkpt>
      <trkpt lat="36.943895" lon="-3.566184">
        <ele>620.033</ele>
        <time>2015-06-24T12:25:02Z</time>
      </trkpt>
      <trkpt lat="36.944143" lon="-3.565995">
        <ele>621.687</ele>
        <time>2015-06-24T12:25:22Z</time>
      </trkpt>
      <trkpt lat="36.944657" lon="-3.56481">
        <ele>628.804</ele>
        <time>2015-06-24T12:26:28Z</time>
      </trkpt>
      <trkpt lat="36.944888" lon="-3.564297">
        <ele>633.276</ele>
        <time>2015-06-24T12:26:58Z</time>
      </trkpt>
      <trkpt lat="36.945047" lon="-3.563941">
        <ele>635.265</ele>
        <time>2015-06-24T12:27:19Z</time>
      </trkpt>
      <trkpt lat="36.945128" lon="-3.563494">
        <ele>637.826</ele>
        <time>2015-06-24T12:27:45Z</time>
      </trkpt>
      <trkpt lat="36.945377" lon="-3.563081">
        <ele>641.808</ele>
        <time>2015-06-24T12:28:10Z</time>
      </trkpt>
      <trkpt lat="36.945501" lon="-3.562735">
        <ele>643.884</ele>
        <time>2015-06-24T12:28:30Z</time>
      </trkpt>
      <trkpt lat="36.945552" lon="-3.562431">
        <ele>646.062</ele>
        <time>2015-06-24T12:28:45Z</time>
      </trkpt>
      <trkpt lat="36.945741" lon="-3.561957">
        <ele>648.852</ele>
        <time>2015-06-24T12:29:11Z</time>
      </trkpt>
      <trkpt lat="36.94583" lon="-3.561669">
        <ele>650.268</ele>
        <time>2015-06-24T12:29:25Z</time>
      </trkpt>
      <trkpt lat="36.946005" lon="-3.561505">
        <ele>652.208</ele>
        <time>2015-06-24T12:29:38Z</time>
      </trkpt>
      <trkpt lat="36.946156" lon="-3.56109">
        <ele>654.45</ele>
        <time>2015-06-24T12:30:01Z</time>
      </trkpt>
      <trkpt lat="36.946208" lon="-3.560911">
        <ele>654.405</ele>
        <time>2015-06-24T12:30:12Z</time>
      </trkpt>
      <trkpt lat="36.946217" lon="-3.560773">
        <ele>656.023</ele>
        <time>2015-06-24T12:30:18Z</time>
      </trkpt>
      <trkpt lat="36.946463" lon="-3.560446">
        <ele>659.026</ele>
        <time>2015-06-24T12:30:41Z</time>
      </trkpt>
      <trkpt lat="36.946575" lon="-3.560152">
        <ele>659.894</ele>
        <time>2015-06-24T12:30:57Z</time>
      </trkpt>
      <trkpt lat="36.94685" lon="-3.559793">
        <ele>663.677</ele>
        <time>2015-06-24T12:31:19Z</time>
      </trkpt>
      <trkpt lat="36.947043" lon="-3.559538">
        <ele>664.86</ele>
        <time>2015-06-24T12:31:34Z</time>
      </trkpt>
      <trkpt lat="36.947222" lon="-3.559266">
        <ele>665.679</ele>
        <time>2015-06-24T12:31:51Z</time>
      </trkpt>
      <trkpt lat="36.947238" lon="-3.559046">
        <ele>665.647</ele>
        <time>2015-06-24T12:32:01Z</time>
      </trkpt>
      <trkpt lat="36.947348" lon="-3.558842">
        <ele>665.67</ele>
        <time>2015-06-24T12:32:09Z</time>
      </trkpt>
      <trkpt lat="36.947514" lon="-3.55892">
        <ele>665.608</ele>
        <time>2015-06-24T12:32:19Z</time>
      </trkpt>
      <trkpt lat="36.947711" lon="-3.558584">
        <ele>665.633</ele>
        <time>2015-06-24T12:32:32Z</time>
      </trkpt>
      <trkpt lat="36.947933" lon="-3.557572">
        <ele>664.431</ele>
        <time>2015-06-24T12:32:42Z</time>
      </trkpt>
      <trkpt lat="36.948069" lon="-3.557006">
        <ele>661.619</ele>
        <time>2015-06-24T12:32:47Z</time>
      </trkpt>
      <trkpt lat="36.948004" lon="-3.556294">
        <ele>655.808</ele>
        <time>2015-06-24T12:32:57Z</time>
      </trkpt>
      <trkpt lat="36.948063" lon="-3.556148">
        <ele>655.831</ele>
        <time>2015-06-24T12:33:06Z</time>
      </trkpt>
      <trkpt lat="36.948047" lon="-3.556067">
        <ele>655.811</ele>
        <time>2015-06-24T12:33:10Z</time>
      </trkpt>
      <trkpt lat="36.948" lon="-3.556016">
        <ele>655.874</ele>
        <time>2015-06-24T12:33:14Z</time>
      </trkpt>
      <trkpt lat="36.947965" lon="-3.555684">
        <ele>655.847</ele>
        <time>2015-06-24T12:33:24Z</time>
      </trkpt>
      <trkpt lat="36.948478" lon="-3.55509">
        <ele>659.261</ele>
        <time>2015-06-24T12:33:53Z</time>
      </trkpt>
      <trkpt lat="36.948799" lon="-3.554715">
        <ele>661.259</ele>
        <time>2015-06-24T12:34:14Z</time>
      </trkpt>
      <trkpt lat="36.949576" lon="-3.553796">
        <ele>668.283</ele>
        <time>2015-06-24T12:35:06Z</time>
      </trkpt>
      <trkpt lat="36.950056" lon="-3.553231">
        <ele>671.635</ele>
        <time>2015-06-24T12:35:38Z</time>
      </trkpt>
      <trkpt lat="36.950486" lon="-3.552745">
        <ele>676.264</ele>
        <time>2015-06-24T12:36:06Z</time>
      </trkpt>
      <trkpt lat="36.950742" lon="-3.552486">
        <ele>678.234</ele>
        <time>2015-06-24T12:36:22Z</time>
      </trkpt>
      <trkpt lat="36.951211" lon="-3.552077">
        <ele>682.257</ele>
        <time>2015-06-24T12:36:53Z</time>
      </trkpt>
      <trkpt lat="36.951825" lon="-3.551677">
        <ele>685.22</ele>
        <time>2015-06-24T12:37:28Z</time>
      </trkpt>
      <trkpt lat="36.952358" lon="-3.551413">
        <ele>689.208</ele>
        <time>2015-06-24T12:37:56Z</time>
      </trkpt>
      <trkpt lat="36.952563" lon="-3.551326">
        <ele>691.063</ele>
        <time>2015-06-24T12:38:07Z</time>
      </trkpt>
      <trkpt lat="36.953481" lon="-3.55103">
        <ele>697.608</ele>
        <time>2015-06-24T12:38:54Z</time>
      </trkpt>
      <trkpt lat="36.954571" lon="-3.550618">
        <ele>704.011</ele>
        <time>2015-06-24T12:39:54Z</time>
      </trkpt>
      <trkpt lat="36.955555" lon="-3.550094">
        <ele>711.208</ele>
        <time>2015-06-24T12:40:50Z</time>
      </trkpt>
      <trkpt lat="36.955844" lon="-3.549874">
        <ele>712.82</ele>
        <time>2015-06-24T12:41:07Z</time>
      </trkpt>
      <trkpt lat="36.956434" lon="-3.549432">
        <ele>717.221</ele>
        <time>2015-06-24T12:41:42Z</time>
      </trkpt>
      <trkpt lat="36.956714" lon="-3.549158">
        <ele>722.617</ele>
        <time>2015-06-24T12:42:11Z</time>
      </trkpt>
      <trkpt lat="36.956893" lon="-3.548996">
        <ele>725.215</ele>
        <time>2015-06-24T12:42:28Z</time>
      </trkpt>
      <trkpt lat="36.957151" lon="-3.548653">
        <ele>729.444</ele>
        <time>2015-06-24T12:42:53Z</time>
      </trkpt>
      <trkpt lat="36.957261" lon="-3.548404">
        <ele>729.408</ele>
        <time>2015-06-24T12:43:06Z</time>
      </trkpt>
      <trkpt lat="36.957604" lon="-3.548228">
        <ele>731.619</ele>
        <time>2015-06-24T12:43:25Z</time>
      </trkpt>
      <trkpt lat="36.957856" lon="-3.548034">
        <ele>731.608</ele>
        <time>2015-06-24T12:43:43Z</time>
      </trkpt>
      <trkpt lat="36.958102" lon="-3.547901">
        <ele>732.835</ele>
        <time>2015-06-24T12:43:58Z</time>
      </trkpt>
      <trkpt lat="36.958236" lon="-3.54766">
        <ele>733.621</ele>
        <time>2015-06-24T12:44:13Z</time>
      </trkpt>
      <trkpt lat="36.958308" lon="-3.547231">
        <ele>735.817</ele>
        <time>2015-06-24T12:44:34Z</time>
      </trkpt>
      <trkpt lat="36.958378" lon="-3.54712">
        <ele>738.013</ele>
        <time>2015-06-24T12:44:40Z</time>
      </trkpt>
      <trkpt lat="36.95847" lon="-3.547052">
        <ele>738.008</ele>
        <time>2015-06-24T12:44:46Z</time>
      </trkpt>
      <trkpt lat="36.958977" lon="-3.546905">
        <ele>742.008</ele>
        <time>2015-06-24T12:45:15Z</time>
      </trkpt>
      <trkpt lat="36.959201" lon="-3.546703">
        <ele>744.229</ele>
        <time>2015-06-24T12:45:32Z</time>
      </trkpt>
      <trkpt lat="36.959254" lon="-3.5466">
        <ele>745.027</ele>
        <time>2015-06-24T12:45:41Z</time>
      </trkpt>
      <trkpt lat="36.959253" lon="-3.546537">
        <ele>746.408</ele>
        <time>2015-06-24T12:45:44Z</time>
      </trkpt>
      <trkpt lat="36.959451" lon="-3.546189">
        <ele>750.063</ele>
        <time>2015-06-24T12:46:09Z</time>
      </trkpt>
      <trkpt lat="36.959596" lon="-3.545796">
        <ele>753.059</ele>
        <time>2015-06-24T12:46:38Z</time>
      </trkpt>
      <trkpt lat="36.959781" lon="-3.545957">
        <ele>756.833</ele>
        <time>2015-06-24T12:46:57Z</time>
      </trkpt>
      <trkpt lat="36.959914" lon="-3.546128">
        <ele>757.891</ele>
        <time>2015-06-24T12:47:10Z</time>
      </trkpt>
      <trkpt lat="36.960037" lon="-3.546175">
        <ele>759.014</ele>
        <time>2015-06-24T12:47:17Z</time>
      </trkpt>
      <trkpt lat="36.960173" lon="-3.546131">
        <ele>759.054</ele>
        <time>2015-06-24T12:47:23Z</time>
      </trkpt>
      <trkpt lat="36.960859" lon="-3.545647">
        <ele>762.408</ele>
        <time>2015-06-24T12:47:52Z</time>
      </trkpt>
      <trkpt lat="36.961766" lon="-3.545427">
        <ele>763.231</ele>
        <time>2015-06-24T12:48:25Z</time>
      </trkpt>
      <trkpt lat="36.96204" lon="-3.545392">
        <ele>765.44</ele>
        <time>2015-06-24T12:48:38Z</time>
      </trkpt>
      <trkpt lat="36.963478" lon="-3.54501">
        <ele>774.07</ele>
        <time>2015-06-24T12:49:53Z</time>
      </trkpt>
      <trkpt lat="36.964183" lon="-3.544643">
        <ele>780.067</ele>
        <time>2015-06-24T12:50:34Z</time>
      </trkpt>
      <trkpt lat="36.964339" lon="-3.544538">
        <ele>781.64</ele>
        <time>2015-06-24T12:50:44Z</time>
      </trkpt>
      <trkpt lat="36.964862" lon="-3.544205">
        <ele>786.283</ele>
        <time>2015-06-24T12:51:15Z</time>
      </trkpt>
      <trkpt lat="36.965062" lon="-3.544099">
        <ele>787.008</ele>
        <time>2015-06-24T12:51:27Z</time>
      </trkpt>
      <trkpt lat="36.965388" lon="-3.543897">
        <ele>790.426</ele>
        <time>2015-06-24T12:51:47Z</time>
      </trkpt>
      <trkpt lat="36.965662" lon="-3.543735">
        <ele>792.846</ele>
        <time>2015-06-24T12:52:05Z</time>
      </trkpt>
      <trkpt lat="36.966091" lon="-3.543443">
        <ele>794.855</ele>
        <time>2015-06-24T12:52:32Z</time>
      </trkpt>
      <trkpt lat="36.966389" lon="-3.543284">
        <ele>797.026</ele>
        <time>2015-06-24T12:52:50Z</time>
      </trkpt>
      <trkpt lat="36.966565" lon="-3.543153">
        <ele>798.692</ele>
        <time>2015-06-24T12:53:01Z</time>
      </trkpt>
      <trkpt lat="36.96691" lon="-3.543235">
        <ele>799.055</ele>
        <time>2015-06-24T12:53:19Z</time>
      </trkpt>
      <trkpt lat="36.966912" lon="-3.543235">
        <ele>800.639</ele>
        <time>2015-06-24T12:53:31Z</time>
      </trkpt>
      <trkpt lat="36.966915" lon="-3.54324">
        <ele>802.816</ele>
        <time>2015-06-24T12:56:10Z</time>
      </trkpt>
      <trkpt lat="36.966996" lon="-3.543135">
        <ele>803.292</ele>
        <time>2015-06-24T12:59:08Z</time>
      </trkpt>
      <trkpt lat="36.967409" lon="-3.542885">
        <ele>805.218</ele>
        <time>2015-06-24T12:59:35Z</time>
      </trkpt>
      <trkpt lat="36.967742" lon="-3.542571">
        <ele>807.286</ele>
        <time>2015-06-24T13:00:01Z</time>
      </trkpt>
      <trkpt lat="36.968121" lon="-3.542236">
        <ele>811.058</ele>
        <time>2015-06-24T13:00:30Z</time>
      </trkpt>
      <trkpt lat="36.968485" lon="-3.541999">
        <ele>811.849</ele>
        <time>2015-06-24T13:00:53Z</time>
      </trkpt>
      <trkpt lat="36.968995" lon="-3.541551">
        <ele>817.627</ele>
        <time>2015-06-24T13:01:31Z</time>
      </trkpt>
      <trkpt lat="36.969665" lon="-3.541184">
        <ele>823.261</ele>
        <time>2015-06-24T13:02:17Z</time>
      </trkpt>
      <trkpt lat="36.970279" lon="-3.540969">
        <ele>825.847</ele>
        <time>2015-06-24T13:02:53Z</time>
      </trkpt>
      <trkpt lat="36.970538" lon="-3.540901">
        <ele>830.079</ele>
        <time>2015-06-24T13:03:10Z</time>
      </trkpt>
      <trkpt lat="36.970607" lon="-3.541046">
        <ele>830.092</ele>
        <time>2015-06-24T13:03:17Z</time>
      </trkpt>
      <trkpt lat="36.970537" lon="-3.541356">
        <ele>830.008</ele>
        <time>2015-06-24T13:03:34Z</time>
      </trkpt>
      <trkpt lat="36.970487" lon="-3.541502">
        <ele>832.268</ele>
        <time>2015-06-24T13:03:44Z</time>
      </trkpt>
      <trkpt lat="36.970442" lon="-3.541617">
        <ele>834.273</ele>
        <time>2015-06-24T13:03:53Z</time>
      </trkpt>
      <trkpt lat="36.970305" lon="-3.54179">
        <ele>836.661</ele>
        <time>2015-06-24T13:04:11Z</time>
      </trkpt>
      <trkpt lat="36.970069" lon="-3.542112">
        <ele>842.883</ele>
        <time>2015-06-24T13:04:43Z</time>
      </trkpt>
      <trkpt lat="36.969859" lon="-3.542439">
        <ele>847.086</ele>
        <time>2015-06-24T13:05:10Z</time>
      </trkpt>
      <trkpt lat="36.969762" lon="-3.542595">
        <ele>849.008</ele>
        <time>2015-06-24T13:05:22Z</time>
      </trkpt>
      <trkpt lat="36.969654" lon="-3.542751">
        <ele>850.83</ele>
        <time>2015-06-24T13:05:34Z</time>
      </trkpt>
      <trkpt lat="36.969369" lon="-3.543095">
        <ele>853.451</ele>
        <time>2015-06-24T13:05:59Z</time>
      </trkpt>
      <trkpt lat="36.969217" lon="-3.543322">
        <ele>855.092</ele>
        <time>2015-06-24T13:06:11Z</time>
      </trkpt>
      <trkpt lat="36.969003" lon="-3.543594">
        <ele>857.428</ele>
        <time>2015-06-24T13:06:26Z</time>
      </trkpt>
      <trkpt lat="36.968724" lon="-3.543897">
        <ele>857.414</ele>
        <time>2015-06-24T13:06:38Z</time>
      </trkpt>
      <trkpt lat="36.968638" lon="-3.544119">
        <ele>857.488</ele>
        <time>2015-06-24T13:06:43Z</time>
      </trkpt>
      <trkpt lat="36.968631" lon="-3.54443">
        <ele>857.426</ele>
        <time>2015-06-24T13:06:49Z</time>
      </trkpt>
      <trkpt lat="36.968969" lon="-3.545279">
        <ele>857.422</ele>
        <time>2015-06-24T13:07:14Z</time>
      </trkpt>
      <trkpt lat="36.96929" lon="-3.545672">
        <ele>857.47</ele>
        <time>2015-06-24T13:07:30Z</time>
      </trkpt>
      <trkpt lat="36.969507" lon="-3.545886">
        <ele>859.669</ele>
        <time>2015-06-24T13:07:43Z</time>
      </trkpt>
      <trkpt lat="36.970355" lon="-3.546311">
        <ele>860.83</ele>
        <time>2015-06-24T13:08:12Z</time>
      </trkpt>
      <trkpt lat="36.970903" lon="-3.546496">
        <ele>861.86</ele>
        <time>2015-06-24T13:08:30Z</time>
      </trkpt>
      <trkpt lat="36.971114" lon="-3.546605">
        <ele>861.826</ele>
        <time>2015-06-24T13:08:37Z</time>
      </trkpt>
      <trkpt lat="36.97121" lon="-3.546588">
        <ele>861.849</ele>
        <time>2015-06-24T13:08:41Z</time>
      </trkpt>
      <trkpt lat="36.971778" lon="-3.545691">
        <ele>870.017</ele>
        <time>2015-06-24T13:09:27Z</time>
      </trkpt>
      <trkpt lat="36.972408" lon="-3.544818">
        <ele>876.251</ele>
        <time>2015-06-24T13:10:16Z</time>
      </trkpt>
      <trkpt lat="36.972755" lon="-3.54435">
        <ele>880.062</ele>
        <time>2015-06-24T13:10:43Z</time>
      </trkpt>
      <trkpt lat="36.97382" lon="-3.543154">
        <ele>889.208</ele>
        <time>2015-06-24T13:11:58Z</time>
      </trkpt>
      <trkpt lat="36.974126" lon="-3.542793">
        <ele>893.001</ele>
        <time>2015-06-24T13:12:19Z</time>
      </trkpt>
      <trkpt lat="36.974788" lon="-3.542218">
        <ele>897.268</ele>
        <time>2015-06-24T13:12:58Z</time>
      </trkpt>
      <trkpt lat="36.97486" lon="-3.542236">
        <ele>899.261</ele>
        <time>2015-06-24T13:17:05Z</time>
      </trkpt>
      <trkpt lat="36.974852" lon="-3.54219">
        <ele>901.261</ele>
        <time>2015-06-24T13:18:02Z</time>
      </trkpt>
      <trkpt lat="36.975093" lon="-3.541968">
        <ele>901.204</ele>
        <time>2015-06-24T13:18:36Z</time>
      </trkpt>
      <trkpt lat="36.975867" lon="-3.541409">
        <ele>908.02</ele>
        <time>2015-06-24T13:19:23Z</time>
      </trkpt>
      <trkpt lat="36.976344" lon="-3.540995">
        <ele>910.416</ele>
        <time>2015-06-24T13:19:53Z</time>
      </trkpt>
      <trkpt lat="36.976647" lon="-3.540735">
        <ele>914.482</ele>
        <time>2015-06-24T13:20:16Z</time>
      </trkpt>
      <trkpt lat="36.977" lon="-3.540133">
        <ele>918.071</ele>
        <time>2015-06-24T13:20:50Z</time>
      </trkpt>
      <trkpt lat="36.977302" lon="-3.539749">
        <ele>920.818</ele>
        <time>2015-06-24T13:21:14Z</time>
      </trkpt>
      <trkpt lat="36.977304" lon="-3.539687">
        <ele>922.408</ele>
        <time>2015-06-24T13:21:18Z</time>
      </trkpt>
      <trkpt lat="36.977261" lon="-3.539624">
        <ele>922.48</ele>
        <time>2015-06-24T13:21:23Z</time>
      </trkpt>
      <trkpt lat="36.977416" lon="-3.53944">
        <ele>924.241</ele>
        <time>2015-06-24T13:21:34Z</time>
      </trkpt>
      <trkpt lat="36.977336" lon="-3.539146">
        <ele>926.851</ele>
        <time>2015-06-24T13:21:50Z</time>
      </trkpt>
      <trkpt lat="36.977329" lon="-3.539069">
        <ele>926.864</ele>
        <time>2015-06-24T13:21:55Z</time>
      </trkpt>
      <trkpt lat="36.977387" lon="-3.538862">
        <ele>928.832</ele>
        <time>2015-06-24T13:22:08Z</time>
      </trkpt>
      <trkpt lat="36.977396" lon="-3.538722">
        <ele>930.868</ele>
        <time>2015-06-24T13:22:17Z</time>
      </trkpt>
      <trkpt lat="36.97766" lon="-3.538366">
        <ele>935.071</ele>
        <time>2015-06-24T13:22:43Z</time>
      </trkpt>
      <trkpt lat="36.977783" lon="-3.538134">
        <ele>937.073</ele>
        <time>2015-06-24T13:23:00Z</time>
      </trkpt>
      <trkpt lat="36.977925" lon="-3.537944">
        <ele>939.292</ele>
        <time>2015-06-24T13:23:15Z</time>
      </trkpt>
      <trkpt lat="36.978229" lon="-3.537686">
        <ele>941.283</ele>
        <time>2015-06-24T13:23:34Z</time>
      </trkpt>
      <trkpt lat="36.978617" lon="-3.537198">
        <ele>941.256</ele>
        <time>2015-06-24T13:23:58Z</time>
      </trkpt>
      <trkpt lat="36.979119" lon="-3.536552">
        <ele>941.255</ele>
        <time>2015-06-24T13:24:16Z</time>
      </trkpt>
      <trkpt lat="36.979414" lon="-3.536277">
        <ele>939.204</ele>
        <time>2015-06-24T13:24:32Z</time>
      </trkpt>
      <trkpt lat="36.979738" lon="-3.535733">
        <ele>935.249</ele>
        <time>2015-06-24T13:24:41Z</time>
      </trkpt>
      <trkpt lat="36.979876" lon="-3.535449">
        <ele>931.018</ele>
        <time>2015-06-24T13:24:45Z</time>
      </trkpt>
      <trkpt lat="36.979905" lon="-3.534632">
        <ele>922.668</ele>
        <time>2015-06-24T13:24:54Z</time>
      </trkpt>
      <trkpt lat="36.979876" lon="-3.534145">
        <ele>917.608</ele>
        <time>2015-06-24T13:25:00Z</time>
      </trkpt>
      <trkpt lat="36.979785" lon="-3.534106">
        <ele>915.877</ele>
        <time>2015-06-24T13:25:03Z</time>
      </trkpt>
      <trkpt lat="36.979663" lon="-3.534188">
        <ele>914.818</ele>
        <time>2015-06-24T13:25:07Z</time>
      </trkpt>
      <trkpt lat="36.979508" lon="-3.534204">
        <ele>914.892</ele>
        <time>2015-06-24T13:25:11Z</time>
      </trkpt>
      <trkpt lat="36.979104" lon="-3.533838">
        <ele>916.808</ele>
        <time>2015-06-24T13:25:45Z</time>
      </trkpt>
      <trkpt lat="36.978599" lon="-3.533336">
        <ele>925.467</ele>
        <time>2015-06-24T13:26:35Z</time>
      </trkpt>
      <trkpt lat="36.978388" lon="-3.533022">
        <ele>930.434</ele>
        <time>2015-06-24T13:27:04Z</time>
      </trkpt>
      <trkpt lat="36.978307" lon="-3.532887">
        <ele>931.608</ele>
        <time>2015-06-24T13:27:14Z</time>
      </trkpt>
      <trkpt lat="36.978303" lon="-3.532832">
        <ele>933.043</ele>
        <time>2015-06-24T13:27:19Z</time>
      </trkpt>
      <trkpt lat="36.978211" lon="-3.53266">
        <ele>935.676</ele>
        <time>2015-06-24T13:27:34Z</time>
      </trkpt>
      <trkpt lat="36.978136" lon="-3.532573">
        <ele>937.069</ele>
        <time>2015-06-24T13:27:41Z</time>
      </trkpt>
      <trkpt lat="36.97816" lon="-3.532548">
        <ele>937.856</ele>
        <time>2015-06-24T13:27:43Z</time>
      </trkpt>
      <trkpt lat="36.978254" lon="-3.532418">
        <ele>940.282</ele>
        <time>2015-06-24T13:27:54Z</time>
      </trkpt>
      <trkpt lat="36.978225" lon="-3.532204">
        <ele>942.299</ele>
        <time>2015-06-24T13:28:14Z</time>
      </trkpt>
      <trkpt lat="36.978158" lon="-3.532173">
        <ele>944.43</ele>
        <time>2015-06-24T13:28:18Z</time>
      </trkpt>
      <trkpt lat="36.977993" lon="-3.532011">
        <ele>946.615</ele>
        <time>2015-06-24T13:28:35Z</time>
      </trkpt>
      <trkpt lat="36.977854" lon="-3.531905">
        <ele>948.847</ele>
        <time>2015-06-24T13:28:48Z</time>
      </trkpt>
      <trkpt lat="36.978258" lon="-3.531901">
        <ele>950.494</ele>
        <time>2015-06-24T13:29:03Z</time>
      </trkpt>
      <trkpt lat="36.978555" lon="-3.532268">
        <ele>954.434</ele>
        <time>2015-06-24T13:29:42Z</time>
      </trkpt>
      <trkpt lat="36.978775" lon="-3.53245">
        <ele>958.429</ele>
        <time>2015-06-24T13:30:09Z</time>
      </trkpt>
      <trkpt lat="36.978833" lon="-3.532452">
        <ele>961.829</ele>
        <time>2015-06-24T13:32:55Z</time>
      </trkpt>
      <trkpt lat="36.978863" lon="-3.532369">
        <ele>961.859</ele>
        <time>2015-06-24T13:33:05Z</time>
      </trkpt>
      <trkpt lat="36.978886" lon="-3.53229">
        <ele>963.071</ele>
        <time>2015-06-24T13:33:11Z</time>
      </trkpt>
      <trkpt lat="36.978929" lon="-3.532029">
        <ele>967.89</ele>
        <time>2015-06-24T13:33:31Z</time>
      </trkpt>
      <trkpt lat="36.978997" lon="-3.531911">
        <ele>970.408</ele>
        <time>2015-06-24T13:33:43Z</time>
      </trkpt>
      <trkpt lat="36.979044" lon="-3.531787">
        <ele>972.696</ele>
        <time>2015-06-24T13:33:58Z</time>
      </trkpt>
      <trkpt lat="36.979343" lon="-3.531484">
        <ele>980.649</ele>
        <time>2015-06-24T13:34:45Z</time>
      </trkpt>
      <trkpt lat="36.979473" lon="-3.53138">
        <ele>983.281</ele>
        <time>2015-06-24T13:35:03Z</time>
      </trkpt>
      <trkpt lat="36.979672" lon="-3.531105">
        <ele>990.685</ele>
        <time>2015-06-24T13:35:37Z</time>
      </trkpt>
      <trkpt lat="36.979748" lon="-3.530982">
        <ele>993.674</ele>
        <time>2015-06-24T13:35:50Z</time>
      </trkpt>
      <trkpt lat="36.97983" lon="-3.530738">
        <ele>997.81</ele>
        <time>2015-06-24T13:36:12Z</time>
      </trkpt>
      <trkpt lat="36.979951" lon="-3.530578">
        <ele>999.837</ele>
        <time>2015-06-24T13:36:26Z</time>
      </trkpt>
      <trkpt lat="36.980025" lon="-3.530407">
        <ele>1001.843</ele>
        <time>2015-06-24T13:36:40Z</time>
      </trkpt>
      <trkpt lat="36.980015" lon="-3.530281">
        <ele>1003.445</ele>
        <time>2015-06-24T13:36:49Z</time>
      </trkpt>
      <trkpt lat="36.979972" lon="-3.530114">
        <ele>1004.898</ele>
        <time>2015-06-24T13:37:02Z</time>
      </trkpt>
      <trkpt lat="36.980059" lon="-3.530003">
        <ele>1006.29</ele>
        <time>2015-06-24T13:37:10Z</time>
      </trkpt>
      <trkpt lat="36.979976" lon="-3.530001">
        <ele>1007.466</ele>
        <time>2015-06-24T13:37:19Z</time>
      </trkpt>
      <trkpt lat="36.979841" lon="-3.530172">
        <ele>1010.057</ele>
        <time>2015-06-24T13:37:32Z</time>
      </trkpt>
      <trkpt lat="36.979862" lon="-3.530299">
        <ele>1010.42</ele>
        <time>2015-06-24T13:37:42Z</time>
      </trkpt>
      <trkpt lat="36.979916" lon="-3.530397">
        <ele>1012.67</ele>
        <time>2015-06-24T13:37:48Z</time>
      </trkpt>
      <trkpt lat="36.979529" lon="-3.530831">
        <ele>1014.286</ele>
        <time>2015-06-24T13:38:22Z</time>
      </trkpt>
      <trkpt lat="36.979243" lon="-3.530994">
        <ele>1014.69</ele>
        <time>2015-06-24T13:38:46Z</time>
      </trkpt>
      <trkpt lat="36.978825" lon="-3.531147">
        <ele>1018.698</ele>
        <time>2015-06-24T13:39:16Z</time>
      </trkpt>
      <trkpt lat="36.978788" lon="-3.530965">
        <ele>1019.827</ele>
        <time>2015-06-24T13:39:26Z</time>
      </trkpt>
      <trkpt lat="36.978874" lon="-3.530639">
        <ele>1022.808</ele>
        <time>2015-06-24T13:39:45Z</time>
      </trkpt>
      <trkpt lat="36.978933" lon="-3.530577">
        <ele>1022.821</ele>
        <time>2015-06-24T13:39:50Z</time>
      </trkpt>
      <trkpt lat="36.978997" lon="-3.530409">
        <ele>1025.072</ele>
        <time>2015-06-24T13:40:02Z</time>
      </trkpt>
      <trkpt lat="36.979262" lon="-3.53002">
        <ele>1029.099</ele>
        <time>2015-06-24T13:40:40Z</time>
      </trkpt>
      <trkpt lat="36.97948" lon="-3.529388">
        <ele>1039.064</ele>
        <time>2015-06-24T13:41:34Z</time>
      </trkpt>
      <trkpt lat="36.979599" lon="-3.529203">
        <ele>1041.648</ele>
        <time>2015-06-24T13:41:52Z</time>
      </trkpt>
      <trkpt lat="36.979838" lon="-3.529095">
        <ele>1043.894</ele>
        <time>2015-06-24T13:42:13Z</time>
      </trkpt>
      <trkpt lat="36.979897" lon="-3.52901">
        <ele>1046.097</ele>
        <time>2015-06-24T13:42:21Z</time>
      </trkpt>
      <trkpt lat="36.979909" lon="-3.528869">
        <ele>1048.295</ele>
        <time>2015-06-24T13:42:31Z</time>
      </trkpt>
      <trkpt lat="36.979845" lon="-3.528779">
        <ele>1050.268</ele>
        <time>2015-06-24T13:43:08Z</time>
      </trkpt>
      <trkpt lat="36.979592" lon="-3.528731">
        <ele>1052.29</ele>
        <time>2015-06-24T13:43:28Z</time>
      </trkpt>
      <trkpt lat="36.97944" lon="-3.528754">
        <ele>1053.801</ele>
        <time>2015-06-24T13:43:39Z</time>
      </trkpt>
      <trkpt lat="36.979204" lon="-3.528862">
        <ele>1056.416</ele>
        <time>2015-06-24T13:43:57Z</time>
      </trkpt>
      <trkpt lat="36.978827" lon="-3.528896">
        <ele>1060.689</ele>
        <time>2015-06-24T13:44:25Z</time>
      </trkpt>
      <trkpt lat="36.978697" lon="-3.528873">
        <ele>1062.812</ele>
        <time>2015-06-24T13:44:37Z</time>
      </trkpt>
      <trkpt lat="36.978546" lon="-3.528646">
        <ele>1067.037</ele>
        <time>2015-06-24T13:44:59Z</time>
      </trkpt>
      <trkpt lat="36.978574" lon="-3.528529">
        <ele>1069.211</ele>
        <time>2015-06-24T13:45:08Z</time>
      </trkpt>
      <trkpt lat="36.978668" lon="-3.528546">
        <ele>1069.221</ele>
        <time>2015-06-24T13:45:17Z</time>
      </trkpt>
      <trkpt lat="36.978736" lon="-3.528632">
        <ele>1071.052</ele>
        <time>2015-06-24T13:45:26Z</time>
      </trkpt>
      <trkpt lat="36.978913" lon="-3.528526">
        <ele>1073.483</ele>
        <time>2015-06-24T13:45:43Z</time>
      </trkpt>
      <trkpt lat="36.979188" lon="-3.528209">
        <ele>1079.811</ele>
        <time>2015-06-24T13:46:19Z</time>
      </trkpt>
      <trkpt lat="36.979378" lon="-3.528019">
        <ele>1084.226</ele>
        <time>2015-06-24T13:46:42Z</time>
      </trkpt>
      <trkpt lat="36.979492" lon="-3.527804">
        <ele>1088.456</ele>
        <time>2015-06-24T13:47:01Z</time>
      </trkpt>
      <trkpt lat="36.979441" lon="-3.527727">
        <ele>1088.408</ele>
        <time>2015-06-24T13:47:08Z</time>
      </trkpt>
      <trkpt lat="36.979363" lon="-3.527767">
        <ele>1089.893</ele>
        <time>2015-06-24T13:47:15Z</time>
      </trkpt>
      <trkpt lat="36.979279" lon="-3.527887">
        <ele>1091.874</ele>
        <time>2015-06-24T13:47:27Z</time>
      </trkpt>
      <trkpt lat="36.979096" lon="-3.527938">
        <ele>1094.896</ele>
        <time>2015-06-24T13:47:44Z</time>
      </trkpt>
      <trkpt lat="36.978895" lon="-3.527904">
        <ele>1097.027</ele>
        <time>2015-06-24T13:48:02Z</time>
      </trkpt>
      <trkpt lat="36.978748" lon="-3.527769">
        <ele>1100.044</ele>
        <time>2015-06-24T13:48:20Z</time>
      </trkpt>
      <trkpt lat="36.978765" lon="-3.527665">
        <ele>1101.28</ele>
        <time>2015-06-24T13:48:28Z</time>
      </trkpt>
      <trkpt lat="36.978863" lon="-3.527656">
        <ele>1103.225</ele>
        <time>2015-06-24T13:48:37Z</time>
      </trkpt>
      <trkpt lat="36.978951" lon="-3.527717">
        <ele>1104.808</ele>
        <time>2015-06-24T13:48:46Z</time>
      </trkpt>
      <trkpt lat="36.979113" lon="-3.527627">
        <ele>1107.489</ele>
        <time>2015-06-24T13:49:01Z</time>
      </trkpt>
      <trkpt lat="36.97919" lon="-3.527433">
        <ele>1109.459</ele>
        <time>2015-06-24T13:49:15Z</time>
      </trkpt>
      <trkpt lat="36.979235" lon="-3.527208">
        <ele>1111.69</ele>
        <time>2015-06-24T13:49:30Z</time>
      </trkpt>
      <trkpt lat="36.979371" lon="-3.526847">
        <ele>1115.614</ele>
        <time>2015-06-24T13:49:58Z</time>
      </trkpt>
      <trkpt lat="36.979332" lon="-3.526781">
        <ele>1115.655</ele>
        <time>2015-06-24T13:50:05Z</time>
      </trkpt>
      <trkpt lat="36.979246" lon="-3.526838">
        <ele>1118.055</ele>
        <time>2015-06-24T13:50:13Z</time>
      </trkpt>
      <trkpt lat="36.979225" lon="-3.52695">
        <ele>1118.042</ele>
        <time>2015-06-24T13:50:22Z</time>
      </trkpt>
      <trkpt lat="36.978971" lon="-3.527132">
        <ele>1124.26</ele>
        <time>2015-06-24T13:50:50Z</time>
      </trkpt>
      <trkpt lat="36.978901" lon="-3.527097">
        <ele>1125.034</ele>
        <time>2015-06-24T13:50:58Z</time>
      </trkpt>
      <trkpt lat="36.9789" lon="-3.52702">
        <ele>1126.479</ele>
        <time>2015-06-24T13:51:05Z</time>
      </trkpt>
      <trkpt lat="36.97911" lon="-3.526696">
        <ele>1130.824</ele>
        <time>2015-06-24T13:51:36Z</time>
      </trkpt>
      <trkpt lat="36.97938" lon="-3.526204">
        <ele>1138.68</ele>
        <time>2015-06-24T13:52:21Z</time>
      </trkpt>
      <trkpt lat="36.979382" lon="-3.526089">
        <ele>1140.811</ele>
        <time>2015-06-24T13:52:31Z</time>
      </trkpt>
      <trkpt lat="36.979241" lon="-3.526018">
        <ele>1141.27</ele>
        <time>2015-06-24T13:52:45Z</time>
      </trkpt>
      <trkpt lat="36.979191" lon="-3.526092">
        <ele>1143.201</ele>
        <time>2015-06-24T13:52:51Z</time>
      </trkpt>
      <trkpt lat="36.979178" lon="-3.52617">
        <ele>1143.208</ele>
        <time>2015-06-24T13:52:56Z</time>
      </trkpt>
      <trkpt lat="36.978859" lon="-3.526532">
        <ele>1149.676</ele>
        <time>2015-06-24T13:53:30Z</time>
      </trkpt>
      <trkpt lat="36.978695" lon="-3.526604">
        <ele>1151.613</ele>
        <time>2015-06-24T13:54:39Z</time>
      </trkpt>
      <trkpt lat="36.978582" lon="-3.526518">
        <ele>1153.633</ele>
        <time>2015-06-24T13:54:49Z</time>
      </trkpt>
      <trkpt lat="36.97844" lon="-3.526292">
        <ele>1155.682</ele>
        <time>2015-06-24T13:55:07Z</time>
      </trkpt>
      <trkpt lat="36.97831" lon="-3.526231">
        <ele>1158.027</ele>
        <time>2015-06-24T13:55:19Z</time>
      </trkpt>
      <trkpt lat="36.978144" lon="-3.52634">
        <ele>1160.096</ele>
        <time>2015-06-24T13:55:36Z</time>
      </trkpt>
      <trkpt lat="36.977922" lon="-3.526566">
        <ele>1164.495</ele>
        <time>2015-06-24T13:56:00Z</time>
      </trkpt>
      <trkpt lat="36.977644" lon="-3.52653">
        <ele>1166.467</ele>
        <time>2015-06-24T13:56:21Z</time>
      </trkpt>
      <trkpt lat="36.977471" lon="-3.526482">
        <ele>1168.616</ele>
        <time>2015-06-24T13:56:36Z</time>
      </trkpt>
      <trkpt lat="36.977376" lon="-3.526384">
        <ele>1171.483</ele>
        <time>2015-06-24T13:56:47Z</time>
      </trkpt>
      <trkpt lat="36.977474" lon="-3.526287">
        <ele>1171.465</ele>
        <time>2015-06-24T13:56:57Z</time>
      </trkpt>
      <trkpt lat="36.977585" lon="-3.526304">
        <ele>1173.652</ele>
        <time>2015-06-24T13:57:08Z</time>
      </trkpt>
      <trkpt lat="36.977683" lon="-3.5262">
        <ele>1174.873</ele>
        <time>2015-06-24T13:57:18Z</time>
      </trkpt>
      <trkpt lat="36.977719" lon="-3.52608">
        <ele>1175.665</ele>
        <time>2015-06-24T13:57:25Z</time>
      </trkpt>
      <trkpt lat="36.977644" lon="-3.526004">
        <ele>1177.695</ele>
        <time>2015-06-24T13:57:33Z</time>
      </trkpt>
      <trkpt lat="36.977526" lon="-3.525955">
        <ele>1178.896</ele>
        <time>2015-06-24T13:57:43Z</time>
      </trkpt>
      <trkpt lat="36.977434" lon="-3.52576">
        <ele>1180.875</ele>
        <time>2015-06-24T13:57:58Z</time>
      </trkpt>
      <trkpt lat="36.977528" lon="-3.525567">
        <ele>1186.083</ele>
        <time>2015-06-24T13:58:15Z</time>
      </trkpt>
      <trkpt lat="36.977677" lon="-3.525405">
        <ele>1188.294</ele>
        <time>2015-06-24T13:58:35Z</time>
      </trkpt>
      <trkpt lat="36.977781" lon="-3.525142">
        <ele>1192.821</ele>
        <time>2015-06-24T13:58:56Z</time>
      </trkpt>
      <trkpt lat="36.977886" lon="-3.52463">
        <ele>1194.814</ele>
        <time>2015-06-24T13:59:29Z</time>
      </trkpt>
      <trkpt lat="36.977991" lon="-3.524582">
        <ele>1196.859</ele>
        <time>2015-06-24T13:59:40Z</time>
      </trkpt>
      <trkpt lat="36.978025" lon="-3.524569">
        <ele>1199.214</ele>
        <time>2015-06-24T13:59:45Z</time>
      </trkpt>
      <trkpt lat="36.978014" lon="-3.524354">
        <ele>1199.607</ele>
        <time>2015-06-24T14:00:39Z</time>
      </trkpt>
      <trkpt lat="36.978148" lon="-3.524071">
        <ele>1201.205</ele>
        <time>2015-06-24T14:00:58Z</time>
      </trkpt>
      <trkpt lat="36.978352" lon="-3.523325">
        <ele>1201.251</ele>
        <time>2015-06-24T14:01:31Z</time>
      </trkpt>
      <trkpt lat="36.978463" lon="-3.522699">
        <ele>1207.497</ele>
        <time>2015-06-24T14:02:08Z</time>
      </trkpt>
      <trkpt lat="36.978633" lon="-3.522306">
        <ele>1210.204</ele>
        <time>2015-06-24T14:02:35Z</time>
      </trkpt>
      <trkpt lat="36.97869" lon="-3.522091">
        <ele>1213.662</ele>
        <time>2015-06-24T14:02:50Z</time>
      </trkpt>
      <trkpt lat="36.97875" lon="-3.521632">
        <ele>1215.845</ele>
        <time>2015-06-24T14:03:10Z</time>
      </trkpt>
      <trkpt lat="36.978732" lon="-3.521552">
        <ele>1215.863</ele>
        <time>2015-06-24T14:03:13Z</time>
      </trkpt>
      <trkpt lat="36.978775" lon="-3.520965">
        <ele>1215.846</ele>
        <time>2015-06-24T14:03:33Z</time>
      </trkpt>
      <trkpt lat="36.978755" lon="-3.520274">
        <ele>1217.813</ele>
        <time>2015-06-24T14:03:56Z</time>
      </trkpt>
      <trkpt lat="36.978763" lon="-3.520028">
        <ele>1217.853</ele>
        <time>2015-06-24T14:04:03Z</time>
      </trkpt>
      <trkpt lat="36.97853" lon="-3.519352">
        <ele>1217.816</ele>
        <time>2015-06-24T14:04:23Z</time>
      </trkpt>
      <trkpt lat="36.978497" lon="-3.518862">
        <ele>1219.875</ele>
        <time>2015-06-24T14:04:37Z</time>
      </trkpt>
      <trkpt lat="36.97847" lon="-3.518494">
        <ele>1219.818</ele>
        <time>2015-06-24T14:04:51Z</time>
      </trkpt>
      <trkpt lat="36.97842" lon="-3.518366">
        <ele>1219.882</ele>
        <time>2015-06-24T14:04:57Z</time>
      </trkpt>
      <trkpt lat="36.978275" lon="-3.51827">
        <ele>1221.424</ele>
        <time>2015-06-24T14:05:05Z</time>
      </trkpt>
      <trkpt lat="36.97792" lon="-3.518055">
        <ele>1221.865</ele>
        <time>2015-06-24T14:05:22Z</time>
      </trkpt>
      <trkpt lat="36.977813" lon="-3.51798">
        <ele>1230.656</ele>
        <time>2015-06-24T14:06:47Z</time>
      </trkpt>
      <trkpt lat="36.977349" lon="-3.517673">
        <ele>1232.442</ele>
        <time>2015-06-24T14:07:18Z</time>
      </trkpt>
      <trkpt lat="36.977209" lon="-3.517472">
        <ele>1234.699</ele>
        <time>2015-06-24T14:07:31Z</time>
      </trkpt>
      <trkpt lat="36.977061" lon="-3.516979">
        <ele>1236.633</ele>
        <time>2015-06-24T14:07:51Z</time>
      </trkpt>
      <trkpt lat="36.977057" lon="-3.516378">
        <ele>1239.633</ele>
        <time>2015-06-24T14:08:15Z</time>
      </trkpt>
      <trkpt lat="36.976961" lon="-3.516261">
        <ele>1240.868</ele>
        <time>2015-06-24T14:08:21Z</time>
      </trkpt>
      <trkpt lat="36.976757" lon="-3.516354">
        <ele>1240.801</ele>
        <time>2015-06-24T14:08:32Z</time>
      </trkpt>
      <trkpt lat="36.976388" lon="-3.516863">
        <ele>1244.696</ele>
        <time>2015-06-24T14:09:02Z</time>
      </trkpt>
      <trkpt lat="36.975997" lon="-3.51718">
        <ele>1249.207</ele>
        <time>2015-06-24T14:09:29Z</time>
      </trkpt>
      <trkpt lat="36.975586" lon="-3.517555">
        <ele>1253.407</ele>
        <time>2015-06-24T14:10:01Z</time>
      </trkpt>
      <trkpt lat="36.975439" lon="-3.517716">
        <ele>1255.495</ele>
        <time>2015-06-24T14:10:13Z</time>
      </trkpt>
      <trkpt lat="36.975125" lon="-3.517968">
        <ele>1257.484</ele>
        <time>2015-06-24T14:10:38Z</time>
      </trkpt>
      <trkpt lat="36.974949" lon="-3.518297">
        <ele>1261.622</ele>
        <time>2015-06-24T14:11:01Z</time>
      </trkpt>
      <trkpt lat="36.974874" lon="-3.518515">
        <ele>1263.847</ele>
        <time>2015-06-24T14:11:14Z</time>
      </trkpt>
      <trkpt lat="36.974817" lon="-3.518967">
        <ele>1266.896</ele>
        <time>2015-06-24T14:11:40Z</time>
      </trkpt>
      <trkpt lat="36.974515" lon="-3.519514">
        <ele>1272.211</ele>
        <time>2015-06-24T14:12:13Z</time>
      </trkpt>
      <trkpt lat="36.974416" lon="-3.519603">
        <ele>1272.208</ele>
        <time>2015-06-24T14:12:19Z</time>
      </trkpt>
      <trkpt lat="36.973789" lon="-3.519813">
        <ele>1275.214</ele>
        <time>2015-06-24T14:12:53Z</time>
      </trkpt>
      <trkpt lat="36.973499" lon="-3.519835">
        <ele>1278.691</ele>
        <time>2015-06-24T14:13:09Z</time>
      </trkpt>
      <trkpt lat="36.972724" lon="-3.519775">
        <ele>1283.813</ele>
        <time>2015-06-24T14:13:53Z</time>
      </trkpt>
      <trkpt lat="36.971989" lon="-3.519532">
        <ele>1289.246</ele>
        <time>2015-06-24T14:14:36Z</time>
      </trkpt>
      <trkpt lat="36.97183" lon="-3.519463">
        <ele>1289.296</ele>
        <time>2015-06-24T14:14:44Z</time>
      </trkpt>
      <trkpt lat="36.971655" lon="-3.519471">
        <ele>1289.289</ele>
        <time>2015-06-24T14:14:50Z</time>
      </trkpt>
      <trkpt lat="36.971502" lon="-3.519593">
        <ele>1289.219</ele>
        <time>2015-06-24T14:14:54Z</time>
      </trkpt>
      <trkpt lat="36.971246" lon="-3.519906">
        <ele>1289.208</ele>
        <time>2015-06-24T14:15:02Z</time>
      </trkpt>
      <trkpt lat="36.970907" lon="-3.520096">
        <ele>1289.262</ele>
        <time>2015-06-24T14:15:09Z</time>
      </trkpt>
      <trkpt lat="36.970116" lon="-3.520388">
        <ele>1285.008</ele>
        <time>2015-06-24T14:15:22Z</time>
      </trkpt>
      <trkpt lat="36.969787" lon="-3.52054">
        <ele>1282.464</ele>
        <time>2015-06-24T14:15:28Z</time>
      </trkpt>
      <trkpt lat="36.968684" lon="-3.520897">
        <ele>1277.694</ele>
        <time>2015-06-24T14:15:46Z</time>
      </trkpt>
      <trkpt lat="36.968412" lon="-3.521009">
        <ele>1275.804</ele>
        <time>2015-06-24T14:15:50Z</time>
      </trkpt>
      <trkpt lat="36.967556" lon="-3.521152">
        <ele>1272.233</ele>
        <time>2015-06-24T14:16:00Z</time>
      </trkpt>
      <trkpt lat="36.967196" lon="-3.521038">
        <ele>1270.044</ele>
        <time>2015-06-24T14:16:04Z</time>
      </trkpt>
      <trkpt lat="36.966904" lon="-3.52076">
        <ele>1267.282</ele>
        <time>2015-06-24T14:16:08Z</time>
      </trkpt>
      <trkpt lat="36.966815" lon="-3.52058">
        <ele>1265.85</ele>
        <time>2015-06-24T14:16:10Z</time>
      </trkpt>
      <trkpt lat="36.966804" lon="-3.520286">
        <ele>1263.847</ele>
        <time>2015-06-24T14:16:13Z</time>
      </trkpt>
      <trkpt lat="36.966925" lon="-3.519952">
        <ele>1261.417</ele>
        <time>2015-06-24T14:16:17Z</time>
      </trkpt>
      <trkpt lat="36.966924" lon="-3.519807">
        <ele>1261.008</ele>
        <time>2015-06-24T14:16:19Z</time>
      </trkpt>
      <trkpt lat="36.966843" lon="-3.51974">
        <ele>1260.019</ele>
        <time>2015-06-24T14:16:21Z</time>
      </trkpt>
      <trkpt lat="36.966694" lon="-3.519792">
        <ele>1259.027</ele>
        <time>2015-06-24T14:16:24Z</time>
      </trkpt>
      <trkpt lat="36.966401" lon="-3.519959">
        <ele>1256.485</ele>
        <time>2015-06-24T14:16:30Z</time>
      </trkpt>
      <trkpt lat="36.965893" lon="-3.520066">
        <ele>1255.283</ele>
        <time>2015-06-24T14:16:38Z</time>
      </trkpt>
      <trkpt lat="36.965613" lon="-3.520037">
        <ele>1253.844</ele>
        <time>2015-06-24T14:16:42Z</time>
      </trkpt>
      <trkpt lat="36.964829" lon="-3.51976">
        <ele>1250.648</ele>
        <time>2015-06-24T14:16:52Z</time>
      </trkpt>
      <trkpt lat="36.964071" lon="-3.519662">
        <ele>1247.624</ele>
        <time>2015-06-24T14:17:01Z</time>
      </trkpt>
      <trkpt lat="36.963551" lon="-3.519455">
        <ele>1245.227</ele>
        <time>2015-06-24T14:17:07Z</time>
      </trkpt>
      <trkpt lat="36.963139" lon="-3.519207">
        <ele>1242.223</ele>
        <time>2015-06-24T14:17:12Z</time>
      </trkpt>
      <trkpt lat="36.962731" lon="-3.518659">
        <ele>1237.419</ele>
        <time>2015-06-24T14:17:19Z</time>
      </trkpt>
      <trkpt lat="36.962623" lon="-3.518618">
        <ele>1235.824</ele>
        <time>2015-06-24T14:17:21Z</time>
      </trkpt>
      <trkpt lat="36.962534" lon="-3.518706">
        <ele>1235.852</ele>
        <time>2015-06-24T14:17:23Z</time>
      </trkpt>
      <trkpt lat="36.962419" lon="-3.518991">
        <ele>1233.679</ele>
        <time>2015-06-24T14:17:27Z</time>
      </trkpt>
      <trkpt lat="36.962162" lon="-3.519212">
        <ele>1232.01</ele>
        <time>2015-06-24T14:17:31Z</time>
      </trkpt>
      <trkpt lat="36.961712" lon="-3.519418">
        <ele>1231.475</ele>
        <time>2015-06-24T14:17:36Z</time>
      </trkpt>
      <trkpt lat="36.961391" lon="-3.519656">
        <ele>1228.498</ele>
        <time>2015-06-24T14:17:40Z</time>
      </trkpt>
      <trkpt lat="36.961122" lon="-3.519736">
        <ele>1226.231</ele>
        <time>2015-06-24T14:17:43Z</time>
      </trkpt>
      <trkpt lat="36.960719" lon="-3.519783">
        <ele>1222.608</ele>
        <time>2015-06-24T14:17:47Z</time>
      </trkpt>
      <trkpt lat="36.960071" lon="-3.519936">
        <ele>1217.896</ele>
        <time>2015-06-24T14:17:53Z</time>
      </trkpt>
      <trkpt lat="36.959656" lon="-3.52003">
        <ele>1215.083</ele>
        <time>2015-06-24T14:17:57Z</time>
      </trkpt>
      <trkpt lat="36.959258" lon="-3.519943">
        <ele>1211.878</ele>
        <time>2015-06-24T14:18:01Z</time>
      </trkpt>
      <trkpt lat="36.958432" lon="-3.519605">
        <ele>1204.289</ele>
        <time>2015-06-24T14:18:09Z</time>
      </trkpt>
      <trkpt lat="36.958082" lon="-3.519364">
        <ele>1199.428</ele>
        <time>2015-06-24T14:18:13Z</time>
      </trkpt>
      <trkpt lat="36.957938" lon="-3.519175">
        <ele>1197.816</ele>
        <time>2015-06-24T14:18:15Z</time>
      </trkpt>
      <trkpt lat="36.957789" lon="-3.518877">
        <ele>1195.253</ele>
        <time>2015-06-24T14:18:18Z</time>
      </trkpt>
      <trkpt lat="36.957647" lon="-3.518807">
        <ele>1193.473</ele>
        <time>2015-06-24T14:18:20Z</time>
      </trkpt>
      <trkpt lat="36.95751" lon="-3.518852">
        <ele>1191.613</ele>
        <time>2015-06-24T14:18:22Z</time>
      </trkpt>
      <trkpt lat="36.957063" lon="-3.519088">
        <ele>1187.211</ele>
        <time>2015-06-24T14:18:28Z</time>
      </trkpt>
      <trkpt lat="36.956373" lon="-3.519438">
        <ele>1183.208</ele>
        <time>2015-06-24T14:18:35Z</time>
      </trkpt>
      <trkpt lat="36.955879" lon="-3.51974">
        <ele>1178.847</ele>
        <time>2015-06-24T14:18:40Z</time>
      </trkpt>
      <trkpt lat="36.955594" lon="-3.519772">
        <ele>1178.09</ele>
        <time>2015-06-24T14:18:43Z</time>
      </trkpt>
      <trkpt lat="36.955193" lon="-3.519599">
        <ele>1175.218</ele>
        <time>2015-06-24T14:18:48Z</time>
      </trkpt>
      <trkpt lat="36.954288" lon="-3.518857">
        <ele>1168.813</ele>
        <time>2015-06-24T14:19:00Z</time>
      </trkpt>
      <trkpt lat="36.953944" lon="-3.518617">
        <ele>1167.086</ele>
        <time>2015-06-24T14:19:04Z</time>
      </trkpt>
      <trkpt lat="36.953637" lon="-3.518532">
        <ele>1165.073</ele>
        <time>2015-06-24T14:19:07Z</time>
      </trkpt>
      <trkpt lat="36.953136" lon="-3.518562">
        <ele>1161.808</ele>
        <time>2015-06-24T14:19:12Z</time>
      </trkpt>
      <trkpt lat="36.95276" lon="-3.51844">
        <ele>1159.846</ele>
        <time>2015-06-24T14:19:16Z</time>
      </trkpt>
      <trkpt lat="36.952376" lon="-3.517973">
        <ele>1155.87</ele>
        <time>2015-06-24T14:19:22Z</time>
      </trkpt>
      <trkpt lat="36.952292" lon="-3.517672">
        <ele>1153.464</ele>
        <time>2015-06-24T14:19:25Z</time>
      </trkpt>
      <trkpt lat="36.952335" lon="-3.517383">
        <ele>1151.277</ele>
        <time>2015-06-24T14:19:28Z</time>
      </trkpt>
      <trkpt lat="36.952575" lon="-3.51705">
        <ele>1148.492</ele>
        <time>2015-06-24T14:19:45Z</time>
      </trkpt>
      <trkpt lat="36.952652" lon="-3.517004">
        <ele>1147.614</ele>
        <time>2015-06-24T14:24:16Z</time>
      </trkpt>
      <trkpt lat="36.952826" lon="-3.51661">
        <ele>1146.269</ele>
        <time>2015-06-24T14:24:28Z</time>
      </trkpt>
      <trkpt lat="36.952999" lon="-3.516161">
        <ele>1148.607</ele>
        <time>2015-06-24T14:24:39Z</time>
      </trkpt>
      <trkpt lat="36.953034" lon="-3.515909">
        <ele>1148.608</ele>
        <time>2015-06-24T14:24:45Z</time>
      </trkpt>
      <trkpt lat="36.952944" lon="-3.515312">
        <ele>1148.614</ele>
        <time>2015-06-24T14:25:08Z</time>
      </trkpt>
      <trkpt lat="36.952959" lon="-3.515004">
        <ele>1148.623</ele>
        <time>2015-06-24T14:25:15Z</time>
      </trkpt>
      <trkpt lat="36.953075" lon="-3.514584">
        <ele>1148.689</ele>
        <time>2015-06-24T14:25:25Z</time>
      </trkpt>
      <trkpt lat="36.953383" lon="-3.513762">
        <ele>1148.631</ele>
        <time>2015-06-24T14:25:48Z</time>
      </trkpt>
      <trkpt lat="36.953494" lon="-3.513387">
        <ele>1148.608</ele>
        <time>2015-06-24T14:25:58Z</time>
      </trkpt>
      <trkpt lat="36.953561" lon="-3.513357">
        <ele>1148.643</ele>
        <time>2015-06-24T14:26:18Z</time>
      </trkpt>
      <trkpt lat="36.953428" lon="-3.513449">
        <ele>1150.636</ele>
        <time>2015-06-24T14:26:57Z</time>
      </trkpt>
      <trkpt lat="36.953555" lon="-3.513362">
        <ele>1150.608</ele>
        <time>2015-06-24T14:27:13Z</time>
      </trkpt>
      <trkpt lat="36.953441" lon="-3.513168">
        <ele>1150.699</ele>
        <time>2015-06-24T14:27:23Z</time>
      </trkpt>
      <trkpt lat="36.953373" lon="-3.512692">
        <ele>1150.65</ele>
        <time>2015-06-24T14:27:34Z</time>
      </trkpt>
      <trkpt lat="36.953151" lon="-3.512081">
        <ele>1148.422</ele>
        <time>2015-06-24T14:27:45Z</time>
      </trkpt>
      <trkpt lat="36.953188" lon="-3.511577">
        <ele>1148.41</ele>
        <time>2015-06-24T14:27:53Z</time>
      </trkpt>
      <trkpt lat="36.953264" lon="-3.511352">
        <ele>1148.447</ele>
        <time>2015-06-24T14:27:59Z</time>
      </trkpt>
      <trkpt lat="36.953622" lon="-3.510998">
        <ele>1150.614</ele>
        <time>2015-06-24T14:28:09Z</time>
      </trkpt>
      <trkpt lat="36.953814" lon="-3.510712">
        <ele>1150.687</ele>
        <time>2015-06-24T14:28:17Z</time>
      </trkpt>
      <trkpt lat="36.953944" lon="-3.510325">
        <ele>1150.694</ele>
        <time>2015-06-24T14:28:27Z</time>
      </trkpt>
      <trkpt lat="36.953887" lon="-3.510179">
        <ele>1150.67</ele>
        <time>2015-06-24T14:28:32Z</time>
      </trkpt>
      <trkpt lat="36.953742" lon="-3.510115">
        <ele>1150.692</ele>
        <time>2015-06-24T14:28:38Z</time>
      </trkpt>
      <trkpt lat="36.95342" lon="-3.510179">
        <ele>1150.654</ele>
        <time>2015-06-24T14:28:45Z</time>
      </trkpt>
      <trkpt lat="36.952878" lon="-3.51002">
        <ele>1149.877</ele>
        <time>2015-06-24T14:28:53Z</time>
      </trkpt>
      <trkpt lat="36.952616" lon="-3.509742">
        <ele>1147.813</ele>
        <time>2015-06-24T14:28:57Z</time>
      </trkpt>
      <trkpt lat="36.951832" lon="-3.508653">
        <ele>1139.836</ele>
        <time>2015-06-24T14:29:09Z</time>
      </trkpt>
      <trkpt lat="36.951535" lon="-3.508083">
        <ele>1137.059</ele>
        <time>2015-06-24T14:29:15Z</time>
      </trkpt>
      <trkpt lat="36.951432" lon="-3.507778">
        <ele>1135.27</ele>
        <time>2015-06-24T14:29:19Z</time>
      </trkpt>
      <trkpt lat="36.951309" lon="-3.50771">
        <ele>1134.21</ele>
        <time>2015-06-24T14:29:21Z</time>
      </trkpt>
      <trkpt lat="36.950783" lon="-3.507717">
        <ele>1134.208</ele>
        <time>2015-06-24T14:29:34Z</time>
      </trkpt>
      <trkpt lat="36.950614" lon="-3.507872">
        <ele>1134.232</ele>
        <time>2015-06-24T14:29:39Z</time>
      </trkpt>
      <trkpt lat="36.950184" lon="-3.5085">
        <ele>1132.886</ele>
        <time>2015-06-24T14:29:52Z</time>
      </trkpt>
      <trkpt lat="36.949919" lon="-3.509099">
        <ele>1132.094</ele>
        <time>2015-06-24T14:30:01Z</time>
      </trkpt>
      <trkpt lat="36.949718" lon="-3.509199">
        <ele>1131.252</ele>
        <time>2015-06-24T14:30:04Z</time>
      </trkpt>
      <trkpt lat="36.948942" lon="-3.509374">
        <ele>1125.64</ele>
        <time>2015-06-24T14:30:14Z</time>
      </trkpt>
      <trkpt lat="36.948689" lon="-3.50951">
        <ele>1125.638</ele>
        <time>2015-06-24T14:30:19Z</time>
      </trkpt>
      <trkpt lat="36.948555" lon="-3.509639">
        <ele>1125.668</ele>
        <time>2015-06-24T14:30:24Z</time>
      </trkpt>
      <trkpt lat="36.948417" lon="-3.509678">
        <ele>1125.661</ele>
        <time>2015-06-24T14:30:29Z</time>
      </trkpt>
      <trkpt lat="36.948" lon="-3.50966">
        <ele>1125.681</ele>
        <time>2015-06-24T14:30:41Z</time>
      </trkpt>
      <trkpt lat="36.947755" lon="-3.509703">
        <ele>1125.617</ele>
        <time>2015-06-24T14:30:47Z</time>
      </trkpt>
      <trkpt lat="36.947486" lon="-3.509582">
        <ele>1125.65</ele>
        <time>2015-06-24T14:30:55Z</time>
      </trkpt>
      <trkpt lat="36.947079" lon="-3.509754">
        <ele>1125.611</ele>
        <time>2015-06-24T14:31:09Z</time>
      </trkpt>
      <trkpt lat="36.946705" lon="-3.50959">
        <ele>1125.651</ele>
        <time>2015-06-24T14:31:21Z</time>
      </trkpt>
      <trkpt lat="36.946479" lon="-3.509583">
        <ele>1125.655</ele>
        <time>2015-06-24T14:31:28Z</time>
      </trkpt>
      <trkpt lat="36.946254" lon="-3.509627">
        <ele>1127.849</ele>
        <time>2015-06-24T14:31:35Z</time>
      </trkpt>
      <trkpt lat="36.945992" lon="-3.509587">
        <ele>1129.024</ele>
        <time>2015-06-24T14:31:43Z</time>
      </trkpt>
      <trkpt lat="36.945906" lon="-3.509524">
        <ele>1130.062</ele>
        <time>2015-06-24T14:31:46Z</time>
      </trkpt>
      <trkpt lat="36.945717" lon="-3.509048">
        <ele>1130.038</ele>
        <time>2015-06-24T14:31:57Z</time>
      </trkpt>
      <trkpt lat="36.945594" lon="-3.508956">
        <ele>1130.078</ele>
        <time>2015-06-24T14:32:00Z</time>
      </trkpt>
      <trkpt lat="36.945468" lon="-3.508996">
        <ele>1128.829</ele>
        <time>2015-06-24T14:32:03Z</time>
      </trkpt>
      <trkpt lat="36.945389" lon="-3.509135">
        <ele>1128.022</ele>
        <time>2015-06-24T14:32:07Z</time>
      </trkpt>
      <trkpt lat="36.945214" lon="-3.509285">
        <ele>1128.062</ele>
        <time>2015-06-24T14:32:13Z</time>
      </trkpt>
      <trkpt lat="36.944935" lon="-3.509442">
        <ele>1128.008</ele>
        <time>2015-06-24T14:32:21Z</time>
      </trkpt>
      <trkpt lat="36.944325" lon="-3.509703">
        <ele>1128.013</ele>
        <time>2015-06-24T14:32:37Z</time>
      </trkpt>
      <trkpt lat="36.944055" lon="-3.509748">
        <ele>1128.058</ele>
        <time>2015-06-24T14:32:44Z</time>
      </trkpt>
      <trkpt lat="36.943838" lon="-3.509686">
        <ele>1128.088</ele>
        <time>2015-06-24T14:32:50Z</time>
      </trkpt>
      <trkpt lat="36.943343" lon="-3.509373">
        <ele>1130.007</ele>
        <time>2015-06-24T14:33:09Z</time>
      </trkpt>
      <trkpt lat="36.942856" lon="-3.508986">
        <ele>1132.659</ele>
        <time>2015-06-24T14:33:30Z</time>
      </trkpt>
      <trkpt lat="36.942223" lon="-3.508434">
        <ele>1134.297</ele>
        <time>2015-06-24T14:34:00Z</time>
      </trkpt>
      <trkpt lat="36.941389" lon="-3.507811">
        <ele>1140.063</ele>
        <time>2015-06-24T14:34:47Z</time>
      </trkpt>
      <trkpt lat="36.940906" lon="-3.507503">
        <ele>1144.497</ele>
        <time>2015-06-24T14:35:16Z</time>
      </trkpt>
      <trkpt lat="36.940595" lon="-3.507401">
        <ele>1146.424</ele>
        <time>2015-06-24T14:35:32Z</time>
      </trkpt>
      <trkpt lat="36.940283" lon="-3.507341">
        <ele>1148.416</ele>
        <time>2015-06-24T14:35:49Z</time>
      </trkpt>
      <trkpt lat="36.940117" lon="-3.507254">
        <ele>1150.629</ele>
        <time>2015-06-24T14:35:58Z</time>
      </trkpt>
      <trkpt lat="36.940035" lon="-3.507145">
        <ele>1150.6</ele>
        <time>2015-06-24T14:36:04Z</time>
      </trkpt>
      <trkpt lat="36.939991" lon="-3.506937">
        <ele>1152.498</ele>
        <time>2015-06-24T14:36:12Z</time>
      </trkpt>
      <trkpt lat="36.939969" lon="-3.506435">
        <ele>1154.885</ele>
        <time>2015-06-24T14:36:32Z</time>
      </trkpt>
      <trkpt lat="36.939876" lon="-3.505964">
        <ele>1158.631</ele>
        <time>2015-06-24T14:36:59Z</time>
      </trkpt>
      <trkpt lat="36.939754" lon="-3.505528">
        <ele>1160.847</ele>
        <time>2015-06-24T14:37:23Z</time>
      </trkpt>
      <trkpt lat="36.939343" lon="-3.504771">
        <ele>1167.005</ele>
        <time>2015-06-24T14:38:06Z</time>
      </trkpt>
      <trkpt lat="36.939309" lon="-3.504353">
        <ele>1170.282</ele>
        <time>2015-06-24T14:38:23Z</time>
      </trkpt>
      <trkpt lat="36.939305" lon="-3.504">
        <ele>1171.808</ele>
        <time>2015-06-24T14:38:38Z</time>
      </trkpt>
      <trkpt lat="36.939176" lon="-3.503655">
        <ele>1173.099</ele>
        <time>2015-06-24T14:38:55Z</time>
      </trkpt>
      <trkpt lat="36.938904" lon="-3.503264">
        <ele>1176.421</ele>
        <time>2015-06-24T14:39:16Z</time>
      </trkpt>
      <trkpt lat="36.938694" lon="-3.503123">
        <ele>1178.698</ele>
        <time>2015-06-24T14:39:27Z</time>
      </trkpt>
      <trkpt lat="36.938489" lon="-3.50301">
        <ele>1180.655</ele>
        <time>2015-06-24T14:39:36Z</time>
      </trkpt>
      <trkpt lat="36.938341" lon="-3.502811">
        <ele>1180.663</ele>
        <time>2015-06-24T14:39:48Z</time>
      </trkpt>
      <trkpt lat="36.938305" lon="-3.502533">
        <ele>1182.224</ele>
        <time>2015-06-24T14:40:00Z</time>
      </trkpt>
      <trkpt lat="36.938364" lon="-3.50201">
        <ele>1184.868</ele>
        <time>2015-06-24T14:40:25Z</time>
      </trkpt>
      <trkpt lat="36.938389" lon="-3.501888">
        <ele>1186.843</ele>
        <time>2015-06-24T14:43:00Z</time>
      </trkpt>
      <trkpt lat="36.938437" lon="-3.501835">
        <ele>1186.894</ele>
        <time>2015-06-24T14:43:05Z</time>
      </trkpt>
      <trkpt lat="36.938627" lon="-3.501372">
        <ele>1189.041</ele>
        <time>2015-06-24T14:43:27Z</time>
      </trkpt>
      <trkpt lat="36.938827" lon="-3.501022">
        <ele>1191.011</ele>
        <time>2015-06-24T14:43:44Z</time>
      </trkpt>
      <trkpt lat="36.938895" lon="-3.500704">
        <ele>1193.243</ele>
        <time>2015-06-24T14:44:01Z</time>
      </trkpt>
      <trkpt lat="36.938872" lon="-3.500538">
        <ele>1195.425</ele>
        <time>2015-06-24T14:44:10Z</time>
      </trkpt>
      <trkpt lat="36.938726" lon="-3.500381">
        <ele>1197.476</ele>
        <time>2015-06-24T14:44:22Z</time>
      </trkpt>
      <trkpt lat="36.938641" lon="-3.500346">
        <ele>1197.42</ele>
        <time>2015-06-24T14:44:26Z</time>
      </trkpt>
      <trkpt lat="36.938524" lon="-3.500202">
        <ele>1198.26</ele>
        <time>2015-06-24T14:44:35Z</time>
      </trkpt>
      <trkpt lat="36.938541" lon="-3.5001">
        <ele>1199.465</ele>
        <time>2015-06-24T14:44:56Z</time>
      </trkpt>
      <trkpt lat="36.938568" lon="-3.500093">
        <ele>1199.408</ele>
        <time>2015-06-24T14:45:19Z</time>
      </trkpt>
      <trkpt lat="36.938534" lon="-3.500129">
        <ele>1199.477</ele>
        <time>2015-06-24T14:45:23Z</time>
      </trkpt>
      <trkpt lat="36.938458" lon="-3.499962">
        <ele>1199.452</ele>
        <time>2015-06-24T14:45:32Z</time>
      </trkpt>
      <trkpt lat="36.938049" lon="-3.499727">
        <ele>1199.483</ele>
        <time>2015-06-24T14:45:49Z</time>
      </trkpt>
      <trkpt lat="36.93781" lon="-3.499492">
        <ele>1201.673</ele>
        <time>2015-06-24T14:46:02Z</time>
      </trkpt>
      <trkpt lat="36.937673" lon="-3.499414">
        <ele>1201.657</ele>
        <time>2015-06-24T14:46:15Z</time>
      </trkpt>
      <trkpt lat="36.937413" lon="-3.49922">
        <ele>1201.63</ele>
        <time>2015-06-24T14:46:23Z</time>
      </trkpt>
      <trkpt lat="36.93714" lon="-3.499081">
        <ele>1200.663</ele>
        <time>2015-06-24T14:46:28Z</time>
      </trkpt>
      <trkpt lat="36.937055" lon="-3.498892">
        <ele>1194.828</ele>
        <time>2015-06-24T14:47:46Z</time>
      </trkpt>
      <trkpt lat="36.93706" lon="-3.498289">
        <ele>1194.426</ele>
        <time>2015-06-24T14:53:33Z</time>
      </trkpt>
      <trkpt lat="36.93694" lon="-3.497902">
        <ele>1193.286</ele>
        <time>2015-06-24T14:53:40Z</time>
      </trkpt>
      <trkpt lat="36.936974" lon="-3.497548">
        <ele>1192.279</ele>
        <time>2015-06-24T14:53:45Z</time>
      </trkpt>
      <trkpt lat="36.937056" lon="-3.497068">
        <ele>1190.652</ele>
        <time>2015-06-24T14:53:50Z</time>
      </trkpt>
      <trkpt lat="36.937016" lon="-3.496897">
        <ele>1189.225</ele>
        <time>2015-06-24T14:53:52Z</time>
      </trkpt>
      <trkpt lat="36.936734" lon="-3.496514">
        <ele>1185.622</ele>
        <time>2015-06-24T14:53:57Z</time>
      </trkpt>
      <trkpt lat="36.93661" lon="-3.496442">
        <ele>1184.695</ele>
        <time>2015-06-24T14:53:59Z</time>
      </trkpt>
      <trkpt lat="36.936502" lon="-3.496478">
        <ele>1183.48</ele>
        <time>2015-06-24T14:54:01Z</time>
      </trkpt>
      <trkpt lat="36.936452" lon="-3.496604">
        <ele>1182.218</ele>
        <time>2015-06-24T14:54:03Z</time>
      </trkpt>
      <trkpt lat="36.936531" lon="-3.496784">
        <ele>1180.481</ele>
        <time>2015-06-24T14:54:06Z</time>
      </trkpt>
      <trkpt lat="36.93662" lon="-3.496916">
        <ele>1179.454</ele>
        <time>2015-06-24T14:54:08Z</time>
      </trkpt>
      <trkpt lat="36.936628" lon="-3.4971">
        <ele>1178.208</ele>
        <time>2015-06-24T14:54:10Z</time>
      </trkpt>
      <trkpt lat="36.936453" lon="-3.497561">
        <ele>1175.815</ele>
        <time>2015-06-24T14:54:15Z</time>
      </trkpt>
      <trkpt lat="36.936128" lon="-3.499091">
        <ele>1168.031</ele>
        <time>2015-06-24T14:54:28Z</time>
      </trkpt>
      <trkpt lat="36.935867" lon="-3.499848">
        <ele>1161.066</ele>
        <time>2015-06-24T14:54:36Z</time>
      </trkpt>
      <trkpt lat="36.935839" lon="-3.500196">
        <ele>1157.229</ele>
        <time>2015-06-24T14:54:40Z</time>
      </trkpt>
      <trkpt lat="36.935929" lon="-3.500464">
        <ele>1154.872</ele>
        <time>2015-06-24T14:54:43Z</time>
      </trkpt>
      <trkpt lat="36.936083" lon="-3.500687">
        <ele>1151.813</ele>
        <time>2015-06-24T14:54:46Z</time>
      </trkpt>
      <trkpt lat="36.936387" lon="-3.500944">
        <ele>1147.671</ele>
        <time>2015-06-24T14:54:52Z</time>
      </trkpt>
      <trkpt lat="36.936351" lon="-3.501058">
        <ele>1146.218</ele>
        <time>2015-06-24T14:54:54Z</time>
      </trkpt>
      <trkpt lat="36.936147" lon="-3.501216">
        <ele>1144.641</ele>
        <time>2015-06-24T14:54:58Z</time>
      </trkpt>
      <trkpt lat="36.935675" lon="-3.50149">
        <ele>1141.424</ele>
        <time>2015-06-24T14:55:06Z</time>
      </trkpt>
      <trkpt lat="36.935624" lon="-3.50156">
        <ele>1138.02</ele>
        <time>2015-06-24T14:55:11Z</time>
      </trkpt>
      <trkpt lat="36.935678" lon="-3.501829">
        <ele>1136.246</ele>
        <time>2015-06-24T14:57:01Z</time>
      </trkpt>
      <trkpt lat="36.9359" lon="-3.502217">
        <ele>1134.03</ele>
        <time>2015-06-24T14:57:08Z</time>
      </trkpt>
      <trkpt lat="36.935919" lon="-3.502353">
        <ele>1134.04</ele>
        <time>2015-06-24T14:57:10Z</time>
      </trkpt>
      <trkpt lat="36.935898" lon="-3.502495">
        <ele>1134.028</ele>
        <time>2015-06-24T14:57:12Z</time>
      </trkpt>
      <trkpt lat="36.935761" lon="-3.502741">
        <ele>1133.631</ele>
        <time>2015-06-24T14:57:17Z</time>
      </trkpt>
      <trkpt lat="36.935714" lon="-3.502934">
        <ele>1131.825</ele>
        <time>2015-06-24T14:57:21Z</time>
      </trkpt>
      <trkpt lat="36.935652" lon="-3.502953">
        <ele>1131.408</ele>
        <time>2015-06-24T14:57:23Z</time>
      </trkpt>
      <trkpt lat="36.935508" lon="-3.502814">
        <ele>1129.482</ele>
        <time>2015-06-24T14:57:27Z</time>
      </trkpt>
      <trkpt lat="36.935424" lon="-3.502613">
        <ele>1127.295</ele>
        <time>2015-06-24T14:57:31Z</time>
      </trkpt>
      <trkpt lat="36.935291" lon="-3.502516">
        <ele>1127.265</ele>
        <time>2015-06-24T14:57:35Z</time>
      </trkpt>
      <trkpt lat="36.935241" lon="-3.502503">
        <ele>1127.208</ele>
        <time>2015-06-24T14:57:39Z</time>
      </trkpt>
      <trkpt lat="36.935242" lon="-3.50293">
        <ele>1124.242</ele>
        <time>2015-06-24T14:57:47Z</time>
      </trkpt>
      <trkpt lat="36.935326" lon="-3.503191">
        <ele>1122.601</ele>
        <time>2015-06-24T14:57:50Z</time>
      </trkpt>
      <trkpt lat="36.935596" lon="-3.503391">
        <ele>1119.829</ele>
        <time>2015-06-24T14:57:55Z</time>
      </trkpt>
      <trkpt lat="36.935657" lon="-3.503601">
        <ele>1117.494</ele>
        <time>2015-06-24T14:57:59Z</time>
      </trkpt>
      <trkpt lat="36.935661" lon="-3.503746">
        <ele>1116.437</ele>
        <time>2015-06-24T14:58:01Z</time>
      </trkpt>
      <trkpt lat="36.935567" lon="-3.50412">
        <ele>1113.808</ele>
        <time>2015-06-24T14:58:04Z</time>
      </trkpt>
      <trkpt lat="36.935449" lon="-3.504954">
        <ele>1110.69</ele>
        <time>2015-06-24T14:58:11Z</time>
      </trkpt>
      <trkpt lat="36.935256" lon="-3.505581">
        <ele>1108.803</ele>
        <time>2015-06-24T14:58:17Z</time>
      </trkpt>
      <trkpt lat="36.934827" lon="-3.506446">
        <ele>1105.438</ele>
        <time>2015-06-24T14:58:26Z</time>
      </trkpt>
      <trkpt lat="36.934641" lon="-3.506919">
        <ele>1102.418</ele>
        <time>2015-06-24T14:58:31Z</time>
      </trkpt>
      <trkpt lat="36.934589" lon="-3.507364">
        <ele>1097.64</ele>
        <time>2015-06-24T14:58:37Z</time>
      </trkpt>
      <trkpt lat="36.934546" lon="-3.507375">
        <ele>1095.817</ele>
        <time>2015-06-24T14:58:39Z</time>
      </trkpt>
      <trkpt lat="36.934452" lon="-3.507068">
        <ele>1092.008</ele>
        <time>2015-06-24T14:58:44Z</time>
      </trkpt>
      <trkpt lat="36.93429" lon="-3.506076">
        <ele>1086.064</ele>
        <time>2015-06-24T14:58:54Z</time>
      </trkpt>
      <trkpt lat="36.934208" lon="-3.505601">
        <ele>1083.608</ele>
        <time>2015-06-24T14:58:58Z</time>
      </trkpt>
      <trkpt lat="36.934096" lon="-3.504903">
        <ele>1080.43</ele>
        <time>2015-06-24T14:59:04Z</time>
      </trkpt>
      <trkpt lat="36.934051" lon="-3.504391">
        <ele>1078.621</ele>
        <time>2015-06-24T14:59:09Z</time>
      </trkpt>
      <trkpt lat="36.934131" lon="-3.503762">
        <ele>1076.497</ele>
        <time>2015-06-24T14:59:16Z</time>
      </trkpt>
      <trkpt lat="36.934122" lon="-3.503694">
        <ele>1076.437</ele>
        <time>2015-06-24T14:59:17Z</time>
      </trkpt>
      <trkpt lat="36.934053" lon="-3.503597">
        <ele>1076.45</ele>
        <time>2015-06-24T14:59:20Z</time>
      </trkpt>
      <trkpt lat="36.933926" lon="-3.503624">
        <ele>1074.891</ele>
        <time>2015-06-24T14:59:48Z</time>
      </trkpt>
      <trkpt lat="36.933895" lon="-3.502991">
        <ele>1075.652</ele>
        <time>2015-06-24T15:00:20Z</time>
      </trkpt>
      <trkpt lat="36.934192" lon="-3.502428">
        <ele>1076.407</ele>
        <time>2015-06-24T15:00:37Z</time>
      </trkpt>
      <trkpt lat="36.934286" lon="-3.502201">
        <ele>1076.408</ele>
        <time>2015-06-24T15:00:42Z</time>
      </trkpt>
      <trkpt lat="36.934384" lon="-3.502071">
        <ele>1076.47</ele>
        <time>2015-06-24T15:00:45Z</time>
      </trkpt>
      <trkpt lat="36.93463" lon="-3.501849">
        <ele>1076.475</ele>
        <time>2015-06-24T15:00:51Z</time>
      </trkpt>
      <trkpt lat="36.93468" lon="-3.501658">
        <ele>1076.493</ele>
        <time>2015-06-24T15:00:54Z</time>
      </trkpt>
      <trkpt lat="36.934631" lon="-3.501536">
        <ele>1076.083</ele>
        <time>2015-06-24T15:00:56Z</time>
      </trkpt>
      <trkpt lat="36.934368" lon="-3.501434">
        <ele>1074.206</ele>
        <time>2015-06-24T15:01:01Z</time>
      </trkpt>
      <trkpt lat="36.933977" lon="-3.501144">
        <ele>1072.012</ele>
        <time>2015-06-24T15:01:09Z</time>
      </trkpt>
      <trkpt lat="36.933493" lon="-3.501063">
        <ele>1065.808</ele>
        <time>2015-06-24T15:01:17Z</time>
      </trkpt>
      <trkpt lat="36.932846" lon="-3.500822">
        <ele>1057.851</ele>
        <time>2015-06-24T15:01:26Z</time>
      </trkpt>
      <trkpt lat="36.932648" lon="-3.500645">
        <ele>1055.208</ele>
        <time>2015-06-24T15:01:29Z</time>
      </trkpt>
      <trkpt lat="36.932498" lon="-3.500315">
        <ele>1052.019</ele>
        <time>2015-06-24T15:01:33Z</time>
      </trkpt>
      <trkpt lat="36.932445" lon="-3.500193">
        <ele>1050.422</ele>
        <time>2015-06-24T15:01:35Z</time>
      </trkpt>
      <trkpt lat="36.932411" lon="-3.500173">
        <ele>1049.426</ele>
        <time>2015-06-24T15:01:36Z</time>
      </trkpt>
      <trkpt lat="36.932357" lon="-3.500248">
        <ele>1047.655</ele>
        <time>2015-06-24T15:01:38Z</time>
      </trkpt>
      <trkpt lat="36.932398" lon="-3.50052">
        <ele>1044.846</ele>
        <time>2015-06-24T15:01:42Z</time>
      </trkpt>
      <trkpt lat="36.932636" lon="-3.501169">
        <ele>1040.425</ele>
        <time>2015-06-24T15:01:50Z</time>
      </trkpt>
      <trkpt lat="36.932582" lon="-3.501311">
        <ele>1038.808</ele>
        <time>2015-06-24T15:01:53Z</time>
      </trkpt>
      <trkpt lat="36.932466" lon="-3.501244">
        <ele>1037.098</ele>
        <time>2015-06-24T15:01:56Z</time>
      </trkpt>
      <trkpt lat="36.932101" lon="-3.500676">
        <ele>1033.007</ele>
        <time>2015-06-24T15:02:03Z</time>
      </trkpt>
      <trkpt lat="36.931957" lon="-3.5001">
        <ele>1030.265</ele>
        <time>2015-06-24T15:02:08Z</time>
      </trkpt>
      <trkpt lat="36.931979" lon="-3.499652">
        <ele>1026.82</ele>
        <time>2015-06-24T15:02:12Z</time>
      </trkpt>
      <trkpt lat="36.932233" lon="-3.49885">
        <ele>1021.245</ele>
        <time>2015-06-24T15:02:19Z</time>
      </trkpt>
      <trkpt lat="36.932354" lon="-3.498097">
        <ele>1015.251</ele>
        <time>2015-06-24T15:02:26Z</time>
      </trkpt>
      <trkpt lat="36.932278" lon="-3.497885">
        <ele>1011.82</ele>
        <time>2015-06-24T15:02:29Z</time>
      </trkpt>
      <trkpt lat="36.932118" lon="-3.497549">
        <ele>1008.475</ele>
        <time>2015-06-24T15:02:33Z</time>
      </trkpt>
      <trkpt lat="36.931977" lon="-3.496977">
        <ele>1003.868</ele>
        <time>2015-06-24T15:02:39Z</time>
      </trkpt>
      <trkpt lat="36.931773" lon="-3.496535">
        <ele>1000.262</ele>
        <time>2015-06-24T15:02:44Z</time>
      </trkpt>
      <trkpt lat="36.931669" lon="-3.495866">
        <ele>996.053</ele>
        <time>2015-06-24T15:02:50Z</time>
      </trkpt>
      <trkpt lat="36.931512" lon="-3.495603">
        <ele>993.017</ele>
        <time>2015-06-24T15:02:53Z</time>
      </trkpt>
      <trkpt lat="36.931185" lon="-3.495148">
        <ele>986.457</ele>
        <time>2015-06-24T15:02:59Z</time>
      </trkpt>
      <trkpt lat="36.931071" lon="-3.49518">
        <ele>982.814</ele>
        <time>2015-06-24T15:03:01Z</time>
      </trkpt>
      <trkpt lat="36.930938" lon="-3.495336">
        <ele>979.631</ele>
        <time>2015-06-24T15:03:04Z</time>
      </trkpt>
      <trkpt lat="36.931078" lon="-3.496158">
        <ele>975.083</ele>
        <time>2015-06-24T15:03:10Z</time>
      </trkpt>
      <trkpt lat="36.931037" lon="-3.49643">
        <ele>973.696</ele>
        <time>2015-06-24T15:03:12Z</time>
      </trkpt>
      <trkpt lat="36.930931" lon="-3.496766">
        <ele>970.876</ele>
        <time>2015-06-24T15:03:15Z</time>
      </trkpt>
      <trkpt lat="36.930946" lon="-3.497058">
        <ele>967.608</ele>
        <time>2015-06-24T15:03:18Z</time>
      </trkpt>
      <trkpt lat="36.930958" lon="-3.497235">
        <ele>965.613</ele>
        <time>2015-06-24T15:03:20Z</time>
      </trkpt>
      <trkpt lat="36.930917" lon="-3.497373">
        <ele>963.881</ele>
        <time>2015-06-24T15:03:22Z</time>
      </trkpt>
      <trkpt lat="36.930819" lon="-3.497437">
        <ele>961.454</ele>
        <time>2015-06-24T15:03:24Z</time>
      </trkpt>
      <trkpt lat="36.93066" lon="-3.497288">
        <ele>959.438</ele>
        <time>2015-06-24T15:03:27Z</time>
      </trkpt>
      <trkpt lat="36.930565" lon="-3.497003">
        <ele>956.608</ele>
        <time>2015-06-24T15:03:30Z</time>
      </trkpt>
      <trkpt lat="36.930526" lon="-3.496417">
        <ele>952.637</ele>
        <time>2015-06-24T15:03:35Z</time>
      </trkpt>
      <trkpt lat="36.930504" lon="-3.496194">
        <ele>950.44</ele>
        <time>2015-06-24T15:03:38Z</time>
      </trkpt>
      <trkpt lat="36.93046" lon="-3.496177">
        <ele>948.813</ele>
        <time>2015-06-24T15:03:40Z</time>
      </trkpt>
      <trkpt lat="36.930383" lon="-3.496425">
        <ele>946.468</ele>
        <time>2015-06-24T15:03:43Z</time>
      </trkpt>
      <trkpt lat="36.930305" lon="-3.49669">
        <ele>944.431</ele>
        <time>2015-06-24T15:03:46Z</time>
      </trkpt>
      <trkpt lat="36.930231" lon="-3.496766">
        <ele>943.254</ele>
        <time>2015-06-24T15:03:48Z</time>
      </trkpt>
      <trkpt lat="36.930128" lon="-3.496675">
        <ele>941.024</ele>
        <time>2015-06-24T15:03:51Z</time>
      </trkpt>
      <trkpt lat="36.930071" lon="-3.4964">
        <ele>939.608</ele>
        <time>2015-06-24T15:03:54Z</time>
      </trkpt>
      <trkpt lat="36.930138" lon="-3.496104">
        <ele>937.658</ele>
        <time>2015-06-24T15:03:57Z</time>
      </trkpt>
      <trkpt lat="36.930364" lon="-3.495771">
        <ele>936.279</ele>
        <time>2015-06-24T15:04:01Z</time>
      </trkpt>
      <trkpt lat="36.930394" lon="-3.495632">
        <ele>935.873</ele>
        <time>2015-06-24T15:04:03Z</time>
      </trkpt>
      <trkpt lat="36.930346" lon="-3.495548">
        <ele>934.864</ele>
        <time>2015-06-24T15:04:05Z</time>
      </trkpt>
      <trkpt lat="36.930246" lon="-3.495591">
        <ele>933.616</ele>
        <time>2015-06-24T15:04:07Z</time>
      </trkpt>
      <trkpt lat="36.930049" lon="-3.495964">
        <ele>930.67</ele>
        <time>2015-06-24T15:04:12Z</time>
      </trkpt>
      <trkpt lat="36.929491" lon="-3.496415">
        <ele>924.608</ele>
        <time>2015-06-24T15:04:20Z</time>
      </trkpt>
      <trkpt lat="36.929411" lon="-3.49634">
        <ele>922.898</ele>
        <time>2015-06-24T15:04:22Z</time>
      </trkpt>
      <trkpt lat="36.929362" lon="-3.49621">
        <ele>921.076</ele>
        <time>2015-06-24T15:04:24Z</time>
      </trkpt>
      <trkpt lat="36.929433" lon="-3.496072">
        <ele>919.479</ele>
        <time>2015-06-24T15:04:26Z</time>
      </trkpt>
      <trkpt lat="36.929781" lon="-3.49579">
        <ele>915.02</ele>
        <time>2015-06-24T15:04:31Z</time>
      </trkpt>
      <trkpt lat="36.929863" lon="-3.495413">
        <ele>909.633</ele>
        <time>2015-06-24T15:04:37Z</time>
      </trkpt>
      <trkpt lat="36.92989" lon="-3.495284">
        <ele>905.288</ele>
        <time>2015-06-24T15:04:41Z</time>
      </trkpt>
      <trkpt lat="36.929881" lon="-3.495252">
        <ele>904.224</ele>
        <time>2015-06-24T15:04:42Z</time>
      </trkpt>
      <trkpt lat="36.929671" lon="-3.495369">
        <ele>902.008</ele>
        <time>2015-06-24T15:04:44Z</time>
      </trkpt>
      <trkpt lat="36.929402" lon="-3.49563">
        <ele>898.484</ele>
        <time>2015-06-24T15:04:47Z</time>
      </trkpt>
      <trkpt lat="36.929298" lon="-3.495676">
        <ele>897.282</ele>
        <time>2015-06-24T15:04:48Z</time>
      </trkpt>
      <trkpt lat="36.929029" lon="-3.495501">
        <ele>893.095</ele>
        <time>2015-06-24T15:04:52Z</time>
      </trkpt>
      <trkpt lat="36.928791" lon="-3.495164">
        <ele>888.273</ele>
        <time>2015-06-24T15:04:57Z</time>
      </trkpt>
      <trkpt lat="36.928841" lon="-3.495138">
        <ele>872.248</ele>
        <time>2015-06-24T15:05:36Z</time>
      </trkpt>
      <trkpt lat="36.929288" lon="-3.495112">
        <ele>871.059</ele>
        <time>2015-06-24T15:05:43Z</time>
      </trkpt>
      <trkpt lat="36.929665" lon="-3.494782">
        <ele>868.208</ele>
        <time>2015-06-24T15:05:49Z</time>
      </trkpt>
      <trkpt lat="36.929804" lon="-3.494477">
        <ele>865.493</ele>
        <time>2015-06-24T15:05:53Z</time>
      </trkpt>
      <trkpt lat="36.929763" lon="-3.494285">
        <ele>862.862</ele>
        <time>2015-06-24T15:05:58Z</time>
      </trkpt>
      <trkpt lat="36.929591" lon="-3.494218">
        <ele>860.242</ele>
        <time>2015-06-24T15:06:04Z</time>
      </trkpt>
      <trkpt lat="36.929253" lon="-3.493878">
        <ele>856.234</ele>
        <time>2015-06-24T15:06:26Z</time>
      </trkpt>
      <trkpt lat="36.928856" lon="-3.493957">
        <ele>852.679</ele>
        <time>2015-06-24T15:06:32Z</time>
      </trkpt>
      <trkpt lat="36.928546" lon="-3.493899">
        <ele>851.478</ele>
        <time>2015-06-24T15:06:38Z</time>
      </trkpt>
      <trkpt lat="36.927652" lon="-3.493426">
        <ele>846.024</ele>
        <time>2015-06-24T15:06:50Z</time>
      </trkpt>
      <trkpt lat="36.927247" lon="-3.493035">
        <ele>841.233</ele>
        <time>2015-06-24T15:06:57Z</time>
      </trkpt>
      <trkpt lat="36.926727" lon="-3.492847">
        <ele>836.878</ele>
        <time>2015-06-24T15:07:04Z</time>
      </trkpt>
      <trkpt lat="36.926525" lon="-3.492843">
        <ele>834.831</ele>
        <time>2015-06-24T15:07:07Z</time>
      </trkpt>
      <trkpt lat="36.926445" lon="-3.492912">
        <ele>833.451</ele>
        <time>2015-06-24T15:07:08Z</time>
      </trkpt>
      <trkpt lat="36.926191" lon="-3.492933">
        <ele>831.444</ele>
        <time>2015-06-24T15:07:11Z</time>
      </trkpt>
      <trkpt lat="36.926031" lon="-3.492885">
        <ele>829.655</ele>
        <time>2015-06-24T15:07:13Z</time>
      </trkpt>
      <trkpt lat="36.925832" lon="-3.492619">
        <ele>825.819</ele>
        <time>2015-06-24T15:07:17Z</time>
      </trkpt>
      <trkpt lat="36.925612" lon="-3.492299">
        <ele>821.844</ele>
        <time>2015-06-24T15:07:22Z</time>
      </trkpt>
      <trkpt lat="36.925334" lon="-3.492098">
        <ele>819.02</ele>
        <time>2015-06-24T15:07:26Z</time>
      </trkpt>
      <trkpt lat="36.924827" lon="-3.492005">
        <ele>814.213</ele>
        <time>2015-06-24T15:07:32Z</time>
      </trkpt>
      <trkpt lat="36.924376" lon="-3.491705">
        <ele>808.208</ele>
        <time>2015-06-24T15:07:39Z</time>
      </trkpt>
      <trkpt lat="36.924135" lon="-3.491514">
        <ele>805.846</ele>
        <time>2015-06-24T15:07:43Z</time>
      </trkpt>
      <trkpt lat="36.924039" lon="-3.491535">
        <ele>804.449</ele>
        <time>2015-06-24T15:07:45Z</time>
      </trkpt>
      <trkpt lat="36.923998" lon="-3.491639">
        <ele>802.889</ele>
        <time>2015-06-24T15:07:47Z</time>
      </trkpt>
      <trkpt lat="36.924064" lon="-3.491818">
        <ele>800.617</ele>
        <time>2015-06-24T15:07:50Z</time>
      </trkpt>
      <trkpt lat="36.924666" lon="-3.492176">
        <ele>797.822</ele>
        <time>2015-06-24T15:08:01Z</time>
      </trkpt>
      <trkpt lat="36.925113" lon="-3.492813">
        <ele>793.881</ele>
        <time>2015-06-24T15:08:11Z</time>
      </trkpt>
      <trkpt lat="36.925137" lon="-3.49295">
        <ele>791.456</ele>
        <time>2015-06-24T15:08:15Z</time>
      </trkpt>
      <trkpt lat="36.925009" lon="-3.493148">
        <ele>789.291</ele>
        <time>2015-06-24T15:08:20Z</time>
      </trkpt>
      <trkpt lat="36.925015" lon="-3.493244">
        <ele>786.649</ele>
        <time>2015-06-24T15:08:23Z</time>
      </trkpt>
      <trkpt lat="36.92526" lon="-3.493351">
        <ele>784.408</ele>
        <time>2015-06-24T15:08:30Z</time>
      </trkpt>
      <trkpt lat="36.925263" lon="-3.493489">
        <ele>782.227</ele>
        <time>2015-06-24T15:08:35Z</time>
      </trkpt>
      <trkpt lat="36.925206" lon="-3.49355">
        <ele>780.68</ele>
        <time>2015-06-24T15:08:38Z</time>
      </trkpt>
      <trkpt lat="36.925047" lon="-3.493569">
        <ele>778.408</ele>
        <time>2015-06-24T15:08:42Z</time>
      </trkpt>
      <trkpt lat="36.924309" lon="-3.493061">
        <ele>777.693</ele>
        <time>2015-06-24T15:08:43Z</time>
      </trkpt>
      <trkpt lat="36.924004" lon="-3.492868">
        <ele>774.426</ele>
        <time>2015-06-24T15:08:47Z</time>
      </trkpt>
      <trkpt lat="36.923425" lon="-3.492247">
        <ele>767.208</ele>
        <time>2015-06-24T15:08:54Z</time>
      </trkpt>
      <trkpt lat="36.923214" lon="-3.491986">
        <ele>764.097</ele>
        <time>2015-06-24T15:08:57Z</time>
      </trkpt>
      <trkpt lat="36.922796" lon="-3.491751">
        <ele>756.896</ele>
        <time>2015-06-24T15:09:03Z</time>
      </trkpt>
      <trkpt lat="36.922534" lon="-3.491757">
        <ele>752.24</ele>
        <time>2015-06-24T15:09:07Z</time>
      </trkpt>
      <trkpt lat="36.922314" lon="-3.491959">
        <ele>743.826</ele>
        <time>2015-06-24T15:09:14Z</time>
      </trkpt>
      <trkpt lat="36.92233" lon="-3.492093">
        <ele>742.018</ele>
        <time>2015-06-24T15:09:17Z</time>
      </trkpt>
      <trkpt lat="36.922622" lon="-3.492298">
        <ele>740.289</ele>
        <time>2015-06-24T15:09:20Z</time>
      </trkpt>
      <trkpt lat="36.922797" lon="-3.492494">
        <ele>739.067</ele>
        <time>2015-06-24T15:09:22Z</time>
      </trkpt>
      <trkpt lat="36.922886" lon="-3.49282">
        <ele>735.622</ele>
        <time>2015-06-24T15:09:27Z</time>
      </trkpt>
      <trkpt lat="36.922835" lon="-3.492935">
        <ele>733.608</ele>
        <time>2015-06-24T15:09:30Z</time>
      </trkpt>
      <trkpt lat="36.922395" lon="-3.492966">
        <ele>724.088</ele>
        <time>2015-06-24T15:09:39Z</time>
      </trkpt>
      <trkpt lat="36.922046" lon="-3.492819">
        <ele>717.474</ele>
        <time>2015-06-24T15:09:45Z</time>
      </trkpt>
      <trkpt lat="36.921806" lon="-3.492873">
        <ele>713.479</ele>
        <time>2015-06-24T15:09:49Z</time>
      </trkpt>
      <trkpt lat="36.921748" lon="-3.492896">
        <ele>712.435</ele>
        <time>2015-06-24T15:09:50Z</time>
      </trkpt>
      <trkpt lat="36.921622" lon="-3.492871">
        <ele>711.683</ele>
        <time>2015-06-24T15:09:51Z</time>
      </trkpt>
      <trkpt lat="36.921363" lon="-3.492874">
        <ele>707.889</ele>
        <time>2015-06-24T15:09:55Z</time>
      </trkpt>
      <trkpt lat="36.921275" lon="-3.492847">
        <ele>705.814</ele>
        <time>2015-06-24T15:09:57Z</time>
      </trkpt>
      <trkpt lat="36.920384" lon="-3.491913">
        <ele>698.482</ele>
        <time>2015-06-24T15:10:12Z</time>
      </trkpt>
      <trkpt lat="36.919992" lon="-3.491242">
        <ele>694.88</ele>
        <time>2015-06-24T15:10:29Z</time>
      </trkpt>
      <trkpt lat="36.919873" lon="-3.4909">
        <ele>694.838</ele>
        <time>2015-06-24T15:10:38Z</time>
      </trkpt>
      <trkpt lat="36.919657" lon="-3.490485">
        <ele>694.425</ele>
        <time>2015-06-24T15:10:47Z</time>
      </trkpt>
      <trkpt lat="36.919035" lon="-3.489711">
        <ele>692.684</ele>
        <time>2015-06-24T15:11:29Z</time>
      </trkpt>
      <trkpt lat="36.91908" lon="-3.489686">
        <ele>690.647</ele>
        <time>2015-06-24T15:12:05Z</time>
      </trkpt>
      <trkpt lat="36.918918" lon="-3.489531">
        <ele>690.608</ele>
        <time>2015-06-24T15:12:40Z</time>
      </trkpt>
      <trkpt lat="36.918749" lon="-3.489165">
        <ele>690.677</ele>
        <time>2015-06-24T15:12:55Z</time>
      </trkpt>
      <trkpt lat="36.918592" lon="-3.488743">
        <ele>688.621</ele>
        <time>2015-06-24T15:13:12Z</time>
      </trkpt>
      <trkpt lat="36.918523" lon="-3.488063">
        <ele>682.477</ele>
        <time>2015-06-24T15:15:02Z</time>
      </trkpt>
      <trkpt lat="36.918408" lon="-3.487415">
        <ele>680.654</ele>
        <time>2015-06-24T15:15:15Z</time>
      </trkpt>
      <trkpt lat="36.917847" lon="-3.485981">
        <ele>679.845</ele>
        <time>2015-06-24T15:15:51Z</time>
      </trkpt>
      <trkpt lat="36.917802" lon="-3.485937">
        <ele>678.093</ele>
        <time>2015-06-24T15:16:22Z</time>
      </trkpt>
    </trkseg>
  </trk>
</gpx>
